<?xml version="1.0" encoding="UTF-8" standalone="no" ?>
<gpx xmlns="http://www.topografix.com/GPX/1/1" xmlns:xsi="http://www.w3.org/2001/XMLSchema-instance" xsi:schemaLocation="http://www.topografix.com/GPX/1/1 http://www.topografix.com/GPX/1/1/gpx.xsd" version="1.1" creator="VisuGPX - https://www.visugpx.com">
  <metadata>
    <name>tour bpf 69</name>
  </metadata>
  <wpt lat="46.29197" lon="4.69488">
    <ele>523</ele>
    <name><![CDATA[FR-69-0590]]></name>
    <desc><![CDATA[D23, GR76a, GR76d]]></desc>
  </wpt>
  <wpt lat="46.54966" lon="4.87274">
    <ele>307.5</ele>
    <name><![CDATA[FR-71-0303]]></name>
    <desc><![CDATA[D14]]></desc>
  </wpt>
  <wpt lat="45.91551" lon="4.34583">
    <ele>759.5</ele>
    <name><![CDATA[FR-42-0759]]></name>
    <desc><![CDATA[N7, GR7]]></desc>
  </wpt>
  <wpt lat="45.75825" lon="4.81318">
    <ele>265.6</ele>
    <name><![CDATA[FR-69-0266]]></name>
    <desc><![CDATA[Chemin de Choulans]]></desc>
  </wpt>
  <wpt lat="46.17913" lon="4.64237">
    <ele>477.8</ele>
    <name><![CDATA[FR-69-0445]]></name>
    <desc><![CDATA[D18/D26]]></desc>
  </wpt>
  <wpt lat="46.1925" lon="4.64835">
    <ele>542</ele>
    <name><![CDATA[FR-69-0541]]></name>
    <desc><![CDATA[D26/D86/D18e]]></desc>
  </wpt>
  <wpt lat="46.29197" lon="4.69488">
    <ele>523</ele>
    <name><![CDATA[FR-69-0590]]></name>
    <desc><![CDATA[D23, GR76a, GR76d]]></desc>
  </wpt>
  <wpt lat="45.91617" lon="4.4393">
    <ele>598.2</ele>
    <name><![CDATA[FR-69-0598a]]></name>
    <desc><![CDATA[D56E/CV]]></desc>
  </wpt>
  <wpt lat="46.26105" lon="4.66028">
    <ele>612.5</ele>
    <name><![CDATA[FR-69-0613]]></name>
    <desc><![CDATA[D68/D137]]></desc>
  </wpt>
  <wpt lat="46.25468" lon="4.64336">
    <ele>609.6</ele>
    <name><![CDATA[FR-69-0615]]></name>
    <desc><![CDATA[D17/D644]]></desc>
  </wpt>
  <wpt lat="45.93039" lon="4.4264">
    <ele>622.6</ele>
    <name><![CDATA[FR-69-0623]]></name>
    <desc><![CDATA[D56/D82]]></desc>
  </wpt>
  <wpt lat="45.92717" lon="4.43084">
    <ele>638.4</ele>
    <name><![CDATA[FR-69-0635]]></name>
    <desc><![CDATA[CV]]></desc>
  </wpt>
  <wpt lat="46.2582" lon="4.62244">
    <ele>646.9</ele>
    <name><![CDATA[FR-69-0638]]></name>
    <desc><![CDATA[D17/D23, GR76a]]></desc>
  </wpt>
  <wpt lat="46.23965" lon="4.62245">
    <ele>663.3</ele>
    <name><![CDATA[FR-69-0680b]]></name>
    <desc><![CDATA[D32]]></desc>
  </wpt>
  <wpt lat="45.92694" lon="4.37858">
    <ele>723</ele>
    <name><![CDATA[FR-69-0723]]></name>
    <desc><![CDATA[D8/D121, GR7]]></desc>
  </wpt>
  <wpt lat="45.72084" lon="4.56836">
    <ele>811.1</ele>
    <name><![CDATA[FR-69-0811]]></name>
    <desc><![CDATA[D25, GRP Tour des Monts du Lyonnais]]></desc>
  </wpt>
  <wpt lat="45.91551" lon="4.34583">
    <ele>759.5</ele>
    <name><![CDATA[FR-42-0759]]></name>
    <desc><![CDATA[N7, GR7]]></desc>
  </wpt>
  <wpt lat="45.85501" lon="4.36399">
    <ele>864.6</ele>
    <name><![CDATA[FR-42-0865]]></name>
    <desc><![CDATA[D1, GR7]]></desc>
  </wpt>
  <trk>
    <name><![CDATA[bpf 69 jour 2]]></name>
    <extensions>
      <line xmlns="http://www.topografix.com/GPX/gpx_style/0/2">
        <color>0000FF</color>
        <width>4</width>
      </line>
    </extensions>
    <trkseg>
      <trkpt lat="46.05612" lon="4.59177">
        <ele>372.6</ele>
        <time>2022-06-26T04:34:40Z</time>
      </trkpt>
      <trkpt lat="46.05612" lon="4.59173">
        <ele>373.2</ele>
        <time>2022-06-26T04:34:52Z</time>
      </trkpt>
      <trkpt lat="46.05611" lon="4.59171">
        <ele>373.2</ele>
        <time>2022-06-26T04:34:53Z</time>
      </trkpt>
      <trkpt lat="46.0561" lon="4.59168">
        <ele>372.8</ele>
        <time>2022-06-26T04:34:54Z</time>
      </trkpt>
      <trkpt lat="46.05609" lon="4.59164">
        <ele>372.8</ele>
        <time>2022-06-26T04:34:55Z</time>
      </trkpt>
      <trkpt lat="46.05607" lon="4.59159">
        <ele>372.4</ele>
        <time>2022-06-26T04:34:56Z</time>
      </trkpt>
      <trkpt lat="46.05606" lon="4.59154">
        <ele>372.2</ele>
        <time>2022-06-26T04:34:57Z</time>
      </trkpt>
      <trkpt lat="46.05603" lon="4.59149">
        <ele>371.8</ele>
        <time>2022-06-26T04:34:58Z</time>
      </trkpt>
      <trkpt lat="46.05601" lon="4.59144">
        <ele>371.4</ele>
        <time>2022-06-26T04:34:59Z</time>
      </trkpt>
      <trkpt lat="46.05598" lon="4.59137">
        <ele>371.2</ele>
        <time>2022-06-26T04:35:00Z</time>
      </trkpt>
      <trkpt lat="46.05595" lon="4.5913">
        <ele>370.6</ele>
        <time>2022-06-26T04:35:01Z</time>
      </trkpt>
      <trkpt lat="46.05592" lon="4.59124">
        <ele>370.2</ele>
        <time>2022-06-26T04:35:02Z</time>
      </trkpt>
      <trkpt lat="46.05589" lon="4.59116">
        <ele>370</ele>
        <time>2022-06-26T04:35:03Z</time>
      </trkpt>
      <trkpt lat="46.05585" lon="4.59107">
        <ele>369.4</ele>
        <time>2022-06-26T04:35:04Z</time>
      </trkpt>
      <trkpt lat="46.05582" lon="4.59099">
        <ele>369.2</ele>
        <time>2022-06-26T04:35:05Z</time>
      </trkpt>
      <trkpt lat="46.05578" lon="4.5909">
        <ele>368.8</ele>
        <time>2022-06-26T04:35:06Z</time>
      </trkpt>
      <trkpt lat="46.05574" lon="4.59081">
        <ele>368.4</ele>
        <time>2022-06-26T04:35:07Z</time>
      </trkpt>
      <trkpt lat="46.05571" lon="4.59071">
        <ele>368</ele>
        <time>2022-06-26T04:35:08Z</time>
      </trkpt>
      <trkpt lat="46.05569" lon="4.59061">
        <ele>367.6</ele>
        <time>2022-06-26T04:35:09Z</time>
      </trkpt>
      <trkpt lat="46.05566" lon="4.59051">
        <ele>367.4</ele>
        <time>2022-06-26T04:35:10Z</time>
      </trkpt>
      <trkpt lat="46.05563" lon="4.5904">
        <ele>367</ele>
        <time>2022-06-26T04:35:11Z</time>
      </trkpt>
      <trkpt lat="46.05561" lon="4.59028">
        <ele>366.6</ele>
        <time>2022-06-26T04:35:12Z</time>
      </trkpt>
      <trkpt lat="46.05558" lon="4.59017">
        <ele>366.2</ele>
        <time>2022-06-26T04:35:13Z</time>
      </trkpt>
      <trkpt lat="46.05555" lon="4.59006">
        <ele>365.6</ele>
        <time>2022-06-26T04:35:14Z</time>
      </trkpt>
      <trkpt lat="46.05551" lon="4.58995">
        <ele>365.4</ele>
        <time>2022-06-26T04:35:15Z</time>
      </trkpt>
      <trkpt lat="46.05547" lon="4.58984">
        <ele>365</ele>
        <time>2022-06-26T04:35:16Z</time>
      </trkpt>
      <trkpt lat="46.05543" lon="4.58974">
        <ele>364.8</ele>
        <time>2022-06-26T04:35:17Z</time>
      </trkpt>
      <trkpt lat="46.05539" lon="4.58965">
        <ele>364.6</ele>
        <time>2022-06-26T04:35:18Z</time>
      </trkpt>
      <trkpt lat="46.05536" lon="4.58955">
        <ele>364.4</ele>
        <time>2022-06-26T04:35:19Z</time>
      </trkpt>
      <trkpt lat="46.05532" lon="4.58946">
        <ele>364.4</ele>
        <time>2022-06-26T04:35:20Z</time>
      </trkpt>
      <trkpt lat="46.05529" lon="4.58938">
        <ele>364.4</ele>
        <time>2022-06-26T04:35:21Z</time>
      </trkpt>
      <trkpt lat="46.05525" lon="4.58929">
        <ele>364.2</ele>
        <time>2022-06-26T04:35:22Z</time>
      </trkpt>
      <trkpt lat="46.05522" lon="4.58921">
        <ele>364.2</ele>
        <time>2022-06-26T04:35:23Z</time>
      </trkpt>
      <trkpt lat="46.0552" lon="4.58912">
        <ele>363.8</ele>
        <time>2022-06-26T04:35:24Z</time>
      </trkpt>
      <trkpt lat="46.05519" lon="4.58903">
        <ele>363.6</ele>
        <time>2022-06-26T04:35:25Z</time>
      </trkpt>
      <trkpt lat="46.05517" lon="4.58894">
        <ele>363.6</ele>
        <time>2022-06-26T04:35:26Z</time>
      </trkpt>
      <trkpt lat="46.05516" lon="4.58885">
        <ele>363.2</ele>
        <time>2022-06-26T04:35:27Z</time>
      </trkpt>
      <trkpt lat="46.05514" lon="4.58876">
        <ele>363.2</ele>
        <time>2022-06-26T04:35:28Z</time>
      </trkpt>
      <trkpt lat="46.05512" lon="4.58866">
        <ele>363</ele>
        <time>2022-06-26T04:35:29Z</time>
      </trkpt>
      <trkpt lat="46.0551" lon="4.58856">
        <ele>362.8</ele>
        <time>2022-06-26T04:35:30Z</time>
      </trkpt>
      <trkpt lat="46.05508" lon="4.58845">
        <ele>362.6</ele>
        <time>2022-06-26T04:35:31Z</time>
      </trkpt>
      <trkpt lat="46.05506" lon="4.58834">
        <ele>362.2</ele>
        <time>2022-06-26T04:35:32Z</time>
      </trkpt>
      <trkpt lat="46.05504" lon="4.58823">
        <ele>362</ele>
        <time>2022-06-26T04:35:33Z</time>
      </trkpt>
      <trkpt lat="46.05502" lon="4.58811">
        <ele>361.6</ele>
        <time>2022-06-26T04:35:34Z</time>
      </trkpt>
      <trkpt lat="46.055" lon="4.588">
        <ele>361</ele>
        <time>2022-06-26T04:35:35Z</time>
      </trkpt>
      <trkpt lat="46.05498" lon="4.58789">
        <ele>360.6</ele>
        <time>2022-06-26T04:35:36Z</time>
      </trkpt>
      <trkpt lat="46.05496" lon="4.58777">
        <ele>360.4</ele>
        <time>2022-06-26T04:35:37Z</time>
      </trkpt>
      <trkpt lat="46.05493" lon="4.58766">
        <ele>360</ele>
        <time>2022-06-26T04:35:38Z</time>
      </trkpt>
      <trkpt lat="46.0549" lon="4.58756">
        <ele>359.6</ele>
        <time>2022-06-26T04:35:39Z</time>
      </trkpt>
      <trkpt lat="46.05485" lon="4.58747">
        <ele>359.2</ele>
        <time>2022-06-26T04:35:40Z</time>
      </trkpt>
      <trkpt lat="46.05479" lon="4.58739">
        <ele>358.6</ele>
        <time>2022-06-26T04:35:41Z</time>
      </trkpt>
      <trkpt lat="46.05471" lon="4.58734">
        <ele>358.2</ele>
        <time>2022-06-26T04:35:42Z</time>
      </trkpt>
      <trkpt lat="46.05463" lon="4.58731">
        <ele>357.8</ele>
        <time>2022-06-26T04:35:43Z</time>
      </trkpt>
      <trkpt lat="46.05455" lon="4.5873">
        <ele>357.6</ele>
        <time>2022-06-26T04:35:44Z</time>
      </trkpt>
      <trkpt lat="46.05446" lon="4.5873">
        <ele>357.2</ele>
        <time>2022-06-26T04:35:45Z</time>
      </trkpt>
      <trkpt lat="46.05438" lon="4.58729">
        <ele>356.8</ele>
        <time>2022-06-26T04:35:46Z</time>
      </trkpt>
      <trkpt lat="46.0543" lon="4.58726">
        <ele>356.2</ele>
        <time>2022-06-26T04:35:47Z</time>
      </trkpt>
      <trkpt lat="46.05422" lon="4.58723">
        <ele>355.8</ele>
        <time>2022-06-26T04:35:48Z</time>
      </trkpt>
      <trkpt lat="46.05415" lon="4.58718">
        <ele>355.2</ele>
        <time>2022-06-26T04:35:49Z</time>
      </trkpt>
      <trkpt lat="46.05408" lon="4.58711">
        <ele>354.8</ele>
        <time>2022-06-26T04:35:50Z</time>
      </trkpt>
      <trkpt lat="46.05401" lon="4.58704">
        <ele>354.4</ele>
        <time>2022-06-26T04:35:51Z</time>
      </trkpt>
      <trkpt lat="46.05394" lon="4.58696">
        <ele>353.8</ele>
        <time>2022-06-26T04:35:52Z</time>
      </trkpt>
      <trkpt lat="46.05388" lon="4.58686">
        <ele>353.4</ele>
        <time>2022-06-26T04:35:53Z</time>
      </trkpt>
      <trkpt lat="46.05383" lon="4.58676">
        <ele>352.8</ele>
        <time>2022-06-26T04:35:54Z</time>
      </trkpt>
      <trkpt lat="46.05379" lon="4.58665">
        <ele>352.4</ele>
        <time>2022-06-26T04:35:55Z</time>
      </trkpt>
      <trkpt lat="46.05375" lon="4.58654">
        <ele>352</ele>
        <time>2022-06-26T04:35:56Z</time>
      </trkpt>
      <trkpt lat="46.0537" lon="4.58644">
        <ele>351.6</ele>
        <time>2022-06-26T04:35:57Z</time>
      </trkpt>
      <trkpt lat="46.05366" lon="4.58634">
        <ele>351.2</ele>
        <time>2022-06-26T04:35:58Z</time>
      </trkpt>
      <trkpt lat="46.05361" lon="4.58625">
        <ele>350.6</ele>
        <time>2022-06-26T04:35:59Z</time>
      </trkpt>
      <trkpt lat="46.05356" lon="4.58616">
        <ele>350.2</ele>
        <time>2022-06-26T04:36:00Z</time>
      </trkpt>
      <trkpt lat="46.05351" lon="4.58608">
        <ele>349.8</ele>
        <time>2022-06-26T04:36:01Z</time>
      </trkpt>
      <trkpt lat="46.05346" lon="4.58601">
        <ele>349.4</ele>
        <time>2022-06-26T04:36:02Z</time>
      </trkpt>
      <trkpt lat="46.0534" lon="4.58596">
        <ele>349</ele>
        <time>2022-06-26T04:36:03Z</time>
      </trkpt>
      <trkpt lat="46.05333" lon="4.58591">
        <ele>348.6</ele>
        <time>2022-06-26T04:36:04Z</time>
      </trkpt>
      <trkpt lat="46.05326" lon="4.58587">
        <ele>348.2</ele>
        <time>2022-06-26T04:36:05Z</time>
      </trkpt>
      <trkpt lat="46.05319" lon="4.58583">
        <ele>347.6</ele>
        <time>2022-06-26T04:36:06Z</time>
      </trkpt>
      <trkpt lat="46.05312" lon="4.58579">
        <ele>347.2</ele>
        <time>2022-06-26T04:36:07Z</time>
      </trkpt>
      <trkpt lat="46.05306" lon="4.58574">
        <ele>346.8</ele>
        <time>2022-06-26T04:36:08Z</time>
      </trkpt>
      <trkpt lat="46.05299" lon="4.58569">
        <ele>346.4</ele>
        <time>2022-06-26T04:36:09Z</time>
      </trkpt>
      <trkpt lat="46.05293" lon="4.58564">
        <ele>346</ele>
        <time>2022-06-26T04:36:10Z</time>
      </trkpt>
      <trkpt lat="46.05286" lon="4.58559">
        <ele>345.6</ele>
        <time>2022-06-26T04:36:11Z</time>
      </trkpt>
      <trkpt lat="46.0528" lon="4.58554">
        <ele>345.2</ele>
        <time>2022-06-26T04:36:12Z</time>
      </trkpt>
      <trkpt lat="46.05274" lon="4.58548">
        <ele>344.8</ele>
        <time>2022-06-26T04:36:13Z</time>
      </trkpt>
      <trkpt lat="46.05268" lon="4.58542">
        <ele>344.6</ele>
        <time>2022-06-26T04:36:14Z</time>
      </trkpt>
      <trkpt lat="46.05263" lon="4.58536">
        <ele>344.2</ele>
        <time>2022-06-26T04:36:15Z</time>
      </trkpt>
      <trkpt lat="46.05258" lon="4.5853">
        <ele>343.8</ele>
        <time>2022-06-26T04:36:16Z</time>
      </trkpt>
      <trkpt lat="46.05253" lon="4.58525">
        <ele>343.4</ele>
        <time>2022-06-26T04:36:17Z</time>
      </trkpt>
      <trkpt lat="46.05248" lon="4.58519">
        <ele>343</ele>
        <time>2022-06-26T04:36:18Z</time>
      </trkpt>
      <trkpt lat="46.05242" lon="4.58515">
        <ele>342.6</ele>
        <time>2022-06-26T04:36:19Z</time>
      </trkpt>
      <trkpt lat="46.05236" lon="4.58511">
        <ele>342</ele>
        <time>2022-06-26T04:36:20Z</time>
      </trkpt>
      <trkpt lat="46.0523" lon="4.58508">
        <ele>341.6</ele>
        <time>2022-06-26T04:36:21Z</time>
      </trkpt>
      <trkpt lat="46.05224" lon="4.58505">
        <ele>341.2</ele>
        <time>2022-06-26T04:36:22Z</time>
      </trkpt>
      <trkpt lat="46.05218" lon="4.58502">
        <ele>340.8</ele>
        <time>2022-06-26T04:36:23Z</time>
      </trkpt>
      <trkpt lat="46.05212" lon="4.58498">
        <ele>340.4</ele>
        <time>2022-06-26T04:36:24Z</time>
      </trkpt>
      <trkpt lat="46.05206" lon="4.58494">
        <ele>340</ele>
        <time>2022-06-26T04:36:25Z</time>
      </trkpt>
      <trkpt lat="46.052" lon="4.58489">
        <ele>339.8</ele>
        <time>2022-06-26T04:36:26Z</time>
      </trkpt>
      <trkpt lat="46.05195" lon="4.58484">
        <ele>339.4</ele>
        <time>2022-06-26T04:36:27Z</time>
      </trkpt>
      <trkpt lat="46.05189" lon="4.58479">
        <ele>339</ele>
        <time>2022-06-26T04:36:28Z</time>
      </trkpt>
      <trkpt lat="46.05184" lon="4.58473">
        <ele>338.8</ele>
        <time>2022-06-26T04:36:29Z</time>
      </trkpt>
      <trkpt lat="46.05178" lon="4.58468">
        <ele>338.4</ele>
        <time>2022-06-26T04:36:30Z</time>
      </trkpt>
      <trkpt lat="46.05174" lon="4.58462">
        <ele>338.2</ele>
        <time>2022-06-26T04:36:31Z</time>
      </trkpt>
      <trkpt lat="46.0517" lon="4.58456">
        <ele>337.8</ele>
        <time>2022-06-26T04:36:32Z</time>
      </trkpt>
      <trkpt lat="46.05166" lon="4.5845">
        <ele>337.4</ele>
        <time>2022-06-26T04:36:33Z</time>
      </trkpt>
      <trkpt lat="46.05163" lon="4.58443">
        <ele>337.2</ele>
        <time>2022-06-26T04:36:34Z</time>
      </trkpt>
      <trkpt lat="46.05159" lon="4.58436">
        <ele>337</ele>
        <time>2022-06-26T04:36:35Z</time>
      </trkpt>
      <trkpt lat="46.05156" lon="4.58429">
        <ele>337</ele>
        <time>2022-06-26T04:36:36Z</time>
      </trkpt>
      <trkpt lat="46.05154" lon="4.58422">
        <ele>336.8</ele>
        <time>2022-06-26T04:36:37Z</time>
      </trkpt>
      <trkpt lat="46.05151" lon="4.58415">
        <ele>336.8</ele>
        <time>2022-06-26T04:36:38Z</time>
      </trkpt>
      <trkpt lat="46.05149" lon="4.58408">
        <ele>336.8</ele>
        <time>2022-06-26T04:36:39Z</time>
      </trkpt>
      <trkpt lat="46.05148" lon="4.584">
        <ele>336.4</ele>
        <time>2022-06-26T04:36:40Z</time>
      </trkpt>
      <trkpt lat="46.05146" lon="4.58393">
        <ele>336.4</ele>
        <time>2022-06-26T04:36:41Z</time>
      </trkpt>
      <trkpt lat="46.05146" lon="4.58387">
        <ele>336.4</ele>
        <time>2022-06-26T04:36:42Z</time>
      </trkpt>
      <trkpt lat="46.05145" lon="4.58381">
        <ele>336.4</ele>
        <time>2022-06-26T04:36:43Z</time>
      </trkpt>
      <trkpt lat="46.05144" lon="4.58376">
        <ele>336.4</ele>
        <time>2022-06-26T04:36:44Z</time>
      </trkpt>
      <trkpt lat="46.05144" lon="4.58371">
        <ele>336.4</ele>
        <time>2022-06-26T04:36:45Z</time>
      </trkpt>
      <trkpt lat="46.05143" lon="4.58366">
        <ele>336.4</ele>
        <time>2022-06-26T04:36:46Z</time>
      </trkpt>
      <trkpt lat="46.05142" lon="4.58362">
        <ele>336.4</ele>
        <time>2022-06-26T04:36:47Z</time>
      </trkpt>
      <trkpt lat="46.0514" lon="4.58357">
        <ele>336.4</ele>
        <time>2022-06-26T04:36:48Z</time>
      </trkpt>
      <trkpt lat="46.05139" lon="4.58353">
        <ele>336.8</ele>
        <time>2022-06-26T04:36:49Z</time>
      </trkpt>
      <trkpt lat="46.05138" lon="4.58348">
        <ele>336.8</ele>
        <time>2022-06-26T04:36:50Z</time>
      </trkpt>
      <trkpt lat="46.05137" lon="4.58343">
        <ele>337</ele>
        <time>2022-06-26T04:36:51Z</time>
      </trkpt>
      <trkpt lat="46.05135" lon="4.58339">
        <ele>337</ele>
        <time>2022-06-26T04:36:52Z</time>
      </trkpt>
      <trkpt lat="46.05134" lon="4.58334">
        <ele>337</ele>
        <time>2022-06-26T04:36:53Z</time>
      </trkpt>
      <trkpt lat="46.05132" lon="4.5833">
        <ele>337.4</ele>
        <time>2022-06-26T04:36:54Z</time>
      </trkpt>
      <trkpt lat="46.0513" lon="4.58326">
        <ele>337.4</ele>
        <time>2022-06-26T04:36:55Z</time>
      </trkpt>
      <trkpt lat="46.05128" lon="4.58321">
        <ele>337.4</ele>
        <time>2022-06-26T04:36:56Z</time>
      </trkpt>
      <trkpt lat="46.05127" lon="4.58317">
        <ele>337.6</ele>
        <time>2022-06-26T04:36:57Z</time>
      </trkpt>
      <trkpt lat="46.05126" lon="4.58313">
        <ele>337.6</ele>
        <time>2022-06-26T04:36:58Z</time>
      </trkpt>
      <trkpt lat="46.05124" lon="4.58309">
        <ele>337.8</ele>
        <time>2022-06-26T04:36:59Z</time>
      </trkpt>
      <trkpt lat="46.05122" lon="4.58305">
        <ele>338</ele>
        <time>2022-06-26T04:37:00Z</time>
      </trkpt>
      <trkpt lat="46.05121" lon="4.583">
        <ele>338</ele>
        <time>2022-06-26T04:37:01Z</time>
      </trkpt>
      <trkpt lat="46.0512" lon="4.58297">
        <ele>338.2</ele>
        <time>2022-06-26T04:37:02Z</time>
      </trkpt>
      <trkpt lat="46.05118" lon="4.58293">
        <ele>338.2</ele>
        <time>2022-06-26T04:37:03Z</time>
      </trkpt>
      <trkpt lat="46.05117" lon="4.5829">
        <ele>338.6</ele>
        <time>2022-06-26T04:37:04Z</time>
      </trkpt>
      <trkpt lat="46.05116" lon="4.58288">
        <ele>338.6</ele>
        <time>2022-06-26T04:37:05Z</time>
      </trkpt>
      <trkpt lat="46.05116" lon="4.58286">
        <ele>338.8</ele>
        <time>2022-06-26T04:37:06Z</time>
      </trkpt>
      <trkpt lat="46.05114" lon="4.58283">
        <ele>339</ele>
        <time>2022-06-26T04:37:33Z</time>
      </trkpt>
      <trkpt lat="46.05113" lon="4.5828">
        <ele>339</ele>
        <time>2022-06-26T04:37:34Z</time>
      </trkpt>
      <trkpt lat="46.05112" lon="4.58278">
        <ele>339.2</ele>
        <time>2022-06-26T04:37:35Z</time>
      </trkpt>
      <trkpt lat="46.05111" lon="4.58276">
        <ele>339.2</ele>
        <time>2022-06-26T04:37:36Z</time>
      </trkpt>
      <trkpt lat="46.05109" lon="4.58273">
        <ele>339.2</ele>
        <time>2022-06-26T04:37:37Z</time>
      </trkpt>
      <trkpt lat="46.05108" lon="4.5827">
        <ele>339.2</ele>
        <time>2022-06-26T04:37:38Z</time>
      </trkpt>
      <trkpt lat="46.05107" lon="4.58267">
        <ele>339.4</ele>
        <time>2022-06-26T04:37:39Z</time>
      </trkpt>
      <trkpt lat="46.05106" lon="4.58263">
        <ele>339.4</ele>
        <time>2022-06-26T04:37:40Z</time>
      </trkpt>
      <trkpt lat="46.05105" lon="4.5826">
        <ele>339.8</ele>
        <time>2022-06-26T04:37:41Z</time>
      </trkpt>
      <trkpt lat="46.05104" lon="4.58256">
        <ele>339.8</ele>
        <time>2022-06-26T04:37:42Z</time>
      </trkpt>
      <trkpt lat="46.05103" lon="4.58252">
        <ele>340</ele>
        <time>2022-06-26T04:37:43Z</time>
      </trkpt>
      <trkpt lat="46.05101" lon="4.58248">
        <ele>340</ele>
        <time>2022-06-26T04:37:44Z</time>
      </trkpt>
      <trkpt lat="46.051" lon="4.58244">
        <ele>340</ele>
        <time>2022-06-26T04:37:45Z</time>
      </trkpt>
      <trkpt lat="46.05098" lon="4.58239">
        <ele>340.2</ele>
        <time>2022-06-26T04:37:46Z</time>
      </trkpt>
      <trkpt lat="46.05096" lon="4.58235">
        <ele>340.2</ele>
        <time>2022-06-26T04:37:47Z</time>
      </trkpt>
      <trkpt lat="46.05095" lon="4.58231">
        <ele>340.2</ele>
        <time>2022-06-26T04:37:48Z</time>
      </trkpt>
      <trkpt lat="46.05093" lon="4.58226">
        <ele>340.4</ele>
        <time>2022-06-26T04:37:49Z</time>
      </trkpt>
      <trkpt lat="46.05091" lon="4.58222">
        <ele>340.4</ele>
        <time>2022-06-26T04:37:50Z</time>
      </trkpt>
      <trkpt lat="46.0509" lon="4.58217">
        <ele>340.4</ele>
        <time>2022-06-26T04:37:51Z</time>
      </trkpt>
      <trkpt lat="46.05088" lon="4.58212">
        <ele>340.6</ele>
        <time>2022-06-26T04:37:52Z</time>
      </trkpt>
      <trkpt lat="46.05086" lon="4.58207">
        <ele>340.6</ele>
        <time>2022-06-26T04:37:53Z</time>
      </trkpt>
      <trkpt lat="46.05085" lon="4.58202">
        <ele>340.8</ele>
        <time>2022-06-26T04:37:54Z</time>
      </trkpt>
      <trkpt lat="46.05083" lon="4.58197">
        <ele>340.8</ele>
        <time>2022-06-26T04:37:55Z</time>
      </trkpt>
      <trkpt lat="46.05081" lon="4.58192">
        <ele>340.8</ele>
        <time>2022-06-26T04:37:56Z</time>
      </trkpt>
      <trkpt lat="46.0508" lon="4.58187">
        <ele>341</ele>
        <time>2022-06-26T04:37:57Z</time>
      </trkpt>
      <trkpt lat="46.05078" lon="4.58182">
        <ele>341</ele>
        <time>2022-06-26T04:37:58Z</time>
      </trkpt>
      <trkpt lat="46.05077" lon="4.58177">
        <ele>341</ele>
        <time>2022-06-26T04:37:59Z</time>
      </trkpt>
      <trkpt lat="46.05075" lon="4.58172">
        <ele>341.4</ele>
        <time>2022-06-26T04:38:00Z</time>
      </trkpt>
      <trkpt lat="46.05073" lon="4.58167">
        <ele>341.4</ele>
        <time>2022-06-26T04:38:01Z</time>
      </trkpt>
      <trkpt lat="46.05072" lon="4.58162">
        <ele>341.6</ele>
        <time>2022-06-26T04:38:02Z</time>
      </trkpt>
      <trkpt lat="46.05071" lon="4.58156">
        <ele>341.6</ele>
        <time>2022-06-26T04:38:03Z</time>
      </trkpt>
      <trkpt lat="46.0507" lon="4.58151">
        <ele>341.8</ele>
        <time>2022-06-26T04:38:04Z</time>
      </trkpt>
      <trkpt lat="46.05069" lon="4.58146">
        <ele>341.8</ele>
        <time>2022-06-26T04:38:05Z</time>
      </trkpt>
      <trkpt lat="46.05068" lon="4.58141">
        <ele>342.2</ele>
        <time>2022-06-26T04:38:06Z</time>
      </trkpt>
      <trkpt lat="46.05068" lon="4.58136">
        <ele>342.4</ele>
        <time>2022-06-26T04:38:07Z</time>
      </trkpt>
      <trkpt lat="46.05068" lon="4.58131">
        <ele>342.6</ele>
        <time>2022-06-26T04:38:08Z</time>
      </trkpt>
      <trkpt lat="46.05067" lon="4.58126">
        <ele>342.6</ele>
        <time>2022-06-26T04:38:09Z</time>
      </trkpt>
      <trkpt lat="46.05067" lon="4.58121">
        <ele>342.8</ele>
        <time>2022-06-26T04:38:10Z</time>
      </trkpt>
      <trkpt lat="46.05066" lon="4.58116">
        <ele>343.2</ele>
        <time>2022-06-26T04:38:11Z</time>
      </trkpt>
      <trkpt lat="46.05065" lon="4.58112">
        <ele>343.4</ele>
        <time>2022-06-26T04:38:12Z</time>
      </trkpt>
      <trkpt lat="46.05065" lon="4.58107">
        <ele>343.6</ele>
        <time>2022-06-26T04:38:13Z</time>
      </trkpt>
      <trkpt lat="46.05064" lon="4.58103">
        <ele>343.8</ele>
        <time>2022-06-26T04:38:14Z</time>
      </trkpt>
      <trkpt lat="46.05063" lon="4.58098">
        <ele>344</ele>
        <time>2022-06-26T04:38:15Z</time>
      </trkpt>
      <trkpt lat="46.05062" lon="4.58094">
        <ele>344.2</ele>
        <time>2022-06-26T04:38:16Z</time>
      </trkpt>
      <trkpt lat="46.05061" lon="4.5809">
        <ele>344.4</ele>
        <time>2022-06-26T04:38:17Z</time>
      </trkpt>
      <trkpt lat="46.0506" lon="4.58086">
        <ele>344.8</ele>
        <time>2022-06-26T04:38:18Z</time>
      </trkpt>
      <trkpt lat="46.05058" lon="4.58082">
        <ele>345</ele>
        <time>2022-06-26T04:38:19Z</time>
      </trkpt>
      <trkpt lat="46.05057" lon="4.58078">
        <ele>345.2</ele>
        <time>2022-06-26T04:38:20Z</time>
      </trkpt>
      <trkpt lat="46.05056" lon="4.58074">
        <ele>345.4</ele>
        <time>2022-06-26T04:38:21Z</time>
      </trkpt>
      <trkpt lat="46.05055" lon="4.5807">
        <ele>345.8</ele>
        <time>2022-06-26T04:38:22Z</time>
      </trkpt>
      <trkpt lat="46.05054" lon="4.58066">
        <ele>345.8</ele>
        <time>2022-06-26T04:38:23Z</time>
      </trkpt>
      <trkpt lat="46.05053" lon="4.58063">
        <ele>346.2</ele>
        <time>2022-06-26T04:38:24Z</time>
      </trkpt>
      <trkpt lat="46.05052" lon="4.58059">
        <ele>346.4</ele>
        <time>2022-06-26T04:38:25Z</time>
      </trkpt>
      <trkpt lat="46.0505" lon="4.58055">
        <ele>346.6</ele>
        <time>2022-06-26T04:38:26Z</time>
      </trkpt>
      <trkpt lat="46.05049" lon="4.58052">
        <ele>346.6</ele>
        <time>2022-06-26T04:38:27Z</time>
      </trkpt>
      <trkpt lat="46.05048" lon="4.58048">
        <ele>347</ele>
        <time>2022-06-26T04:38:28Z</time>
      </trkpt>
      <trkpt lat="46.05047" lon="4.58045">
        <ele>347</ele>
        <time>2022-06-26T04:38:29Z</time>
      </trkpt>
      <trkpt lat="46.05046" lon="4.58041">
        <ele>347.4</ele>
        <time>2022-06-26T04:38:30Z</time>
      </trkpt>
      <trkpt lat="46.05045" lon="4.58038">
        <ele>347.4</ele>
        <time>2022-06-26T04:38:31Z</time>
      </trkpt>
      <trkpt lat="46.05044" lon="4.58035">
        <ele>347.8</ele>
        <time>2022-06-26T04:38:32Z</time>
      </trkpt>
      <trkpt lat="46.05043" lon="4.58031">
        <ele>348</ele>
        <time>2022-06-26T04:38:33Z</time>
      </trkpt>
      <trkpt lat="46.05042" lon="4.58028">
        <ele>348.2</ele>
        <time>2022-06-26T04:38:34Z</time>
      </trkpt>
      <trkpt lat="46.05041" lon="4.58024">
        <ele>348.4</ele>
        <time>2022-06-26T04:38:35Z</time>
      </trkpt>
      <trkpt lat="46.0504" lon="4.5802">
        <ele>348.4</ele>
        <time>2022-06-26T04:38:36Z</time>
      </trkpt>
      <trkpt lat="46.05039" lon="4.58016">
        <ele>348.6</ele>
        <time>2022-06-26T04:38:37Z</time>
      </trkpt>
      <trkpt lat="46.05037" lon="4.58012">
        <ele>348.6</ele>
        <time>2022-06-26T04:38:38Z</time>
      </trkpt>
      <trkpt lat="46.05036" lon="4.58008">
        <ele>349</ele>
        <time>2022-06-26T04:38:39Z</time>
      </trkpt>
      <trkpt lat="46.05035" lon="4.58004">
        <ele>349</ele>
        <time>2022-06-26T04:38:40Z</time>
      </trkpt>
      <trkpt lat="46.05033" lon="4.57999">
        <ele>349.2</ele>
        <time>2022-06-26T04:38:41Z</time>
      </trkpt>
      <trkpt lat="46.05032" lon="4.57995">
        <ele>349.2</ele>
        <time>2022-06-26T04:38:42Z</time>
      </trkpt>
      <trkpt lat="46.05031" lon="4.57991">
        <ele>349.6</ele>
        <time>2022-06-26T04:38:43Z</time>
      </trkpt>
      <trkpt lat="46.0503" lon="4.57987">
        <ele>349.6</ele>
        <time>2022-06-26T04:38:44Z</time>
      </trkpt>
      <trkpt lat="46.05029" lon="4.57983">
        <ele>349.8</ele>
        <time>2022-06-26T04:38:45Z</time>
      </trkpt>
      <trkpt lat="46.05028" lon="4.57979">
        <ele>349.8</ele>
        <time>2022-06-26T04:38:46Z</time>
      </trkpt>
      <trkpt lat="46.05026" lon="4.57975">
        <ele>350</ele>
        <time>2022-06-26T04:38:47Z</time>
      </trkpt>
      <trkpt lat="46.05025" lon="4.57971">
        <ele>350</ele>
        <time>2022-06-26T04:38:48Z</time>
      </trkpt>
      <trkpt lat="46.05023" lon="4.57967">
        <ele>350.4</ele>
        <time>2022-06-26T04:38:49Z</time>
      </trkpt>
      <trkpt lat="46.05022" lon="4.57964">
        <ele>350.4</ele>
        <time>2022-06-26T04:38:50Z</time>
      </trkpt>
      <trkpt lat="46.05021" lon="4.5796">
        <ele>350.6</ele>
        <time>2022-06-26T04:38:51Z</time>
      </trkpt>
      <trkpt lat="46.05019" lon="4.57956">
        <ele>350.6</ele>
        <time>2022-06-26T04:38:52Z</time>
      </trkpt>
      <trkpt lat="46.05018" lon="4.57953">
        <ele>351</ele>
        <time>2022-06-26T04:38:53Z</time>
      </trkpt>
      <trkpt lat="46.05017" lon="4.57949">
        <ele>351</ele>
        <time>2022-06-26T04:38:54Z</time>
      </trkpt>
      <trkpt lat="46.05016" lon="4.57946">
        <ele>351.4</ele>
        <time>2022-06-26T04:38:55Z</time>
      </trkpt>
      <trkpt lat="46.05015" lon="4.57942">
        <ele>351.4</ele>
        <time>2022-06-26T04:38:56Z</time>
      </trkpt>
      <trkpt lat="46.05014" lon="4.57939">
        <ele>351.6</ele>
        <time>2022-06-26T04:38:57Z</time>
      </trkpt>
      <trkpt lat="46.05012" lon="4.57936">
        <ele>352</ele>
        <time>2022-06-26T04:38:58Z</time>
      </trkpt>
      <trkpt lat="46.05011" lon="4.57933">
        <ele>352.2</ele>
        <time>2022-06-26T04:38:59Z</time>
      </trkpt>
      <trkpt lat="46.0501" lon="4.5793">
        <ele>352.4</ele>
        <time>2022-06-26T04:39:00Z</time>
      </trkpt>
      <trkpt lat="46.05009" lon="4.57927">
        <ele>352.6</ele>
        <time>2022-06-26T04:39:01Z</time>
      </trkpt>
      <trkpt lat="46.05008" lon="4.57924">
        <ele>353</ele>
        <time>2022-06-26T04:39:02Z</time>
      </trkpt>
      <trkpt lat="46.05007" lon="4.5792">
        <ele>353.2</ele>
        <time>2022-06-26T04:39:03Z</time>
      </trkpt>
      <trkpt lat="46.05006" lon="4.57917">
        <ele>353.2</ele>
        <time>2022-06-26T04:39:04Z</time>
      </trkpt>
      <trkpt lat="46.05005" lon="4.57912">
        <ele>353.6</ele>
        <time>2022-06-26T04:39:05Z</time>
      </trkpt>
      <trkpt lat="46.05004" lon="4.57911">
        <ele>353.6</ele>
        <time>2022-06-26T04:39:06Z</time>
      </trkpt>
      <trkpt lat="46.05003" lon="4.57908">
        <ele>354</ele>
        <time>2022-06-26T04:39:07Z</time>
      </trkpt>
      <trkpt lat="46.05002" lon="4.57905">
        <ele>354.2</ele>
        <time>2022-06-26T04:39:08Z</time>
      </trkpt>
      <trkpt lat="46.05001" lon="4.57903">
        <ele>354.2</ele>
        <time>2022-06-26T04:39:09Z</time>
      </trkpt>
      <trkpt lat="46.04999" lon="4.579">
        <ele>354.6</ele>
        <time>2022-06-26T04:39:10Z</time>
      </trkpt>
      <trkpt lat="46.04998" lon="4.57897">
        <ele>354.8</ele>
        <time>2022-06-26T04:39:11Z</time>
      </trkpt>
      <trkpt lat="46.04996" lon="4.57894">
        <ele>354.8</ele>
        <time>2022-06-26T04:39:12Z</time>
      </trkpt>
      <trkpt lat="46.04994" lon="4.57891">
        <ele>354.8</ele>
        <time>2022-06-26T04:39:13Z</time>
      </trkpt>
      <trkpt lat="46.04992" lon="4.57888">
        <ele>354.8</ele>
        <time>2022-06-26T04:39:14Z</time>
      </trkpt>
      <trkpt lat="46.04989" lon="4.57884">
        <ele>354.8</ele>
        <time>2022-06-26T04:39:15Z</time>
      </trkpt>
      <trkpt lat="46.04985" lon="4.57881">
        <ele>354.8</ele>
        <time>2022-06-26T04:39:16Z</time>
      </trkpt>
      <trkpt lat="46.04978" lon="4.57875">
        <ele>354.4</ele>
        <time>2022-06-26T04:39:17Z</time>
      </trkpt>
      <trkpt lat="46.04975" lon="4.57872">
        <ele>354</ele>
        <time>2022-06-26T04:39:18Z</time>
      </trkpt>
      <trkpt lat="46.04969" lon="4.57868">
        <ele>353.6</ele>
        <time>2022-06-26T04:39:19Z</time>
      </trkpt>
      <trkpt lat="46.04963" lon="4.57863">
        <ele>353.2</ele>
        <time>2022-06-26T04:39:20Z</time>
      </trkpt>
      <trkpt lat="46.04956" lon="4.57858">
        <ele>352.8</ele>
        <time>2022-06-26T04:39:21Z</time>
      </trkpt>
      <trkpt lat="46.0495" lon="4.57853">
        <ele>352.4</ele>
        <time>2022-06-26T04:39:22Z</time>
      </trkpt>
      <trkpt lat="46.04943" lon="4.57849">
        <ele>351.8</ele>
        <time>2022-06-26T04:39:23Z</time>
      </trkpt>
      <trkpt lat="46.04937" lon="4.57845">
        <ele>351.4</ele>
        <time>2022-06-26T04:39:24Z</time>
      </trkpt>
      <trkpt lat="46.04931" lon="4.57842">
        <ele>351</ele>
        <time>2022-06-26T04:39:25Z</time>
      </trkpt>
      <trkpt lat="46.04925" lon="4.5784">
        <ele>350.4</ele>
        <time>2022-06-26T04:39:26Z</time>
      </trkpt>
      <trkpt lat="46.04918" lon="4.57838">
        <ele>350</ele>
        <time>2022-06-26T04:39:27Z</time>
      </trkpt>
      <trkpt lat="46.04909" lon="4.57834">
        <ele>349.4</ele>
        <time>2022-06-26T04:39:28Z</time>
      </trkpt>
      <trkpt lat="46.04906" lon="4.57832">
        <ele>349</ele>
        <time>2022-06-26T04:39:29Z</time>
      </trkpt>
      <trkpt lat="46.049" lon="4.5783">
        <ele>348.6</ele>
        <time>2022-06-26T04:39:30Z</time>
      </trkpt>
      <trkpt lat="46.04895" lon="4.57825">
        <ele>348.2</ele>
        <time>2022-06-26T04:39:31Z</time>
      </trkpt>
      <trkpt lat="46.0489" lon="4.5782">
        <ele>347.8</ele>
        <time>2022-06-26T04:39:32Z</time>
      </trkpt>
      <trkpt lat="46.04885" lon="4.57815">
        <ele>347.4</ele>
        <time>2022-06-26T04:39:33Z</time>
      </trkpt>
      <trkpt lat="46.04881" lon="4.57809">
        <ele>347.2</ele>
        <time>2022-06-26T04:39:34Z</time>
      </trkpt>
      <trkpt lat="46.04877" lon="4.57804">
        <ele>346.8</ele>
        <time>2022-06-26T04:39:35Z</time>
      </trkpt>
      <trkpt lat="46.04874" lon="4.57799">
        <ele>346.8</ele>
        <time>2022-06-26T04:39:36Z</time>
      </trkpt>
      <trkpt lat="46.0487" lon="4.57795">
        <ele>346.4</ele>
        <time>2022-06-26T04:39:37Z</time>
      </trkpt>
      <trkpt lat="46.04865" lon="4.57792">
        <ele>346.4</ele>
        <time>2022-06-26T04:39:38Z</time>
      </trkpt>
      <trkpt lat="46.0486" lon="4.57791">
        <ele>346.4</ele>
        <time>2022-06-26T04:39:39Z</time>
      </trkpt>
      <trkpt lat="46.04856" lon="4.57792">
        <ele>346.2</ele>
        <time>2022-06-26T04:39:40Z</time>
      </trkpt>
      <trkpt lat="46.04852" lon="4.57794">
        <ele>346.2</ele>
        <time>2022-06-26T04:39:41Z</time>
      </trkpt>
      <trkpt lat="46.04848" lon="4.57796">
        <ele>346.2</ele>
        <time>2022-06-26T04:39:42Z</time>
      </trkpt>
      <trkpt lat="46.04844" lon="4.57798">
        <ele>346.2</ele>
        <time>2022-06-26T04:39:43Z</time>
      </trkpt>
      <trkpt lat="46.04841" lon="4.578">
        <ele>346.6</ele>
        <time>2022-06-26T04:39:44Z</time>
      </trkpt>
      <trkpt lat="46.04837" lon="4.57802">
        <ele>346.6</ele>
        <time>2022-06-26T04:39:45Z</time>
      </trkpt>
      <trkpt lat="46.04834" lon="4.57804">
        <ele>346.8</ele>
        <time>2022-06-26T04:39:46Z</time>
      </trkpt>
      <trkpt lat="46.04832" lon="4.57806">
        <ele>346.8</ele>
        <time>2022-06-26T04:39:47Z</time>
      </trkpt>
      <trkpt lat="46.04829" lon="4.57807">
        <ele>347.2</ele>
        <time>2022-06-26T04:39:48Z</time>
      </trkpt>
      <trkpt lat="46.04826" lon="4.57809">
        <ele>347.6</ele>
        <time>2022-06-26T04:39:49Z</time>
      </trkpt>
      <trkpt lat="46.04824" lon="4.5781">
        <ele>347.8</ele>
        <time>2022-06-26T04:39:50Z</time>
      </trkpt>
      <trkpt lat="46.04821" lon="4.57812">
        <ele>348</ele>
        <time>2022-06-26T04:39:51Z</time>
      </trkpt>
      <trkpt lat="46.04819" lon="4.57813">
        <ele>348.2</ele>
        <time>2022-06-26T04:39:52Z</time>
      </trkpt>
      <trkpt lat="46.04817" lon="4.57814">
        <ele>348.6</ele>
        <time>2022-06-26T04:39:53Z</time>
      </trkpt>
      <trkpt lat="46.04814" lon="4.57816">
        <ele>348.6</ele>
        <time>2022-06-26T04:39:54Z</time>
      </trkpt>
      <trkpt lat="46.04812" lon="4.57817">
        <ele>349</ele>
        <time>2022-06-26T04:39:55Z</time>
      </trkpt>
      <trkpt lat="46.0481" lon="4.57817">
        <ele>349.4</ele>
        <time>2022-06-26T04:39:56Z</time>
      </trkpt>
      <trkpt lat="46.04807" lon="4.57818">
        <ele>349.6</ele>
        <time>2022-06-26T04:39:57Z</time>
      </trkpt>
      <trkpt lat="46.04805" lon="4.57819">
        <ele>350</ele>
        <time>2022-06-26T04:39:58Z</time>
      </trkpt>
      <trkpt lat="46.04803" lon="4.57821">
        <ele>350.2</ele>
        <time>2022-06-26T04:39:59Z</time>
      </trkpt>
      <trkpt lat="46.04801" lon="4.57823">
        <ele>350.6</ele>
        <time>2022-06-26T04:40:00Z</time>
      </trkpt>
      <trkpt lat="46.04799" lon="4.57824">
        <ele>350.8</ele>
        <time>2022-06-26T04:40:01Z</time>
      </trkpt>
      <trkpt lat="46.04796" lon="4.57824">
        <ele>351</ele>
        <time>2022-06-26T04:40:02Z</time>
      </trkpt>
      <trkpt lat="46.04794" lon="4.57824">
        <ele>351.4</ele>
        <time>2022-06-26T04:40:03Z</time>
      </trkpt>
      <trkpt lat="46.04792" lon="4.57823">
        <ele>351.8</ele>
        <time>2022-06-26T04:40:04Z</time>
      </trkpt>
      <trkpt lat="46.04791" lon="4.57821">
        <ele>352</ele>
        <time>2022-06-26T04:40:05Z</time>
      </trkpt>
      <trkpt lat="46.0479" lon="4.57818">
        <ele>352.2</ele>
        <time>2022-06-26T04:40:06Z</time>
      </trkpt>
      <trkpt lat="46.04789" lon="4.57815">
        <ele>352.2</ele>
        <time>2022-06-26T04:40:07Z</time>
      </trkpt>
      <trkpt lat="46.0479" lon="4.57812">
        <ele>352.6</ele>
        <time>2022-06-26T04:40:08Z</time>
      </trkpt>
      <trkpt lat="46.04792" lon="4.57809">
        <ele>352.8</ele>
        <time>2022-06-26T04:40:09Z</time>
      </trkpt>
      <trkpt lat="46.04793" lon="4.57806">
        <ele>353.2</ele>
        <time>2022-06-26T04:40:10Z</time>
      </trkpt>
      <trkpt lat="46.04795" lon="4.57804">
        <ele>353.4</ele>
        <time>2022-06-26T04:40:11Z</time>
      </trkpt>
      <trkpt lat="46.04797" lon="4.57801">
        <ele>353.8</ele>
        <time>2022-06-26T04:40:12Z</time>
      </trkpt>
      <trkpt lat="46.04798" lon="4.57799">
        <ele>354</ele>
        <time>2022-06-26T04:40:13Z</time>
      </trkpt>
      <trkpt lat="46.04799" lon="4.57796">
        <ele>354.4</ele>
        <time>2022-06-26T04:40:14Z</time>
      </trkpt>
      <trkpt lat="46.048" lon="4.57793">
        <ele>354.8</ele>
        <time>2022-06-26T04:40:15Z</time>
      </trkpt>
      <trkpt lat="46.04801" lon="4.5779">
        <ele>355</ele>
        <time>2022-06-26T04:40:16Z</time>
      </trkpt>
      <trkpt lat="46.04802" lon="4.57787">
        <ele>355.4</ele>
        <time>2022-06-26T04:40:17Z</time>
      </trkpt>
      <trkpt lat="46.04803" lon="4.57784">
        <ele>355.6</ele>
        <time>2022-06-26T04:40:18Z</time>
      </trkpt>
      <trkpt lat="46.04804" lon="4.57781">
        <ele>356</ele>
        <time>2022-06-26T04:40:19Z</time>
      </trkpt>
      <trkpt lat="46.04805" lon="4.57778">
        <ele>356.2</ele>
        <time>2022-06-26T04:40:20Z</time>
      </trkpt>
      <trkpt lat="46.04805" lon="4.57775">
        <ele>356.6</ele>
        <time>2022-06-26T04:40:21Z</time>
      </trkpt>
      <trkpt lat="46.04806" lon="4.57772">
        <ele>356.6</ele>
        <time>2022-06-26T04:40:22Z</time>
      </trkpt>
      <trkpt lat="46.04806" lon="4.57769">
        <ele>357</ele>
        <time>2022-06-26T04:40:23Z</time>
      </trkpt>
      <trkpt lat="46.04807" lon="4.57766">
        <ele>357.2</ele>
        <time>2022-06-26T04:40:24Z</time>
      </trkpt>
      <trkpt lat="46.04807" lon="4.57764">
        <ele>357.6</ele>
        <time>2022-06-26T04:40:25Z</time>
      </trkpt>
      <trkpt lat="46.04807" lon="4.57763">
        <ele>357.6</ele>
        <time>2022-06-26T04:40:26Z</time>
      </trkpt>
      <trkpt lat="46.04807" lon="4.5776">
        <ele>357.8</ele>
        <time>2022-06-26T04:40:27Z</time>
      </trkpt>
      <trkpt lat="46.04808" lon="4.57757">
        <ele>358.2</ele>
        <time>2022-06-26T04:40:28Z</time>
      </trkpt>
      <trkpt lat="46.04808" lon="4.57753">
        <ele>358.4</ele>
        <time>2022-06-26T04:40:29Z</time>
      </trkpt>
      <trkpt lat="46.04809" lon="4.5775">
        <ele>358.4</ele>
        <time>2022-06-26T04:40:30Z</time>
      </trkpt>
      <trkpt lat="46.04809" lon="4.57747">
        <ele>358.6</ele>
        <time>2022-06-26T04:40:31Z</time>
      </trkpt>
      <trkpt lat="46.04809" lon="4.57743">
        <ele>358.6</ele>
        <time>2022-06-26T04:40:32Z</time>
      </trkpt>
      <trkpt lat="46.04809" lon="4.5774">
        <ele>359</ele>
        <time>2022-06-26T04:40:33Z</time>
      </trkpt>
      <trkpt lat="46.04809" lon="4.57736">
        <ele>359</ele>
        <time>2022-06-26T04:40:34Z</time>
      </trkpt>
      <trkpt lat="46.04809" lon="4.57732">
        <ele>359.2</ele>
        <time>2022-06-26T04:40:35Z</time>
      </trkpt>
      <trkpt lat="46.04809" lon="4.57729">
        <ele>359.2</ele>
        <time>2022-06-26T04:40:36Z</time>
      </trkpt>
      <trkpt lat="46.04808" lon="4.57725">
        <ele>359.6</ele>
        <time>2022-06-26T04:40:37Z</time>
      </trkpt>
      <trkpt lat="46.04808" lon="4.57722">
        <ele>359.6</ele>
        <time>2022-06-26T04:40:38Z</time>
      </trkpt>
      <trkpt lat="46.04807" lon="4.57719">
        <ele>359.8</ele>
        <time>2022-06-26T04:40:39Z</time>
      </trkpt>
      <trkpt lat="46.04807" lon="4.57716">
        <ele>360</ele>
        <time>2022-06-26T04:40:40Z</time>
      </trkpt>
      <trkpt lat="46.04806" lon="4.57712">
        <ele>360.2</ele>
        <time>2022-06-26T04:40:41Z</time>
      </trkpt>
      <trkpt lat="46.04806" lon="4.57709">
        <ele>360.2</ele>
        <time>2022-06-26T04:40:42Z</time>
      </trkpt>
      <trkpt lat="46.04805" lon="4.57705">
        <ele>360.6</ele>
        <time>2022-06-26T04:40:43Z</time>
      </trkpt>
      <trkpt lat="46.04804" lon="4.57701">
        <ele>360.6</ele>
        <time>2022-06-26T04:40:44Z</time>
      </trkpt>
      <trkpt lat="46.04803" lon="4.57698">
        <ele>360.8</ele>
        <time>2022-06-26T04:40:45Z</time>
      </trkpt>
      <trkpt lat="46.04801" lon="4.57694">
        <ele>361.2</ele>
        <time>2022-06-26T04:40:46Z</time>
      </trkpt>
      <trkpt lat="46.048" lon="4.57691">
        <ele>361.2</ele>
        <time>2022-06-26T04:40:47Z</time>
      </trkpt>
      <trkpt lat="46.04799" lon="4.57688">
        <ele>361.4</ele>
        <time>2022-06-26T04:40:48Z</time>
      </trkpt>
      <trkpt lat="46.04798" lon="4.57685">
        <ele>361.6</ele>
        <time>2022-06-26T04:40:49Z</time>
      </trkpt>
      <trkpt lat="46.04797" lon="4.57681">
        <ele>361.8</ele>
        <time>2022-06-26T04:40:50Z</time>
      </trkpt>
      <trkpt lat="46.04795" lon="4.57678">
        <ele>362</ele>
        <time>2022-06-26T04:40:51Z</time>
      </trkpt>
      <trkpt lat="46.04794" lon="4.57675">
        <ele>362.4</ele>
        <time>2022-06-26T04:40:52Z</time>
      </trkpt>
      <trkpt lat="46.04792" lon="4.57673">
        <ele>362.6</ele>
        <time>2022-06-26T04:40:53Z</time>
      </trkpt>
      <trkpt lat="46.04791" lon="4.5767">
        <ele>362.8</ele>
        <time>2022-06-26T04:40:54Z</time>
      </trkpt>
      <trkpt lat="46.0479" lon="4.57667">
        <ele>363</ele>
        <time>2022-06-26T04:40:55Z</time>
      </trkpt>
      <trkpt lat="46.04788" lon="4.57665">
        <ele>363</ele>
        <time>2022-06-26T04:40:56Z</time>
      </trkpt>
      <trkpt lat="46.04787" lon="4.57662">
        <ele>363.4</ele>
        <time>2022-06-26T04:40:57Z</time>
      </trkpt>
      <trkpt lat="46.04785" lon="4.5766">
        <ele>363.4</ele>
        <time>2022-06-26T04:40:58Z</time>
      </trkpt>
      <trkpt lat="46.04783" lon="4.57658">
        <ele>364</ele>
        <time>2022-06-26T04:40:59Z</time>
      </trkpt>
      <trkpt lat="46.04781" lon="4.57656">
        <ele>364</ele>
        <time>2022-06-26T04:41:00Z</time>
      </trkpt>
      <trkpt lat="46.0478" lon="4.57654">
        <ele>364.2</ele>
        <time>2022-06-26T04:41:01Z</time>
      </trkpt>
      <trkpt lat="46.04778" lon="4.57653">
        <ele>364.4</ele>
        <time>2022-06-26T04:41:02Z</time>
      </trkpt>
      <trkpt lat="46.04776" lon="4.57651">
        <ele>364.6</ele>
        <time>2022-06-26T04:41:03Z</time>
      </trkpt>
      <trkpt lat="46.04774" lon="4.57649">
        <ele>364.6</ele>
        <time>2022-06-26T04:41:04Z</time>
      </trkpt>
      <trkpt lat="46.04772" lon="4.57648">
        <ele>364.8</ele>
        <time>2022-06-26T04:41:05Z</time>
      </trkpt>
      <trkpt lat="46.0477" lon="4.57646">
        <ele>364.8</ele>
        <time>2022-06-26T04:41:06Z</time>
      </trkpt>
      <trkpt lat="46.04768" lon="4.57644">
        <ele>365.2</ele>
        <time>2022-06-26T04:41:07Z</time>
      </trkpt>
      <trkpt lat="46.04766" lon="4.57643">
        <ele>365.4</ele>
        <time>2022-06-26T04:41:08Z</time>
      </trkpt>
      <trkpt lat="46.04764" lon="4.57641">
        <ele>365.8</ele>
        <time>2022-06-26T04:41:09Z</time>
      </trkpt>
      <trkpt lat="46.04762" lon="4.57639">
        <ele>366</ele>
        <time>2022-06-26T04:41:10Z</time>
      </trkpt>
      <trkpt lat="46.0476" lon="4.57637">
        <ele>366.2</ele>
        <time>2022-06-26T04:41:11Z</time>
      </trkpt>
      <trkpt lat="46.04758" lon="4.57635">
        <ele>366.2</ele>
        <time>2022-06-26T04:41:12Z</time>
      </trkpt>
      <trkpt lat="46.04756" lon="4.57634">
        <ele>366.6</ele>
        <time>2022-06-26T04:41:13Z</time>
      </trkpt>
      <trkpt lat="46.04754" lon="4.57632">
        <ele>366.8</ele>
        <time>2022-06-26T04:41:14Z</time>
      </trkpt>
      <trkpt lat="46.04752" lon="4.5763">
        <ele>366.8</ele>
        <time>2022-06-26T04:41:15Z</time>
      </trkpt>
      <trkpt lat="46.04751" lon="4.57629">
        <ele>367.2</ele>
        <time>2022-06-26T04:41:16Z</time>
      </trkpt>
      <trkpt lat="46.04749" lon="4.57627">
        <ele>367.6</ele>
        <time>2022-06-26T04:41:17Z</time>
      </trkpt>
      <trkpt lat="46.04747" lon="4.57626">
        <ele>367.8</ele>
        <time>2022-06-26T04:41:18Z</time>
      </trkpt>
      <trkpt lat="46.04746" lon="4.57624">
        <ele>368.2</ele>
        <time>2022-06-26T04:41:19Z</time>
      </trkpt>
      <trkpt lat="46.04744" lon="4.57622">
        <ele>368.4</ele>
        <time>2022-06-26T04:41:20Z</time>
      </trkpt>
      <trkpt lat="46.04743" lon="4.5762">
        <ele>368.4</ele>
        <time>2022-06-26T04:41:21Z</time>
      </trkpt>
      <trkpt lat="46.04741" lon="4.57618">
        <ele>368.8</ele>
        <time>2022-06-26T04:41:22Z</time>
      </trkpt>
      <trkpt lat="46.04739" lon="4.57616">
        <ele>369</ele>
        <time>2022-06-26T04:41:23Z</time>
      </trkpt>
      <trkpt lat="46.04738" lon="4.57614">
        <ele>369</ele>
        <time>2022-06-26T04:41:24Z</time>
      </trkpt>
      <trkpt lat="46.04737" lon="4.57612">
        <ele>369.2</ele>
        <time>2022-06-26T04:41:25Z</time>
      </trkpt>
      <trkpt lat="46.04735" lon="4.57609">
        <ele>369.4</ele>
        <time>2022-06-26T04:41:26Z</time>
      </trkpt>
      <trkpt lat="46.04734" lon="4.57607">
        <ele>369.6</ele>
        <time>2022-06-26T04:41:27Z</time>
      </trkpt>
      <trkpt lat="46.04733" lon="4.57604">
        <ele>369.8</ele>
        <time>2022-06-26T04:41:28Z</time>
      </trkpt>
      <trkpt lat="46.04732" lon="4.57602">
        <ele>370.2</ele>
        <time>2022-06-26T04:41:29Z</time>
      </trkpt>
      <trkpt lat="46.0473" lon="4.57599">
        <ele>370.2</ele>
        <time>2022-06-26T04:41:30Z</time>
      </trkpt>
      <trkpt lat="46.04729" lon="4.57596">
        <ele>370.6</ele>
        <time>2022-06-26T04:41:31Z</time>
      </trkpt>
      <trkpt lat="46.04728" lon="4.57594">
        <ele>370.6</ele>
        <time>2022-06-26T04:41:32Z</time>
      </trkpt>
      <trkpt lat="46.04727" lon="4.57591">
        <ele>370.8</ele>
        <time>2022-06-26T04:41:33Z</time>
      </trkpt>
      <trkpt lat="46.04725" lon="4.57588">
        <ele>371</ele>
        <time>2022-06-26T04:41:34Z</time>
      </trkpt>
      <trkpt lat="46.04724" lon="4.57586">
        <ele>371.2</ele>
        <time>2022-06-26T04:41:35Z</time>
      </trkpt>
      <trkpt lat="46.04723" lon="4.57583">
        <ele>371.6</ele>
        <time>2022-06-26T04:41:36Z</time>
      </trkpt>
      <trkpt lat="46.04722" lon="4.57581">
        <ele>371.6</ele>
        <time>2022-06-26T04:41:37Z</time>
      </trkpt>
      <trkpt lat="46.0472" lon="4.57578">
        <ele>372</ele>
        <time>2022-06-26T04:41:38Z</time>
      </trkpt>
      <trkpt lat="46.04719" lon="4.57576">
        <ele>372.2</ele>
        <time>2022-06-26T04:41:39Z</time>
      </trkpt>
      <trkpt lat="46.04718" lon="4.57573">
        <ele>372.2</ele>
        <time>2022-06-26T04:41:40Z</time>
      </trkpt>
      <trkpt lat="46.04716" lon="4.57571">
        <ele>372.6</ele>
        <time>2022-06-26T04:41:41Z</time>
      </trkpt>
      <trkpt lat="46.04715" lon="4.57568">
        <ele>372.8</ele>
        <time>2022-06-26T04:41:42Z</time>
      </trkpt>
      <trkpt lat="46.04714" lon="4.57566">
        <ele>373</ele>
        <time>2022-06-26T04:41:43Z</time>
      </trkpt>
      <trkpt lat="46.04713" lon="4.57563">
        <ele>373.4</ele>
        <time>2022-06-26T04:41:44Z</time>
      </trkpt>
      <trkpt lat="46.04712" lon="4.57561">
        <ele>373.6</ele>
        <time>2022-06-26T04:41:45Z</time>
      </trkpt>
      <trkpt lat="46.04711" lon="4.57558">
        <ele>373.8</ele>
        <time>2022-06-26T04:41:46Z</time>
      </trkpt>
      <trkpt lat="46.04711" lon="4.57555">
        <ele>374</ele>
        <time>2022-06-26T04:41:47Z</time>
      </trkpt>
      <trkpt lat="46.0471" lon="4.57553">
        <ele>374</ele>
        <time>2022-06-26T04:41:48Z</time>
      </trkpt>
      <trkpt lat="46.04709" lon="4.5755">
        <ele>374.4</ele>
        <time>2022-06-26T04:41:49Z</time>
      </trkpt>
      <trkpt lat="46.04708" lon="4.57548">
        <ele>374.4</ele>
        <time>2022-06-26T04:41:50Z</time>
      </trkpt>
      <trkpt lat="46.04707" lon="4.57546">
        <ele>374.8</ele>
        <time>2022-06-26T04:41:51Z</time>
      </trkpt>
      <trkpt lat="46.04706" lon="4.57544">
        <ele>375</ele>
        <time>2022-06-26T04:41:52Z</time>
      </trkpt>
      <trkpt lat="46.04705" lon="4.57541">
        <ele>375.2</ele>
        <time>2022-06-26T04:41:53Z</time>
      </trkpt>
      <trkpt lat="46.04705" lon="4.57539">
        <ele>375.2</ele>
        <time>2022-06-26T04:41:54Z</time>
      </trkpt>
      <trkpt lat="46.04704" lon="4.57536">
        <ele>375.6</ele>
        <time>2022-06-26T04:41:55Z</time>
      </trkpt>
      <trkpt lat="46.04704" lon="4.57534">
        <ele>375.6</ele>
        <time>2022-06-26T04:41:56Z</time>
      </trkpt>
      <trkpt lat="46.04703" lon="4.57531">
        <ele>375.8</ele>
        <time>2022-06-26T04:41:57Z</time>
      </trkpt>
      <trkpt lat="46.04703" lon="4.57528">
        <ele>375.8</ele>
        <time>2022-06-26T04:41:58Z</time>
      </trkpt>
      <trkpt lat="46.04702" lon="4.57525">
        <ele>376.2</ele>
        <time>2022-06-26T04:41:59Z</time>
      </trkpt>
      <trkpt lat="46.04701" lon="4.57523">
        <ele>376.4</ele>
        <time>2022-06-26T04:42:00Z</time>
      </trkpt>
      <trkpt lat="46.04701" lon="4.5752">
        <ele>376.6</ele>
        <time>2022-06-26T04:42:01Z</time>
      </trkpt>
      <trkpt lat="46.047" lon="4.57517">
        <ele>376.6</ele>
        <time>2022-06-26T04:42:02Z</time>
      </trkpt>
      <trkpt lat="46.04699" lon="4.57514">
        <ele>377</ele>
        <time>2022-06-26T04:42:03Z</time>
      </trkpt>
      <trkpt lat="46.04698" lon="4.57512">
        <ele>377</ele>
        <time>2022-06-26T04:42:04Z</time>
      </trkpt>
      <trkpt lat="46.04698" lon="4.57509">
        <ele>377.2</ele>
        <time>2022-06-26T04:42:05Z</time>
      </trkpt>
      <trkpt lat="46.04697" lon="4.57506">
        <ele>377.2</ele>
        <time>2022-06-26T04:42:06Z</time>
      </trkpt>
      <trkpt lat="46.04696" lon="4.57503">
        <ele>377.6</ele>
        <time>2022-06-26T04:42:07Z</time>
      </trkpt>
      <trkpt lat="46.04696" lon="4.575">
        <ele>377.6</ele>
        <time>2022-06-26T04:42:08Z</time>
      </trkpt>
      <trkpt lat="46.04695" lon="4.57497">
        <ele>378</ele>
        <time>2022-06-26T04:42:09Z</time>
      </trkpt>
      <trkpt lat="46.04695" lon="4.57494">
        <ele>378</ele>
        <time>2022-06-26T04:42:10Z</time>
      </trkpt>
      <trkpt lat="46.04694" lon="4.57492">
        <ele>378.2</ele>
        <time>2022-06-26T04:42:11Z</time>
      </trkpt>
      <trkpt lat="46.04694" lon="4.57489">
        <ele>378.2</ele>
        <time>2022-06-26T04:42:12Z</time>
      </trkpt>
      <trkpt lat="46.04693" lon="4.57486">
        <ele>378.6</ele>
        <time>2022-06-26T04:42:13Z</time>
      </trkpt>
      <trkpt lat="46.04692" lon="4.57483">
        <ele>378.8</ele>
        <time>2022-06-26T04:42:14Z</time>
      </trkpt>
      <trkpt lat="46.04691" lon="4.57481">
        <ele>379</ele>
        <time>2022-06-26T04:42:15Z</time>
      </trkpt>
      <trkpt lat="46.04691" lon="4.57478">
        <ele>379.2</ele>
        <time>2022-06-26T04:42:16Z</time>
      </trkpt>
      <trkpt lat="46.0469" lon="4.57475">
        <ele>379.2</ele>
        <time>2022-06-26T04:42:17Z</time>
      </trkpt>
      <trkpt lat="46.04689" lon="4.57472">
        <ele>379.6</ele>
        <time>2022-06-26T04:42:18Z</time>
      </trkpt>
      <trkpt lat="46.04688" lon="4.5747">
        <ele>379.6</ele>
        <time>2022-06-26T04:42:19Z</time>
      </trkpt>
      <trkpt lat="46.04687" lon="4.57467">
        <ele>379.8</ele>
        <time>2022-06-26T04:42:20Z</time>
      </trkpt>
      <trkpt lat="46.04686" lon="4.57464">
        <ele>380</ele>
        <time>2022-06-26T04:42:21Z</time>
      </trkpt>
      <trkpt lat="46.04685" lon="4.57462">
        <ele>380</ele>
        <time>2022-06-26T04:42:22Z</time>
      </trkpt>
      <trkpt lat="46.04684" lon="4.5746">
        <ele>380.2</ele>
        <time>2022-06-26T04:42:23Z</time>
      </trkpt>
      <trkpt lat="46.04684" lon="4.57457">
        <ele>380.2</ele>
        <time>2022-06-26T04:42:24Z</time>
      </trkpt>
      <trkpt lat="46.04683" lon="4.57454">
        <ele>380.4</ele>
        <time>2022-06-26T04:42:25Z</time>
      </trkpt>
      <trkpt lat="46.04682" lon="4.57451">
        <ele>380.4</ele>
        <time>2022-06-26T04:42:26Z</time>
      </trkpt>
      <trkpt lat="46.04681" lon="4.57448">
        <ele>380.8</ele>
        <time>2022-06-26T04:42:27Z</time>
      </trkpt>
      <trkpt lat="46.0468" lon="4.57445">
        <ele>380.8</ele>
        <time>2022-06-26T04:42:28Z</time>
      </trkpt>
      <trkpt lat="46.04678" lon="4.57443">
        <ele>381.2</ele>
        <time>2022-06-26T04:42:29Z</time>
      </trkpt>
      <trkpt lat="46.04677" lon="4.5744">
        <ele>381.2</ele>
        <time>2022-06-26T04:42:30Z</time>
      </trkpt>
      <trkpt lat="46.04676" lon="4.57437">
        <ele>381.4</ele>
        <time>2022-06-26T04:42:31Z</time>
      </trkpt>
      <trkpt lat="46.04675" lon="4.57435">
        <ele>381.4</ele>
        <time>2022-06-26T04:42:32Z</time>
      </trkpt>
      <trkpt lat="46.04673" lon="4.57432">
        <ele>381.8</ele>
        <time>2022-06-26T04:42:33Z</time>
      </trkpt>
      <trkpt lat="46.04672" lon="4.5743">
        <ele>381.8</ele>
        <time>2022-06-26T04:42:34Z</time>
      </trkpt>
      <trkpt lat="46.04671" lon="4.57427">
        <ele>382.2</ele>
        <time>2022-06-26T04:42:35Z</time>
      </trkpt>
      <trkpt lat="46.0467" lon="4.57425">
        <ele>382.2</ele>
        <time>2022-06-26T04:42:36Z</time>
      </trkpt>
      <trkpt lat="46.04669" lon="4.57422">
        <ele>382.4</ele>
        <time>2022-06-26T04:42:37Z</time>
      </trkpt>
      <trkpt lat="46.04668" lon="4.5742">
        <ele>382.4</ele>
        <time>2022-06-26T04:42:38Z</time>
      </trkpt>
      <trkpt lat="46.04667" lon="4.57417">
        <ele>382.8</ele>
        <time>2022-06-26T04:42:39Z</time>
      </trkpt>
      <trkpt lat="46.04665" lon="4.57415">
        <ele>382.8</ele>
        <time>2022-06-26T04:42:40Z</time>
      </trkpt>
      <trkpt lat="46.04664" lon="4.57414">
        <ele>383</ele>
        <time>2022-06-26T04:42:41Z</time>
      </trkpt>
      <trkpt lat="46.04662" lon="4.57412">
        <ele>383.2</ele>
        <time>2022-06-26T04:42:42Z</time>
      </trkpt>
      <trkpt lat="46.0466" lon="4.57411">
        <ele>383.2</ele>
        <time>2022-06-26T04:42:43Z</time>
      </trkpt>
      <trkpt lat="46.04659" lon="4.5741">
        <ele>383.6</ele>
        <time>2022-06-26T04:42:44Z</time>
      </trkpt>
      <trkpt lat="46.04657" lon="4.57409">
        <ele>383.6</ele>
        <time>2022-06-26T04:42:45Z</time>
      </trkpt>
      <trkpt lat="46.04655" lon="4.57408">
        <ele>384</ele>
        <time>2022-06-26T04:42:46Z</time>
      </trkpt>
      <trkpt lat="46.04653" lon="4.57407">
        <ele>384</ele>
        <time>2022-06-26T04:42:47Z</time>
      </trkpt>
      <trkpt lat="46.04651" lon="4.57406">
        <ele>384.4</ele>
        <time>2022-06-26T04:42:48Z</time>
      </trkpt>
      <trkpt lat="46.04649" lon="4.57405">
        <ele>384.6</ele>
        <time>2022-06-26T04:42:49Z</time>
      </trkpt>
      <trkpt lat="46.04648" lon="4.57403">
        <ele>384.6</ele>
        <time>2022-06-26T04:42:50Z</time>
      </trkpt>
      <trkpt lat="46.04646" lon="4.57401">
        <ele>385</ele>
        <time>2022-06-26T04:42:51Z</time>
      </trkpt>
      <trkpt lat="46.04644" lon="4.574">
        <ele>385.2</ele>
        <time>2022-06-26T04:42:52Z</time>
      </trkpt>
      <trkpt lat="46.04642" lon="4.57399">
        <ele>385.4</ele>
        <time>2022-06-26T04:42:53Z</time>
      </trkpt>
      <trkpt lat="46.04639" lon="4.57398">
        <ele>385.4</ele>
        <time>2022-06-26T04:42:54Z</time>
      </trkpt>
      <trkpt lat="46.04637" lon="4.57397">
        <ele>385.8</ele>
        <time>2022-06-26T04:42:55Z</time>
      </trkpt>
      <trkpt lat="46.04635" lon="4.57397">
        <ele>386</ele>
        <time>2022-06-26T04:42:56Z</time>
      </trkpt>
      <trkpt lat="46.04633" lon="4.57397">
        <ele>386.4</ele>
        <time>2022-06-26T04:42:57Z</time>
      </trkpt>
      <trkpt lat="46.04628" lon="4.57396">
        <ele>386.4</ele>
        <time>2022-06-26T04:42:58Z</time>
      </trkpt>
      <trkpt lat="46.04625" lon="4.57396">
        <ele>386.8</ele>
        <time>2022-06-26T04:42:59Z</time>
      </trkpt>
      <trkpt lat="46.04623" lon="4.57396">
        <ele>387</ele>
        <time>2022-06-26T04:43:00Z</time>
      </trkpt>
      <trkpt lat="46.04621" lon="4.57396">
        <ele>387</ele>
        <time>2022-06-26T04:43:01Z</time>
      </trkpt>
      <trkpt lat="46.04618" lon="4.57396">
        <ele>387.4</ele>
        <time>2022-06-26T04:43:02Z</time>
      </trkpt>
      <trkpt lat="46.04616" lon="4.57396">
        <ele>387.4</ele>
        <time>2022-06-26T04:43:03Z</time>
      </trkpt>
      <trkpt lat="46.04614" lon="4.57395">
        <ele>387.6</ele>
        <time>2022-06-26T04:43:04Z</time>
      </trkpt>
      <trkpt lat="46.04611" lon="4.57395">
        <ele>387.6</ele>
        <time>2022-06-26T04:43:05Z</time>
      </trkpt>
      <trkpt lat="46.04609" lon="4.57395">
        <ele>388</ele>
        <time>2022-06-26T04:43:06Z</time>
      </trkpt>
      <trkpt lat="46.04607" lon="4.57395">
        <ele>388</ele>
        <time>2022-06-26T04:43:07Z</time>
      </trkpt>
      <trkpt lat="46.04604" lon="4.57395">
        <ele>388.4</ele>
        <time>2022-06-26T04:43:08Z</time>
      </trkpt>
      <trkpt lat="46.04602" lon="4.57395">
        <ele>388.4</ele>
        <time>2022-06-26T04:43:09Z</time>
      </trkpt>
      <trkpt lat="46.04599" lon="4.57394">
        <ele>388.6</ele>
        <time>2022-06-26T04:43:10Z</time>
      </trkpt>
      <trkpt lat="46.04597" lon="4.57394">
        <ele>388.6</ele>
        <time>2022-06-26T04:43:11Z</time>
      </trkpt>
      <trkpt lat="46.04595" lon="4.57392">
        <ele>389</ele>
        <time>2022-06-26T04:43:12Z</time>
      </trkpt>
      <trkpt lat="46.04593" lon="4.57391">
        <ele>389</ele>
        <time>2022-06-26T04:43:13Z</time>
      </trkpt>
      <trkpt lat="46.0459" lon="4.5739">
        <ele>389.4</ele>
        <time>2022-06-26T04:43:14Z</time>
      </trkpt>
      <trkpt lat="46.04588" lon="4.57389">
        <ele>389.4</ele>
        <time>2022-06-26T04:43:15Z</time>
      </trkpt>
      <trkpt lat="46.04586" lon="4.57388">
        <ele>389.8</ele>
        <time>2022-06-26T04:43:16Z</time>
      </trkpt>
      <trkpt lat="46.04584" lon="4.57387">
        <ele>390</ele>
        <time>2022-06-26T04:43:17Z</time>
      </trkpt>
      <trkpt lat="46.04581" lon="4.57386">
        <ele>390</ele>
        <time>2022-06-26T04:43:18Z</time>
      </trkpt>
      <trkpt lat="46.0458" lon="4.57384">
        <ele>390.2</ele>
        <time>2022-06-26T04:43:19Z</time>
      </trkpt>
      <trkpt lat="46.04578" lon="4.57383">
        <ele>390.2</ele>
        <time>2022-06-26T04:43:20Z</time>
      </trkpt>
      <trkpt lat="46.04576" lon="4.57381">
        <ele>390.6</ele>
        <time>2022-06-26T04:43:21Z</time>
      </trkpt>
      <trkpt lat="46.04574" lon="4.5738">
        <ele>390.6</ele>
        <time>2022-06-26T04:43:22Z</time>
      </trkpt>
      <trkpt lat="46.04572" lon="4.57379">
        <ele>391</ele>
        <time>2022-06-26T04:43:23Z</time>
      </trkpt>
      <trkpt lat="46.0457" lon="4.57377">
        <ele>391.2</ele>
        <time>2022-06-26T04:43:24Z</time>
      </trkpt>
      <trkpt lat="46.04568" lon="4.57375">
        <ele>391.2</ele>
        <time>2022-06-26T04:43:25Z</time>
      </trkpt>
      <trkpt lat="46.04566" lon="4.57373">
        <ele>391.4</ele>
        <time>2022-06-26T04:43:26Z</time>
      </trkpt>
      <trkpt lat="46.04564" lon="4.57372">
        <ele>391.4</ele>
        <time>2022-06-26T04:43:27Z</time>
      </trkpt>
      <trkpt lat="46.04562" lon="4.5737">
        <ele>391.8</ele>
        <time>2022-06-26T04:43:28Z</time>
      </trkpt>
      <trkpt lat="46.0456" lon="4.57368">
        <ele>391.8</ele>
        <time>2022-06-26T04:43:29Z</time>
      </trkpt>
      <trkpt lat="46.04559" lon="4.57366">
        <ele>392.2</ele>
        <time>2022-06-26T04:43:30Z</time>
      </trkpt>
      <trkpt lat="46.04557" lon="4.57364">
        <ele>392.4</ele>
        <time>2022-06-26T04:43:31Z</time>
      </trkpt>
      <trkpt lat="46.04556" lon="4.57362">
        <ele>392.6</ele>
        <time>2022-06-26T04:43:32Z</time>
      </trkpt>
      <trkpt lat="46.04554" lon="4.5736">
        <ele>392.8</ele>
        <time>2022-06-26T04:43:33Z</time>
      </trkpt>
      <trkpt lat="46.04552" lon="4.57358">
        <ele>392.8</ele>
        <time>2022-06-26T04:43:34Z</time>
      </trkpt>
      <trkpt lat="46.04551" lon="4.57356">
        <ele>393.2</ele>
        <time>2022-06-26T04:43:35Z</time>
      </trkpt>
      <trkpt lat="46.04549" lon="4.57354">
        <ele>393.2</ele>
        <time>2022-06-26T04:43:36Z</time>
      </trkpt>
      <trkpt lat="46.04548" lon="4.57352">
        <ele>393.6</ele>
        <time>2022-06-26T04:43:37Z</time>
      </trkpt>
      <trkpt lat="46.04547" lon="4.5735">
        <ele>394</ele>
        <time>2022-06-26T04:43:38Z</time>
      </trkpt>
      <trkpt lat="46.04545" lon="4.57349">
        <ele>394</ele>
        <time>2022-06-26T04:43:39Z</time>
      </trkpt>
      <trkpt lat="46.04543" lon="4.57347">
        <ele>394.2</ele>
        <time>2022-06-26T04:43:40Z</time>
      </trkpt>
      <trkpt lat="46.04542" lon="4.57345">
        <ele>394.4</ele>
        <time>2022-06-26T04:43:41Z</time>
      </trkpt>
      <trkpt lat="46.0454" lon="4.57343">
        <ele>394.4</ele>
        <time>2022-06-26T04:43:42Z</time>
      </trkpt>
      <trkpt lat="46.04539" lon="4.57341">
        <ele>394.8</ele>
        <time>2022-06-26T04:43:43Z</time>
      </trkpt>
      <trkpt lat="46.04537" lon="4.5734">
        <ele>394.8</ele>
        <time>2022-06-26T04:43:44Z</time>
      </trkpt>
      <trkpt lat="46.04536" lon="4.57338">
        <ele>395</ele>
        <time>2022-06-26T04:43:45Z</time>
      </trkpt>
      <trkpt lat="46.04534" lon="4.57337">
        <ele>395</ele>
        <time>2022-06-26T04:43:46Z</time>
      </trkpt>
      <trkpt lat="46.04533" lon="4.57336">
        <ele>395.4</ele>
        <time>2022-06-26T04:43:47Z</time>
      </trkpt>
      <trkpt lat="46.04531" lon="4.57334">
        <ele>395.4</ele>
        <time>2022-06-26T04:43:48Z</time>
      </trkpt>
      <trkpt lat="46.0453" lon="4.57333">
        <ele>395.6</ele>
        <time>2022-06-26T04:43:49Z</time>
      </trkpt>
      <trkpt lat="46.04529" lon="4.57332">
        <ele>395.6</ele>
        <time>2022-06-26T04:43:50Z</time>
      </trkpt>
      <trkpt lat="46.04527" lon="4.57331">
        <ele>396</ele>
        <time>2022-06-26T04:43:51Z</time>
      </trkpt>
      <trkpt lat="46.04526" lon="4.57329">
        <ele>396</ele>
        <time>2022-06-26T04:43:52Z</time>
      </trkpt>
      <trkpt lat="46.04524" lon="4.57328">
        <ele>396.4</ele>
        <time>2022-06-26T04:43:53Z</time>
      </trkpt>
      <trkpt lat="46.04523" lon="4.57326">
        <ele>396.4</ele>
        <time>2022-06-26T04:43:54Z</time>
      </trkpt>
      <trkpt lat="46.04521" lon="4.57325">
        <ele>396.6</ele>
        <time>2022-06-26T04:43:55Z</time>
      </trkpt>
      <trkpt lat="46.04519" lon="4.57324">
        <ele>396.6</ele>
        <time>2022-06-26T04:43:56Z</time>
      </trkpt>
      <trkpt lat="46.04518" lon="4.57323">
        <ele>397</ele>
        <time>2022-06-26T04:43:57Z</time>
      </trkpt>
      <trkpt lat="46.04516" lon="4.57321">
        <ele>397</ele>
        <time>2022-06-26T04:43:58Z</time>
      </trkpt>
      <trkpt lat="46.04514" lon="4.5732">
        <ele>397.4</ele>
        <time>2022-06-26T04:43:59Z</time>
      </trkpt>
      <trkpt lat="46.04512" lon="4.57318">
        <ele>397.4</ele>
        <time>2022-06-26T04:44:00Z</time>
      </trkpt>
      <trkpt lat="46.04511" lon="4.57316">
        <ele>397.6</ele>
        <time>2022-06-26T04:44:01Z</time>
      </trkpt>
      <trkpt lat="46.04509" lon="4.57314">
        <ele>397.8</ele>
        <time>2022-06-26T04:44:02Z</time>
      </trkpt>
      <trkpt lat="46.04506" lon="4.57313">
        <ele>398.2</ele>
        <time>2022-06-26T04:44:03Z</time>
      </trkpt>
      <trkpt lat="46.04505" lon="4.57311">
        <ele>398.4</ele>
        <time>2022-06-26T04:44:04Z</time>
      </trkpt>
      <trkpt lat="46.04503" lon="4.57309">
        <ele>398.4</ele>
        <time>2022-06-26T04:44:05Z</time>
      </trkpt>
      <trkpt lat="46.04501" lon="4.57308">
        <ele>398.6</ele>
        <time>2022-06-26T04:44:06Z</time>
      </trkpt>
      <trkpt lat="46.04499" lon="4.57306">
        <ele>398.6</ele>
        <time>2022-06-26T04:44:07Z</time>
      </trkpt>
      <trkpt lat="46.04497" lon="4.57304">
        <ele>399</ele>
        <time>2022-06-26T04:44:08Z</time>
      </trkpt>
      <trkpt lat="46.04495" lon="4.57303">
        <ele>399</ele>
        <time>2022-06-26T04:44:09Z</time>
      </trkpt>
      <trkpt lat="46.04493" lon="4.57301">
        <ele>399.2</ele>
        <time>2022-06-26T04:44:10Z</time>
      </trkpt>
      <trkpt lat="46.04491" lon="4.57299">
        <ele>399.4</ele>
        <time>2022-06-26T04:44:11Z</time>
      </trkpt>
      <trkpt lat="46.04489" lon="4.57298">
        <ele>399.4</ele>
        <time>2022-06-26T04:44:12Z</time>
      </trkpt>
      <trkpt lat="46.04487" lon="4.57296">
        <ele>399.8</ele>
        <time>2022-06-26T04:44:13Z</time>
      </trkpt>
      <trkpt lat="46.04486" lon="4.57295">
        <ele>400</ele>
        <time>2022-06-26T04:44:14Z</time>
      </trkpt>
      <trkpt lat="46.04484" lon="4.57293">
        <ele>400</ele>
        <time>2022-06-26T04:44:15Z</time>
      </trkpt>
      <trkpt lat="46.04482" lon="4.57292">
        <ele>400.4</ele>
        <time>2022-06-26T04:44:16Z</time>
      </trkpt>
      <trkpt lat="46.0448" lon="4.57291">
        <ele>400.6</ele>
        <time>2022-06-26T04:44:17Z</time>
      </trkpt>
      <trkpt lat="46.04478" lon="4.57289">
        <ele>400.8</ele>
        <time>2022-06-26T04:44:18Z</time>
      </trkpt>
      <trkpt lat="46.04476" lon="4.57287">
        <ele>400.8</ele>
        <time>2022-06-26T04:44:19Z</time>
      </trkpt>
      <trkpt lat="46.04475" lon="4.57285">
        <ele>401.2</ele>
        <time>2022-06-26T04:44:20Z</time>
      </trkpt>
      <trkpt lat="46.04473" lon="4.57282">
        <ele>401.2</ele>
        <time>2022-06-26T04:44:21Z</time>
      </trkpt>
      <trkpt lat="46.04472" lon="4.57279">
        <ele>401.4</ele>
        <time>2022-06-26T04:44:22Z</time>
      </trkpt>
      <trkpt lat="46.04472" lon="4.57276">
        <ele>401.4</ele>
        <time>2022-06-26T04:44:23Z</time>
      </trkpt>
      <trkpt lat="46.04472" lon="4.57273">
        <ele>401.8</ele>
        <time>2022-06-26T04:44:24Z</time>
      </trkpt>
      <trkpt lat="46.04473" lon="4.57269">
        <ele>401.8</ele>
        <time>2022-06-26T04:44:25Z</time>
      </trkpt>
      <trkpt lat="46.04474" lon="4.57267">
        <ele>402</ele>
        <time>2022-06-26T04:44:26Z</time>
      </trkpt>
      <trkpt lat="46.04475" lon="4.57264">
        <ele>402</ele>
        <time>2022-06-26T04:44:27Z</time>
      </trkpt>
      <trkpt lat="46.04477" lon="4.57262">
        <ele>402.2</ele>
        <time>2022-06-26T04:44:28Z</time>
      </trkpt>
      <trkpt lat="46.0448" lon="4.5726">
        <ele>402.2</ele>
        <time>2022-06-26T04:44:29Z</time>
      </trkpt>
      <trkpt lat="46.04482" lon="4.57258">
        <ele>402.6</ele>
        <time>2022-06-26T04:44:30Z</time>
      </trkpt>
      <trkpt lat="46.04485" lon="4.57257">
        <ele>402.6</ele>
        <time>2022-06-26T04:44:31Z</time>
      </trkpt>
      <trkpt lat="46.04488" lon="4.57257">
        <ele>402.6</ele>
        <time>2022-06-26T04:44:32Z</time>
      </trkpt>
      <trkpt lat="46.04491" lon="4.57256">
        <ele>402.6</ele>
        <time>2022-06-26T04:44:33Z</time>
      </trkpt>
      <trkpt lat="46.04494" lon="4.57255">
        <ele>402.8</ele>
        <time>2022-06-26T04:44:34Z</time>
      </trkpt>
      <trkpt lat="46.04497" lon="4.57255">
        <ele>402.8</ele>
        <time>2022-06-26T04:44:35Z</time>
      </trkpt>
      <trkpt lat="46.04499" lon="4.57255">
        <ele>402.8</ele>
        <time>2022-06-26T04:44:36Z</time>
      </trkpt>
      <trkpt lat="46.04502" lon="4.57255">
        <ele>403</ele>
        <time>2022-06-26T04:44:37Z</time>
      </trkpt>
      <trkpt lat="46.04505" lon="4.57254">
        <ele>403</ele>
        <time>2022-06-26T04:44:38Z</time>
      </trkpt>
      <trkpt lat="46.04508" lon="4.57254">
        <ele>403.4</ele>
        <time>2022-06-26T04:44:39Z</time>
      </trkpt>
      <trkpt lat="46.04511" lon="4.57254">
        <ele>403.4</ele>
        <time>2022-06-26T04:44:40Z</time>
      </trkpt>
      <trkpt lat="46.04513" lon="4.57253">
        <ele>403.6</ele>
        <time>2022-06-26T04:44:41Z</time>
      </trkpt>
      <trkpt lat="46.04516" lon="4.57253">
        <ele>403.6</ele>
        <time>2022-06-26T04:44:42Z</time>
      </trkpt>
      <trkpt lat="46.04519" lon="4.57252">
        <ele>403.8</ele>
        <time>2022-06-26T04:44:43Z</time>
      </trkpt>
      <trkpt lat="46.04522" lon="4.57252">
        <ele>403.8</ele>
        <time>2022-06-26T04:44:44Z</time>
      </trkpt>
      <trkpt lat="46.04524" lon="4.57252">
        <ele>404.2</ele>
        <time>2022-06-26T04:44:45Z</time>
      </trkpt>
      <trkpt lat="46.04527" lon="4.57251">
        <ele>404.2</ele>
        <time>2022-06-26T04:44:46Z</time>
      </trkpt>
      <trkpt lat="46.0453" lon="4.57251">
        <ele>404.6</ele>
        <time>2022-06-26T04:44:47Z</time>
      </trkpt>
      <trkpt lat="46.04532" lon="4.5725">
        <ele>404.6</ele>
        <time>2022-06-26T04:44:48Z</time>
      </trkpt>
      <trkpt lat="46.04535" lon="4.57249">
        <ele>405</ele>
        <time>2022-06-26T04:44:49Z</time>
      </trkpt>
      <trkpt lat="46.04537" lon="4.57248">
        <ele>405</ele>
        <time>2022-06-26T04:44:50Z</time>
      </trkpt>
      <trkpt lat="46.04539" lon="4.57246">
        <ele>405.2</ele>
        <time>2022-06-26T04:44:51Z</time>
      </trkpt>
      <trkpt lat="46.04541" lon="4.57243">
        <ele>405.2</ele>
        <time>2022-06-26T04:44:52Z</time>
      </trkpt>
      <trkpt lat="46.04543" lon="4.57241">
        <ele>405.6</ele>
        <time>2022-06-26T04:44:53Z</time>
      </trkpt>
      <trkpt lat="46.04544" lon="4.57238">
        <ele>405.8</ele>
        <time>2022-06-26T04:44:54Z</time>
      </trkpt>
      <trkpt lat="46.04545" lon="4.57234">
        <ele>405.8</ele>
        <time>2022-06-26T04:44:55Z</time>
      </trkpt>
      <trkpt lat="46.04546" lon="4.57231">
        <ele>406.2</ele>
        <time>2022-06-26T04:44:56Z</time>
      </trkpt>
      <trkpt lat="46.04546" lon="4.57228">
        <ele>406.4</ele>
        <time>2022-06-26T04:44:57Z</time>
      </trkpt>
      <trkpt lat="46.04546" lon="4.57225">
        <ele>406.4</ele>
        <time>2022-06-26T04:44:58Z</time>
      </trkpt>
      <trkpt lat="46.04547" lon="4.57222">
        <ele>406.8</ele>
        <time>2022-06-26T04:44:59Z</time>
      </trkpt>
      <trkpt lat="46.04547" lon="4.57219">
        <ele>406.8</ele>
        <time>2022-06-26T04:45:00Z</time>
      </trkpt>
      <trkpt lat="46.04547" lon="4.57216">
        <ele>407.2</ele>
        <time>2022-06-26T04:45:01Z</time>
      </trkpt>
      <trkpt lat="46.04546" lon="4.57214">
        <ele>407.2</ele>
        <time>2022-06-26T04:45:02Z</time>
      </trkpt>
      <trkpt lat="46.04546" lon="4.57211">
        <ele>407.6</ele>
        <time>2022-06-26T04:45:03Z</time>
      </trkpt>
      <trkpt lat="46.04546" lon="4.57208">
        <ele>407.6</ele>
        <time>2022-06-26T04:45:04Z</time>
      </trkpt>
      <trkpt lat="46.04546" lon="4.57205">
        <ele>408</ele>
        <time>2022-06-26T04:45:05Z</time>
      </trkpt>
      <trkpt lat="46.04546" lon="4.57202">
        <ele>408.2</ele>
        <time>2022-06-26T04:45:06Z</time>
      </trkpt>
      <trkpt lat="46.04546" lon="4.57199">
        <ele>408.4</ele>
        <time>2022-06-26T04:45:07Z</time>
      </trkpt>
      <trkpt lat="46.04546" lon="4.57196">
        <ele>408.8</ele>
        <time>2022-06-26T04:45:08Z</time>
      </trkpt>
      <trkpt lat="46.04546" lon="4.57192">
        <ele>409</ele>
        <time>2022-06-26T04:45:09Z</time>
      </trkpt>
      <trkpt lat="46.04547" lon="4.57189">
        <ele>409</ele>
        <time>2022-06-26T04:45:10Z</time>
      </trkpt>
      <trkpt lat="46.04547" lon="4.57186">
        <ele>409.4</ele>
        <time>2022-06-26T04:45:11Z</time>
      </trkpt>
      <trkpt lat="46.04547" lon="4.57183">
        <ele>409.6</ele>
        <time>2022-06-26T04:45:12Z</time>
      </trkpt>
      <trkpt lat="46.04547" lon="4.57181">
        <ele>409.8</ele>
        <time>2022-06-26T04:45:13Z</time>
      </trkpt>
      <trkpt lat="46.04546" lon="4.57177">
        <ele>410</ele>
        <time>2022-06-26T04:45:14Z</time>
      </trkpt>
      <trkpt lat="46.04546" lon="4.57174">
        <ele>410.2</ele>
        <time>2022-06-26T04:45:15Z</time>
      </trkpt>
      <trkpt lat="46.04545" lon="4.5717">
        <ele>410.6</ele>
        <time>2022-06-26T04:45:16Z</time>
      </trkpt>
      <trkpt lat="46.04545" lon="4.57166">
        <ele>410.8</ele>
        <time>2022-06-26T04:45:17Z</time>
      </trkpt>
      <trkpt lat="46.04545" lon="4.57163">
        <ele>411</ele>
        <time>2022-06-26T04:45:18Z</time>
      </trkpt>
      <trkpt lat="46.04544" lon="4.5716">
        <ele>411.2</ele>
        <time>2022-06-26T04:45:19Z</time>
      </trkpt>
      <trkpt lat="46.04543" lon="4.57157">
        <ele>411.4</ele>
        <time>2022-06-26T04:45:20Z</time>
      </trkpt>
      <trkpt lat="46.04542" lon="4.57154">
        <ele>411.4</ele>
        <time>2022-06-26T04:45:21Z</time>
      </trkpt>
      <trkpt lat="46.04541" lon="4.57151">
        <ele>411.8</ele>
        <time>2022-06-26T04:45:22Z</time>
      </trkpt>
      <trkpt lat="46.0454" lon="4.57148">
        <ele>412.2</ele>
        <time>2022-06-26T04:45:23Z</time>
      </trkpt>
      <trkpt lat="46.0454" lon="4.57145">
        <ele>412.4</ele>
        <time>2022-06-26T04:45:24Z</time>
      </trkpt>
      <trkpt lat="46.04539" lon="4.57142">
        <ele>412.6</ele>
        <time>2022-06-26T04:45:25Z</time>
      </trkpt>
      <trkpt lat="46.04538" lon="4.57139">
        <ele>412.8</ele>
        <time>2022-06-26T04:45:26Z</time>
      </trkpt>
      <trkpt lat="46.04537" lon="4.57136">
        <ele>413.2</ele>
        <time>2022-06-26T04:45:27Z</time>
      </trkpt>
      <trkpt lat="46.04537" lon="4.57133">
        <ele>413.4</ele>
        <time>2022-06-26T04:45:28Z</time>
      </trkpt>
      <trkpt lat="46.04536" lon="4.5713">
        <ele>413.4</ele>
        <time>2022-06-26T04:45:29Z</time>
      </trkpt>
      <trkpt lat="46.04535" lon="4.57127">
        <ele>413.8</ele>
        <time>2022-06-26T04:45:30Z</time>
      </trkpt>
      <trkpt lat="46.04534" lon="4.57125">
        <ele>414.2</ele>
        <time>2022-06-26T04:45:31Z</time>
      </trkpt>
      <trkpt lat="46.04533" lon="4.57122">
        <ele>414.4</ele>
        <time>2022-06-26T04:45:32Z</time>
      </trkpt>
      <trkpt lat="46.04532" lon="4.57119">
        <ele>414.8</ele>
        <time>2022-06-26T04:45:33Z</time>
      </trkpt>
      <trkpt lat="46.04531" lon="4.57116">
        <ele>414.8</ele>
        <time>2022-06-26T04:45:34Z</time>
      </trkpt>
      <trkpt lat="46.04531" lon="4.57114">
        <ele>415.2</ele>
        <time>2022-06-26T04:45:35Z</time>
      </trkpt>
      <trkpt lat="46.0453" lon="4.57111">
        <ele>415.4</ele>
        <time>2022-06-26T04:45:36Z</time>
      </trkpt>
      <trkpt lat="46.04529" lon="4.57108">
        <ele>415.6</ele>
        <time>2022-06-26T04:45:37Z</time>
      </trkpt>
      <trkpt lat="46.04528" lon="4.57106">
        <ele>415.8</ele>
        <time>2022-06-26T04:45:38Z</time>
      </trkpt>
      <trkpt lat="46.04527" lon="4.57103">
        <ele>416.2</ele>
        <time>2022-06-26T04:45:39Z</time>
      </trkpt>
      <trkpt lat="46.04527" lon="4.57101">
        <ele>416.4</ele>
        <time>2022-06-26T04:45:40Z</time>
      </trkpt>
      <trkpt lat="46.04526" lon="4.57098">
        <ele>416.6</ele>
        <time>2022-06-26T04:45:41Z</time>
      </trkpt>
      <trkpt lat="46.04524" lon="4.57095">
        <ele>416.8</ele>
        <time>2022-06-26T04:45:42Z</time>
      </trkpt>
      <trkpt lat="46.04523" lon="4.57093">
        <ele>417</ele>
        <time>2022-06-26T04:45:43Z</time>
      </trkpt>
      <trkpt lat="46.04522" lon="4.5709">
        <ele>417</ele>
        <time>2022-06-26T04:45:44Z</time>
      </trkpt>
      <trkpt lat="46.04522" lon="4.57088">
        <ele>417.6</ele>
        <time>2022-06-26T04:45:45Z</time>
      </trkpt>
      <trkpt lat="46.04521" lon="4.57086">
        <ele>417.8</ele>
        <time>2022-06-26T04:45:46Z</time>
      </trkpt>
      <trkpt lat="46.0452" lon="4.57084">
        <ele>418</ele>
        <time>2022-06-26T04:45:47Z</time>
      </trkpt>
      <trkpt lat="46.04519" lon="4.57081">
        <ele>418</ele>
        <time>2022-06-26T04:45:48Z</time>
      </trkpt>
      <trkpt lat="46.04518" lon="4.57079">
        <ele>418.4</ele>
        <time>2022-06-26T04:45:49Z</time>
      </trkpt>
      <trkpt lat="46.04517" lon="4.57076">
        <ele>418.4</ele>
        <time>2022-06-26T04:45:50Z</time>
      </trkpt>
      <trkpt lat="46.04516" lon="4.57074">
        <ele>418.8</ele>
        <time>2022-06-26T04:45:51Z</time>
      </trkpt>
      <trkpt lat="46.04514" lon="4.57071">
        <ele>419</ele>
        <time>2022-06-26T04:45:52Z</time>
      </trkpt>
      <trkpt lat="46.04513" lon="4.57068">
        <ele>419.2</ele>
        <time>2022-06-26T04:45:53Z</time>
      </trkpt>
      <trkpt lat="46.04513" lon="4.57066">
        <ele>419.2</ele>
        <time>2022-06-26T04:45:54Z</time>
      </trkpt>
      <trkpt lat="46.04512" lon="4.57063">
        <ele>419.6</ele>
        <time>2022-06-26T04:45:55Z</time>
      </trkpt>
      <trkpt lat="46.04511" lon="4.57061">
        <ele>419.8</ele>
        <time>2022-06-26T04:45:56Z</time>
      </trkpt>
      <trkpt lat="46.0451" lon="4.57058">
        <ele>420.2</ele>
        <time>2022-06-26T04:45:57Z</time>
      </trkpt>
      <trkpt lat="46.04509" lon="4.57056">
        <ele>420.4</ele>
        <time>2022-06-26T04:45:58Z</time>
      </trkpt>
      <trkpt lat="46.04508" lon="4.57054">
        <ele>420.4</ele>
        <time>2022-06-26T04:45:59Z</time>
      </trkpt>
      <trkpt lat="46.04507" lon="4.57051">
        <ele>420.8</ele>
        <time>2022-06-26T04:46:00Z</time>
      </trkpt>
      <trkpt lat="46.04506" lon="4.57048">
        <ele>421</ele>
        <time>2022-06-26T04:46:01Z</time>
      </trkpt>
      <trkpt lat="46.04504" lon="4.57045">
        <ele>421.2</ele>
        <time>2022-06-26T04:46:02Z</time>
      </trkpt>
      <trkpt lat="46.04503" lon="4.57043">
        <ele>421.4</ele>
        <time>2022-06-26T04:46:03Z</time>
      </trkpt>
      <trkpt lat="46.04502" lon="4.57041">
        <ele>421.8</ele>
        <time>2022-06-26T04:46:04Z</time>
      </trkpt>
      <trkpt lat="46.04502" lon="4.57038">
        <ele>422</ele>
        <time>2022-06-26T04:46:05Z</time>
      </trkpt>
      <trkpt lat="46.04501" lon="4.57036">
        <ele>422</ele>
        <time>2022-06-26T04:46:06Z</time>
      </trkpt>
      <trkpt lat="46.04501" lon="4.57034">
        <ele>422.4</ele>
        <time>2022-06-26T04:46:07Z</time>
      </trkpt>
      <trkpt lat="46.045" lon="4.57032">
        <ele>422.6</ele>
        <time>2022-06-26T04:46:08Z</time>
      </trkpt>
      <trkpt lat="46.04499" lon="4.57029">
        <ele>422.6</ele>
        <time>2022-06-26T04:46:09Z</time>
      </trkpt>
      <trkpt lat="46.04498" lon="4.57027">
        <ele>423</ele>
        <time>2022-06-26T04:46:10Z</time>
      </trkpt>
      <trkpt lat="46.04497" lon="4.57024">
        <ele>423</ele>
        <time>2022-06-26T04:46:11Z</time>
      </trkpt>
      <trkpt lat="46.04496" lon="4.57022">
        <ele>423.4</ele>
        <time>2022-06-26T04:46:12Z</time>
      </trkpt>
      <trkpt lat="46.04495" lon="4.57019">
        <ele>423.6</ele>
        <time>2022-06-26T04:46:13Z</time>
      </trkpt>
      <trkpt lat="46.04494" lon="4.57017">
        <ele>423.8</ele>
        <time>2022-06-26T04:46:14Z</time>
      </trkpt>
      <trkpt lat="46.04493" lon="4.57015">
        <ele>424</ele>
        <time>2022-06-26T04:46:15Z</time>
      </trkpt>
      <trkpt lat="46.04492" lon="4.57012">
        <ele>424.2</ele>
        <time>2022-06-26T04:46:16Z</time>
      </trkpt>
      <trkpt lat="46.04491" lon="4.5701">
        <ele>424.4</ele>
        <time>2022-06-26T04:46:17Z</time>
      </trkpt>
      <trkpt lat="46.04489" lon="4.57007">
        <ele>424.6</ele>
        <time>2022-06-26T04:46:18Z</time>
      </trkpt>
      <trkpt lat="46.04488" lon="4.57005">
        <ele>424.6</ele>
        <time>2022-06-26T04:46:19Z</time>
      </trkpt>
      <trkpt lat="46.04487" lon="4.57004">
        <ele>425</ele>
        <time>2022-06-26T04:46:20Z</time>
      </trkpt>
      <trkpt lat="46.04485" lon="4.57001">
        <ele>425</ele>
        <time>2022-06-26T04:46:21Z</time>
      </trkpt>
      <trkpt lat="46.04484" lon="4.56998">
        <ele>425.4</ele>
        <time>2022-06-26T04:46:22Z</time>
      </trkpt>
      <trkpt lat="46.04482" lon="4.56996">
        <ele>425.6</ele>
        <time>2022-06-26T04:46:23Z</time>
      </trkpt>
      <trkpt lat="46.0448" lon="4.56994">
        <ele>425.8</ele>
        <time>2022-06-26T04:46:24Z</time>
      </trkpt>
      <trkpt lat="46.04478" lon="4.56992">
        <ele>426</ele>
        <time>2022-06-26T04:46:25Z</time>
      </trkpt>
      <trkpt lat="46.04476" lon="4.5699">
        <ele>426.4</ele>
        <time>2022-06-26T04:46:26Z</time>
      </trkpt>
      <trkpt lat="46.04475" lon="4.56988">
        <ele>426.6</ele>
        <time>2022-06-26T04:46:27Z</time>
      </trkpt>
      <trkpt lat="46.04472" lon="4.56986">
        <ele>426.8</ele>
        <time>2022-06-26T04:46:28Z</time>
      </trkpt>
      <trkpt lat="46.0447" lon="4.56983">
        <ele>427</ele>
        <time>2022-06-26T04:46:29Z</time>
      </trkpt>
      <trkpt lat="46.04468" lon="4.56981">
        <ele>427</ele>
        <time>2022-06-26T04:46:30Z</time>
      </trkpt>
      <trkpt lat="46.04466" lon="4.5698">
        <ele>427.4</ele>
        <time>2022-06-26T04:46:31Z</time>
      </trkpt>
      <trkpt lat="46.04464" lon="4.56978">
        <ele>427.8</ele>
        <time>2022-06-26T04:46:32Z</time>
      </trkpt>
      <trkpt lat="46.04462" lon="4.56977">
        <ele>427.8</ele>
        <time>2022-06-26T04:46:33Z</time>
      </trkpt>
      <trkpt lat="46.0446" lon="4.56975">
        <ele>428</ele>
        <time>2022-06-26T04:46:34Z</time>
      </trkpt>
      <trkpt lat="46.04458" lon="4.56974">
        <ele>428.2</ele>
        <time>2022-06-26T04:46:35Z</time>
      </trkpt>
      <trkpt lat="46.04457" lon="4.56973">
        <ele>428.4</ele>
        <time>2022-06-26T04:46:36Z</time>
      </trkpt>
      <trkpt lat="46.04455" lon="4.56972">
        <ele>428.8</ele>
        <time>2022-06-26T04:46:37Z</time>
      </trkpt>
      <trkpt lat="46.04453" lon="4.5697">
        <ele>429</ele>
        <time>2022-06-26T04:46:38Z</time>
      </trkpt>
      <trkpt lat="46.04451" lon="4.56968">
        <ele>429.2</ele>
        <time>2022-06-26T04:46:39Z</time>
      </trkpt>
      <trkpt lat="46.04448" lon="4.56967">
        <ele>429.4</ele>
        <time>2022-06-26T04:46:40Z</time>
      </trkpt>
      <trkpt lat="46.04446" lon="4.56966">
        <ele>429.4</ele>
        <time>2022-06-26T04:46:41Z</time>
      </trkpt>
      <trkpt lat="46.04444" lon="4.56964">
        <ele>429.8</ele>
        <time>2022-06-26T04:46:42Z</time>
      </trkpt>
      <trkpt lat="46.04442" lon="4.56963">
        <ele>429.8</ele>
        <time>2022-06-26T04:46:43Z</time>
      </trkpt>
      <trkpt lat="46.0444" lon="4.56961">
        <ele>430.2</ele>
        <time>2022-06-26T04:46:44Z</time>
      </trkpt>
      <trkpt lat="46.04438" lon="4.56959">
        <ele>430.4</ele>
        <time>2022-06-26T04:46:45Z</time>
      </trkpt>
      <trkpt lat="46.04436" lon="4.56958">
        <ele>430.4</ele>
        <time>2022-06-26T04:46:46Z</time>
      </trkpt>
      <trkpt lat="46.04434" lon="4.56958">
        <ele>430.8</ele>
        <time>2022-06-26T04:46:47Z</time>
      </trkpt>
      <trkpt lat="46.04432" lon="4.56956">
        <ele>430.8</ele>
        <time>2022-06-26T04:46:48Z</time>
      </trkpt>
      <trkpt lat="46.04429" lon="4.56954">
        <ele>431.2</ele>
        <time>2022-06-26T04:46:49Z</time>
      </trkpt>
      <trkpt lat="46.04427" lon="4.56953">
        <ele>431.4</ele>
        <time>2022-06-26T04:46:50Z</time>
      </trkpt>
      <trkpt lat="46.04425" lon="4.56951">
        <ele>431.4</ele>
        <time>2022-06-26T04:46:51Z</time>
      </trkpt>
      <trkpt lat="46.04423" lon="4.5695">
        <ele>431.8</ele>
        <time>2022-06-26T04:46:52Z</time>
      </trkpt>
      <trkpt lat="46.04421" lon="4.56949">
        <ele>432</ele>
        <time>2022-06-26T04:46:53Z</time>
      </trkpt>
      <trkpt lat="46.04418" lon="4.56947">
        <ele>432.2</ele>
        <time>2022-06-26T04:46:54Z</time>
      </trkpt>
      <trkpt lat="46.04416" lon="4.56946">
        <ele>432.4</ele>
        <time>2022-06-26T04:46:55Z</time>
      </trkpt>
      <trkpt lat="46.04414" lon="4.56944">
        <ele>432.6</ele>
        <time>2022-06-26T04:46:56Z</time>
      </trkpt>
      <trkpt lat="46.04412" lon="4.56943">
        <ele>433</ele>
        <time>2022-06-26T04:46:57Z</time>
      </trkpt>
      <trkpt lat="46.0441" lon="4.56941">
        <ele>433.2</ele>
        <time>2022-06-26T04:46:58Z</time>
      </trkpt>
      <trkpt lat="46.04407" lon="4.5694">
        <ele>433.4</ele>
        <time>2022-06-26T04:46:59Z</time>
      </trkpt>
      <trkpt lat="46.04405" lon="4.56939">
        <ele>433.4</ele>
        <time>2022-06-26T04:47:00Z</time>
      </trkpt>
      <trkpt lat="46.04403" lon="4.56938">
        <ele>434</ele>
        <time>2022-06-26T04:47:01Z</time>
      </trkpt>
      <trkpt lat="46.04401" lon="4.56937">
        <ele>434.2</ele>
        <time>2022-06-26T04:47:02Z</time>
      </trkpt>
      <trkpt lat="46.04399" lon="4.56936">
        <ele>434.4</ele>
        <time>2022-06-26T04:47:03Z</time>
      </trkpt>
      <trkpt lat="46.04397" lon="4.56935">
        <ele>434.4</ele>
        <time>2022-06-26T04:47:04Z</time>
      </trkpt>
      <trkpt lat="46.04395" lon="4.56933">
        <ele>434.6</ele>
        <time>2022-06-26T04:47:05Z</time>
      </trkpt>
      <trkpt lat="46.04393" lon="4.56932">
        <ele>434.6</ele>
        <time>2022-06-26T04:47:06Z</time>
      </trkpt>
      <trkpt lat="46.04391" lon="4.56931">
        <ele>435</ele>
        <time>2022-06-26T04:47:07Z</time>
      </trkpt>
      <trkpt lat="46.04389" lon="4.5693">
        <ele>435</ele>
        <time>2022-06-26T04:47:08Z</time>
      </trkpt>
      <trkpt lat="46.04387" lon="4.56928">
        <ele>435.2</ele>
        <time>2022-06-26T04:47:09Z</time>
      </trkpt>
      <trkpt lat="46.04385" lon="4.56927">
        <ele>435.6</ele>
        <time>2022-06-26T04:47:10Z</time>
      </trkpt>
      <trkpt lat="46.04383" lon="4.56926">
        <ele>435.8</ele>
        <time>2022-06-26T04:47:11Z</time>
      </trkpt>
      <trkpt lat="46.04381" lon="4.56925">
        <ele>436</ele>
        <time>2022-06-26T04:47:12Z</time>
      </trkpt>
      <trkpt lat="46.04379" lon="4.56923">
        <ele>436.2</ele>
        <time>2022-06-26T04:47:13Z</time>
      </trkpt>
      <trkpt lat="46.04377" lon="4.56922">
        <ele>436.2</ele>
        <time>2022-06-26T04:47:14Z</time>
      </trkpt>
      <trkpt lat="46.04375" lon="4.56921">
        <ele>436.6</ele>
        <time>2022-06-26T04:47:15Z</time>
      </trkpt>
      <trkpt lat="46.04373" lon="4.56919">
        <ele>436.8</ele>
        <time>2022-06-26T04:47:16Z</time>
      </trkpt>
      <trkpt lat="46.04371" lon="4.56917">
        <ele>437</ele>
        <time>2022-06-26T04:47:17Z</time>
      </trkpt>
      <trkpt lat="46.0437" lon="4.56916">
        <ele>437</ele>
        <time>2022-06-26T04:47:18Z</time>
      </trkpt>
      <trkpt lat="46.04368" lon="4.56914">
        <ele>437.4</ele>
        <time>2022-06-26T04:47:19Z</time>
      </trkpt>
      <trkpt lat="46.04366" lon="4.56912">
        <ele>437.6</ele>
        <time>2022-06-26T04:47:20Z</time>
      </trkpt>
      <trkpt lat="46.04364" lon="4.56911">
        <ele>437.8</ele>
        <time>2022-06-26T04:47:21Z</time>
      </trkpt>
      <trkpt lat="46.04362" lon="4.56909">
        <ele>437.8</ele>
        <time>2022-06-26T04:47:22Z</time>
      </trkpt>
      <trkpt lat="46.04361" lon="4.56908">
        <ele>438.2</ele>
        <time>2022-06-26T04:47:23Z</time>
      </trkpt>
      <trkpt lat="46.04358" lon="4.56906">
        <ele>438.4</ele>
        <time>2022-06-26T04:47:24Z</time>
      </trkpt>
      <trkpt lat="46.04356" lon="4.56905">
        <ele>438.4</ele>
        <time>2022-06-26T04:47:25Z</time>
      </trkpt>
      <trkpt lat="46.04354" lon="4.56903">
        <ele>438.8</ele>
        <time>2022-06-26T04:47:26Z</time>
      </trkpt>
      <trkpt lat="46.04353" lon="4.56902">
        <ele>439</ele>
        <time>2022-06-26T04:47:27Z</time>
      </trkpt>
      <trkpt lat="46.04351" lon="4.56901">
        <ele>439.4</ele>
        <time>2022-06-26T04:47:28Z</time>
      </trkpt>
      <trkpt lat="46.04349" lon="4.56899">
        <ele>439.4</ele>
        <time>2022-06-26T04:47:29Z</time>
      </trkpt>
      <trkpt lat="46.04347" lon="4.56898">
        <ele>439.8</ele>
        <time>2022-06-26T04:47:30Z</time>
      </trkpt>
      <trkpt lat="46.04345" lon="4.56897">
        <ele>440</ele>
        <time>2022-06-26T04:47:31Z</time>
      </trkpt>
      <trkpt lat="46.04343" lon="4.56896">
        <ele>440</ele>
        <time>2022-06-26T04:47:32Z</time>
      </trkpt>
      <trkpt lat="46.04342" lon="4.56894">
        <ele>440.2</ele>
        <time>2022-06-26T04:47:33Z</time>
      </trkpt>
      <trkpt lat="46.0434" lon="4.56893">
        <ele>440.2</ele>
        <time>2022-06-26T04:47:34Z</time>
      </trkpt>
      <trkpt lat="46.04338" lon="4.56891">
        <ele>440.6</ele>
        <time>2022-06-26T04:47:35Z</time>
      </trkpt>
      <trkpt lat="46.04336" lon="4.5689">
        <ele>440.8</ele>
        <time>2022-06-26T04:47:36Z</time>
      </trkpt>
      <trkpt lat="46.04334" lon="4.56888">
        <ele>440.8</ele>
        <time>2022-06-26T04:47:37Z</time>
      </trkpt>
      <trkpt lat="46.04333" lon="4.56887">
        <ele>441.2</ele>
        <time>2022-06-26T04:47:38Z</time>
      </trkpt>
      <trkpt lat="46.04331" lon="4.56886">
        <ele>441.4</ele>
        <time>2022-06-26T04:47:39Z</time>
      </trkpt>
      <trkpt lat="46.0433" lon="4.56884">
        <ele>441.4</ele>
        <time>2022-06-26T04:47:40Z</time>
      </trkpt>
      <trkpt lat="46.04328" lon="4.56883">
        <ele>441.8</ele>
        <time>2022-06-26T04:47:41Z</time>
      </trkpt>
      <trkpt lat="46.04327" lon="4.56881">
        <ele>441.8</ele>
        <time>2022-06-26T04:47:42Z</time>
      </trkpt>
      <trkpt lat="46.04325" lon="4.5688">
        <ele>442</ele>
        <time>2022-06-26T04:47:43Z</time>
      </trkpt>
      <trkpt lat="46.04324" lon="4.56878">
        <ele>442</ele>
        <time>2022-06-26T04:47:44Z</time>
      </trkpt>
      <trkpt lat="46.04322" lon="4.56877">
        <ele>442.4</ele>
        <time>2022-06-26T04:47:45Z</time>
      </trkpt>
      <trkpt lat="46.0432" lon="4.56875">
        <ele>442.4</ele>
        <time>2022-06-26T04:47:46Z</time>
      </trkpt>
      <trkpt lat="46.04319" lon="4.56874">
        <ele>442.8</ele>
        <time>2022-06-26T04:47:47Z</time>
      </trkpt>
      <trkpt lat="46.04317" lon="4.56872">
        <ele>443</ele>
        <time>2022-06-26T04:47:48Z</time>
      </trkpt>
      <trkpt lat="46.04315" lon="4.56871">
        <ele>443</ele>
        <time>2022-06-26T04:47:49Z</time>
      </trkpt>
      <trkpt lat="46.04313" lon="4.5687">
        <ele>443.2</ele>
        <time>2022-06-26T04:47:50Z</time>
      </trkpt>
      <trkpt lat="46.04312" lon="4.56868">
        <ele>443.2</ele>
        <time>2022-06-26T04:47:51Z</time>
      </trkpt>
      <trkpt lat="46.0431" lon="4.56867">
        <ele>443.6</ele>
        <time>2022-06-26T04:47:52Z</time>
      </trkpt>
      <trkpt lat="46.04309" lon="4.56866">
        <ele>443.8</ele>
        <time>2022-06-26T04:47:53Z</time>
      </trkpt>
      <trkpt lat="46.04307" lon="4.56864">
        <ele>443.8</ele>
        <time>2022-06-26T04:47:54Z</time>
      </trkpt>
      <trkpt lat="46.04305" lon="4.56863">
        <ele>444.2</ele>
        <time>2022-06-26T04:47:55Z</time>
      </trkpt>
      <trkpt lat="46.04303" lon="4.56861">
        <ele>444.2</ele>
        <time>2022-06-26T04:47:56Z</time>
      </trkpt>
      <trkpt lat="46.04302" lon="4.5686">
        <ele>444.6</ele>
        <time>2022-06-26T04:47:57Z</time>
      </trkpt>
      <trkpt lat="46.043" lon="4.56859">
        <ele>444.8</ele>
        <time>2022-06-26T04:47:58Z</time>
      </trkpt>
      <trkpt lat="46.04298" lon="4.56858">
        <ele>444.8</ele>
        <time>2022-06-26T04:47:59Z</time>
      </trkpt>
      <trkpt lat="46.04296" lon="4.56856">
        <ele>445.2</ele>
        <time>2022-06-26T04:48:00Z</time>
      </trkpt>
      <trkpt lat="46.04294" lon="4.56855">
        <ele>445.4</ele>
        <time>2022-06-26T04:48:01Z</time>
      </trkpt>
      <trkpt lat="46.04292" lon="4.56853">
        <ele>445.4</ele>
        <time>2022-06-26T04:48:02Z</time>
      </trkpt>
      <trkpt lat="46.04291" lon="4.56852">
        <ele>445.6</ele>
        <time>2022-06-26T04:48:03Z</time>
      </trkpt>
      <trkpt lat="46.04289" lon="4.5685">
        <ele>445.6</ele>
        <time>2022-06-26T04:48:04Z</time>
      </trkpt>
      <trkpt lat="46.04288" lon="4.56849">
        <ele>446</ele>
        <time>2022-06-26T04:48:05Z</time>
      </trkpt>
      <trkpt lat="46.04286" lon="4.56848">
        <ele>446.4</ele>
        <time>2022-06-26T04:48:06Z</time>
      </trkpt>
      <trkpt lat="46.04284" lon="4.56846">
        <ele>446.6</ele>
        <time>2022-06-26T04:48:07Z</time>
      </trkpt>
      <trkpt lat="46.04282" lon="4.56845">
        <ele>446.8</ele>
        <time>2022-06-26T04:48:08Z</time>
      </trkpt>
      <trkpt lat="46.0428" lon="4.56844">
        <ele>446.8</ele>
        <time>2022-06-26T04:48:09Z</time>
      </trkpt>
      <trkpt lat="46.04278" lon="4.56843">
        <ele>447.2</ele>
        <time>2022-06-26T04:48:10Z</time>
      </trkpt>
      <trkpt lat="46.04275" lon="4.56842">
        <ele>447.2</ele>
        <time>2022-06-26T04:48:11Z</time>
      </trkpt>
      <trkpt lat="46.04273" lon="4.56841">
        <ele>447.4</ele>
        <time>2022-06-26T04:48:12Z</time>
      </trkpt>
      <trkpt lat="46.04271" lon="4.5684">
        <ele>447.8</ele>
        <time>2022-06-26T04:48:13Z</time>
      </trkpt>
      <trkpt lat="46.04269" lon="4.56839">
        <ele>448</ele>
        <time>2022-06-26T04:48:14Z</time>
      </trkpt>
      <trkpt lat="46.04267" lon="4.56838">
        <ele>448</ele>
        <time>2022-06-26T04:48:15Z</time>
      </trkpt>
      <trkpt lat="46.04265" lon="4.56838">
        <ele>448.2</ele>
        <time>2022-06-26T04:48:16Z</time>
      </trkpt>
      <trkpt lat="46.04263" lon="4.56838">
        <ele>448.2</ele>
        <time>2022-06-26T04:48:17Z</time>
      </trkpt>
      <trkpt lat="46.04261" lon="4.56837">
        <ele>448.4</ele>
        <time>2022-06-26T04:48:18Z</time>
      </trkpt>
      <trkpt lat="46.04258" lon="4.56837">
        <ele>448.4</ele>
        <time>2022-06-26T04:48:19Z</time>
      </trkpt>
      <trkpt lat="46.04256" lon="4.56838">
        <ele>448.8</ele>
        <time>2022-06-26T04:48:20Z</time>
      </trkpt>
      <trkpt lat="46.04254" lon="4.56839">
        <ele>448.8</ele>
        <time>2022-06-26T04:48:21Z</time>
      </trkpt>
      <trkpt lat="46.04252" lon="4.56839">
        <ele>448.8</ele>
        <time>2022-06-26T04:48:22Z</time>
      </trkpt>
      <trkpt lat="46.0425" lon="4.5684">
        <ele>449.2</ele>
        <time>2022-06-26T04:48:23Z</time>
      </trkpt>
      <trkpt lat="46.04248" lon="4.56841">
        <ele>449.4</ele>
        <time>2022-06-26T04:48:24Z</time>
      </trkpt>
      <trkpt lat="46.04246" lon="4.56842">
        <ele>449.4</ele>
        <time>2022-06-26T04:48:25Z</time>
      </trkpt>
      <trkpt lat="46.04244" lon="4.56843">
        <ele>449.6</ele>
        <time>2022-06-26T04:48:26Z</time>
      </trkpt>
      <trkpt lat="46.04241" lon="4.56844">
        <ele>449.6</ele>
        <time>2022-06-26T04:48:27Z</time>
      </trkpt>
      <trkpt lat="46.04239" lon="4.56846">
        <ele>450</ele>
        <time>2022-06-26T04:48:28Z</time>
      </trkpt>
      <trkpt lat="46.04237" lon="4.56848">
        <ele>450</ele>
        <time>2022-06-26T04:48:29Z</time>
      </trkpt>
      <trkpt lat="46.04235" lon="4.5685">
        <ele>450</ele>
        <time>2022-06-26T04:48:30Z</time>
      </trkpt>
      <trkpt lat="46.04233" lon="4.56852">
        <ele>450.2</ele>
        <time>2022-06-26T04:48:31Z</time>
      </trkpt>
      <trkpt lat="46.04231" lon="4.56855">
        <ele>450.2</ele>
        <time>2022-06-26T04:48:32Z</time>
      </trkpt>
      <trkpt lat="46.04229" lon="4.56857">
        <ele>450.2</ele>
        <time>2022-06-26T04:48:33Z</time>
      </trkpt>
      <trkpt lat="46.04227" lon="4.56859">
        <ele>450.6</ele>
        <time>2022-06-26T04:48:34Z</time>
      </trkpt>
      <trkpt lat="46.04225" lon="4.56861">
        <ele>450.6</ele>
        <time>2022-06-26T04:48:35Z</time>
      </trkpt>
      <trkpt lat="46.04223" lon="4.56863">
        <ele>450.8</ele>
        <time>2022-06-26T04:48:36Z</time>
      </trkpt>
      <trkpt lat="46.04221" lon="4.56865">
        <ele>450.8</ele>
        <time>2022-06-26T04:48:37Z</time>
      </trkpt>
      <trkpt lat="46.04219" lon="4.56867">
        <ele>451</ele>
        <time>2022-06-26T04:48:38Z</time>
      </trkpt>
      <trkpt lat="46.04217" lon="4.56869">
        <ele>451</ele>
        <time>2022-06-26T04:48:39Z</time>
      </trkpt>
      <trkpt lat="46.04215" lon="4.5687">
        <ele>451</ele>
        <time>2022-06-26T04:48:40Z</time>
      </trkpt>
      <trkpt lat="46.04213" lon="4.56871">
        <ele>451.2</ele>
        <time>2022-06-26T04:48:41Z</time>
      </trkpt>
      <trkpt lat="46.04211" lon="4.56871">
        <ele>451.2</ele>
        <time>2022-06-26T04:48:42Z</time>
      </trkpt>
      <trkpt lat="46.04209" lon="4.56872">
        <ele>451.4</ele>
        <time>2022-06-26T04:48:43Z</time>
      </trkpt>
      <trkpt lat="46.04207" lon="4.56873">
        <ele>451.4</ele>
        <time>2022-06-26T04:48:44Z</time>
      </trkpt>
      <trkpt lat="46.04205" lon="4.56873">
        <ele>451.6</ele>
        <time>2022-06-26T04:48:45Z</time>
      </trkpt>
      <trkpt lat="46.04203" lon="4.56873">
        <ele>451.6</ele>
        <time>2022-06-26T04:48:46Z</time>
      </trkpt>
      <trkpt lat="46.04201" lon="4.56873">
        <ele>452</ele>
        <time>2022-06-26T04:48:47Z</time>
      </trkpt>
      <trkpt lat="46.04198" lon="4.56872">
        <ele>452</ele>
        <time>2022-06-26T04:48:48Z</time>
      </trkpt>
      <trkpt lat="46.04195" lon="4.56871">
        <ele>452.4</ele>
        <time>2022-06-26T04:48:50Z</time>
      </trkpt>
      <trkpt lat="46.04193" lon="4.5687">
        <ele>452.6</ele>
        <time>2022-06-26T04:48:51Z</time>
      </trkpt>
      <trkpt lat="46.0419" lon="4.56869">
        <ele>452.6</ele>
        <time>2022-06-26T04:48:52Z</time>
      </trkpt>
      <trkpt lat="46.04188" lon="4.56868">
        <ele>453</ele>
        <time>2022-06-26T04:48:53Z</time>
      </trkpt>
      <trkpt lat="46.04186" lon="4.56867">
        <ele>453.2</ele>
        <time>2022-06-26T04:48:54Z</time>
      </trkpt>
      <trkpt lat="46.04184" lon="4.56865">
        <ele>453.4</ele>
        <time>2022-06-26T04:48:55Z</time>
      </trkpt>
      <trkpt lat="46.04182" lon="4.56864">
        <ele>453.4</ele>
        <time>2022-06-26T04:48:56Z</time>
      </trkpt>
      <trkpt lat="46.0418" lon="4.56862">
        <ele>453.8</ele>
        <time>2022-06-26T04:48:57Z</time>
      </trkpt>
      <trkpt lat="46.04178" lon="4.56861">
        <ele>454</ele>
        <time>2022-06-26T04:48:58Z</time>
      </trkpt>
      <trkpt lat="46.04176" lon="4.56859">
        <ele>454</ele>
        <time>2022-06-26T04:48:59Z</time>
      </trkpt>
      <trkpt lat="46.04175" lon="4.56857">
        <ele>454.4</ele>
        <time>2022-06-26T04:49:00Z</time>
      </trkpt>
      <trkpt lat="46.04174" lon="4.56856">
        <ele>454.6</ele>
        <time>2022-06-26T04:49:01Z</time>
      </trkpt>
      <trkpt lat="46.04173" lon="4.56854">
        <ele>454.6</ele>
        <time>2022-06-26T04:49:02Z</time>
      </trkpt>
      <trkpt lat="46.04171" lon="4.56852">
        <ele>455</ele>
        <time>2022-06-26T04:49:03Z</time>
      </trkpt>
      <trkpt lat="46.0417" lon="4.5685">
        <ele>455</ele>
        <time>2022-06-26T04:49:04Z</time>
      </trkpt>
      <trkpt lat="46.04169" lon="4.56848">
        <ele>455.4</ele>
        <time>2022-06-26T04:49:05Z</time>
      </trkpt>
      <trkpt lat="46.04168" lon="4.56846">
        <ele>455.6</ele>
        <time>2022-06-26T04:49:06Z</time>
      </trkpt>
      <trkpt lat="46.04167" lon="4.56844">
        <ele>455.6</ele>
        <time>2022-06-26T04:49:07Z</time>
      </trkpt>
      <trkpt lat="46.04165" lon="4.56841">
        <ele>455.6</ele>
        <time>2022-06-26T04:49:08Z</time>
      </trkpt>
      <trkpt lat="46.04163" lon="4.56839">
        <ele>456.2</ele>
        <time>2022-06-26T04:49:09Z</time>
      </trkpt>
      <trkpt lat="46.04162" lon="4.56836">
        <ele>456.4</ele>
        <time>2022-06-26T04:49:10Z</time>
      </trkpt>
      <trkpt lat="46.04161" lon="4.56834">
        <ele>456.6</ele>
        <time>2022-06-26T04:49:11Z</time>
      </trkpt>
      <trkpt lat="46.0416" lon="4.56832">
        <ele>456.8</ele>
        <time>2022-06-26T04:49:12Z</time>
      </trkpt>
      <trkpt lat="46.04159" lon="4.5683">
        <ele>456.8</ele>
        <time>2022-06-26T04:49:13Z</time>
      </trkpt>
      <trkpt lat="46.04158" lon="4.56827">
        <ele>457.2</ele>
        <time>2022-06-26T04:49:14Z</time>
      </trkpt>
      <trkpt lat="46.04157" lon="4.56824">
        <ele>457.2</ele>
        <time>2022-06-26T04:49:15Z</time>
      </trkpt>
      <trkpt lat="46.04156" lon="4.56821">
        <ele>457.6</ele>
        <time>2022-06-26T04:49:16Z</time>
      </trkpt>
      <trkpt lat="46.04155" lon="4.56818">
        <ele>457.6</ele>
        <time>2022-06-26T04:49:17Z</time>
      </trkpt>
      <trkpt lat="46.04154" lon="4.56814">
        <ele>458</ele>
        <time>2022-06-26T04:49:18Z</time>
      </trkpt>
      <trkpt lat="46.04153" lon="4.56811">
        <ele>458.4</ele>
        <time>2022-06-26T04:49:19Z</time>
      </trkpt>
      <trkpt lat="46.04152" lon="4.56808">
        <ele>458.6</ele>
        <time>2022-06-26T04:49:20Z</time>
      </trkpt>
      <trkpt lat="46.04151" lon="4.56805">
        <ele>458.8</ele>
        <time>2022-06-26T04:49:21Z</time>
      </trkpt>
      <trkpt lat="46.0415" lon="4.56802">
        <ele>458.8</ele>
        <time>2022-06-26T04:49:22Z</time>
      </trkpt>
      <trkpt lat="46.04148" lon="4.56799">
        <ele>459.2</ele>
        <time>2022-06-26T04:49:23Z</time>
      </trkpt>
      <trkpt lat="46.04147" lon="4.56796">
        <ele>459.2</ele>
        <time>2022-06-26T04:49:24Z</time>
      </trkpt>
      <trkpt lat="46.04145" lon="4.56794">
        <ele>459.6</ele>
        <time>2022-06-26T04:49:25Z</time>
      </trkpt>
      <trkpt lat="46.04143" lon="4.56792">
        <ele>459.6</ele>
        <time>2022-06-26T04:49:26Z</time>
      </trkpt>
      <trkpt lat="46.04142" lon="4.5679">
        <ele>460</ele>
        <time>2022-06-26T04:49:27Z</time>
      </trkpt>
      <trkpt lat="46.0414" lon="4.56788">
        <ele>460.2</ele>
        <time>2022-06-26T04:49:28Z</time>
      </trkpt>
      <trkpt lat="46.04138" lon="4.56787">
        <ele>460.6</ele>
        <time>2022-06-26T04:49:29Z</time>
      </trkpt>
      <trkpt lat="46.04136" lon="4.56785">
        <ele>460.6</ele>
        <time>2022-06-26T04:49:30Z</time>
      </trkpt>
      <trkpt lat="46.04134" lon="4.56783">
        <ele>460.8</ele>
        <time>2022-06-26T04:49:31Z</time>
      </trkpt>
      <trkpt lat="46.04132" lon="4.56781">
        <ele>460.8</ele>
        <time>2022-06-26T04:49:32Z</time>
      </trkpt>
      <trkpt lat="46.0413" lon="4.5678">
        <ele>461.2</ele>
        <time>2022-06-26T04:49:33Z</time>
      </trkpt>
      <trkpt lat="46.04127" lon="4.56779">
        <ele>461.2</ele>
        <time>2022-06-26T04:49:34Z</time>
      </trkpt>
      <trkpt lat="46.04125" lon="4.56777">
        <ele>461.4</ele>
        <time>2022-06-26T04:49:35Z</time>
      </trkpt>
      <trkpt lat="46.04123" lon="4.56777">
        <ele>461.8</ele>
        <time>2022-06-26T04:49:36Z</time>
      </trkpt>
      <trkpt lat="46.04121" lon="4.56776">
        <ele>461.8</ele>
        <time>2022-06-26T04:49:37Z</time>
      </trkpt>
      <trkpt lat="46.04118" lon="4.56775">
        <ele>462</ele>
        <time>2022-06-26T04:49:38Z</time>
      </trkpt>
      <trkpt lat="46.04116" lon="4.56775">
        <ele>462</ele>
        <time>2022-06-26T04:49:39Z</time>
      </trkpt>
      <trkpt lat="46.04114" lon="4.56775">
        <ele>462.4</ele>
        <time>2022-06-26T04:49:40Z</time>
      </trkpt>
      <trkpt lat="46.04112" lon="4.56774">
        <ele>462.4</ele>
        <time>2022-06-26T04:49:41Z</time>
      </trkpt>
      <trkpt lat="46.04111" lon="4.56774">
        <ele>462.8</ele>
        <time>2022-06-26T04:49:42Z</time>
      </trkpt>
      <trkpt lat="46.04109" lon="4.56774">
        <ele>463</ele>
        <time>2022-06-26T04:49:43Z</time>
      </trkpt>
      <trkpt lat="46.04107" lon="4.56773">
        <ele>463.2</ele>
        <time>2022-06-26T04:49:44Z</time>
      </trkpt>
      <trkpt lat="46.04105" lon="4.56773">
        <ele>463.2</ele>
        <time>2022-06-26T04:49:45Z</time>
      </trkpt>
      <trkpt lat="46.04103" lon="4.56773">
        <ele>463.6</ele>
        <time>2022-06-26T04:49:46Z</time>
      </trkpt>
      <trkpt lat="46.04101" lon="4.56773">
        <ele>463.6</ele>
        <time>2022-06-26T04:49:47Z</time>
      </trkpt>
      <trkpt lat="46.04098" lon="4.56774">
        <ele>464</ele>
        <time>2022-06-26T04:49:48Z</time>
      </trkpt>
      <trkpt lat="46.04096" lon="4.56774">
        <ele>464</ele>
        <time>2022-06-26T04:49:49Z</time>
      </trkpt>
      <trkpt lat="46.04094" lon="4.56775">
        <ele>464.2</ele>
        <time>2022-06-26T04:49:50Z</time>
      </trkpt>
      <trkpt lat="46.04092" lon="4.56775">
        <ele>464.2</ele>
        <time>2022-06-26T04:49:51Z</time>
      </trkpt>
      <trkpt lat="46.04091" lon="4.56775">
        <ele>464.6</ele>
        <time>2022-06-26T04:49:52Z</time>
      </trkpt>
      <trkpt lat="46.04089" lon="4.56774">
        <ele>464.6</ele>
        <time>2022-06-26T04:49:53Z</time>
      </trkpt>
      <trkpt lat="46.04087" lon="4.56775">
        <ele>465</ele>
        <time>2022-06-26T04:49:54Z</time>
      </trkpt>
      <trkpt lat="46.04085" lon="4.56775">
        <ele>465</ele>
        <time>2022-06-26T04:49:55Z</time>
      </trkpt>
      <trkpt lat="46.04084" lon="4.56775">
        <ele>465.2</ele>
        <time>2022-06-26T04:49:56Z</time>
      </trkpt>
      <trkpt lat="46.04082" lon="4.56775">
        <ele>465.2</ele>
        <time>2022-06-26T04:49:57Z</time>
      </trkpt>
      <trkpt lat="46.0408" lon="4.56776">
        <ele>465.4</ele>
        <time>2022-06-26T04:49:58Z</time>
      </trkpt>
      <trkpt lat="46.04079" lon="4.56776">
        <ele>465.4</ele>
        <time>2022-06-26T04:49:59Z</time>
      </trkpt>
      <trkpt lat="46.04077" lon="4.56777">
        <ele>465.8</ele>
        <time>2022-06-26T04:50:00Z</time>
      </trkpt>
      <trkpt lat="46.04075" lon="4.56778">
        <ele>465.8</ele>
        <time>2022-06-26T04:50:01Z</time>
      </trkpt>
      <trkpt lat="46.04074" lon="4.56779">
        <ele>466.2</ele>
        <time>2022-06-26T04:50:02Z</time>
      </trkpt>
      <trkpt lat="46.04072" lon="4.5678">
        <ele>466.4</ele>
        <time>2022-06-26T04:50:03Z</time>
      </trkpt>
      <trkpt lat="46.0407" lon="4.56781">
        <ele>466.8</ele>
        <time>2022-06-26T04:50:04Z</time>
      </trkpt>
      <trkpt lat="46.04068" lon="4.56782">
        <ele>466.8</ele>
        <time>2022-06-26T04:50:05Z</time>
      </trkpt>
      <trkpt lat="46.04066" lon="4.56784">
        <ele>467</ele>
        <time>2022-06-26T04:50:06Z</time>
      </trkpt>
      <trkpt lat="46.04065" lon="4.56786">
        <ele>467.4</ele>
        <time>2022-06-26T04:50:07Z</time>
      </trkpt>
      <trkpt lat="46.04063" lon="4.56788">
        <ele>467.4</ele>
        <time>2022-06-26T04:50:08Z</time>
      </trkpt>
      <trkpt lat="46.04062" lon="4.56789">
        <ele>467.6</ele>
        <time>2022-06-26T04:50:09Z</time>
      </trkpt>
      <trkpt lat="46.0406" lon="4.56791">
        <ele>467.6</ele>
        <time>2022-06-26T04:50:10Z</time>
      </trkpt>
      <trkpt lat="46.04059" lon="4.56792">
        <ele>468</ele>
        <time>2022-06-26T04:50:11Z</time>
      </trkpt>
      <trkpt lat="46.04057" lon="4.56794">
        <ele>468</ele>
        <time>2022-06-26T04:50:12Z</time>
      </trkpt>
      <trkpt lat="46.04055" lon="4.56796">
        <ele>468.4</ele>
        <time>2022-06-26T04:50:13Z</time>
      </trkpt>
      <trkpt lat="46.04054" lon="4.56798">
        <ele>468.6</ele>
        <time>2022-06-26T04:50:14Z</time>
      </trkpt>
      <trkpt lat="46.04053" lon="4.568">
        <ele>468.6</ele>
        <time>2022-06-26T04:50:15Z</time>
      </trkpt>
      <trkpt lat="46.04051" lon="4.56802">
        <ele>468.8</ele>
        <time>2022-06-26T04:50:16Z</time>
      </trkpt>
      <trkpt lat="46.0405" lon="4.56804">
        <ele>468.8</ele>
        <time>2022-06-26T04:50:17Z</time>
      </trkpt>
      <trkpt lat="46.04048" lon="4.56806">
        <ele>469.2</ele>
        <time>2022-06-26T04:50:18Z</time>
      </trkpt>
      <trkpt lat="46.04047" lon="4.56808">
        <ele>469.2</ele>
        <time>2022-06-26T04:50:19Z</time>
      </trkpt>
      <trkpt lat="46.04046" lon="4.56809">
        <ele>469.6</ele>
        <time>2022-06-26T04:50:20Z</time>
      </trkpt>
      <trkpt lat="46.04044" lon="4.56811">
        <ele>469.6</ele>
        <time>2022-06-26T04:50:21Z</time>
      </trkpt>
      <trkpt lat="46.04043" lon="4.56812">
        <ele>470</ele>
        <time>2022-06-26T04:50:22Z</time>
      </trkpt>
      <trkpt lat="46.04042" lon="4.56814">
        <ele>470.2</ele>
        <time>2022-06-26T04:50:23Z</time>
      </trkpt>
      <trkpt lat="46.04041" lon="4.56816">
        <ele>470.2</ele>
        <time>2022-06-26T04:50:24Z</time>
      </trkpt>
      <trkpt lat="46.04039" lon="4.56818">
        <ele>470.6</ele>
        <time>2022-06-26T04:50:25Z</time>
      </trkpt>
      <trkpt lat="46.04038" lon="4.56819">
        <ele>470.6</ele>
        <time>2022-06-26T04:50:26Z</time>
      </trkpt>
      <trkpt lat="46.04037" lon="4.56821">
        <ele>470.8</ele>
        <time>2022-06-26T04:50:27Z</time>
      </trkpt>
      <trkpt lat="46.04036" lon="4.56822">
        <ele>470.8</ele>
        <time>2022-06-26T04:50:28Z</time>
      </trkpt>
      <trkpt lat="46.04035" lon="4.56823">
        <ele>471.2</ele>
        <time>2022-06-26T04:50:29Z</time>
      </trkpt>
      <trkpt lat="46.04033" lon="4.56825">
        <ele>471.2</ele>
        <time>2022-06-26T04:50:30Z</time>
      </trkpt>
      <trkpt lat="46.04032" lon="4.56826">
        <ele>471.6</ele>
        <time>2022-06-26T04:50:31Z</time>
      </trkpt>
      <trkpt lat="46.04031" lon="4.56827">
        <ele>471.6</ele>
        <time>2022-06-26T04:50:32Z</time>
      </trkpt>
      <trkpt lat="46.04029" lon="4.56829">
        <ele>472</ele>
        <time>2022-06-26T04:50:33Z</time>
      </trkpt>
      <trkpt lat="46.04028" lon="4.56831">
        <ele>472</ele>
        <time>2022-06-26T04:50:34Z</time>
      </trkpt>
      <trkpt lat="46.04026" lon="4.56832">
        <ele>472.2</ele>
        <time>2022-06-26T04:50:35Z</time>
      </trkpt>
      <trkpt lat="46.04025" lon="4.56833">
        <ele>472.4</ele>
        <time>2022-06-26T04:50:36Z</time>
      </trkpt>
      <trkpt lat="46.04023" lon="4.56834">
        <ele>472.4</ele>
        <time>2022-06-26T04:50:37Z</time>
      </trkpt>
      <trkpt lat="46.04021" lon="4.56835">
        <ele>472.4</ele>
        <time>2022-06-26T04:50:38Z</time>
      </trkpt>
      <trkpt lat="46.0402" lon="4.56836">
        <ele>472.8</ele>
        <time>2022-06-26T04:50:39Z</time>
      </trkpt>
      <trkpt lat="46.04018" lon="4.56837">
        <ele>473</ele>
        <time>2022-06-26T04:50:41Z</time>
      </trkpt>
      <trkpt lat="46.04016" lon="4.56837">
        <ele>473.2</ele>
        <time>2022-06-26T04:50:42Z</time>
      </trkpt>
      <trkpt lat="46.04014" lon="4.56838">
        <ele>473.2</ele>
        <time>2022-06-26T04:50:43Z</time>
      </trkpt>
      <trkpt lat="46.04013" lon="4.5684">
        <ele>473.6</ele>
        <time>2022-06-26T04:50:44Z</time>
      </trkpt>
      <trkpt lat="46.04011" lon="4.5684">
        <ele>473.6</ele>
        <time>2022-06-26T04:50:45Z</time>
      </trkpt>
      <trkpt lat="46.0401" lon="4.56841">
        <ele>473.8</ele>
        <time>2022-06-26T04:50:46Z</time>
      </trkpt>
      <trkpt lat="46.04008" lon="4.56842">
        <ele>473.8</ele>
        <time>2022-06-26T04:50:47Z</time>
      </trkpt>
      <trkpt lat="46.04006" lon="4.56842">
        <ele>474.2</ele>
        <time>2022-06-26T04:50:48Z</time>
      </trkpt>
      <trkpt lat="46.04005" lon="4.56843">
        <ele>474.2</ele>
        <time>2022-06-26T04:50:49Z</time>
      </trkpt>
      <trkpt lat="46.04003" lon="4.56843">
        <ele>474.6</ele>
        <time>2022-06-26T04:50:50Z</time>
      </trkpt>
      <trkpt lat="46.04001" lon="4.56844">
        <ele>474.6</ele>
        <time>2022-06-26T04:50:51Z</time>
      </trkpt>
      <trkpt lat="46.04" lon="4.56845">
        <ele>474.8</ele>
        <time>2022-06-26T04:50:52Z</time>
      </trkpt>
      <trkpt lat="46.03998" lon="4.56846">
        <ele>475</ele>
        <time>2022-06-26T04:50:53Z</time>
      </trkpt>
      <trkpt lat="46.03996" lon="4.56846">
        <ele>475.2</ele>
        <time>2022-06-26T04:50:54Z</time>
      </trkpt>
      <trkpt lat="46.03995" lon="4.56846">
        <ele>475.4</ele>
        <time>2022-06-26T04:50:55Z</time>
      </trkpt>
      <trkpt lat="46.03993" lon="4.56846">
        <ele>475.4</ele>
        <time>2022-06-26T04:50:56Z</time>
      </trkpt>
      <trkpt lat="46.03991" lon="4.56846">
        <ele>475.8</ele>
        <time>2022-06-26T04:50:57Z</time>
      </trkpt>
      <trkpt lat="46.03989" lon="4.56847">
        <ele>475.8</ele>
        <time>2022-06-26T04:50:58Z</time>
      </trkpt>
      <trkpt lat="46.03987" lon="4.56847">
        <ele>476.2</ele>
        <time>2022-06-26T04:50:59Z</time>
      </trkpt>
      <trkpt lat="46.03985" lon="4.56848">
        <ele>476.2</ele>
        <time>2022-06-26T04:51:00Z</time>
      </trkpt>
      <trkpt lat="46.03984" lon="4.56849">
        <ele>476.4</ele>
        <time>2022-06-26T04:51:01Z</time>
      </trkpt>
      <trkpt lat="46.03982" lon="4.56849">
        <ele>476.4</ele>
        <time>2022-06-26T04:51:02Z</time>
      </trkpt>
      <trkpt lat="46.0398" lon="4.5685">
        <ele>476.8</ele>
        <time>2022-06-26T04:51:03Z</time>
      </trkpt>
      <trkpt lat="46.03979" lon="4.5685">
        <ele>476.8</ele>
        <time>2022-06-26T04:51:04Z</time>
      </trkpt>
      <trkpt lat="46.03977" lon="4.5685">
        <ele>477</ele>
        <time>2022-06-26T04:51:05Z</time>
      </trkpt>
      <trkpt lat="46.03975" lon="4.56851">
        <ele>477.2</ele>
        <time>2022-06-26T04:51:06Z</time>
      </trkpt>
      <trkpt lat="46.03973" lon="4.56851">
        <ele>477.4</ele>
        <time>2022-06-26T04:51:07Z</time>
      </trkpt>
      <trkpt lat="46.03972" lon="4.56852">
        <ele>477.4</ele>
        <time>2022-06-26T04:51:08Z</time>
      </trkpt>
      <trkpt lat="46.0397" lon="4.56852">
        <ele>477.8</ele>
        <time>2022-06-26T04:51:09Z</time>
      </trkpt>
      <trkpt lat="46.03968" lon="4.56853">
        <ele>477.8</ele>
        <time>2022-06-26T04:51:10Z</time>
      </trkpt>
      <trkpt lat="46.03967" lon="4.56854">
        <ele>478.2</ele>
        <time>2022-06-26T04:51:11Z</time>
      </trkpt>
      <trkpt lat="46.03965" lon="4.56854">
        <ele>478.2</ele>
        <time>2022-06-26T04:51:12Z</time>
      </trkpt>
      <trkpt lat="46.03963" lon="4.56855">
        <ele>478.4</ele>
        <time>2022-06-26T04:51:13Z</time>
      </trkpt>
      <trkpt lat="46.03962" lon="4.56856">
        <ele>478.8</ele>
        <time>2022-06-26T04:51:14Z</time>
      </trkpt>
      <trkpt lat="46.0396" lon="4.56856">
        <ele>478.8</ele>
        <time>2022-06-26T04:51:15Z</time>
      </trkpt>
      <trkpt lat="46.03958" lon="4.56856">
        <ele>479</ele>
        <time>2022-06-26T04:51:16Z</time>
      </trkpt>
      <trkpt lat="46.03956" lon="4.56857">
        <ele>479</ele>
        <time>2022-06-26T04:51:17Z</time>
      </trkpt>
      <trkpt lat="46.03955" lon="4.56857">
        <ele>479.4</ele>
        <time>2022-06-26T04:51:18Z</time>
      </trkpt>
      <trkpt lat="46.03953" lon="4.56857">
        <ele>479.4</ele>
        <time>2022-06-26T04:51:19Z</time>
      </trkpt>
      <trkpt lat="46.03951" lon="4.56858">
        <ele>479.6</ele>
        <time>2022-06-26T04:51:20Z</time>
      </trkpt>
      <trkpt lat="46.03949" lon="4.56858">
        <ele>479.6</ele>
        <time>2022-06-26T04:51:21Z</time>
      </trkpt>
      <trkpt lat="46.03947" lon="4.56858">
        <ele>480</ele>
        <time>2022-06-26T04:51:22Z</time>
      </trkpt>
      <trkpt lat="46.03945" lon="4.56858">
        <ele>480</ele>
        <time>2022-06-26T04:51:23Z</time>
      </trkpt>
      <trkpt lat="46.03943" lon="4.56859">
        <ele>480.2</ele>
        <time>2022-06-26T04:51:24Z</time>
      </trkpt>
      <trkpt lat="46.03941" lon="4.5686">
        <ele>480.2</ele>
        <time>2022-06-26T04:51:25Z</time>
      </trkpt>
      <trkpt lat="46.03939" lon="4.5686">
        <ele>480.6</ele>
        <time>2022-06-26T04:51:26Z</time>
      </trkpt>
      <trkpt lat="46.03938" lon="4.56861">
        <ele>480.6</ele>
        <time>2022-06-26T04:51:27Z</time>
      </trkpt>
      <trkpt lat="46.03936" lon="4.56862">
        <ele>481</ele>
        <time>2022-06-26T04:51:28Z</time>
      </trkpt>
      <trkpt lat="46.03934" lon="4.56863">
        <ele>481.2</ele>
        <time>2022-06-26T04:51:29Z</time>
      </trkpt>
      <trkpt lat="46.03932" lon="4.56864">
        <ele>481.2</ele>
        <time>2022-06-26T04:51:30Z</time>
      </trkpt>
      <trkpt lat="46.0393" lon="4.56864">
        <ele>481.6</ele>
        <time>2022-06-26T04:51:31Z</time>
      </trkpt>
      <trkpt lat="46.03928" lon="4.56865">
        <ele>481.6</ele>
        <time>2022-06-26T04:51:32Z</time>
      </trkpt>
      <trkpt lat="46.03926" lon="4.56866">
        <ele>482</ele>
        <time>2022-06-26T04:51:33Z</time>
      </trkpt>
      <trkpt lat="46.03924" lon="4.56867">
        <ele>482.2</ele>
        <time>2022-06-26T04:51:34Z</time>
      </trkpt>
      <trkpt lat="46.03922" lon="4.56868">
        <ele>482.2</ele>
        <time>2022-06-26T04:51:35Z</time>
      </trkpt>
      <trkpt lat="46.0392" lon="4.56869">
        <ele>482.6</ele>
        <time>2022-06-26T04:51:36Z</time>
      </trkpt>
      <trkpt lat="46.03918" lon="4.5687">
        <ele>482.8</ele>
        <time>2022-06-26T04:51:37Z</time>
      </trkpt>
      <trkpt lat="46.03917" lon="4.56871">
        <ele>483.2</ele>
        <time>2022-06-26T04:51:38Z</time>
      </trkpt>
      <trkpt lat="46.03915" lon="4.56873">
        <ele>483.4</ele>
        <time>2022-06-26T04:51:39Z</time>
      </trkpt>
      <trkpt lat="46.03913" lon="4.56874">
        <ele>483.6</ele>
        <time>2022-06-26T04:51:40Z</time>
      </trkpt>
      <trkpt lat="46.03911" lon="4.56875">
        <ele>483.8</ele>
        <time>2022-06-26T04:51:41Z</time>
      </trkpt>
      <trkpt lat="46.0391" lon="4.56876">
        <ele>483.8</ele>
        <time>2022-06-26T04:51:42Z</time>
      </trkpt>
      <trkpt lat="46.03908" lon="4.56877">
        <ele>484.2</ele>
        <time>2022-06-26T04:51:43Z</time>
      </trkpt>
      <trkpt lat="46.03906" lon="4.56878">
        <ele>484.4</ele>
        <time>2022-06-26T04:51:44Z</time>
      </trkpt>
      <trkpt lat="46.03904" lon="4.5688">
        <ele>484.6</ele>
        <time>2022-06-26T04:51:45Z</time>
      </trkpt>
      <trkpt lat="46.03903" lon="4.56881">
        <ele>485</ele>
        <time>2022-06-26T04:51:46Z</time>
      </trkpt>
      <trkpt lat="46.03901" lon="4.56882">
        <ele>485</ele>
        <time>2022-06-26T04:51:47Z</time>
      </trkpt>
      <trkpt lat="46.03899" lon="4.56884">
        <ele>485.2</ele>
        <time>2022-06-26T04:51:48Z</time>
      </trkpt>
      <trkpt lat="46.03898" lon="4.56885">
        <ele>485.2</ele>
        <time>2022-06-26T04:51:49Z</time>
      </trkpt>
      <trkpt lat="46.03896" lon="4.56887">
        <ele>485.6</ele>
        <time>2022-06-26T04:51:50Z</time>
      </trkpt>
      <trkpt lat="46.03895" lon="4.56889">
        <ele>485.6</ele>
        <time>2022-06-26T04:51:51Z</time>
      </trkpt>
      <trkpt lat="46.03893" lon="4.5689">
        <ele>486</ele>
        <time>2022-06-26T04:51:52Z</time>
      </trkpt>
      <trkpt lat="46.03892" lon="4.56892">
        <ele>486</ele>
        <time>2022-06-26T04:51:53Z</time>
      </trkpt>
      <trkpt lat="46.0389" lon="4.56893">
        <ele>486.2</ele>
        <time>2022-06-26T04:51:54Z</time>
      </trkpt>
      <trkpt lat="46.03889" lon="4.56895">
        <ele>486.2</ele>
        <time>2022-06-26T04:51:55Z</time>
      </trkpt>
      <trkpt lat="46.03887" lon="4.56896">
        <ele>486.6</ele>
        <time>2022-06-26T04:51:56Z</time>
      </trkpt>
      <trkpt lat="46.03886" lon="4.56898">
        <ele>486.6</ele>
        <time>2022-06-26T04:51:57Z</time>
      </trkpt>
      <trkpt lat="46.03884" lon="4.56899">
        <ele>487</ele>
        <time>2022-06-26T04:51:58Z</time>
      </trkpt>
      <trkpt lat="46.03882" lon="4.569">
        <ele>487</ele>
        <time>2022-06-26T04:51:59Z</time>
      </trkpt>
      <trkpt lat="46.03881" lon="4.56902">
        <ele>487.2</ele>
        <time>2022-06-26T04:52:00Z</time>
      </trkpt>
      <trkpt lat="46.03879" lon="4.56903">
        <ele>487.2</ele>
        <time>2022-06-26T04:52:01Z</time>
      </trkpt>
      <trkpt lat="46.03877" lon="4.56905">
        <ele>487.6</ele>
        <time>2022-06-26T04:52:02Z</time>
      </trkpt>
      <trkpt lat="46.03876" lon="4.56907">
        <ele>487.8</ele>
        <time>2022-06-26T04:52:03Z</time>
      </trkpt>
      <trkpt lat="46.03874" lon="4.56908">
        <ele>487.8</ele>
        <time>2022-06-26T04:52:04Z</time>
      </trkpt>
      <trkpt lat="46.03872" lon="4.5691">
        <ele>488</ele>
        <time>2022-06-26T04:52:05Z</time>
      </trkpt>
      <trkpt lat="46.03871" lon="4.56912">
        <ele>488</ele>
        <time>2022-06-26T04:52:06Z</time>
      </trkpt>
      <trkpt lat="46.03869" lon="4.56914">
        <ele>488.4</ele>
        <time>2022-06-26T04:52:07Z</time>
      </trkpt>
      <trkpt lat="46.03867" lon="4.56916">
        <ele>488.4</ele>
        <time>2022-06-26T04:52:08Z</time>
      </trkpt>
      <trkpt lat="46.03866" lon="4.56918">
        <ele>488.8</ele>
        <time>2022-06-26T04:52:09Z</time>
      </trkpt>
      <trkpt lat="46.03864" lon="4.5692">
        <ele>488.8</ele>
        <time>2022-06-26T04:52:10Z</time>
      </trkpt>
      <trkpt lat="46.03862" lon="4.56921">
        <ele>489.2</ele>
        <time>2022-06-26T04:52:11Z</time>
      </trkpt>
      <trkpt lat="46.03861" lon="4.56923">
        <ele>489.2</ele>
        <time>2022-06-26T04:52:12Z</time>
      </trkpt>
      <trkpt lat="46.03859" lon="4.56925">
        <ele>489.6</ele>
        <time>2022-06-26T04:52:13Z</time>
      </trkpt>
      <trkpt lat="46.03858" lon="4.56927">
        <ele>489.6</ele>
        <time>2022-06-26T04:52:14Z</time>
      </trkpt>
      <trkpt lat="46.03856" lon="4.56928">
        <ele>490</ele>
        <time>2022-06-26T04:52:15Z</time>
      </trkpt>
      <trkpt lat="46.03854" lon="4.5693">
        <ele>490</ele>
        <time>2022-06-26T04:52:16Z</time>
      </trkpt>
      <trkpt lat="46.03852" lon="4.56931">
        <ele>490.2</ele>
        <time>2022-06-26T04:52:17Z</time>
      </trkpt>
      <trkpt lat="46.03851" lon="4.56932">
        <ele>490.2</ele>
        <time>2022-06-26T04:52:18Z</time>
      </trkpt>
      <trkpt lat="46.03849" lon="4.56933">
        <ele>490.6</ele>
        <time>2022-06-26T04:52:19Z</time>
      </trkpt>
      <trkpt lat="46.03847" lon="4.56934">
        <ele>490.6</ele>
        <time>2022-06-26T04:52:20Z</time>
      </trkpt>
      <trkpt lat="46.03845" lon="4.56935">
        <ele>490.8</ele>
        <time>2022-06-26T04:52:21Z</time>
      </trkpt>
      <trkpt lat="46.03843" lon="4.56936">
        <ele>491</ele>
        <time>2022-06-26T04:52:22Z</time>
      </trkpt>
      <trkpt lat="46.03841" lon="4.56938">
        <ele>491</ele>
        <time>2022-06-26T04:52:23Z</time>
      </trkpt>
      <trkpt lat="46.03839" lon="4.56939">
        <ele>491.4</ele>
        <time>2022-06-26T04:52:24Z</time>
      </trkpt>
      <trkpt lat="46.03837" lon="4.56939">
        <ele>491.4</ele>
        <time>2022-06-26T04:52:25Z</time>
      </trkpt>
      <trkpt lat="46.03835" lon="4.56941">
        <ele>491.8</ele>
        <time>2022-06-26T04:52:26Z</time>
      </trkpt>
      <trkpt lat="46.03834" lon="4.56942">
        <ele>491.8</ele>
        <time>2022-06-26T04:52:27Z</time>
      </trkpt>
      <trkpt lat="46.03832" lon="4.56943">
        <ele>492.2</ele>
        <time>2022-06-26T04:52:28Z</time>
      </trkpt>
      <trkpt lat="46.0383" lon="4.56944">
        <ele>492.2</ele>
        <time>2022-06-26T04:52:29Z</time>
      </trkpt>
      <trkpt lat="46.03829" lon="4.56945">
        <ele>492.4</ele>
        <time>2022-06-26T04:52:30Z</time>
      </trkpt>
      <trkpt lat="46.03827" lon="4.56946">
        <ele>492.4</ele>
        <time>2022-06-26T04:52:31Z</time>
      </trkpt>
      <trkpt lat="46.03825" lon="4.56946">
        <ele>492.6</ele>
        <time>2022-06-26T04:52:32Z</time>
      </trkpt>
      <trkpt lat="46.03823" lon="4.56947">
        <ele>492.6</ele>
        <time>2022-06-26T04:52:33Z</time>
      </trkpt>
      <trkpt lat="46.03822" lon="4.56947">
        <ele>493</ele>
        <time>2022-06-26T04:52:34Z</time>
      </trkpt>
      <trkpt lat="46.0382" lon="4.56947">
        <ele>493</ele>
        <time>2022-06-26T04:52:35Z</time>
      </trkpt>
      <trkpt lat="46.03818" lon="4.56947">
        <ele>493.2</ele>
        <time>2022-06-26T04:52:36Z</time>
      </trkpt>
      <trkpt lat="46.03816" lon="4.56947">
        <ele>493.2</ele>
        <time>2022-06-26T04:52:37Z</time>
      </trkpt>
      <trkpt lat="46.03814" lon="4.56948">
        <ele>493.6</ele>
        <time>2022-06-26T04:52:38Z</time>
      </trkpt>
      <trkpt lat="46.03812" lon="4.56949">
        <ele>493.6</ele>
        <time>2022-06-26T04:52:39Z</time>
      </trkpt>
      <trkpt lat="46.03811" lon="4.56949">
        <ele>493.8</ele>
        <time>2022-06-26T04:52:40Z</time>
      </trkpt>
      <trkpt lat="46.03809" lon="4.56949">
        <ele>494</ele>
        <time>2022-06-26T04:52:41Z</time>
      </trkpt>
      <trkpt lat="46.03807" lon="4.56949">
        <ele>494</ele>
        <time>2022-06-26T04:52:42Z</time>
      </trkpt>
      <trkpt lat="46.03805" lon="4.56949">
        <ele>494.4</ele>
        <time>2022-06-26T04:52:43Z</time>
      </trkpt>
      <trkpt lat="46.03803" lon="4.5695">
        <ele>494.4</ele>
        <time>2022-06-26T04:52:44Z</time>
      </trkpt>
      <trkpt lat="46.03801" lon="4.5695">
        <ele>494.6</ele>
        <time>2022-06-26T04:52:45Z</time>
      </trkpt>
      <trkpt lat="46.03799" lon="4.5695">
        <ele>494.6</ele>
        <time>2022-06-26T04:52:46Z</time>
      </trkpt>
      <trkpt lat="46.03797" lon="4.56951">
        <ele>495</ele>
        <time>2022-06-26T04:52:47Z</time>
      </trkpt>
      <trkpt lat="46.03795" lon="4.56951">
        <ele>495</ele>
        <time>2022-06-26T04:52:48Z</time>
      </trkpt>
      <trkpt lat="46.03793" lon="4.56951">
        <ele>495.4</ele>
        <time>2022-06-26T04:52:49Z</time>
      </trkpt>
      <trkpt lat="46.03792" lon="4.56952">
        <ele>495.4</ele>
        <time>2022-06-26T04:52:50Z</time>
      </trkpt>
      <trkpt lat="46.0379" lon="4.56952">
        <ele>495.6</ele>
        <time>2022-06-26T04:52:51Z</time>
      </trkpt>
      <trkpt lat="46.03788" lon="4.56952">
        <ele>495.6</ele>
        <time>2022-06-26T04:52:52Z</time>
      </trkpt>
      <trkpt lat="46.03786" lon="4.56952">
        <ele>496</ele>
        <time>2022-06-26T04:52:53Z</time>
      </trkpt>
      <trkpt lat="46.03784" lon="4.56952">
        <ele>496</ele>
        <time>2022-06-26T04:52:54Z</time>
      </trkpt>
      <trkpt lat="46.03782" lon="4.56952">
        <ele>496.2</ele>
        <time>2022-06-26T04:52:55Z</time>
      </trkpt>
      <trkpt lat="46.0378" lon="4.56953">
        <ele>496.2</ele>
        <time>2022-06-26T04:52:56Z</time>
      </trkpt>
      <trkpt lat="46.03778" lon="4.56953">
        <ele>496.6</ele>
        <time>2022-06-26T04:52:57Z</time>
      </trkpt>
      <trkpt lat="46.03776" lon="4.56953">
        <ele>496.6</ele>
        <time>2022-06-26T04:52:58Z</time>
      </trkpt>
      <trkpt lat="46.03774" lon="4.56953">
        <ele>496.8</ele>
        <time>2022-06-26T04:52:59Z</time>
      </trkpt>
      <trkpt lat="46.03772" lon="4.56953">
        <ele>496.8</ele>
        <time>2022-06-26T04:53:00Z</time>
      </trkpt>
      <trkpt lat="46.0377" lon="4.56954">
        <ele>497.2</ele>
        <time>2022-06-26T04:53:01Z</time>
      </trkpt>
      <trkpt lat="46.03768" lon="4.56955">
        <ele>497.2</ele>
        <time>2022-06-26T04:53:02Z</time>
      </trkpt>
      <trkpt lat="46.03767" lon="4.56955">
        <ele>497.6</ele>
        <time>2022-06-26T04:53:03Z</time>
      </trkpt>
      <trkpt lat="46.03765" lon="4.56956">
        <ele>497.6</ele>
        <time>2022-06-26T04:53:04Z</time>
      </trkpt>
      <trkpt lat="46.03763" lon="4.56957">
        <ele>497.8</ele>
        <time>2022-06-26T04:53:05Z</time>
      </trkpt>
      <trkpt lat="46.03761" lon="4.56957">
        <ele>497.8</ele>
        <time>2022-06-26T04:53:06Z</time>
      </trkpt>
      <trkpt lat="46.03759" lon="4.56957">
        <ele>498.2</ele>
        <time>2022-06-26T04:53:07Z</time>
      </trkpt>
      <trkpt lat="46.03757" lon="4.56958">
        <ele>498.2</ele>
        <time>2022-06-26T04:53:08Z</time>
      </trkpt>
      <trkpt lat="46.03755" lon="4.56959">
        <ele>498.4</ele>
        <time>2022-06-26T04:53:09Z</time>
      </trkpt>
      <trkpt lat="46.03753" lon="4.56959">
        <ele>498.4</ele>
        <time>2022-06-26T04:53:10Z</time>
      </trkpt>
      <trkpt lat="46.03752" lon="4.56959">
        <ele>498.6</ele>
        <time>2022-06-26T04:53:11Z</time>
      </trkpt>
      <trkpt lat="46.0375" lon="4.56959">
        <ele>498.6</ele>
        <time>2022-06-26T04:53:12Z</time>
      </trkpt>
      <trkpt lat="46.03748" lon="4.5696">
        <ele>499</ele>
        <time>2022-06-26T04:53:13Z</time>
      </trkpt>
      <trkpt lat="46.03746" lon="4.5696">
        <ele>499</ele>
        <time>2022-06-26T04:53:14Z</time>
      </trkpt>
      <trkpt lat="46.03744" lon="4.5696">
        <ele>499.2</ele>
        <time>2022-06-26T04:53:15Z</time>
      </trkpt>
      <trkpt lat="46.03742" lon="4.56961">
        <ele>499.2</ele>
        <time>2022-06-26T04:53:16Z</time>
      </trkpt>
      <trkpt lat="46.0374" lon="4.56961">
        <ele>499.6</ele>
        <time>2022-06-26T04:53:17Z</time>
      </trkpt>
      <trkpt lat="46.03739" lon="4.56962">
        <ele>499.8</ele>
        <time>2022-06-26T04:53:18Z</time>
      </trkpt>
      <trkpt lat="46.03737" lon="4.56962">
        <ele>499.8</ele>
        <time>2022-06-26T04:53:19Z</time>
      </trkpt>
      <trkpt lat="46.03735" lon="4.56962">
        <ele>500</ele>
        <time>2022-06-26T04:53:20Z</time>
      </trkpt>
      <trkpt lat="46.03733" lon="4.56963">
        <ele>500</ele>
        <time>2022-06-26T04:53:21Z</time>
      </trkpt>
      <trkpt lat="46.03732" lon="4.56963">
        <ele>500.2</ele>
        <time>2022-06-26T04:53:22Z</time>
      </trkpt>
      <trkpt lat="46.0373" lon="4.56963">
        <ele>500.2</ele>
        <time>2022-06-26T04:53:23Z</time>
      </trkpt>
      <trkpt lat="46.03728" lon="4.56964">
        <ele>500.6</ele>
        <time>2022-06-26T04:53:24Z</time>
      </trkpt>
      <trkpt lat="46.03726" lon="4.56965">
        <ele>500.6</ele>
        <time>2022-06-26T04:53:25Z</time>
      </trkpt>
      <trkpt lat="46.03724" lon="4.56966">
        <ele>501</ele>
        <time>2022-06-26T04:53:26Z</time>
      </trkpt>
      <trkpt lat="46.03722" lon="4.56966">
        <ele>501</ele>
        <time>2022-06-26T04:53:27Z</time>
      </trkpt>
      <trkpt lat="46.0372" lon="4.56967">
        <ele>501.4</ele>
        <time>2022-06-26T04:53:28Z</time>
      </trkpt>
      <trkpt lat="46.03718" lon="4.56967">
        <ele>501.4</ele>
        <time>2022-06-26T04:53:29Z</time>
      </trkpt>
      <trkpt lat="46.03716" lon="4.56967">
        <ele>501.6</ele>
        <time>2022-06-26T04:53:30Z</time>
      </trkpt>
      <trkpt lat="46.03714" lon="4.56968">
        <ele>501.6</ele>
        <time>2022-06-26T04:53:31Z</time>
      </trkpt>
      <trkpt lat="46.03712" lon="4.56968">
        <ele>502</ele>
        <time>2022-06-26T04:53:32Z</time>
      </trkpt>
      <trkpt lat="46.0371" lon="4.56969">
        <ele>502.4</ele>
        <time>2022-06-26T04:53:33Z</time>
      </trkpt>
      <trkpt lat="46.03709" lon="4.5697">
        <ele>502.4</ele>
        <time>2022-06-26T04:53:34Z</time>
      </trkpt>
      <trkpt lat="46.03707" lon="4.5697">
        <ele>502.6</ele>
        <time>2022-06-26T04:53:35Z</time>
      </trkpt>
      <trkpt lat="46.03705" lon="4.5697">
        <ele>502.6</ele>
        <time>2022-06-26T04:53:36Z</time>
      </trkpt>
      <trkpt lat="46.03703" lon="4.56971">
        <ele>502.8</ele>
        <time>2022-06-26T04:53:37Z</time>
      </trkpt>
      <trkpt lat="46.03701" lon="4.56971">
        <ele>502.8</ele>
        <time>2022-06-26T04:53:38Z</time>
      </trkpt>
      <trkpt lat="46.03699" lon="4.56972">
        <ele>503.2</ele>
        <time>2022-06-26T04:53:39Z</time>
      </trkpt>
      <trkpt lat="46.03696" lon="4.56972">
        <ele>503.2</ele>
        <time>2022-06-26T04:53:40Z</time>
      </trkpt>
      <trkpt lat="46.03694" lon="4.56973">
        <ele>503.6</ele>
        <time>2022-06-26T04:53:41Z</time>
      </trkpt>
      <trkpt lat="46.03692" lon="4.56973">
        <ele>503.8</ele>
        <time>2022-06-26T04:53:42Z</time>
      </trkpt>
      <trkpt lat="46.03691" lon="4.56974">
        <ele>503.8</ele>
        <time>2022-06-26T04:53:43Z</time>
      </trkpt>
      <trkpt lat="46.03689" lon="4.56975">
        <ele>504</ele>
        <time>2022-06-26T04:53:44Z</time>
      </trkpt>
      <trkpt lat="46.03687" lon="4.56976">
        <ele>504</ele>
        <time>2022-06-26T04:53:45Z</time>
      </trkpt>
      <trkpt lat="46.03685" lon="4.56976">
        <ele>504.4</ele>
        <time>2022-06-26T04:53:46Z</time>
      </trkpt>
      <trkpt lat="46.03683" lon="4.56977">
        <ele>504.4</ele>
        <time>2022-06-26T04:53:47Z</time>
      </trkpt>
      <trkpt lat="46.03681" lon="4.56978">
        <ele>504.8</ele>
        <time>2022-06-26T04:53:48Z</time>
      </trkpt>
      <trkpt lat="46.03679" lon="4.56978">
        <ele>505</ele>
        <time>2022-06-26T04:53:49Z</time>
      </trkpt>
      <trkpt lat="46.03677" lon="4.56978">
        <ele>505</ele>
        <time>2022-06-26T04:53:50Z</time>
      </trkpt>
      <trkpt lat="46.03676" lon="4.56979">
        <ele>505.4</ele>
        <time>2022-06-26T04:53:51Z</time>
      </trkpt>
      <trkpt lat="46.03674" lon="4.56979">
        <ele>505.4</ele>
        <time>2022-06-26T04:53:52Z</time>
      </trkpt>
      <trkpt lat="46.03672" lon="4.56979">
        <ele>505.8</ele>
        <time>2022-06-26T04:53:53Z</time>
      </trkpt>
      <trkpt lat="46.0367" lon="4.56979">
        <ele>505.8</ele>
        <time>2022-06-26T04:53:54Z</time>
      </trkpt>
      <trkpt lat="46.03668" lon="4.5698">
        <ele>506.2</ele>
        <time>2022-06-26T04:53:55Z</time>
      </trkpt>
      <trkpt lat="46.03666" lon="4.5698">
        <ele>506.2</ele>
        <time>2022-06-26T04:53:56Z</time>
      </trkpt>
      <trkpt lat="46.03664" lon="4.5698">
        <ele>506.4</ele>
        <time>2022-06-26T04:53:57Z</time>
      </trkpt>
      <trkpt lat="46.03663" lon="4.56981">
        <ele>506.4</ele>
        <time>2022-06-26T04:53:58Z</time>
      </trkpt>
      <trkpt lat="46.03661" lon="4.56981">
        <ele>506.6</ele>
        <time>2022-06-26T04:53:59Z</time>
      </trkpt>
      <trkpt lat="46.03659" lon="4.56981">
        <ele>506.6</ele>
        <time>2022-06-26T04:54:00Z</time>
      </trkpt>
      <trkpt lat="46.03657" lon="4.56981">
        <ele>507</ele>
        <time>2022-06-26T04:54:01Z</time>
      </trkpt>
      <trkpt lat="46.03655" lon="4.56981">
        <ele>507</ele>
        <time>2022-06-26T04:54:02Z</time>
      </trkpt>
      <trkpt lat="46.03653" lon="4.56982">
        <ele>507.2</ele>
        <time>2022-06-26T04:54:03Z</time>
      </trkpt>
      <trkpt lat="46.03652" lon="4.56982">
        <ele>507.2</ele>
        <time>2022-06-26T04:54:04Z</time>
      </trkpt>
      <trkpt lat="46.0365" lon="4.56983">
        <ele>507.6</ele>
        <time>2022-06-26T04:54:05Z</time>
      </trkpt>
      <trkpt lat="46.03648" lon="4.56983">
        <ele>507.6</ele>
        <time>2022-06-26T04:54:06Z</time>
      </trkpt>
      <trkpt lat="46.03646" lon="4.56982">
        <ele>507.8</ele>
        <time>2022-06-26T04:54:07Z</time>
      </trkpt>
      <trkpt lat="46.03644" lon="4.56982">
        <ele>507.8</ele>
        <time>2022-06-26T04:54:08Z</time>
      </trkpt>
      <trkpt lat="46.03643" lon="4.56982">
        <ele>508.2</ele>
        <time>2022-06-26T04:54:09Z</time>
      </trkpt>
      <trkpt lat="46.03641" lon="4.56982">
        <ele>508.2</ele>
        <time>2022-06-26T04:54:10Z</time>
      </trkpt>
      <trkpt lat="46.03639" lon="4.56983">
        <ele>508.6</ele>
        <time>2022-06-26T04:54:11Z</time>
      </trkpt>
      <trkpt lat="46.03638" lon="4.56983">
        <ele>508.6</ele>
        <time>2022-06-26T04:54:12Z</time>
      </trkpt>
      <trkpt lat="46.03636" lon="4.56983">
        <ele>508.8</ele>
        <time>2022-06-26T04:54:13Z</time>
      </trkpt>
      <trkpt lat="46.03634" lon="4.56983">
        <ele>508.8</ele>
        <time>2022-06-26T04:54:14Z</time>
      </trkpt>
      <trkpt lat="46.03632" lon="4.56983">
        <ele>509</ele>
        <time>2022-06-26T04:54:15Z</time>
      </trkpt>
      <trkpt lat="46.0363" lon="4.56983">
        <ele>509</ele>
        <time>2022-06-26T04:54:16Z</time>
      </trkpt>
      <trkpt lat="46.03629" lon="4.56983">
        <ele>509.4</ele>
        <time>2022-06-26T04:54:17Z</time>
      </trkpt>
      <trkpt lat="46.03627" lon="4.56983">
        <ele>509.6</ele>
        <time>2022-06-26T04:54:18Z</time>
      </trkpt>
      <trkpt lat="46.03625" lon="4.56982">
        <ele>509.8</ele>
        <time>2022-06-26T04:54:19Z</time>
      </trkpt>
      <trkpt lat="46.03623" lon="4.56982">
        <ele>509.8</ele>
        <time>2022-06-26T04:54:20Z</time>
      </trkpt>
      <trkpt lat="46.03622" lon="4.56982">
        <ele>510</ele>
        <time>2022-06-26T04:54:21Z</time>
      </trkpt>
      <trkpt lat="46.0362" lon="4.56983">
        <ele>510</ele>
        <time>2022-06-26T04:54:22Z</time>
      </trkpt>
      <trkpt lat="46.03618" lon="4.56983">
        <ele>510.4</ele>
        <time>2022-06-26T04:54:23Z</time>
      </trkpt>
      <trkpt lat="46.03616" lon="4.56983">
        <ele>510.4</ele>
        <time>2022-06-26T04:54:24Z</time>
      </trkpt>
      <trkpt lat="46.03614" lon="4.56983">
        <ele>510.6</ele>
        <time>2022-06-26T04:54:25Z</time>
      </trkpt>
      <trkpt lat="46.03613" lon="4.56983">
        <ele>510.8</ele>
        <time>2022-06-26T04:54:26Z</time>
      </trkpt>
      <trkpt lat="46.03611" lon="4.56983">
        <ele>511</ele>
        <time>2022-06-26T04:54:27Z</time>
      </trkpt>
      <trkpt lat="46.03609" lon="4.56983">
        <ele>511</ele>
        <time>2022-06-26T04:54:28Z</time>
      </trkpt>
      <trkpt lat="46.03608" lon="4.56983">
        <ele>511.4</ele>
        <time>2022-06-26T04:54:29Z</time>
      </trkpt>
      <trkpt lat="46.03606" lon="4.56983">
        <ele>511.4</ele>
        <time>2022-06-26T04:54:30Z</time>
      </trkpt>
      <trkpt lat="46.03604" lon="4.56983">
        <ele>511.6</ele>
        <time>2022-06-26T04:54:31Z</time>
      </trkpt>
      <trkpt lat="46.03602" lon="4.56983">
        <ele>511.6</ele>
        <time>2022-06-26T04:54:32Z</time>
      </trkpt>
      <trkpt lat="46.03601" lon="4.56983">
        <ele>512</ele>
        <time>2022-06-26T04:54:33Z</time>
      </trkpt>
      <trkpt lat="46.03599" lon="4.56983">
        <ele>512</ele>
        <time>2022-06-26T04:54:34Z</time>
      </trkpt>
      <trkpt lat="46.03597" lon="4.56983">
        <ele>512.4</ele>
        <time>2022-06-26T04:54:35Z</time>
      </trkpt>
      <trkpt lat="46.03595" lon="4.56983">
        <ele>512.4</ele>
        <time>2022-06-26T04:54:36Z</time>
      </trkpt>
      <trkpt lat="46.03593" lon="4.56983">
        <ele>512.8</ele>
        <time>2022-06-26T04:54:37Z</time>
      </trkpt>
      <trkpt lat="46.03592" lon="4.56983">
        <ele>513</ele>
        <time>2022-06-26T04:54:38Z</time>
      </trkpt>
      <trkpt lat="46.0359" lon="4.56983">
        <ele>513</ele>
        <time>2022-06-26T04:54:39Z</time>
      </trkpt>
      <trkpt lat="46.03588" lon="4.56983">
        <ele>513.4</ele>
        <time>2022-06-26T04:54:40Z</time>
      </trkpt>
      <trkpt lat="46.03587" lon="4.56984">
        <ele>513.6</ele>
        <time>2022-06-26T04:54:41Z</time>
      </trkpt>
      <trkpt lat="46.03585" lon="4.56984">
        <ele>513.6</ele>
        <time>2022-06-26T04:54:42Z</time>
      </trkpt>
      <trkpt lat="46.03584" lon="4.56984">
        <ele>514</ele>
        <time>2022-06-26T04:54:43Z</time>
      </trkpt>
      <trkpt lat="46.03582" lon="4.56985">
        <ele>514</ele>
        <time>2022-06-26T04:54:44Z</time>
      </trkpt>
      <trkpt lat="46.0358" lon="4.56985">
        <ele>514.2</ele>
        <time>2022-06-26T04:54:45Z</time>
      </trkpt>
      <trkpt lat="46.03578" lon="4.56985">
        <ele>514.2</ele>
        <time>2022-06-26T04:54:46Z</time>
      </trkpt>
      <trkpt lat="46.03577" lon="4.56985">
        <ele>514.4</ele>
        <time>2022-06-26T04:54:47Z</time>
      </trkpt>
      <trkpt lat="46.03575" lon="4.56985">
        <ele>514.4</ele>
        <time>2022-06-26T04:54:48Z</time>
      </trkpt>
      <trkpt lat="46.03573" lon="4.56985">
        <ele>514.8</ele>
        <time>2022-06-26T04:54:49Z</time>
      </trkpt>
      <trkpt lat="46.03571" lon="4.56985">
        <ele>514.8</ele>
        <time>2022-06-26T04:54:50Z</time>
      </trkpt>
      <trkpt lat="46.0357" lon="4.56985">
        <ele>515</ele>
        <time>2022-06-26T04:54:51Z</time>
      </trkpt>
      <trkpt lat="46.03568" lon="4.56986">
        <ele>515</ele>
        <time>2022-06-26T04:54:52Z</time>
      </trkpt>
      <trkpt lat="46.03566" lon="4.56987">
        <ele>515.4</ele>
        <time>2022-06-26T04:54:53Z</time>
      </trkpt>
      <trkpt lat="46.03564" lon="4.56987">
        <ele>515.6</ele>
        <time>2022-06-26T04:54:54Z</time>
      </trkpt>
      <trkpt lat="46.03562" lon="4.56988">
        <ele>515.8</ele>
        <time>2022-06-26T04:54:55Z</time>
      </trkpt>
      <trkpt lat="46.0356" lon="4.56988">
        <ele>515.8</ele>
        <time>2022-06-26T04:54:56Z</time>
      </trkpt>
      <trkpt lat="46.03559" lon="4.56989">
        <ele>516</ele>
        <time>2022-06-26T04:54:57Z</time>
      </trkpt>
      <trkpt lat="46.03557" lon="4.5699">
        <ele>516</ele>
        <time>2022-06-26T04:54:58Z</time>
      </trkpt>
      <trkpt lat="46.03555" lon="4.5699">
        <ele>516.4</ele>
        <time>2022-06-26T04:54:59Z</time>
      </trkpt>
      <trkpt lat="46.03553" lon="4.56991">
        <ele>516.6</ele>
        <time>2022-06-26T04:55:00Z</time>
      </trkpt>
      <trkpt lat="46.03551" lon="4.56991">
        <ele>516.6</ele>
        <time>2022-06-26T04:55:01Z</time>
      </trkpt>
      <trkpt lat="46.03549" lon="4.56991">
        <ele>517</ele>
        <time>2022-06-26T04:55:02Z</time>
      </trkpt>
      <trkpt lat="46.03548" lon="4.56992">
        <ele>517</ele>
        <time>2022-06-26T04:55:03Z</time>
      </trkpt>
      <trkpt lat="46.03546" lon="4.56993">
        <ele>517.4</ele>
        <time>2022-06-26T04:55:04Z</time>
      </trkpt>
      <trkpt lat="46.03544" lon="4.56995">
        <ele>517.4</ele>
        <time>2022-06-26T04:55:05Z</time>
      </trkpt>
      <trkpt lat="46.03542" lon="4.56996">
        <ele>517.6</ele>
        <time>2022-06-26T04:55:06Z</time>
      </trkpt>
      <trkpt lat="46.0354" lon="4.56997">
        <ele>517.6</ele>
        <time>2022-06-26T04:55:07Z</time>
      </trkpt>
      <trkpt lat="46.03538" lon="4.56998">
        <ele>517.8</ele>
        <time>2022-06-26T04:55:08Z</time>
      </trkpt>
      <trkpt lat="46.03536" lon="4.56999">
        <ele>517.8</ele>
        <time>2022-06-26T04:55:09Z</time>
      </trkpt>
      <trkpt lat="46.03534" lon="4.56999">
        <ele>518.2</ele>
        <time>2022-06-26T04:55:10Z</time>
      </trkpt>
      <trkpt lat="46.03532" lon="4.57">
        <ele>518.2</ele>
        <time>2022-06-26T04:55:11Z</time>
      </trkpt>
      <trkpt lat="46.0353" lon="4.57001">
        <ele>518.6</ele>
        <time>2022-06-26T04:55:12Z</time>
      </trkpt>
      <trkpt lat="46.03528" lon="4.57002">
        <ele>518.6</ele>
        <time>2022-06-26T04:55:13Z</time>
      </trkpt>
      <trkpt lat="46.03526" lon="4.57003">
        <ele>519</ele>
        <time>2022-06-26T04:55:14Z</time>
      </trkpt>
      <trkpt lat="46.03524" lon="4.57003">
        <ele>519</ele>
        <time>2022-06-26T04:55:15Z</time>
      </trkpt>
      <trkpt lat="46.03522" lon="4.57004">
        <ele>519.2</ele>
        <time>2022-06-26T04:55:16Z</time>
      </trkpt>
      <trkpt lat="46.0352" lon="4.57005">
        <ele>519.2</ele>
        <time>2022-06-26T04:55:17Z</time>
      </trkpt>
      <trkpt lat="46.03519" lon="4.57006">
        <ele>519.2</ele>
        <time>2022-06-26T04:55:18Z</time>
      </trkpt>
      <trkpt lat="46.03517" lon="4.57007">
        <ele>519.6</ele>
        <time>2022-06-26T04:55:19Z</time>
      </trkpt>
      <trkpt lat="46.03515" lon="4.57008">
        <ele>519.6</ele>
        <time>2022-06-26T04:55:20Z</time>
      </trkpt>
      <trkpt lat="46.03514" lon="4.57009">
        <ele>519.8</ele>
        <time>2022-06-26T04:55:21Z</time>
      </trkpt>
      <trkpt lat="46.03512" lon="4.5701">
        <ele>520.2</ele>
        <time>2022-06-26T04:55:22Z</time>
      </trkpt>
      <trkpt lat="46.0351" lon="4.57011">
        <ele>520.2</ele>
        <time>2022-06-26T04:55:23Z</time>
      </trkpt>
      <trkpt lat="46.03509" lon="4.57012">
        <ele>520.4</ele>
        <time>2022-06-26T04:55:24Z</time>
      </trkpt>
      <trkpt lat="46.03507" lon="4.57013">
        <ele>520.4</ele>
        <time>2022-06-26T04:55:25Z</time>
      </trkpt>
      <trkpt lat="46.03505" lon="4.57014">
        <ele>520.6</ele>
        <time>2022-06-26T04:55:26Z</time>
      </trkpt>
      <trkpt lat="46.03503" lon="4.57015">
        <ele>520.6</ele>
        <time>2022-06-26T04:55:27Z</time>
      </trkpt>
      <trkpt lat="46.03502" lon="4.57016">
        <ele>521</ele>
        <time>2022-06-26T04:55:28Z</time>
      </trkpt>
      <trkpt lat="46.035" lon="4.57017">
        <ele>521</ele>
        <time>2022-06-26T04:55:29Z</time>
      </trkpt>
      <trkpt lat="46.03498" lon="4.57018">
        <ele>521.4</ele>
        <time>2022-06-26T04:55:30Z</time>
      </trkpt>
      <trkpt lat="46.03497" lon="4.57019">
        <ele>521.4</ele>
        <time>2022-06-26T04:55:31Z</time>
      </trkpt>
      <trkpt lat="46.03495" lon="4.5702">
        <ele>521.8</ele>
        <time>2022-06-26T04:55:32Z</time>
      </trkpt>
      <trkpt lat="46.03493" lon="4.57021">
        <ele>522</ele>
        <time>2022-06-26T04:55:33Z</time>
      </trkpt>
      <trkpt lat="46.03492" lon="4.57022">
        <ele>522</ele>
        <time>2022-06-26T04:55:34Z</time>
      </trkpt>
      <trkpt lat="46.0349" lon="4.57022">
        <ele>522.4</ele>
        <time>2022-06-26T04:55:35Z</time>
      </trkpt>
      <trkpt lat="46.03488" lon="4.57023">
        <ele>522.6</ele>
        <time>2022-06-26T04:55:36Z</time>
      </trkpt>
      <trkpt lat="46.03486" lon="4.57024">
        <ele>522.8</ele>
        <time>2022-06-26T04:55:37Z</time>
      </trkpt>
      <trkpt lat="46.03485" lon="4.57026">
        <ele>522.8</ele>
        <time>2022-06-26T04:55:38Z</time>
      </trkpt>
      <trkpt lat="46.03483" lon="4.57027">
        <ele>523.2</ele>
        <time>2022-06-26T04:55:39Z</time>
      </trkpt>
      <trkpt lat="46.03481" lon="4.57028">
        <ele>523.2</ele>
        <time>2022-06-26T04:55:40Z</time>
      </trkpt>
      <trkpt lat="46.0348" lon="4.5703">
        <ele>523.4</ele>
        <time>2022-06-26T04:55:41Z</time>
      </trkpt>
      <trkpt lat="46.03478" lon="4.57031">
        <ele>523.4</ele>
        <time>2022-06-26T04:55:42Z</time>
      </trkpt>
      <trkpt lat="46.03476" lon="4.57032">
        <ele>523.8</ele>
        <time>2022-06-26T04:55:43Z</time>
      </trkpt>
      <trkpt lat="46.03474" lon="4.57033">
        <ele>524</ele>
        <time>2022-06-26T04:55:44Z</time>
      </trkpt>
      <trkpt lat="46.03473" lon="4.57034">
        <ele>524.4</ele>
        <time>2022-06-26T04:55:45Z</time>
      </trkpt>
      <trkpt lat="46.03471" lon="4.57035">
        <ele>524.4</ele>
        <time>2022-06-26T04:55:46Z</time>
      </trkpt>
      <trkpt lat="46.03469" lon="4.57035">
        <ele>524.8</ele>
        <time>2022-06-26T04:55:47Z</time>
      </trkpt>
      <trkpt lat="46.03468" lon="4.57036">
        <ele>525</ele>
        <time>2022-06-26T04:55:48Z</time>
      </trkpt>
      <trkpt lat="46.03466" lon="4.57037">
        <ele>525</ele>
        <time>2022-06-26T04:55:49Z</time>
      </trkpt>
      <trkpt lat="46.03464" lon="4.57038">
        <ele>525.2</ele>
        <time>2022-06-26T04:55:50Z</time>
      </trkpt>
      <trkpt lat="46.03463" lon="4.57039">
        <ele>525.4</ele>
        <time>2022-06-26T04:55:51Z</time>
      </trkpt>
      <trkpt lat="46.03461" lon="4.5704">
        <ele>525.6</ele>
        <time>2022-06-26T04:55:52Z</time>
      </trkpt>
      <trkpt lat="46.0346" lon="4.57041">
        <ele>525.6</ele>
        <time>2022-06-26T04:55:53Z</time>
      </trkpt>
      <trkpt lat="46.03458" lon="4.57043">
        <ele>526</ele>
        <time>2022-06-26T04:55:54Z</time>
      </trkpt>
      <trkpt lat="46.03456" lon="4.57044">
        <ele>526.2</ele>
        <time>2022-06-26T04:55:55Z</time>
      </trkpt>
      <trkpt lat="46.03455" lon="4.57045">
        <ele>526.2</ele>
        <time>2022-06-26T04:55:56Z</time>
      </trkpt>
      <trkpt lat="46.03453" lon="4.57046">
        <ele>526.6</ele>
        <time>2022-06-26T04:55:57Z</time>
      </trkpt>
      <trkpt lat="46.03452" lon="4.57048">
        <ele>526.6</ele>
        <time>2022-06-26T04:55:58Z</time>
      </trkpt>
      <trkpt lat="46.0345" lon="4.57049">
        <ele>526.8</ele>
        <time>2022-06-26T04:55:59Z</time>
      </trkpt>
      <trkpt lat="46.03449" lon="4.5705">
        <ele>526.8</ele>
        <time>2022-06-26T04:56:00Z</time>
      </trkpt>
      <trkpt lat="46.03447" lon="4.57051">
        <ele>527.2</ele>
        <time>2022-06-26T04:56:01Z</time>
      </trkpt>
      <trkpt lat="46.03446" lon="4.57052">
        <ele>527.2</ele>
        <time>2022-06-26T04:56:02Z</time>
      </trkpt>
      <trkpt lat="46.03444" lon="4.57054">
        <ele>527.4</ele>
        <time>2022-06-26T04:56:03Z</time>
      </trkpt>
      <trkpt lat="46.03442" lon="4.57055">
        <ele>527.4</ele>
        <time>2022-06-26T04:56:04Z</time>
      </trkpt>
      <trkpt lat="46.03441" lon="4.57055">
        <ele>527.8</ele>
        <time>2022-06-26T04:56:05Z</time>
      </trkpt>
      <trkpt lat="46.03439" lon="4.57056">
        <ele>527.8</ele>
        <time>2022-06-26T04:56:06Z</time>
      </trkpt>
      <trkpt lat="46.03438" lon="4.57057">
        <ele>528.2</ele>
        <time>2022-06-26T04:56:07Z</time>
      </trkpt>
      <trkpt lat="46.03436" lon="4.57058">
        <ele>528.2</ele>
        <time>2022-06-26T04:56:08Z</time>
      </trkpt>
      <trkpt lat="46.03434" lon="4.5706">
        <ele>528.4</ele>
        <time>2022-06-26T04:56:09Z</time>
      </trkpt>
      <trkpt lat="46.03433" lon="4.57061">
        <ele>528.4</ele>
        <time>2022-06-26T04:56:10Z</time>
      </trkpt>
      <trkpt lat="46.03431" lon="4.57062">
        <ele>528.8</ele>
        <time>2022-06-26T04:56:11Z</time>
      </trkpt>
      <trkpt lat="46.03428" lon="4.57064">
        <ele>528.8</ele>
        <time>2022-06-26T04:56:12Z</time>
      </trkpt>
      <trkpt lat="46.03427" lon="4.57065">
        <ele>529.2</ele>
        <time>2022-06-26T04:56:13Z</time>
      </trkpt>
      <trkpt lat="46.03426" lon="4.57065">
        <ele>529.2</ele>
        <time>2022-06-26T04:56:14Z</time>
      </trkpt>
      <trkpt lat="46.03424" lon="4.57066">
        <ele>529.6</ele>
        <time>2022-06-26T04:56:15Z</time>
      </trkpt>
      <trkpt lat="46.03422" lon="4.57066">
        <ele>529.6</ele>
        <time>2022-06-26T04:56:16Z</time>
      </trkpt>
      <trkpt lat="46.03421" lon="4.57067">
        <ele>529.8</ele>
        <time>2022-06-26T04:56:17Z</time>
      </trkpt>
      <trkpt lat="46.03419" lon="4.57068">
        <ele>529.8</ele>
        <time>2022-06-26T04:56:18Z</time>
      </trkpt>
      <trkpt lat="46.03417" lon="4.57068">
        <ele>530.2</ele>
        <time>2022-06-26T04:56:19Z</time>
      </trkpt>
      <trkpt lat="46.03415" lon="4.57069">
        <ele>530.2</ele>
        <time>2022-06-26T04:56:20Z</time>
      </trkpt>
      <trkpt lat="46.03414" lon="4.57069">
        <ele>530.6</ele>
        <time>2022-06-26T04:56:21Z</time>
      </trkpt>
      <trkpt lat="46.03412" lon="4.5707">
        <ele>530.6</ele>
        <time>2022-06-26T04:56:22Z</time>
      </trkpt>
      <trkpt lat="46.0341" lon="4.5707">
        <ele>530.8</ele>
        <time>2022-06-26T04:56:23Z</time>
      </trkpt>
      <trkpt lat="46.03409" lon="4.5707">
        <ele>530.8</ele>
        <time>2022-06-26T04:56:24Z</time>
      </trkpt>
      <trkpt lat="46.03407" lon="4.57069">
        <ele>531.2</ele>
        <time>2022-06-26T04:56:25Z</time>
      </trkpt>
      <trkpt lat="46.03405" lon="4.57069">
        <ele>531.4</ele>
        <time>2022-06-26T04:56:26Z</time>
      </trkpt>
      <trkpt lat="46.03403" lon="4.57069">
        <ele>531.4</ele>
        <time>2022-06-26T04:56:27Z</time>
      </trkpt>
      <trkpt lat="46.03402" lon="4.57068">
        <ele>531.8</ele>
        <time>2022-06-26T04:56:28Z</time>
      </trkpt>
      <trkpt lat="46.034" lon="4.57067">
        <ele>531.8</ele>
        <time>2022-06-26T04:56:29Z</time>
      </trkpt>
      <trkpt lat="46.03398" lon="4.57066">
        <ele>532</ele>
        <time>2022-06-26T04:56:30Z</time>
      </trkpt>
      <trkpt lat="46.03397" lon="4.57064">
        <ele>532</ele>
        <time>2022-06-26T04:56:31Z</time>
      </trkpt>
      <trkpt lat="46.03396" lon="4.57062">
        <ele>532.4</ele>
        <time>2022-06-26T04:56:32Z</time>
      </trkpt>
      <trkpt lat="46.03395" lon="4.5706">
        <ele>532.6</ele>
        <time>2022-06-26T04:56:33Z</time>
      </trkpt>
      <trkpt lat="46.03394" lon="4.57058">
        <ele>533</ele>
        <time>2022-06-26T04:56:34Z</time>
      </trkpt>
      <trkpt lat="46.03393" lon="4.57056">
        <ele>533.2</ele>
        <time>2022-06-26T04:56:35Z</time>
      </trkpt>
      <trkpt lat="46.03392" lon="4.57053">
        <ele>533.2</ele>
        <time>2022-06-26T04:56:36Z</time>
      </trkpt>
      <trkpt lat="46.03392" lon="4.5705">
        <ele>533.4</ele>
        <time>2022-06-26T04:56:37Z</time>
      </trkpt>
      <trkpt lat="46.03391" lon="4.57048">
        <ele>533.4</ele>
        <time>2022-06-26T04:56:38Z</time>
      </trkpt>
      <trkpt lat="46.0339" lon="4.57045">
        <ele>533.8</ele>
        <time>2022-06-26T04:56:39Z</time>
      </trkpt>
      <trkpt lat="46.03389" lon="4.57042">
        <ele>533.8</ele>
        <time>2022-06-26T04:56:40Z</time>
      </trkpt>
      <trkpt lat="46.03389" lon="4.5704">
        <ele>534</ele>
        <time>2022-06-26T04:56:41Z</time>
      </trkpt>
      <trkpt lat="46.03388" lon="4.57037">
        <ele>534</ele>
        <time>2022-06-26T04:56:42Z</time>
      </trkpt>
      <trkpt lat="46.03387" lon="4.57035">
        <ele>534.4</ele>
        <time>2022-06-26T04:56:43Z</time>
      </trkpt>
      <trkpt lat="46.03386" lon="4.57032">
        <ele>534.4</ele>
        <time>2022-06-26T04:56:44Z</time>
      </trkpt>
      <trkpt lat="46.03386" lon="4.5703">
        <ele>534.8</ele>
        <time>2022-06-26T04:56:45Z</time>
      </trkpt>
      <trkpt lat="46.03385" lon="4.57027">
        <ele>535</ele>
        <time>2022-06-26T04:56:46Z</time>
      </trkpt>
      <trkpt lat="46.03385" lon="4.57025">
        <ele>535.2</ele>
        <time>2022-06-26T04:56:47Z</time>
      </trkpt>
      <trkpt lat="46.03384" lon="4.57022">
        <ele>535.6</ele>
        <time>2022-06-26T04:56:48Z</time>
      </trkpt>
      <trkpt lat="46.03383" lon="4.5702">
        <ele>535.8</ele>
        <time>2022-06-26T04:56:49Z</time>
      </trkpt>
      <trkpt lat="46.03382" lon="4.57018">
        <ele>535.8</ele>
        <time>2022-06-26T04:56:50Z</time>
      </trkpt>
      <trkpt lat="46.03381" lon="4.57016">
        <ele>536.2</ele>
        <time>2022-06-26T04:56:51Z</time>
      </trkpt>
      <trkpt lat="46.0338" lon="4.57013">
        <ele>536.2</ele>
        <time>2022-06-26T04:56:52Z</time>
      </trkpt>
      <trkpt lat="46.03379" lon="4.57011">
        <ele>536.4</ele>
        <time>2022-06-26T04:56:53Z</time>
      </trkpt>
      <trkpt lat="46.03378" lon="4.57008">
        <ele>536.4</ele>
        <time>2022-06-26T04:56:54Z</time>
      </trkpt>
      <trkpt lat="46.03377" lon="4.57005">
        <ele>537</ele>
        <time>2022-06-26T04:56:55Z</time>
      </trkpt>
      <trkpt lat="46.03375" lon="4.57">
        <ele>537.2</ele>
        <time>2022-06-26T04:56:56Z</time>
      </trkpt>
      <trkpt lat="46.03374" lon="4.56998">
        <ele>537.2</ele>
        <time>2022-06-26T04:56:57Z</time>
      </trkpt>
      <trkpt lat="46.03374" lon="4.56995">
        <ele>537.6</ele>
        <time>2022-06-26T04:56:58Z</time>
      </trkpt>
      <trkpt lat="46.03373" lon="4.56993">
        <ele>537.6</ele>
        <time>2022-06-26T04:56:59Z</time>
      </trkpt>
      <trkpt lat="46.03372" lon="4.5699">
        <ele>538</ele>
        <time>2022-06-26T04:57:00Z</time>
      </trkpt>
      <trkpt lat="46.03371" lon="4.56988">
        <ele>538.2</ele>
        <time>2022-06-26T04:57:01Z</time>
      </trkpt>
      <trkpt lat="46.0337" lon="4.56986">
        <ele>538.2</ele>
        <time>2022-06-26T04:57:02Z</time>
      </trkpt>
      <trkpt lat="46.03369" lon="4.56983">
        <ele>538.6</ele>
        <time>2022-06-26T04:57:03Z</time>
      </trkpt>
      <trkpt lat="46.03368" lon="4.56981">
        <ele>538.8</ele>
        <time>2022-06-26T04:57:04Z</time>
      </trkpt>
      <trkpt lat="46.03367" lon="4.56978">
        <ele>539.2</ele>
        <time>2022-06-26T04:57:05Z</time>
      </trkpt>
      <trkpt lat="46.03366" lon="4.56976">
        <ele>539.4</ele>
        <time>2022-06-26T04:57:06Z</time>
      </trkpt>
      <trkpt lat="46.03365" lon="4.56974">
        <ele>539.6</ele>
        <time>2022-06-26T04:57:07Z</time>
      </trkpt>
      <trkpt lat="46.03365" lon="4.56971">
        <ele>539.8</ele>
        <time>2022-06-26T04:57:08Z</time>
      </trkpt>
      <trkpt lat="46.03364" lon="4.56969">
        <ele>539.8</ele>
        <time>2022-06-26T04:57:09Z</time>
      </trkpt>
      <trkpt lat="46.03363" lon="4.56967">
        <ele>540.2</ele>
        <time>2022-06-26T04:57:10Z</time>
      </trkpt>
      <trkpt lat="46.03362" lon="4.56965">
        <ele>540.2</ele>
        <time>2022-06-26T04:57:11Z</time>
      </trkpt>
      <trkpt lat="46.03361" lon="4.56963">
        <ele>540.4</ele>
        <time>2022-06-26T04:57:12Z</time>
      </trkpt>
      <trkpt lat="46.03361" lon="4.5696">
        <ele>540.4</ele>
        <time>2022-06-26T04:57:13Z</time>
      </trkpt>
      <trkpt lat="46.0336" lon="4.56958">
        <ele>540.8</ele>
        <time>2022-06-26T04:57:14Z</time>
      </trkpt>
      <trkpt lat="46.0336" lon="4.56956">
        <ele>540.8</ele>
        <time>2022-06-26T04:57:15Z</time>
      </trkpt>
      <trkpt lat="46.03359" lon="4.56954">
        <ele>541.2</ele>
        <time>2022-06-26T04:57:16Z</time>
      </trkpt>
      <trkpt lat="46.03358" lon="4.56952">
        <ele>541.4</ele>
        <time>2022-06-26T04:57:17Z</time>
      </trkpt>
      <trkpt lat="46.03358" lon="4.5695">
        <ele>541.4</ele>
        <time>2022-06-26T04:57:18Z</time>
      </trkpt>
      <trkpt lat="46.03357" lon="4.56948">
        <ele>541.8</ele>
        <time>2022-06-26T04:57:19Z</time>
      </trkpt>
      <trkpt lat="46.03357" lon="4.56946">
        <ele>541.8</ele>
        <time>2022-06-26T04:57:20Z</time>
      </trkpt>
      <trkpt lat="46.03357" lon="4.56944">
        <ele>542.2</ele>
        <time>2022-06-26T04:57:21Z</time>
      </trkpt>
      <trkpt lat="46.03356" lon="4.56942">
        <ele>542.2</ele>
        <time>2022-06-26T04:57:22Z</time>
      </trkpt>
      <trkpt lat="46.03355" lon="4.5694">
        <ele>542.6</ele>
        <time>2022-06-26T04:57:23Z</time>
      </trkpt>
      <trkpt lat="46.03355" lon="4.56938">
        <ele>542.6</ele>
        <time>2022-06-26T04:57:24Z</time>
      </trkpt>
      <trkpt lat="46.03354" lon="4.56935">
        <ele>542.8</ele>
        <time>2022-06-26T04:57:25Z</time>
      </trkpt>
      <trkpt lat="46.03353" lon="4.56933">
        <ele>543</ele>
        <time>2022-06-26T04:57:26Z</time>
      </trkpt>
      <trkpt lat="46.03352" lon="4.56931">
        <ele>543.2</ele>
        <time>2022-06-26T04:57:27Z</time>
      </trkpt>
      <trkpt lat="46.03351" lon="4.56929">
        <ele>543.2</ele>
        <time>2022-06-26T04:57:28Z</time>
      </trkpt>
      <trkpt lat="46.0335" lon="4.56927">
        <ele>543.6</ele>
        <time>2022-06-26T04:57:29Z</time>
      </trkpt>
      <trkpt lat="46.03349" lon="4.56924">
        <ele>543.6</ele>
        <time>2022-06-26T04:57:30Z</time>
      </trkpt>
      <trkpt lat="46.03348" lon="4.56922">
        <ele>544</ele>
        <time>2022-06-26T04:57:31Z</time>
      </trkpt>
      <trkpt lat="46.03347" lon="4.5692">
        <ele>544</ele>
        <time>2022-06-26T04:57:32Z</time>
      </trkpt>
      <trkpt lat="46.03346" lon="4.56918">
        <ele>544.2</ele>
        <time>2022-06-26T04:57:33Z</time>
      </trkpt>
      <trkpt lat="46.03345" lon="4.56915">
        <ele>544.2</ele>
        <time>2022-06-26T04:57:34Z</time>
      </trkpt>
      <trkpt lat="46.03344" lon="4.56913">
        <ele>544.6</ele>
        <time>2022-06-26T04:57:35Z</time>
      </trkpt>
      <trkpt lat="46.03343" lon="4.56911">
        <ele>544.6</ele>
        <time>2022-06-26T04:57:36Z</time>
      </trkpt>
      <trkpt lat="46.03342" lon="4.56909">
        <ele>545</ele>
        <time>2022-06-26T04:57:37Z</time>
      </trkpt>
      <trkpt lat="46.03341" lon="4.56907">
        <ele>545</ele>
        <time>2022-06-26T04:57:38Z</time>
      </trkpt>
      <trkpt lat="46.0334" lon="4.56905">
        <ele>545.2</ele>
        <time>2022-06-26T04:57:39Z</time>
      </trkpt>
      <trkpt lat="46.03339" lon="4.56903">
        <ele>545.4</ele>
        <time>2022-06-26T04:57:40Z</time>
      </trkpt>
      <trkpt lat="46.03337" lon="4.56901">
        <ele>545.4</ele>
        <time>2022-06-26T04:57:41Z</time>
      </trkpt>
      <trkpt lat="46.03337" lon="4.56899">
        <ele>545.8</ele>
        <time>2022-06-26T04:57:42Z</time>
      </trkpt>
      <trkpt lat="46.03336" lon="4.56897">
        <ele>546</ele>
        <time>2022-06-26T04:57:43Z</time>
      </trkpt>
      <trkpt lat="46.03335" lon="4.56895">
        <ele>546</ele>
        <time>2022-06-26T04:57:44Z</time>
      </trkpt>
      <trkpt lat="46.03334" lon="4.56893">
        <ele>546.4</ele>
        <time>2022-06-26T04:57:45Z</time>
      </trkpt>
      <trkpt lat="46.03333" lon="4.5689">
        <ele>546.8</ele>
        <time>2022-06-26T04:57:46Z</time>
      </trkpt>
      <trkpt lat="46.03332" lon="4.56888">
        <ele>547</ele>
        <time>2022-06-26T04:57:47Z</time>
      </trkpt>
      <trkpt lat="46.03331" lon="4.56885">
        <ele>547</ele>
        <time>2022-06-26T04:57:48Z</time>
      </trkpt>
      <trkpt lat="46.03331" lon="4.56883">
        <ele>547.2</ele>
        <time>2022-06-26T04:57:49Z</time>
      </trkpt>
      <trkpt lat="46.03331" lon="4.5688">
        <ele>547.4</ele>
        <time>2022-06-26T04:57:50Z</time>
      </trkpt>
      <trkpt lat="46.0333" lon="4.56878">
        <ele>547.4</ele>
        <time>2022-06-26T04:57:51Z</time>
      </trkpt>
      <trkpt lat="46.0333" lon="4.56875">
        <ele>547.8</ele>
        <time>2022-06-26T04:57:52Z</time>
      </trkpt>
      <trkpt lat="46.03329" lon="4.56873">
        <ele>547.8</ele>
        <time>2022-06-26T04:57:53Z</time>
      </trkpt>
      <trkpt lat="46.03328" lon="4.56871">
        <ele>548.2</ele>
        <time>2022-06-26T04:57:54Z</time>
      </trkpt>
      <trkpt lat="46.03328" lon="4.56868">
        <ele>548.2</ele>
        <time>2022-06-26T04:57:55Z</time>
      </trkpt>
      <trkpt lat="46.03327" lon="4.56866">
        <ele>548.4</ele>
        <time>2022-06-26T04:57:56Z</time>
      </trkpt>
      <trkpt lat="46.03326" lon="4.56864">
        <ele>548.8</ele>
        <time>2022-06-26T04:57:57Z</time>
      </trkpt>
      <trkpt lat="46.03325" lon="4.56862">
        <ele>548.8</ele>
        <time>2022-06-26T04:57:58Z</time>
      </trkpt>
      <trkpt lat="46.03325" lon="4.56859">
        <ele>549</ele>
        <time>2022-06-26T04:57:59Z</time>
      </trkpt>
      <trkpt lat="46.03324" lon="4.56857">
        <ele>549</ele>
        <time>2022-06-26T04:58:00Z</time>
      </trkpt>
      <trkpt lat="46.03323" lon="4.56855">
        <ele>549.2</ele>
        <time>2022-06-26T04:58:01Z</time>
      </trkpt>
      <trkpt lat="46.03322" lon="4.56852">
        <ele>549.2</ele>
        <time>2022-06-26T04:58:02Z</time>
      </trkpt>
      <trkpt lat="46.03321" lon="4.5685">
        <ele>549.6</ele>
        <time>2022-06-26T04:58:03Z</time>
      </trkpt>
      <trkpt lat="46.0332" lon="4.56848">
        <ele>549.6</ele>
        <time>2022-06-26T04:58:04Z</time>
      </trkpt>
      <trkpt lat="46.0332" lon="4.56845">
        <ele>549.8</ele>
        <time>2022-06-26T04:58:05Z</time>
      </trkpt>
      <trkpt lat="46.03319" lon="4.56843">
        <ele>549.8</ele>
        <time>2022-06-26T04:58:06Z</time>
      </trkpt>
      <trkpt lat="46.03319" lon="4.5684">
        <ele>550.4</ele>
        <time>2022-06-26T04:58:07Z</time>
      </trkpt>
      <trkpt lat="46.03318" lon="4.56838">
        <ele>550.6</ele>
        <time>2022-06-26T04:58:08Z</time>
      </trkpt>
      <trkpt lat="46.03318" lon="4.56835">
        <ele>550.6</ele>
        <time>2022-06-26T04:58:09Z</time>
      </trkpt>
      <trkpt lat="46.03317" lon="4.56832">
        <ele>551</ele>
        <time>2022-06-26T04:58:10Z</time>
      </trkpt>
      <trkpt lat="46.03317" lon="4.5683">
        <ele>551</ele>
        <time>2022-06-26T04:58:11Z</time>
      </trkpt>
      <trkpt lat="46.03316" lon="4.56827">
        <ele>551.2</ele>
        <time>2022-06-26T04:58:12Z</time>
      </trkpt>
      <trkpt lat="46.03315" lon="4.56825">
        <ele>551.2</ele>
        <time>2022-06-26T04:58:13Z</time>
      </trkpt>
      <trkpt lat="46.03315" lon="4.56822">
        <ele>551.4</ele>
        <time>2022-06-26T04:58:14Z</time>
      </trkpt>
      <trkpt lat="46.03315" lon="4.5682">
        <ele>551.4</ele>
        <time>2022-06-26T04:58:15Z</time>
      </trkpt>
      <trkpt lat="46.03314" lon="4.56817">
        <ele>551.8</ele>
        <time>2022-06-26T04:58:16Z</time>
      </trkpt>
      <trkpt lat="46.03313" lon="4.56815">
        <ele>552</ele>
        <time>2022-06-26T04:58:17Z</time>
      </trkpt>
      <trkpt lat="46.03312" lon="4.56812">
        <ele>552.2</ele>
        <time>2022-06-26T04:58:18Z</time>
      </trkpt>
      <trkpt lat="46.03312" lon="4.56809">
        <ele>552.4</ele>
        <time>2022-06-26T04:58:19Z</time>
      </trkpt>
      <trkpt lat="46.03311" lon="4.56807">
        <ele>552.4</ele>
        <time>2022-06-26T04:58:20Z</time>
      </trkpt>
      <trkpt lat="46.03311" lon="4.56804">
        <ele>552.8</ele>
        <time>2022-06-26T04:58:21Z</time>
      </trkpt>
      <trkpt lat="46.0331" lon="4.56802">
        <ele>552.8</ele>
        <time>2022-06-26T04:58:22Z</time>
      </trkpt>
      <trkpt lat="46.03309" lon="4.568">
        <ele>553.2</ele>
        <time>2022-06-26T04:58:23Z</time>
      </trkpt>
      <trkpt lat="46.03308" lon="4.56797">
        <ele>553.2</ele>
        <time>2022-06-26T04:58:24Z</time>
      </trkpt>
      <trkpt lat="46.03308" lon="4.56795">
        <ele>553.4</ele>
        <time>2022-06-26T04:58:25Z</time>
      </trkpt>
      <trkpt lat="46.03307" lon="4.56793">
        <ele>553.6</ele>
        <time>2022-06-26T04:58:26Z</time>
      </trkpt>
      <trkpt lat="46.03306" lon="4.5679">
        <ele>553.8</ele>
        <time>2022-06-26T04:58:27Z</time>
      </trkpt>
      <trkpt lat="46.03305" lon="4.56788">
        <ele>553.8</ele>
        <time>2022-06-26T04:58:28Z</time>
      </trkpt>
      <trkpt lat="46.03304" lon="4.56786">
        <ele>554.2</ele>
        <time>2022-06-26T04:58:29Z</time>
      </trkpt>
      <trkpt lat="46.03304" lon="4.56784">
        <ele>554.2</ele>
        <time>2022-06-26T04:58:30Z</time>
      </trkpt>
      <trkpt lat="46.03303" lon="4.56782">
        <ele>554.6</ele>
        <time>2022-06-26T04:58:31Z</time>
      </trkpt>
      <trkpt lat="46.03302" lon="4.5678">
        <ele>554.6</ele>
        <time>2022-06-26T04:58:32Z</time>
      </trkpt>
      <trkpt lat="46.03301" lon="4.56778">
        <ele>554.8</ele>
        <time>2022-06-26T04:58:33Z</time>
      </trkpt>
      <trkpt lat="46.033" lon="4.56776">
        <ele>554.8</ele>
        <time>2022-06-26T04:58:34Z</time>
      </trkpt>
      <trkpt lat="46.03299" lon="4.56773">
        <ele>555.2</ele>
        <time>2022-06-26T04:58:35Z</time>
      </trkpt>
      <trkpt lat="46.03298" lon="4.56771">
        <ele>555.2</ele>
        <time>2022-06-26T04:58:36Z</time>
      </trkpt>
      <trkpt lat="46.03297" lon="4.56769">
        <ele>555.4</ele>
        <time>2022-06-26T04:58:37Z</time>
      </trkpt>
      <trkpt lat="46.03296" lon="4.56767">
        <ele>555.4</ele>
        <time>2022-06-26T04:58:38Z</time>
      </trkpt>
      <trkpt lat="46.03295" lon="4.56765">
        <ele>555.6</ele>
        <time>2022-06-26T04:58:39Z</time>
      </trkpt>
      <trkpt lat="46.03294" lon="4.56763">
        <ele>555.6</ele>
        <time>2022-06-26T04:58:40Z</time>
      </trkpt>
      <trkpt lat="46.03293" lon="4.56762">
        <ele>556</ele>
        <time>2022-06-26T04:58:41Z</time>
      </trkpt>
      <trkpt lat="46.03292" lon="4.5676">
        <ele>556</ele>
        <time>2022-06-26T04:58:42Z</time>
      </trkpt>
      <trkpt lat="46.03291" lon="4.56758">
        <ele>556.2</ele>
        <time>2022-06-26T04:58:43Z</time>
      </trkpt>
      <trkpt lat="46.03289" lon="4.56756">
        <ele>556.2</ele>
        <time>2022-06-26T04:58:44Z</time>
      </trkpt>
      <trkpt lat="46.03288" lon="4.56754">
        <ele>556.4</ele>
        <time>2022-06-26T04:58:45Z</time>
      </trkpt>
      <trkpt lat="46.03287" lon="4.56752">
        <ele>556.4</ele>
        <time>2022-06-26T04:58:46Z</time>
      </trkpt>
      <trkpt lat="46.03286" lon="4.56751">
        <ele>556.6</ele>
        <time>2022-06-26T04:58:47Z</time>
      </trkpt>
      <trkpt lat="46.03285" lon="4.56749">
        <ele>556.6</ele>
        <time>2022-06-26T04:58:48Z</time>
      </trkpt>
      <trkpt lat="46.03283" lon="4.56748">
        <ele>557</ele>
        <time>2022-06-26T04:58:49Z</time>
      </trkpt>
      <trkpt lat="46.03282" lon="4.56746">
        <ele>557</ele>
        <time>2022-06-26T04:58:50Z</time>
      </trkpt>
      <trkpt lat="46.03281" lon="4.56745">
        <ele>557.2</ele>
        <time>2022-06-26T04:58:51Z</time>
      </trkpt>
      <trkpt lat="46.0328" lon="4.56743">
        <ele>557.2</ele>
        <time>2022-06-26T04:58:52Z</time>
      </trkpt>
      <trkpt lat="46.03278" lon="4.56741">
        <ele>557.6</ele>
        <time>2022-06-26T04:58:53Z</time>
      </trkpt>
      <trkpt lat="46.03276" lon="4.5674">
        <ele>557.6</ele>
        <time>2022-06-26T04:58:54Z</time>
      </trkpt>
      <trkpt lat="46.03275" lon="4.56738">
        <ele>557.6</ele>
        <time>2022-06-26T04:58:55Z</time>
      </trkpt>
      <trkpt lat="46.03273" lon="4.56736">
        <ele>558</ele>
        <time>2022-06-26T04:58:56Z</time>
      </trkpt>
      <trkpt lat="46.03272" lon="4.56735">
        <ele>558</ele>
        <time>2022-06-26T04:58:57Z</time>
      </trkpt>
      <trkpt lat="46.0327" lon="4.56734">
        <ele>558.4</ele>
        <time>2022-06-26T04:58:58Z</time>
      </trkpt>
      <trkpt lat="46.03268" lon="4.56733">
        <ele>558.4</ele>
        <time>2022-06-26T04:58:59Z</time>
      </trkpt>
      <trkpt lat="46.03266" lon="4.56732">
        <ele>558.6</ele>
        <time>2022-06-26T04:59:00Z</time>
      </trkpt>
      <trkpt lat="46.03265" lon="4.5673">
        <ele>558.6</ele>
        <time>2022-06-26T04:59:01Z</time>
      </trkpt>
      <trkpt lat="46.03263" lon="4.56729">
        <ele>559</ele>
        <time>2022-06-26T04:59:02Z</time>
      </trkpt>
      <trkpt lat="46.03262" lon="4.56727">
        <ele>559</ele>
        <time>2022-06-26T04:59:03Z</time>
      </trkpt>
      <trkpt lat="46.0326" lon="4.56726">
        <ele>559.2</ele>
        <time>2022-06-26T04:59:04Z</time>
      </trkpt>
      <trkpt lat="46.03259" lon="4.56725">
        <ele>559.2</ele>
        <time>2022-06-26T04:59:05Z</time>
      </trkpt>
      <trkpt lat="46.03257" lon="4.56724">
        <ele>559.6</ele>
        <time>2022-06-26T04:59:06Z</time>
      </trkpt>
      <trkpt lat="46.03256" lon="4.56722">
        <ele>559.6</ele>
        <time>2022-06-26T04:59:07Z</time>
      </trkpt>
      <trkpt lat="46.03254" lon="4.56721">
        <ele>559.8</ele>
        <time>2022-06-26T04:59:08Z</time>
      </trkpt>
      <trkpt lat="46.03252" lon="4.5672">
        <ele>559.8</ele>
        <time>2022-06-26T04:59:09Z</time>
      </trkpt>
      <trkpt lat="46.03251" lon="4.56719">
        <ele>560.2</ele>
        <time>2022-06-26T04:59:10Z</time>
      </trkpt>
      <trkpt lat="46.0325" lon="4.56717">
        <ele>560.2</ele>
        <time>2022-06-26T04:59:11Z</time>
      </trkpt>
      <trkpt lat="46.03248" lon="4.56716">
        <ele>560.6</ele>
        <time>2022-06-26T04:59:12Z</time>
      </trkpt>
      <trkpt lat="46.03246" lon="4.56715">
        <ele>560.6</ele>
        <time>2022-06-26T04:59:13Z</time>
      </trkpt>
      <trkpt lat="46.03245" lon="4.56714">
        <ele>561</ele>
        <time>2022-06-26T04:59:14Z</time>
      </trkpt>
      <trkpt lat="46.03244" lon="4.56712">
        <ele>561</ele>
        <time>2022-06-26T04:59:15Z</time>
      </trkpt>
      <trkpt lat="46.03242" lon="4.56711">
        <ele>561.4</ele>
        <time>2022-06-26T04:59:16Z</time>
      </trkpt>
      <trkpt lat="46.03241" lon="4.5671">
        <ele>561.4</ele>
        <time>2022-06-26T04:59:17Z</time>
      </trkpt>
      <trkpt lat="46.0324" lon="4.56708">
        <ele>561.6</ele>
        <time>2022-06-26T04:59:18Z</time>
      </trkpt>
      <trkpt lat="46.03238" lon="4.56707">
        <ele>561.6</ele>
        <time>2022-06-26T04:59:19Z</time>
      </trkpt>
      <trkpt lat="46.03237" lon="4.56706">
        <ele>561.8</ele>
        <time>2022-06-26T04:59:20Z</time>
      </trkpt>
      <trkpt lat="46.03235" lon="4.56706">
        <ele>561.8</ele>
        <time>2022-06-26T04:59:21Z</time>
      </trkpt>
      <trkpt lat="46.03234" lon="4.56705">
        <ele>562</ele>
        <time>2022-06-26T04:59:22Z</time>
      </trkpt>
      <trkpt lat="46.03233" lon="4.56704">
        <ele>562</ele>
        <time>2022-06-26T04:59:23Z</time>
      </trkpt>
      <trkpt lat="46.03231" lon="4.56703">
        <ele>562.4</ele>
        <time>2022-06-26T04:59:24Z</time>
      </trkpt>
      <trkpt lat="46.0323" lon="4.56702">
        <ele>562.4</ele>
        <time>2022-06-26T04:59:25Z</time>
      </trkpt>
      <trkpt lat="46.03229" lon="4.56701">
        <ele>562.6</ele>
        <time>2022-06-26T04:59:26Z</time>
      </trkpt>
      <trkpt lat="46.03227" lon="4.56699">
        <ele>562.6</ele>
        <time>2022-06-26T04:59:27Z</time>
      </trkpt>
      <trkpt lat="46.03226" lon="4.56697">
        <ele>562.6</ele>
        <time>2022-06-26T04:59:28Z</time>
      </trkpt>
      <trkpt lat="46.03224" lon="4.56696">
        <ele>563</ele>
        <time>2022-06-26T04:59:29Z</time>
      </trkpt>
      <trkpt lat="46.03222" lon="4.56694">
        <ele>563</ele>
        <time>2022-06-26T04:59:30Z</time>
      </trkpt>
      <trkpt lat="46.03221" lon="4.56693">
        <ele>563.6</ele>
        <time>2022-06-26T04:59:31Z</time>
      </trkpt>
      <trkpt lat="46.0322" lon="4.56691">
        <ele>563.6</ele>
        <time>2022-06-26T04:59:32Z</time>
      </trkpt>
      <trkpt lat="46.03218" lon="4.56691">
        <ele>563.8</ele>
        <time>2022-06-26T04:59:33Z</time>
      </trkpt>
      <trkpt lat="46.03217" lon="4.5669">
        <ele>563.8</ele>
        <time>2022-06-26T04:59:34Z</time>
      </trkpt>
      <trkpt lat="46.03215" lon="4.56688">
        <ele>564.2</ele>
        <time>2022-06-26T04:59:35Z</time>
      </trkpt>
      <trkpt lat="46.03214" lon="4.56687">
        <ele>564.2</ele>
        <time>2022-06-26T04:59:36Z</time>
      </trkpt>
      <trkpt lat="46.03212" lon="4.56685">
        <ele>564.4</ele>
        <time>2022-06-26T04:59:37Z</time>
      </trkpt>
      <trkpt lat="46.03211" lon="4.56684">
        <ele>564.4</ele>
        <time>2022-06-26T04:59:38Z</time>
      </trkpt>
      <trkpt lat="46.03209" lon="4.56683">
        <ele>564.8</ele>
        <time>2022-06-26T04:59:39Z</time>
      </trkpt>
      <trkpt lat="46.03207" lon="4.56681">
        <ele>564.8</ele>
        <time>2022-06-26T04:59:40Z</time>
      </trkpt>
      <trkpt lat="46.03206" lon="4.5668">
        <ele>565</ele>
        <time>2022-06-26T04:59:41Z</time>
      </trkpt>
      <trkpt lat="46.03204" lon="4.56678">
        <ele>565.4</ele>
        <time>2022-06-26T04:59:42Z</time>
      </trkpt>
      <trkpt lat="46.03203" lon="4.56677">
        <ele>565.4</ele>
        <time>2022-06-26T04:59:43Z</time>
      </trkpt>
      <trkpt lat="46.03202" lon="4.56675">
        <ele>565.6</ele>
        <time>2022-06-26T04:59:44Z</time>
      </trkpt>
      <trkpt lat="46.03201" lon="4.56674">
        <ele>565.6</ele>
        <time>2022-06-26T04:59:45Z</time>
      </trkpt>
      <trkpt lat="46.03199" lon="4.56673">
        <ele>566</ele>
        <time>2022-06-26T04:59:46Z</time>
      </trkpt>
      <trkpt lat="46.03198" lon="4.56672">
        <ele>566</ele>
        <time>2022-06-26T04:59:47Z</time>
      </trkpt>
      <trkpt lat="46.03197" lon="4.56671">
        <ele>566.2</ele>
        <time>2022-06-26T04:59:48Z</time>
      </trkpt>
      <trkpt lat="46.03196" lon="4.5667">
        <ele>566.2</ele>
        <time>2022-06-26T04:59:49Z</time>
      </trkpt>
      <trkpt lat="46.03194" lon="4.56669">
        <ele>566.6</ele>
        <time>2022-06-26T04:59:50Z</time>
      </trkpt>
      <trkpt lat="46.03193" lon="4.56668">
        <ele>566.6</ele>
        <time>2022-06-26T04:59:51Z</time>
      </trkpt>
      <trkpt lat="46.03192" lon="4.56667">
        <ele>567</ele>
        <time>2022-06-26T04:59:52Z</time>
      </trkpt>
      <trkpt lat="46.03191" lon="4.56665">
        <ele>567</ele>
        <time>2022-06-26T04:59:53Z</time>
      </trkpt>
      <trkpt lat="46.03189" lon="4.56664">
        <ele>567.4</ele>
        <time>2022-06-26T04:59:54Z</time>
      </trkpt>
      <trkpt lat="46.03188" lon="4.56663">
        <ele>567.4</ele>
        <time>2022-06-26T04:59:55Z</time>
      </trkpt>
      <trkpt lat="46.03186" lon="4.56662">
        <ele>567.6</ele>
        <time>2022-06-26T04:59:56Z</time>
      </trkpt>
      <trkpt lat="46.03185" lon="4.56661">
        <ele>567.6</ele>
        <time>2022-06-26T04:59:57Z</time>
      </trkpt>
      <trkpt lat="46.03184" lon="4.56661">
        <ele>568</ele>
        <time>2022-06-26T04:59:58Z</time>
      </trkpt>
      <trkpt lat="46.03182" lon="4.5666">
        <ele>568</ele>
        <time>2022-06-26T04:59:59Z</time>
      </trkpt>
      <trkpt lat="46.0318" lon="4.56659">
        <ele>568.2</ele>
        <time>2022-06-26T05:00:00Z</time>
      </trkpt>
      <trkpt lat="46.03178" lon="4.56658">
        <ele>568.4</ele>
        <time>2022-06-26T05:00:01Z</time>
      </trkpt>
      <trkpt lat="46.03176" lon="4.56657">
        <ele>568.4</ele>
        <time>2022-06-26T05:00:02Z</time>
      </trkpt>
      <trkpt lat="46.03173" lon="4.56656">
        <ele>568.8</ele>
        <time>2022-06-26T05:00:03Z</time>
      </trkpt>
      <trkpt lat="46.03172" lon="4.56655">
        <ele>568.8</ele>
        <time>2022-06-26T05:00:04Z</time>
      </trkpt>
      <trkpt lat="46.0317" lon="4.56654">
        <ele>569.2</ele>
        <time>2022-06-26T05:00:05Z</time>
      </trkpt>
      <trkpt lat="46.03168" lon="4.56653">
        <ele>569.2</ele>
        <time>2022-06-26T05:00:06Z</time>
      </trkpt>
      <trkpt lat="46.03165" lon="4.56652">
        <ele>569.4</ele>
        <time>2022-06-26T05:00:07Z</time>
      </trkpt>
      <trkpt lat="46.03163" lon="4.56651">
        <ele>569.4</ele>
        <time>2022-06-26T05:00:08Z</time>
      </trkpt>
      <trkpt lat="46.03162" lon="4.5665">
        <ele>569.6</ele>
        <time>2022-06-26T05:00:09Z</time>
      </trkpt>
      <trkpt lat="46.0316" lon="4.56649">
        <ele>569.6</ele>
        <time>2022-06-26T05:00:10Z</time>
      </trkpt>
      <trkpt lat="46.03158" lon="4.56648">
        <ele>570</ele>
        <time>2022-06-26T05:00:11Z</time>
      </trkpt>
      <trkpt lat="46.03157" lon="4.56648">
        <ele>570</ele>
        <time>2022-06-26T05:00:12Z</time>
      </trkpt>
      <trkpt lat="46.03155" lon="4.56647">
        <ele>570.2</ele>
        <time>2022-06-26T05:00:13Z</time>
      </trkpt>
      <trkpt lat="46.03153" lon="4.56646">
        <ele>570.4</ele>
        <time>2022-06-26T05:00:14Z</time>
      </trkpt>
      <trkpt lat="46.03151" lon="4.56645">
        <ele>570.4</ele>
        <time>2022-06-26T05:00:15Z</time>
      </trkpt>
      <trkpt lat="46.03149" lon="4.56644">
        <ele>570.8</ele>
        <time>2022-06-26T05:00:16Z</time>
      </trkpt>
      <trkpt lat="46.03146" lon="4.56644">
        <ele>570.8</ele>
        <time>2022-06-26T05:00:17Z</time>
      </trkpt>
      <trkpt lat="46.03144" lon="4.56644">
        <ele>571</ele>
        <time>2022-06-26T05:00:18Z</time>
      </trkpt>
      <trkpt lat="46.03141" lon="4.56643">
        <ele>571</ele>
        <time>2022-06-26T05:00:19Z</time>
      </trkpt>
      <trkpt lat="46.03139" lon="4.56642">
        <ele>571</ele>
        <time>2022-06-26T05:00:20Z</time>
      </trkpt>
      <trkpt lat="46.03136" lon="4.56642">
        <ele>571.4</ele>
        <time>2022-06-26T05:00:21Z</time>
      </trkpt>
      <trkpt lat="46.03134" lon="4.56642">
        <ele>571.4</ele>
        <time>2022-06-26T05:00:22Z</time>
      </trkpt>
      <trkpt lat="46.03133" lon="4.56641">
        <ele>571.6</ele>
        <time>2022-06-26T05:00:23Z</time>
      </trkpt>
      <trkpt lat="46.03131" lon="4.56641">
        <ele>571.6</ele>
        <time>2022-06-26T05:00:24Z</time>
      </trkpt>
      <trkpt lat="46.03129" lon="4.56641">
        <ele>571.8</ele>
        <time>2022-06-26T05:00:25Z</time>
      </trkpt>
      <trkpt lat="46.03127" lon="4.5664">
        <ele>571.8</ele>
        <time>2022-06-26T05:00:26Z</time>
      </trkpt>
      <trkpt lat="46.03125" lon="4.5664">
        <ele>572.2</ele>
        <time>2022-06-26T05:00:27Z</time>
      </trkpt>
      <trkpt lat="46.03124" lon="4.56639">
        <ele>572.2</ele>
        <time>2022-06-26T05:00:28Z</time>
      </trkpt>
      <trkpt lat="46.03121" lon="4.56639">
        <ele>572.4</ele>
        <time>2022-06-26T05:00:29Z</time>
      </trkpt>
      <trkpt lat="46.03119" lon="4.56638">
        <ele>572.4</ele>
        <time>2022-06-26T05:00:30Z</time>
      </trkpt>
      <trkpt lat="46.03117" lon="4.56638">
        <ele>572.6</ele>
        <time>2022-06-26T05:00:32Z</time>
      </trkpt>
      <trkpt lat="46.03115" lon="4.56638">
        <ele>572.6</ele>
        <time>2022-06-26T05:00:33Z</time>
      </trkpt>
      <trkpt lat="46.03113" lon="4.56638">
        <ele>572.6</ele>
        <time>2022-06-26T05:00:34Z</time>
      </trkpt>
      <trkpt lat="46.03111" lon="4.56638">
        <ele>572.8</ele>
        <time>2022-06-26T05:00:35Z</time>
      </trkpt>
      <trkpt lat="46.03108" lon="4.56638">
        <ele>572.8</ele>
        <time>2022-06-26T05:00:36Z</time>
      </trkpt>
      <trkpt lat="46.03106" lon="4.56639">
        <ele>573.2</ele>
        <time>2022-06-26T05:00:37Z</time>
      </trkpt>
      <trkpt lat="46.03103" lon="4.56639">
        <ele>573.2</ele>
        <time>2022-06-26T05:00:38Z</time>
      </trkpt>
      <trkpt lat="46.03102" lon="4.56638">
        <ele>573.4</ele>
        <time>2022-06-26T05:00:39Z</time>
      </trkpt>
      <trkpt lat="46.031" lon="4.56638">
        <ele>573.4</ele>
        <time>2022-06-26T05:00:40Z</time>
      </trkpt>
      <trkpt lat="46.03099" lon="4.56639">
        <ele>573.8</ele>
        <time>2022-06-26T05:00:41Z</time>
      </trkpt>
      <trkpt lat="46.03097" lon="4.56639">
        <ele>573.8</ele>
        <time>2022-06-26T05:00:42Z</time>
      </trkpt>
      <trkpt lat="46.03096" lon="4.56639">
        <ele>574</ele>
        <time>2022-06-26T05:00:43Z</time>
      </trkpt>
      <trkpt lat="46.03094" lon="4.56639">
        <ele>574</ele>
        <time>2022-06-26T05:00:44Z</time>
      </trkpt>
      <trkpt lat="46.03092" lon="4.5664">
        <ele>574.2</ele>
        <time>2022-06-26T05:00:45Z</time>
      </trkpt>
      <trkpt lat="46.0309" lon="4.56639">
        <ele>574.2</ele>
        <time>2022-06-26T05:00:46Z</time>
      </trkpt>
      <trkpt lat="46.03087" lon="4.56639">
        <ele>574.2</ele>
        <time>2022-06-26T05:00:47Z</time>
      </trkpt>
      <trkpt lat="46.03085" lon="4.56639">
        <ele>574.4</ele>
        <time>2022-06-26T05:00:48Z</time>
      </trkpt>
      <trkpt lat="46.03083" lon="4.56639">
        <ele>574.4</ele>
        <time>2022-06-26T05:00:49Z</time>
      </trkpt>
      <trkpt lat="46.03081" lon="4.56639">
        <ele>574.6</ele>
        <time>2022-06-26T05:00:50Z</time>
      </trkpt>
      <trkpt lat="46.03079" lon="4.56639">
        <ele>574.6</ele>
        <time>2022-06-26T05:00:51Z</time>
      </trkpt>
      <trkpt lat="46.03077" lon="4.56639">
        <ele>575</ele>
        <time>2022-06-26T05:00:52Z</time>
      </trkpt>
      <trkpt lat="46.03076" lon="4.56639">
        <ele>575</ele>
        <time>2022-06-26T05:00:53Z</time>
      </trkpt>
      <trkpt lat="46.03074" lon="4.56639">
        <ele>575.2</ele>
        <time>2022-06-26T05:00:54Z</time>
      </trkpt>
      <trkpt lat="46.03072" lon="4.56639">
        <ele>575.2</ele>
        <time>2022-06-26T05:00:55Z</time>
      </trkpt>
      <trkpt lat="46.0307" lon="4.56639">
        <ele>575.4</ele>
        <time>2022-06-26T05:00:56Z</time>
      </trkpt>
      <trkpt lat="46.03068" lon="4.56639">
        <ele>575.4</ele>
        <time>2022-06-26T05:00:57Z</time>
      </trkpt>
      <trkpt lat="46.03066" lon="4.5664">
        <ele>575.8</ele>
        <time>2022-06-26T05:00:58Z</time>
      </trkpt>
      <trkpt lat="46.03065" lon="4.56641">
        <ele>575.8</ele>
        <time>2022-06-26T05:00:59Z</time>
      </trkpt>
      <trkpt lat="46.03063" lon="4.56642">
        <ele>576</ele>
        <time>2022-06-26T05:01:00Z</time>
      </trkpt>
      <trkpt lat="46.03062" lon="4.56642">
        <ele>576</ele>
        <time>2022-06-26T05:01:01Z</time>
      </trkpt>
      <trkpt lat="46.0306" lon="4.56642">
        <ele>576</ele>
        <time>2022-06-26T05:01:02Z</time>
      </trkpt>
      <trkpt lat="46.03059" lon="4.56643">
        <ele>576.2</ele>
        <time>2022-06-26T05:01:03Z</time>
      </trkpt>
      <trkpt lat="46.03057" lon="4.56643">
        <ele>576.6</ele>
        <time>2022-06-26T05:01:04Z</time>
      </trkpt>
      <trkpt lat="46.03056" lon="4.56643">
        <ele>576.6</ele>
        <time>2022-06-26T05:01:05Z</time>
      </trkpt>
      <trkpt lat="46.03054" lon="4.56644">
        <ele>576.6</ele>
        <time>2022-06-26T05:01:06Z</time>
      </trkpt>
      <trkpt lat="46.03053" lon="4.56644">
        <ele>576.8</ele>
        <time>2022-06-26T05:01:07Z</time>
      </trkpt>
      <trkpt lat="46.03051" lon="4.56644">
        <ele>576.8</ele>
        <time>2022-06-26T05:01:08Z</time>
      </trkpt>
      <trkpt lat="46.03049" lon="4.56645">
        <ele>577.2</ele>
        <time>2022-06-26T05:01:09Z</time>
      </trkpt>
      <trkpt lat="46.03047" lon="4.56645">
        <ele>577.4</ele>
        <time>2022-06-26T05:01:10Z</time>
      </trkpt>
      <trkpt lat="46.03044" lon="4.56645">
        <ele>577.4</ele>
        <time>2022-06-26T05:01:11Z</time>
      </trkpt>
      <trkpt lat="46.03042" lon="4.56645">
        <ele>577.6</ele>
        <time>2022-06-26T05:01:12Z</time>
      </trkpt>
      <trkpt lat="46.03041" lon="4.56645">
        <ele>577.6</ele>
        <time>2022-06-26T05:01:13Z</time>
      </trkpt>
      <trkpt lat="46.03039" lon="4.56645">
        <ele>578</ele>
        <time>2022-06-26T05:01:14Z</time>
      </trkpt>
      <trkpt lat="46.03037" lon="4.56646">
        <ele>578</ele>
        <time>2022-06-26T05:01:15Z</time>
      </trkpt>
      <trkpt lat="46.03035" lon="4.56646">
        <ele>578.2</ele>
        <time>2022-06-26T05:01:16Z</time>
      </trkpt>
      <trkpt lat="46.03032" lon="4.56647">
        <ele>578.2</ele>
        <time>2022-06-26T05:01:17Z</time>
      </trkpt>
      <trkpt lat="46.0303" lon="4.56647">
        <ele>578.4</ele>
        <time>2022-06-26T05:01:18Z</time>
      </trkpt>
      <trkpt lat="46.03028" lon="4.56648">
        <ele>578.4</ele>
        <time>2022-06-26T05:01:19Z</time>
      </trkpt>
      <trkpt lat="46.03026" lon="4.56649">
        <ele>578.8</ele>
        <time>2022-06-26T05:01:20Z</time>
      </trkpt>
      <trkpt lat="46.03023" lon="4.56649">
        <ele>578.8</ele>
        <time>2022-06-26T05:01:21Z</time>
      </trkpt>
      <trkpt lat="46.03021" lon="4.56649">
        <ele>578.8</ele>
        <time>2022-06-26T05:01:22Z</time>
      </trkpt>
      <trkpt lat="46.03018" lon="4.56649">
        <ele>579</ele>
        <time>2022-06-26T05:01:23Z</time>
      </trkpt>
      <trkpt lat="46.03016" lon="4.56649">
        <ele>579</ele>
        <time>2022-06-26T05:01:24Z</time>
      </trkpt>
      <trkpt lat="46.03014" lon="4.56649">
        <ele>579.4</ele>
        <time>2022-06-26T05:01:25Z</time>
      </trkpt>
      <trkpt lat="46.03012" lon="4.5665">
        <ele>579.4</ele>
        <time>2022-06-26T05:01:26Z</time>
      </trkpt>
      <trkpt lat="46.03011" lon="4.56649">
        <ele>579.6</ele>
        <time>2022-06-26T05:01:27Z</time>
      </trkpt>
      <trkpt lat="46.03009" lon="4.5665">
        <ele>579.6</ele>
        <time>2022-06-26T05:01:28Z</time>
      </trkpt>
      <trkpt lat="46.03007" lon="4.56652">
        <ele>579.8</ele>
        <time>2022-06-26T05:01:29Z</time>
      </trkpt>
      <trkpt lat="46.03005" lon="4.56652">
        <ele>579.8</ele>
        <time>2022-06-26T05:01:30Z</time>
      </trkpt>
      <trkpt lat="46.03005" lon="4.56653">
        <ele>580.2</ele>
        <time>2022-06-26T05:01:31Z</time>
      </trkpt>
      <trkpt lat="46.03003" lon="4.56653">
        <ele>580.4</ele>
        <time>2022-06-26T05:01:32Z</time>
      </trkpt>
      <trkpt lat="46.03002" lon="4.56653">
        <ele>580.4</ele>
        <time>2022-06-26T05:01:33Z</time>
      </trkpt>
      <trkpt lat="46.02999" lon="4.56653">
        <ele>580.8</ele>
        <time>2022-06-26T05:01:34Z</time>
      </trkpt>
      <trkpt lat="46.02997" lon="4.56654">
        <ele>580.8</ele>
        <time>2022-06-26T05:01:35Z</time>
      </trkpt>
      <trkpt lat="46.02995" lon="4.56654">
        <ele>581</ele>
        <time>2022-06-26T05:01:36Z</time>
      </trkpt>
      <trkpt lat="46.02993" lon="4.56655">
        <ele>581</ele>
        <time>2022-06-26T05:01:37Z</time>
      </trkpt>
      <trkpt lat="46.02991" lon="4.56655">
        <ele>581.4</ele>
        <time>2022-06-26T05:01:38Z</time>
      </trkpt>
      <trkpt lat="46.02989" lon="4.56656">
        <ele>581.6</ele>
        <time>2022-06-26T05:01:39Z</time>
      </trkpt>
      <trkpt lat="46.02987" lon="4.56656">
        <ele>581.6</ele>
        <time>2022-06-26T05:01:40Z</time>
      </trkpt>
      <trkpt lat="46.02985" lon="4.56657">
        <ele>581.8</ele>
        <time>2022-06-26T05:01:41Z</time>
      </trkpt>
      <trkpt lat="46.02983" lon="4.56657">
        <ele>581.8</ele>
        <time>2022-06-26T05:01:42Z</time>
      </trkpt>
      <trkpt lat="46.02981" lon="4.56658">
        <ele>582.2</ele>
        <time>2022-06-26T05:01:43Z</time>
      </trkpt>
      <trkpt lat="46.0298" lon="4.56658">
        <ele>582.2</ele>
        <time>2022-06-26T05:01:44Z</time>
      </trkpt>
      <trkpt lat="46.02979" lon="4.56658">
        <ele>582.4</ele>
        <time>2022-06-26T05:01:45Z</time>
      </trkpt>
      <trkpt lat="46.02977" lon="4.56659">
        <ele>582.4</ele>
        <time>2022-06-26T05:01:46Z</time>
      </trkpt>
      <trkpt lat="46.02974" lon="4.56659">
        <ele>582.8</ele>
        <time>2022-06-26T05:01:47Z</time>
      </trkpt>
      <trkpt lat="46.02972" lon="4.5666">
        <ele>582.8</ele>
        <time>2022-06-26T05:01:48Z</time>
      </trkpt>
      <trkpt lat="46.02968" lon="4.56662">
        <ele>582.8</ele>
        <time>2022-06-26T05:01:49Z</time>
      </trkpt>
      <trkpt lat="46.02966" lon="4.56662">
        <ele>583</ele>
        <time>2022-06-26T05:01:50Z</time>
      </trkpt>
      <trkpt lat="46.02964" lon="4.56662">
        <ele>583</ele>
        <time>2022-06-26T05:01:51Z</time>
      </trkpt>
      <trkpt lat="46.02962" lon="4.56663">
        <ele>583</ele>
        <time>2022-06-26T05:01:52Z</time>
      </trkpt>
      <trkpt lat="46.02961" lon="4.56662">
        <ele>583.4</ele>
        <time>2022-06-26T05:01:53Z</time>
      </trkpt>
      <trkpt lat="46.02959" lon="4.56662">
        <ele>583.4</ele>
        <time>2022-06-26T05:01:54Z</time>
      </trkpt>
      <trkpt lat="46.02957" lon="4.56662">
        <ele>583.6</ele>
        <time>2022-06-26T05:01:55Z</time>
      </trkpt>
      <trkpt lat="46.02956" lon="4.56662">
        <ele>583.6</ele>
        <time>2022-06-26T05:01:56Z</time>
      </trkpt>
      <trkpt lat="46.02955" lon="4.56662">
        <ele>584</ele>
        <time>2022-06-26T05:01:57Z</time>
      </trkpt>
      <trkpt lat="46.02952" lon="4.56663">
        <ele>584</ele>
        <time>2022-06-26T05:01:58Z</time>
      </trkpt>
      <trkpt lat="46.0295" lon="4.56662">
        <ele>584.4</ele>
        <time>2022-06-26T05:01:59Z</time>
      </trkpt>
      <trkpt lat="46.02947" lon="4.56663">
        <ele>584.4</ele>
        <time>2022-06-26T05:02:00Z</time>
      </trkpt>
      <trkpt lat="46.02945" lon="4.56665">
        <ele>584.6</ele>
        <time>2022-06-26T05:02:01Z</time>
      </trkpt>
      <trkpt lat="46.02943" lon="4.56666">
        <ele>584.6</ele>
        <time>2022-06-26T05:02:02Z</time>
      </trkpt>
      <trkpt lat="46.02941" lon="4.56667">
        <ele>584.8</ele>
        <time>2022-06-26T05:02:03Z</time>
      </trkpt>
      <trkpt lat="46.02938" lon="4.56668">
        <ele>584.8</ele>
        <time>2022-06-26T05:02:04Z</time>
      </trkpt>
      <trkpt lat="46.02935" lon="4.5667">
        <ele>584.8</ele>
        <time>2022-06-26T05:02:05Z</time>
      </trkpt>
      <trkpt lat="46.02933" lon="4.56671">
        <ele>585.2</ele>
        <time>2022-06-26T05:02:06Z</time>
      </trkpt>
      <trkpt lat="46.0293" lon="4.56671">
        <ele>585.2</ele>
        <time>2022-06-26T05:02:07Z</time>
      </trkpt>
      <trkpt lat="46.02929" lon="4.56672">
        <ele>585.6</ele>
        <time>2022-06-26T05:02:08Z</time>
      </trkpt>
      <trkpt lat="46.02927" lon="4.56672">
        <ele>585.8</ele>
        <time>2022-06-26T05:02:09Z</time>
      </trkpt>
      <trkpt lat="46.02926" lon="4.56673">
        <ele>585.8</ele>
        <time>2022-06-26T05:02:10Z</time>
      </trkpt>
      <trkpt lat="46.02924" lon="4.56673">
        <ele>585.8</ele>
        <time>2022-06-26T05:02:11Z</time>
      </trkpt>
      <trkpt lat="46.02921" lon="4.56673">
        <ele>586.2</ele>
        <time>2022-06-26T05:02:12Z</time>
      </trkpt>
      <trkpt lat="46.02918" lon="4.56674">
        <ele>586.2</ele>
        <time>2022-06-26T05:02:13Z</time>
      </trkpt>
      <trkpt lat="46.02915" lon="4.56676">
        <ele>586.4</ele>
        <time>2022-06-26T05:02:14Z</time>
      </trkpt>
      <trkpt lat="46.02912" lon="4.56677">
        <ele>586.4</ele>
        <time>2022-06-26T05:02:15Z</time>
      </trkpt>
      <trkpt lat="46.02909" lon="4.56678">
        <ele>586.6</ele>
        <time>2022-06-26T05:02:16Z</time>
      </trkpt>
      <trkpt lat="46.02906" lon="4.56679">
        <ele>586.6</ele>
        <time>2022-06-26T05:02:17Z</time>
      </trkpt>
      <trkpt lat="46.02904" lon="4.5668">
        <ele>587</ele>
        <time>2022-06-26T05:02:18Z</time>
      </trkpt>
      <trkpt lat="46.02902" lon="4.56681">
        <ele>587</ele>
        <time>2022-06-26T05:02:19Z</time>
      </trkpt>
      <trkpt lat="46.02899" lon="4.56682">
        <ele>587.4</ele>
        <time>2022-06-26T05:02:20Z</time>
      </trkpt>
      <trkpt lat="46.02897" lon="4.56683">
        <ele>587.4</ele>
        <time>2022-06-26T05:02:21Z</time>
      </trkpt>
      <trkpt lat="46.02894" lon="4.56684">
        <ele>587.6</ele>
        <time>2022-06-26T05:02:22Z</time>
      </trkpt>
      <trkpt lat="46.02891" lon="4.56685">
        <ele>587.6</ele>
        <time>2022-06-26T05:02:23Z</time>
      </trkpt>
      <trkpt lat="46.02888" lon="4.56686">
        <ele>588</ele>
        <time>2022-06-26T05:02:24Z</time>
      </trkpt>
      <trkpt lat="46.02885" lon="4.56687">
        <ele>588</ele>
        <time>2022-06-26T05:02:25Z</time>
      </trkpt>
      <trkpt lat="46.02883" lon="4.56688">
        <ele>588.2</ele>
        <time>2022-06-26T05:02:26Z</time>
      </trkpt>
      <trkpt lat="46.02879" lon="4.56689">
        <ele>588.2</ele>
        <time>2022-06-26T05:02:27Z</time>
      </trkpt>
      <trkpt lat="46.02878" lon="4.5669">
        <ele>588.6</ele>
        <time>2022-06-26T05:02:28Z</time>
      </trkpt>
      <trkpt lat="46.02876" lon="4.56691">
        <ele>588.6</ele>
        <time>2022-06-26T05:02:29Z</time>
      </trkpt>
      <trkpt lat="46.02875" lon="4.56691">
        <ele>588.8</ele>
        <time>2022-06-26T05:02:30Z</time>
      </trkpt>
      <trkpt lat="46.02872" lon="4.56691">
        <ele>588.8</ele>
        <time>2022-06-26T05:02:31Z</time>
      </trkpt>
      <trkpt lat="46.0287" lon="4.56691">
        <ele>589.2</ele>
        <time>2022-06-26T05:02:32Z</time>
      </trkpt>
      <trkpt lat="46.02869" lon="4.56692">
        <ele>589.2</ele>
        <time>2022-06-26T05:02:33Z</time>
      </trkpt>
      <trkpt lat="46.02867" lon="4.56692">
        <ele>589.4</ele>
        <time>2022-06-26T05:02:34Z</time>
      </trkpt>
      <trkpt lat="46.02864" lon="4.56692">
        <ele>589.4</ele>
        <time>2022-06-26T05:02:35Z</time>
      </trkpt>
      <trkpt lat="46.02862" lon="4.56693">
        <ele>589.6</ele>
        <time>2022-06-26T05:02:36Z</time>
      </trkpt>
      <trkpt lat="46.0286" lon="4.56693">
        <ele>589.6</ele>
        <time>2022-06-26T05:02:37Z</time>
      </trkpt>
      <trkpt lat="46.02859" lon="4.56693">
        <ele>590</ele>
        <time>2022-06-26T05:02:38Z</time>
      </trkpt>
      <trkpt lat="46.02857" lon="4.56694">
        <ele>590</ele>
        <time>2022-06-26T05:02:39Z</time>
      </trkpt>
      <trkpt lat="46.02855" lon="4.56694">
        <ele>590.2</ele>
        <time>2022-06-26T05:02:40Z</time>
      </trkpt>
      <trkpt lat="46.02853" lon="4.56695">
        <ele>590.2</ele>
        <time>2022-06-26T05:02:41Z</time>
      </trkpt>
      <trkpt lat="46.0285" lon="4.56695">
        <ele>590.6</ele>
        <time>2022-06-26T05:02:42Z</time>
      </trkpt>
      <trkpt lat="46.02848" lon="4.56695">
        <ele>590.8</ele>
        <time>2022-06-26T05:02:43Z</time>
      </trkpt>
      <trkpt lat="46.02846" lon="4.56696">
        <ele>590.8</ele>
        <time>2022-06-26T05:02:44Z</time>
      </trkpt>
      <trkpt lat="46.02844" lon="4.56696">
        <ele>591.2</ele>
        <time>2022-06-26T05:02:45Z</time>
      </trkpt>
      <trkpt lat="46.02842" lon="4.56696">
        <ele>591.4</ele>
        <time>2022-06-26T05:02:46Z</time>
      </trkpt>
      <trkpt lat="46.02839" lon="4.56696">
        <ele>591.4</ele>
        <time>2022-06-26T05:02:47Z</time>
      </trkpt>
      <trkpt lat="46.02837" lon="4.56696">
        <ele>591.6</ele>
        <time>2022-06-26T05:02:48Z</time>
      </trkpt>
      <trkpt lat="46.02835" lon="4.56697">
        <ele>591.6</ele>
        <time>2022-06-26T05:02:49Z</time>
      </trkpt>
      <trkpt lat="46.02833" lon="4.56698">
        <ele>592</ele>
        <time>2022-06-26T05:02:50Z</time>
      </trkpt>
      <trkpt lat="46.02831" lon="4.56698">
        <ele>592</ele>
        <time>2022-06-26T05:02:51Z</time>
      </trkpt>
      <trkpt lat="46.02829" lon="4.56699">
        <ele>592.2</ele>
        <time>2022-06-26T05:02:52Z</time>
      </trkpt>
      <trkpt lat="46.02827" lon="4.56699">
        <ele>592.2</ele>
        <time>2022-06-26T05:02:53Z</time>
      </trkpt>
      <trkpt lat="46.02825" lon="4.567">
        <ele>592.6</ele>
        <time>2022-06-26T05:02:54Z</time>
      </trkpt>
      <trkpt lat="46.02822" lon="4.56701">
        <ele>592.6</ele>
        <time>2022-06-26T05:02:55Z</time>
      </trkpt>
      <trkpt lat="46.0282" lon="4.56701">
        <ele>592.6</ele>
        <time>2022-06-26T05:02:56Z</time>
      </trkpt>
      <trkpt lat="46.02818" lon="4.56701">
        <ele>592.8</ele>
        <time>2022-06-26T05:02:57Z</time>
      </trkpt>
      <trkpt lat="46.02817" lon="4.56702">
        <ele>592.8</ele>
        <time>2022-06-26T05:02:58Z</time>
      </trkpt>
      <trkpt lat="46.02815" lon="4.56702">
        <ele>593.2</ele>
        <time>2022-06-26T05:02:59Z</time>
      </trkpt>
      <trkpt lat="46.02813" lon="4.56702">
        <ele>593.2</ele>
        <time>2022-06-26T05:03:00Z</time>
      </trkpt>
      <trkpt lat="46.02811" lon="4.56703">
        <ele>593.4</ele>
        <time>2022-06-26T05:03:01Z</time>
      </trkpt>
      <trkpt lat="46.02809" lon="4.56703">
        <ele>593.4</ele>
        <time>2022-06-26T05:03:02Z</time>
      </trkpt>
      <trkpt lat="46.02807" lon="4.56703">
        <ele>593.8</ele>
        <time>2022-06-26T05:03:03Z</time>
      </trkpt>
      <trkpt lat="46.02805" lon="4.56704">
        <ele>593.8</ele>
        <time>2022-06-26T05:03:04Z</time>
      </trkpt>
      <trkpt lat="46.02804" lon="4.56705">
        <ele>594</ele>
        <time>2022-06-26T05:03:05Z</time>
      </trkpt>
      <trkpt lat="46.02802" lon="4.56704">
        <ele>594</ele>
        <time>2022-06-26T05:03:06Z</time>
      </trkpt>
      <trkpt lat="46.028" lon="4.56705">
        <ele>594.4</ele>
        <time>2022-06-26T05:03:07Z</time>
      </trkpt>
      <trkpt lat="46.02798" lon="4.56705">
        <ele>594.4</ele>
        <time>2022-06-26T05:03:08Z</time>
      </trkpt>
      <trkpt lat="46.02796" lon="4.56705">
        <ele>594.6</ele>
        <time>2022-06-26T05:03:09Z</time>
      </trkpt>
      <trkpt lat="46.02794" lon="4.56706">
        <ele>594.8</ele>
        <time>2022-06-26T05:03:10Z</time>
      </trkpt>
      <trkpt lat="46.02792" lon="4.56707">
        <ele>595</ele>
        <time>2022-06-26T05:03:11Z</time>
      </trkpt>
      <trkpt lat="46.0279" lon="4.56707">
        <ele>595.2</ele>
        <time>2022-06-26T05:03:12Z</time>
      </trkpt>
      <trkpt lat="46.02787" lon="4.56707">
        <ele>595.2</ele>
        <time>2022-06-26T05:03:13Z</time>
      </trkpt>
      <trkpt lat="46.02785" lon="4.56708">
        <ele>595.4</ele>
        <time>2022-06-26T05:03:14Z</time>
      </trkpt>
      <trkpt lat="46.02782" lon="4.56708">
        <ele>595.4</ele>
        <time>2022-06-26T05:03:15Z</time>
      </trkpt>
      <trkpt lat="46.0278" lon="4.56708">
        <ele>595.8</ele>
        <time>2022-06-26T05:03:16Z</time>
      </trkpt>
      <trkpt lat="46.02777" lon="4.56708">
        <ele>595.8</ele>
        <time>2022-06-26T05:03:17Z</time>
      </trkpt>
      <trkpt lat="46.02775" lon="4.56708">
        <ele>595.8</ele>
        <time>2022-06-26T05:03:18Z</time>
      </trkpt>
      <trkpt lat="46.02773" lon="4.56708">
        <ele>596.2</ele>
        <time>2022-06-26T05:03:19Z</time>
      </trkpt>
      <trkpt lat="46.02772" lon="4.56707">
        <ele>596.2</ele>
        <time>2022-06-26T05:03:20Z</time>
      </trkpt>
      <trkpt lat="46.0277" lon="4.56707">
        <ele>596.4</ele>
        <time>2022-06-26T05:03:21Z</time>
      </trkpt>
      <trkpt lat="46.02768" lon="4.56707">
        <ele>596.4</ele>
        <time>2022-06-26T05:03:22Z</time>
      </trkpt>
      <trkpt lat="46.02766" lon="4.56706">
        <ele>596.6</ele>
        <time>2022-06-26T05:03:23Z</time>
      </trkpt>
      <trkpt lat="46.02764" lon="4.56705">
        <ele>596.6</ele>
        <time>2022-06-26T05:03:24Z</time>
      </trkpt>
      <trkpt lat="46.02763" lon="4.56704">
        <ele>597</ele>
        <time>2022-06-26T05:03:25Z</time>
      </trkpt>
      <trkpt lat="46.02761" lon="4.56703">
        <ele>597</ele>
        <time>2022-06-26T05:03:26Z</time>
      </trkpt>
      <trkpt lat="46.0276" lon="4.56702">
        <ele>597.2</ele>
        <time>2022-06-26T05:03:27Z</time>
      </trkpt>
      <trkpt lat="46.02759" lon="4.567">
        <ele>597.4</ele>
        <time>2022-06-26T05:03:28Z</time>
      </trkpt>
      <trkpt lat="46.02757" lon="4.56698">
        <ele>597.4</ele>
        <time>2022-06-26T05:03:29Z</time>
      </trkpt>
      <trkpt lat="46.02755" lon="4.56698">
        <ele>597.8</ele>
        <time>2022-06-26T05:03:30Z</time>
      </trkpt>
      <trkpt lat="46.02753" lon="4.56697">
        <ele>597.8</ele>
        <time>2022-06-26T05:03:31Z</time>
      </trkpt>
      <trkpt lat="46.02752" lon="4.56696">
        <ele>598.2</ele>
        <time>2022-06-26T05:03:32Z</time>
      </trkpt>
      <trkpt lat="46.02751" lon="4.56694">
        <ele>598.2</ele>
        <time>2022-06-26T05:03:33Z</time>
      </trkpt>
      <trkpt lat="46.02749" lon="4.56693">
        <ele>598.4</ele>
        <time>2022-06-26T05:03:34Z</time>
      </trkpt>
      <trkpt lat="46.02747" lon="4.56691">
        <ele>598.4</ele>
        <time>2022-06-26T05:03:35Z</time>
      </trkpt>
      <trkpt lat="46.02746" lon="4.5669">
        <ele>598.8</ele>
        <time>2022-06-26T05:03:36Z</time>
      </trkpt>
      <trkpt lat="46.02744" lon="4.56688">
        <ele>599</ele>
        <time>2022-06-26T05:03:37Z</time>
      </trkpt>
      <trkpt lat="46.02742" lon="4.56686">
        <ele>599</ele>
        <time>2022-06-26T05:03:38Z</time>
      </trkpt>
      <trkpt lat="46.0274" lon="4.56684">
        <ele>599.4</ele>
        <time>2022-06-26T05:03:39Z</time>
      </trkpt>
      <trkpt lat="46.02738" lon="4.56682">
        <ele>599.4</ele>
        <time>2022-06-26T05:03:40Z</time>
      </trkpt>
      <trkpt lat="46.02737" lon="4.5668">
        <ele>599.8</ele>
        <time>2022-06-26T05:03:41Z</time>
      </trkpt>
      <trkpt lat="46.02735" lon="4.56678">
        <ele>600</ele>
        <time>2022-06-26T05:03:42Z</time>
      </trkpt>
      <trkpt lat="46.02734" lon="4.56676">
        <ele>600</ele>
        <time>2022-06-26T05:03:43Z</time>
      </trkpt>
      <trkpt lat="46.02732" lon="4.56674">
        <ele>600.2</ele>
        <time>2022-06-26T05:03:44Z</time>
      </trkpt>
      <trkpt lat="46.0273" lon="4.56672">
        <ele>600.2</ele>
        <time>2022-06-26T05:03:45Z</time>
      </trkpt>
      <trkpt lat="46.02728" lon="4.56671">
        <ele>600.6</ele>
        <time>2022-06-26T05:03:46Z</time>
      </trkpt>
      <trkpt lat="46.02726" lon="4.5667">
        <ele>600.6</ele>
        <time>2022-06-26T05:03:47Z</time>
      </trkpt>
      <trkpt lat="46.02724" lon="4.5667">
        <ele>600.8</ele>
        <time>2022-06-26T05:03:48Z</time>
      </trkpt>
      <trkpt lat="46.02722" lon="4.56668">
        <ele>600.8</ele>
        <time>2022-06-26T05:03:49Z</time>
      </trkpt>
      <trkpt lat="46.02721" lon="4.56667">
        <ele>601</ele>
        <time>2022-06-26T05:03:50Z</time>
      </trkpt>
      <trkpt lat="46.02719" lon="4.56666">
        <ele>601.4</ele>
        <time>2022-06-26T05:03:51Z</time>
      </trkpt>
      <trkpt lat="46.02717" lon="4.56665">
        <ele>601.4</ele>
        <time>2022-06-26T05:03:52Z</time>
      </trkpt>
      <trkpt lat="46.02716" lon="4.56664">
        <ele>601.6</ele>
        <time>2022-06-26T05:03:53Z</time>
      </trkpt>
      <trkpt lat="46.02714" lon="4.56662">
        <ele>601.6</ele>
        <time>2022-06-26T05:03:54Z</time>
      </trkpt>
      <trkpt lat="46.02712" lon="4.56662">
        <ele>602</ele>
        <time>2022-06-26T05:03:55Z</time>
      </trkpt>
      <trkpt lat="46.0271" lon="4.56661">
        <ele>602</ele>
        <time>2022-06-26T05:03:56Z</time>
      </trkpt>
      <trkpt lat="46.02708" lon="4.56661">
        <ele>602.2</ele>
        <time>2022-06-26T05:03:57Z</time>
      </trkpt>
      <trkpt lat="46.02706" lon="4.5666">
        <ele>602.2</ele>
        <time>2022-06-26T05:03:58Z</time>
      </trkpt>
      <trkpt lat="46.02704" lon="4.56659">
        <ele>602.6</ele>
        <time>2022-06-26T05:03:59Z</time>
      </trkpt>
      <trkpt lat="46.02702" lon="4.56658">
        <ele>602.6</ele>
        <time>2022-06-26T05:04:00Z</time>
      </trkpt>
      <trkpt lat="46.027" lon="4.56658">
        <ele>602.8</ele>
        <time>2022-06-26T05:04:01Z</time>
      </trkpt>
      <trkpt lat="46.02698" lon="4.56657">
        <ele>602.8</ele>
        <time>2022-06-26T05:04:02Z</time>
      </trkpt>
      <trkpt lat="46.02696" lon="4.56656">
        <ele>603</ele>
        <time>2022-06-26T05:04:03Z</time>
      </trkpt>
      <trkpt lat="46.02694" lon="4.56655">
        <ele>603</ele>
        <time>2022-06-26T05:04:04Z</time>
      </trkpt>
      <trkpt lat="46.02693" lon="4.56655">
        <ele>603.2</ele>
        <time>2022-06-26T05:04:05Z</time>
      </trkpt>
      <trkpt lat="46.02691" lon="4.56654">
        <ele>603.2</ele>
        <time>2022-06-26T05:04:06Z</time>
      </trkpt>
      <trkpt lat="46.02689" lon="4.56654">
        <ele>603.6</ele>
        <time>2022-06-26T05:04:07Z</time>
      </trkpt>
      <trkpt lat="46.02687" lon="4.56653">
        <ele>603.6</ele>
        <time>2022-06-26T05:04:08Z</time>
      </trkpt>
      <trkpt lat="46.02684" lon="4.56653">
        <ele>603.8</ele>
        <time>2022-06-26T05:04:09Z</time>
      </trkpt>
      <trkpt lat="46.02682" lon="4.56652">
        <ele>603.8</ele>
        <time>2022-06-26T05:04:10Z</time>
      </trkpt>
      <trkpt lat="46.0268" lon="4.56651">
        <ele>604.2</ele>
        <time>2022-06-26T05:04:11Z</time>
      </trkpt>
      <trkpt lat="46.02679" lon="4.5665">
        <ele>604.4</ele>
        <time>2022-06-26T05:04:12Z</time>
      </trkpt>
      <trkpt lat="46.02677" lon="4.56649">
        <ele>604.4</ele>
        <time>2022-06-26T05:04:13Z</time>
      </trkpt>
      <trkpt lat="46.02675" lon="4.56648">
        <ele>604.8</ele>
        <time>2022-06-26T05:04:14Z</time>
      </trkpt>
      <trkpt lat="46.02673" lon="4.56647">
        <ele>605.2</ele>
        <time>2022-06-26T05:04:15Z</time>
      </trkpt>
      <trkpt lat="46.02672" lon="4.56645">
        <ele>605.4</ele>
        <time>2022-06-26T05:04:16Z</time>
      </trkpt>
      <trkpt lat="46.0267" lon="4.56644">
        <ele>605.6</ele>
        <time>2022-06-26T05:04:17Z</time>
      </trkpt>
      <trkpt lat="46.02668" lon="4.56642">
        <ele>605.6</ele>
        <time>2022-06-26T05:04:18Z</time>
      </trkpt>
      <trkpt lat="46.02666" lon="4.56639">
        <ele>606</ele>
        <time>2022-06-26T05:04:19Z</time>
      </trkpt>
      <trkpt lat="46.02665" lon="4.56637">
        <ele>606</ele>
        <time>2022-06-26T05:04:20Z</time>
      </trkpt>
      <trkpt lat="46.02664" lon="4.56634">
        <ele>606.4</ele>
        <time>2022-06-26T05:04:21Z</time>
      </trkpt>
      <trkpt lat="46.02662" lon="4.56631">
        <ele>606.6</ele>
        <time>2022-06-26T05:04:22Z</time>
      </trkpt>
      <trkpt lat="46.02661" lon="4.56629">
        <ele>606.6</ele>
        <time>2022-06-26T05:04:23Z</time>
      </trkpt>
      <trkpt lat="46.0266" lon="4.56627">
        <ele>606.8</ele>
        <time>2022-06-26T05:04:24Z</time>
      </trkpt>
      <trkpt lat="46.02659" lon="4.56624">
        <ele>606.8</ele>
        <time>2022-06-26T05:04:25Z</time>
      </trkpt>
      <trkpt lat="46.02659" lon="4.56621">
        <ele>607.2</ele>
        <time>2022-06-26T05:04:26Z</time>
      </trkpt>
      <trkpt lat="46.02658" lon="4.56618">
        <ele>607.2</ele>
        <time>2022-06-26T05:04:27Z</time>
      </trkpt>
      <trkpt lat="46.02658" lon="4.56615">
        <ele>607.4</ele>
        <time>2022-06-26T05:04:28Z</time>
      </trkpt>
      <trkpt lat="46.02658" lon="4.56612">
        <ele>607.4</ele>
        <time>2022-06-26T05:04:29Z</time>
      </trkpt>
      <trkpt lat="46.02658" lon="4.56609">
        <ele>607.4</ele>
        <time>2022-06-26T05:04:30Z</time>
      </trkpt>
      <trkpt lat="46.02658" lon="4.56606">
        <ele>607.8</ele>
        <time>2022-06-26T05:04:31Z</time>
      </trkpt>
      <trkpt lat="46.02658" lon="4.56604">
        <ele>607.8</ele>
        <time>2022-06-26T05:04:32Z</time>
      </trkpt>
      <trkpt lat="46.02659" lon="4.56601">
        <ele>608.2</ele>
        <time>2022-06-26T05:04:33Z</time>
      </trkpt>
      <trkpt lat="46.02658" lon="4.56598">
        <ele>608.2</ele>
        <time>2022-06-26T05:04:34Z</time>
      </trkpt>
      <trkpt lat="46.02658" lon="4.56595">
        <ele>608.6</ele>
        <time>2022-06-26T05:04:35Z</time>
      </trkpt>
      <trkpt lat="46.02658" lon="4.56592">
        <ele>608.6</ele>
        <time>2022-06-26T05:04:36Z</time>
      </trkpt>
      <trkpt lat="46.02657" lon="4.56589">
        <ele>608.8</ele>
        <time>2022-06-26T05:04:37Z</time>
      </trkpt>
      <trkpt lat="46.02657" lon="4.56587">
        <ele>608.8</ele>
        <time>2022-06-26T05:04:38Z</time>
      </trkpt>
      <trkpt lat="46.02656" lon="4.56584">
        <ele>609.2</ele>
        <time>2022-06-26T05:04:39Z</time>
      </trkpt>
      <trkpt lat="46.02656" lon="4.56581">
        <ele>609.2</ele>
        <time>2022-06-26T05:04:40Z</time>
      </trkpt>
      <trkpt lat="46.02656" lon="4.56578">
        <ele>609.6</ele>
        <time>2022-06-26T05:04:41Z</time>
      </trkpt>
      <trkpt lat="46.02655" lon="4.56575">
        <ele>609.6</ele>
        <time>2022-06-26T05:04:42Z</time>
      </trkpt>
      <trkpt lat="46.02655" lon="4.56573">
        <ele>609.8</ele>
        <time>2022-06-26T05:04:43Z</time>
      </trkpt>
      <trkpt lat="46.02654" lon="4.5657">
        <ele>610</ele>
        <time>2022-06-26T05:04:44Z</time>
      </trkpt>
      <trkpt lat="46.02654" lon="4.56568">
        <ele>610</ele>
        <time>2022-06-26T05:04:45Z</time>
      </trkpt>
      <trkpt lat="46.02653" lon="4.56566">
        <ele>610.4</ele>
        <time>2022-06-26T05:04:46Z</time>
      </trkpt>
      <trkpt lat="46.02652" lon="4.56563">
        <ele>610.4</ele>
        <time>2022-06-26T05:04:47Z</time>
      </trkpt>
      <trkpt lat="46.02651" lon="4.56561">
        <ele>610.6</ele>
        <time>2022-06-26T05:04:48Z</time>
      </trkpt>
      <trkpt lat="46.0265" lon="4.5656">
        <ele>610.6</ele>
        <time>2022-06-26T05:04:49Z</time>
      </trkpt>
      <trkpt lat="46.02649" lon="4.56558">
        <ele>611</ele>
        <time>2022-06-26T05:04:50Z</time>
      </trkpt>
      <trkpt lat="46.02648" lon="4.56555">
        <ele>611</ele>
        <time>2022-06-26T05:04:51Z</time>
      </trkpt>
      <trkpt lat="46.02647" lon="4.56553">
        <ele>611.4</ele>
        <time>2022-06-26T05:04:52Z</time>
      </trkpt>
      <trkpt lat="46.02645" lon="4.56551">
        <ele>611.4</ele>
        <time>2022-06-26T05:04:53Z</time>
      </trkpt>
      <trkpt lat="46.02644" lon="4.56549">
        <ele>611.8</ele>
        <time>2022-06-26T05:04:54Z</time>
      </trkpt>
      <trkpt lat="46.02643" lon="4.56547">
        <ele>611.8</ele>
        <time>2022-06-26T05:04:55Z</time>
      </trkpt>
      <trkpt lat="46.02641" lon="4.56542">
        <ele>612</ele>
        <time>2022-06-26T05:04:56Z</time>
      </trkpt>
      <trkpt lat="46.0264" lon="4.5654">
        <ele>612</ele>
        <time>2022-06-26T05:04:57Z</time>
      </trkpt>
      <trkpt lat="46.02639" lon="4.56538">
        <ele>612.2</ele>
        <time>2022-06-26T05:04:58Z</time>
      </trkpt>
      <trkpt lat="46.02638" lon="4.56536">
        <ele>612.2</ele>
        <time>2022-06-26T05:04:59Z</time>
      </trkpt>
      <trkpt lat="46.02637" lon="4.56534">
        <ele>612.6</ele>
        <time>2022-06-26T05:05:00Z</time>
      </trkpt>
      <trkpt lat="46.02636" lon="4.56532">
        <ele>612.8</ele>
        <time>2022-06-26T05:05:01Z</time>
      </trkpt>
      <trkpt lat="46.02635" lon="4.5653">
        <ele>612.8</ele>
        <time>2022-06-26T05:05:02Z</time>
      </trkpt>
      <trkpt lat="46.02634" lon="4.56528">
        <ele>613</ele>
        <time>2022-06-26T05:05:03Z</time>
      </trkpt>
      <trkpt lat="46.02633" lon="4.56527">
        <ele>613</ele>
        <time>2022-06-26T05:05:04Z</time>
      </trkpt>
      <trkpt lat="46.02631" lon="4.56525">
        <ele>613.4</ele>
        <time>2022-06-26T05:05:05Z</time>
      </trkpt>
      <trkpt lat="46.0263" lon="4.56523">
        <ele>613.4</ele>
        <time>2022-06-26T05:05:06Z</time>
      </trkpt>
      <trkpt lat="46.02629" lon="4.56522">
        <ele>613.4</ele>
        <time>2022-06-26T05:05:07Z</time>
      </trkpt>
      <trkpt lat="46.02627" lon="4.5652">
        <ele>613.8</ele>
        <time>2022-06-26T05:05:08Z</time>
      </trkpt>
      <trkpt lat="46.02626" lon="4.56519">
        <ele>613.8</ele>
        <time>2022-06-26T05:05:09Z</time>
      </trkpt>
      <trkpt lat="46.02625" lon="4.56517">
        <ele>614</ele>
        <time>2022-06-26T05:05:10Z</time>
      </trkpt>
      <trkpt lat="46.02624" lon="4.56515">
        <ele>614</ele>
        <time>2022-06-26T05:05:11Z</time>
      </trkpt>
      <trkpt lat="46.02622" lon="4.56514">
        <ele>614.4</ele>
        <time>2022-06-26T05:05:12Z</time>
      </trkpt>
      <trkpt lat="46.02621" lon="4.56513">
        <ele>614.4</ele>
        <time>2022-06-26T05:05:13Z</time>
      </trkpt>
      <trkpt lat="46.02619" lon="4.56511">
        <ele>614.6</ele>
        <time>2022-06-26T05:05:14Z</time>
      </trkpt>
      <trkpt lat="46.02618" lon="4.56509">
        <ele>614.6</ele>
        <time>2022-06-26T05:05:15Z</time>
      </trkpt>
      <trkpt lat="46.02617" lon="4.56508">
        <ele>614.8</ele>
        <time>2022-06-26T05:05:16Z</time>
      </trkpt>
      <trkpt lat="46.02615" lon="4.56506">
        <ele>614.8</ele>
        <time>2022-06-26T05:05:17Z</time>
      </trkpt>
      <trkpt lat="46.02614" lon="4.56505">
        <ele>615.2</ele>
        <time>2022-06-26T05:05:18Z</time>
      </trkpt>
      <trkpt lat="46.02612" lon="4.56503">
        <ele>615.2</ele>
        <time>2022-06-26T05:05:19Z</time>
      </trkpt>
      <trkpt lat="46.0261" lon="4.56502">
        <ele>615.4</ele>
        <time>2022-06-26T05:05:20Z</time>
      </trkpt>
      <trkpt lat="46.02609" lon="4.565">
        <ele>615.4</ele>
        <time>2022-06-26T05:05:21Z</time>
      </trkpt>
      <trkpt lat="46.02607" lon="4.56498">
        <ele>615.4</ele>
        <time>2022-06-26T05:05:22Z</time>
      </trkpt>
      <trkpt lat="46.02606" lon="4.56497">
        <ele>615.8</ele>
        <time>2022-06-26T05:05:23Z</time>
      </trkpt>
      <trkpt lat="46.02604" lon="4.56495">
        <ele>615.8</ele>
        <time>2022-06-26T05:05:24Z</time>
      </trkpt>
      <trkpt lat="46.02603" lon="4.56493">
        <ele>616.2</ele>
        <time>2022-06-26T05:05:25Z</time>
      </trkpt>
      <trkpt lat="46.02601" lon="4.56492">
        <ele>616.2</ele>
        <time>2022-06-26T05:05:26Z</time>
      </trkpt>
      <trkpt lat="46.02599" lon="4.5649">
        <ele>616.4</ele>
        <time>2022-06-26T05:05:27Z</time>
      </trkpt>
      <trkpt lat="46.02597" lon="4.56488">
        <ele>616.4</ele>
        <time>2022-06-26T05:05:28Z</time>
      </trkpt>
      <trkpt lat="46.02596" lon="4.56487">
        <ele>616.8</ele>
        <time>2022-06-26T05:05:29Z</time>
      </trkpt>
      <trkpt lat="46.02594" lon="4.56485">
        <ele>616.8</ele>
        <time>2022-06-26T05:05:30Z</time>
      </trkpt>
      <trkpt lat="46.02593" lon="4.56484">
        <ele>617</ele>
        <time>2022-06-26T05:05:31Z</time>
      </trkpt>
      <trkpt lat="46.02591" lon="4.56482">
        <ele>617</ele>
        <time>2022-06-26T05:05:32Z</time>
      </trkpt>
      <trkpt lat="46.0259" lon="4.5648">
        <ele>617</ele>
        <time>2022-06-26T05:05:33Z</time>
      </trkpt>
      <trkpt lat="46.02588" lon="4.56478">
        <ele>617.4</ele>
        <time>2022-06-26T05:05:34Z</time>
      </trkpt>
      <trkpt lat="46.02587" lon="4.56476">
        <ele>617.4</ele>
        <time>2022-06-26T05:05:35Z</time>
      </trkpt>
      <trkpt lat="46.02585" lon="4.56474">
        <ele>617.4</ele>
        <time>2022-06-26T05:05:36Z</time>
      </trkpt>
      <trkpt lat="46.02584" lon="4.56472">
        <ele>617.6</ele>
        <time>2022-06-26T05:05:37Z</time>
      </trkpt>
      <trkpt lat="46.02582" lon="4.5647">
        <ele>617.6</ele>
        <time>2022-06-26T05:05:38Z</time>
      </trkpt>
      <trkpt lat="46.02581" lon="4.56468">
        <ele>618</ele>
        <time>2022-06-26T05:05:39Z</time>
      </trkpt>
      <trkpt lat="46.0258" lon="4.56466">
        <ele>618</ele>
        <time>2022-06-26T05:05:40Z</time>
      </trkpt>
      <trkpt lat="46.02579" lon="4.56464">
        <ele>618.2</ele>
        <time>2022-06-26T05:05:41Z</time>
      </trkpt>
      <trkpt lat="46.02578" lon="4.56462">
        <ele>618.2</ele>
        <time>2022-06-26T05:05:42Z</time>
      </trkpt>
      <trkpt lat="46.02577" lon="4.56459">
        <ele>618.6</ele>
        <time>2022-06-26T05:05:43Z</time>
      </trkpt>
      <trkpt lat="46.02576" lon="4.56457">
        <ele>618.6</ele>
        <time>2022-06-26T05:05:44Z</time>
      </trkpt>
      <trkpt lat="46.02575" lon="4.56455">
        <ele>618.8</ele>
        <time>2022-06-26T05:05:45Z</time>
      </trkpt>
      <trkpt lat="46.02574" lon="4.56453">
        <ele>618.8</ele>
        <time>2022-06-26T05:05:46Z</time>
      </trkpt>
      <trkpt lat="46.02573" lon="4.5645">
        <ele>619.2</ele>
        <time>2022-06-26T05:05:47Z</time>
      </trkpt>
      <trkpt lat="46.02572" lon="4.56448">
        <ele>619.2</ele>
        <time>2022-06-26T05:05:48Z</time>
      </trkpt>
      <trkpt lat="46.02571" lon="4.56446">
        <ele>619.6</ele>
        <time>2022-06-26T05:05:49Z</time>
      </trkpt>
      <trkpt lat="46.0257" lon="4.56444">
        <ele>619.6</ele>
        <time>2022-06-26T05:05:50Z</time>
      </trkpt>
      <trkpt lat="46.0257" lon="4.56442">
        <ele>619.8</ele>
        <time>2022-06-26T05:05:51Z</time>
      </trkpt>
      <trkpt lat="46.02569" lon="4.5644">
        <ele>620.2</ele>
        <time>2022-06-26T05:05:52Z</time>
      </trkpt>
      <trkpt lat="46.02569" lon="4.56438">
        <ele>620.2</ele>
        <time>2022-06-26T05:05:53Z</time>
      </trkpt>
      <trkpt lat="46.02568" lon="4.56436">
        <ele>620.6</ele>
        <time>2022-06-26T05:05:54Z</time>
      </trkpt>
      <trkpt lat="46.02567" lon="4.56434">
        <ele>620.6</ele>
        <time>2022-06-26T05:05:55Z</time>
      </trkpt>
      <trkpt lat="46.02566" lon="4.56432">
        <ele>620.6</ele>
        <time>2022-06-26T05:05:56Z</time>
      </trkpt>
      <trkpt lat="46.02565" lon="4.56429">
        <ele>620.8</ele>
        <time>2022-06-26T05:05:57Z</time>
      </trkpt>
      <trkpt lat="46.02565" lon="4.56426">
        <ele>621</ele>
        <time>2022-06-26T05:05:58Z</time>
      </trkpt>
      <trkpt lat="46.02564" lon="4.56423">
        <ele>621.2</ele>
        <time>2022-06-26T05:05:59Z</time>
      </trkpt>
      <trkpt lat="46.02563" lon="4.5642">
        <ele>621.2</ele>
        <time>2022-06-26T05:06:00Z</time>
      </trkpt>
      <trkpt lat="46.02563" lon="4.56417">
        <ele>621.6</ele>
        <time>2022-06-26T05:06:01Z</time>
      </trkpt>
      <trkpt lat="46.02563" lon="4.56415">
        <ele>621.6</ele>
        <time>2022-06-26T05:06:02Z</time>
      </trkpt>
      <trkpt lat="46.02562" lon="4.56412">
        <ele>622</ele>
        <time>2022-06-26T05:06:03Z</time>
      </trkpt>
      <trkpt lat="46.02562" lon="4.5641">
        <ele>622.2</ele>
        <time>2022-06-26T05:06:04Z</time>
      </trkpt>
      <trkpt lat="46.02561" lon="4.56408">
        <ele>622.4</ele>
        <time>2022-06-26T05:06:05Z</time>
      </trkpt>
      <trkpt lat="46.0256" lon="4.56406">
        <ele>622.6</ele>
        <time>2022-06-26T05:06:06Z</time>
      </trkpt>
      <trkpt lat="46.0256" lon="4.56403">
        <ele>622.8</ele>
        <time>2022-06-26T05:06:07Z</time>
      </trkpt>
      <trkpt lat="46.02559" lon="4.564">
        <ele>623.2</ele>
        <time>2022-06-26T05:06:08Z</time>
      </trkpt>
      <trkpt lat="46.02558" lon="4.56398">
        <ele>623.2</ele>
        <time>2022-06-26T05:06:09Z</time>
      </trkpt>
      <trkpt lat="46.02558" lon="4.56395">
        <ele>623.4</ele>
        <time>2022-06-26T05:06:10Z</time>
      </trkpt>
      <trkpt lat="46.02557" lon="4.56392">
        <ele>623.4</ele>
        <time>2022-06-26T05:06:11Z</time>
      </trkpt>
      <trkpt lat="46.02556" lon="4.56389">
        <ele>623.8</ele>
        <time>2022-06-26T05:06:12Z</time>
      </trkpt>
      <trkpt lat="46.02555" lon="4.56386">
        <ele>623.8</ele>
        <time>2022-06-26T05:06:13Z</time>
      </trkpt>
      <trkpt lat="46.02554" lon="4.56383">
        <ele>624.4</ele>
        <time>2022-06-26T05:06:14Z</time>
      </trkpt>
      <trkpt lat="46.02554" lon="4.5638">
        <ele>624.6</ele>
        <time>2022-06-26T05:06:15Z</time>
      </trkpt>
      <trkpt lat="46.02553" lon="4.56377">
        <ele>624.8</ele>
        <time>2022-06-26T05:06:16Z</time>
      </trkpt>
      <trkpt lat="46.02553" lon="4.56374">
        <ele>624.8</ele>
        <time>2022-06-26T05:06:17Z</time>
      </trkpt>
      <trkpt lat="46.02552" lon="4.56371">
        <ele>625.2</ele>
        <time>2022-06-26T05:06:18Z</time>
      </trkpt>
      <trkpt lat="46.02551" lon="4.56369">
        <ele>625.4</ele>
        <time>2022-06-26T05:06:19Z</time>
      </trkpt>
      <trkpt lat="46.02551" lon="4.56366">
        <ele>625.4</ele>
        <time>2022-06-26T05:06:20Z</time>
      </trkpt>
      <trkpt lat="46.0255" lon="4.56364">
        <ele>625.8</ele>
        <time>2022-06-26T05:06:21Z</time>
      </trkpt>
      <trkpt lat="46.0255" lon="4.56363">
        <ele>626</ele>
        <time>2022-06-26T05:06:22Z</time>
      </trkpt>
      <trkpt lat="46.02549" lon="4.5636">
        <ele>626.2</ele>
        <time>2022-06-26T05:06:23Z</time>
      </trkpt>
      <trkpt lat="46.02548" lon="4.56357">
        <ele>626.2</ele>
        <time>2022-06-26T05:06:24Z</time>
      </trkpt>
      <trkpt lat="46.02547" lon="4.56355">
        <ele>626.6</ele>
        <time>2022-06-26T05:06:25Z</time>
      </trkpt>
      <trkpt lat="46.02546" lon="4.56352">
        <ele>626.8</ele>
        <time>2022-06-26T05:06:26Z</time>
      </trkpt>
      <trkpt lat="46.02546" lon="4.5635">
        <ele>627</ele>
        <time>2022-06-26T05:06:27Z</time>
      </trkpt>
      <trkpt lat="46.02545" lon="4.56348">
        <ele>627</ele>
        <time>2022-06-26T05:06:28Z</time>
      </trkpt>
      <trkpt lat="46.02544" lon="4.56346">
        <ele>627.4</ele>
        <time>2022-06-26T05:06:29Z</time>
      </trkpt>
      <trkpt lat="46.02544" lon="4.56343">
        <ele>627.4</ele>
        <time>2022-06-26T05:06:30Z</time>
      </trkpt>
      <trkpt lat="46.02544" lon="4.56341">
        <ele>627.8</ele>
        <time>2022-06-26T05:06:31Z</time>
      </trkpt>
      <trkpt lat="46.02543" lon="4.56338">
        <ele>627.8</ele>
        <time>2022-06-26T05:06:32Z</time>
      </trkpt>
      <trkpt lat="46.02542" lon="4.56336">
        <ele>628.2</ele>
        <time>2022-06-26T05:06:33Z</time>
      </trkpt>
      <trkpt lat="46.02542" lon="4.56334">
        <ele>628.4</ele>
        <time>2022-06-26T05:06:34Z</time>
      </trkpt>
      <trkpt lat="46.02541" lon="4.56332">
        <ele>628.4</ele>
        <time>2022-06-26T05:06:35Z</time>
      </trkpt>
      <trkpt lat="46.0254" lon="4.56329">
        <ele>628.6</ele>
        <time>2022-06-26T05:06:36Z</time>
      </trkpt>
      <trkpt lat="46.0254" lon="4.56327">
        <ele>628.6</ele>
        <time>2022-06-26T05:06:37Z</time>
      </trkpt>
      <trkpt lat="46.02539" lon="4.56325">
        <ele>629</ele>
        <time>2022-06-26T05:06:38Z</time>
      </trkpt>
      <trkpt lat="46.02538" lon="4.56323">
        <ele>629</ele>
        <time>2022-06-26T05:06:39Z</time>
      </trkpt>
      <trkpt lat="46.02537" lon="4.56321">
        <ele>629.2</ele>
        <time>2022-06-26T05:06:40Z</time>
      </trkpt>
      <trkpt lat="46.02536" lon="4.56318">
        <ele>629.2</ele>
        <time>2022-06-26T05:06:41Z</time>
      </trkpt>
      <trkpt lat="46.02535" lon="4.56316">
        <ele>629.6</ele>
        <time>2022-06-26T05:06:42Z</time>
      </trkpt>
      <trkpt lat="46.02534" lon="4.56314">
        <ele>629.6</ele>
        <time>2022-06-26T05:06:43Z</time>
      </trkpt>
      <trkpt lat="46.02533" lon="4.56312">
        <ele>629.8</ele>
        <time>2022-06-26T05:06:44Z</time>
      </trkpt>
      <trkpt lat="46.02532" lon="4.5631">
        <ele>629.8</ele>
        <time>2022-06-26T05:06:45Z</time>
      </trkpt>
      <trkpt lat="46.0253" lon="4.56308">
        <ele>630.2</ele>
        <time>2022-06-26T05:06:46Z</time>
      </trkpt>
      <trkpt lat="46.02529" lon="4.56306">
        <ele>630.4</ele>
        <time>2022-06-26T05:06:47Z</time>
      </trkpt>
      <trkpt lat="46.02528" lon="4.56304">
        <ele>630.4</ele>
        <time>2022-06-26T05:06:48Z</time>
      </trkpt>
      <trkpt lat="46.02527" lon="4.56302">
        <ele>630.8</ele>
        <time>2022-06-26T05:06:49Z</time>
      </trkpt>
      <trkpt lat="46.02526" lon="4.563">
        <ele>631</ele>
        <time>2022-06-26T05:06:50Z</time>
      </trkpt>
      <trkpt lat="46.02524" lon="4.56298">
        <ele>631</ele>
        <time>2022-06-26T05:06:51Z</time>
      </trkpt>
      <trkpt lat="46.02523" lon="4.56296">
        <ele>631.2</ele>
        <time>2022-06-26T05:06:52Z</time>
      </trkpt>
      <trkpt lat="46.02522" lon="4.56294">
        <ele>631.6</ele>
        <time>2022-06-26T05:06:53Z</time>
      </trkpt>
      <trkpt lat="46.02521" lon="4.56292">
        <ele>631.6</ele>
        <time>2022-06-26T05:06:54Z</time>
      </trkpt>
      <trkpt lat="46.0252" lon="4.5629">
        <ele>631.8</ele>
        <time>2022-06-26T05:06:55Z</time>
      </trkpt>
      <trkpt lat="46.02519" lon="4.56288">
        <ele>631.8</ele>
        <time>2022-06-26T05:06:56Z</time>
      </trkpt>
      <trkpt lat="46.02517" lon="4.56286">
        <ele>632.2</ele>
        <time>2022-06-26T05:06:57Z</time>
      </trkpt>
      <trkpt lat="46.02516" lon="4.56284">
        <ele>632.2</ele>
        <time>2022-06-26T05:06:58Z</time>
      </trkpt>
      <trkpt lat="46.02515" lon="4.56282">
        <ele>632.4</ele>
        <time>2022-06-26T05:06:59Z</time>
      </trkpt>
      <trkpt lat="46.02514" lon="4.5628">
        <ele>632.4</ele>
        <time>2022-06-26T05:07:00Z</time>
      </trkpt>
      <trkpt lat="46.02513" lon="4.56278">
        <ele>632.8</ele>
        <time>2022-06-26T05:07:01Z</time>
      </trkpt>
      <trkpt lat="46.02512" lon="4.56277">
        <ele>632.8</ele>
        <time>2022-06-26T05:07:02Z</time>
      </trkpt>
      <trkpt lat="46.02511" lon="4.56275">
        <ele>633.2</ele>
        <time>2022-06-26T05:07:03Z</time>
      </trkpt>
      <trkpt lat="46.02509" lon="4.56274">
        <ele>633.2</ele>
        <time>2022-06-26T05:07:04Z</time>
      </trkpt>
      <trkpt lat="46.02508" lon="4.56273">
        <ele>633.4</ele>
        <time>2022-06-26T05:07:05Z</time>
      </trkpt>
      <trkpt lat="46.02507" lon="4.56272">
        <ele>633.6</ele>
        <time>2022-06-26T05:07:06Z</time>
      </trkpt>
      <trkpt lat="46.02505" lon="4.56271">
        <ele>633.6</ele>
        <time>2022-06-26T05:07:07Z</time>
      </trkpt>
      <trkpt lat="46.02504" lon="4.56269">
        <ele>633.8</ele>
        <time>2022-06-26T05:07:08Z</time>
      </trkpt>
      <trkpt lat="46.02502" lon="4.56268">
        <ele>633.8</ele>
        <time>2022-06-26T05:07:09Z</time>
      </trkpt>
      <trkpt lat="46.02501" lon="4.56266">
        <ele>633.8</ele>
        <time>2022-06-26T05:07:10Z</time>
      </trkpt>
      <trkpt lat="46.025" lon="4.56265">
        <ele>634.2</ele>
        <time>2022-06-26T05:07:11Z</time>
      </trkpt>
      <trkpt lat="46.02498" lon="4.56263">
        <ele>634.2</ele>
        <time>2022-06-26T05:07:12Z</time>
      </trkpt>
      <trkpt lat="46.02497" lon="4.56262">
        <ele>634.4</ele>
        <time>2022-06-26T05:07:13Z</time>
      </trkpt>
      <trkpt lat="46.02496" lon="4.5626">
        <ele>634.4</ele>
        <time>2022-06-26T05:07:14Z</time>
      </trkpt>
      <trkpt lat="46.02494" lon="4.56259">
        <ele>634.6</ele>
        <time>2022-06-26T05:07:15Z</time>
      </trkpt>
      <trkpt lat="46.02492" lon="4.56257">
        <ele>634.6</ele>
        <time>2022-06-26T05:07:16Z</time>
      </trkpt>
      <trkpt lat="46.02491" lon="4.56255">
        <ele>634.8</ele>
        <time>2022-06-26T05:07:17Z</time>
      </trkpt>
      <trkpt lat="46.02489" lon="4.56254">
        <ele>634.8</ele>
        <time>2022-06-26T05:07:18Z</time>
      </trkpt>
      <trkpt lat="46.02487" lon="4.56252">
        <ele>634.8</ele>
        <time>2022-06-26T05:07:19Z</time>
      </trkpt>
      <trkpt lat="46.02485" lon="4.5625">
        <ele>634.8</ele>
        <time>2022-06-26T05:07:20Z</time>
      </trkpt>
      <trkpt lat="46.02483" lon="4.56249">
        <ele>634.8</ele>
        <time>2022-06-26T05:07:21Z</time>
      </trkpt>
      <trkpt lat="46.02481" lon="4.56247">
        <ele>634.8</ele>
        <time>2022-06-26T05:07:22Z</time>
      </trkpt>
      <trkpt lat="46.0248" lon="4.56246">
        <ele>634.8</ele>
        <time>2022-06-26T05:07:23Z</time>
      </trkpt>
      <trkpt lat="46.02479" lon="4.56247">
        <ele>634.6</ele>
        <time>2022-06-26T05:07:24Z</time>
      </trkpt>
      <trkpt lat="46.02477" lon="4.56248">
        <ele>634.6</ele>
        <time>2022-06-26T05:07:25Z</time>
      </trkpt>
      <trkpt lat="46.02475" lon="4.5625">
        <ele>634.6</ele>
        <time>2022-06-26T05:07:26Z</time>
      </trkpt>
      <trkpt lat="46.02473" lon="4.56251">
        <ele>634.6</ele>
        <time>2022-06-26T05:07:27Z</time>
      </trkpt>
      <trkpt lat="46.02471" lon="4.56254">
        <ele>634.6</ele>
        <time>2022-06-26T05:07:28Z</time>
      </trkpt>
      <trkpt lat="46.02469" lon="4.56256">
        <ele>634.2</ele>
        <time>2022-06-26T05:07:29Z</time>
      </trkpt>
      <trkpt lat="46.02467" lon="4.5626">
        <ele>634.2</ele>
        <time>2022-06-26T05:07:30Z</time>
      </trkpt>
      <trkpt lat="46.02465" lon="4.56264">
        <ele>634</ele>
        <time>2022-06-26T05:07:31Z</time>
      </trkpt>
      <trkpt lat="46.02463" lon="4.56269">
        <ele>634</ele>
        <time>2022-06-26T05:07:32Z</time>
      </trkpt>
      <trkpt lat="46.0246" lon="4.56274">
        <ele>633.6</ele>
        <time>2022-06-26T05:07:33Z</time>
      </trkpt>
      <trkpt lat="46.02457" lon="4.56279">
        <ele>633.6</ele>
        <time>2022-06-26T05:07:34Z</time>
      </trkpt>
      <trkpt lat="46.02454" lon="4.56285">
        <ele>633.2</ele>
        <time>2022-06-26T05:07:35Z</time>
      </trkpt>
      <trkpt lat="46.02452" lon="4.56291">
        <ele>633</ele>
        <time>2022-06-26T05:07:36Z</time>
      </trkpt>
      <trkpt lat="46.02449" lon="4.56297">
        <ele>632.6</ele>
        <time>2022-06-26T05:07:37Z</time>
      </trkpt>
      <trkpt lat="46.02445" lon="4.56304">
        <ele>632.6</ele>
        <time>2022-06-26T05:07:38Z</time>
      </trkpt>
      <trkpt lat="46.02442" lon="4.56311">
        <ele>632.4</ele>
        <time>2022-06-26T05:07:39Z</time>
      </trkpt>
      <trkpt lat="46.02438" lon="4.56319">
        <ele>632.4</ele>
        <time>2022-06-26T05:07:40Z</time>
      </trkpt>
      <trkpt lat="46.02435" lon="4.56326">
        <ele>631.8</ele>
        <time>2022-06-26T05:07:41Z</time>
      </trkpt>
      <trkpt lat="46.02432" lon="4.56332">
        <ele>631.6</ele>
        <time>2022-06-26T05:07:42Z</time>
      </trkpt>
      <trkpt lat="46.02429" lon="4.56337">
        <ele>631.6</ele>
        <time>2022-06-26T05:07:43Z</time>
      </trkpt>
      <trkpt lat="46.02427" lon="4.56341">
        <ele>631.2</ele>
        <time>2022-06-26T05:07:44Z</time>
      </trkpt>
      <trkpt lat="46.02426" lon="4.56344">
        <ele>631</ele>
        <time>2022-06-26T05:07:45Z</time>
      </trkpt>
      <trkpt lat="46.02425" lon="4.56346">
        <ele>631</ele>
        <time>2022-06-26T05:07:46Z</time>
      </trkpt>
      <trkpt lat="46.02424" lon="4.56349">
        <ele>630.8</ele>
        <time>2022-06-26T05:07:47Z</time>
      </trkpt>
      <trkpt lat="46.02425" lon="4.56352">
        <ele>630.8</ele>
        <time>2022-06-26T05:07:48Z</time>
      </trkpt>
      <trkpt lat="46.02426" lon="4.56351">
        <ele>630.8</ele>
        <time>2022-06-26T05:07:49Z</time>
      </trkpt>
      <trkpt lat="46.02427" lon="4.56349">
        <ele>630.8</ele>
        <time>2022-06-26T05:07:50Z</time>
      </trkpt>
      <trkpt lat="46.02428" lon="4.56347">
        <ele>630.8</ele>
        <time>2022-06-26T05:07:51Z</time>
      </trkpt>
      <trkpt lat="46.02429" lon="4.56345">
        <ele>630.8</ele>
        <time>2022-06-26T05:07:52Z</time>
      </trkpt>
      <trkpt lat="46.02429" lon="4.56343">
        <ele>630.8</ele>
        <time>2022-06-26T05:07:53Z</time>
      </trkpt>
      <trkpt lat="46.0243" lon="4.5634">
        <ele>630.8</ele>
        <time>2022-06-26T05:07:54Z</time>
      </trkpt>
      <trkpt lat="46.02432" lon="4.56338">
        <ele>630.8</ele>
        <time>2022-06-26T05:07:55Z</time>
      </trkpt>
      <trkpt lat="46.02433" lon="4.56335">
        <ele>630.8</ele>
        <time>2022-06-26T05:07:56Z</time>
      </trkpt>
      <trkpt lat="46.02434" lon="4.56332">
        <ele>630.8</ele>
        <time>2022-06-26T05:07:57Z</time>
      </trkpt>
      <trkpt lat="46.02435" lon="4.56329">
        <ele>631</ele>
        <time>2022-06-26T05:07:58Z</time>
      </trkpt>
      <trkpt lat="46.02437" lon="4.56326">
        <ele>631</ele>
        <time>2022-06-26T05:07:59Z</time>
      </trkpt>
      <trkpt lat="46.02438" lon="4.56322">
        <ele>631.2</ele>
        <time>2022-06-26T05:08:00Z</time>
      </trkpt>
      <trkpt lat="46.0244" lon="4.56319">
        <ele>631.2</ele>
        <time>2022-06-26T05:08:01Z</time>
      </trkpt>
      <trkpt lat="46.02441" lon="4.56316">
        <ele>631.4</ele>
        <time>2022-06-26T05:08:02Z</time>
      </trkpt>
      <trkpt lat="46.02442" lon="4.56313">
        <ele>631.4</ele>
        <time>2022-06-26T05:08:03Z</time>
      </trkpt>
      <trkpt lat="46.02444" lon="4.56309">
        <ele>631.8</ele>
        <time>2022-06-26T05:08:04Z</time>
      </trkpt>
      <trkpt lat="46.02445" lon="4.56306">
        <ele>631.8</ele>
        <time>2022-06-26T05:08:05Z</time>
      </trkpt>
      <trkpt lat="46.02447" lon="4.56303">
        <ele>632</ele>
        <time>2022-06-26T05:08:06Z</time>
      </trkpt>
      <trkpt lat="46.02448" lon="4.563">
        <ele>632</ele>
        <time>2022-06-26T05:08:07Z</time>
      </trkpt>
      <trkpt lat="46.0245" lon="4.56297">
        <ele>632</ele>
        <time>2022-06-26T05:08:08Z</time>
      </trkpt>
      <trkpt lat="46.02451" lon="4.56293">
        <ele>632.4</ele>
        <time>2022-06-26T05:08:09Z</time>
      </trkpt>
      <trkpt lat="46.02453" lon="4.5629">
        <ele>632.4</ele>
        <time>2022-06-26T05:08:10Z</time>
      </trkpt>
      <trkpt lat="46.02454" lon="4.56287">
        <ele>632.4</ele>
        <time>2022-06-26T05:08:11Z</time>
      </trkpt>
      <trkpt lat="46.02456" lon="4.56284">
        <ele>632.6</ele>
        <time>2022-06-26T05:08:12Z</time>
      </trkpt>
      <trkpt lat="46.02458" lon="4.56281">
        <ele>632.6</ele>
        <time>2022-06-26T05:08:13Z</time>
      </trkpt>
      <trkpt lat="46.02459" lon="4.56278">
        <ele>633</ele>
        <time>2022-06-26T05:08:14Z</time>
      </trkpt>
      <trkpt lat="46.02461" lon="4.56275">
        <ele>633</ele>
        <time>2022-06-26T05:08:15Z</time>
      </trkpt>
      <trkpt lat="46.02462" lon="4.56272">
        <ele>633.2</ele>
        <time>2022-06-26T05:08:16Z</time>
      </trkpt>
      <trkpt lat="46.02463" lon="4.56269">
        <ele>633.2</ele>
        <time>2022-06-26T05:08:17Z</time>
      </trkpt>
      <trkpt lat="46.02465" lon="4.56266">
        <ele>633.6</ele>
        <time>2022-06-26T05:08:18Z</time>
      </trkpt>
      <trkpt lat="46.02467" lon="4.56263">
        <ele>633.6</ele>
        <time>2022-06-26T05:08:19Z</time>
      </trkpt>
      <trkpt lat="46.02468" lon="4.5626">
        <ele>633.8</ele>
        <time>2022-06-26T05:08:20Z</time>
      </trkpt>
      <trkpt lat="46.02469" lon="4.56257">
        <ele>633.8</ele>
        <time>2022-06-26T05:08:21Z</time>
      </trkpt>
      <trkpt lat="46.02471" lon="4.56254">
        <ele>634</ele>
        <time>2022-06-26T05:08:22Z</time>
      </trkpt>
      <trkpt lat="46.02472" lon="4.56251">
        <ele>634</ele>
        <time>2022-06-26T05:08:23Z</time>
      </trkpt>
      <trkpt lat="46.02474" lon="4.56248">
        <ele>634.4</ele>
        <time>2022-06-26T05:08:24Z</time>
      </trkpt>
      <trkpt lat="46.02475" lon="4.56245">
        <ele>634.4</ele>
        <time>2022-06-26T05:08:25Z</time>
      </trkpt>
      <trkpt lat="46.02477" lon="4.56243">
        <ele>634.6</ele>
        <time>2022-06-26T05:08:26Z</time>
      </trkpt>
      <trkpt lat="46.02478" lon="4.5624">
        <ele>634.6</ele>
        <time>2022-06-26T05:08:27Z</time>
      </trkpt>
      <trkpt lat="46.02479" lon="4.56237">
        <ele>634.8</ele>
        <time>2022-06-26T05:08:28Z</time>
      </trkpt>
      <trkpt lat="46.0248" lon="4.56234">
        <ele>634.8</ele>
        <time>2022-06-26T05:08:29Z</time>
      </trkpt>
      <trkpt lat="46.02481" lon="4.56232">
        <ele>635.2</ele>
        <time>2022-06-26T05:08:30Z</time>
      </trkpt>
      <trkpt lat="46.02481" lon="4.5623">
        <ele>635.2</ele>
        <time>2022-06-26T05:08:31Z</time>
      </trkpt>
      <trkpt lat="46.02481" lon="4.56228">
        <ele>635.4</ele>
        <time>2022-06-26T05:08:32Z</time>
      </trkpt>
      <trkpt lat="46.02481" lon="4.56226">
        <ele>635.4</ele>
        <time>2022-06-26T05:08:33Z</time>
      </trkpt>
      <trkpt lat="46.0248" lon="4.56225">
        <ele>635.4</ele>
        <time>2022-06-26T05:08:34Z</time>
      </trkpt>
      <trkpt lat="46.02478" lon="4.56225">
        <ele>635.4</ele>
        <time>2022-06-26T05:08:35Z</time>
      </trkpt>
      <trkpt lat="46.02477" lon="4.56226">
        <ele>635.4</ele>
        <time>2022-06-26T05:08:36Z</time>
      </trkpt>
      <trkpt lat="46.02474" lon="4.56228">
        <ele>635.4</ele>
        <time>2022-06-26T05:08:37Z</time>
      </trkpt>
      <trkpt lat="46.02471" lon="4.5623">
        <ele>635</ele>
        <time>2022-06-26T05:08:38Z</time>
      </trkpt>
      <trkpt lat="46.02468" lon="4.56232">
        <ele>634.8</ele>
        <time>2022-06-26T05:08:39Z</time>
      </trkpt>
      <trkpt lat="46.02464" lon="4.56235">
        <ele>634.4</ele>
        <time>2022-06-26T05:08:40Z</time>
      </trkpt>
      <trkpt lat="46.02461" lon="4.5624">
        <ele>633.8</ele>
        <time>2022-06-26T05:08:41Z</time>
      </trkpt>
      <trkpt lat="46.02457" lon="4.56244">
        <ele>633.2</ele>
        <time>2022-06-26T05:08:42Z</time>
      </trkpt>
      <trkpt lat="46.02454" lon="4.5625">
        <ele>632.4</ele>
        <time>2022-06-26T05:08:43Z</time>
      </trkpt>
      <trkpt lat="46.0245" lon="4.56255">
        <ele>631.8</ele>
        <time>2022-06-26T05:08:44Z</time>
      </trkpt>
      <trkpt lat="46.02446" lon="4.5626">
        <ele>631</ele>
        <time>2022-06-26T05:08:45Z</time>
      </trkpt>
      <trkpt lat="46.02443" lon="4.56266">
        <ele>630.2</ele>
        <time>2022-06-26T05:08:46Z</time>
      </trkpt>
      <trkpt lat="46.02439" lon="4.56272">
        <ele>629.6</ele>
        <time>2022-06-26T05:08:47Z</time>
      </trkpt>
      <trkpt lat="46.02434" lon="4.56278">
        <ele>628.8</ele>
        <time>2022-06-26T05:08:48Z</time>
      </trkpt>
      <trkpt lat="46.02429" lon="4.56285">
        <ele>627.8</ele>
        <time>2022-06-26T05:08:49Z</time>
      </trkpt>
      <trkpt lat="46.02424" lon="4.56292">
        <ele>627</ele>
        <time>2022-06-26T05:08:50Z</time>
      </trkpt>
      <trkpt lat="46.02418" lon="4.56299">
        <ele>626</ele>
        <time>2022-06-26T05:08:51Z</time>
      </trkpt>
      <trkpt lat="46.02413" lon="4.56307">
        <ele>625</ele>
        <time>2022-06-26T05:08:52Z</time>
      </trkpt>
      <trkpt lat="46.02407" lon="4.56315">
        <ele>624</ele>
        <time>2022-06-26T05:08:53Z</time>
      </trkpt>
      <trkpt lat="46.02401" lon="4.56323">
        <ele>623</ele>
        <time>2022-06-26T05:08:54Z</time>
      </trkpt>
      <trkpt lat="46.02395" lon="4.56331">
        <ele>622</ele>
        <time>2022-06-26T05:08:55Z</time>
      </trkpt>
      <trkpt lat="46.02389" lon="4.56339">
        <ele>621.2</ele>
        <time>2022-06-26T05:08:56Z</time>
      </trkpt>
      <trkpt lat="46.02383" lon="4.56346">
        <ele>620.2</ele>
        <time>2022-06-26T05:08:57Z</time>
      </trkpt>
      <trkpt lat="46.02376" lon="4.56354">
        <ele>619.4</ele>
        <time>2022-06-26T05:08:58Z</time>
      </trkpt>
      <trkpt lat="46.0237" lon="4.56362">
        <ele>618.4</ele>
        <time>2022-06-26T05:08:59Z</time>
      </trkpt>
      <trkpt lat="46.02364" lon="4.56369">
        <ele>617.4</ele>
        <time>2022-06-26T05:09:00Z</time>
      </trkpt>
      <trkpt lat="46.02357" lon="4.56376">
        <ele>616.2</ele>
        <time>2022-06-26T05:09:01Z</time>
      </trkpt>
      <trkpt lat="46.0235" lon="4.56383">
        <ele>615.2</ele>
        <time>2022-06-26T05:09:02Z</time>
      </trkpt>
      <trkpt lat="46.02342" lon="4.56389">
        <ele>614.4</ele>
        <time>2022-06-26T05:09:03Z</time>
      </trkpt>
      <trkpt lat="46.02335" lon="4.56395">
        <ele>613.4</ele>
        <time>2022-06-26T05:09:04Z</time>
      </trkpt>
      <trkpt lat="46.02327" lon="4.56402">
        <ele>612.6</ele>
        <time>2022-06-26T05:09:05Z</time>
      </trkpt>
      <trkpt lat="46.02319" lon="4.56408">
        <ele>611.8</ele>
        <time>2022-06-26T05:09:06Z</time>
      </trkpt>
      <trkpt lat="46.0231" lon="4.56414">
        <ele>611</ele>
        <time>2022-06-26T05:09:07Z</time>
      </trkpt>
      <trkpt lat="46.02302" lon="4.56421">
        <ele>610.4</ele>
        <time>2022-06-26T05:09:08Z</time>
      </trkpt>
      <trkpt lat="46.02293" lon="4.56427">
        <ele>609.6</ele>
        <time>2022-06-26T05:09:09Z</time>
      </trkpt>
      <trkpt lat="46.02285" lon="4.56433">
        <ele>609</ele>
        <time>2022-06-26T05:09:10Z</time>
      </trkpt>
      <trkpt lat="46.02277" lon="4.56438">
        <ele>608.2</ele>
        <time>2022-06-26T05:09:11Z</time>
      </trkpt>
      <trkpt lat="46.0227" lon="4.56443">
        <ele>607.4</ele>
        <time>2022-06-26T05:09:12Z</time>
      </trkpt>
      <trkpt lat="46.02263" lon="4.56447">
        <ele>606.6</ele>
        <time>2022-06-26T05:09:13Z</time>
      </trkpt>
      <trkpt lat="46.02256" lon="4.56451">
        <ele>606</ele>
        <time>2022-06-26T05:09:14Z</time>
      </trkpt>
      <trkpt lat="46.02249" lon="4.56454">
        <ele>605.4</ele>
        <time>2022-06-26T05:09:15Z</time>
      </trkpt>
      <trkpt lat="46.02243" lon="4.56458">
        <ele>604.8</ele>
        <time>2022-06-26T05:09:16Z</time>
      </trkpt>
      <trkpt lat="46.02237" lon="4.56462">
        <ele>604.2</ele>
        <time>2022-06-26T05:09:17Z</time>
      </trkpt>
      <trkpt lat="46.02232" lon="4.56465">
        <ele>603.6</ele>
        <time>2022-06-26T05:09:18Z</time>
      </trkpt>
      <trkpt lat="46.02227" lon="4.56468">
        <ele>603</ele>
        <time>2022-06-26T05:09:19Z</time>
      </trkpt>
      <trkpt lat="46.02223" lon="4.56471">
        <ele>602.2</ele>
        <time>2022-06-26T05:09:20Z</time>
      </trkpt>
      <trkpt lat="46.02218" lon="4.56473">
        <ele>601.6</ele>
        <time>2022-06-26T05:09:21Z</time>
      </trkpt>
      <trkpt lat="46.02214" lon="4.56476">
        <ele>601.2</ele>
        <time>2022-06-26T05:09:22Z</time>
      </trkpt>
      <trkpt lat="46.02209" lon="4.56479">
        <ele>600.6</ele>
        <time>2022-06-26T05:09:23Z</time>
      </trkpt>
      <trkpt lat="46.02204" lon="4.56482">
        <ele>599.8</ele>
        <time>2022-06-26T05:09:24Z</time>
      </trkpt>
      <trkpt lat="46.02199" lon="4.56486">
        <ele>599.2</ele>
        <time>2022-06-26T05:09:25Z</time>
      </trkpt>
      <trkpt lat="46.02194" lon="4.56489">
        <ele>598.6</ele>
        <time>2022-06-26T05:09:26Z</time>
      </trkpt>
      <trkpt lat="46.02188" lon="4.56493">
        <ele>597.8</ele>
        <time>2022-06-26T05:09:27Z</time>
      </trkpt>
      <trkpt lat="46.02181" lon="4.56498">
        <ele>597</ele>
        <time>2022-06-26T05:09:28Z</time>
      </trkpt>
      <trkpt lat="46.02174" lon="4.56503">
        <ele>596.2</ele>
        <time>2022-06-26T05:09:29Z</time>
      </trkpt>
      <trkpt lat="46.02167" lon="4.56508">
        <ele>595</ele>
        <time>2022-06-26T05:09:30Z</time>
      </trkpt>
      <trkpt lat="46.0216" lon="4.56513">
        <ele>594</ele>
        <time>2022-06-26T05:09:31Z</time>
      </trkpt>
      <trkpt lat="46.02152" lon="4.5652">
        <ele>592.8</ele>
        <time>2022-06-26T05:09:32Z</time>
      </trkpt>
      <trkpt lat="46.02145" lon="4.56526">
        <ele>591.6</ele>
        <time>2022-06-26T05:09:33Z</time>
      </trkpt>
      <trkpt lat="46.02137" lon="4.56532">
        <ele>590.4</ele>
        <time>2022-06-26T05:09:34Z</time>
      </trkpt>
      <trkpt lat="46.0213" lon="4.56537">
        <ele>589.2</ele>
        <time>2022-06-26T05:09:35Z</time>
      </trkpt>
      <trkpt lat="46.02124" lon="4.56543">
        <ele>588</ele>
        <time>2022-06-26T05:09:36Z</time>
      </trkpt>
      <trkpt lat="46.02118" lon="4.56547">
        <ele>587</ele>
        <time>2022-06-26T05:09:37Z</time>
      </trkpt>
      <trkpt lat="46.02113" lon="4.56552">
        <ele>585.8</ele>
        <time>2022-06-26T05:09:38Z</time>
      </trkpt>
      <trkpt lat="46.02109" lon="4.56555">
        <ele>585</ele>
        <time>2022-06-26T05:09:39Z</time>
      </trkpt>
      <trkpt lat="46.02105" lon="4.56558">
        <ele>584</ele>
        <time>2022-06-26T05:09:40Z</time>
      </trkpt>
      <trkpt lat="46.02102" lon="4.5656">
        <ele>583</ele>
        <time>2022-06-26T05:09:41Z</time>
      </trkpt>
      <trkpt lat="46.02101" lon="4.56561">
        <ele>582.4</ele>
        <time>2022-06-26T05:09:42Z</time>
      </trkpt>
      <trkpt lat="46.02101" lon="4.56562">
        <ele>581.8</ele>
        <time>2022-06-26T05:09:43Z</time>
      </trkpt>
      <trkpt lat="46.02096" lon="4.56565">
        <ele>580.4</ele>
        <time>2022-06-26T05:09:52Z</time>
      </trkpt>
      <trkpt lat="46.02093" lon="4.56568">
        <ele>580</ele>
        <time>2022-06-26T05:09:53Z</time>
      </trkpt>
      <trkpt lat="46.0209" lon="4.5657">
        <ele>580</ele>
        <time>2022-06-26T05:09:54Z</time>
      </trkpt>
      <trkpt lat="46.02085" lon="4.56572">
        <ele>579.6</ele>
        <time>2022-06-26T05:09:55Z</time>
      </trkpt>
      <trkpt lat="46.0208" lon="4.56575">
        <ele>579.2</ele>
        <time>2022-06-26T05:09:56Z</time>
      </trkpt>
      <trkpt lat="46.02075" lon="4.56577">
        <ele>578.6</ele>
        <time>2022-06-26T05:09:57Z</time>
      </trkpt>
      <trkpt lat="46.02071" lon="4.56579">
        <ele>578</ele>
        <time>2022-06-26T05:09:58Z</time>
      </trkpt>
      <trkpt lat="46.02067" lon="4.56582">
        <ele>577.2</ele>
        <time>2022-06-26T05:09:59Z</time>
      </trkpt>
      <trkpt lat="46.02063" lon="4.56584">
        <ele>576.6</ele>
        <time>2022-06-26T05:10:00Z</time>
      </trkpt>
      <trkpt lat="46.02061" lon="4.56584">
        <ele>576.2</ele>
        <time>2022-06-26T05:10:01Z</time>
      </trkpt>
      <trkpt lat="46.02058" lon="4.56583">
        <ele>575.6</ele>
        <time>2022-06-26T05:10:02Z</time>
      </trkpt>
      <trkpt lat="46.02056" lon="4.56581">
        <ele>575.2</ele>
        <time>2022-06-26T05:10:03Z</time>
      </trkpt>
      <trkpt lat="46.02055" lon="4.56576">
        <ele>574.6</ele>
        <time>2022-06-26T05:10:04Z</time>
      </trkpt>
      <trkpt lat="46.02055" lon="4.56569">
        <ele>574</ele>
        <time>2022-06-26T05:10:05Z</time>
      </trkpt>
      <trkpt lat="46.02056" lon="4.56562">
        <ele>573.6</ele>
        <time>2022-06-26T05:10:06Z</time>
      </trkpt>
      <trkpt lat="46.02058" lon="4.56555">
        <ele>573.2</ele>
        <time>2022-06-26T05:10:07Z</time>
      </trkpt>
      <trkpt lat="46.02061" lon="4.56547">
        <ele>572.8</ele>
        <time>2022-06-26T05:10:08Z</time>
      </trkpt>
      <trkpt lat="46.02064" lon="4.56539">
        <ele>572.4</ele>
        <time>2022-06-26T05:10:09Z</time>
      </trkpt>
      <trkpt lat="46.02068" lon="4.56531">
        <ele>572</ele>
        <time>2022-06-26T05:10:10Z</time>
      </trkpt>
      <trkpt lat="46.02071" lon="4.56523">
        <ele>571.8</ele>
        <time>2022-06-26T05:10:11Z</time>
      </trkpt>
      <trkpt lat="46.02075" lon="4.56514">
        <ele>571.4</ele>
        <time>2022-06-26T05:10:12Z</time>
      </trkpt>
      <trkpt lat="46.02079" lon="4.56505">
        <ele>571</ele>
        <time>2022-06-26T05:10:13Z</time>
      </trkpt>
      <trkpt lat="46.02084" lon="4.56497">
        <ele>570.4</ele>
        <time>2022-06-26T05:10:14Z</time>
      </trkpt>
      <trkpt lat="46.02088" lon="4.56488">
        <ele>570</ele>
        <time>2022-06-26T05:10:15Z</time>
      </trkpt>
      <trkpt lat="46.02092" lon="4.5648">
        <ele>569.6</ele>
        <time>2022-06-26T05:10:16Z</time>
      </trkpt>
      <trkpt lat="46.02096" lon="4.56471">
        <ele>569.2</ele>
        <time>2022-06-26T05:10:17Z</time>
      </trkpt>
      <trkpt lat="46.021" lon="4.56463">
        <ele>568.8</ele>
        <time>2022-06-26T05:10:18Z</time>
      </trkpt>
      <trkpt lat="46.02105" lon="4.56455">
        <ele>568.6</ele>
        <time>2022-06-26T05:10:19Z</time>
      </trkpt>
      <trkpt lat="46.02109" lon="4.56447">
        <ele>568</ele>
        <time>2022-06-26T05:10:20Z</time>
      </trkpt>
      <trkpt lat="46.02113" lon="4.56439">
        <ele>567.8</ele>
        <time>2022-06-26T05:10:21Z</time>
      </trkpt>
      <trkpt lat="46.02118" lon="4.56431">
        <ele>567.4</ele>
        <time>2022-06-26T05:10:22Z</time>
      </trkpt>
      <trkpt lat="46.02122" lon="4.56424">
        <ele>567</ele>
        <time>2022-06-26T05:10:23Z</time>
      </trkpt>
      <trkpt lat="46.02126" lon="4.56416">
        <ele>566.8</ele>
        <time>2022-06-26T05:10:24Z</time>
      </trkpt>
      <trkpt lat="46.02131" lon="4.56408">
        <ele>566.4</ele>
        <time>2022-06-26T05:10:25Z</time>
      </trkpt>
      <trkpt lat="46.02135" lon="4.56401">
        <ele>566</ele>
        <time>2022-06-26T05:10:26Z</time>
      </trkpt>
      <trkpt lat="46.0214" lon="4.56393">
        <ele>566</ele>
        <time>2022-06-26T05:10:27Z</time>
      </trkpt>
      <trkpt lat="46.02145" lon="4.56386">
        <ele>565.6</ele>
        <time>2022-06-26T05:10:28Z</time>
      </trkpt>
      <trkpt lat="46.0215" lon="4.56378">
        <ele>565.2</ele>
        <time>2022-06-26T05:10:29Z</time>
      </trkpt>
      <trkpt lat="46.02156" lon="4.5637">
        <ele>564.8</ele>
        <time>2022-06-26T05:10:30Z</time>
      </trkpt>
      <trkpt lat="46.02162" lon="4.56362">
        <ele>564.2</ele>
        <time>2022-06-26T05:10:31Z</time>
      </trkpt>
      <trkpt lat="46.02168" lon="4.56355">
        <ele>563.6</ele>
        <time>2022-06-26T05:10:32Z</time>
      </trkpt>
      <trkpt lat="46.02174" lon="4.56347">
        <ele>563</ele>
        <time>2022-06-26T05:10:33Z</time>
      </trkpt>
      <trkpt lat="46.0218" lon="4.56339">
        <ele>562.4</ele>
        <time>2022-06-26T05:10:34Z</time>
      </trkpt>
      <trkpt lat="46.02186" lon="4.56332">
        <ele>561.8</ele>
        <time>2022-06-26T05:10:35Z</time>
      </trkpt>
      <trkpt lat="46.02192" lon="4.56325">
        <ele>561.2</ele>
        <time>2022-06-26T05:10:36Z</time>
      </trkpt>
      <trkpt lat="46.02197" lon="4.56319">
        <ele>560.6</ele>
        <time>2022-06-26T05:10:37Z</time>
      </trkpt>
      <trkpt lat="46.02201" lon="4.56314">
        <ele>559.8</ele>
        <time>2022-06-26T05:10:38Z</time>
      </trkpt>
      <trkpt lat="46.02205" lon="4.56309">
        <ele>559.2</ele>
        <time>2022-06-26T05:10:39Z</time>
      </trkpt>
      <trkpt lat="46.02208" lon="4.56305">
        <ele>558.8</ele>
        <time>2022-06-26T05:10:40Z</time>
      </trkpt>
      <trkpt lat="46.02209" lon="4.563">
        <ele>558.2</ele>
        <time>2022-06-26T05:10:41Z</time>
      </trkpt>
      <trkpt lat="46.02209" lon="4.56294">
        <ele>557.8</ele>
        <time>2022-06-26T05:10:42Z</time>
      </trkpt>
      <trkpt lat="46.02207" lon="4.56288">
        <ele>557.4</ele>
        <time>2022-06-26T05:10:43Z</time>
      </trkpt>
      <trkpt lat="46.02204" lon="4.56283">
        <ele>557</ele>
        <time>2022-06-26T05:10:44Z</time>
      </trkpt>
      <trkpt lat="46.022" lon="4.56279">
        <ele>556.6</ele>
        <time>2022-06-26T05:10:45Z</time>
      </trkpt>
      <trkpt lat="46.02196" lon="4.56277">
        <ele>556.4</ele>
        <time>2022-06-26T05:10:46Z</time>
      </trkpt>
      <trkpt lat="46.02192" lon="4.56274">
        <ele>556.4</ele>
        <time>2022-06-26T05:10:47Z</time>
      </trkpt>
      <trkpt lat="46.02188" lon="4.56272">
        <ele>556.2</ele>
        <time>2022-06-26T05:10:48Z</time>
      </trkpt>
      <trkpt lat="46.02185" lon="4.5627">
        <ele>556.2</ele>
        <time>2022-06-26T05:10:49Z</time>
      </trkpt>
      <trkpt lat="46.02182" lon="4.56268">
        <ele>556.2</ele>
        <time>2022-06-26T05:10:50Z</time>
      </trkpt>
      <trkpt lat="46.02179" lon="4.56266">
        <ele>556.2</ele>
        <time>2022-06-26T05:10:51Z</time>
      </trkpt>
      <trkpt lat="46.02175" lon="4.56264">
        <ele>556.2</ele>
        <time>2022-06-26T05:10:52Z</time>
      </trkpt>
      <trkpt lat="46.02171" lon="4.56262">
        <ele>556.2</ele>
        <time>2022-06-26T05:10:53Z</time>
      </trkpt>
      <trkpt lat="46.02167" lon="4.5626">
        <ele>556.2</ele>
        <time>2022-06-26T05:10:54Z</time>
      </trkpt>
      <trkpt lat="46.02162" lon="4.56259">
        <ele>556.2</ele>
        <time>2022-06-26T05:10:55Z</time>
      </trkpt>
      <trkpt lat="46.02158" lon="4.56258">
        <ele>556.2</ele>
        <time>2022-06-26T05:10:56Z</time>
      </trkpt>
      <trkpt lat="46.02152" lon="4.56258">
        <ele>556.2</ele>
        <time>2022-06-26T05:10:57Z</time>
      </trkpt>
      <trkpt lat="46.02147" lon="4.56257">
        <ele>556.2</ele>
        <time>2022-06-26T05:10:58Z</time>
      </trkpt>
      <trkpt lat="46.02141" lon="4.56256">
        <ele>555.8</ele>
        <time>2022-06-26T05:10:59Z</time>
      </trkpt>
      <trkpt lat="46.02136" lon="4.56256">
        <ele>555.8</ele>
        <time>2022-06-26T05:11:00Z</time>
      </trkpt>
      <trkpt lat="46.02131" lon="4.56254">
        <ele>555.4</ele>
        <time>2022-06-26T05:11:01Z</time>
      </trkpt>
      <trkpt lat="46.02126" lon="4.56253">
        <ele>555.4</ele>
        <time>2022-06-26T05:11:02Z</time>
      </trkpt>
      <trkpt lat="46.02121" lon="4.5625">
        <ele>555</ele>
        <time>2022-06-26T05:11:03Z</time>
      </trkpt>
      <trkpt lat="46.02117" lon="4.56247">
        <ele>555</ele>
        <time>2022-06-26T05:11:04Z</time>
      </trkpt>
      <trkpt lat="46.02113" lon="4.56244">
        <ele>554.4</ele>
        <time>2022-06-26T05:11:05Z</time>
      </trkpt>
      <trkpt lat="46.02108" lon="4.56241">
        <ele>554</ele>
        <time>2022-06-26T05:11:06Z</time>
      </trkpt>
      <trkpt lat="46.02104" lon="4.56237">
        <ele>553.6</ele>
        <time>2022-06-26T05:11:07Z</time>
      </trkpt>
      <trkpt lat="46.021" lon="4.56234">
        <ele>553</ele>
        <time>2022-06-26T05:11:08Z</time>
      </trkpt>
      <trkpt lat="46.02097" lon="4.56232">
        <ele>552.4</ele>
        <time>2022-06-26T05:11:09Z</time>
      </trkpt>
      <trkpt lat="46.02094" lon="4.56229">
        <ele>551.8</ele>
        <time>2022-06-26T05:11:10Z</time>
      </trkpt>
      <trkpt lat="46.02093" lon="4.56228">
        <ele>551.4</ele>
        <time>2022-06-26T05:11:11Z</time>
      </trkpt>
      <trkpt lat="46.02092" lon="4.56227">
        <ele>551</ele>
        <time>2022-06-26T05:11:12Z</time>
      </trkpt>
      <trkpt lat="46.02091" lon="4.56227">
        <ele>550.6</ele>
        <time>2022-06-26T05:11:13Z</time>
      </trkpt>
      <trkpt lat="46.02087" lon="4.56225">
        <ele>549.8</ele>
        <time>2022-06-26T05:11:35Z</time>
      </trkpt>
      <trkpt lat="46.02085" lon="4.56224">
        <ele>549.8</ele>
        <time>2022-06-26T05:11:36Z</time>
      </trkpt>
      <trkpt lat="46.02082" lon="4.56224">
        <ele>549.8</ele>
        <time>2022-06-26T05:11:37Z</time>
      </trkpt>
      <trkpt lat="46.0208" lon="4.56223">
        <ele>549.8</ele>
        <time>2022-06-26T05:11:38Z</time>
      </trkpt>
      <trkpt lat="46.02077" lon="4.56222">
        <ele>549.8</ele>
        <time>2022-06-26T05:11:39Z</time>
      </trkpt>
      <trkpt lat="46.02074" lon="4.56223">
        <ele>549.8</ele>
        <time>2022-06-26T05:11:40Z</time>
      </trkpt>
      <trkpt lat="46.02071" lon="4.56225">
        <ele>549.8</ele>
        <time>2022-06-26T05:11:41Z</time>
      </trkpt>
      <trkpt lat="46.02068" lon="4.56228">
        <ele>549.8</ele>
        <time>2022-06-26T05:11:42Z</time>
      </trkpt>
      <trkpt lat="46.02065" lon="4.56232">
        <ele>549.6</ele>
        <time>2022-06-26T05:11:43Z</time>
      </trkpt>
      <trkpt lat="46.02061" lon="4.56238">
        <ele>549.4</ele>
        <time>2022-06-26T05:11:44Z</time>
      </trkpt>
      <trkpt lat="46.02057" lon="4.56244">
        <ele>549</ele>
        <time>2022-06-26T05:11:45Z</time>
      </trkpt>
      <trkpt lat="46.02052" lon="4.56251">
        <ele>548.6</ele>
        <time>2022-06-26T05:11:46Z</time>
      </trkpt>
      <trkpt lat="46.02047" lon="4.56258">
        <ele>548.2</ele>
        <time>2022-06-26T05:11:47Z</time>
      </trkpt>
      <trkpt lat="46.02043" lon="4.56265">
        <ele>547.8</ele>
        <time>2022-06-26T05:11:48Z</time>
      </trkpt>
      <trkpt lat="46.02039" lon="4.56272">
        <ele>547.2</ele>
        <time>2022-06-26T05:11:49Z</time>
      </trkpt>
      <trkpt lat="46.02035" lon="4.56279">
        <ele>546.8</ele>
        <time>2022-06-26T05:11:50Z</time>
      </trkpt>
      <trkpt lat="46.0203" lon="4.56286">
        <ele>546.4</ele>
        <time>2022-06-26T05:11:51Z</time>
      </trkpt>
      <trkpt lat="46.02026" lon="4.56292">
        <ele>546</ele>
        <time>2022-06-26T05:11:52Z</time>
      </trkpt>
      <trkpt lat="46.02022" lon="4.56298">
        <ele>545.4</ele>
        <time>2022-06-26T05:11:53Z</time>
      </trkpt>
      <trkpt lat="46.02018" lon="4.56303">
        <ele>545</ele>
        <time>2022-06-26T05:11:54Z</time>
      </trkpt>
      <trkpt lat="46.02013" lon="4.56308">
        <ele>544.4</ele>
        <time>2022-06-26T05:11:55Z</time>
      </trkpt>
      <trkpt lat="46.02008" lon="4.56312">
        <ele>543.8</ele>
        <time>2022-06-26T05:11:56Z</time>
      </trkpt>
      <trkpt lat="46.02003" lon="4.56315">
        <ele>543.2</ele>
        <time>2022-06-26T05:11:57Z</time>
      </trkpt>
      <trkpt lat="46.01998" lon="4.56317">
        <ele>542.6</ele>
        <time>2022-06-26T05:11:58Z</time>
      </trkpt>
      <trkpt lat="46.01992" lon="4.56319">
        <ele>542</ele>
        <time>2022-06-26T05:11:59Z</time>
      </trkpt>
      <trkpt lat="46.01986" lon="4.56321">
        <ele>541.4</ele>
        <time>2022-06-26T05:12:00Z</time>
      </trkpt>
      <trkpt lat="46.0198" lon="4.56323">
        <ele>540.6</ele>
        <time>2022-06-26T05:12:01Z</time>
      </trkpt>
      <trkpt lat="46.01974" lon="4.56324">
        <ele>540</ele>
        <time>2022-06-26T05:12:02Z</time>
      </trkpt>
      <trkpt lat="46.01968" lon="4.56326">
        <ele>539.2</ele>
        <time>2022-06-26T05:12:03Z</time>
      </trkpt>
      <trkpt lat="46.01961" lon="4.56328">
        <ele>538.6</ele>
        <time>2022-06-26T05:12:04Z</time>
      </trkpt>
      <trkpt lat="46.01956" lon="4.56331">
        <ele>537.6</ele>
        <time>2022-06-26T05:12:05Z</time>
      </trkpt>
      <trkpt lat="46.01951" lon="4.56333">
        <ele>536.8</ele>
        <time>2022-06-26T05:12:06Z</time>
      </trkpt>
      <trkpt lat="46.01947" lon="4.56336">
        <ele>536.2</ele>
        <time>2022-06-26T05:12:07Z</time>
      </trkpt>
      <trkpt lat="46.01944" lon="4.56339">
        <ele>535.4</ele>
        <time>2022-06-26T05:12:08Z</time>
      </trkpt>
      <trkpt lat="46.01941" lon="4.56342">
        <ele>534.8</ele>
        <time>2022-06-26T05:12:09Z</time>
      </trkpt>
      <trkpt lat="46.0194" lon="4.56347">
        <ele>534.2</ele>
        <time>2022-06-26T05:12:10Z</time>
      </trkpt>
      <trkpt lat="46.0194" lon="4.56352">
        <ele>533.6</ele>
        <time>2022-06-26T05:12:11Z</time>
      </trkpt>
      <trkpt lat="46.01941" lon="4.56356">
        <ele>533</ele>
        <time>2022-06-26T05:12:12Z</time>
      </trkpt>
      <trkpt lat="46.01945" lon="4.56361">
        <ele>532.4</ele>
        <time>2022-06-26T05:12:13Z</time>
      </trkpt>
      <trkpt lat="46.0195" lon="4.56365">
        <ele>531.6</ele>
        <time>2022-06-26T05:12:14Z</time>
      </trkpt>
      <trkpt lat="46.01955" lon="4.56368">
        <ele>531.2</ele>
        <time>2022-06-26T05:12:15Z</time>
      </trkpt>
      <trkpt lat="46.0196" lon="4.56371">
        <ele>530.6</ele>
        <time>2022-06-26T05:12:16Z</time>
      </trkpt>
      <trkpt lat="46.01964" lon="4.56374">
        <ele>530</ele>
        <time>2022-06-26T05:12:17Z</time>
      </trkpt>
      <trkpt lat="46.01967" lon="4.56377">
        <ele>529.4</ele>
        <time>2022-06-26T05:12:18Z</time>
      </trkpt>
      <trkpt lat="46.01968" lon="4.56382">
        <ele>528.8</ele>
        <time>2022-06-26T05:12:19Z</time>
      </trkpt>
      <trkpt lat="46.01968" lon="4.56387">
        <ele>528.4</ele>
        <time>2022-06-26T05:12:20Z</time>
      </trkpt>
      <trkpt lat="46.01967" lon="4.56392">
        <ele>528</ele>
        <time>2022-06-26T05:12:21Z</time>
      </trkpt>
      <trkpt lat="46.01964" lon="4.56396">
        <ele>527.6</ele>
        <time>2022-06-26T05:12:23Z</time>
      </trkpt>
      <trkpt lat="46.01961" lon="4.56398">
        <ele>527.6</ele>
        <time>2022-06-26T05:12:24Z</time>
      </trkpt>
      <trkpt lat="46.01958" lon="4.56401">
        <ele>527.4</ele>
        <time>2022-06-26T05:12:25Z</time>
      </trkpt>
      <trkpt lat="46.01955" lon="4.56403">
        <ele>527.4</ele>
        <time>2022-06-26T05:12:26Z</time>
      </trkpt>
      <trkpt lat="46.01952" lon="4.56406">
        <ele>527.4</ele>
        <time>2022-06-26T05:12:27Z</time>
      </trkpt>
      <trkpt lat="46.01949" lon="4.56408">
        <ele>527.4</ele>
        <time>2022-06-26T05:12:28Z</time>
      </trkpt>
      <trkpt lat="46.01945" lon="4.56412">
        <ele>527.4</ele>
        <time>2022-06-26T05:12:29Z</time>
      </trkpt>
      <trkpt lat="46.01941" lon="4.56415">
        <ele>527.2</ele>
        <time>2022-06-26T05:12:30Z</time>
      </trkpt>
      <trkpt lat="46.01937" lon="4.56419">
        <ele>526.8</ele>
        <time>2022-06-26T05:12:31Z</time>
      </trkpt>
      <trkpt lat="46.01932" lon="4.56423">
        <ele>526.4</ele>
        <time>2022-06-26T05:12:32Z</time>
      </trkpt>
      <trkpt lat="46.01927" lon="4.56427">
        <ele>525.8</ele>
        <time>2022-06-26T05:12:33Z</time>
      </trkpt>
      <trkpt lat="46.01922" lon="4.5643">
        <ele>525.2</ele>
        <time>2022-06-26T05:12:34Z</time>
      </trkpt>
      <trkpt lat="46.01917" lon="4.56434">
        <ele>524.6</ele>
        <time>2022-06-26T05:12:35Z</time>
      </trkpt>
      <trkpt lat="46.01912" lon="4.56438">
        <ele>523.8</ele>
        <time>2022-06-26T05:12:36Z</time>
      </trkpt>
      <trkpt lat="46.01907" lon="4.56442">
        <ele>523</ele>
        <time>2022-06-26T05:12:37Z</time>
      </trkpt>
      <trkpt lat="46.01903" lon="4.56446">
        <ele>522.2</ele>
        <time>2022-06-26T05:12:38Z</time>
      </trkpt>
      <trkpt lat="46.01898" lon="4.5645">
        <ele>521.4</ele>
        <time>2022-06-26T05:12:39Z</time>
      </trkpt>
      <trkpt lat="46.01893" lon="4.56455">
        <ele>520.6</ele>
        <time>2022-06-26T05:12:40Z</time>
      </trkpt>
      <trkpt lat="46.01888" lon="4.56459">
        <ele>519.8</ele>
        <time>2022-06-26T05:12:41Z</time>
      </trkpt>
      <trkpt lat="46.01883" lon="4.56464">
        <ele>519</ele>
        <time>2022-06-26T05:12:42Z</time>
      </trkpt>
      <trkpt lat="46.01878" lon="4.56469">
        <ele>518.2</ele>
        <time>2022-06-26T05:12:43Z</time>
      </trkpt>
      <trkpt lat="46.01873" lon="4.56474">
        <ele>517.4</ele>
        <time>2022-06-26T05:12:44Z</time>
      </trkpt>
      <trkpt lat="46.01868" lon="4.56481">
        <ele>516.6</ele>
        <time>2022-06-26T05:12:45Z</time>
      </trkpt>
      <trkpt lat="46.01863" lon="4.56488">
        <ele>514.8</ele>
        <time>2022-06-26T05:12:46Z</time>
      </trkpt>
      <trkpt lat="46.01858" lon="4.56496">
        <ele>514</ele>
        <time>2022-06-26T05:12:47Z</time>
      </trkpt>
      <trkpt lat="46.01853" lon="4.56502">
        <ele>513.2</ele>
        <time>2022-06-26T05:12:48Z</time>
      </trkpt>
      <trkpt lat="46.01849" lon="4.56508">
        <ele>512.4</ele>
        <time>2022-06-26T05:12:49Z</time>
      </trkpt>
      <trkpt lat="46.01844" lon="4.56515">
        <ele>511.6</ele>
        <time>2022-06-26T05:12:50Z</time>
      </trkpt>
      <trkpt lat="46.01839" lon="4.56523">
        <ele>510.8</ele>
        <time>2022-06-26T05:12:51Z</time>
      </trkpt>
      <trkpt lat="46.01835" lon="4.5653">
        <ele>510</ele>
        <time>2022-06-26T05:12:52Z</time>
      </trkpt>
      <trkpt lat="46.0183" lon="4.56537">
        <ele>509.2</ele>
        <time>2022-06-26T05:12:53Z</time>
      </trkpt>
      <trkpt lat="46.01825" lon="4.56544">
        <ele>508.4</ele>
        <time>2022-06-26T05:12:54Z</time>
      </trkpt>
      <trkpt lat="46.01821" lon="4.56551">
        <ele>507.8</ele>
        <time>2022-06-26T05:12:55Z</time>
      </trkpt>
      <trkpt lat="46.01818" lon="4.56558">
        <ele>507.4</ele>
        <time>2022-06-26T05:12:56Z</time>
      </trkpt>
      <trkpt lat="46.01815" lon="4.56566">
        <ele>507</ele>
        <time>2022-06-26T05:12:57Z</time>
      </trkpt>
      <trkpt lat="46.01814" lon="4.56574">
        <ele>506.6</ele>
        <time>2022-06-26T05:12:58Z</time>
      </trkpt>
      <trkpt lat="46.01812" lon="4.56582">
        <ele>506</ele>
        <time>2022-06-26T05:12:59Z</time>
      </trkpt>
      <trkpt lat="46.01812" lon="4.56592">
        <ele>505.6</ele>
        <time>2022-06-26T05:13:00Z</time>
      </trkpt>
      <trkpt lat="46.01813" lon="4.56602">
        <ele>505</ele>
        <time>2022-06-26T05:13:01Z</time>
      </trkpt>
      <trkpt lat="46.01813" lon="4.56612">
        <ele>504.4</ele>
        <time>2022-06-26T05:13:02Z</time>
      </trkpt>
      <trkpt lat="46.01813" lon="4.56624">
        <ele>503.8</ele>
        <time>2022-06-26T05:13:03Z</time>
      </trkpt>
      <trkpt lat="46.01812" lon="4.56636">
        <ele>503.4</ele>
        <time>2022-06-26T05:13:04Z</time>
      </trkpt>
      <trkpt lat="46.01811" lon="4.56649">
        <ele>502.8</ele>
        <time>2022-06-26T05:13:05Z</time>
      </trkpt>
      <trkpt lat="46.0181" lon="4.56663">
        <ele>502.2</ele>
        <time>2022-06-26T05:13:06Z</time>
      </trkpt>
      <trkpt lat="46.01809" lon="4.56676">
        <ele>501.6</ele>
        <time>2022-06-26T05:13:07Z</time>
      </trkpt>
      <trkpt lat="46.01808" lon="4.5669">
        <ele>501.2</ele>
        <time>2022-06-26T05:13:08Z</time>
      </trkpt>
      <trkpt lat="46.01807" lon="4.56704">
        <ele>500.6</ele>
        <time>2022-06-26T05:13:09Z</time>
      </trkpt>
      <trkpt lat="46.01806" lon="4.56717">
        <ele>500</ele>
        <time>2022-06-26T05:13:10Z</time>
      </trkpt>
      <trkpt lat="46.01806" lon="4.5673">
        <ele>499.6</ele>
        <time>2022-06-26T05:13:11Z</time>
      </trkpt>
      <trkpt lat="46.01806" lon="4.56743">
        <ele>499</ele>
        <time>2022-06-26T05:13:12Z</time>
      </trkpt>
      <trkpt lat="46.01806" lon="4.56755">
        <ele>498.6</ele>
        <time>2022-06-26T05:13:13Z</time>
      </trkpt>
      <trkpt lat="46.01807" lon="4.56766">
        <ele>498</ele>
        <time>2022-06-26T05:13:14Z</time>
      </trkpt>
      <trkpt lat="46.01807" lon="4.56778">
        <ele>497.4</ele>
        <time>2022-06-26T05:13:15Z</time>
      </trkpt>
      <trkpt lat="46.01806" lon="4.56791">
        <ele>497</ele>
        <time>2022-06-26T05:13:16Z</time>
      </trkpt>
      <trkpt lat="46.01805" lon="4.56804">
        <ele>496.4</ele>
        <time>2022-06-26T05:13:17Z</time>
      </trkpt>
      <trkpt lat="46.01804" lon="4.56817">
        <ele>495.8</ele>
        <time>2022-06-26T05:13:18Z</time>
      </trkpt>
      <trkpt lat="46.01803" lon="4.56831">
        <ele>495.4</ele>
        <time>2022-06-26T05:13:19Z</time>
      </trkpt>
      <trkpt lat="46.01802" lon="4.56843">
        <ele>494.8</ele>
        <time>2022-06-26T05:13:20Z</time>
      </trkpt>
      <trkpt lat="46.01801" lon="4.56856">
        <ele>494.2</ele>
        <time>2022-06-26T05:13:21Z</time>
      </trkpt>
      <trkpt lat="46.018" lon="4.56868">
        <ele>493.8</ele>
        <time>2022-06-26T05:13:22Z</time>
      </trkpt>
      <trkpt lat="46.01799" lon="4.56879">
        <ele>493.2</ele>
        <time>2022-06-26T05:13:23Z</time>
      </trkpt>
      <trkpt lat="46.01799" lon="4.5689">
        <ele>492.6</ele>
        <time>2022-06-26T05:13:24Z</time>
      </trkpt>
      <trkpt lat="46.01798" lon="4.56899">
        <ele>492</ele>
        <time>2022-06-26T05:13:25Z</time>
      </trkpt>
      <trkpt lat="46.01799" lon="4.56909">
        <ele>491.2</ele>
        <time>2022-06-26T05:13:26Z</time>
      </trkpt>
      <trkpt lat="46.018" lon="4.56919">
        <ele>490.6</ele>
        <time>2022-06-26T05:13:27Z</time>
      </trkpt>
      <trkpt lat="46.01801" lon="4.56928">
        <ele>489.8</ele>
        <time>2022-06-26T05:13:28Z</time>
      </trkpt>
      <trkpt lat="46.01803" lon="4.56936">
        <ele>489</ele>
        <time>2022-06-26T05:13:29Z</time>
      </trkpt>
      <trkpt lat="46.01804" lon="4.56944">
        <ele>488.4</ele>
        <time>2022-06-26T05:13:30Z</time>
      </trkpt>
      <trkpt lat="46.01804" lon="4.56951">
        <ele>487.6</ele>
        <time>2022-06-26T05:13:31Z</time>
      </trkpt>
      <trkpt lat="46.01802" lon="4.56957">
        <ele>487.2</ele>
        <time>2022-06-26T05:13:32Z</time>
      </trkpt>
      <trkpt lat="46.01799" lon="4.56963">
        <ele>486.6</ele>
        <time>2022-06-26T05:13:33Z</time>
      </trkpt>
      <trkpt lat="46.01795" lon="4.56969">
        <ele>486.2</ele>
        <time>2022-06-26T05:13:34Z</time>
      </trkpt>
      <trkpt lat="46.01791" lon="4.56974">
        <ele>485.8</ele>
        <time>2022-06-26T05:13:35Z</time>
      </trkpt>
      <trkpt lat="46.01786" lon="4.5698">
        <ele>485.4</ele>
        <time>2022-06-26T05:13:36Z</time>
      </trkpt>
      <trkpt lat="46.01782" lon="4.56987">
        <ele>484.8</ele>
        <time>2022-06-26T05:13:37Z</time>
      </trkpt>
      <trkpt lat="46.01778" lon="4.56995">
        <ele>484.4</ele>
        <time>2022-06-26T05:13:38Z</time>
      </trkpt>
      <trkpt lat="46.01774" lon="4.57004">
        <ele>484</ele>
        <time>2022-06-26T05:13:39Z</time>
      </trkpt>
      <trkpt lat="46.01771" lon="4.57013">
        <ele>483.6</ele>
        <time>2022-06-26T05:13:40Z</time>
      </trkpt>
      <trkpt lat="46.01767" lon="4.57022">
        <ele>483</ele>
        <time>2022-06-26T05:13:41Z</time>
      </trkpt>
      <trkpt lat="46.01763" lon="4.57032">
        <ele>482.6</ele>
        <time>2022-06-26T05:13:42Z</time>
      </trkpt>
      <trkpt lat="46.01759" lon="4.57041">
        <ele>482.2</ele>
        <time>2022-06-26T05:13:43Z</time>
      </trkpt>
      <trkpt lat="46.01754" lon="4.57051">
        <ele>481.8</ele>
        <time>2022-06-26T05:13:44Z</time>
      </trkpt>
      <trkpt lat="46.0175" lon="4.5706">
        <ele>481.4</ele>
        <time>2022-06-26T05:13:45Z</time>
      </trkpt>
      <trkpt lat="46.01745" lon="4.5707">
        <ele>481</ele>
        <time>2022-06-26T05:13:46Z</time>
      </trkpt>
      <trkpt lat="46.01741" lon="4.57079">
        <ele>480.4</ele>
        <time>2022-06-26T05:13:47Z</time>
      </trkpt>
      <trkpt lat="46.01736" lon="4.57089">
        <ele>480</ele>
        <time>2022-06-26T05:13:48Z</time>
      </trkpt>
      <trkpt lat="46.01732" lon="4.57098">
        <ele>479.4</ele>
        <time>2022-06-26T05:13:49Z</time>
      </trkpt>
      <trkpt lat="46.01728" lon="4.57106">
        <ele>478.8</ele>
        <time>2022-06-26T05:13:50Z</time>
      </trkpt>
      <trkpt lat="46.01723" lon="4.57114">
        <ele>478.2</ele>
        <time>2022-06-26T05:13:51Z</time>
      </trkpt>
      <trkpt lat="46.01719" lon="4.57122">
        <ele>477.6</ele>
        <time>2022-06-26T05:13:52Z</time>
      </trkpt>
      <trkpt lat="46.01715" lon="4.57129">
        <ele>477.2</ele>
        <time>2022-06-26T05:13:53Z</time>
      </trkpt>
      <trkpt lat="46.01711" lon="4.57135">
        <ele>476.6</ele>
        <time>2022-06-26T05:13:54Z</time>
      </trkpt>
      <trkpt lat="46.01707" lon="4.57142">
        <ele>476.2</ele>
        <time>2022-06-26T05:13:55Z</time>
      </trkpt>
      <trkpt lat="46.01702" lon="4.57149">
        <ele>475.8</ele>
        <time>2022-06-26T05:13:56Z</time>
      </trkpt>
      <trkpt lat="46.01698" lon="4.57156">
        <ele>475.4</ele>
        <time>2022-06-26T05:13:57Z</time>
      </trkpt>
      <trkpt lat="46.01693" lon="4.57163">
        <ele>475</ele>
        <time>2022-06-26T05:13:58Z</time>
      </trkpt>
      <trkpt lat="46.01688" lon="4.57169">
        <ele>474.6</ele>
        <time>2022-06-26T05:13:59Z</time>
      </trkpt>
      <trkpt lat="46.01683" lon="4.57176">
        <ele>474.2</ele>
        <time>2022-06-26T05:14:00Z</time>
      </trkpt>
      <trkpt lat="46.01678" lon="4.57183">
        <ele>473.8</ele>
        <time>2022-06-26T05:14:01Z</time>
      </trkpt>
      <trkpt lat="46.01673" lon="4.57191">
        <ele>473.6</ele>
        <time>2022-06-26T05:14:02Z</time>
      </trkpt>
      <trkpt lat="46.01669" lon="4.572">
        <ele>473.4</ele>
        <time>2022-06-26T05:14:03Z</time>
      </trkpt>
      <trkpt lat="46.01665" lon="4.57208">
        <ele>473</ele>
        <time>2022-06-26T05:14:04Z</time>
      </trkpt>
      <trkpt lat="46.0166" lon="4.57215">
        <ele>472.8</ele>
        <time>2022-06-26T05:14:05Z</time>
      </trkpt>
      <trkpt lat="46.01657" lon="4.57223">
        <ele>472.6</ele>
        <time>2022-06-26T05:14:06Z</time>
      </trkpt>
      <trkpt lat="46.01653" lon="4.57229">
        <ele>472.4</ele>
        <time>2022-06-26T05:14:07Z</time>
      </trkpt>
      <trkpt lat="46.01649" lon="4.57235">
        <ele>472.2</ele>
        <time>2022-06-26T05:14:08Z</time>
      </trkpt>
      <trkpt lat="46.01645" lon="4.5724">
        <ele>471.8</ele>
        <time>2022-06-26T05:14:09Z</time>
      </trkpt>
      <trkpt lat="46.01641" lon="4.57244">
        <ele>471.4</ele>
        <time>2022-06-26T05:14:10Z</time>
      </trkpt>
      <trkpt lat="46.01636" lon="4.57247">
        <ele>471</ele>
        <time>2022-06-26T05:14:11Z</time>
      </trkpt>
      <trkpt lat="46.01631" lon="4.5725">
        <ele>470.6</ele>
        <time>2022-06-26T05:14:12Z</time>
      </trkpt>
      <trkpt lat="46.01627" lon="4.57254">
        <ele>470</ele>
        <time>2022-06-26T05:14:13Z</time>
      </trkpt>
      <trkpt lat="46.01622" lon="4.57257">
        <ele>469.4</ele>
        <time>2022-06-26T05:14:14Z</time>
      </trkpt>
      <trkpt lat="46.01616" lon="4.5726">
        <ele>469</ele>
        <time>2022-06-26T05:14:15Z</time>
      </trkpt>
      <trkpt lat="46.01611" lon="4.57264">
        <ele>468.4</ele>
        <time>2022-06-26T05:14:16Z</time>
      </trkpt>
      <trkpt lat="46.01605" lon="4.57269">
        <ele>468</ele>
        <time>2022-06-26T05:14:17Z</time>
      </trkpt>
      <trkpt lat="46.01599" lon="4.57273">
        <ele>467.4</ele>
        <time>2022-06-26T05:14:18Z</time>
      </trkpt>
      <trkpt lat="46.01594" lon="4.57277">
        <ele>466.8</ele>
        <time>2022-06-26T05:14:19Z</time>
      </trkpt>
      <trkpt lat="46.01587" lon="4.57283">
        <ele>466.4</ele>
        <time>2022-06-26T05:14:20Z</time>
      </trkpt>
      <trkpt lat="46.0158" lon="4.57288">
        <ele>465.8</ele>
        <time>2022-06-26T05:14:21Z</time>
      </trkpt>
      <trkpt lat="46.01575" lon="4.57294">
        <ele>465.4</ele>
        <time>2022-06-26T05:14:22Z</time>
      </trkpt>
      <trkpt lat="46.01569" lon="4.57301">
        <ele>465</ele>
        <time>2022-06-26T05:14:23Z</time>
      </trkpt>
      <trkpt lat="46.01564" lon="4.57306">
        <ele>464.4</ele>
        <time>2022-06-26T05:14:24Z</time>
      </trkpt>
      <trkpt lat="46.01558" lon="4.57312">
        <ele>464.2</ele>
        <time>2022-06-26T05:14:25Z</time>
      </trkpt>
      <trkpt lat="46.01553" lon="4.57318">
        <ele>463.8</ele>
        <time>2022-06-26T05:14:26Z</time>
      </trkpt>
      <trkpt lat="46.01548" lon="4.57325">
        <ele>463.4</ele>
        <time>2022-06-26T05:14:27Z</time>
      </trkpt>
      <trkpt lat="46.01543" lon="4.57332">
        <ele>463.2</ele>
        <time>2022-06-26T05:14:28Z</time>
      </trkpt>
      <trkpt lat="46.01538" lon="4.5734">
        <ele>462.8</ele>
        <time>2022-06-26T05:14:29Z</time>
      </trkpt>
      <trkpt lat="46.01534" lon="4.57348">
        <ele>462.4</ele>
        <time>2022-06-26T05:14:30Z</time>
      </trkpt>
      <trkpt lat="46.01529" lon="4.57357">
        <ele>462</ele>
        <time>2022-06-26T05:14:31Z</time>
      </trkpt>
      <trkpt lat="46.01524" lon="4.57366">
        <ele>461.8</ele>
        <time>2022-06-26T05:14:32Z</time>
      </trkpt>
      <trkpt lat="46.0152" lon="4.57375">
        <ele>461.4</ele>
        <time>2022-06-26T05:14:33Z</time>
      </trkpt>
      <trkpt lat="46.01516" lon="4.57383">
        <ele>461</ele>
        <time>2022-06-26T05:14:34Z</time>
      </trkpt>
      <trkpt lat="46.01512" lon="4.57391">
        <ele>460.6</ele>
        <time>2022-06-26T05:14:35Z</time>
      </trkpt>
      <trkpt lat="46.01507" lon="4.57398">
        <ele>460.4</ele>
        <time>2022-06-26T05:14:36Z</time>
      </trkpt>
      <trkpt lat="46.01502" lon="4.57405">
        <ele>460</ele>
        <time>2022-06-26T05:14:37Z</time>
      </trkpt>
      <trkpt lat="46.01497" lon="4.57412">
        <ele>459.6</ele>
        <time>2022-06-26T05:14:38Z</time>
      </trkpt>
      <trkpt lat="46.01491" lon="4.57419">
        <ele>459</ele>
        <time>2022-06-26T05:14:39Z</time>
      </trkpt>
      <trkpt lat="46.01486" lon="4.57426">
        <ele>458.6</ele>
        <time>2022-06-26T05:14:40Z</time>
      </trkpt>
      <trkpt lat="46.0148" lon="4.57433">
        <ele>458.2</ele>
        <time>2022-06-26T05:14:41Z</time>
      </trkpt>
      <trkpt lat="46.01475" lon="4.5744">
        <ele>457.8</ele>
        <time>2022-06-26T05:14:42Z</time>
      </trkpt>
      <trkpt lat="46.0147" lon="4.57446">
        <ele>457.4</ele>
        <time>2022-06-26T05:14:43Z</time>
      </trkpt>
      <trkpt lat="46.01466" lon="4.57453">
        <ele>457</ele>
        <time>2022-06-26T05:14:44Z</time>
      </trkpt>
      <trkpt lat="46.01461" lon="4.5746">
        <ele>456.6</ele>
        <time>2022-06-26T05:14:45Z</time>
      </trkpt>
      <trkpt lat="46.01456" lon="4.57466">
        <ele>456.2</ele>
        <time>2022-06-26T05:14:46Z</time>
      </trkpt>
      <trkpt lat="46.0145" lon="4.57473">
        <ele>455.8</ele>
        <time>2022-06-26T05:14:47Z</time>
      </trkpt>
      <trkpt lat="46.01444" lon="4.57479">
        <ele>455.6</ele>
        <time>2022-06-26T05:14:48Z</time>
      </trkpt>
      <trkpt lat="46.01438" lon="4.57485">
        <ele>455.2</ele>
        <time>2022-06-26T05:14:49Z</time>
      </trkpt>
      <trkpt lat="46.01433" lon="4.5749">
        <ele>455.2</ele>
        <time>2022-06-26T05:14:50Z</time>
      </trkpt>
      <trkpt lat="46.01428" lon="4.57496">
        <ele>454.6</ele>
        <time>2022-06-26T05:14:51Z</time>
      </trkpt>
      <trkpt lat="46.01423" lon="4.57501">
        <ele>454.4</ele>
        <time>2022-06-26T05:14:52Z</time>
      </trkpt>
      <trkpt lat="46.01418" lon="4.57506">
        <ele>454</ele>
        <time>2022-06-26T05:14:53Z</time>
      </trkpt>
      <trkpt lat="46.01413" lon="4.5751">
        <ele>453.6</ele>
        <time>2022-06-26T05:14:54Z</time>
      </trkpt>
      <trkpt lat="46.01408" lon="4.57514">
        <ele>453.4</ele>
        <time>2022-06-26T05:14:55Z</time>
      </trkpt>
      <trkpt lat="46.01403" lon="4.57518">
        <ele>453</ele>
        <time>2022-06-26T05:14:56Z</time>
      </trkpt>
      <trkpt lat="46.01398" lon="4.57522">
        <ele>452.8</ele>
        <time>2022-06-26T05:14:57Z</time>
      </trkpt>
      <trkpt lat="46.01393" lon="4.57527">
        <ele>452.4</ele>
        <time>2022-06-26T05:14:58Z</time>
      </trkpt>
      <trkpt lat="46.01388" lon="4.57532">
        <ele>452.2</ele>
        <time>2022-06-26T05:14:59Z</time>
      </trkpt>
      <trkpt lat="46.01383" lon="4.57537">
        <ele>451.8</ele>
        <time>2022-06-26T05:15:00Z</time>
      </trkpt>
      <trkpt lat="46.01379" lon="4.57543">
        <ele>451.4</ele>
        <time>2022-06-26T05:15:01Z</time>
      </trkpt>
      <trkpt lat="46.01374" lon="4.57548">
        <ele>451.4</ele>
        <time>2022-06-26T05:15:02Z</time>
      </trkpt>
      <trkpt lat="46.0137" lon="4.57555">
        <ele>450.8</ele>
        <time>2022-06-26T05:15:03Z</time>
      </trkpt>
      <trkpt lat="46.01367" lon="4.57561">
        <ele>450.6</ele>
        <time>2022-06-26T05:15:04Z</time>
      </trkpt>
      <trkpt lat="46.01362" lon="4.57567">
        <ele>450</ele>
        <time>2022-06-26T05:15:05Z</time>
      </trkpt>
      <trkpt lat="46.01358" lon="4.57573">
        <ele>449.8</ele>
        <time>2022-06-26T05:15:06Z</time>
      </trkpt>
      <trkpt lat="46.01354" lon="4.57581">
        <ele>449.6</ele>
        <time>2022-06-26T05:15:07Z</time>
      </trkpt>
      <trkpt lat="46.01349" lon="4.57588">
        <ele>449.4</ele>
        <time>2022-06-26T05:15:08Z</time>
      </trkpt>
      <trkpt lat="46.01345" lon="4.57597">
        <ele>448.8</ele>
        <time>2022-06-26T05:15:09Z</time>
      </trkpt>
      <trkpt lat="46.01341" lon="4.57605">
        <ele>448.4</ele>
        <time>2022-06-26T05:15:10Z</time>
      </trkpt>
      <trkpt lat="46.01337" lon="4.57613">
        <ele>448</ele>
        <time>2022-06-26T05:15:11Z</time>
      </trkpt>
      <trkpt lat="46.01332" lon="4.57621">
        <ele>447.8</ele>
        <time>2022-06-26T05:15:12Z</time>
      </trkpt>
      <trkpt lat="46.01328" lon="4.57629">
        <ele>447.4</ele>
        <time>2022-06-26T05:15:13Z</time>
      </trkpt>
      <trkpt lat="46.01325" lon="4.57637">
        <ele>447</ele>
        <time>2022-06-26T05:15:14Z</time>
      </trkpt>
      <trkpt lat="46.01322" lon="4.57644">
        <ele>446.6</ele>
        <time>2022-06-26T05:15:15Z</time>
      </trkpt>
      <trkpt lat="46.01319" lon="4.57652">
        <ele>446.4</ele>
        <time>2022-06-26T05:15:16Z</time>
      </trkpt>
      <trkpt lat="46.01315" lon="4.57658">
        <ele>446.2</ele>
        <time>2022-06-26T05:15:17Z</time>
      </trkpt>
      <trkpt lat="46.01312" lon="4.57664">
        <ele>446.2</ele>
        <time>2022-06-26T05:15:18Z</time>
      </trkpt>
      <trkpt lat="46.01308" lon="4.5767">
        <ele>445.6</ele>
        <time>2022-06-26T05:15:19Z</time>
      </trkpt>
      <trkpt lat="46.01304" lon="4.57677">
        <ele>445.4</ele>
        <time>2022-06-26T05:15:20Z</time>
      </trkpt>
      <trkpt lat="46.013" lon="4.57685">
        <ele>445.4</ele>
        <time>2022-06-26T05:15:21Z</time>
      </trkpt>
      <trkpt lat="46.01297" lon="4.57692">
        <ele>445</ele>
        <time>2022-06-26T05:15:22Z</time>
      </trkpt>
      <trkpt lat="46.01294" lon="4.57699">
        <ele>444.8</ele>
        <time>2022-06-26T05:15:23Z</time>
      </trkpt>
      <trkpt lat="46.01292" lon="4.57707">
        <ele>444.8</ele>
        <time>2022-06-26T05:15:24Z</time>
      </trkpt>
      <trkpt lat="46.01288" lon="4.57715">
        <ele>444.6</ele>
        <time>2022-06-26T05:15:25Z</time>
      </trkpt>
      <trkpt lat="46.01283" lon="4.57724">
        <ele>444.6</ele>
        <time>2022-06-26T05:15:26Z</time>
      </trkpt>
      <trkpt lat="46.01278" lon="4.57732">
        <ele>444.2</ele>
        <time>2022-06-26T05:15:27Z</time>
      </trkpt>
      <trkpt lat="46.01273" lon="4.5774">
        <ele>444</ele>
        <time>2022-06-26T05:15:28Z</time>
      </trkpt>
      <trkpt lat="46.01269" lon="4.57749">
        <ele>443.6</ele>
        <time>2022-06-26T05:15:29Z</time>
      </trkpt>
      <trkpt lat="46.01264" lon="4.57758">
        <ele>443.4</ele>
        <time>2022-06-26T05:15:30Z</time>
      </trkpt>
      <trkpt lat="46.01259" lon="4.57767">
        <ele>443.2</ele>
        <time>2022-06-26T05:15:31Z</time>
      </trkpt>
      <trkpt lat="46.01254" lon="4.57775">
        <ele>443.2</ele>
        <time>2022-06-26T05:15:32Z</time>
      </trkpt>
      <trkpt lat="46.01249" lon="4.57784">
        <ele>442.6</ele>
        <time>2022-06-26T05:15:33Z</time>
      </trkpt>
      <trkpt lat="46.01245" lon="4.57793">
        <ele>442.2</ele>
        <time>2022-06-26T05:15:34Z</time>
      </trkpt>
      <trkpt lat="46.0124" lon="4.57802">
        <ele>442</ele>
        <time>2022-06-26T05:15:35Z</time>
      </trkpt>
      <trkpt lat="46.01235" lon="4.5781">
        <ele>441.6</ele>
        <time>2022-06-26T05:15:36Z</time>
      </trkpt>
      <trkpt lat="46.01231" lon="4.57819">
        <ele>441.2</ele>
        <time>2022-06-26T05:15:37Z</time>
      </trkpt>
      <trkpt lat="46.01226" lon="4.57827">
        <ele>441</ele>
        <time>2022-06-26T05:15:38Z</time>
      </trkpt>
      <trkpt lat="46.01221" lon="4.57836">
        <ele>440.6</ele>
        <time>2022-06-26T05:15:39Z</time>
      </trkpt>
      <trkpt lat="46.01216" lon="4.57843">
        <ele>440.4</ele>
        <time>2022-06-26T05:15:40Z</time>
      </trkpt>
      <trkpt lat="46.01211" lon="4.57851">
        <ele>440.2</ele>
        <time>2022-06-26T05:15:41Z</time>
      </trkpt>
      <trkpt lat="46.01206" lon="4.57859">
        <ele>439.8</ele>
        <time>2022-06-26T05:15:42Z</time>
      </trkpt>
      <trkpt lat="46.01201" lon="4.57866">
        <ele>439.6</ele>
        <time>2022-06-26T05:15:43Z</time>
      </trkpt>
      <trkpt lat="46.01196" lon="4.57874">
        <ele>439.6</ele>
        <time>2022-06-26T05:15:44Z</time>
      </trkpt>
      <trkpt lat="46.01191" lon="4.57881">
        <ele>439.4</ele>
        <time>2022-06-26T05:15:45Z</time>
      </trkpt>
      <trkpt lat="46.01186" lon="4.57889">
        <ele>439</ele>
        <time>2022-06-26T05:15:46Z</time>
      </trkpt>
      <trkpt lat="46.01182" lon="4.57896">
        <ele>438.8</ele>
        <time>2022-06-26T05:15:47Z</time>
      </trkpt>
      <trkpt lat="46.01177" lon="4.57902">
        <ele>438.8</ele>
        <time>2022-06-26T05:15:48Z</time>
      </trkpt>
      <trkpt lat="46.01173" lon="4.57909">
        <ele>438.2</ele>
        <time>2022-06-26T05:15:49Z</time>
      </trkpt>
      <trkpt lat="46.01169" lon="4.57916">
        <ele>437.8</ele>
        <time>2022-06-26T05:15:50Z</time>
      </trkpt>
      <trkpt lat="46.01165" lon="4.57922">
        <ele>437.4</ele>
        <time>2022-06-26T05:15:51Z</time>
      </trkpt>
      <trkpt lat="46.0116" lon="4.57928">
        <ele>437</ele>
        <time>2022-06-26T05:15:52Z</time>
      </trkpt>
      <trkpt lat="46.01156" lon="4.57935">
        <ele>436.4</ele>
        <time>2022-06-26T05:15:53Z</time>
      </trkpt>
      <trkpt lat="46.01151" lon="4.57942">
        <ele>435.8</ele>
        <time>2022-06-26T05:15:54Z</time>
      </trkpt>
      <trkpt lat="46.01145" lon="4.57949">
        <ele>435.4</ele>
        <time>2022-06-26T05:15:55Z</time>
      </trkpt>
      <trkpt lat="46.0114" lon="4.57956">
        <ele>434.8</ele>
        <time>2022-06-26T05:15:56Z</time>
      </trkpt>
      <trkpt lat="46.01136" lon="4.57964">
        <ele>434.4</ele>
        <time>2022-06-26T05:15:57Z</time>
      </trkpt>
      <trkpt lat="46.01131" lon="4.57971">
        <ele>433.8</ele>
        <time>2022-06-26T05:15:58Z</time>
      </trkpt>
      <trkpt lat="46.01127" lon="4.57979">
        <ele>433.4</ele>
        <time>2022-06-26T05:15:59Z</time>
      </trkpt>
      <trkpt lat="46.01122" lon="4.57987">
        <ele>433</ele>
        <time>2022-06-26T05:16:00Z</time>
      </trkpt>
      <trkpt lat="46.01118" lon="4.57996">
        <ele>432.6</ele>
        <time>2022-06-26T05:16:01Z</time>
      </trkpt>
      <trkpt lat="46.01114" lon="4.58005">
        <ele>432.6</ele>
        <time>2022-06-26T05:16:02Z</time>
      </trkpt>
      <trkpt lat="46.01111" lon="4.58013">
        <ele>432.2</ele>
        <time>2022-06-26T05:16:03Z</time>
      </trkpt>
      <trkpt lat="46.01107" lon="4.58022">
        <ele>431.8</ele>
        <time>2022-06-26T05:16:04Z</time>
      </trkpt>
      <trkpt lat="46.01103" lon="4.58031">
        <ele>431.6</ele>
        <time>2022-06-26T05:16:05Z</time>
      </trkpt>
      <trkpt lat="46.01099" lon="4.58039">
        <ele>431.2</ele>
        <time>2022-06-26T05:16:06Z</time>
      </trkpt>
      <trkpt lat="46.01095" lon="4.58047">
        <ele>430.8</ele>
        <time>2022-06-26T05:16:07Z</time>
      </trkpt>
      <trkpt lat="46.01091" lon="4.58056">
        <ele>430.4</ele>
        <time>2022-06-26T05:16:08Z</time>
      </trkpt>
      <trkpt lat="46.01088" lon="4.58065">
        <ele>430</ele>
        <time>2022-06-26T05:16:09Z</time>
      </trkpt>
      <trkpt lat="46.01084" lon="4.58073">
        <ele>429.8</ele>
        <time>2022-06-26T05:16:10Z</time>
      </trkpt>
      <trkpt lat="46.01081" lon="4.5808">
        <ele>429.4</ele>
        <time>2022-06-26T05:16:11Z</time>
      </trkpt>
      <trkpt lat="46.01078" lon="4.58087">
        <ele>428.8</ele>
        <time>2022-06-26T05:16:12Z</time>
      </trkpt>
      <trkpt lat="46.01075" lon="4.58095">
        <ele>428.4</ele>
        <time>2022-06-26T05:16:13Z</time>
      </trkpt>
      <trkpt lat="46.01072" lon="4.58102">
        <ele>428</ele>
        <time>2022-06-26T05:16:14Z</time>
      </trkpt>
      <trkpt lat="46.01069" lon="4.58109">
        <ele>427.4</ele>
        <time>2022-06-26T05:16:15Z</time>
      </trkpt>
      <trkpt lat="46.01066" lon="4.58117">
        <ele>427</ele>
        <time>2022-06-26T05:16:16Z</time>
      </trkpt>
      <trkpt lat="46.01064" lon="4.58124">
        <ele>426.4</ele>
        <time>2022-06-26T05:16:17Z</time>
      </trkpt>
      <trkpt lat="46.01061" lon="4.58133">
        <ele>426</ele>
        <time>2022-06-26T05:16:18Z</time>
      </trkpt>
      <trkpt lat="46.01058" lon="4.58141">
        <ele>425.4</ele>
        <time>2022-06-26T05:16:19Z</time>
      </trkpt>
      <trkpt lat="46.01055" lon="4.58151">
        <ele>425</ele>
        <time>2022-06-26T05:16:20Z</time>
      </trkpt>
      <trkpt lat="46.01053" lon="4.58161">
        <ele>424.4</ele>
        <time>2022-06-26T05:16:21Z</time>
      </trkpt>
      <trkpt lat="46.01051" lon="4.58171">
        <ele>424</ele>
        <time>2022-06-26T05:16:22Z</time>
      </trkpt>
      <trkpt lat="46.0105" lon="4.58181">
        <ele>423.6</ele>
        <time>2022-06-26T05:16:23Z</time>
      </trkpt>
      <trkpt lat="46.01048" lon="4.58191">
        <ele>423</ele>
        <time>2022-06-26T05:16:24Z</time>
      </trkpt>
      <trkpt lat="46.01047" lon="4.582">
        <ele>422.4</ele>
        <time>2022-06-26T05:16:25Z</time>
      </trkpt>
      <trkpt lat="46.01046" lon="4.5821">
        <ele>422</ele>
        <time>2022-06-26T05:16:26Z</time>
      </trkpt>
      <trkpt lat="46.01045" lon="4.58219">
        <ele>421.4</ele>
        <time>2022-06-26T05:16:27Z</time>
      </trkpt>
      <trkpt lat="46.01044" lon="4.58228">
        <ele>421</ele>
        <time>2022-06-26T05:16:28Z</time>
      </trkpt>
      <trkpt lat="46.01045" lon="4.58237">
        <ele>420.4</ele>
        <time>2022-06-26T05:16:29Z</time>
      </trkpt>
      <trkpt lat="46.01046" lon="4.58246">
        <ele>420.2</ele>
        <time>2022-06-26T05:16:30Z</time>
      </trkpt>
      <trkpt lat="46.01047" lon="4.58254">
        <ele>419.8</ele>
        <time>2022-06-26T05:16:31Z</time>
      </trkpt>
      <trkpt lat="46.01049" lon="4.58263">
        <ele>419.6</ele>
        <time>2022-06-26T05:16:32Z</time>
      </trkpt>
      <trkpt lat="46.01051" lon="4.58273">
        <ele>419.2</ele>
        <time>2022-06-26T05:16:33Z</time>
      </trkpt>
      <trkpt lat="46.01053" lon="4.58282">
        <ele>418.8</ele>
        <time>2022-06-26T05:16:34Z</time>
      </trkpt>
      <trkpt lat="46.01054" lon="4.58291">
        <ele>418</ele>
        <time>2022-06-26T05:16:35Z</time>
      </trkpt>
      <trkpt lat="46.01056" lon="4.58299">
        <ele>417.6</ele>
        <time>2022-06-26T05:16:36Z</time>
      </trkpt>
      <trkpt lat="46.01056" lon="4.58308">
        <ele>417.2</ele>
        <time>2022-06-26T05:16:37Z</time>
      </trkpt>
      <trkpt lat="46.01057" lon="4.58317">
        <ele>416.8</ele>
        <time>2022-06-26T05:16:38Z</time>
      </trkpt>
      <trkpt lat="46.01057" lon="4.58325">
        <ele>416.8</ele>
        <time>2022-06-26T05:16:39Z</time>
      </trkpt>
      <trkpt lat="46.01056" lon="4.58333">
        <ele>416.4</ele>
        <time>2022-06-26T05:16:40Z</time>
      </trkpt>
      <trkpt lat="46.01054" lon="4.5834">
        <ele>416.8</ele>
        <time>2022-06-26T05:16:41Z</time>
      </trkpt>
      <trkpt lat="46.01052" lon="4.58348">
        <ele>416.2</ele>
        <time>2022-06-26T05:16:42Z</time>
      </trkpt>
      <trkpt lat="46.01049" lon="4.58357">
        <ele>415.8</ele>
        <time>2022-06-26T05:16:43Z</time>
      </trkpt>
      <trkpt lat="46.01046" lon="4.58365">
        <ele>415.2</ele>
        <time>2022-06-26T05:16:44Z</time>
      </trkpt>
      <trkpt lat="46.01044" lon="4.58374">
        <ele>414.8</ele>
        <time>2022-06-26T05:16:45Z</time>
      </trkpt>
      <trkpt lat="46.01041" lon="4.58381">
        <ele>414.4</ele>
        <time>2022-06-26T05:16:46Z</time>
      </trkpt>
      <trkpt lat="46.01038" lon="4.58388">
        <ele>413.8</ele>
        <time>2022-06-26T05:16:47Z</time>
      </trkpt>
      <trkpt lat="46.01036" lon="4.58397">
        <ele>413.4</ele>
        <time>2022-06-26T05:16:48Z</time>
      </trkpt>
      <trkpt lat="46.01034" lon="4.58407">
        <ele>412.6</ele>
        <time>2022-06-26T05:16:49Z</time>
      </trkpt>
      <trkpt lat="46.01032" lon="4.58418">
        <ele>412</ele>
        <time>2022-06-26T05:16:50Z</time>
      </trkpt>
      <trkpt lat="46.0103" lon="4.58431">
        <ele>411.6</ele>
        <time>2022-06-26T05:16:51Z</time>
      </trkpt>
      <trkpt lat="46.01027" lon="4.58444">
        <ele>410.8</ele>
        <time>2022-06-26T05:16:52Z</time>
      </trkpt>
      <trkpt lat="46.01025" lon="4.58457">
        <ele>410.4</ele>
        <time>2022-06-26T05:16:53Z</time>
      </trkpt>
      <trkpt lat="46.01022" lon="4.5847">
        <ele>409.8</ele>
        <time>2022-06-26T05:16:54Z</time>
      </trkpt>
      <trkpt lat="46.01019" lon="4.58482">
        <ele>409.2</ele>
        <time>2022-06-26T05:16:55Z</time>
      </trkpt>
      <trkpt lat="46.01017" lon="4.58493">
        <ele>408.8</ele>
        <time>2022-06-26T05:16:56Z</time>
      </trkpt>
      <trkpt lat="46.01014" lon="4.58503">
        <ele>408.4</ele>
        <time>2022-06-26T05:16:57Z</time>
      </trkpt>
      <trkpt lat="46.01012" lon="4.58512">
        <ele>408.2</ele>
        <time>2022-06-26T05:16:58Z</time>
      </trkpt>
      <trkpt lat="46.0101" lon="4.58521">
        <ele>408.2</ele>
        <time>2022-06-26T05:16:59Z</time>
      </trkpt>
      <trkpt lat="46.01008" lon="4.58529">
        <ele>407.8</ele>
        <time>2022-06-26T05:17:00Z</time>
      </trkpt>
      <trkpt lat="46.01006" lon="4.58536">
        <ele>407.8</ele>
        <time>2022-06-26T05:17:01Z</time>
      </trkpt>
      <trkpt lat="46.01003" lon="4.58542">
        <ele>407.8</ele>
        <time>2022-06-26T05:17:02Z</time>
      </trkpt>
      <trkpt lat="46.00999" lon="4.58548">
        <ele>407.6</ele>
        <time>2022-06-26T05:17:03Z</time>
      </trkpt>
      <trkpt lat="46.00995" lon="4.58552">
        <ele>407.6</ele>
        <time>2022-06-26T05:17:04Z</time>
      </trkpt>
      <trkpt lat="46.00989" lon="4.58559">
        <ele>406.6</ele>
        <time>2022-06-26T05:17:05Z</time>
      </trkpt>
      <trkpt lat="46.00987" lon="4.58561">
        <ele>406.6</ele>
        <time>2022-06-26T05:17:06Z</time>
      </trkpt>
      <trkpt lat="46.00983" lon="4.58565">
        <ele>406.8</ele>
        <time>2022-06-26T05:17:07Z</time>
      </trkpt>
      <trkpt lat="46.00979" lon="4.58569">
        <ele>406.8</ele>
        <time>2022-06-26T05:17:08Z</time>
      </trkpt>
      <trkpt lat="46.00976" lon="4.58575">
        <ele>406.8</ele>
        <time>2022-06-26T05:17:09Z</time>
      </trkpt>
      <trkpt lat="46.00972" lon="4.5858">
        <ele>406.8</ele>
        <time>2022-06-26T05:17:10Z</time>
      </trkpt>
      <trkpt lat="46.00969" lon="4.58585">
        <ele>406.8</ele>
        <time>2022-06-26T05:17:11Z</time>
      </trkpt>
      <trkpt lat="46.00965" lon="4.58591">
        <ele>406.6</ele>
        <time>2022-06-26T05:17:12Z</time>
      </trkpt>
      <trkpt lat="46.00962" lon="4.58596">
        <ele>406.6</ele>
        <time>2022-06-26T05:17:13Z</time>
      </trkpt>
      <trkpt lat="46.00959" lon="4.586">
        <ele>406.2</ele>
        <time>2022-06-26T05:17:14Z</time>
      </trkpt>
      <trkpt lat="46.00956" lon="4.58604">
        <ele>406.2</ele>
        <time>2022-06-26T05:17:15Z</time>
      </trkpt>
      <trkpt lat="46.00952" lon="4.58608">
        <ele>406</ele>
        <time>2022-06-26T05:17:16Z</time>
      </trkpt>
      <trkpt lat="46.00949" lon="4.58612">
        <ele>406</ele>
        <time>2022-06-26T05:17:17Z</time>
      </trkpt>
      <trkpt lat="46.00946" lon="4.58615">
        <ele>405.8</ele>
        <time>2022-06-26T05:17:18Z</time>
      </trkpt>
      <trkpt lat="46.00943" lon="4.58618">
        <ele>405.8</ele>
        <time>2022-06-26T05:17:19Z</time>
      </trkpt>
      <trkpt lat="46.00941" lon="4.58621">
        <ele>405.6</ele>
        <time>2022-06-26T05:17:20Z</time>
      </trkpt>
      <trkpt lat="46.00938" lon="4.58624">
        <ele>405.6</ele>
        <time>2022-06-26T05:17:21Z</time>
      </trkpt>
      <trkpt lat="46.00935" lon="4.58625">
        <ele>405.6</ele>
        <time>2022-06-26T05:17:22Z</time>
      </trkpt>
      <trkpt lat="46.00932" lon="4.58626">
        <ele>405.4</ele>
        <time>2022-06-26T05:17:23Z</time>
      </trkpt>
      <trkpt lat="46.00929" lon="4.58624">
        <ele>405.4</ele>
        <time>2022-06-26T05:17:24Z</time>
      </trkpt>
      <trkpt lat="46.00926" lon="4.58622">
        <ele>405.4</ele>
        <time>2022-06-26T05:17:25Z</time>
      </trkpt>
      <trkpt lat="46.00924" lon="4.58619">
        <ele>405.4</ele>
        <time>2022-06-26T05:17:26Z</time>
      </trkpt>
      <trkpt lat="46.00923" lon="4.58616">
        <ele>405.6</ele>
        <time>2022-06-26T05:17:27Z</time>
      </trkpt>
      <trkpt lat="46.00922" lon="4.58613">
        <ele>405.6</ele>
        <time>2022-06-26T05:17:28Z</time>
      </trkpt>
      <trkpt lat="46.00921" lon="4.58609">
        <ele>405.8</ele>
        <time>2022-06-26T05:17:29Z</time>
      </trkpt>
      <trkpt lat="46.0092" lon="4.58606">
        <ele>405.8</ele>
        <time>2022-06-26T05:17:30Z</time>
      </trkpt>
      <trkpt lat="46.00919" lon="4.58603">
        <ele>406</ele>
        <time>2022-06-26T05:17:31Z</time>
      </trkpt>
      <trkpt lat="46.00918" lon="4.58601">
        <ele>406</ele>
        <time>2022-06-26T05:17:32Z</time>
      </trkpt>
      <trkpt lat="46.00917" lon="4.58598">
        <ele>406.2</ele>
        <time>2022-06-26T05:17:33Z</time>
      </trkpt>
      <trkpt lat="46.00917" lon="4.58594">
        <ele>406.2</ele>
        <time>2022-06-26T05:17:34Z</time>
      </trkpt>
      <trkpt lat="46.00916" lon="4.58591">
        <ele>406.2</ele>
        <time>2022-06-26T05:17:35Z</time>
      </trkpt>
      <trkpt lat="46.00915" lon="4.58587">
        <ele>406.6</ele>
        <time>2022-06-26T05:17:36Z</time>
      </trkpt>
      <trkpt lat="46.00915" lon="4.58584">
        <ele>406.6</ele>
        <time>2022-06-26T05:17:37Z</time>
      </trkpt>
      <trkpt lat="46.00915" lon="4.58581">
        <ele>406.8</ele>
        <time>2022-06-26T05:17:38Z</time>
      </trkpt>
      <trkpt lat="46.00915" lon="4.58577">
        <ele>406.8</ele>
        <time>2022-06-26T05:17:39Z</time>
      </trkpt>
      <trkpt lat="46.00916" lon="4.58574">
        <ele>407.2</ele>
        <time>2022-06-26T05:17:40Z</time>
      </trkpt>
      <trkpt lat="46.00917" lon="4.5857">
        <ele>407.4</ele>
        <time>2022-06-26T05:17:41Z</time>
      </trkpt>
      <trkpt lat="46.00918" lon="4.58566">
        <ele>407.6</ele>
        <time>2022-06-26T05:17:42Z</time>
      </trkpt>
      <trkpt lat="46.00918" lon="4.58563">
        <ele>407.6</ele>
        <time>2022-06-26T05:17:43Z</time>
      </trkpt>
      <trkpt lat="46.00919" lon="4.5856">
        <ele>407.6</ele>
        <time>2022-06-26T05:17:44Z</time>
      </trkpt>
      <trkpt lat="46.0092" lon="4.58556">
        <ele>408</ele>
        <time>2022-06-26T05:17:45Z</time>
      </trkpt>
      <trkpt lat="46.0092" lon="4.58553">
        <ele>408</ele>
        <time>2022-06-26T05:17:46Z</time>
      </trkpt>
      <trkpt lat="46.00921" lon="4.58551">
        <ele>408.2</ele>
        <time>2022-06-26T05:17:47Z</time>
      </trkpt>
      <trkpt lat="46.00921" lon="4.58547">
        <ele>408.4</ele>
        <time>2022-06-26T05:17:48Z</time>
      </trkpt>
      <trkpt lat="46.00922" lon="4.58545">
        <ele>408.4</ele>
        <time>2022-06-26T05:17:49Z</time>
      </trkpt>
      <trkpt lat="46.00922" lon="4.58542">
        <ele>408.8</ele>
        <time>2022-06-26T05:17:50Z</time>
      </trkpt>
      <trkpt lat="46.00922" lon="4.58539">
        <ele>408.8</ele>
        <time>2022-06-26T05:17:51Z</time>
      </trkpt>
      <trkpt lat="46.00923" lon="4.58536">
        <ele>409</ele>
        <time>2022-06-26T05:17:52Z</time>
      </trkpt>
      <trkpt lat="46.00923" lon="4.58534">
        <ele>409</ele>
        <time>2022-06-26T05:17:53Z</time>
      </trkpt>
      <trkpt lat="46.00923" lon="4.58531">
        <ele>409.4</ele>
        <time>2022-06-26T05:17:54Z</time>
      </trkpt>
      <trkpt lat="46.00924" lon="4.58528">
        <ele>409.6</ele>
        <time>2022-06-26T05:17:55Z</time>
      </trkpt>
      <trkpt lat="46.00924" lon="4.58525">
        <ele>409.6</ele>
        <time>2022-06-26T05:17:56Z</time>
      </trkpt>
      <trkpt lat="46.00925" lon="4.58523">
        <ele>410</ele>
        <time>2022-06-26T05:17:57Z</time>
      </trkpt>
      <trkpt lat="46.00926" lon="4.5852">
        <ele>410.2</ele>
        <time>2022-06-26T05:17:58Z</time>
      </trkpt>
      <trkpt lat="46.00926" lon="4.58518">
        <ele>410.2</ele>
        <time>2022-06-26T05:17:59Z</time>
      </trkpt>
      <trkpt lat="46.00927" lon="4.58515">
        <ele>410.4</ele>
        <time>2022-06-26T05:18:00Z</time>
      </trkpt>
      <trkpt lat="46.00927" lon="4.58512">
        <ele>410.4</ele>
        <time>2022-06-26T05:18:01Z</time>
      </trkpt>
      <trkpt lat="46.00928" lon="4.58509">
        <ele>410.8</ele>
        <time>2022-06-26T05:18:02Z</time>
      </trkpt>
      <trkpt lat="46.00929" lon="4.58506">
        <ele>410.8</ele>
        <time>2022-06-26T05:18:03Z</time>
      </trkpt>
      <trkpt lat="46.0093" lon="4.58503">
        <ele>411</ele>
        <time>2022-06-26T05:18:04Z</time>
      </trkpt>
      <trkpt lat="46.00931" lon="4.585">
        <ele>411.4</ele>
        <time>2022-06-26T05:18:05Z</time>
      </trkpt>
      <trkpt lat="46.00932" lon="4.58497">
        <ele>411.4</ele>
        <time>2022-06-26T05:18:06Z</time>
      </trkpt>
      <trkpt lat="46.00933" lon="4.58494">
        <ele>411.6</ele>
        <time>2022-06-26T05:18:07Z</time>
      </trkpt>
      <trkpt lat="46.00934" lon="4.58491">
        <ele>411.6</ele>
        <time>2022-06-26T05:18:08Z</time>
      </trkpt>
      <trkpt lat="46.00934" lon="4.58488">
        <ele>411.8</ele>
        <time>2022-06-26T05:18:09Z</time>
      </trkpt>
      <trkpt lat="46.00935" lon="4.58485">
        <ele>411.8</ele>
        <time>2022-06-26T05:18:10Z</time>
      </trkpt>
      <trkpt lat="46.00936" lon="4.58482">
        <ele>412.2</ele>
        <time>2022-06-26T05:18:11Z</time>
      </trkpt>
      <trkpt lat="46.00937" lon="4.58479">
        <ele>412.2</ele>
        <time>2022-06-26T05:18:12Z</time>
      </trkpt>
      <trkpt lat="46.00938" lon="4.58476">
        <ele>412.2</ele>
        <time>2022-06-26T05:18:13Z</time>
      </trkpt>
      <trkpt lat="46.00938" lon="4.58473">
        <ele>412.6</ele>
        <time>2022-06-26T05:18:14Z</time>
      </trkpt>
      <trkpt lat="46.00939" lon="4.5847">
        <ele>412.6</ele>
        <time>2022-06-26T05:18:15Z</time>
      </trkpt>
      <trkpt lat="46.0094" lon="4.58467">
        <ele>412.8</ele>
        <time>2022-06-26T05:18:16Z</time>
      </trkpt>
      <trkpt lat="46.00941" lon="4.58463">
        <ele>413</ele>
        <time>2022-06-26T05:18:17Z</time>
      </trkpt>
      <trkpt lat="46.00941" lon="4.5846">
        <ele>413</ele>
        <time>2022-06-26T05:18:18Z</time>
      </trkpt>
      <trkpt lat="46.00942" lon="4.58457">
        <ele>413.2</ele>
        <time>2022-06-26T05:18:19Z</time>
      </trkpt>
      <trkpt lat="46.00943" lon="4.58454">
        <ele>413.2</ele>
        <time>2022-06-26T05:18:20Z</time>
      </trkpt>
      <trkpt lat="46.00944" lon="4.58451">
        <ele>413.6</ele>
        <time>2022-06-26T05:18:21Z</time>
      </trkpt>
      <trkpt lat="46.00945" lon="4.58448">
        <ele>413.6</ele>
        <time>2022-06-26T05:18:22Z</time>
      </trkpt>
      <trkpt lat="46.00945" lon="4.58445">
        <ele>414</ele>
        <time>2022-06-26T05:18:23Z</time>
      </trkpt>
      <trkpt lat="46.00945" lon="4.58442">
        <ele>414</ele>
        <time>2022-06-26T05:18:24Z</time>
      </trkpt>
      <trkpt lat="46.00946" lon="4.58439">
        <ele>414.2</ele>
        <time>2022-06-26T05:18:25Z</time>
      </trkpt>
      <trkpt lat="46.00947" lon="4.58436">
        <ele>414.2</ele>
        <time>2022-06-26T05:18:26Z</time>
      </trkpt>
      <trkpt lat="46.00947" lon="4.58433">
        <ele>414.6</ele>
        <time>2022-06-26T05:18:27Z</time>
      </trkpt>
      <trkpt lat="46.00948" lon="4.5843">
        <ele>414.6</ele>
        <time>2022-06-26T05:18:28Z</time>
      </trkpt>
      <trkpt lat="46.00949" lon="4.58427">
        <ele>414.8</ele>
        <time>2022-06-26T05:18:29Z</time>
      </trkpt>
      <trkpt lat="46.00949" lon="4.58424">
        <ele>414.8</ele>
        <time>2022-06-26T05:18:30Z</time>
      </trkpt>
      <trkpt lat="46.0095" lon="4.58421">
        <ele>415.2</ele>
        <time>2022-06-26T05:18:31Z</time>
      </trkpt>
      <trkpt lat="46.00951" lon="4.58418">
        <ele>415.2</ele>
        <time>2022-06-26T05:18:32Z</time>
      </trkpt>
      <trkpt lat="46.00951" lon="4.58415">
        <ele>415.4</ele>
        <time>2022-06-26T05:18:33Z</time>
      </trkpt>
      <trkpt lat="46.00952" lon="4.58412">
        <ele>415.4</ele>
        <time>2022-06-26T05:18:34Z</time>
      </trkpt>
      <trkpt lat="46.00952" lon="4.58409">
        <ele>415.8</ele>
        <time>2022-06-26T05:18:35Z</time>
      </trkpt>
      <trkpt lat="46.00953" lon="4.58406">
        <ele>415.8</ele>
        <time>2022-06-26T05:18:36Z</time>
      </trkpt>
      <trkpt lat="46.00953" lon="4.58403">
        <ele>416</ele>
        <time>2022-06-26T05:18:37Z</time>
      </trkpt>
      <trkpt lat="46.00953" lon="4.584">
        <ele>416</ele>
        <time>2022-06-26T05:18:38Z</time>
      </trkpt>
      <trkpt lat="46.00954" lon="4.58397">
        <ele>416.4</ele>
        <time>2022-06-26T05:18:39Z</time>
      </trkpt>
      <trkpt lat="46.00954" lon="4.58394">
        <ele>416.4</ele>
        <time>2022-06-26T05:18:40Z</time>
      </trkpt>
      <trkpt lat="46.00953" lon="4.58391">
        <ele>416.6</ele>
        <time>2022-06-26T05:18:41Z</time>
      </trkpt>
      <trkpt lat="46.00953" lon="4.58388">
        <ele>416.6</ele>
        <time>2022-06-26T05:18:42Z</time>
      </trkpt>
      <trkpt lat="46.00953" lon="4.58385">
        <ele>417</ele>
        <time>2022-06-26T05:18:43Z</time>
      </trkpt>
      <trkpt lat="46.00953" lon="4.58382">
        <ele>417</ele>
        <time>2022-06-26T05:18:44Z</time>
      </trkpt>
      <trkpt lat="46.00953" lon="4.58379">
        <ele>417.2</ele>
        <time>2022-06-26T05:18:45Z</time>
      </trkpt>
      <trkpt lat="46.00952" lon="4.58376">
        <ele>417.2</ele>
        <time>2022-06-26T05:18:46Z</time>
      </trkpt>
      <trkpt lat="46.00951" lon="4.58373">
        <ele>417.6</ele>
        <time>2022-06-26T05:18:47Z</time>
      </trkpt>
      <trkpt lat="46.0095" lon="4.5837">
        <ele>417.6</ele>
        <time>2022-06-26T05:18:48Z</time>
      </trkpt>
      <trkpt lat="46.00949" lon="4.58367">
        <ele>418</ele>
        <time>2022-06-26T05:18:49Z</time>
      </trkpt>
      <trkpt lat="46.00949" lon="4.58364">
        <ele>418</ele>
        <time>2022-06-26T05:18:50Z</time>
      </trkpt>
      <trkpt lat="46.00948" lon="4.58361">
        <ele>418.4</ele>
        <time>2022-06-26T05:18:51Z</time>
      </trkpt>
      <trkpt lat="46.00947" lon="4.58359">
        <ele>418.4</ele>
        <time>2022-06-26T05:18:52Z</time>
      </trkpt>
      <trkpt lat="46.00947" lon="4.58356">
        <ele>418.6</ele>
        <time>2022-06-26T05:18:53Z</time>
      </trkpt>
      <trkpt lat="46.00946" lon="4.58354">
        <ele>418.6</ele>
        <time>2022-06-26T05:18:54Z</time>
      </trkpt>
      <trkpt lat="46.00945" lon="4.58351">
        <ele>416.8</ele>
        <time>2022-06-26T05:18:55Z</time>
      </trkpt>
      <trkpt lat="46.00944" lon="4.58348">
        <ele>417.6</ele>
        <time>2022-06-26T05:18:56Z</time>
      </trkpt>
      <trkpt lat="46.00943" lon="4.58345">
        <ele>418.2</ele>
        <time>2022-06-26T05:18:57Z</time>
      </trkpt>
      <trkpt lat="46.00942" lon="4.58342">
        <ele>418.6</ele>
        <time>2022-06-26T05:18:58Z</time>
      </trkpt>
      <trkpt lat="46.00941" lon="4.58338">
        <ele>419</ele>
        <time>2022-06-26T05:18:59Z</time>
      </trkpt>
      <trkpt lat="46.0094" lon="4.58335">
        <ele>419.2</ele>
        <time>2022-06-26T05:19:00Z</time>
      </trkpt>
      <trkpt lat="46.00939" lon="4.58332">
        <ele>419.6</ele>
        <time>2022-06-26T05:19:01Z</time>
      </trkpt>
      <trkpt lat="46.00938" lon="4.58329">
        <ele>419.8</ele>
        <time>2022-06-26T05:19:02Z</time>
      </trkpt>
      <trkpt lat="46.00937" lon="4.58326">
        <ele>419.8</ele>
        <time>2022-06-26T05:19:03Z</time>
      </trkpt>
      <trkpt lat="46.00936" lon="4.58323">
        <ele>420.2</ele>
        <time>2022-06-26T05:19:04Z</time>
      </trkpt>
      <trkpt lat="46.00935" lon="4.5832">
        <ele>420.2</ele>
        <time>2022-06-26T05:19:05Z</time>
      </trkpt>
      <trkpt lat="46.00934" lon="4.58317">
        <ele>420.6</ele>
        <time>2022-06-26T05:19:06Z</time>
      </trkpt>
      <trkpt lat="46.00933" lon="4.58314">
        <ele>420.6</ele>
        <time>2022-06-26T05:19:07Z</time>
      </trkpt>
      <trkpt lat="46.00932" lon="4.58311">
        <ele>420.8</ele>
        <time>2022-06-26T05:19:08Z</time>
      </trkpt>
      <trkpt lat="46.00931" lon="4.58308">
        <ele>420.8</ele>
        <time>2022-06-26T05:19:09Z</time>
      </trkpt>
      <trkpt lat="46.0093" lon="4.58305">
        <ele>421.2</ele>
        <time>2022-06-26T05:19:10Z</time>
      </trkpt>
      <trkpt lat="46.00929" lon="4.58302">
        <ele>421.2</ele>
        <time>2022-06-26T05:19:11Z</time>
      </trkpt>
      <trkpt lat="46.00928" lon="4.58298">
        <ele>421.4</ele>
        <time>2022-06-26T05:19:12Z</time>
      </trkpt>
      <trkpt lat="46.00927" lon="4.58295">
        <ele>421.4</ele>
        <time>2022-06-26T05:19:13Z</time>
      </trkpt>
      <trkpt lat="46.00926" lon="4.58292">
        <ele>421.8</ele>
        <time>2022-06-26T05:19:14Z</time>
      </trkpt>
      <trkpt lat="46.00925" lon="4.58289">
        <ele>421.8</ele>
        <time>2022-06-26T05:19:15Z</time>
      </trkpt>
      <trkpt lat="46.00924" lon="4.58286">
        <ele>422.2</ele>
        <time>2022-06-26T05:19:16Z</time>
      </trkpt>
      <trkpt lat="46.00924" lon="4.58283">
        <ele>422.4</ele>
        <time>2022-06-26T05:19:17Z</time>
      </trkpt>
      <trkpt lat="46.00923" lon="4.5828">
        <ele>422.4</ele>
        <time>2022-06-26T05:19:18Z</time>
      </trkpt>
      <trkpt lat="46.00922" lon="4.58277">
        <ele>422.6</ele>
        <time>2022-06-26T05:19:19Z</time>
      </trkpt>
      <trkpt lat="46.00921" lon="4.58273">
        <ele>422.6</ele>
        <time>2022-06-26T05:19:20Z</time>
      </trkpt>
      <trkpt lat="46.00921" lon="4.5827">
        <ele>423</ele>
        <time>2022-06-26T05:19:21Z</time>
      </trkpt>
      <trkpt lat="46.0092" lon="4.58267">
        <ele>423</ele>
        <time>2022-06-26T05:19:22Z</time>
      </trkpt>
      <trkpt lat="46.0092" lon="4.58263">
        <ele>423.2</ele>
        <time>2022-06-26T05:19:23Z</time>
      </trkpt>
      <trkpt lat="46.00919" lon="4.5826">
        <ele>423.2</ele>
        <time>2022-06-26T05:19:24Z</time>
      </trkpt>
      <trkpt lat="46.00919" lon="4.58257">
        <ele>423.6</ele>
        <time>2022-06-26T05:19:25Z</time>
      </trkpt>
      <trkpt lat="46.00918" lon="4.58254">
        <ele>423.6</ele>
        <time>2022-06-26T05:19:26Z</time>
      </trkpt>
      <trkpt lat="46.00918" lon="4.58251">
        <ele>423.6</ele>
        <time>2022-06-26T05:19:27Z</time>
      </trkpt>
      <trkpt lat="46.00917" lon="4.58248">
        <ele>423.8</ele>
        <time>2022-06-26T05:19:28Z</time>
      </trkpt>
      <trkpt lat="46.00917" lon="4.58245">
        <ele>423.8</ele>
        <time>2022-06-26T05:19:29Z</time>
      </trkpt>
      <trkpt lat="46.00916" lon="4.58242">
        <ele>424.2</ele>
        <time>2022-06-26T05:19:30Z</time>
      </trkpt>
      <trkpt lat="46.00915" lon="4.58239">
        <ele>424.2</ele>
        <time>2022-06-26T05:19:31Z</time>
      </trkpt>
      <trkpt lat="46.00915" lon="4.58236">
        <ele>422.2</ele>
        <time>2022-06-26T05:19:32Z</time>
      </trkpt>
      <trkpt lat="46.00914" lon="4.58232">
        <ele>423.6</ele>
        <time>2022-06-26T05:19:33Z</time>
      </trkpt>
      <trkpt lat="46.00914" lon="4.58229">
        <ele>424.4</ele>
        <time>2022-06-26T05:19:34Z</time>
      </trkpt>
      <trkpt lat="46.00913" lon="4.58225">
        <ele>425.2</ele>
        <time>2022-06-26T05:19:35Z</time>
      </trkpt>
      <trkpt lat="46.00913" lon="4.58222">
        <ele>425.2</ele>
        <time>2022-06-26T05:19:36Z</time>
      </trkpt>
      <trkpt lat="46.00912" lon="4.58219">
        <ele>425.4</ele>
        <time>2022-06-26T05:19:37Z</time>
      </trkpt>
      <trkpt lat="46.00911" lon="4.58216">
        <ele>425.4</ele>
        <time>2022-06-26T05:19:38Z</time>
      </trkpt>
      <trkpt lat="46.00909" lon="4.58213">
        <ele>425.8</ele>
        <time>2022-06-26T05:19:39Z</time>
      </trkpt>
      <trkpt lat="46.00908" lon="4.58211">
        <ele>425.8</ele>
        <time>2022-06-26T05:19:40Z</time>
      </trkpt>
      <trkpt lat="46.00906" lon="4.58208">
        <ele>426</ele>
        <time>2022-06-26T05:19:41Z</time>
      </trkpt>
      <trkpt lat="46.00903" lon="4.58207">
        <ele>426</ele>
        <time>2022-06-26T05:19:42Z</time>
      </trkpt>
      <trkpt lat="46.00901" lon="4.58206">
        <ele>426</ele>
        <time>2022-06-26T05:19:43Z</time>
      </trkpt>
      <trkpt lat="46.00898" lon="4.58205">
        <ele>426.2</ele>
        <time>2022-06-26T05:19:44Z</time>
      </trkpt>
      <trkpt lat="46.00896" lon="4.58205">
        <ele>426.2</ele>
        <time>2022-06-26T05:19:45Z</time>
      </trkpt>
      <trkpt lat="46.00891" lon="4.58206">
        <ele>426.4</ele>
        <time>2022-06-26T05:19:46Z</time>
      </trkpt>
      <trkpt lat="46.00888" lon="4.58206">
        <ele>426.4</ele>
        <time>2022-06-26T05:19:47Z</time>
      </trkpt>
      <trkpt lat="46.00885" lon="4.58207">
        <ele>426.8</ele>
        <time>2022-06-26T05:19:48Z</time>
      </trkpt>
      <trkpt lat="46.00883" lon="4.58209">
        <ele>426.8</ele>
        <time>2022-06-26T05:19:49Z</time>
      </trkpt>
      <trkpt lat="46.00881" lon="4.5821">
        <ele>427</ele>
        <time>2022-06-26T05:19:50Z</time>
      </trkpt>
      <trkpt lat="46.00879" lon="4.58212">
        <ele>427</ele>
        <time>2022-06-26T05:19:51Z</time>
      </trkpt>
      <trkpt lat="46.00877" lon="4.58214">
        <ele>427.4</ele>
        <time>2022-06-26T05:19:52Z</time>
      </trkpt>
      <trkpt lat="46.00876" lon="4.58216">
        <ele>427.4</ele>
        <time>2022-06-26T05:19:53Z</time>
      </trkpt>
      <trkpt lat="46.00874" lon="4.58219">
        <ele>427.8</ele>
        <time>2022-06-26T05:19:54Z</time>
      </trkpt>
      <trkpt lat="46.00873" lon="4.58222">
        <ele>427.8</ele>
        <time>2022-06-26T05:19:55Z</time>
      </trkpt>
      <trkpt lat="46.00872" lon="4.58225">
        <ele>428.2</ele>
        <time>2022-06-26T05:19:56Z</time>
      </trkpt>
      <trkpt lat="46.0087" lon="4.58228">
        <ele>428.2</ele>
        <time>2022-06-26T05:19:57Z</time>
      </trkpt>
      <trkpt lat="46.00869" lon="4.58231">
        <ele>428.4</ele>
        <time>2022-06-26T05:19:58Z</time>
      </trkpt>
      <trkpt lat="46.00868" lon="4.58234">
        <ele>428.4</ele>
        <time>2022-06-26T05:19:59Z</time>
      </trkpt>
      <trkpt lat="46.00866" lon="4.58237">
        <ele>428.8</ele>
        <time>2022-06-26T05:20:00Z</time>
      </trkpt>
      <trkpt lat="46.00865" lon="4.58239">
        <ele>428.8</ele>
        <time>2022-06-26T05:20:01Z</time>
      </trkpt>
      <trkpt lat="46.00863" lon="4.58242">
        <ele>429</ele>
        <time>2022-06-26T05:20:02Z</time>
      </trkpt>
      <trkpt lat="46.00862" lon="4.58245">
        <ele>429</ele>
        <time>2022-06-26T05:20:03Z</time>
      </trkpt>
      <trkpt lat="46.0086" lon="4.58248">
        <ele>429.4</ele>
        <time>2022-06-26T05:20:04Z</time>
      </trkpt>
      <trkpt lat="46.00859" lon="4.5825">
        <ele>429.4</ele>
        <time>2022-06-26T05:20:05Z</time>
      </trkpt>
      <trkpt lat="46.00858" lon="4.58253">
        <ele>429.6</ele>
        <time>2022-06-26T05:20:06Z</time>
      </trkpt>
      <trkpt lat="46.00856" lon="4.58256">
        <ele>429.6</ele>
        <time>2022-06-26T05:20:07Z</time>
      </trkpt>
      <trkpt lat="46.00855" lon="4.5826">
        <ele>430</ele>
        <time>2022-06-26T05:20:08Z</time>
      </trkpt>
      <trkpt lat="46.00853" lon="4.58263">
        <ele>430</ele>
        <time>2022-06-26T05:20:09Z</time>
      </trkpt>
      <trkpt lat="46.00852" lon="4.58266">
        <ele>430.2</ele>
        <time>2022-06-26T05:20:10Z</time>
      </trkpt>
      <trkpt lat="46.0085" lon="4.58269">
        <ele>430.2</ele>
        <time>2022-06-26T05:20:11Z</time>
      </trkpt>
      <trkpt lat="46.00849" lon="4.58272">
        <ele>430.4</ele>
        <time>2022-06-26T05:20:12Z</time>
      </trkpt>
      <trkpt lat="46.00846" lon="4.58275">
        <ele>430.4</ele>
        <time>2022-06-26T05:20:13Z</time>
      </trkpt>
      <trkpt lat="46.00844" lon="4.58277">
        <ele>430.6</ele>
        <time>2022-06-26T05:20:14Z</time>
      </trkpt>
      <trkpt lat="46.00842" lon="4.5828">
        <ele>430.6</ele>
        <time>2022-06-26T05:20:15Z</time>
      </trkpt>
      <trkpt lat="46.00841" lon="4.58283">
        <ele>431</ele>
        <time>2022-06-26T05:20:16Z</time>
      </trkpt>
      <trkpt lat="46.00839" lon="4.58286">
        <ele>431</ele>
        <time>2022-06-26T05:20:17Z</time>
      </trkpt>
      <trkpt lat="46.00836" lon="4.58288">
        <ele>431.2</ele>
        <time>2022-06-26T05:20:18Z</time>
      </trkpt>
      <trkpt lat="46.00834" lon="4.5829">
        <ele>431.2</ele>
        <time>2022-06-26T05:20:19Z</time>
      </trkpt>
      <trkpt lat="46.00832" lon="4.58293">
        <ele>431.6</ele>
        <time>2022-06-26T05:20:20Z</time>
      </trkpt>
      <trkpt lat="46.00831" lon="4.58296">
        <ele>431.6</ele>
        <time>2022-06-26T05:20:21Z</time>
      </trkpt>
      <trkpt lat="46.00829" lon="4.58298">
        <ele>431.8</ele>
        <time>2022-06-26T05:20:22Z</time>
      </trkpt>
      <trkpt lat="46.00828" lon="4.58301">
        <ele>431.8</ele>
        <time>2022-06-26T05:20:23Z</time>
      </trkpt>
      <trkpt lat="46.00826" lon="4.58304">
        <ele>432.2</ele>
        <time>2022-06-26T05:20:24Z</time>
      </trkpt>
      <trkpt lat="46.00824" lon="4.58306">
        <ele>432.2</ele>
        <time>2022-06-26T05:20:25Z</time>
      </trkpt>
      <trkpt lat="46.00823" lon="4.58308">
        <ele>432.4</ele>
        <time>2022-06-26T05:20:26Z</time>
      </trkpt>
      <trkpt lat="46.00821" lon="4.58311">
        <ele>432.4</ele>
        <time>2022-06-26T05:20:27Z</time>
      </trkpt>
      <trkpt lat="46.00819" lon="4.58313">
        <ele>432.8</ele>
        <time>2022-06-26T05:20:28Z</time>
      </trkpt>
      <trkpt lat="46.00818" lon="4.58316">
        <ele>432.8</ele>
        <time>2022-06-26T05:20:29Z</time>
      </trkpt>
      <trkpt lat="46.00815" lon="4.58318">
        <ele>433</ele>
        <time>2022-06-26T05:20:30Z</time>
      </trkpt>
      <trkpt lat="46.00813" lon="4.58321">
        <ele>433.2</ele>
        <time>2022-06-26T05:20:31Z</time>
      </trkpt>
      <trkpt lat="46.00812" lon="4.58324">
        <ele>433.2</ele>
        <time>2022-06-26T05:20:32Z</time>
      </trkpt>
      <trkpt lat="46.00809" lon="4.58327">
        <ele>433.4</ele>
        <time>2022-06-26T05:20:33Z</time>
      </trkpt>
      <trkpt lat="46.00807" lon="4.58329">
        <ele>433.8</ele>
        <time>2022-06-26T05:20:34Z</time>
      </trkpt>
      <trkpt lat="46.00806" lon="4.58333">
        <ele>433.8</ele>
        <time>2022-06-26T05:20:35Z</time>
      </trkpt>
      <trkpt lat="46.00804" lon="4.58336">
        <ele>433.8</ele>
        <time>2022-06-26T05:20:36Z</time>
      </trkpt>
      <trkpt lat="46.00802" lon="4.58338">
        <ele>434</ele>
        <time>2022-06-26T05:20:37Z</time>
      </trkpt>
      <trkpt lat="46.008" lon="4.58341">
        <ele>434</ele>
        <time>2022-06-26T05:20:38Z</time>
      </trkpt>
      <trkpt lat="46.00798" lon="4.58344">
        <ele>434.4</ele>
        <time>2022-06-26T05:20:39Z</time>
      </trkpt>
      <trkpt lat="46.00796" lon="4.58347">
        <ele>434.4</ele>
        <time>2022-06-26T05:20:40Z</time>
      </trkpt>
      <trkpt lat="46.00793" lon="4.58349">
        <ele>434.6</ele>
        <time>2022-06-26T05:20:41Z</time>
      </trkpt>
      <trkpt lat="46.00792" lon="4.58352">
        <ele>434.6</ele>
        <time>2022-06-26T05:20:42Z</time>
      </trkpt>
      <trkpt lat="46.0079" lon="4.58354">
        <ele>435</ele>
        <time>2022-06-26T05:20:43Z</time>
      </trkpt>
      <trkpt lat="46.00788" lon="4.58356">
        <ele>435</ele>
        <time>2022-06-26T05:20:44Z</time>
      </trkpt>
      <trkpt lat="46.00787" lon="4.58358">
        <ele>435.2</ele>
        <time>2022-06-26T05:20:45Z</time>
      </trkpt>
      <trkpt lat="46.00786" lon="4.58359">
        <ele>435.2</ele>
        <time>2022-06-26T05:20:46Z</time>
      </trkpt>
      <trkpt lat="46.00785" lon="4.58362">
        <ele>435.2</ele>
        <time>2022-06-26T05:20:47Z</time>
      </trkpt>
      <trkpt lat="46.00783" lon="4.58365">
        <ele>435.6</ele>
        <time>2022-06-26T05:20:48Z</time>
      </trkpt>
      <trkpt lat="46.00782" lon="4.58367">
        <ele>435.6</ele>
        <time>2022-06-26T05:20:49Z</time>
      </trkpt>
      <trkpt lat="46.0078" lon="4.58369">
        <ele>436</ele>
        <time>2022-06-26T05:20:50Z</time>
      </trkpt>
      <trkpt lat="46.00779" lon="4.58371">
        <ele>436.2</ele>
        <time>2022-06-26T05:20:51Z</time>
      </trkpt>
      <trkpt lat="46.0078" lon="4.58374">
        <ele>436.2</ele>
        <time>2022-06-26T05:20:52Z</time>
      </trkpt>
      <trkpt lat="46.00778" lon="4.58377">
        <ele>436.6</ele>
        <time>2022-06-26T05:20:53Z</time>
      </trkpt>
      <trkpt lat="46.00777" lon="4.5838">
        <ele>436.8</ele>
        <time>2022-06-26T05:20:54Z</time>
      </trkpt>
      <trkpt lat="46.00777" lon="4.58383">
        <ele>437</ele>
        <time>2022-06-26T05:20:55Z</time>
      </trkpt>
      <trkpt lat="46.00776" lon="4.58386">
        <ele>437</ele>
        <time>2022-06-26T05:20:56Z</time>
      </trkpt>
      <trkpt lat="46.00775" lon="4.58389">
        <ele>437.2</ele>
        <time>2022-06-26T05:20:57Z</time>
      </trkpt>
      <trkpt lat="46.00774" lon="4.58393">
        <ele>437.2</ele>
        <time>2022-06-26T05:20:58Z</time>
      </trkpt>
      <trkpt lat="46.00772" lon="4.58396">
        <ele>437.4</ele>
        <time>2022-06-26T05:20:59Z</time>
      </trkpt>
      <trkpt lat="46.00771" lon="4.58398">
        <ele>437.4</ele>
        <time>2022-06-26T05:21:00Z</time>
      </trkpt>
      <trkpt lat="46.00769" lon="4.58401">
        <ele>437.4</ele>
        <time>2022-06-26T05:21:01Z</time>
      </trkpt>
      <trkpt lat="46.00768" lon="4.58404">
        <ele>437.8</ele>
        <time>2022-06-26T05:21:02Z</time>
      </trkpt>
      <trkpt lat="46.00766" lon="4.58407">
        <ele>437.8</ele>
        <time>2022-06-26T05:21:03Z</time>
      </trkpt>
      <trkpt lat="46.00764" lon="4.5841">
        <ele>437.8</ele>
        <time>2022-06-26T05:21:04Z</time>
      </trkpt>
      <trkpt lat="46.00763" lon="4.58412">
        <ele>438</ele>
        <time>2022-06-26T05:21:05Z</time>
      </trkpt>
      <trkpt lat="46.00761" lon="4.58415">
        <ele>438</ele>
        <time>2022-06-26T05:21:06Z</time>
      </trkpt>
      <trkpt lat="46.00759" lon="4.58418">
        <ele>438.2</ele>
        <time>2022-06-26T05:21:07Z</time>
      </trkpt>
      <trkpt lat="46.00757" lon="4.58421">
        <ele>438.2</ele>
        <time>2022-06-26T05:21:08Z</time>
      </trkpt>
      <trkpt lat="46.00755" lon="4.58424">
        <ele>438.6</ele>
        <time>2022-06-26T05:21:09Z</time>
      </trkpt>
      <trkpt lat="46.00753" lon="4.58426">
        <ele>438.6</ele>
        <time>2022-06-26T05:21:10Z</time>
      </trkpt>
      <trkpt lat="46.00751" lon="4.58428">
        <ele>439</ele>
        <time>2022-06-26T05:21:11Z</time>
      </trkpt>
      <trkpt lat="46.00749" lon="4.5843">
        <ele>439</ele>
        <time>2022-06-26T05:21:12Z</time>
      </trkpt>
      <trkpt lat="46.00747" lon="4.58433">
        <ele>439.2</ele>
        <time>2022-06-26T05:21:13Z</time>
      </trkpt>
      <trkpt lat="46.00745" lon="4.58435">
        <ele>439.4</ele>
        <time>2022-06-26T05:21:14Z</time>
      </trkpt>
      <trkpt lat="46.00743" lon="4.58437">
        <ele>439.4</ele>
        <time>2022-06-26T05:21:15Z</time>
      </trkpt>
      <trkpt lat="46.00741" lon="4.5844">
        <ele>439.8</ele>
        <time>2022-06-26T05:21:16Z</time>
      </trkpt>
      <trkpt lat="46.00739" lon="4.58442">
        <ele>439.8</ele>
        <time>2022-06-26T05:21:17Z</time>
      </trkpt>
      <trkpt lat="46.00737" lon="4.58444">
        <ele>440</ele>
        <time>2022-06-26T05:21:18Z</time>
      </trkpt>
      <trkpt lat="46.00735" lon="4.58445">
        <ele>440</ele>
        <time>2022-06-26T05:21:19Z</time>
      </trkpt>
      <trkpt lat="46.00733" lon="4.58447">
        <ele>440.4</ele>
        <time>2022-06-26T05:21:20Z</time>
      </trkpt>
      <trkpt lat="46.0073" lon="4.58449">
        <ele>440.4</ele>
        <time>2022-06-26T05:21:21Z</time>
      </trkpt>
      <trkpt lat="46.00728" lon="4.5845">
        <ele>440.6</ele>
        <time>2022-06-26T05:21:22Z</time>
      </trkpt>
      <trkpt lat="46.00726" lon="4.58452">
        <ele>440.6</ele>
        <time>2022-06-26T05:21:23Z</time>
      </trkpt>
      <trkpt lat="46.00723" lon="4.58454">
        <ele>440.8</ele>
        <time>2022-06-26T05:21:24Z</time>
      </trkpt>
      <trkpt lat="46.00721" lon="4.58456">
        <ele>440.8</ele>
        <time>2022-06-26T05:21:25Z</time>
      </trkpt>
      <trkpt lat="46.00719" lon="4.58457">
        <ele>441.2</ele>
        <time>2022-06-26T05:21:26Z</time>
      </trkpt>
      <trkpt lat="46.00717" lon="4.58459">
        <ele>441.2</ele>
        <time>2022-06-26T05:21:27Z</time>
      </trkpt>
      <trkpt lat="46.00714" lon="4.5846">
        <ele>441.4</ele>
        <time>2022-06-26T05:21:28Z</time>
      </trkpt>
      <trkpt lat="46.00712" lon="4.58462">
        <ele>441.4</ele>
        <time>2022-06-26T05:21:29Z</time>
      </trkpt>
      <trkpt lat="46.0071" lon="4.58464">
        <ele>441.8</ele>
        <time>2022-06-26T05:21:30Z</time>
      </trkpt>
      <trkpt lat="46.00707" lon="4.58465">
        <ele>441.8</ele>
        <time>2022-06-26T05:21:31Z</time>
      </trkpt>
      <trkpt lat="46.00705" lon="4.58466">
        <ele>442</ele>
        <time>2022-06-26T05:21:32Z</time>
      </trkpt>
      <trkpt lat="46.00702" lon="4.58467">
        <ele>442</ele>
        <time>2022-06-26T05:21:33Z</time>
      </trkpt>
      <trkpt lat="46.007" lon="4.58468">
        <ele>442.2</ele>
        <time>2022-06-26T05:21:34Z</time>
      </trkpt>
      <trkpt lat="46.00697" lon="4.58468">
        <ele>442.2</ele>
        <time>2022-06-26T05:21:35Z</time>
      </trkpt>
      <trkpt lat="46.00695" lon="4.58469">
        <ele>442.6</ele>
        <time>2022-06-26T05:21:36Z</time>
      </trkpt>
      <trkpt lat="46.00692" lon="4.5847">
        <ele>442.6</ele>
        <time>2022-06-26T05:21:37Z</time>
      </trkpt>
      <trkpt lat="46.00689" lon="4.5847">
        <ele>442.8</ele>
        <time>2022-06-26T05:21:38Z</time>
      </trkpt>
      <trkpt lat="46.00687" lon="4.58469">
        <ele>442.8</ele>
        <time>2022-06-26T05:21:39Z</time>
      </trkpt>
      <trkpt lat="46.00684" lon="4.58469">
        <ele>443.2</ele>
        <time>2022-06-26T05:21:40Z</time>
      </trkpt>
      <trkpt lat="46.00682" lon="4.58468">
        <ele>443.2</ele>
        <time>2022-06-26T05:21:41Z</time>
      </trkpt>
      <trkpt lat="46.00679" lon="4.58468">
        <ele>443.6</ele>
        <time>2022-06-26T05:21:42Z</time>
      </trkpt>
      <trkpt lat="46.00677" lon="4.58467">
        <ele>443.6</ele>
        <time>2022-06-26T05:21:43Z</time>
      </trkpt>
      <trkpt lat="46.00674" lon="4.58466">
        <ele>443.8</ele>
        <time>2022-06-26T05:21:44Z</time>
      </trkpt>
      <trkpt lat="46.00672" lon="4.58465">
        <ele>443.8</ele>
        <time>2022-06-26T05:21:45Z</time>
      </trkpt>
      <trkpt lat="46.0067" lon="4.58464">
        <ele>444.2</ele>
        <time>2022-06-26T05:21:46Z</time>
      </trkpt>
      <trkpt lat="46.00667" lon="4.58462">
        <ele>444.2</ele>
        <time>2022-06-26T05:21:47Z</time>
      </trkpt>
      <trkpt lat="46.00665" lon="4.58461">
        <ele>444.4</ele>
        <time>2022-06-26T05:21:48Z</time>
      </trkpt>
      <trkpt lat="46.00663" lon="4.58459">
        <ele>444.4</ele>
        <time>2022-06-26T05:21:49Z</time>
      </trkpt>
      <trkpt lat="46.0066" lon="4.58458">
        <ele>444.6</ele>
        <time>2022-06-26T05:21:50Z</time>
      </trkpt>
      <trkpt lat="46.00658" lon="4.58456">
        <ele>444.6</ele>
        <time>2022-06-26T05:21:51Z</time>
      </trkpt>
      <trkpt lat="46.00656" lon="4.58455">
        <ele>445</ele>
        <time>2022-06-26T05:21:52Z</time>
      </trkpt>
      <trkpt lat="46.00654" lon="4.58453">
        <ele>445</ele>
        <time>2022-06-26T05:21:53Z</time>
      </trkpt>
      <trkpt lat="46.00651" lon="4.58452">
        <ele>445</ele>
        <time>2022-06-26T05:21:54Z</time>
      </trkpt>
      <trkpt lat="46.00649" lon="4.5845">
        <ele>445.2</ele>
        <time>2022-06-26T05:21:55Z</time>
      </trkpt>
      <trkpt lat="46.00648" lon="4.58448">
        <ele>445.2</ele>
        <time>2022-06-26T05:21:56Z</time>
      </trkpt>
      <trkpt lat="46.00646" lon="4.58446">
        <ele>445.4</ele>
        <time>2022-06-26T05:21:57Z</time>
      </trkpt>
      <trkpt lat="46.00644" lon="4.58444">
        <ele>445.4</ele>
        <time>2022-06-26T05:21:58Z</time>
      </trkpt>
      <trkpt lat="46.00643" lon="4.58442">
        <ele>445.8</ele>
        <time>2022-06-26T05:21:59Z</time>
      </trkpt>
      <trkpt lat="46.00641" lon="4.5844">
        <ele>445.8</ele>
        <time>2022-06-26T05:22:00Z</time>
      </trkpt>
      <trkpt lat="46.0064" lon="4.58438">
        <ele>446</ele>
        <time>2022-06-26T05:22:01Z</time>
      </trkpt>
      <trkpt lat="46.00638" lon="4.58435">
        <ele>446</ele>
        <time>2022-06-26T05:22:02Z</time>
      </trkpt>
      <trkpt lat="46.00637" lon="4.58433">
        <ele>446.6</ele>
        <time>2022-06-26T05:22:03Z</time>
      </trkpt>
      <trkpt lat="46.00635" lon="4.58431">
        <ele>446.6</ele>
        <time>2022-06-26T05:22:04Z</time>
      </trkpt>
      <trkpt lat="46.00633" lon="4.58428">
        <ele>446.8</ele>
        <time>2022-06-26T05:22:05Z</time>
      </trkpt>
      <trkpt lat="46.00632" lon="4.58426">
        <ele>446.8</ele>
        <time>2022-06-26T05:22:06Z</time>
      </trkpt>
      <trkpt lat="46.00631" lon="4.58423">
        <ele>446.8</ele>
        <time>2022-06-26T05:22:07Z</time>
      </trkpt>
      <trkpt lat="46.0063" lon="4.5842">
        <ele>447.2</ele>
        <time>2022-06-26T05:22:08Z</time>
      </trkpt>
      <trkpt lat="46.0063" lon="4.58417">
        <ele>447.2</ele>
        <time>2022-06-26T05:22:09Z</time>
      </trkpt>
      <trkpt lat="46.00629" lon="4.58414">
        <ele>447.6</ele>
        <time>2022-06-26T05:22:10Z</time>
      </trkpt>
      <trkpt lat="46.00628" lon="4.58411">
        <ele>447.6</ele>
        <time>2022-06-26T05:22:11Z</time>
      </trkpt>
      <trkpt lat="46.00628" lon="4.58408">
        <ele>448</ele>
        <time>2022-06-26T05:22:12Z</time>
      </trkpt>
      <trkpt lat="46.00627" lon="4.58405">
        <ele>448</ele>
        <time>2022-06-26T05:22:13Z</time>
      </trkpt>
      <trkpt lat="46.00626" lon="4.58402">
        <ele>448.2</ele>
        <time>2022-06-26T05:22:14Z</time>
      </trkpt>
      <trkpt lat="46.00625" lon="4.584">
        <ele>448.2</ele>
        <time>2022-06-26T05:22:15Z</time>
      </trkpt>
      <trkpt lat="46.00624" lon="4.58397">
        <ele>448.4</ele>
        <time>2022-06-26T05:22:16Z</time>
      </trkpt>
      <trkpt lat="46.00623" lon="4.58394">
        <ele>448.6</ele>
        <time>2022-06-26T05:22:17Z</time>
      </trkpt>
      <trkpt lat="46.00622" lon="4.58391">
        <ele>448.6</ele>
        <time>2022-06-26T05:22:18Z</time>
      </trkpt>
      <trkpt lat="46.00621" lon="4.58388">
        <ele>448.8</ele>
        <time>2022-06-26T05:22:19Z</time>
      </trkpt>
      <trkpt lat="46.00619" lon="4.58385">
        <ele>448.8</ele>
        <time>2022-06-26T05:22:20Z</time>
      </trkpt>
      <trkpt lat="46.00617" lon="4.58382">
        <ele>449.2</ele>
        <time>2022-06-26T05:22:21Z</time>
      </trkpt>
      <trkpt lat="46.00615" lon="4.5838">
        <ele>449.2</ele>
        <time>2022-06-26T05:22:22Z</time>
      </trkpt>
      <trkpt lat="46.00613" lon="4.58377">
        <ele>449.2</ele>
        <time>2022-06-26T05:22:23Z</time>
      </trkpt>
      <trkpt lat="46.00611" lon="4.58374">
        <ele>449.2</ele>
        <time>2022-06-26T05:22:24Z</time>
      </trkpt>
      <trkpt lat="46.00609" lon="4.58372">
        <ele>449.4</ele>
        <time>2022-06-26T05:22:25Z</time>
      </trkpt>
      <trkpt lat="46.00607" lon="4.5837">
        <ele>449.4</ele>
        <time>2022-06-26T05:22:26Z</time>
      </trkpt>
      <trkpt lat="46.00604" lon="4.58367">
        <ele>449.6</ele>
        <time>2022-06-26T05:22:27Z</time>
      </trkpt>
      <trkpt lat="46.00602" lon="4.58365">
        <ele>449.6</ele>
        <time>2022-06-26T05:22:28Z</time>
      </trkpt>
      <trkpt lat="46.006" lon="4.58364">
        <ele>450</ele>
        <time>2022-06-26T05:22:29Z</time>
      </trkpt>
      <trkpt lat="46.00598" lon="4.58362">
        <ele>450</ele>
        <time>2022-06-26T05:22:30Z</time>
      </trkpt>
      <trkpt lat="46.00596" lon="4.5836">
        <ele>450.2</ele>
        <time>2022-06-26T05:22:31Z</time>
      </trkpt>
      <trkpt lat="46.00594" lon="4.58359">
        <ele>450.2</ele>
        <time>2022-06-26T05:22:32Z</time>
      </trkpt>
      <trkpt lat="46.00592" lon="4.58357">
        <ele>450.4</ele>
        <time>2022-06-26T05:22:33Z</time>
      </trkpt>
      <trkpt lat="46.0059" lon="4.58356">
        <ele>450.4</ele>
        <time>2022-06-26T05:22:34Z</time>
      </trkpt>
      <trkpt lat="46.00588" lon="4.58355">
        <ele>450.8</ele>
        <time>2022-06-26T05:22:35Z</time>
      </trkpt>
      <trkpt lat="46.00586" lon="4.58354">
        <ele>451</ele>
        <time>2022-06-26T05:22:36Z</time>
      </trkpt>
      <trkpt lat="46.00584" lon="4.58353">
        <ele>451</ele>
        <time>2022-06-26T05:22:37Z</time>
      </trkpt>
      <trkpt lat="46.00582" lon="4.58352">
        <ele>451.4</ele>
        <time>2022-06-26T05:22:38Z</time>
      </trkpt>
      <trkpt lat="46.0058" lon="4.5835">
        <ele>451.4</ele>
        <time>2022-06-26T05:22:39Z</time>
      </trkpt>
      <trkpt lat="46.00578" lon="4.58349">
        <ele>451.6</ele>
        <time>2022-06-26T05:22:40Z</time>
      </trkpt>
      <trkpt lat="46.00576" lon="4.58348">
        <ele>451.6</ele>
        <time>2022-06-26T05:22:41Z</time>
      </trkpt>
      <trkpt lat="46.00575" lon="4.58347">
        <ele>452</ele>
        <time>2022-06-26T05:22:42Z</time>
      </trkpt>
      <trkpt lat="46.00573" lon="4.58346">
        <ele>452</ele>
        <time>2022-06-26T05:22:43Z</time>
      </trkpt>
      <trkpt lat="46.00571" lon="4.58345">
        <ele>452.4</ele>
        <time>2022-06-26T05:22:44Z</time>
      </trkpt>
      <trkpt lat="46.00569" lon="4.58344">
        <ele>452.6</ele>
        <time>2022-06-26T05:22:45Z</time>
      </trkpt>
      <trkpt lat="46.00567" lon="4.58343">
        <ele>452.6</ele>
        <time>2022-06-26T05:22:46Z</time>
      </trkpt>
      <trkpt lat="46.00565" lon="4.58341">
        <ele>452.8</ele>
        <time>2022-06-26T05:22:47Z</time>
      </trkpt>
      <trkpt lat="46.00563" lon="4.5834">
        <ele>452.8</ele>
        <time>2022-06-26T05:22:48Z</time>
      </trkpt>
      <trkpt lat="46.00561" lon="4.58339">
        <ele>453.2</ele>
        <time>2022-06-26T05:22:49Z</time>
      </trkpt>
      <trkpt lat="46.00559" lon="4.58338">
        <ele>453.2</ele>
        <time>2022-06-26T05:22:50Z</time>
      </trkpt>
      <trkpt lat="46.00558" lon="4.58337">
        <ele>453.4</ele>
        <time>2022-06-26T05:22:51Z</time>
      </trkpt>
      <trkpt lat="46.00556" lon="4.58336">
        <ele>453.4</ele>
        <time>2022-06-26T05:22:52Z</time>
      </trkpt>
      <trkpt lat="46.00554" lon="4.58335">
        <ele>453.8</ele>
        <time>2022-06-26T05:22:53Z</time>
      </trkpt>
      <trkpt lat="46.00552" lon="4.58333">
        <ele>454</ele>
        <time>2022-06-26T05:22:54Z</time>
      </trkpt>
      <trkpt lat="46.0055" lon="4.58332">
        <ele>454</ele>
        <time>2022-06-26T05:22:55Z</time>
      </trkpt>
      <trkpt lat="46.00547" lon="4.58331">
        <ele>454.2</ele>
        <time>2022-06-26T05:22:56Z</time>
      </trkpt>
      <trkpt lat="46.00545" lon="4.5833">
        <ele>454.2</ele>
        <time>2022-06-26T05:22:57Z</time>
      </trkpt>
      <trkpt lat="46.00543" lon="4.58329">
        <ele>454.6</ele>
        <time>2022-06-26T05:22:58Z</time>
      </trkpt>
      <trkpt lat="46.00541" lon="4.58328">
        <ele>454.6</ele>
        <time>2022-06-26T05:22:59Z</time>
      </trkpt>
      <trkpt lat="46.00538" lon="4.58328">
        <ele>454.8</ele>
        <time>2022-06-26T05:23:00Z</time>
      </trkpt>
      <trkpt lat="46.00536" lon="4.58327">
        <ele>454.8</ele>
        <time>2022-06-26T05:23:01Z</time>
      </trkpt>
      <trkpt lat="46.00534" lon="4.58327">
        <ele>455</ele>
        <time>2022-06-26T05:23:02Z</time>
      </trkpt>
      <trkpt lat="46.00532" lon="4.58326">
        <ele>455</ele>
        <time>2022-06-26T05:23:03Z</time>
      </trkpt>
      <trkpt lat="46.0053" lon="4.58325">
        <ele>455.4</ele>
        <time>2022-06-26T05:23:04Z</time>
      </trkpt>
      <trkpt lat="46.00528" lon="4.58323">
        <ele>455.4</ele>
        <time>2022-06-26T05:23:05Z</time>
      </trkpt>
      <trkpt lat="46.00526" lon="4.58322">
        <ele>455.6</ele>
        <time>2022-06-26T05:23:06Z</time>
      </trkpt>
      <trkpt lat="46.00523" lon="4.58321">
        <ele>455.6</ele>
        <time>2022-06-26T05:23:07Z</time>
      </trkpt>
      <trkpt lat="46.00522" lon="4.58319">
        <ele>455.8</ele>
        <time>2022-06-26T05:23:08Z</time>
      </trkpt>
      <trkpt lat="46.0052" lon="4.58317">
        <ele>455.8</ele>
        <time>2022-06-26T05:23:09Z</time>
      </trkpt>
      <trkpt lat="46.00519" lon="4.58314">
        <ele>456.2</ele>
        <time>2022-06-26T05:23:10Z</time>
      </trkpt>
      <trkpt lat="46.00518" lon="4.58311">
        <ele>456.2</ele>
        <time>2022-06-26T05:23:11Z</time>
      </trkpt>
      <trkpt lat="46.00518" lon="4.58308">
        <ele>456.4</ele>
        <time>2022-06-26T05:23:12Z</time>
      </trkpt>
      <trkpt lat="46.00518" lon="4.58305">
        <ele>456.4</ele>
        <time>2022-06-26T05:23:13Z</time>
      </trkpt>
      <trkpt lat="46.00519" lon="4.58302">
        <ele>456.6</ele>
        <time>2022-06-26T05:23:14Z</time>
      </trkpt>
      <trkpt lat="46.00521" lon="4.583">
        <ele>456.6</ele>
        <time>2022-06-26T05:23:15Z</time>
      </trkpt>
      <trkpt lat="46.00523" lon="4.58299">
        <ele>457</ele>
        <time>2022-06-26T05:23:16Z</time>
      </trkpt>
      <trkpt lat="46.00525" lon="4.58298">
        <ele>457</ele>
        <time>2022-06-26T05:23:17Z</time>
      </trkpt>
      <trkpt lat="46.00527" lon="4.58298">
        <ele>457.2</ele>
        <time>2022-06-26T05:23:18Z</time>
      </trkpt>
      <trkpt lat="46.0053" lon="4.58298">
        <ele>457.2</ele>
        <time>2022-06-26T05:23:19Z</time>
      </trkpt>
      <trkpt lat="46.00532" lon="4.58298">
        <ele>457.4</ele>
        <time>2022-06-26T05:23:20Z</time>
      </trkpt>
      <trkpt lat="46.00534" lon="4.58298">
        <ele>457.4</ele>
        <time>2022-06-26T05:23:21Z</time>
      </trkpt>
      <trkpt lat="46.00536" lon="4.58299">
        <ele>457.4</ele>
        <time>2022-06-26T05:23:22Z</time>
      </trkpt>
      <trkpt lat="46.00539" lon="4.58299">
        <ele>457.6</ele>
        <time>2022-06-26T05:23:23Z</time>
      </trkpt>
      <trkpt lat="46.00541" lon="4.583">
        <ele>457.6</ele>
        <time>2022-06-26T05:23:24Z</time>
      </trkpt>
      <trkpt lat="46.00543" lon="4.583">
        <ele>458</ele>
        <time>2022-06-26T05:23:25Z</time>
      </trkpt>
      <trkpt lat="46.00546" lon="4.58301">
        <ele>458</ele>
        <time>2022-06-26T05:23:26Z</time>
      </trkpt>
      <trkpt lat="46.00548" lon="4.58301">
        <ele>458.2</ele>
        <time>2022-06-26T05:23:27Z</time>
      </trkpt>
      <trkpt lat="46.0055" lon="4.58302">
        <ele>458.2</ele>
        <time>2022-06-26T05:23:28Z</time>
      </trkpt>
      <trkpt lat="46.00552" lon="4.58302">
        <ele>458.4</ele>
        <time>2022-06-26T05:23:29Z</time>
      </trkpt>
      <trkpt lat="46.00554" lon="4.58303">
        <ele>458.4</ele>
        <time>2022-06-26T05:23:30Z</time>
      </trkpt>
      <trkpt lat="46.00557" lon="4.58304">
        <ele>458.8</ele>
        <time>2022-06-26T05:23:31Z</time>
      </trkpt>
      <trkpt lat="46.00559" lon="4.58305">
        <ele>459</ele>
        <time>2022-06-26T05:23:32Z</time>
      </trkpt>
      <trkpt lat="46.00561" lon="4.58306">
        <ele>459</ele>
        <time>2022-06-26T05:23:33Z</time>
      </trkpt>
      <trkpt lat="46.00563" lon="4.58306">
        <ele>459</ele>
        <time>2022-06-26T05:23:34Z</time>
      </trkpt>
      <trkpt lat="46.00565" lon="4.58307">
        <ele>459.2</ele>
        <time>2022-06-26T05:23:35Z</time>
      </trkpt>
      <trkpt lat="46.00567" lon="4.58307">
        <ele>459.2</ele>
        <time>2022-06-26T05:23:36Z</time>
      </trkpt>
      <trkpt lat="46.0057" lon="4.58307">
        <ele>459.4</ele>
        <time>2022-06-26T05:23:37Z</time>
      </trkpt>
      <trkpt lat="46.00572" lon="4.58308">
        <ele>459.4</ele>
        <time>2022-06-26T05:23:38Z</time>
      </trkpt>
      <trkpt lat="46.00574" lon="4.58309">
        <ele>459.6</ele>
        <time>2022-06-26T05:23:39Z</time>
      </trkpt>
      <trkpt lat="46.00576" lon="4.58311">
        <ele>459.6</ele>
        <time>2022-06-26T05:23:40Z</time>
      </trkpt>
      <trkpt lat="46.00578" lon="4.58311">
        <ele>460</ele>
        <time>2022-06-26T05:23:41Z</time>
      </trkpt>
      <trkpt lat="46.00581" lon="4.58312">
        <ele>460</ele>
        <time>2022-06-26T05:23:42Z</time>
      </trkpt>
      <trkpt lat="46.00583" lon="4.58313">
        <ele>460.4</ele>
        <time>2022-06-26T05:23:43Z</time>
      </trkpt>
      <trkpt lat="46.00585" lon="4.58313">
        <ele>460.4</ele>
        <time>2022-06-26T05:23:44Z</time>
      </trkpt>
      <trkpt lat="46.00588" lon="4.58314">
        <ele>460.6</ele>
        <time>2022-06-26T05:23:45Z</time>
      </trkpt>
      <trkpt lat="46.0059" lon="4.58313">
        <ele>460.6</ele>
        <time>2022-06-26T05:23:46Z</time>
      </trkpt>
      <trkpt lat="46.00593" lon="4.58313">
        <ele>461</ele>
        <time>2022-06-26T05:23:47Z</time>
      </trkpt>
      <trkpt lat="46.00595" lon="4.58312">
        <ele>461</ele>
        <time>2022-06-26T05:23:48Z</time>
      </trkpt>
      <trkpt lat="46.00597" lon="4.58311">
        <ele>461.2</ele>
        <time>2022-06-26T05:23:49Z</time>
      </trkpt>
      <trkpt lat="46.006" lon="4.58309">
        <ele>461.2</ele>
        <time>2022-06-26T05:23:50Z</time>
      </trkpt>
      <trkpt lat="46.00601" lon="4.58307">
        <ele>461.2</ele>
        <time>2022-06-26T05:23:51Z</time>
      </trkpt>
      <trkpt lat="46.00603" lon="4.58304">
        <ele>461.4</ele>
        <time>2022-06-26T05:23:52Z</time>
      </trkpt>
      <trkpt lat="46.00604" lon="4.58301">
        <ele>461.4</ele>
        <time>2022-06-26T05:23:53Z</time>
      </trkpt>
      <trkpt lat="46.00603" lon="4.58298">
        <ele>461.8</ele>
        <time>2022-06-26T05:23:54Z</time>
      </trkpt>
      <trkpt lat="46.00602" lon="4.58295">
        <ele>461.8</ele>
        <time>2022-06-26T05:23:55Z</time>
      </trkpt>
      <trkpt lat="46.00601" lon="4.58292">
        <ele>462</ele>
        <time>2022-06-26T05:23:56Z</time>
      </trkpt>
      <trkpt lat="46.00599" lon="4.58289">
        <ele>462</ele>
        <time>2022-06-26T05:23:57Z</time>
      </trkpt>
      <trkpt lat="46.00596" lon="4.58287">
        <ele>462.4</ele>
        <time>2022-06-26T05:23:58Z</time>
      </trkpt>
      <trkpt lat="46.00594" lon="4.58285">
        <ele>462.4</ele>
        <time>2022-06-26T05:23:59Z</time>
      </trkpt>
      <trkpt lat="46.00591" lon="4.58284">
        <ele>462.6</ele>
        <time>2022-06-26T05:24:00Z</time>
      </trkpt>
      <trkpt lat="46.00589" lon="4.58284">
        <ele>462.6</ele>
        <time>2022-06-26T05:24:01Z</time>
      </trkpt>
      <trkpt lat="46.00586" lon="4.58283">
        <ele>462.6</ele>
        <time>2022-06-26T05:24:02Z</time>
      </trkpt>
      <trkpt lat="46.00583" lon="4.58283">
        <ele>463</ele>
        <time>2022-06-26T05:24:03Z</time>
      </trkpt>
      <trkpt lat="46.00581" lon="4.58281">
        <ele>463</ele>
        <time>2022-06-26T05:24:04Z</time>
      </trkpt>
      <trkpt lat="46.00578" lon="4.5828">
        <ele>463</ele>
        <time>2022-06-26T05:24:05Z</time>
      </trkpt>
      <trkpt lat="46.00576" lon="4.58279">
        <ele>463</ele>
        <time>2022-06-26T05:24:06Z</time>
      </trkpt>
      <trkpt lat="46.00573" lon="4.58277">
        <ele>463.2</ele>
        <time>2022-06-26T05:24:07Z</time>
      </trkpt>
      <trkpt lat="46.00571" lon="4.58275">
        <ele>463.2</ele>
        <time>2022-06-26T05:24:08Z</time>
      </trkpt>
      <trkpt lat="46.00569" lon="4.58273">
        <ele>463.6</ele>
        <time>2022-06-26T05:24:09Z</time>
      </trkpt>
      <trkpt lat="46.00567" lon="4.58271">
        <ele>463.6</ele>
        <time>2022-06-26T05:24:10Z</time>
      </trkpt>
      <trkpt lat="46.00565" lon="4.5827">
        <ele>463.8</ele>
        <time>2022-06-26T05:24:11Z</time>
      </trkpt>
      <trkpt lat="46.00563" lon="4.58268">
        <ele>464</ele>
        <time>2022-06-26T05:24:12Z</time>
      </trkpt>
      <trkpt lat="46.00561" lon="4.58266">
        <ele>464.2</ele>
        <time>2022-06-26T05:24:13Z</time>
      </trkpt>
      <trkpt lat="46.00559" lon="4.58264">
        <ele>464.6</ele>
        <time>2022-06-26T05:24:14Z</time>
      </trkpt>
      <trkpt lat="46.00557" lon="4.58263">
        <ele>464.8</ele>
        <time>2022-06-26T05:24:15Z</time>
      </trkpt>
      <trkpt lat="46.00555" lon="4.58261">
        <ele>464.8</ele>
        <time>2022-06-26T05:24:16Z</time>
      </trkpt>
      <trkpt lat="46.00553" lon="4.58259">
        <ele>465</ele>
        <time>2022-06-26T05:24:17Z</time>
      </trkpt>
      <trkpt lat="46.00551" lon="4.58257">
        <ele>465</ele>
        <time>2022-06-26T05:24:18Z</time>
      </trkpt>
      <trkpt lat="46.0055" lon="4.58255">
        <ele>465.4</ele>
        <time>2022-06-26T05:24:19Z</time>
      </trkpt>
      <trkpt lat="46.00548" lon="4.58253">
        <ele>465.4</ele>
        <time>2022-06-26T05:24:20Z</time>
      </trkpt>
      <trkpt lat="46.00546" lon="4.58252">
        <ele>465.6</ele>
        <time>2022-06-26T05:24:21Z</time>
      </trkpt>
      <trkpt lat="46.00544" lon="4.58251">
        <ele>465.6</ele>
        <time>2022-06-26T05:24:22Z</time>
      </trkpt>
      <trkpt lat="46.00542" lon="4.58249">
        <ele>466</ele>
        <time>2022-06-26T05:24:23Z</time>
      </trkpt>
      <trkpt lat="46.0054" lon="4.58248">
        <ele>466</ele>
        <time>2022-06-26T05:24:24Z</time>
      </trkpt>
      <trkpt lat="46.00539" lon="4.58246">
        <ele>466.2</ele>
        <time>2022-06-26T05:24:25Z</time>
      </trkpt>
      <trkpt lat="46.00537" lon="4.58244">
        <ele>466.2</ele>
        <time>2022-06-26T05:24:26Z</time>
      </trkpt>
      <trkpt lat="46.00535" lon="4.58243">
        <ele>466.4</ele>
        <time>2022-06-26T05:24:27Z</time>
      </trkpt>
      <trkpt lat="46.00533" lon="4.58241">
        <ele>466.4</ele>
        <time>2022-06-26T05:24:28Z</time>
      </trkpt>
      <trkpt lat="46.00532" lon="4.5824">
        <ele>466.8</ele>
        <time>2022-06-26T05:24:29Z</time>
      </trkpt>
      <trkpt lat="46.0053" lon="4.58239">
        <ele>467</ele>
        <time>2022-06-26T05:24:30Z</time>
      </trkpt>
      <trkpt lat="46.00528" lon="4.58238">
        <ele>467</ele>
        <time>2022-06-26T05:24:31Z</time>
      </trkpt>
      <trkpt lat="46.00526" lon="4.58238">
        <ele>467.2</ele>
        <time>2022-06-26T05:24:32Z</time>
      </trkpt>
      <trkpt lat="46.00524" lon="4.58237">
        <ele>467.2</ele>
        <time>2022-06-26T05:24:33Z</time>
      </trkpt>
      <trkpt lat="46.00522" lon="4.58237">
        <ele>467.4</ele>
        <time>2022-06-26T05:24:34Z</time>
      </trkpt>
      <trkpt lat="46.00519" lon="4.58237">
        <ele>467.4</ele>
        <time>2022-06-26T05:24:35Z</time>
      </trkpt>
      <trkpt lat="46.00517" lon="4.58237">
        <ele>467.6</ele>
        <time>2022-06-26T05:24:36Z</time>
      </trkpt>
      <trkpt lat="46.00515" lon="4.58237">
        <ele>467.6</ele>
        <time>2022-06-26T05:24:37Z</time>
      </trkpt>
      <trkpt lat="46.00514" lon="4.58237">
        <ele>468</ele>
        <time>2022-06-26T05:24:38Z</time>
      </trkpt>
      <trkpt lat="46.00512" lon="4.58237">
        <ele>468</ele>
        <time>2022-06-26T05:24:39Z</time>
      </trkpt>
      <trkpt lat="46.0051" lon="4.58238">
        <ele>468.2</ele>
        <time>2022-06-26T05:24:40Z</time>
      </trkpt>
      <trkpt lat="46.00508" lon="4.58239">
        <ele>468.2</ele>
        <time>2022-06-26T05:24:41Z</time>
      </trkpt>
      <trkpt lat="46.00506" lon="4.5824">
        <ele>468.6</ele>
        <time>2022-06-26T05:24:42Z</time>
      </trkpt>
      <trkpt lat="46.00504" lon="4.5824">
        <ele>468.6</ele>
        <time>2022-06-26T05:24:43Z</time>
      </trkpt>
      <trkpt lat="46.00501" lon="4.5824">
        <ele>468.8</ele>
        <time>2022-06-26T05:24:44Z</time>
      </trkpt>
      <trkpt lat="46.00499" lon="4.58241">
        <ele>468.8</ele>
        <time>2022-06-26T05:24:45Z</time>
      </trkpt>
      <trkpt lat="46.00497" lon="4.58242">
        <ele>469.2</ele>
        <time>2022-06-26T05:24:46Z</time>
      </trkpt>
      <trkpt lat="46.00495" lon="4.58243">
        <ele>469.4</ele>
        <time>2022-06-26T05:24:47Z</time>
      </trkpt>
      <trkpt lat="46.00493" lon="4.58243">
        <ele>469.8</ele>
        <time>2022-06-26T05:24:49Z</time>
      </trkpt>
      <trkpt lat="46.00491" lon="4.58243">
        <ele>469.8</ele>
        <time>2022-06-26T05:24:50Z</time>
      </trkpt>
      <trkpt lat="46.00488" lon="4.58243">
        <ele>470.2</ele>
        <time>2022-06-26T05:24:51Z</time>
      </trkpt>
      <trkpt lat="46.00486" lon="4.58243">
        <ele>470.4</ele>
        <time>2022-06-26T05:24:52Z</time>
      </trkpt>
      <trkpt lat="46.00484" lon="4.58243">
        <ele>470.4</ele>
        <time>2022-06-26T05:24:53Z</time>
      </trkpt>
      <trkpt lat="46.00482" lon="4.58243">
        <ele>470.4</ele>
        <time>2022-06-26T05:24:54Z</time>
      </trkpt>
      <trkpt lat="46.0048" lon="4.58244">
        <ele>470.8</ele>
        <time>2022-06-26T05:24:55Z</time>
      </trkpt>
      <trkpt lat="46.00477" lon="4.58244">
        <ele>470.8</ele>
        <time>2022-06-26T05:24:56Z</time>
      </trkpt>
      <trkpt lat="46.00475" lon="4.58244">
        <ele>471.2</ele>
        <time>2022-06-26T05:24:57Z</time>
      </trkpt>
      <trkpt lat="46.00473" lon="4.58244">
        <ele>471.2</ele>
        <time>2022-06-26T05:24:58Z</time>
      </trkpt>
      <trkpt lat="46.00471" lon="4.58244">
        <ele>471.6</ele>
        <time>2022-06-26T05:24:59Z</time>
      </trkpt>
      <trkpt lat="46.00469" lon="4.58244">
        <ele>471.6</ele>
        <time>2022-06-26T05:25:00Z</time>
      </trkpt>
      <trkpt lat="46.00467" lon="4.58244">
        <ele>471.8</ele>
        <time>2022-06-26T05:25:01Z</time>
      </trkpt>
      <trkpt lat="46.00465" lon="4.58243">
        <ele>471.8</ele>
        <time>2022-06-26T05:25:02Z</time>
      </trkpt>
      <trkpt lat="46.00463" lon="4.58243">
        <ele>472.2</ele>
        <time>2022-06-26T05:25:03Z</time>
      </trkpt>
      <trkpt lat="46.00461" lon="4.58243">
        <ele>472.2</ele>
        <time>2022-06-26T05:25:04Z</time>
      </trkpt>
      <trkpt lat="46.00459" lon="4.58242">
        <ele>472.4</ele>
        <time>2022-06-26T05:25:05Z</time>
      </trkpt>
      <trkpt lat="46.00457" lon="4.58242">
        <ele>472.4</ele>
        <time>2022-06-26T05:25:06Z</time>
      </trkpt>
      <trkpt lat="46.00454" lon="4.58241">
        <ele>472.6</ele>
        <time>2022-06-26T05:25:07Z</time>
      </trkpt>
      <trkpt lat="46.00452" lon="4.5824">
        <ele>472.6</ele>
        <time>2022-06-26T05:25:08Z</time>
      </trkpt>
      <trkpt lat="46.0045" lon="4.5824">
        <ele>473</ele>
        <time>2022-06-26T05:25:09Z</time>
      </trkpt>
      <trkpt lat="46.00448" lon="4.58239">
        <ele>473</ele>
        <time>2022-06-26T05:25:10Z</time>
      </trkpt>
      <trkpt lat="46.00446" lon="4.58238">
        <ele>473.2</ele>
        <time>2022-06-26T05:25:11Z</time>
      </trkpt>
      <trkpt lat="46.00444" lon="4.58238">
        <ele>473.2</ele>
        <time>2022-06-26T05:25:12Z</time>
      </trkpt>
      <trkpt lat="46.00441" lon="4.58237">
        <ele>473.6</ele>
        <time>2022-06-26T05:25:13Z</time>
      </trkpt>
      <trkpt lat="46.00439" lon="4.58237">
        <ele>473.6</ele>
        <time>2022-06-26T05:25:14Z</time>
      </trkpt>
      <trkpt lat="46.00437" lon="4.58237">
        <ele>473.8</ele>
        <time>2022-06-26T05:25:15Z</time>
      </trkpt>
      <trkpt lat="46.00435" lon="4.58236">
        <ele>473.8</ele>
        <time>2022-06-26T05:25:16Z</time>
      </trkpt>
      <trkpt lat="46.00433" lon="4.58235">
        <ele>474</ele>
        <time>2022-06-26T05:25:17Z</time>
      </trkpt>
      <trkpt lat="46.00431" lon="4.58234">
        <ele>474</ele>
        <time>2022-06-26T05:25:18Z</time>
      </trkpt>
      <trkpt lat="46.00429" lon="4.58234">
        <ele>474.4</ele>
        <time>2022-06-26T05:25:19Z</time>
      </trkpt>
      <trkpt lat="46.00427" lon="4.58233">
        <ele>474.4</ele>
        <time>2022-06-26T05:25:20Z</time>
      </trkpt>
      <trkpt lat="46.00425" lon="4.58232">
        <ele>474.6</ele>
        <time>2022-06-26T05:25:21Z</time>
      </trkpt>
      <trkpt lat="46.00423" lon="4.58232">
        <ele>474.6</ele>
        <time>2022-06-26T05:25:22Z</time>
      </trkpt>
      <trkpt lat="46.00421" lon="4.58231">
        <ele>474.8</ele>
        <time>2022-06-26T05:25:23Z</time>
      </trkpt>
      <trkpt lat="46.00419" lon="4.5823">
        <ele>474.8</ele>
        <time>2022-06-26T05:25:24Z</time>
      </trkpt>
      <trkpt lat="46.00417" lon="4.58229">
        <ele>475.2</ele>
        <time>2022-06-26T05:25:25Z</time>
      </trkpt>
      <trkpt lat="46.00415" lon="4.58228">
        <ele>475.4</ele>
        <time>2022-06-26T05:25:26Z</time>
      </trkpt>
      <trkpt lat="46.00413" lon="4.58228">
        <ele>475.6</ele>
        <time>2022-06-26T05:25:27Z</time>
      </trkpt>
      <trkpt lat="46.00412" lon="4.58227">
        <ele>475.6</ele>
        <time>2022-06-26T05:25:28Z</time>
      </trkpt>
      <trkpt lat="46.0041" lon="4.58226">
        <ele>476</ele>
        <time>2022-06-26T05:25:29Z</time>
      </trkpt>
      <trkpt lat="46.00408" lon="4.58225">
        <ele>476</ele>
        <time>2022-06-26T05:25:30Z</time>
      </trkpt>
      <trkpt lat="46.00406" lon="4.58225">
        <ele>476.4</ele>
        <time>2022-06-26T05:25:31Z</time>
      </trkpt>
      <trkpt lat="46.00404" lon="4.58224">
        <ele>476.6</ele>
        <time>2022-06-26T05:25:32Z</time>
      </trkpt>
      <trkpt lat="46.00402" lon="4.58224">
        <ele>476.6</ele>
        <time>2022-06-26T05:25:33Z</time>
      </trkpt>
      <trkpt lat="46.004" lon="4.58224">
        <ele>476.8</ele>
        <time>2022-06-26T05:25:34Z</time>
      </trkpt>
      <trkpt lat="46.00398" lon="4.58223">
        <ele>476.8</ele>
        <time>2022-06-26T05:25:35Z</time>
      </trkpt>
      <trkpt lat="46.00396" lon="4.58222">
        <ele>477.2</ele>
        <time>2022-06-26T05:25:36Z</time>
      </trkpt>
      <trkpt lat="46.00394" lon="4.58222">
        <ele>477.4</ele>
        <time>2022-06-26T05:25:37Z</time>
      </trkpt>
      <trkpt lat="46.00392" lon="4.58221">
        <ele>477.4</ele>
        <time>2022-06-26T05:25:38Z</time>
      </trkpt>
      <trkpt lat="46.0039" lon="4.58221">
        <ele>477.6</ele>
        <time>2022-06-26T05:25:39Z</time>
      </trkpt>
      <trkpt lat="46.00388" lon="4.58221">
        <ele>477.6</ele>
        <time>2022-06-26T05:25:40Z</time>
      </trkpt>
      <trkpt lat="46.00386" lon="4.58221">
        <ele>478</ele>
        <time>2022-06-26T05:25:41Z</time>
      </trkpt>
      <trkpt lat="46.00384" lon="4.58221">
        <ele>478</ele>
        <time>2022-06-26T05:25:42Z</time>
      </trkpt>
      <trkpt lat="46.00382" lon="4.5822">
        <ele>478.2</ele>
        <time>2022-06-26T05:25:43Z</time>
      </trkpt>
      <trkpt lat="46.0038" lon="4.58221">
        <ele>478.2</ele>
        <time>2022-06-26T05:25:44Z</time>
      </trkpt>
      <trkpt lat="46.00378" lon="4.58221">
        <ele>478.6</ele>
        <time>2022-06-26T05:25:45Z</time>
      </trkpt>
      <trkpt lat="46.00376" lon="4.58221">
        <ele>478.6</ele>
        <time>2022-06-26T05:25:46Z</time>
      </trkpt>
      <trkpt lat="46.00374" lon="4.5822">
        <ele>479</ele>
        <time>2022-06-26T05:25:47Z</time>
      </trkpt>
      <trkpt lat="46.00372" lon="4.5822">
        <ele>479</ele>
        <time>2022-06-26T05:25:48Z</time>
      </trkpt>
      <trkpt lat="46.0037" lon="4.5822">
        <ele>479.2</ele>
        <time>2022-06-26T05:25:49Z</time>
      </trkpt>
      <trkpt lat="46.00368" lon="4.58219">
        <ele>479.2</ele>
        <time>2022-06-26T05:25:50Z</time>
      </trkpt>
      <trkpt lat="46.00366" lon="4.5822">
        <ele>479.2</ele>
        <time>2022-06-26T05:25:51Z</time>
      </trkpt>
      <trkpt lat="46.00364" lon="4.5822">
        <ele>479.6</ele>
        <time>2022-06-26T05:25:52Z</time>
      </trkpt>
      <trkpt lat="46.00362" lon="4.5822">
        <ele>479.6</ele>
        <time>2022-06-26T05:25:53Z</time>
      </trkpt>
      <trkpt lat="46.0036" lon="4.58221">
        <ele>480</ele>
        <time>2022-06-26T05:25:54Z</time>
      </trkpt>
      <trkpt lat="46.00358" lon="4.58221">
        <ele>480</ele>
        <time>2022-06-26T05:25:55Z</time>
      </trkpt>
      <trkpt lat="46.00356" lon="4.58221">
        <ele>480.2</ele>
        <time>2022-06-26T05:25:56Z</time>
      </trkpt>
      <trkpt lat="46.00354" lon="4.5822">
        <ele>480.2</ele>
        <time>2022-06-26T05:25:57Z</time>
      </trkpt>
      <trkpt lat="46.00352" lon="4.5822">
        <ele>480.4</ele>
        <time>2022-06-26T05:25:58Z</time>
      </trkpt>
      <trkpt lat="46.0035" lon="4.58219">
        <ele>480.6</ele>
        <time>2022-06-26T05:25:59Z</time>
      </trkpt>
      <trkpt lat="46.00348" lon="4.58218">
        <ele>480.6</ele>
        <time>2022-06-26T05:26:00Z</time>
      </trkpt>
      <trkpt lat="46.00346" lon="4.58217">
        <ele>481</ele>
        <time>2022-06-26T05:26:01Z</time>
      </trkpt>
      <trkpt lat="46.00344" lon="4.58216">
        <ele>481</ele>
        <time>2022-06-26T05:26:02Z</time>
      </trkpt>
      <trkpt lat="46.00342" lon="4.58215">
        <ele>481.4</ele>
        <time>2022-06-26T05:26:03Z</time>
      </trkpt>
      <trkpt lat="46.0034" lon="4.58213">
        <ele>481.4</ele>
        <time>2022-06-26T05:26:04Z</time>
      </trkpt>
      <trkpt lat="46.00338" lon="4.58212">
        <ele>481.6</ele>
        <time>2022-06-26T05:26:05Z</time>
      </trkpt>
      <trkpt lat="46.00337" lon="4.5821">
        <ele>481.6</ele>
        <time>2022-06-26T05:26:06Z</time>
      </trkpt>
      <trkpt lat="46.00335" lon="4.58209">
        <ele>481.8</ele>
        <time>2022-06-26T05:26:07Z</time>
      </trkpt>
      <trkpt lat="46.00333" lon="4.58207">
        <ele>481.8</ele>
        <time>2022-06-26T05:26:08Z</time>
      </trkpt>
      <trkpt lat="46.00331" lon="4.58206">
        <ele>482.2</ele>
        <time>2022-06-26T05:26:09Z</time>
      </trkpt>
      <trkpt lat="46.0033" lon="4.58204">
        <ele>482.2</ele>
        <time>2022-06-26T05:26:10Z</time>
      </trkpt>
      <trkpt lat="46.00328" lon="4.58202">
        <ele>482.4</ele>
        <time>2022-06-26T05:26:11Z</time>
      </trkpt>
      <trkpt lat="46.00327" lon="4.582">
        <ele>482.4</ele>
        <time>2022-06-26T05:26:12Z</time>
      </trkpt>
      <trkpt lat="46.00325" lon="4.58198">
        <ele>482.6</ele>
        <time>2022-06-26T05:26:13Z</time>
      </trkpt>
      <trkpt lat="46.00324" lon="4.58196">
        <ele>482.6</ele>
        <time>2022-06-26T05:26:14Z</time>
      </trkpt>
      <trkpt lat="46.00322" lon="4.58195">
        <ele>483</ele>
        <time>2022-06-26T05:26:15Z</time>
      </trkpt>
      <trkpt lat="46.00321" lon="4.58193">
        <ele>483</ele>
        <time>2022-06-26T05:26:16Z</time>
      </trkpt>
      <trkpt lat="46.00319" lon="4.58191">
        <ele>483.2</ele>
        <time>2022-06-26T05:26:17Z</time>
      </trkpt>
      <trkpt lat="46.00318" lon="4.58189">
        <ele>483.2</ele>
        <time>2022-06-26T05:26:18Z</time>
      </trkpt>
      <trkpt lat="46.00316" lon="4.58187">
        <ele>483.6</ele>
        <time>2022-06-26T05:26:19Z</time>
      </trkpt>
      <trkpt lat="46.00314" lon="4.58185">
        <ele>483.6</ele>
        <time>2022-06-26T05:26:20Z</time>
      </trkpt>
      <trkpt lat="46.00313" lon="4.58184">
        <ele>484</ele>
        <time>2022-06-26T05:26:21Z</time>
      </trkpt>
      <trkpt lat="46.00312" lon="4.58181">
        <ele>484</ele>
        <time>2022-06-26T05:26:22Z</time>
      </trkpt>
      <trkpt lat="46.0031" lon="4.58179">
        <ele>484.2</ele>
        <time>2022-06-26T05:26:23Z</time>
      </trkpt>
      <trkpt lat="46.00309" lon="4.58177">
        <ele>484.2</ele>
        <time>2022-06-26T05:26:24Z</time>
      </trkpt>
      <trkpt lat="46.00308" lon="4.58175">
        <ele>484.6</ele>
        <time>2022-06-26T05:26:25Z</time>
      </trkpt>
      <trkpt lat="46.00307" lon="4.58172">
        <ele>484.6</ele>
        <time>2022-06-26T05:26:26Z</time>
      </trkpt>
      <trkpt lat="46.00306" lon="4.58169">
        <ele>484.8</ele>
        <time>2022-06-26T05:26:27Z</time>
      </trkpt>
      <trkpt lat="46.00305" lon="4.58166">
        <ele>484.8</ele>
        <time>2022-06-26T05:26:28Z</time>
      </trkpt>
      <trkpt lat="46.00304" lon="4.58163">
        <ele>485.2</ele>
        <time>2022-06-26T05:26:29Z</time>
      </trkpt>
      <trkpt lat="46.00304" lon="4.5816">
        <ele>485.2</ele>
        <time>2022-06-26T05:26:30Z</time>
      </trkpt>
      <trkpt lat="46.00303" lon="4.58157">
        <ele>485.4</ele>
        <time>2022-06-26T05:26:31Z</time>
      </trkpt>
      <trkpt lat="46.00302" lon="4.58154">
        <ele>485.4</ele>
        <time>2022-06-26T05:26:32Z</time>
      </trkpt>
      <trkpt lat="46.00301" lon="4.58151">
        <ele>485.6</ele>
        <time>2022-06-26T05:26:33Z</time>
      </trkpt>
      <trkpt lat="46.00301" lon="4.58148">
        <ele>486</ele>
        <time>2022-06-26T05:26:34Z</time>
      </trkpt>
      <trkpt lat="46.003" lon="4.58145">
        <ele>486</ele>
        <time>2022-06-26T05:26:35Z</time>
      </trkpt>
      <trkpt lat="46.003" lon="4.58142">
        <ele>486.2</ele>
        <time>2022-06-26T05:26:36Z</time>
      </trkpt>
      <trkpt lat="46.00299" lon="4.58139">
        <ele>486.2</ele>
        <time>2022-06-26T05:26:37Z</time>
      </trkpt>
      <trkpt lat="46.00299" lon="4.58136">
        <ele>486.6</ele>
        <time>2022-06-26T05:26:38Z</time>
      </trkpt>
      <trkpt lat="46.00298" lon="4.58133">
        <ele>486.6</ele>
        <time>2022-06-26T05:26:39Z</time>
      </trkpt>
      <trkpt lat="46.00298" lon="4.58129">
        <ele>486.8</ele>
        <time>2022-06-26T05:26:40Z</time>
      </trkpt>
      <trkpt lat="46.00298" lon="4.58126">
        <ele>487</ele>
        <time>2022-06-26T05:26:41Z</time>
      </trkpt>
      <trkpt lat="46.00298" lon="4.58123">
        <ele>487.2</ele>
        <time>2022-06-26T05:26:42Z</time>
      </trkpt>
      <trkpt lat="46.00298" lon="4.5812">
        <ele>487.2</ele>
        <time>2022-06-26T05:26:43Z</time>
      </trkpt>
      <trkpt lat="46.00298" lon="4.58117">
        <ele>487.4</ele>
        <time>2022-06-26T05:26:44Z</time>
      </trkpt>
      <trkpt lat="46.00298" lon="4.58114">
        <ele>487.4</ele>
        <time>2022-06-26T05:26:45Z</time>
      </trkpt>
      <trkpt lat="46.00298" lon="4.58111">
        <ele>487.8</ele>
        <time>2022-06-26T05:26:46Z</time>
      </trkpt>
      <trkpt lat="46.00298" lon="4.58108">
        <ele>487.8</ele>
        <time>2022-06-26T05:26:47Z</time>
      </trkpt>
      <trkpt lat="46.00298" lon="4.58105">
        <ele>488.2</ele>
        <time>2022-06-26T05:26:48Z</time>
      </trkpt>
      <trkpt lat="46.00299" lon="4.58102">
        <ele>488.4</ele>
        <time>2022-06-26T05:26:49Z</time>
      </trkpt>
      <trkpt lat="46.00299" lon="4.58099">
        <ele>488.4</ele>
        <time>2022-06-26T05:26:50Z</time>
      </trkpt>
      <trkpt lat="46.00299" lon="4.58096">
        <ele>488.8</ele>
        <time>2022-06-26T05:26:51Z</time>
      </trkpt>
      <trkpt lat="46.00298" lon="4.58093">
        <ele>488.8</ele>
        <time>2022-06-26T05:26:52Z</time>
      </trkpt>
      <trkpt lat="46.00298" lon="4.5809">
        <ele>489.2</ele>
        <time>2022-06-26T05:26:53Z</time>
      </trkpt>
      <trkpt lat="46.00298" lon="4.58087">
        <ele>489.4</ele>
        <time>2022-06-26T05:26:54Z</time>
      </trkpt>
      <trkpt lat="46.00298" lon="4.58084">
        <ele>489.4</ele>
        <time>2022-06-26T05:26:55Z</time>
      </trkpt>
      <trkpt lat="46.00298" lon="4.58081">
        <ele>489.6</ele>
        <time>2022-06-26T05:26:56Z</time>
      </trkpt>
      <trkpt lat="46.00298" lon="4.58078">
        <ele>489.6</ele>
        <time>2022-06-26T05:26:57Z</time>
      </trkpt>
      <trkpt lat="46.00298" lon="4.58076">
        <ele>490</ele>
        <time>2022-06-26T05:26:58Z</time>
      </trkpt>
      <trkpt lat="46.00299" lon="4.58073">
        <ele>490</ele>
        <time>2022-06-26T05:26:59Z</time>
      </trkpt>
      <trkpt lat="46.00299" lon="4.5807">
        <ele>490.2</ele>
        <time>2022-06-26T05:27:00Z</time>
      </trkpt>
      <trkpt lat="46.00299" lon="4.58067">
        <ele>490.2</ele>
        <time>2022-06-26T05:27:01Z</time>
      </trkpt>
      <trkpt lat="46.00299" lon="4.58064">
        <ele>490.6</ele>
        <time>2022-06-26T05:27:02Z</time>
      </trkpt>
      <trkpt lat="46.00299" lon="4.58061">
        <ele>490.6</ele>
        <time>2022-06-26T05:27:03Z</time>
      </trkpt>
      <trkpt lat="46.00298" lon="4.58058">
        <ele>491</ele>
        <time>2022-06-26T05:27:04Z</time>
      </trkpt>
      <trkpt lat="46.00298" lon="4.58054">
        <ele>491</ele>
        <time>2022-06-26T05:27:05Z</time>
      </trkpt>
      <trkpt lat="46.00297" lon="4.58051">
        <ele>491.2</ele>
        <time>2022-06-26T05:27:06Z</time>
      </trkpt>
      <trkpt lat="46.00296" lon="4.58048">
        <ele>491.4</ele>
        <time>2022-06-26T05:27:07Z</time>
      </trkpt>
      <trkpt lat="46.00296" lon="4.58045">
        <ele>491.6</ele>
        <time>2022-06-26T05:27:08Z</time>
      </trkpt>
      <trkpt lat="46.00294" lon="4.58043">
        <ele>491.6</ele>
        <time>2022-06-26T05:27:09Z</time>
      </trkpt>
      <trkpt lat="46.00293" lon="4.5804">
        <ele>492</ele>
        <time>2022-06-26T05:27:10Z</time>
      </trkpt>
      <trkpt lat="46.00292" lon="4.58038">
        <ele>492</ele>
        <time>2022-06-26T05:27:11Z</time>
      </trkpt>
      <trkpt lat="46.0029" lon="4.58035">
        <ele>492.2</ele>
        <time>2022-06-26T05:27:12Z</time>
      </trkpt>
      <trkpt lat="46.00288" lon="4.58034">
        <ele>492.2</ele>
        <time>2022-06-26T05:27:13Z</time>
      </trkpt>
      <trkpt lat="46.00286" lon="4.58032">
        <ele>492.4</ele>
        <time>2022-06-26T05:27:14Z</time>
      </trkpt>
      <trkpt lat="46.00284" lon="4.58031">
        <ele>492.4</ele>
        <time>2022-06-26T05:27:15Z</time>
      </trkpt>
      <trkpt lat="46.00281" lon="4.5803">
        <ele>492.8</ele>
        <time>2022-06-26T05:27:16Z</time>
      </trkpt>
      <trkpt lat="46.00279" lon="4.5803">
        <ele>492.8</ele>
        <time>2022-06-26T05:27:17Z</time>
      </trkpt>
      <trkpt lat="46.00277" lon="4.5803">
        <ele>493</ele>
        <time>2022-06-26T05:27:18Z</time>
      </trkpt>
      <trkpt lat="46.00274" lon="4.5803">
        <ele>493</ele>
        <time>2022-06-26T05:27:19Z</time>
      </trkpt>
      <trkpt lat="46.00272" lon="4.5803">
        <ele>493.2</ele>
        <time>2022-06-26T05:27:20Z</time>
      </trkpt>
      <trkpt lat="46.0027" lon="4.5803">
        <ele>493.2</ele>
        <time>2022-06-26T05:27:21Z</time>
      </trkpt>
      <trkpt lat="46.00268" lon="4.5803">
        <ele>493.6</ele>
        <time>2022-06-26T05:27:22Z</time>
      </trkpt>
      <trkpt lat="46.00265" lon="4.5803">
        <ele>493.8</ele>
        <time>2022-06-26T05:27:23Z</time>
      </trkpt>
      <trkpt lat="46.00263" lon="4.5803">
        <ele>493.8</ele>
        <time>2022-06-26T05:27:24Z</time>
      </trkpt>
      <trkpt lat="46.00261" lon="4.5803">
        <ele>494</ele>
        <time>2022-06-26T05:27:25Z</time>
      </trkpt>
      <trkpt lat="46.00259" lon="4.58029">
        <ele>494</ele>
        <time>2022-06-26T05:27:26Z</time>
      </trkpt>
      <trkpt lat="46.00257" lon="4.58029">
        <ele>494.4</ele>
        <time>2022-06-26T05:27:27Z</time>
      </trkpt>
      <trkpt lat="46.00254" lon="4.58028">
        <ele>494.4</ele>
        <time>2022-06-26T05:27:28Z</time>
      </trkpt>
      <trkpt lat="46.00252" lon="4.58027">
        <ele>494.8</ele>
        <time>2022-06-26T05:27:29Z</time>
      </trkpt>
      <trkpt lat="46.0025" lon="4.58027">
        <ele>495</ele>
        <time>2022-06-26T05:27:30Z</time>
      </trkpt>
      <trkpt lat="46.00248" lon="4.58026">
        <ele>495</ele>
        <time>2022-06-26T05:27:31Z</time>
      </trkpt>
      <trkpt lat="46.00246" lon="4.58025">
        <ele>495.2</ele>
        <time>2022-06-26T05:27:32Z</time>
      </trkpt>
      <trkpt lat="46.00244" lon="4.58024">
        <ele>495.2</ele>
        <time>2022-06-26T05:27:33Z</time>
      </trkpt>
      <trkpt lat="46.00242" lon="4.58023">
        <ele>495.6</ele>
        <time>2022-06-26T05:27:34Z</time>
      </trkpt>
      <trkpt lat="46.0024" lon="4.58022">
        <ele>495.6</ele>
        <time>2022-06-26T05:27:35Z</time>
      </trkpt>
      <trkpt lat="46.00238" lon="4.58021">
        <ele>496</ele>
        <time>2022-06-26T05:27:36Z</time>
      </trkpt>
      <trkpt lat="46.00236" lon="4.5802">
        <ele>496</ele>
        <time>2022-06-26T05:27:37Z</time>
      </trkpt>
      <trkpt lat="46.00234" lon="4.58018">
        <ele>496.4</ele>
        <time>2022-06-26T05:27:38Z</time>
      </trkpt>
      <trkpt lat="46.00232" lon="4.58016">
        <ele>496.4</ele>
        <time>2022-06-26T05:27:39Z</time>
      </trkpt>
      <trkpt lat="46.0023" lon="4.58014">
        <ele>496.8</ele>
        <time>2022-06-26T05:27:40Z</time>
      </trkpt>
      <trkpt lat="46.00229" lon="4.58013">
        <ele>497</ele>
        <time>2022-06-26T05:27:41Z</time>
      </trkpt>
      <trkpt lat="46.00227" lon="4.58011">
        <ele>497</ele>
        <time>2022-06-26T05:27:42Z</time>
      </trkpt>
      <trkpt lat="46.00225" lon="4.5801">
        <ele>497.2</ele>
        <time>2022-06-26T05:27:43Z</time>
      </trkpt>
      <trkpt lat="46.00223" lon="4.58009">
        <ele>497.2</ele>
        <time>2022-06-26T05:27:44Z</time>
      </trkpt>
      <trkpt lat="46.00221" lon="4.58008">
        <ele>497.6</ele>
        <time>2022-06-26T05:27:45Z</time>
      </trkpt>
      <trkpt lat="46.00219" lon="4.58006">
        <ele>497.6</ele>
        <time>2022-06-26T05:27:46Z</time>
      </trkpt>
      <trkpt lat="46.00217" lon="4.58005">
        <ele>497.8</ele>
        <time>2022-06-26T05:27:47Z</time>
      </trkpt>
      <trkpt lat="46.00216" lon="4.58004">
        <ele>497.8</ele>
        <time>2022-06-26T05:27:48Z</time>
      </trkpt>
      <trkpt lat="46.00214" lon="4.58003">
        <ele>498.2</ele>
        <time>2022-06-26T05:27:49Z</time>
      </trkpt>
      <trkpt lat="46.00212" lon="4.58001">
        <ele>498.2</ele>
        <time>2022-06-26T05:27:50Z</time>
      </trkpt>
      <trkpt lat="46.0021" lon="4.58">
        <ele>498.4</ele>
        <time>2022-06-26T05:27:51Z</time>
      </trkpt>
      <trkpt lat="46.00209" lon="4.57999">
        <ele>498.4</ele>
        <time>2022-06-26T05:27:52Z</time>
      </trkpt>
      <trkpt lat="46.00207" lon="4.57998">
        <ele>498.8</ele>
        <time>2022-06-26T05:27:53Z</time>
      </trkpt>
      <trkpt lat="46.00206" lon="4.57997">
        <ele>498.8</ele>
        <time>2022-06-26T05:27:54Z</time>
      </trkpt>
      <trkpt lat="46.00204" lon="4.57996">
        <ele>499</ele>
        <time>2022-06-26T05:27:55Z</time>
      </trkpt>
      <trkpt lat="46.00202" lon="4.57995">
        <ele>499</ele>
        <time>2022-06-26T05:27:56Z</time>
      </trkpt>
      <trkpt lat="46.00201" lon="4.57993">
        <ele>499.2</ele>
        <time>2022-06-26T05:27:57Z</time>
      </trkpt>
      <trkpt lat="46.00199" lon="4.57992">
        <ele>499.2</ele>
        <time>2022-06-26T05:27:58Z</time>
      </trkpt>
      <trkpt lat="46.00197" lon="4.57991">
        <ele>499.6</ele>
        <time>2022-06-26T05:27:59Z</time>
      </trkpt>
      <trkpt lat="46.00196" lon="4.5799">
        <ele>499.6</ele>
        <time>2022-06-26T05:28:00Z</time>
      </trkpt>
      <trkpt lat="46.00194" lon="4.57989">
        <ele>499.8</ele>
        <time>2022-06-26T05:28:01Z</time>
      </trkpt>
      <trkpt lat="46.00192" lon="4.57988">
        <ele>499.8</ele>
        <time>2022-06-26T05:28:02Z</time>
      </trkpt>
      <trkpt lat="46.0019" lon="4.57987">
        <ele>500.2</ele>
        <time>2022-06-26T05:28:03Z</time>
      </trkpt>
      <trkpt lat="46.00188" lon="4.57985">
        <ele>500.2</ele>
        <time>2022-06-26T05:28:04Z</time>
      </trkpt>
      <trkpt lat="46.00187" lon="4.57984">
        <ele>500.4</ele>
        <time>2022-06-26T05:28:05Z</time>
      </trkpt>
      <trkpt lat="46.00185" lon="4.57983">
        <ele>500.4</ele>
        <time>2022-06-26T05:28:06Z</time>
      </trkpt>
      <trkpt lat="46.00183" lon="4.57982">
        <ele>500.4</ele>
        <time>2022-06-26T05:28:07Z</time>
      </trkpt>
      <trkpt lat="46.00181" lon="4.57981">
        <ele>500.8</ele>
        <time>2022-06-26T05:28:08Z</time>
      </trkpt>
      <trkpt lat="46.00179" lon="4.5798">
        <ele>500.8</ele>
        <time>2022-06-26T05:28:09Z</time>
      </trkpt>
      <trkpt lat="46.00178" lon="4.57979">
        <ele>501.2</ele>
        <time>2022-06-26T05:28:10Z</time>
      </trkpt>
      <trkpt lat="46.00176" lon="4.57979">
        <ele>501.2</ele>
        <time>2022-06-26T05:28:11Z</time>
      </trkpt>
      <trkpt lat="46.00174" lon="4.57978">
        <ele>501.4</ele>
        <time>2022-06-26T05:28:12Z</time>
      </trkpt>
      <trkpt lat="46.00172" lon="4.57977">
        <ele>501.4</ele>
        <time>2022-06-26T05:28:13Z</time>
      </trkpt>
      <trkpt lat="46.00171" lon="4.57977">
        <ele>501.8</ele>
        <time>2022-06-26T05:28:14Z</time>
      </trkpt>
      <trkpt lat="46.00169" lon="4.57976">
        <ele>501.8</ele>
        <time>2022-06-26T05:28:15Z</time>
      </trkpt>
      <trkpt lat="46.00167" lon="4.57976">
        <ele>502</ele>
        <time>2022-06-26T05:28:16Z</time>
      </trkpt>
      <trkpt lat="46.00166" lon="4.57975">
        <ele>502.2</ele>
        <time>2022-06-26T05:28:17Z</time>
      </trkpt>
      <trkpt lat="46.00164" lon="4.57975">
        <ele>502.2</ele>
        <time>2022-06-26T05:28:18Z</time>
      </trkpt>
      <trkpt lat="46.00162" lon="4.57975">
        <ele>502.4</ele>
        <time>2022-06-26T05:28:19Z</time>
      </trkpt>
      <trkpt lat="46.0016" lon="4.57975">
        <ele>502.4</ele>
        <time>2022-06-26T05:28:20Z</time>
      </trkpt>
      <trkpt lat="46.00158" lon="4.57975">
        <ele>502.8</ele>
        <time>2022-06-26T05:28:21Z</time>
      </trkpt>
      <trkpt lat="46.00156" lon="4.57976">
        <ele>502.8</ele>
        <time>2022-06-26T05:28:22Z</time>
      </trkpt>
      <trkpt lat="46.00154" lon="4.57976">
        <ele>503</ele>
        <time>2022-06-26T05:28:23Z</time>
      </trkpt>
      <trkpt lat="46.00152" lon="4.57977">
        <ele>503</ele>
        <time>2022-06-26T05:28:24Z</time>
      </trkpt>
      <trkpt lat="46.00151" lon="4.57977">
        <ele>503.2</ele>
        <time>2022-06-26T05:28:25Z</time>
      </trkpt>
      <trkpt lat="46.00149" lon="4.57978">
        <ele>503.2</ele>
        <time>2022-06-26T05:28:26Z</time>
      </trkpt>
      <trkpt lat="46.00147" lon="4.57978">
        <ele>503.6</ele>
        <time>2022-06-26T05:28:27Z</time>
      </trkpt>
      <trkpt lat="46.00145" lon="4.57979">
        <ele>503.6</ele>
        <time>2022-06-26T05:28:28Z</time>
      </trkpt>
      <trkpt lat="46.00143" lon="4.5798">
        <ele>503.8</ele>
        <time>2022-06-26T05:28:29Z</time>
      </trkpt>
      <trkpt lat="46.00141" lon="4.57981">
        <ele>503.8</ele>
        <time>2022-06-26T05:28:30Z</time>
      </trkpt>
      <trkpt lat="46.00139" lon="4.57982">
        <ele>504.2</ele>
        <time>2022-06-26T05:28:31Z</time>
      </trkpt>
      <trkpt lat="46.00137" lon="4.57983">
        <ele>504.2</ele>
        <time>2022-06-26T05:28:32Z</time>
      </trkpt>
      <trkpt lat="46.00136" lon="4.57985">
        <ele>504.4</ele>
        <time>2022-06-26T05:28:33Z</time>
      </trkpt>
      <trkpt lat="46.00134" lon="4.57986">
        <ele>504.4</ele>
        <time>2022-06-26T05:28:34Z</time>
      </trkpt>
      <trkpt lat="46.00133" lon="4.57989">
        <ele>504.6</ele>
        <time>2022-06-26T05:28:35Z</time>
      </trkpt>
      <trkpt lat="46.00132" lon="4.57991">
        <ele>504.6</ele>
        <time>2022-06-26T05:28:36Z</time>
      </trkpt>
      <trkpt lat="46.00131" lon="4.57993">
        <ele>505</ele>
        <time>2022-06-26T05:28:37Z</time>
      </trkpt>
      <trkpt lat="46.0013" lon="4.57996">
        <ele>505</ele>
        <time>2022-06-26T05:28:38Z</time>
      </trkpt>
      <trkpt lat="46.00129" lon="4.57998">
        <ele>505.2</ele>
        <time>2022-06-26T05:28:39Z</time>
      </trkpt>
      <trkpt lat="46.00129" lon="4.58001">
        <ele>505.2</ele>
        <time>2022-06-26T05:28:40Z</time>
      </trkpt>
      <trkpt lat="46.00127" lon="4.58006">
        <ele>505.4</ele>
        <time>2022-06-26T05:28:41Z</time>
      </trkpt>
      <trkpt lat="46.00127" lon="4.58009">
        <ele>505.6</ele>
        <time>2022-06-26T05:28:42Z</time>
      </trkpt>
      <trkpt lat="46.00127" lon="4.58012">
        <ele>505.6</ele>
        <time>2022-06-26T05:28:43Z</time>
      </trkpt>
      <trkpt lat="46.00126" lon="4.58014">
        <ele>505.6</ele>
        <time>2022-06-26T05:28:44Z</time>
      </trkpt>
      <trkpt lat="46.00125" lon="4.58017">
        <ele>506</ele>
        <time>2022-06-26T05:28:45Z</time>
      </trkpt>
      <trkpt lat="46.00124" lon="4.58019">
        <ele>506</ele>
        <time>2022-06-26T05:28:46Z</time>
      </trkpt>
      <trkpt lat="46.00123" lon="4.58021">
        <ele>506.4</ele>
        <time>2022-06-26T05:28:47Z</time>
      </trkpt>
      <trkpt lat="46.00122" lon="4.58023">
        <ele>506.4</ele>
        <time>2022-06-26T05:28:48Z</time>
      </trkpt>
      <trkpt lat="46.00122" lon="4.58026">
        <ele>506.6</ele>
        <time>2022-06-26T05:28:49Z</time>
      </trkpt>
      <trkpt lat="46.00121" lon="4.58028">
        <ele>506.6</ele>
        <time>2022-06-26T05:28:50Z</time>
      </trkpt>
      <trkpt lat="46.0012" lon="4.58031">
        <ele>506.6</ele>
        <time>2022-06-26T05:28:51Z</time>
      </trkpt>
      <trkpt lat="46.0012" lon="4.58033">
        <ele>507</ele>
        <time>2022-06-26T05:28:52Z</time>
      </trkpt>
      <trkpt lat="46.00119" lon="4.58035">
        <ele>507.2</ele>
        <time>2022-06-26T05:28:53Z</time>
      </trkpt>
      <trkpt lat="46.00118" lon="4.58037">
        <ele>507.4</ele>
        <time>2022-06-26T05:28:54Z</time>
      </trkpt>
      <trkpt lat="46.00117" lon="4.58039">
        <ele>507.4</ele>
        <time>2022-06-26T05:28:55Z</time>
      </trkpt>
      <trkpt lat="46.00116" lon="4.58041">
        <ele>507.6</ele>
        <time>2022-06-26T05:28:56Z</time>
      </trkpt>
      <trkpt lat="46.00115" lon="4.58043">
        <ele>507.6</ele>
        <time>2022-06-26T05:28:57Z</time>
      </trkpt>
      <trkpt lat="46.00114" lon="4.58045">
        <ele>508</ele>
        <time>2022-06-26T05:28:58Z</time>
      </trkpt>
      <trkpt lat="46.00112" lon="4.58047">
        <ele>508</ele>
        <time>2022-06-26T05:28:59Z</time>
      </trkpt>
      <trkpt lat="46.00111" lon="4.58048">
        <ele>508.2</ele>
        <time>2022-06-26T05:29:00Z</time>
      </trkpt>
      <trkpt lat="46.00109" lon="4.58049">
        <ele>508.2</ele>
        <time>2022-06-26T05:29:01Z</time>
      </trkpt>
      <trkpt lat="46.00107" lon="4.5805">
        <ele>508.6</ele>
        <time>2022-06-26T05:29:02Z</time>
      </trkpt>
      <trkpt lat="46.00105" lon="4.5805">
        <ele>508.6</ele>
        <time>2022-06-26T05:29:03Z</time>
      </trkpt>
      <trkpt lat="46.00103" lon="4.58051">
        <ele>508.8</ele>
        <time>2022-06-26T05:29:04Z</time>
      </trkpt>
      <trkpt lat="46.00102" lon="4.58051">
        <ele>508.8</ele>
        <time>2022-06-26T05:29:05Z</time>
      </trkpt>
      <trkpt lat="46.001" lon="4.58051">
        <ele>509</ele>
        <time>2022-06-26T05:29:06Z</time>
      </trkpt>
      <trkpt lat="46.00098" lon="4.58051">
        <ele>509</ele>
        <time>2022-06-26T05:29:07Z</time>
      </trkpt>
      <trkpt lat="46.00096" lon="4.58051">
        <ele>509.4</ele>
        <time>2022-06-26T05:29:08Z</time>
      </trkpt>
      <trkpt lat="46.00094" lon="4.58049">
        <ele>509.4</ele>
        <time>2022-06-26T05:29:09Z</time>
      </trkpt>
      <trkpt lat="46.00093" lon="4.58049">
        <ele>509.8</ele>
        <time>2022-06-26T05:29:10Z</time>
      </trkpt>
      <trkpt lat="46.00091" lon="4.58048">
        <ele>510</ele>
        <time>2022-06-26T05:29:12Z</time>
      </trkpt>
      <trkpt lat="46.00089" lon="4.58046">
        <ele>510</ele>
        <time>2022-06-26T05:29:13Z</time>
      </trkpt>
      <trkpt lat="46.00088" lon="4.58045">
        <ele>510.2</ele>
        <time>2022-06-26T05:29:14Z</time>
      </trkpt>
      <trkpt lat="46.00086" lon="4.58044">
        <ele>510.2</ele>
        <time>2022-06-26T05:29:15Z</time>
      </trkpt>
      <trkpt lat="46.00085" lon="4.58043">
        <ele>510.6</ele>
        <time>2022-06-26T05:29:16Z</time>
      </trkpt>
      <trkpt lat="46.00083" lon="4.58041">
        <ele>510.6</ele>
        <time>2022-06-26T05:29:17Z</time>
      </trkpt>
      <trkpt lat="46.00082" lon="4.5804">
        <ele>511</ele>
        <time>2022-06-26T05:29:18Z</time>
      </trkpt>
      <trkpt lat="46.0008" lon="4.58039">
        <ele>511</ele>
        <time>2022-06-26T05:29:19Z</time>
      </trkpt>
      <trkpt lat="46.00079" lon="4.58038">
        <ele>511.2</ele>
        <time>2022-06-26T05:29:20Z</time>
      </trkpt>
      <trkpt lat="46.00077" lon="4.58037">
        <ele>511.2</ele>
        <time>2022-06-26T05:29:21Z</time>
      </trkpt>
      <trkpt lat="46.00076" lon="4.58035">
        <ele>511.2</ele>
        <time>2022-06-26T05:29:22Z</time>
      </trkpt>
      <trkpt lat="46.00074" lon="4.58034">
        <ele>511.6</ele>
        <time>2022-06-26T05:29:23Z</time>
      </trkpt>
      <trkpt lat="46.00072" lon="4.58034">
        <ele>511.6</ele>
        <time>2022-06-26T05:29:24Z</time>
      </trkpt>
      <trkpt lat="46.00071" lon="4.58033">
        <ele>512</ele>
        <time>2022-06-26T05:29:25Z</time>
      </trkpt>
      <trkpt lat="46.00069" lon="4.58032">
        <ele>512</ele>
        <time>2022-06-26T05:29:26Z</time>
      </trkpt>
      <trkpt lat="46.00067" lon="4.58031">
        <ele>512.2</ele>
        <time>2022-06-26T05:29:27Z</time>
      </trkpt>
      <trkpt lat="46.00065" lon="4.58029">
        <ele>512.2</ele>
        <time>2022-06-26T05:29:28Z</time>
      </trkpt>
      <trkpt lat="46.00064" lon="4.58028">
        <ele>512.6</ele>
        <time>2022-06-26T05:29:29Z</time>
      </trkpt>
      <trkpt lat="46.00062" lon="4.58027">
        <ele>512.6</ele>
        <time>2022-06-26T05:29:30Z</time>
      </trkpt>
      <trkpt lat="46.0006" lon="4.58025">
        <ele>512.8</ele>
        <time>2022-06-26T05:29:31Z</time>
      </trkpt>
      <trkpt lat="46.00059" lon="4.58024">
        <ele>513</ele>
        <time>2022-06-26T05:29:32Z</time>
      </trkpt>
      <trkpt lat="46.00057" lon="4.58023">
        <ele>513</ele>
        <time>2022-06-26T05:29:33Z</time>
      </trkpt>
      <trkpt lat="46.00056" lon="4.58021">
        <ele>513.4</ele>
        <time>2022-06-26T05:29:34Z</time>
      </trkpt>
      <trkpt lat="46.00055" lon="4.58019">
        <ele>513.4</ele>
        <time>2022-06-26T05:29:35Z</time>
      </trkpt>
      <trkpt lat="46.00053" lon="4.58017">
        <ele>513.6</ele>
        <time>2022-06-26T05:29:36Z</time>
      </trkpt>
      <trkpt lat="46.00052" lon="4.58015">
        <ele>513.6</ele>
        <time>2022-06-26T05:29:37Z</time>
      </trkpt>
      <trkpt lat="46.0005" lon="4.58014">
        <ele>514</ele>
        <time>2022-06-26T05:29:38Z</time>
      </trkpt>
      <trkpt lat="46.00049" lon="4.58012">
        <ele>514.2</ele>
        <time>2022-06-26T05:29:39Z</time>
      </trkpt>
      <trkpt lat="46.00047" lon="4.58011">
        <ele>514.2</ele>
        <time>2022-06-26T05:29:40Z</time>
      </trkpt>
      <trkpt lat="46.00045" lon="4.58009">
        <ele>514.6</ele>
        <time>2022-06-26T05:29:41Z</time>
      </trkpt>
      <trkpt lat="46.00043" lon="4.58008">
        <ele>514.6</ele>
        <time>2022-06-26T05:29:42Z</time>
      </trkpt>
      <trkpt lat="46.00041" lon="4.58007">
        <ele>514.6</ele>
        <time>2022-06-26T05:29:43Z</time>
      </trkpt>
      <trkpt lat="46.00038" lon="4.58006">
        <ele>514.8</ele>
        <time>2022-06-26T05:29:44Z</time>
      </trkpt>
      <trkpt lat="46.00036" lon="4.58005">
        <ele>514.8</ele>
        <time>2022-06-26T05:29:45Z</time>
      </trkpt>
      <trkpt lat="46.00034" lon="4.58004">
        <ele>514.8</ele>
        <time>2022-06-26T05:29:46Z</time>
      </trkpt>
      <trkpt lat="46.00032" lon="4.58003">
        <ele>515</ele>
        <time>2022-06-26T05:29:47Z</time>
      </trkpt>
      <trkpt lat="46.0003" lon="4.58002">
        <ele>515</ele>
        <time>2022-06-26T05:29:48Z</time>
      </trkpt>
      <trkpt lat="46.00027" lon="4.58001">
        <ele>515.2</ele>
        <time>2022-06-26T05:29:49Z</time>
      </trkpt>
      <trkpt lat="46.00026" lon="4.58">
        <ele>515.4</ele>
        <time>2022-06-26T05:29:50Z</time>
      </trkpt>
      <trkpt lat="46.00024" lon="4.57999">
        <ele>515.6</ele>
        <time>2022-06-26T05:29:51Z</time>
      </trkpt>
      <trkpt lat="46.00022" lon="4.57998">
        <ele>515.8</ele>
        <time>2022-06-26T05:29:52Z</time>
      </trkpt>
      <trkpt lat="46.00021" lon="4.57997">
        <ele>516.2</ele>
        <time>2022-06-26T05:29:53Z</time>
      </trkpt>
      <trkpt lat="46.00019" lon="4.57997">
        <ele>516.4</ele>
        <time>2022-06-26T05:29:54Z</time>
      </trkpt>
      <trkpt lat="46.00016" lon="4.57996">
        <ele>516.4</ele>
        <time>2022-06-26T05:29:55Z</time>
      </trkpt>
      <trkpt lat="46.00014" lon="4.57996">
        <ele>516.6</ele>
        <time>2022-06-26T05:29:56Z</time>
      </trkpt>
      <trkpt lat="46.00012" lon="4.57995">
        <ele>516.6</ele>
        <time>2022-06-26T05:29:57Z</time>
      </trkpt>
      <trkpt lat="46.0001" lon="4.57995">
        <ele>517.2</ele>
        <time>2022-06-26T05:29:58Z</time>
      </trkpt>
      <trkpt lat="46.00008" lon="4.57996">
        <ele>517.2</ele>
        <time>2022-06-26T05:29:59Z</time>
      </trkpt>
      <trkpt lat="46.00006" lon="4.57997">
        <ele>517.6</ele>
        <time>2022-06-26T05:30:00Z</time>
      </trkpt>
      <trkpt lat="46.00005" lon="4.57997">
        <ele>517.8</ele>
        <time>2022-06-26T05:30:01Z</time>
      </trkpt>
      <trkpt lat="46.00003" lon="4.57997">
        <ele>518</ele>
        <time>2022-06-26T05:30:02Z</time>
      </trkpt>
      <trkpt lat="46.00001" lon="4.57997">
        <ele>518</ele>
        <time>2022-06-26T05:30:03Z</time>
      </trkpt>
      <trkpt lat="45.99999" lon="4.57997">
        <ele>518.6</ele>
        <time>2022-06-26T05:30:04Z</time>
      </trkpt>
      <trkpt lat="45.99997" lon="4.57997">
        <ele>518.8</ele>
        <time>2022-06-26T05:30:05Z</time>
      </trkpt>
      <trkpt lat="45.99995" lon="4.57997">
        <ele>518.8</ele>
        <time>2022-06-26T05:30:06Z</time>
      </trkpt>
      <trkpt lat="45.99994" lon="4.57998">
        <ele>519</ele>
        <time>2022-06-26T05:30:07Z</time>
      </trkpt>
      <trkpt lat="45.99991" lon="4.57999">
        <ele>519.2</ele>
        <time>2022-06-26T05:30:08Z</time>
      </trkpt>
      <trkpt lat="45.99989" lon="4.57999">
        <ele>519.6</ele>
        <time>2022-06-26T05:30:09Z</time>
      </trkpt>
      <trkpt lat="45.99987" lon="4.58">
        <ele>519.8</ele>
        <time>2022-06-26T05:30:10Z</time>
      </trkpt>
      <trkpt lat="45.99984" lon="4.58002">
        <ele>520</ele>
        <time>2022-06-26T05:30:11Z</time>
      </trkpt>
      <trkpt lat="45.99982" lon="4.58003">
        <ele>520</ele>
        <time>2022-06-26T05:30:12Z</time>
      </trkpt>
      <trkpt lat="45.9998" lon="4.58005">
        <ele>520.4</ele>
        <time>2022-06-26T05:30:13Z</time>
      </trkpt>
      <trkpt lat="45.99979" lon="4.58006">
        <ele>520.6</ele>
        <time>2022-06-26T05:30:14Z</time>
      </trkpt>
      <trkpt lat="45.99977" lon="4.58008">
        <ele>520.6</ele>
        <time>2022-06-26T05:30:15Z</time>
      </trkpt>
      <trkpt lat="45.99975" lon="4.58009">
        <ele>520.8</ele>
        <time>2022-06-26T05:30:16Z</time>
      </trkpt>
      <trkpt lat="45.99974" lon="4.5801">
        <ele>521</ele>
        <time>2022-06-26T05:30:17Z</time>
      </trkpt>
      <trkpt lat="45.99972" lon="4.58011">
        <ele>521</ele>
        <time>2022-06-26T05:30:18Z</time>
      </trkpt>
      <trkpt lat="45.99971" lon="4.58013">
        <ele>521.2</ele>
        <time>2022-06-26T05:30:19Z</time>
      </trkpt>
      <trkpt lat="45.99969" lon="4.58014">
        <ele>521.2</ele>
        <time>2022-06-26T05:30:20Z</time>
      </trkpt>
      <trkpt lat="45.99968" lon="4.58015">
        <ele>521.6</ele>
        <time>2022-06-26T05:30:21Z</time>
      </trkpt>
      <trkpt lat="45.99966" lon="4.58015">
        <ele>521.6</ele>
        <time>2022-06-26T05:30:22Z</time>
      </trkpt>
      <trkpt lat="45.99964" lon="4.58016">
        <ele>521.8</ele>
        <time>2022-06-26T05:30:23Z</time>
      </trkpt>
      <trkpt lat="45.99963" lon="4.58017">
        <ele>521.8</ele>
        <time>2022-06-26T05:30:24Z</time>
      </trkpt>
      <trkpt lat="45.99961" lon="4.58018">
        <ele>522.2</ele>
        <time>2022-06-26T05:30:25Z</time>
      </trkpt>
      <trkpt lat="45.99959" lon="4.58019">
        <ele>522.2</ele>
        <time>2022-06-26T05:30:26Z</time>
      </trkpt>
      <trkpt lat="45.99957" lon="4.5802">
        <ele>522.4</ele>
        <time>2022-06-26T05:30:27Z</time>
      </trkpt>
      <trkpt lat="45.99955" lon="4.5802">
        <ele>522.4</ele>
        <time>2022-06-26T05:30:28Z</time>
      </trkpt>
      <trkpt lat="45.99953" lon="4.5802">
        <ele>522.4</ele>
        <time>2022-06-26T05:30:29Z</time>
      </trkpt>
      <trkpt lat="45.9995" lon="4.5802">
        <ele>522.6</ele>
        <time>2022-06-26T05:30:30Z</time>
      </trkpt>
      <trkpt lat="45.99948" lon="4.5802">
        <ele>522.6</ele>
        <time>2022-06-26T05:30:31Z</time>
      </trkpt>
      <trkpt lat="45.99946" lon="4.5802">
        <ele>522.8</ele>
        <time>2022-06-26T05:30:32Z</time>
      </trkpt>
      <trkpt lat="45.99944" lon="4.5802">
        <ele>522.8</ele>
        <time>2022-06-26T05:30:33Z</time>
      </trkpt>
      <trkpt lat="45.99941" lon="4.58019">
        <ele>523</ele>
        <time>2022-06-26T05:30:34Z</time>
      </trkpt>
      <trkpt lat="45.99939" lon="4.58018">
        <ele>523</ele>
        <time>2022-06-26T05:30:35Z</time>
      </trkpt>
      <trkpt lat="45.99937" lon="4.58018">
        <ele>523.4</ele>
        <time>2022-06-26T05:30:36Z</time>
      </trkpt>
      <trkpt lat="45.99934" lon="4.58017">
        <ele>523.4</ele>
        <time>2022-06-26T05:30:37Z</time>
      </trkpt>
      <trkpt lat="45.99932" lon="4.58017">
        <ele>523.4</ele>
        <time>2022-06-26T05:30:38Z</time>
      </trkpt>
      <trkpt lat="45.9993" lon="4.58016">
        <ele>523.6</ele>
        <time>2022-06-26T05:30:39Z</time>
      </trkpt>
      <trkpt lat="45.99928" lon="4.58016">
        <ele>523.6</ele>
        <time>2022-06-26T05:30:40Z</time>
      </trkpt>
      <trkpt lat="45.99926" lon="4.58015">
        <ele>524</ele>
        <time>2022-06-26T05:30:41Z</time>
      </trkpt>
      <trkpt lat="45.99924" lon="4.58015">
        <ele>524</ele>
        <time>2022-06-26T05:30:42Z</time>
      </trkpt>
      <trkpt lat="45.99922" lon="4.58014">
        <ele>524.2</ele>
        <time>2022-06-26T05:30:43Z</time>
      </trkpt>
      <trkpt lat="45.9992" lon="4.58014">
        <ele>524.2</ele>
        <time>2022-06-26T05:30:44Z</time>
      </trkpt>
      <trkpt lat="45.99918" lon="4.58013">
        <ele>524.4</ele>
        <time>2022-06-26T05:30:45Z</time>
      </trkpt>
      <trkpt lat="45.99916" lon="4.58012">
        <ele>524.4</ele>
        <time>2022-06-26T05:30:46Z</time>
      </trkpt>
      <trkpt lat="45.99914" lon="4.58011">
        <ele>524.8</ele>
        <time>2022-06-26T05:30:47Z</time>
      </trkpt>
      <trkpt lat="45.99912" lon="4.58011">
        <ele>524.8</ele>
        <time>2022-06-26T05:30:48Z</time>
      </trkpt>
      <trkpt lat="45.9991" lon="4.5801">
        <ele>525.2</ele>
        <time>2022-06-26T05:30:49Z</time>
      </trkpt>
      <trkpt lat="45.99908" lon="4.58009">
        <ele>525.2</ele>
        <time>2022-06-26T05:30:50Z</time>
      </trkpt>
      <trkpt lat="45.99906" lon="4.58008">
        <ele>525.4</ele>
        <time>2022-06-26T05:30:51Z</time>
      </trkpt>
      <trkpt lat="45.99903" lon="4.58006">
        <ele>525.4</ele>
        <time>2022-06-26T05:30:52Z</time>
      </trkpt>
      <trkpt lat="45.99901" lon="4.58006">
        <ele>525.6</ele>
        <time>2022-06-26T05:30:53Z</time>
      </trkpt>
      <trkpt lat="45.99898" lon="4.58005">
        <ele>525.6</ele>
        <time>2022-06-26T05:30:54Z</time>
      </trkpt>
      <trkpt lat="45.99895" lon="4.58004">
        <ele>525.8</ele>
        <time>2022-06-26T05:30:55Z</time>
      </trkpt>
      <trkpt lat="45.99892" lon="4.58004">
        <ele>525.8</ele>
        <time>2022-06-26T05:30:56Z</time>
      </trkpt>
      <trkpt lat="45.99889" lon="4.58003">
        <ele>526</ele>
        <time>2022-06-26T05:30:57Z</time>
      </trkpt>
      <trkpt lat="45.99886" lon="4.58004">
        <ele>526</ele>
        <time>2022-06-26T05:30:58Z</time>
      </trkpt>
      <trkpt lat="45.99883" lon="4.58004">
        <ele>526</ele>
        <time>2022-06-26T05:30:59Z</time>
      </trkpt>
      <trkpt lat="45.9988" lon="4.58005">
        <ele>526</ele>
        <time>2022-06-26T05:31:00Z</time>
      </trkpt>
      <trkpt lat="45.99877" lon="4.58006">
        <ele>526</ele>
        <time>2022-06-26T05:31:01Z</time>
      </trkpt>
      <trkpt lat="45.99874" lon="4.58007">
        <ele>526.4</ele>
        <time>2022-06-26T05:31:02Z</time>
      </trkpt>
      <trkpt lat="45.99871" lon="4.58009">
        <ele>526.4</ele>
        <time>2022-06-26T05:31:03Z</time>
      </trkpt>
      <trkpt lat="45.99869" lon="4.58011">
        <ele>526.6</ele>
        <time>2022-06-26T05:31:04Z</time>
      </trkpt>
      <trkpt lat="45.99867" lon="4.58013">
        <ele>526.6</ele>
        <time>2022-06-26T05:31:05Z</time>
      </trkpt>
      <trkpt lat="45.99864" lon="4.58015">
        <ele>526.8</ele>
        <time>2022-06-26T05:31:06Z</time>
      </trkpt>
      <trkpt lat="45.99862" lon="4.58018">
        <ele>526.8</ele>
        <time>2022-06-26T05:31:07Z</time>
      </trkpt>
      <trkpt lat="45.99862" lon="4.58022">
        <ele>527</ele>
        <time>2022-06-26T05:31:08Z</time>
      </trkpt>
      <trkpt lat="45.99861" lon="4.58025">
        <ele>527</ele>
        <time>2022-06-26T05:31:09Z</time>
      </trkpt>
      <trkpt lat="45.9986" lon="4.58028">
        <ele>527</ele>
        <time>2022-06-26T05:31:10Z</time>
      </trkpt>
      <trkpt lat="45.99859" lon="4.58032">
        <ele>527.2</ele>
        <time>2022-06-26T05:31:11Z</time>
      </trkpt>
      <trkpt lat="45.99859" lon="4.58035">
        <ele>527.2</ele>
        <time>2022-06-26T05:31:12Z</time>
      </trkpt>
      <trkpt lat="45.99859" lon="4.58038">
        <ele>527.6</ele>
        <time>2022-06-26T05:31:13Z</time>
      </trkpt>
      <trkpt lat="45.99859" lon="4.58041">
        <ele>527.6</ele>
        <time>2022-06-26T05:31:14Z</time>
      </trkpt>
      <trkpt lat="45.99859" lon="4.58044">
        <ele>528</ele>
        <time>2022-06-26T05:31:15Z</time>
      </trkpt>
      <trkpt lat="45.99859" lon="4.58048">
        <ele>528</ele>
        <time>2022-06-26T05:31:16Z</time>
      </trkpt>
      <trkpt lat="45.99859" lon="4.58051">
        <ele>528.2</ele>
        <time>2022-06-26T05:31:17Z</time>
      </trkpt>
      <trkpt lat="45.99859" lon="4.58055">
        <ele>528.2</ele>
        <time>2022-06-26T05:31:18Z</time>
      </trkpt>
      <trkpt lat="45.9986" lon="4.58058">
        <ele>528.6</ele>
        <time>2022-06-26T05:31:19Z</time>
      </trkpt>
      <trkpt lat="45.9986" lon="4.58061">
        <ele>528.6</ele>
        <time>2022-06-26T05:31:20Z</time>
      </trkpt>
      <trkpt lat="45.9986" lon="4.58065">
        <ele>528.8</ele>
        <time>2022-06-26T05:31:21Z</time>
      </trkpt>
      <trkpt lat="45.99861" lon="4.58069">
        <ele>528.8</ele>
        <time>2022-06-26T05:31:22Z</time>
      </trkpt>
      <trkpt lat="45.99862" lon="4.58072">
        <ele>529.2</ele>
        <time>2022-06-26T05:31:23Z</time>
      </trkpt>
      <trkpt lat="45.99862" lon="4.58075">
        <ele>529.2</ele>
        <time>2022-06-26T05:31:24Z</time>
      </trkpt>
      <trkpt lat="45.99863" lon="4.58079">
        <ele>529.4</ele>
        <time>2022-06-26T05:31:25Z</time>
      </trkpt>
      <trkpt lat="45.99863" lon="4.58082">
        <ele>529.4</ele>
        <time>2022-06-26T05:31:26Z</time>
      </trkpt>
      <trkpt lat="45.99864" lon="4.58086">
        <ele>529.8</ele>
        <time>2022-06-26T05:31:27Z</time>
      </trkpt>
      <trkpt lat="45.99864" lon="4.58089">
        <ele>529.8</ele>
        <time>2022-06-26T05:31:28Z</time>
      </trkpt>
      <trkpt lat="45.99864" lon="4.58093">
        <ele>530</ele>
        <time>2022-06-26T05:31:29Z</time>
      </trkpt>
      <trkpt lat="45.99864" lon="4.58097">
        <ele>530</ele>
        <time>2022-06-26T05:31:30Z</time>
      </trkpt>
      <trkpt lat="45.99864" lon="4.581">
        <ele>530.4</ele>
        <time>2022-06-26T05:31:31Z</time>
      </trkpt>
      <trkpt lat="45.99865" lon="4.58103">
        <ele>530.4</ele>
        <time>2022-06-26T05:31:32Z</time>
      </trkpt>
      <trkpt lat="45.99865" lon="4.58107">
        <ele>530.6</ele>
        <time>2022-06-26T05:31:33Z</time>
      </trkpt>
      <trkpt lat="45.99865" lon="4.5811">
        <ele>530.6</ele>
        <time>2022-06-26T05:31:34Z</time>
      </trkpt>
      <trkpt lat="45.99866" lon="4.58113">
        <ele>531</ele>
        <time>2022-06-26T05:31:35Z</time>
      </trkpt>
      <trkpt lat="45.99866" lon="4.58116">
        <ele>531</ele>
        <time>2022-06-26T05:31:36Z</time>
      </trkpt>
      <trkpt lat="45.99867" lon="4.5812">
        <ele>531.4</ele>
        <time>2022-06-26T05:31:37Z</time>
      </trkpt>
      <trkpt lat="45.99867" lon="4.58123">
        <ele>531.4</ele>
        <time>2022-06-26T05:31:38Z</time>
      </trkpt>
      <trkpt lat="45.99867" lon="4.58126">
        <ele>531.8</ele>
        <time>2022-06-26T05:31:39Z</time>
      </trkpt>
      <trkpt lat="45.99868" lon="4.58129">
        <ele>532</ele>
        <time>2022-06-26T05:31:40Z</time>
      </trkpt>
      <trkpt lat="45.99868" lon="4.58132">
        <ele>532</ele>
        <time>2022-06-26T05:31:41Z</time>
      </trkpt>
      <trkpt lat="45.99869" lon="4.58135">
        <ele>532.2</ele>
        <time>2022-06-26T05:31:42Z</time>
      </trkpt>
      <trkpt lat="45.99869" lon="4.58138">
        <ele>532.2</ele>
        <time>2022-06-26T05:31:43Z</time>
      </trkpt>
      <trkpt lat="45.9987" lon="4.58141">
        <ele>532.6</ele>
        <time>2022-06-26T05:31:44Z</time>
      </trkpt>
      <trkpt lat="45.9987" lon="4.58144">
        <ele>532.6</ele>
        <time>2022-06-26T05:31:45Z</time>
      </trkpt>
      <trkpt lat="45.99871" lon="4.58147">
        <ele>532.8</ele>
        <time>2022-06-26T05:31:46Z</time>
      </trkpt>
      <trkpt lat="45.99871" lon="4.5815">
        <ele>532.8</ele>
        <time>2022-06-26T05:31:47Z</time>
      </trkpt>
      <trkpt lat="45.99872" lon="4.58153">
        <ele>533.2</ele>
        <time>2022-06-26T05:31:48Z</time>
      </trkpt>
      <trkpt lat="45.99872" lon="4.58156">
        <ele>533.4</ele>
        <time>2022-06-26T05:31:49Z</time>
      </trkpt>
      <trkpt lat="45.99873" lon="4.58159">
        <ele>533.4</ele>
        <time>2022-06-26T05:31:50Z</time>
      </trkpt>
      <trkpt lat="45.99874" lon="4.58161">
        <ele>533.8</ele>
        <time>2022-06-26T05:31:51Z</time>
      </trkpt>
      <trkpt lat="45.99875" lon="4.58164">
        <ele>534</ele>
        <time>2022-06-26T05:31:52Z</time>
      </trkpt>
      <trkpt lat="45.99875" lon="4.58167">
        <ele>534.2</ele>
        <time>2022-06-26T05:31:53Z</time>
      </trkpt>
      <trkpt lat="45.99876" lon="4.5817">
        <ele>534.4</ele>
        <time>2022-06-26T05:31:54Z</time>
      </trkpt>
      <trkpt lat="45.99876" lon="4.58172">
        <ele>534.8</ele>
        <time>2022-06-26T05:31:55Z</time>
      </trkpt>
      <trkpt lat="45.99877" lon="4.58175">
        <ele>535</ele>
        <time>2022-06-26T05:31:56Z</time>
      </trkpt>
      <trkpt lat="45.99878" lon="4.58177">
        <ele>535.2</ele>
        <time>2022-06-26T05:31:57Z</time>
      </trkpt>
      <trkpt lat="45.99878" lon="4.5818">
        <ele>535.2</ele>
        <time>2022-06-26T05:31:58Z</time>
      </trkpt>
      <trkpt lat="45.99879" lon="4.58183">
        <ele>535.4</ele>
        <time>2022-06-26T05:31:59Z</time>
      </trkpt>
      <trkpt lat="45.99879" lon="4.58185">
        <ele>535.8</ele>
        <time>2022-06-26T05:32:00Z</time>
      </trkpt>
      <trkpt lat="45.9988" lon="4.58187">
        <ele>535.8</ele>
        <time>2022-06-26T05:32:01Z</time>
      </trkpt>
      <trkpt lat="45.99881" lon="4.5819">
        <ele>536.2</ele>
        <time>2022-06-26T05:32:02Z</time>
      </trkpt>
      <trkpt lat="45.99882" lon="4.58192">
        <ele>536.4</ele>
        <time>2022-06-26T05:32:03Z</time>
      </trkpt>
      <trkpt lat="45.99882" lon="4.58194">
        <ele>536.6</ele>
        <time>2022-06-26T05:32:04Z</time>
      </trkpt>
      <trkpt lat="45.99883" lon="4.58196">
        <ele>537</ele>
        <time>2022-06-26T05:32:05Z</time>
      </trkpt>
      <trkpt lat="45.99883" lon="4.58198">
        <ele>537.2</ele>
        <time>2022-06-26T05:32:06Z</time>
      </trkpt>
      <trkpt lat="45.99884" lon="4.58201">
        <ele>537.4</ele>
        <time>2022-06-26T05:32:07Z</time>
      </trkpt>
      <trkpt lat="45.99885" lon="4.58203">
        <ele>537.6</ele>
        <time>2022-06-26T05:32:08Z</time>
      </trkpt>
      <trkpt lat="45.99886" lon="4.58205">
        <ele>537.6</ele>
        <time>2022-06-26T05:32:09Z</time>
      </trkpt>
      <trkpt lat="45.99887" lon="4.58207">
        <ele>538</ele>
        <time>2022-06-26T05:32:10Z</time>
      </trkpt>
      <trkpt lat="45.99889" lon="4.5821">
        <ele>538.2</ele>
        <time>2022-06-26T05:32:11Z</time>
      </trkpt>
      <trkpt lat="45.9989" lon="4.58212">
        <ele>538.4</ele>
        <time>2022-06-26T05:32:12Z</time>
      </trkpt>
      <trkpt lat="45.99891" lon="4.58214">
        <ele>538.4</ele>
        <time>2022-06-26T05:32:13Z</time>
      </trkpt>
      <trkpt lat="45.99892" lon="4.58216">
        <ele>538.4</ele>
        <time>2022-06-26T05:32:14Z</time>
      </trkpt>
      <trkpt lat="45.99893" lon="4.58219">
        <ele>538.8</ele>
        <time>2022-06-26T05:32:15Z</time>
      </trkpt>
      <trkpt lat="45.99893" lon="4.58221">
        <ele>538.8</ele>
        <time>2022-06-26T05:32:16Z</time>
      </trkpt>
      <trkpt lat="45.99894" lon="4.58224">
        <ele>539</ele>
        <time>2022-06-26T05:32:17Z</time>
      </trkpt>
      <trkpt lat="45.99894" lon="4.58227">
        <ele>539.4</ele>
        <time>2022-06-26T05:32:18Z</time>
      </trkpt>
      <trkpt lat="45.99895" lon="4.5823">
        <ele>539.6</ele>
        <time>2022-06-26T05:32:19Z</time>
      </trkpt>
      <trkpt lat="45.99895" lon="4.58232">
        <ele>539.8</ele>
        <time>2022-06-26T05:32:20Z</time>
      </trkpt>
      <trkpt lat="45.99895" lon="4.58235">
        <ele>539.8</ele>
        <time>2022-06-26T05:32:21Z</time>
      </trkpt>
      <trkpt lat="45.99895" lon="4.58238">
        <ele>540.2</ele>
        <time>2022-06-26T05:32:22Z</time>
      </trkpt>
      <trkpt lat="45.99896" lon="4.58241">
        <ele>540.4</ele>
        <time>2022-06-26T05:32:23Z</time>
      </trkpt>
      <trkpt lat="45.99896" lon="4.58243">
        <ele>540.4</ele>
        <time>2022-06-26T05:32:24Z</time>
      </trkpt>
      <trkpt lat="45.99896" lon="4.58246">
        <ele>540.6</ele>
        <time>2022-06-26T05:32:25Z</time>
      </trkpt>
      <trkpt lat="45.99896" lon="4.58249">
        <ele>540.6</ele>
        <time>2022-06-26T05:32:26Z</time>
      </trkpt>
      <trkpt lat="45.99896" lon="4.58252">
        <ele>541</ele>
        <time>2022-06-26T05:32:27Z</time>
      </trkpt>
      <trkpt lat="45.99896" lon="4.58254">
        <ele>541</ele>
        <time>2022-06-26T05:32:28Z</time>
      </trkpt>
      <trkpt lat="45.99896" lon="4.58257">
        <ele>541.2</ele>
        <time>2022-06-26T05:32:29Z</time>
      </trkpt>
      <trkpt lat="45.99896" lon="4.5826">
        <ele>541.2</ele>
        <time>2022-06-26T05:32:30Z</time>
      </trkpt>
      <trkpt lat="45.99896" lon="4.58262">
        <ele>541.2</ele>
        <time>2022-06-26T05:32:31Z</time>
      </trkpt>
      <trkpt lat="45.99895" lon="4.58265">
        <ele>541.4</ele>
        <time>2022-06-26T05:32:32Z</time>
      </trkpt>
      <trkpt lat="45.99895" lon="4.58268">
        <ele>541.4</ele>
        <time>2022-06-26T05:32:33Z</time>
      </trkpt>
      <trkpt lat="45.99894" lon="4.58271">
        <ele>541.4</ele>
        <time>2022-06-26T05:32:34Z</time>
      </trkpt>
      <trkpt lat="45.99894" lon="4.58274">
        <ele>541.4</ele>
        <time>2022-06-26T05:32:35Z</time>
      </trkpt>
      <trkpt lat="45.99893" lon="4.58277">
        <ele>541.8</ele>
        <time>2022-06-26T05:32:36Z</time>
      </trkpt>
      <trkpt lat="45.99892" lon="4.5828">
        <ele>541.8</ele>
        <time>2022-06-26T05:32:37Z</time>
      </trkpt>
      <trkpt lat="45.99891" lon="4.58282">
        <ele>541.8</ele>
        <time>2022-06-26T05:32:38Z</time>
      </trkpt>
      <trkpt lat="45.9989" lon="4.58285">
        <ele>541.8</ele>
        <time>2022-06-26T05:32:39Z</time>
      </trkpt>
      <trkpt lat="45.99889" lon="4.58288">
        <ele>541.8</ele>
        <time>2022-06-26T05:32:40Z</time>
      </trkpt>
      <trkpt lat="45.99887" lon="4.58292">
        <ele>541.8</ele>
        <time>2022-06-26T05:32:41Z</time>
      </trkpt>
      <trkpt lat="45.99886" lon="4.58295">
        <ele>541.8</ele>
        <time>2022-06-26T05:32:42Z</time>
      </trkpt>
      <trkpt lat="45.99884" lon="4.58299">
        <ele>541.8</ele>
        <time>2022-06-26T05:32:43Z</time>
      </trkpt>
      <trkpt lat="45.99883" lon="4.58303">
        <ele>541.8</ele>
        <time>2022-06-26T05:32:44Z</time>
      </trkpt>
      <trkpt lat="45.99881" lon="4.58307">
        <ele>541.8</ele>
        <time>2022-06-26T05:32:45Z</time>
      </trkpt>
      <trkpt lat="45.99879" lon="4.58311">
        <ele>541.6</ele>
        <time>2022-06-26T05:32:46Z</time>
      </trkpt>
      <trkpt lat="45.99876" lon="4.58315">
        <ele>541.6</ele>
        <time>2022-06-26T05:32:47Z</time>
      </trkpt>
      <trkpt lat="45.99874" lon="4.58319">
        <ele>541.2</ele>
        <time>2022-06-26T05:32:48Z</time>
      </trkpt>
      <trkpt lat="45.99871" lon="4.58322">
        <ele>541.2</ele>
        <time>2022-06-26T05:32:49Z</time>
      </trkpt>
      <trkpt lat="45.99867" lon="4.58326">
        <ele>541.2</ele>
        <time>2022-06-26T05:32:50Z</time>
      </trkpt>
      <trkpt lat="45.99864" lon="4.58329">
        <ele>541</ele>
        <time>2022-06-26T05:32:51Z</time>
      </trkpt>
      <trkpt lat="45.9986" lon="4.58332">
        <ele>541</ele>
        <time>2022-06-26T05:32:52Z</time>
      </trkpt>
      <trkpt lat="45.99855" lon="4.58335">
        <ele>541</ele>
        <time>2022-06-26T05:32:53Z</time>
      </trkpt>
      <trkpt lat="45.99851" lon="4.58338">
        <ele>541</ele>
        <time>2022-06-26T05:32:54Z</time>
      </trkpt>
      <trkpt lat="45.99846" lon="4.58341">
        <ele>540.8</ele>
        <time>2022-06-26T05:32:55Z</time>
      </trkpt>
      <trkpt lat="45.99842" lon="4.58343">
        <ele>540.8</ele>
        <time>2022-06-26T05:32:56Z</time>
      </trkpt>
      <trkpt lat="45.99837" lon="4.58346">
        <ele>540.8</ele>
        <time>2022-06-26T05:32:57Z</time>
      </trkpt>
      <trkpt lat="45.99832" lon="4.58349">
        <ele>540.8</ele>
        <time>2022-06-26T05:32:58Z</time>
      </trkpt>
      <trkpt lat="45.99828" lon="4.58352">
        <ele>540.4</ele>
        <time>2022-06-26T05:32:59Z</time>
      </trkpt>
      <trkpt lat="45.99823" lon="4.58354">
        <ele>540.4</ele>
        <time>2022-06-26T05:33:00Z</time>
      </trkpt>
      <trkpt lat="45.99818" lon="4.58356">
        <ele>540.4</ele>
        <time>2022-06-26T05:33:01Z</time>
      </trkpt>
      <trkpt lat="45.99813" lon="4.58358">
        <ele>540</ele>
        <time>2022-06-26T05:33:02Z</time>
      </trkpt>
      <trkpt lat="45.99808" lon="4.58359">
        <ele>540</ele>
        <time>2022-06-26T05:33:03Z</time>
      </trkpt>
      <trkpt lat="45.99803" lon="4.58361">
        <ele>540</ele>
        <time>2022-06-26T05:33:04Z</time>
      </trkpt>
      <trkpt lat="45.99798" lon="4.58362">
        <ele>539.8</ele>
        <time>2022-06-26T05:33:05Z</time>
      </trkpt>
      <trkpt lat="45.99794" lon="4.58363">
        <ele>539.8</ele>
        <time>2022-06-26T05:33:06Z</time>
      </trkpt>
      <trkpt lat="45.99789" lon="4.58365">
        <ele>539.8</ele>
        <time>2022-06-26T05:33:07Z</time>
      </trkpt>
      <trkpt lat="45.99785" lon="4.58366">
        <ele>539.6</ele>
        <time>2022-06-26T05:33:08Z</time>
      </trkpt>
      <trkpt lat="45.99781" lon="4.58366">
        <ele>539.6</ele>
        <time>2022-06-26T05:33:09Z</time>
      </trkpt>
      <trkpt lat="45.99777" lon="4.58367">
        <ele>539.4</ele>
        <time>2022-06-26T05:33:10Z</time>
      </trkpt>
      <trkpt lat="45.99772" lon="4.58368">
        <ele>539.4</ele>
        <time>2022-06-26T05:33:11Z</time>
      </trkpt>
      <trkpt lat="45.99767" lon="4.58369">
        <ele>539.4</ele>
        <time>2022-06-26T05:33:12Z</time>
      </trkpt>
      <trkpt lat="45.99763" lon="4.5837">
        <ele>539.4</ele>
        <time>2022-06-26T05:33:13Z</time>
      </trkpt>
      <trkpt lat="45.99758" lon="4.5837">
        <ele>539.4</ele>
        <time>2022-06-26T05:33:14Z</time>
      </trkpt>
      <trkpt lat="45.99753" lon="4.58371">
        <ele>539.4</ele>
        <time>2022-06-26T05:33:15Z</time>
      </trkpt>
      <trkpt lat="45.99748" lon="4.58372">
        <ele>539</ele>
        <time>2022-06-26T05:33:16Z</time>
      </trkpt>
      <trkpt lat="45.99743" lon="4.58374">
        <ele>539</ele>
        <time>2022-06-26T05:33:17Z</time>
      </trkpt>
      <trkpt lat="45.99738" lon="4.58375">
        <ele>539</ele>
        <time>2022-06-26T05:33:18Z</time>
      </trkpt>
      <trkpt lat="45.99732" lon="4.58377">
        <ele>539</ele>
        <time>2022-06-26T05:33:19Z</time>
      </trkpt>
      <trkpt lat="45.99727" lon="4.5838">
        <ele>538.8</ele>
        <time>2022-06-26T05:33:20Z</time>
      </trkpt>
      <trkpt lat="45.99722" lon="4.58384">
        <ele>538.8</ele>
        <time>2022-06-26T05:33:21Z</time>
      </trkpt>
      <trkpt lat="45.99717" lon="4.58387">
        <ele>538.4</ele>
        <time>2022-06-26T05:33:22Z</time>
      </trkpt>
      <trkpt lat="45.99711" lon="4.58391">
        <ele>538.4</ele>
        <time>2022-06-26T05:33:23Z</time>
      </trkpt>
      <trkpt lat="45.99706" lon="4.58394">
        <ele>538.2</ele>
        <time>2022-06-26T05:33:24Z</time>
      </trkpt>
      <trkpt lat="45.99701" lon="4.58397">
        <ele>538.2</ele>
        <time>2022-06-26T05:33:25Z</time>
      </trkpt>
      <trkpt lat="45.99696" lon="4.58399">
        <ele>537.8</ele>
        <time>2022-06-26T05:33:26Z</time>
      </trkpt>
      <trkpt lat="45.9969" lon="4.58402">
        <ele>537.8</ele>
        <time>2022-06-26T05:33:27Z</time>
      </trkpt>
      <trkpt lat="45.99684" lon="4.58403">
        <ele>537.6</ele>
        <time>2022-06-26T05:33:28Z</time>
      </trkpt>
      <trkpt lat="45.99679" lon="4.58404">
        <ele>537.6</ele>
        <time>2022-06-26T05:33:29Z</time>
      </trkpt>
      <trkpt lat="45.99672" lon="4.58405">
        <ele>537.4</ele>
        <time>2022-06-26T05:33:30Z</time>
      </trkpt>
      <trkpt lat="45.99666" lon="4.58405">
        <ele>537.4</ele>
        <time>2022-06-26T05:33:31Z</time>
      </trkpt>
      <trkpt lat="45.99661" lon="4.58405">
        <ele>537</ele>
        <time>2022-06-26T05:33:32Z</time>
      </trkpt>
      <trkpt lat="45.99656" lon="4.58406">
        <ele>537</ele>
        <time>2022-06-26T05:33:33Z</time>
      </trkpt>
      <trkpt lat="45.9965" lon="4.58408">
        <ele>537</ele>
        <time>2022-06-26T05:33:34Z</time>
      </trkpt>
      <trkpt lat="45.99645" lon="4.5841">
        <ele>537</ele>
        <time>2022-06-26T05:33:35Z</time>
      </trkpt>
      <trkpt lat="45.99639" lon="4.58414">
        <ele>537</ele>
        <time>2022-06-26T05:33:36Z</time>
      </trkpt>
      <trkpt lat="45.99634" lon="4.58418">
        <ele>537</ele>
        <time>2022-06-26T05:33:37Z</time>
      </trkpt>
      <trkpt lat="45.99629" lon="4.58422">
        <ele>537</ele>
        <time>2022-06-26T05:33:38Z</time>
      </trkpt>
      <trkpt lat="45.99623" lon="4.58426">
        <ele>537</ele>
        <time>2022-06-26T05:33:39Z</time>
      </trkpt>
      <trkpt lat="45.99618" lon="4.58429">
        <ele>537</ele>
        <time>2022-06-26T05:33:40Z</time>
      </trkpt>
      <trkpt lat="45.99612" lon="4.5843">
        <ele>537</ele>
        <time>2022-06-26T05:33:41Z</time>
      </trkpt>
      <trkpt lat="45.99607" lon="4.58432">
        <ele>537</ele>
        <time>2022-06-26T05:33:42Z</time>
      </trkpt>
      <trkpt lat="45.99601" lon="4.58432">
        <ele>537</ele>
        <time>2022-06-26T05:33:43Z</time>
      </trkpt>
      <trkpt lat="45.99596" lon="4.58431">
        <ele>537</ele>
        <time>2022-06-26T05:33:44Z</time>
      </trkpt>
      <trkpt lat="45.99592" lon="4.58431">
        <ele>537</ele>
        <time>2022-06-26T05:33:45Z</time>
      </trkpt>
      <trkpt lat="45.99587" lon="4.5843">
        <ele>537</ele>
        <time>2022-06-26T05:33:46Z</time>
      </trkpt>
      <trkpt lat="45.99583" lon="4.58429">
        <ele>537.2</ele>
        <time>2022-06-26T05:33:47Z</time>
      </trkpt>
      <trkpt lat="45.99579" lon="4.58428">
        <ele>537.2</ele>
        <time>2022-06-26T05:33:48Z</time>
      </trkpt>
      <trkpt lat="45.99575" lon="4.58427">
        <ele>537.6</ele>
        <time>2022-06-26T05:33:49Z</time>
      </trkpt>
      <trkpt lat="45.99572" lon="4.58426">
        <ele>537.8</ele>
        <time>2022-06-26T05:33:50Z</time>
      </trkpt>
      <trkpt lat="45.99569" lon="4.58424">
        <ele>538</ele>
        <time>2022-06-26T05:33:51Z</time>
      </trkpt>
      <trkpt lat="45.99566" lon="4.58424">
        <ele>538</ele>
        <time>2022-06-26T05:33:52Z</time>
      </trkpt>
      <trkpt lat="45.99563" lon="4.58424">
        <ele>538.4</ele>
        <time>2022-06-26T05:33:53Z</time>
      </trkpt>
      <trkpt lat="45.9956" lon="4.58423">
        <ele>538.4</ele>
        <time>2022-06-26T05:33:54Z</time>
      </trkpt>
      <trkpt lat="45.99557" lon="4.58423">
        <ele>538.4</ele>
        <time>2022-06-26T05:33:55Z</time>
      </trkpt>
      <trkpt lat="45.99553" lon="4.58422">
        <ele>538.6</ele>
        <time>2022-06-26T05:33:56Z</time>
      </trkpt>
      <trkpt lat="45.99549" lon="4.58422">
        <ele>538.6</ele>
        <time>2022-06-26T05:33:57Z</time>
      </trkpt>
      <trkpt lat="45.99546" lon="4.58422">
        <ele>538.6</ele>
        <time>2022-06-26T05:33:58Z</time>
      </trkpt>
      <trkpt lat="45.99542" lon="4.58427">
        <ele>538.6</ele>
        <time>2022-06-26T05:33:59Z</time>
      </trkpt>
      <trkpt lat="45.99539" lon="4.58432">
        <ele>538.6</ele>
        <time>2022-06-26T05:34:00Z</time>
      </trkpt>
      <trkpt lat="45.99536" lon="4.58437">
        <ele>538.6</ele>
        <time>2022-06-26T05:34:01Z</time>
      </trkpt>
      <trkpt lat="45.99533" lon="4.58442">
        <ele>538.8</ele>
        <time>2022-06-26T05:34:02Z</time>
      </trkpt>
      <trkpt lat="45.99531" lon="4.58448">
        <ele>538.8</ele>
        <time>2022-06-26T05:34:03Z</time>
      </trkpt>
      <trkpt lat="45.9953" lon="4.58455">
        <ele>539.4</ele>
        <time>2022-06-26T05:34:04Z</time>
      </trkpt>
      <trkpt lat="45.99528" lon="4.5846">
        <ele>539.6</ele>
        <time>2022-06-26T05:34:05Z</time>
      </trkpt>
      <trkpt lat="45.99527" lon="4.58465">
        <ele>539.8</ele>
        <time>2022-06-26T05:34:06Z</time>
      </trkpt>
      <trkpt lat="45.99525" lon="4.5847">
        <ele>540.2</ele>
        <time>2022-06-26T05:34:07Z</time>
      </trkpt>
      <trkpt lat="45.99523" lon="4.58474">
        <ele>540.4</ele>
        <time>2022-06-26T05:34:08Z</time>
      </trkpt>
      <trkpt lat="45.99522" lon="4.58478">
        <ele>540.6</ele>
        <time>2022-06-26T05:34:09Z</time>
      </trkpt>
      <trkpt lat="45.9952" lon="4.58482">
        <ele>540.8</ele>
        <time>2022-06-26T05:34:10Z</time>
      </trkpt>
      <trkpt lat="45.99519" lon="4.58485">
        <ele>541.4</ele>
        <time>2022-06-26T05:34:12Z</time>
      </trkpt>
      <trkpt lat="45.99516" lon="4.58488">
        <ele>541.6</ele>
        <time>2022-06-26T05:34:13Z</time>
      </trkpt>
      <trkpt lat="45.99514" lon="4.58491">
        <ele>541.8</ele>
        <time>2022-06-26T05:34:14Z</time>
      </trkpt>
      <trkpt lat="45.99511" lon="4.58494">
        <ele>541.8</ele>
        <time>2022-06-26T05:34:15Z</time>
      </trkpt>
      <trkpt lat="45.99508" lon="4.58496">
        <ele>542.2</ele>
        <time>2022-06-26T05:34:16Z</time>
      </trkpt>
      <trkpt lat="45.99505" lon="4.58498">
        <ele>542.2</ele>
        <time>2022-06-26T05:34:17Z</time>
      </trkpt>
      <trkpt lat="45.99502" lon="4.585">
        <ele>542.2</ele>
        <time>2022-06-26T05:34:18Z</time>
      </trkpt>
      <trkpt lat="45.99498" lon="4.58501">
        <ele>542.4</ele>
        <time>2022-06-26T05:34:19Z</time>
      </trkpt>
      <trkpt lat="45.99495" lon="4.58503">
        <ele>542.4</ele>
        <time>2022-06-26T05:34:20Z</time>
      </trkpt>
      <trkpt lat="45.99492" lon="4.58505">
        <ele>542.6</ele>
        <time>2022-06-26T05:34:21Z</time>
      </trkpt>
      <trkpt lat="45.99489" lon="4.58507">
        <ele>542.6</ele>
        <time>2022-06-26T05:34:22Z</time>
      </trkpt>
      <trkpt lat="45.99486" lon="4.58509">
        <ele>543</ele>
        <time>2022-06-26T05:34:23Z</time>
      </trkpt>
      <trkpt lat="45.99483" lon="4.5851">
        <ele>543</ele>
        <time>2022-06-26T05:34:24Z</time>
      </trkpt>
      <trkpt lat="45.9948" lon="4.58512">
        <ele>543.2</ele>
        <time>2022-06-26T05:34:25Z</time>
      </trkpt>
      <trkpt lat="45.99477" lon="4.58514">
        <ele>543.2</ele>
        <time>2022-06-26T05:34:26Z</time>
      </trkpt>
      <trkpt lat="45.99474" lon="4.58516">
        <ele>543.6</ele>
        <time>2022-06-26T05:34:27Z</time>
      </trkpt>
      <trkpt lat="45.99471" lon="4.58518">
        <ele>543.6</ele>
        <time>2022-06-26T05:34:28Z</time>
      </trkpt>
      <trkpt lat="45.99468" lon="4.5852">
        <ele>544</ele>
        <time>2022-06-26T05:34:29Z</time>
      </trkpt>
      <trkpt lat="45.99465" lon="4.58522">
        <ele>544</ele>
        <time>2022-06-26T05:34:30Z</time>
      </trkpt>
      <trkpt lat="45.99463" lon="4.58524">
        <ele>544.2</ele>
        <time>2022-06-26T05:34:31Z</time>
      </trkpt>
      <trkpt lat="45.9946" lon="4.58526">
        <ele>544.2</ele>
        <time>2022-06-26T05:34:32Z</time>
      </trkpt>
      <trkpt lat="45.99457" lon="4.58527">
        <ele>544.4</ele>
        <time>2022-06-26T05:34:33Z</time>
      </trkpt>
      <trkpt lat="45.99454" lon="4.58529">
        <ele>544.4</ele>
        <time>2022-06-26T05:34:34Z</time>
      </trkpt>
      <trkpt lat="45.99451" lon="4.58532">
        <ele>544.8</ele>
        <time>2022-06-26T05:34:35Z</time>
      </trkpt>
      <trkpt lat="45.99448" lon="4.58534">
        <ele>544.8</ele>
        <time>2022-06-26T05:34:36Z</time>
      </trkpt>
      <trkpt lat="45.99445" lon="4.58536">
        <ele>545</ele>
        <time>2022-06-26T05:34:37Z</time>
      </trkpt>
      <trkpt lat="45.99442" lon="4.58538">
        <ele>545</ele>
        <time>2022-06-26T05:34:38Z</time>
      </trkpt>
      <trkpt lat="45.99439" lon="4.5854">
        <ele>545.2</ele>
        <time>2022-06-26T05:34:39Z</time>
      </trkpt>
      <trkpt lat="45.99436" lon="4.58542">
        <ele>545.2</ele>
        <time>2022-06-26T05:34:40Z</time>
      </trkpt>
      <trkpt lat="45.99433" lon="4.58544">
        <ele>545.6</ele>
        <time>2022-06-26T05:34:41Z</time>
      </trkpt>
      <trkpt lat="45.9943" lon="4.58546">
        <ele>545.6</ele>
        <time>2022-06-26T05:34:42Z</time>
      </trkpt>
      <trkpt lat="45.99427" lon="4.58548">
        <ele>545.8</ele>
        <time>2022-06-26T05:34:43Z</time>
      </trkpt>
      <trkpt lat="45.99425" lon="4.5855">
        <ele>545.8</ele>
        <time>2022-06-26T05:34:44Z</time>
      </trkpt>
      <trkpt lat="45.99422" lon="4.58552">
        <ele>546.2</ele>
        <time>2022-06-26T05:34:45Z</time>
      </trkpt>
      <trkpt lat="45.99419" lon="4.58554">
        <ele>546.2</ele>
        <time>2022-06-26T05:34:46Z</time>
      </trkpt>
      <trkpt lat="45.99416" lon="4.58556">
        <ele>546.6</ele>
        <time>2022-06-26T05:34:47Z</time>
      </trkpt>
      <trkpt lat="45.99414" lon="4.58557">
        <ele>546.6</ele>
        <time>2022-06-26T05:34:48Z</time>
      </trkpt>
      <trkpt lat="45.99411" lon="4.58559">
        <ele>547</ele>
        <time>2022-06-26T05:34:49Z</time>
      </trkpt>
      <trkpt lat="45.99409" lon="4.58561">
        <ele>547</ele>
        <time>2022-06-26T05:34:50Z</time>
      </trkpt>
      <trkpt lat="45.99407" lon="4.58562">
        <ele>547.2</ele>
        <time>2022-06-26T05:34:51Z</time>
      </trkpt>
      <trkpt lat="45.99405" lon="4.58564">
        <ele>547.2</ele>
        <time>2022-06-26T05:34:52Z</time>
      </trkpt>
      <trkpt lat="45.99402" lon="4.58566">
        <ele>547.6</ele>
        <time>2022-06-26T05:34:53Z</time>
      </trkpt>
      <trkpt lat="45.994" lon="4.58568">
        <ele>547.6</ele>
        <time>2022-06-26T05:34:54Z</time>
      </trkpt>
      <trkpt lat="45.99398" lon="4.5857">
        <ele>547.8</ele>
        <time>2022-06-26T05:34:55Z</time>
      </trkpt>
      <trkpt lat="45.99396" lon="4.58572">
        <ele>547.8</ele>
        <time>2022-06-26T05:34:56Z</time>
      </trkpt>
      <trkpt lat="45.99393" lon="4.58573">
        <ele>548.2</ele>
        <time>2022-06-26T05:34:57Z</time>
      </trkpt>
      <trkpt lat="45.99391" lon="4.58575">
        <ele>548.2</ele>
        <time>2022-06-26T05:34:58Z</time>
      </trkpt>
      <trkpt lat="45.99389" lon="4.58577">
        <ele>548.4</ele>
        <time>2022-06-26T05:34:59Z</time>
      </trkpt>
      <trkpt lat="45.99387" lon="4.5858">
        <ele>548.4</ele>
        <time>2022-06-26T05:35:00Z</time>
      </trkpt>
      <trkpt lat="45.99385" lon="4.58582">
        <ele>548.8</ele>
        <time>2022-06-26T05:35:01Z</time>
      </trkpt>
      <trkpt lat="45.99383" lon="4.58584">
        <ele>548.8</ele>
        <time>2022-06-26T05:35:02Z</time>
      </trkpt>
      <trkpt lat="45.99381" lon="4.58587">
        <ele>549</ele>
        <time>2022-06-26T05:35:03Z</time>
      </trkpt>
      <trkpt lat="45.99379" lon="4.58589">
        <ele>549</ele>
        <time>2022-06-26T05:35:04Z</time>
      </trkpt>
      <trkpt lat="45.99377" lon="4.58591">
        <ele>549.4</ele>
        <time>2022-06-26T05:35:05Z</time>
      </trkpt>
      <trkpt lat="45.99375" lon="4.58594">
        <ele>549.6</ele>
        <time>2022-06-26T05:35:06Z</time>
      </trkpt>
      <trkpt lat="45.99373" lon="4.58596">
        <ele>549.6</ele>
        <time>2022-06-26T05:35:07Z</time>
      </trkpt>
      <trkpt lat="45.99371" lon="4.58599">
        <ele>549.8</ele>
        <time>2022-06-26T05:35:08Z</time>
      </trkpt>
      <trkpt lat="45.99369" lon="4.58602">
        <ele>549.8</ele>
        <time>2022-06-26T05:35:09Z</time>
      </trkpt>
      <trkpt lat="45.99367" lon="4.58604">
        <ele>550</ele>
        <time>2022-06-26T05:35:10Z</time>
      </trkpt>
      <trkpt lat="45.99365" lon="4.58606">
        <ele>550</ele>
        <time>2022-06-26T05:35:11Z</time>
      </trkpt>
      <trkpt lat="45.99363" lon="4.58609">
        <ele>550</ele>
        <time>2022-06-26T05:35:12Z</time>
      </trkpt>
      <trkpt lat="45.99361" lon="4.58612">
        <ele>550.2</ele>
        <time>2022-06-26T05:35:13Z</time>
      </trkpt>
      <trkpt lat="45.99359" lon="4.58614">
        <ele>550.2</ele>
        <time>2022-06-26T05:35:14Z</time>
      </trkpt>
      <trkpt lat="45.99357" lon="4.58617">
        <ele>550.2</ele>
        <time>2022-06-26T05:35:15Z</time>
      </trkpt>
      <trkpt lat="45.99355" lon="4.5862">
        <ele>550.6</ele>
        <time>2022-06-26T05:35:16Z</time>
      </trkpt>
      <trkpt lat="45.99353" lon="4.58623">
        <ele>550.6</ele>
        <time>2022-06-26T05:35:17Z</time>
      </trkpt>
      <trkpt lat="45.9935" lon="4.58626">
        <ele>550.6</ele>
        <time>2022-06-26T05:35:18Z</time>
      </trkpt>
      <trkpt lat="45.99348" lon="4.58629">
        <ele>550.6</ele>
        <time>2022-06-26T05:35:19Z</time>
      </trkpt>
      <trkpt lat="45.99345" lon="4.58633">
        <ele>550.6</ele>
        <time>2022-06-26T05:35:20Z</time>
      </trkpt>
      <trkpt lat="45.99343" lon="4.58637">
        <ele>550.6</ele>
        <time>2022-06-26T05:35:21Z</time>
      </trkpt>
      <trkpt lat="45.99341" lon="4.5864">
        <ele>550.8</ele>
        <time>2022-06-26T05:35:22Z</time>
      </trkpt>
      <trkpt lat="45.99338" lon="4.58644">
        <ele>550.8</ele>
        <time>2022-06-26T05:35:23Z</time>
      </trkpt>
      <trkpt lat="45.99336" lon="4.58647">
        <ele>550.8</ele>
        <time>2022-06-26T05:35:24Z</time>
      </trkpt>
      <trkpt lat="45.99333" lon="4.58651">
        <ele>551</ele>
        <time>2022-06-26T05:35:25Z</time>
      </trkpt>
      <trkpt lat="45.99331" lon="4.58654">
        <ele>551</ele>
        <time>2022-06-26T05:35:26Z</time>
      </trkpt>
      <trkpt lat="45.99329" lon="4.58658">
        <ele>551</ele>
        <time>2022-06-26T05:35:27Z</time>
      </trkpt>
      <trkpt lat="45.99326" lon="4.58661">
        <ele>551</ele>
        <time>2022-06-26T05:35:28Z</time>
      </trkpt>
      <trkpt lat="45.99324" lon="4.58665">
        <ele>551</ele>
        <time>2022-06-26T05:35:29Z</time>
      </trkpt>
      <trkpt lat="45.99321" lon="4.58668">
        <ele>551</ele>
        <time>2022-06-26T05:35:30Z</time>
      </trkpt>
      <trkpt lat="45.99319" lon="4.58672">
        <ele>551</ele>
        <time>2022-06-26T05:35:31Z</time>
      </trkpt>
      <trkpt lat="45.99316" lon="4.58676">
        <ele>551</ele>
        <time>2022-06-26T05:35:32Z</time>
      </trkpt>
      <trkpt lat="45.99314" lon="4.5868">
        <ele>551</ele>
        <time>2022-06-26T05:35:33Z</time>
      </trkpt>
      <trkpt lat="45.99312" lon="4.58685">
        <ele>551</ele>
        <time>2022-06-26T05:35:34Z</time>
      </trkpt>
      <trkpt lat="45.9931" lon="4.5869">
        <ele>550.8</ele>
        <time>2022-06-26T05:35:35Z</time>
      </trkpt>
      <trkpt lat="45.99308" lon="4.58696">
        <ele>550.6</ele>
        <time>2022-06-26T05:35:36Z</time>
      </trkpt>
      <trkpt lat="45.99306" lon="4.58701">
        <ele>550.2</ele>
        <time>2022-06-26T05:35:37Z</time>
      </trkpt>
      <trkpt lat="45.99305" lon="4.58706">
        <ele>550</ele>
        <time>2022-06-26T05:35:38Z</time>
      </trkpt>
      <trkpt lat="45.99304" lon="4.58711">
        <ele>549.6</ele>
        <time>2022-06-26T05:35:39Z</time>
      </trkpt>
      <trkpt lat="45.99303" lon="4.58715">
        <ele>549.2</ele>
        <time>2022-06-26T05:35:40Z</time>
      </trkpt>
      <trkpt lat="45.99302" lon="4.58719">
        <ele>548.8</ele>
        <time>2022-06-26T05:35:41Z</time>
      </trkpt>
      <trkpt lat="45.993" lon="4.58721">
        <ele>548.6</ele>
        <time>2022-06-26T05:35:42Z</time>
      </trkpt>
      <trkpt lat="45.99298" lon="4.58722">
        <ele>548.2</ele>
        <time>2022-06-26T05:35:43Z</time>
      </trkpt>
      <trkpt lat="45.99296" lon="4.58721">
        <ele>548</ele>
        <time>2022-06-26T05:35:44Z</time>
      </trkpt>
      <trkpt lat="45.99294" lon="4.58718">
        <ele>547.8</ele>
        <time>2022-06-26T05:35:45Z</time>
      </trkpt>
      <trkpt lat="45.99293" lon="4.58714">
        <ele>547.8</ele>
        <time>2022-06-26T05:35:46Z</time>
      </trkpt>
      <trkpt lat="45.99293" lon="4.58709">
        <ele>547.4</ele>
        <time>2022-06-26T05:35:47Z</time>
      </trkpt>
      <trkpt lat="45.99293" lon="4.58705">
        <ele>547.4</ele>
        <time>2022-06-26T05:35:48Z</time>
      </trkpt>
      <trkpt lat="45.99293" lon="4.587">
        <ele>547.4</ele>
        <time>2022-06-26T05:35:49Z</time>
      </trkpt>
      <trkpt lat="45.99293" lon="4.58696">
        <ele>547.4</ele>
        <time>2022-06-26T05:35:50Z</time>
      </trkpt>
      <trkpt lat="45.99293" lon="4.58691">
        <ele>547.4</ele>
        <time>2022-06-26T05:35:51Z</time>
      </trkpt>
      <trkpt lat="45.99293" lon="4.58686">
        <ele>547.4</ele>
        <time>2022-06-26T05:35:52Z</time>
      </trkpt>
      <trkpt lat="45.99294" lon="4.5868">
        <ele>547.2</ele>
        <time>2022-06-26T05:35:53Z</time>
      </trkpt>
      <trkpt lat="45.99294" lon="4.58675">
        <ele>547.2</ele>
        <time>2022-06-26T05:35:54Z</time>
      </trkpt>
      <trkpt lat="45.99295" lon="4.58669">
        <ele>547.2</ele>
        <time>2022-06-26T05:35:55Z</time>
      </trkpt>
      <trkpt lat="45.99295" lon="4.58663">
        <ele>547.2</ele>
        <time>2022-06-26T05:35:56Z</time>
      </trkpt>
      <trkpt lat="45.99295" lon="4.58657">
        <ele>547.2</ele>
        <time>2022-06-26T05:35:57Z</time>
      </trkpt>
      <trkpt lat="45.99296" lon="4.58651">
        <ele>547.2</ele>
        <time>2022-06-26T05:35:58Z</time>
      </trkpt>
      <trkpt lat="45.99296" lon="4.58645">
        <ele>547.2</ele>
        <time>2022-06-26T05:35:59Z</time>
      </trkpt>
      <trkpt lat="45.99295" lon="4.58639">
        <ele>547.2</ele>
        <time>2022-06-26T05:36:00Z</time>
      </trkpt>
      <trkpt lat="45.99295" lon="4.58632">
        <ele>547.2</ele>
        <time>2022-06-26T05:36:01Z</time>
      </trkpt>
      <trkpt lat="45.99294" lon="4.58626">
        <ele>547.2</ele>
        <time>2022-06-26T05:36:02Z</time>
      </trkpt>
      <trkpt lat="45.99293" lon="4.58619">
        <ele>547.2</ele>
        <time>2022-06-26T05:36:03Z</time>
      </trkpt>
      <trkpt lat="45.99291" lon="4.58613">
        <ele>547.2</ele>
        <time>2022-06-26T05:36:04Z</time>
      </trkpt>
      <trkpt lat="45.9929" lon="4.58607">
        <ele>547.2</ele>
        <time>2022-06-26T05:36:05Z</time>
      </trkpt>
      <trkpt lat="45.99288" lon="4.58601">
        <ele>547.2</ele>
        <time>2022-06-26T05:36:06Z</time>
      </trkpt>
      <trkpt lat="45.99286" lon="4.58595">
        <ele>547.2</ele>
        <time>2022-06-26T05:36:07Z</time>
      </trkpt>
      <trkpt lat="45.99285" lon="4.5859">
        <ele>547.2</ele>
        <time>2022-06-26T05:36:08Z</time>
      </trkpt>
      <trkpt lat="45.99283" lon="4.58584">
        <ele>547.2</ele>
        <time>2022-06-26T05:36:09Z</time>
      </trkpt>
      <trkpt lat="45.99281" lon="4.58579">
        <ele>547.6</ele>
        <time>2022-06-26T05:36:10Z</time>
      </trkpt>
      <trkpt lat="45.99279" lon="4.58574">
        <ele>547.6</ele>
        <time>2022-06-26T05:36:11Z</time>
      </trkpt>
      <trkpt lat="45.99277" lon="4.58569">
        <ele>547.6</ele>
        <time>2022-06-26T05:36:12Z</time>
      </trkpt>
      <trkpt lat="45.99274" lon="4.58564">
        <ele>547.6</ele>
        <time>2022-06-26T05:36:13Z</time>
      </trkpt>
      <trkpt lat="45.99271" lon="4.58561">
        <ele>547.6</ele>
        <time>2022-06-26T05:36:14Z</time>
      </trkpt>
      <trkpt lat="45.99267" lon="4.58559">
        <ele>547.2</ele>
        <time>2022-06-26T05:36:15Z</time>
      </trkpt>
      <trkpt lat="45.99262" lon="4.58558">
        <ele>546.8</ele>
        <time>2022-06-26T05:36:16Z</time>
      </trkpt>
      <trkpt lat="45.99256" lon="4.58558">
        <ele>546.2</ele>
        <time>2022-06-26T05:36:17Z</time>
      </trkpt>
      <trkpt lat="45.9925" lon="4.58559">
        <ele>545.6</ele>
        <time>2022-06-26T05:36:18Z</time>
      </trkpt>
      <trkpt lat="45.99244" lon="4.58559">
        <ele>545.2</ele>
        <time>2022-06-26T05:36:19Z</time>
      </trkpt>
      <trkpt lat="45.99238" lon="4.58558">
        <ele>544.6</ele>
        <time>2022-06-26T05:36:20Z</time>
      </trkpt>
      <trkpt lat="45.99232" lon="4.58555">
        <ele>544.2</ele>
        <time>2022-06-26T05:36:21Z</time>
      </trkpt>
      <trkpt lat="45.99227" lon="4.5855">
        <ele>543.8</ele>
        <time>2022-06-26T05:36:22Z</time>
      </trkpt>
      <trkpt lat="45.99222" lon="4.58543">
        <ele>543.4</ele>
        <time>2022-06-26T05:36:23Z</time>
      </trkpt>
      <trkpt lat="45.99217" lon="4.58535">
        <ele>542.8</ele>
        <time>2022-06-26T05:36:24Z</time>
      </trkpt>
      <trkpt lat="45.99212" lon="4.58527">
        <ele>542.2</ele>
        <time>2022-06-26T05:36:25Z</time>
      </trkpt>
      <trkpt lat="45.99208" lon="4.58519">
        <ele>542</ele>
        <time>2022-06-26T05:36:26Z</time>
      </trkpt>
      <trkpt lat="45.99203" lon="4.58512">
        <ele>541.4</ele>
        <time>2022-06-26T05:36:27Z</time>
      </trkpt>
      <trkpt lat="45.992" lon="4.58505">
        <ele>541</ele>
        <time>2022-06-26T05:36:28Z</time>
      </trkpt>
      <trkpt lat="45.99196" lon="4.58498">
        <ele>540.6</ele>
        <time>2022-06-26T05:36:29Z</time>
      </trkpt>
      <trkpt lat="45.99193" lon="4.58492">
        <ele>540</ele>
        <time>2022-06-26T05:36:30Z</time>
      </trkpt>
      <trkpt lat="45.9919" lon="4.58487">
        <ele>539.6</ele>
        <time>2022-06-26T05:36:31Z</time>
      </trkpt>
      <trkpt lat="45.99187" lon="4.58483">
        <ele>539</ele>
        <time>2022-06-26T05:36:32Z</time>
      </trkpt>
      <trkpt lat="45.99183" lon="4.58479">
        <ele>538.4</ele>
        <time>2022-06-26T05:36:33Z</time>
      </trkpt>
      <trkpt lat="45.99179" lon="4.58476">
        <ele>537.8</ele>
        <time>2022-06-26T05:36:34Z</time>
      </trkpt>
      <trkpt lat="45.99174" lon="4.58475">
        <ele>537</ele>
        <time>2022-06-26T05:36:35Z</time>
      </trkpt>
      <trkpt lat="45.9917" lon="4.58475">
        <ele>536.4</ele>
        <time>2022-06-26T05:36:36Z</time>
      </trkpt>
      <trkpt lat="45.99167" lon="4.58475">
        <ele>535.6</ele>
        <time>2022-06-26T05:36:37Z</time>
      </trkpt>
      <trkpt lat="45.99163" lon="4.58475">
        <ele>535</ele>
        <time>2022-06-26T05:36:38Z</time>
      </trkpt>
      <trkpt lat="45.9916" lon="4.58476">
        <ele>534.4</ele>
        <time>2022-06-26T05:36:39Z</time>
      </trkpt>
      <trkpt lat="45.99156" lon="4.58476">
        <ele>533.6</ele>
        <time>2022-06-26T05:36:40Z</time>
      </trkpt>
      <trkpt lat="45.99152" lon="4.58475">
        <ele>532.8</ele>
        <time>2022-06-26T05:36:41Z</time>
      </trkpt>
      <trkpt lat="45.99148" lon="4.58475">
        <ele>532.2</ele>
        <time>2022-06-26T05:36:42Z</time>
      </trkpt>
      <trkpt lat="45.99145" lon="4.58476">
        <ele>531.4</ele>
        <time>2022-06-26T05:36:43Z</time>
      </trkpt>
      <trkpt lat="45.99141" lon="4.58478">
        <ele>530.8</ele>
        <time>2022-06-26T05:36:44Z</time>
      </trkpt>
      <trkpt lat="45.99137" lon="4.58482">
        <ele>530</ele>
        <time>2022-06-26T05:36:45Z</time>
      </trkpt>
      <trkpt lat="45.99133" lon="4.58487">
        <ele>529</ele>
        <time>2022-06-26T05:36:46Z</time>
      </trkpt>
      <trkpt lat="45.99129" lon="4.58493">
        <ele>528</ele>
        <time>2022-06-26T05:36:47Z</time>
      </trkpt>
      <trkpt lat="45.99125" lon="4.585">
        <ele>527</ele>
        <time>2022-06-26T05:36:48Z</time>
      </trkpt>
      <trkpt lat="45.99122" lon="4.58506">
        <ele>526</ele>
        <time>2022-06-26T05:36:49Z</time>
      </trkpt>
      <trkpt lat="45.99119" lon="4.58513">
        <ele>524.8</ele>
        <time>2022-06-26T05:36:50Z</time>
      </trkpt>
      <trkpt lat="45.99116" lon="4.58519">
        <ele>523.6</ele>
        <time>2022-06-26T05:36:51Z</time>
      </trkpt>
      <trkpt lat="45.99113" lon="4.58525">
        <ele>522.6</ele>
        <time>2022-06-26T05:36:52Z</time>
      </trkpt>
      <trkpt lat="45.9911" lon="4.58531">
        <ele>521.6</ele>
        <time>2022-06-26T05:36:53Z</time>
      </trkpt>
      <trkpt lat="45.99107" lon="4.58537">
        <ele>520.4</ele>
        <time>2022-06-26T05:36:54Z</time>
      </trkpt>
      <trkpt lat="45.99105" lon="4.58543">
        <ele>519.2</ele>
        <time>2022-06-26T05:36:55Z</time>
      </trkpt>
      <trkpt lat="45.99103" lon="4.58549">
        <ele>518</ele>
        <time>2022-06-26T05:36:56Z</time>
      </trkpt>
      <trkpt lat="45.991" lon="4.58555">
        <ele>517</ele>
        <time>2022-06-26T05:36:57Z</time>
      </trkpt>
      <trkpt lat="45.99098" lon="4.58561">
        <ele>516</ele>
        <time>2022-06-26T05:36:58Z</time>
      </trkpt>
      <trkpt lat="45.99095" lon="4.58566">
        <ele>515</ele>
        <time>2022-06-26T05:36:59Z</time>
      </trkpt>
      <trkpt lat="45.99093" lon="4.58571">
        <ele>514.2</ele>
        <time>2022-06-26T05:37:00Z</time>
      </trkpt>
      <trkpt lat="45.99091" lon="4.58575">
        <ele>513.2</ele>
        <time>2022-06-26T05:37:01Z</time>
      </trkpt>
      <trkpt lat="45.99089" lon="4.5858">
        <ele>512.6</ele>
        <time>2022-06-26T05:37:02Z</time>
      </trkpt>
      <trkpt lat="45.99088" lon="4.58585">
        <ele>511.6</ele>
        <time>2022-06-26T05:37:03Z</time>
      </trkpt>
      <trkpt lat="45.99087" lon="4.58588">
        <ele>510.8</ele>
        <time>2022-06-26T05:37:04Z</time>
      </trkpt>
      <trkpt lat="45.99085" lon="4.58592">
        <ele>510.2</ele>
        <time>2022-06-26T05:37:05Z</time>
      </trkpt>
      <trkpt lat="45.99084" lon="4.58595">
        <ele>509.4</ele>
        <time>2022-06-26T05:37:06Z</time>
      </trkpt>
      <trkpt lat="45.99082" lon="4.58598">
        <ele>508.8</ele>
        <time>2022-06-26T05:37:07Z</time>
      </trkpt>
      <trkpt lat="45.9908" lon="4.58601">
        <ele>508</ele>
        <time>2022-06-26T05:37:08Z</time>
      </trkpt>
      <trkpt lat="45.99078" lon="4.58604">
        <ele>507.2</ele>
        <time>2022-06-26T05:37:09Z</time>
      </trkpt>
      <trkpt lat="45.99076" lon="4.58608">
        <ele>506.4</ele>
        <time>2022-06-26T05:37:10Z</time>
      </trkpt>
      <trkpt lat="45.99073" lon="4.58611">
        <ele>505.6</ele>
        <time>2022-06-26T05:37:11Z</time>
      </trkpt>
      <trkpt lat="45.99071" lon="4.58613">
        <ele>504.8</ele>
        <time>2022-06-26T05:37:12Z</time>
      </trkpt>
      <trkpt lat="45.99068" lon="4.58615">
        <ele>504</ele>
        <time>2022-06-26T05:37:13Z</time>
      </trkpt>
      <trkpt lat="45.99065" lon="4.58616">
        <ele>503.2</ele>
        <time>2022-06-26T05:37:14Z</time>
      </trkpt>
      <trkpt lat="45.99061" lon="4.58617">
        <ele>502.6</ele>
        <time>2022-06-26T05:37:15Z</time>
      </trkpt>
      <trkpt lat="45.99058" lon="4.58616">
        <ele>501.8</ele>
        <time>2022-06-26T05:37:16Z</time>
      </trkpt>
      <trkpt lat="45.99054" lon="4.58615">
        <ele>501</ele>
        <time>2022-06-26T05:37:17Z</time>
      </trkpt>
      <trkpt lat="45.9905" lon="4.58614">
        <ele>500.2</ele>
        <time>2022-06-26T05:37:18Z</time>
      </trkpt>
      <trkpt lat="45.99047" lon="4.58611">
        <ele>499.4</ele>
        <time>2022-06-26T05:37:19Z</time>
      </trkpt>
      <trkpt lat="45.99044" lon="4.58608">
        <ele>498.8</ele>
        <time>2022-06-26T05:37:20Z</time>
      </trkpt>
      <trkpt lat="45.99041" lon="4.58604">
        <ele>498</ele>
        <time>2022-06-26T05:37:21Z</time>
      </trkpt>
      <trkpt lat="45.99038" lon="4.586">
        <ele>497.6</ele>
        <time>2022-06-26T05:37:22Z</time>
      </trkpt>
      <trkpt lat="45.99035" lon="4.58594">
        <ele>497</ele>
        <time>2022-06-26T05:37:23Z</time>
      </trkpt>
      <trkpt lat="45.99033" lon="4.58588">
        <ele>496.6</ele>
        <time>2022-06-26T05:37:24Z</time>
      </trkpt>
      <trkpt lat="45.9903" lon="4.5858">
        <ele>496</ele>
        <time>2022-06-26T05:37:25Z</time>
      </trkpt>
      <trkpt lat="45.99028" lon="4.58573">
        <ele>495.6</ele>
        <time>2022-06-26T05:37:26Z</time>
      </trkpt>
      <trkpt lat="45.99026" lon="4.58565">
        <ele>495.6</ele>
        <time>2022-06-26T05:37:27Z</time>
      </trkpt>
      <trkpt lat="45.99023" lon="4.58557">
        <ele>495.2</ele>
        <time>2022-06-26T05:37:28Z</time>
      </trkpt>
      <trkpt lat="45.99021" lon="4.58549">
        <ele>494.8</ele>
        <time>2022-06-26T05:37:29Z</time>
      </trkpt>
      <trkpt lat="45.99018" lon="4.58541">
        <ele>494.6</ele>
        <time>2022-06-26T05:37:30Z</time>
      </trkpt>
      <trkpt lat="45.99016" lon="4.58534">
        <ele>494.2</ele>
        <time>2022-06-26T05:37:31Z</time>
      </trkpt>
      <trkpt lat="45.99013" lon="4.58527">
        <ele>494</ele>
        <time>2022-06-26T05:37:32Z</time>
      </trkpt>
      <trkpt lat="45.9901" lon="4.58519">
        <ele>493.8</ele>
        <time>2022-06-26T05:37:33Z</time>
      </trkpt>
      <trkpt lat="45.99008" lon="4.58511">
        <ele>493.4</ele>
        <time>2022-06-26T05:37:34Z</time>
      </trkpt>
      <trkpt lat="45.99005" lon="4.58503">
        <ele>493.4</ele>
        <time>2022-06-26T05:37:35Z</time>
      </trkpt>
      <trkpt lat="45.99002" lon="4.58495">
        <ele>493</ele>
        <time>2022-06-26T05:37:36Z</time>
      </trkpt>
      <trkpt lat="45.98998" lon="4.58487">
        <ele>492.6</ele>
        <time>2022-06-26T05:37:37Z</time>
      </trkpt>
      <trkpt lat="45.98995" lon="4.58479">
        <ele>492.2</ele>
        <time>2022-06-26T05:37:38Z</time>
      </trkpt>
      <trkpt lat="45.98992" lon="4.58471">
        <ele>491.6</ele>
        <time>2022-06-26T05:37:39Z</time>
      </trkpt>
      <trkpt lat="45.98989" lon="4.58463">
        <ele>491</ele>
        <time>2022-06-26T05:37:40Z</time>
      </trkpt>
      <trkpt lat="45.98986" lon="4.58454">
        <ele>490</ele>
        <time>2022-06-26T05:37:41Z</time>
      </trkpt>
      <trkpt lat="45.98984" lon="4.58446">
        <ele>489.2</ele>
        <time>2022-06-26T05:37:42Z</time>
      </trkpt>
      <trkpt lat="45.98981" lon="4.58437">
        <ele>488.2</ele>
        <time>2022-06-26T05:37:43Z</time>
      </trkpt>
      <trkpt lat="45.98978" lon="4.5843">
        <ele>487.2</ele>
        <time>2022-06-26T05:37:44Z</time>
      </trkpt>
      <trkpt lat="45.98975" lon="4.58423">
        <ele>486.4</ele>
        <time>2022-06-26T05:37:45Z</time>
      </trkpt>
      <trkpt lat="45.98971" lon="4.58417">
        <ele>485.6</ele>
        <time>2022-06-26T05:37:46Z</time>
      </trkpt>
      <trkpt lat="45.98968" lon="4.58411">
        <ele>485</ele>
        <time>2022-06-26T05:37:47Z</time>
      </trkpt>
      <trkpt lat="45.98964" lon="4.58407">
        <ele>484.2</ele>
        <time>2022-06-26T05:37:48Z</time>
      </trkpt>
      <trkpt lat="45.98961" lon="4.58402">
        <ele>483.6</ele>
        <time>2022-06-26T05:37:49Z</time>
      </trkpt>
      <trkpt lat="45.98958" lon="4.58397">
        <ele>482.8</ele>
        <time>2022-06-26T05:37:50Z</time>
      </trkpt>
      <trkpt lat="45.98955" lon="4.58393">
        <ele>482.2</ele>
        <time>2022-06-26T05:37:51Z</time>
      </trkpt>
      <trkpt lat="45.98952" lon="4.5839">
        <ele>481.6</ele>
        <time>2022-06-26T05:37:52Z</time>
      </trkpt>
      <trkpt lat="45.98949" lon="4.58388">
        <ele>481</ele>
        <time>2022-06-26T05:37:53Z</time>
      </trkpt>
      <trkpt lat="45.98945" lon="4.58384">
        <ele>480.4</ele>
        <time>2022-06-26T05:37:54Z</time>
      </trkpt>
      <trkpt lat="45.98941" lon="4.5838">
        <ele>479.8</ele>
        <time>2022-06-26T05:37:55Z</time>
      </trkpt>
      <trkpt lat="45.98937" lon="4.58374">
        <ele>479.2</ele>
        <time>2022-06-26T05:37:56Z</time>
      </trkpt>
      <trkpt lat="45.98933" lon="4.58367">
        <ele>478.6</ele>
        <time>2022-06-26T05:37:57Z</time>
      </trkpt>
      <trkpt lat="45.98931" lon="4.58359">
        <ele>478.2</ele>
        <time>2022-06-26T05:37:58Z</time>
      </trkpt>
      <trkpt lat="45.98929" lon="4.58352">
        <ele>477.8</ele>
        <time>2022-06-26T05:37:59Z</time>
      </trkpt>
      <trkpt lat="45.98927" lon="4.58345">
        <ele>477.8</ele>
        <time>2022-06-26T05:38:00Z</time>
      </trkpt>
      <trkpt lat="45.98925" lon="4.58338">
        <ele>477.6</ele>
        <time>2022-06-26T05:38:01Z</time>
      </trkpt>
      <trkpt lat="45.98923" lon="4.58331">
        <ele>477.6</ele>
        <time>2022-06-26T05:38:02Z</time>
      </trkpt>
      <trkpt lat="45.98922" lon="4.58324">
        <ele>477.6</ele>
        <time>2022-06-26T05:38:03Z</time>
      </trkpt>
      <trkpt lat="45.98921" lon="4.58317">
        <ele>472.6</ele>
        <time>2022-06-26T05:38:04Z</time>
      </trkpt>
      <trkpt lat="45.98919" lon="4.5831">
        <ele>473.8</ele>
        <time>2022-06-26T05:38:05Z</time>
      </trkpt>
      <trkpt lat="45.98917" lon="4.58303">
        <ele>474.8</ele>
        <time>2022-06-26T05:38:06Z</time>
      </trkpt>
      <trkpt lat="45.98915" lon="4.58295">
        <ele>475.4</ele>
        <time>2022-06-26T05:38:07Z</time>
      </trkpt>
      <trkpt lat="45.98913" lon="4.58288">
        <ele>476</ele>
        <time>2022-06-26T05:38:08Z</time>
      </trkpt>
      <trkpt lat="45.98912" lon="4.58281">
        <ele>476.4</ele>
        <time>2022-06-26T05:38:09Z</time>
      </trkpt>
      <trkpt lat="45.9891" lon="4.58274">
        <ele>476.6</ele>
        <time>2022-06-26T05:38:10Z</time>
      </trkpt>
      <trkpt lat="45.98908" lon="4.58267">
        <ele>476.8</ele>
        <time>2022-06-26T05:38:11Z</time>
      </trkpt>
      <trkpt lat="45.98907" lon="4.5826">
        <ele>477</ele>
        <time>2022-06-26T05:38:12Z</time>
      </trkpt>
      <trkpt lat="45.98905" lon="4.58253">
        <ele>477</ele>
        <time>2022-06-26T05:38:13Z</time>
      </trkpt>
      <trkpt lat="45.98904" lon="4.58246">
        <ele>477</ele>
        <time>2022-06-26T05:38:14Z</time>
      </trkpt>
      <trkpt lat="45.98902" lon="4.58239">
        <ele>477.4</ele>
        <time>2022-06-26T05:38:15Z</time>
      </trkpt>
      <trkpt lat="45.98901" lon="4.58233">
        <ele>477.4</ele>
        <time>2022-06-26T05:38:16Z</time>
      </trkpt>
      <trkpt lat="45.98899" lon="4.58226">
        <ele>477.4</ele>
        <time>2022-06-26T05:38:17Z</time>
      </trkpt>
      <trkpt lat="45.98898" lon="4.5822">
        <ele>477.4</ele>
        <time>2022-06-26T05:38:18Z</time>
      </trkpt>
      <trkpt lat="45.98896" lon="4.58213">
        <ele>477.4</ele>
        <time>2022-06-26T05:38:19Z</time>
      </trkpt>
      <trkpt lat="45.98894" lon="4.58206">
        <ele>477.4</ele>
        <time>2022-06-26T05:38:20Z</time>
      </trkpt>
      <trkpt lat="45.98893" lon="4.582">
        <ele>477.4</ele>
        <time>2022-06-26T05:38:21Z</time>
      </trkpt>
      <trkpt lat="45.98891" lon="4.58193">
        <ele>477.4</ele>
        <time>2022-06-26T05:38:22Z</time>
      </trkpt>
      <trkpt lat="45.98889" lon="4.58187">
        <ele>477.4</ele>
        <time>2022-06-26T05:38:23Z</time>
      </trkpt>
      <trkpt lat="45.98886" lon="4.58182">
        <ele>477.6</ele>
        <time>2022-06-26T05:38:24Z</time>
      </trkpt>
      <trkpt lat="45.98884" lon="4.58177">
        <ele>477.6</ele>
        <time>2022-06-26T05:38:25Z</time>
      </trkpt>
      <trkpt lat="45.98881" lon="4.58172">
        <ele>477.6</ele>
        <time>2022-06-26T05:38:26Z</time>
      </trkpt>
      <trkpt lat="45.98878" lon="4.58167">
        <ele>477.6</ele>
        <time>2022-06-26T05:38:27Z</time>
      </trkpt>
      <trkpt lat="45.98874" lon="4.58164">
        <ele>477.6</ele>
        <time>2022-06-26T05:38:28Z</time>
      </trkpt>
      <trkpt lat="45.9887" lon="4.58162">
        <ele>477.6</ele>
        <time>2022-06-26T05:38:29Z</time>
      </trkpt>
      <trkpt lat="45.98866" lon="4.5816">
        <ele>477.6</ele>
        <time>2022-06-26T05:38:30Z</time>
      </trkpt>
      <trkpt lat="45.98863" lon="4.58159">
        <ele>477.6</ele>
        <time>2022-06-26T05:38:31Z</time>
      </trkpt>
      <trkpt lat="45.98859" lon="4.58159">
        <ele>477.6</ele>
        <time>2022-06-26T05:38:32Z</time>
      </trkpt>
      <trkpt lat="45.98857" lon="4.58159">
        <ele>477.6</ele>
        <time>2022-06-26T05:38:33Z</time>
      </trkpt>
      <trkpt lat="45.98855" lon="4.5816">
        <ele>477.6</ele>
        <time>2022-06-26T05:38:34Z</time>
      </trkpt>
      <trkpt lat="45.98853" lon="4.5816">
        <ele>477.6</ele>
        <time>2022-06-26T05:38:35Z</time>
      </trkpt>
      <trkpt lat="45.98846" lon="4.58167">
        <ele>477.6</ele>
        <time>2022-06-26T05:38:57Z</time>
      </trkpt>
      <trkpt lat="45.98845" lon="4.5817">
        <ele>477.8</ele>
        <time>2022-06-26T05:38:58Z</time>
      </trkpt>
      <trkpt lat="45.98843" lon="4.58173">
        <ele>477.8</ele>
        <time>2022-06-26T05:38:59Z</time>
      </trkpt>
      <trkpt lat="45.98841" lon="4.58176">
        <ele>477.8</ele>
        <time>2022-06-26T05:39:00Z</time>
      </trkpt>
      <trkpt lat="45.98839" lon="4.58179">
        <ele>478.2</ele>
        <time>2022-06-26T05:39:01Z</time>
      </trkpt>
      <trkpt lat="45.98838" lon="4.58183">
        <ele>478.2</ele>
        <time>2022-06-26T05:39:02Z</time>
      </trkpt>
      <trkpt lat="45.98837" lon="4.58187">
        <ele>478.2</ele>
        <time>2022-06-26T05:39:03Z</time>
      </trkpt>
      <trkpt lat="45.98836" lon="4.58191">
        <ele>478.4</ele>
        <time>2022-06-26T05:39:04Z</time>
      </trkpt>
      <trkpt lat="45.98835" lon="4.58194">
        <ele>478.4</ele>
        <time>2022-06-26T05:39:05Z</time>
      </trkpt>
      <trkpt lat="45.98834" lon="4.58198">
        <ele>478.4</ele>
        <time>2022-06-26T05:39:06Z</time>
      </trkpt>
      <trkpt lat="45.98834" lon="4.58201">
        <ele>478.8</ele>
        <time>2022-06-26T05:39:07Z</time>
      </trkpt>
      <trkpt lat="45.98832" lon="4.58204">
        <ele>478.8</ele>
        <time>2022-06-26T05:39:08Z</time>
      </trkpt>
      <trkpt lat="45.98831" lon="4.58208">
        <ele>478.8</ele>
        <time>2022-06-26T05:39:09Z</time>
      </trkpt>
      <trkpt lat="45.9883" lon="4.58213">
        <ele>479</ele>
        <time>2022-06-26T05:39:10Z</time>
      </trkpt>
      <trkpt lat="45.98829" lon="4.58217">
        <ele>479</ele>
        <time>2022-06-26T05:39:11Z</time>
      </trkpt>
      <trkpt lat="45.98828" lon="4.58221">
        <ele>479.2</ele>
        <time>2022-06-26T05:39:12Z</time>
      </trkpt>
      <trkpt lat="45.98826" lon="4.58225">
        <ele>479.2</ele>
        <time>2022-06-26T05:39:13Z</time>
      </trkpt>
      <trkpt lat="45.98825" lon="4.58229">
        <ele>479.4</ele>
        <time>2022-06-26T05:39:14Z</time>
      </trkpt>
      <trkpt lat="45.98824" lon="4.58234">
        <ele>479.4</ele>
        <time>2022-06-26T05:39:15Z</time>
      </trkpt>
      <trkpt lat="45.98822" lon="4.58238">
        <ele>479.4</ele>
        <time>2022-06-26T05:39:16Z</time>
      </trkpt>
      <trkpt lat="45.98821" lon="4.58243">
        <ele>479.8</ele>
        <time>2022-06-26T05:39:17Z</time>
      </trkpt>
      <trkpt lat="45.98819" lon="4.58247">
        <ele>479.8</ele>
        <time>2022-06-26T05:39:18Z</time>
      </trkpt>
      <trkpt lat="45.98817" lon="4.58251">
        <ele>480</ele>
        <time>2022-06-26T05:39:19Z</time>
      </trkpt>
      <trkpt lat="45.98815" lon="4.58255">
        <ele>480</ele>
        <time>2022-06-26T05:39:20Z</time>
      </trkpt>
      <trkpt lat="45.98813" lon="4.58259">
        <ele>480</ele>
        <time>2022-06-26T05:39:21Z</time>
      </trkpt>
      <trkpt lat="45.98811" lon="4.58263">
        <ele>480</ele>
        <time>2022-06-26T05:39:22Z</time>
      </trkpt>
      <trkpt lat="45.9881" lon="4.58267">
        <ele>480.4</ele>
        <time>2022-06-26T05:39:23Z</time>
      </trkpt>
      <trkpt lat="45.98808" lon="4.58271">
        <ele>480.6</ele>
        <time>2022-06-26T05:39:24Z</time>
      </trkpt>
      <trkpt lat="45.98806" lon="4.58275">
        <ele>480.8</ele>
        <time>2022-06-26T05:39:25Z</time>
      </trkpt>
      <trkpt lat="45.98804" lon="4.58278">
        <ele>480.8</ele>
        <time>2022-06-26T05:39:26Z</time>
      </trkpt>
      <trkpt lat="45.98802" lon="4.58282">
        <ele>481</ele>
        <time>2022-06-26T05:39:27Z</time>
      </trkpt>
      <trkpt lat="45.988" lon="4.58286">
        <ele>481</ele>
        <time>2022-06-26T05:39:28Z</time>
      </trkpt>
      <trkpt lat="45.98798" lon="4.5829">
        <ele>481.4</ele>
        <time>2022-06-26T05:39:29Z</time>
      </trkpt>
      <trkpt lat="45.98796" lon="4.58294">
        <ele>481.4</ele>
        <time>2022-06-26T05:39:30Z</time>
      </trkpt>
      <trkpt lat="45.98793" lon="4.58297">
        <ele>481.4</ele>
        <time>2022-06-26T05:39:31Z</time>
      </trkpt>
      <trkpt lat="45.98791" lon="4.58301">
        <ele>481.8</ele>
        <time>2022-06-26T05:39:32Z</time>
      </trkpt>
      <trkpt lat="45.98789" lon="4.58304">
        <ele>481.8</ele>
        <time>2022-06-26T05:39:33Z</time>
      </trkpt>
      <trkpt lat="45.98787" lon="4.58307">
        <ele>481.8</ele>
        <time>2022-06-26T05:39:34Z</time>
      </trkpt>
      <trkpt lat="45.98785" lon="4.5831">
        <ele>482.2</ele>
        <time>2022-06-26T05:39:35Z</time>
      </trkpt>
      <trkpt lat="45.98783" lon="4.58313">
        <ele>482.4</ele>
        <time>2022-06-26T05:39:36Z</time>
      </trkpt>
      <trkpt lat="45.9878" lon="4.58317">
        <ele>482.4</ele>
        <time>2022-06-26T05:39:37Z</time>
      </trkpt>
      <trkpt lat="45.98778" lon="4.58321">
        <ele>482.6</ele>
        <time>2022-06-26T05:39:38Z</time>
      </trkpt>
      <trkpt lat="45.98776" lon="4.58324">
        <ele>482.6</ele>
        <time>2022-06-26T05:39:39Z</time>
      </trkpt>
      <trkpt lat="45.98774" lon="4.58328">
        <ele>482.8</ele>
        <time>2022-06-26T05:39:40Z</time>
      </trkpt>
      <trkpt lat="45.98772" lon="4.58332">
        <ele>482.8</ele>
        <time>2022-06-26T05:39:41Z</time>
      </trkpt>
      <trkpt lat="45.9877" lon="4.58335">
        <ele>483</ele>
        <time>2022-06-26T05:39:42Z</time>
      </trkpt>
      <trkpt lat="45.98768" lon="4.58339">
        <ele>483</ele>
        <time>2022-06-26T05:39:43Z</time>
      </trkpt>
      <trkpt lat="45.98766" lon="4.58343">
        <ele>483.4</ele>
        <time>2022-06-26T05:39:44Z</time>
      </trkpt>
      <trkpt lat="45.98764" lon="4.58346">
        <ele>483.4</ele>
        <time>2022-06-26T05:39:45Z</time>
      </trkpt>
      <trkpt lat="45.98762" lon="4.58349">
        <ele>483.6</ele>
        <time>2022-06-26T05:39:46Z</time>
      </trkpt>
      <trkpt lat="45.9876" lon="4.58353">
        <ele>483.6</ele>
        <time>2022-06-26T05:39:47Z</time>
      </trkpt>
      <trkpt lat="45.98758" lon="4.58356">
        <ele>484</ele>
        <time>2022-06-26T05:39:48Z</time>
      </trkpt>
      <trkpt lat="45.98756" lon="4.58359">
        <ele>484</ele>
        <time>2022-06-26T05:39:49Z</time>
      </trkpt>
      <trkpt lat="45.98754" lon="4.58362">
        <ele>484.2</ele>
        <time>2022-06-26T05:39:50Z</time>
      </trkpt>
      <trkpt lat="45.98753" lon="4.58365">
        <ele>484.2</ele>
        <time>2022-06-26T05:39:51Z</time>
      </trkpt>
      <trkpt lat="45.98751" lon="4.58368">
        <ele>484.6</ele>
        <time>2022-06-26T05:39:52Z</time>
      </trkpt>
      <trkpt lat="45.98749" lon="4.58371">
        <ele>484.6</ele>
        <time>2022-06-26T05:39:53Z</time>
      </trkpt>
      <trkpt lat="45.98747" lon="4.58373">
        <ele>485</ele>
        <time>2022-06-26T05:39:54Z</time>
      </trkpt>
      <trkpt lat="45.98745" lon="4.58376">
        <ele>485</ele>
        <time>2022-06-26T05:39:55Z</time>
      </trkpt>
      <trkpt lat="45.98743" lon="4.58378">
        <ele>485.4</ele>
        <time>2022-06-26T05:39:56Z</time>
      </trkpt>
      <trkpt lat="45.98741" lon="4.5838">
        <ele>485.4</ele>
        <time>2022-06-26T05:39:57Z</time>
      </trkpt>
      <trkpt lat="45.98739" lon="4.58382">
        <ele>485.8</ele>
        <time>2022-06-26T05:39:58Z</time>
      </trkpt>
      <trkpt lat="45.98737" lon="4.58384">
        <ele>486</ele>
        <time>2022-06-26T05:39:59Z</time>
      </trkpt>
      <trkpt lat="45.98735" lon="4.58386">
        <ele>486.2</ele>
        <time>2022-06-26T05:40:00Z</time>
      </trkpt>
      <trkpt lat="45.98733" lon="4.58387">
        <ele>486.2</ele>
        <time>2022-06-26T05:40:01Z</time>
      </trkpt>
      <trkpt lat="45.98732" lon="4.58389">
        <ele>486.4</ele>
        <time>2022-06-26T05:40:02Z</time>
      </trkpt>
      <trkpt lat="45.9873" lon="4.58391">
        <ele>486.4</ele>
        <time>2022-06-26T05:40:03Z</time>
      </trkpt>
      <trkpt lat="45.98727" lon="4.58392">
        <ele>486.8</ele>
        <time>2022-06-26T05:40:04Z</time>
      </trkpt>
      <trkpt lat="45.98725" lon="4.58394">
        <ele>486.8</ele>
        <time>2022-06-26T05:40:05Z</time>
      </trkpt>
      <trkpt lat="45.98723" lon="4.58396">
        <ele>487</ele>
        <time>2022-06-26T05:40:06Z</time>
      </trkpt>
      <trkpt lat="45.98721" lon="4.58398">
        <ele>487</ele>
        <time>2022-06-26T05:40:07Z</time>
      </trkpt>
      <trkpt lat="45.98719" lon="4.58399">
        <ele>487.4</ele>
        <time>2022-06-26T05:40:08Z</time>
      </trkpt>
      <trkpt lat="45.98717" lon="4.58401">
        <ele>487.4</ele>
        <time>2022-06-26T05:40:09Z</time>
      </trkpt>
      <trkpt lat="45.98715" lon="4.58403">
        <ele>487.8</ele>
        <time>2022-06-26T05:40:10Z</time>
      </trkpt>
      <trkpt lat="45.98713" lon="4.58404">
        <ele>487.8</ele>
        <time>2022-06-26T05:40:11Z</time>
      </trkpt>
      <trkpt lat="45.98711" lon="4.58405">
        <ele>488.2</ele>
        <time>2022-06-26T05:40:12Z</time>
      </trkpt>
      <trkpt lat="45.98709" lon="4.58407">
        <ele>488.2</ele>
        <time>2022-06-26T05:40:13Z</time>
      </trkpt>
      <trkpt lat="45.98707" lon="4.58408">
        <ele>488.4</ele>
        <time>2022-06-26T05:40:14Z</time>
      </trkpt>
      <trkpt lat="45.98705" lon="4.5841">
        <ele>488.4</ele>
        <time>2022-06-26T05:40:15Z</time>
      </trkpt>
      <trkpt lat="45.98703" lon="4.58412">
        <ele>488.6</ele>
        <time>2022-06-26T05:40:16Z</time>
      </trkpt>
      <trkpt lat="45.98701" lon="4.58414">
        <ele>488.6</ele>
        <time>2022-06-26T05:40:17Z</time>
      </trkpt>
      <trkpt lat="45.98699" lon="4.58415">
        <ele>489</ele>
        <time>2022-06-26T05:40:18Z</time>
      </trkpt>
      <trkpt lat="45.98696" lon="4.58417">
        <ele>489</ele>
        <time>2022-06-26T05:40:19Z</time>
      </trkpt>
      <trkpt lat="45.98694" lon="4.58418">
        <ele>489.2</ele>
        <time>2022-06-26T05:40:20Z</time>
      </trkpt>
      <trkpt lat="45.98692" lon="4.5842">
        <ele>489.2</ele>
        <time>2022-06-26T05:40:21Z</time>
      </trkpt>
      <trkpt lat="45.9869" lon="4.58422">
        <ele>489.6</ele>
        <time>2022-06-26T05:40:22Z</time>
      </trkpt>
      <trkpt lat="45.98688" lon="4.58423">
        <ele>489.6</ele>
        <time>2022-06-26T05:40:23Z</time>
      </trkpt>
      <trkpt lat="45.98686" lon="4.58425">
        <ele>489.8</ele>
        <time>2022-06-26T05:40:24Z</time>
      </trkpt>
      <trkpt lat="45.98683" lon="4.58427">
        <ele>490</ele>
        <time>2022-06-26T05:40:25Z</time>
      </trkpt>
      <trkpt lat="45.98681" lon="4.58428">
        <ele>490</ele>
        <time>2022-06-26T05:40:26Z</time>
      </trkpt>
      <trkpt lat="45.98679" lon="4.58429">
        <ele>490.4</ele>
        <time>2022-06-26T05:40:27Z</time>
      </trkpt>
      <trkpt lat="45.98678" lon="4.58431">
        <ele>490.4</ele>
        <time>2022-06-26T05:40:28Z</time>
      </trkpt>
      <trkpt lat="45.98676" lon="4.58432">
        <ele>491</ele>
        <time>2022-06-26T05:40:29Z</time>
      </trkpt>
      <trkpt lat="45.98674" lon="4.58434">
        <ele>491</ele>
        <time>2022-06-26T05:40:30Z</time>
      </trkpt>
      <trkpt lat="45.98672" lon="4.58435">
        <ele>491</ele>
        <time>2022-06-26T05:40:31Z</time>
      </trkpt>
      <trkpt lat="45.9867" lon="4.58437">
        <ele>491.2</ele>
        <time>2022-06-26T05:40:32Z</time>
      </trkpt>
      <trkpt lat="45.98668" lon="4.58438">
        <ele>491.2</ele>
        <time>2022-06-26T05:40:33Z</time>
      </trkpt>
      <trkpt lat="45.98666" lon="4.5844">
        <ele>491.4</ele>
        <time>2022-06-26T05:40:34Z</time>
      </trkpt>
      <trkpt lat="45.98664" lon="4.58442">
        <ele>491.6</ele>
        <time>2022-06-26T05:40:35Z</time>
      </trkpt>
      <trkpt lat="45.98662" lon="4.58443">
        <ele>492</ele>
        <time>2022-06-26T05:40:36Z</time>
      </trkpt>
      <trkpt lat="45.9866" lon="4.58445">
        <ele>492</ele>
        <time>2022-06-26T05:40:37Z</time>
      </trkpt>
      <trkpt lat="45.98658" lon="4.58446">
        <ele>492</ele>
        <time>2022-06-26T05:40:38Z</time>
      </trkpt>
      <trkpt lat="45.98656" lon="4.58447">
        <ele>492.4</ele>
        <time>2022-06-26T05:40:39Z</time>
      </trkpt>
      <trkpt lat="45.98654" lon="4.58449">
        <ele>492.6</ele>
        <time>2022-06-26T05:40:40Z</time>
      </trkpt>
      <trkpt lat="45.98652" lon="4.58451">
        <ele>492.6</ele>
        <time>2022-06-26T05:40:41Z</time>
      </trkpt>
      <trkpt lat="45.9865" lon="4.58453">
        <ele>492.8</ele>
        <time>2022-06-26T05:40:42Z</time>
      </trkpt>
      <trkpt lat="45.98648" lon="4.58454">
        <ele>493</ele>
        <time>2022-06-26T05:40:43Z</time>
      </trkpt>
      <trkpt lat="45.98646" lon="4.58456">
        <ele>493</ele>
        <time>2022-06-26T05:40:44Z</time>
      </trkpt>
      <trkpt lat="45.98644" lon="4.58457">
        <ele>493</ele>
        <time>2022-06-26T05:40:45Z</time>
      </trkpt>
      <trkpt lat="45.98641" lon="4.58459">
        <ele>493.4</ele>
        <time>2022-06-26T05:40:46Z</time>
      </trkpt>
      <trkpt lat="45.98639" lon="4.5846">
        <ele>493.6</ele>
        <time>2022-06-26T05:40:47Z</time>
      </trkpt>
      <trkpt lat="45.98637" lon="4.58462">
        <ele>493.8</ele>
        <time>2022-06-26T05:40:48Z</time>
      </trkpt>
      <trkpt lat="45.98635" lon="4.58464">
        <ele>493.8</ele>
        <time>2022-06-26T05:40:49Z</time>
      </trkpt>
      <trkpt lat="45.98633" lon="4.58465">
        <ele>493.8</ele>
        <time>2022-06-26T05:40:50Z</time>
      </trkpt>
      <trkpt lat="45.98631" lon="4.58466">
        <ele>494.2</ele>
        <time>2022-06-26T05:40:51Z</time>
      </trkpt>
      <trkpt lat="45.98629" lon="4.58467">
        <ele>494.2</ele>
        <time>2022-06-26T05:40:52Z</time>
      </trkpt>
      <trkpt lat="45.98627" lon="4.58468">
        <ele>494.6</ele>
        <time>2022-06-26T05:40:53Z</time>
      </trkpt>
      <trkpt lat="45.98625" lon="4.58468">
        <ele>494.6</ele>
        <time>2022-06-26T05:40:54Z</time>
      </trkpt>
      <trkpt lat="45.98622" lon="4.58469">
        <ele>494.6</ele>
        <time>2022-06-26T05:40:55Z</time>
      </trkpt>
      <trkpt lat="45.9862" lon="4.5847">
        <ele>494.6</ele>
        <time>2022-06-26T05:40:56Z</time>
      </trkpt>
      <trkpt lat="45.98618" lon="4.58471">
        <ele>494.6</ele>
        <time>2022-06-26T05:40:57Z</time>
      </trkpt>
      <trkpt lat="45.98615" lon="4.58472">
        <ele>494.8</ele>
        <time>2022-06-26T05:40:58Z</time>
      </trkpt>
      <trkpt lat="45.98613" lon="4.58473">
        <ele>494.8</ele>
        <time>2022-06-26T05:40:59Z</time>
      </trkpt>
      <trkpt lat="45.98611" lon="4.58473">
        <ele>495</ele>
        <time>2022-06-26T05:41:00Z</time>
      </trkpt>
      <trkpt lat="45.98608" lon="4.58474">
        <ele>495</ele>
        <time>2022-06-26T05:41:01Z</time>
      </trkpt>
      <trkpt lat="45.98606" lon="4.58475">
        <ele>495.2</ele>
        <time>2022-06-26T05:41:02Z</time>
      </trkpt>
      <trkpt lat="45.98604" lon="4.58475">
        <ele>495.2</ele>
        <time>2022-06-26T05:41:03Z</time>
      </trkpt>
      <trkpt lat="45.98601" lon="4.58476">
        <ele>495.2</ele>
        <time>2022-06-26T05:41:04Z</time>
      </trkpt>
      <trkpt lat="45.98599" lon="4.58477">
        <ele>495.6</ele>
        <time>2022-06-26T05:41:05Z</time>
      </trkpt>
      <trkpt lat="45.98596" lon="4.58477">
        <ele>495.6</ele>
        <time>2022-06-26T05:41:06Z</time>
      </trkpt>
      <trkpt lat="45.98594" lon="4.58478">
        <ele>495.8</ele>
        <time>2022-06-26T05:41:07Z</time>
      </trkpt>
      <trkpt lat="45.98591" lon="4.58479">
        <ele>495.8</ele>
        <time>2022-06-26T05:41:08Z</time>
      </trkpt>
      <trkpt lat="45.98589" lon="4.5848">
        <ele>496</ele>
        <time>2022-06-26T05:41:09Z</time>
      </trkpt>
      <trkpt lat="45.98587" lon="4.58482">
        <ele>496</ele>
        <time>2022-06-26T05:41:10Z</time>
      </trkpt>
      <trkpt lat="45.98584" lon="4.58483">
        <ele>496.4</ele>
        <time>2022-06-26T05:41:11Z</time>
      </trkpt>
      <trkpt lat="45.98582" lon="4.58485">
        <ele>496.4</ele>
        <time>2022-06-26T05:41:12Z</time>
      </trkpt>
      <trkpt lat="45.9858" lon="4.58486">
        <ele>496.6</ele>
        <time>2022-06-26T05:41:13Z</time>
      </trkpt>
      <trkpt lat="45.98578" lon="4.58488">
        <ele>496.6</ele>
        <time>2022-06-26T05:41:14Z</time>
      </trkpt>
      <trkpt lat="45.98576" lon="4.5849">
        <ele>496.8</ele>
        <time>2022-06-26T05:41:15Z</time>
      </trkpt>
      <trkpt lat="45.98574" lon="4.58493">
        <ele>497.2</ele>
        <time>2022-06-26T05:41:16Z</time>
      </trkpt>
      <trkpt lat="45.98572" lon="4.58495">
        <ele>497.2</ele>
        <time>2022-06-26T05:41:17Z</time>
      </trkpt>
      <trkpt lat="45.9857" lon="4.58498">
        <ele>497.4</ele>
        <time>2022-06-26T05:41:18Z</time>
      </trkpt>
      <trkpt lat="45.98568" lon="4.58501">
        <ele>497.4</ele>
        <time>2022-06-26T05:41:19Z</time>
      </trkpt>
      <trkpt lat="45.98566" lon="4.58503">
        <ele>497.4</ele>
        <time>2022-06-26T05:41:20Z</time>
      </trkpt>
      <trkpt lat="45.98564" lon="4.58506">
        <ele>497.4</ele>
        <time>2022-06-26T05:41:21Z</time>
      </trkpt>
      <trkpt lat="45.98563" lon="4.58509">
        <ele>497.8</ele>
        <time>2022-06-26T05:41:22Z</time>
      </trkpt>
      <trkpt lat="45.98561" lon="4.58512">
        <ele>497.8</ele>
        <time>2022-06-26T05:41:23Z</time>
      </trkpt>
      <trkpt lat="45.98559" lon="4.58515">
        <ele>498.2</ele>
        <time>2022-06-26T05:41:24Z</time>
      </trkpt>
      <trkpt lat="45.98558" lon="4.58518">
        <ele>498.4</ele>
        <time>2022-06-26T05:41:25Z</time>
      </trkpt>
      <trkpt lat="45.98557" lon="4.5852">
        <ele>498.4</ele>
        <time>2022-06-26T05:41:26Z</time>
      </trkpt>
      <trkpt lat="45.98556" lon="4.58523">
        <ele>498.6</ele>
        <time>2022-06-26T05:41:27Z</time>
      </trkpt>
      <trkpt lat="45.98554" lon="4.58526">
        <ele>498.6</ele>
        <time>2022-06-26T05:41:28Z</time>
      </trkpt>
      <trkpt lat="45.98553" lon="4.58528">
        <ele>499</ele>
        <time>2022-06-26T05:41:29Z</time>
      </trkpt>
      <trkpt lat="45.98552" lon="4.58531">
        <ele>499</ele>
        <time>2022-06-26T05:41:30Z</time>
      </trkpt>
      <trkpt lat="45.98551" lon="4.58534">
        <ele>499.2</ele>
        <time>2022-06-26T05:41:31Z</time>
      </trkpt>
      <trkpt lat="45.98549" lon="4.58536">
        <ele>499.4</ele>
        <time>2022-06-26T05:41:32Z</time>
      </trkpt>
      <trkpt lat="45.98548" lon="4.58539">
        <ele>499.6</ele>
        <time>2022-06-26T05:41:33Z</time>
      </trkpt>
      <trkpt lat="45.98547" lon="4.58541">
        <ele>499.6</ele>
        <time>2022-06-26T05:41:34Z</time>
      </trkpt>
      <trkpt lat="45.98545" lon="4.58543">
        <ele>500</ele>
        <time>2022-06-26T05:41:35Z</time>
      </trkpt>
      <trkpt lat="45.98544" lon="4.58546">
        <ele>500.2</ele>
        <time>2022-06-26T05:41:36Z</time>
      </trkpt>
      <trkpt lat="45.98543" lon="4.58548">
        <ele>500.2</ele>
        <time>2022-06-26T05:41:37Z</time>
      </trkpt>
      <trkpt lat="45.98542" lon="4.58551">
        <ele>500.6</ele>
        <time>2022-06-26T05:41:38Z</time>
      </trkpt>
      <trkpt lat="45.9854" lon="4.58553">
        <ele>500.8</ele>
        <time>2022-06-26T05:41:39Z</time>
      </trkpt>
      <trkpt lat="45.98539" lon="4.58556">
        <ele>500.8</ele>
        <time>2022-06-26T05:41:40Z</time>
      </trkpt>
      <trkpt lat="45.98537" lon="4.58558">
        <ele>501</ele>
        <time>2022-06-26T05:41:41Z</time>
      </trkpt>
      <trkpt lat="45.98536" lon="4.58561">
        <ele>501</ele>
        <time>2022-06-26T05:41:42Z</time>
      </trkpt>
      <trkpt lat="45.98535" lon="4.58563">
        <ele>501.4</ele>
        <time>2022-06-26T05:41:43Z</time>
      </trkpt>
      <trkpt lat="45.98533" lon="4.58566">
        <ele>501.4</ele>
        <time>2022-06-26T05:41:44Z</time>
      </trkpt>
      <trkpt lat="45.98532" lon="4.58568">
        <ele>501.6</ele>
        <time>2022-06-26T05:41:45Z</time>
      </trkpt>
      <trkpt lat="45.98531" lon="4.58572">
        <ele>501.6</ele>
        <time>2022-06-26T05:41:46Z</time>
      </trkpt>
      <trkpt lat="45.9853" lon="4.58574">
        <ele>501.6</ele>
        <time>2022-06-26T05:41:47Z</time>
      </trkpt>
      <trkpt lat="45.98528" lon="4.58577">
        <ele>502</ele>
        <time>2022-06-26T05:41:48Z</time>
      </trkpt>
      <trkpt lat="45.98527" lon="4.58579">
        <ele>502.2</ele>
        <time>2022-06-26T05:41:49Z</time>
      </trkpt>
      <trkpt lat="45.98525" lon="4.58582">
        <ele>502.2</ele>
        <time>2022-06-26T05:41:50Z</time>
      </trkpt>
      <trkpt lat="45.98524" lon="4.58584">
        <ele>502.2</ele>
        <time>2022-06-26T05:41:51Z</time>
      </trkpt>
      <trkpt lat="45.98522" lon="4.58587">
        <ele>502.4</ele>
        <time>2022-06-26T05:41:52Z</time>
      </trkpt>
      <trkpt lat="45.98521" lon="4.5859">
        <ele>502.4</ele>
        <time>2022-06-26T05:41:53Z</time>
      </trkpt>
      <trkpt lat="45.98519" lon="4.58592">
        <ele>502.8</ele>
        <time>2022-06-26T05:41:54Z</time>
      </trkpt>
      <trkpt lat="45.98518" lon="4.58595">
        <ele>502.8</ele>
        <time>2022-06-26T05:41:55Z</time>
      </trkpt>
      <trkpt lat="45.98516" lon="4.58598">
        <ele>503.2</ele>
        <time>2022-06-26T05:41:56Z</time>
      </trkpt>
      <trkpt lat="45.98515" lon="4.586">
        <ele>503.2</ele>
        <time>2022-06-26T05:41:57Z</time>
      </trkpt>
      <trkpt lat="45.98513" lon="4.58602">
        <ele>503.2</ele>
        <time>2022-06-26T05:41:58Z</time>
      </trkpt>
      <trkpt lat="45.98511" lon="4.58604">
        <ele>503.6</ele>
        <time>2022-06-26T05:41:59Z</time>
      </trkpt>
      <trkpt lat="45.9851" lon="4.58606">
        <ele>503.6</ele>
        <time>2022-06-26T05:42:00Z</time>
      </trkpt>
      <trkpt lat="45.98508" lon="4.58609">
        <ele>503.8</ele>
        <time>2022-06-26T05:42:01Z</time>
      </trkpt>
      <trkpt lat="45.98507" lon="4.58611">
        <ele>503.8</ele>
        <time>2022-06-26T05:42:02Z</time>
      </trkpt>
      <trkpt lat="45.98505" lon="4.58614">
        <ele>503.8</ele>
        <time>2022-06-26T05:42:03Z</time>
      </trkpt>
      <trkpt lat="45.98504" lon="4.58616">
        <ele>504.2</ele>
        <time>2022-06-26T05:42:04Z</time>
      </trkpt>
      <trkpt lat="45.98502" lon="4.58618">
        <ele>504.2</ele>
        <time>2022-06-26T05:42:05Z</time>
      </trkpt>
      <trkpt lat="45.985" lon="4.58619">
        <ele>504.4</ele>
        <time>2022-06-26T05:42:06Z</time>
      </trkpt>
      <trkpt lat="45.98498" lon="4.58621">
        <ele>504.4</ele>
        <time>2022-06-26T05:42:07Z</time>
      </trkpt>
      <trkpt lat="45.98497" lon="4.58622">
        <ele>504.6</ele>
        <time>2022-06-26T05:42:08Z</time>
      </trkpt>
      <trkpt lat="45.98495" lon="4.58624">
        <ele>504.6</ele>
        <time>2022-06-26T05:42:09Z</time>
      </trkpt>
      <trkpt lat="45.98493" lon="4.58625">
        <ele>505</ele>
        <time>2022-06-26T05:42:10Z</time>
      </trkpt>
      <trkpt lat="45.98492" lon="4.58628">
        <ele>505</ele>
        <time>2022-06-26T05:42:11Z</time>
      </trkpt>
      <trkpt lat="45.9849" lon="4.5863">
        <ele>505.2</ele>
        <time>2022-06-26T05:42:12Z</time>
      </trkpt>
      <trkpt lat="45.98488" lon="4.58632">
        <ele>505.2</ele>
        <time>2022-06-26T05:42:13Z</time>
      </trkpt>
      <trkpt lat="45.98487" lon="4.58633">
        <ele>505.4</ele>
        <time>2022-06-26T05:42:14Z</time>
      </trkpt>
      <trkpt lat="45.98485" lon="4.58635">
        <ele>505.4</ele>
        <time>2022-06-26T05:42:15Z</time>
      </trkpt>
      <trkpt lat="45.98483" lon="4.58636">
        <ele>505.6</ele>
        <time>2022-06-26T05:42:16Z</time>
      </trkpt>
      <trkpt lat="45.9848" lon="4.58637">
        <ele>505.6</ele>
        <time>2022-06-26T05:42:17Z</time>
      </trkpt>
      <trkpt lat="45.98478" lon="4.58638">
        <ele>506</ele>
        <time>2022-06-26T05:42:18Z</time>
      </trkpt>
      <trkpt lat="45.98476" lon="4.58639">
        <ele>506.2</ele>
        <time>2022-06-26T05:42:19Z</time>
      </trkpt>
      <trkpt lat="45.98474" lon="4.5864">
        <ele>506.2</ele>
        <time>2022-06-26T05:42:20Z</time>
      </trkpt>
      <trkpt lat="45.98472" lon="4.58641">
        <ele>506.6</ele>
        <time>2022-06-26T05:42:21Z</time>
      </trkpt>
      <trkpt lat="45.9847" lon="4.58643">
        <ele>506.6</ele>
        <time>2022-06-26T05:42:22Z</time>
      </trkpt>
      <trkpt lat="45.98468" lon="4.58644">
        <ele>507</ele>
        <time>2022-06-26T05:42:23Z</time>
      </trkpt>
      <trkpt lat="45.98466" lon="4.58644">
        <ele>507.2</ele>
        <time>2022-06-26T05:42:24Z</time>
      </trkpt>
      <trkpt lat="45.98463" lon="4.58645">
        <ele>507.2</ele>
        <time>2022-06-26T05:42:25Z</time>
      </trkpt>
      <trkpt lat="45.98461" lon="4.58645">
        <ele>507.6</ele>
        <time>2022-06-26T05:42:26Z</time>
      </trkpt>
      <trkpt lat="45.98459" lon="4.58646">
        <ele>507.6</ele>
        <time>2022-06-26T05:42:27Z</time>
      </trkpt>
      <trkpt lat="45.98457" lon="4.58646">
        <ele>507.8</ele>
        <time>2022-06-26T05:42:28Z</time>
      </trkpt>
      <trkpt lat="45.98455" lon="4.58647">
        <ele>508.2</ele>
        <time>2022-06-26T05:42:29Z</time>
      </trkpt>
      <trkpt lat="45.98452" lon="4.58647">
        <ele>508.2</ele>
        <time>2022-06-26T05:42:30Z</time>
      </trkpt>
      <trkpt lat="45.9845" lon="4.58648">
        <ele>508.4</ele>
        <time>2022-06-26T05:42:31Z</time>
      </trkpt>
      <trkpt lat="45.98448" lon="4.58648">
        <ele>508.4</ele>
        <time>2022-06-26T05:42:32Z</time>
      </trkpt>
      <trkpt lat="45.98446" lon="4.58649">
        <ele>508.8</ele>
        <time>2022-06-26T05:42:33Z</time>
      </trkpt>
      <trkpt lat="45.98443" lon="4.58649">
        <ele>508.8</ele>
        <time>2022-06-26T05:42:34Z</time>
      </trkpt>
      <trkpt lat="45.98441" lon="4.5865">
        <ele>509</ele>
        <time>2022-06-26T05:42:35Z</time>
      </trkpt>
      <trkpt lat="45.98439" lon="4.5865">
        <ele>509</ele>
        <time>2022-06-26T05:42:37Z</time>
      </trkpt>
      <trkpt lat="45.98437" lon="4.58651">
        <ele>509</ele>
        <time>2022-06-26T05:42:38Z</time>
      </trkpt>
      <trkpt lat="45.98434" lon="4.58651">
        <ele>509.4</ele>
        <time>2022-06-26T05:42:39Z</time>
      </trkpt>
      <trkpt lat="45.98432" lon="4.58652">
        <ele>509.6</ele>
        <time>2022-06-26T05:42:40Z</time>
      </trkpt>
      <trkpt lat="45.9843" lon="4.58652">
        <ele>509.6</ele>
        <time>2022-06-26T05:42:41Z</time>
      </trkpt>
      <trkpt lat="45.98427" lon="4.58652">
        <ele>509.8</ele>
        <time>2022-06-26T05:42:42Z</time>
      </trkpt>
      <trkpt lat="45.98425" lon="4.58652">
        <ele>509.8</ele>
        <time>2022-06-26T05:42:43Z</time>
      </trkpt>
      <trkpt lat="45.98423" lon="4.58652">
        <ele>510.2</ele>
        <time>2022-06-26T05:42:44Z</time>
      </trkpt>
      <trkpt lat="45.9842" lon="4.58652">
        <ele>510.2</ele>
        <time>2022-06-26T05:42:45Z</time>
      </trkpt>
      <trkpt lat="45.98418" lon="4.58653">
        <ele>510.4</ele>
        <time>2022-06-26T05:42:46Z</time>
      </trkpt>
      <trkpt lat="45.98416" lon="4.58653">
        <ele>510.4</ele>
        <time>2022-06-26T05:42:47Z</time>
      </trkpt>
      <trkpt lat="45.98413" lon="4.58653">
        <ele>510.6</ele>
        <time>2022-06-26T05:42:48Z</time>
      </trkpt>
      <trkpt lat="45.98411" lon="4.58654">
        <ele>510.6</ele>
        <time>2022-06-26T05:42:49Z</time>
      </trkpt>
      <trkpt lat="45.98409" lon="4.58655">
        <ele>511</ele>
        <time>2022-06-26T05:42:50Z</time>
      </trkpt>
      <trkpt lat="45.98406" lon="4.58655">
        <ele>511</ele>
        <time>2022-06-26T05:42:51Z</time>
      </trkpt>
      <trkpt lat="45.98404" lon="4.58656">
        <ele>511.2</ele>
        <time>2022-06-26T05:42:52Z</time>
      </trkpt>
      <trkpt lat="45.98402" lon="4.58656">
        <ele>511.4</ele>
        <time>2022-06-26T05:42:53Z</time>
      </trkpt>
      <trkpt lat="45.98399" lon="4.58656">
        <ele>511.4</ele>
        <time>2022-06-26T05:42:54Z</time>
      </trkpt>
      <trkpt lat="45.98397" lon="4.58656">
        <ele>511.4</ele>
        <time>2022-06-26T05:42:55Z</time>
      </trkpt>
      <trkpt lat="45.98395" lon="4.58656">
        <ele>511.8</ele>
        <time>2022-06-26T05:42:56Z</time>
      </trkpt>
      <trkpt lat="45.98392" lon="4.58656">
        <ele>511.8</ele>
        <time>2022-06-26T05:42:57Z</time>
      </trkpt>
      <trkpt lat="45.9839" lon="4.58656">
        <ele>512</ele>
        <time>2022-06-26T05:42:58Z</time>
      </trkpt>
      <trkpt lat="45.98388" lon="4.58657">
        <ele>512</ele>
        <time>2022-06-26T05:42:59Z</time>
      </trkpt>
      <trkpt lat="45.98385" lon="4.58657">
        <ele>512</ele>
        <time>2022-06-26T05:43:00Z</time>
      </trkpt>
      <trkpt lat="45.98383" lon="4.58657">
        <ele>512.4</ele>
        <time>2022-06-26T05:43:01Z</time>
      </trkpt>
      <trkpt lat="45.9838" lon="4.58657">
        <ele>512.4</ele>
        <time>2022-06-26T05:43:02Z</time>
      </trkpt>
      <trkpt lat="45.98378" lon="4.58658">
        <ele>512.6</ele>
        <time>2022-06-26T05:43:03Z</time>
      </trkpt>
      <trkpt lat="45.98375" lon="4.58658">
        <ele>512.6</ele>
        <time>2022-06-26T05:43:04Z</time>
      </trkpt>
      <trkpt lat="45.98373" lon="4.58659">
        <ele>512.8</ele>
        <time>2022-06-26T05:43:05Z</time>
      </trkpt>
      <trkpt lat="45.9837" lon="4.58659">
        <ele>512.8</ele>
        <time>2022-06-26T05:43:06Z</time>
      </trkpt>
      <trkpt lat="45.98368" lon="4.58659">
        <ele>513.2</ele>
        <time>2022-06-26T05:43:07Z</time>
      </trkpt>
      <trkpt lat="45.98365" lon="4.5866">
        <ele>513.2</ele>
        <time>2022-06-26T05:43:08Z</time>
      </trkpt>
      <trkpt lat="45.98363" lon="4.5866">
        <ele>513.4</ele>
        <time>2022-06-26T05:43:09Z</time>
      </trkpt>
      <trkpt lat="45.9836" lon="4.5866">
        <ele>513.6</ele>
        <time>2022-06-26T05:43:10Z</time>
      </trkpt>
      <trkpt lat="45.98357" lon="4.58661">
        <ele>513.6</ele>
        <time>2022-06-26T05:43:11Z</time>
      </trkpt>
      <trkpt lat="45.98355" lon="4.58661">
        <ele>513.6</ele>
        <time>2022-06-26T05:43:12Z</time>
      </trkpt>
      <trkpt lat="45.98352" lon="4.58661">
        <ele>514</ele>
        <time>2022-06-26T05:43:13Z</time>
      </trkpt>
      <trkpt lat="45.9835" lon="4.58661">
        <ele>514</ele>
        <time>2022-06-26T05:43:14Z</time>
      </trkpt>
      <trkpt lat="45.98346" lon="4.5866">
        <ele>514.2</ele>
        <time>2022-06-26T05:43:15Z</time>
      </trkpt>
      <trkpt lat="45.98344" lon="4.5866">
        <ele>516.4</ele>
        <time>2022-06-26T05:43:16Z</time>
      </trkpt>
      <trkpt lat="45.98342" lon="4.58659">
        <ele>516.2</ele>
        <time>2022-06-26T05:43:17Z</time>
      </trkpt>
      <trkpt lat="45.98341" lon="4.58659">
        <ele>516</ele>
        <time>2022-06-26T05:43:18Z</time>
      </trkpt>
      <trkpt lat="45.98339" lon="4.58658">
        <ele>516</ele>
        <time>2022-06-26T05:43:19Z</time>
      </trkpt>
      <trkpt lat="45.98338" lon="4.58658">
        <ele>515.6</ele>
        <time>2022-06-26T05:43:20Z</time>
      </trkpt>
      <trkpt lat="45.98336" lon="4.58658">
        <ele>515.4</ele>
        <time>2022-06-26T05:43:21Z</time>
      </trkpt>
      <trkpt lat="45.98335" lon="4.58658">
        <ele>515.4</ele>
        <time>2022-06-26T05:43:22Z</time>
      </trkpt>
      <trkpt lat="45.98334" lon="4.5866">
        <ele>515.4</ele>
        <time>2022-06-26T05:43:23Z</time>
      </trkpt>
      <trkpt lat="45.98334" lon="4.58661">
        <ele>515</ele>
        <time>2022-06-26T05:43:24Z</time>
      </trkpt>
      <trkpt lat="45.98336" lon="4.58662">
        <ele>515</ele>
        <time>2022-06-26T05:43:25Z</time>
      </trkpt>
      <trkpt lat="45.98337" lon="4.58663">
        <ele>515</ele>
        <time>2022-06-26T05:43:26Z</time>
      </trkpt>
      <trkpt lat="45.98339" lon="4.58662">
        <ele>515</ele>
        <time>2022-06-26T05:43:27Z</time>
      </trkpt>
      <trkpt lat="45.9834" lon="4.5866">
        <ele>515</ele>
        <time>2022-06-26T05:43:28Z</time>
      </trkpt>
      <trkpt lat="45.98341" lon="4.58658">
        <ele>515</ele>
        <time>2022-06-26T05:43:29Z</time>
      </trkpt>
      <trkpt lat="45.98342" lon="4.58656">
        <ele>515</ele>
        <time>2022-06-26T05:43:30Z</time>
      </trkpt>
      <trkpt lat="45.98343" lon="4.58653">
        <ele>515</ele>
        <time>2022-06-26T05:43:31Z</time>
      </trkpt>
      <trkpt lat="45.98344" lon="4.58651">
        <ele>515</ele>
        <time>2022-06-26T05:43:32Z</time>
      </trkpt>
      <trkpt lat="45.98346" lon="4.58649">
        <ele>515.4</ele>
        <time>2022-06-26T05:43:33Z</time>
      </trkpt>
      <trkpt lat="45.98348" lon="4.58647">
        <ele>515.4</ele>
        <time>2022-06-26T05:43:34Z</time>
      </trkpt>
      <trkpt lat="45.9835" lon="4.58645">
        <ele>515.6</ele>
        <time>2022-06-26T05:43:35Z</time>
      </trkpt>
      <trkpt lat="45.98352" lon="4.58643">
        <ele>515.6</ele>
        <time>2022-06-26T05:43:36Z</time>
      </trkpt>
      <trkpt lat="45.98354" lon="4.58642">
        <ele>516</ele>
        <time>2022-06-26T05:43:37Z</time>
      </trkpt>
      <trkpt lat="45.98356" lon="4.5864">
        <ele>516</ele>
        <time>2022-06-26T05:43:38Z</time>
      </trkpt>
      <trkpt lat="45.98358" lon="4.58639">
        <ele>516.2</ele>
        <time>2022-06-26T05:43:39Z</time>
      </trkpt>
      <trkpt lat="45.9836" lon="4.58637">
        <ele>520</ele>
        <time>2022-06-26T05:43:40Z</time>
      </trkpt>
      <trkpt lat="45.98362" lon="4.58635">
        <ele>521.6</ele>
        <time>2022-06-26T05:43:41Z</time>
      </trkpt>
      <trkpt lat="45.98364" lon="4.58633">
        <ele>522</ele>
        <time>2022-06-26T05:43:42Z</time>
      </trkpt>
      <trkpt lat="45.98367" lon="4.58632">
        <ele>522</ele>
        <time>2022-06-26T05:43:43Z</time>
      </trkpt>
      <trkpt lat="45.98369" lon="4.58631">
        <ele>522.4</ele>
        <time>2022-06-26T05:43:44Z</time>
      </trkpt>
      <trkpt lat="45.98371" lon="4.58629">
        <ele>522.4</ele>
        <time>2022-06-26T05:43:45Z</time>
      </trkpt>
      <trkpt lat="45.98373" lon="4.58627">
        <ele>521.8</ele>
        <time>2022-06-26T05:43:46Z</time>
      </trkpt>
      <trkpt lat="45.98375" lon="4.58624">
        <ele>521.6</ele>
        <time>2022-06-26T05:43:47Z</time>
      </trkpt>
      <trkpt lat="45.98376" lon="4.58621">
        <ele>521.6</ele>
        <time>2022-06-26T05:43:48Z</time>
      </trkpt>
      <trkpt lat="45.98378" lon="4.58618">
        <ele>521.6</ele>
        <time>2022-06-26T05:43:49Z</time>
      </trkpt>
      <trkpt lat="45.98379" lon="4.58616">
        <ele>521.6</ele>
        <time>2022-06-26T05:43:50Z</time>
      </trkpt>
      <trkpt lat="45.9838" lon="4.58613">
        <ele>520.8</ele>
        <time>2022-06-26T05:43:51Z</time>
      </trkpt>
      <trkpt lat="45.98381" lon="4.5861">
        <ele>520.2</ele>
        <time>2022-06-26T05:43:52Z</time>
      </trkpt>
      <trkpt lat="45.98382" lon="4.58606">
        <ele>519.8</ele>
        <time>2022-06-26T05:43:53Z</time>
      </trkpt>
      <trkpt lat="45.98382" lon="4.58603">
        <ele>519.6</ele>
        <time>2022-06-26T05:43:54Z</time>
      </trkpt>
      <trkpt lat="45.98383" lon="4.586">
        <ele>519.2</ele>
        <time>2022-06-26T05:43:55Z</time>
      </trkpt>
      <trkpt lat="45.98383" lon="4.58597">
        <ele>519.2</ele>
        <time>2022-06-26T05:43:56Z</time>
      </trkpt>
      <trkpt lat="45.98383" lon="4.58594">
        <ele>519.2</ele>
        <time>2022-06-26T05:43:57Z</time>
      </trkpt>
      <trkpt lat="45.98382" lon="4.58591">
        <ele>519.2</ele>
        <time>2022-06-26T05:43:58Z</time>
      </trkpt>
      <trkpt lat="45.98381" lon="4.58588">
        <ele>519.2</ele>
        <time>2022-06-26T05:43:59Z</time>
      </trkpt>
      <trkpt lat="45.9838" lon="4.58585">
        <ele>519.2</ele>
        <time>2022-06-26T05:44:00Z</time>
      </trkpt>
      <trkpt lat="45.98379" lon="4.58583">
        <ele>519.2</ele>
        <time>2022-06-26T05:44:01Z</time>
      </trkpt>
      <trkpt lat="45.98377" lon="4.58581">
        <ele>519.4</ele>
        <time>2022-06-26T05:44:02Z</time>
      </trkpt>
      <trkpt lat="45.98375" lon="4.58579">
        <ele>519.4</ele>
        <time>2022-06-26T05:44:03Z</time>
      </trkpt>
      <trkpt lat="45.98373" lon="4.58578">
        <ele>519.4</ele>
        <time>2022-06-26T05:44:04Z</time>
      </trkpt>
      <trkpt lat="45.98371" lon="4.58577">
        <ele>519.6</ele>
        <time>2022-06-26T05:44:05Z</time>
      </trkpt>
      <trkpt lat="45.98368" lon="4.58576">
        <ele>519.6</ele>
        <time>2022-06-26T05:44:06Z</time>
      </trkpt>
      <trkpt lat="45.98366" lon="4.58575">
        <ele>520</ele>
        <time>2022-06-26T05:44:07Z</time>
      </trkpt>
      <trkpt lat="45.98364" lon="4.58575">
        <ele>520</ele>
        <time>2022-06-26T05:44:08Z</time>
      </trkpt>
      <trkpt lat="45.98361" lon="4.58575">
        <ele>520.4</ele>
        <time>2022-06-26T05:44:09Z</time>
      </trkpt>
      <trkpt lat="45.98359" lon="4.58575">
        <ele>520.6</ele>
        <time>2022-06-26T05:44:10Z</time>
      </trkpt>
      <trkpt lat="45.98357" lon="4.58576">
        <ele>520.6</ele>
        <time>2022-06-26T05:44:11Z</time>
      </trkpt>
      <trkpt lat="45.98354" lon="4.58576">
        <ele>521</ele>
        <time>2022-06-26T05:44:12Z</time>
      </trkpt>
      <trkpt lat="45.98352" lon="4.58577">
        <ele>521.2</ele>
        <time>2022-06-26T05:44:13Z</time>
      </trkpt>
      <trkpt lat="45.9835" lon="4.58577">
        <ele>521.2</ele>
        <time>2022-06-26T05:44:14Z</time>
      </trkpt>
      <trkpt lat="45.98347" lon="4.58577">
        <ele>521.4</ele>
        <time>2022-06-26T05:44:15Z</time>
      </trkpt>
      <trkpt lat="45.98345" lon="4.58578">
        <ele>521.4</ele>
        <time>2022-06-26T05:44:16Z</time>
      </trkpt>
      <trkpt lat="45.98343" lon="4.58578">
        <ele>521.6</ele>
        <time>2022-06-26T05:44:17Z</time>
      </trkpt>
      <trkpt lat="45.9834" lon="4.58578">
        <ele>521.6</ele>
        <time>2022-06-26T05:44:18Z</time>
      </trkpt>
      <trkpt lat="45.98338" lon="4.58579">
        <ele>522</ele>
        <time>2022-06-26T05:44:19Z</time>
      </trkpt>
      <trkpt lat="45.98336" lon="4.58579">
        <ele>522</ele>
        <time>2022-06-26T05:44:20Z</time>
      </trkpt>
      <trkpt lat="45.98333" lon="4.5858">
        <ele>522.2</ele>
        <time>2022-06-26T05:44:21Z</time>
      </trkpt>
      <trkpt lat="45.98331" lon="4.5858">
        <ele>522.2</ele>
        <time>2022-06-26T05:44:22Z</time>
      </trkpt>
      <trkpt lat="45.98329" lon="4.58581">
        <ele>522.2</ele>
        <time>2022-06-26T05:44:23Z</time>
      </trkpt>
      <trkpt lat="45.98327" lon="4.58581">
        <ele>522.4</ele>
        <time>2022-06-26T05:44:24Z</time>
      </trkpt>
      <trkpt lat="45.98325" lon="4.58581">
        <ele>522.4</ele>
        <time>2022-06-26T05:44:25Z</time>
      </trkpt>
      <trkpt lat="45.98322" lon="4.58581">
        <ele>522.4</ele>
        <time>2022-06-26T05:44:26Z</time>
      </trkpt>
      <trkpt lat="45.9832" lon="4.5858">
        <ele>522.8</ele>
        <time>2022-06-26T05:44:27Z</time>
      </trkpt>
      <trkpt lat="45.98318" lon="4.58581">
        <ele>522.8</ele>
        <time>2022-06-26T05:44:28Z</time>
      </trkpt>
      <trkpt lat="45.98315" lon="4.58581">
        <ele>522.8</ele>
        <time>2022-06-26T05:44:29Z</time>
      </trkpt>
      <trkpt lat="45.98313" lon="4.58581">
        <ele>522.8</ele>
        <time>2022-06-26T05:44:30Z</time>
      </trkpt>
      <trkpt lat="45.98311" lon="4.58582">
        <ele>523.2</ele>
        <time>2022-06-26T05:44:31Z</time>
      </trkpt>
      <trkpt lat="45.98309" lon="4.58582">
        <ele>523.2</ele>
        <time>2022-06-26T05:44:32Z</time>
      </trkpt>
      <trkpt lat="45.98307" lon="4.58583">
        <ele>523.6</ele>
        <time>2022-06-26T05:44:33Z</time>
      </trkpt>
      <trkpt lat="45.98304" lon="4.58583">
        <ele>523.6</ele>
        <time>2022-06-26T05:44:34Z</time>
      </trkpt>
      <trkpt lat="45.98302" lon="4.58583">
        <ele>523.6</ele>
        <time>2022-06-26T05:44:35Z</time>
      </trkpt>
      <trkpt lat="45.983" lon="4.58583">
        <ele>523.8</ele>
        <time>2022-06-26T05:44:36Z</time>
      </trkpt>
      <trkpt lat="45.98297" lon="4.58583">
        <ele>523.8</ele>
        <time>2022-06-26T05:44:37Z</time>
      </trkpt>
      <trkpt lat="45.98295" lon="4.58583">
        <ele>524</ele>
        <time>2022-06-26T05:44:38Z</time>
      </trkpt>
      <trkpt lat="45.98293" lon="4.58584">
        <ele>524</ele>
        <time>2022-06-26T05:44:39Z</time>
      </trkpt>
      <trkpt lat="45.9829" lon="4.58584">
        <ele>524.4</ele>
        <time>2022-06-26T05:44:40Z</time>
      </trkpt>
      <trkpt lat="45.98288" lon="4.58585">
        <ele>524.4</ele>
        <time>2022-06-26T05:44:41Z</time>
      </trkpt>
      <trkpt lat="45.98286" lon="4.58585">
        <ele>524.8</ele>
        <time>2022-06-26T05:44:42Z</time>
      </trkpt>
      <trkpt lat="45.98283" lon="4.58585">
        <ele>524.8</ele>
        <time>2022-06-26T05:44:43Z</time>
      </trkpt>
      <trkpt lat="45.98281" lon="4.58586">
        <ele>525</ele>
        <time>2022-06-26T05:44:44Z</time>
      </trkpt>
      <trkpt lat="45.98279" lon="4.58586">
        <ele>525</ele>
        <time>2022-06-26T05:44:45Z</time>
      </trkpt>
      <trkpt lat="45.98277" lon="4.58586">
        <ele>525.4</ele>
        <time>2022-06-26T05:44:46Z</time>
      </trkpt>
      <trkpt lat="45.98274" lon="4.58586">
        <ele>525.4</ele>
        <time>2022-06-26T05:44:47Z</time>
      </trkpt>
      <trkpt lat="45.98272" lon="4.58585">
        <ele>525.6</ele>
        <time>2022-06-26T05:44:48Z</time>
      </trkpt>
      <trkpt lat="45.9827" lon="4.58585">
        <ele>525.6</ele>
        <time>2022-06-26T05:44:49Z</time>
      </trkpt>
      <trkpt lat="45.98268" lon="4.58585">
        <ele>525.6</ele>
        <time>2022-06-26T05:44:50Z</time>
      </trkpt>
      <trkpt lat="45.98265" lon="4.58584">
        <ele>525.8</ele>
        <time>2022-06-26T05:44:51Z</time>
      </trkpt>
      <trkpt lat="45.98263" lon="4.58584">
        <ele>526</ele>
        <time>2022-06-26T05:44:52Z</time>
      </trkpt>
      <trkpt lat="45.98261" lon="4.58584">
        <ele>526.4</ele>
        <time>2022-06-26T05:44:53Z</time>
      </trkpt>
      <trkpt lat="45.98259" lon="4.58584">
        <ele>526.4</ele>
        <time>2022-06-26T05:44:54Z</time>
      </trkpt>
      <trkpt lat="45.98257" lon="4.58584">
        <ele>526.6</ele>
        <time>2022-06-26T05:44:55Z</time>
      </trkpt>
      <trkpt lat="45.98255" lon="4.58584">
        <ele>526.6</ele>
        <time>2022-06-26T05:44:56Z</time>
      </trkpt>
      <trkpt lat="45.98253" lon="4.58583">
        <ele>526.6</ele>
        <time>2022-06-26T05:44:57Z</time>
      </trkpt>
      <trkpt lat="45.98251" lon="4.58583">
        <ele>526.8</ele>
        <time>2022-06-26T05:44:58Z</time>
      </trkpt>
      <trkpt lat="45.98249" lon="4.58582">
        <ele>526.8</ele>
        <time>2022-06-26T05:44:59Z</time>
      </trkpt>
      <trkpt lat="45.98246" lon="4.58582">
        <ele>526.8</ele>
        <time>2022-06-26T05:45:00Z</time>
      </trkpt>
      <trkpt lat="45.98244" lon="4.58582">
        <ele>527.2</ele>
        <time>2022-06-26T05:45:01Z</time>
      </trkpt>
      <trkpt lat="45.98242" lon="4.58582">
        <ele>527.2</ele>
        <time>2022-06-26T05:45:02Z</time>
      </trkpt>
      <trkpt lat="45.9824" lon="4.58581">
        <ele>527.6</ele>
        <time>2022-06-26T05:45:03Z</time>
      </trkpt>
      <trkpt lat="45.98238" lon="4.5858">
        <ele>527.6</ele>
        <time>2022-06-26T05:45:04Z</time>
      </trkpt>
      <trkpt lat="45.98236" lon="4.5858">
        <ele>528</ele>
        <time>2022-06-26T05:45:05Z</time>
      </trkpt>
      <trkpt lat="45.98233" lon="4.5858">
        <ele>528</ele>
        <time>2022-06-26T05:45:06Z</time>
      </trkpt>
      <trkpt lat="45.98231" lon="4.58579">
        <ele>528.2</ele>
        <time>2022-06-26T05:45:07Z</time>
      </trkpt>
      <trkpt lat="45.98229" lon="4.58579">
        <ele>528.2</ele>
        <time>2022-06-26T05:45:08Z</time>
      </trkpt>
      <trkpt lat="45.98227" lon="4.58578">
        <ele>528.6</ele>
        <time>2022-06-26T05:45:09Z</time>
      </trkpt>
      <trkpt lat="45.98225" lon="4.58577">
        <ele>528.8</ele>
        <time>2022-06-26T05:45:10Z</time>
      </trkpt>
      <trkpt lat="45.98223" lon="4.58577">
        <ele>528.8</ele>
        <time>2022-06-26T05:45:11Z</time>
      </trkpt>
      <trkpt lat="45.98221" lon="4.58577">
        <ele>529.2</ele>
        <time>2022-06-26T05:45:12Z</time>
      </trkpt>
      <trkpt lat="45.98219" lon="4.58577">
        <ele>529.2</ele>
        <time>2022-06-26T05:45:13Z</time>
      </trkpt>
      <trkpt lat="45.98217" lon="4.58576">
        <ele>529.2</ele>
        <time>2022-06-26T05:45:14Z</time>
      </trkpt>
      <trkpt lat="45.98215" lon="4.58576">
        <ele>529.4</ele>
        <time>2022-06-26T05:45:15Z</time>
      </trkpt>
      <trkpt lat="45.98213" lon="4.58575">
        <ele>529.4</ele>
        <time>2022-06-26T05:45:16Z</time>
      </trkpt>
      <trkpt lat="45.98211" lon="4.58575">
        <ele>529.6</ele>
        <time>2022-06-26T05:45:17Z</time>
      </trkpt>
      <trkpt lat="45.98209" lon="4.58575">
        <ele>529.6</ele>
        <time>2022-06-26T05:45:18Z</time>
      </trkpt>
      <trkpt lat="45.98206" lon="4.58574">
        <ele>530</ele>
        <time>2022-06-26T05:45:19Z</time>
      </trkpt>
      <trkpt lat="45.98204" lon="4.58574">
        <ele>530</ele>
        <time>2022-06-26T05:45:20Z</time>
      </trkpt>
      <trkpt lat="45.98202" lon="4.58573">
        <ele>530.4</ele>
        <time>2022-06-26T05:45:21Z</time>
      </trkpt>
      <trkpt lat="45.982" lon="4.58573">
        <ele>530.4</ele>
        <time>2022-06-26T05:45:22Z</time>
      </trkpt>
      <trkpt lat="45.98198" lon="4.58572">
        <ele>530.6</ele>
        <time>2022-06-26T05:45:23Z</time>
      </trkpt>
      <trkpt lat="45.98195" lon="4.58572">
        <ele>530.6</ele>
        <time>2022-06-26T05:45:24Z</time>
      </trkpt>
      <trkpt lat="45.98193" lon="4.58571">
        <ele>530.6</ele>
        <time>2022-06-26T05:45:25Z</time>
      </trkpt>
      <trkpt lat="45.98191" lon="4.5857">
        <ele>530.8</ele>
        <time>2022-06-26T05:45:26Z</time>
      </trkpt>
      <trkpt lat="45.98188" lon="4.5857">
        <ele>530.8</ele>
        <time>2022-06-26T05:45:27Z</time>
      </trkpt>
      <trkpt lat="45.98186" lon="4.5857">
        <ele>531.2</ele>
        <time>2022-06-26T05:45:28Z</time>
      </trkpt>
      <trkpt lat="45.98184" lon="4.58569">
        <ele>531.2</ele>
        <time>2022-06-26T05:45:29Z</time>
      </trkpt>
      <trkpt lat="45.98181" lon="4.58569">
        <ele>531.6</ele>
        <time>2022-06-26T05:45:30Z</time>
      </trkpt>
      <trkpt lat="45.98179" lon="4.58569">
        <ele>531.6</ele>
        <time>2022-06-26T05:45:31Z</time>
      </trkpt>
      <trkpt lat="45.98177" lon="4.58569">
        <ele>531.8</ele>
        <time>2022-06-26T05:45:32Z</time>
      </trkpt>
      <trkpt lat="45.98174" lon="4.58568">
        <ele>532</ele>
        <time>2022-06-26T05:45:33Z</time>
      </trkpt>
      <trkpt lat="45.98172" lon="4.58568">
        <ele>532</ele>
        <time>2022-06-26T05:45:34Z</time>
      </trkpt>
      <trkpt lat="45.9817" lon="4.58567">
        <ele>532.2</ele>
        <time>2022-06-26T05:45:35Z</time>
      </trkpt>
      <trkpt lat="45.98167" lon="4.58567">
        <ele>532.2</ele>
        <time>2022-06-26T05:45:36Z</time>
      </trkpt>
      <trkpt lat="45.98165" lon="4.58567">
        <ele>532.8</ele>
        <time>2022-06-26T05:45:37Z</time>
      </trkpt>
      <trkpt lat="45.98163" lon="4.58566">
        <ele>532.8</ele>
        <time>2022-06-26T05:45:38Z</time>
      </trkpt>
      <trkpt lat="45.98161" lon="4.58566">
        <ele>533</ele>
        <time>2022-06-26T05:45:39Z</time>
      </trkpt>
      <trkpt lat="45.98158" lon="4.58565">
        <ele>533</ele>
        <time>2022-06-26T05:45:40Z</time>
      </trkpt>
      <trkpt lat="45.98156" lon="4.58564">
        <ele>533.4</ele>
        <time>2022-06-26T05:45:41Z</time>
      </trkpt>
      <trkpt lat="45.98154" lon="4.58564">
        <ele>533.4</ele>
        <time>2022-06-26T05:45:42Z</time>
      </trkpt>
      <trkpt lat="45.98152" lon="4.58563">
        <ele>533.4</ele>
        <time>2022-06-26T05:45:43Z</time>
      </trkpt>
      <trkpt lat="45.9815" lon="4.58563">
        <ele>533.6</ele>
        <time>2022-06-26T05:45:44Z</time>
      </trkpt>
      <trkpt lat="45.98147" lon="4.58563">
        <ele>533.6</ele>
        <time>2022-06-26T05:45:45Z</time>
      </trkpt>
      <trkpt lat="45.98145" lon="4.58563">
        <ele>534</ele>
        <time>2022-06-26T05:45:46Z</time>
      </trkpt>
      <trkpt lat="45.98143" lon="4.58563">
        <ele>534.2</ele>
        <time>2022-06-26T05:45:47Z</time>
      </trkpt>
      <trkpt lat="45.98141" lon="4.58563">
        <ele>534.2</ele>
        <time>2022-06-26T05:45:48Z</time>
      </trkpt>
      <trkpt lat="45.98139" lon="4.58562">
        <ele>534.2</ele>
        <time>2022-06-26T05:45:49Z</time>
      </trkpt>
      <trkpt lat="45.98137" lon="4.58562">
        <ele>534.4</ele>
        <time>2022-06-26T05:45:50Z</time>
      </trkpt>
      <trkpt lat="45.98135" lon="4.58561">
        <ele>534.4</ele>
        <time>2022-06-26T05:45:51Z</time>
      </trkpt>
      <trkpt lat="45.98133" lon="4.5856">
        <ele>534.8</ele>
        <time>2022-06-26T05:45:52Z</time>
      </trkpt>
      <trkpt lat="45.9813" lon="4.5856">
        <ele>534.8</ele>
        <time>2022-06-26T05:45:53Z</time>
      </trkpt>
      <trkpt lat="45.98128" lon="4.58559">
        <ele>535.2</ele>
        <time>2022-06-26T05:45:54Z</time>
      </trkpt>
      <trkpt lat="45.98126" lon="4.58559">
        <ele>535.2</ele>
        <time>2022-06-26T05:45:55Z</time>
      </trkpt>
      <trkpt lat="45.98124" lon="4.58558">
        <ele>535.4</ele>
        <time>2022-06-26T05:45:56Z</time>
      </trkpt>
      <trkpt lat="45.98122" lon="4.58558">
        <ele>535.4</ele>
        <time>2022-06-26T05:45:57Z</time>
      </trkpt>
      <trkpt lat="45.9812" lon="4.58558">
        <ele>535.6</ele>
        <time>2022-06-26T05:45:58Z</time>
      </trkpt>
      <trkpt lat="45.98117" lon="4.58558">
        <ele>535.6</ele>
        <time>2022-06-26T05:45:59Z</time>
      </trkpt>
      <trkpt lat="45.98115" lon="4.58557">
        <ele>536</ele>
        <time>2022-06-26T05:46:00Z</time>
      </trkpt>
      <trkpt lat="45.98113" lon="4.58557">
        <ele>536.2</ele>
        <time>2022-06-26T05:46:01Z</time>
      </trkpt>
      <trkpt lat="45.98111" lon="4.58557">
        <ele>536.4</ele>
        <time>2022-06-26T05:46:02Z</time>
      </trkpt>
      <trkpt lat="45.98109" lon="4.58557">
        <ele>536.4</ele>
        <time>2022-06-26T05:46:03Z</time>
      </trkpt>
      <trkpt lat="45.98107" lon="4.58556">
        <ele>536.4</ele>
        <time>2022-06-26T05:46:04Z</time>
      </trkpt>
      <trkpt lat="45.98105" lon="4.58556">
        <ele>536.4</ele>
        <time>2022-06-26T05:46:05Z</time>
      </trkpt>
      <trkpt lat="45.98102" lon="4.58556">
        <ele>536.6</ele>
        <time>2022-06-26T05:46:06Z</time>
      </trkpt>
      <trkpt lat="45.981" lon="4.58556">
        <ele>536.6</ele>
        <time>2022-06-26T05:46:07Z</time>
      </trkpt>
      <trkpt lat="45.98098" lon="4.58555">
        <ele>536.8</ele>
        <time>2022-06-26T05:46:08Z</time>
      </trkpt>
      <trkpt lat="45.98096" lon="4.58555">
        <ele>536.8</ele>
        <time>2022-06-26T05:46:09Z</time>
      </trkpt>
      <trkpt lat="45.98094" lon="4.58554">
        <ele>537.4</ele>
        <time>2022-06-26T05:46:11Z</time>
      </trkpt>
      <trkpt lat="45.98092" lon="4.58553">
        <ele>537.4</ele>
        <time>2022-06-26T05:46:12Z</time>
      </trkpt>
      <trkpt lat="45.98089" lon="4.58552">
        <ele>537.8</ele>
        <time>2022-06-26T05:46:13Z</time>
      </trkpt>
      <trkpt lat="45.98087" lon="4.58551">
        <ele>537.8</ele>
        <time>2022-06-26T05:46:14Z</time>
      </trkpt>
      <trkpt lat="45.98085" lon="4.58551">
        <ele>538.2</ele>
        <time>2022-06-26T05:46:15Z</time>
      </trkpt>
      <trkpt lat="45.98082" lon="4.5855">
        <ele>538.2</ele>
        <time>2022-06-26T05:46:16Z</time>
      </trkpt>
      <trkpt lat="45.9808" lon="4.5855">
        <ele>538.2</ele>
        <time>2022-06-26T05:46:17Z</time>
      </trkpt>
      <trkpt lat="45.98077" lon="4.5855">
        <ele>538.4</ele>
        <time>2022-06-26T05:46:18Z</time>
      </trkpt>
      <trkpt lat="45.98075" lon="4.5855">
        <ele>538.4</ele>
        <time>2022-06-26T05:46:19Z</time>
      </trkpt>
      <trkpt lat="45.98073" lon="4.58549">
        <ele>538.8</ele>
        <time>2022-06-26T05:46:20Z</time>
      </trkpt>
      <trkpt lat="45.9807" lon="4.58549">
        <ele>539</ele>
        <time>2022-06-26T05:46:21Z</time>
      </trkpt>
      <trkpt lat="45.98068" lon="4.58548">
        <ele>539</ele>
        <time>2022-06-26T05:46:22Z</time>
      </trkpt>
      <trkpt lat="45.98066" lon="4.58548">
        <ele>539.2</ele>
        <time>2022-06-26T05:46:23Z</time>
      </trkpt>
      <trkpt lat="45.98064" lon="4.58548">
        <ele>539.6</ele>
        <time>2022-06-26T05:46:24Z</time>
      </trkpt>
      <trkpt lat="45.98062" lon="4.58547">
        <ele>539.6</ele>
        <time>2022-06-26T05:46:25Z</time>
      </trkpt>
      <trkpt lat="45.98059" lon="4.58547">
        <ele>539.6</ele>
        <time>2022-06-26T05:46:26Z</time>
      </trkpt>
      <trkpt lat="45.98057" lon="4.58547">
        <ele>540</ele>
        <time>2022-06-26T05:46:27Z</time>
      </trkpt>
      <trkpt lat="45.98055" lon="4.58546">
        <ele>540</ele>
        <time>2022-06-26T05:46:28Z</time>
      </trkpt>
      <trkpt lat="45.98053" lon="4.58546">
        <ele>540.4</ele>
        <time>2022-06-26T05:46:29Z</time>
      </trkpt>
      <trkpt lat="45.98051" lon="4.58546">
        <ele>540.4</ele>
        <time>2022-06-26T05:46:30Z</time>
      </trkpt>
      <trkpt lat="45.98049" lon="4.58545">
        <ele>540.6</ele>
        <time>2022-06-26T05:46:31Z</time>
      </trkpt>
      <trkpt lat="45.98046" lon="4.58545">
        <ele>540.6</ele>
        <time>2022-06-26T05:46:32Z</time>
      </trkpt>
      <trkpt lat="45.98044" lon="4.58544">
        <ele>541</ele>
        <time>2022-06-26T05:46:33Z</time>
      </trkpt>
      <trkpt lat="45.98041" lon="4.58544">
        <ele>541.2</ele>
        <time>2022-06-26T05:46:34Z</time>
      </trkpt>
      <trkpt lat="45.98039" lon="4.58545">
        <ele>541.2</ele>
        <time>2022-06-26T05:46:35Z</time>
      </trkpt>
      <trkpt lat="45.98037" lon="4.58545">
        <ele>541.4</ele>
        <time>2022-06-26T05:46:36Z</time>
      </trkpt>
      <trkpt lat="45.98034" lon="4.58545">
        <ele>541.4</ele>
        <time>2022-06-26T05:46:37Z</time>
      </trkpt>
      <trkpt lat="45.98032" lon="4.58545">
        <ele>541.8</ele>
        <time>2022-06-26T05:46:38Z</time>
      </trkpt>
      <trkpt lat="45.98029" lon="4.58545">
        <ele>541.8</ele>
        <time>2022-06-26T05:46:39Z</time>
      </trkpt>
      <trkpt lat="45.98027" lon="4.58545">
        <ele>542.2</ele>
        <time>2022-06-26T05:46:40Z</time>
      </trkpt>
      <trkpt lat="45.98025" lon="4.58545">
        <ele>542.2</ele>
        <time>2022-06-26T05:46:41Z</time>
      </trkpt>
      <trkpt lat="45.98022" lon="4.58545">
        <ele>542.4</ele>
        <time>2022-06-26T05:46:42Z</time>
      </trkpt>
      <trkpt lat="45.9802" lon="4.58545">
        <ele>542.4</ele>
        <time>2022-06-26T05:46:43Z</time>
      </trkpt>
      <trkpt lat="45.98018" lon="4.58545">
        <ele>542.6</ele>
        <time>2022-06-26T05:46:44Z</time>
      </trkpt>
      <trkpt lat="45.98015" lon="4.58545">
        <ele>542.6</ele>
        <time>2022-06-26T05:46:45Z</time>
      </trkpt>
      <trkpt lat="45.98013" lon="4.58545">
        <ele>543</ele>
        <time>2022-06-26T05:46:46Z</time>
      </trkpt>
      <trkpt lat="45.9801" lon="4.58545">
        <ele>543</ele>
        <time>2022-06-26T05:46:47Z</time>
      </trkpt>
      <trkpt lat="45.98008" lon="4.58545">
        <ele>543.2</ele>
        <time>2022-06-26T05:46:48Z</time>
      </trkpt>
      <trkpt lat="45.98006" lon="4.58545">
        <ele>543.6</ele>
        <time>2022-06-26T05:46:49Z</time>
      </trkpt>
      <trkpt lat="45.98003" lon="4.58544">
        <ele>543.6</ele>
        <time>2022-06-26T05:46:50Z</time>
      </trkpt>
      <trkpt lat="45.98001" lon="4.58544">
        <ele>543.8</ele>
        <time>2022-06-26T05:46:51Z</time>
      </trkpt>
      <trkpt lat="45.97999" lon="4.58545">
        <ele>543.8</ele>
        <time>2022-06-26T05:46:52Z</time>
      </trkpt>
      <trkpt lat="45.97997" lon="4.58545">
        <ele>544.2</ele>
        <time>2022-06-26T05:46:53Z</time>
      </trkpt>
      <trkpt lat="45.97994" lon="4.58545">
        <ele>544.2</ele>
        <time>2022-06-26T05:46:54Z</time>
      </trkpt>
      <trkpt lat="45.97992" lon="4.58545">
        <ele>544.4</ele>
        <time>2022-06-26T05:46:55Z</time>
      </trkpt>
      <trkpt lat="45.9799" lon="4.58544">
        <ele>544.8</ele>
        <time>2022-06-26T05:46:56Z</time>
      </trkpt>
      <trkpt lat="45.97988" lon="4.58545">
        <ele>544.8</ele>
        <time>2022-06-26T05:46:57Z</time>
      </trkpt>
      <trkpt lat="45.97986" lon="4.58545">
        <ele>544.8</ele>
        <time>2022-06-26T05:46:58Z</time>
      </trkpt>
      <trkpt lat="45.97983" lon="4.58545">
        <ele>545.2</ele>
        <time>2022-06-26T05:46:59Z</time>
      </trkpt>
      <trkpt lat="45.97981" lon="4.58546">
        <ele>545.2</ele>
        <time>2022-06-26T05:47:00Z</time>
      </trkpt>
      <trkpt lat="45.97979" lon="4.58546">
        <ele>545.2</ele>
        <time>2022-06-26T05:47:01Z</time>
      </trkpt>
      <trkpt lat="45.97977" lon="4.58547">
        <ele>545.2</ele>
        <time>2022-06-26T05:47:02Z</time>
      </trkpt>
      <trkpt lat="45.97974" lon="4.58547">
        <ele>545.4</ele>
        <time>2022-06-26T05:47:03Z</time>
      </trkpt>
      <trkpt lat="45.97972" lon="4.58547">
        <ele>545.4</ele>
        <time>2022-06-26T05:47:04Z</time>
      </trkpt>
      <trkpt lat="45.9797" lon="4.58548">
        <ele>545.4</ele>
        <time>2022-06-26T05:47:05Z</time>
      </trkpt>
      <trkpt lat="45.97968" lon="4.58548">
        <ele>545.8</ele>
        <time>2022-06-26T05:47:06Z</time>
      </trkpt>
      <trkpt lat="45.97965" lon="4.58547">
        <ele>546.2</ele>
        <time>2022-06-26T05:47:07Z</time>
      </trkpt>
      <trkpt lat="45.97963" lon="4.58547">
        <ele>546.4</ele>
        <time>2022-06-26T05:47:08Z</time>
      </trkpt>
      <trkpt lat="45.97961" lon="4.58547">
        <ele>546.4</ele>
        <time>2022-06-26T05:47:09Z</time>
      </trkpt>
      <trkpt lat="45.97959" lon="4.58547">
        <ele>546.6</ele>
        <time>2022-06-26T05:47:10Z</time>
      </trkpt>
      <trkpt lat="45.97956" lon="4.58546">
        <ele>546.6</ele>
        <time>2022-06-26T05:47:11Z</time>
      </trkpt>
      <trkpt lat="45.97954" lon="4.58547">
        <ele>546.6</ele>
        <time>2022-06-26T05:47:12Z</time>
      </trkpt>
      <trkpt lat="45.97952" lon="4.58547">
        <ele>546.6</ele>
        <time>2022-06-26T05:47:13Z</time>
      </trkpt>
      <trkpt lat="45.9795" lon="4.58547">
        <ele>547</ele>
        <time>2022-06-26T05:47:14Z</time>
      </trkpt>
      <trkpt lat="45.97947" lon="4.58547">
        <ele>547</ele>
        <time>2022-06-26T05:47:15Z</time>
      </trkpt>
      <trkpt lat="45.97945" lon="4.58547">
        <ele>547.4</ele>
        <time>2022-06-26T05:47:16Z</time>
      </trkpt>
      <trkpt lat="45.97943" lon="4.58547">
        <ele>547.4</ele>
        <time>2022-06-26T05:47:17Z</time>
      </trkpt>
      <trkpt lat="45.97941" lon="4.58547">
        <ele>547.6</ele>
        <time>2022-06-26T05:47:18Z</time>
      </trkpt>
      <trkpt lat="45.97938" lon="4.58547">
        <ele>547.6</ele>
        <time>2022-06-26T05:47:19Z</time>
      </trkpt>
      <trkpt lat="45.97936" lon="4.58547">
        <ele>547.8</ele>
        <time>2022-06-26T05:47:20Z</time>
      </trkpt>
      <trkpt lat="45.97934" lon="4.58547">
        <ele>547.8</ele>
        <time>2022-06-26T05:47:21Z</time>
      </trkpt>
      <trkpt lat="45.97931" lon="4.58547">
        <ele>548.2</ele>
        <time>2022-06-26T05:47:22Z</time>
      </trkpt>
      <trkpt lat="45.97929" lon="4.58548">
        <ele>548.2</ele>
        <time>2022-06-26T05:47:23Z</time>
      </trkpt>
      <trkpt lat="45.97927" lon="4.58548">
        <ele>548.4</ele>
        <time>2022-06-26T05:47:24Z</time>
      </trkpt>
      <trkpt lat="45.97924" lon="4.58548">
        <ele>548.4</ele>
        <time>2022-06-26T05:47:25Z</time>
      </trkpt>
      <trkpt lat="45.97922" lon="4.58548">
        <ele>548.6</ele>
        <time>2022-06-26T05:47:26Z</time>
      </trkpt>
      <trkpt lat="45.9792" lon="4.58548">
        <ele>548.6</ele>
        <time>2022-06-26T05:47:27Z</time>
      </trkpt>
      <trkpt lat="45.97917" lon="4.58548">
        <ele>549</ele>
        <time>2022-06-26T05:47:28Z</time>
      </trkpt>
      <trkpt lat="45.97915" lon="4.58548">
        <ele>549</ele>
        <time>2022-06-26T05:47:29Z</time>
      </trkpt>
      <trkpt lat="45.97913" lon="4.58549">
        <ele>549</ele>
        <time>2022-06-26T05:47:30Z</time>
      </trkpt>
      <trkpt lat="45.9791" lon="4.58549">
        <ele>549.4</ele>
        <time>2022-06-26T05:47:31Z</time>
      </trkpt>
      <trkpt lat="45.97908" lon="4.58549">
        <ele>549.4</ele>
        <time>2022-06-26T05:47:32Z</time>
      </trkpt>
      <trkpt lat="45.97905" lon="4.58549">
        <ele>549.8</ele>
        <time>2022-06-26T05:47:33Z</time>
      </trkpt>
      <trkpt lat="45.97903" lon="4.58549">
        <ele>549.8</ele>
        <time>2022-06-26T05:47:34Z</time>
      </trkpt>
      <trkpt lat="45.979" lon="4.58549">
        <ele>550</ele>
        <time>2022-06-26T05:47:35Z</time>
      </trkpt>
      <trkpt lat="45.97898" lon="4.58549">
        <ele>550</ele>
        <time>2022-06-26T05:47:36Z</time>
      </trkpt>
      <trkpt lat="45.97895" lon="4.58549">
        <ele>550.2</ele>
        <time>2022-06-26T05:47:37Z</time>
      </trkpt>
      <trkpt lat="45.97893" lon="4.58549">
        <ele>550.2</ele>
        <time>2022-06-26T05:47:38Z</time>
      </trkpt>
      <trkpt lat="45.9789" lon="4.58549">
        <ele>550.4</ele>
        <time>2022-06-26T05:47:39Z</time>
      </trkpt>
      <trkpt lat="45.97888" lon="4.5855">
        <ele>550.4</ele>
        <time>2022-06-26T05:47:40Z</time>
      </trkpt>
      <trkpt lat="45.97886" lon="4.5855">
        <ele>551</ele>
        <time>2022-06-26T05:47:41Z</time>
      </trkpt>
      <trkpt lat="45.97883" lon="4.5855">
        <ele>551</ele>
        <time>2022-06-26T05:47:42Z</time>
      </trkpt>
      <trkpt lat="45.97881" lon="4.5855">
        <ele>551</ele>
        <time>2022-06-26T05:47:43Z</time>
      </trkpt>
      <trkpt lat="45.97879" lon="4.5855">
        <ele>551.2</ele>
        <time>2022-06-26T05:47:44Z</time>
      </trkpt>
      <trkpt lat="45.97876" lon="4.5855">
        <ele>551.6</ele>
        <time>2022-06-26T05:47:45Z</time>
      </trkpt>
      <trkpt lat="45.97874" lon="4.58551">
        <ele>551.6</ele>
        <time>2022-06-26T05:47:46Z</time>
      </trkpt>
      <trkpt lat="45.9787" lon="4.58551">
        <ele>551.8</ele>
        <time>2022-06-26T05:47:47Z</time>
      </trkpt>
      <trkpt lat="45.97867" lon="4.58551">
        <ele>552.2</ele>
        <time>2022-06-26T05:47:48Z</time>
      </trkpt>
      <trkpt lat="45.97865" lon="4.58551">
        <ele>552.2</ele>
        <time>2022-06-26T05:47:49Z</time>
      </trkpt>
      <trkpt lat="45.97863" lon="4.58551">
        <ele>552.6</ele>
        <time>2022-06-26T05:47:50Z</time>
      </trkpt>
      <trkpt lat="45.9786" lon="4.58551">
        <ele>552.8</ele>
        <time>2022-06-26T05:47:52Z</time>
      </trkpt>
      <trkpt lat="45.97858" lon="4.58551">
        <ele>552.8</ele>
        <time>2022-06-26T05:47:53Z</time>
      </trkpt>
      <trkpt lat="45.97856" lon="4.58551">
        <ele>552.8</ele>
        <time>2022-06-26T05:47:54Z</time>
      </trkpt>
      <trkpt lat="45.97854" lon="4.58551">
        <ele>553</ele>
        <time>2022-06-26T05:47:55Z</time>
      </trkpt>
      <trkpt lat="45.97851" lon="4.5855">
        <ele>553.4</ele>
        <time>2022-06-26T05:47:56Z</time>
      </trkpt>
      <trkpt lat="45.97849" lon="4.5855">
        <ele>553.4</ele>
        <time>2022-06-26T05:47:57Z</time>
      </trkpt>
      <trkpt lat="45.97847" lon="4.58549">
        <ele>553.6</ele>
        <time>2022-06-26T05:47:58Z</time>
      </trkpt>
      <trkpt lat="45.97845" lon="4.58547">
        <ele>553.6</ele>
        <time>2022-06-26T05:47:59Z</time>
      </trkpt>
      <trkpt lat="45.97843" lon="4.58546">
        <ele>553.8</ele>
        <time>2022-06-26T05:48:00Z</time>
      </trkpt>
      <trkpt lat="45.97841" lon="4.58545">
        <ele>554</ele>
        <time>2022-06-26T05:48:01Z</time>
      </trkpt>
      <trkpt lat="45.97838" lon="4.58541">
        <ele>554.6</ele>
        <time>2022-06-26T05:48:02Z</time>
      </trkpt>
      <trkpt lat="45.97836" lon="4.58539">
        <ele>554.6</ele>
        <time>2022-06-26T05:48:03Z</time>
      </trkpt>
      <trkpt lat="45.97834" lon="4.58537">
        <ele>554.8</ele>
        <time>2022-06-26T05:48:04Z</time>
      </trkpt>
      <trkpt lat="45.97833" lon="4.58535">
        <ele>554.8</ele>
        <time>2022-06-26T05:48:05Z</time>
      </trkpt>
      <trkpt lat="45.97832" lon="4.58533">
        <ele>555.2</ele>
        <time>2022-06-26T05:48:06Z</time>
      </trkpt>
      <trkpt lat="45.97831" lon="4.58531">
        <ele>555.2</ele>
        <time>2022-06-26T05:48:07Z</time>
      </trkpt>
      <trkpt lat="45.9783" lon="4.58528">
        <ele>555.4</ele>
        <time>2022-06-26T05:48:08Z</time>
      </trkpt>
      <trkpt lat="45.97829" lon="4.58525">
        <ele>555.4</ele>
        <time>2022-06-26T05:48:09Z</time>
      </trkpt>
      <trkpt lat="45.97828" lon="4.58523">
        <ele>555.6</ele>
        <time>2022-06-26T05:48:10Z</time>
      </trkpt>
      <trkpt lat="45.97828" lon="4.5852">
        <ele>555.6</ele>
        <time>2022-06-26T05:48:11Z</time>
      </trkpt>
      <trkpt lat="45.97827" lon="4.58517">
        <ele>555.6</ele>
        <time>2022-06-26T05:48:12Z</time>
      </trkpt>
      <trkpt lat="45.97827" lon="4.58514">
        <ele>556</ele>
        <time>2022-06-26T05:48:13Z</time>
      </trkpt>
      <trkpt lat="45.97826" lon="4.58511">
        <ele>556</ele>
        <time>2022-06-26T05:48:14Z</time>
      </trkpt>
      <trkpt lat="45.97826" lon="4.58508">
        <ele>556.2</ele>
        <time>2022-06-26T05:48:15Z</time>
      </trkpt>
      <trkpt lat="45.97825" lon="4.58504">
        <ele>556.2</ele>
        <time>2022-06-26T05:48:16Z</time>
      </trkpt>
      <trkpt lat="45.97825" lon="4.58501">
        <ele>556.6</ele>
        <time>2022-06-26T05:48:17Z</time>
      </trkpt>
      <trkpt lat="45.97825" lon="4.58498">
        <ele>556.6</ele>
        <time>2022-06-26T05:48:18Z</time>
      </trkpt>
      <trkpt lat="45.97825" lon="4.58495">
        <ele>556.8</ele>
        <time>2022-06-26T05:48:19Z</time>
      </trkpt>
      <trkpt lat="45.97825" lon="4.58492">
        <ele>556.8</ele>
        <time>2022-06-26T05:48:20Z</time>
      </trkpt>
      <trkpt lat="45.97825" lon="4.58488">
        <ele>557.2</ele>
        <time>2022-06-26T05:48:21Z</time>
      </trkpt>
      <trkpt lat="45.97825" lon="4.58485">
        <ele>557.2</ele>
        <time>2022-06-26T05:48:22Z</time>
      </trkpt>
      <trkpt lat="45.97825" lon="4.58482">
        <ele>557.4</ele>
        <time>2022-06-26T05:48:23Z</time>
      </trkpt>
      <trkpt lat="45.97825" lon="4.58479">
        <ele>557.4</ele>
        <time>2022-06-26T05:48:24Z</time>
      </trkpt>
      <trkpt lat="45.97825" lon="4.58476">
        <ele>557.4</ele>
        <time>2022-06-26T05:48:25Z</time>
      </trkpt>
      <trkpt lat="45.97825" lon="4.58473">
        <ele>557.6</ele>
        <time>2022-06-26T05:48:26Z</time>
      </trkpt>
      <trkpt lat="45.97825" lon="4.5847">
        <ele>557.6</ele>
        <time>2022-06-26T05:48:27Z</time>
      </trkpt>
      <trkpt lat="45.97824" lon="4.58467">
        <ele>558</ele>
        <time>2022-06-26T05:48:28Z</time>
      </trkpt>
      <trkpt lat="45.97824" lon="4.58464">
        <ele>558</ele>
        <time>2022-06-26T05:48:29Z</time>
      </trkpt>
      <trkpt lat="45.97824" lon="4.58461">
        <ele>558.4</ele>
        <time>2022-06-26T05:48:30Z</time>
      </trkpt>
      <trkpt lat="45.97824" lon="4.58458">
        <ele>558.4</ele>
        <time>2022-06-26T05:48:31Z</time>
      </trkpt>
      <trkpt lat="45.97824" lon="4.58455">
        <ele>558.8</ele>
        <time>2022-06-26T05:48:32Z</time>
      </trkpt>
      <trkpt lat="45.97824" lon="4.58452">
        <ele>558.8</ele>
        <time>2022-06-26T05:48:33Z</time>
      </trkpt>
      <trkpt lat="45.97824" lon="4.58449">
        <ele>559</ele>
        <time>2022-06-26T05:48:34Z</time>
      </trkpt>
      <trkpt lat="45.97824" lon="4.58446">
        <ele>559</ele>
        <time>2022-06-26T05:48:35Z</time>
      </trkpt>
      <trkpt lat="45.97824" lon="4.58443">
        <ele>559.4</ele>
        <time>2022-06-26T05:48:36Z</time>
      </trkpt>
      <trkpt lat="45.97823" lon="4.58439">
        <ele>559.4</ele>
        <time>2022-06-26T05:48:37Z</time>
      </trkpt>
      <trkpt lat="45.97823" lon="4.58436">
        <ele>559.6</ele>
        <time>2022-06-26T05:48:38Z</time>
      </trkpt>
      <trkpt lat="45.97823" lon="4.58433">
        <ele>559.6</ele>
        <time>2022-06-26T05:48:39Z</time>
      </trkpt>
      <trkpt lat="45.97823" lon="4.5843">
        <ele>559.8</ele>
        <time>2022-06-26T05:48:40Z</time>
      </trkpt>
      <trkpt lat="45.97823" lon="4.58427">
        <ele>559.8</ele>
        <time>2022-06-26T05:48:41Z</time>
      </trkpt>
      <trkpt lat="45.97823" lon="4.58424">
        <ele>560.2</ele>
        <time>2022-06-26T05:48:42Z</time>
      </trkpt>
      <trkpt lat="45.97823" lon="4.5842">
        <ele>560.2</ele>
        <time>2022-06-26T05:48:43Z</time>
      </trkpt>
      <trkpt lat="45.97823" lon="4.58417">
        <ele>560.4</ele>
        <time>2022-06-26T05:48:44Z</time>
      </trkpt>
      <trkpt lat="45.97823" lon="4.58414">
        <ele>560.4</ele>
        <time>2022-06-26T05:48:45Z</time>
      </trkpt>
      <trkpt lat="45.97823" lon="4.58411">
        <ele>560.8</ele>
        <time>2022-06-26T05:48:46Z</time>
      </trkpt>
      <trkpt lat="45.97823" lon="4.58408">
        <ele>560.8</ele>
        <time>2022-06-26T05:48:47Z</time>
      </trkpt>
      <trkpt lat="45.97823" lon="4.58405">
        <ele>561</ele>
        <time>2022-06-26T05:48:48Z</time>
      </trkpt>
      <trkpt lat="45.97823" lon="4.58402">
        <ele>561</ele>
        <time>2022-06-26T05:48:49Z</time>
      </trkpt>
      <trkpt lat="45.97823" lon="4.58399">
        <ele>561.2</ele>
        <time>2022-06-26T05:48:50Z</time>
      </trkpt>
      <trkpt lat="45.97823" lon="4.58396">
        <ele>561.2</ele>
        <time>2022-06-26T05:48:51Z</time>
      </trkpt>
      <trkpt lat="45.97824" lon="4.58393">
        <ele>561.6</ele>
        <time>2022-06-26T05:48:52Z</time>
      </trkpt>
      <trkpt lat="45.97825" lon="4.58389">
        <ele>561.6</ele>
        <time>2022-06-26T05:48:53Z</time>
      </trkpt>
      <trkpt lat="45.97825" lon="4.58386">
        <ele>561.6</ele>
        <time>2022-06-26T05:48:54Z</time>
      </trkpt>
      <trkpt lat="45.97825" lon="4.58383">
        <ele>561.8</ele>
        <time>2022-06-26T05:48:55Z</time>
      </trkpt>
      <trkpt lat="45.97826" lon="4.5838">
        <ele>561.8</ele>
        <time>2022-06-26T05:48:56Z</time>
      </trkpt>
      <trkpt lat="45.97826" lon="4.58376">
        <ele>561.8</ele>
        <time>2022-06-26T05:48:57Z</time>
      </trkpt>
      <trkpt lat="45.97826" lon="4.58373">
        <ele>561.8</ele>
        <time>2022-06-26T05:48:58Z</time>
      </trkpt>
      <trkpt lat="45.97825" lon="4.5837">
        <ele>562.2</ele>
        <time>2022-06-26T05:48:59Z</time>
      </trkpt>
      <trkpt lat="45.97825" lon="4.58367">
        <ele>562.2</ele>
        <time>2022-06-26T05:49:00Z</time>
      </trkpt>
      <trkpt lat="45.97825" lon="4.58364">
        <ele>562.2</ele>
        <time>2022-06-26T05:49:01Z</time>
      </trkpt>
      <trkpt lat="45.97825" lon="4.58361">
        <ele>562.2</ele>
        <time>2022-06-26T05:49:02Z</time>
      </trkpt>
      <trkpt lat="45.97825" lon="4.58358">
        <ele>562.4</ele>
        <time>2022-06-26T05:49:03Z</time>
      </trkpt>
      <trkpt lat="45.97825" lon="4.58355">
        <ele>562.4</ele>
        <time>2022-06-26T05:49:04Z</time>
      </trkpt>
      <trkpt lat="45.97824" lon="4.58352">
        <ele>562.4</ele>
        <time>2022-06-26T05:49:05Z</time>
      </trkpt>
      <trkpt lat="45.97823" lon="4.5835">
        <ele>562.6</ele>
        <time>2022-06-26T05:49:06Z</time>
      </trkpt>
      <trkpt lat="45.97821" lon="4.58348">
        <ele>562.6</ele>
        <time>2022-06-26T05:49:07Z</time>
      </trkpt>
      <trkpt lat="45.9782" lon="4.58347">
        <ele>562.6</ele>
        <time>2022-06-26T05:49:08Z</time>
      </trkpt>
      <trkpt lat="45.97818" lon="4.58346">
        <ele>562.6</ele>
        <time>2022-06-26T05:49:09Z</time>
      </trkpt>
      <trkpt lat="45.97816" lon="4.58346">
        <ele>562.8</ele>
        <time>2022-06-26T05:49:10Z</time>
      </trkpt>
      <trkpt lat="45.97814" lon="4.58347">
        <ele>562.8</ele>
        <time>2022-06-26T05:49:11Z</time>
      </trkpt>
      <trkpt lat="45.97812" lon="4.58349">
        <ele>562.8</ele>
        <time>2022-06-26T05:49:12Z</time>
      </trkpt>
      <trkpt lat="45.97811" lon="4.58352">
        <ele>562.8</ele>
        <time>2022-06-26T05:49:13Z</time>
      </trkpt>
      <trkpt lat="45.9781" lon="4.58355">
        <ele>562.8</ele>
        <time>2022-06-26T05:49:14Z</time>
      </trkpt>
      <trkpt lat="45.97809" lon="4.58358">
        <ele>562.8</ele>
        <time>2022-06-26T05:49:15Z</time>
      </trkpt>
      <trkpt lat="45.97808" lon="4.58362">
        <ele>562.8</ele>
        <time>2022-06-26T05:49:16Z</time>
      </trkpt>
      <trkpt lat="45.97807" lon="4.58364">
        <ele>562.8</ele>
        <time>2022-06-26T05:49:17Z</time>
      </trkpt>
      <trkpt lat="45.97806" lon="4.58366">
        <ele>562.8</ele>
        <time>2022-06-26T05:49:18Z</time>
      </trkpt>
      <trkpt lat="45.97807" lon="4.58368">
        <ele>562.8</ele>
        <time>2022-06-26T05:49:19Z</time>
      </trkpt>
      <trkpt lat="45.97808" lon="4.58369">
        <ele>562.8</ele>
        <time>2022-06-26T05:49:20Z</time>
      </trkpt>
      <trkpt lat="45.97809" lon="4.58368">
        <ele>562.8</ele>
        <time>2022-06-26T05:49:21Z</time>
      </trkpt>
      <trkpt lat="45.9781" lon="4.58362">
        <ele>562.8</ele>
        <time>2022-06-26T05:49:24Z</time>
      </trkpt>
      <trkpt lat="45.97811" lon="4.58359">
        <ele>562.8</ele>
        <time>2022-06-26T05:49:25Z</time>
      </trkpt>
      <trkpt lat="45.97811" lon="4.58356">
        <ele>562.8</ele>
        <time>2022-06-26T05:49:26Z</time>
      </trkpt>
      <trkpt lat="45.97811" lon="4.58352">
        <ele>562.8</ele>
        <time>2022-06-26T05:49:27Z</time>
      </trkpt>
      <trkpt lat="45.97811" lon="4.58348">
        <ele>562.8</ele>
        <time>2022-06-26T05:49:28Z</time>
      </trkpt>
      <trkpt lat="45.97811" lon="4.58344">
        <ele>562.8</ele>
        <time>2022-06-26T05:49:29Z</time>
      </trkpt>
      <trkpt lat="45.97811" lon="4.5834">
        <ele>562.8</ele>
        <time>2022-06-26T05:49:30Z</time>
      </trkpt>
      <trkpt lat="45.97811" lon="4.58335">
        <ele>562.8</ele>
        <time>2022-06-26T05:49:31Z</time>
      </trkpt>
      <trkpt lat="45.97811" lon="4.58331">
        <ele>562.8</ele>
        <time>2022-06-26T05:49:32Z</time>
      </trkpt>
      <trkpt lat="45.97811" lon="4.58326">
        <ele>562.8</ele>
        <time>2022-06-26T05:49:33Z</time>
      </trkpt>
      <trkpt lat="45.97811" lon="4.58322">
        <ele>562.8</ele>
        <time>2022-06-26T05:49:34Z</time>
      </trkpt>
      <trkpt lat="45.9781" lon="4.58318">
        <ele>562.8</ele>
        <time>2022-06-26T05:49:35Z</time>
      </trkpt>
      <trkpt lat="45.9781" lon="4.58314">
        <ele>562.8</ele>
        <time>2022-06-26T05:49:36Z</time>
      </trkpt>
      <trkpt lat="45.97809" lon="4.5831">
        <ele>562.8</ele>
        <time>2022-06-26T05:49:37Z</time>
      </trkpt>
      <trkpt lat="45.97808" lon="4.58306">
        <ele>562.8</ele>
        <time>2022-06-26T05:49:38Z</time>
      </trkpt>
      <trkpt lat="45.97806" lon="4.58301">
        <ele>562.8</ele>
        <time>2022-06-26T05:49:39Z</time>
      </trkpt>
      <trkpt lat="45.97805" lon="4.58297">
        <ele>562.8</ele>
        <time>2022-06-26T05:49:40Z</time>
      </trkpt>
      <trkpt lat="45.97804" lon="4.58292">
        <ele>562.8</ele>
        <time>2022-06-26T05:49:41Z</time>
      </trkpt>
      <trkpt lat="45.97802" lon="4.58288">
        <ele>562.8</ele>
        <time>2022-06-26T05:49:42Z</time>
      </trkpt>
      <trkpt lat="45.978" lon="4.58285">
        <ele>562.8</ele>
        <time>2022-06-26T05:49:43Z</time>
      </trkpt>
      <trkpt lat="45.97798" lon="4.58281">
        <ele>563</ele>
        <time>2022-06-26T05:49:44Z</time>
      </trkpt>
      <trkpt lat="45.97796" lon="4.58277">
        <ele>563</ele>
        <time>2022-06-26T05:49:45Z</time>
      </trkpt>
      <trkpt lat="45.97794" lon="4.58274">
        <ele>563</ele>
        <time>2022-06-26T05:49:46Z</time>
      </trkpt>
      <trkpt lat="45.97792" lon="4.5827">
        <ele>563</ele>
        <time>2022-06-26T05:49:47Z</time>
      </trkpt>
      <trkpt lat="45.9779" lon="4.58267">
        <ele>563</ele>
        <time>2022-06-26T05:49:48Z</time>
      </trkpt>
      <trkpt lat="45.97787" lon="4.58263">
        <ele>563</ele>
        <time>2022-06-26T05:49:49Z</time>
      </trkpt>
      <trkpt lat="45.97785" lon="4.58259">
        <ele>563</ele>
        <time>2022-06-26T05:49:51Z</time>
      </trkpt>
      <trkpt lat="45.97782" lon="4.58255">
        <ele>563</ele>
        <time>2022-06-26T05:49:52Z</time>
      </trkpt>
      <trkpt lat="45.9778" lon="4.58252">
        <ele>563</ele>
        <time>2022-06-26T05:49:53Z</time>
      </trkpt>
      <trkpt lat="45.97777" lon="4.58249">
        <ele>563</ele>
        <time>2022-06-26T05:49:54Z</time>
      </trkpt>
      <trkpt lat="45.97774" lon="4.58246">
        <ele>563</ele>
        <time>2022-06-26T05:49:55Z</time>
      </trkpt>
      <trkpt lat="45.9777" lon="4.58242">
        <ele>563</ele>
        <time>2022-06-26T05:49:56Z</time>
      </trkpt>
      <trkpt lat="45.97767" lon="4.58238">
        <ele>563</ele>
        <time>2022-06-26T05:49:57Z</time>
      </trkpt>
      <trkpt lat="45.97764" lon="4.58235">
        <ele>563</ele>
        <time>2022-06-26T05:49:58Z</time>
      </trkpt>
      <trkpt lat="45.9776" lon="4.58231">
        <ele>563</ele>
        <time>2022-06-26T05:49:59Z</time>
      </trkpt>
      <trkpt lat="45.97757" lon="4.58227">
        <ele>563</ele>
        <time>2022-06-26T05:50:00Z</time>
      </trkpt>
      <trkpt lat="45.97753" lon="4.58224">
        <ele>563</ele>
        <time>2022-06-26T05:50:01Z</time>
      </trkpt>
      <trkpt lat="45.97748" lon="4.5822">
        <ele>563</ele>
        <time>2022-06-26T05:50:02Z</time>
      </trkpt>
      <trkpt lat="45.97744" lon="4.58217">
        <ele>563</ele>
        <time>2022-06-26T05:50:03Z</time>
      </trkpt>
      <trkpt lat="45.97739" lon="4.58214">
        <ele>562.8</ele>
        <time>2022-06-26T05:50:04Z</time>
      </trkpt>
      <trkpt lat="45.97734" lon="4.58211">
        <ele>562.8</ele>
        <time>2022-06-26T05:50:05Z</time>
      </trkpt>
      <trkpt lat="45.97728" lon="4.58208">
        <ele>562.6</ele>
        <time>2022-06-26T05:50:06Z</time>
      </trkpt>
      <trkpt lat="45.97723" lon="4.58205">
        <ele>562.6</ele>
        <time>2022-06-26T05:50:07Z</time>
      </trkpt>
      <trkpt lat="45.97717" lon="4.58202">
        <ele>562.6</ele>
        <time>2022-06-26T05:50:08Z</time>
      </trkpt>
      <trkpt lat="45.97711" lon="4.58199">
        <ele>562.2</ele>
        <time>2022-06-26T05:50:09Z</time>
      </trkpt>
      <trkpt lat="45.97705" lon="4.58196">
        <ele>562.2</ele>
        <time>2022-06-26T05:50:10Z</time>
      </trkpt>
      <trkpt lat="45.97698" lon="4.58193">
        <ele>561.8</ele>
        <time>2022-06-26T05:50:11Z</time>
      </trkpt>
      <trkpt lat="45.97692" lon="4.5819">
        <ele>561.8</ele>
        <time>2022-06-26T05:50:12Z</time>
      </trkpt>
      <trkpt lat="45.97685" lon="4.58187">
        <ele>561.8</ele>
        <time>2022-06-26T05:50:13Z</time>
      </trkpt>
      <trkpt lat="45.97679" lon="4.58185">
        <ele>561.6</ele>
        <time>2022-06-26T05:50:14Z</time>
      </trkpt>
      <trkpt lat="45.97672" lon="4.58183">
        <ele>561.6</ele>
        <time>2022-06-26T05:50:15Z</time>
      </trkpt>
      <trkpt lat="45.97665" lon="4.5818">
        <ele>561.4</ele>
        <time>2022-06-26T05:50:16Z</time>
      </trkpt>
      <trkpt lat="45.97658" lon="4.58178">
        <ele>561.4</ele>
        <time>2022-06-26T05:50:17Z</time>
      </trkpt>
      <trkpt lat="45.97651" lon="4.58176">
        <ele>561.4</ele>
        <time>2022-06-26T05:50:18Z</time>
      </trkpt>
      <trkpt lat="45.97644" lon="4.58175">
        <ele>561</ele>
        <time>2022-06-26T05:50:19Z</time>
      </trkpt>
      <trkpt lat="45.97638" lon="4.58173">
        <ele>561</ele>
        <time>2022-06-26T05:50:20Z</time>
      </trkpt>
      <trkpt lat="45.97631" lon="4.58171">
        <ele>560.8</ele>
        <time>2022-06-26T05:50:21Z</time>
      </trkpt>
      <trkpt lat="45.97624" lon="4.5817">
        <ele>560.8</ele>
        <time>2022-06-26T05:50:22Z</time>
      </trkpt>
      <trkpt lat="45.97616" lon="4.58168">
        <ele>560.8</ele>
        <time>2022-06-26T05:50:23Z</time>
      </trkpt>
      <trkpt lat="45.97609" lon="4.58168">
        <ele>560.8</ele>
        <time>2022-06-26T05:50:24Z</time>
      </trkpt>
      <trkpt lat="45.97602" lon="4.58167">
        <ele>560.8</ele>
        <time>2022-06-26T05:50:25Z</time>
      </trkpt>
      <trkpt lat="45.97594" lon="4.58166">
        <ele>560.8</ele>
        <time>2022-06-26T05:50:26Z</time>
      </trkpt>
      <trkpt lat="45.97587" lon="4.58165">
        <ele>560.4</ele>
        <time>2022-06-26T05:50:27Z</time>
      </trkpt>
      <trkpt lat="45.97579" lon="4.58165">
        <ele>560.2</ele>
        <time>2022-06-26T05:50:28Z</time>
      </trkpt>
      <trkpt lat="45.97572" lon="4.58164">
        <ele>560</ele>
        <time>2022-06-26T05:50:29Z</time>
      </trkpt>
      <trkpt lat="45.97564" lon="4.58163">
        <ele>559.6</ele>
        <time>2022-06-26T05:50:30Z</time>
      </trkpt>
      <trkpt lat="45.97556" lon="4.58162">
        <ele>559.4</ele>
        <time>2022-06-26T05:50:31Z</time>
      </trkpt>
      <trkpt lat="45.97548" lon="4.5816">
        <ele>559.2</ele>
        <time>2022-06-26T05:50:32Z</time>
      </trkpt>
      <trkpt lat="45.9754" lon="4.58158">
        <ele>559.2</ele>
        <time>2022-06-26T05:50:33Z</time>
      </trkpt>
      <trkpt lat="45.97532" lon="4.58156">
        <ele>559</ele>
        <time>2022-06-26T05:50:34Z</time>
      </trkpt>
      <trkpt lat="45.97524" lon="4.58152">
        <ele>559</ele>
        <time>2022-06-26T05:50:35Z</time>
      </trkpt>
      <trkpt lat="45.97516" lon="4.58149">
        <ele>558.6</ele>
        <time>2022-06-26T05:50:36Z</time>
      </trkpt>
      <trkpt lat="45.97508" lon="4.58145">
        <ele>558.4</ele>
        <time>2022-06-26T05:50:37Z</time>
      </trkpt>
      <trkpt lat="45.97501" lon="4.58141">
        <ele>558</ele>
        <time>2022-06-26T05:50:38Z</time>
      </trkpt>
      <trkpt lat="45.97493" lon="4.58137">
        <ele>558</ele>
        <time>2022-06-26T05:50:39Z</time>
      </trkpt>
      <trkpt lat="45.97485" lon="4.58133">
        <ele>557.8</ele>
        <time>2022-06-26T05:50:40Z</time>
      </trkpt>
      <trkpt lat="45.97478" lon="4.58129">
        <ele>557.8</ele>
        <time>2022-06-26T05:50:41Z</time>
      </trkpt>
      <trkpt lat="45.97471" lon="4.58124">
        <ele>557.8</ele>
        <time>2022-06-26T05:50:42Z</time>
      </trkpt>
      <trkpt lat="45.97463" lon="4.58119">
        <ele>557.6</ele>
        <time>2022-06-26T05:50:43Z</time>
      </trkpt>
      <trkpt lat="45.97456" lon="4.58114">
        <ele>557.6</ele>
        <time>2022-06-26T05:50:44Z</time>
      </trkpt>
      <trkpt lat="45.9745" lon="4.58108">
        <ele>557.2</ele>
        <time>2022-06-26T05:50:45Z</time>
      </trkpt>
      <trkpt lat="45.97443" lon="4.58102">
        <ele>557.2</ele>
        <time>2022-06-26T05:50:46Z</time>
      </trkpt>
      <trkpt lat="45.97437" lon="4.58096">
        <ele>557</ele>
        <time>2022-06-26T05:50:47Z</time>
      </trkpt>
      <trkpt lat="45.97431" lon="4.58089">
        <ele>557</ele>
        <time>2022-06-26T05:50:48Z</time>
      </trkpt>
      <trkpt lat="45.97425" lon="4.58082">
        <ele>556.8</ele>
        <time>2022-06-26T05:50:49Z</time>
      </trkpt>
      <trkpt lat="45.97419" lon="4.58076">
        <ele>556.8</ele>
        <time>2022-06-26T05:50:50Z</time>
      </trkpt>
      <trkpt lat="45.97413" lon="4.58069">
        <ele>556.8</ele>
        <time>2022-06-26T05:50:51Z</time>
      </trkpt>
      <trkpt lat="45.97407" lon="4.58063">
        <ele>556.8</ele>
        <time>2022-06-26T05:50:52Z</time>
      </trkpt>
      <trkpt lat="45.97401" lon="4.58058">
        <ele>556.8</ele>
        <time>2022-06-26T05:50:53Z</time>
      </trkpt>
      <trkpt lat="45.97394" lon="4.58054">
        <ele>556.8</ele>
        <time>2022-06-26T05:50:54Z</time>
      </trkpt>
      <trkpt lat="45.97387" lon="4.58051">
        <ele>556.4</ele>
        <time>2022-06-26T05:50:55Z</time>
      </trkpt>
      <trkpt lat="45.9738" lon="4.58049">
        <ele>556.4</ele>
        <time>2022-06-26T05:50:56Z</time>
      </trkpt>
      <trkpt lat="45.97372" lon="4.58048">
        <ele>556.4</ele>
        <time>2022-06-26T05:50:57Z</time>
      </trkpt>
      <trkpt lat="45.97365" lon="4.58049">
        <ele>556.4</ele>
        <time>2022-06-26T05:50:58Z</time>
      </trkpt>
      <trkpt lat="45.97358" lon="4.58051">
        <ele>556.2</ele>
        <time>2022-06-26T05:50:59Z</time>
      </trkpt>
      <trkpt lat="45.97351" lon="4.58054">
        <ele>556</ele>
        <time>2022-06-26T05:51:00Z</time>
      </trkpt>
      <trkpt lat="45.97344" lon="4.58058">
        <ele>556</ele>
        <time>2022-06-26T05:51:01Z</time>
      </trkpt>
      <trkpt lat="45.97337" lon="4.58062">
        <ele>555.4</ele>
        <time>2022-06-26T05:51:02Z</time>
      </trkpt>
      <trkpt lat="45.9733" lon="4.58068">
        <ele>555.4</ele>
        <time>2022-06-26T05:51:03Z</time>
      </trkpt>
      <trkpt lat="45.97324" lon="4.58073">
        <ele>555.2</ele>
        <time>2022-06-26T05:51:04Z</time>
      </trkpt>
      <trkpt lat="45.97318" lon="4.58079">
        <ele>555.2</ele>
        <time>2022-06-26T05:51:05Z</time>
      </trkpt>
      <trkpt lat="45.97312" lon="4.58085">
        <ele>555</ele>
        <time>2022-06-26T05:51:06Z</time>
      </trkpt>
      <trkpt lat="45.97306" lon="4.58091">
        <ele>555</ele>
        <time>2022-06-26T05:51:07Z</time>
      </trkpt>
      <trkpt lat="45.97299" lon="4.58096">
        <ele>555</ele>
        <time>2022-06-26T05:51:08Z</time>
      </trkpt>
      <trkpt lat="45.97292" lon="4.581">
        <ele>554.6</ele>
        <time>2022-06-26T05:51:09Z</time>
      </trkpt>
      <trkpt lat="45.97285" lon="4.58103">
        <ele>554.6</ele>
        <time>2022-06-26T05:51:10Z</time>
      </trkpt>
      <trkpt lat="45.97277" lon="4.58105">
        <ele>554.2</ele>
        <time>2022-06-26T05:51:11Z</time>
      </trkpt>
      <trkpt lat="45.97269" lon="4.58105">
        <ele>554.2</ele>
        <time>2022-06-26T05:51:12Z</time>
      </trkpt>
      <trkpt lat="45.97261" lon="4.58105">
        <ele>554</ele>
        <time>2022-06-26T05:51:13Z</time>
      </trkpt>
      <trkpt lat="45.97254" lon="4.58102">
        <ele>553.8</ele>
        <time>2022-06-26T05:51:14Z</time>
      </trkpt>
      <trkpt lat="45.97248" lon="4.58099">
        <ele>553.8</ele>
        <time>2022-06-26T05:51:15Z</time>
      </trkpt>
      <trkpt lat="45.97242" lon="4.58095">
        <ele>553.6</ele>
        <time>2022-06-26T05:51:16Z</time>
      </trkpt>
      <trkpt lat="45.97236" lon="4.58091">
        <ele>553.6</ele>
        <time>2022-06-26T05:51:17Z</time>
      </trkpt>
      <trkpt lat="45.9723" lon="4.58087">
        <ele>553.2</ele>
        <time>2022-06-26T05:51:18Z</time>
      </trkpt>
      <trkpt lat="45.97225" lon="4.58081">
        <ele>553.2</ele>
        <time>2022-06-26T05:51:19Z</time>
      </trkpt>
      <trkpt lat="45.9722" lon="4.58074">
        <ele>553.2</ele>
        <time>2022-06-26T05:51:20Z</time>
      </trkpt>
      <trkpt lat="45.97214" lon="4.58067">
        <ele>553.2</ele>
        <time>2022-06-26T05:51:21Z</time>
      </trkpt>
      <trkpt lat="45.97209" lon="4.5806">
        <ele>553</ele>
        <time>2022-06-26T05:51:22Z</time>
      </trkpt>
      <trkpt lat="45.97204" lon="4.58054">
        <ele>553</ele>
        <time>2022-06-26T05:51:23Z</time>
      </trkpt>
      <trkpt lat="45.97198" lon="4.58047">
        <ele>552.6</ele>
        <time>2022-06-26T05:51:24Z</time>
      </trkpt>
      <trkpt lat="45.97192" lon="4.5804">
        <ele>552.4</ele>
        <time>2022-06-26T05:51:25Z</time>
      </trkpt>
      <trkpt lat="45.97185" lon="4.58034">
        <ele>552.4</ele>
        <time>2022-06-26T05:51:26Z</time>
      </trkpt>
      <trkpt lat="45.97179" lon="4.58028">
        <ele>552</ele>
        <time>2022-06-26T05:51:27Z</time>
      </trkpt>
      <trkpt lat="45.97172" lon="4.58023">
        <ele>551.8</ele>
        <time>2022-06-26T05:51:28Z</time>
      </trkpt>
      <trkpt lat="45.97165" lon="4.58018">
        <ele>551.8</ele>
        <time>2022-06-26T05:51:29Z</time>
      </trkpt>
      <trkpt lat="45.97151" lon="4.5801">
        <ele>551.8</ele>
        <time>2022-06-26T05:51:30Z</time>
      </trkpt>
      <trkpt lat="45.97143" lon="4.58008">
        <ele>551.8</ele>
        <time>2022-06-26T05:51:31Z</time>
      </trkpt>
      <trkpt lat="45.97136" lon="4.58005">
        <ele>551.8</ele>
        <time>2022-06-26T05:51:32Z</time>
      </trkpt>
      <trkpt lat="45.97129" lon="4.58004">
        <ele>551.8</ele>
        <time>2022-06-26T05:51:33Z</time>
      </trkpt>
      <trkpt lat="45.97121" lon="4.58003">
        <ele>551.8</ele>
        <time>2022-06-26T05:51:34Z</time>
      </trkpt>
      <trkpt lat="45.97114" lon="4.58004">
        <ele>551.8</ele>
        <time>2022-06-26T05:51:35Z</time>
      </trkpt>
      <trkpt lat="45.97107" lon="4.58005">
        <ele>551.8</ele>
        <time>2022-06-26T05:51:36Z</time>
      </trkpt>
      <trkpt lat="45.97101" lon="4.58009">
        <ele>551.8</ele>
        <time>2022-06-26T05:51:37Z</time>
      </trkpt>
      <trkpt lat="45.97094" lon="4.58013">
        <ele>551.8</ele>
        <time>2022-06-26T05:51:38Z</time>
      </trkpt>
      <trkpt lat="45.97088" lon="4.58019">
        <ele>551.8</ele>
        <time>2022-06-26T05:51:39Z</time>
      </trkpt>
      <trkpt lat="45.97082" lon="4.58025">
        <ele>551.6</ele>
        <time>2022-06-26T05:51:40Z</time>
      </trkpt>
      <trkpt lat="45.97076" lon="4.58032">
        <ele>551.6</ele>
        <time>2022-06-26T05:51:41Z</time>
      </trkpt>
      <trkpt lat="45.97071" lon="4.5804">
        <ele>551.6</ele>
        <time>2022-06-26T05:51:42Z</time>
      </trkpt>
      <trkpt lat="45.97065" lon="4.58048">
        <ele>551.2</ele>
        <time>2022-06-26T05:51:43Z</time>
      </trkpt>
      <trkpt lat="45.9706" lon="4.58055">
        <ele>551.2</ele>
        <time>2022-06-26T05:51:44Z</time>
      </trkpt>
      <trkpt lat="45.97054" lon="4.58063">
        <ele>550.8</ele>
        <time>2022-06-26T05:51:45Z</time>
      </trkpt>
      <trkpt lat="45.97049" lon="4.58071">
        <ele>550.8</ele>
        <time>2022-06-26T05:51:46Z</time>
      </trkpt>
      <trkpt lat="45.97043" lon="4.58079">
        <ele>550.4</ele>
        <time>2022-06-26T05:51:47Z</time>
      </trkpt>
      <trkpt lat="45.97038" lon="4.58086">
        <ele>550.2</ele>
        <time>2022-06-26T05:51:48Z</time>
      </trkpt>
      <trkpt lat="45.97033" lon="4.58093">
        <ele>550.2</ele>
        <time>2022-06-26T05:51:49Z</time>
      </trkpt>
      <trkpt lat="45.97029" lon="4.58099">
        <ele>549.8</ele>
        <time>2022-06-26T05:51:50Z</time>
      </trkpt>
      <trkpt lat="45.97024" lon="4.58105">
        <ele>549.4</ele>
        <time>2022-06-26T05:51:51Z</time>
      </trkpt>
      <trkpt lat="45.97019" lon="4.58111">
        <ele>549.4</ele>
        <time>2022-06-26T05:51:52Z</time>
      </trkpt>
      <trkpt lat="45.97014" lon="4.58115">
        <ele>549.2</ele>
        <time>2022-06-26T05:51:53Z</time>
      </trkpt>
      <trkpt lat="45.97008" lon="4.58118">
        <ele>549.2</ele>
        <time>2022-06-26T05:51:54Z</time>
      </trkpt>
      <trkpt lat="45.97001" lon="4.5812">
        <ele>549</ele>
        <time>2022-06-26T05:51:55Z</time>
      </trkpt>
      <trkpt lat="45.96994" lon="4.58121">
        <ele>548.6</ele>
        <time>2022-06-26T05:51:56Z</time>
      </trkpt>
      <trkpt lat="45.96988" lon="4.58121">
        <ele>549</ele>
        <time>2022-06-26T05:51:57Z</time>
      </trkpt>
      <trkpt lat="45.96982" lon="4.58119">
        <ele>549</ele>
        <time>2022-06-26T05:51:58Z</time>
      </trkpt>
      <trkpt lat="45.96976" lon="4.58115">
        <ele>549.6</ele>
        <time>2022-06-26T05:51:59Z</time>
      </trkpt>
      <trkpt lat="45.9697" lon="4.58111">
        <ele>550.2</ele>
        <time>2022-06-26T05:52:00Z</time>
      </trkpt>
      <trkpt lat="45.96964" lon="4.58106">
        <ele>550.2</ele>
        <time>2022-06-26T05:52:01Z</time>
      </trkpt>
      <trkpt lat="45.96958" lon="4.581">
        <ele>550.2</ele>
        <time>2022-06-26T05:52:02Z</time>
      </trkpt>
      <trkpt lat="45.96952" lon="4.58094">
        <ele>550.2</ele>
        <time>2022-06-26T05:52:03Z</time>
      </trkpt>
      <trkpt lat="45.96946" lon="4.58087">
        <ele>550.6</ele>
        <time>2022-06-26T05:52:04Z</time>
      </trkpt>
      <trkpt lat="45.96941" lon="4.5808">
        <ele>550.6</ele>
        <time>2022-06-26T05:52:05Z</time>
      </trkpt>
      <trkpt lat="45.96935" lon="4.58074">
        <ele>550.8</ele>
        <time>2022-06-26T05:52:06Z</time>
      </trkpt>
      <trkpt lat="45.96929" lon="4.58068">
        <ele>550.8</ele>
        <time>2022-06-26T05:52:07Z</time>
      </trkpt>
      <trkpt lat="45.96923" lon="4.58062">
        <ele>550.8</ele>
        <time>2022-06-26T05:52:08Z</time>
      </trkpt>
      <trkpt lat="45.96916" lon="4.58055">
        <ele>550.8</ele>
        <time>2022-06-26T05:52:09Z</time>
      </trkpt>
      <trkpt lat="45.9691" lon="4.58048">
        <ele>550.8</ele>
        <time>2022-06-26T05:52:10Z</time>
      </trkpt>
      <trkpt lat="45.96903" lon="4.58043">
        <ele>550.6</ele>
        <time>2022-06-26T05:52:11Z</time>
      </trkpt>
      <trkpt lat="45.96896" lon="4.58037">
        <ele>550.6</ele>
        <time>2022-06-26T05:52:12Z</time>
      </trkpt>
      <trkpt lat="45.96889" lon="4.58032">
        <ele>550.6</ele>
        <time>2022-06-26T05:52:13Z</time>
      </trkpt>
      <trkpt lat="45.96882" lon="4.58027">
        <ele>550.4</ele>
        <time>2022-06-26T05:52:14Z</time>
      </trkpt>
      <trkpt lat="45.96874" lon="4.58023">
        <ele>550</ele>
        <time>2022-06-26T05:52:15Z</time>
      </trkpt>
      <trkpt lat="45.96867" lon="4.58019">
        <ele>550</ele>
        <time>2022-06-26T05:52:16Z</time>
      </trkpt>
      <trkpt lat="45.96859" lon="4.58017">
        <ele>549.6</ele>
        <time>2022-06-26T05:52:17Z</time>
      </trkpt>
      <trkpt lat="45.96852" lon="4.58016">
        <ele>549.2</ele>
        <time>2022-06-26T05:52:18Z</time>
      </trkpt>
      <trkpt lat="45.96844" lon="4.58017">
        <ele>548.6</ele>
        <time>2022-06-26T05:52:19Z</time>
      </trkpt>
      <trkpt lat="45.96837" lon="4.58018">
        <ele>548.6</ele>
        <time>2022-06-26T05:52:20Z</time>
      </trkpt>
      <trkpt lat="45.96829" lon="4.58021">
        <ele>548.6</ele>
        <time>2022-06-26T05:52:21Z</time>
      </trkpt>
      <trkpt lat="45.96822" lon="4.58026">
        <ele>548.6</ele>
        <time>2022-06-26T05:52:22Z</time>
      </trkpt>
      <trkpt lat="45.96815" lon="4.58031">
        <ele>548.2</ele>
        <time>2022-06-26T05:52:23Z</time>
      </trkpt>
      <trkpt lat="45.96808" lon="4.58038">
        <ele>548.2</ele>
        <time>2022-06-26T05:52:24Z</time>
      </trkpt>
      <trkpt lat="45.96802" lon="4.58045">
        <ele>547.8</ele>
        <time>2022-06-26T05:52:25Z</time>
      </trkpt>
      <trkpt lat="45.96796" lon="4.58053">
        <ele>547.8</ele>
        <time>2022-06-26T05:52:26Z</time>
      </trkpt>
      <trkpt lat="45.96791" lon="4.58061">
        <ele>547.6</ele>
        <time>2022-06-26T05:52:27Z</time>
      </trkpt>
      <trkpt lat="45.96786" lon="4.5807">
        <ele>547.6</ele>
        <time>2022-06-26T05:52:28Z</time>
      </trkpt>
      <trkpt lat="45.96781" lon="4.58079">
        <ele>547</ele>
        <time>2022-06-26T05:52:29Z</time>
      </trkpt>
      <trkpt lat="45.96776" lon="4.58089">
        <ele>546.8</ele>
        <time>2022-06-26T05:52:30Z</time>
      </trkpt>
      <trkpt lat="45.96772" lon="4.58098">
        <ele>546.4</ele>
        <time>2022-06-26T05:52:31Z</time>
      </trkpt>
      <trkpt lat="45.96767" lon="4.58107">
        <ele>546</ele>
        <time>2022-06-26T05:52:32Z</time>
      </trkpt>
      <trkpt lat="45.96763" lon="4.58116">
        <ele>545.8</ele>
        <time>2022-06-26T05:52:33Z</time>
      </trkpt>
      <trkpt lat="45.96758" lon="4.58125">
        <ele>545.8</ele>
        <time>2022-06-26T05:52:34Z</time>
      </trkpt>
      <trkpt lat="45.96753" lon="4.58134">
        <ele>545.6</ele>
        <time>2022-06-26T05:52:35Z</time>
      </trkpt>
      <trkpt lat="45.96749" lon="4.58143">
        <ele>545.4</ele>
        <time>2022-06-26T05:52:36Z</time>
      </trkpt>
      <trkpt lat="45.96744" lon="4.58152">
        <ele>545.4</ele>
        <time>2022-06-26T05:52:37Z</time>
      </trkpt>
      <trkpt lat="45.9674" lon="4.58161">
        <ele>545.4</ele>
        <time>2022-06-26T05:52:38Z</time>
      </trkpt>
      <trkpt lat="45.96735" lon="4.5817">
        <ele>545.4</ele>
        <time>2022-06-26T05:52:39Z</time>
      </trkpt>
      <trkpt lat="45.96731" lon="4.58179">
        <ele>545.4</ele>
        <time>2022-06-26T05:52:40Z</time>
      </trkpt>
      <trkpt lat="45.96727" lon="4.58189">
        <ele>545</ele>
        <time>2022-06-26T05:52:41Z</time>
      </trkpt>
      <trkpt lat="45.96724" lon="4.58199">
        <ele>544.6</ele>
        <time>2022-06-26T05:52:42Z</time>
      </trkpt>
      <trkpt lat="45.96722" lon="4.58209">
        <ele>544.6</ele>
        <time>2022-06-26T05:52:43Z</time>
      </trkpt>
      <trkpt lat="45.96721" lon="4.5822">
        <ele>544.6</ele>
        <time>2022-06-26T05:52:44Z</time>
      </trkpt>
      <trkpt lat="45.9672" lon="4.5823">
        <ele>544.2</ele>
        <time>2022-06-26T05:52:45Z</time>
      </trkpt>
      <trkpt lat="45.96719" lon="4.5824">
        <ele>543.6</ele>
        <time>2022-06-26T05:52:46Z</time>
      </trkpt>
      <trkpt lat="45.9672" lon="4.58249">
        <ele>543.6</ele>
        <time>2022-06-26T05:52:47Z</time>
      </trkpt>
      <trkpt lat="45.96721" lon="4.58258">
        <ele>543.8</ele>
        <time>2022-06-26T05:52:48Z</time>
      </trkpt>
      <trkpt lat="45.96723" lon="4.58267">
        <ele>543.6</ele>
        <time>2022-06-26T05:52:49Z</time>
      </trkpt>
      <trkpt lat="45.96725" lon="4.58277">
        <ele>543.4</ele>
        <time>2022-06-26T05:52:50Z</time>
      </trkpt>
      <trkpt lat="45.96728" lon="4.58286">
        <ele>543.4</ele>
        <time>2022-06-26T05:52:51Z</time>
      </trkpt>
      <trkpt lat="45.96731" lon="4.58295">
        <ele>543</ele>
        <time>2022-06-26T05:52:52Z</time>
      </trkpt>
      <trkpt lat="45.96734" lon="4.58303">
        <ele>542.6</ele>
        <time>2022-06-26T05:52:53Z</time>
      </trkpt>
      <trkpt lat="45.96737" lon="4.58312">
        <ele>542.6</ele>
        <time>2022-06-26T05:52:54Z</time>
      </trkpt>
      <trkpt lat="45.9674" lon="4.58321">
        <ele>543</ele>
        <time>2022-06-26T05:52:55Z</time>
      </trkpt>
      <trkpt lat="45.96742" lon="4.5833">
        <ele>543</ele>
        <time>2022-06-26T05:52:56Z</time>
      </trkpt>
      <trkpt lat="45.96744" lon="4.5834">
        <ele>542.8</ele>
        <time>2022-06-26T05:52:57Z</time>
      </trkpt>
      <trkpt lat="45.96746" lon="4.5835">
        <ele>542.8</ele>
        <time>2022-06-26T05:52:58Z</time>
      </trkpt>
      <trkpt lat="45.96748" lon="4.5836">
        <ele>542.4</ele>
        <time>2022-06-26T05:52:59Z</time>
      </trkpt>
      <trkpt lat="45.96749" lon="4.5837">
        <ele>542.4</ele>
        <time>2022-06-26T05:53:00Z</time>
      </trkpt>
      <trkpt lat="45.96751" lon="4.5838">
        <ele>542.2</ele>
        <time>2022-06-26T05:53:01Z</time>
      </trkpt>
      <trkpt lat="45.96752" lon="4.58389">
        <ele>542</ele>
        <time>2022-06-26T05:53:02Z</time>
      </trkpt>
      <trkpt lat="45.96754" lon="4.58399">
        <ele>542</ele>
        <time>2022-06-26T05:53:03Z</time>
      </trkpt>
      <trkpt lat="45.96755" lon="4.58409">
        <ele>542</ele>
        <time>2022-06-26T05:53:04Z</time>
      </trkpt>
      <trkpt lat="45.96755" lon="4.58419">
        <ele>542</ele>
        <time>2022-06-26T05:53:05Z</time>
      </trkpt>
      <trkpt lat="45.96755" lon="4.58428">
        <ele>542</ele>
        <time>2022-06-26T05:53:06Z</time>
      </trkpt>
      <trkpt lat="45.96755" lon="4.58438">
        <ele>542.4</ele>
        <time>2022-06-26T05:53:07Z</time>
      </trkpt>
      <trkpt lat="45.96754" lon="4.58448">
        <ele>542.4</ele>
        <time>2022-06-26T05:53:08Z</time>
      </trkpt>
      <trkpt lat="45.96753" lon="4.58456">
        <ele>542</ele>
        <time>2022-06-26T05:53:09Z</time>
      </trkpt>
      <trkpt lat="45.96752" lon="4.58465">
        <ele>542</ele>
        <time>2022-06-26T05:53:10Z</time>
      </trkpt>
      <trkpt lat="45.9675" lon="4.58473">
        <ele>541.6</ele>
        <time>2022-06-26T05:53:11Z</time>
      </trkpt>
      <trkpt lat="45.96749" lon="4.58482">
        <ele>541.2</ele>
        <time>2022-06-26T05:53:12Z</time>
      </trkpt>
      <trkpt lat="45.96746" lon="4.5849">
        <ele>541.2</ele>
        <time>2022-06-26T05:53:13Z</time>
      </trkpt>
      <trkpt lat="45.96744" lon="4.58498">
        <ele>540.8</ele>
        <time>2022-06-26T05:53:14Z</time>
      </trkpt>
      <trkpt lat="45.96742" lon="4.58506">
        <ele>540.8</ele>
        <time>2022-06-26T05:53:15Z</time>
      </trkpt>
      <trkpt lat="45.96739" lon="4.58513">
        <ele>540.8</ele>
        <time>2022-06-26T05:53:16Z</time>
      </trkpt>
      <trkpt lat="45.96736" lon="4.58521">
        <ele>540.4</ele>
        <time>2022-06-26T05:53:17Z</time>
      </trkpt>
      <trkpt lat="45.96732" lon="4.58527">
        <ele>540.4</ele>
        <time>2022-06-26T05:53:18Z</time>
      </trkpt>
      <trkpt lat="45.96727" lon="4.58533">
        <ele>540</ele>
        <time>2022-06-26T05:53:19Z</time>
      </trkpt>
      <trkpt lat="45.96722" lon="4.58537">
        <ele>540</ele>
        <time>2022-06-26T05:53:20Z</time>
      </trkpt>
      <trkpt lat="45.96716" lon="4.58539">
        <ele>540</ele>
        <time>2022-06-26T05:53:21Z</time>
      </trkpt>
      <trkpt lat="45.9671" lon="4.58541">
        <ele>539.6</ele>
        <time>2022-06-26T05:53:22Z</time>
      </trkpt>
      <trkpt lat="45.96704" lon="4.58542">
        <ele>539.6</ele>
        <time>2022-06-26T05:53:23Z</time>
      </trkpt>
      <trkpt lat="45.96697" lon="4.58542">
        <ele>539.6</ele>
        <time>2022-06-26T05:53:24Z</time>
      </trkpt>
      <trkpt lat="45.96691" lon="4.58542">
        <ele>539.6</ele>
        <time>2022-06-26T05:53:25Z</time>
      </trkpt>
      <trkpt lat="45.96685" lon="4.5854">
        <ele>539.6</ele>
        <time>2022-06-26T05:53:27Z</time>
      </trkpt>
      <trkpt lat="45.96679" lon="4.58538">
        <ele>539.6</ele>
        <time>2022-06-26T05:53:28Z</time>
      </trkpt>
      <trkpt lat="45.96674" lon="4.58535">
        <ele>539.6</ele>
        <time>2022-06-26T05:53:29Z</time>
      </trkpt>
      <trkpt lat="45.96668" lon="4.58532">
        <ele>539.6</ele>
        <time>2022-06-26T05:53:30Z</time>
      </trkpt>
      <trkpt lat="45.96663" lon="4.58528">
        <ele>539.6</ele>
        <time>2022-06-26T05:53:31Z</time>
      </trkpt>
      <trkpt lat="45.96658" lon="4.58523">
        <ele>539.6</ele>
        <time>2022-06-26T05:53:32Z</time>
      </trkpt>
      <trkpt lat="45.96653" lon="4.58517">
        <ele>539.6</ele>
        <time>2022-06-26T05:53:33Z</time>
      </trkpt>
      <trkpt lat="45.96649" lon="4.58511">
        <ele>539.6</ele>
        <time>2022-06-26T05:53:34Z</time>
      </trkpt>
      <trkpt lat="45.96644" lon="4.58506">
        <ele>539.6</ele>
        <time>2022-06-26T05:53:35Z</time>
      </trkpt>
      <trkpt lat="45.9664" lon="4.585">
        <ele>539.6</ele>
        <time>2022-06-26T05:53:36Z</time>
      </trkpt>
      <trkpt lat="45.96636" lon="4.58495">
        <ele>539.6</ele>
        <time>2022-06-26T05:53:37Z</time>
      </trkpt>
      <trkpt lat="45.96631" lon="4.5849">
        <ele>539.8</ele>
        <time>2022-06-26T05:53:38Z</time>
      </trkpt>
      <trkpt lat="45.96626" lon="4.58485">
        <ele>539.8</ele>
        <time>2022-06-26T05:53:39Z</time>
      </trkpt>
      <trkpt lat="45.96622" lon="4.5848">
        <ele>539.6</ele>
        <time>2022-06-26T05:53:40Z</time>
      </trkpt>
      <trkpt lat="45.96617" lon="4.58475">
        <ele>539.6</ele>
        <time>2022-06-26T05:53:41Z</time>
      </trkpt>
      <trkpt lat="45.96612" lon="4.58471">
        <ele>540.2</ele>
        <time>2022-06-26T05:53:42Z</time>
      </trkpt>
      <trkpt lat="45.96607" lon="4.58467">
        <ele>540.8</ele>
        <time>2022-06-26T05:53:43Z</time>
      </trkpt>
      <trkpt lat="45.96602" lon="4.58463">
        <ele>541.4</ele>
        <time>2022-06-26T05:53:44Z</time>
      </trkpt>
      <trkpt lat="45.96598" lon="4.5846">
        <ele>541.8</ele>
        <time>2022-06-26T05:53:45Z</time>
      </trkpt>
      <trkpt lat="45.96592" lon="4.58456">
        <ele>541.8</ele>
        <time>2022-06-26T05:53:46Z</time>
      </trkpt>
      <trkpt lat="45.96587" lon="4.58452">
        <ele>541.8</ele>
        <time>2022-06-26T05:53:47Z</time>
      </trkpt>
      <trkpt lat="45.96582" lon="4.58448">
        <ele>541.8</ele>
        <time>2022-06-26T05:53:48Z</time>
      </trkpt>
      <trkpt lat="45.96577" lon="4.58444">
        <ele>542.2</ele>
        <time>2022-06-26T05:53:49Z</time>
      </trkpt>
      <trkpt lat="45.96572" lon="4.58441">
        <ele>542.4</ele>
        <time>2022-06-26T05:53:50Z</time>
      </trkpt>
      <trkpt lat="45.96567" lon="4.58437">
        <ele>542.4</ele>
        <time>2022-06-26T05:53:51Z</time>
      </trkpt>
      <trkpt lat="45.96561" lon="4.58434">
        <ele>542.4</ele>
        <time>2022-06-26T05:53:52Z</time>
      </trkpt>
      <trkpt lat="45.96556" lon="4.5843">
        <ele>542.4</ele>
        <time>2022-06-26T05:53:53Z</time>
      </trkpt>
      <trkpt lat="45.96551" lon="4.58427">
        <ele>542.4</ele>
        <time>2022-06-26T05:53:54Z</time>
      </trkpt>
      <trkpt lat="45.96546" lon="4.58424">
        <ele>542.4</ele>
        <time>2022-06-26T05:53:55Z</time>
      </trkpt>
      <trkpt lat="45.96541" lon="4.58421">
        <ele>542.4</ele>
        <time>2022-06-26T05:53:56Z</time>
      </trkpt>
      <trkpt lat="45.96535" lon="4.58418">
        <ele>542.8</ele>
        <time>2022-06-26T05:53:57Z</time>
      </trkpt>
      <trkpt lat="45.9653" lon="4.58415">
        <ele>542.8</ele>
        <time>2022-06-26T05:53:58Z</time>
      </trkpt>
      <trkpt lat="45.96525" lon="4.58413">
        <ele>543</ele>
        <time>2022-06-26T05:53:59Z</time>
      </trkpt>
      <trkpt lat="45.96519" lon="4.5841">
        <ele>543</ele>
        <time>2022-06-26T05:54:00Z</time>
      </trkpt>
      <trkpt lat="45.96514" lon="4.58408">
        <ele>543</ele>
        <time>2022-06-26T05:54:01Z</time>
      </trkpt>
      <trkpt lat="45.96509" lon="4.58407">
        <ele>543</ele>
        <time>2022-06-26T05:54:02Z</time>
      </trkpt>
      <trkpt lat="45.96503" lon="4.58406">
        <ele>543.2</ele>
        <time>2022-06-26T05:54:03Z</time>
      </trkpt>
      <trkpt lat="45.96497" lon="4.58405">
        <ele>543.2</ele>
        <time>2022-06-26T05:54:04Z</time>
      </trkpt>
      <trkpt lat="45.96492" lon="4.58406">
        <ele>543.4</ele>
        <time>2022-06-26T05:54:05Z</time>
      </trkpt>
      <trkpt lat="45.96486" lon="4.58408">
        <ele>543.8</ele>
        <time>2022-06-26T05:54:06Z</time>
      </trkpt>
      <trkpt lat="45.9648" lon="4.5841">
        <ele>543.8</ele>
        <time>2022-06-26T05:54:07Z</time>
      </trkpt>
      <trkpt lat="45.96469" lon="4.58417">
        <ele>544.2</ele>
        <time>2022-06-26T05:54:08Z</time>
      </trkpt>
      <trkpt lat="45.96464" lon="4.58422">
        <ele>544.6</ele>
        <time>2022-06-26T05:54:09Z</time>
      </trkpt>
      <trkpt lat="45.96459" lon="4.58427">
        <ele>544.8</ele>
        <time>2022-06-26T05:54:10Z</time>
      </trkpt>
      <trkpt lat="45.96454" lon="4.58431">
        <ele>545.2</ele>
        <time>2022-06-26T05:54:11Z</time>
      </trkpt>
      <trkpt lat="45.96449" lon="4.58436">
        <ele>545.2</ele>
        <time>2022-06-26T05:54:12Z</time>
      </trkpt>
      <trkpt lat="45.96444" lon="4.58441">
        <ele>545.4</ele>
        <time>2022-06-26T05:54:13Z</time>
      </trkpt>
      <trkpt lat="45.96439" lon="4.58447">
        <ele>545.4</ele>
        <time>2022-06-26T05:54:14Z</time>
      </trkpt>
      <trkpt lat="45.96434" lon="4.58452">
        <ele>545.4</ele>
        <time>2022-06-26T05:54:15Z</time>
      </trkpt>
      <trkpt lat="45.96429" lon="4.58458">
        <ele>545.8</ele>
        <time>2022-06-26T05:54:16Z</time>
      </trkpt>
      <trkpt lat="45.96424" lon="4.58464">
        <ele>545.8</ele>
        <time>2022-06-26T05:54:17Z</time>
      </trkpt>
      <trkpt lat="45.9642" lon="4.5847">
        <ele>545.8</ele>
        <time>2022-06-26T05:54:18Z</time>
      </trkpt>
      <trkpt lat="45.96415" lon="4.58475">
        <ele>545.8</ele>
        <time>2022-06-26T05:54:19Z</time>
      </trkpt>
      <trkpt lat="45.9641" lon="4.58481">
        <ele>546.2</ele>
        <time>2022-06-26T05:54:20Z</time>
      </trkpt>
      <trkpt lat="45.96405" lon="4.58487">
        <ele>546.4</ele>
        <time>2022-06-26T05:54:21Z</time>
      </trkpt>
      <trkpt lat="45.964" lon="4.58493">
        <ele>546.4</ele>
        <time>2022-06-26T05:54:22Z</time>
      </trkpt>
      <trkpt lat="45.96395" lon="4.58499">
        <ele>546.8</ele>
        <time>2022-06-26T05:54:23Z</time>
      </trkpt>
      <trkpt lat="45.9639" lon="4.58505">
        <ele>547</ele>
        <time>2022-06-26T05:54:24Z</time>
      </trkpt>
      <trkpt lat="45.96385" lon="4.58511">
        <ele>547</ele>
        <time>2022-06-26T05:54:25Z</time>
      </trkpt>
      <trkpt lat="45.96379" lon="4.58516">
        <ele>547.2</ele>
        <time>2022-06-26T05:54:26Z</time>
      </trkpt>
      <trkpt lat="45.96374" lon="4.58522">
        <ele>547.4</ele>
        <time>2022-06-26T05:54:27Z</time>
      </trkpt>
      <trkpt lat="45.96368" lon="4.58527">
        <ele>546.4</ele>
        <time>2022-06-26T05:54:28Z</time>
      </trkpt>
      <trkpt lat="45.96362" lon="4.58531">
        <ele>545.2</ele>
        <time>2022-06-26T05:54:29Z</time>
      </trkpt>
      <trkpt lat="45.96356" lon="4.58535">
        <ele>544.2</ele>
        <time>2022-06-26T05:54:30Z</time>
      </trkpt>
      <trkpt lat="45.96349" lon="4.58538">
        <ele>543.2</ele>
        <time>2022-06-26T05:54:31Z</time>
      </trkpt>
      <trkpt lat="45.96343" lon="4.5854">
        <ele>542.4</ele>
        <time>2022-06-26T05:54:32Z</time>
      </trkpt>
      <trkpt lat="45.96336" lon="4.58542">
        <ele>542</ele>
        <time>2022-06-26T05:54:33Z</time>
      </trkpt>
      <trkpt lat="45.9633" lon="4.58542">
        <ele>541.4</ele>
        <time>2022-06-26T05:54:34Z</time>
      </trkpt>
      <trkpt lat="45.96323" lon="4.58542">
        <ele>541.2</ele>
        <time>2022-06-26T05:54:35Z</time>
      </trkpt>
      <trkpt lat="45.96317" lon="4.5854">
        <ele>541.2</ele>
        <time>2022-06-26T05:54:36Z</time>
      </trkpt>
      <trkpt lat="45.96311" lon="4.58538">
        <ele>540.6</ele>
        <time>2022-06-26T05:54:37Z</time>
      </trkpt>
      <trkpt lat="45.96305" lon="4.58536">
        <ele>540.4</ele>
        <time>2022-06-26T05:54:38Z</time>
      </trkpt>
      <trkpt lat="45.96299" lon="4.58533">
        <ele>540.4</ele>
        <time>2022-06-26T05:54:39Z</time>
      </trkpt>
      <trkpt lat="45.96293" lon="4.5853">
        <ele>540.2</ele>
        <time>2022-06-26T05:54:40Z</time>
      </trkpt>
      <trkpt lat="45.96287" lon="4.58527">
        <ele>540</ele>
        <time>2022-06-26T05:54:41Z</time>
      </trkpt>
      <trkpt lat="45.96282" lon="4.58524">
        <ele>539.6</ele>
        <time>2022-06-26T05:54:42Z</time>
      </trkpt>
      <trkpt lat="45.96276" lon="4.58521">
        <ele>539.4</ele>
        <time>2022-06-26T05:54:43Z</time>
      </trkpt>
      <trkpt lat="45.96271" lon="4.58518">
        <ele>539.4</ele>
        <time>2022-06-26T05:54:44Z</time>
      </trkpt>
      <trkpt lat="45.96266" lon="4.58515">
        <ele>539.4</ele>
        <time>2022-06-26T05:54:45Z</time>
      </trkpt>
      <trkpt lat="45.96261" lon="4.58513">
        <ele>539.2</ele>
        <time>2022-06-26T05:54:46Z</time>
      </trkpt>
      <trkpt lat="45.96255" lon="4.58511">
        <ele>539.2</ele>
        <time>2022-06-26T05:54:47Z</time>
      </trkpt>
      <trkpt lat="45.9625" lon="4.58509">
        <ele>539</ele>
        <time>2022-06-26T05:54:48Z</time>
      </trkpt>
      <trkpt lat="45.96244" lon="4.58507">
        <ele>539</ele>
        <time>2022-06-26T05:54:49Z</time>
      </trkpt>
      <trkpt lat="45.96239" lon="4.58507">
        <ele>539</ele>
        <time>2022-06-26T05:54:50Z</time>
      </trkpt>
      <trkpt lat="45.96233" lon="4.58507">
        <ele>539</ele>
        <time>2022-06-26T05:54:51Z</time>
      </trkpt>
      <trkpt lat="45.96227" lon="4.58508">
        <ele>539</ele>
        <time>2022-06-26T05:54:52Z</time>
      </trkpt>
      <trkpt lat="45.96222" lon="4.58509">
        <ele>539</ele>
        <time>2022-06-26T05:54:53Z</time>
      </trkpt>
      <trkpt lat="45.96216" lon="4.58511">
        <ele>539</ele>
        <time>2022-06-26T05:54:54Z</time>
      </trkpt>
      <trkpt lat="45.9621" lon="4.58514">
        <ele>539</ele>
        <time>2022-06-26T05:54:55Z</time>
      </trkpt>
      <trkpt lat="45.96204" lon="4.58517">
        <ele>539</ele>
        <time>2022-06-26T05:54:56Z</time>
      </trkpt>
      <trkpt lat="45.96199" lon="4.58521">
        <ele>538.6</ele>
        <time>2022-06-26T05:54:57Z</time>
      </trkpt>
      <trkpt lat="45.96193" lon="4.58526">
        <ele>538.6</ele>
        <time>2022-06-26T05:54:58Z</time>
      </trkpt>
      <trkpt lat="45.96188" lon="4.58531">
        <ele>538.6</ele>
        <time>2022-06-26T05:54:59Z</time>
      </trkpt>
      <trkpt lat="45.96182" lon="4.58537">
        <ele>538.6</ele>
        <time>2022-06-26T05:55:00Z</time>
      </trkpt>
      <trkpt lat="45.96177" lon="4.58543">
        <ele>538.6</ele>
        <time>2022-06-26T05:55:01Z</time>
      </trkpt>
      <trkpt lat="45.96171" lon="4.5855">
        <ele>538.6</ele>
        <time>2022-06-26T05:55:02Z</time>
      </trkpt>
      <trkpt lat="45.96166" lon="4.58556">
        <ele>538.6</ele>
        <time>2022-06-26T05:55:03Z</time>
      </trkpt>
      <trkpt lat="45.96161" lon="4.58563">
        <ele>538.6</ele>
        <time>2022-06-26T05:55:04Z</time>
      </trkpt>
      <trkpt lat="45.96157" lon="4.58571">
        <ele>538.6</ele>
        <time>2022-06-26T05:55:05Z</time>
      </trkpt>
      <trkpt lat="45.96152" lon="4.58578">
        <ele>538.4</ele>
        <time>2022-06-26T05:55:06Z</time>
      </trkpt>
      <trkpt lat="45.96147" lon="4.58585">
        <ele>537.8</ele>
        <time>2022-06-26T05:55:07Z</time>
      </trkpt>
      <trkpt lat="45.96142" lon="4.58592">
        <ele>537.4</ele>
        <time>2022-06-26T05:55:08Z</time>
      </trkpt>
      <trkpt lat="45.96137" lon="4.58598">
        <ele>537.4</ele>
        <time>2022-06-26T05:55:09Z</time>
      </trkpt>
      <trkpt lat="45.96132" lon="4.58604">
        <ele>537</ele>
        <time>2022-06-26T05:55:10Z</time>
      </trkpt>
      <trkpt lat="45.96127" lon="4.5861">
        <ele>537</ele>
        <time>2022-06-26T05:55:11Z</time>
      </trkpt>
      <trkpt lat="45.96121" lon="4.58615">
        <ele>537</ele>
        <time>2022-06-26T05:55:12Z</time>
      </trkpt>
      <trkpt lat="45.96116" lon="4.58619">
        <ele>537</ele>
        <time>2022-06-26T05:55:13Z</time>
      </trkpt>
      <trkpt lat="45.9611" lon="4.58623">
        <ele>536.6</ele>
        <time>2022-06-26T05:55:14Z</time>
      </trkpt>
      <trkpt lat="45.96104" lon="4.58626">
        <ele>536.4</ele>
        <time>2022-06-26T05:55:15Z</time>
      </trkpt>
      <trkpt lat="45.96098" lon="4.58628">
        <ele>536.6</ele>
        <time>2022-06-26T05:55:16Z</time>
      </trkpt>
      <trkpt lat="45.96092" lon="4.58629">
        <ele>536.6</ele>
        <time>2022-06-26T05:55:17Z</time>
      </trkpt>
      <trkpt lat="45.96086" lon="4.5863">
        <ele>536.6</ele>
        <time>2022-06-26T05:55:18Z</time>
      </trkpt>
      <trkpt lat="45.9608" lon="4.5863">
        <ele>536.6</ele>
        <time>2022-06-26T05:55:19Z</time>
      </trkpt>
      <trkpt lat="45.96074" lon="4.5863">
        <ele>536.6</ele>
        <time>2022-06-26T05:55:20Z</time>
      </trkpt>
      <trkpt lat="45.96069" lon="4.58629">
        <ele>536.4</ele>
        <time>2022-06-26T05:55:21Z</time>
      </trkpt>
      <trkpt lat="45.96063" lon="4.58628">
        <ele>536.4</ele>
        <time>2022-06-26T05:55:22Z</time>
      </trkpt>
      <trkpt lat="45.96057" lon="4.58626">
        <ele>536.4</ele>
        <time>2022-06-26T05:55:23Z</time>
      </trkpt>
      <trkpt lat="45.96051" lon="4.58624">
        <ele>536.4</ele>
        <time>2022-06-26T05:55:24Z</time>
      </trkpt>
      <trkpt lat="45.96046" lon="4.58621">
        <ele>536.6</ele>
        <time>2022-06-26T05:55:25Z</time>
      </trkpt>
      <trkpt lat="45.9604" lon="4.58618">
        <ele>536.6</ele>
        <time>2022-06-26T05:55:26Z</time>
      </trkpt>
      <trkpt lat="45.96035" lon="4.58615">
        <ele>536.6</ele>
        <time>2022-06-26T05:55:27Z</time>
      </trkpt>
      <trkpt lat="45.9603" lon="4.58611">
        <ele>536.6</ele>
        <time>2022-06-26T05:55:28Z</time>
      </trkpt>
      <trkpt lat="45.96024" lon="4.58607">
        <ele>536.8</ele>
        <time>2022-06-26T05:55:29Z</time>
      </trkpt>
      <trkpt lat="45.96019" lon="4.58604">
        <ele>536.8</ele>
        <time>2022-06-26T05:55:30Z</time>
      </trkpt>
      <trkpt lat="45.96014" lon="4.586">
        <ele>536.8</ele>
        <time>2022-06-26T05:55:31Z</time>
      </trkpt>
      <trkpt lat="45.96009" lon="4.58596">
        <ele>536.4</ele>
        <time>2022-06-26T05:55:32Z</time>
      </trkpt>
      <trkpt lat="45.96004" lon="4.58593">
        <ele>536.6</ele>
        <time>2022-06-26T05:55:33Z</time>
      </trkpt>
      <trkpt lat="45.95999" lon="4.58589">
        <ele>537</ele>
        <time>2022-06-26T05:55:34Z</time>
      </trkpt>
      <trkpt lat="45.95994" lon="4.58586">
        <ele>537.4</ele>
        <time>2022-06-26T05:55:35Z</time>
      </trkpt>
      <trkpt lat="45.95989" lon="4.58583">
        <ele>537.6</ele>
        <time>2022-06-26T05:55:36Z</time>
      </trkpt>
      <trkpt lat="45.95984" lon="4.5858">
        <ele>538</ele>
        <time>2022-06-26T05:55:37Z</time>
      </trkpt>
      <trkpt lat="45.95979" lon="4.58579">
        <ele>538.6</ele>
        <time>2022-06-26T05:55:38Z</time>
      </trkpt>
      <trkpt lat="45.95974" lon="4.58578">
        <ele>539.4</ele>
        <time>2022-06-26T05:55:39Z</time>
      </trkpt>
      <trkpt lat="45.95969" lon="4.58578">
        <ele>539.4</ele>
        <time>2022-06-26T05:55:40Z</time>
      </trkpt>
      <trkpt lat="45.95964" lon="4.58578">
        <ele>539.4</ele>
        <time>2022-06-26T05:55:41Z</time>
      </trkpt>
      <trkpt lat="45.95959" lon="4.58578">
        <ele>539.6</ele>
        <time>2022-06-26T05:55:42Z</time>
      </trkpt>
      <trkpt lat="45.95954" lon="4.5858">
        <ele>539.6</ele>
        <time>2022-06-26T05:55:43Z</time>
      </trkpt>
      <trkpt lat="45.95949" lon="4.58583">
        <ele>539.6</ele>
        <time>2022-06-26T05:55:44Z</time>
      </trkpt>
      <trkpt lat="45.95945" lon="4.58586">
        <ele>539.6</ele>
        <time>2022-06-26T05:55:45Z</time>
      </trkpt>
      <trkpt lat="45.9594" lon="4.58589">
        <ele>539.6</ele>
        <time>2022-06-26T05:55:46Z</time>
      </trkpt>
      <trkpt lat="45.95936" lon="4.58593">
        <ele>539.6</ele>
        <time>2022-06-26T05:55:47Z</time>
      </trkpt>
      <trkpt lat="45.95932" lon="4.58597">
        <ele>539.6</ele>
        <time>2022-06-26T05:55:48Z</time>
      </trkpt>
      <trkpt lat="45.95928" lon="4.58602">
        <ele>540</ele>
        <time>2022-06-26T05:55:49Z</time>
      </trkpt>
      <trkpt lat="45.95924" lon="4.58606">
        <ele>540</ele>
        <time>2022-06-26T05:55:50Z</time>
      </trkpt>
      <trkpt lat="45.95921" lon="4.58611">
        <ele>540.4</ele>
        <time>2022-06-26T05:55:51Z</time>
      </trkpt>
      <trkpt lat="45.95918" lon="4.58616">
        <ele>540.8</ele>
        <time>2022-06-26T05:55:52Z</time>
      </trkpt>
      <trkpt lat="45.95914" lon="4.58621">
        <ele>540.8</ele>
        <time>2022-06-26T05:55:53Z</time>
      </trkpt>
      <trkpt lat="45.95911" lon="4.58626">
        <ele>540.8</ele>
        <time>2022-06-26T05:55:54Z</time>
      </trkpt>
      <trkpt lat="45.95908" lon="4.58631">
        <ele>541</ele>
        <time>2022-06-26T05:55:55Z</time>
      </trkpt>
      <trkpt lat="45.95905" lon="4.58637">
        <ele>541.4</ele>
        <time>2022-06-26T05:55:56Z</time>
      </trkpt>
      <trkpt lat="45.95902" lon="4.58642">
        <ele>541.4</ele>
        <time>2022-06-26T05:55:57Z</time>
      </trkpt>
      <trkpt lat="45.95899" lon="4.58648">
        <ele>541.6</ele>
        <time>2022-06-26T05:55:58Z</time>
      </trkpt>
      <trkpt lat="45.95896" lon="4.58653">
        <ele>542</ele>
        <time>2022-06-26T05:55:59Z</time>
      </trkpt>
      <trkpt lat="45.95893" lon="4.58658">
        <ele>542.4</ele>
        <time>2022-06-26T05:56:00Z</time>
      </trkpt>
      <trkpt lat="45.9589" lon="4.58663">
        <ele>542.8</ele>
        <time>2022-06-26T05:56:01Z</time>
      </trkpt>
      <trkpt lat="45.95887" lon="4.58669">
        <ele>542.8</ele>
        <time>2022-06-26T05:56:02Z</time>
      </trkpt>
      <trkpt lat="45.95884" lon="4.58674">
        <ele>542.8</ele>
        <time>2022-06-26T05:56:03Z</time>
      </trkpt>
      <trkpt lat="45.95881" lon="4.5868">
        <ele>542.8</ele>
        <time>2022-06-26T05:56:04Z</time>
      </trkpt>
      <trkpt lat="45.95878" lon="4.58685">
        <ele>542.8</ele>
        <time>2022-06-26T05:56:05Z</time>
      </trkpt>
      <trkpt lat="45.95875" lon="4.5869">
        <ele>543</ele>
        <time>2022-06-26T05:56:06Z</time>
      </trkpt>
      <trkpt lat="45.95872" lon="4.58696">
        <ele>543.2</ele>
        <time>2022-06-26T05:56:07Z</time>
      </trkpt>
      <trkpt lat="45.95869" lon="4.58701">
        <ele>543.2</ele>
        <time>2022-06-26T05:56:08Z</time>
      </trkpt>
      <trkpt lat="45.95866" lon="4.58706">
        <ele>543.2</ele>
        <time>2022-06-26T05:56:09Z</time>
      </trkpt>
      <trkpt lat="45.95863" lon="4.58711">
        <ele>543.2</ele>
        <time>2022-06-26T05:56:10Z</time>
      </trkpt>
      <trkpt lat="45.95859" lon="4.58716">
        <ele>543.4</ele>
        <time>2022-06-26T05:56:11Z</time>
      </trkpt>
      <trkpt lat="45.95856" lon="4.58721">
        <ele>543.4</ele>
        <time>2022-06-26T05:56:12Z</time>
      </trkpt>
      <trkpt lat="45.95853" lon="4.58725">
        <ele>543.4</ele>
        <time>2022-06-26T05:56:13Z</time>
      </trkpt>
      <trkpt lat="45.95849" lon="4.58729">
        <ele>543.4</ele>
        <time>2022-06-26T05:56:14Z</time>
      </trkpt>
      <trkpt lat="45.95846" lon="4.58733">
        <ele>543.2</ele>
        <time>2022-06-26T05:56:15Z</time>
      </trkpt>
      <trkpt lat="45.95842" lon="4.58737">
        <ele>543.2</ele>
        <time>2022-06-26T05:56:16Z</time>
      </trkpt>
      <trkpt lat="45.95838" lon="4.58741">
        <ele>543.2</ele>
        <time>2022-06-26T05:56:17Z</time>
      </trkpt>
      <trkpt lat="45.95834" lon="4.58744">
        <ele>543</ele>
        <time>2022-06-26T05:56:18Z</time>
      </trkpt>
      <trkpt lat="45.9583" lon="4.58748">
        <ele>543</ele>
        <time>2022-06-26T05:56:19Z</time>
      </trkpt>
      <trkpt lat="45.95826" lon="4.58752">
        <ele>543</ele>
        <time>2022-06-26T05:56:20Z</time>
      </trkpt>
      <trkpt lat="45.95821" lon="4.58756">
        <ele>543</ele>
        <time>2022-06-26T05:56:21Z</time>
      </trkpt>
      <trkpt lat="45.95817" lon="4.5876">
        <ele>543</ele>
        <time>2022-06-26T05:56:22Z</time>
      </trkpt>
      <trkpt lat="45.95812" lon="4.58764">
        <ele>543</ele>
        <time>2022-06-26T05:56:23Z</time>
      </trkpt>
      <trkpt lat="45.95806" lon="4.58768">
        <ele>543.2</ele>
        <time>2022-06-26T05:56:24Z</time>
      </trkpt>
      <trkpt lat="45.95801" lon="4.58772">
        <ele>543.2</ele>
        <time>2022-06-26T05:56:25Z</time>
      </trkpt>
      <trkpt lat="45.95796" lon="4.58775">
        <ele>542.8</ele>
        <time>2022-06-26T05:56:26Z</time>
      </trkpt>
      <trkpt lat="45.9579" lon="4.58778">
        <ele>542.8</ele>
        <time>2022-06-26T05:56:27Z</time>
      </trkpt>
      <trkpt lat="45.95784" lon="4.58782">
        <ele>542.2</ele>
        <time>2022-06-26T05:56:28Z</time>
      </trkpt>
      <trkpt lat="45.95778" lon="4.58785">
        <ele>542.2</ele>
        <time>2022-06-26T05:56:29Z</time>
      </trkpt>
      <trkpt lat="45.95772" lon="4.58788">
        <ele>542.2</ele>
        <time>2022-06-26T05:56:30Z</time>
      </trkpt>
      <trkpt lat="45.95766" lon="4.58791">
        <ele>542</ele>
        <time>2022-06-26T05:56:31Z</time>
      </trkpt>
      <trkpt lat="45.9576" lon="4.58794">
        <ele>542</ele>
        <time>2022-06-26T05:56:32Z</time>
      </trkpt>
      <trkpt lat="45.95753" lon="4.58798">
        <ele>542</ele>
        <time>2022-06-26T05:56:33Z</time>
      </trkpt>
      <trkpt lat="45.95747" lon="4.58802">
        <ele>542</ele>
        <time>2022-06-26T05:56:34Z</time>
      </trkpt>
      <trkpt lat="45.95741" lon="4.58807">
        <ele>542</ele>
        <time>2022-06-26T05:56:35Z</time>
      </trkpt>
      <trkpt lat="45.95735" lon="4.58812">
        <ele>541.6</ele>
        <time>2022-06-26T05:56:36Z</time>
      </trkpt>
      <trkpt lat="45.95729" lon="4.58818">
        <ele>541.6</ele>
        <time>2022-06-26T05:56:37Z</time>
      </trkpt>
      <trkpt lat="45.95723" lon="4.58825">
        <ele>541.4</ele>
        <time>2022-06-26T05:56:38Z</time>
      </trkpt>
      <trkpt lat="45.95717" lon="4.58831">
        <ele>541.4</ele>
        <time>2022-06-26T05:56:39Z</time>
      </trkpt>
      <trkpt lat="45.9571" lon="4.58837">
        <ele>541.4</ele>
        <time>2022-06-26T05:56:40Z</time>
      </trkpt>
      <trkpt lat="45.95703" lon="4.58842">
        <ele>541.4</ele>
        <time>2022-06-26T05:56:41Z</time>
      </trkpt>
      <trkpt lat="45.95696" lon="4.58846">
        <ele>541.2</ele>
        <time>2022-06-26T05:56:42Z</time>
      </trkpt>
      <trkpt lat="45.95689" lon="4.58849">
        <ele>540.8</ele>
        <time>2022-06-26T05:56:43Z</time>
      </trkpt>
      <trkpt lat="45.95682" lon="4.58852">
        <ele>540.6</ele>
        <time>2022-06-26T05:56:44Z</time>
      </trkpt>
      <trkpt lat="45.95675" lon="4.58854">
        <ele>540.2</ele>
        <time>2022-06-26T05:56:45Z</time>
      </trkpt>
      <trkpt lat="45.95667" lon="4.58855">
        <ele>540</ele>
        <time>2022-06-26T05:56:46Z</time>
      </trkpt>
      <trkpt lat="45.9566" lon="4.58857">
        <ele>540</ele>
        <time>2022-06-26T05:56:47Z</time>
      </trkpt>
      <trkpt lat="45.95654" lon="4.58858">
        <ele>540</ele>
        <time>2022-06-26T05:56:48Z</time>
      </trkpt>
      <trkpt lat="45.95647" lon="4.58859">
        <ele>540</ele>
        <time>2022-06-26T05:56:49Z</time>
      </trkpt>
      <trkpt lat="45.9564" lon="4.58861">
        <ele>540</ele>
        <time>2022-06-26T05:56:50Z</time>
      </trkpt>
      <trkpt lat="45.95634" lon="4.58862">
        <ele>540.4</ele>
        <time>2022-06-26T05:56:51Z</time>
      </trkpt>
      <trkpt lat="45.95627" lon="4.58864">
        <ele>540.4</ele>
        <time>2022-06-26T05:56:52Z</time>
      </trkpt>
      <trkpt lat="45.95621" lon="4.58865">
        <ele>540.4</ele>
        <time>2022-06-26T05:56:53Z</time>
      </trkpt>
      <trkpt lat="45.95615" lon="4.58865">
        <ele>540.4</ele>
        <time>2022-06-26T05:56:54Z</time>
      </trkpt>
      <trkpt lat="45.95609" lon="4.58866">
        <ele>540.4</ele>
        <time>2022-06-26T05:56:55Z</time>
      </trkpt>
      <trkpt lat="45.95603" lon="4.58867">
        <ele>540.4</ele>
        <time>2022-06-26T05:56:56Z</time>
      </trkpt>
      <trkpt lat="45.95597" lon="4.58867">
        <ele>540.2</ele>
        <time>2022-06-26T05:56:57Z</time>
      </trkpt>
      <trkpt lat="45.95591" lon="4.58867">
        <ele>539.8</ele>
        <time>2022-06-26T05:56:58Z</time>
      </trkpt>
      <trkpt lat="45.95585" lon="4.58867">
        <ele>539.2</ele>
        <time>2022-06-26T05:57:00Z</time>
      </trkpt>
      <trkpt lat="45.95579" lon="4.58867">
        <ele>539</ele>
        <time>2022-06-26T05:57:01Z</time>
      </trkpt>
      <trkpt lat="45.95573" lon="4.58867">
        <ele>539</ele>
        <time>2022-06-26T05:57:02Z</time>
      </trkpt>
      <trkpt lat="45.95567" lon="4.58867">
        <ele>539</ele>
        <time>2022-06-26T05:57:03Z</time>
      </trkpt>
      <trkpt lat="45.95561" lon="4.58866">
        <ele>539</ele>
        <time>2022-06-26T05:57:04Z</time>
      </trkpt>
      <trkpt lat="45.95555" lon="4.58865">
        <ele>539</ele>
        <time>2022-06-26T05:57:05Z</time>
      </trkpt>
      <trkpt lat="45.9555" lon="4.58864">
        <ele>538.8</ele>
        <time>2022-06-26T05:57:06Z</time>
      </trkpt>
      <trkpt lat="45.95545" lon="4.58862">
        <ele>538.8</ele>
        <time>2022-06-26T05:57:07Z</time>
      </trkpt>
      <trkpt lat="45.9554" lon="4.5886">
        <ele>538.8</ele>
        <time>2022-06-26T05:57:08Z</time>
      </trkpt>
      <trkpt lat="45.95535" lon="4.58857">
        <ele>539.2</ele>
        <time>2022-06-26T05:57:09Z</time>
      </trkpt>
      <trkpt lat="45.95531" lon="4.58853">
        <ele>539.2</ele>
        <time>2022-06-26T05:57:10Z</time>
      </trkpt>
      <trkpt lat="45.95527" lon="4.58848">
        <ele>539.2</ele>
        <time>2022-06-26T05:57:11Z</time>
      </trkpt>
      <trkpt lat="45.95523" lon="4.58843">
        <ele>539.2</ele>
        <time>2022-06-26T05:57:12Z</time>
      </trkpt>
      <trkpt lat="45.95519" lon="4.58837">
        <ele>539.2</ele>
        <time>2022-06-26T05:57:13Z</time>
      </trkpt>
      <trkpt lat="45.95515" lon="4.58832">
        <ele>539.4</ele>
        <time>2022-06-26T05:57:14Z</time>
      </trkpt>
      <trkpt lat="45.95512" lon="4.58826">
        <ele>539.4</ele>
        <time>2022-06-26T05:57:15Z</time>
      </trkpt>
      <trkpt lat="45.95509" lon="4.5882">
        <ele>539.4</ele>
        <time>2022-06-26T05:57:16Z</time>
      </trkpt>
      <trkpt lat="45.95506" lon="4.58814">
        <ele>539.4</ele>
        <time>2022-06-26T05:57:17Z</time>
      </trkpt>
      <trkpt lat="45.95503" lon="4.58808">
        <ele>539.4</ele>
        <time>2022-06-26T05:57:18Z</time>
      </trkpt>
      <trkpt lat="45.955" lon="4.58802">
        <ele>539.4</ele>
        <time>2022-06-26T05:57:19Z</time>
      </trkpt>
      <trkpt lat="45.95498" lon="4.58795">
        <ele>539.8</ele>
        <time>2022-06-26T05:57:20Z</time>
      </trkpt>
      <trkpt lat="45.95495" lon="4.58789">
        <ele>539.8</ele>
        <time>2022-06-26T05:57:21Z</time>
      </trkpt>
      <trkpt lat="45.95493" lon="4.58782">
        <ele>540</ele>
        <time>2022-06-26T05:57:22Z</time>
      </trkpt>
      <trkpt lat="45.95492" lon="4.58775">
        <ele>540</ele>
        <time>2022-06-26T05:57:23Z</time>
      </trkpt>
      <trkpt lat="45.95491" lon="4.58768">
        <ele>540</ele>
        <time>2022-06-26T05:57:24Z</time>
      </trkpt>
      <trkpt lat="45.95491" lon="4.5876">
        <ele>540</ele>
        <time>2022-06-26T05:57:25Z</time>
      </trkpt>
      <trkpt lat="45.95492" lon="4.58752">
        <ele>539.6</ele>
        <time>2022-06-26T05:57:26Z</time>
      </trkpt>
      <trkpt lat="45.95493" lon="4.58745">
        <ele>539.6</ele>
        <time>2022-06-26T05:57:27Z</time>
      </trkpt>
      <trkpt lat="45.95494" lon="4.58738">
        <ele>539.6</ele>
        <time>2022-06-26T05:57:28Z</time>
      </trkpt>
      <trkpt lat="45.95494" lon="4.58731">
        <ele>539.6</ele>
        <time>2022-06-26T05:57:29Z</time>
      </trkpt>
      <trkpt lat="45.95494" lon="4.58725">
        <ele>539.6</ele>
        <time>2022-06-26T05:57:30Z</time>
      </trkpt>
      <trkpt lat="45.95494" lon="4.58718">
        <ele>539.6</ele>
        <time>2022-06-26T05:57:31Z</time>
      </trkpt>
      <trkpt lat="45.95494" lon="4.58711">
        <ele>539.6</ele>
        <time>2022-06-26T05:57:32Z</time>
      </trkpt>
      <trkpt lat="45.95494" lon="4.58704">
        <ele>540</ele>
        <time>2022-06-26T05:57:33Z</time>
      </trkpt>
      <trkpt lat="45.95493" lon="4.58696">
        <ele>540.2</ele>
        <time>2022-06-26T05:57:34Z</time>
      </trkpt>
      <trkpt lat="45.95493" lon="4.58689">
        <ele>540.2</ele>
        <time>2022-06-26T05:57:35Z</time>
      </trkpt>
      <trkpt lat="45.95492" lon="4.58682">
        <ele>540.2</ele>
        <time>2022-06-26T05:57:36Z</time>
      </trkpt>
      <trkpt lat="45.95491" lon="4.58675">
        <ele>540.2</ele>
        <time>2022-06-26T05:57:37Z</time>
      </trkpt>
      <trkpt lat="45.9549" lon="4.58667">
        <ele>540.2</ele>
        <time>2022-06-26T05:57:38Z</time>
      </trkpt>
      <trkpt lat="45.95489" lon="4.5866">
        <ele>540.2</ele>
        <time>2022-06-26T05:57:39Z</time>
      </trkpt>
      <trkpt lat="45.95488" lon="4.58653">
        <ele>540.2</ele>
        <time>2022-06-26T05:57:40Z</time>
      </trkpt>
      <trkpt lat="45.95487" lon="4.58646">
        <ele>540.2</ele>
        <time>2022-06-26T05:57:41Z</time>
      </trkpt>
      <trkpt lat="45.95486" lon="4.5864">
        <ele>540.2</ele>
        <time>2022-06-26T05:57:42Z</time>
      </trkpt>
      <trkpt lat="45.95485" lon="4.58633">
        <ele>540.4</ele>
        <time>2022-06-26T05:57:43Z</time>
      </trkpt>
      <trkpt lat="45.95483" lon="4.58625">
        <ele>540.4</ele>
        <time>2022-06-26T05:57:44Z</time>
      </trkpt>
      <trkpt lat="45.95482" lon="4.58618">
        <ele>540.8</ele>
        <time>2022-06-26T05:57:45Z</time>
      </trkpt>
      <trkpt lat="45.95481" lon="4.58611">
        <ele>540.8</ele>
        <time>2022-06-26T05:57:46Z</time>
      </trkpt>
      <trkpt lat="45.95479" lon="4.58604">
        <ele>540.8</ele>
        <time>2022-06-26T05:57:47Z</time>
      </trkpt>
      <trkpt lat="45.95477" lon="4.58597">
        <ele>541</ele>
        <time>2022-06-26T05:57:48Z</time>
      </trkpt>
      <trkpt lat="45.95476" lon="4.5859">
        <ele>541</ele>
        <time>2022-06-26T05:57:49Z</time>
      </trkpt>
      <trkpt lat="45.95474" lon="4.58583">
        <ele>541</ele>
        <time>2022-06-26T05:57:50Z</time>
      </trkpt>
      <trkpt lat="45.95471" lon="4.58576">
        <ele>540.6</ele>
        <time>2022-06-26T05:57:51Z</time>
      </trkpt>
      <trkpt lat="45.95469" lon="4.58569">
        <ele>540.6</ele>
        <time>2022-06-26T05:57:52Z</time>
      </trkpt>
      <trkpt lat="45.95466" lon="4.58562">
        <ele>540.6</ele>
        <time>2022-06-26T05:57:53Z</time>
      </trkpt>
      <trkpt lat="45.95463" lon="4.58555">
        <ele>541</ele>
        <time>2022-06-26T05:57:54Z</time>
      </trkpt>
      <trkpt lat="45.9546" lon="4.58549">
        <ele>541</ele>
        <time>2022-06-26T05:57:55Z</time>
      </trkpt>
      <trkpt lat="45.95457" lon="4.58542">
        <ele>541</ele>
        <time>2022-06-26T05:57:56Z</time>
      </trkpt>
      <trkpt lat="45.95454" lon="4.58536">
        <ele>540.8</ele>
        <time>2022-06-26T05:57:57Z</time>
      </trkpt>
      <trkpt lat="45.95451" lon="4.58529">
        <ele>540.8</ele>
        <time>2022-06-26T05:57:58Z</time>
      </trkpt>
      <trkpt lat="45.95447" lon="4.58523">
        <ele>540.8</ele>
        <time>2022-06-26T05:57:59Z</time>
      </trkpt>
      <trkpt lat="45.95443" lon="4.58518">
        <ele>540.8</ele>
        <time>2022-06-26T05:58:00Z</time>
      </trkpt>
      <trkpt lat="45.95439" lon="4.58512">
        <ele>540.6</ele>
        <time>2022-06-26T05:58:01Z</time>
      </trkpt>
      <trkpt lat="45.95434" lon="4.58507">
        <ele>540.6</ele>
        <time>2022-06-26T05:58:02Z</time>
      </trkpt>
      <trkpt lat="45.9543" lon="4.58501">
        <ele>540.6</ele>
        <time>2022-06-26T05:58:03Z</time>
      </trkpt>
      <trkpt lat="45.95426" lon="4.58496">
        <ele>540.6</ele>
        <time>2022-06-26T05:58:04Z</time>
      </trkpt>
      <trkpt lat="45.95421" lon="4.58491">
        <ele>540.6</ele>
        <time>2022-06-26T05:58:05Z</time>
      </trkpt>
      <trkpt lat="45.95417" lon="4.58486">
        <ele>540.6</ele>
        <time>2022-06-26T05:58:06Z</time>
      </trkpt>
      <trkpt lat="45.95412" lon="4.58481">
        <ele>540.6</ele>
        <time>2022-06-26T05:58:07Z</time>
      </trkpt>
      <trkpt lat="45.95408" lon="4.58476">
        <ele>540.6</ele>
        <time>2022-06-26T05:58:08Z</time>
      </trkpt>
      <trkpt lat="45.95404" lon="4.5847">
        <ele>540.8</ele>
        <time>2022-06-26T05:58:09Z</time>
      </trkpt>
      <trkpt lat="45.95399" lon="4.58465">
        <ele>540.8</ele>
        <time>2022-06-26T05:58:10Z</time>
      </trkpt>
      <trkpt lat="45.95395" lon="4.58461">
        <ele>540.8</ele>
        <time>2022-06-26T05:58:11Z</time>
      </trkpt>
      <trkpt lat="45.95391" lon="4.58456">
        <ele>540.8</ele>
        <time>2022-06-26T05:58:12Z</time>
      </trkpt>
      <trkpt lat="45.95387" lon="4.58451">
        <ele>540.4</ele>
        <time>2022-06-26T05:58:13Z</time>
      </trkpt>
      <trkpt lat="45.95383" lon="4.58446">
        <ele>540.4</ele>
        <time>2022-06-26T05:58:14Z</time>
      </trkpt>
      <trkpt lat="45.95378" lon="4.58441">
        <ele>540.4</ele>
        <time>2022-06-26T05:58:15Z</time>
      </trkpt>
      <trkpt lat="45.95374" lon="4.58436">
        <ele>540.4</ele>
        <time>2022-06-26T05:58:16Z</time>
      </trkpt>
      <trkpt lat="45.9537" lon="4.58432">
        <ele>540.4</ele>
        <time>2022-06-26T05:58:17Z</time>
      </trkpt>
      <trkpt lat="45.95365" lon="4.58427">
        <ele>540.4</ele>
        <time>2022-06-26T05:58:18Z</time>
      </trkpt>
      <trkpt lat="45.95361" lon="4.58422">
        <ele>540.4</ele>
        <time>2022-06-26T05:58:19Z</time>
      </trkpt>
      <trkpt lat="45.95356" lon="4.58418">
        <ele>540.4</ele>
        <time>2022-06-26T05:58:20Z</time>
      </trkpt>
      <trkpt lat="45.95352" lon="4.58413">
        <ele>540.4</ele>
        <time>2022-06-26T05:58:21Z</time>
      </trkpt>
      <trkpt lat="45.95347" lon="4.58409">
        <ele>540.4</ele>
        <time>2022-06-26T05:58:22Z</time>
      </trkpt>
      <trkpt lat="45.95343" lon="4.58404">
        <ele>540.4</ele>
        <time>2022-06-26T05:58:23Z</time>
      </trkpt>
      <trkpt lat="45.95338" lon="4.584">
        <ele>540.8</ele>
        <time>2022-06-26T05:58:24Z</time>
      </trkpt>
      <trkpt lat="45.95334" lon="4.58395">
        <ele>540.8</ele>
        <time>2022-06-26T05:58:25Z</time>
      </trkpt>
      <trkpt lat="45.95329" lon="4.5839">
        <ele>541</ele>
        <time>2022-06-26T05:58:26Z</time>
      </trkpt>
      <trkpt lat="45.95324" lon="4.58386">
        <ele>541</ele>
        <time>2022-06-26T05:58:27Z</time>
      </trkpt>
      <trkpt lat="45.9532" lon="4.58381">
        <ele>541</ele>
        <time>2022-06-26T05:58:28Z</time>
      </trkpt>
      <trkpt lat="45.95315" lon="4.58377">
        <ele>541</ele>
        <time>2022-06-26T05:58:29Z</time>
      </trkpt>
      <trkpt lat="45.9531" lon="4.58373">
        <ele>541</ele>
        <time>2022-06-26T05:58:30Z</time>
      </trkpt>
      <trkpt lat="45.95305" lon="4.58369">
        <ele>541</ele>
        <time>2022-06-26T05:58:31Z</time>
      </trkpt>
      <trkpt lat="45.953" lon="4.58365">
        <ele>541</ele>
        <time>2022-06-26T05:58:32Z</time>
      </trkpt>
      <trkpt lat="45.95295" lon="4.58362">
        <ele>541</ele>
        <time>2022-06-26T05:58:33Z</time>
      </trkpt>
      <trkpt lat="45.95289" lon="4.58359">
        <ele>541.4</ele>
        <time>2022-06-26T05:58:34Z</time>
      </trkpt>
      <trkpt lat="45.95284" lon="4.58356">
        <ele>541.4</ele>
        <time>2022-06-26T05:58:35Z</time>
      </trkpt>
      <trkpt lat="45.95279" lon="4.58353">
        <ele>541.4</ele>
        <time>2022-06-26T05:58:36Z</time>
      </trkpt>
      <trkpt lat="45.95273" lon="4.5835">
        <ele>541.4</ele>
        <time>2022-06-26T05:58:37Z</time>
      </trkpt>
      <trkpt lat="45.95268" lon="4.58347">
        <ele>541.4</ele>
        <time>2022-06-26T05:58:38Z</time>
      </trkpt>
      <trkpt lat="45.95262" lon="4.58345">
        <ele>541.4</ele>
        <time>2022-06-26T05:58:39Z</time>
      </trkpt>
      <trkpt lat="45.95257" lon="4.58342">
        <ele>541.4</ele>
        <time>2022-06-26T05:58:40Z</time>
      </trkpt>
      <trkpt lat="45.95251" lon="4.5834">
        <ele>540</ele>
        <time>2022-06-26T05:58:41Z</time>
      </trkpt>
      <trkpt lat="45.95246" lon="4.58338">
        <ele>539.6</ele>
        <time>2022-06-26T05:58:42Z</time>
      </trkpt>
      <trkpt lat="45.95241" lon="4.58337">
        <ele>539.6</ele>
        <time>2022-06-26T05:58:43Z</time>
      </trkpt>
      <trkpt lat="45.95235" lon="4.58334">
        <ele>539.6</ele>
        <time>2022-06-26T05:58:44Z</time>
      </trkpt>
      <trkpt lat="45.9523" lon="4.58332">
        <ele>540.2</ele>
        <time>2022-06-26T05:58:45Z</time>
      </trkpt>
      <trkpt lat="45.95224" lon="4.5833">
        <ele>540.6</ele>
        <time>2022-06-26T05:58:46Z</time>
      </trkpt>
      <trkpt lat="45.95213" lon="4.58327">
        <ele>541.4</ele>
        <time>2022-06-26T05:58:47Z</time>
      </trkpt>
      <trkpt lat="45.95207" lon="4.58325">
        <ele>541.6</ele>
        <time>2022-06-26T05:58:49Z</time>
      </trkpt>
      <trkpt lat="45.95202" lon="4.58324">
        <ele>542</ele>
        <time>2022-06-26T05:58:50Z</time>
      </trkpt>
      <trkpt lat="45.95196" lon="4.58323">
        <ele>542.4</ele>
        <time>2022-06-26T05:58:51Z</time>
      </trkpt>
      <trkpt lat="45.9519" lon="4.58321">
        <ele>542.4</ele>
        <time>2022-06-26T05:58:52Z</time>
      </trkpt>
      <trkpt lat="45.95185" lon="4.58321">
        <ele>542.8</ele>
        <time>2022-06-26T05:58:53Z</time>
      </trkpt>
      <trkpt lat="45.95179" lon="4.5832">
        <ele>543</ele>
        <time>2022-06-26T05:58:54Z</time>
      </trkpt>
      <trkpt lat="45.95173" lon="4.58319">
        <ele>543.4</ele>
        <time>2022-06-26T05:58:55Z</time>
      </trkpt>
      <trkpt lat="45.95167" lon="4.58318">
        <ele>543.4</ele>
        <time>2022-06-26T05:58:56Z</time>
      </trkpt>
      <trkpt lat="45.95162" lon="4.58317">
        <ele>543.8</ele>
        <time>2022-06-26T05:58:57Z</time>
      </trkpt>
      <trkpt lat="45.95156" lon="4.58316">
        <ele>543.8</ele>
        <time>2022-06-26T05:58:58Z</time>
      </trkpt>
      <trkpt lat="45.9515" lon="4.58315">
        <ele>543.8</ele>
        <time>2022-06-26T05:58:59Z</time>
      </trkpt>
      <trkpt lat="45.95145" lon="4.58315">
        <ele>544</ele>
        <time>2022-06-26T05:59:00Z</time>
      </trkpt>
      <trkpt lat="45.95139" lon="4.58314">
        <ele>544</ele>
        <time>2022-06-26T05:59:01Z</time>
      </trkpt>
      <trkpt lat="45.95133" lon="4.58314">
        <ele>544</ele>
        <time>2022-06-26T05:59:02Z</time>
      </trkpt>
      <trkpt lat="45.95128" lon="4.58313">
        <ele>544</ele>
        <time>2022-06-26T05:59:03Z</time>
      </trkpt>
      <trkpt lat="45.95122" lon="4.58313">
        <ele>544</ele>
        <time>2022-06-26T05:59:04Z</time>
      </trkpt>
      <trkpt lat="45.95117" lon="4.58313">
        <ele>544.4</ele>
        <time>2022-06-26T05:59:05Z</time>
      </trkpt>
      <trkpt lat="45.95111" lon="4.58312">
        <ele>544.4</ele>
        <time>2022-06-26T05:59:06Z</time>
      </trkpt>
      <trkpt lat="45.95106" lon="4.58311">
        <ele>544.6</ele>
        <time>2022-06-26T05:59:07Z</time>
      </trkpt>
      <trkpt lat="45.951" lon="4.58311">
        <ele>544.8</ele>
        <time>2022-06-26T05:59:08Z</time>
      </trkpt>
      <trkpt lat="45.95095" lon="4.5831">
        <ele>544.8</ele>
        <time>2022-06-26T05:59:09Z</time>
      </trkpt>
      <trkpt lat="45.9509" lon="4.58309">
        <ele>544.8</ele>
        <time>2022-06-26T05:59:10Z</time>
      </trkpt>
      <trkpt lat="45.95084" lon="4.58309">
        <ele>544.8</ele>
        <time>2022-06-26T05:59:11Z</time>
      </trkpt>
      <trkpt lat="45.95079" lon="4.58308">
        <ele>544.8</ele>
        <time>2022-06-26T05:59:12Z</time>
      </trkpt>
      <trkpt lat="45.95074" lon="4.58308">
        <ele>545.2</ele>
        <time>2022-06-26T05:59:13Z</time>
      </trkpt>
      <trkpt lat="45.95069" lon="4.58307">
        <ele>545.4</ele>
        <time>2022-06-26T05:59:14Z</time>
      </trkpt>
      <trkpt lat="45.95064" lon="4.58306">
        <ele>545.4</ele>
        <time>2022-06-26T05:59:15Z</time>
      </trkpt>
      <trkpt lat="45.95059" lon="4.58305">
        <ele>545</ele>
        <time>2022-06-26T05:59:16Z</time>
      </trkpt>
      <trkpt lat="45.95054" lon="4.58305">
        <ele>544.4</ele>
        <time>2022-06-26T05:59:17Z</time>
      </trkpt>
      <trkpt lat="45.95049" lon="4.58304">
        <ele>543.8</ele>
        <time>2022-06-26T05:59:18Z</time>
      </trkpt>
      <trkpt lat="45.95044" lon="4.58304">
        <ele>544</ele>
        <time>2022-06-26T05:59:19Z</time>
      </trkpt>
      <trkpt lat="45.95039" lon="4.58304">
        <ele>544</ele>
        <time>2022-06-26T05:59:20Z</time>
      </trkpt>
      <trkpt lat="45.95035" lon="4.58303">
        <ele>544</ele>
        <time>2022-06-26T05:59:21Z</time>
      </trkpt>
      <trkpt lat="45.95031" lon="4.58302">
        <ele>544</ele>
        <time>2022-06-26T05:59:22Z</time>
      </trkpt>
      <trkpt lat="45.95027" lon="4.58302">
        <ele>543.8</ele>
        <time>2022-06-26T05:59:23Z</time>
      </trkpt>
      <trkpt lat="45.95023" lon="4.58302">
        <ele>543.4</ele>
        <time>2022-06-26T05:59:24Z</time>
      </trkpt>
      <trkpt lat="45.95018" lon="4.58301">
        <ele>543</ele>
        <time>2022-06-26T05:59:25Z</time>
      </trkpt>
      <trkpt lat="45.95016" lon="4.58302">
        <ele>543.2</ele>
        <time>2022-06-26T05:59:26Z</time>
      </trkpt>
      <trkpt lat="45.95014" lon="4.58302">
        <ele>549.4</ele>
        <time>2022-06-26T06:00:30Z</time>
      </trkpt>
      <trkpt lat="45.95011" lon="4.58302">
        <ele>549.4</ele>
        <time>2022-06-26T06:00:31Z</time>
      </trkpt>
      <trkpt lat="45.95009" lon="4.58302">
        <ele>549.4</ele>
        <time>2022-06-26T06:00:32Z</time>
      </trkpt>
      <trkpt lat="45.95006" lon="4.58301">
        <ele>549.4</ele>
        <time>2022-06-26T06:00:33Z</time>
      </trkpt>
      <trkpt lat="45.95003" lon="4.583">
        <ele>549.4</ele>
        <time>2022-06-26T06:00:34Z</time>
      </trkpt>
      <trkpt lat="45.95" lon="4.58299">
        <ele>549.4</ele>
        <time>2022-06-26T06:00:35Z</time>
      </trkpt>
      <trkpt lat="45.94997" lon="4.58299">
        <ele>549</ele>
        <time>2022-06-26T06:00:36Z</time>
      </trkpt>
      <trkpt lat="45.94994" lon="4.58299">
        <ele>549</ele>
        <time>2022-06-26T06:00:37Z</time>
      </trkpt>
      <trkpt lat="45.9499" lon="4.58299">
        <ele>548.8</ele>
        <time>2022-06-26T06:00:38Z</time>
      </trkpt>
      <trkpt lat="45.94987" lon="4.58299">
        <ele>548.8</ele>
        <time>2022-06-26T06:00:39Z</time>
      </trkpt>
      <trkpt lat="45.94984" lon="4.58299">
        <ele>548.2</ele>
        <time>2022-06-26T06:00:40Z</time>
      </trkpt>
      <trkpt lat="45.9498" lon="4.58299">
        <ele>548.2</ele>
        <time>2022-06-26T06:00:41Z</time>
      </trkpt>
      <trkpt lat="45.94976" lon="4.583">
        <ele>548.2</ele>
        <time>2022-06-26T06:00:42Z</time>
      </trkpt>
      <trkpt lat="45.94973" lon="4.583">
        <ele>547.8</ele>
        <time>2022-06-26T06:00:43Z</time>
      </trkpt>
      <trkpt lat="45.94969" lon="4.58301">
        <ele>547.6</ele>
        <time>2022-06-26T06:00:44Z</time>
      </trkpt>
      <trkpt lat="45.94965" lon="4.58302">
        <ele>547.2</ele>
        <time>2022-06-26T06:00:45Z</time>
      </trkpt>
      <trkpt lat="45.94961" lon="4.58303">
        <ele>546.8</ele>
        <time>2022-06-26T06:00:46Z</time>
      </trkpt>
      <trkpt lat="45.94957" lon="4.58304">
        <ele>546.8</ele>
        <time>2022-06-26T06:00:47Z</time>
      </trkpt>
      <trkpt lat="45.94953" lon="4.58306">
        <ele>546.6</ele>
        <time>2022-06-26T06:00:48Z</time>
      </trkpt>
      <trkpt lat="45.94949" lon="4.58307">
        <ele>546.6</ele>
        <time>2022-06-26T06:00:49Z</time>
      </trkpt>
      <trkpt lat="45.94945" lon="4.58309">
        <ele>546.6</ele>
        <time>2022-06-26T06:00:50Z</time>
      </trkpt>
      <trkpt lat="45.94941" lon="4.5831">
        <ele>546.6</ele>
        <time>2022-06-26T06:00:51Z</time>
      </trkpt>
      <trkpt lat="45.94937" lon="4.58313">
        <ele>547</ele>
        <time>2022-06-26T06:00:52Z</time>
      </trkpt>
      <trkpt lat="45.94933" lon="4.58315">
        <ele>547</ele>
        <time>2022-06-26T06:00:53Z</time>
      </trkpt>
      <trkpt lat="45.9493" lon="4.58318">
        <ele>547</ele>
        <time>2022-06-26T06:00:54Z</time>
      </trkpt>
      <trkpt lat="45.94926" lon="4.5832">
        <ele>547.2</ele>
        <time>2022-06-26T06:00:55Z</time>
      </trkpt>
      <trkpt lat="45.94923" lon="4.58322">
        <ele>547.2</ele>
        <time>2022-06-26T06:00:56Z</time>
      </trkpt>
      <trkpt lat="45.94919" lon="4.58324">
        <ele>547.4</ele>
        <time>2022-06-26T06:00:57Z</time>
      </trkpt>
      <trkpt lat="45.94917" lon="4.58326">
        <ele>547.4</ele>
        <time>2022-06-26T06:00:58Z</time>
      </trkpt>
      <trkpt lat="45.94914" lon="4.58328">
        <ele>547.8</ele>
        <time>2022-06-26T06:00:59Z</time>
      </trkpt>
      <trkpt lat="45.94912" lon="4.58329">
        <ele>547.8</ele>
        <time>2022-06-26T06:01:00Z</time>
      </trkpt>
      <trkpt lat="45.94909" lon="4.5833">
        <ele>548</ele>
        <time>2022-06-26T06:01:01Z</time>
      </trkpt>
      <trkpt lat="45.94908" lon="4.58331">
        <ele>548</ele>
        <time>2022-06-26T06:01:02Z</time>
      </trkpt>
      <trkpt lat="45.94906" lon="4.58332">
        <ele>548</ele>
        <time>2022-06-26T06:01:03Z</time>
      </trkpt>
      <trkpt lat="45.94904" lon="4.58332">
        <ele>548</ele>
        <time>2022-06-26T06:01:04Z</time>
      </trkpt>
      <trkpt lat="45.94902" lon="4.58332">
        <ele>548</ele>
        <time>2022-06-26T06:01:05Z</time>
      </trkpt>
      <trkpt lat="45.94901" lon="4.58331">
        <ele>548</ele>
        <time>2022-06-26T06:01:06Z</time>
      </trkpt>
      <trkpt lat="45.94899" lon="4.58329">
        <ele>548</ele>
        <time>2022-06-26T06:01:07Z</time>
      </trkpt>
      <trkpt lat="45.94898" lon="4.58326">
        <ele>548</ele>
        <time>2022-06-26T06:01:08Z</time>
      </trkpt>
      <trkpt lat="45.94898" lon="4.58323">
        <ele>548</ele>
        <time>2022-06-26T06:01:09Z</time>
      </trkpt>
      <trkpt lat="45.94897" lon="4.58319">
        <ele>548</ele>
        <time>2022-06-26T06:01:10Z</time>
      </trkpt>
      <trkpt lat="45.94897" lon="4.58315">
        <ele>548.2</ele>
        <time>2022-06-26T06:01:11Z</time>
      </trkpt>
      <trkpt lat="45.94896" lon="4.58311">
        <ele>548.2</ele>
        <time>2022-06-26T06:01:12Z</time>
      </trkpt>
      <trkpt lat="45.94894" lon="4.58307">
        <ele>548</ele>
        <time>2022-06-26T06:01:13Z</time>
      </trkpt>
      <trkpt lat="45.94892" lon="4.58305">
        <ele>548</ele>
        <time>2022-06-26T06:01:14Z</time>
      </trkpt>
      <trkpt lat="45.9489" lon="4.58303">
        <ele>547.8</ele>
        <time>2022-06-26T06:01:15Z</time>
      </trkpt>
      <trkpt lat="45.94888" lon="4.58302">
        <ele>547.8</ele>
        <time>2022-06-26T06:01:16Z</time>
      </trkpt>
      <trkpt lat="45.94886" lon="4.58302">
        <ele>547.8</ele>
        <time>2022-06-26T06:01:17Z</time>
      </trkpt>
      <trkpt lat="45.94884" lon="4.58302">
        <ele>548.4</ele>
        <time>2022-06-26T06:01:18Z</time>
      </trkpt>
      <trkpt lat="45.94883" lon="4.58304">
        <ele>548.4</ele>
        <time>2022-06-26T06:01:19Z</time>
      </trkpt>
      <trkpt lat="45.94881" lon="4.58305">
        <ele>548.4</ele>
        <time>2022-06-26T06:01:20Z</time>
      </trkpt>
      <trkpt lat="45.9488" lon="4.58306">
        <ele>548.6</ele>
        <time>2022-06-26T06:01:21Z</time>
      </trkpt>
      <trkpt lat="45.94879" lon="4.58306">
        <ele>547.8</ele>
        <time>2022-06-26T06:01:22Z</time>
      </trkpt>
      <trkpt lat="45.94878" lon="4.58307">
        <ele>547.8</ele>
        <time>2022-06-26T06:01:23Z</time>
      </trkpt>
      <trkpt lat="45.94876" lon="4.58307">
        <ele>548.2</ele>
        <time>2022-06-26T06:01:24Z</time>
      </trkpt>
      <trkpt lat="45.94875" lon="4.58307">
        <ele>548.6</ele>
        <time>2022-06-26T06:01:25Z</time>
      </trkpt>
      <trkpt lat="45.94873" lon="4.58306">
        <ele>549.2</ele>
        <time>2022-06-26T06:01:26Z</time>
      </trkpt>
      <trkpt lat="45.94871" lon="4.58305">
        <ele>549.6</ele>
        <time>2022-06-26T06:01:27Z</time>
      </trkpt>
      <trkpt lat="45.94869" lon="4.58304">
        <ele>549.6</ele>
        <time>2022-06-26T06:01:28Z</time>
      </trkpt>
      <trkpt lat="45.94868" lon="4.58303">
        <ele>549.6</ele>
        <time>2022-06-26T06:01:29Z</time>
      </trkpt>
      <trkpt lat="45.94867" lon="4.583">
        <ele>549.6</ele>
        <time>2022-06-26T06:01:30Z</time>
      </trkpt>
      <trkpt lat="45.94866" lon="4.58298">
        <ele>550</ele>
        <time>2022-06-26T06:01:31Z</time>
      </trkpt>
      <trkpt lat="45.94864" lon="4.58295">
        <ele>549.6</ele>
        <time>2022-06-26T06:01:32Z</time>
      </trkpt>
      <trkpt lat="45.94863" lon="4.58292">
        <ele>549.6</ele>
        <time>2022-06-26T06:01:33Z</time>
      </trkpt>
      <trkpt lat="45.94862" lon="4.5829">
        <ele>549.4</ele>
        <time>2022-06-26T06:01:34Z</time>
      </trkpt>
      <trkpt lat="45.94861" lon="4.58288">
        <ele>549.6</ele>
        <time>2022-06-26T06:01:35Z</time>
      </trkpt>
      <trkpt lat="45.94861" lon="4.58285">
        <ele>550</ele>
        <time>2022-06-26T06:01:36Z</time>
      </trkpt>
      <trkpt lat="45.9486" lon="4.58283">
        <ele>550</ele>
        <time>2022-06-26T06:01:37Z</time>
      </trkpt>
      <trkpt lat="45.9486" lon="4.5828">
        <ele>550.6</ele>
        <time>2022-06-26T06:01:38Z</time>
      </trkpt>
      <trkpt lat="45.9486" lon="4.58277">
        <ele>550</ele>
        <time>2022-06-26T06:01:39Z</time>
      </trkpt>
      <trkpt lat="45.9486" lon="4.58274">
        <ele>550</ele>
        <time>2022-06-26T06:01:40Z</time>
      </trkpt>
      <trkpt lat="45.94861" lon="4.58272">
        <ele>550</ele>
        <time>2022-06-26T06:01:41Z</time>
      </trkpt>
      <trkpt lat="45.94862" lon="4.5827">
        <ele>550</ele>
        <time>2022-06-26T06:01:42Z</time>
      </trkpt>
      <trkpt lat="45.94862" lon="4.58268">
        <ele>549.4</ele>
        <time>2022-06-26T06:01:43Z</time>
      </trkpt>
      <trkpt lat="45.94863" lon="4.58267">
        <ele>549</ele>
        <time>2022-06-26T06:01:44Z</time>
      </trkpt>
      <trkpt lat="45.94862" lon="4.58268">
        <ele>548</ele>
        <time>2022-06-26T06:01:45Z</time>
      </trkpt>
      <trkpt lat="45.94859" lon="4.58277">
        <ele>549.4</ele>
        <time>2022-06-26T06:01:49Z</time>
      </trkpt>
      <trkpt lat="45.94858" lon="4.5828">
        <ele>549.6</ele>
        <time>2022-06-26T06:01:50Z</time>
      </trkpt>
      <trkpt lat="45.94858" lon="4.58283">
        <ele>549.6</ele>
        <time>2022-06-26T06:01:51Z</time>
      </trkpt>
      <trkpt lat="45.94858" lon="4.58286">
        <ele>549.6</ele>
        <time>2022-06-26T06:01:52Z</time>
      </trkpt>
      <trkpt lat="45.94859" lon="4.58289">
        <ele>549.6</ele>
        <time>2022-06-26T06:01:53Z</time>
      </trkpt>
      <trkpt lat="45.94859" lon="4.58291">
        <ele>549.6</ele>
        <time>2022-06-26T06:01:54Z</time>
      </trkpt>
      <trkpt lat="45.94858" lon="4.58293">
        <ele>549.6</ele>
        <time>2022-06-26T06:01:55Z</time>
      </trkpt>
      <trkpt lat="45.94856" lon="4.58294">
        <ele>549.6</ele>
        <time>2022-06-26T06:01:56Z</time>
      </trkpt>
      <trkpt lat="45.94854" lon="4.58295">
        <ele>550</ele>
        <time>2022-06-26T06:01:57Z</time>
      </trkpt>
      <trkpt lat="45.94852" lon="4.58296">
        <ele>550.2</ele>
        <time>2022-06-26T06:01:58Z</time>
      </trkpt>
      <trkpt lat="45.9485" lon="4.58296">
        <ele>550.6</ele>
        <time>2022-06-26T06:01:59Z</time>
      </trkpt>
      <trkpt lat="45.94848" lon="4.58297">
        <ele>550.8</ele>
        <time>2022-06-26T06:02:00Z</time>
      </trkpt>
      <trkpt lat="45.94847" lon="4.58297">
        <ele>550.8</ele>
        <time>2022-06-26T06:02:01Z</time>
      </trkpt>
      <trkpt lat="45.94845" lon="4.58297">
        <ele>551.2</ele>
        <time>2022-06-26T06:02:02Z</time>
      </trkpt>
      <trkpt lat="45.94844" lon="4.58297">
        <ele>551.4</ele>
        <time>2022-06-26T06:02:03Z</time>
      </trkpt>
      <trkpt lat="45.94842" lon="4.58297">
        <ele>551.4</ele>
        <time>2022-06-26T06:02:04Z</time>
      </trkpt>
      <trkpt lat="45.94841" lon="4.58297">
        <ele>551.8</ele>
        <time>2022-06-26T06:02:05Z</time>
      </trkpt>
      <trkpt lat="45.94839" lon="4.58296">
        <ele>551.8</ele>
        <time>2022-06-26T06:02:06Z</time>
      </trkpt>
      <trkpt lat="45.94837" lon="4.58296">
        <ele>551.8</ele>
        <time>2022-06-26T06:02:07Z</time>
      </trkpt>
      <trkpt lat="45.94836" lon="4.58296">
        <ele>552.2</ele>
        <time>2022-06-26T06:02:08Z</time>
      </trkpt>
      <trkpt lat="45.94834" lon="4.58297">
        <ele>552.2</ele>
        <time>2022-06-26T06:02:09Z</time>
      </trkpt>
      <trkpt lat="45.94832" lon="4.58297">
        <ele>552.4</ele>
        <time>2022-06-26T06:02:10Z</time>
      </trkpt>
      <trkpt lat="45.94831" lon="4.58297">
        <ele>552.4</ele>
        <time>2022-06-26T06:02:11Z</time>
      </trkpt>
      <trkpt lat="45.94828" lon="4.58295">
        <ele>552.8</ele>
        <time>2022-06-26T06:02:12Z</time>
      </trkpt>
      <trkpt lat="45.94826" lon="4.58295">
        <ele>552.8</ele>
        <time>2022-06-26T06:02:13Z</time>
      </trkpt>
      <trkpt lat="45.94824" lon="4.58294">
        <ele>552.8</ele>
        <time>2022-06-26T06:02:14Z</time>
      </trkpt>
      <trkpt lat="45.94821" lon="4.58294">
        <ele>552.8</ele>
        <time>2022-06-26T06:02:15Z</time>
      </trkpt>
      <trkpt lat="45.94819" lon="4.58293">
        <ele>552.8</ele>
        <time>2022-06-26T06:02:16Z</time>
      </trkpt>
      <trkpt lat="45.94816" lon="4.58292">
        <ele>552.8</ele>
        <time>2022-06-26T06:02:17Z</time>
      </trkpt>
      <trkpt lat="45.94813" lon="4.58291">
        <ele>552</ele>
        <time>2022-06-26T06:02:18Z</time>
      </trkpt>
      <trkpt lat="45.9481" lon="4.58289">
        <ele>552</ele>
        <time>2022-06-26T06:02:19Z</time>
      </trkpt>
      <trkpt lat="45.94807" lon="4.58288">
        <ele>551.4</ele>
        <time>2022-06-26T06:02:20Z</time>
      </trkpt>
      <trkpt lat="45.94804" lon="4.58287">
        <ele>551.8</ele>
        <time>2022-06-26T06:02:21Z</time>
      </trkpt>
      <trkpt lat="45.94801" lon="4.58286">
        <ele>552.4</ele>
        <time>2022-06-26T06:02:22Z</time>
      </trkpt>
      <trkpt lat="45.94798" lon="4.58285">
        <ele>553.6</ele>
        <time>2022-06-26T06:02:23Z</time>
      </trkpt>
      <trkpt lat="45.94796" lon="4.58284">
        <ele>554</ele>
        <time>2022-06-26T06:02:24Z</time>
      </trkpt>
      <trkpt lat="45.94793" lon="4.58282">
        <ele>554.4</ele>
        <time>2022-06-26T06:02:25Z</time>
      </trkpt>
      <trkpt lat="45.9479" lon="4.58281">
        <ele>554.4</ele>
        <time>2022-06-26T06:02:26Z</time>
      </trkpt>
      <trkpt lat="45.94788" lon="4.58278">
        <ele>554.4</ele>
        <time>2022-06-26T06:02:27Z</time>
      </trkpt>
      <trkpt lat="45.94786" lon="4.58276">
        <ele>555.4</ele>
        <time>2022-06-26T06:02:28Z</time>
      </trkpt>
      <trkpt lat="45.94784" lon="4.58274">
        <ele>555.8</ele>
        <time>2022-06-26T06:02:29Z</time>
      </trkpt>
      <trkpt lat="45.94781" lon="4.58272">
        <ele>556.8</ele>
        <time>2022-06-26T06:02:30Z</time>
      </trkpt>
      <trkpt lat="45.94779" lon="4.5827">
        <ele>556.4</ele>
        <time>2022-06-26T06:02:31Z</time>
      </trkpt>
      <trkpt lat="45.94777" lon="4.58268">
        <ele>556.4</ele>
        <time>2022-06-26T06:02:32Z</time>
      </trkpt>
      <trkpt lat="45.94775" lon="4.58267">
        <ele>556.4</ele>
        <time>2022-06-26T06:02:33Z</time>
      </trkpt>
      <trkpt lat="45.94774" lon="4.58266">
        <ele>556.4</ele>
        <time>2022-06-26T06:02:34Z</time>
      </trkpt>
      <trkpt lat="45.94771" lon="4.58265">
        <ele>556.8</ele>
        <time>2022-06-26T06:02:35Z</time>
      </trkpt>
      <trkpt lat="45.94769" lon="4.58264">
        <ele>556.8</ele>
        <time>2022-06-26T06:02:36Z</time>
      </trkpt>
      <trkpt lat="45.94767" lon="4.58264">
        <ele>557.2</ele>
        <time>2022-06-26T06:02:37Z</time>
      </trkpt>
      <trkpt lat="45.94766" lon="4.58263">
        <ele>557.2</ele>
        <time>2022-06-26T06:02:38Z</time>
      </trkpt>
      <trkpt lat="45.94764" lon="4.58262">
        <ele>557.2</ele>
        <time>2022-06-26T06:02:39Z</time>
      </trkpt>
      <trkpt lat="45.94763" lon="4.58262">
        <ele>557.4</ele>
        <time>2022-06-26T06:02:40Z</time>
      </trkpt>
      <trkpt lat="45.94762" lon="4.5826">
        <ele>557.4</ele>
        <time>2022-06-26T06:02:41Z</time>
      </trkpt>
      <trkpt lat="45.9476" lon="4.58259">
        <ele>557.4</ele>
        <time>2022-06-26T06:02:42Z</time>
      </trkpt>
      <trkpt lat="45.94758" lon="4.58258">
        <ele>557.4</ele>
        <time>2022-06-26T06:02:43Z</time>
      </trkpt>
      <trkpt lat="45.94755" lon="4.58258">
        <ele>557.4</ele>
        <time>2022-06-26T06:02:44Z</time>
      </trkpt>
      <trkpt lat="45.94752" lon="4.58257">
        <ele>557.4</ele>
        <time>2022-06-26T06:02:45Z</time>
      </trkpt>
      <trkpt lat="45.9475" lon="4.58257">
        <ele>557.8</ele>
        <time>2022-06-26T06:02:46Z</time>
      </trkpt>
      <trkpt lat="45.94747" lon="4.58257">
        <ele>557.8</ele>
        <time>2022-06-26T06:02:47Z</time>
      </trkpt>
      <trkpt lat="45.94745" lon="4.58257">
        <ele>557.8</ele>
        <time>2022-06-26T06:02:48Z</time>
      </trkpt>
      <trkpt lat="45.94743" lon="4.58256">
        <ele>557.6</ele>
        <time>2022-06-26T06:02:49Z</time>
      </trkpt>
      <trkpt lat="45.9474" lon="4.58257">
        <ele>557.6</ele>
        <time>2022-06-26T06:02:50Z</time>
      </trkpt>
      <trkpt lat="45.94738" lon="4.58258">
        <ele>558.6</ele>
        <time>2022-06-26T06:02:51Z</time>
      </trkpt>
      <trkpt lat="45.94736" lon="4.58259">
        <ele>558.8</ele>
        <time>2022-06-26T06:02:52Z</time>
      </trkpt>
      <trkpt lat="45.94734" lon="4.58258">
        <ele>558.8</ele>
        <time>2022-06-26T06:02:53Z</time>
      </trkpt>
      <trkpt lat="45.94733" lon="4.58256">
        <ele>558.6</ele>
        <time>2022-06-26T06:02:54Z</time>
      </trkpt>
      <trkpt lat="45.94732" lon="4.58254">
        <ele>558.4</ele>
        <time>2022-06-26T06:02:55Z</time>
      </trkpt>
      <trkpt lat="45.94732" lon="4.58252">
        <ele>558.2</ele>
        <time>2022-06-26T06:02:56Z</time>
      </trkpt>
      <trkpt lat="45.94732" lon="4.5825">
        <ele>558.4</ele>
        <time>2022-06-26T06:02:57Z</time>
      </trkpt>
      <trkpt lat="45.94732" lon="4.58247">
        <ele>558.4</ele>
        <time>2022-06-26T06:02:58Z</time>
      </trkpt>
      <trkpt lat="45.94732" lon="4.58245">
        <ele>558.2</ele>
        <time>2022-06-26T06:02:59Z</time>
      </trkpt>
      <trkpt lat="45.94733" lon="4.58242">
        <ele>558.4</ele>
        <time>2022-06-26T06:03:00Z</time>
      </trkpt>
      <trkpt lat="45.94733" lon="4.5824">
        <ele>558.2</ele>
        <time>2022-06-26T06:03:01Z</time>
      </trkpt>
      <trkpt lat="45.94733" lon="4.58239">
        <ele>558.2</ele>
        <time>2022-06-26T06:03:02Z</time>
      </trkpt>
      <trkpt lat="45.94734" lon="4.58237">
        <ele>558.2</ele>
        <time>2022-06-26T06:03:03Z</time>
      </trkpt>
      <trkpt lat="45.94734" lon="4.58235">
        <ele>558.2</ele>
        <time>2022-06-26T06:03:04Z</time>
      </trkpt>
      <trkpt lat="45.94734" lon="4.58234">
        <ele>558.2</ele>
        <time>2022-06-26T06:03:05Z</time>
      </trkpt>
      <trkpt lat="45.94735" lon="4.58233">
        <ele>558.2</ele>
        <time>2022-06-26T06:03:06Z</time>
      </trkpt>
      <trkpt lat="45.94725" lon="4.58245">
        <ele>549.8</ele>
        <time>2022-06-26T06:11:51Z</time>
      </trkpt>
      <trkpt lat="45.94725" lon="4.58248">
        <ele>549.8</ele>
        <time>2022-06-26T06:11:52Z</time>
      </trkpt>
      <trkpt lat="45.94725" lon="4.58251">
        <ele>549.8</ele>
        <time>2022-06-26T06:11:53Z</time>
      </trkpt>
      <trkpt lat="45.94726" lon="4.58254">
        <ele>549.6</ele>
        <time>2022-06-26T06:11:54Z</time>
      </trkpt>
      <trkpt lat="45.94726" lon="4.58256">
        <ele>549.6</ele>
        <time>2022-06-26T06:11:55Z</time>
      </trkpt>
      <trkpt lat="45.94726" lon="4.58258">
        <ele>549.6</ele>
        <time>2022-06-26T06:11:56Z</time>
      </trkpt>
      <trkpt lat="45.94725" lon="4.5826">
        <ele>549.4</ele>
        <time>2022-06-26T06:11:57Z</time>
      </trkpt>
      <trkpt lat="45.94725" lon="4.58262">
        <ele>549.4</ele>
        <time>2022-06-26T06:11:58Z</time>
      </trkpt>
      <trkpt lat="45.94723" lon="4.58264">
        <ele>549</ele>
        <time>2022-06-26T06:11:59Z</time>
      </trkpt>
      <trkpt lat="45.94721" lon="4.58265">
        <ele>549</ele>
        <time>2022-06-26T06:12:00Z</time>
      </trkpt>
      <trkpt lat="45.94719" lon="4.58266">
        <ele>548.8</ele>
        <time>2022-06-26T06:12:01Z</time>
      </trkpt>
      <trkpt lat="45.94716" lon="4.58266">
        <ele>548.8</ele>
        <time>2022-06-26T06:12:02Z</time>
      </trkpt>
      <trkpt lat="45.94712" lon="4.58266">
        <ele>548.4</ele>
        <time>2022-06-26T06:12:03Z</time>
      </trkpt>
      <trkpt lat="45.94709" lon="4.58266">
        <ele>548.2</ele>
        <time>2022-06-26T06:12:04Z</time>
      </trkpt>
      <trkpt lat="45.94705" lon="4.58266">
        <ele>547.8</ele>
        <time>2022-06-26T06:12:05Z</time>
      </trkpt>
      <trkpt lat="45.94701" lon="4.58266">
        <ele>547.6</ele>
        <time>2022-06-26T06:12:06Z</time>
      </trkpt>
      <trkpt lat="45.94697" lon="4.58267">
        <ele>547.4</ele>
        <time>2022-06-26T06:12:07Z</time>
      </trkpt>
      <trkpt lat="45.94693" lon="4.58267">
        <ele>547</ele>
        <time>2022-06-26T06:12:08Z</time>
      </trkpt>
      <trkpt lat="45.94689" lon="4.58268">
        <ele>546.8</ele>
        <time>2022-06-26T06:12:09Z</time>
      </trkpt>
      <trkpt lat="45.94685" lon="4.58269">
        <ele>546.6</ele>
        <time>2022-06-26T06:12:10Z</time>
      </trkpt>
      <trkpt lat="45.94682" lon="4.58269">
        <ele>546.2</ele>
        <time>2022-06-26T06:12:11Z</time>
      </trkpt>
      <trkpt lat="45.94678" lon="4.5827">
        <ele>545.8</ele>
        <time>2022-06-26T06:12:12Z</time>
      </trkpt>
      <trkpt lat="45.94676" lon="4.5827">
        <ele>545.4</ele>
        <time>2022-06-26T06:12:13Z</time>
      </trkpt>
      <trkpt lat="45.94674" lon="4.58272">
        <ele>545</ele>
        <time>2022-06-26T06:12:14Z</time>
      </trkpt>
      <trkpt lat="45.94672" lon="4.58273">
        <ele>544.6</ele>
        <time>2022-06-26T06:12:15Z</time>
      </trkpt>
      <trkpt lat="45.9467" lon="4.58275">
        <ele>544.6</ele>
        <time>2022-06-26T06:12:16Z</time>
      </trkpt>
      <trkpt lat="45.94667" lon="4.58276">
        <ele>544.2</ele>
        <time>2022-06-26T06:12:17Z</time>
      </trkpt>
      <trkpt lat="45.94665" lon="4.58276">
        <ele>544.2</ele>
        <time>2022-06-26T06:12:18Z</time>
      </trkpt>
      <trkpt lat="45.94662" lon="4.58276">
        <ele>544</ele>
        <time>2022-06-26T06:12:19Z</time>
      </trkpt>
      <trkpt lat="45.94658" lon="4.58276">
        <ele>543.6</ele>
        <time>2022-06-26T06:12:20Z</time>
      </trkpt>
      <trkpt lat="45.94655" lon="4.58276">
        <ele>543.6</ele>
        <time>2022-06-26T06:12:21Z</time>
      </trkpt>
      <trkpt lat="45.94651" lon="4.58277">
        <ele>543.4</ele>
        <time>2022-06-26T06:12:22Z</time>
      </trkpt>
      <trkpt lat="45.94648" lon="4.58278">
        <ele>543.4</ele>
        <time>2022-06-26T06:12:23Z</time>
      </trkpt>
      <trkpt lat="45.94644" lon="4.58279">
        <ele>543</ele>
        <time>2022-06-26T06:12:24Z</time>
      </trkpt>
      <trkpt lat="45.94639" lon="4.5828">
        <ele>543</ele>
        <time>2022-06-26T06:12:25Z</time>
      </trkpt>
      <trkpt lat="45.94635" lon="4.58281">
        <ele>542.8</ele>
        <time>2022-06-26T06:12:26Z</time>
      </trkpt>
      <trkpt lat="45.9463" lon="4.58283">
        <ele>542.6</ele>
        <time>2022-06-26T06:12:27Z</time>
      </trkpt>
      <trkpt lat="45.94625" lon="4.58285">
        <ele>542.2</ele>
        <time>2022-06-26T06:12:28Z</time>
      </trkpt>
      <trkpt lat="45.9462" lon="4.58288">
        <ele>542</ele>
        <time>2022-06-26T06:12:29Z</time>
      </trkpt>
      <trkpt lat="45.94615" lon="4.5829">
        <ele>541.6</ele>
        <time>2022-06-26T06:12:30Z</time>
      </trkpt>
      <trkpt lat="45.94611" lon="4.58292">
        <ele>541.2</ele>
        <time>2022-06-26T06:12:31Z</time>
      </trkpt>
      <trkpt lat="45.94606" lon="4.58293">
        <ele>541</ele>
        <time>2022-06-26T06:12:32Z</time>
      </trkpt>
      <trkpt lat="45.94602" lon="4.58294">
        <ele>540.8</ele>
        <time>2022-06-26T06:12:33Z</time>
      </trkpt>
      <trkpt lat="45.94599" lon="4.58295">
        <ele>540.4</ele>
        <time>2022-06-26T06:12:34Z</time>
      </trkpt>
      <trkpt lat="45.94596" lon="4.58296">
        <ele>540.2</ele>
        <time>2022-06-26T06:12:35Z</time>
      </trkpt>
      <trkpt lat="45.94594" lon="4.58297">
        <ele>540.2</ele>
        <time>2022-06-26T06:12:36Z</time>
      </trkpt>
      <trkpt lat="45.94592" lon="4.58297">
        <ele>540.2</ele>
        <time>2022-06-26T06:12:37Z</time>
      </trkpt>
      <trkpt lat="45.9459" lon="4.58297">
        <ele>539.8</ele>
        <time>2022-06-26T06:12:38Z</time>
      </trkpt>
      <trkpt lat="45.9459" lon="4.58298">
        <ele>539.8</ele>
        <time>2022-06-26T06:12:40Z</time>
      </trkpt>
      <trkpt lat="45.94589" lon="4.58291">
        <ele>539.4</ele>
        <time>2022-06-26T06:13:02Z</time>
      </trkpt>
      <trkpt lat="45.94588" lon="4.58288">
        <ele>539</ele>
        <time>2022-06-26T06:13:03Z</time>
      </trkpt>
      <trkpt lat="45.94588" lon="4.58285">
        <ele>538.8</ele>
        <time>2022-06-26T06:13:04Z</time>
      </trkpt>
      <trkpt lat="45.94586" lon="4.58282">
        <ele>538.6</ele>
        <time>2022-06-26T06:13:05Z</time>
      </trkpt>
      <trkpt lat="45.94584" lon="4.5828">
        <ele>538.4</ele>
        <time>2022-06-26T06:13:06Z</time>
      </trkpt>
      <trkpt lat="45.94581" lon="4.58279">
        <ele>538.2</ele>
        <time>2022-06-26T06:13:07Z</time>
      </trkpt>
      <trkpt lat="45.94578" lon="4.5828">
        <ele>537.8</ele>
        <time>2022-06-26T06:13:08Z</time>
      </trkpt>
      <trkpt lat="45.94575" lon="4.58279">
        <ele>537.6</ele>
        <time>2022-06-26T06:13:09Z</time>
      </trkpt>
      <trkpt lat="45.94573" lon="4.58279">
        <ele>537.4</ele>
        <time>2022-06-26T06:13:10Z</time>
      </trkpt>
      <trkpt lat="45.94571" lon="4.58278">
        <ele>537</ele>
        <time>2022-06-26T06:13:11Z</time>
      </trkpt>
      <trkpt lat="45.94569" lon="4.58276">
        <ele>536.6</ele>
        <time>2022-06-26T06:13:12Z</time>
      </trkpt>
      <trkpt lat="45.94567" lon="4.58274">
        <ele>536.4</ele>
        <time>2022-06-26T06:13:13Z</time>
      </trkpt>
      <trkpt lat="45.94565" lon="4.58271">
        <ele>536</ele>
        <time>2022-06-26T06:13:14Z</time>
      </trkpt>
      <trkpt lat="45.94564" lon="4.58268">
        <ele>535.6</ele>
        <time>2022-06-26T06:13:15Z</time>
      </trkpt>
      <trkpt lat="45.94562" lon="4.58265">
        <ele>535.2</ele>
        <time>2022-06-26T06:13:16Z</time>
      </trkpt>
      <trkpt lat="45.9456" lon="4.58262">
        <ele>534.6</ele>
        <time>2022-06-26T06:13:17Z</time>
      </trkpt>
      <trkpt lat="45.94557" lon="4.5826">
        <ele>534</ele>
        <time>2022-06-26T06:13:18Z</time>
      </trkpt>
      <trkpt lat="45.94554" lon="4.58257">
        <ele>533.4</ele>
        <time>2022-06-26T06:13:19Z</time>
      </trkpt>
      <trkpt lat="45.94551" lon="4.58255">
        <ele>532.6</ele>
        <time>2022-06-26T06:13:20Z</time>
      </trkpt>
      <trkpt lat="45.94548" lon="4.58253">
        <ele>532</ele>
        <time>2022-06-26T06:13:21Z</time>
      </trkpt>
      <trkpt lat="45.94544" lon="4.58251">
        <ele>531.2</ele>
        <time>2022-06-26T06:13:22Z</time>
      </trkpt>
      <trkpt lat="45.94539" lon="4.58249">
        <ele>530.2</ele>
        <time>2022-06-26T06:13:23Z</time>
      </trkpt>
      <trkpt lat="45.94535" lon="4.58247">
        <ele>529.4</ele>
        <time>2022-06-26T06:13:24Z</time>
      </trkpt>
      <trkpt lat="45.9453" lon="4.58244">
        <ele>528.4</ele>
        <time>2022-06-26T06:13:25Z</time>
      </trkpt>
      <trkpt lat="45.94525" lon="4.58241">
        <ele>527.2</ele>
        <time>2022-06-26T06:13:26Z</time>
      </trkpt>
      <trkpt lat="45.94519" lon="4.58238">
        <ele>526.2</ele>
        <time>2022-06-26T06:13:27Z</time>
      </trkpt>
      <trkpt lat="45.94514" lon="4.58234">
        <ele>525</ele>
        <time>2022-06-26T06:13:28Z</time>
      </trkpt>
      <trkpt lat="45.94509" lon="4.58229">
        <ele>523.8</ele>
        <time>2022-06-26T06:13:29Z</time>
      </trkpt>
      <trkpt lat="45.94503" lon="4.58222">
        <ele>522.6</ele>
        <time>2022-06-26T06:13:30Z</time>
      </trkpt>
      <trkpt lat="45.94497" lon="4.58215">
        <ele>521.2</ele>
        <time>2022-06-26T06:13:31Z</time>
      </trkpt>
      <trkpt lat="45.94492" lon="4.58208">
        <ele>519.8</ele>
        <time>2022-06-26T06:13:32Z</time>
      </trkpt>
      <trkpt lat="45.94487" lon="4.58201">
        <ele>518.6</ele>
        <time>2022-06-26T06:13:33Z</time>
      </trkpt>
      <trkpt lat="45.94482" lon="4.58193">
        <ele>517.4</ele>
        <time>2022-06-26T06:13:34Z</time>
      </trkpt>
      <trkpt lat="45.94477" lon="4.58186">
        <ele>516.2</ele>
        <time>2022-06-26T06:13:35Z</time>
      </trkpt>
      <trkpt lat="45.94473" lon="4.5818">
        <ele>514.8</ele>
        <time>2022-06-26T06:13:36Z</time>
      </trkpt>
      <trkpt lat="45.94468" lon="4.58174">
        <ele>513.6</ele>
        <time>2022-06-26T06:13:37Z</time>
      </trkpt>
      <trkpt lat="45.94465" lon="4.58169">
        <ele>512.6</ele>
        <time>2022-06-26T06:13:38Z</time>
      </trkpt>
      <trkpt lat="45.94462" lon="4.58165">
        <ele>511.4</ele>
        <time>2022-06-26T06:13:39Z</time>
      </trkpt>
      <trkpt lat="45.94459" lon="4.58162">
        <ele>510.4</ele>
        <time>2022-06-26T06:13:40Z</time>
      </trkpt>
      <trkpt lat="45.94458" lon="4.5816">
        <ele>509.6</ele>
        <time>2022-06-26T06:13:41Z</time>
      </trkpt>
      <trkpt lat="45.94457" lon="4.5816">
        <ele>509</ele>
        <time>2022-06-26T06:13:42Z</time>
      </trkpt>
      <trkpt lat="45.94455" lon="4.58157">
        <ele>507.6</ele>
        <time>2022-06-26T06:13:46Z</time>
      </trkpt>
      <trkpt lat="45.94453" lon="4.58155">
        <ele>507.6</ele>
        <time>2022-06-26T06:13:47Z</time>
      </trkpt>
      <trkpt lat="45.94449" lon="4.58152">
        <ele>507.2</ele>
        <time>2022-06-26T06:13:48Z</time>
      </trkpt>
      <trkpt lat="45.94446" lon="4.58149">
        <ele>507</ele>
        <time>2022-06-26T06:13:49Z</time>
      </trkpt>
      <trkpt lat="45.94441" lon="4.58147">
        <ele>506.6</ele>
        <time>2022-06-26T06:13:50Z</time>
      </trkpt>
      <trkpt lat="45.94436" lon="4.58145">
        <ele>506.2</ele>
        <time>2022-06-26T06:13:51Z</time>
      </trkpt>
      <trkpt lat="45.94431" lon="4.58143">
        <ele>506</ele>
        <time>2022-06-26T06:13:52Z</time>
      </trkpt>
      <trkpt lat="45.94425" lon="4.5814">
        <ele>505.8</ele>
        <time>2022-06-26T06:13:53Z</time>
      </trkpt>
      <trkpt lat="45.94418" lon="4.58137">
        <ele>505.6</ele>
        <time>2022-06-26T06:13:54Z</time>
      </trkpt>
      <trkpt lat="45.94411" lon="4.58134">
        <ele>505.2</ele>
        <time>2022-06-26T06:13:55Z</time>
      </trkpt>
      <trkpt lat="45.94404" lon="4.58131">
        <ele>504.8</ele>
        <time>2022-06-26T06:13:56Z</time>
      </trkpt>
      <trkpt lat="45.94397" lon="4.58127">
        <ele>504.4</ele>
        <time>2022-06-26T06:13:57Z</time>
      </trkpt>
      <trkpt lat="45.94389" lon="4.58123">
        <ele>504.4</ele>
        <time>2022-06-26T06:13:58Z</time>
      </trkpt>
      <trkpt lat="45.94381" lon="4.5812">
        <ele>503.6</ele>
        <time>2022-06-26T06:13:59Z</time>
      </trkpt>
      <trkpt lat="45.94372" lon="4.58116">
        <ele>503.2</ele>
        <time>2022-06-26T06:14:00Z</time>
      </trkpt>
      <trkpt lat="45.94363" lon="4.58112">
        <ele>502.8</ele>
        <time>2022-06-26T06:14:01Z</time>
      </trkpt>
      <trkpt lat="45.94353" lon="4.58107">
        <ele>502.2</ele>
        <time>2022-06-26T06:14:02Z</time>
      </trkpt>
      <trkpt lat="45.94344" lon="4.58103">
        <ele>501.6</ele>
        <time>2022-06-26T06:14:03Z</time>
      </trkpt>
      <trkpt lat="45.94334" lon="4.58098">
        <ele>500.8</ele>
        <time>2022-06-26T06:14:04Z</time>
      </trkpt>
      <trkpt lat="45.94324" lon="4.58094">
        <ele>500.2</ele>
        <time>2022-06-26T06:14:05Z</time>
      </trkpt>
      <trkpt lat="45.94313" lon="4.58092">
        <ele>499.6</ele>
        <time>2022-06-26T06:14:06Z</time>
      </trkpt>
      <trkpt lat="45.94304" lon="4.58089">
        <ele>499</ele>
        <time>2022-06-26T06:14:07Z</time>
      </trkpt>
      <trkpt lat="45.94293" lon="4.58086">
        <ele>498.2</ele>
        <time>2022-06-26T06:14:08Z</time>
      </trkpt>
      <trkpt lat="45.94282" lon="4.58083">
        <ele>497.6</ele>
        <time>2022-06-26T06:14:09Z</time>
      </trkpt>
      <trkpt lat="45.94271" lon="4.5808">
        <ele>497.2</ele>
        <time>2022-06-26T06:14:10Z</time>
      </trkpt>
      <trkpt lat="45.9426" lon="4.58077">
        <ele>496.8</ele>
        <time>2022-06-26T06:14:11Z</time>
      </trkpt>
      <trkpt lat="45.94249" lon="4.58073">
        <ele>496.4</ele>
        <time>2022-06-26T06:14:12Z</time>
      </trkpt>
      <trkpt lat="45.94238" lon="4.58069">
        <ele>496</ele>
        <time>2022-06-26T06:14:13Z</time>
      </trkpt>
      <trkpt lat="45.94228" lon="4.58064">
        <ele>495.4</ele>
        <time>2022-06-26T06:14:14Z</time>
      </trkpt>
      <trkpt lat="45.94218" lon="4.58059">
        <ele>494.8</ele>
        <time>2022-06-26T06:14:15Z</time>
      </trkpt>
      <trkpt lat="45.94207" lon="4.58054">
        <ele>494.2</ele>
        <time>2022-06-26T06:14:16Z</time>
      </trkpt>
      <trkpt lat="45.94195" lon="4.58047">
        <ele>493.4</ele>
        <time>2022-06-26T06:14:17Z</time>
      </trkpt>
      <trkpt lat="45.94184" lon="4.5804">
        <ele>492.6</ele>
        <time>2022-06-26T06:14:18Z</time>
      </trkpt>
      <trkpt lat="45.94174" lon="4.58032">
        <ele>491.6</ele>
        <time>2022-06-26T06:14:19Z</time>
      </trkpt>
      <trkpt lat="45.94163" lon="4.58025">
        <ele>490.4</ele>
        <time>2022-06-26T06:14:20Z</time>
      </trkpt>
      <trkpt lat="45.94153" lon="4.58016">
        <ele>489.6</ele>
        <time>2022-06-26T06:14:21Z</time>
      </trkpt>
      <trkpt lat="45.94142" lon="4.58007">
        <ele>488.6</ele>
        <time>2022-06-26T06:14:22Z</time>
      </trkpt>
      <trkpt lat="45.94131" lon="4.57999">
        <ele>487.6</ele>
        <time>2022-06-26T06:14:23Z</time>
      </trkpt>
      <trkpt lat="45.94119" lon="4.5799">
        <ele>486.6</ele>
        <time>2022-06-26T06:14:24Z</time>
      </trkpt>
      <trkpt lat="45.94108" lon="4.57981">
        <ele>485.8</ele>
        <time>2022-06-26T06:14:25Z</time>
      </trkpt>
      <trkpt lat="45.94097" lon="4.57972">
        <ele>485.4</ele>
        <time>2022-06-26T06:14:26Z</time>
      </trkpt>
      <trkpt lat="45.94085" lon="4.57963">
        <ele>484.6</ele>
        <time>2022-06-26T06:14:27Z</time>
      </trkpt>
      <trkpt lat="45.94074" lon="4.57953">
        <ele>483.8</ele>
        <time>2022-06-26T06:14:28Z</time>
      </trkpt>
      <trkpt lat="45.94062" lon="4.57944">
        <ele>483</ele>
        <time>2022-06-26T06:14:29Z</time>
      </trkpt>
      <trkpt lat="45.94051" lon="4.57936">
        <ele>482.4</ele>
        <time>2022-06-26T06:14:30Z</time>
      </trkpt>
      <trkpt lat="45.94039" lon="4.57927">
        <ele>481.8</ele>
        <time>2022-06-26T06:14:31Z</time>
      </trkpt>
      <trkpt lat="45.94027" lon="4.57919">
        <ele>480.8</ele>
        <time>2022-06-26T06:14:32Z</time>
      </trkpt>
      <trkpt lat="45.94016" lon="4.57912">
        <ele>480</ele>
        <time>2022-06-26T06:14:33Z</time>
      </trkpt>
      <trkpt lat="45.94005" lon="4.57907">
        <ele>479.2</ele>
        <time>2022-06-26T06:14:34Z</time>
      </trkpt>
      <trkpt lat="45.93993" lon="4.57902">
        <ele>478.4</ele>
        <time>2022-06-26T06:14:35Z</time>
      </trkpt>
      <trkpt lat="45.93982" lon="4.57897">
        <ele>477.4</ele>
        <time>2022-06-26T06:14:36Z</time>
      </trkpt>
      <trkpt lat="45.9397" lon="4.57892">
        <ele>476.6</ele>
        <time>2022-06-26T06:14:37Z</time>
      </trkpt>
      <trkpt lat="45.93959" lon="4.57888">
        <ele>475.8</ele>
        <time>2022-06-26T06:14:38Z</time>
      </trkpt>
      <trkpt lat="45.93947" lon="4.57885">
        <ele>475</ele>
        <time>2022-06-26T06:14:39Z</time>
      </trkpt>
      <trkpt lat="45.93936" lon="4.57882">
        <ele>474.2</ele>
        <time>2022-06-26T06:14:40Z</time>
      </trkpt>
      <trkpt lat="45.93924" lon="4.5788">
        <ele>473.4</ele>
        <time>2022-06-26T06:14:41Z</time>
      </trkpt>
      <trkpt lat="45.93912" lon="4.5788">
        <ele>472.6</ele>
        <time>2022-06-26T06:14:42Z</time>
      </trkpt>
      <trkpt lat="45.939" lon="4.5788">
        <ele>472</ele>
        <time>2022-06-26T06:14:43Z</time>
      </trkpt>
      <trkpt lat="45.93888" lon="4.57881">
        <ele>471.6</ele>
        <time>2022-06-26T06:14:44Z</time>
      </trkpt>
      <trkpt lat="45.93876" lon="4.57882">
        <ele>471</ele>
        <time>2022-06-26T06:14:45Z</time>
      </trkpt>
      <trkpt lat="45.93864" lon="4.57883">
        <ele>470.4</ele>
        <time>2022-06-26T06:14:46Z</time>
      </trkpt>
      <trkpt lat="45.93851" lon="4.57885">
        <ele>469.6</ele>
        <time>2022-06-26T06:14:47Z</time>
      </trkpt>
      <trkpt lat="45.9384" lon="4.57886">
        <ele>469</ele>
        <time>2022-06-26T06:14:48Z</time>
      </trkpt>
      <trkpt lat="45.93828" lon="4.57887">
        <ele>468</ele>
        <time>2022-06-26T06:14:49Z</time>
      </trkpt>
      <trkpt lat="45.93816" lon="4.57889">
        <ele>467.4</ele>
        <time>2022-06-26T06:14:50Z</time>
      </trkpt>
      <trkpt lat="45.93804" lon="4.5789">
        <ele>466.8</ele>
        <time>2022-06-26T06:14:51Z</time>
      </trkpt>
      <trkpt lat="45.93792" lon="4.57891">
        <ele>466.2</ele>
        <time>2022-06-26T06:14:52Z</time>
      </trkpt>
      <trkpt lat="45.9378" lon="4.57893">
        <ele>465.4</ele>
        <time>2022-06-26T06:14:53Z</time>
      </trkpt>
      <trkpt lat="45.93768" lon="4.57894">
        <ele>464.8</ele>
        <time>2022-06-26T06:14:54Z</time>
      </trkpt>
      <trkpt lat="45.93756" lon="4.57895">
        <ele>464.2</ele>
        <time>2022-06-26T06:14:55Z</time>
      </trkpt>
      <trkpt lat="45.93743" lon="4.57897">
        <ele>463.4</ele>
        <time>2022-06-26T06:14:56Z</time>
      </trkpt>
      <trkpt lat="45.93731" lon="4.57899">
        <ele>462.8</ele>
        <time>2022-06-26T06:14:57Z</time>
      </trkpt>
      <trkpt lat="45.9372" lon="4.57901">
        <ele>462.4</ele>
        <time>2022-06-26T06:14:58Z</time>
      </trkpt>
      <trkpt lat="45.93708" lon="4.57903">
        <ele>461.8</ele>
        <time>2022-06-26T06:14:59Z</time>
      </trkpt>
      <trkpt lat="45.93695" lon="4.57906">
        <ele>461</ele>
        <time>2022-06-26T06:15:00Z</time>
      </trkpt>
      <trkpt lat="45.93683" lon="4.57908">
        <ele>460.4</ele>
        <time>2022-06-26T06:15:01Z</time>
      </trkpt>
      <trkpt lat="45.9367" lon="4.5791">
        <ele>459.8</ele>
        <time>2022-06-26T06:15:02Z</time>
      </trkpt>
      <trkpt lat="45.93658" lon="4.57913">
        <ele>458.8</ele>
        <time>2022-06-26T06:15:03Z</time>
      </trkpt>
      <trkpt lat="45.93646" lon="4.57915">
        <ele>457.8</ele>
        <time>2022-06-26T06:15:04Z</time>
      </trkpt>
      <trkpt lat="45.93635" lon="4.57918">
        <ele>456.6</ele>
        <time>2022-06-26T06:15:05Z</time>
      </trkpt>
      <trkpt lat="45.93623" lon="4.57921">
        <ele>455.4</ele>
        <time>2022-06-26T06:15:06Z</time>
      </trkpt>
      <trkpt lat="45.93613" lon="4.57924">
        <ele>454.6</ele>
        <time>2022-06-26T06:15:07Z</time>
      </trkpt>
      <trkpt lat="45.93601" lon="4.57927">
        <ele>453.6</ele>
        <time>2022-06-26T06:15:08Z</time>
      </trkpt>
      <trkpt lat="45.93589" lon="4.57929">
        <ele>452.8</ele>
        <time>2022-06-26T06:15:09Z</time>
      </trkpt>
      <trkpt lat="45.93578" lon="4.57932">
        <ele>452</ele>
        <time>2022-06-26T06:15:10Z</time>
      </trkpt>
      <trkpt lat="45.93567" lon="4.57935">
        <ele>451.4</ele>
        <time>2022-06-26T06:15:11Z</time>
      </trkpt>
      <trkpt lat="45.93556" lon="4.57939">
        <ele>450.6</ele>
        <time>2022-06-26T06:15:12Z</time>
      </trkpt>
      <trkpt lat="45.93545" lon="4.57943">
        <ele>449.8</ele>
        <time>2022-06-26T06:15:13Z</time>
      </trkpt>
      <trkpt lat="45.93535" lon="4.57948">
        <ele>449.4</ele>
        <time>2022-06-26T06:15:14Z</time>
      </trkpt>
      <trkpt lat="45.93525" lon="4.57953">
        <ele>449</ele>
        <time>2022-06-26T06:15:15Z</time>
      </trkpt>
      <trkpt lat="45.93515" lon="4.57958">
        <ele>448.4</ele>
        <time>2022-06-26T06:15:16Z</time>
      </trkpt>
      <trkpt lat="45.93505" lon="4.57964">
        <ele>447.8</ele>
        <time>2022-06-26T06:15:17Z</time>
      </trkpt>
      <trkpt lat="45.93495" lon="4.57969">
        <ele>447</ele>
        <time>2022-06-26T06:15:18Z</time>
      </trkpt>
      <trkpt lat="45.93485" lon="4.57975">
        <ele>446.2</ele>
        <time>2022-06-26T06:15:19Z</time>
      </trkpt>
      <trkpt lat="45.93475" lon="4.5798">
        <ele>445.6</ele>
        <time>2022-06-26T06:15:20Z</time>
      </trkpt>
      <trkpt lat="45.93466" lon="4.57985">
        <ele>445.2</ele>
        <time>2022-06-26T06:15:21Z</time>
      </trkpt>
      <trkpt lat="45.93456" lon="4.57991">
        <ele>444.6</ele>
        <time>2022-06-26T06:15:22Z</time>
      </trkpt>
      <trkpt lat="45.93446" lon="4.57996">
        <ele>444</ele>
        <time>2022-06-26T06:15:23Z</time>
      </trkpt>
      <trkpt lat="45.93437" lon="4.58001">
        <ele>443.8</ele>
        <time>2022-06-26T06:15:24Z</time>
      </trkpt>
      <trkpt lat="45.93427" lon="4.58005">
        <ele>443.4</ele>
        <time>2022-06-26T06:15:25Z</time>
      </trkpt>
      <trkpt lat="45.93417" lon="4.58009">
        <ele>442.8</ele>
        <time>2022-06-26T06:15:26Z</time>
      </trkpt>
      <trkpt lat="45.93407" lon="4.58013">
        <ele>442.2</ele>
        <time>2022-06-26T06:15:27Z</time>
      </trkpt>
      <trkpt lat="45.93397" lon="4.58016">
        <ele>441.8</ele>
        <time>2022-06-26T06:15:28Z</time>
      </trkpt>
      <trkpt lat="45.93387" lon="4.58019">
        <ele>441.6</ele>
        <time>2022-06-26T06:15:29Z</time>
      </trkpt>
      <trkpt lat="45.93377" lon="4.58021">
        <ele>441</ele>
        <time>2022-06-26T06:15:30Z</time>
      </trkpt>
      <trkpt lat="45.93368" lon="4.58024">
        <ele>440.6</ele>
        <time>2022-06-26T06:15:31Z</time>
      </trkpt>
      <trkpt lat="45.93358" lon="4.58026">
        <ele>439.8</ele>
        <time>2022-06-26T06:15:32Z</time>
      </trkpt>
      <trkpt lat="45.93348" lon="4.58029">
        <ele>439.8</ele>
        <time>2022-06-26T06:15:33Z</time>
      </trkpt>
      <trkpt lat="45.93338" lon="4.58032">
        <ele>439.6</ele>
        <time>2022-06-26T06:15:34Z</time>
      </trkpt>
      <trkpt lat="45.93328" lon="4.58035">
        <ele>439.6</ele>
        <time>2022-06-26T06:15:35Z</time>
      </trkpt>
      <trkpt lat="45.93318" lon="4.58038">
        <ele>439</ele>
        <time>2022-06-26T06:15:36Z</time>
      </trkpt>
      <trkpt lat="45.93309" lon="4.58042">
        <ele>438.6</ele>
        <time>2022-06-26T06:15:37Z</time>
      </trkpt>
      <trkpt lat="45.93299" lon="4.58046">
        <ele>438.2</ele>
        <time>2022-06-26T06:15:38Z</time>
      </trkpt>
      <trkpt lat="45.93289" lon="4.58048">
        <ele>437.8</ele>
        <time>2022-06-26T06:15:39Z</time>
      </trkpt>
      <trkpt lat="45.93279" lon="4.58053">
        <ele>437.4</ele>
        <time>2022-06-26T06:15:40Z</time>
      </trkpt>
      <trkpt lat="45.9327" lon="4.58057">
        <ele>436.8</ele>
        <time>2022-06-26T06:15:41Z</time>
      </trkpt>
      <trkpt lat="45.9326" lon="4.58059">
        <ele>436.2</ele>
        <time>2022-06-26T06:15:42Z</time>
      </trkpt>
      <trkpt lat="45.9325" lon="4.58062">
        <ele>435.4</ele>
        <time>2022-06-26T06:15:43Z</time>
      </trkpt>
      <trkpt lat="45.93241" lon="4.58065">
        <ele>434.4</ele>
        <time>2022-06-26T06:15:44Z</time>
      </trkpt>
      <trkpt lat="45.93235" lon="4.58069">
        <ele>433.4</ele>
        <time>2022-06-26T06:15:45Z</time>
      </trkpt>
      <trkpt lat="45.93227" lon="4.58072">
        <ele>432.6</ele>
        <time>2022-06-26T06:15:46Z</time>
      </trkpt>
      <trkpt lat="45.93221" lon="4.58074">
        <ele>432</ele>
        <time>2022-06-26T06:15:47Z</time>
      </trkpt>
      <trkpt lat="45.93215" lon="4.58076">
        <ele>431.4</ele>
        <time>2022-06-26T06:15:48Z</time>
      </trkpt>
      <trkpt lat="45.93208" lon="4.58078">
        <ele>430.8</ele>
        <time>2022-06-26T06:15:49Z</time>
      </trkpt>
      <trkpt lat="45.93202" lon="4.58078">
        <ele>430.4</ele>
        <time>2022-06-26T06:15:50Z</time>
      </trkpt>
      <trkpt lat="45.93196" lon="4.58079">
        <ele>430</ele>
        <time>2022-06-26T06:15:51Z</time>
      </trkpt>
      <trkpt lat="45.9319" lon="4.58078">
        <ele>429.6</ele>
        <time>2022-06-26T06:15:52Z</time>
      </trkpt>
      <trkpt lat="45.93184" lon="4.58077">
        <ele>429.2</ele>
        <time>2022-06-26T06:15:53Z</time>
      </trkpt>
      <trkpt lat="45.93178" lon="4.58075">
        <ele>428.8</ele>
        <time>2022-06-26T06:15:54Z</time>
      </trkpt>
      <trkpt lat="45.93171" lon="4.58074">
        <ele>428.4</ele>
        <time>2022-06-26T06:15:55Z</time>
      </trkpt>
      <trkpt lat="45.93163" lon="4.58072">
        <ele>428</ele>
        <time>2022-06-26T06:15:56Z</time>
      </trkpt>
      <trkpt lat="45.93155" lon="4.5807">
        <ele>427.6</ele>
        <time>2022-06-26T06:15:57Z</time>
      </trkpt>
      <trkpt lat="45.93148" lon="4.58067">
        <ele>427.2</ele>
        <time>2022-06-26T06:15:58Z</time>
      </trkpt>
      <trkpt lat="45.93141" lon="4.58064">
        <ele>426.6</ele>
        <time>2022-06-26T06:15:59Z</time>
      </trkpt>
      <trkpt lat="45.93133" lon="4.5806">
        <ele>426.2</ele>
        <time>2022-06-26T06:16:00Z</time>
      </trkpt>
      <trkpt lat="45.93125" lon="4.58056">
        <ele>425.6</ele>
        <time>2022-06-26T06:16:01Z</time>
      </trkpt>
      <trkpt lat="45.93117" lon="4.58052">
        <ele>425</ele>
        <time>2022-06-26T06:16:02Z</time>
      </trkpt>
      <trkpt lat="45.93108" lon="4.58049">
        <ele>424.6</ele>
        <time>2022-06-26T06:16:03Z</time>
      </trkpt>
      <trkpt lat="45.93098" lon="4.58046">
        <ele>424.6</ele>
        <time>2022-06-26T06:16:04Z</time>
      </trkpt>
      <trkpt lat="45.93087" lon="4.58044">
        <ele>424</ele>
        <time>2022-06-26T06:16:05Z</time>
      </trkpt>
      <trkpt lat="45.93077" lon="4.58043">
        <ele>424</ele>
        <time>2022-06-26T06:16:06Z</time>
      </trkpt>
      <trkpt lat="45.93067" lon="4.58043">
        <ele>423.8</ele>
        <time>2022-06-26T06:16:07Z</time>
      </trkpt>
      <trkpt lat="45.93056" lon="4.58044">
        <ele>423.2</ele>
        <time>2022-06-26T06:16:08Z</time>
      </trkpt>
      <trkpt lat="45.93046" lon="4.58045">
        <ele>422.8</ele>
        <time>2022-06-26T06:16:09Z</time>
      </trkpt>
      <trkpt lat="45.93034" lon="4.58048">
        <ele>422.2</ele>
        <time>2022-06-26T06:16:10Z</time>
      </trkpt>
      <trkpt lat="45.93023" lon="4.58052">
        <ele>422.2</ele>
        <time>2022-06-26T06:16:11Z</time>
      </trkpt>
      <trkpt lat="45.93011" lon="4.58055">
        <ele>422</ele>
        <time>2022-06-26T06:16:12Z</time>
      </trkpt>
      <trkpt lat="45.92999" lon="4.58059">
        <ele>421.4</ele>
        <time>2022-06-26T06:16:13Z</time>
      </trkpt>
      <trkpt lat="45.92987" lon="4.58062">
        <ele>421</ele>
        <time>2022-06-26T06:16:14Z</time>
      </trkpt>
      <trkpt lat="45.92976" lon="4.58066">
        <ele>420.6</ele>
        <time>2022-06-26T06:16:15Z</time>
      </trkpt>
      <trkpt lat="45.92964" lon="4.58069">
        <ele>420</ele>
        <time>2022-06-26T06:16:16Z</time>
      </trkpt>
      <trkpt lat="45.92952" lon="4.58073">
        <ele>419.4</ele>
        <time>2022-06-26T06:16:17Z</time>
      </trkpt>
      <trkpt lat="45.9294" lon="4.58077">
        <ele>419.4</ele>
        <time>2022-06-26T06:16:18Z</time>
      </trkpt>
      <trkpt lat="45.92929" lon="4.58081">
        <ele>419.4</ele>
        <time>2022-06-26T06:16:19Z</time>
      </trkpt>
      <trkpt lat="45.92917" lon="4.58085">
        <ele>418.6</ele>
        <time>2022-06-26T06:16:20Z</time>
      </trkpt>
      <trkpt lat="45.92905" lon="4.58089">
        <ele>418.2</ele>
        <time>2022-06-26T06:16:21Z</time>
      </trkpt>
      <trkpt lat="45.92894" lon="4.58092">
        <ele>417.4</ele>
        <time>2022-06-26T06:16:22Z</time>
      </trkpt>
      <trkpt lat="45.92882" lon="4.58097">
        <ele>416.2</ele>
        <time>2022-06-26T06:16:23Z</time>
      </trkpt>
      <trkpt lat="45.92871" lon="4.58101">
        <ele>415.2</ele>
        <time>2022-06-26T06:16:24Z</time>
      </trkpt>
      <trkpt lat="45.92859" lon="4.58105">
        <ele>414.4</ele>
        <time>2022-06-26T06:16:25Z</time>
      </trkpt>
      <trkpt lat="45.92848" lon="4.5811">
        <ele>413.8</ele>
        <time>2022-06-26T06:16:26Z</time>
      </trkpt>
      <trkpt lat="45.92837" lon="4.58115">
        <ele>412.8</ele>
        <time>2022-06-26T06:16:27Z</time>
      </trkpt>
      <trkpt lat="45.92826" lon="4.5812">
        <ele>411.6</ele>
        <time>2022-06-26T06:16:28Z</time>
      </trkpt>
      <trkpt lat="45.92815" lon="4.58124">
        <ele>410.8</ele>
        <time>2022-06-26T06:16:29Z</time>
      </trkpt>
      <trkpt lat="45.92805" lon="4.58128">
        <ele>409.8</ele>
        <time>2022-06-26T06:16:30Z</time>
      </trkpt>
      <trkpt lat="45.92795" lon="4.58132">
        <ele>409.4</ele>
        <time>2022-06-26T06:16:31Z</time>
      </trkpt>
      <trkpt lat="45.92786" lon="4.58136">
        <ele>409</ele>
        <time>2022-06-26T06:16:32Z</time>
      </trkpt>
      <trkpt lat="45.92776" lon="4.5814">
        <ele>408.8</ele>
        <time>2022-06-26T06:16:33Z</time>
      </trkpt>
      <trkpt lat="45.92766" lon="4.58144">
        <ele>408.4</ele>
        <time>2022-06-26T06:16:34Z</time>
      </trkpt>
      <trkpt lat="45.92756" lon="4.58148">
        <ele>408</ele>
        <time>2022-06-26T06:16:35Z</time>
      </trkpt>
      <trkpt lat="45.92746" lon="4.58151">
        <ele>407.8</ele>
        <time>2022-06-26T06:16:36Z</time>
      </trkpt>
      <trkpt lat="45.92738" lon="4.58154">
        <ele>407.4</ele>
        <time>2022-06-26T06:16:37Z</time>
      </trkpt>
      <trkpt lat="45.92729" lon="4.58157">
        <ele>407.4</ele>
        <time>2022-06-26T06:16:38Z</time>
      </trkpt>
      <trkpt lat="45.92719" lon="4.5816">
        <ele>407.4</ele>
        <time>2022-06-26T06:16:39Z</time>
      </trkpt>
      <trkpt lat="45.92711" lon="4.58164">
        <ele>407.6</ele>
        <time>2022-06-26T06:16:40Z</time>
      </trkpt>
      <trkpt lat="45.92703" lon="4.58167">
        <ele>407.4</ele>
        <time>2022-06-26T06:16:41Z</time>
      </trkpt>
      <trkpt lat="45.92699" lon="4.58168">
        <ele>405</ele>
        <time>2022-06-26T06:16:42Z</time>
      </trkpt>
      <trkpt lat="45.92695" lon="4.58169">
        <ele>402.6</ele>
        <time>2022-06-26T06:16:43Z</time>
      </trkpt>
      <trkpt lat="45.92687" lon="4.58172">
        <ele>400.8</ele>
        <time>2022-06-26T06:16:44Z</time>
      </trkpt>
      <trkpt lat="45.92678" lon="4.58175">
        <ele>399.2</ele>
        <time>2022-06-26T06:16:45Z</time>
      </trkpt>
      <trkpt lat="45.9267" lon="4.58178">
        <ele>397.8</ele>
        <time>2022-06-26T06:16:46Z</time>
      </trkpt>
      <trkpt lat="45.92662" lon="4.5818">
        <ele>396.6</ele>
        <time>2022-06-26T06:16:47Z</time>
      </trkpt>
      <trkpt lat="45.92653" lon="4.58182">
        <ele>395.4</ele>
        <time>2022-06-26T06:16:48Z</time>
      </trkpt>
      <trkpt lat="45.92645" lon="4.58185">
        <ele>394.4</ele>
        <time>2022-06-26T06:16:49Z</time>
      </trkpt>
      <trkpt lat="45.92637" lon="4.58188">
        <ele>393.4</ele>
        <time>2022-06-26T06:16:50Z</time>
      </trkpt>
      <trkpt lat="45.9263" lon="4.58191">
        <ele>392.6</ele>
        <time>2022-06-26T06:16:51Z</time>
      </trkpt>
      <trkpt lat="45.92624" lon="4.58193">
        <ele>391.6</ele>
        <time>2022-06-26T06:16:52Z</time>
      </trkpt>
      <trkpt lat="45.92618" lon="4.58194">
        <ele>390.8</ele>
        <time>2022-06-26T06:16:53Z</time>
      </trkpt>
      <trkpt lat="45.92612" lon="4.58195">
        <ele>390.2</ele>
        <time>2022-06-26T06:16:54Z</time>
      </trkpt>
      <trkpt lat="45.92607" lon="4.58195">
        <ele>389.6</ele>
        <time>2022-06-26T06:16:55Z</time>
      </trkpt>
      <trkpt lat="45.92601" lon="4.58194">
        <ele>389.2</ele>
        <time>2022-06-26T06:16:56Z</time>
      </trkpt>
      <trkpt lat="45.92595" lon="4.58193">
        <ele>388.8</ele>
        <time>2022-06-26T06:16:57Z</time>
      </trkpt>
      <trkpt lat="45.92589" lon="4.58194">
        <ele>388.4</ele>
        <time>2022-06-26T06:16:58Z</time>
      </trkpt>
      <trkpt lat="45.92584" lon="4.58198">
        <ele>387.8</ele>
        <time>2022-06-26T06:16:59Z</time>
      </trkpt>
      <trkpt lat="45.92578" lon="4.58203">
        <ele>387.4</ele>
        <time>2022-06-26T06:17:00Z</time>
      </trkpt>
      <trkpt lat="45.92572" lon="4.58207">
        <ele>386.8</ele>
        <time>2022-06-26T06:17:01Z</time>
      </trkpt>
      <trkpt lat="45.92565" lon="4.58211">
        <ele>386.4</ele>
        <time>2022-06-26T06:17:02Z</time>
      </trkpt>
      <trkpt lat="45.92557" lon="4.58215">
        <ele>386</ele>
        <time>2022-06-26T06:17:03Z</time>
      </trkpt>
      <trkpt lat="45.9255" lon="4.58219">
        <ele>385.6</ele>
        <time>2022-06-26T06:17:04Z</time>
      </trkpt>
      <trkpt lat="45.92542" lon="4.58223">
        <ele>385.2</ele>
        <time>2022-06-26T06:17:05Z</time>
      </trkpt>
      <trkpt lat="45.92534" lon="4.58227">
        <ele>384.8</ele>
        <time>2022-06-26T06:17:06Z</time>
      </trkpt>
      <trkpt lat="45.92527" lon="4.58231">
        <ele>384.4</ele>
        <time>2022-06-26T06:17:07Z</time>
      </trkpt>
      <trkpt lat="45.92519" lon="4.58235">
        <ele>384</ele>
        <time>2022-06-26T06:17:08Z</time>
      </trkpt>
      <trkpt lat="45.92513" lon="4.58238">
        <ele>383.6</ele>
        <time>2022-06-26T06:17:09Z</time>
      </trkpt>
      <trkpt lat="45.92507" lon="4.58241">
        <ele>383.4</ele>
        <time>2022-06-26T06:17:10Z</time>
      </trkpt>
      <trkpt lat="45.92501" lon="4.58244">
        <ele>383.2</ele>
        <time>2022-06-26T06:17:11Z</time>
      </trkpt>
      <trkpt lat="45.92495" lon="4.58246">
        <ele>382.8</ele>
        <time>2022-06-26T06:17:12Z</time>
      </trkpt>
      <trkpt lat="45.9249" lon="4.58249">
        <ele>382.6</ele>
        <time>2022-06-26T06:17:13Z</time>
      </trkpt>
      <trkpt lat="45.92484" lon="4.58251">
        <ele>382.4</ele>
        <time>2022-06-26T06:17:14Z</time>
      </trkpt>
      <trkpt lat="45.92478" lon="4.58255">
        <ele>382</ele>
        <time>2022-06-26T06:17:15Z</time>
      </trkpt>
      <trkpt lat="45.92472" lon="4.58259">
        <ele>381.8</ele>
        <time>2022-06-26T06:17:16Z</time>
      </trkpt>
      <trkpt lat="45.92466" lon="4.58263">
        <ele>381.8</ele>
        <time>2022-06-26T06:17:17Z</time>
      </trkpt>
      <trkpt lat="45.92461" lon="4.58267">
        <ele>381.6</ele>
        <time>2022-06-26T06:17:18Z</time>
      </trkpt>
      <trkpt lat="45.92456" lon="4.58271">
        <ele>381.6</ele>
        <time>2022-06-26T06:17:19Z</time>
      </trkpt>
      <trkpt lat="45.9245" lon="4.58276">
        <ele>381.2</ele>
        <time>2022-06-26T06:17:20Z</time>
      </trkpt>
      <trkpt lat="45.92445" lon="4.58281">
        <ele>381</ele>
        <time>2022-06-26T06:17:21Z</time>
      </trkpt>
      <trkpt lat="45.9244" lon="4.58285">
        <ele>381</ele>
        <time>2022-06-26T06:17:22Z</time>
      </trkpt>
      <trkpt lat="45.92434" lon="4.5829">
        <ele>380.6</ele>
        <time>2022-06-26T06:17:23Z</time>
      </trkpt>
      <trkpt lat="45.92429" lon="4.58295">
        <ele>380.6</ele>
        <time>2022-06-26T06:17:24Z</time>
      </trkpt>
      <trkpt lat="45.92423" lon="4.58301">
        <ele>380.4</ele>
        <time>2022-06-26T06:17:25Z</time>
      </trkpt>
      <trkpt lat="45.92418" lon="4.58306">
        <ele>380.4</ele>
        <time>2022-06-26T06:17:26Z</time>
      </trkpt>
      <trkpt lat="45.92412" lon="4.58311">
        <ele>380</ele>
        <time>2022-06-26T06:17:27Z</time>
      </trkpt>
      <trkpt lat="45.92407" lon="4.58317">
        <ele>380</ele>
        <time>2022-06-26T06:17:28Z</time>
      </trkpt>
      <trkpt lat="45.92401" lon="4.58322">
        <ele>379.8</ele>
        <time>2022-06-26T06:17:29Z</time>
      </trkpt>
      <trkpt lat="45.92395" lon="4.58328">
        <ele>379.8</ele>
        <time>2022-06-26T06:17:30Z</time>
      </trkpt>
      <trkpt lat="45.9239" lon="4.58333">
        <ele>379.4</ele>
        <time>2022-06-26T06:17:31Z</time>
      </trkpt>
      <trkpt lat="45.92384" lon="4.58338">
        <ele>379.4</ele>
        <time>2022-06-26T06:17:32Z</time>
      </trkpt>
      <trkpt lat="45.92378" lon="4.58343">
        <ele>379.2</ele>
        <time>2022-06-26T06:17:33Z</time>
      </trkpt>
      <trkpt lat="45.92373" lon="4.58348">
        <ele>379.2</ele>
        <time>2022-06-26T06:17:34Z</time>
      </trkpt>
      <trkpt lat="45.92367" lon="4.58352">
        <ele>379</ele>
        <time>2022-06-26T06:17:35Z</time>
      </trkpt>
      <trkpt lat="45.92361" lon="4.58357">
        <ele>379</ele>
        <time>2022-06-26T06:17:36Z</time>
      </trkpt>
      <trkpt lat="45.92356" lon="4.58363">
        <ele>378.6</ele>
        <time>2022-06-26T06:17:37Z</time>
      </trkpt>
      <trkpt lat="45.9235" lon="4.58367">
        <ele>378.6</ele>
        <time>2022-06-26T06:17:38Z</time>
      </trkpt>
      <trkpt lat="45.92345" lon="4.58372">
        <ele>378.6</ele>
        <time>2022-06-26T06:17:39Z</time>
      </trkpt>
      <trkpt lat="45.9234" lon="4.58377">
        <ele>378.6</ele>
        <time>2022-06-26T06:17:40Z</time>
      </trkpt>
      <trkpt lat="45.92335" lon="4.58381">
        <ele>378.4</ele>
        <time>2022-06-26T06:17:41Z</time>
      </trkpt>
      <trkpt lat="45.9233" lon="4.58386">
        <ele>378.4</ele>
        <time>2022-06-26T06:17:42Z</time>
      </trkpt>
      <trkpt lat="45.92325" lon="4.58391">
        <ele>378.4</ele>
        <time>2022-06-26T06:17:43Z</time>
      </trkpt>
      <trkpt lat="45.9232" lon="4.58396">
        <ele>378</ele>
        <time>2022-06-26T06:17:44Z</time>
      </trkpt>
      <trkpt lat="45.92315" lon="4.58403">
        <ele>378</ele>
        <time>2022-06-26T06:17:45Z</time>
      </trkpt>
      <trkpt lat="45.92311" lon="4.58409">
        <ele>378</ele>
        <time>2022-06-26T06:17:46Z</time>
      </trkpt>
      <trkpt lat="45.92306" lon="4.58415">
        <ele>377.8</ele>
        <time>2022-06-26T06:17:47Z</time>
      </trkpt>
      <trkpt lat="45.92302" lon="4.58422">
        <ele>377.8</ele>
        <time>2022-06-26T06:17:48Z</time>
      </trkpt>
      <trkpt lat="45.92297" lon="4.58429">
        <ele>377.8</ele>
        <time>2022-06-26T06:17:49Z</time>
      </trkpt>
      <trkpt lat="45.92293" lon="4.58435">
        <ele>377.4</ele>
        <time>2022-06-26T06:17:50Z</time>
      </trkpt>
      <trkpt lat="45.92288" lon="4.58442">
        <ele>377.2</ele>
        <time>2022-06-26T06:17:51Z</time>
      </trkpt>
      <trkpt lat="45.92283" lon="4.58448">
        <ele>377</ele>
        <time>2022-06-26T06:17:52Z</time>
      </trkpt>
      <trkpt lat="45.92273" lon="4.58458">
        <ele>377</ele>
        <time>2022-06-26T06:17:53Z</time>
      </trkpt>
      <trkpt lat="45.92268" lon="4.58463">
        <ele>376.8</ele>
        <time>2022-06-26T06:17:54Z</time>
      </trkpt>
      <trkpt lat="45.92264" lon="4.58468">
        <ele>376.8</ele>
        <time>2022-06-26T06:17:55Z</time>
      </trkpt>
      <trkpt lat="45.9226" lon="4.58473">
        <ele>376.4</ele>
        <time>2022-06-26T06:17:56Z</time>
      </trkpt>
      <trkpt lat="45.92255" lon="4.58477">
        <ele>376</ele>
        <time>2022-06-26T06:17:57Z</time>
      </trkpt>
      <trkpt lat="45.9225" lon="4.58482">
        <ele>376</ele>
        <time>2022-06-26T06:17:58Z</time>
      </trkpt>
      <trkpt lat="45.92246" lon="4.58486">
        <ele>375.6</ele>
        <time>2022-06-26T06:17:59Z</time>
      </trkpt>
      <trkpt lat="45.92242" lon="4.58491">
        <ele>375.4</ele>
        <time>2022-06-26T06:18:00Z</time>
      </trkpt>
      <trkpt lat="45.92238" lon="4.58495">
        <ele>375.4</ele>
        <time>2022-06-26T06:18:01Z</time>
      </trkpt>
      <trkpt lat="45.92234" lon="4.585">
        <ele>375</ele>
        <time>2022-06-26T06:18:02Z</time>
      </trkpt>
      <trkpt lat="45.9223" lon="4.58504">
        <ele>374.8</ele>
        <time>2022-06-26T06:18:03Z</time>
      </trkpt>
      <trkpt lat="45.92227" lon="4.58508">
        <ele>374.6</ele>
        <time>2022-06-26T06:18:04Z</time>
      </trkpt>
      <trkpt lat="45.92223" lon="4.58511">
        <ele>374.2</ele>
        <time>2022-06-26T06:18:05Z</time>
      </trkpt>
      <trkpt lat="45.9222" lon="4.58515">
        <ele>374</ele>
        <time>2022-06-26T06:18:06Z</time>
      </trkpt>
      <trkpt lat="45.92216" lon="4.58518">
        <ele>374</ele>
        <time>2022-06-26T06:18:07Z</time>
      </trkpt>
      <trkpt lat="45.92213" lon="4.58521">
        <ele>373.6</ele>
        <time>2022-06-26T06:18:08Z</time>
      </trkpt>
      <trkpt lat="45.9221" lon="4.58525">
        <ele>373.4</ele>
        <time>2022-06-26T06:18:09Z</time>
      </trkpt>
      <trkpt lat="45.92207" lon="4.58527">
        <ele>373.2</ele>
        <time>2022-06-26T06:18:10Z</time>
      </trkpt>
      <trkpt lat="45.92204" lon="4.58529">
        <ele>373.2</ele>
        <time>2022-06-26T06:18:11Z</time>
      </trkpt>
      <trkpt lat="45.92202" lon="4.58531">
        <ele>373</ele>
        <time>2022-06-26T06:18:12Z</time>
      </trkpt>
      <trkpt lat="45.922" lon="4.58533">
        <ele>373</ele>
        <time>2022-06-26T06:18:13Z</time>
      </trkpt>
      <trkpt lat="45.92198" lon="4.58536">
        <ele>372.6</ele>
        <time>2022-06-26T06:18:14Z</time>
      </trkpt>
      <trkpt lat="45.92196" lon="4.58537">
        <ele>372.6</ele>
        <time>2022-06-26T06:18:15Z</time>
      </trkpt>
      <trkpt lat="45.92195" lon="4.58539">
        <ele>372.2</ele>
        <time>2022-06-26T06:18:16Z</time>
      </trkpt>
      <trkpt lat="45.92193" lon="4.5854">
        <ele>372.2</ele>
        <time>2022-06-26T06:18:17Z</time>
      </trkpt>
      <trkpt lat="45.92191" lon="4.5854">
        <ele>372</ele>
        <time>2022-06-26T06:18:18Z</time>
      </trkpt>
      <trkpt lat="45.92189" lon="4.5854">
        <ele>372</ele>
        <time>2022-06-26T06:18:19Z</time>
      </trkpt>
      <trkpt lat="45.92187" lon="4.58539">
        <ele>371.8</ele>
        <time>2022-06-26T06:18:20Z</time>
      </trkpt>
      <trkpt lat="45.92185" lon="4.58537">
        <ele>371.8</ele>
        <time>2022-06-26T06:18:21Z</time>
      </trkpt>
      <trkpt lat="45.92184" lon="4.58534">
        <ele>371.8</ele>
        <time>2022-06-26T06:18:22Z</time>
      </trkpt>
      <trkpt lat="45.92183" lon="4.58531">
        <ele>371.8</ele>
        <time>2022-06-26T06:18:23Z</time>
      </trkpt>
      <trkpt lat="45.92182" lon="4.58527">
        <ele>371.6</ele>
        <time>2022-06-26T06:18:24Z</time>
      </trkpt>
      <trkpt lat="45.92181" lon="4.58524">
        <ele>371.6</ele>
        <time>2022-06-26T06:18:25Z</time>
      </trkpt>
      <trkpt lat="45.92179" lon="4.58521">
        <ele>371.6</ele>
        <time>2022-06-26T06:18:26Z</time>
      </trkpt>
      <trkpt lat="45.92178" lon="4.58517">
        <ele>371.6</ele>
        <time>2022-06-26T06:18:27Z</time>
      </trkpt>
      <trkpt lat="45.92177" lon="4.58513">
        <ele>371.6</ele>
        <time>2022-06-26T06:18:28Z</time>
      </trkpt>
      <trkpt lat="45.92175" lon="4.5851">
        <ele>371.6</ele>
        <time>2022-06-26T06:18:29Z</time>
      </trkpt>
      <trkpt lat="45.92174" lon="4.58506">
        <ele>371.2</ele>
        <time>2022-06-26T06:18:30Z</time>
      </trkpt>
      <trkpt lat="45.92172" lon="4.58502">
        <ele>371.2</ele>
        <time>2022-06-26T06:18:31Z</time>
      </trkpt>
      <trkpt lat="45.9217" lon="4.58499">
        <ele>371.2</ele>
        <time>2022-06-26T06:18:32Z</time>
      </trkpt>
      <trkpt lat="45.92168" lon="4.58496">
        <ele>371</ele>
        <time>2022-06-26T06:18:33Z</time>
      </trkpt>
      <trkpt lat="45.92167" lon="4.58494">
        <ele>371</ele>
        <time>2022-06-26T06:18:34Z</time>
      </trkpt>
      <trkpt lat="45.92164" lon="4.58492">
        <ele>371</ele>
        <time>2022-06-26T06:18:35Z</time>
      </trkpt>
      <trkpt lat="45.92161" lon="4.58492">
        <ele>370.8</ele>
        <time>2022-06-26T06:18:36Z</time>
      </trkpt>
      <trkpt lat="45.92159" lon="4.58492">
        <ele>370.8</ele>
        <time>2022-06-26T06:18:37Z</time>
      </trkpt>
      <trkpt lat="45.92156" lon="4.58493">
        <ele>370.6</ele>
        <time>2022-06-26T06:18:38Z</time>
      </trkpt>
      <trkpt lat="45.92153" lon="4.58495">
        <ele>370.6</ele>
        <time>2022-06-26T06:18:39Z</time>
      </trkpt>
      <trkpt lat="45.92151" lon="4.58497">
        <ele>370.6</ele>
        <time>2022-06-26T06:18:40Z</time>
      </trkpt>
      <trkpt lat="45.92149" lon="4.58499">
        <ele>370.4</ele>
        <time>2022-06-26T06:18:41Z</time>
      </trkpt>
      <trkpt lat="45.92147" lon="4.58501">
        <ele>370.4</ele>
        <time>2022-06-26T06:18:42Z</time>
      </trkpt>
      <trkpt lat="45.92146" lon="4.58504">
        <ele>370.2</ele>
        <time>2022-06-26T06:18:43Z</time>
      </trkpt>
      <trkpt lat="45.92144" lon="4.58506">
        <ele>370.2</ele>
        <time>2022-06-26T06:18:44Z</time>
      </trkpt>
      <trkpt lat="45.92141" lon="4.58508">
        <ele>370.2</ele>
        <time>2022-06-26T06:18:45Z</time>
      </trkpt>
      <trkpt lat="45.92139" lon="4.58511">
        <ele>370.2</ele>
        <time>2022-06-26T06:18:46Z</time>
      </trkpt>
      <trkpt lat="45.92137" lon="4.58513">
        <ele>370.2</ele>
        <time>2022-06-26T06:18:47Z</time>
      </trkpt>
      <trkpt lat="45.92135" lon="4.58515">
        <ele>370.2</ele>
        <time>2022-06-26T06:18:48Z</time>
      </trkpt>
      <trkpt lat="45.92132" lon="4.58516">
        <ele>370</ele>
        <time>2022-06-26T06:18:49Z</time>
      </trkpt>
      <trkpt lat="45.9213" lon="4.58518">
        <ele>370</ele>
        <time>2022-06-26T06:18:50Z</time>
      </trkpt>
      <trkpt lat="45.92128" lon="4.5852">
        <ele>370</ele>
        <time>2022-06-26T06:18:51Z</time>
      </trkpt>
      <trkpt lat="45.92126" lon="4.58522">
        <ele>370</ele>
        <time>2022-06-26T06:18:52Z</time>
      </trkpt>
      <trkpt lat="45.92123" lon="4.58524">
        <ele>370</ele>
        <time>2022-06-26T06:18:53Z</time>
      </trkpt>
      <trkpt lat="45.92121" lon="4.58526">
        <ele>369.6</ele>
        <time>2022-06-26T06:18:54Z</time>
      </trkpt>
      <trkpt lat="45.92119" lon="4.58528">
        <ele>369.6</ele>
        <time>2022-06-26T06:18:55Z</time>
      </trkpt>
      <trkpt lat="45.92117" lon="4.5853">
        <ele>369.6</ele>
        <time>2022-06-26T06:18:56Z</time>
      </trkpt>
      <trkpt lat="45.92114" lon="4.58531">
        <ele>369.4</ele>
        <time>2022-06-26T06:18:57Z</time>
      </trkpt>
      <trkpt lat="45.92112" lon="4.58532">
        <ele>369.4</ele>
        <time>2022-06-26T06:18:58Z</time>
      </trkpt>
      <trkpt lat="45.92109" lon="4.58533">
        <ele>369.4</ele>
        <time>2022-06-26T06:18:59Z</time>
      </trkpt>
      <trkpt lat="45.92107" lon="4.58535">
        <ele>369.4</ele>
        <time>2022-06-26T06:19:00Z</time>
      </trkpt>
      <trkpt lat="45.92105" lon="4.58537">
        <ele>369.4</ele>
        <time>2022-06-26T06:19:01Z</time>
      </trkpt>
      <trkpt lat="45.92103" lon="4.58538">
        <ele>369.4</ele>
        <time>2022-06-26T06:19:02Z</time>
      </trkpt>
      <trkpt lat="45.921" lon="4.58539">
        <ele>369.4</ele>
        <time>2022-06-26T06:19:03Z</time>
      </trkpt>
      <trkpt lat="45.92098" lon="4.5854">
        <ele>369.2</ele>
        <time>2022-06-26T06:19:04Z</time>
      </trkpt>
      <trkpt lat="45.92096" lon="4.58543">
        <ele>369.2</ele>
        <time>2022-06-26T06:19:05Z</time>
      </trkpt>
      <trkpt lat="45.92093" lon="4.58545">
        <ele>369.2</ele>
        <time>2022-06-26T06:19:06Z</time>
      </trkpt>
      <trkpt lat="45.92091" lon="4.58548">
        <ele>369</ele>
        <time>2022-06-26T06:19:07Z</time>
      </trkpt>
      <trkpt lat="45.92088" lon="4.58551">
        <ele>369</ele>
        <time>2022-06-26T06:19:08Z</time>
      </trkpt>
      <trkpt lat="45.92086" lon="4.58552">
        <ele>369</ele>
        <time>2022-06-26T06:19:09Z</time>
      </trkpt>
      <trkpt lat="45.92084" lon="4.58554">
        <ele>368.8</ele>
        <time>2022-06-26T06:19:10Z</time>
      </trkpt>
      <trkpt lat="45.92082" lon="4.58556">
        <ele>368.8</ele>
        <time>2022-06-26T06:19:11Z</time>
      </trkpt>
      <trkpt lat="45.9208" lon="4.5856">
        <ele>368.8</ele>
        <time>2022-06-26T06:19:12Z</time>
      </trkpt>
      <trkpt lat="45.92078" lon="4.58561">
        <ele>368.8</ele>
        <time>2022-06-26T06:19:13Z</time>
      </trkpt>
      <trkpt lat="45.92076" lon="4.58562">
        <ele>368.8</ele>
        <time>2022-06-26T06:19:14Z</time>
      </trkpt>
      <trkpt lat="45.92074" lon="4.58562">
        <ele>368.8</ele>
        <time>2022-06-26T06:19:15Z</time>
      </trkpt>
      <trkpt lat="45.92073" lon="4.58562">
        <ele>368.4</ele>
        <time>2022-06-26T06:19:16Z</time>
      </trkpt>
      <trkpt lat="45.92071" lon="4.58563">
        <ele>368.4</ele>
        <time>2022-06-26T06:19:17Z</time>
      </trkpt>
      <trkpt lat="45.9207" lon="4.58563">
        <ele>368.4</ele>
        <time>2022-06-26T06:19:18Z</time>
      </trkpt>
      <trkpt lat="45.92068" lon="4.58562">
        <ele>368.4</ele>
        <time>2022-06-26T06:19:19Z</time>
      </trkpt>
      <trkpt lat="45.92067" lon="4.58561">
        <ele>368.4</ele>
        <time>2022-06-26T06:19:20Z</time>
      </trkpt>
      <trkpt lat="45.92066" lon="4.5856">
        <ele>368.4</ele>
        <time>2022-06-26T06:19:21Z</time>
      </trkpt>
      <trkpt lat="45.92065" lon="4.58559">
        <ele>368.4</ele>
        <time>2022-06-26T06:19:22Z</time>
      </trkpt>
      <trkpt lat="45.92064" lon="4.58559">
        <ele>368.4</ele>
        <time>2022-06-26T06:19:23Z</time>
      </trkpt>
      <trkpt lat="45.9206" lon="4.58554">
        <ele>368.2</ele>
        <time>2022-06-26T06:19:27Z</time>
      </trkpt>
      <trkpt lat="45.92058" lon="4.58553">
        <ele>368</ele>
        <time>2022-06-26T06:19:28Z</time>
      </trkpt>
      <trkpt lat="45.92056" lon="4.58553">
        <ele>368</ele>
        <time>2022-06-26T06:19:29Z</time>
      </trkpt>
      <trkpt lat="45.92055" lon="4.58552">
        <ele>367.6</ele>
        <time>2022-06-26T06:19:30Z</time>
      </trkpt>
      <trkpt lat="45.92054" lon="4.58552">
        <ele>367.6</ele>
        <time>2022-06-26T06:19:31Z</time>
      </trkpt>
      <trkpt lat="45.92052" lon="4.58552">
        <ele>367.4</ele>
        <time>2022-06-26T06:19:32Z</time>
      </trkpt>
      <trkpt lat="45.92051" lon="4.58552">
        <ele>367.4</ele>
        <time>2022-06-26T06:19:33Z</time>
      </trkpt>
      <trkpt lat="45.92049" lon="4.58552">
        <ele>367</ele>
        <time>2022-06-26T06:19:34Z</time>
      </trkpt>
      <trkpt lat="45.92048" lon="4.58552">
        <ele>367</ele>
        <time>2022-06-26T06:19:35Z</time>
      </trkpt>
      <trkpt lat="45.92044" lon="4.58549">
        <ele>366.4</ele>
        <time>2022-06-26T06:28:39Z</time>
      </trkpt>
      <trkpt lat="45.92045" lon="4.58547">
        <ele>366.4</ele>
        <time>2022-06-26T06:28:40Z</time>
      </trkpt>
      <trkpt lat="45.92046" lon="4.58547">
        <ele>366.6</ele>
        <time>2022-06-26T06:28:41Z</time>
      </trkpt>
      <trkpt lat="45.92051" lon="4.5855">
        <ele>367.2</ele>
        <time>2022-06-26T06:28:53Z</time>
      </trkpt>
      <trkpt lat="45.92052" lon="4.58551">
        <ele>367.2</ele>
        <time>2022-06-26T06:28:55Z</time>
      </trkpt>
      <trkpt lat="45.92056" lon="4.58554">
        <ele>367.6</ele>
        <time>2022-06-26T06:29:00Z</time>
      </trkpt>
      <trkpt lat="45.92057" lon="4.58555">
        <ele>367.8</ele>
        <time>2022-06-26T06:29:01Z</time>
      </trkpt>
      <trkpt lat="45.92058" lon="4.58555">
        <ele>367.8</ele>
        <time>2022-06-26T06:29:02Z</time>
      </trkpt>
      <trkpt lat="45.92058" lon="4.58556">
        <ele>367.8</ele>
        <time>2022-06-26T06:29:03Z</time>
      </trkpt>
      <trkpt lat="45.9207" lon="4.58554">
        <ele>368.4</ele>
        <time>2022-06-26T06:29:19Z</time>
      </trkpt>
      <trkpt lat="45.92071" lon="4.58553">
        <ele>368.4</ele>
        <time>2022-06-26T06:29:20Z</time>
      </trkpt>
      <trkpt lat="45.92072" lon="4.58552">
        <ele>368.4</ele>
        <time>2022-06-26T06:29:21Z</time>
      </trkpt>
      <trkpt lat="45.92073" lon="4.58551">
        <ele>368.4</ele>
        <time>2022-06-26T06:29:22Z</time>
      </trkpt>
      <trkpt lat="45.92074" lon="4.5855">
        <ele>368.6</ele>
        <time>2022-06-26T06:29:23Z</time>
      </trkpt>
      <trkpt lat="45.92075" lon="4.5855">
        <ele>368.6</ele>
        <time>2022-06-26T06:29:24Z</time>
      </trkpt>
      <trkpt lat="45.92076" lon="4.58549">
        <ele>368.6</ele>
        <time>2022-06-26T06:29:25Z</time>
      </trkpt>
      <trkpt lat="45.92077" lon="4.58548">
        <ele>368.6</ele>
        <time>2022-06-26T06:29:26Z</time>
      </trkpt>
      <trkpt lat="45.92078" lon="4.58547">
        <ele>368.6</ele>
        <time>2022-06-26T06:29:27Z</time>
      </trkpt>
      <trkpt lat="45.92079" lon="4.58546">
        <ele>368.6</ele>
        <time>2022-06-26T06:29:28Z</time>
      </trkpt>
      <trkpt lat="45.9208" lon="4.58546">
        <ele>368.8</ele>
        <time>2022-06-26T06:29:29Z</time>
      </trkpt>
      <trkpt lat="45.92081" lon="4.58545">
        <ele>368.8</ele>
        <time>2022-06-26T06:29:30Z</time>
      </trkpt>
      <trkpt lat="45.92082" lon="4.58544">
        <ele>368.8</ele>
        <time>2022-06-26T06:29:31Z</time>
      </trkpt>
      <trkpt lat="45.92083" lon="4.58544">
        <ele>368.8</ele>
        <time>2022-06-26T06:29:32Z</time>
      </trkpt>
      <trkpt lat="45.92084" lon="4.58543">
        <ele>368.8</ele>
        <time>2022-06-26T06:29:33Z</time>
      </trkpt>
      <trkpt lat="45.92085" lon="4.58542">
        <ele>368.8</ele>
        <time>2022-06-26T06:29:34Z</time>
      </trkpt>
      <trkpt lat="45.92087" lon="4.58542">
        <ele>368.8</ele>
        <time>2022-06-26T06:29:35Z</time>
      </trkpt>
      <trkpt lat="45.92088" lon="4.58541">
        <ele>368.8</ele>
        <time>2022-06-26T06:29:36Z</time>
      </trkpt>
      <trkpt lat="45.92089" lon="4.58541">
        <ele>368.8</ele>
        <time>2022-06-26T06:29:37Z</time>
      </trkpt>
      <trkpt lat="45.9209" lon="4.5854">
        <ele>368.8</ele>
        <time>2022-06-26T06:29:38Z</time>
      </trkpt>
      <trkpt lat="45.92091" lon="4.5854">
        <ele>368.8</ele>
        <time>2022-06-26T06:29:39Z</time>
      </trkpt>
      <trkpt lat="45.92093" lon="4.5854">
        <ele>368.8</ele>
        <time>2022-06-26T06:29:40Z</time>
      </trkpt>
      <trkpt lat="45.92094" lon="4.58539">
        <ele>369</ele>
        <time>2022-06-26T06:29:41Z</time>
      </trkpt>
      <trkpt lat="45.92095" lon="4.58539">
        <ele>369</ele>
        <time>2022-06-26T06:29:42Z</time>
      </trkpt>
      <trkpt lat="45.92097" lon="4.58538">
        <ele>369</ele>
        <time>2022-06-26T06:29:43Z</time>
      </trkpt>
      <trkpt lat="45.92098" lon="4.58538">
        <ele>369</ele>
        <time>2022-06-26T06:29:44Z</time>
      </trkpt>
      <trkpt lat="45.92099" lon="4.58538">
        <ele>369</ele>
        <time>2022-06-26T06:29:45Z</time>
      </trkpt>
      <trkpt lat="45.92104" lon="4.58544">
        <ele>369</ele>
        <time>2022-06-26T06:29:51Z</time>
      </trkpt>
      <trkpt lat="45.92105" lon="4.58545">
        <ele>369</ele>
        <time>2022-06-26T06:29:52Z</time>
      </trkpt>
      <trkpt lat="45.92107" lon="4.58547">
        <ele>369</ele>
        <time>2022-06-26T06:29:53Z</time>
      </trkpt>
      <trkpt lat="45.92111" lon="4.58553">
        <ele>369</ele>
        <time>2022-06-26T06:29:58Z</time>
      </trkpt>
      <trkpt lat="45.92112" lon="4.58554">
        <ele>369</ele>
        <time>2022-06-26T06:29:59Z</time>
      </trkpt>
      <trkpt lat="45.92114" lon="4.58555">
        <ele>369</ele>
        <time>2022-06-26T06:30:00Z</time>
      </trkpt>
      <trkpt lat="45.92115" lon="4.58556">
        <ele>369.2</ele>
        <time>2022-06-26T06:30:01Z</time>
      </trkpt>
      <trkpt lat="45.92116" lon="4.58557">
        <ele>369.2</ele>
        <time>2022-06-26T06:30:02Z</time>
      </trkpt>
      <trkpt lat="45.92117" lon="4.58557">
        <ele>369.2</ele>
        <time>2022-06-26T06:30:03Z</time>
      </trkpt>
      <trkpt lat="45.92118" lon="4.58558">
        <ele>369.2</ele>
        <time>2022-06-26T06:30:04Z</time>
      </trkpt>
      <trkpt lat="45.92119" lon="4.58558">
        <ele>369.2</ele>
        <time>2022-06-26T06:30:05Z</time>
      </trkpt>
      <trkpt lat="45.92121" lon="4.58558">
        <ele>369.4</ele>
        <time>2022-06-26T06:30:06Z</time>
      </trkpt>
      <trkpt lat="45.92122" lon="4.58558">
        <ele>369.4</ele>
        <time>2022-06-26T06:30:07Z</time>
      </trkpt>
      <trkpt lat="45.92123" lon="4.58557">
        <ele>369.4</ele>
        <time>2022-06-26T06:30:08Z</time>
      </trkpt>
      <trkpt lat="45.92126" lon="4.58557">
        <ele>369.4</ele>
        <time>2022-06-26T06:30:11Z</time>
      </trkpt>
      <trkpt lat="45.92127" lon="4.58557">
        <ele>369.4</ele>
        <time>2022-06-26T06:30:12Z</time>
      </trkpt>
      <trkpt lat="45.92128" lon="4.58557">
        <ele>369.4</ele>
        <time>2022-06-26T06:30:13Z</time>
      </trkpt>
      <trkpt lat="45.92129" lon="4.58557">
        <ele>369.6</ele>
        <time>2022-06-26T06:30:14Z</time>
      </trkpt>
      <trkpt lat="45.9213" lon="4.58556">
        <ele>369.6</ele>
        <time>2022-06-26T06:30:15Z</time>
      </trkpt>
      <trkpt lat="45.92131" lon="4.58556">
        <ele>369.6</ele>
        <time>2022-06-26T06:30:16Z</time>
      </trkpt>
      <trkpt lat="45.92132" lon="4.58555">
        <ele>369.6</ele>
        <time>2022-06-26T06:30:17Z</time>
      </trkpt>
      <trkpt lat="45.92133" lon="4.58555">
        <ele>369.6</ele>
        <time>2022-06-26T06:30:18Z</time>
      </trkpt>
      <trkpt lat="45.92135" lon="4.58555">
        <ele>369.6</ele>
        <time>2022-06-26T06:30:19Z</time>
      </trkpt>
      <trkpt lat="45.92136" lon="4.58554">
        <ele>369.6</ele>
        <time>2022-06-26T06:30:20Z</time>
      </trkpt>
      <trkpt lat="45.92137" lon="4.58554">
        <ele>370</ele>
        <time>2022-06-26T06:30:21Z</time>
      </trkpt>
      <trkpt lat="45.92138" lon="4.58553">
        <ele>370</ele>
        <time>2022-06-26T06:30:22Z</time>
      </trkpt>
      <trkpt lat="45.92148" lon="4.5855">
        <ele>369.8</ele>
        <time>2022-06-26T06:31:57Z</time>
      </trkpt>
      <trkpt lat="45.92149" lon="4.58549">
        <ele>369.8</ele>
        <time>2022-06-26T06:31:58Z</time>
      </trkpt>
      <trkpt lat="45.9215" lon="4.58549">
        <ele>370</ele>
        <time>2022-06-26T06:31:59Z</time>
      </trkpt>
      <trkpt lat="45.92151" lon="4.58548">
        <ele>370</ele>
        <time>2022-06-26T06:32:00Z</time>
      </trkpt>
      <trkpt lat="45.92152" lon="4.58548">
        <ele>370</ele>
        <time>2022-06-26T06:32:01Z</time>
      </trkpt>
      <trkpt lat="45.92153" lon="4.58547">
        <ele>370</ele>
        <time>2022-06-26T06:32:02Z</time>
      </trkpt>
      <trkpt lat="45.92154" lon="4.58546">
        <ele>370</ele>
        <time>2022-06-26T06:32:03Z</time>
      </trkpt>
      <trkpt lat="45.92155" lon="4.58545">
        <ele>370</ele>
        <time>2022-06-26T06:32:04Z</time>
      </trkpt>
      <trkpt lat="45.92167" lon="4.58545">
        <ele>370.6</ele>
        <time>2022-06-26T06:32:25Z</time>
      </trkpt>
      <trkpt lat="45.92167" lon="4.58544">
        <ele>370.2</ele>
        <time>2022-06-26T06:32:26Z</time>
      </trkpt>
      <trkpt lat="45.92168" lon="4.58542">
        <ele>370.2</ele>
        <time>2022-06-26T06:32:27Z</time>
      </trkpt>
      <trkpt lat="45.92174" lon="4.58532">
        <ele>367.6</ele>
        <time>2022-06-26T07:42:43Z</time>
      </trkpt>
      <trkpt lat="45.92174" lon="4.58531">
        <ele>367.6</ele>
        <time>2022-06-26T07:42:44Z</time>
      </trkpt>
      <trkpt lat="45.92175" lon="4.58529">
        <ele>367.6</ele>
        <time>2022-06-26T07:42:45Z</time>
      </trkpt>
      <trkpt lat="45.92175" lon="4.58528">
        <ele>367.6</ele>
        <time>2022-06-26T07:42:46Z</time>
      </trkpt>
      <trkpt lat="45.92175" lon="4.58526">
        <ele>367.6</ele>
        <time>2022-06-26T07:42:47Z</time>
      </trkpt>
      <trkpt lat="45.92175" lon="4.58524">
        <ele>367.6</ele>
        <time>2022-06-26T07:42:48Z</time>
      </trkpt>
      <trkpt lat="45.92175" lon="4.58522">
        <ele>367.6</ele>
        <time>2022-06-26T07:42:49Z</time>
      </trkpt>
      <trkpt lat="45.92175" lon="4.5852">
        <ele>367.6</ele>
        <time>2022-06-26T07:42:50Z</time>
      </trkpt>
      <trkpt lat="45.92175" lon="4.58519">
        <ele>367.6</ele>
        <time>2022-06-26T07:42:51Z</time>
      </trkpt>
      <trkpt lat="45.92174" lon="4.58517">
        <ele>367.6</ele>
        <time>2022-06-26T07:42:52Z</time>
      </trkpt>
      <trkpt lat="45.92174" lon="4.58515">
        <ele>367.6</ele>
        <time>2022-06-26T07:42:53Z</time>
      </trkpt>
      <trkpt lat="45.92174" lon="4.58512">
        <ele>367.6</ele>
        <time>2022-06-26T07:42:54Z</time>
      </trkpt>
      <trkpt lat="45.92173" lon="4.5851">
        <ele>367.6</ele>
        <time>2022-06-26T07:42:55Z</time>
      </trkpt>
      <trkpt lat="45.92172" lon="4.58507">
        <ele>367.2</ele>
        <time>2022-06-26T07:42:56Z</time>
      </trkpt>
      <trkpt lat="45.92172" lon="4.58505">
        <ele>367.2</ele>
        <time>2022-06-26T07:42:57Z</time>
      </trkpt>
      <trkpt lat="45.92171" lon="4.58503">
        <ele>367.2</ele>
        <time>2022-06-26T07:42:58Z</time>
      </trkpt>
      <trkpt lat="45.9217" lon="4.58501">
        <ele>367.2</ele>
        <time>2022-06-26T07:42:59Z</time>
      </trkpt>
      <trkpt lat="45.9217" lon="4.58499">
        <ele>367.2</ele>
        <time>2022-06-26T07:43:00Z</time>
      </trkpt>
      <trkpt lat="45.9217" lon="4.58497">
        <ele>367.2</ele>
        <time>2022-06-26T07:43:01Z</time>
      </trkpt>
      <trkpt lat="45.92169" lon="4.58494">
        <ele>367.2</ele>
        <time>2022-06-26T07:43:02Z</time>
      </trkpt>
      <trkpt lat="45.92169" lon="4.58492">
        <ele>367</ele>
        <time>2022-06-26T07:43:03Z</time>
      </trkpt>
      <trkpt lat="45.92169" lon="4.58489">
        <ele>367</ele>
        <time>2022-06-26T07:43:04Z</time>
      </trkpt>
      <trkpt lat="45.92169" lon="4.58486">
        <ele>367</ele>
        <time>2022-06-26T07:43:05Z</time>
      </trkpt>
      <trkpt lat="45.92169" lon="4.58483">
        <ele>367</ele>
        <time>2022-06-26T07:43:06Z</time>
      </trkpt>
      <trkpt lat="45.92168" lon="4.5848">
        <ele>366.8</ele>
        <time>2022-06-26T07:43:07Z</time>
      </trkpt>
      <trkpt lat="45.92166" lon="4.58477">
        <ele>366.8</ele>
        <time>2022-06-26T07:43:08Z</time>
      </trkpt>
      <trkpt lat="45.92165" lon="4.58474">
        <ele>366.8</ele>
        <time>2022-06-26T07:43:09Z</time>
      </trkpt>
      <trkpt lat="45.92164" lon="4.58471">
        <ele>366.8</ele>
        <time>2022-06-26T07:43:10Z</time>
      </trkpt>
      <trkpt lat="45.92162" lon="4.58467">
        <ele>366.6</ele>
        <time>2022-06-26T07:43:11Z</time>
      </trkpt>
      <trkpt lat="45.92159" lon="4.58463">
        <ele>366.6</ele>
        <time>2022-06-26T07:43:12Z</time>
      </trkpt>
      <trkpt lat="45.92157" lon="4.58459">
        <ele>366.2</ele>
        <time>2022-06-26T07:43:13Z</time>
      </trkpt>
      <trkpt lat="45.92155" lon="4.58455">
        <ele>366.2</ele>
        <time>2022-06-26T07:43:14Z</time>
      </trkpt>
      <trkpt lat="45.92151" lon="4.58452">
        <ele>366</ele>
        <time>2022-06-26T07:43:15Z</time>
      </trkpt>
      <trkpt lat="45.92147" lon="4.58448">
        <ele>366</ele>
        <time>2022-06-26T07:43:16Z</time>
      </trkpt>
      <trkpt lat="45.92144" lon="4.58443">
        <ele>365.8</ele>
        <time>2022-06-26T07:43:17Z</time>
      </trkpt>
      <trkpt lat="45.92141" lon="4.58439">
        <ele>365.2</ele>
        <time>2022-06-26T07:43:18Z</time>
      </trkpt>
      <trkpt lat="45.92138" lon="4.58435">
        <ele>364.8</ele>
        <time>2022-06-26T07:43:19Z</time>
      </trkpt>
      <trkpt lat="45.92136" lon="4.58432">
        <ele>364.6</ele>
        <time>2022-06-26T07:43:20Z</time>
      </trkpt>
      <trkpt lat="45.92133" lon="4.58429">
        <ele>364.2</ele>
        <time>2022-06-26T07:43:21Z</time>
      </trkpt>
      <trkpt lat="45.92131" lon="4.58426">
        <ele>364</ele>
        <time>2022-06-26T07:43:22Z</time>
      </trkpt>
      <trkpt lat="45.92128" lon="4.58423">
        <ele>363.6</ele>
        <time>2022-06-26T07:43:23Z</time>
      </trkpt>
      <trkpt lat="45.92126" lon="4.5842">
        <ele>363.2</ele>
        <time>2022-06-26T07:43:24Z</time>
      </trkpt>
      <trkpt lat="45.92124" lon="4.58416">
        <ele>363</ele>
        <time>2022-06-26T07:43:25Z</time>
      </trkpt>
      <trkpt lat="45.92121" lon="4.58413">
        <ele>362.6</ele>
        <time>2022-06-26T07:43:26Z</time>
      </trkpt>
      <trkpt lat="45.92116" lon="4.5841">
        <ele>362.4</ele>
        <time>2022-06-26T07:43:27Z</time>
      </trkpt>
      <trkpt lat="45.92111" lon="4.58409">
        <ele>362</ele>
        <time>2022-06-26T07:43:28Z</time>
      </trkpt>
      <trkpt lat="45.92105" lon="4.58406">
        <ele>361.8</ele>
        <time>2022-06-26T07:43:29Z</time>
      </trkpt>
      <trkpt lat="45.92099" lon="4.58404">
        <ele>361.4</ele>
        <time>2022-06-26T07:43:30Z</time>
      </trkpt>
      <trkpt lat="45.92092" lon="4.58403">
        <ele>361.2</ele>
        <time>2022-06-26T07:43:31Z</time>
      </trkpt>
      <trkpt lat="45.92086" lon="4.58401">
        <ele>360.8</ele>
        <time>2022-06-26T07:43:32Z</time>
      </trkpt>
      <trkpt lat="45.92078" lon="4.58401">
        <ele>360.8</ele>
        <time>2022-06-26T07:43:33Z</time>
      </trkpt>
      <trkpt lat="45.92071" lon="4.584">
        <ele>360.2</ele>
        <time>2022-06-26T07:43:34Z</time>
      </trkpt>
      <trkpt lat="45.92063" lon="4.58401">
        <ele>359.8</ele>
        <time>2022-06-26T07:43:35Z</time>
      </trkpt>
      <trkpt lat="45.92057" lon="4.58402">
        <ele>359.2</ele>
        <time>2022-06-26T07:43:36Z</time>
      </trkpt>
      <trkpt lat="45.9205" lon="4.58403">
        <ele>358.6</ele>
        <time>2022-06-26T07:43:37Z</time>
      </trkpt>
      <trkpt lat="45.92044" lon="4.58404">
        <ele>358.2</ele>
        <time>2022-06-26T07:43:38Z</time>
      </trkpt>
      <trkpt lat="45.92039" lon="4.58404">
        <ele>357.8</ele>
        <time>2022-06-26T07:43:39Z</time>
      </trkpt>
      <trkpt lat="45.92033" lon="4.58403">
        <ele>357.6</ele>
        <time>2022-06-26T07:43:40Z</time>
      </trkpt>
      <trkpt lat="45.92027" lon="4.58404">
        <ele>357.6</ele>
        <time>2022-06-26T07:43:41Z</time>
      </trkpt>
      <trkpt lat="45.92022" lon="4.58404">
        <ele>357.2</ele>
        <time>2022-06-26T07:43:42Z</time>
      </trkpt>
      <trkpt lat="45.92017" lon="4.58403">
        <ele>357</ele>
        <time>2022-06-26T07:43:43Z</time>
      </trkpt>
      <trkpt lat="45.92011" lon="4.584">
        <ele>356.6</ele>
        <time>2022-06-26T07:43:44Z</time>
      </trkpt>
      <trkpt lat="45.92006" lon="4.58396">
        <ele>356.4</ele>
        <time>2022-06-26T07:43:45Z</time>
      </trkpt>
      <trkpt lat="45.92" lon="4.58391">
        <ele>356</ele>
        <time>2022-06-26T07:43:46Z</time>
      </trkpt>
      <trkpt lat="45.91996" lon="4.58385">
        <ele>355.8</ele>
        <time>2022-06-26T07:43:47Z</time>
      </trkpt>
      <trkpt lat="45.91991" lon="4.58379">
        <ele>355.4</ele>
        <time>2022-06-26T07:43:48Z</time>
      </trkpt>
      <trkpt lat="45.91987" lon="4.58374">
        <ele>355.2</ele>
        <time>2022-06-26T07:43:49Z</time>
      </trkpt>
      <trkpt lat="45.91984" lon="4.58369">
        <ele>354.8</ele>
        <time>2022-06-26T07:43:50Z</time>
      </trkpt>
      <trkpt lat="45.91981" lon="4.58364">
        <ele>354.6</ele>
        <time>2022-06-26T07:43:51Z</time>
      </trkpt>
      <trkpt lat="45.91979" lon="4.5836">
        <ele>354.4</ele>
        <time>2022-06-26T07:43:52Z</time>
      </trkpt>
      <trkpt lat="45.91977" lon="4.58355">
        <ele>354.2</ele>
        <time>2022-06-26T07:43:53Z</time>
      </trkpt>
      <trkpt lat="45.91975" lon="4.58351">
        <ele>354.2</ele>
        <time>2022-06-26T07:43:54Z</time>
      </trkpt>
      <trkpt lat="45.91973" lon="4.58346">
        <ele>353.8</ele>
        <time>2022-06-26T07:43:55Z</time>
      </trkpt>
      <trkpt lat="45.91969" lon="4.58341">
        <ele>353.6</ele>
        <time>2022-06-26T07:43:56Z</time>
      </trkpt>
      <trkpt lat="45.91966" lon="4.58335">
        <ele>353.6</ele>
        <time>2022-06-26T07:43:57Z</time>
      </trkpt>
      <trkpt lat="45.91964" lon="4.5833">
        <ele>353.2</ele>
        <time>2022-06-26T07:43:58Z</time>
      </trkpt>
      <trkpt lat="45.9196" lon="4.58324">
        <ele>353.2</ele>
        <time>2022-06-26T07:43:59Z</time>
      </trkpt>
      <trkpt lat="45.91957" lon="4.58319">
        <ele>353.2</ele>
        <time>2022-06-26T07:44:00Z</time>
      </trkpt>
      <trkpt lat="45.91954" lon="4.58313">
        <ele>352.8</ele>
        <time>2022-06-26T07:44:01Z</time>
      </trkpt>
      <trkpt lat="45.9195" lon="4.58308">
        <ele>352.6</ele>
        <time>2022-06-26T07:44:02Z</time>
      </trkpt>
      <trkpt lat="45.91948" lon="4.58302">
        <ele>352.4</ele>
        <time>2022-06-26T07:44:03Z</time>
      </trkpt>
      <trkpt lat="45.91945" lon="4.58296">
        <ele>352.2</ele>
        <time>2022-06-26T07:44:04Z</time>
      </trkpt>
      <trkpt lat="45.91942" lon="4.5829">
        <ele>351.8</ele>
        <time>2022-06-26T07:44:05Z</time>
      </trkpt>
      <trkpt lat="45.9194" lon="4.58284">
        <ele>351.6</ele>
        <time>2022-06-26T07:44:06Z</time>
      </trkpt>
      <trkpt lat="45.91937" lon="4.58279">
        <ele>351.4</ele>
        <time>2022-06-26T07:44:07Z</time>
      </trkpt>
      <trkpt lat="45.91935" lon="4.58273">
        <ele>351.2</ele>
        <time>2022-06-26T07:44:08Z</time>
      </trkpt>
      <trkpt lat="45.91933" lon="4.58268">
        <ele>351.2</ele>
        <time>2022-06-26T07:44:09Z</time>
      </trkpt>
      <trkpt lat="45.9193" lon="4.58263">
        <ele>350.8</ele>
        <time>2022-06-26T07:44:10Z</time>
      </trkpt>
      <trkpt lat="45.91928" lon="4.58258">
        <ele>350.8</ele>
        <time>2022-06-26T07:44:11Z</time>
      </trkpt>
      <trkpt lat="45.91924" lon="4.58253">
        <ele>350.6</ele>
        <time>2022-06-26T07:44:12Z</time>
      </trkpt>
      <trkpt lat="45.91921" lon="4.58248">
        <ele>350.6</ele>
        <time>2022-06-26T07:44:13Z</time>
      </trkpt>
      <trkpt lat="45.91918" lon="4.58243">
        <ele>350.2</ele>
        <time>2022-06-26T07:44:14Z</time>
      </trkpt>
      <trkpt lat="45.91915" lon="4.58238">
        <ele>350</ele>
        <time>2022-06-26T07:44:15Z</time>
      </trkpt>
      <trkpt lat="45.91913" lon="4.58232">
        <ele>350</ele>
        <time>2022-06-26T07:44:16Z</time>
      </trkpt>
      <trkpt lat="45.9191" lon="4.58226">
        <ele>349.6</ele>
        <time>2022-06-26T07:44:17Z</time>
      </trkpt>
      <trkpt lat="45.91907" lon="4.5822">
        <ele>349.4</ele>
        <time>2022-06-26T07:44:18Z</time>
      </trkpt>
      <trkpt lat="45.91904" lon="4.58215">
        <ele>349.4</ele>
        <time>2022-06-26T07:44:19Z</time>
      </trkpt>
      <trkpt lat="45.91901" lon="4.58208">
        <ele>348.8</ele>
        <time>2022-06-26T07:44:20Z</time>
      </trkpt>
      <trkpt lat="45.91898" lon="4.58201">
        <ele>348.8</ele>
        <time>2022-06-26T07:44:21Z</time>
      </trkpt>
      <trkpt lat="45.91894" lon="4.58194">
        <ele>348.6</ele>
        <time>2022-06-26T07:44:22Z</time>
      </trkpt>
      <trkpt lat="45.9189" lon="4.58186">
        <ele>348.6</ele>
        <time>2022-06-26T07:44:23Z</time>
      </trkpt>
      <trkpt lat="45.91887" lon="4.58179">
        <ele>348.2</ele>
        <time>2022-06-26T07:44:24Z</time>
      </trkpt>
      <trkpt lat="45.91883" lon="4.58172">
        <ele>348.2</ele>
        <time>2022-06-26T07:44:25Z</time>
      </trkpt>
      <trkpt lat="45.91879" lon="4.58166">
        <ele>347.8</ele>
        <time>2022-06-26T07:44:26Z</time>
      </trkpt>
      <trkpt lat="45.91875" lon="4.58157">
        <ele>347.8</ele>
        <time>2022-06-26T07:44:27Z</time>
      </trkpt>
      <trkpt lat="45.91871" lon="4.58149">
        <ele>347.6</ele>
        <time>2022-06-26T07:44:28Z</time>
      </trkpt>
      <trkpt lat="45.91867" lon="4.58142">
        <ele>347.4</ele>
        <time>2022-06-26T07:44:29Z</time>
      </trkpt>
      <trkpt lat="45.91863" lon="4.58134">
        <ele>347.4</ele>
        <time>2022-06-26T07:44:30Z</time>
      </trkpt>
      <trkpt lat="45.91859" lon="4.58126">
        <ele>347</ele>
        <time>2022-06-26T07:44:31Z</time>
      </trkpt>
      <trkpt lat="45.91855" lon="4.58117">
        <ele>346.6</ele>
        <time>2022-06-26T07:44:32Z</time>
      </trkpt>
      <trkpt lat="45.9185" lon="4.58108">
        <ele>346.2</ele>
        <time>2022-06-26T07:44:33Z</time>
      </trkpt>
      <trkpt lat="45.91846" lon="4.58099">
        <ele>345.6</ele>
        <time>2022-06-26T07:44:34Z</time>
      </trkpt>
      <trkpt lat="45.91842" lon="4.5809">
        <ele>345.4</ele>
        <time>2022-06-26T07:44:35Z</time>
      </trkpt>
      <trkpt lat="45.91837" lon="4.58081">
        <ele>344.8</ele>
        <time>2022-06-26T07:44:36Z</time>
      </trkpt>
      <trkpt lat="45.91832" lon="4.58072">
        <ele>344.8</ele>
        <time>2022-06-26T07:44:37Z</time>
      </trkpt>
      <trkpt lat="45.91827" lon="4.58062">
        <ele>344.4</ele>
        <time>2022-06-26T07:44:38Z</time>
      </trkpt>
      <trkpt lat="45.91823" lon="4.58052">
        <ele>343.8</ele>
        <time>2022-06-26T07:44:39Z</time>
      </trkpt>
      <trkpt lat="45.91817" lon="4.58042">
        <ele>343.6</ele>
        <time>2022-06-26T07:44:40Z</time>
      </trkpt>
      <trkpt lat="45.91813" lon="4.58032">
        <ele>343.2</ele>
        <time>2022-06-26T07:44:41Z</time>
      </trkpt>
      <trkpt lat="45.91808" lon="4.58022">
        <ele>342.8</ele>
        <time>2022-06-26T07:44:42Z</time>
      </trkpt>
      <trkpt lat="45.91803" lon="4.58012">
        <ele>342.4</ele>
        <time>2022-06-26T07:44:43Z</time>
      </trkpt>
      <trkpt lat="45.91797" lon="4.58002">
        <ele>342</ele>
        <time>2022-06-26T07:44:44Z</time>
      </trkpt>
      <trkpt lat="45.91792" lon="4.57992">
        <ele>341.4</ele>
        <time>2022-06-26T07:44:45Z</time>
      </trkpt>
      <trkpt lat="45.91788" lon="4.57981">
        <ele>341</ele>
        <time>2022-06-26T07:44:46Z</time>
      </trkpt>
      <trkpt lat="45.91783" lon="4.57971">
        <ele>340.6</ele>
        <time>2022-06-26T07:44:47Z</time>
      </trkpt>
      <trkpt lat="45.91778" lon="4.57961">
        <ele>340.2</ele>
        <time>2022-06-26T07:44:48Z</time>
      </trkpt>
      <trkpt lat="45.91773" lon="4.57951">
        <ele>339.8</ele>
        <time>2022-06-26T07:44:49Z</time>
      </trkpt>
      <trkpt lat="45.91768" lon="4.57941">
        <ele>339.2</ele>
        <time>2022-06-26T07:44:50Z</time>
      </trkpt>
      <trkpt lat="45.91762" lon="4.57931">
        <ele>338.8</ele>
        <time>2022-06-26T07:44:51Z</time>
      </trkpt>
      <trkpt lat="45.91756" lon="4.5792">
        <ele>338.4</ele>
        <time>2022-06-26T07:44:52Z</time>
      </trkpt>
      <trkpt lat="45.9175" lon="4.57909">
        <ele>337.8</ele>
        <time>2022-06-26T07:44:53Z</time>
      </trkpt>
      <trkpt lat="45.91743" lon="4.579">
        <ele>337</ele>
        <time>2022-06-26T07:44:54Z</time>
      </trkpt>
      <trkpt lat="45.91734" lon="4.57891">
        <ele>336.4</ele>
        <time>2022-06-26T07:44:55Z</time>
      </trkpt>
      <trkpt lat="45.91726" lon="4.57883">
        <ele>335.8</ele>
        <time>2022-06-26T07:44:56Z</time>
      </trkpt>
      <trkpt lat="45.91718" lon="4.57874">
        <ele>335.2</ele>
        <time>2022-06-26T07:44:57Z</time>
      </trkpt>
      <trkpt lat="45.91708" lon="4.57867">
        <ele>334.6</ele>
        <time>2022-06-26T07:44:58Z</time>
      </trkpt>
      <trkpt lat="45.917" lon="4.57857">
        <ele>333.8</ele>
        <time>2022-06-26T07:44:59Z</time>
      </trkpt>
      <trkpt lat="45.91692" lon="4.57849">
        <ele>333.8</ele>
        <time>2022-06-26T07:45:00Z</time>
      </trkpt>
      <trkpt lat="45.91684" lon="4.57839">
        <ele>333.6</ele>
        <time>2022-06-26T07:45:01Z</time>
      </trkpt>
      <trkpt lat="45.91676" lon="4.57828">
        <ele>333.2</ele>
        <time>2022-06-26T07:45:02Z</time>
      </trkpt>
      <trkpt lat="45.91669" lon="4.57816">
        <ele>332.8</ele>
        <time>2022-06-26T07:45:03Z</time>
      </trkpt>
      <trkpt lat="45.91662" lon="4.57805">
        <ele>332.4</ele>
        <time>2022-06-26T07:45:04Z</time>
      </trkpt>
      <trkpt lat="45.91654" lon="4.57793">
        <ele>332</ele>
        <time>2022-06-26T07:45:05Z</time>
      </trkpt>
      <trkpt lat="45.91647" lon="4.57781">
        <ele>331.4</ele>
        <time>2022-06-26T07:45:06Z</time>
      </trkpt>
      <trkpt lat="45.91639" lon="4.57771">
        <ele>330.8</ele>
        <time>2022-06-26T07:45:07Z</time>
      </trkpt>
      <trkpt lat="45.91632" lon="4.57758">
        <ele>330.2</ele>
        <time>2022-06-26T07:45:08Z</time>
      </trkpt>
      <trkpt lat="45.91625" lon="4.57746">
        <ele>329.6</ele>
        <time>2022-06-26T07:45:09Z</time>
      </trkpt>
      <trkpt lat="45.91618" lon="4.57735">
        <ele>329</ele>
        <time>2022-06-26T07:45:10Z</time>
      </trkpt>
      <trkpt lat="45.9161" lon="4.57723">
        <ele>328.4</ele>
        <time>2022-06-26T07:45:11Z</time>
      </trkpt>
      <trkpt lat="45.91603" lon="4.57711">
        <ele>327.8</ele>
        <time>2022-06-26T07:45:12Z</time>
      </trkpt>
      <trkpt lat="45.91595" lon="4.57701">
        <ele>327</ele>
        <time>2022-06-26T07:45:13Z</time>
      </trkpt>
      <trkpt lat="45.91588" lon="4.57691">
        <ele>326.6</ele>
        <time>2022-06-26T07:45:14Z</time>
      </trkpt>
      <trkpt lat="45.9158" lon="4.57682">
        <ele>325.8</ele>
        <time>2022-06-26T07:45:15Z</time>
      </trkpt>
      <trkpt lat="45.91572" lon="4.57673">
        <ele>325.2</ele>
        <time>2022-06-26T07:45:16Z</time>
      </trkpt>
      <trkpt lat="45.91562" lon="4.57664">
        <ele>324.6</ele>
        <time>2022-06-26T07:45:17Z</time>
      </trkpt>
      <trkpt lat="45.91552" lon="4.57656">
        <ele>324</ele>
        <time>2022-06-26T07:45:18Z</time>
      </trkpt>
      <trkpt lat="45.91541" lon="4.57648">
        <ele>323.4</ele>
        <time>2022-06-26T07:45:19Z</time>
      </trkpt>
      <trkpt lat="45.91532" lon="4.5764">
        <ele>322.6</ele>
        <time>2022-06-26T07:45:20Z</time>
      </trkpt>
      <trkpt lat="45.91522" lon="4.57631">
        <ele>321.8</ele>
        <time>2022-06-26T07:45:21Z</time>
      </trkpt>
      <trkpt lat="45.91513" lon="4.57623">
        <ele>320.8</ele>
        <time>2022-06-26T07:45:22Z</time>
      </trkpt>
      <trkpt lat="45.91505" lon="4.57615">
        <ele>320.2</ele>
        <time>2022-06-26T07:45:23Z</time>
      </trkpt>
      <trkpt lat="45.91495" lon="4.57608">
        <ele>319.2</ele>
        <time>2022-06-26T07:45:24Z</time>
      </trkpt>
      <trkpt lat="45.91486" lon="4.57599">
        <ele>318.6</ele>
        <time>2022-06-26T07:45:25Z</time>
      </trkpt>
      <trkpt lat="45.91477" lon="4.57591">
        <ele>317.6</ele>
        <time>2022-06-26T07:45:26Z</time>
      </trkpt>
      <trkpt lat="45.91469" lon="4.57582">
        <ele>316.8</ele>
        <time>2022-06-26T07:45:27Z</time>
      </trkpt>
      <trkpt lat="45.91462" lon="4.57573">
        <ele>316.2</ele>
        <time>2022-06-26T07:45:28Z</time>
      </trkpt>
      <trkpt lat="45.91454" lon="4.57564">
        <ele>315.6</ele>
        <time>2022-06-26T07:45:29Z</time>
      </trkpt>
      <trkpt lat="45.91446" lon="4.57555">
        <ele>315</ele>
        <time>2022-06-26T07:45:30Z</time>
      </trkpt>
      <trkpt lat="45.91438" lon="4.57545">
        <ele>314.4</ele>
        <time>2022-06-26T07:45:31Z</time>
      </trkpt>
      <trkpt lat="45.9143" lon="4.57534">
        <ele>313.8</ele>
        <time>2022-06-26T07:45:32Z</time>
      </trkpt>
      <trkpt lat="45.91422" lon="4.57523">
        <ele>313.2</ele>
        <time>2022-06-26T07:45:33Z</time>
      </trkpt>
      <trkpt lat="45.91415" lon="4.57513">
        <ele>312.4</ele>
        <time>2022-06-26T07:45:34Z</time>
      </trkpt>
      <trkpt lat="45.91408" lon="4.57503">
        <ele>311.8</ele>
        <time>2022-06-26T07:45:35Z</time>
      </trkpt>
      <trkpt lat="45.91401" lon="4.57493">
        <ele>311</ele>
        <time>2022-06-26T07:45:36Z</time>
      </trkpt>
      <trkpt lat="45.91395" lon="4.57483">
        <ele>310.2</ele>
        <time>2022-06-26T07:45:37Z</time>
      </trkpt>
      <trkpt lat="45.91389" lon="4.57471">
        <ele>309.4</ele>
        <time>2022-06-26T07:45:38Z</time>
      </trkpt>
      <trkpt lat="45.91383" lon="4.5746">
        <ele>308.6</ele>
        <time>2022-06-26T07:45:39Z</time>
      </trkpt>
      <trkpt lat="45.91376" lon="4.5745">
        <ele>308</ele>
        <time>2022-06-26T07:45:40Z</time>
      </trkpt>
      <trkpt lat="45.9137" lon="4.57438">
        <ele>307.4</ele>
        <time>2022-06-26T07:45:41Z</time>
      </trkpt>
      <trkpt lat="45.91364" lon="4.57425">
        <ele>306.6</ele>
        <time>2022-06-26T07:45:42Z</time>
      </trkpt>
      <trkpt lat="45.91358" lon="4.57412">
        <ele>306</ele>
        <time>2022-06-26T07:45:43Z</time>
      </trkpt>
      <trkpt lat="45.91352" lon="4.57399">
        <ele>305.2</ele>
        <time>2022-06-26T07:45:44Z</time>
      </trkpt>
      <trkpt lat="45.91345" lon="4.57387">
        <ele>304.8</ele>
        <time>2022-06-26T07:45:45Z</time>
      </trkpt>
      <trkpt lat="45.91337" lon="4.57376">
        <ele>304</ele>
        <time>2022-06-26T07:45:46Z</time>
      </trkpt>
      <trkpt lat="45.91328" lon="4.57366">
        <ele>303.2</ele>
        <time>2022-06-26T07:45:47Z</time>
      </trkpt>
      <trkpt lat="45.91318" lon="4.57359">
        <ele>302.6</ele>
        <time>2022-06-26T07:45:48Z</time>
      </trkpt>
      <trkpt lat="45.91307" lon="4.57352">
        <ele>301.8</ele>
        <time>2022-06-26T07:45:49Z</time>
      </trkpt>
      <trkpt lat="45.91296" lon="4.57349">
        <ele>301.2</ele>
        <time>2022-06-26T07:45:50Z</time>
      </trkpt>
      <trkpt lat="45.91285" lon="4.5735">
        <ele>300.8</ele>
        <time>2022-06-26T07:45:51Z</time>
      </trkpt>
      <trkpt lat="45.91274" lon="4.57351">
        <ele>300.2</ele>
        <time>2022-06-26T07:45:52Z</time>
      </trkpt>
      <trkpt lat="45.91263" lon="4.57353">
        <ele>299.4</ele>
        <time>2022-06-26T07:45:53Z</time>
      </trkpt>
      <trkpt lat="45.91252" lon="4.57356">
        <ele>298.6</ele>
        <time>2022-06-26T07:45:54Z</time>
      </trkpt>
      <trkpt lat="45.91241" lon="4.57358">
        <ele>297.8</ele>
        <time>2022-06-26T07:45:55Z</time>
      </trkpt>
      <trkpt lat="45.9123" lon="4.5736">
        <ele>297</ele>
        <time>2022-06-26T07:45:56Z</time>
      </trkpt>
      <trkpt lat="45.91218" lon="4.57362">
        <ele>296.2</ele>
        <time>2022-06-26T07:45:57Z</time>
      </trkpt>
      <trkpt lat="45.91206" lon="4.57364">
        <ele>295.2</ele>
        <time>2022-06-26T07:45:58Z</time>
      </trkpt>
      <trkpt lat="45.91194" lon="4.57366">
        <ele>294.4</ele>
        <time>2022-06-26T07:45:59Z</time>
      </trkpt>
      <trkpt lat="45.91183" lon="4.57368">
        <ele>293.6</ele>
        <time>2022-06-26T07:46:00Z</time>
      </trkpt>
      <trkpt lat="45.91171" lon="4.5737">
        <ele>292.8</ele>
        <time>2022-06-26T07:46:01Z</time>
      </trkpt>
      <trkpt lat="45.9116" lon="4.57373">
        <ele>292</ele>
        <time>2022-06-26T07:46:02Z</time>
      </trkpt>
      <trkpt lat="45.91149" lon="4.57376">
        <ele>291.6</ele>
        <time>2022-06-26T07:46:03Z</time>
      </trkpt>
      <trkpt lat="45.91138" lon="4.57379">
        <ele>290.8</ele>
        <time>2022-06-26T07:46:04Z</time>
      </trkpt>
      <trkpt lat="45.91127" lon="4.57384">
        <ele>290.2</ele>
        <time>2022-06-26T07:46:05Z</time>
      </trkpt>
      <trkpt lat="45.91116" lon="4.57388">
        <ele>288.6</ele>
        <time>2022-06-26T07:46:07Z</time>
      </trkpt>
      <trkpt lat="45.91105" lon="4.57392">
        <ele>287.6</ele>
        <time>2022-06-26T07:46:08Z</time>
      </trkpt>
      <trkpt lat="45.91094" lon="4.57395">
        <ele>286.8</ele>
        <time>2022-06-26T07:46:09Z</time>
      </trkpt>
      <trkpt lat="45.91084" lon="4.574">
        <ele>286.2</ele>
        <time>2022-06-26T07:46:10Z</time>
      </trkpt>
      <trkpt lat="45.91075" lon="4.57404">
        <ele>285.2</ele>
        <time>2022-06-26T07:46:11Z</time>
      </trkpt>
      <trkpt lat="45.91065" lon="4.57407">
        <ele>284.6</ele>
        <time>2022-06-26T07:46:12Z</time>
      </trkpt>
      <trkpt lat="45.91055" lon="4.5741">
        <ele>283.8</ele>
        <time>2022-06-26T07:46:13Z</time>
      </trkpt>
      <trkpt lat="45.91045" lon="4.57411">
        <ele>283</ele>
        <time>2022-06-26T07:46:14Z</time>
      </trkpt>
      <trkpt lat="45.91035" lon="4.57412">
        <ele>282.2</ele>
        <time>2022-06-26T07:46:15Z</time>
      </trkpt>
      <trkpt lat="45.91025" lon="4.57413">
        <ele>281.4</ele>
        <time>2022-06-26T07:46:16Z</time>
      </trkpt>
      <trkpt lat="45.91016" lon="4.57413">
        <ele>280.8</ele>
        <time>2022-06-26T07:46:17Z</time>
      </trkpt>
      <trkpt lat="45.91008" lon="4.57414">
        <ele>280.2</ele>
        <time>2022-06-26T07:46:18Z</time>
      </trkpt>
      <trkpt lat="45.90999" lon="4.57415">
        <ele>279.6</ele>
        <time>2022-06-26T07:46:19Z</time>
      </trkpt>
      <trkpt lat="45.9099" lon="4.57415">
        <ele>279.2</ele>
        <time>2022-06-26T07:46:20Z</time>
      </trkpt>
      <trkpt lat="45.90982" lon="4.57415">
        <ele>278.4</ele>
        <time>2022-06-26T07:46:21Z</time>
      </trkpt>
      <trkpt lat="45.90973" lon="4.57414">
        <ele>277.8</ele>
        <time>2022-06-26T07:46:22Z</time>
      </trkpt>
      <trkpt lat="45.90965" lon="4.57413">
        <ele>277</ele>
        <time>2022-06-26T07:46:23Z</time>
      </trkpt>
      <trkpt lat="45.90957" lon="4.57411">
        <ele>276.6</ele>
        <time>2022-06-26T07:46:24Z</time>
      </trkpt>
      <trkpt lat="45.9095" lon="4.5741">
        <ele>276</ele>
        <time>2022-06-26T07:46:25Z</time>
      </trkpt>
      <trkpt lat="45.90943" lon="4.57408">
        <ele>275</ele>
        <time>2022-06-26T07:46:26Z</time>
      </trkpt>
      <trkpt lat="45.90936" lon="4.57405">
        <ele>274.4</ele>
        <time>2022-06-26T07:46:27Z</time>
      </trkpt>
      <trkpt lat="45.90928" lon="4.57401">
        <ele>274</ele>
        <time>2022-06-26T07:46:28Z</time>
      </trkpt>
      <trkpt lat="45.90921" lon="4.57397">
        <ele>273.6</ele>
        <time>2022-06-26T07:46:29Z</time>
      </trkpt>
      <trkpt lat="45.90914" lon="4.57393">
        <ele>273.2</ele>
        <time>2022-06-26T07:46:30Z</time>
      </trkpt>
      <trkpt lat="45.90907" lon="4.5739">
        <ele>272.8</ele>
        <time>2022-06-26T07:46:31Z</time>
      </trkpt>
      <trkpt lat="45.90899" lon="4.57386">
        <ele>272.4</ele>
        <time>2022-06-26T07:46:32Z</time>
      </trkpt>
      <trkpt lat="45.90892" lon="4.57382">
        <ele>272</ele>
        <time>2022-06-26T07:46:33Z</time>
      </trkpt>
      <trkpt lat="45.90886" lon="4.57377">
        <ele>271.4</ele>
        <time>2022-06-26T07:46:34Z</time>
      </trkpt>
      <trkpt lat="45.9088" lon="4.57373">
        <ele>271</ele>
        <time>2022-06-26T07:46:35Z</time>
      </trkpt>
      <trkpt lat="45.90874" lon="4.57369">
        <ele>270.4</ele>
        <time>2022-06-26T07:46:36Z</time>
      </trkpt>
      <trkpt lat="45.9087" lon="4.57366">
        <ele>270.2</ele>
        <time>2022-06-26T07:46:37Z</time>
      </trkpt>
      <trkpt lat="45.90866" lon="4.57362">
        <ele>269.6</ele>
        <time>2022-06-26T07:46:38Z</time>
      </trkpt>
      <trkpt lat="45.90862" lon="4.57359">
        <ele>269.2</ele>
        <time>2022-06-26T07:46:39Z</time>
      </trkpt>
      <trkpt lat="45.90858" lon="4.57356">
        <ele>268.8</ele>
        <time>2022-06-26T07:46:40Z</time>
      </trkpt>
      <trkpt lat="45.90855" lon="4.57353">
        <ele>268.4</ele>
        <time>2022-06-26T07:46:41Z</time>
      </trkpt>
      <trkpt lat="45.90852" lon="4.5735">
        <ele>268</ele>
        <time>2022-06-26T07:46:42Z</time>
      </trkpt>
      <trkpt lat="45.9085" lon="4.57346">
        <ele>267.4</ele>
        <time>2022-06-26T07:46:43Z</time>
      </trkpt>
      <trkpt lat="45.90849" lon="4.57342">
        <ele>267</ele>
        <time>2022-06-26T07:46:44Z</time>
      </trkpt>
      <trkpt lat="45.90848" lon="4.57338">
        <ele>266.8</ele>
        <time>2022-06-26T07:46:45Z</time>
      </trkpt>
      <trkpt lat="45.90848" lon="4.57334">
        <ele>266.4</ele>
        <time>2022-06-26T07:46:46Z</time>
      </trkpt>
      <trkpt lat="45.90848" lon="4.5733">
        <ele>266.2</ele>
        <time>2022-06-26T07:46:47Z</time>
      </trkpt>
      <trkpt lat="45.90849" lon="4.57328">
        <ele>265.8</ele>
        <time>2022-06-26T07:46:48Z</time>
      </trkpt>
      <trkpt lat="45.9085" lon="4.57325">
        <ele>265.6</ele>
        <time>2022-06-26T07:46:49Z</time>
      </trkpt>
      <trkpt lat="45.9085" lon="4.57324">
        <ele>265.4</ele>
        <time>2022-06-26T07:46:50Z</time>
      </trkpt>
      <trkpt lat="45.9085" lon="4.57323">
        <ele>265.4</ele>
        <time>2022-06-26T07:46:51Z</time>
      </trkpt>
      <trkpt lat="45.9085" lon="4.57322">
        <ele>265</ele>
        <time>2022-06-26T07:47:03Z</time>
      </trkpt>
      <trkpt lat="45.9085" lon="4.5732">
        <ele>265</ele>
        <time>2022-06-26T07:47:04Z</time>
      </trkpt>
      <trkpt lat="45.9085" lon="4.57317">
        <ele>265</ele>
        <time>2022-06-26T07:47:05Z</time>
      </trkpt>
      <trkpt lat="45.90849" lon="4.57314">
        <ele>265.2</ele>
        <time>2022-06-26T07:47:06Z</time>
      </trkpt>
      <trkpt lat="45.90847" lon="4.57311">
        <ele>265.4</ele>
        <time>2022-06-26T07:47:07Z</time>
      </trkpt>
      <trkpt lat="45.90845" lon="4.57309">
        <ele>265.4</ele>
        <time>2022-06-26T07:47:08Z</time>
      </trkpt>
      <trkpt lat="45.90842" lon="4.57307">
        <ele>265.4</ele>
        <time>2022-06-26T07:47:09Z</time>
      </trkpt>
      <trkpt lat="45.90839" lon="4.57306">
        <ele>265.4</ele>
        <time>2022-06-26T07:47:10Z</time>
      </trkpt>
      <trkpt lat="45.90836" lon="4.57305">
        <ele>265.4</ele>
        <time>2022-06-26T07:47:11Z</time>
      </trkpt>
      <trkpt lat="45.90833" lon="4.57304">
        <ele>265.4</ele>
        <time>2022-06-26T07:47:12Z</time>
      </trkpt>
      <trkpt lat="45.90829" lon="4.57304">
        <ele>265.4</ele>
        <time>2022-06-26T07:47:13Z</time>
      </trkpt>
      <trkpt lat="45.90825" lon="4.57303">
        <ele>265.4</ele>
        <time>2022-06-26T07:47:14Z</time>
      </trkpt>
      <trkpt lat="45.90821" lon="4.57304">
        <ele>265</ele>
        <time>2022-06-26T07:47:15Z</time>
      </trkpt>
      <trkpt lat="45.90816" lon="4.57304">
        <ele>265</ele>
        <time>2022-06-26T07:47:16Z</time>
      </trkpt>
      <trkpt lat="45.90812" lon="4.57305">
        <ele>265</ele>
        <time>2022-06-26T07:47:17Z</time>
      </trkpt>
      <trkpt lat="45.90808" lon="4.57306">
        <ele>264.8</ele>
        <time>2022-06-26T07:47:18Z</time>
      </trkpt>
      <trkpt lat="45.90803" lon="4.57307">
        <ele>264.8</ele>
        <time>2022-06-26T07:47:19Z</time>
      </trkpt>
      <trkpt lat="45.90798" lon="4.57308">
        <ele>264.8</ele>
        <time>2022-06-26T07:47:20Z</time>
      </trkpt>
      <trkpt lat="45.90793" lon="4.5731">
        <ele>264.6</ele>
        <time>2022-06-26T07:47:21Z</time>
      </trkpt>
      <trkpt lat="45.90788" lon="4.57313">
        <ele>264.6</ele>
        <time>2022-06-26T07:47:22Z</time>
      </trkpt>
      <trkpt lat="45.90783" lon="4.57316">
        <ele>264.2</ele>
        <time>2022-06-26T07:47:23Z</time>
      </trkpt>
      <trkpt lat="45.90778" lon="4.57319">
        <ele>264.2</ele>
        <time>2022-06-26T07:47:24Z</time>
      </trkpt>
      <trkpt lat="45.90773" lon="4.57323">
        <ele>263.8</ele>
        <time>2022-06-26T07:47:25Z</time>
      </trkpt>
      <trkpt lat="45.90767" lon="4.57328">
        <ele>263.6</ele>
        <time>2022-06-26T07:47:26Z</time>
      </trkpt>
      <trkpt lat="45.90762" lon="4.57333">
        <ele>263.4</ele>
        <time>2022-06-26T07:47:27Z</time>
      </trkpt>
      <trkpt lat="45.90757" lon="4.57339">
        <ele>263.2</ele>
        <time>2022-06-26T07:47:28Z</time>
      </trkpt>
      <trkpt lat="45.90752" lon="4.57345">
        <ele>263</ele>
        <time>2022-06-26T07:47:29Z</time>
      </trkpt>
      <trkpt lat="45.90747" lon="4.5735">
        <ele>262.6</ele>
        <time>2022-06-26T07:47:30Z</time>
      </trkpt>
      <trkpt lat="45.90743" lon="4.57356">
        <ele>262.2</ele>
        <time>2022-06-26T07:47:31Z</time>
      </trkpt>
      <trkpt lat="45.90739" lon="4.57362">
        <ele>262</ele>
        <time>2022-06-26T07:47:32Z</time>
      </trkpt>
      <trkpt lat="45.90735" lon="4.57368">
        <ele>261.8</ele>
        <time>2022-06-26T07:47:33Z</time>
      </trkpt>
      <trkpt lat="45.90732" lon="4.57373">
        <ele>261.8</ele>
        <time>2022-06-26T07:47:34Z</time>
      </trkpt>
      <trkpt lat="45.90729" lon="4.57378">
        <ele>261.4</ele>
        <time>2022-06-26T07:47:35Z</time>
      </trkpt>
      <trkpt lat="45.90727" lon="4.57382">
        <ele>261</ele>
        <time>2022-06-26T07:47:36Z</time>
      </trkpt>
      <trkpt lat="45.90724" lon="4.57387">
        <ele>261</ele>
        <time>2022-06-26T07:47:37Z</time>
      </trkpt>
      <trkpt lat="45.90721" lon="4.5739">
        <ele>260.8</ele>
        <time>2022-06-26T07:47:38Z</time>
      </trkpt>
      <trkpt lat="45.90718" lon="4.57393">
        <ele>260.8</ele>
        <time>2022-06-26T07:47:39Z</time>
      </trkpt>
      <trkpt lat="45.90714" lon="4.57394">
        <ele>260.6</ele>
        <time>2022-06-26T07:47:40Z</time>
      </trkpt>
      <trkpt lat="45.9071" lon="4.57395">
        <ele>260.6</ele>
        <time>2022-06-26T07:47:41Z</time>
      </trkpt>
      <trkpt lat="45.90706" lon="4.57395">
        <ele>260.6</ele>
        <time>2022-06-26T07:47:42Z</time>
      </trkpt>
      <trkpt lat="45.90701" lon="4.57394">
        <ele>260.4</ele>
        <time>2022-06-26T07:47:43Z</time>
      </trkpt>
      <trkpt lat="45.90698" lon="4.57392">
        <ele>260.4</ele>
        <time>2022-06-26T07:47:44Z</time>
      </trkpt>
      <trkpt lat="45.90694" lon="4.57389">
        <ele>260.4</ele>
        <time>2022-06-26T07:47:45Z</time>
      </trkpt>
      <trkpt lat="45.90691" lon="4.57387">
        <ele>260.4</ele>
        <time>2022-06-26T07:47:46Z</time>
      </trkpt>
      <trkpt lat="45.90687" lon="4.57384">
        <ele>260.4</ele>
        <time>2022-06-26T07:47:47Z</time>
      </trkpt>
      <trkpt lat="45.90684" lon="4.57381">
        <ele>260.6</ele>
        <time>2022-06-26T07:47:48Z</time>
      </trkpt>
      <trkpt lat="45.90681" lon="4.57379">
        <ele>260.6</ele>
        <time>2022-06-26T07:47:49Z</time>
      </trkpt>
      <trkpt lat="45.90677" lon="4.57376">
        <ele>260.8</ele>
        <time>2022-06-26T07:47:50Z</time>
      </trkpt>
      <trkpt lat="45.90674" lon="4.57374">
        <ele>260.8</ele>
        <time>2022-06-26T07:47:51Z</time>
      </trkpt>
      <trkpt lat="45.90671" lon="4.57372">
        <ele>261</ele>
        <time>2022-06-26T07:47:52Z</time>
      </trkpt>
      <trkpt lat="45.90668" lon="4.57369">
        <ele>261</ele>
        <time>2022-06-26T07:47:53Z</time>
      </trkpt>
      <trkpt lat="45.90665" lon="4.57367">
        <ele>261.2</ele>
        <time>2022-06-26T07:47:54Z</time>
      </trkpt>
      <trkpt lat="45.90662" lon="4.57365">
        <ele>261.2</ele>
        <time>2022-06-26T07:47:55Z</time>
      </trkpt>
      <trkpt lat="45.90659" lon="4.57362">
        <ele>261.2</ele>
        <time>2022-06-26T07:47:56Z</time>
      </trkpt>
      <trkpt lat="45.90656" lon="4.5736">
        <ele>261.6</ele>
        <time>2022-06-26T07:47:57Z</time>
      </trkpt>
      <trkpt lat="45.90653" lon="4.57358">
        <ele>261.6</ele>
        <time>2022-06-26T07:47:58Z</time>
      </trkpt>
      <trkpt lat="45.9065" lon="4.57356">
        <ele>261.6</ele>
        <time>2022-06-26T07:47:59Z</time>
      </trkpt>
      <trkpt lat="45.90647" lon="4.57354">
        <ele>261.6</ele>
        <time>2022-06-26T07:48:00Z</time>
      </trkpt>
      <trkpt lat="45.90644" lon="4.57352">
        <ele>261.6</ele>
        <time>2022-06-26T07:48:01Z</time>
      </trkpt>
      <trkpt lat="45.90641" lon="4.5735">
        <ele>261.6</ele>
        <time>2022-06-26T07:48:02Z</time>
      </trkpt>
      <trkpt lat="45.90637" lon="4.57348">
        <ele>261.6</ele>
        <time>2022-06-26T07:48:03Z</time>
      </trkpt>
      <trkpt lat="45.90634" lon="4.57346">
        <ele>261.6</ele>
        <time>2022-06-26T07:48:04Z</time>
      </trkpt>
      <trkpt lat="45.9063" lon="4.57343">
        <ele>261.6</ele>
        <time>2022-06-26T07:48:05Z</time>
      </trkpt>
      <trkpt lat="45.90626" lon="4.57341">
        <ele>261.6</ele>
        <time>2022-06-26T07:48:06Z</time>
      </trkpt>
      <trkpt lat="45.90622" lon="4.5734">
        <ele>261.6</ele>
        <time>2022-06-26T07:48:07Z</time>
      </trkpt>
      <trkpt lat="45.90618" lon="4.57339">
        <ele>261.6</ele>
        <time>2022-06-26T07:48:08Z</time>
      </trkpt>
      <trkpt lat="45.90613" lon="4.57338">
        <ele>261.4</ele>
        <time>2022-06-26T07:48:09Z</time>
      </trkpt>
      <trkpt lat="45.90609" lon="4.57338">
        <ele>261.4</ele>
        <time>2022-06-26T07:48:10Z</time>
      </trkpt>
      <trkpt lat="45.90605" lon="4.57338">
        <ele>261.2</ele>
        <time>2022-06-26T07:48:11Z</time>
      </trkpt>
      <trkpt lat="45.90601" lon="4.57338">
        <ele>261.2</ele>
        <time>2022-06-26T07:48:12Z</time>
      </trkpt>
      <trkpt lat="45.90596" lon="4.57338">
        <ele>261.2</ele>
        <time>2022-06-26T07:48:13Z</time>
      </trkpt>
      <trkpt lat="45.90592" lon="4.57337">
        <ele>260.8</ele>
        <time>2022-06-26T07:48:14Z</time>
      </trkpt>
      <trkpt lat="45.90588" lon="4.57337">
        <ele>260.8</ele>
        <time>2022-06-26T07:48:15Z</time>
      </trkpt>
      <trkpt lat="45.90584" lon="4.57335">
        <ele>260.8</ele>
        <time>2022-06-26T07:48:16Z</time>
      </trkpt>
      <trkpt lat="45.9058" lon="4.57332">
        <ele>260.6</ele>
        <time>2022-06-26T07:48:17Z</time>
      </trkpt>
      <trkpt lat="45.90577" lon="4.57328">
        <ele>260.6</ele>
        <time>2022-06-26T07:48:18Z</time>
      </trkpt>
      <trkpt lat="45.90575" lon="4.57323">
        <ele>260.6</ele>
        <time>2022-06-26T07:48:19Z</time>
      </trkpt>
      <trkpt lat="45.90573" lon="4.57318">
        <ele>260.6</ele>
        <time>2022-06-26T07:48:20Z</time>
      </trkpt>
      <trkpt lat="45.90572" lon="4.57312">
        <ele>260.6</ele>
        <time>2022-06-26T07:48:21Z</time>
      </trkpt>
      <trkpt lat="45.9057" lon="4.57307">
        <ele>260.8</ele>
        <time>2022-06-26T07:48:22Z</time>
      </trkpt>
      <trkpt lat="45.90568" lon="4.57302">
        <ele>260.8</ele>
        <time>2022-06-26T07:48:23Z</time>
      </trkpt>
      <trkpt lat="45.90566" lon="4.57296">
        <ele>260.8</ele>
        <time>2022-06-26T07:48:24Z</time>
      </trkpt>
      <trkpt lat="45.90565" lon="4.5729">
        <ele>261.2</ele>
        <time>2022-06-26T07:48:25Z</time>
      </trkpt>
      <trkpt lat="45.90565" lon="4.57284">
        <ele>261.2</ele>
        <time>2022-06-26T07:48:26Z</time>
      </trkpt>
      <trkpt lat="45.90566" lon="4.57279">
        <ele>261.4</ele>
        <time>2022-06-26T07:48:27Z</time>
      </trkpt>
      <trkpt lat="45.90567" lon="4.57274">
        <ele>261.4</ele>
        <time>2022-06-26T07:48:28Z</time>
      </trkpt>
      <trkpt lat="45.90567" lon="4.57269">
        <ele>261.4</ele>
        <time>2022-06-26T07:48:29Z</time>
      </trkpt>
      <trkpt lat="45.90567" lon="4.57264">
        <ele>261.6</ele>
        <time>2022-06-26T07:48:30Z</time>
      </trkpt>
      <trkpt lat="45.90568" lon="4.57259">
        <ele>261.6</ele>
        <time>2022-06-26T07:48:31Z</time>
      </trkpt>
      <trkpt lat="45.90568" lon="4.57253">
        <ele>261.6</ele>
        <time>2022-06-26T07:48:32Z</time>
      </trkpt>
      <trkpt lat="45.90569" lon="4.57248">
        <ele>261.8</ele>
        <time>2022-06-26T07:48:33Z</time>
      </trkpt>
      <trkpt lat="45.90569" lon="4.57243">
        <ele>261.8</ele>
        <time>2022-06-26T07:48:34Z</time>
      </trkpt>
      <trkpt lat="45.90569" lon="4.57238">
        <ele>261.8</ele>
        <time>2022-06-26T07:48:35Z</time>
      </trkpt>
      <trkpt lat="45.90568" lon="4.57233">
        <ele>262.2</ele>
        <time>2022-06-26T07:48:36Z</time>
      </trkpt>
      <trkpt lat="45.90567" lon="4.57228">
        <ele>262.2</ele>
        <time>2022-06-26T07:48:37Z</time>
      </trkpt>
      <trkpt lat="45.90566" lon="4.57223">
        <ele>262.4</ele>
        <time>2022-06-26T07:48:38Z</time>
      </trkpt>
      <trkpt lat="45.90565" lon="4.57219">
        <ele>262.4</ele>
        <time>2022-06-26T07:48:39Z</time>
      </trkpt>
      <trkpt lat="45.90564" lon="4.57215">
        <ele>262.8</ele>
        <time>2022-06-26T07:48:40Z</time>
      </trkpt>
      <trkpt lat="45.90562" lon="4.57211">
        <ele>262.8</ele>
        <time>2022-06-26T07:48:41Z</time>
      </trkpt>
      <trkpt lat="45.90561" lon="4.57207">
        <ele>263.2</ele>
        <time>2022-06-26T07:48:42Z</time>
      </trkpt>
      <trkpt lat="45.9056" lon="4.57202">
        <ele>263.2</ele>
        <time>2022-06-26T07:48:43Z</time>
      </trkpt>
      <trkpt lat="45.90559" lon="4.57198">
        <ele>263.6</ele>
        <time>2022-06-26T07:48:44Z</time>
      </trkpt>
      <trkpt lat="45.90557" lon="4.57194">
        <ele>263.6</ele>
        <time>2022-06-26T07:48:45Z</time>
      </trkpt>
      <trkpt lat="45.90556" lon="4.5719">
        <ele>263.6</ele>
        <time>2022-06-26T07:48:46Z</time>
      </trkpt>
      <trkpt lat="45.90554" lon="4.57186">
        <ele>263.8</ele>
        <time>2022-06-26T07:48:47Z</time>
      </trkpt>
      <trkpt lat="45.90552" lon="4.57182">
        <ele>263.8</ele>
        <time>2022-06-26T07:48:48Z</time>
      </trkpt>
      <trkpt lat="45.9055" lon="4.57177">
        <ele>264</ele>
        <time>2022-06-26T07:48:49Z</time>
      </trkpt>
      <trkpt lat="45.90549" lon="4.57173">
        <ele>264</ele>
        <time>2022-06-26T07:48:50Z</time>
      </trkpt>
      <trkpt lat="45.90547" lon="4.57168">
        <ele>264.2</ele>
        <time>2022-06-26T07:48:51Z</time>
      </trkpt>
      <trkpt lat="45.90546" lon="4.57164">
        <ele>264.2</ele>
        <time>2022-06-26T07:48:52Z</time>
      </trkpt>
      <trkpt lat="45.90544" lon="4.57159">
        <ele>264.6</ele>
        <time>2022-06-26T07:48:53Z</time>
      </trkpt>
      <trkpt lat="45.90542" lon="4.57155">
        <ele>264.8</ele>
        <time>2022-06-26T07:48:54Z</time>
      </trkpt>
      <trkpt lat="45.90541" lon="4.57151">
        <ele>264.8</ele>
        <time>2022-06-26T07:48:55Z</time>
      </trkpt>
      <trkpt lat="45.9054" lon="4.57147">
        <ele>265</ele>
        <time>2022-06-26T07:48:56Z</time>
      </trkpt>
      <trkpt lat="45.90538" lon="4.57143">
        <ele>265</ele>
        <time>2022-06-26T07:48:57Z</time>
      </trkpt>
      <trkpt lat="45.90537" lon="4.57138">
        <ele>265.4</ele>
        <time>2022-06-26T07:48:58Z</time>
      </trkpt>
      <trkpt lat="45.90535" lon="4.57133">
        <ele>265.4</ele>
        <time>2022-06-26T07:48:59Z</time>
      </trkpt>
      <trkpt lat="45.90532" lon="4.57129">
        <ele>265.6</ele>
        <time>2022-06-26T07:49:00Z</time>
      </trkpt>
      <trkpt lat="45.9053" lon="4.57124">
        <ele>265.6</ele>
        <time>2022-06-26T07:49:01Z</time>
      </trkpt>
      <trkpt lat="45.90528" lon="4.57119">
        <ele>266</ele>
        <time>2022-06-26T07:49:02Z</time>
      </trkpt>
      <trkpt lat="45.90526" lon="4.57115">
        <ele>266</ele>
        <time>2022-06-26T07:49:03Z</time>
      </trkpt>
      <trkpt lat="45.90524" lon="4.5711">
        <ele>266.2</ele>
        <time>2022-06-26T07:49:04Z</time>
      </trkpt>
      <trkpt lat="45.90522" lon="4.57105">
        <ele>266.2</ele>
        <time>2022-06-26T07:49:05Z</time>
      </trkpt>
      <trkpt lat="45.9052" lon="4.571">
        <ele>266.6</ele>
        <time>2022-06-26T07:49:06Z</time>
      </trkpt>
      <trkpt lat="45.90517" lon="4.57096">
        <ele>266.6</ele>
        <time>2022-06-26T07:49:07Z</time>
      </trkpt>
      <trkpt lat="45.90515" lon="4.57092">
        <ele>266.8</ele>
        <time>2022-06-26T07:49:08Z</time>
      </trkpt>
      <trkpt lat="45.90513" lon="4.57088">
        <ele>266.8</ele>
        <time>2022-06-26T07:49:09Z</time>
      </trkpt>
      <trkpt lat="45.90512" lon="4.57083">
        <ele>267</ele>
        <time>2022-06-26T07:49:10Z</time>
      </trkpt>
      <trkpt lat="45.90511" lon="4.57078">
        <ele>267</ele>
        <time>2022-06-26T07:49:11Z</time>
      </trkpt>
      <trkpt lat="45.90509" lon="4.57073">
        <ele>267.2</ele>
        <time>2022-06-26T07:49:12Z</time>
      </trkpt>
      <trkpt lat="45.90508" lon="4.57068">
        <ele>267.2</ele>
        <time>2022-06-26T07:49:13Z</time>
      </trkpt>
      <trkpt lat="45.90507" lon="4.57063">
        <ele>267.6</ele>
        <time>2022-06-26T07:49:14Z</time>
      </trkpt>
      <trkpt lat="45.90506" lon="4.57059">
        <ele>267.6</ele>
        <time>2022-06-26T07:49:15Z</time>
      </trkpt>
      <trkpt lat="45.90505" lon="4.57055">
        <ele>267.6</ele>
        <time>2022-06-26T07:49:16Z</time>
      </trkpt>
      <trkpt lat="45.90504" lon="4.5705">
        <ele>268</ele>
        <time>2022-06-26T07:49:17Z</time>
      </trkpt>
      <trkpt lat="45.90504" lon="4.57045">
        <ele>268.4</ele>
        <time>2022-06-26T07:49:18Z</time>
      </trkpt>
      <trkpt lat="45.90503" lon="4.5704">
        <ele>268.4</ele>
        <time>2022-06-26T07:49:19Z</time>
      </trkpt>
      <trkpt lat="45.90503" lon="4.57035">
        <ele>268.6</ele>
        <time>2022-06-26T07:49:20Z</time>
      </trkpt>
      <trkpt lat="45.90502" lon="4.57031">
        <ele>268.6</ele>
        <time>2022-06-26T07:49:21Z</time>
      </trkpt>
      <trkpt lat="45.90501" lon="4.57027">
        <ele>268.8</ele>
        <time>2022-06-26T07:49:22Z</time>
      </trkpt>
      <trkpt lat="45.90501" lon="4.57022">
        <ele>268.8</ele>
        <time>2022-06-26T07:49:23Z</time>
      </trkpt>
      <trkpt lat="45.905" lon="4.57019">
        <ele>269.2</ele>
        <time>2022-06-26T07:49:24Z</time>
      </trkpt>
      <trkpt lat="45.905" lon="4.57015">
        <ele>269.2</ele>
        <time>2022-06-26T07:49:25Z</time>
      </trkpt>
      <trkpt lat="45.90501" lon="4.57011">
        <ele>269.2</ele>
        <time>2022-06-26T07:49:26Z</time>
      </trkpt>
      <trkpt lat="45.90501" lon="4.57007">
        <ele>269.4</ele>
        <time>2022-06-26T07:49:27Z</time>
      </trkpt>
      <trkpt lat="45.90501" lon="4.57002">
        <ele>269.4</ele>
        <time>2022-06-26T07:49:28Z</time>
      </trkpt>
      <trkpt lat="45.90501" lon="4.56998">
        <ele>269.6</ele>
        <time>2022-06-26T07:49:29Z</time>
      </trkpt>
      <trkpt lat="45.905" lon="4.56994">
        <ele>269.6</ele>
        <time>2022-06-26T07:49:30Z</time>
      </trkpt>
      <trkpt lat="45.90499" lon="4.56989">
        <ele>269.8</ele>
        <time>2022-06-26T07:49:31Z</time>
      </trkpt>
      <trkpt lat="45.90498" lon="4.56985">
        <ele>269.8</ele>
        <time>2022-06-26T07:49:32Z</time>
      </trkpt>
      <trkpt lat="45.90498" lon="4.56981">
        <ele>270.2</ele>
        <time>2022-06-26T07:49:33Z</time>
      </trkpt>
      <trkpt lat="45.90497" lon="4.56977">
        <ele>270.2</ele>
        <time>2022-06-26T07:49:34Z</time>
      </trkpt>
      <trkpt lat="45.90496" lon="4.56973">
        <ele>270.4</ele>
        <time>2022-06-26T07:49:35Z</time>
      </trkpt>
      <trkpt lat="45.90495" lon="4.56969">
        <ele>270.6</ele>
        <time>2022-06-26T07:49:36Z</time>
      </trkpt>
      <trkpt lat="45.90494" lon="4.56965">
        <ele>270.6</ele>
        <time>2022-06-26T07:49:37Z</time>
      </trkpt>
      <trkpt lat="45.90492" lon="4.56961">
        <ele>271</ele>
        <time>2022-06-26T07:49:38Z</time>
      </trkpt>
      <trkpt lat="45.90491" lon="4.56958">
        <ele>271</ele>
        <time>2022-06-26T07:49:39Z</time>
      </trkpt>
      <trkpt lat="45.90489" lon="4.56954">
        <ele>271.4</ele>
        <time>2022-06-26T07:49:40Z</time>
      </trkpt>
      <trkpt lat="45.90488" lon="4.5695">
        <ele>271.4</ele>
        <time>2022-06-26T07:49:41Z</time>
      </trkpt>
      <trkpt lat="45.90487" lon="4.56945">
        <ele>271.6</ele>
        <time>2022-06-26T07:49:42Z</time>
      </trkpt>
      <trkpt lat="45.90486" lon="4.56941">
        <ele>272</ele>
        <time>2022-06-26T07:49:43Z</time>
      </trkpt>
      <trkpt lat="45.90485" lon="4.56937">
        <ele>272.2</ele>
        <time>2022-06-26T07:49:44Z</time>
      </trkpt>
      <trkpt lat="45.90483" lon="4.56932">
        <ele>272.4</ele>
        <time>2022-06-26T07:49:45Z</time>
      </trkpt>
      <trkpt lat="45.90482" lon="4.56927">
        <ele>272.4</ele>
        <time>2022-06-26T07:49:46Z</time>
      </trkpt>
      <trkpt lat="45.90481" lon="4.56922">
        <ele>272.8</ele>
        <time>2022-06-26T07:49:47Z</time>
      </trkpt>
      <trkpt lat="45.90479" lon="4.56917">
        <ele>272.8</ele>
        <time>2022-06-26T07:49:48Z</time>
      </trkpt>
      <trkpt lat="45.90478" lon="4.56912">
        <ele>273</ele>
        <time>2022-06-26T07:49:49Z</time>
      </trkpt>
      <trkpt lat="45.90477" lon="4.56908">
        <ele>273</ele>
        <time>2022-06-26T07:49:50Z</time>
      </trkpt>
      <trkpt lat="45.90476" lon="4.56904">
        <ele>273.4</ele>
        <time>2022-06-26T07:49:51Z</time>
      </trkpt>
      <trkpt lat="45.90475" lon="4.569">
        <ele>273.6</ele>
        <time>2022-06-26T07:49:52Z</time>
      </trkpt>
      <trkpt lat="45.90474" lon="4.56896">
        <ele>273.6</ele>
        <time>2022-06-26T07:49:53Z</time>
      </trkpt>
      <trkpt lat="45.90473" lon="4.56891">
        <ele>273.8</ele>
        <time>2022-06-26T07:49:54Z</time>
      </trkpt>
      <trkpt lat="45.90472" lon="4.56887">
        <ele>273.8</ele>
        <time>2022-06-26T07:49:55Z</time>
      </trkpt>
      <trkpt lat="45.90471" lon="4.56882">
        <ele>274</ele>
        <time>2022-06-26T07:49:56Z</time>
      </trkpt>
      <trkpt lat="45.90469" lon="4.56877">
        <ele>274</ele>
        <time>2022-06-26T07:49:57Z</time>
      </trkpt>
      <trkpt lat="45.90468" lon="4.56873">
        <ele>274.4</ele>
        <time>2022-06-26T07:49:58Z</time>
      </trkpt>
      <trkpt lat="45.90466" lon="4.56868">
        <ele>274.4</ele>
        <time>2022-06-26T07:49:59Z</time>
      </trkpt>
      <trkpt lat="45.90465" lon="4.56864">
        <ele>274.8</ele>
        <time>2022-06-26T07:50:00Z</time>
      </trkpt>
      <trkpt lat="45.90463" lon="4.56859">
        <ele>274.8</ele>
        <time>2022-06-26T07:50:01Z</time>
      </trkpt>
      <trkpt lat="45.90462" lon="4.56855">
        <ele>275</ele>
        <time>2022-06-26T07:50:02Z</time>
      </trkpt>
      <trkpt lat="45.9046" lon="4.56851">
        <ele>275</ele>
        <time>2022-06-26T07:50:03Z</time>
      </trkpt>
      <trkpt lat="45.90458" lon="4.56846">
        <ele>275.2</ele>
        <time>2022-06-26T07:50:04Z</time>
      </trkpt>
      <trkpt lat="45.90456" lon="4.56842">
        <ele>275.2</ele>
        <time>2022-06-26T07:50:05Z</time>
      </trkpt>
      <trkpt lat="45.90455" lon="4.56838">
        <ele>275.2</ele>
        <time>2022-06-26T07:50:06Z</time>
      </trkpt>
      <trkpt lat="45.90453" lon="4.56833">
        <ele>275.6</ele>
        <time>2022-06-26T07:50:07Z</time>
      </trkpt>
      <trkpt lat="45.90452" lon="4.56829">
        <ele>275.6</ele>
        <time>2022-06-26T07:50:08Z</time>
      </trkpt>
      <trkpt lat="45.9045" lon="4.56825">
        <ele>275.8</ele>
        <time>2022-06-26T07:50:09Z</time>
      </trkpt>
      <trkpt lat="45.90448" lon="4.56821">
        <ele>275.8</ele>
        <time>2022-06-26T07:50:10Z</time>
      </trkpt>
      <trkpt lat="45.90446" lon="4.56817">
        <ele>275.8</ele>
        <time>2022-06-26T07:50:11Z</time>
      </trkpt>
      <trkpt lat="45.90444" lon="4.56813">
        <ele>276.2</ele>
        <time>2022-06-26T07:50:12Z</time>
      </trkpt>
      <trkpt lat="45.90442" lon="4.5681">
        <ele>276.2</ele>
        <time>2022-06-26T07:50:13Z</time>
      </trkpt>
      <trkpt lat="45.9044" lon="4.56807">
        <ele>276.4</ele>
        <time>2022-06-26T07:50:14Z</time>
      </trkpt>
      <trkpt lat="45.90438" lon="4.56803">
        <ele>276.4</ele>
        <time>2022-06-26T07:50:15Z</time>
      </trkpt>
      <trkpt lat="45.90436" lon="4.568">
        <ele>276.8</ele>
        <time>2022-06-26T07:50:16Z</time>
      </trkpt>
      <trkpt lat="45.90434" lon="4.56796">
        <ele>277</ele>
        <time>2022-06-26T07:50:17Z</time>
      </trkpt>
      <trkpt lat="45.90431" lon="4.56793">
        <ele>277</ele>
        <time>2022-06-26T07:50:18Z</time>
      </trkpt>
      <trkpt lat="45.90429" lon="4.5679">
        <ele>277.2</ele>
        <time>2022-06-26T07:50:19Z</time>
      </trkpt>
      <trkpt lat="45.90427" lon="4.56787">
        <ele>277.2</ele>
        <time>2022-06-26T07:50:20Z</time>
      </trkpt>
      <trkpt lat="45.90425" lon="4.56784">
        <ele>277.6</ele>
        <time>2022-06-26T07:50:21Z</time>
      </trkpt>
      <trkpt lat="45.90423" lon="4.56781">
        <ele>277.6</ele>
        <time>2022-06-26T07:50:22Z</time>
      </trkpt>
      <trkpt lat="45.90421" lon="4.56778">
        <ele>277.8</ele>
        <time>2022-06-26T07:50:23Z</time>
      </trkpt>
      <trkpt lat="45.90418" lon="4.56775">
        <ele>277.8</ele>
        <time>2022-06-26T07:50:24Z</time>
      </trkpt>
      <trkpt lat="45.90415" lon="4.56773">
        <ele>278.2</ele>
        <time>2022-06-26T07:50:25Z</time>
      </trkpt>
      <trkpt lat="45.90412" lon="4.5677">
        <ele>278.2</ele>
        <time>2022-06-26T07:50:26Z</time>
      </trkpt>
      <trkpt lat="45.90409" lon="4.56767">
        <ele>278.2</ele>
        <time>2022-06-26T07:50:27Z</time>
      </trkpt>
      <trkpt lat="45.90406" lon="4.56763">
        <ele>278.4</ele>
        <time>2022-06-26T07:50:28Z</time>
      </trkpt>
      <trkpt lat="45.90404" lon="4.5676">
        <ele>278.4</ele>
        <time>2022-06-26T07:50:29Z</time>
      </trkpt>
      <trkpt lat="45.90401" lon="4.56757">
        <ele>278.4</ele>
        <time>2022-06-26T07:50:30Z</time>
      </trkpt>
      <trkpt lat="45.90399" lon="4.56753">
        <ele>278.6</ele>
        <time>2022-06-26T07:50:31Z</time>
      </trkpt>
      <trkpt lat="45.90397" lon="4.5675">
        <ele>278.6</ele>
        <time>2022-06-26T07:50:32Z</time>
      </trkpt>
      <trkpt lat="45.90394" lon="4.56747">
        <ele>279</ele>
        <time>2022-06-26T07:50:33Z</time>
      </trkpt>
      <trkpt lat="45.90392" lon="4.56743">
        <ele>279</ele>
        <time>2022-06-26T07:50:34Z</time>
      </trkpt>
      <trkpt lat="45.90389" lon="4.5674">
        <ele>279.2</ele>
        <time>2022-06-26T07:50:35Z</time>
      </trkpt>
      <trkpt lat="45.90387" lon="4.56738">
        <ele>279.2</ele>
        <time>2022-06-26T07:50:36Z</time>
      </trkpt>
      <trkpt lat="45.90384" lon="4.56735">
        <ele>279.6</ele>
        <time>2022-06-26T07:50:37Z</time>
      </trkpt>
      <trkpt lat="45.90382" lon="4.56732">
        <ele>279.6</ele>
        <time>2022-06-26T07:50:38Z</time>
      </trkpt>
      <trkpt lat="45.90379" lon="4.56729">
        <ele>279.6</ele>
        <time>2022-06-26T07:50:39Z</time>
      </trkpt>
      <trkpt lat="45.90376" lon="4.56726">
        <ele>279.8</ele>
        <time>2022-06-26T07:50:40Z</time>
      </trkpt>
      <trkpt lat="45.90373" lon="4.56723">
        <ele>279.8</ele>
        <time>2022-06-26T07:50:41Z</time>
      </trkpt>
      <trkpt lat="45.9037" lon="4.5672">
        <ele>279.8</ele>
        <time>2022-06-26T07:50:42Z</time>
      </trkpt>
      <trkpt lat="45.90368" lon="4.56717">
        <ele>280.2</ele>
        <time>2022-06-26T07:50:43Z</time>
      </trkpt>
      <trkpt lat="45.90365" lon="4.56714">
        <ele>280.2</ele>
        <time>2022-06-26T07:50:44Z</time>
      </trkpt>
      <trkpt lat="45.90362" lon="4.5671">
        <ele>280.4</ele>
        <time>2022-06-26T07:50:45Z</time>
      </trkpt>
      <trkpt lat="45.9036" lon="4.56707">
        <ele>280.4</ele>
        <time>2022-06-26T07:50:46Z</time>
      </trkpt>
      <trkpt lat="45.90358" lon="4.56704">
        <ele>280.8</ele>
        <time>2022-06-26T07:50:47Z</time>
      </trkpt>
      <trkpt lat="45.90355" lon="4.567">
        <ele>280.8</ele>
        <time>2022-06-26T07:50:48Z</time>
      </trkpt>
      <trkpt lat="45.90352" lon="4.56697">
        <ele>281</ele>
        <time>2022-06-26T07:50:49Z</time>
      </trkpt>
      <trkpt lat="45.90349" lon="4.56694">
        <ele>281</ele>
        <time>2022-06-26T07:50:50Z</time>
      </trkpt>
      <trkpt lat="45.90347" lon="4.56691">
        <ele>281.2</ele>
        <time>2022-06-26T07:50:51Z</time>
      </trkpt>
      <trkpt lat="45.90345" lon="4.56688">
        <ele>281.2</ele>
        <time>2022-06-26T07:50:52Z</time>
      </trkpt>
      <trkpt lat="45.90343" lon="4.56687">
        <ele>281.6</ele>
        <time>2022-06-26T07:50:53Z</time>
      </trkpt>
      <trkpt lat="45.90341" lon="4.56683">
        <ele>281.6</ele>
        <time>2022-06-26T07:50:54Z</time>
      </trkpt>
      <trkpt lat="45.9034" lon="4.56681">
        <ele>281.6</ele>
        <time>2022-06-26T07:50:55Z</time>
      </trkpt>
      <trkpt lat="45.90338" lon="4.56678">
        <ele>282</ele>
        <time>2022-06-26T07:51:29Z</time>
      </trkpt>
      <trkpt lat="45.90337" lon="4.56676">
        <ele>282.2</ele>
        <time>2022-06-26T07:51:30Z</time>
      </trkpt>
      <trkpt lat="45.90335" lon="4.56674">
        <ele>282.2</ele>
        <time>2022-06-26T07:51:31Z</time>
      </trkpt>
      <trkpt lat="45.90334" lon="4.56672">
        <ele>282.2</ele>
        <time>2022-06-26T07:51:32Z</time>
      </trkpt>
      <trkpt lat="45.90332" lon="4.5667">
        <ele>282.6</ele>
        <time>2022-06-26T07:51:33Z</time>
      </trkpt>
      <trkpt lat="45.9033" lon="4.56667">
        <ele>282.6</ele>
        <time>2022-06-26T07:51:34Z</time>
      </trkpt>
      <trkpt lat="45.90329" lon="4.56665">
        <ele>282.8</ele>
        <time>2022-06-26T07:51:35Z</time>
      </trkpt>
      <trkpt lat="45.90328" lon="4.56663">
        <ele>282.8</ele>
        <time>2022-06-26T07:51:36Z</time>
      </trkpt>
      <trkpt lat="45.90326" lon="4.56662">
        <ele>283</ele>
        <time>2022-06-26T07:51:37Z</time>
      </trkpt>
      <trkpt lat="45.90325" lon="4.5666">
        <ele>283</ele>
        <time>2022-06-26T07:51:38Z</time>
      </trkpt>
      <trkpt lat="45.90324" lon="4.56658">
        <ele>283.2</ele>
        <time>2022-06-26T07:51:39Z</time>
      </trkpt>
      <trkpt lat="45.90322" lon="4.56655">
        <ele>283.2</ele>
        <time>2022-06-26T07:51:40Z</time>
      </trkpt>
      <trkpt lat="45.9032" lon="4.56652">
        <ele>283.4</ele>
        <time>2022-06-26T07:51:41Z</time>
      </trkpt>
      <trkpt lat="45.90318" lon="4.56649">
        <ele>283.4</ele>
        <time>2022-06-26T07:51:42Z</time>
      </trkpt>
      <trkpt lat="45.90316" lon="4.56645">
        <ele>283.4</ele>
        <time>2022-06-26T07:51:43Z</time>
      </trkpt>
      <trkpt lat="45.90314" lon="4.56642">
        <ele>283.4</ele>
        <time>2022-06-26T07:51:44Z</time>
      </trkpt>
      <trkpt lat="45.90312" lon="4.56638">
        <ele>283.8</ele>
        <time>2022-06-26T07:51:45Z</time>
      </trkpt>
      <trkpt lat="45.9031" lon="4.56635">
        <ele>283.8</ele>
        <time>2022-06-26T07:51:46Z</time>
      </trkpt>
      <trkpt lat="45.90308" lon="4.56632">
        <ele>284</ele>
        <time>2022-06-26T07:51:47Z</time>
      </trkpt>
      <trkpt lat="45.90307" lon="4.56628">
        <ele>284</ele>
        <time>2022-06-26T07:51:48Z</time>
      </trkpt>
      <trkpt lat="45.90305" lon="4.56625">
        <ele>284.2</ele>
        <time>2022-06-26T07:51:49Z</time>
      </trkpt>
      <trkpt lat="45.90303" lon="4.56622">
        <ele>284.2</ele>
        <time>2022-06-26T07:51:50Z</time>
      </trkpt>
      <trkpt lat="45.90301" lon="4.56618">
        <ele>284.8</ele>
        <time>2022-06-26T07:51:51Z</time>
      </trkpt>
      <trkpt lat="45.903" lon="4.56614">
        <ele>284.8</ele>
        <time>2022-06-26T07:51:52Z</time>
      </trkpt>
      <trkpt lat="45.90298" lon="4.5661">
        <ele>285</ele>
        <time>2022-06-26T07:51:53Z</time>
      </trkpt>
      <trkpt lat="45.90296" lon="4.56606">
        <ele>285</ele>
        <time>2022-06-26T07:51:54Z</time>
      </trkpt>
      <trkpt lat="45.90294" lon="4.56603">
        <ele>285.2</ele>
        <time>2022-06-26T07:51:55Z</time>
      </trkpt>
      <trkpt lat="45.90292" lon="4.56598">
        <ele>285.2</ele>
        <time>2022-06-26T07:51:56Z</time>
      </trkpt>
      <trkpt lat="45.9029" lon="4.56594">
        <ele>285.6</ele>
        <time>2022-06-26T07:51:57Z</time>
      </trkpt>
      <trkpt lat="45.90288" lon="4.56591">
        <ele>285.6</ele>
        <time>2022-06-26T07:51:58Z</time>
      </trkpt>
      <trkpt lat="45.90286" lon="4.56586">
        <ele>285.6</ele>
        <time>2022-06-26T07:51:59Z</time>
      </trkpt>
      <trkpt lat="45.90284" lon="4.56582">
        <ele>285.8</ele>
        <time>2022-06-26T07:52:00Z</time>
      </trkpt>
      <trkpt lat="45.90282" lon="4.56578">
        <ele>285.8</ele>
        <time>2022-06-26T07:52:01Z</time>
      </trkpt>
      <trkpt lat="45.9028" lon="4.56574">
        <ele>285.8</ele>
        <time>2022-06-26T07:52:02Z</time>
      </trkpt>
      <trkpt lat="45.90278" lon="4.5657">
        <ele>286.2</ele>
        <time>2022-06-26T07:52:03Z</time>
      </trkpt>
      <trkpt lat="45.90277" lon="4.56566">
        <ele>286.2</ele>
        <time>2022-06-26T07:52:04Z</time>
      </trkpt>
      <trkpt lat="45.90275" lon="4.56562">
        <ele>286.4</ele>
        <time>2022-06-26T07:52:05Z</time>
      </trkpt>
      <trkpt lat="45.90273" lon="4.56557">
        <ele>286.4</ele>
        <time>2022-06-26T07:52:06Z</time>
      </trkpt>
      <trkpt lat="45.90271" lon="4.56553">
        <ele>286.6</ele>
        <time>2022-06-26T07:52:07Z</time>
      </trkpt>
      <trkpt lat="45.90269" lon="4.56549">
        <ele>286.6</ele>
        <time>2022-06-26T07:52:08Z</time>
      </trkpt>
      <trkpt lat="45.90267" lon="4.56544">
        <ele>286.8</ele>
        <time>2022-06-26T07:52:09Z</time>
      </trkpt>
      <trkpt lat="45.90265" lon="4.5654">
        <ele>286.8</ele>
        <time>2022-06-26T07:52:10Z</time>
      </trkpt>
      <trkpt lat="45.90263" lon="4.56536">
        <ele>286.8</ele>
        <time>2022-06-26T07:52:11Z</time>
      </trkpt>
      <trkpt lat="45.90262" lon="4.56531">
        <ele>287.2</ele>
        <time>2022-06-26T07:52:12Z</time>
      </trkpt>
      <trkpt lat="45.9026" lon="4.56527">
        <ele>287.2</ele>
        <time>2022-06-26T07:52:13Z</time>
      </trkpt>
      <trkpt lat="45.90258" lon="4.56523">
        <ele>287.4</ele>
        <time>2022-06-26T07:52:14Z</time>
      </trkpt>
      <trkpt lat="45.90256" lon="4.56519">
        <ele>287.4</ele>
        <time>2022-06-26T07:52:15Z</time>
      </trkpt>
      <trkpt lat="45.90254" lon="4.56515">
        <ele>287.6</ele>
        <time>2022-06-26T07:52:16Z</time>
      </trkpt>
      <trkpt lat="45.90253" lon="4.5651">
        <ele>287.6</ele>
        <time>2022-06-26T07:52:17Z</time>
      </trkpt>
      <trkpt lat="45.90251" lon="4.56506">
        <ele>287.6</ele>
        <time>2022-06-26T07:52:18Z</time>
      </trkpt>
      <trkpt lat="45.9025" lon="4.56502">
        <ele>287.6</ele>
        <time>2022-06-26T07:52:19Z</time>
      </trkpt>
      <trkpt lat="45.90248" lon="4.56498">
        <ele>288</ele>
        <time>2022-06-26T07:52:20Z</time>
      </trkpt>
      <trkpt lat="45.90246" lon="4.56494">
        <ele>288</ele>
        <time>2022-06-26T07:52:21Z</time>
      </trkpt>
      <trkpt lat="45.90245" lon="4.5649">
        <ele>288.2</ele>
        <time>2022-06-26T07:52:22Z</time>
      </trkpt>
      <trkpt lat="45.90243" lon="4.56486">
        <ele>288.2</ele>
        <time>2022-06-26T07:52:23Z</time>
      </trkpt>
      <trkpt lat="45.90242" lon="4.56482">
        <ele>288.2</ele>
        <time>2022-06-26T07:52:24Z</time>
      </trkpt>
      <trkpt lat="45.9024" lon="4.56477">
        <ele>288.4</ele>
        <time>2022-06-26T07:52:25Z</time>
      </trkpt>
      <trkpt lat="45.90238" lon="4.56473">
        <ele>288.4</ele>
        <time>2022-06-26T07:52:26Z</time>
      </trkpt>
      <trkpt lat="45.90236" lon="4.56469">
        <ele>288.4</ele>
        <time>2022-06-26T07:52:27Z</time>
      </trkpt>
      <trkpt lat="45.90235" lon="4.56465">
        <ele>288.6</ele>
        <time>2022-06-26T07:52:28Z</time>
      </trkpt>
      <trkpt lat="45.90233" lon="4.5646">
        <ele>288.6</ele>
        <time>2022-06-26T07:52:29Z</time>
      </trkpt>
      <trkpt lat="45.90232" lon="4.56456">
        <ele>288.6</ele>
        <time>2022-06-26T07:52:30Z</time>
      </trkpt>
      <trkpt lat="45.9023" lon="4.56452">
        <ele>288.6</ele>
        <time>2022-06-26T07:52:31Z</time>
      </trkpt>
      <trkpt lat="45.90228" lon="4.56447">
        <ele>288.8</ele>
        <time>2022-06-26T07:52:32Z</time>
      </trkpt>
      <trkpt lat="45.90227" lon="4.56443">
        <ele>288.8</ele>
        <time>2022-06-26T07:52:33Z</time>
      </trkpt>
      <trkpt lat="45.90225" lon="4.56438">
        <ele>289</ele>
        <time>2022-06-26T07:52:34Z</time>
      </trkpt>
      <trkpt lat="45.90223" lon="4.56434">
        <ele>289</ele>
        <time>2022-06-26T07:52:35Z</time>
      </trkpt>
      <trkpt lat="45.90222" lon="4.56429">
        <ele>289.2</ele>
        <time>2022-06-26T07:52:36Z</time>
      </trkpt>
      <trkpt lat="45.9022" lon="4.56424">
        <ele>289.2</ele>
        <time>2022-06-26T07:52:37Z</time>
      </trkpt>
      <trkpt lat="45.90219" lon="4.56419">
        <ele>289.4</ele>
        <time>2022-06-26T07:52:38Z</time>
      </trkpt>
      <trkpt lat="45.90217" lon="4.56414">
        <ele>289.4</ele>
        <time>2022-06-26T07:52:39Z</time>
      </trkpt>
      <trkpt lat="45.90215" lon="4.5641">
        <ele>289.6</ele>
        <time>2022-06-26T07:52:40Z</time>
      </trkpt>
      <trkpt lat="45.90214" lon="4.56405">
        <ele>289.6</ele>
        <time>2022-06-26T07:52:41Z</time>
      </trkpt>
      <trkpt lat="45.90212" lon="4.56401">
        <ele>289.6</ele>
        <time>2022-06-26T07:52:42Z</time>
      </trkpt>
      <trkpt lat="45.9021" lon="4.56396">
        <ele>289.8</ele>
        <time>2022-06-26T07:52:43Z</time>
      </trkpt>
      <trkpt lat="45.90208" lon="4.56391">
        <ele>289.8</ele>
        <time>2022-06-26T07:52:44Z</time>
      </trkpt>
      <trkpt lat="45.90206" lon="4.56387">
        <ele>289.8</ele>
        <time>2022-06-26T07:52:45Z</time>
      </trkpt>
      <trkpt lat="45.90204" lon="4.56382">
        <ele>290.2</ele>
        <time>2022-06-26T07:52:46Z</time>
      </trkpt>
      <trkpt lat="45.90202" lon="4.56378">
        <ele>290.2</ele>
        <time>2022-06-26T07:52:47Z</time>
      </trkpt>
      <trkpt lat="45.90199" lon="4.56373">
        <ele>290.2</ele>
        <time>2022-06-26T07:52:48Z</time>
      </trkpt>
      <trkpt lat="45.90197" lon="4.56368">
        <ele>290.4</ele>
        <time>2022-06-26T07:52:49Z</time>
      </trkpt>
      <trkpt lat="45.90195" lon="4.56362">
        <ele>290.4</ele>
        <time>2022-06-26T07:52:50Z</time>
      </trkpt>
      <trkpt lat="45.90193" lon="4.56357">
        <ele>290.4</ele>
        <time>2022-06-26T07:52:51Z</time>
      </trkpt>
      <trkpt lat="45.9019" lon="4.56352">
        <ele>290.4</ele>
        <time>2022-06-26T07:52:52Z</time>
      </trkpt>
      <trkpt lat="45.90188" lon="4.56347">
        <ele>290.6</ele>
        <time>2022-06-26T07:52:53Z</time>
      </trkpt>
      <trkpt lat="45.90186" lon="4.56341">
        <ele>290.6</ele>
        <time>2022-06-26T07:52:54Z</time>
      </trkpt>
      <trkpt lat="45.90183" lon="4.56336">
        <ele>290.8</ele>
        <time>2022-06-26T07:52:55Z</time>
      </trkpt>
      <trkpt lat="45.90181" lon="4.5633">
        <ele>290.8</ele>
        <time>2022-06-26T07:52:56Z</time>
      </trkpt>
      <trkpt lat="45.90179" lon="4.56325">
        <ele>290.8</ele>
        <time>2022-06-26T07:52:57Z</time>
      </trkpt>
      <trkpt lat="45.90176" lon="4.56319">
        <ele>291.2</ele>
        <time>2022-06-26T07:52:58Z</time>
      </trkpt>
      <trkpt lat="45.90174" lon="4.56313">
        <ele>291.2</ele>
        <time>2022-06-26T07:52:59Z</time>
      </trkpt>
      <trkpt lat="45.90172" lon="4.56308">
        <ele>291.2</ele>
        <time>2022-06-26T07:53:00Z</time>
      </trkpt>
      <trkpt lat="45.90169" lon="4.56302">
        <ele>291.4</ele>
        <time>2022-06-26T07:53:01Z</time>
      </trkpt>
      <trkpt lat="45.90167" lon="4.56296">
        <ele>291.4</ele>
        <time>2022-06-26T07:53:02Z</time>
      </trkpt>
      <trkpt lat="45.90165" lon="4.56289">
        <ele>291.4</ele>
        <time>2022-06-26T07:53:03Z</time>
      </trkpt>
      <trkpt lat="45.90163" lon="4.56283">
        <ele>291.6</ele>
        <time>2022-06-26T07:53:04Z</time>
      </trkpt>
      <trkpt lat="45.90161" lon="4.56277">
        <ele>291.6</ele>
        <time>2022-06-26T07:53:05Z</time>
      </trkpt>
      <trkpt lat="45.90158" lon="4.56271">
        <ele>291.6</ele>
        <time>2022-06-26T07:53:06Z</time>
      </trkpt>
      <trkpt lat="45.90156" lon="4.56264">
        <ele>291.6</ele>
        <time>2022-06-26T07:53:07Z</time>
      </trkpt>
      <trkpt lat="45.90154" lon="4.56258">
        <ele>291.8</ele>
        <time>2022-06-26T07:53:08Z</time>
      </trkpt>
      <trkpt lat="45.90152" lon="4.56251">
        <ele>291.8</ele>
        <time>2022-06-26T07:53:09Z</time>
      </trkpt>
      <trkpt lat="45.9015" lon="4.56245">
        <ele>291.8</ele>
        <time>2022-06-26T07:53:10Z</time>
      </trkpt>
      <trkpt lat="45.90148" lon="4.56238">
        <ele>291.8</ele>
        <time>2022-06-26T07:53:11Z</time>
      </trkpt>
      <trkpt lat="45.90146" lon="4.56231">
        <ele>291.8</ele>
        <time>2022-06-26T07:53:12Z</time>
      </trkpt>
      <trkpt lat="45.90144" lon="4.56223">
        <ele>291.8</ele>
        <time>2022-06-26T07:53:13Z</time>
      </trkpt>
      <trkpt lat="45.90142" lon="4.56215">
        <ele>291.8</ele>
        <time>2022-06-26T07:53:14Z</time>
      </trkpt>
      <trkpt lat="45.9014" lon="4.56208">
        <ele>291.8</ele>
        <time>2022-06-26T07:53:15Z</time>
      </trkpt>
      <trkpt lat="45.90139" lon="4.562">
        <ele>291.8</ele>
        <time>2022-06-26T07:53:16Z</time>
      </trkpt>
      <trkpt lat="45.90137" lon="4.56192">
        <ele>291.8</ele>
        <time>2022-06-26T07:53:17Z</time>
      </trkpt>
      <trkpt lat="45.90136" lon="4.56185">
        <ele>291.8</ele>
        <time>2022-06-26T07:53:18Z</time>
      </trkpt>
      <trkpt lat="45.90134" lon="4.56178">
        <ele>291.8</ele>
        <time>2022-06-26T07:53:19Z</time>
      </trkpt>
      <trkpt lat="45.90133" lon="4.5617">
        <ele>291.8</ele>
        <time>2022-06-26T07:53:20Z</time>
      </trkpt>
      <trkpt lat="45.90132" lon="4.56162">
        <ele>291.8</ele>
        <time>2022-06-26T07:53:21Z</time>
      </trkpt>
      <trkpt lat="45.9013" lon="4.56155">
        <ele>292</ele>
        <time>2022-06-26T07:53:22Z</time>
      </trkpt>
      <trkpt lat="45.90129" lon="4.56147">
        <ele>292</ele>
        <time>2022-06-26T07:53:23Z</time>
      </trkpt>
      <trkpt lat="45.90128" lon="4.56139">
        <ele>292</ele>
        <time>2022-06-26T07:53:24Z</time>
      </trkpt>
      <trkpt lat="45.90127" lon="4.56132">
        <ele>292.4</ele>
        <time>2022-06-26T07:53:25Z</time>
      </trkpt>
      <trkpt lat="45.90126" lon="4.56124">
        <ele>292.4</ele>
        <time>2022-06-26T07:53:26Z</time>
      </trkpt>
      <trkpt lat="45.90125" lon="4.56117">
        <ele>292.4</ele>
        <time>2022-06-26T07:53:27Z</time>
      </trkpt>
      <trkpt lat="45.90123" lon="4.56109">
        <ele>292.4</ele>
        <time>2022-06-26T07:53:28Z</time>
      </trkpt>
      <trkpt lat="45.90123" lon="4.56102">
        <ele>292.4</ele>
        <time>2022-06-26T07:53:29Z</time>
      </trkpt>
      <trkpt lat="45.90122" lon="4.56094">
        <ele>292.4</ele>
        <time>2022-06-26T07:53:30Z</time>
      </trkpt>
      <trkpt lat="45.90121" lon="4.56086">
        <ele>292.6</ele>
        <time>2022-06-26T07:53:31Z</time>
      </trkpt>
      <trkpt lat="45.9012" lon="4.56078">
        <ele>292.6</ele>
        <time>2022-06-26T07:53:32Z</time>
      </trkpt>
      <trkpt lat="45.9012" lon="4.5607">
        <ele>292.6</ele>
        <time>2022-06-26T07:53:33Z</time>
      </trkpt>
      <trkpt lat="45.90119" lon="4.56063">
        <ele>292.6</ele>
        <time>2022-06-26T07:53:34Z</time>
      </trkpt>
      <trkpt lat="45.90118" lon="4.56055">
        <ele>292.6</ele>
        <time>2022-06-26T07:53:35Z</time>
      </trkpt>
      <trkpt lat="45.90118" lon="4.56048">
        <ele>292.6</ele>
        <time>2022-06-26T07:53:36Z</time>
      </trkpt>
      <trkpt lat="45.90117" lon="4.5604">
        <ele>292.6</ele>
        <time>2022-06-26T07:53:37Z</time>
      </trkpt>
      <trkpt lat="45.90116" lon="4.56032">
        <ele>292.6</ele>
        <time>2022-06-26T07:53:38Z</time>
      </trkpt>
      <trkpt lat="45.90116" lon="4.56025">
        <ele>292.6</ele>
        <time>2022-06-26T07:53:39Z</time>
      </trkpt>
      <trkpt lat="45.90115" lon="4.56017">
        <ele>292.6</ele>
        <time>2022-06-26T07:53:40Z</time>
      </trkpt>
      <trkpt lat="45.90114" lon="4.5601">
        <ele>292.6</ele>
        <time>2022-06-26T07:53:41Z</time>
      </trkpt>
      <trkpt lat="45.90114" lon="4.56002">
        <ele>292.6</ele>
        <time>2022-06-26T07:53:42Z</time>
      </trkpt>
      <trkpt lat="45.90113" lon="4.55994">
        <ele>292.6</ele>
        <time>2022-06-26T07:53:43Z</time>
      </trkpt>
      <trkpt lat="45.90112" lon="4.55986">
        <ele>292.6</ele>
        <time>2022-06-26T07:53:44Z</time>
      </trkpt>
      <trkpt lat="45.90112" lon="4.55978">
        <ele>292.6</ele>
        <time>2022-06-26T07:53:45Z</time>
      </trkpt>
      <trkpt lat="45.90111" lon="4.55971">
        <ele>292.6</ele>
        <time>2022-06-26T07:53:46Z</time>
      </trkpt>
      <trkpt lat="45.9011" lon="4.55963">
        <ele>292.6</ele>
        <time>2022-06-26T07:53:47Z</time>
      </trkpt>
      <trkpt lat="45.9011" lon="4.55955">
        <ele>292.4</ele>
        <time>2022-06-26T07:53:48Z</time>
      </trkpt>
      <trkpt lat="45.90109" lon="4.55948">
        <ele>292.4</ele>
        <time>2022-06-26T07:53:49Z</time>
      </trkpt>
      <trkpt lat="45.90109" lon="4.5594">
        <ele>292.4</ele>
        <time>2022-06-26T07:53:50Z</time>
      </trkpt>
      <trkpt lat="45.90108" lon="4.55932">
        <ele>292</ele>
        <time>2022-06-26T07:53:51Z</time>
      </trkpt>
      <trkpt lat="45.90108" lon="4.55924">
        <ele>292</ele>
        <time>2022-06-26T07:53:52Z</time>
      </trkpt>
      <trkpt lat="45.90108" lon="4.55916">
        <ele>291.8</ele>
        <time>2022-06-26T07:53:53Z</time>
      </trkpt>
      <trkpt lat="45.90108" lon="4.55907">
        <ele>291.8</ele>
        <time>2022-06-26T07:53:54Z</time>
      </trkpt>
      <trkpt lat="45.90108" lon="4.55899">
        <ele>291.4</ele>
        <time>2022-06-26T07:53:55Z</time>
      </trkpt>
      <trkpt lat="45.90109" lon="4.5589">
        <ele>291.4</ele>
        <time>2022-06-26T07:53:56Z</time>
      </trkpt>
      <trkpt lat="45.90109" lon="4.55881">
        <ele>291.2</ele>
        <time>2022-06-26T07:53:57Z</time>
      </trkpt>
      <trkpt lat="45.9011" lon="4.55872">
        <ele>291.2</ele>
        <time>2022-06-26T07:53:58Z</time>
      </trkpt>
      <trkpt lat="45.90111" lon="4.55863">
        <ele>291</ele>
        <time>2022-06-26T07:53:59Z</time>
      </trkpt>
      <trkpt lat="45.90113" lon="4.55853">
        <ele>291</ele>
        <time>2022-06-26T07:54:00Z</time>
      </trkpt>
      <trkpt lat="45.90114" lon="4.55844">
        <ele>290.6</ele>
        <time>2022-06-26T07:54:01Z</time>
      </trkpt>
      <trkpt lat="45.90116" lon="4.55834">
        <ele>290.6</ele>
        <time>2022-06-26T07:54:02Z</time>
      </trkpt>
      <trkpt lat="45.90119" lon="4.55824">
        <ele>290.4</ele>
        <time>2022-06-26T07:54:03Z</time>
      </trkpt>
      <trkpt lat="45.90121" lon="4.55815">
        <ele>290.4</ele>
        <time>2022-06-26T07:54:04Z</time>
      </trkpt>
      <trkpt lat="45.90124" lon="4.55805">
        <ele>290</ele>
        <time>2022-06-26T07:54:05Z</time>
      </trkpt>
      <trkpt lat="45.90127" lon="4.55796">
        <ele>290</ele>
        <time>2022-06-26T07:54:06Z</time>
      </trkpt>
      <trkpt lat="45.9013" lon="4.55787">
        <ele>289.8</ele>
        <time>2022-06-26T07:54:07Z</time>
      </trkpt>
      <trkpt lat="45.90133" lon="4.55777">
        <ele>289.6</ele>
        <time>2022-06-26T07:54:08Z</time>
      </trkpt>
      <trkpt lat="45.90136" lon="4.55768">
        <ele>289.6</ele>
        <time>2022-06-26T07:54:09Z</time>
      </trkpt>
      <trkpt lat="45.90139" lon="4.55759">
        <ele>289.2</ele>
        <time>2022-06-26T07:54:10Z</time>
      </trkpt>
      <trkpt lat="45.90142" lon="4.55749">
        <ele>289.2</ele>
        <time>2022-06-26T07:54:11Z</time>
      </trkpt>
      <trkpt lat="45.90145" lon="4.5574">
        <ele>288.8</ele>
        <time>2022-06-26T07:54:12Z</time>
      </trkpt>
      <trkpt lat="45.90148" lon="4.55731">
        <ele>288.6</ele>
        <time>2022-06-26T07:54:13Z</time>
      </trkpt>
      <trkpt lat="45.90152" lon="4.55721">
        <ele>288.6</ele>
        <time>2022-06-26T07:54:14Z</time>
      </trkpt>
      <trkpt lat="45.90155" lon="4.55711">
        <ele>288.4</ele>
        <time>2022-06-26T07:54:15Z</time>
      </trkpt>
      <trkpt lat="45.90158" lon="4.55701">
        <ele>288.4</ele>
        <time>2022-06-26T07:54:16Z</time>
      </trkpt>
      <trkpt lat="45.90161" lon="4.55692">
        <ele>288</ele>
        <time>2022-06-26T07:54:17Z</time>
      </trkpt>
      <trkpt lat="45.90164" lon="4.55682">
        <ele>288</ele>
        <time>2022-06-26T07:54:18Z</time>
      </trkpt>
      <trkpt lat="45.90168" lon="4.55673">
        <ele>287.6</ele>
        <time>2022-06-26T07:54:19Z</time>
      </trkpt>
      <trkpt lat="45.90171" lon="4.55663">
        <ele>287.6</ele>
        <time>2022-06-26T07:54:20Z</time>
      </trkpt>
      <trkpt lat="45.90174" lon="4.55654">
        <ele>287.4</ele>
        <time>2022-06-26T07:54:21Z</time>
      </trkpt>
      <trkpt lat="45.90176" lon="4.55643">
        <ele>287.4</ele>
        <time>2022-06-26T07:54:22Z</time>
      </trkpt>
      <trkpt lat="45.90179" lon="4.55634">
        <ele>287.2</ele>
        <time>2022-06-26T07:54:23Z</time>
      </trkpt>
      <trkpt lat="45.90182" lon="4.55623">
        <ele>287.2</ele>
        <time>2022-06-26T07:54:24Z</time>
      </trkpt>
      <trkpt lat="45.90184" lon="4.55613">
        <ele>287.2</ele>
        <time>2022-06-26T07:54:25Z</time>
      </trkpt>
      <trkpt lat="45.90187" lon="4.55603">
        <ele>286.8</ele>
        <time>2022-06-26T07:54:26Z</time>
      </trkpt>
      <trkpt lat="45.90189" lon="4.55592">
        <ele>286.8</ele>
        <time>2022-06-26T07:54:27Z</time>
      </trkpt>
      <trkpt lat="45.90191" lon="4.55581">
        <ele>286.6</ele>
        <time>2022-06-26T07:54:28Z</time>
      </trkpt>
      <trkpt lat="45.90193" lon="4.5557">
        <ele>286.6</ele>
        <time>2022-06-26T07:54:29Z</time>
      </trkpt>
      <trkpt lat="45.90194" lon="4.55559">
        <ele>286.2</ele>
        <time>2022-06-26T07:54:30Z</time>
      </trkpt>
      <trkpt lat="45.90195" lon="4.55547">
        <ele>286.2</ele>
        <time>2022-06-26T07:54:31Z</time>
      </trkpt>
      <trkpt lat="45.90196" lon="4.55536">
        <ele>286</ele>
        <time>2022-06-26T07:54:32Z</time>
      </trkpt>
      <trkpt lat="45.90197" lon="4.55524">
        <ele>286</ele>
        <time>2022-06-26T07:54:33Z</time>
      </trkpt>
      <trkpt lat="45.90198" lon="4.55512">
        <ele>285.6</ele>
        <time>2022-06-26T07:54:34Z</time>
      </trkpt>
      <trkpt lat="45.90198" lon="4.555">
        <ele>285.2</ele>
        <time>2022-06-26T07:54:35Z</time>
      </trkpt>
      <trkpt lat="45.90199" lon="4.55488">
        <ele>285</ele>
        <time>2022-06-26T07:54:36Z</time>
      </trkpt>
      <trkpt lat="45.90199" lon="4.55476">
        <ele>284.8</ele>
        <time>2022-06-26T07:54:37Z</time>
      </trkpt>
      <trkpt lat="45.902" lon="4.55464">
        <ele>284.8</ele>
        <time>2022-06-26T07:54:38Z</time>
      </trkpt>
      <trkpt lat="45.902" lon="4.55452">
        <ele>284.6</ele>
        <time>2022-06-26T07:54:39Z</time>
      </trkpt>
      <trkpt lat="45.902" lon="4.5544">
        <ele>284.6</ele>
        <time>2022-06-26T07:54:40Z</time>
      </trkpt>
      <trkpt lat="45.90201" lon="4.55428">
        <ele>284.2</ele>
        <time>2022-06-26T07:54:41Z</time>
      </trkpt>
      <trkpt lat="45.90201" lon="4.55416">
        <ele>284</ele>
        <time>2022-06-26T07:54:42Z</time>
      </trkpt>
      <trkpt lat="45.90201" lon="4.55405">
        <ele>284</ele>
        <time>2022-06-26T07:54:43Z</time>
      </trkpt>
      <trkpt lat="45.90201" lon="4.55393">
        <ele>283.8</ele>
        <time>2022-06-26T07:54:44Z</time>
      </trkpt>
      <trkpt lat="45.902" lon="4.55382">
        <ele>283.8</ele>
        <time>2022-06-26T07:54:45Z</time>
      </trkpt>
      <trkpt lat="45.90199" lon="4.55371">
        <ele>283.6</ele>
        <time>2022-06-26T07:54:46Z</time>
      </trkpt>
      <trkpt lat="45.90198" lon="4.5536">
        <ele>283.6</ele>
        <time>2022-06-26T07:54:47Z</time>
      </trkpt>
      <trkpt lat="45.90196" lon="4.55348">
        <ele>283.6</ele>
        <time>2022-06-26T07:54:48Z</time>
      </trkpt>
      <trkpt lat="45.90194" lon="4.55337">
        <ele>283.2</ele>
        <time>2022-06-26T07:54:49Z</time>
      </trkpt>
      <trkpt lat="45.90192" lon="4.55326">
        <ele>283.2</ele>
        <time>2022-06-26T07:54:50Z</time>
      </trkpt>
      <trkpt lat="45.90189" lon="4.55315">
        <ele>282.8</ele>
        <time>2022-06-26T07:54:51Z</time>
      </trkpt>
      <trkpt lat="45.90187" lon="4.55304">
        <ele>282.8</ele>
        <time>2022-06-26T07:54:52Z</time>
      </trkpt>
      <trkpt lat="45.90185" lon="4.55293">
        <ele>282.8</ele>
        <time>2022-06-26T07:54:53Z</time>
      </trkpt>
      <trkpt lat="45.90183" lon="4.55283">
        <ele>282.8</ele>
        <time>2022-06-26T07:54:54Z</time>
      </trkpt>
      <trkpt lat="45.90182" lon="4.55272">
        <ele>282.8</ele>
        <time>2022-06-26T07:54:55Z</time>
      </trkpt>
      <trkpt lat="45.90181" lon="4.55262">
        <ele>282.8</ele>
        <time>2022-06-26T07:54:56Z</time>
      </trkpt>
      <trkpt lat="45.9018" lon="4.55252">
        <ele>282.8</ele>
        <time>2022-06-26T07:54:57Z</time>
      </trkpt>
      <trkpt lat="45.90178" lon="4.55242">
        <ele>282.8</ele>
        <time>2022-06-26T07:54:58Z</time>
      </trkpt>
      <trkpt lat="45.90177" lon="4.55232">
        <ele>282.8</ele>
        <time>2022-06-26T07:54:59Z</time>
      </trkpt>
      <trkpt lat="45.90177" lon="4.55223">
        <ele>283.2</ele>
        <time>2022-06-26T07:55:00Z</time>
      </trkpt>
      <trkpt lat="45.90176" lon="4.55213">
        <ele>283.2</ele>
        <time>2022-06-26T07:55:01Z</time>
      </trkpt>
      <trkpt lat="45.90176" lon="4.55204">
        <ele>283.2</ele>
        <time>2022-06-26T07:55:02Z</time>
      </trkpt>
      <trkpt lat="45.90175" lon="4.55195">
        <ele>283.4</ele>
        <time>2022-06-26T07:55:03Z</time>
      </trkpt>
      <trkpt lat="45.90175" lon="4.55186">
        <ele>283.4</ele>
        <time>2022-06-26T07:55:04Z</time>
      </trkpt>
      <trkpt lat="45.90175" lon="4.55177">
        <ele>283.6</ele>
        <time>2022-06-26T07:55:05Z</time>
      </trkpt>
      <trkpt lat="45.90175" lon="4.55168">
        <ele>283.6</ele>
        <time>2022-06-26T07:55:06Z</time>
      </trkpt>
      <trkpt lat="45.90175" lon="4.55159">
        <ele>284</ele>
        <time>2022-06-26T07:55:07Z</time>
      </trkpt>
      <trkpt lat="45.90175" lon="4.5515">
        <ele>284</ele>
        <time>2022-06-26T07:55:08Z</time>
      </trkpt>
      <trkpt lat="45.90175" lon="4.55142">
        <ele>284.2</ele>
        <time>2022-06-26T07:55:09Z</time>
      </trkpt>
      <trkpt lat="45.90176" lon="4.55133">
        <ele>284.2</ele>
        <time>2022-06-26T07:55:10Z</time>
      </trkpt>
      <trkpt lat="45.90176" lon="4.55124">
        <ele>284.4</ele>
        <time>2022-06-26T07:55:11Z</time>
      </trkpt>
      <trkpt lat="45.90177" lon="4.55116">
        <ele>284.4</ele>
        <time>2022-06-26T07:55:12Z</time>
      </trkpt>
      <trkpt lat="45.90178" lon="4.55107">
        <ele>284.4</ele>
        <time>2022-06-26T07:55:13Z</time>
      </trkpt>
      <trkpt lat="45.90179" lon="4.55099">
        <ele>284.6</ele>
        <time>2022-06-26T07:55:14Z</time>
      </trkpt>
      <trkpt lat="45.9018" lon="4.5509">
        <ele>284.6</ele>
        <time>2022-06-26T07:55:15Z</time>
      </trkpt>
      <trkpt lat="45.90182" lon="4.55082">
        <ele>284.6</ele>
        <time>2022-06-26T07:55:16Z</time>
      </trkpt>
      <trkpt lat="45.90183" lon="4.55074">
        <ele>285</ele>
        <time>2022-06-26T07:55:17Z</time>
      </trkpt>
      <trkpt lat="45.90185" lon="4.55066">
        <ele>285</ele>
        <time>2022-06-26T07:55:18Z</time>
      </trkpt>
      <trkpt lat="45.90186" lon="4.55059">
        <ele>285.2</ele>
        <time>2022-06-26T07:55:19Z</time>
      </trkpt>
      <trkpt lat="45.90188" lon="4.55051">
        <ele>285.4</ele>
        <time>2022-06-26T07:55:20Z</time>
      </trkpt>
      <trkpt lat="45.9019" lon="4.55044">
        <ele>285.4</ele>
        <time>2022-06-26T07:55:21Z</time>
      </trkpt>
      <trkpt lat="45.90191" lon="4.55036">
        <ele>285.6</ele>
        <time>2022-06-26T07:55:22Z</time>
      </trkpt>
      <trkpt lat="45.90193" lon="4.55028">
        <ele>285.6</ele>
        <time>2022-06-26T07:55:23Z</time>
      </trkpt>
      <trkpt lat="45.90195" lon="4.55021">
        <ele>286</ele>
        <time>2022-06-26T07:55:24Z</time>
      </trkpt>
      <trkpt lat="45.90196" lon="4.55014">
        <ele>286</ele>
        <time>2022-06-26T07:55:25Z</time>
      </trkpt>
      <trkpt lat="45.90198" lon="4.55006">
        <ele>286.2</ele>
        <time>2022-06-26T07:55:26Z</time>
      </trkpt>
      <trkpt lat="45.902" lon="4.54999">
        <ele>286.2</ele>
        <time>2022-06-26T07:55:27Z</time>
      </trkpt>
      <trkpt lat="45.90201" lon="4.54992">
        <ele>286.2</ele>
        <time>2022-06-26T07:55:28Z</time>
      </trkpt>
      <trkpt lat="45.90203" lon="4.54984">
        <ele>286.6</ele>
        <time>2022-06-26T07:55:29Z</time>
      </trkpt>
      <trkpt lat="45.90204" lon="4.54977">
        <ele>286.6</ele>
        <time>2022-06-26T07:55:30Z</time>
      </trkpt>
      <trkpt lat="45.90206" lon="4.5497">
        <ele>286.8</ele>
        <time>2022-06-26T07:55:31Z</time>
      </trkpt>
      <trkpt lat="45.90207" lon="4.54962">
        <ele>287</ele>
        <time>2022-06-26T07:55:32Z</time>
      </trkpt>
      <trkpt lat="45.90209" lon="4.54955">
        <ele>287</ele>
        <time>2022-06-26T07:55:33Z</time>
      </trkpt>
      <trkpt lat="45.9021" lon="4.54947">
        <ele>287</ele>
        <time>2022-06-26T07:55:34Z</time>
      </trkpt>
      <trkpt lat="45.90212" lon="4.5494">
        <ele>287.4</ele>
        <time>2022-06-26T07:55:35Z</time>
      </trkpt>
      <trkpt lat="45.90214" lon="4.54932">
        <ele>287.4</ele>
        <time>2022-06-26T07:55:36Z</time>
      </trkpt>
      <trkpt lat="45.90215" lon="4.54925">
        <ele>287.4</ele>
        <time>2022-06-26T07:55:37Z</time>
      </trkpt>
      <trkpt lat="45.90217" lon="4.54918">
        <ele>287.6</ele>
        <time>2022-06-26T07:55:38Z</time>
      </trkpt>
      <trkpt lat="45.90218" lon="4.5491">
        <ele>287.6</ele>
        <time>2022-06-26T07:55:39Z</time>
      </trkpt>
      <trkpt lat="45.9022" lon="4.54903">
        <ele>287.8</ele>
        <time>2022-06-26T07:55:40Z</time>
      </trkpt>
      <trkpt lat="45.90222" lon="4.54896">
        <ele>287.8</ele>
        <time>2022-06-26T07:55:41Z</time>
      </trkpt>
      <trkpt lat="45.90223" lon="4.54888">
        <ele>287.8</ele>
        <time>2022-06-26T07:55:42Z</time>
      </trkpt>
      <trkpt lat="45.90225" lon="4.5488">
        <ele>288</ele>
        <time>2022-06-26T07:55:43Z</time>
      </trkpt>
      <trkpt lat="45.90226" lon="4.54872">
        <ele>288</ele>
        <time>2022-06-26T07:55:44Z</time>
      </trkpt>
      <trkpt lat="45.90228" lon="4.54865">
        <ele>288</ele>
        <time>2022-06-26T07:55:45Z</time>
      </trkpt>
      <trkpt lat="45.9023" lon="4.54857">
        <ele>288</ele>
        <time>2022-06-26T07:55:46Z</time>
      </trkpt>
      <trkpt lat="45.90232" lon="4.54849">
        <ele>288</ele>
        <time>2022-06-26T07:55:47Z</time>
      </trkpt>
      <trkpt lat="45.90233" lon="4.54842">
        <ele>288</ele>
        <time>2022-06-26T07:55:48Z</time>
      </trkpt>
      <trkpt lat="45.90235" lon="4.54834">
        <ele>288</ele>
        <time>2022-06-26T07:55:49Z</time>
      </trkpt>
      <trkpt lat="45.90237" lon="4.54826">
        <ele>288.4</ele>
        <time>2022-06-26T07:55:50Z</time>
      </trkpt>
      <trkpt lat="45.90239" lon="4.54819">
        <ele>288.4</ele>
        <time>2022-06-26T07:55:51Z</time>
      </trkpt>
      <trkpt lat="45.90242" lon="4.54811">
        <ele>288.6</ele>
        <time>2022-06-26T07:55:52Z</time>
      </trkpt>
      <trkpt lat="45.90244" lon="4.54804">
        <ele>288.6</ele>
        <time>2022-06-26T07:55:53Z</time>
      </trkpt>
      <trkpt lat="45.90247" lon="4.54796">
        <ele>288.6</ele>
        <time>2022-06-26T07:55:54Z</time>
      </trkpt>
      <trkpt lat="45.9025" lon="4.54789">
        <ele>288.6</ele>
        <time>2022-06-26T07:55:55Z</time>
      </trkpt>
      <trkpt lat="45.90253" lon="4.54782">
        <ele>288.6</ele>
        <time>2022-06-26T07:55:56Z</time>
      </trkpt>
      <trkpt lat="45.90256" lon="4.54775">
        <ele>288.6</ele>
        <time>2022-06-26T07:55:57Z</time>
      </trkpt>
      <trkpt lat="45.90259" lon="4.54768">
        <ele>288.6</ele>
        <time>2022-06-26T07:55:58Z</time>
      </trkpt>
      <trkpt lat="45.90262" lon="4.54761">
        <ele>288.6</ele>
        <time>2022-06-26T07:55:59Z</time>
      </trkpt>
      <trkpt lat="45.90266" lon="4.54755">
        <ele>288.6</ele>
        <time>2022-06-26T07:56:00Z</time>
      </trkpt>
      <trkpt lat="45.90269" lon="4.54748">
        <ele>288.6</ele>
        <time>2022-06-26T07:56:01Z</time>
      </trkpt>
      <trkpt lat="45.90272" lon="4.54742">
        <ele>288.6</ele>
        <time>2022-06-26T07:56:02Z</time>
      </trkpt>
      <trkpt lat="45.90276" lon="4.54736">
        <ele>288.6</ele>
        <time>2022-06-26T07:56:03Z</time>
      </trkpt>
      <trkpt lat="45.90279" lon="4.5473">
        <ele>288.8</ele>
        <time>2022-06-26T07:56:04Z</time>
      </trkpt>
      <trkpt lat="45.90283" lon="4.54723">
        <ele>288.8</ele>
        <time>2022-06-26T07:56:05Z</time>
      </trkpt>
      <trkpt lat="45.90286" lon="4.54717">
        <ele>288.8</ele>
        <time>2022-06-26T07:56:06Z</time>
      </trkpt>
      <trkpt lat="45.9029" lon="4.54711">
        <ele>289</ele>
        <time>2022-06-26T07:56:07Z</time>
      </trkpt>
      <trkpt lat="45.90293" lon="4.54705">
        <ele>289</ele>
        <time>2022-06-26T07:56:08Z</time>
      </trkpt>
      <trkpt lat="45.90297" lon="4.54699">
        <ele>289</ele>
        <time>2022-06-26T07:56:09Z</time>
      </trkpt>
      <trkpt lat="45.903" lon="4.54693">
        <ele>289</ele>
        <time>2022-06-26T07:56:10Z</time>
      </trkpt>
      <trkpt lat="45.90304" lon="4.54687">
        <ele>289</ele>
        <time>2022-06-26T07:56:11Z</time>
      </trkpt>
      <trkpt lat="45.90307" lon="4.54681">
        <ele>289</ele>
        <time>2022-06-26T07:56:12Z</time>
      </trkpt>
      <trkpt lat="45.9031" lon="4.54674">
        <ele>289.2</ele>
        <time>2022-06-26T07:56:13Z</time>
      </trkpt>
      <trkpt lat="45.90314" lon="4.54668">
        <ele>289.2</ele>
        <time>2022-06-26T07:56:14Z</time>
      </trkpt>
      <trkpt lat="45.90317" lon="4.54662">
        <ele>289.2</ele>
        <time>2022-06-26T07:56:15Z</time>
      </trkpt>
      <trkpt lat="45.9032" lon="4.54655">
        <ele>289.6</ele>
        <time>2022-06-26T07:56:16Z</time>
      </trkpt>
      <trkpt lat="45.90323" lon="4.54649">
        <ele>289.6</ele>
        <time>2022-06-26T07:56:17Z</time>
      </trkpt>
      <trkpt lat="45.90325" lon="4.54642">
        <ele>289.6</ele>
        <time>2022-06-26T07:56:18Z</time>
      </trkpt>
      <trkpt lat="45.90328" lon="4.54635">
        <ele>289.6</ele>
        <time>2022-06-26T07:56:19Z</time>
      </trkpt>
      <trkpt lat="45.90331" lon="4.54627">
        <ele>289.8</ele>
        <time>2022-06-26T07:56:20Z</time>
      </trkpt>
      <trkpt lat="45.90333" lon="4.5462">
        <ele>289.8</ele>
        <time>2022-06-26T07:56:22Z</time>
      </trkpt>
      <trkpt lat="45.90335" lon="4.54613">
        <ele>289.8</ele>
        <time>2022-06-26T07:56:23Z</time>
      </trkpt>
      <trkpt lat="45.90338" lon="4.54605">
        <ele>290.2</ele>
        <time>2022-06-26T07:56:24Z</time>
      </trkpt>
      <trkpt lat="45.9034" lon="4.54597">
        <ele>290.2</ele>
        <time>2022-06-26T07:56:25Z</time>
      </trkpt>
      <trkpt lat="45.90341" lon="4.54589">
        <ele>290.2</ele>
        <time>2022-06-26T07:56:26Z</time>
      </trkpt>
      <trkpt lat="45.90343" lon="4.54581">
        <ele>290.4</ele>
        <time>2022-06-26T07:56:27Z</time>
      </trkpt>
      <trkpt lat="45.90344" lon="4.54573">
        <ele>290.4</ele>
        <time>2022-06-26T07:56:28Z</time>
      </trkpt>
      <trkpt lat="45.90345" lon="4.54565">
        <ele>290.4</ele>
        <time>2022-06-26T07:56:29Z</time>
      </trkpt>
      <trkpt lat="45.90346" lon="4.54557">
        <ele>290.4</ele>
        <time>2022-06-26T07:56:30Z</time>
      </trkpt>
      <trkpt lat="45.90347" lon="4.54549">
        <ele>290.4</ele>
        <time>2022-06-26T07:56:31Z</time>
      </trkpt>
      <trkpt lat="45.90347" lon="4.54541">
        <ele>290.4</ele>
        <time>2022-06-26T07:56:32Z</time>
      </trkpt>
      <trkpt lat="45.90347" lon="4.54532">
        <ele>290.4</ele>
        <time>2022-06-26T07:56:33Z</time>
      </trkpt>
      <trkpt lat="45.90347" lon="4.54524">
        <ele>290.4</ele>
        <time>2022-06-26T07:56:34Z</time>
      </trkpt>
      <trkpt lat="45.90346" lon="4.54516">
        <ele>290.4</ele>
        <time>2022-06-26T07:56:35Z</time>
      </trkpt>
      <trkpt lat="45.90346" lon="4.54508">
        <ele>290.4</ele>
        <time>2022-06-26T07:56:36Z</time>
      </trkpt>
      <trkpt lat="45.90345" lon="4.54499">
        <ele>290.4</ele>
        <time>2022-06-26T07:56:37Z</time>
      </trkpt>
      <trkpt lat="45.90344" lon="4.54491">
        <ele>290.4</ele>
        <time>2022-06-26T07:56:38Z</time>
      </trkpt>
      <trkpt lat="45.90343" lon="4.54483">
        <ele>290.4</ele>
        <time>2022-06-26T07:56:39Z</time>
      </trkpt>
      <trkpt lat="45.90342" lon="4.54474">
        <ele>290.4</ele>
        <time>2022-06-26T07:56:40Z</time>
      </trkpt>
      <trkpt lat="45.9034" lon="4.54466">
        <ele>290.4</ele>
        <time>2022-06-26T07:56:41Z</time>
      </trkpt>
      <trkpt lat="45.90339" lon="4.54458">
        <ele>290.4</ele>
        <time>2022-06-26T07:56:42Z</time>
      </trkpt>
      <trkpt lat="45.90337" lon="4.54449">
        <ele>290.2</ele>
        <time>2022-06-26T07:56:43Z</time>
      </trkpt>
      <trkpt lat="45.90336" lon="4.54441">
        <ele>290.2</ele>
        <time>2022-06-26T07:56:44Z</time>
      </trkpt>
      <trkpt lat="45.90334" lon="4.54433">
        <ele>290.2</ele>
        <time>2022-06-26T07:56:45Z</time>
      </trkpt>
      <trkpt lat="45.90332" lon="4.54425">
        <ele>290.2</ele>
        <time>2022-06-26T07:56:46Z</time>
      </trkpt>
      <trkpt lat="45.90331" lon="4.54416">
        <ele>290.2</ele>
        <time>2022-06-26T07:56:47Z</time>
      </trkpt>
      <trkpt lat="45.90329" lon="4.54408">
        <ele>290.2</ele>
        <time>2022-06-26T07:56:48Z</time>
      </trkpt>
      <trkpt lat="45.90328" lon="4.544">
        <ele>290.2</ele>
        <time>2022-06-26T07:56:49Z</time>
      </trkpt>
      <trkpt lat="45.90326" lon="4.54392">
        <ele>290.2</ele>
        <time>2022-06-26T07:56:50Z</time>
      </trkpt>
      <trkpt lat="45.90324" lon="4.54384">
        <ele>290.2</ele>
        <time>2022-06-26T07:56:51Z</time>
      </trkpt>
      <trkpt lat="45.90322" lon="4.54376">
        <ele>290.2</ele>
        <time>2022-06-26T07:56:52Z</time>
      </trkpt>
      <trkpt lat="45.9032" lon="4.54367">
        <ele>290.2</ele>
        <time>2022-06-26T07:56:53Z</time>
      </trkpt>
      <trkpt lat="45.90318" lon="4.54359">
        <ele>290.6</ele>
        <time>2022-06-26T07:56:54Z</time>
      </trkpt>
      <trkpt lat="45.90317" lon="4.54352">
        <ele>290.6</ele>
        <time>2022-06-26T07:56:55Z</time>
      </trkpt>
      <trkpt lat="45.90315" lon="4.54344">
        <ele>290.6</ele>
        <time>2022-06-26T07:56:56Z</time>
      </trkpt>
      <trkpt lat="45.90314" lon="4.54336">
        <ele>290.6</ele>
        <time>2022-06-26T07:56:57Z</time>
      </trkpt>
      <trkpt lat="45.90313" lon="4.54327">
        <ele>290.6</ele>
        <time>2022-06-26T07:56:58Z</time>
      </trkpt>
      <trkpt lat="45.90312" lon="4.54319">
        <ele>290.6</ele>
        <time>2022-06-26T07:56:59Z</time>
      </trkpt>
      <trkpt lat="45.90311" lon="4.54312">
        <ele>290.6</ele>
        <time>2022-06-26T07:57:00Z</time>
      </trkpt>
      <trkpt lat="45.9031" lon="4.54304">
        <ele>290.6</ele>
        <time>2022-06-26T07:57:01Z</time>
      </trkpt>
      <trkpt lat="45.90309" lon="4.54297">
        <ele>290.6</ele>
        <time>2022-06-26T07:57:02Z</time>
      </trkpt>
      <trkpt lat="45.90308" lon="4.54289">
        <ele>290.6</ele>
        <time>2022-06-26T07:57:03Z</time>
      </trkpt>
      <trkpt lat="45.90308" lon="4.54281">
        <ele>290.6</ele>
        <time>2022-06-26T07:57:04Z</time>
      </trkpt>
      <trkpt lat="45.90307" lon="4.54273">
        <ele>290.8</ele>
        <time>2022-06-26T07:57:05Z</time>
      </trkpt>
      <trkpt lat="45.90307" lon="4.54265">
        <ele>290.8</ele>
        <time>2022-06-26T07:57:06Z</time>
      </trkpt>
      <trkpt lat="45.90307" lon="4.54257">
        <ele>290.8</ele>
        <time>2022-06-26T07:57:07Z</time>
      </trkpt>
      <trkpt lat="45.90307" lon="4.54249">
        <ele>290.8</ele>
        <time>2022-06-26T07:57:08Z</time>
      </trkpt>
      <trkpt lat="45.90307" lon="4.54242">
        <ele>290.8</ele>
        <time>2022-06-26T07:57:09Z</time>
      </trkpt>
      <trkpt lat="45.90306" lon="4.54234">
        <ele>291</ele>
        <time>2022-06-26T07:57:10Z</time>
      </trkpt>
      <trkpt lat="45.90306" lon="4.54227">
        <ele>291</ele>
        <time>2022-06-26T07:57:11Z</time>
      </trkpt>
      <trkpt lat="45.90306" lon="4.54219">
        <ele>291</ele>
        <time>2022-06-26T07:57:12Z</time>
      </trkpt>
      <trkpt lat="45.90305" lon="4.54211">
        <ele>291</ele>
        <time>2022-06-26T07:57:13Z</time>
      </trkpt>
      <trkpt lat="45.90305" lon="4.54204">
        <ele>291.4</ele>
        <time>2022-06-26T07:57:14Z</time>
      </trkpt>
      <trkpt lat="45.90305" lon="4.54196">
        <ele>291.4</ele>
        <time>2022-06-26T07:57:15Z</time>
      </trkpt>
      <trkpt lat="45.90304" lon="4.54189">
        <ele>291.4</ele>
        <time>2022-06-26T07:57:16Z</time>
      </trkpt>
      <trkpt lat="45.90304" lon="4.54181">
        <ele>291.6</ele>
        <time>2022-06-26T07:57:17Z</time>
      </trkpt>
      <trkpt lat="45.90303" lon="4.54173">
        <ele>291.6</ele>
        <time>2022-06-26T07:57:18Z</time>
      </trkpt>
      <trkpt lat="45.90303" lon="4.54166">
        <ele>291.6</ele>
        <time>2022-06-26T07:57:19Z</time>
      </trkpt>
      <trkpt lat="45.90303" lon="4.54158">
        <ele>291.8</ele>
        <time>2022-06-26T07:57:20Z</time>
      </trkpt>
      <trkpt lat="45.90303" lon="4.54151">
        <ele>291.8</ele>
        <time>2022-06-26T07:57:21Z</time>
      </trkpt>
      <trkpt lat="45.90302" lon="4.54143">
        <ele>291.8</ele>
        <time>2022-06-26T07:57:22Z</time>
      </trkpt>
      <trkpt lat="45.90302" lon="4.54136">
        <ele>292</ele>
        <time>2022-06-26T07:57:23Z</time>
      </trkpt>
      <trkpt lat="45.90301" lon="4.54127">
        <ele>292</ele>
        <time>2022-06-26T07:57:24Z</time>
      </trkpt>
      <trkpt lat="45.90301" lon="4.5412">
        <ele>292.2</ele>
        <time>2022-06-26T07:57:25Z</time>
      </trkpt>
      <trkpt lat="45.903" lon="4.54112">
        <ele>292.2</ele>
        <time>2022-06-26T07:57:26Z</time>
      </trkpt>
      <trkpt lat="45.903" lon="4.54104">
        <ele>292.6</ele>
        <time>2022-06-26T07:57:27Z</time>
      </trkpt>
      <trkpt lat="45.903" lon="4.54097">
        <ele>292.6</ele>
        <time>2022-06-26T07:57:28Z</time>
      </trkpt>
      <trkpt lat="45.903" lon="4.54089">
        <ele>292.6</ele>
        <time>2022-06-26T07:57:29Z</time>
      </trkpt>
      <trkpt lat="45.90299" lon="4.54082">
        <ele>292.8</ele>
        <time>2022-06-26T07:57:30Z</time>
      </trkpt>
      <trkpt lat="45.90299" lon="4.54074">
        <ele>292.8</ele>
        <time>2022-06-26T07:57:31Z</time>
      </trkpt>
      <trkpt lat="45.90298" lon="4.54067">
        <ele>292.8</ele>
        <time>2022-06-26T07:57:32Z</time>
      </trkpt>
      <trkpt lat="45.90298" lon="4.54059">
        <ele>293</ele>
        <time>2022-06-26T07:57:33Z</time>
      </trkpt>
      <trkpt lat="45.90298" lon="4.54052">
        <ele>293</ele>
        <time>2022-06-26T07:57:34Z</time>
      </trkpt>
      <trkpt lat="45.90297" lon="4.54044">
        <ele>293.2</ele>
        <time>2022-06-26T07:57:35Z</time>
      </trkpt>
      <trkpt lat="45.90297" lon="4.54037">
        <ele>293.2</ele>
        <time>2022-06-26T07:57:36Z</time>
      </trkpt>
      <trkpt lat="45.90297" lon="4.5403">
        <ele>293.2</ele>
        <time>2022-06-26T07:57:37Z</time>
      </trkpt>
      <trkpt lat="45.90297" lon="4.54022">
        <ele>293.6</ele>
        <time>2022-06-26T07:57:38Z</time>
      </trkpt>
      <trkpt lat="45.90296" lon="4.54015">
        <ele>293.6</ele>
        <time>2022-06-26T07:57:39Z</time>
      </trkpt>
      <trkpt lat="45.90296" lon="4.54008">
        <ele>293.8</ele>
        <time>2022-06-26T07:57:40Z</time>
      </trkpt>
      <trkpt lat="45.90296" lon="4.54">
        <ele>293.8</ele>
        <time>2022-06-26T07:57:41Z</time>
      </trkpt>
      <trkpt lat="45.90296" lon="4.53993">
        <ele>294</ele>
        <time>2022-06-26T07:57:42Z</time>
      </trkpt>
      <trkpt lat="45.90296" lon="4.53986">
        <ele>294</ele>
        <time>2022-06-26T07:57:43Z</time>
      </trkpt>
      <trkpt lat="45.90295" lon="4.53979">
        <ele>294.2</ele>
        <time>2022-06-26T07:57:44Z</time>
      </trkpt>
      <trkpt lat="45.90295" lon="4.53971">
        <ele>294.2</ele>
        <time>2022-06-26T07:57:45Z</time>
      </trkpt>
      <trkpt lat="45.90295" lon="4.53964">
        <ele>294.6</ele>
        <time>2022-06-26T07:57:46Z</time>
      </trkpt>
      <trkpt lat="45.90295" lon="4.53957">
        <ele>294.6</ele>
        <time>2022-06-26T07:57:47Z</time>
      </trkpt>
      <trkpt lat="45.90295" lon="4.5395">
        <ele>294.8</ele>
        <time>2022-06-26T07:57:48Z</time>
      </trkpt>
      <trkpt lat="45.90294" lon="4.53942">
        <ele>294.8</ele>
        <time>2022-06-26T07:57:49Z</time>
      </trkpt>
      <trkpt lat="45.90294" lon="4.53935">
        <ele>295</ele>
        <time>2022-06-26T07:57:50Z</time>
      </trkpt>
      <trkpt lat="45.90294" lon="4.53928">
        <ele>295</ele>
        <time>2022-06-26T07:57:51Z</time>
      </trkpt>
      <trkpt lat="45.90294" lon="4.5392">
        <ele>295</ele>
        <time>2022-06-26T07:57:52Z</time>
      </trkpt>
      <trkpt lat="45.90293" lon="4.53913">
        <ele>295</ele>
        <time>2022-06-26T07:57:53Z</time>
      </trkpt>
      <trkpt lat="45.90293" lon="4.53906">
        <ele>295.2</ele>
        <time>2022-06-26T07:57:54Z</time>
      </trkpt>
      <trkpt lat="45.90293" lon="4.53899">
        <ele>295.2</ele>
        <time>2022-06-26T07:57:55Z</time>
      </trkpt>
      <trkpt lat="45.90293" lon="4.53891">
        <ele>295.4</ele>
        <time>2022-06-26T07:57:56Z</time>
      </trkpt>
      <trkpt lat="45.90292" lon="4.53884">
        <ele>295.4</ele>
        <time>2022-06-26T07:57:57Z</time>
      </trkpt>
      <trkpt lat="45.90292" lon="4.53877">
        <ele>295.4</ele>
        <time>2022-06-26T07:57:58Z</time>
      </trkpt>
      <trkpt lat="45.90292" lon="4.5387">
        <ele>295.4</ele>
        <time>2022-06-26T07:57:59Z</time>
      </trkpt>
      <trkpt lat="45.90291" lon="4.53862">
        <ele>295.4</ele>
        <time>2022-06-26T07:58:00Z</time>
      </trkpt>
      <trkpt lat="45.90291" lon="4.53855">
        <ele>295.4</ele>
        <time>2022-06-26T07:58:01Z</time>
      </trkpt>
      <trkpt lat="45.90291" lon="4.53848">
        <ele>295.8</ele>
        <time>2022-06-26T07:58:02Z</time>
      </trkpt>
      <trkpt lat="45.9029" lon="4.5384">
        <ele>295.8</ele>
        <time>2022-06-26T07:58:03Z</time>
      </trkpt>
      <trkpt lat="45.9029" lon="4.53833">
        <ele>295.8</ele>
        <time>2022-06-26T07:58:04Z</time>
      </trkpt>
      <trkpt lat="45.9029" lon="4.53825">
        <ele>295.8</ele>
        <time>2022-06-26T07:58:05Z</time>
      </trkpt>
      <trkpt lat="45.90289" lon="4.53817">
        <ele>296</ele>
        <time>2022-06-26T07:58:06Z</time>
      </trkpt>
      <trkpt lat="45.90289" lon="4.53809">
        <ele>296</ele>
        <time>2022-06-26T07:58:07Z</time>
      </trkpt>
      <trkpt lat="45.90289" lon="4.53801">
        <ele>296</ele>
        <time>2022-06-26T07:58:08Z</time>
      </trkpt>
      <trkpt lat="45.90288" lon="4.53794">
        <ele>296</ele>
        <time>2022-06-26T07:58:09Z</time>
      </trkpt>
      <trkpt lat="45.90288" lon="4.53786">
        <ele>296.2</ele>
        <time>2022-06-26T07:58:10Z</time>
      </trkpt>
      <trkpt lat="45.90287" lon="4.53778">
        <ele>296.2</ele>
        <time>2022-06-26T07:58:11Z</time>
      </trkpt>
      <trkpt lat="45.90287" lon="4.5377">
        <ele>296.2</ele>
        <time>2022-06-26T07:58:12Z</time>
      </trkpt>
      <trkpt lat="45.90287" lon="4.53763">
        <ele>296.4</ele>
        <time>2022-06-26T07:58:13Z</time>
      </trkpt>
      <trkpt lat="45.90287" lon="4.53755">
        <ele>296.4</ele>
        <time>2022-06-26T07:58:14Z</time>
      </trkpt>
      <trkpt lat="45.90287" lon="4.53748">
        <ele>296.4</ele>
        <time>2022-06-26T07:58:15Z</time>
      </trkpt>
      <trkpt lat="45.90286" lon="4.5374">
        <ele>296.4</ele>
        <time>2022-06-26T07:58:16Z</time>
      </trkpt>
      <trkpt lat="45.90286" lon="4.53732">
        <ele>296.6</ele>
        <time>2022-06-26T07:58:17Z</time>
      </trkpt>
      <trkpt lat="45.90286" lon="4.53725">
        <ele>296.6</ele>
        <time>2022-06-26T07:58:18Z</time>
      </trkpt>
      <trkpt lat="45.90286" lon="4.53717">
        <ele>296.6</ele>
        <time>2022-06-26T07:58:19Z</time>
      </trkpt>
      <trkpt lat="45.90286" lon="4.53709">
        <ele>296.6</ele>
        <time>2022-06-26T07:58:20Z</time>
      </trkpt>
      <trkpt lat="45.90286" lon="4.53701">
        <ele>296.6</ele>
        <time>2022-06-26T07:58:21Z</time>
      </trkpt>
      <trkpt lat="45.90285" lon="4.53693">
        <ele>297</ele>
        <time>2022-06-26T07:58:22Z</time>
      </trkpt>
      <trkpt lat="45.90285" lon="4.53685">
        <ele>297</ele>
        <time>2022-06-26T07:58:23Z</time>
      </trkpt>
      <trkpt lat="45.90285" lon="4.53678">
        <ele>297</ele>
        <time>2022-06-26T07:58:24Z</time>
      </trkpt>
      <trkpt lat="45.90285" lon="4.5367">
        <ele>297.2</ele>
        <time>2022-06-26T07:58:25Z</time>
      </trkpt>
      <trkpt lat="45.90285" lon="4.53662">
        <ele>297.2</ele>
        <time>2022-06-26T07:58:26Z</time>
      </trkpt>
      <trkpt lat="45.90285" lon="4.53654">
        <ele>297.2</ele>
        <time>2022-06-26T07:58:27Z</time>
      </trkpt>
      <trkpt lat="45.90285" lon="4.53646">
        <ele>297.2</ele>
        <time>2022-06-26T07:58:28Z</time>
      </trkpt>
      <trkpt lat="45.90285" lon="4.53638">
        <ele>297.2</ele>
        <time>2022-06-26T07:58:29Z</time>
      </trkpt>
      <trkpt lat="45.90285" lon="4.5363">
        <ele>297.2</ele>
        <time>2022-06-26T07:58:30Z</time>
      </trkpt>
      <trkpt lat="45.90285" lon="4.53621">
        <ele>297.2</ele>
        <time>2022-06-26T07:58:31Z</time>
      </trkpt>
      <trkpt lat="45.90286" lon="4.53613">
        <ele>297.2</ele>
        <time>2022-06-26T07:58:32Z</time>
      </trkpt>
      <trkpt lat="45.90286" lon="4.53605">
        <ele>297.2</ele>
        <time>2022-06-26T07:58:33Z</time>
      </trkpt>
      <trkpt lat="45.90287" lon="4.53597">
        <ele>297.2</ele>
        <time>2022-06-26T07:58:34Z</time>
      </trkpt>
      <trkpt lat="45.90288" lon="4.53589">
        <ele>297.2</ele>
        <time>2022-06-26T07:58:35Z</time>
      </trkpt>
      <trkpt lat="45.90289" lon="4.5358">
        <ele>297.2</ele>
        <time>2022-06-26T07:58:36Z</time>
      </trkpt>
      <trkpt lat="45.9029" lon="4.53572">
        <ele>297.4</ele>
        <time>2022-06-26T07:58:37Z</time>
      </trkpt>
      <trkpt lat="45.90291" lon="4.53564">
        <ele>297.4</ele>
        <time>2022-06-26T07:58:38Z</time>
      </trkpt>
      <trkpt lat="45.90293" lon="4.53555">
        <ele>297.4</ele>
        <time>2022-06-26T07:58:39Z</time>
      </trkpt>
      <trkpt lat="45.90294" lon="4.53547">
        <ele>297.4</ele>
        <time>2022-06-26T07:58:40Z</time>
      </trkpt>
      <trkpt lat="45.90295" lon="4.53538">
        <ele>297.4</ele>
        <time>2022-06-26T07:58:41Z</time>
      </trkpt>
      <trkpt lat="45.90297" lon="4.5353">
        <ele>297.4</ele>
        <time>2022-06-26T07:58:42Z</time>
      </trkpt>
      <trkpt lat="45.90298" lon="4.53521">
        <ele>297.4</ele>
        <time>2022-06-26T07:58:43Z</time>
      </trkpt>
      <trkpt lat="45.903" lon="4.53513">
        <ele>297.4</ele>
        <time>2022-06-26T07:58:44Z</time>
      </trkpt>
      <trkpt lat="45.90301" lon="4.53505">
        <ele>297.6</ele>
        <time>2022-06-26T07:58:45Z</time>
      </trkpt>
      <trkpt lat="45.90303" lon="4.53497">
        <ele>297.6</ele>
        <time>2022-06-26T07:58:46Z</time>
      </trkpt>
      <trkpt lat="45.90304" lon="4.53488">
        <ele>297.6</ele>
        <time>2022-06-26T07:58:47Z</time>
      </trkpt>
      <trkpt lat="45.90306" lon="4.5348">
        <ele>297.8</ele>
        <time>2022-06-26T07:58:48Z</time>
      </trkpt>
      <trkpt lat="45.90308" lon="4.53472">
        <ele>297.8</ele>
        <time>2022-06-26T07:58:49Z</time>
      </trkpt>
      <trkpt lat="45.9031" lon="4.53464">
        <ele>297.8</ele>
        <time>2022-06-26T07:58:50Z</time>
      </trkpt>
      <trkpt lat="45.90312" lon="4.53456">
        <ele>297.8</ele>
        <time>2022-06-26T07:58:51Z</time>
      </trkpt>
      <trkpt lat="45.90314" lon="4.53448">
        <ele>297.8</ele>
        <time>2022-06-26T07:58:52Z</time>
      </trkpt>
      <trkpt lat="45.90316" lon="4.53439">
        <ele>298</ele>
        <time>2022-06-26T07:58:53Z</time>
      </trkpt>
      <trkpt lat="45.90318" lon="4.53431">
        <ele>298</ele>
        <time>2022-06-26T07:58:54Z</time>
      </trkpt>
      <trkpt lat="45.9032" lon="4.53423">
        <ele>298</ele>
        <time>2022-06-26T07:58:55Z</time>
      </trkpt>
      <trkpt lat="45.90322" lon="4.53415">
        <ele>298</ele>
        <time>2022-06-26T07:58:56Z</time>
      </trkpt>
      <trkpt lat="45.90324" lon="4.53408">
        <ele>298</ele>
        <time>2022-06-26T07:58:57Z</time>
      </trkpt>
      <trkpt lat="45.90326" lon="4.534">
        <ele>298.4</ele>
        <time>2022-06-26T07:58:58Z</time>
      </trkpt>
      <trkpt lat="45.90328" lon="4.53392">
        <ele>298.4</ele>
        <time>2022-06-26T07:58:59Z</time>
      </trkpt>
      <trkpt lat="45.9033" lon="4.53385">
        <ele>298.4</ele>
        <time>2022-06-26T07:59:00Z</time>
      </trkpt>
      <trkpt lat="45.90332" lon="4.53377">
        <ele>298.4</ele>
        <time>2022-06-26T07:59:01Z</time>
      </trkpt>
      <trkpt lat="45.90333" lon="4.53369">
        <ele>298.4</ele>
        <time>2022-06-26T07:59:02Z</time>
      </trkpt>
      <trkpt lat="45.90335" lon="4.53361">
        <ele>298.4</ele>
        <time>2022-06-26T07:59:03Z</time>
      </trkpt>
      <trkpt lat="45.90337" lon="4.53353">
        <ele>298.4</ele>
        <time>2022-06-26T07:59:04Z</time>
      </trkpt>
      <trkpt lat="45.90339" lon="4.53345">
        <ele>298.6</ele>
        <time>2022-06-26T07:59:05Z</time>
      </trkpt>
      <trkpt lat="45.90341" lon="4.53337">
        <ele>298.6</ele>
        <time>2022-06-26T07:59:06Z</time>
      </trkpt>
      <trkpt lat="45.90344" lon="4.53329">
        <ele>298.6</ele>
        <time>2022-06-26T07:59:07Z</time>
      </trkpt>
      <trkpt lat="45.90345" lon="4.53321">
        <ele>298.6</ele>
        <time>2022-06-26T07:59:08Z</time>
      </trkpt>
      <trkpt lat="45.90347" lon="4.53313">
        <ele>298.8</ele>
        <time>2022-06-26T07:59:09Z</time>
      </trkpt>
      <trkpt lat="45.9035" lon="4.53306">
        <ele>298.8</ele>
        <time>2022-06-26T07:59:10Z</time>
      </trkpt>
      <trkpt lat="45.90352" lon="4.53298">
        <ele>298.8</ele>
        <time>2022-06-26T07:59:11Z</time>
      </trkpt>
      <trkpt lat="45.90354" lon="4.5329">
        <ele>298.8</ele>
        <time>2022-06-26T07:59:12Z</time>
      </trkpt>
      <trkpt lat="45.90357" lon="4.53282">
        <ele>299.2</ele>
        <time>2022-06-26T07:59:13Z</time>
      </trkpt>
      <trkpt lat="45.90359" lon="4.53274">
        <ele>299.2</ele>
        <time>2022-06-26T07:59:14Z</time>
      </trkpt>
      <trkpt lat="45.90361" lon="4.53266">
        <ele>299.4</ele>
        <time>2022-06-26T07:59:15Z</time>
      </trkpt>
      <trkpt lat="45.90363" lon="4.53258">
        <ele>299.4</ele>
        <time>2022-06-26T07:59:16Z</time>
      </trkpt>
      <trkpt lat="45.90365" lon="4.5325">
        <ele>299.6</ele>
        <time>2022-06-26T07:59:17Z</time>
      </trkpt>
      <trkpt lat="45.90367" lon="4.53242">
        <ele>299.6</ele>
        <time>2022-06-26T07:59:18Z</time>
      </trkpt>
      <trkpt lat="45.90369" lon="4.53234">
        <ele>299.6</ele>
        <time>2022-06-26T07:59:19Z</time>
      </trkpt>
      <trkpt lat="45.90371" lon="4.53227">
        <ele>299.8</ele>
        <time>2022-06-26T07:59:20Z</time>
      </trkpt>
      <trkpt lat="45.90373" lon="4.53219">
        <ele>299.8</ele>
        <time>2022-06-26T07:59:21Z</time>
      </trkpt>
      <trkpt lat="45.90375" lon="4.53212">
        <ele>299.8</ele>
        <time>2022-06-26T07:59:22Z</time>
      </trkpt>
      <trkpt lat="45.90377" lon="4.53204">
        <ele>300</ele>
        <time>2022-06-26T07:59:23Z</time>
      </trkpt>
      <trkpt lat="45.90378" lon="4.53197">
        <ele>300</ele>
        <time>2022-06-26T07:59:24Z</time>
      </trkpt>
      <trkpt lat="45.9038" lon="4.53189">
        <ele>300.4</ele>
        <time>2022-06-26T07:59:25Z</time>
      </trkpt>
      <trkpt lat="45.90382" lon="4.53182">
        <ele>300.4</ele>
        <time>2022-06-26T07:59:26Z</time>
      </trkpt>
      <trkpt lat="45.90383" lon="4.53175">
        <ele>300.6</ele>
        <time>2022-06-26T07:59:27Z</time>
      </trkpt>
      <trkpt lat="45.90385" lon="4.53168">
        <ele>300.6</ele>
        <time>2022-06-26T07:59:28Z</time>
      </trkpt>
      <trkpt lat="45.90387" lon="4.53161">
        <ele>300.6</ele>
        <time>2022-06-26T07:59:29Z</time>
      </trkpt>
      <trkpt lat="45.90389" lon="4.53153">
        <ele>300.8</ele>
        <time>2022-06-26T07:59:30Z</time>
      </trkpt>
      <trkpt lat="45.9039" lon="4.53146">
        <ele>300.8</ele>
        <time>2022-06-26T07:59:31Z</time>
      </trkpt>
      <trkpt lat="45.90392" lon="4.53139">
        <ele>301</ele>
        <time>2022-06-26T07:59:32Z</time>
      </trkpt>
      <trkpt lat="45.90393" lon="4.53132">
        <ele>301</ele>
        <time>2022-06-26T07:59:33Z</time>
      </trkpt>
      <trkpt lat="45.90394" lon="4.53125">
        <ele>301.2</ele>
        <time>2022-06-26T07:59:34Z</time>
      </trkpt>
      <trkpt lat="45.90396" lon="4.53119">
        <ele>301.2</ele>
        <time>2022-06-26T07:59:35Z</time>
      </trkpt>
      <trkpt lat="45.90397" lon="4.53112">
        <ele>301.4</ele>
        <time>2022-06-26T07:59:36Z</time>
      </trkpt>
      <trkpt lat="45.90399" lon="4.53105">
        <ele>301.4</ele>
        <time>2022-06-26T07:59:37Z</time>
      </trkpt>
      <trkpt lat="45.904" lon="4.53099">
        <ele>301.4</ele>
        <time>2022-06-26T07:59:38Z</time>
      </trkpt>
      <trkpt lat="45.90401" lon="4.53092">
        <ele>301.8</ele>
        <time>2022-06-26T07:59:39Z</time>
      </trkpt>
      <trkpt lat="45.90402" lon="4.53085">
        <ele>301.8</ele>
        <time>2022-06-26T07:59:40Z</time>
      </trkpt>
      <trkpt lat="45.90403" lon="4.53078">
        <ele>302</ele>
        <time>2022-06-26T07:59:41Z</time>
      </trkpt>
      <trkpt lat="45.90404" lon="4.53071">
        <ele>302</ele>
        <time>2022-06-26T07:59:42Z</time>
      </trkpt>
      <trkpt lat="45.90405" lon="4.53064">
        <ele>302</ele>
        <time>2022-06-26T07:59:43Z</time>
      </trkpt>
      <trkpt lat="45.90406" lon="4.53057">
        <ele>302.2</ele>
        <time>2022-06-26T07:59:44Z</time>
      </trkpt>
      <trkpt lat="45.90407" lon="4.5305">
        <ele>302.2</ele>
        <time>2022-06-26T07:59:45Z</time>
      </trkpt>
      <trkpt lat="45.90408" lon="4.53043">
        <ele>302.2</ele>
        <time>2022-06-26T07:59:46Z</time>
      </trkpt>
      <trkpt lat="45.90409" lon="4.53036">
        <ele>302.4</ele>
        <time>2022-06-26T07:59:47Z</time>
      </trkpt>
      <trkpt lat="45.9041" lon="4.53029">
        <ele>302.4</ele>
        <time>2022-06-26T07:59:48Z</time>
      </trkpt>
      <trkpt lat="45.90412" lon="4.53014">
        <ele>302.4</ele>
        <time>2022-06-26T07:59:49Z</time>
      </trkpt>
      <trkpt lat="45.90413" lon="4.53007">
        <ele>302.6</ele>
        <time>2022-06-26T07:59:50Z</time>
      </trkpt>
      <trkpt lat="45.90414" lon="4.52999">
        <ele>302.6</ele>
        <time>2022-06-26T07:59:51Z</time>
      </trkpt>
      <trkpt lat="45.90415" lon="4.52992">
        <ele>302.8</ele>
        <time>2022-06-26T07:59:52Z</time>
      </trkpt>
      <trkpt lat="45.90416" lon="4.52984">
        <ele>302.8</ele>
        <time>2022-06-26T07:59:53Z</time>
      </trkpt>
      <trkpt lat="45.90417" lon="4.52977">
        <ele>302.8</ele>
        <time>2022-06-26T07:59:54Z</time>
      </trkpt>
      <trkpt lat="45.90418" lon="4.5297">
        <ele>303.2</ele>
        <time>2022-06-26T07:59:55Z</time>
      </trkpt>
      <trkpt lat="45.90419" lon="4.52962">
        <ele>303.2</ele>
        <time>2022-06-26T07:59:56Z</time>
      </trkpt>
      <trkpt lat="45.9042" lon="4.52955">
        <ele>303.2</ele>
        <time>2022-06-26T07:59:57Z</time>
      </trkpt>
      <trkpt lat="45.90421" lon="4.52948">
        <ele>303.4</ele>
        <time>2022-06-26T07:59:58Z</time>
      </trkpt>
      <trkpt lat="45.90423" lon="4.5294">
        <ele>303.4</ele>
        <time>2022-06-26T07:59:59Z</time>
      </trkpt>
      <trkpt lat="45.90424" lon="4.52934">
        <ele>303.6</ele>
        <time>2022-06-26T08:00:00Z</time>
      </trkpt>
      <trkpt lat="45.90425" lon="4.5293">
        <ele>303.6</ele>
        <time>2022-06-26T08:00:01Z</time>
      </trkpt>
      <trkpt lat="45.90425" lon="4.52927">
        <ele>303.6</ele>
        <time>2022-06-26T08:00:02Z</time>
      </trkpt>
      <trkpt lat="45.90427" lon="4.5292">
        <ele>303.8</ele>
        <time>2022-06-26T08:00:03Z</time>
      </trkpt>
      <trkpt lat="45.90428" lon="4.52913">
        <ele>303.8</ele>
        <time>2022-06-26T08:00:04Z</time>
      </trkpt>
      <trkpt lat="45.90429" lon="4.52906">
        <ele>304.2</ele>
        <time>2022-06-26T08:00:05Z</time>
      </trkpt>
      <trkpt lat="45.90431" lon="4.529">
        <ele>304.2</ele>
        <time>2022-06-26T08:00:06Z</time>
      </trkpt>
      <trkpt lat="45.90432" lon="4.52893">
        <ele>304.4</ele>
        <time>2022-06-26T08:00:07Z</time>
      </trkpt>
      <trkpt lat="45.90433" lon="4.52886">
        <ele>304.4</ele>
        <time>2022-06-26T08:00:08Z</time>
      </trkpt>
      <trkpt lat="45.90434" lon="4.52879">
        <ele>304.6</ele>
        <time>2022-06-26T08:00:09Z</time>
      </trkpt>
      <trkpt lat="45.90435" lon="4.52872">
        <ele>304.6</ele>
        <time>2022-06-26T08:00:10Z</time>
      </trkpt>
      <trkpt lat="45.90437" lon="4.52865">
        <ele>304.6</ele>
        <time>2022-06-26T08:00:11Z</time>
      </trkpt>
      <trkpt lat="45.90438" lon="4.52858">
        <ele>305</ele>
        <time>2022-06-26T08:00:12Z</time>
      </trkpt>
      <trkpt lat="45.9044" lon="4.52852">
        <ele>305</ele>
        <time>2022-06-26T08:00:13Z</time>
      </trkpt>
      <trkpt lat="45.90442" lon="4.52845">
        <ele>305</ele>
        <time>2022-06-26T08:00:14Z</time>
      </trkpt>
      <trkpt lat="45.90444" lon="4.52839">
        <ele>305.2</ele>
        <time>2022-06-26T08:00:15Z</time>
      </trkpt>
      <trkpt lat="45.90446" lon="4.52832">
        <ele>305.2</ele>
        <time>2022-06-26T08:00:16Z</time>
      </trkpt>
      <trkpt lat="45.90448" lon="4.52825">
        <ele>305.4</ele>
        <time>2022-06-26T08:00:17Z</time>
      </trkpt>
      <trkpt lat="45.9045" lon="4.52817">
        <ele>305.4</ele>
        <time>2022-06-26T08:00:18Z</time>
      </trkpt>
      <trkpt lat="45.90452" lon="4.5281">
        <ele>305.4</ele>
        <time>2022-06-26T08:00:19Z</time>
      </trkpt>
      <trkpt lat="45.90453" lon="4.52803">
        <ele>305.4</ele>
        <time>2022-06-26T08:00:20Z</time>
      </trkpt>
      <trkpt lat="45.90455" lon="4.52796">
        <ele>305.8</ele>
        <time>2022-06-26T08:00:21Z</time>
      </trkpt>
      <trkpt lat="45.90457" lon="4.52789">
        <ele>305.8</ele>
        <time>2022-06-26T08:00:22Z</time>
      </trkpt>
      <trkpt lat="45.90459" lon="4.52781">
        <ele>306</ele>
        <time>2022-06-26T08:00:23Z</time>
      </trkpt>
      <trkpt lat="45.90461" lon="4.52774">
        <ele>306.2</ele>
        <time>2022-06-26T08:00:24Z</time>
      </trkpt>
      <trkpt lat="45.90462" lon="4.52767">
        <ele>306.2</ele>
        <time>2022-06-26T08:00:25Z</time>
      </trkpt>
      <trkpt lat="45.90464" lon="4.52759">
        <ele>306.6</ele>
        <time>2022-06-26T08:00:26Z</time>
      </trkpt>
      <trkpt lat="45.90465" lon="4.52752">
        <ele>306.6</ele>
        <time>2022-06-26T08:00:27Z</time>
      </trkpt>
      <trkpt lat="45.90467" lon="4.52745">
        <ele>306.8</ele>
        <time>2022-06-26T08:00:28Z</time>
      </trkpt>
      <trkpt lat="45.90469" lon="4.52738">
        <ele>306.8</ele>
        <time>2022-06-26T08:00:29Z</time>
      </trkpt>
      <trkpt lat="45.90471" lon="4.52731">
        <ele>306.8</ele>
        <time>2022-06-26T08:00:30Z</time>
      </trkpt>
      <trkpt lat="45.90473" lon="4.52724">
        <ele>307</ele>
        <time>2022-06-26T08:00:31Z</time>
      </trkpt>
      <trkpt lat="45.90474" lon="4.52717">
        <ele>307</ele>
        <time>2022-06-26T08:00:32Z</time>
      </trkpt>
      <trkpt lat="45.90476" lon="4.5271">
        <ele>307.4</ele>
        <time>2022-06-26T08:00:33Z</time>
      </trkpt>
      <trkpt lat="45.90478" lon="4.52704">
        <ele>307.4</ele>
        <time>2022-06-26T08:00:34Z</time>
      </trkpt>
      <trkpt lat="45.90481" lon="4.52697">
        <ele>307.6</ele>
        <time>2022-06-26T08:00:35Z</time>
      </trkpt>
      <trkpt lat="45.90483" lon="4.52691">
        <ele>307.6</ele>
        <time>2022-06-26T08:00:36Z</time>
      </trkpt>
      <trkpt lat="45.90486" lon="4.52684">
        <ele>308</ele>
        <time>2022-06-26T08:00:37Z</time>
      </trkpt>
      <trkpt lat="45.90488" lon="4.52678">
        <ele>308</ele>
        <time>2022-06-26T08:00:38Z</time>
      </trkpt>
      <trkpt lat="45.90491" lon="4.52672">
        <ele>308.2</ele>
        <time>2022-06-26T08:00:39Z</time>
      </trkpt>
      <trkpt lat="45.90494" lon="4.52666">
        <ele>308.2</ele>
        <time>2022-06-26T08:00:40Z</time>
      </trkpt>
      <trkpt lat="45.90497" lon="4.5266">
        <ele>308.4</ele>
        <time>2022-06-26T08:00:41Z</time>
      </trkpt>
      <trkpt lat="45.90499" lon="4.52654">
        <ele>308.4</ele>
        <time>2022-06-26T08:00:42Z</time>
      </trkpt>
      <trkpt lat="45.90502" lon="4.52648">
        <ele>308.8</ele>
        <time>2022-06-26T08:00:43Z</time>
      </trkpt>
      <trkpt lat="45.90504" lon="4.52642">
        <ele>308.8</ele>
        <time>2022-06-26T08:00:44Z</time>
      </trkpt>
      <trkpt lat="45.90506" lon="4.52637">
        <ele>309</ele>
        <time>2022-06-26T08:00:45Z</time>
      </trkpt>
      <trkpt lat="45.90509" lon="4.52631">
        <ele>309</ele>
        <time>2022-06-26T08:00:46Z</time>
      </trkpt>
      <trkpt lat="45.90511" lon="4.52625">
        <ele>309.2</ele>
        <time>2022-06-26T08:00:47Z</time>
      </trkpt>
      <trkpt lat="45.90513" lon="4.52619">
        <ele>309.2</ele>
        <time>2022-06-26T08:00:48Z</time>
      </trkpt>
      <trkpt lat="45.90515" lon="4.52613">
        <ele>309.6</ele>
        <time>2022-06-26T08:00:49Z</time>
      </trkpt>
      <trkpt lat="45.90517" lon="4.52607">
        <ele>309.6</ele>
        <time>2022-06-26T08:00:50Z</time>
      </trkpt>
      <trkpt lat="45.90518" lon="4.52601">
        <ele>309.8</ele>
        <time>2022-06-26T08:00:51Z</time>
      </trkpt>
      <trkpt lat="45.9052" lon="4.52595">
        <ele>309.8</ele>
        <time>2022-06-26T08:00:52Z</time>
      </trkpt>
      <trkpt lat="45.90522" lon="4.52589">
        <ele>310</ele>
        <time>2022-06-26T08:00:53Z</time>
      </trkpt>
      <trkpt lat="45.90523" lon="4.52583">
        <ele>310</ele>
        <time>2022-06-26T08:00:54Z</time>
      </trkpt>
      <trkpt lat="45.90524" lon="4.52576">
        <ele>310</ele>
        <time>2022-06-26T08:00:55Z</time>
      </trkpt>
      <trkpt lat="45.90526" lon="4.5257">
        <ele>310</ele>
        <time>2022-06-26T08:00:56Z</time>
      </trkpt>
      <trkpt lat="45.90527" lon="4.52564">
        <ele>310</ele>
        <time>2022-06-26T08:00:57Z</time>
      </trkpt>
      <trkpt lat="45.90528" lon="4.52557">
        <ele>310.4</ele>
        <time>2022-06-26T08:00:58Z</time>
      </trkpt>
      <trkpt lat="45.90529" lon="4.5255">
        <ele>310.4</ele>
        <time>2022-06-26T08:00:59Z</time>
      </trkpt>
      <trkpt lat="45.9053" lon="4.52544">
        <ele>310.6</ele>
        <time>2022-06-26T08:01:00Z</time>
      </trkpt>
      <trkpt lat="45.9053" lon="4.52537">
        <ele>310.6</ele>
        <time>2022-06-26T08:01:01Z</time>
      </trkpt>
      <trkpt lat="45.90531" lon="4.5253">
        <ele>310.8</ele>
        <time>2022-06-26T08:01:02Z</time>
      </trkpt>
      <trkpt lat="45.90534" lon="4.52516">
        <ele>310.8</ele>
        <time>2022-06-26T08:01:03Z</time>
      </trkpt>
      <trkpt lat="45.90535" lon="4.5251">
        <ele>310.8</ele>
        <time>2022-06-26T08:01:04Z</time>
      </trkpt>
      <trkpt lat="45.90536" lon="4.52503">
        <ele>311.2</ele>
        <time>2022-06-26T08:01:05Z</time>
      </trkpt>
      <trkpt lat="45.90538" lon="4.52496">
        <ele>311.2</ele>
        <time>2022-06-26T08:01:06Z</time>
      </trkpt>
      <trkpt lat="45.9054" lon="4.5249">
        <ele>311.4</ele>
        <time>2022-06-26T08:01:07Z</time>
      </trkpt>
      <trkpt lat="45.90542" lon="4.52483">
        <ele>311.4</ele>
        <time>2022-06-26T08:01:08Z</time>
      </trkpt>
      <trkpt lat="45.90544" lon="4.52477">
        <ele>311.6</ele>
        <time>2022-06-26T08:01:09Z</time>
      </trkpt>
      <trkpt lat="45.90546" lon="4.5247">
        <ele>311.6</ele>
        <time>2022-06-26T08:01:10Z</time>
      </trkpt>
      <trkpt lat="45.90548" lon="4.52464">
        <ele>311.6</ele>
        <time>2022-06-26T08:01:11Z</time>
      </trkpt>
      <trkpt lat="45.9055" lon="4.52457">
        <ele>311.6</ele>
        <time>2022-06-26T08:01:12Z</time>
      </trkpt>
      <trkpt lat="45.90553" lon="4.52451">
        <ele>311.8</ele>
        <time>2022-06-26T08:01:13Z</time>
      </trkpt>
      <trkpt lat="45.90555" lon="4.52444">
        <ele>311.8</ele>
        <time>2022-06-26T08:01:14Z</time>
      </trkpt>
      <trkpt lat="45.90558" lon="4.52438">
        <ele>311.8</ele>
        <time>2022-06-26T08:01:15Z</time>
      </trkpt>
      <trkpt lat="45.9056" lon="4.52432">
        <ele>312.2</ele>
        <time>2022-06-26T08:01:16Z</time>
      </trkpt>
      <trkpt lat="45.90563" lon="4.52426">
        <ele>312.2</ele>
        <time>2022-06-26T08:01:17Z</time>
      </trkpt>
      <trkpt lat="45.90565" lon="4.5242">
        <ele>312.2</ele>
        <time>2022-06-26T08:01:18Z</time>
      </trkpt>
      <trkpt lat="45.90568" lon="4.52414">
        <ele>312.2</ele>
        <time>2022-06-26T08:01:19Z</time>
      </trkpt>
      <trkpt lat="45.9057" lon="4.52408">
        <ele>312.4</ele>
        <time>2022-06-26T08:01:20Z</time>
      </trkpt>
      <trkpt lat="45.90572" lon="4.52402">
        <ele>312.4</ele>
        <time>2022-06-26T08:01:21Z</time>
      </trkpt>
      <trkpt lat="45.90575" lon="4.52396">
        <ele>312.4</ele>
        <time>2022-06-26T08:01:22Z</time>
      </trkpt>
      <trkpt lat="45.90577" lon="4.52389">
        <ele>312.6</ele>
        <time>2022-06-26T08:01:23Z</time>
      </trkpt>
      <trkpt lat="45.9058" lon="4.52383">
        <ele>312.6</ele>
        <time>2022-06-26T08:01:24Z</time>
      </trkpt>
      <trkpt lat="45.90583" lon="4.52377">
        <ele>312.6</ele>
        <time>2022-06-26T08:01:25Z</time>
      </trkpt>
      <trkpt lat="45.90586" lon="4.52371">
        <ele>312.6</ele>
        <time>2022-06-26T08:01:26Z</time>
      </trkpt>
      <trkpt lat="45.90589" lon="4.52365">
        <ele>312.6</ele>
        <time>2022-06-26T08:01:27Z</time>
      </trkpt>
      <trkpt lat="45.90591" lon="4.52359">
        <ele>312.8</ele>
        <time>2022-06-26T08:01:28Z</time>
      </trkpt>
      <trkpt lat="45.90594" lon="4.52353">
        <ele>312.8</ele>
        <time>2022-06-26T08:01:29Z</time>
      </trkpt>
      <trkpt lat="45.90597" lon="4.52347">
        <ele>312.8</ele>
        <time>2022-06-26T08:01:30Z</time>
      </trkpt>
      <trkpt lat="45.906" lon="4.52341">
        <ele>312.8</ele>
        <time>2022-06-26T08:01:31Z</time>
      </trkpt>
      <trkpt lat="45.90603" lon="4.52335">
        <ele>313.2</ele>
        <time>2022-06-26T08:01:32Z</time>
      </trkpt>
      <trkpt lat="45.90605" lon="4.5233">
        <ele>313.2</ele>
        <time>2022-06-26T08:01:33Z</time>
      </trkpt>
      <trkpt lat="45.90608" lon="4.52324">
        <ele>313.2</ele>
        <time>2022-06-26T08:01:34Z</time>
      </trkpt>
      <trkpt lat="45.90611" lon="4.52318">
        <ele>313.4</ele>
        <time>2022-06-26T08:01:35Z</time>
      </trkpt>
      <trkpt lat="45.90614" lon="4.52313">
        <ele>313.4</ele>
        <time>2022-06-26T08:01:36Z</time>
      </trkpt>
      <trkpt lat="45.90617" lon="4.52307">
        <ele>313.4</ele>
        <time>2022-06-26T08:01:37Z</time>
      </trkpt>
      <trkpt lat="45.90621" lon="4.52302">
        <ele>313.6</ele>
        <time>2022-06-26T08:01:38Z</time>
      </trkpt>
      <trkpt lat="45.90624" lon="4.52296">
        <ele>313.6</ele>
        <time>2022-06-26T08:01:39Z</time>
      </trkpt>
      <trkpt lat="45.90627" lon="4.5229">
        <ele>313.6</ele>
        <time>2022-06-26T08:01:40Z</time>
      </trkpt>
      <trkpt lat="45.9063" lon="4.52285">
        <ele>313.8</ele>
        <time>2022-06-26T08:01:41Z</time>
      </trkpt>
      <trkpt lat="45.90633" lon="4.52279">
        <ele>313.8</ele>
        <time>2022-06-26T08:01:42Z</time>
      </trkpt>
      <trkpt lat="45.90636" lon="4.52273">
        <ele>313.8</ele>
        <time>2022-06-26T08:01:43Z</time>
      </trkpt>
      <trkpt lat="45.9064" lon="4.52267">
        <ele>313.8</ele>
        <time>2022-06-26T08:01:44Z</time>
      </trkpt>
      <trkpt lat="45.90643" lon="4.52261">
        <ele>313.8</ele>
        <time>2022-06-26T08:01:45Z</time>
      </trkpt>
      <trkpt lat="45.90647" lon="4.52256">
        <ele>314.2</ele>
        <time>2022-06-26T08:01:46Z</time>
      </trkpt>
      <trkpt lat="45.9065" lon="4.5225">
        <ele>314.2</ele>
        <time>2022-06-26T08:01:47Z</time>
      </trkpt>
      <trkpt lat="45.90654" lon="4.52244">
        <ele>314.2</ele>
        <time>2022-06-26T08:01:48Z</time>
      </trkpt>
      <trkpt lat="45.90658" lon="4.52239">
        <ele>314.4</ele>
        <time>2022-06-26T08:01:49Z</time>
      </trkpt>
      <trkpt lat="45.90661" lon="4.52233">
        <ele>314.4</ele>
        <time>2022-06-26T08:01:50Z</time>
      </trkpt>
      <trkpt lat="45.90665" lon="4.52227">
        <ele>314.4</ele>
        <time>2022-06-26T08:01:51Z</time>
      </trkpt>
      <trkpt lat="45.90669" lon="4.52222">
        <ele>314.4</ele>
        <time>2022-06-26T08:01:52Z</time>
      </trkpt>
      <trkpt lat="45.90672" lon="4.52216">
        <ele>314.4</ele>
        <time>2022-06-26T08:01:53Z</time>
      </trkpt>
      <trkpt lat="45.90676" lon="4.52211">
        <ele>314.4</ele>
        <time>2022-06-26T08:01:54Z</time>
      </trkpt>
      <trkpt lat="45.9068" lon="4.52205">
        <ele>314.6</ele>
        <time>2022-06-26T08:01:55Z</time>
      </trkpt>
      <trkpt lat="45.90684" lon="4.52199">
        <ele>314.6</ele>
        <time>2022-06-26T08:01:56Z</time>
      </trkpt>
      <trkpt lat="45.90687" lon="4.52193">
        <ele>314.6</ele>
        <time>2022-06-26T08:01:57Z</time>
      </trkpt>
      <trkpt lat="45.90691" lon="4.52188">
        <ele>314.8</ele>
        <time>2022-06-26T08:01:58Z</time>
      </trkpt>
      <trkpt lat="45.90695" lon="4.52182">
        <ele>314.8</ele>
        <time>2022-06-26T08:01:59Z</time>
      </trkpt>
      <trkpt lat="45.90699" lon="4.52176">
        <ele>315.2</ele>
        <time>2022-06-26T08:02:00Z</time>
      </trkpt>
      <trkpt lat="45.90702" lon="4.5217">
        <ele>315.2</ele>
        <time>2022-06-26T08:02:01Z</time>
      </trkpt>
      <trkpt lat="45.90706" lon="4.52163">
        <ele>315.2</ele>
        <time>2022-06-26T08:02:02Z</time>
      </trkpt>
      <trkpt lat="45.9071" lon="4.52157">
        <ele>315.4</ele>
        <time>2022-06-26T08:02:03Z</time>
      </trkpt>
      <trkpt lat="45.90713" lon="4.52151">
        <ele>315.4</ele>
        <time>2022-06-26T08:02:04Z</time>
      </trkpt>
      <trkpt lat="45.90716" lon="4.52145">
        <ele>315.4</ele>
        <time>2022-06-26T08:02:05Z</time>
      </trkpt>
      <trkpt lat="45.9072" lon="4.52138">
        <ele>315.6</ele>
        <time>2022-06-26T08:02:06Z</time>
      </trkpt>
      <trkpt lat="45.90723" lon="4.52132">
        <ele>315.6</ele>
        <time>2022-06-26T08:02:07Z</time>
      </trkpt>
      <trkpt lat="45.90726" lon="4.52125">
        <ele>315.6</ele>
        <time>2022-06-26T08:02:08Z</time>
      </trkpt>
      <trkpt lat="45.9073" lon="4.52118">
        <ele>315.6</ele>
        <time>2022-06-26T08:02:09Z</time>
      </trkpt>
      <trkpt lat="45.90733" lon="4.52111">
        <ele>315.6</ele>
        <time>2022-06-26T08:02:10Z</time>
      </trkpt>
      <trkpt lat="45.90736" lon="4.52105">
        <ele>315.6</ele>
        <time>2022-06-26T08:02:11Z</time>
      </trkpt>
      <trkpt lat="45.9074" lon="4.52097">
        <ele>315.6</ele>
        <time>2022-06-26T08:02:12Z</time>
      </trkpt>
      <trkpt lat="45.90743" lon="4.5209">
        <ele>316.2</ele>
        <time>2022-06-26T08:02:13Z</time>
      </trkpt>
      <trkpt lat="45.90747" lon="4.52083">
        <ele>316.2</ele>
        <time>2022-06-26T08:02:14Z</time>
      </trkpt>
      <trkpt lat="45.9075" lon="4.52076">
        <ele>316.2</ele>
        <time>2022-06-26T08:02:15Z</time>
      </trkpt>
      <trkpt lat="45.90754" lon="4.52069">
        <ele>316.2</ele>
        <time>2022-06-26T08:02:16Z</time>
      </trkpt>
      <trkpt lat="45.90757" lon="4.52062">
        <ele>316.4</ele>
        <time>2022-06-26T08:02:17Z</time>
      </trkpt>
      <trkpt lat="45.90761" lon="4.52055">
        <ele>316.4</ele>
        <time>2022-06-26T08:02:18Z</time>
      </trkpt>
      <trkpt lat="45.90764" lon="4.52047">
        <ele>316.8</ele>
        <time>2022-06-26T08:02:19Z</time>
      </trkpt>
      <trkpt lat="45.90767" lon="4.5204">
        <ele>316.8</ele>
        <time>2022-06-26T08:02:20Z</time>
      </trkpt>
      <trkpt lat="45.9077" lon="4.52032">
        <ele>316.8</ele>
        <time>2022-06-26T08:02:21Z</time>
      </trkpt>
      <trkpt lat="45.90773" lon="4.52025">
        <ele>317</ele>
        <time>2022-06-26T08:02:22Z</time>
      </trkpt>
      <trkpt lat="45.90775" lon="4.52017">
        <ele>317.2</ele>
        <time>2022-06-26T08:02:23Z</time>
      </trkpt>
      <trkpt lat="45.90777" lon="4.52009">
        <ele>317.2</ele>
        <time>2022-06-26T08:02:24Z</time>
      </trkpt>
      <trkpt lat="45.90779" lon="4.52001">
        <ele>317.2</ele>
        <time>2022-06-26T08:02:25Z</time>
      </trkpt>
      <trkpt lat="45.9078" lon="4.51993">
        <ele>317.2</ele>
        <time>2022-06-26T08:02:26Z</time>
      </trkpt>
      <trkpt lat="45.90782" lon="4.51985">
        <ele>317.2</ele>
        <time>2022-06-26T08:02:27Z</time>
      </trkpt>
      <trkpt lat="45.90783" lon="4.51977">
        <ele>317.2</ele>
        <time>2022-06-26T08:02:28Z</time>
      </trkpt>
      <trkpt lat="45.90783" lon="4.51968">
        <ele>317.2</ele>
        <time>2022-06-26T08:02:29Z</time>
      </trkpt>
      <trkpt lat="45.90784" lon="4.5196">
        <ele>317.2</ele>
        <time>2022-06-26T08:02:30Z</time>
      </trkpt>
      <trkpt lat="45.90785" lon="4.51951">
        <ele>317.2</ele>
        <time>2022-06-26T08:02:31Z</time>
      </trkpt>
      <trkpt lat="45.90785" lon="4.51943">
        <ele>317.4</ele>
        <time>2022-06-26T08:02:32Z</time>
      </trkpt>
      <trkpt lat="45.90786" lon="4.51934">
        <ele>317.4</ele>
        <time>2022-06-26T08:02:33Z</time>
      </trkpt>
      <trkpt lat="45.90787" lon="4.51925">
        <ele>317.4</ele>
        <time>2022-06-26T08:02:34Z</time>
      </trkpt>
      <trkpt lat="45.90788" lon="4.51917">
        <ele>317.4</ele>
        <time>2022-06-26T08:02:35Z</time>
      </trkpt>
      <trkpt lat="45.90789" lon="4.51908">
        <ele>317.4</ele>
        <time>2022-06-26T08:02:36Z</time>
      </trkpt>
      <trkpt lat="45.9079" lon="4.519">
        <ele>317.4</ele>
        <time>2022-06-26T08:02:37Z</time>
      </trkpt>
      <trkpt lat="45.90792" lon="4.51892">
        <ele>317.4</ele>
        <time>2022-06-26T08:02:38Z</time>
      </trkpt>
      <trkpt lat="45.90794" lon="4.51884">
        <ele>317.4</ele>
        <time>2022-06-26T08:02:39Z</time>
      </trkpt>
      <trkpt lat="45.90796" lon="4.51875">
        <ele>317.4</ele>
        <time>2022-06-26T08:02:40Z</time>
      </trkpt>
      <trkpt lat="45.90798" lon="4.51868">
        <ele>317.8</ele>
        <time>2022-06-26T08:02:41Z</time>
      </trkpt>
      <trkpt lat="45.908" lon="4.5186">
        <ele>317.8</ele>
        <time>2022-06-26T08:02:42Z</time>
      </trkpt>
      <trkpt lat="45.90803" lon="4.51852">
        <ele>317.8</ele>
        <time>2022-06-26T08:02:43Z</time>
      </trkpt>
      <trkpt lat="45.90805" lon="4.51844">
        <ele>318</ele>
        <time>2022-06-26T08:02:44Z</time>
      </trkpt>
      <trkpt lat="45.90808" lon="4.51836">
        <ele>318</ele>
        <time>2022-06-26T08:02:45Z</time>
      </trkpt>
      <trkpt lat="45.9081" lon="4.51828">
        <ele>318.2</ele>
        <time>2022-06-26T08:02:46Z</time>
      </trkpt>
      <trkpt lat="45.90813" lon="4.5182">
        <ele>318.2</ele>
        <time>2022-06-26T08:02:47Z</time>
      </trkpt>
      <trkpt lat="45.90815" lon="4.51812">
        <ele>318.2</ele>
        <time>2022-06-26T08:02:48Z</time>
      </trkpt>
      <trkpt lat="45.90817" lon="4.51803">
        <ele>318.2</ele>
        <time>2022-06-26T08:02:49Z</time>
      </trkpt>
      <trkpt lat="45.9082" lon="4.51795">
        <ele>318.2</ele>
        <time>2022-06-26T08:02:50Z</time>
      </trkpt>
      <trkpt lat="45.90822" lon="4.51787">
        <ele>318.2</ele>
        <time>2022-06-26T08:02:51Z</time>
      </trkpt>
      <trkpt lat="45.90825" lon="4.51778">
        <ele>318.2</ele>
        <time>2022-06-26T08:02:52Z</time>
      </trkpt>
      <trkpt lat="45.90827" lon="4.51769">
        <ele>318.2</ele>
        <time>2022-06-26T08:02:53Z</time>
      </trkpt>
      <trkpt lat="45.90829" lon="4.51761">
        <ele>318.2</ele>
        <time>2022-06-26T08:02:54Z</time>
      </trkpt>
      <trkpt lat="45.90832" lon="4.51752">
        <ele>318.2</ele>
        <time>2022-06-26T08:02:55Z</time>
      </trkpt>
      <trkpt lat="45.90834" lon="4.51743">
        <ele>318.2</ele>
        <time>2022-06-26T08:02:56Z</time>
      </trkpt>
      <trkpt lat="45.90836" lon="4.51734">
        <ele>318.2</ele>
        <time>2022-06-26T08:02:57Z</time>
      </trkpt>
      <trkpt lat="45.90839" lon="4.51725">
        <ele>318.2</ele>
        <time>2022-06-26T08:02:58Z</time>
      </trkpt>
      <trkpt lat="45.90842" lon="4.51717">
        <ele>318.2</ele>
        <time>2022-06-26T08:02:59Z</time>
      </trkpt>
      <trkpt lat="45.90845" lon="4.51708">
        <ele>318.2</ele>
        <time>2022-06-26T08:03:00Z</time>
      </trkpt>
      <trkpt lat="45.90847" lon="4.51698">
        <ele>318.2</ele>
        <time>2022-06-26T08:03:01Z</time>
      </trkpt>
      <trkpt lat="45.9085" lon="4.51689">
        <ele>318.2</ele>
        <time>2022-06-26T08:03:02Z</time>
      </trkpt>
      <trkpt lat="45.90853" lon="4.51679">
        <ele>318</ele>
        <time>2022-06-26T08:03:03Z</time>
      </trkpt>
      <trkpt lat="45.90856" lon="4.5167">
        <ele>318</ele>
        <time>2022-06-26T08:03:04Z</time>
      </trkpt>
      <trkpt lat="45.90859" lon="4.5166">
        <ele>318</ele>
        <time>2022-06-26T08:03:05Z</time>
      </trkpt>
      <trkpt lat="45.90861" lon="4.51651">
        <ele>318</ele>
        <time>2022-06-26T08:03:06Z</time>
      </trkpt>
      <trkpt lat="45.90864" lon="4.51641">
        <ele>317.6</ele>
        <time>2022-06-26T08:03:07Z</time>
      </trkpt>
      <trkpt lat="45.90867" lon="4.51632">
        <ele>317.6</ele>
        <time>2022-06-26T08:03:08Z</time>
      </trkpt>
      <trkpt lat="45.9087" lon="4.51622">
        <ele>317.6</ele>
        <time>2022-06-26T08:03:09Z</time>
      </trkpt>
      <trkpt lat="45.90873" lon="4.51612">
        <ele>317.4</ele>
        <time>2022-06-26T08:03:10Z</time>
      </trkpt>
      <trkpt lat="45.90877" lon="4.51603">
        <ele>317.4</ele>
        <time>2022-06-26T08:03:11Z</time>
      </trkpt>
      <trkpt lat="45.9088" lon="4.51593">
        <ele>317.4</ele>
        <time>2022-06-26T08:03:12Z</time>
      </trkpt>
      <trkpt lat="45.90883" lon="4.51584">
        <ele>317.4</ele>
        <time>2022-06-26T08:03:13Z</time>
      </trkpt>
      <trkpt lat="45.90886" lon="4.51575">
        <ele>317.4</ele>
        <time>2022-06-26T08:03:14Z</time>
      </trkpt>
      <trkpt lat="45.90889" lon="4.51566">
        <ele>317.4</ele>
        <time>2022-06-26T08:03:15Z</time>
      </trkpt>
      <trkpt lat="45.90892" lon="4.51557">
        <ele>317.4</ele>
        <time>2022-06-26T08:03:16Z</time>
      </trkpt>
      <trkpt lat="45.90895" lon="4.51548">
        <ele>317.4</ele>
        <time>2022-06-26T08:03:17Z</time>
      </trkpt>
      <trkpt lat="45.90898" lon="4.51539">
        <ele>317.2</ele>
        <time>2022-06-26T08:03:18Z</time>
      </trkpt>
      <trkpt lat="45.90901" lon="4.5153">
        <ele>317.2</ele>
        <time>2022-06-26T08:03:19Z</time>
      </trkpt>
      <trkpt lat="45.90904" lon="4.51521">
        <ele>317.2</ele>
        <time>2022-06-26T08:03:20Z</time>
      </trkpt>
      <trkpt lat="45.90908" lon="4.51513">
        <ele>317.2</ele>
        <time>2022-06-26T08:03:21Z</time>
      </trkpt>
      <trkpt lat="45.90911" lon="4.51505">
        <ele>317.2</ele>
        <time>2022-06-26T08:03:22Z</time>
      </trkpt>
      <trkpt lat="45.90914" lon="4.51496">
        <ele>317.2</ele>
        <time>2022-06-26T08:03:23Z</time>
      </trkpt>
      <trkpt lat="45.90917" lon="4.51488">
        <ele>317.2</ele>
        <time>2022-06-26T08:03:24Z</time>
      </trkpt>
      <trkpt lat="45.90919" lon="4.5148">
        <ele>317.4</ele>
        <time>2022-06-26T08:03:25Z</time>
      </trkpt>
      <trkpt lat="45.90922" lon="4.51471">
        <ele>317.4</ele>
        <time>2022-06-26T08:03:26Z</time>
      </trkpt>
      <trkpt lat="45.90925" lon="4.51463">
        <ele>317.4</ele>
        <time>2022-06-26T08:03:27Z</time>
      </trkpt>
      <trkpt lat="45.90927" lon="4.51455">
        <ele>317.4</ele>
        <time>2022-06-26T08:03:28Z</time>
      </trkpt>
      <trkpt lat="45.9093" lon="4.51447">
        <ele>317.6</ele>
        <time>2022-06-26T08:03:29Z</time>
      </trkpt>
      <trkpt lat="45.90932" lon="4.51439">
        <ele>317.6</ele>
        <time>2022-06-26T08:03:30Z</time>
      </trkpt>
      <trkpt lat="45.90934" lon="4.51431">
        <ele>317.6</ele>
        <time>2022-06-26T08:03:31Z</time>
      </trkpt>
      <trkpt lat="45.90937" lon="4.51422">
        <ele>317.6</ele>
        <time>2022-06-26T08:03:32Z</time>
      </trkpt>
      <trkpt lat="45.90939" lon="4.51414">
        <ele>317.8</ele>
        <time>2022-06-26T08:03:33Z</time>
      </trkpt>
      <trkpt lat="45.90941" lon="4.51406">
        <ele>317.8</ele>
        <time>2022-06-26T08:03:34Z</time>
      </trkpt>
      <trkpt lat="45.90943" lon="4.51397">
        <ele>317.8</ele>
        <time>2022-06-26T08:03:35Z</time>
      </trkpt>
      <trkpt lat="45.90945" lon="4.51389">
        <ele>317.8</ele>
        <time>2022-06-26T08:03:36Z</time>
      </trkpt>
      <trkpt lat="45.90947" lon="4.51381">
        <ele>317.8</ele>
        <time>2022-06-26T08:03:37Z</time>
      </trkpt>
      <trkpt lat="45.90949" lon="4.51372">
        <ele>317.8</ele>
        <time>2022-06-26T08:03:38Z</time>
      </trkpt>
      <trkpt lat="45.90951" lon="4.51364">
        <ele>317.8</ele>
        <time>2022-06-26T08:03:39Z</time>
      </trkpt>
      <trkpt lat="45.90952" lon="4.51356">
        <ele>317.8</ele>
        <time>2022-06-26T08:03:40Z</time>
      </trkpt>
      <trkpt lat="45.90954" lon="4.51348">
        <ele>317.8</ele>
        <time>2022-06-26T08:03:41Z</time>
      </trkpt>
      <trkpt lat="45.90955" lon="4.5134">
        <ele>318.2</ele>
        <time>2022-06-26T08:03:42Z</time>
      </trkpt>
      <trkpt lat="45.90957" lon="4.51332">
        <ele>318.2</ele>
        <time>2022-06-26T08:03:43Z</time>
      </trkpt>
      <trkpt lat="45.90958" lon="4.51324">
        <ele>318.2</ele>
        <time>2022-06-26T08:03:44Z</time>
      </trkpt>
      <trkpt lat="45.90959" lon="4.51315">
        <ele>318.2</ele>
        <time>2022-06-26T08:03:45Z</time>
      </trkpt>
      <trkpt lat="45.9096" lon="4.51307">
        <ele>318.2</ele>
        <time>2022-06-26T08:03:46Z</time>
      </trkpt>
      <trkpt lat="45.90961" lon="4.51299">
        <ele>318.2</ele>
        <time>2022-06-26T08:03:47Z</time>
      </trkpt>
      <trkpt lat="45.90963" lon="4.51291">
        <ele>318.2</ele>
        <time>2022-06-26T08:03:48Z</time>
      </trkpt>
      <trkpt lat="45.90964" lon="4.51283">
        <ele>318.4</ele>
        <time>2022-06-26T08:03:49Z</time>
      </trkpt>
      <trkpt lat="45.90966" lon="4.51275">
        <ele>318.4</ele>
        <time>2022-06-26T08:03:50Z</time>
      </trkpt>
      <trkpt lat="45.90968" lon="4.51268">
        <ele>318.4</ele>
        <time>2022-06-26T08:03:51Z</time>
      </trkpt>
      <trkpt lat="45.9097" lon="4.51261">
        <ele>318.4</ele>
        <time>2022-06-26T08:03:52Z</time>
      </trkpt>
      <trkpt lat="45.90973" lon="4.51254">
        <ele>318.4</ele>
        <time>2022-06-26T08:03:53Z</time>
      </trkpt>
      <trkpt lat="45.90975" lon="4.51246">
        <ele>318.6</ele>
        <time>2022-06-26T08:03:54Z</time>
      </trkpt>
      <trkpt lat="45.90977" lon="4.51239">
        <ele>318.6</ele>
        <time>2022-06-26T08:03:55Z</time>
      </trkpt>
      <trkpt lat="45.9098" lon="4.51232">
        <ele>318.6</ele>
        <time>2022-06-26T08:03:56Z</time>
      </trkpt>
      <trkpt lat="45.90982" lon="4.51225">
        <ele>318.6</ele>
        <time>2022-06-26T08:03:57Z</time>
      </trkpt>
      <trkpt lat="45.90983" lon="4.51218">
        <ele>318.6</ele>
        <time>2022-06-26T08:03:58Z</time>
      </trkpt>
      <trkpt lat="45.90985" lon="4.51211">
        <ele>318.6</ele>
        <time>2022-06-26T08:03:59Z</time>
      </trkpt>
      <trkpt lat="45.90986" lon="4.51204">
        <ele>318.6</ele>
        <time>2022-06-26T08:04:00Z</time>
      </trkpt>
      <trkpt lat="45.90986" lon="4.51197">
        <ele>318.6</ele>
        <time>2022-06-26T08:04:01Z</time>
      </trkpt>
      <trkpt lat="45.90987" lon="4.5119">
        <ele>318.6</ele>
        <time>2022-06-26T08:04:02Z</time>
      </trkpt>
      <trkpt lat="45.90988" lon="4.51183">
        <ele>318.6</ele>
        <time>2022-06-26T08:04:03Z</time>
      </trkpt>
      <trkpt lat="45.90988" lon="4.51176">
        <ele>318.6</ele>
        <time>2022-06-26T08:04:04Z</time>
      </trkpt>
      <trkpt lat="45.90989" lon="4.51169">
        <ele>318.6</ele>
        <time>2022-06-26T08:04:05Z</time>
      </trkpt>
      <trkpt lat="45.9099" lon="4.51161">
        <ele>318.6</ele>
        <time>2022-06-26T08:04:06Z</time>
      </trkpt>
      <trkpt lat="45.90991" lon="4.51154">
        <ele>318.6</ele>
        <time>2022-06-26T08:04:07Z</time>
      </trkpt>
      <trkpt lat="45.90991" lon="4.51147">
        <ele>318.6</ele>
        <time>2022-06-26T08:04:08Z</time>
      </trkpt>
      <trkpt lat="45.90991" lon="4.51139">
        <ele>318.6</ele>
        <time>2022-06-26T08:04:09Z</time>
      </trkpt>
      <trkpt lat="45.90992" lon="4.51131">
        <ele>318.6</ele>
        <time>2022-06-26T08:04:10Z</time>
      </trkpt>
      <trkpt lat="45.90992" lon="4.51124">
        <ele>318.6</ele>
        <time>2022-06-26T08:04:11Z</time>
      </trkpt>
      <trkpt lat="45.90992" lon="4.51116">
        <ele>318.8</ele>
        <time>2022-06-26T08:04:12Z</time>
      </trkpt>
      <trkpt lat="45.90992" lon="4.51109">
        <ele>318.8</ele>
        <time>2022-06-26T08:04:13Z</time>
      </trkpt>
      <trkpt lat="45.90992" lon="4.51101">
        <ele>318.8</ele>
        <time>2022-06-26T08:04:14Z</time>
      </trkpt>
      <trkpt lat="45.90992" lon="4.51094">
        <ele>318.8</ele>
        <time>2022-06-26T08:04:15Z</time>
      </trkpt>
      <trkpt lat="45.90991" lon="4.51087">
        <ele>318.8</ele>
        <time>2022-06-26T08:04:16Z</time>
      </trkpt>
      <trkpt lat="45.90989" lon="4.51081">
        <ele>318.8</ele>
        <time>2022-06-26T08:04:17Z</time>
      </trkpt>
      <trkpt lat="45.90987" lon="4.51075">
        <ele>318.8</ele>
        <time>2022-06-26T08:04:18Z</time>
      </trkpt>
      <trkpt lat="45.90984" lon="4.51071">
        <ele>318.8</ele>
        <time>2022-06-26T08:04:19Z</time>
      </trkpt>
      <trkpt lat="45.90982" lon="4.51066">
        <ele>318.8</ele>
        <time>2022-06-26T08:04:20Z</time>
      </trkpt>
      <trkpt lat="45.9098" lon="4.51061">
        <ele>318.8</ele>
        <time>2022-06-26T08:04:21Z</time>
      </trkpt>
      <trkpt lat="45.90978" lon="4.51056">
        <ele>318.8</ele>
        <time>2022-06-26T08:04:22Z</time>
      </trkpt>
      <trkpt lat="45.90977" lon="4.5105">
        <ele>318.8</ele>
        <time>2022-06-26T08:04:23Z</time>
      </trkpt>
      <trkpt lat="45.90976" lon="4.51044">
        <ele>319</ele>
        <time>2022-06-26T08:04:24Z</time>
      </trkpt>
      <trkpt lat="45.90976" lon="4.51038">
        <ele>319</ele>
        <time>2022-06-26T08:04:25Z</time>
      </trkpt>
      <trkpt lat="45.90976" lon="4.51031">
        <ele>319</ele>
        <time>2022-06-26T08:04:26Z</time>
      </trkpt>
      <trkpt lat="45.90976" lon="4.51024">
        <ele>319</ele>
        <time>2022-06-26T08:04:27Z</time>
      </trkpt>
      <trkpt lat="45.90977" lon="4.51017">
        <ele>319.4</ele>
        <time>2022-06-26T08:04:28Z</time>
      </trkpt>
      <trkpt lat="45.90977" lon="4.5101">
        <ele>319.4</ele>
        <time>2022-06-26T08:04:29Z</time>
      </trkpt>
      <trkpt lat="45.90977" lon="4.51003">
        <ele>319.4</ele>
        <time>2022-06-26T08:04:30Z</time>
      </trkpt>
      <trkpt lat="45.90977" lon="4.50996">
        <ele>319.4</ele>
        <time>2022-06-26T08:04:31Z</time>
      </trkpt>
      <trkpt lat="45.90978" lon="4.50989">
        <ele>319.6</ele>
        <time>2022-06-26T08:04:32Z</time>
      </trkpt>
      <trkpt lat="45.90978" lon="4.50982">
        <ele>319.6</ele>
        <time>2022-06-26T08:04:33Z</time>
      </trkpt>
      <trkpt lat="45.90979" lon="4.50975">
        <ele>319.6</ele>
        <time>2022-06-26T08:04:34Z</time>
      </trkpt>
      <trkpt lat="45.9098" lon="4.50967">
        <ele>319.6</ele>
        <time>2022-06-26T08:04:35Z</time>
      </trkpt>
      <trkpt lat="45.90981" lon="4.5096">
        <ele>319.6</ele>
        <time>2022-06-26T08:04:36Z</time>
      </trkpt>
      <trkpt lat="45.90982" lon="4.50953">
        <ele>319.8</ele>
        <time>2022-06-26T08:04:37Z</time>
      </trkpt>
      <trkpt lat="45.90982" lon="4.50946">
        <ele>319.8</ele>
        <time>2022-06-26T08:04:38Z</time>
      </trkpt>
      <trkpt lat="45.90983" lon="4.50939">
        <ele>320</ele>
        <time>2022-06-26T08:04:39Z</time>
      </trkpt>
      <trkpt lat="45.90983" lon="4.50931">
        <ele>320</ele>
        <time>2022-06-26T08:04:40Z</time>
      </trkpt>
      <trkpt lat="45.90984" lon="4.50924">
        <ele>320</ele>
        <time>2022-06-26T08:04:41Z</time>
      </trkpt>
      <trkpt lat="45.90985" lon="4.50917">
        <ele>320.2</ele>
        <time>2022-06-26T08:04:42Z</time>
      </trkpt>
      <trkpt lat="45.90986" lon="4.5091">
        <ele>320.2</ele>
        <time>2022-06-26T08:04:43Z</time>
      </trkpt>
      <trkpt lat="45.90988" lon="4.50903">
        <ele>320.6</ele>
        <time>2022-06-26T08:04:44Z</time>
      </trkpt>
      <trkpt lat="45.90989" lon="4.50897">
        <ele>320.6</ele>
        <time>2022-06-26T08:04:45Z</time>
      </trkpt>
      <trkpt lat="45.9099" lon="4.5089">
        <ele>321</ele>
        <time>2022-06-26T08:04:46Z</time>
      </trkpt>
      <trkpt lat="45.90992" lon="4.50883">
        <ele>321</ele>
        <time>2022-06-26T08:04:47Z</time>
      </trkpt>
      <trkpt lat="45.90994" lon="4.50877">
        <ele>321.2</ele>
        <time>2022-06-26T08:04:48Z</time>
      </trkpt>
      <trkpt lat="45.90996" lon="4.5087">
        <ele>321.2</ele>
        <time>2022-06-26T08:04:49Z</time>
      </trkpt>
      <trkpt lat="45.90998" lon="4.50864">
        <ele>321.4</ele>
        <time>2022-06-26T08:04:50Z</time>
      </trkpt>
      <trkpt lat="45.91" lon="4.50858">
        <ele>321.4</ele>
        <time>2022-06-26T08:04:51Z</time>
      </trkpt>
      <trkpt lat="45.91002" lon="4.50852">
        <ele>321.8</ele>
        <time>2022-06-26T08:04:52Z</time>
      </trkpt>
      <trkpt lat="45.91004" lon="4.50846">
        <ele>322</ele>
        <time>2022-06-26T08:04:53Z</time>
      </trkpt>
      <trkpt lat="45.91006" lon="4.5084">
        <ele>322</ele>
        <time>2022-06-26T08:04:54Z</time>
      </trkpt>
      <trkpt lat="45.91008" lon="4.50835">
        <ele>322.2</ele>
        <time>2022-06-26T08:04:55Z</time>
      </trkpt>
      <trkpt lat="45.9101" lon="4.50829">
        <ele>322.4</ele>
        <time>2022-06-26T08:04:56Z</time>
      </trkpt>
      <trkpt lat="45.91011" lon="4.50823">
        <ele>322.4</ele>
        <time>2022-06-26T08:04:57Z</time>
      </trkpt>
      <trkpt lat="45.91013" lon="4.50817">
        <ele>322.8</ele>
        <time>2022-06-26T08:04:58Z</time>
      </trkpt>
      <trkpt lat="45.91014" lon="4.50811">
        <ele>322.8</ele>
        <time>2022-06-26T08:04:59Z</time>
      </trkpt>
      <trkpt lat="45.91015" lon="4.50805">
        <ele>323</ele>
        <time>2022-06-26T08:05:00Z</time>
      </trkpt>
      <trkpt lat="45.91016" lon="4.50799">
        <ele>323</ele>
        <time>2022-06-26T08:05:01Z</time>
      </trkpt>
      <trkpt lat="45.91017" lon="4.50793">
        <ele>323.4</ele>
        <time>2022-06-26T08:05:02Z</time>
      </trkpt>
      <trkpt lat="45.91017" lon="4.50788">
        <ele>323.4</ele>
        <time>2022-06-26T08:05:03Z</time>
      </trkpt>
      <trkpt lat="45.91018" lon="4.50782">
        <ele>323.6</ele>
        <time>2022-06-26T08:05:04Z</time>
      </trkpt>
      <trkpt lat="45.91018" lon="4.50776">
        <ele>323.6</ele>
        <time>2022-06-26T08:05:05Z</time>
      </trkpt>
      <trkpt lat="45.91019" lon="4.50771">
        <ele>324</ele>
        <time>2022-06-26T08:05:06Z</time>
      </trkpt>
      <trkpt lat="45.91019" lon="4.50765">
        <ele>324</ele>
        <time>2022-06-26T08:05:07Z</time>
      </trkpt>
      <trkpt lat="45.91019" lon="4.5076">
        <ele>324.2</ele>
        <time>2022-06-26T08:05:08Z</time>
      </trkpt>
      <trkpt lat="45.91018" lon="4.50754">
        <ele>324.2</ele>
        <time>2022-06-26T08:05:09Z</time>
      </trkpt>
      <trkpt lat="45.91018" lon="4.50749">
        <ele>324.2</ele>
        <time>2022-06-26T08:05:10Z</time>
      </trkpt>
      <trkpt lat="45.91018" lon="4.50743">
        <ele>324.4</ele>
        <time>2022-06-26T08:05:11Z</time>
      </trkpt>
      <trkpt lat="45.91018" lon="4.50737">
        <ele>324.4</ele>
        <time>2022-06-26T08:05:12Z</time>
      </trkpt>
      <trkpt lat="45.91018" lon="4.50732">
        <ele>324.6</ele>
        <time>2022-06-26T08:05:13Z</time>
      </trkpt>
      <trkpt lat="45.91017" lon="4.50726">
        <ele>324.6</ele>
        <time>2022-06-26T08:05:14Z</time>
      </trkpt>
      <trkpt lat="45.91017" lon="4.50721">
        <ele>324.6</ele>
        <time>2022-06-26T08:05:15Z</time>
      </trkpt>
      <trkpt lat="45.91016" lon="4.50715">
        <ele>325</ele>
        <time>2022-06-26T08:05:16Z</time>
      </trkpt>
      <trkpt lat="45.91015" lon="4.5071">
        <ele>325</ele>
        <time>2022-06-26T08:05:17Z</time>
      </trkpt>
      <trkpt lat="45.91014" lon="4.50704">
        <ele>325</ele>
        <time>2022-06-26T08:05:18Z</time>
      </trkpt>
      <trkpt lat="45.91013" lon="4.50699">
        <ele>325.2</ele>
        <time>2022-06-26T08:05:19Z</time>
      </trkpt>
      <trkpt lat="45.91012" lon="4.50693">
        <ele>325.2</ele>
        <time>2022-06-26T08:05:20Z</time>
      </trkpt>
      <trkpt lat="45.9101" lon="4.50687">
        <ele>325.2</ele>
        <time>2022-06-26T08:05:21Z</time>
      </trkpt>
      <trkpt lat="45.91009" lon="4.50682">
        <ele>325.2</ele>
        <time>2022-06-26T08:05:22Z</time>
      </trkpt>
      <trkpt lat="45.91007" lon="4.50676">
        <ele>325.2</ele>
        <time>2022-06-26T08:05:23Z</time>
      </trkpt>
      <trkpt lat="45.91006" lon="4.5067">
        <ele>325.6</ele>
        <time>2022-06-26T08:05:24Z</time>
      </trkpt>
      <trkpt lat="45.91005" lon="4.50665">
        <ele>325.6</ele>
        <time>2022-06-26T08:05:25Z</time>
      </trkpt>
      <trkpt lat="45.91003" lon="4.50659">
        <ele>325.8</ele>
        <time>2022-06-26T08:05:26Z</time>
      </trkpt>
      <trkpt lat="45.91002" lon="4.50653">
        <ele>325.8</ele>
        <time>2022-06-26T08:05:27Z</time>
      </trkpt>
      <trkpt lat="45.91001" lon="4.50648">
        <ele>325.8</ele>
        <time>2022-06-26T08:05:28Z</time>
      </trkpt>
      <trkpt lat="45.91" lon="4.50643">
        <ele>326</ele>
        <time>2022-06-26T08:05:29Z</time>
      </trkpt>
      <trkpt lat="45.90998" lon="4.50637">
        <ele>326</ele>
        <time>2022-06-26T08:05:30Z</time>
      </trkpt>
      <trkpt lat="45.90997" lon="4.50632">
        <ele>326</ele>
        <time>2022-06-26T08:05:31Z</time>
      </trkpt>
      <trkpt lat="45.90996" lon="4.50626">
        <ele>326.4</ele>
        <time>2022-06-26T08:05:32Z</time>
      </trkpt>
      <trkpt lat="45.90996" lon="4.50621">
        <ele>326.4</ele>
        <time>2022-06-26T08:05:33Z</time>
      </trkpt>
      <trkpt lat="45.90995" lon="4.50615">
        <ele>326.6</ele>
        <time>2022-06-26T08:05:34Z</time>
      </trkpt>
      <trkpt lat="45.90994" lon="4.5061">
        <ele>326.6</ele>
        <time>2022-06-26T08:05:35Z</time>
      </trkpt>
      <trkpt lat="45.90993" lon="4.50604">
        <ele>326.6</ele>
        <time>2022-06-26T08:05:36Z</time>
      </trkpt>
      <trkpt lat="45.90993" lon="4.50599">
        <ele>326.8</ele>
        <time>2022-06-26T08:05:37Z</time>
      </trkpt>
      <trkpt lat="45.90993" lon="4.50593">
        <ele>326.8</ele>
        <time>2022-06-26T08:05:38Z</time>
      </trkpt>
      <trkpt lat="45.90992" lon="4.50588">
        <ele>327</ele>
        <time>2022-06-26T08:05:39Z</time>
      </trkpt>
      <trkpt lat="45.90992" lon="4.50582">
        <ele>327</ele>
        <time>2022-06-26T08:05:40Z</time>
      </trkpt>
      <trkpt lat="45.90992" lon="4.50577">
        <ele>327</ele>
        <time>2022-06-26T08:05:41Z</time>
      </trkpt>
      <trkpt lat="45.90992" lon="4.50571">
        <ele>327.4</ele>
        <time>2022-06-26T08:05:42Z</time>
      </trkpt>
      <trkpt lat="45.90992" lon="4.50566">
        <ele>327.4</ele>
        <time>2022-06-26T08:05:43Z</time>
      </trkpt>
      <trkpt lat="45.90992" lon="4.5056">
        <ele>327.6</ele>
        <time>2022-06-26T08:05:44Z</time>
      </trkpt>
      <trkpt lat="45.90992" lon="4.50554">
        <ele>327.6</ele>
        <time>2022-06-26T08:05:45Z</time>
      </trkpt>
      <trkpt lat="45.90993" lon="4.50548">
        <ele>327.8</ele>
        <time>2022-06-26T08:05:46Z</time>
      </trkpt>
      <trkpt lat="45.90993" lon="4.50542">
        <ele>327.8</ele>
        <time>2022-06-26T08:05:47Z</time>
      </trkpt>
      <trkpt lat="45.90993" lon="4.50536">
        <ele>327.8</ele>
        <time>2022-06-26T08:05:48Z</time>
      </trkpt>
      <trkpt lat="45.90994" lon="4.5053">
        <ele>327.8</ele>
        <time>2022-06-26T08:05:49Z</time>
      </trkpt>
      <trkpt lat="45.90995" lon="4.50524">
        <ele>328</ele>
        <time>2022-06-26T08:05:50Z</time>
      </trkpt>
      <trkpt lat="45.90995" lon="4.50518">
        <ele>328</ele>
        <time>2022-06-26T08:05:51Z</time>
      </trkpt>
      <trkpt lat="45.90996" lon="4.50512">
        <ele>328.2</ele>
        <time>2022-06-26T08:05:52Z</time>
      </trkpt>
      <trkpt lat="45.90997" lon="4.50506">
        <ele>328.2</ele>
        <time>2022-06-26T08:05:53Z</time>
      </trkpt>
      <trkpt lat="45.90998" lon="4.50501">
        <ele>328.4</ele>
        <time>2022-06-26T08:05:54Z</time>
      </trkpt>
      <trkpt lat="45.90999" lon="4.50495">
        <ele>328.4</ele>
        <time>2022-06-26T08:05:55Z</time>
      </trkpt>
      <trkpt lat="45.91" lon="4.50489">
        <ele>328.6</ele>
        <time>2022-06-26T08:05:56Z</time>
      </trkpt>
      <trkpt lat="45.91001" lon="4.50484">
        <ele>328.6</ele>
        <time>2022-06-26T08:05:57Z</time>
      </trkpt>
      <trkpt lat="45.91002" lon="4.50478">
        <ele>329</ele>
        <time>2022-06-26T08:05:58Z</time>
      </trkpt>
      <trkpt lat="45.91003" lon="4.50473">
        <ele>329</ele>
        <time>2022-06-26T08:05:59Z</time>
      </trkpt>
      <trkpt lat="45.91004" lon="4.50467">
        <ele>329.2</ele>
        <time>2022-06-26T08:06:00Z</time>
      </trkpt>
      <trkpt lat="45.91005" lon="4.50462">
        <ele>329.2</ele>
        <time>2022-06-26T08:06:01Z</time>
      </trkpt>
      <trkpt lat="45.91006" lon="4.50457">
        <ele>329.4</ele>
        <time>2022-06-26T08:06:02Z</time>
      </trkpt>
      <trkpt lat="45.91008" lon="4.50451">
        <ele>329.4</ele>
        <time>2022-06-26T08:06:03Z</time>
      </trkpt>
      <trkpt lat="45.9101" lon="4.50446">
        <ele>329.4</ele>
        <time>2022-06-26T08:06:04Z</time>
      </trkpt>
      <trkpt lat="45.91011" lon="4.5044">
        <ele>329.6</ele>
        <time>2022-06-26T08:06:05Z</time>
      </trkpt>
      <trkpt lat="45.91013" lon="4.50435">
        <ele>329.6</ele>
        <time>2022-06-26T08:06:06Z</time>
      </trkpt>
      <trkpt lat="45.91015" lon="4.50429">
        <ele>330</ele>
        <time>2022-06-26T08:06:07Z</time>
      </trkpt>
      <trkpt lat="45.91017" lon="4.50424">
        <ele>330</ele>
        <time>2022-06-26T08:06:08Z</time>
      </trkpt>
      <trkpt lat="45.91019" lon="4.50418">
        <ele>330.2</ele>
        <time>2022-06-26T08:06:09Z</time>
      </trkpt>
      <trkpt lat="45.91021" lon="4.50413">
        <ele>330.6</ele>
        <time>2022-06-26T08:06:10Z</time>
      </trkpt>
      <trkpt lat="45.91024" lon="4.50408">
        <ele>330.6</ele>
        <time>2022-06-26T08:06:11Z</time>
      </trkpt>
      <trkpt lat="45.91026" lon="4.50403">
        <ele>330.8</ele>
        <time>2022-06-26T08:06:12Z</time>
      </trkpt>
      <trkpt lat="45.91028" lon="4.50398">
        <ele>330.8</ele>
        <time>2022-06-26T08:06:13Z</time>
      </trkpt>
      <trkpt lat="45.91031" lon="4.50393">
        <ele>330.8</ele>
        <time>2022-06-26T08:06:14Z</time>
      </trkpt>
      <trkpt lat="45.91033" lon="4.50388">
        <ele>331</ele>
        <time>2022-06-26T08:06:15Z</time>
      </trkpt>
      <trkpt lat="45.91036" lon="4.50384">
        <ele>331</ele>
        <time>2022-06-26T08:06:16Z</time>
      </trkpt>
      <trkpt lat="45.91039" lon="4.50379">
        <ele>331.4</ele>
        <time>2022-06-26T08:06:17Z</time>
      </trkpt>
      <trkpt lat="45.91042" lon="4.50375">
        <ele>331.4</ele>
        <time>2022-06-26T08:06:18Z</time>
      </trkpt>
      <trkpt lat="45.91044" lon="4.5037">
        <ele>331.6</ele>
        <time>2022-06-26T08:06:19Z</time>
      </trkpt>
      <trkpt lat="45.91047" lon="4.50366">
        <ele>331.8</ele>
        <time>2022-06-26T08:06:21Z</time>
      </trkpt>
      <trkpt lat="45.9105" lon="4.50362">
        <ele>331.8</ele>
        <time>2022-06-26T08:06:22Z</time>
      </trkpt>
      <trkpt lat="45.91052" lon="4.50357">
        <ele>332</ele>
        <time>2022-06-26T08:06:23Z</time>
      </trkpt>
      <trkpt lat="45.91055" lon="4.50353">
        <ele>332</ele>
        <time>2022-06-26T08:06:24Z</time>
      </trkpt>
      <trkpt lat="45.91058" lon="4.50349">
        <ele>332.4</ele>
        <time>2022-06-26T08:06:25Z</time>
      </trkpt>
      <trkpt lat="45.9106" lon="4.50344">
        <ele>332.4</ele>
        <time>2022-06-26T08:06:26Z</time>
      </trkpt>
      <trkpt lat="45.91063" lon="4.50339">
        <ele>332.6</ele>
        <time>2022-06-26T08:06:27Z</time>
      </trkpt>
      <trkpt lat="45.91065" lon="4.50335">
        <ele>332.6</ele>
        <time>2022-06-26T08:06:28Z</time>
      </trkpt>
      <trkpt lat="45.91067" lon="4.5033">
        <ele>332.8</ele>
        <time>2022-06-26T08:06:29Z</time>
      </trkpt>
      <trkpt lat="45.9107" lon="4.50325">
        <ele>332.8</ele>
        <time>2022-06-26T08:06:30Z</time>
      </trkpt>
      <trkpt lat="45.91072" lon="4.50321">
        <ele>333</ele>
        <time>2022-06-26T08:06:31Z</time>
      </trkpt>
      <trkpt lat="45.91074" lon="4.50315">
        <ele>333.2</ele>
        <time>2022-06-26T08:06:32Z</time>
      </trkpt>
      <trkpt lat="45.91076" lon="4.5031">
        <ele>333.2</ele>
        <time>2022-06-26T08:06:33Z</time>
      </trkpt>
      <trkpt lat="45.91078" lon="4.50305">
        <ele>333.2</ele>
        <time>2022-06-26T08:06:34Z</time>
      </trkpt>
      <trkpt lat="45.9108" lon="4.503">
        <ele>333.6</ele>
        <time>2022-06-26T08:06:35Z</time>
      </trkpt>
      <trkpt lat="45.91081" lon="4.50294">
        <ele>333.6</ele>
        <time>2022-06-26T08:06:36Z</time>
      </trkpt>
      <trkpt lat="45.91083" lon="4.50289">
        <ele>333.6</ele>
        <time>2022-06-26T08:06:37Z</time>
      </trkpt>
      <trkpt lat="45.91085" lon="4.50284">
        <ele>333.6</ele>
        <time>2022-06-26T08:06:38Z</time>
      </trkpt>
      <trkpt lat="45.91086" lon="4.50279">
        <ele>333.6</ele>
        <time>2022-06-26T08:06:39Z</time>
      </trkpt>
      <trkpt lat="45.91088" lon="4.50273">
        <ele>333.6</ele>
        <time>2022-06-26T08:06:40Z</time>
      </trkpt>
      <trkpt lat="45.91089" lon="4.50268">
        <ele>333.8</ele>
        <time>2022-06-26T08:06:41Z</time>
      </trkpt>
      <trkpt lat="45.91091" lon="4.50263">
        <ele>333.8</ele>
        <time>2022-06-26T08:06:42Z</time>
      </trkpt>
      <trkpt lat="45.91092" lon="4.50258">
        <ele>333.8</ele>
        <time>2022-06-26T08:06:43Z</time>
      </trkpt>
      <trkpt lat="45.91094" lon="4.50252">
        <ele>333.8</ele>
        <time>2022-06-26T08:06:44Z</time>
      </trkpt>
      <trkpt lat="45.91095" lon="4.50246">
        <ele>333.8</ele>
        <time>2022-06-26T08:06:45Z</time>
      </trkpt>
      <trkpt lat="45.91096" lon="4.5024">
        <ele>334</ele>
        <time>2022-06-26T08:06:46Z</time>
      </trkpt>
      <trkpt lat="45.91098" lon="4.50234">
        <ele>334</ele>
        <time>2022-06-26T08:06:47Z</time>
      </trkpt>
      <trkpt lat="45.91099" lon="4.50227">
        <ele>334.4</ele>
        <time>2022-06-26T08:06:48Z</time>
      </trkpt>
      <trkpt lat="45.91101" lon="4.50221">
        <ele>334.4</ele>
        <time>2022-06-26T08:06:49Z</time>
      </trkpt>
      <trkpt lat="45.91103" lon="4.50215">
        <ele>334.4</ele>
        <time>2022-06-26T08:06:50Z</time>
      </trkpt>
      <trkpt lat="45.91104" lon="4.50208">
        <ele>334.4</ele>
        <time>2022-06-26T08:06:51Z</time>
      </trkpt>
      <trkpt lat="45.91106" lon="4.50201">
        <ele>334.4</ele>
        <time>2022-06-26T08:06:52Z</time>
      </trkpt>
      <trkpt lat="45.91107" lon="4.50195">
        <ele>334.4</ele>
        <time>2022-06-26T08:06:53Z</time>
      </trkpt>
      <trkpt lat="45.91109" lon="4.50188">
        <ele>334.4</ele>
        <time>2022-06-26T08:06:54Z</time>
      </trkpt>
      <trkpt lat="45.9111" lon="4.50182">
        <ele>334.4</ele>
        <time>2022-06-26T08:06:55Z</time>
      </trkpt>
      <trkpt lat="45.91112" lon="4.50175">
        <ele>334.6</ele>
        <time>2022-06-26T08:06:56Z</time>
      </trkpt>
      <trkpt lat="45.91113" lon="4.50168">
        <ele>334.6</ele>
        <time>2022-06-26T08:06:57Z</time>
      </trkpt>
      <trkpt lat="45.91115" lon="4.50162">
        <ele>334.6</ele>
        <time>2022-06-26T08:06:58Z</time>
      </trkpt>
      <trkpt lat="45.91116" lon="4.50155">
        <ele>334.8</ele>
        <time>2022-06-26T08:06:59Z</time>
      </trkpt>
      <trkpt lat="45.91117" lon="4.50148">
        <ele>334.8</ele>
        <time>2022-06-26T08:07:00Z</time>
      </trkpt>
      <trkpt lat="45.91119" lon="4.50141">
        <ele>335</ele>
        <time>2022-06-26T08:07:01Z</time>
      </trkpt>
      <trkpt lat="45.9112" lon="4.50135">
        <ele>335</ele>
        <time>2022-06-26T08:07:02Z</time>
      </trkpt>
      <trkpt lat="45.91122" lon="4.50128">
        <ele>335.2</ele>
        <time>2022-06-26T08:07:03Z</time>
      </trkpt>
      <trkpt lat="45.91124" lon="4.50122">
        <ele>335.2</ele>
        <time>2022-06-26T08:07:04Z</time>
      </trkpt>
      <trkpt lat="45.91125" lon="4.50115">
        <ele>335.2</ele>
        <time>2022-06-26T08:07:05Z</time>
      </trkpt>
      <trkpt lat="45.91127" lon="4.50108">
        <ele>335.4</ele>
        <time>2022-06-26T08:07:06Z</time>
      </trkpt>
      <trkpt lat="45.91128" lon="4.50101">
        <ele>335.4</ele>
        <time>2022-06-26T08:07:07Z</time>
      </trkpt>
      <trkpt lat="45.9113" lon="4.50094">
        <ele>335.4</ele>
        <time>2022-06-26T08:07:08Z</time>
      </trkpt>
      <trkpt lat="45.91132" lon="4.50087">
        <ele>335.4</ele>
        <time>2022-06-26T08:07:09Z</time>
      </trkpt>
      <trkpt lat="45.91134" lon="4.5008">
        <ele>335.4</ele>
        <time>2022-06-26T08:07:10Z</time>
      </trkpt>
      <trkpt lat="45.91135" lon="4.50074">
        <ele>335.4</ele>
        <time>2022-06-26T08:07:11Z</time>
      </trkpt>
      <trkpt lat="45.91137" lon="4.50067">
        <ele>335.8</ele>
        <time>2022-06-26T08:07:12Z</time>
      </trkpt>
      <trkpt lat="45.91139" lon="4.5006">
        <ele>335.8</ele>
        <time>2022-06-26T08:07:13Z</time>
      </trkpt>
      <trkpt lat="45.91141" lon="4.50054">
        <ele>335.8</ele>
        <time>2022-06-26T08:07:14Z</time>
      </trkpt>
      <trkpt lat="45.91143" lon="4.50047">
        <ele>335.8</ele>
        <time>2022-06-26T08:07:15Z</time>
      </trkpt>
      <trkpt lat="45.91146" lon="4.50041">
        <ele>336</ele>
        <time>2022-06-26T08:07:16Z</time>
      </trkpt>
      <trkpt lat="45.91148" lon="4.50035">
        <ele>336</ele>
        <time>2022-06-26T08:07:17Z</time>
      </trkpt>
      <trkpt lat="45.91151" lon="4.50029">
        <ele>336.2</ele>
        <time>2022-06-26T08:07:18Z</time>
      </trkpt>
      <trkpt lat="45.91153" lon="4.50023">
        <ele>336.2</ele>
        <time>2022-06-26T08:07:19Z</time>
      </trkpt>
      <trkpt lat="45.91156" lon="4.50018">
        <ele>336.2</ele>
        <time>2022-06-26T08:07:20Z</time>
      </trkpt>
      <trkpt lat="45.91157" lon="4.50012">
        <ele>336.4</ele>
        <time>2022-06-26T08:07:21Z</time>
      </trkpt>
      <trkpt lat="45.91159" lon="4.50008">
        <ele>336.4</ele>
        <time>2022-06-26T08:07:22Z</time>
      </trkpt>
      <trkpt lat="45.9116" lon="4.50003">
        <ele>336.8</ele>
        <time>2022-06-26T08:07:23Z</time>
      </trkpt>
      <trkpt lat="45.91159" lon="4.5">
        <ele>336.8</ele>
        <time>2022-06-26T08:07:24Z</time>
      </trkpt>
      <trkpt lat="45.91158" lon="4.49998">
        <ele>336.8</ele>
        <time>2022-06-26T08:07:25Z</time>
      </trkpt>
      <trkpt lat="45.91157" lon="4.49996">
        <ele>337</ele>
        <time>2022-06-26T08:07:26Z</time>
      </trkpt>
      <trkpt lat="45.91157" lon="4.49994">
        <ele>337</ele>
        <time>2022-06-26T08:07:27Z</time>
      </trkpt>
      <trkpt lat="45.91157" lon="4.49991">
        <ele>337</ele>
        <time>2022-06-26T08:07:28Z</time>
      </trkpt>
      <trkpt lat="45.91158" lon="4.49988">
        <ele>337</ele>
        <time>2022-06-26T08:07:29Z</time>
      </trkpt>
      <trkpt lat="45.91159" lon="4.49986">
        <ele>337</ele>
        <time>2022-06-26T08:07:30Z</time>
      </trkpt>
      <trkpt lat="45.9116" lon="4.49983">
        <ele>337</ele>
        <time>2022-06-26T08:07:31Z</time>
      </trkpt>
      <trkpt lat="45.91162" lon="4.49981">
        <ele>337</ele>
        <time>2022-06-26T08:07:32Z</time>
      </trkpt>
      <trkpt lat="45.91163" lon="4.49978">
        <ele>337</ele>
        <time>2022-06-26T08:07:33Z</time>
      </trkpt>
      <trkpt lat="45.91165" lon="4.49976">
        <ele>337</ele>
        <time>2022-06-26T08:07:34Z</time>
      </trkpt>
      <trkpt lat="45.91167" lon="4.49974">
        <ele>337</ele>
        <time>2022-06-26T08:07:35Z</time>
      </trkpt>
      <trkpt lat="45.91169" lon="4.49972">
        <ele>337.2</ele>
        <time>2022-06-26T08:07:36Z</time>
      </trkpt>
      <trkpt lat="45.91172" lon="4.4997">
        <ele>337.2</ele>
        <time>2022-06-26T08:07:37Z</time>
      </trkpt>
      <trkpt lat="45.91174" lon="4.49969">
        <ele>337.2</ele>
        <time>2022-06-26T08:07:38Z</time>
      </trkpt>
      <trkpt lat="45.91176" lon="4.49967">
        <ele>337.2</ele>
        <time>2022-06-26T08:07:39Z</time>
      </trkpt>
      <trkpt lat="45.91178" lon="4.49967">
        <ele>337.2</ele>
        <time>2022-06-26T08:07:40Z</time>
      </trkpt>
      <trkpt lat="45.91181" lon="4.49968">
        <ele>337.2</ele>
        <time>2022-06-26T08:07:41Z</time>
      </trkpt>
      <trkpt lat="45.91184" lon="4.49969">
        <ele>337.4</ele>
        <time>2022-06-26T08:07:42Z</time>
      </trkpt>
      <trkpt lat="45.91187" lon="4.49968">
        <ele>337.4</ele>
        <time>2022-06-26T08:07:43Z</time>
      </trkpt>
      <trkpt lat="45.9119" lon="4.49966">
        <ele>337.4</ele>
        <time>2022-06-26T08:07:44Z</time>
      </trkpt>
      <trkpt lat="45.91194" lon="4.49964">
        <ele>337.4</ele>
        <time>2022-06-26T08:07:45Z</time>
      </trkpt>
      <trkpt lat="45.91196" lon="4.4996">
        <ele>337.4</ele>
        <time>2022-06-26T08:07:46Z</time>
      </trkpt>
      <trkpt lat="45.91199" lon="4.49956">
        <ele>337.4</ele>
        <time>2022-06-26T08:07:47Z</time>
      </trkpt>
      <trkpt lat="45.91202" lon="4.49953">
        <ele>337.4</ele>
        <time>2022-06-26T08:07:48Z</time>
      </trkpt>
      <trkpt lat="45.91205" lon="4.49949">
        <ele>337.6</ele>
        <time>2022-06-26T08:07:49Z</time>
      </trkpt>
      <trkpt lat="45.91208" lon="4.49946">
        <ele>337.6</ele>
        <time>2022-06-26T08:07:50Z</time>
      </trkpt>
      <trkpt lat="45.9121" lon="4.49942">
        <ele>337.6</ele>
        <time>2022-06-26T08:07:51Z</time>
      </trkpt>
      <trkpt lat="45.91213" lon="4.49938">
        <ele>337.8</ele>
        <time>2022-06-26T08:07:52Z</time>
      </trkpt>
      <trkpt lat="45.91216" lon="4.49934">
        <ele>337.8</ele>
        <time>2022-06-26T08:07:53Z</time>
      </trkpt>
      <trkpt lat="45.91219" lon="4.49931">
        <ele>337.8</ele>
        <time>2022-06-26T08:07:54Z</time>
      </trkpt>
      <trkpt lat="45.91222" lon="4.49927">
        <ele>337.8</ele>
        <time>2022-06-26T08:07:55Z</time>
      </trkpt>
      <trkpt lat="45.91225" lon="4.49923">
        <ele>338.2</ele>
        <time>2022-06-26T08:07:56Z</time>
      </trkpt>
      <trkpt lat="45.91228" lon="4.4992">
        <ele>338.2</ele>
        <time>2022-06-26T08:07:57Z</time>
      </trkpt>
      <trkpt lat="45.9123" lon="4.49917">
        <ele>338.2</ele>
        <time>2022-06-26T08:07:58Z</time>
      </trkpt>
      <trkpt lat="45.91233" lon="4.49916">
        <ele>338.2</ele>
        <time>2022-06-26T08:07:59Z</time>
      </trkpt>
      <trkpt lat="45.91236" lon="4.49915">
        <ele>338.2</ele>
        <time>2022-06-26T08:08:00Z</time>
      </trkpt>
      <trkpt lat="45.91239" lon="4.49915">
        <ele>338.4</ele>
        <time>2022-06-26T08:08:01Z</time>
      </trkpt>
      <trkpt lat="45.91242" lon="4.49915">
        <ele>338.4</ele>
        <time>2022-06-26T08:08:02Z</time>
      </trkpt>
      <trkpt lat="45.91243" lon="4.49915">
        <ele>338.4</ele>
        <time>2022-06-26T08:08:03Z</time>
      </trkpt>
      <trkpt lat="45.91244" lon="4.49914">
        <ele>338.4</ele>
        <time>2022-06-26T08:08:04Z</time>
      </trkpt>
      <trkpt lat="45.91252" lon="4.49909">
        <ele>339</ele>
        <time>2022-06-26T08:08:14Z</time>
      </trkpt>
      <trkpt lat="45.91253" lon="4.49908">
        <ele>339</ele>
        <time>2022-06-26T08:08:15Z</time>
      </trkpt>
      <trkpt lat="45.91253" lon="4.49907">
        <ele>339</ele>
        <time>2022-06-26T08:08:16Z</time>
      </trkpt>
      <trkpt lat="45.91254" lon="4.49906">
        <ele>339.2</ele>
        <time>2022-06-26T08:08:17Z</time>
      </trkpt>
      <trkpt lat="45.91255" lon="4.49905">
        <ele>339.2</ele>
        <time>2022-06-26T08:08:18Z</time>
      </trkpt>
      <trkpt lat="45.91255" lon="4.49904">
        <ele>339.4</ele>
        <time>2022-06-26T08:08:19Z</time>
      </trkpt>
      <trkpt lat="45.91255" lon="4.49903">
        <ele>339.4</ele>
        <time>2022-06-26T08:08:20Z</time>
      </trkpt>
      <trkpt lat="45.91257" lon="4.499">
        <ele>340</ele>
        <time>2022-06-26T08:08:23Z</time>
      </trkpt>
      <trkpt lat="45.91258" lon="4.49899">
        <ele>340.2</ele>
        <time>2022-06-26T08:08:24Z</time>
      </trkpt>
      <trkpt lat="45.9126" lon="4.49897">
        <ele>340.8</ele>
        <time>2022-06-26T08:08:28Z</time>
      </trkpt>
      <trkpt lat="45.91261" lon="4.49896">
        <ele>341.2</ele>
        <time>2022-06-26T08:08:29Z</time>
      </trkpt>
      <trkpt lat="45.91262" lon="4.49895">
        <ele>341.2</ele>
        <time>2022-06-26T08:08:30Z</time>
      </trkpt>
      <trkpt lat="45.91258" lon="4.49897">
        <ele>337.2</ele>
        <time>2022-06-26T08:18:17Z</time>
      </trkpt>
      <trkpt lat="45.91256" lon="4.49899">
        <ele>337</ele>
        <time>2022-06-26T08:18:18Z</time>
      </trkpt>
      <trkpt lat="45.91255" lon="4.499">
        <ele>337</ele>
        <time>2022-06-26T08:18:19Z</time>
      </trkpt>
      <trkpt lat="45.91255" lon="4.49901">
        <ele>336.8</ele>
        <time>2022-06-26T08:18:20Z</time>
      </trkpt>
      <trkpt lat="45.91254" lon="4.49902">
        <ele>336.8</ele>
        <time>2022-06-26T08:18:21Z</time>
      </trkpt>
      <trkpt lat="45.91254" lon="4.49903">
        <ele>336.4</ele>
        <time>2022-06-26T08:18:22Z</time>
      </trkpt>
      <trkpt lat="45.91253" lon="4.49904">
        <ele>336.4</ele>
        <time>2022-06-26T08:18:23Z</time>
      </trkpt>
      <trkpt lat="45.91251" lon="4.49907">
        <ele>335.8</ele>
        <time>2022-06-26T08:18:26Z</time>
      </trkpt>
      <trkpt lat="45.9125" lon="4.49908">
        <ele>335.8</ele>
        <time>2022-06-26T08:18:27Z</time>
      </trkpt>
      <trkpt lat="45.91249" lon="4.49909">
        <ele>335.4</ele>
        <time>2022-06-26T08:18:28Z</time>
      </trkpt>
      <trkpt lat="45.91248" lon="4.4991">
        <ele>335.4</ele>
        <time>2022-06-26T08:18:29Z</time>
      </trkpt>
      <trkpt lat="45.91247" lon="4.49911">
        <ele>335</ele>
        <time>2022-06-26T08:18:30Z</time>
      </trkpt>
      <trkpt lat="45.91246" lon="4.49911">
        <ele>335</ele>
        <time>2022-06-26T08:18:31Z</time>
      </trkpt>
      <trkpt lat="45.91245" lon="4.49911">
        <ele>334.8</ele>
        <time>2022-06-26T08:18:32Z</time>
      </trkpt>
      <trkpt lat="45.91244" lon="4.4991">
        <ele>334.8</ele>
        <time>2022-06-26T08:18:33Z</time>
      </trkpt>
      <trkpt lat="45.91245" lon="4.49903">
        <ele>334.6</ele>
        <time>2022-06-26T08:18:48Z</time>
      </trkpt>
      <trkpt lat="45.91245" lon="4.49901">
        <ele>334.6</ele>
        <time>2022-06-26T08:18:49Z</time>
      </trkpt>
      <trkpt lat="45.91245" lon="4.49898">
        <ele>334.6</ele>
        <time>2022-06-26T08:18:50Z</time>
      </trkpt>
      <trkpt lat="45.91245" lon="4.49895">
        <ele>334.6</ele>
        <time>2022-06-26T08:18:51Z</time>
      </trkpt>
      <trkpt lat="45.91246" lon="4.49892">
        <ele>334.6</ele>
        <time>2022-06-26T08:18:52Z</time>
      </trkpt>
      <trkpt lat="45.91247" lon="4.49889">
        <ele>334.6</ele>
        <time>2022-06-26T08:18:53Z</time>
      </trkpt>
      <trkpt lat="45.91249" lon="4.49885">
        <ele>334.6</ele>
        <time>2022-06-26T08:18:54Z</time>
      </trkpt>
      <trkpt lat="45.91251" lon="4.49882">
        <ele>334.6</ele>
        <time>2022-06-26T08:18:55Z</time>
      </trkpt>
      <trkpt lat="45.91253" lon="4.49878">
        <ele>334.6</ele>
        <time>2022-06-26T08:18:56Z</time>
      </trkpt>
      <trkpt lat="45.91254" lon="4.49874">
        <ele>334.6</ele>
        <time>2022-06-26T08:18:57Z</time>
      </trkpt>
      <trkpt lat="45.91256" lon="4.4987">
        <ele>334.6</ele>
        <time>2022-06-26T08:18:58Z</time>
      </trkpt>
      <trkpt lat="45.91258" lon="4.49866">
        <ele>334.6</ele>
        <time>2022-06-26T08:18:59Z</time>
      </trkpt>
      <trkpt lat="45.91259" lon="4.49861">
        <ele>334.6</ele>
        <time>2022-06-26T08:19:00Z</time>
      </trkpt>
      <trkpt lat="45.91261" lon="4.49857">
        <ele>334.8</ele>
        <time>2022-06-26T08:19:01Z</time>
      </trkpt>
      <trkpt lat="45.91263" lon="4.49852">
        <ele>334.8</ele>
        <time>2022-06-26T08:19:02Z</time>
      </trkpt>
      <trkpt lat="45.91265" lon="4.49846">
        <ele>334.8</ele>
        <time>2022-06-26T08:19:03Z</time>
      </trkpt>
      <trkpt lat="45.91267" lon="4.49841">
        <ele>335.2</ele>
        <time>2022-06-26T08:19:04Z</time>
      </trkpt>
      <trkpt lat="45.91268" lon="4.49835">
        <ele>335.2</ele>
        <time>2022-06-26T08:19:05Z</time>
      </trkpt>
      <trkpt lat="45.9127" lon="4.4983">
        <ele>335.2</ele>
        <time>2022-06-26T08:19:06Z</time>
      </trkpt>
      <trkpt lat="45.91271" lon="4.49824">
        <ele>335.2</ele>
        <time>2022-06-26T08:19:07Z</time>
      </trkpt>
      <trkpt lat="45.91273" lon="4.49819">
        <ele>335.2</ele>
        <time>2022-06-26T08:19:08Z</time>
      </trkpt>
      <trkpt lat="45.91274" lon="4.49813">
        <ele>335.6</ele>
        <time>2022-06-26T08:19:09Z</time>
      </trkpt>
      <trkpt lat="45.91275" lon="4.49807">
        <ele>335.6</ele>
        <time>2022-06-26T08:19:10Z</time>
      </trkpt>
      <trkpt lat="45.91277" lon="4.49801">
        <ele>335.8</ele>
        <time>2022-06-26T08:19:11Z</time>
      </trkpt>
      <trkpt lat="45.91278" lon="4.49794">
        <ele>335.8</ele>
        <time>2022-06-26T08:19:12Z</time>
      </trkpt>
      <trkpt lat="45.91279" lon="4.49788">
        <ele>336.2</ele>
        <time>2022-06-26T08:19:13Z</time>
      </trkpt>
      <trkpt lat="45.9128" lon="4.49782">
        <ele>336.2</ele>
        <time>2022-06-26T08:19:14Z</time>
      </trkpt>
      <trkpt lat="45.91282" lon="4.49776">
        <ele>336.2</ele>
        <time>2022-06-26T08:19:15Z</time>
      </trkpt>
      <trkpt lat="45.91283" lon="4.49769">
        <ele>336.4</ele>
        <time>2022-06-26T08:19:16Z</time>
      </trkpt>
      <trkpt lat="45.91285" lon="4.49763">
        <ele>336.4</ele>
        <time>2022-06-26T08:19:17Z</time>
      </trkpt>
      <trkpt lat="45.91286" lon="4.49757">
        <ele>336.4</ele>
        <time>2022-06-26T08:19:18Z</time>
      </trkpt>
      <trkpt lat="45.91288" lon="4.4975">
        <ele>336.6</ele>
        <time>2022-06-26T08:19:19Z</time>
      </trkpt>
      <trkpt lat="45.9129" lon="4.49744">
        <ele>336.6</ele>
        <time>2022-06-26T08:19:20Z</time>
      </trkpt>
      <trkpt lat="45.91291" lon="4.49737">
        <ele>336.8</ele>
        <time>2022-06-26T08:19:21Z</time>
      </trkpt>
      <trkpt lat="45.91293" lon="4.4973">
        <ele>336.8</ele>
        <time>2022-06-26T08:19:22Z</time>
      </trkpt>
      <trkpt lat="45.91295" lon="4.49723">
        <ele>337</ele>
        <time>2022-06-26T08:19:23Z</time>
      </trkpt>
      <trkpt lat="45.91297" lon="4.49717">
        <ele>337</ele>
        <time>2022-06-26T08:19:24Z</time>
      </trkpt>
      <trkpt lat="45.913" lon="4.4971">
        <ele>337.2</ele>
        <time>2022-06-26T08:19:25Z</time>
      </trkpt>
      <trkpt lat="45.91302" lon="4.49704">
        <ele>337.2</ele>
        <time>2022-06-26T08:19:26Z</time>
      </trkpt>
      <trkpt lat="45.91304" lon="4.49697">
        <ele>337.6</ele>
        <time>2022-06-26T08:19:27Z</time>
      </trkpt>
      <trkpt lat="45.91307" lon="4.49691">
        <ele>337.6</ele>
        <time>2022-06-26T08:19:28Z</time>
      </trkpt>
      <trkpt lat="45.91309" lon="4.49685">
        <ele>337.8</ele>
        <time>2022-06-26T08:19:29Z</time>
      </trkpt>
      <trkpt lat="45.91312" lon="4.49679">
        <ele>337.8</ele>
        <time>2022-06-26T08:19:30Z</time>
      </trkpt>
      <trkpt lat="45.91315" lon="4.49673">
        <ele>337.8</ele>
        <time>2022-06-26T08:19:31Z</time>
      </trkpt>
      <trkpt lat="45.91317" lon="4.49667">
        <ele>337.8</ele>
        <time>2022-06-26T08:19:32Z</time>
      </trkpt>
      <trkpt lat="45.9132" lon="4.49661">
        <ele>338.2</ele>
        <time>2022-06-26T08:19:33Z</time>
      </trkpt>
      <trkpt lat="45.91323" lon="4.49655">
        <ele>338.2</ele>
        <time>2022-06-26T08:19:34Z</time>
      </trkpt>
      <trkpt lat="45.91326" lon="4.4965">
        <ele>338.6</ele>
        <time>2022-06-26T08:19:35Z</time>
      </trkpt>
      <trkpt lat="45.91329" lon="4.49644">
        <ele>338.6</ele>
        <time>2022-06-26T08:19:36Z</time>
      </trkpt>
      <trkpt lat="45.91333" lon="4.49638">
        <ele>338.8</ele>
        <time>2022-06-26T08:19:37Z</time>
      </trkpt>
      <trkpt lat="45.91336" lon="4.49633">
        <ele>338.8</ele>
        <time>2022-06-26T08:19:38Z</time>
      </trkpt>
      <trkpt lat="45.91339" lon="4.49627">
        <ele>338.8</ele>
        <time>2022-06-26T08:19:39Z</time>
      </trkpt>
      <trkpt lat="45.91343" lon="4.49622">
        <ele>339</ele>
        <time>2022-06-26T08:19:40Z</time>
      </trkpt>
      <trkpt lat="45.91346" lon="4.49617">
        <ele>339</ele>
        <time>2022-06-26T08:19:41Z</time>
      </trkpt>
      <trkpt lat="45.9135" lon="4.49612">
        <ele>339.2</ele>
        <time>2022-06-26T08:19:42Z</time>
      </trkpt>
      <trkpt lat="45.91353" lon="4.49607">
        <ele>339.2</ele>
        <time>2022-06-26T08:19:43Z</time>
      </trkpt>
      <trkpt lat="45.91357" lon="4.49603">
        <ele>339.4</ele>
        <time>2022-06-26T08:19:44Z</time>
      </trkpt>
      <trkpt lat="45.91361" lon="4.49598">
        <ele>339.4</ele>
        <time>2022-06-26T08:19:45Z</time>
      </trkpt>
      <trkpt lat="45.91365" lon="4.49594">
        <ele>339.8</ele>
        <time>2022-06-26T08:19:46Z</time>
      </trkpt>
      <trkpt lat="45.91368" lon="4.4959">
        <ele>339.8</ele>
        <time>2022-06-26T08:19:47Z</time>
      </trkpt>
      <trkpt lat="45.91372" lon="4.49585">
        <ele>340</ele>
        <time>2022-06-26T08:19:48Z</time>
      </trkpt>
      <trkpt lat="45.91376" lon="4.49581">
        <ele>340</ele>
        <time>2022-06-26T08:19:49Z</time>
      </trkpt>
      <trkpt lat="45.9138" lon="4.49577">
        <ele>340</ele>
        <time>2022-06-26T08:19:50Z</time>
      </trkpt>
      <trkpt lat="45.91384" lon="4.49573">
        <ele>340.2</ele>
        <time>2022-06-26T08:19:51Z</time>
      </trkpt>
      <trkpt lat="45.91388" lon="4.49568">
        <ele>340.6</ele>
        <time>2022-06-26T08:19:52Z</time>
      </trkpt>
      <trkpt lat="45.91392" lon="4.49564">
        <ele>340.6</ele>
        <time>2022-06-26T08:19:53Z</time>
      </trkpt>
      <trkpt lat="45.91396" lon="4.4956">
        <ele>340.8</ele>
        <time>2022-06-26T08:19:54Z</time>
      </trkpt>
      <trkpt lat="45.914" lon="4.49556">
        <ele>340.8</ele>
        <time>2022-06-26T08:19:55Z</time>
      </trkpt>
      <trkpt lat="45.91404" lon="4.49552">
        <ele>341</ele>
        <time>2022-06-26T08:19:56Z</time>
      </trkpt>
      <trkpt lat="45.91408" lon="4.49547">
        <ele>341</ele>
        <time>2022-06-26T08:19:57Z</time>
      </trkpt>
      <trkpt lat="45.91412" lon="4.49543">
        <ele>341</ele>
        <time>2022-06-26T08:19:58Z</time>
      </trkpt>
      <trkpt lat="45.91416" lon="4.49538">
        <ele>341</ele>
        <time>2022-06-26T08:19:59Z</time>
      </trkpt>
      <trkpt lat="45.9142" lon="4.49534">
        <ele>341.4</ele>
        <time>2022-06-26T08:20:00Z</time>
      </trkpt>
      <trkpt lat="45.91425" lon="4.49529">
        <ele>341.4</ele>
        <time>2022-06-26T08:20:01Z</time>
      </trkpt>
      <trkpt lat="45.91429" lon="4.49525">
        <ele>341.4</ele>
        <time>2022-06-26T08:20:02Z</time>
      </trkpt>
      <trkpt lat="45.91433" lon="4.49521">
        <ele>341.6</ele>
        <time>2022-06-26T08:20:03Z</time>
      </trkpt>
      <trkpt lat="45.91437" lon="4.49516">
        <ele>341.6</ele>
        <time>2022-06-26T08:20:04Z</time>
      </trkpt>
      <trkpt lat="45.91441" lon="4.49512">
        <ele>341.8</ele>
        <time>2022-06-26T08:20:05Z</time>
      </trkpt>
      <trkpt lat="45.91445" lon="4.49508">
        <ele>341.8</ele>
        <time>2022-06-26T08:20:06Z</time>
      </trkpt>
      <trkpt lat="45.91448" lon="4.49503">
        <ele>342.2</ele>
        <time>2022-06-26T08:20:07Z</time>
      </trkpt>
      <trkpt lat="45.91452" lon="4.49499">
        <ele>342.2</ele>
        <time>2022-06-26T08:20:08Z</time>
      </trkpt>
      <trkpt lat="45.91456" lon="4.49494">
        <ele>342.6</ele>
        <time>2022-06-26T08:20:09Z</time>
      </trkpt>
      <trkpt lat="45.9146" lon="4.49489">
        <ele>342.6</ele>
        <time>2022-06-26T08:20:10Z</time>
      </trkpt>
      <trkpt lat="45.91463" lon="4.49484">
        <ele>342.6</ele>
        <time>2022-06-26T08:20:11Z</time>
      </trkpt>
      <trkpt lat="45.91467" lon="4.49479">
        <ele>342.8</ele>
        <time>2022-06-26T08:20:12Z</time>
      </trkpt>
      <trkpt lat="45.91471" lon="4.49474">
        <ele>342.8</ele>
        <time>2022-06-26T08:20:13Z</time>
      </trkpt>
      <trkpt lat="45.91474" lon="4.49468">
        <ele>342.8</ele>
        <time>2022-06-26T08:20:14Z</time>
      </trkpt>
      <trkpt lat="45.91477" lon="4.49462">
        <ele>343</ele>
        <time>2022-06-26T08:20:15Z</time>
      </trkpt>
      <trkpt lat="45.91481" lon="4.49456">
        <ele>343</ele>
        <time>2022-06-26T08:20:16Z</time>
      </trkpt>
      <trkpt lat="45.91484" lon="4.4945">
        <ele>343</ele>
        <time>2022-06-26T08:20:17Z</time>
      </trkpt>
      <trkpt lat="45.91487" lon="4.49443">
        <ele>343.4</ele>
        <time>2022-06-26T08:20:18Z</time>
      </trkpt>
      <trkpt lat="45.9149" lon="4.49437">
        <ele>343.4</ele>
        <time>2022-06-26T08:20:19Z</time>
      </trkpt>
      <trkpt lat="45.91493" lon="4.4943">
        <ele>343.6</ele>
        <time>2022-06-26T08:20:20Z</time>
      </trkpt>
      <trkpt lat="45.91496" lon="4.49423">
        <ele>343.6</ele>
        <time>2022-06-26T08:20:21Z</time>
      </trkpt>
      <trkpt lat="45.91499" lon="4.49416">
        <ele>343.6</ele>
        <time>2022-06-26T08:20:22Z</time>
      </trkpt>
      <trkpt lat="45.91502" lon="4.49409">
        <ele>344</ele>
        <time>2022-06-26T08:20:23Z</time>
      </trkpt>
      <trkpt lat="45.91504" lon="4.49402">
        <ele>344</ele>
        <time>2022-06-26T08:20:24Z</time>
      </trkpt>
      <trkpt lat="45.91507" lon="4.49394">
        <ele>344</ele>
        <time>2022-06-26T08:20:25Z</time>
      </trkpt>
      <trkpt lat="45.91509" lon="4.49387">
        <ele>344</ele>
        <time>2022-06-26T08:20:26Z</time>
      </trkpt>
      <trkpt lat="45.91512" lon="4.49379">
        <ele>344</ele>
        <time>2022-06-26T08:20:27Z</time>
      </trkpt>
      <trkpt lat="45.91514" lon="4.49371">
        <ele>344</ele>
        <time>2022-06-26T08:20:28Z</time>
      </trkpt>
      <trkpt lat="45.91516" lon="4.49363">
        <ele>344</ele>
        <time>2022-06-26T08:20:29Z</time>
      </trkpt>
      <trkpt lat="45.91519" lon="4.49355">
        <ele>344</ele>
        <time>2022-06-26T08:20:30Z</time>
      </trkpt>
      <trkpt lat="45.91521" lon="4.49347">
        <ele>344</ele>
        <time>2022-06-26T08:20:31Z</time>
      </trkpt>
      <trkpt lat="45.91524" lon="4.49339">
        <ele>344</ele>
        <time>2022-06-26T08:20:32Z</time>
      </trkpt>
      <trkpt lat="45.91527" lon="4.4933">
        <ele>344</ele>
        <time>2022-06-26T08:20:33Z</time>
      </trkpt>
      <trkpt lat="45.9153" lon="4.49322">
        <ele>344</ele>
        <time>2022-06-26T08:20:34Z</time>
      </trkpt>
      <trkpt lat="45.91533" lon="4.49313">
        <ele>344</ele>
        <time>2022-06-26T08:20:35Z</time>
      </trkpt>
      <trkpt lat="45.91536" lon="4.49305">
        <ele>344</ele>
        <time>2022-06-26T08:20:36Z</time>
      </trkpt>
      <trkpt lat="45.91539" lon="4.49297">
        <ele>344</ele>
        <time>2022-06-26T08:20:37Z</time>
      </trkpt>
      <trkpt lat="45.91543" lon="4.4929">
        <ele>344</ele>
        <time>2022-06-26T08:20:38Z</time>
      </trkpt>
      <trkpt lat="45.91546" lon="4.49282">
        <ele>344</ele>
        <time>2022-06-26T08:20:39Z</time>
      </trkpt>
      <trkpt lat="45.9155" lon="4.49274">
        <ele>344</ele>
        <time>2022-06-26T08:20:40Z</time>
      </trkpt>
      <trkpt lat="45.91554" lon="4.49267">
        <ele>344</ele>
        <time>2022-06-26T08:20:41Z</time>
      </trkpt>
      <trkpt lat="45.91557" lon="4.49259">
        <ele>344</ele>
        <time>2022-06-26T08:20:42Z</time>
      </trkpt>
      <trkpt lat="45.91561" lon="4.49252">
        <ele>344</ele>
        <time>2022-06-26T08:20:43Z</time>
      </trkpt>
      <trkpt lat="45.91565" lon="4.49244">
        <ele>344</ele>
        <time>2022-06-26T08:20:44Z</time>
      </trkpt>
      <trkpt lat="45.91569" lon="4.49236">
        <ele>344</ele>
        <time>2022-06-26T08:20:45Z</time>
      </trkpt>
      <trkpt lat="45.91573" lon="4.49228">
        <ele>344</ele>
        <time>2022-06-26T08:20:46Z</time>
      </trkpt>
      <trkpt lat="45.91577" lon="4.49221">
        <ele>343.8</ele>
        <time>2022-06-26T08:20:47Z</time>
      </trkpt>
      <trkpt lat="45.9158" lon="4.49213">
        <ele>343.8</ele>
        <time>2022-06-26T08:20:48Z</time>
      </trkpt>
      <trkpt lat="45.91584" lon="4.49205">
        <ele>343.8</ele>
        <time>2022-06-26T08:20:49Z</time>
      </trkpt>
      <trkpt lat="45.91588" lon="4.49197">
        <ele>343.8</ele>
        <time>2022-06-26T08:20:50Z</time>
      </trkpt>
      <trkpt lat="45.91593" lon="4.49188">
        <ele>343.4</ele>
        <time>2022-06-26T08:20:51Z</time>
      </trkpt>
      <trkpt lat="45.91597" lon="4.4918">
        <ele>343.4</ele>
        <time>2022-06-26T08:20:52Z</time>
      </trkpt>
      <trkpt lat="45.91601" lon="4.49172">
        <ele>343.4</ele>
        <time>2022-06-26T08:20:53Z</time>
      </trkpt>
      <trkpt lat="45.91605" lon="4.49164">
        <ele>343.2</ele>
        <time>2022-06-26T08:20:54Z</time>
      </trkpt>
      <trkpt lat="45.9161" lon="4.49155">
        <ele>343.2</ele>
        <time>2022-06-26T08:20:55Z</time>
      </trkpt>
      <trkpt lat="45.91615" lon="4.49147">
        <ele>343</ele>
        <time>2022-06-26T08:20:56Z</time>
      </trkpt>
      <trkpt lat="45.9162" lon="4.4914">
        <ele>343</ele>
        <time>2022-06-26T08:20:57Z</time>
      </trkpt>
      <trkpt lat="45.91625" lon="4.49132">
        <ele>343</ele>
        <time>2022-06-26T08:20:58Z</time>
      </trkpt>
      <trkpt lat="45.9163" lon="4.49125">
        <ele>343</ele>
        <time>2022-06-26T08:20:59Z</time>
      </trkpt>
      <trkpt lat="45.91635" lon="4.49118">
        <ele>343</ele>
        <time>2022-06-26T08:21:00Z</time>
      </trkpt>
      <trkpt lat="45.91641" lon="4.49111">
        <ele>342.8</ele>
        <time>2022-06-26T08:21:01Z</time>
      </trkpt>
      <trkpt lat="45.91646" lon="4.49104">
        <ele>342.8</ele>
        <time>2022-06-26T08:21:02Z</time>
      </trkpt>
      <trkpt lat="45.91652" lon="4.49098">
        <ele>342.8</ele>
        <time>2022-06-26T08:21:03Z</time>
      </trkpt>
      <trkpt lat="45.91657" lon="4.49092">
        <ele>342.6</ele>
        <time>2022-06-26T08:21:04Z</time>
      </trkpt>
      <trkpt lat="45.91662" lon="4.49086">
        <ele>342.6</ele>
        <time>2022-06-26T08:21:05Z</time>
      </trkpt>
      <trkpt lat="45.91668" lon="4.4908">
        <ele>342.6</ele>
        <time>2022-06-26T08:21:06Z</time>
      </trkpt>
      <trkpt lat="45.91674" lon="4.49075">
        <ele>342.6</ele>
        <time>2022-06-26T08:21:07Z</time>
      </trkpt>
      <trkpt lat="45.91679" lon="4.4907">
        <ele>342.6</ele>
        <time>2022-06-26T08:21:08Z</time>
      </trkpt>
      <trkpt lat="45.91685" lon="4.49066">
        <ele>342.6</ele>
        <time>2022-06-26T08:21:09Z</time>
      </trkpt>
      <trkpt lat="45.91691" lon="4.49061">
        <ele>342.6</ele>
        <time>2022-06-26T08:21:10Z</time>
      </trkpt>
      <trkpt lat="45.91697" lon="4.49056">
        <ele>342.6</ele>
        <time>2022-06-26T08:21:11Z</time>
      </trkpt>
      <trkpt lat="45.91703" lon="4.49052">
        <ele>342.6</ele>
        <time>2022-06-26T08:21:12Z</time>
      </trkpt>
      <trkpt lat="45.91709" lon="4.49047">
        <ele>342.6</ele>
        <time>2022-06-26T08:21:13Z</time>
      </trkpt>
      <trkpt lat="45.91715" lon="4.49043">
        <ele>342.4</ele>
        <time>2022-06-26T08:21:14Z</time>
      </trkpt>
      <trkpt lat="45.91721" lon="4.49038">
        <ele>342.4</ele>
        <time>2022-06-26T08:21:15Z</time>
      </trkpt>
      <trkpt lat="45.91727" lon="4.49034">
        <ele>342.4</ele>
        <time>2022-06-26T08:21:16Z</time>
      </trkpt>
      <trkpt lat="45.91733" lon="4.49028">
        <ele>342.2</ele>
        <time>2022-06-26T08:21:17Z</time>
      </trkpt>
      <trkpt lat="45.91739" lon="4.49022">
        <ele>342.2</ele>
        <time>2022-06-26T08:21:18Z</time>
      </trkpt>
      <trkpt lat="45.91744" lon="4.49016">
        <ele>342.2</ele>
        <time>2022-06-26T08:21:19Z</time>
      </trkpt>
      <trkpt lat="45.9175" lon="4.4901">
        <ele>342</ele>
        <time>2022-06-26T08:21:20Z</time>
      </trkpt>
      <trkpt lat="45.91755" lon="4.49003">
        <ele>342</ele>
        <time>2022-06-26T08:21:21Z</time>
      </trkpt>
      <trkpt lat="45.9176" lon="4.48995">
        <ele>342</ele>
        <time>2022-06-26T08:21:22Z</time>
      </trkpt>
      <trkpt lat="45.91765" lon="4.48987">
        <ele>341.8</ele>
        <time>2022-06-26T08:21:23Z</time>
      </trkpt>
      <trkpt lat="45.91769" lon="4.48979">
        <ele>341.8</ele>
        <time>2022-06-26T08:21:24Z</time>
      </trkpt>
      <trkpt lat="45.91774" lon="4.4897">
        <ele>341.8</ele>
        <time>2022-06-26T08:21:25Z</time>
      </trkpt>
      <trkpt lat="45.91778" lon="4.48962">
        <ele>341.8</ele>
        <time>2022-06-26T08:21:26Z</time>
      </trkpt>
      <trkpt lat="45.91782" lon="4.48955">
        <ele>341.8</ele>
        <time>2022-06-26T08:21:27Z</time>
      </trkpt>
      <trkpt lat="45.91786" lon="4.48947">
        <ele>341.8</ele>
        <time>2022-06-26T08:21:28Z</time>
      </trkpt>
      <trkpt lat="45.9179" lon="4.4894">
        <ele>341.8</ele>
        <time>2022-06-26T08:21:29Z</time>
      </trkpt>
      <trkpt lat="45.91793" lon="4.48932">
        <ele>341.8</ele>
        <time>2022-06-26T08:21:30Z</time>
      </trkpt>
      <trkpt lat="45.91796" lon="4.48924">
        <ele>341.8</ele>
        <time>2022-06-26T08:21:31Z</time>
      </trkpt>
      <trkpt lat="45.91798" lon="4.48916">
        <ele>342</ele>
        <time>2022-06-26T08:21:32Z</time>
      </trkpt>
      <trkpt lat="45.91801" lon="4.48909">
        <ele>342</ele>
        <time>2022-06-26T08:21:33Z</time>
      </trkpt>
      <trkpt lat="45.91803" lon="4.48901">
        <ele>342.2</ele>
        <time>2022-06-26T08:21:34Z</time>
      </trkpt>
      <trkpt lat="45.91806" lon="4.48894">
        <ele>342.2</ele>
        <time>2022-06-26T08:21:35Z</time>
      </trkpt>
      <trkpt lat="45.91808" lon="4.48887">
        <ele>342.6</ele>
        <time>2022-06-26T08:21:36Z</time>
      </trkpt>
      <trkpt lat="45.9181" lon="4.4888">
        <ele>342.8</ele>
        <time>2022-06-26T08:21:37Z</time>
      </trkpt>
      <trkpt lat="45.91812" lon="4.48873">
        <ele>342.8</ele>
        <time>2022-06-26T08:21:38Z</time>
      </trkpt>
      <trkpt lat="45.91814" lon="4.48866">
        <ele>343.2</ele>
        <time>2022-06-26T08:21:39Z</time>
      </trkpt>
      <trkpt lat="45.91816" lon="4.48859">
        <ele>343.4</ele>
        <time>2022-06-26T08:21:40Z</time>
      </trkpt>
      <trkpt lat="45.91818" lon="4.48852">
        <ele>343.6</ele>
        <time>2022-06-26T08:21:41Z</time>
      </trkpt>
      <trkpt lat="45.9182" lon="4.48845">
        <ele>344</ele>
        <time>2022-06-26T08:21:42Z</time>
      </trkpt>
      <trkpt lat="45.91821" lon="4.48838">
        <ele>344</ele>
        <time>2022-06-26T08:21:43Z</time>
      </trkpt>
      <trkpt lat="45.91823" lon="4.48831">
        <ele>344.2</ele>
        <time>2022-06-26T08:21:44Z</time>
      </trkpt>
      <trkpt lat="45.91825" lon="4.48824">
        <ele>344.2</ele>
        <time>2022-06-26T08:21:45Z</time>
      </trkpt>
      <trkpt lat="45.91827" lon="4.48817">
        <ele>344.4</ele>
        <time>2022-06-26T08:21:46Z</time>
      </trkpt>
      <trkpt lat="45.91828" lon="4.4881">
        <ele>344.6</ele>
        <time>2022-06-26T08:21:47Z</time>
      </trkpt>
      <trkpt lat="45.9183" lon="4.48803">
        <ele>344.6</ele>
        <time>2022-06-26T08:21:48Z</time>
      </trkpt>
      <trkpt lat="45.91832" lon="4.48796">
        <ele>345</ele>
        <time>2022-06-26T08:21:49Z</time>
      </trkpt>
      <trkpt lat="45.91834" lon="4.48789">
        <ele>345.4</ele>
        <time>2022-06-26T08:21:50Z</time>
      </trkpt>
      <trkpt lat="45.91835" lon="4.48782">
        <ele>345.4</ele>
        <time>2022-06-26T08:21:51Z</time>
      </trkpt>
      <trkpt lat="45.91837" lon="4.48775">
        <ele>345.6</ele>
        <time>2022-06-26T08:21:52Z</time>
      </trkpt>
      <trkpt lat="45.91839" lon="4.48768">
        <ele>345.6</ele>
        <time>2022-06-26T08:21:53Z</time>
      </trkpt>
      <trkpt lat="45.9184" lon="4.48761">
        <ele>345.6</ele>
        <time>2022-06-26T08:21:54Z</time>
      </trkpt>
      <trkpt lat="45.91842" lon="4.48754">
        <ele>346</ele>
        <time>2022-06-26T08:21:55Z</time>
      </trkpt>
      <trkpt lat="45.91844" lon="4.48747">
        <ele>346</ele>
        <time>2022-06-26T08:21:56Z</time>
      </trkpt>
      <trkpt lat="45.91846" lon="4.4874">
        <ele>346</ele>
        <time>2022-06-26T08:21:57Z</time>
      </trkpt>
      <trkpt lat="45.91847" lon="4.48733">
        <ele>346.2</ele>
        <time>2022-06-26T08:21:58Z</time>
      </trkpt>
      <trkpt lat="45.91849" lon="4.48726">
        <ele>346.2</ele>
        <time>2022-06-26T08:21:59Z</time>
      </trkpt>
      <trkpt lat="45.91851" lon="4.48719">
        <ele>346.2</ele>
        <time>2022-06-26T08:22:00Z</time>
      </trkpt>
      <trkpt lat="45.91853" lon="4.48712">
        <ele>346.4</ele>
        <time>2022-06-26T08:22:01Z</time>
      </trkpt>
      <trkpt lat="45.91854" lon="4.48705">
        <ele>346.4</ele>
        <time>2022-06-26T08:22:02Z</time>
      </trkpt>
      <trkpt lat="45.91856" lon="4.48697">
        <ele>346.6</ele>
        <time>2022-06-26T08:22:03Z</time>
      </trkpt>
      <trkpt lat="45.91859" lon="4.4869">
        <ele>346.6</ele>
        <time>2022-06-26T08:22:04Z</time>
      </trkpt>
      <trkpt lat="45.91861" lon="4.48684">
        <ele>346.6</ele>
        <time>2022-06-26T08:22:05Z</time>
      </trkpt>
      <trkpt lat="45.91863" lon="4.48677">
        <ele>346.6</ele>
        <time>2022-06-26T08:22:06Z</time>
      </trkpt>
      <trkpt lat="45.91866" lon="4.4867">
        <ele>346.6</ele>
        <time>2022-06-26T08:22:07Z</time>
      </trkpt>
      <trkpt lat="45.91869" lon="4.48663">
        <ele>346.6</ele>
        <time>2022-06-26T08:22:08Z</time>
      </trkpt>
      <trkpt lat="45.91872" lon="4.48656">
        <ele>346.8</ele>
        <time>2022-06-26T08:22:09Z</time>
      </trkpt>
      <trkpt lat="45.91875" lon="4.4865">
        <ele>346.8</ele>
        <time>2022-06-26T08:22:10Z</time>
      </trkpt>
      <trkpt lat="45.91878" lon="4.48643">
        <ele>346.8</ele>
        <time>2022-06-26T08:22:11Z</time>
      </trkpt>
      <trkpt lat="45.91881" lon="4.48637">
        <ele>346.8</ele>
        <time>2022-06-26T08:22:12Z</time>
      </trkpt>
      <trkpt lat="45.91885" lon="4.48631">
        <ele>346.8</ele>
        <time>2022-06-26T08:22:13Z</time>
      </trkpt>
      <trkpt lat="45.91888" lon="4.48626">
        <ele>346.8</ele>
        <time>2022-06-26T08:22:14Z</time>
      </trkpt>
      <trkpt lat="45.91892" lon="4.4862">
        <ele>347.2</ele>
        <time>2022-06-26T08:22:15Z</time>
      </trkpt>
      <trkpt lat="45.91896" lon="4.48615">
        <ele>347.2</ele>
        <time>2022-06-26T08:22:16Z</time>
      </trkpt>
      <trkpt lat="45.919" lon="4.48609">
        <ele>347.2</ele>
        <time>2022-06-26T08:22:17Z</time>
      </trkpt>
      <trkpt lat="45.91903" lon="4.48604">
        <ele>347.2</ele>
        <time>2022-06-26T08:22:18Z</time>
      </trkpt>
      <trkpt lat="45.91907" lon="4.48599">
        <ele>347.2</ele>
        <time>2022-06-26T08:22:19Z</time>
      </trkpt>
      <trkpt lat="45.91911" lon="4.48593">
        <ele>347.2</ele>
        <time>2022-06-26T08:22:20Z</time>
      </trkpt>
      <trkpt lat="45.91915" lon="4.48588">
        <ele>347.2</ele>
        <time>2022-06-26T08:22:21Z</time>
      </trkpt>
      <trkpt lat="45.91919" lon="4.48582">
        <ele>347.4</ele>
        <time>2022-06-26T08:22:22Z</time>
      </trkpt>
      <trkpt lat="45.91922" lon="4.48577">
        <ele>347.4</ele>
        <time>2022-06-26T08:22:23Z</time>
      </trkpt>
      <trkpt lat="45.91926" lon="4.48571">
        <ele>347.6</ele>
        <time>2022-06-26T08:22:24Z</time>
      </trkpt>
      <trkpt lat="45.9193" lon="4.48566">
        <ele>347.6</ele>
        <time>2022-06-26T08:22:25Z</time>
      </trkpt>
      <trkpt lat="45.91933" lon="4.4856">
        <ele>347.6</ele>
        <time>2022-06-26T08:22:26Z</time>
      </trkpt>
      <trkpt lat="45.91937" lon="4.48554">
        <ele>347.6</ele>
        <time>2022-06-26T08:22:27Z</time>
      </trkpt>
      <trkpt lat="45.91941" lon="4.48548">
        <ele>347.6</ele>
        <time>2022-06-26T08:22:28Z</time>
      </trkpt>
      <trkpt lat="45.91944" lon="4.48542">
        <ele>347.6</ele>
        <time>2022-06-26T08:22:29Z</time>
      </trkpt>
      <trkpt lat="45.91948" lon="4.48536">
        <ele>347.6</ele>
        <time>2022-06-26T08:22:30Z</time>
      </trkpt>
      <trkpt lat="45.91951" lon="4.4853">
        <ele>347.6</ele>
        <time>2022-06-26T08:22:31Z</time>
      </trkpt>
      <trkpt lat="45.91955" lon="4.48524">
        <ele>347.6</ele>
        <time>2022-06-26T08:22:32Z</time>
      </trkpt>
      <trkpt lat="45.91958" lon="4.48518">
        <ele>347.6</ele>
        <time>2022-06-26T08:22:33Z</time>
      </trkpt>
      <trkpt lat="45.91961" lon="4.48512">
        <ele>347.8</ele>
        <time>2022-06-26T08:22:34Z</time>
      </trkpt>
      <trkpt lat="45.91964" lon="4.48506">
        <ele>347.8</ele>
        <time>2022-06-26T08:22:35Z</time>
      </trkpt>
      <trkpt lat="45.91968" lon="4.485">
        <ele>347.8</ele>
        <time>2022-06-26T08:22:36Z</time>
      </trkpt>
      <trkpt lat="45.91971" lon="4.48493">
        <ele>347.8</ele>
        <time>2022-06-26T08:22:37Z</time>
      </trkpt>
      <trkpt lat="45.91974" lon="4.48487">
        <ele>347.8</ele>
        <time>2022-06-26T08:22:38Z</time>
      </trkpt>
      <trkpt lat="45.91978" lon="4.4848">
        <ele>348.2</ele>
        <time>2022-06-26T08:22:39Z</time>
      </trkpt>
      <trkpt lat="45.91981" lon="4.48474">
        <ele>348.2</ele>
        <time>2022-06-26T08:22:40Z</time>
      </trkpt>
      <trkpt lat="45.91985" lon="4.48468">
        <ele>348.2</ele>
        <time>2022-06-26T08:22:41Z</time>
      </trkpt>
      <trkpt lat="45.91988" lon="4.48461">
        <ele>348.2</ele>
        <time>2022-06-26T08:22:42Z</time>
      </trkpt>
      <trkpt lat="45.91992" lon="4.48455">
        <ele>348.2</ele>
        <time>2022-06-26T08:22:43Z</time>
      </trkpt>
      <trkpt lat="45.91995" lon="4.48449">
        <ele>348.2</ele>
        <time>2022-06-26T08:22:44Z</time>
      </trkpt>
      <trkpt lat="45.91998" lon="4.48442">
        <ele>348.2</ele>
        <time>2022-06-26T08:22:45Z</time>
      </trkpt>
      <trkpt lat="45.92002" lon="4.48436">
        <ele>348.4</ele>
        <time>2022-06-26T08:22:46Z</time>
      </trkpt>
      <trkpt lat="45.92005" lon="4.4843">
        <ele>348.4</ele>
        <time>2022-06-26T08:22:47Z</time>
      </trkpt>
      <trkpt lat="45.92008" lon="4.48423">
        <ele>348.4</ele>
        <time>2022-06-26T08:22:48Z</time>
      </trkpt>
      <trkpt lat="45.92011" lon="4.48417">
        <ele>348.4</ele>
        <time>2022-06-26T08:22:49Z</time>
      </trkpt>
      <trkpt lat="45.92015" lon="4.4841">
        <ele>348.4</ele>
        <time>2022-06-26T08:22:50Z</time>
      </trkpt>
      <trkpt lat="45.92018" lon="4.48404">
        <ele>348.4</ele>
        <time>2022-06-26T08:22:51Z</time>
      </trkpt>
      <trkpt lat="45.92021" lon="4.48398">
        <ele>348.4</ele>
        <time>2022-06-26T08:22:52Z</time>
      </trkpt>
      <trkpt lat="45.92025" lon="4.48391">
        <ele>348.6</ele>
        <time>2022-06-26T08:22:53Z</time>
      </trkpt>
      <trkpt lat="45.92028" lon="4.48385">
        <ele>348.6</ele>
        <time>2022-06-26T08:22:54Z</time>
      </trkpt>
      <trkpt lat="45.92031" lon="4.48379">
        <ele>348.6</ele>
        <time>2022-06-26T08:22:55Z</time>
      </trkpt>
      <trkpt lat="45.92035" lon="4.48373">
        <ele>348.6</ele>
        <time>2022-06-26T08:22:56Z</time>
      </trkpt>
      <trkpt lat="45.92038" lon="4.48367">
        <ele>348.6</ele>
        <time>2022-06-26T08:22:57Z</time>
      </trkpt>
      <trkpt lat="45.92041" lon="4.48361">
        <ele>348.6</ele>
        <time>2022-06-26T08:22:58Z</time>
      </trkpt>
      <trkpt lat="45.92044" lon="4.48355">
        <ele>348.6</ele>
        <time>2022-06-26T08:22:59Z</time>
      </trkpt>
      <trkpt lat="45.92048" lon="4.48349">
        <ele>348.6</ele>
        <time>2022-06-26T08:23:00Z</time>
      </trkpt>
      <trkpt lat="45.92051" lon="4.48342">
        <ele>348.6</ele>
        <time>2022-06-26T08:23:01Z</time>
      </trkpt>
      <trkpt lat="45.92054" lon="4.48336">
        <ele>348.6</ele>
        <time>2022-06-26T08:23:02Z</time>
      </trkpt>
      <trkpt lat="45.92057" lon="4.4833">
        <ele>348.8</ele>
        <time>2022-06-26T08:23:03Z</time>
      </trkpt>
      <trkpt lat="45.92061" lon="4.48324">
        <ele>348.8</ele>
        <time>2022-06-26T08:23:04Z</time>
      </trkpt>
      <trkpt lat="45.92064" lon="4.48318">
        <ele>348.8</ele>
        <time>2022-06-26T08:23:05Z</time>
      </trkpt>
      <trkpt lat="45.92067" lon="4.48312">
        <ele>348.8</ele>
        <time>2022-06-26T08:23:06Z</time>
      </trkpt>
      <trkpt lat="45.9207" lon="4.48306">
        <ele>349.2</ele>
        <time>2022-06-26T08:23:07Z</time>
      </trkpt>
      <trkpt lat="45.92074" lon="4.483">
        <ele>349.2</ele>
        <time>2022-06-26T08:23:08Z</time>
      </trkpt>
      <trkpt lat="45.92077" lon="4.48293">
        <ele>349.2</ele>
        <time>2022-06-26T08:23:09Z</time>
      </trkpt>
      <trkpt lat="45.9208" lon="4.48287">
        <ele>349.2</ele>
        <time>2022-06-26T08:23:10Z</time>
      </trkpt>
      <trkpt lat="45.92084" lon="4.48281">
        <ele>349.4</ele>
        <time>2022-06-26T08:23:11Z</time>
      </trkpt>
      <trkpt lat="45.92087" lon="4.48274">
        <ele>349.4</ele>
        <time>2022-06-26T08:23:12Z</time>
      </trkpt>
      <trkpt lat="45.9209" lon="4.48268">
        <ele>349.4</ele>
        <time>2022-06-26T08:23:13Z</time>
      </trkpt>
      <trkpt lat="45.92094" lon="4.48262">
        <ele>349.4</ele>
        <time>2022-06-26T08:23:14Z</time>
      </trkpt>
      <trkpt lat="45.92097" lon="4.48256">
        <ele>349.4</ele>
        <time>2022-06-26T08:23:15Z</time>
      </trkpt>
      <trkpt lat="45.92101" lon="4.48249">
        <ele>349.6</ele>
        <time>2022-06-26T08:23:16Z</time>
      </trkpt>
      <trkpt lat="45.92104" lon="4.48243">
        <ele>349.6</ele>
        <time>2022-06-26T08:23:17Z</time>
      </trkpt>
      <trkpt lat="45.92107" lon="4.48237">
        <ele>349.6</ele>
        <time>2022-06-26T08:23:18Z</time>
      </trkpt>
      <trkpt lat="45.92111" lon="4.4823">
        <ele>349.6</ele>
        <time>2022-06-26T08:23:19Z</time>
      </trkpt>
      <trkpt lat="45.92114" lon="4.48224">
        <ele>349.8</ele>
        <time>2022-06-26T08:23:20Z</time>
      </trkpt>
      <trkpt lat="45.92117" lon="4.48217">
        <ele>349.8</ele>
        <time>2022-06-26T08:23:21Z</time>
      </trkpt>
      <trkpt lat="45.92121" lon="4.48211">
        <ele>349.8</ele>
        <time>2022-06-26T08:23:22Z</time>
      </trkpt>
      <trkpt lat="45.92124" lon="4.48205">
        <ele>349.8</ele>
        <time>2022-06-26T08:23:23Z</time>
      </trkpt>
      <trkpt lat="45.92128" lon="4.48199">
        <ele>349.8</ele>
        <time>2022-06-26T08:23:24Z</time>
      </trkpt>
      <trkpt lat="45.92131" lon="4.48192">
        <ele>349.8</ele>
        <time>2022-06-26T08:23:25Z</time>
      </trkpt>
      <trkpt lat="45.92134" lon="4.48185">
        <ele>349.8</ele>
        <time>2022-06-26T08:23:26Z</time>
      </trkpt>
      <trkpt lat="45.92138" lon="4.48179">
        <ele>350</ele>
        <time>2022-06-26T08:23:27Z</time>
      </trkpt>
      <trkpt lat="45.92141" lon="4.48172">
        <ele>350</ele>
        <time>2022-06-26T08:23:28Z</time>
      </trkpt>
      <trkpt lat="45.92145" lon="4.48166">
        <ele>350</ele>
        <time>2022-06-26T08:23:29Z</time>
      </trkpt>
      <trkpt lat="45.92148" lon="4.48159">
        <ele>350</ele>
        <time>2022-06-26T08:23:30Z</time>
      </trkpt>
      <trkpt lat="45.92152" lon="4.48153">
        <ele>350.4</ele>
        <time>2022-06-26T08:23:31Z</time>
      </trkpt>
      <trkpt lat="45.92155" lon="4.48146">
        <ele>350.4</ele>
        <time>2022-06-26T08:23:32Z</time>
      </trkpt>
      <trkpt lat="45.92159" lon="4.4814">
        <ele>350.4</ele>
        <time>2022-06-26T08:23:33Z</time>
      </trkpt>
      <trkpt lat="45.92162" lon="4.48133">
        <ele>350.4</ele>
        <time>2022-06-26T08:23:34Z</time>
      </trkpt>
      <trkpt lat="45.92166" lon="4.48127">
        <ele>350.6</ele>
        <time>2022-06-26T08:23:35Z</time>
      </trkpt>
      <trkpt lat="45.92169" lon="4.4812">
        <ele>350.6</ele>
        <time>2022-06-26T08:23:36Z</time>
      </trkpt>
      <trkpt lat="45.92173" lon="4.48114">
        <ele>350.6</ele>
        <time>2022-06-26T08:23:37Z</time>
      </trkpt>
      <trkpt lat="45.92176" lon="4.48107">
        <ele>350.8</ele>
        <time>2022-06-26T08:23:38Z</time>
      </trkpt>
      <trkpt lat="45.9218" lon="4.48101">
        <ele>350.8</ele>
        <time>2022-06-26T08:23:39Z</time>
      </trkpt>
      <trkpt lat="45.92183" lon="4.48094">
        <ele>350.8</ele>
        <time>2022-06-26T08:23:40Z</time>
      </trkpt>
      <trkpt lat="45.92187" lon="4.48088">
        <ele>350.8</ele>
        <time>2022-06-26T08:23:41Z</time>
      </trkpt>
      <trkpt lat="45.92191" lon="4.48081">
        <ele>350.8</ele>
        <time>2022-06-26T08:23:42Z</time>
      </trkpt>
      <trkpt lat="45.92194" lon="4.48075">
        <ele>350.8</ele>
        <time>2022-06-26T08:23:44Z</time>
      </trkpt>
      <trkpt lat="45.92197" lon="4.48068">
        <ele>351</ele>
        <time>2022-06-26T08:23:45Z</time>
      </trkpt>
      <trkpt lat="45.92201" lon="4.48061">
        <ele>351</ele>
        <time>2022-06-26T08:23:46Z</time>
      </trkpt>
      <trkpt lat="45.92204" lon="4.48055">
        <ele>351</ele>
        <time>2022-06-26T08:23:47Z</time>
      </trkpt>
      <trkpt lat="45.92208" lon="4.48048">
        <ele>351</ele>
        <time>2022-06-26T08:23:48Z</time>
      </trkpt>
      <trkpt lat="45.92211" lon="4.48041">
        <ele>351.2</ele>
        <time>2022-06-26T08:23:49Z</time>
      </trkpt>
      <trkpt lat="45.92218" lon="4.48028">
        <ele>351.2</ele>
        <time>2022-06-26T08:23:50Z</time>
      </trkpt>
      <trkpt lat="45.92221" lon="4.48022">
        <ele>351.6</ele>
        <time>2022-06-26T08:23:51Z</time>
      </trkpt>
      <trkpt lat="45.92225" lon="4.48015">
        <ele>351.6</ele>
        <time>2022-06-26T08:23:52Z</time>
      </trkpt>
      <trkpt lat="45.92229" lon="4.48009">
        <ele>351.6</ele>
        <time>2022-06-26T08:23:53Z</time>
      </trkpt>
      <trkpt lat="45.92232" lon="4.48002">
        <ele>351.8</ele>
        <time>2022-06-26T08:23:54Z</time>
      </trkpt>
      <trkpt lat="45.92236" lon="4.47996">
        <ele>351.8</ele>
        <time>2022-06-26T08:23:55Z</time>
      </trkpt>
      <trkpt lat="45.92239" lon="4.47989">
        <ele>352</ele>
        <time>2022-06-26T08:23:56Z</time>
      </trkpt>
      <trkpt lat="45.92242" lon="4.47983">
        <ele>352</ele>
        <time>2022-06-26T08:23:57Z</time>
      </trkpt>
      <trkpt lat="45.92246" lon="4.47976">
        <ele>352</ele>
        <time>2022-06-26T08:23:58Z</time>
      </trkpt>
      <trkpt lat="45.92249" lon="4.47969">
        <ele>352</ele>
        <time>2022-06-26T08:23:59Z</time>
      </trkpt>
      <trkpt lat="45.92252" lon="4.47962">
        <ele>352</ele>
        <time>2022-06-26T08:24:00Z</time>
      </trkpt>
      <trkpt lat="45.92255" lon="4.47955">
        <ele>352.2</ele>
        <time>2022-06-26T08:24:01Z</time>
      </trkpt>
      <trkpt lat="45.92258" lon="4.47948">
        <ele>352.2</ele>
        <time>2022-06-26T08:24:02Z</time>
      </trkpt>
      <trkpt lat="45.9226" lon="4.47942">
        <ele>352.2</ele>
        <time>2022-06-26T08:24:03Z</time>
      </trkpt>
      <trkpt lat="45.92263" lon="4.47935">
        <ele>352.4</ele>
        <time>2022-06-26T08:24:04Z</time>
      </trkpt>
      <trkpt lat="45.92266" lon="4.47927">
        <ele>352.4</ele>
        <time>2022-06-26T08:24:05Z</time>
      </trkpt>
      <trkpt lat="45.92268" lon="4.4792">
        <ele>352.4</ele>
        <time>2022-06-26T08:24:06Z</time>
      </trkpt>
      <trkpt lat="45.92271" lon="4.47913">
        <ele>352.4</ele>
        <time>2022-06-26T08:24:07Z</time>
      </trkpt>
      <trkpt lat="45.92273" lon="4.47905">
        <ele>352.4</ele>
        <time>2022-06-26T08:24:08Z</time>
      </trkpt>
      <trkpt lat="45.92275" lon="4.47898">
        <ele>352.6</ele>
        <time>2022-06-26T08:24:09Z</time>
      </trkpt>
      <trkpt lat="45.92276" lon="4.4789">
        <ele>352.6</ele>
        <time>2022-06-26T08:24:10Z</time>
      </trkpt>
      <trkpt lat="45.92278" lon="4.47883">
        <ele>352.6</ele>
        <time>2022-06-26T08:24:11Z</time>
      </trkpt>
      <trkpt lat="45.9228" lon="4.47875">
        <ele>352.6</ele>
        <time>2022-06-26T08:24:12Z</time>
      </trkpt>
      <trkpt lat="45.92281" lon="4.47868">
        <ele>352.6</ele>
        <time>2022-06-26T08:24:13Z</time>
      </trkpt>
      <trkpt lat="45.92282" lon="4.4786">
        <ele>352.6</ele>
        <time>2022-06-26T08:24:14Z</time>
      </trkpt>
      <trkpt lat="45.92284" lon="4.47852">
        <ele>352.6</ele>
        <time>2022-06-26T08:24:15Z</time>
      </trkpt>
      <trkpt lat="45.92285" lon="4.47844">
        <ele>353</ele>
        <time>2022-06-26T08:24:16Z</time>
      </trkpt>
      <trkpt lat="45.92285" lon="4.47836">
        <ele>353</ele>
        <time>2022-06-26T08:24:17Z</time>
      </trkpt>
      <trkpt lat="45.92286" lon="4.47828">
        <ele>353</ele>
        <time>2022-06-26T08:24:18Z</time>
      </trkpt>
      <trkpt lat="45.92287" lon="4.47819">
        <ele>353.2</ele>
        <time>2022-06-26T08:24:19Z</time>
      </trkpt>
      <trkpt lat="45.92288" lon="4.47811">
        <ele>353.2</ele>
        <time>2022-06-26T08:24:20Z</time>
      </trkpt>
      <trkpt lat="45.92288" lon="4.47803">
        <ele>353.2</ele>
        <time>2022-06-26T08:24:21Z</time>
      </trkpt>
      <trkpt lat="45.92288" lon="4.47794">
        <ele>353.2</ele>
        <time>2022-06-26T08:24:22Z</time>
      </trkpt>
      <trkpt lat="45.92288" lon="4.47786">
        <ele>353.2</ele>
        <time>2022-06-26T08:24:23Z</time>
      </trkpt>
      <trkpt lat="45.92288" lon="4.47778">
        <ele>353.2</ele>
        <time>2022-06-26T08:24:24Z</time>
      </trkpt>
      <trkpt lat="45.92288" lon="4.4777">
        <ele>353.2</ele>
        <time>2022-06-26T08:24:25Z</time>
      </trkpt>
      <trkpt lat="45.92288" lon="4.47761">
        <ele>353.2</ele>
        <time>2022-06-26T08:24:26Z</time>
      </trkpt>
      <trkpt lat="45.92288" lon="4.47753">
        <ele>353.2</ele>
        <time>2022-06-26T08:24:27Z</time>
      </trkpt>
      <trkpt lat="45.92287" lon="4.47745">
        <ele>353.4</ele>
        <time>2022-06-26T08:24:28Z</time>
      </trkpt>
      <trkpt lat="45.92287" lon="4.47737">
        <ele>353.4</ele>
        <time>2022-06-26T08:24:29Z</time>
      </trkpt>
      <trkpt lat="45.92286" lon="4.47729">
        <ele>353.4</ele>
        <time>2022-06-26T08:24:30Z</time>
      </trkpt>
      <trkpt lat="45.92285" lon="4.4772">
        <ele>353.4</ele>
        <time>2022-06-26T08:24:31Z</time>
      </trkpt>
      <trkpt lat="45.92284" lon="4.47712">
        <ele>353.4</ele>
        <time>2022-06-26T08:24:32Z</time>
      </trkpt>
      <trkpt lat="45.92283" lon="4.47705">
        <ele>353.4</ele>
        <time>2022-06-26T08:24:33Z</time>
      </trkpt>
      <trkpt lat="45.92281" lon="4.47697">
        <ele>353.6</ele>
        <time>2022-06-26T08:24:34Z</time>
      </trkpt>
      <trkpt lat="45.92279" lon="4.47689">
        <ele>353.6</ele>
        <time>2022-06-26T08:24:35Z</time>
      </trkpt>
      <trkpt lat="45.92278" lon="4.47682">
        <ele>353.6</ele>
        <time>2022-06-26T08:24:36Z</time>
      </trkpt>
      <trkpt lat="45.92276" lon="4.47674">
        <ele>353.6</ele>
        <time>2022-06-26T08:24:37Z</time>
      </trkpt>
      <trkpt lat="45.92274" lon="4.47666">
        <ele>353.6</ele>
        <time>2022-06-26T08:24:38Z</time>
      </trkpt>
      <trkpt lat="45.92272" lon="4.47659">
        <ele>354</ele>
        <time>2022-06-26T08:24:39Z</time>
      </trkpt>
      <trkpt lat="45.92269" lon="4.47651">
        <ele>354</ele>
        <time>2022-06-26T08:24:40Z</time>
      </trkpt>
      <trkpt lat="45.92267" lon="4.47644">
        <ele>354</ele>
        <time>2022-06-26T08:24:41Z</time>
      </trkpt>
      <trkpt lat="45.92264" lon="4.47636">
        <ele>354</ele>
        <time>2022-06-26T08:24:42Z</time>
      </trkpt>
      <trkpt lat="45.92261" lon="4.47629">
        <ele>354</ele>
        <time>2022-06-26T08:24:43Z</time>
      </trkpt>
      <trkpt lat="45.92258" lon="4.47622">
        <ele>354</ele>
        <time>2022-06-26T08:24:44Z</time>
      </trkpt>
      <trkpt lat="45.92255" lon="4.47615">
        <ele>354</ele>
        <time>2022-06-26T08:24:45Z</time>
      </trkpt>
      <trkpt lat="45.92252" lon="4.47607">
        <ele>354</ele>
        <time>2022-06-26T08:24:46Z</time>
      </trkpt>
      <trkpt lat="45.92249" lon="4.476">
        <ele>354</ele>
        <time>2022-06-26T08:24:47Z</time>
      </trkpt>
      <trkpt lat="45.92246" lon="4.47593">
        <ele>354</ele>
        <time>2022-06-26T08:24:48Z</time>
      </trkpt>
      <trkpt lat="45.92243" lon="4.47586">
        <ele>354.2</ele>
        <time>2022-06-26T08:24:49Z</time>
      </trkpt>
      <trkpt lat="45.9224" lon="4.47578">
        <ele>354.2</ele>
        <time>2022-06-26T08:24:50Z</time>
      </trkpt>
      <trkpt lat="45.92237" lon="4.47571">
        <ele>354.2</ele>
        <time>2022-06-26T08:24:51Z</time>
      </trkpt>
      <trkpt lat="45.92234" lon="4.47563">
        <ele>354.2</ele>
        <time>2022-06-26T08:24:52Z</time>
      </trkpt>
      <trkpt lat="45.92231" lon="4.47556">
        <ele>354.2</ele>
        <time>2022-06-26T08:24:53Z</time>
      </trkpt>
      <trkpt lat="45.92229" lon="4.47549">
        <ele>354.2</ele>
        <time>2022-06-26T08:24:54Z</time>
      </trkpt>
      <trkpt lat="45.92226" lon="4.47542">
        <ele>354.4</ele>
        <time>2022-06-26T08:24:55Z</time>
      </trkpt>
      <trkpt lat="45.92223" lon="4.47534">
        <ele>354.4</ele>
        <time>2022-06-26T08:24:56Z</time>
      </trkpt>
      <trkpt lat="45.92221" lon="4.47527">
        <ele>354.4</ele>
        <time>2022-06-26T08:24:57Z</time>
      </trkpt>
      <trkpt lat="45.92218" lon="4.4752">
        <ele>354.6</ele>
        <time>2022-06-26T08:24:58Z</time>
      </trkpt>
      <trkpt lat="45.92215" lon="4.47513">
        <ele>354.6</ele>
        <time>2022-06-26T08:24:59Z</time>
      </trkpt>
      <trkpt lat="45.92213" lon="4.47505">
        <ele>354.6</ele>
        <time>2022-06-26T08:25:00Z</time>
      </trkpt>
      <trkpt lat="45.9221" lon="4.47498">
        <ele>354.8</ele>
        <time>2022-06-26T08:25:01Z</time>
      </trkpt>
      <trkpt lat="45.92208" lon="4.47491">
        <ele>354.8</ele>
        <time>2022-06-26T08:25:02Z</time>
      </trkpt>
      <trkpt lat="45.92205" lon="4.47484">
        <ele>355</ele>
        <time>2022-06-26T08:25:03Z</time>
      </trkpt>
      <trkpt lat="45.92203" lon="4.47477">
        <ele>355</ele>
        <time>2022-06-26T08:25:04Z</time>
      </trkpt>
      <trkpt lat="45.922" lon="4.4747">
        <ele>355</ele>
        <time>2022-06-26T08:25:05Z</time>
      </trkpt>
      <trkpt lat="45.92198" lon="4.47462">
        <ele>355.4</ele>
        <time>2022-06-26T08:25:06Z</time>
      </trkpt>
      <trkpt lat="45.92196" lon="4.47455">
        <ele>355.4</ele>
        <time>2022-06-26T08:25:07Z</time>
      </trkpt>
      <trkpt lat="45.92194" lon="4.47448">
        <ele>355.4</ele>
        <time>2022-06-26T08:25:08Z</time>
      </trkpt>
      <trkpt lat="45.92192" lon="4.4744">
        <ele>355.4</ele>
        <time>2022-06-26T08:25:09Z</time>
      </trkpt>
      <trkpt lat="45.92189" lon="4.47433">
        <ele>355.6</ele>
        <time>2022-06-26T08:25:10Z</time>
      </trkpt>
      <trkpt lat="45.92188" lon="4.47425">
        <ele>355.6</ele>
        <time>2022-06-26T08:25:11Z</time>
      </trkpt>
      <trkpt lat="45.92186" lon="4.47418">
        <ele>355.8</ele>
        <time>2022-06-26T08:25:12Z</time>
      </trkpt>
      <trkpt lat="45.92184" lon="4.4741">
        <ele>355.8</ele>
        <time>2022-06-26T08:25:13Z</time>
      </trkpt>
      <trkpt lat="45.92183" lon="4.47402">
        <ele>356</ele>
        <time>2022-06-26T08:25:14Z</time>
      </trkpt>
      <trkpt lat="45.92181" lon="4.47395">
        <ele>356</ele>
        <time>2022-06-26T08:25:15Z</time>
      </trkpt>
      <trkpt lat="45.9218" lon="4.47387">
        <ele>356</ele>
        <time>2022-06-26T08:25:16Z</time>
      </trkpt>
      <trkpt lat="45.92179" lon="4.47379">
        <ele>356.4</ele>
        <time>2022-06-26T08:25:18Z</time>
      </trkpt>
      <trkpt lat="45.92177" lon="4.47372">
        <ele>356.4</ele>
        <time>2022-06-26T08:25:19Z</time>
      </trkpt>
      <trkpt lat="45.92176" lon="4.47364">
        <ele>356.6</ele>
        <time>2022-06-26T08:25:20Z</time>
      </trkpt>
      <trkpt lat="45.92175" lon="4.47356">
        <ele>356.6</ele>
        <time>2022-06-26T08:25:21Z</time>
      </trkpt>
      <trkpt lat="45.92174" lon="4.47348">
        <ele>357</ele>
        <time>2022-06-26T08:25:22Z</time>
      </trkpt>
      <trkpt lat="45.92173" lon="4.4734">
        <ele>357</ele>
        <time>2022-06-26T08:25:23Z</time>
      </trkpt>
      <trkpt lat="45.92172" lon="4.47332">
        <ele>357.2</ele>
        <time>2022-06-26T08:25:24Z</time>
      </trkpt>
      <trkpt lat="45.92171" lon="4.47324">
        <ele>357.2</ele>
        <time>2022-06-26T08:25:25Z</time>
      </trkpt>
      <trkpt lat="45.9217" lon="4.47316">
        <ele>357.4</ele>
        <time>2022-06-26T08:25:26Z</time>
      </trkpt>
      <trkpt lat="45.9217" lon="4.47308">
        <ele>357.6</ele>
        <time>2022-06-26T08:25:27Z</time>
      </trkpt>
      <trkpt lat="45.92169" lon="4.47301">
        <ele>357.6</ele>
        <time>2022-06-26T08:25:28Z</time>
      </trkpt>
      <trkpt lat="45.92169" lon="4.47293">
        <ele>357.6</ele>
        <time>2022-06-26T08:25:29Z</time>
      </trkpt>
      <trkpt lat="45.92169" lon="4.47285">
        <ele>358</ele>
        <time>2022-06-26T08:25:30Z</time>
      </trkpt>
      <trkpt lat="45.92169" lon="4.47277">
        <ele>358</ele>
        <time>2022-06-26T08:25:31Z</time>
      </trkpt>
      <trkpt lat="45.92169" lon="4.47269">
        <ele>358</ele>
        <time>2022-06-26T08:25:32Z</time>
      </trkpt>
      <trkpt lat="45.92169" lon="4.47261">
        <ele>358.2</ele>
        <time>2022-06-26T08:25:33Z</time>
      </trkpt>
      <trkpt lat="45.92169" lon="4.47253">
        <ele>358.2</ele>
        <time>2022-06-26T08:25:34Z</time>
      </trkpt>
      <trkpt lat="45.92169" lon="4.47246">
        <ele>358.6</ele>
        <time>2022-06-26T08:25:35Z</time>
      </trkpt>
      <trkpt lat="45.92169" lon="4.47238">
        <ele>358.6</ele>
        <time>2022-06-26T08:25:36Z</time>
      </trkpt>
      <trkpt lat="45.92169" lon="4.47231">
        <ele>358.8</ele>
        <time>2022-06-26T08:25:37Z</time>
      </trkpt>
      <trkpt lat="45.9217" lon="4.47223">
        <ele>358.8</ele>
        <time>2022-06-26T08:25:38Z</time>
      </trkpt>
      <trkpt lat="45.92171" lon="4.47216">
        <ele>359</ele>
        <time>2022-06-26T08:25:39Z</time>
      </trkpt>
      <trkpt lat="45.92171" lon="4.47209">
        <ele>359</ele>
        <time>2022-06-26T08:25:40Z</time>
      </trkpt>
      <trkpt lat="45.92172" lon="4.47202">
        <ele>359.4</ele>
        <time>2022-06-26T08:25:41Z</time>
      </trkpt>
      <trkpt lat="45.92172" lon="4.47194">
        <ele>359.4</ele>
        <time>2022-06-26T08:25:42Z</time>
      </trkpt>
      <trkpt lat="45.92173" lon="4.47187">
        <ele>359.4</ele>
        <time>2022-06-26T08:25:43Z</time>
      </trkpt>
      <trkpt lat="45.92175" lon="4.47179">
        <ele>359.6</ele>
        <time>2022-06-26T08:25:44Z</time>
      </trkpt>
      <trkpt lat="45.92176" lon="4.47171">
        <ele>359.6</ele>
        <time>2022-06-26T08:25:45Z</time>
      </trkpt>
      <trkpt lat="45.92177" lon="4.47163">
        <ele>359.6</ele>
        <time>2022-06-26T08:25:46Z</time>
      </trkpt>
      <trkpt lat="45.92177" lon="4.47155">
        <ele>360</ele>
        <time>2022-06-26T08:25:47Z</time>
      </trkpt>
      <trkpt lat="45.92178" lon="4.47148">
        <ele>360</ele>
        <time>2022-06-26T08:25:48Z</time>
      </trkpt>
      <trkpt lat="45.92179" lon="4.4714">
        <ele>360.2</ele>
        <time>2022-06-26T08:25:49Z</time>
      </trkpt>
      <trkpt lat="45.92181" lon="4.47132">
        <ele>360.2</ele>
        <time>2022-06-26T08:25:50Z</time>
      </trkpt>
      <trkpt lat="45.92182" lon="4.47125">
        <ele>360.4</ele>
        <time>2022-06-26T08:25:51Z</time>
      </trkpt>
      <trkpt lat="45.92183" lon="4.47117">
        <ele>360.6</ele>
        <time>2022-06-26T08:25:52Z</time>
      </trkpt>
      <trkpt lat="45.92184" lon="4.4711">
        <ele>360.6</ele>
        <time>2022-06-26T08:25:53Z</time>
      </trkpt>
      <trkpt lat="45.92185" lon="4.47102">
        <ele>361</ele>
        <time>2022-06-26T08:25:54Z</time>
      </trkpt>
      <trkpt lat="45.92186" lon="4.47095">
        <ele>361</ele>
        <time>2022-06-26T08:25:55Z</time>
      </trkpt>
      <trkpt lat="45.92187" lon="4.47087">
        <ele>361</ele>
        <time>2022-06-26T08:25:56Z</time>
      </trkpt>
      <trkpt lat="45.92189" lon="4.4708">
        <ele>361.2</ele>
        <time>2022-06-26T08:25:57Z</time>
      </trkpt>
      <trkpt lat="45.9219" lon="4.47072">
        <ele>361.2</ele>
        <time>2022-06-26T08:25:58Z</time>
      </trkpt>
      <trkpt lat="45.92191" lon="4.47065">
        <ele>361.4</ele>
        <time>2022-06-26T08:25:59Z</time>
      </trkpt>
      <trkpt lat="45.92192" lon="4.47057">
        <ele>361.4</ele>
        <time>2022-06-26T08:26:00Z</time>
      </trkpt>
      <trkpt lat="45.92193" lon="4.4705">
        <ele>361.6</ele>
        <time>2022-06-26T08:26:01Z</time>
      </trkpt>
      <trkpt lat="45.92194" lon="4.47043">
        <ele>361.6</ele>
        <time>2022-06-26T08:26:02Z</time>
      </trkpt>
      <trkpt lat="45.92195" lon="4.47035">
        <ele>361.8</ele>
        <time>2022-06-26T08:26:03Z</time>
      </trkpt>
      <trkpt lat="45.92197" lon="4.47028">
        <ele>361.8</ele>
        <time>2022-06-26T08:26:04Z</time>
      </trkpt>
      <trkpt lat="45.92198" lon="4.4702">
        <ele>362.2</ele>
        <time>2022-06-26T08:26:05Z</time>
      </trkpt>
      <trkpt lat="45.92199" lon="4.47013">
        <ele>362.2</ele>
        <time>2022-06-26T08:26:06Z</time>
      </trkpt>
      <trkpt lat="45.922" lon="4.47006">
        <ele>362.4</ele>
        <time>2022-06-26T08:26:07Z</time>
      </trkpt>
      <trkpt lat="45.92201" lon="4.46999">
        <ele>362.4</ele>
        <time>2022-06-26T08:26:08Z</time>
      </trkpt>
      <trkpt lat="45.92202" lon="4.46991">
        <ele>362.4</ele>
        <time>2022-06-26T08:26:09Z</time>
      </trkpt>
      <trkpt lat="45.92203" lon="4.46984">
        <ele>362.8</ele>
        <time>2022-06-26T08:26:10Z</time>
      </trkpt>
      <trkpt lat="45.92204" lon="4.46977">
        <ele>362.8</ele>
        <time>2022-06-26T08:26:11Z</time>
      </trkpt>
      <trkpt lat="45.92206" lon="4.4697">
        <ele>362.8</ele>
        <time>2022-06-26T08:26:12Z</time>
      </trkpt>
      <trkpt lat="45.92207" lon="4.46962">
        <ele>362.8</ele>
        <time>2022-06-26T08:26:13Z</time>
      </trkpt>
      <trkpt lat="45.92208" lon="4.46955">
        <ele>363</ele>
        <time>2022-06-26T08:26:14Z</time>
      </trkpt>
      <trkpt lat="45.92209" lon="4.46947">
        <ele>363</ele>
        <time>2022-06-26T08:26:15Z</time>
      </trkpt>
      <trkpt lat="45.92211" lon="4.4694">
        <ele>363</ele>
        <time>2022-06-26T08:26:16Z</time>
      </trkpt>
      <trkpt lat="45.92212" lon="4.46933">
        <ele>363.2</ele>
        <time>2022-06-26T08:26:17Z</time>
      </trkpt>
      <trkpt lat="45.92213" lon="4.46926">
        <ele>363.2</ele>
        <time>2022-06-26T08:26:18Z</time>
      </trkpt>
      <trkpt lat="45.92214" lon="4.46918">
        <ele>363.2</ele>
        <time>2022-06-26T08:26:19Z</time>
      </trkpt>
      <trkpt lat="45.92215" lon="4.46911">
        <ele>363.6</ele>
        <time>2022-06-26T08:26:20Z</time>
      </trkpt>
      <trkpt lat="45.92217" lon="4.46904">
        <ele>363.6</ele>
        <time>2022-06-26T08:26:21Z</time>
      </trkpt>
      <trkpt lat="45.92218" lon="4.46896">
        <ele>363.8</ele>
        <time>2022-06-26T08:26:22Z</time>
      </trkpt>
      <trkpt lat="45.92219" lon="4.46889">
        <ele>363.8</ele>
        <time>2022-06-26T08:26:23Z</time>
      </trkpt>
      <trkpt lat="45.9222" lon="4.46881">
        <ele>364.2</ele>
        <time>2022-06-26T08:26:24Z</time>
      </trkpt>
      <trkpt lat="45.92221" lon="4.46873">
        <ele>364.2</ele>
        <time>2022-06-26T08:26:25Z</time>
      </trkpt>
      <trkpt lat="45.92222" lon="4.46866">
        <ele>364.4</ele>
        <time>2022-06-26T08:26:26Z</time>
      </trkpt>
      <trkpt lat="45.92223" lon="4.46858">
        <ele>364.4</ele>
        <time>2022-06-26T08:26:27Z</time>
      </trkpt>
      <trkpt lat="45.92224" lon="4.4685">
        <ele>364.6</ele>
        <time>2022-06-26T08:26:28Z</time>
      </trkpt>
      <trkpt lat="45.92225" lon="4.46843">
        <ele>364.6</ele>
        <time>2022-06-26T08:26:29Z</time>
      </trkpt>
      <trkpt lat="45.92226" lon="4.46835">
        <ele>364.6</ele>
        <time>2022-06-26T08:26:30Z</time>
      </trkpt>
      <trkpt lat="45.92228" lon="4.46828">
        <ele>365</ele>
        <time>2022-06-26T08:26:31Z</time>
      </trkpt>
      <trkpt lat="45.92229" lon="4.4682">
        <ele>365</ele>
        <time>2022-06-26T08:26:32Z</time>
      </trkpt>
      <trkpt lat="45.9223" lon="4.46813">
        <ele>365</ele>
        <time>2022-06-26T08:26:33Z</time>
      </trkpt>
      <trkpt lat="45.92231" lon="4.46805">
        <ele>365.2</ele>
        <time>2022-06-26T08:26:34Z</time>
      </trkpt>
      <trkpt lat="45.92232" lon="4.46797">
        <ele>365.2</ele>
        <time>2022-06-26T08:26:35Z</time>
      </trkpt>
      <trkpt lat="45.92233" lon="4.4679">
        <ele>365.2</ele>
        <time>2022-06-26T08:26:36Z</time>
      </trkpt>
      <trkpt lat="45.92234" lon="4.46782">
        <ele>365.4</ele>
        <time>2022-06-26T08:26:37Z</time>
      </trkpt>
      <trkpt lat="45.92236" lon="4.46775">
        <ele>365.4</ele>
        <time>2022-06-26T08:26:38Z</time>
      </trkpt>
      <trkpt lat="45.92237" lon="4.46767">
        <ele>365.8</ele>
        <time>2022-06-26T08:26:39Z</time>
      </trkpt>
      <trkpt lat="45.92238" lon="4.46759">
        <ele>365.8</ele>
        <time>2022-06-26T08:26:40Z</time>
      </trkpt>
      <trkpt lat="45.9224" lon="4.46751">
        <ele>365.8</ele>
        <time>2022-06-26T08:26:41Z</time>
      </trkpt>
      <trkpt lat="45.92241" lon="4.46743">
        <ele>365.8</ele>
        <time>2022-06-26T08:26:42Z</time>
      </trkpt>
      <trkpt lat="45.92242" lon="4.46735">
        <ele>366</ele>
        <time>2022-06-26T08:26:43Z</time>
      </trkpt>
      <trkpt lat="45.92243" lon="4.46727">
        <ele>366</ele>
        <time>2022-06-26T08:26:44Z</time>
      </trkpt>
      <trkpt lat="45.92243" lon="4.46719">
        <ele>366</ele>
        <time>2022-06-26T08:26:45Z</time>
      </trkpt>
      <trkpt lat="45.92243" lon="4.46711">
        <ele>366.2</ele>
        <time>2022-06-26T08:26:46Z</time>
      </trkpt>
      <trkpt lat="45.92244" lon="4.46703">
        <ele>366.2</ele>
        <time>2022-06-26T08:26:47Z</time>
      </trkpt>
      <trkpt lat="45.92244" lon="4.46695">
        <ele>366.4</ele>
        <time>2022-06-26T08:26:48Z</time>
      </trkpt>
      <trkpt lat="45.92244" lon="4.46688">
        <ele>366.4</ele>
        <time>2022-06-26T08:26:49Z</time>
      </trkpt>
      <trkpt lat="45.92245" lon="4.4668">
        <ele>366.4</ele>
        <time>2022-06-26T08:26:50Z</time>
      </trkpt>
      <trkpt lat="45.92246" lon="4.46673">
        <ele>366.8</ele>
        <time>2022-06-26T08:26:51Z</time>
      </trkpt>
      <trkpt lat="45.92246" lon="4.46665">
        <ele>366.8</ele>
        <time>2022-06-26T08:26:52Z</time>
      </trkpt>
      <trkpt lat="45.92247" lon="4.46658">
        <ele>367</ele>
        <time>2022-06-26T08:26:53Z</time>
      </trkpt>
      <trkpt lat="45.92248" lon="4.46651">
        <ele>367</ele>
        <time>2022-06-26T08:26:54Z</time>
      </trkpt>
      <trkpt lat="45.92248" lon="4.46643">
        <ele>367.2</ele>
        <time>2022-06-26T08:26:55Z</time>
      </trkpt>
      <trkpt lat="45.92249" lon="4.46636">
        <ele>367.2</ele>
        <time>2022-06-26T08:26:56Z</time>
      </trkpt>
      <trkpt lat="45.9225" lon="4.46628">
        <ele>367.4</ele>
        <time>2022-06-26T08:26:57Z</time>
      </trkpt>
      <trkpt lat="45.92251" lon="4.4662">
        <ele>367.4</ele>
        <time>2022-06-26T08:26:58Z</time>
      </trkpt>
      <trkpt lat="45.92252" lon="4.46613">
        <ele>367.4</ele>
        <time>2022-06-26T08:26:59Z</time>
      </trkpt>
      <trkpt lat="45.92253" lon="4.46605">
        <ele>367.6</ele>
        <time>2022-06-26T08:27:00Z</time>
      </trkpt>
      <trkpt lat="45.92255" lon="4.46598">
        <ele>367.6</ele>
        <time>2022-06-26T08:27:01Z</time>
      </trkpt>
      <trkpt lat="45.92257" lon="4.46591">
        <ele>367.6</ele>
        <time>2022-06-26T08:27:02Z</time>
      </trkpt>
      <trkpt lat="45.92259" lon="4.46584">
        <ele>367.6</ele>
        <time>2022-06-26T08:27:03Z</time>
      </trkpt>
      <trkpt lat="45.92261" lon="4.46576">
        <ele>368</ele>
        <time>2022-06-26T08:27:04Z</time>
      </trkpt>
      <trkpt lat="45.92263" lon="4.46569">
        <ele>368</ele>
        <time>2022-06-26T08:27:05Z</time>
      </trkpt>
      <trkpt lat="45.92266" lon="4.46562">
        <ele>368</ele>
        <time>2022-06-26T08:27:06Z</time>
      </trkpt>
      <trkpt lat="45.92268" lon="4.46555">
        <ele>368</ele>
        <time>2022-06-26T08:27:07Z</time>
      </trkpt>
      <trkpt lat="45.92271" lon="4.46548">
        <ele>368</ele>
        <time>2022-06-26T08:27:08Z</time>
      </trkpt>
      <trkpt lat="45.92274" lon="4.46541">
        <ele>368</ele>
        <time>2022-06-26T08:27:09Z</time>
      </trkpt>
      <trkpt lat="45.92277" lon="4.46534">
        <ele>368</ele>
        <time>2022-06-26T08:27:10Z</time>
      </trkpt>
      <trkpt lat="45.9228" lon="4.46527">
        <ele>368</ele>
        <time>2022-06-26T08:27:11Z</time>
      </trkpt>
      <trkpt lat="45.92284" lon="4.4652">
        <ele>368.2</ele>
        <time>2022-06-26T08:27:12Z</time>
      </trkpt>
      <trkpt lat="45.92287" lon="4.46514">
        <ele>368.2</ele>
        <time>2022-06-26T08:27:13Z</time>
      </trkpt>
      <trkpt lat="45.92291" lon="4.46507">
        <ele>368.2</ele>
        <time>2022-06-26T08:27:14Z</time>
      </trkpt>
      <trkpt lat="45.92294" lon="4.465">
        <ele>368.2</ele>
        <time>2022-06-26T08:27:15Z</time>
      </trkpt>
      <trkpt lat="45.92297" lon="4.46494">
        <ele>368.4</ele>
        <time>2022-06-26T08:27:16Z</time>
      </trkpt>
      <trkpt lat="45.923" lon="4.46487">
        <ele>368.4</ele>
        <time>2022-06-26T08:27:17Z</time>
      </trkpt>
      <trkpt lat="45.92302" lon="4.4648">
        <ele>368.4</ele>
        <time>2022-06-26T08:27:18Z</time>
      </trkpt>
      <trkpt lat="45.92305" lon="4.46473">
        <ele>368.4</ele>
        <time>2022-06-26T08:27:19Z</time>
      </trkpt>
      <trkpt lat="45.92307" lon="4.46465">
        <ele>368.4</ele>
        <time>2022-06-26T08:27:20Z</time>
      </trkpt>
      <trkpt lat="45.92309" lon="4.46458">
        <ele>368.6</ele>
        <time>2022-06-26T08:27:21Z</time>
      </trkpt>
      <trkpt lat="45.92311" lon="4.4645">
        <ele>368.6</ele>
        <time>2022-06-26T08:27:22Z</time>
      </trkpt>
      <trkpt lat="45.92312" lon="4.46442">
        <ele>368.6</ele>
        <time>2022-06-26T08:27:23Z</time>
      </trkpt>
      <trkpt lat="45.92314" lon="4.46434">
        <ele>368.6</ele>
        <time>2022-06-26T08:27:24Z</time>
      </trkpt>
      <trkpt lat="45.92315" lon="4.46426">
        <ele>368.6</ele>
        <time>2022-06-26T08:27:25Z</time>
      </trkpt>
      <trkpt lat="45.92317" lon="4.46418">
        <ele>368.6</ele>
        <time>2022-06-26T08:27:26Z</time>
      </trkpt>
      <trkpt lat="45.92318" lon="4.4641">
        <ele>368.6</ele>
        <time>2022-06-26T08:27:27Z</time>
      </trkpt>
      <trkpt lat="45.92319" lon="4.46402">
        <ele>368.6</ele>
        <time>2022-06-26T08:27:28Z</time>
      </trkpt>
      <trkpt lat="45.9232" lon="4.46394">
        <ele>368.6</ele>
        <time>2022-06-26T08:27:29Z</time>
      </trkpt>
      <trkpt lat="45.92321" lon="4.46386">
        <ele>369</ele>
        <time>2022-06-26T08:27:30Z</time>
      </trkpt>
      <trkpt lat="45.92322" lon="4.46378">
        <ele>369</ele>
        <time>2022-06-26T08:27:31Z</time>
      </trkpt>
      <trkpt lat="45.92323" lon="4.46369">
        <ele>369</ele>
        <time>2022-06-26T08:27:32Z</time>
      </trkpt>
      <trkpt lat="45.92324" lon="4.46361">
        <ele>369</ele>
        <time>2022-06-26T08:27:33Z</time>
      </trkpt>
      <trkpt lat="45.92325" lon="4.46353">
        <ele>369.2</ele>
        <time>2022-06-26T08:27:34Z</time>
      </trkpt>
      <trkpt lat="45.92325" lon="4.46345">
        <ele>369.2</ele>
        <time>2022-06-26T08:27:35Z</time>
      </trkpt>
      <trkpt lat="45.92326" lon="4.46337">
        <ele>369.2</ele>
        <time>2022-06-26T08:27:36Z</time>
      </trkpt>
      <trkpt lat="45.92326" lon="4.46329">
        <ele>369.2</ele>
        <time>2022-06-26T08:27:37Z</time>
      </trkpt>
      <trkpt lat="45.92326" lon="4.4632">
        <ele>369.2</ele>
        <time>2022-06-26T08:27:38Z</time>
      </trkpt>
      <trkpt lat="45.92326" lon="4.46312">
        <ele>369.2</ele>
        <time>2022-06-26T08:27:39Z</time>
      </trkpt>
      <trkpt lat="45.92326" lon="4.46304">
        <ele>369.2</ele>
        <time>2022-06-26T08:27:40Z</time>
      </trkpt>
      <trkpt lat="45.92325" lon="4.46296">
        <ele>369.2</ele>
        <time>2022-06-26T08:27:41Z</time>
      </trkpt>
      <trkpt lat="45.92325" lon="4.46288">
        <ele>369.2</ele>
        <time>2022-06-26T08:27:42Z</time>
      </trkpt>
      <trkpt lat="45.92324" lon="4.4628">
        <ele>369.2</ele>
        <time>2022-06-26T08:27:43Z</time>
      </trkpt>
      <trkpt lat="45.92323" lon="4.46272">
        <ele>369.4</ele>
        <time>2022-06-26T08:27:44Z</time>
      </trkpt>
      <trkpt lat="45.92322" lon="4.46265">
        <ele>369.4</ele>
        <time>2022-06-26T08:27:45Z</time>
      </trkpt>
      <trkpt lat="45.92321" lon="4.46257">
        <ele>369.4</ele>
        <time>2022-06-26T08:27:46Z</time>
      </trkpt>
      <trkpt lat="45.92321" lon="4.46249">
        <ele>369.6</ele>
        <time>2022-06-26T08:27:47Z</time>
      </trkpt>
      <trkpt lat="45.9232" lon="4.46242">
        <ele>369.6</ele>
        <time>2022-06-26T08:27:48Z</time>
      </trkpt>
      <trkpt lat="45.92319" lon="4.46234">
        <ele>369.6</ele>
        <time>2022-06-26T08:27:49Z</time>
      </trkpt>
      <trkpt lat="45.92318" lon="4.46227">
        <ele>369.8</ele>
        <time>2022-06-26T08:27:50Z</time>
      </trkpt>
      <trkpt lat="45.92317" lon="4.46219">
        <ele>369.8</ele>
        <time>2022-06-26T08:27:51Z</time>
      </trkpt>
      <trkpt lat="45.92316" lon="4.46212">
        <ele>370</ele>
        <time>2022-06-26T08:27:52Z</time>
      </trkpt>
      <trkpt lat="45.92315" lon="4.46205">
        <ele>370</ele>
        <time>2022-06-26T08:27:53Z</time>
      </trkpt>
      <trkpt lat="45.92314" lon="4.46198">
        <ele>370</ele>
        <time>2022-06-26T08:27:54Z</time>
      </trkpt>
      <trkpt lat="45.92313" lon="4.4619">
        <ele>370.4</ele>
        <time>2022-06-26T08:27:55Z</time>
      </trkpt>
      <trkpt lat="45.92312" lon="4.46183">
        <ele>370.4</ele>
        <time>2022-06-26T08:27:56Z</time>
      </trkpt>
      <trkpt lat="45.92311" lon="4.46176">
        <ele>370.6</ele>
        <time>2022-06-26T08:27:57Z</time>
      </trkpt>
      <trkpt lat="45.92311" lon="4.46169">
        <ele>370.6</ele>
        <time>2022-06-26T08:27:58Z</time>
      </trkpt>
      <trkpt lat="45.9231" lon="4.46162">
        <ele>370.6</ele>
        <time>2022-06-26T08:27:59Z</time>
      </trkpt>
      <trkpt lat="45.9231" lon="4.46155">
        <ele>370.6</ele>
        <time>2022-06-26T08:28:00Z</time>
      </trkpt>
      <trkpt lat="45.92309" lon="4.46149">
        <ele>370.6</ele>
        <time>2022-06-26T08:28:01Z</time>
      </trkpt>
      <trkpt lat="45.92308" lon="4.46142">
        <ele>370.6</ele>
        <time>2022-06-26T08:28:02Z</time>
      </trkpt>
      <trkpt lat="45.92308" lon="4.46135">
        <ele>370.6</ele>
        <time>2022-06-26T08:28:03Z</time>
      </trkpt>
      <trkpt lat="45.92307" lon="4.46128">
        <ele>370.6</ele>
        <time>2022-06-26T08:28:04Z</time>
      </trkpt>
      <trkpt lat="45.92307" lon="4.46121">
        <ele>370.6</ele>
        <time>2022-06-26T08:28:05Z</time>
      </trkpt>
      <trkpt lat="45.92307" lon="4.46114">
        <ele>370.6</ele>
        <time>2022-06-26T08:28:06Z</time>
      </trkpt>
      <trkpt lat="45.92306" lon="4.46107">
        <ele>371</ele>
        <time>2022-06-26T08:28:07Z</time>
      </trkpt>
      <trkpt lat="45.92306" lon="4.46101">
        <ele>371</ele>
        <time>2022-06-26T08:28:08Z</time>
      </trkpt>
      <trkpt lat="45.92306" lon="4.46094">
        <ele>371.2</ele>
        <time>2022-06-26T08:28:09Z</time>
      </trkpt>
      <trkpt lat="45.92307" lon="4.46087">
        <ele>371.2</ele>
        <time>2022-06-26T08:28:10Z</time>
      </trkpt>
      <trkpt lat="45.92307" lon="4.46079">
        <ele>371.6</ele>
        <time>2022-06-26T08:28:11Z</time>
      </trkpt>
      <trkpt lat="45.92307" lon="4.46072">
        <ele>371.6</ele>
        <time>2022-06-26T08:28:12Z</time>
      </trkpt>
      <trkpt lat="45.92307" lon="4.46065">
        <ele>371.8</ele>
        <time>2022-06-26T08:28:13Z</time>
      </trkpt>
      <trkpt lat="45.92307" lon="4.46058">
        <ele>371.8</ele>
        <time>2022-06-26T08:28:14Z</time>
      </trkpt>
      <trkpt lat="45.92307" lon="4.4605">
        <ele>372</ele>
        <time>2022-06-26T08:28:15Z</time>
      </trkpt>
      <trkpt lat="45.92307" lon="4.46043">
        <ele>372</ele>
        <time>2022-06-26T08:28:16Z</time>
      </trkpt>
      <trkpt lat="45.92307" lon="4.46036">
        <ele>372.2</ele>
        <time>2022-06-26T08:28:17Z</time>
      </trkpt>
      <trkpt lat="45.92307" lon="4.46029">
        <ele>372.2</ele>
        <time>2022-06-26T08:28:18Z</time>
      </trkpt>
      <trkpt lat="45.92307" lon="4.46022">
        <ele>372.6</ele>
        <time>2022-06-26T08:28:19Z</time>
      </trkpt>
      <trkpt lat="45.92306" lon="4.46015">
        <ele>372.6</ele>
        <time>2022-06-26T08:28:20Z</time>
      </trkpt>
      <trkpt lat="45.92306" lon="4.46008">
        <ele>372.6</ele>
        <time>2022-06-26T08:28:21Z</time>
      </trkpt>
      <trkpt lat="45.92306" lon="4.45995">
        <ele>372.6</ele>
        <time>2022-06-26T08:28:22Z</time>
      </trkpt>
      <trkpt lat="45.92306" lon="4.45987">
        <ele>372.8</ele>
        <time>2022-06-26T08:28:23Z</time>
      </trkpt>
      <trkpt lat="45.92307" lon="4.4598">
        <ele>372.8</ele>
        <time>2022-06-26T08:28:24Z</time>
      </trkpt>
      <trkpt lat="45.92307" lon="4.45974">
        <ele>372.8</ele>
        <time>2022-06-26T08:28:25Z</time>
      </trkpt>
      <trkpt lat="45.92307" lon="4.45967">
        <ele>373</ele>
        <time>2022-06-26T08:28:26Z</time>
      </trkpt>
      <trkpt lat="45.92307" lon="4.4596">
        <ele>373</ele>
        <time>2022-06-26T08:28:27Z</time>
      </trkpt>
      <trkpt lat="45.92307" lon="4.45954">
        <ele>373.4</ele>
        <time>2022-06-26T08:28:28Z</time>
      </trkpt>
      <trkpt lat="45.92308" lon="4.45947">
        <ele>373.4</ele>
        <time>2022-06-26T08:28:29Z</time>
      </trkpt>
      <trkpt lat="45.92308" lon="4.45941">
        <ele>373.4</ele>
        <time>2022-06-26T08:28:30Z</time>
      </trkpt>
      <trkpt lat="45.92308" lon="4.45935">
        <ele>373.6</ele>
        <time>2022-06-26T08:28:31Z</time>
      </trkpt>
      <trkpt lat="45.92308" lon="4.4593">
        <ele>373.6</ele>
        <time>2022-06-26T08:28:32Z</time>
      </trkpt>
      <trkpt lat="45.92308" lon="4.45924">
        <ele>373.6</ele>
        <time>2022-06-26T08:28:33Z</time>
      </trkpt>
      <trkpt lat="45.92309" lon="4.45918">
        <ele>374</ele>
        <time>2022-06-26T08:28:34Z</time>
      </trkpt>
      <trkpt lat="45.92309" lon="4.45913">
        <ele>374</ele>
        <time>2022-06-26T08:28:35Z</time>
      </trkpt>
      <trkpt lat="45.9231" lon="4.45908">
        <ele>374.4</ele>
        <time>2022-06-26T08:28:36Z</time>
      </trkpt>
      <trkpt lat="45.9231" lon="4.45903">
        <ele>374.4</ele>
        <time>2022-06-26T08:28:37Z</time>
      </trkpt>
      <trkpt lat="45.9231" lon="4.45899">
        <ele>374.6</ele>
        <time>2022-06-26T08:28:38Z</time>
      </trkpt>
      <trkpt lat="45.9231" lon="4.45894">
        <ele>375</ele>
        <time>2022-06-26T08:28:39Z</time>
      </trkpt>
      <trkpt lat="45.9231" lon="4.45889">
        <ele>375.2</ele>
        <time>2022-06-26T08:28:40Z</time>
      </trkpt>
      <trkpt lat="45.9231" lon="4.45885">
        <ele>375.4</ele>
        <time>2022-06-26T08:28:41Z</time>
      </trkpt>
      <trkpt lat="45.9231" lon="4.4588">
        <ele>375.6</ele>
        <time>2022-06-26T08:28:42Z</time>
      </trkpt>
      <trkpt lat="45.9231" lon="4.45875">
        <ele>375.8</ele>
        <time>2022-06-26T08:28:43Z</time>
      </trkpt>
      <trkpt lat="45.92311" lon="4.45871">
        <ele>376</ele>
        <time>2022-06-26T08:28:44Z</time>
      </trkpt>
      <trkpt lat="45.92311" lon="4.45866">
        <ele>376.4</ele>
        <time>2022-06-26T08:28:45Z</time>
      </trkpt>
      <trkpt lat="45.92311" lon="4.45862">
        <ele>376.6</ele>
        <time>2022-06-26T08:28:46Z</time>
      </trkpt>
      <trkpt lat="45.92311" lon="4.45857">
        <ele>377</ele>
        <time>2022-06-26T08:28:47Z</time>
      </trkpt>
      <trkpt lat="45.92311" lon="4.45852">
        <ele>377</ele>
        <time>2022-06-26T08:28:48Z</time>
      </trkpt>
      <trkpt lat="45.92311" lon="4.45848">
        <ele>377.2</ele>
        <time>2022-06-26T08:28:49Z</time>
      </trkpt>
      <trkpt lat="45.92311" lon="4.45843">
        <ele>377.6</ele>
        <time>2022-06-26T08:28:50Z</time>
      </trkpt>
      <trkpt lat="45.92311" lon="4.45839">
        <ele>377.8</ele>
        <time>2022-06-26T08:28:51Z</time>
      </trkpt>
      <trkpt lat="45.92312" lon="4.45834">
        <ele>377.8</ele>
        <time>2022-06-26T08:28:52Z</time>
      </trkpt>
      <trkpt lat="45.92312" lon="4.4583">
        <ele>378</ele>
        <time>2022-06-26T08:28:53Z</time>
      </trkpt>
      <trkpt lat="45.92312" lon="4.45825">
        <ele>378</ele>
        <time>2022-06-26T08:28:54Z</time>
      </trkpt>
      <trkpt lat="45.92312" lon="4.45821">
        <ele>378.4</ele>
        <time>2022-06-26T08:28:55Z</time>
      </trkpt>
      <trkpt lat="45.92312" lon="4.45816">
        <ele>378.8</ele>
        <time>2022-06-26T08:28:56Z</time>
      </trkpt>
      <trkpt lat="45.92312" lon="4.45812">
        <ele>378.8</ele>
        <time>2022-06-26T08:28:57Z</time>
      </trkpt>
      <trkpt lat="45.92312" lon="4.45808">
        <ele>379</ele>
        <time>2022-06-26T08:28:58Z</time>
      </trkpt>
      <trkpt lat="45.92312" lon="4.45803">
        <ele>379.2</ele>
        <time>2022-06-26T08:28:59Z</time>
      </trkpt>
      <trkpt lat="45.92312" lon="4.45799">
        <ele>379.6</ele>
        <time>2022-06-26T08:29:00Z</time>
      </trkpt>
      <trkpt lat="45.92312" lon="4.45795">
        <ele>379.8</ele>
        <time>2022-06-26T08:29:01Z</time>
      </trkpt>
      <trkpt lat="45.92312" lon="4.4579">
        <ele>379.8</ele>
        <time>2022-06-26T08:29:02Z</time>
      </trkpt>
      <trkpt lat="45.92312" lon="4.45786">
        <ele>380</ele>
        <time>2022-06-26T08:29:03Z</time>
      </trkpt>
      <trkpt lat="45.92312" lon="4.45782">
        <ele>380</ele>
        <time>2022-06-26T08:29:04Z</time>
      </trkpt>
      <trkpt lat="45.92312" lon="4.45778">
        <ele>380.4</ele>
        <time>2022-06-26T08:29:05Z</time>
      </trkpt>
      <trkpt lat="45.92312" lon="4.45774">
        <ele>380.6</ele>
        <time>2022-06-26T08:29:06Z</time>
      </trkpt>
      <trkpt lat="45.92312" lon="4.4577">
        <ele>380.8</ele>
        <time>2022-06-26T08:29:07Z</time>
      </trkpt>
      <trkpt lat="45.92312" lon="4.45765">
        <ele>380.8</ele>
        <time>2022-06-26T08:29:08Z</time>
      </trkpt>
      <trkpt lat="45.92312" lon="4.45761">
        <ele>381.2</ele>
        <time>2022-06-26T08:29:09Z</time>
      </trkpt>
      <trkpt lat="45.92312" lon="4.45757">
        <ele>381.2</ele>
        <time>2022-06-26T08:29:10Z</time>
      </trkpt>
      <trkpt lat="45.92312" lon="4.45753">
        <ele>381.6</ele>
        <time>2022-06-26T08:29:11Z</time>
      </trkpt>
      <trkpt lat="45.92312" lon="4.45748">
        <ele>381.8</ele>
        <time>2022-06-26T08:29:12Z</time>
      </trkpt>
      <trkpt lat="45.92312" lon="4.45744">
        <ele>382</ele>
        <time>2022-06-26T08:29:13Z</time>
      </trkpt>
      <trkpt lat="45.92312" lon="4.4574">
        <ele>382</ele>
        <time>2022-06-26T08:29:14Z</time>
      </trkpt>
      <trkpt lat="45.92313" lon="4.45736">
        <ele>382.6</ele>
        <time>2022-06-26T08:29:15Z</time>
      </trkpt>
      <trkpt lat="45.92313" lon="4.45732">
        <ele>382.6</ele>
        <time>2022-06-26T08:29:16Z</time>
      </trkpt>
      <trkpt lat="45.92313" lon="4.45728">
        <ele>383</ele>
        <time>2022-06-26T08:29:17Z</time>
      </trkpt>
      <trkpt lat="45.92314" lon="4.45724">
        <ele>383</ele>
        <time>2022-06-26T08:29:18Z</time>
      </trkpt>
      <trkpt lat="45.92314" lon="4.4572">
        <ele>383.2</ele>
        <time>2022-06-26T08:29:19Z</time>
      </trkpt>
      <trkpt lat="45.92314" lon="4.45716">
        <ele>383.2</ele>
        <time>2022-06-26T08:29:20Z</time>
      </trkpt>
      <trkpt lat="45.92315" lon="4.45712">
        <ele>383.6</ele>
        <time>2022-06-26T08:29:21Z</time>
      </trkpt>
      <trkpt lat="45.92315" lon="4.45708">
        <ele>383.6</ele>
        <time>2022-06-26T08:29:22Z</time>
      </trkpt>
      <trkpt lat="45.92315" lon="4.45704">
        <ele>384</ele>
        <time>2022-06-26T08:29:23Z</time>
      </trkpt>
      <trkpt lat="45.92314" lon="4.457">
        <ele>384</ele>
        <time>2022-06-26T08:29:24Z</time>
      </trkpt>
      <trkpt lat="45.92314" lon="4.45696">
        <ele>384.2</ele>
        <time>2022-06-26T08:29:25Z</time>
      </trkpt>
      <trkpt lat="45.92314" lon="4.45693">
        <ele>384.6</ele>
        <time>2022-06-26T08:29:26Z</time>
      </trkpt>
      <trkpt lat="45.92314" lon="4.45689">
        <ele>384.6</ele>
        <time>2022-06-26T08:29:27Z</time>
      </trkpt>
      <trkpt lat="45.92314" lon="4.45685">
        <ele>384.8</ele>
        <time>2022-06-26T08:29:28Z</time>
      </trkpt>
      <trkpt lat="45.92315" lon="4.45681">
        <ele>384.8</ele>
        <time>2022-06-26T08:29:29Z</time>
      </trkpt>
      <trkpt lat="45.92315" lon="4.45677">
        <ele>385.2</ele>
        <time>2022-06-26T08:29:30Z</time>
      </trkpt>
      <trkpt lat="45.92316" lon="4.45674">
        <ele>385.2</ele>
        <time>2022-06-26T08:29:31Z</time>
      </trkpt>
      <trkpt lat="45.92316" lon="4.4567">
        <ele>385.6</ele>
        <time>2022-06-26T08:29:32Z</time>
      </trkpt>
      <trkpt lat="45.92316" lon="4.45666">
        <ele>385.6</ele>
        <time>2022-06-26T08:29:33Z</time>
      </trkpt>
      <trkpt lat="45.92316" lon="4.45662">
        <ele>385.8</ele>
        <time>2022-06-26T08:29:34Z</time>
      </trkpt>
      <trkpt lat="45.92316" lon="4.45657">
        <ele>385.8</ele>
        <time>2022-06-26T08:29:35Z</time>
      </trkpt>
      <trkpt lat="45.92316" lon="4.45653">
        <ele>386.2</ele>
        <time>2022-06-26T08:29:36Z</time>
      </trkpt>
      <trkpt lat="45.92317" lon="4.45649">
        <ele>386.2</ele>
        <time>2022-06-26T08:29:37Z</time>
      </trkpt>
      <trkpt lat="45.92317" lon="4.45645">
        <ele>386.6</ele>
        <time>2022-06-26T08:29:38Z</time>
      </trkpt>
      <trkpt lat="45.92317" lon="4.45641">
        <ele>386.6</ele>
        <time>2022-06-26T08:29:39Z</time>
      </trkpt>
      <trkpt lat="45.92317" lon="4.45637">
        <ele>386.8</ele>
        <time>2022-06-26T08:29:40Z</time>
      </trkpt>
      <trkpt lat="45.92317" lon="4.45633">
        <ele>386.8</ele>
        <time>2022-06-26T08:29:41Z</time>
      </trkpt>
      <trkpt lat="45.92317" lon="4.45629">
        <ele>387.2</ele>
        <time>2022-06-26T08:29:42Z</time>
      </trkpt>
      <trkpt lat="45.92317" lon="4.45625">
        <ele>387.2</ele>
        <time>2022-06-26T08:29:43Z</time>
      </trkpt>
      <trkpt lat="45.92317" lon="4.45621">
        <ele>387.6</ele>
        <time>2022-06-26T08:29:44Z</time>
      </trkpt>
      <trkpt lat="45.92317" lon="4.45617">
        <ele>387.6</ele>
        <time>2022-06-26T08:29:45Z</time>
      </trkpt>
      <trkpt lat="45.92317" lon="4.45613">
        <ele>388.2</ele>
        <time>2022-06-26T08:29:46Z</time>
      </trkpt>
      <trkpt lat="45.92317" lon="4.45609">
        <ele>388.4</ele>
        <time>2022-06-26T08:29:47Z</time>
      </trkpt>
      <trkpt lat="45.92317" lon="4.45605">
        <ele>388.6</ele>
        <time>2022-06-26T08:29:48Z</time>
      </trkpt>
      <trkpt lat="45.92318" lon="4.45601">
        <ele>388.8</ele>
        <time>2022-06-26T08:29:49Z</time>
      </trkpt>
      <trkpt lat="45.92318" lon="4.45597">
        <ele>388.8</ele>
        <time>2022-06-26T08:29:50Z</time>
      </trkpt>
      <trkpt lat="45.92318" lon="4.45592">
        <ele>389</ele>
        <time>2022-06-26T08:29:51Z</time>
      </trkpt>
      <trkpt lat="45.92318" lon="4.45588">
        <ele>389</ele>
        <time>2022-06-26T08:29:52Z</time>
      </trkpt>
      <trkpt lat="45.92318" lon="4.45584">
        <ele>389.4</ele>
        <time>2022-06-26T08:29:53Z</time>
      </trkpt>
      <trkpt lat="45.92318" lon="4.4558">
        <ele>389.4</ele>
        <time>2022-06-26T08:29:54Z</time>
      </trkpt>
      <trkpt lat="45.92318" lon="4.45576">
        <ele>389.8</ele>
        <time>2022-06-26T08:29:55Z</time>
      </trkpt>
      <trkpt lat="45.92318" lon="4.45571">
        <ele>389.8</ele>
        <time>2022-06-26T08:29:56Z</time>
      </trkpt>
      <trkpt lat="45.92318" lon="4.45567">
        <ele>390</ele>
        <time>2022-06-26T08:29:57Z</time>
      </trkpt>
      <trkpt lat="45.92318" lon="4.45563">
        <ele>390</ele>
        <time>2022-06-26T08:29:58Z</time>
      </trkpt>
      <trkpt lat="45.92318" lon="4.45559">
        <ele>390.4</ele>
        <time>2022-06-26T08:29:59Z</time>
      </trkpt>
      <trkpt lat="45.92318" lon="4.45555">
        <ele>390.4</ele>
        <time>2022-06-26T08:30:00Z</time>
      </trkpt>
      <trkpt lat="45.92318" lon="4.4555">
        <ele>390.6</ele>
        <time>2022-06-26T08:30:01Z</time>
      </trkpt>
      <trkpt lat="45.92318" lon="4.45546">
        <ele>390.6</ele>
        <time>2022-06-26T08:30:02Z</time>
      </trkpt>
      <trkpt lat="45.92318" lon="4.45542">
        <ele>390.8</ele>
        <time>2022-06-26T08:30:03Z</time>
      </trkpt>
      <trkpt lat="45.92318" lon="4.45537">
        <ele>390.8</ele>
        <time>2022-06-26T08:30:04Z</time>
      </trkpt>
      <trkpt lat="45.92318" lon="4.45533">
        <ele>391.2</ele>
        <time>2022-06-26T08:30:05Z</time>
      </trkpt>
      <trkpt lat="45.92318" lon="4.45528">
        <ele>391.2</ele>
        <time>2022-06-26T08:30:06Z</time>
      </trkpt>
      <trkpt lat="45.92318" lon="4.45523">
        <ele>391.4</ele>
        <time>2022-06-26T08:30:07Z</time>
      </trkpt>
      <trkpt lat="45.92318" lon="4.45518">
        <ele>391.4</ele>
        <time>2022-06-26T08:30:08Z</time>
      </trkpt>
      <trkpt lat="45.92318" lon="4.45513">
        <ele>391.4</ele>
        <time>2022-06-26T08:30:09Z</time>
      </trkpt>
      <trkpt lat="45.92318" lon="4.45508">
        <ele>391.8</ele>
        <time>2022-06-26T08:30:10Z</time>
      </trkpt>
      <trkpt lat="45.92318" lon="4.45503">
        <ele>391.8</ele>
        <time>2022-06-26T08:30:11Z</time>
      </trkpt>
      <trkpt lat="45.92318" lon="4.45497">
        <ele>391.8</ele>
        <time>2022-06-26T08:30:12Z</time>
      </trkpt>
      <trkpt lat="45.92318" lon="4.45492">
        <ele>392</ele>
        <time>2022-06-26T08:30:13Z</time>
      </trkpt>
      <trkpt lat="45.92319" lon="4.45487">
        <ele>392</ele>
        <time>2022-06-26T08:30:14Z</time>
      </trkpt>
      <trkpt lat="45.92319" lon="4.45481">
        <ele>392</ele>
        <time>2022-06-26T08:30:15Z</time>
      </trkpt>
      <trkpt lat="45.92319" lon="4.45476">
        <ele>392.2</ele>
        <time>2022-06-26T08:30:16Z</time>
      </trkpt>
      <trkpt lat="45.92319" lon="4.45471">
        <ele>392.2</ele>
        <time>2022-06-26T08:30:17Z</time>
      </trkpt>
      <trkpt lat="45.92319" lon="4.45466">
        <ele>392.2</ele>
        <time>2022-06-26T08:30:18Z</time>
      </trkpt>
      <trkpt lat="45.9232" lon="4.4546">
        <ele>392.2</ele>
        <time>2022-06-26T08:30:19Z</time>
      </trkpt>
      <trkpt lat="45.9232" lon="4.45455">
        <ele>392.4</ele>
        <time>2022-06-26T08:30:20Z</time>
      </trkpt>
      <trkpt lat="45.9232" lon="4.45449">
        <ele>392.4</ele>
        <time>2022-06-26T08:30:21Z</time>
      </trkpt>
      <trkpt lat="45.9232" lon="4.45443">
        <ele>392.4</ele>
        <time>2022-06-26T08:30:22Z</time>
      </trkpt>
      <trkpt lat="45.9232" lon="4.45438">
        <ele>392.4</ele>
        <time>2022-06-26T08:30:23Z</time>
      </trkpt>
      <trkpt lat="45.92321" lon="4.45433">
        <ele>392.6</ele>
        <time>2022-06-26T08:30:24Z</time>
      </trkpt>
      <trkpt lat="45.92321" lon="4.45427">
        <ele>392.6</ele>
        <time>2022-06-26T08:30:25Z</time>
      </trkpt>
      <trkpt lat="45.92321" lon="4.45421">
        <ele>392.6</ele>
        <time>2022-06-26T08:30:26Z</time>
      </trkpt>
      <trkpt lat="45.92322" lon="4.45414">
        <ele>392.6</ele>
        <time>2022-06-26T08:30:27Z</time>
      </trkpt>
      <trkpt lat="45.92323" lon="4.45408">
        <ele>392.6</ele>
        <time>2022-06-26T08:30:28Z</time>
      </trkpt>
      <trkpt lat="45.92323" lon="4.45401">
        <ele>392.6</ele>
        <time>2022-06-26T08:30:29Z</time>
      </trkpt>
      <trkpt lat="45.92324" lon="4.45394">
        <ele>392.6</ele>
        <time>2022-06-26T08:30:30Z</time>
      </trkpt>
      <trkpt lat="45.92325" lon="4.45387">
        <ele>392.6</ele>
        <time>2022-06-26T08:30:31Z</time>
      </trkpt>
      <trkpt lat="45.92326" lon="4.4538">
        <ele>392.6</ele>
        <time>2022-06-26T08:30:32Z</time>
      </trkpt>
      <trkpt lat="45.92327" lon="4.45372">
        <ele>392.6</ele>
        <time>2022-06-26T08:30:33Z</time>
      </trkpt>
      <trkpt lat="45.92328" lon="4.45364">
        <ele>392.6</ele>
        <time>2022-06-26T08:30:34Z</time>
      </trkpt>
      <trkpt lat="45.92329" lon="4.45356">
        <ele>392.6</ele>
        <time>2022-06-26T08:30:35Z</time>
      </trkpt>
      <trkpt lat="45.92331" lon="4.45348">
        <ele>392.4</ele>
        <time>2022-06-26T08:30:36Z</time>
      </trkpt>
      <trkpt lat="45.92333" lon="4.45339">
        <ele>392.4</ele>
        <time>2022-06-26T08:30:37Z</time>
      </trkpt>
      <trkpt lat="45.92334" lon="4.45331">
        <ele>392</ele>
        <time>2022-06-26T08:30:38Z</time>
      </trkpt>
      <trkpt lat="45.92336" lon="4.45321">
        <ele>391.8</ele>
        <time>2022-06-26T08:30:39Z</time>
      </trkpt>
      <trkpt lat="45.92338" lon="4.45312">
        <ele>391.6</ele>
        <time>2022-06-26T08:30:40Z</time>
      </trkpt>
      <trkpt lat="45.9234" lon="4.45302">
        <ele>391.4</ele>
        <time>2022-06-26T08:30:41Z</time>
      </trkpt>
      <trkpt lat="45.92342" lon="4.45293">
        <ele>391.2</ele>
        <time>2022-06-26T08:30:42Z</time>
      </trkpt>
      <trkpt lat="45.92343" lon="4.45283">
        <ele>390.8</ele>
        <time>2022-06-26T08:30:43Z</time>
      </trkpt>
      <trkpt lat="45.92346" lon="4.45272">
        <ele>390.6</ele>
        <time>2022-06-26T08:30:44Z</time>
      </trkpt>
      <trkpt lat="45.92348" lon="4.45261">
        <ele>390.4</ele>
        <time>2022-06-26T08:30:45Z</time>
      </trkpt>
      <trkpt lat="45.92351" lon="4.4525">
        <ele>390</ele>
        <time>2022-06-26T08:30:46Z</time>
      </trkpt>
      <trkpt lat="45.92354" lon="4.45239">
        <ele>389.4</ele>
        <time>2022-06-26T08:30:48Z</time>
      </trkpt>
      <trkpt lat="45.92357" lon="4.45227">
        <ele>389</ele>
        <time>2022-06-26T08:30:49Z</time>
      </trkpt>
      <trkpt lat="45.9236" lon="4.45216">
        <ele>388.8</ele>
        <time>2022-06-26T08:30:50Z</time>
      </trkpt>
      <trkpt lat="45.92363" lon="4.45204">
        <ele>388.2</ele>
        <time>2022-06-26T08:30:51Z</time>
      </trkpt>
      <trkpt lat="45.92366" lon="4.45192">
        <ele>387.8</ele>
        <time>2022-06-26T08:30:52Z</time>
      </trkpt>
      <trkpt lat="45.92369" lon="4.4518">
        <ele>387.4</ele>
        <time>2022-06-26T08:30:53Z</time>
      </trkpt>
      <trkpt lat="45.92373" lon="4.45168">
        <ele>386.8</ele>
        <time>2022-06-26T08:30:54Z</time>
      </trkpt>
      <trkpt lat="45.92377" lon="4.45156">
        <ele>386.6</ele>
        <time>2022-06-26T08:30:55Z</time>
      </trkpt>
      <trkpt lat="45.92381" lon="4.45144">
        <ele>386.2</ele>
        <time>2022-06-26T08:30:56Z</time>
      </trkpt>
      <trkpt lat="45.92385" lon="4.4513">
        <ele>386</ele>
        <time>2022-06-26T08:30:57Z</time>
      </trkpt>
      <trkpt lat="45.92389" lon="4.45118">
        <ele>385.6</ele>
        <time>2022-06-26T08:30:58Z</time>
      </trkpt>
      <trkpt lat="45.92393" lon="4.45106">
        <ele>385.4</ele>
        <time>2022-06-26T08:30:59Z</time>
      </trkpt>
      <trkpt lat="45.92398" lon="4.45095">
        <ele>385.2</ele>
        <time>2022-06-26T08:31:00Z</time>
      </trkpt>
      <trkpt lat="45.92402" lon="4.45084">
        <ele>385.2</ele>
        <time>2022-06-26T08:31:01Z</time>
      </trkpt>
      <trkpt lat="45.92407" lon="4.45074">
        <ele>384.8</ele>
        <time>2022-06-26T08:31:02Z</time>
      </trkpt>
      <trkpt lat="45.92411" lon="4.45064">
        <ele>384.8</ele>
        <time>2022-06-26T08:31:03Z</time>
      </trkpt>
      <trkpt lat="45.92415" lon="4.45055">
        <ele>384.8</ele>
        <time>2022-06-26T08:31:04Z</time>
      </trkpt>
      <trkpt lat="45.92419" lon="4.45045">
        <ele>384.8</ele>
        <time>2022-06-26T08:31:05Z</time>
      </trkpt>
      <trkpt lat="45.92422" lon="4.45036">
        <ele>384.8</ele>
        <time>2022-06-26T08:31:06Z</time>
      </trkpt>
      <trkpt lat="45.92425" lon="4.45027">
        <ele>384.8</ele>
        <time>2022-06-26T08:31:07Z</time>
      </trkpt>
      <trkpt lat="45.92428" lon="4.45019">
        <ele>384.8</ele>
        <time>2022-06-26T08:31:08Z</time>
      </trkpt>
      <trkpt lat="45.92432" lon="4.45011">
        <ele>384.8</ele>
        <time>2022-06-26T08:31:09Z</time>
      </trkpt>
      <trkpt lat="45.92435" lon="4.45004">
        <ele>384.8</ele>
        <time>2022-06-26T08:31:10Z</time>
      </trkpt>
      <trkpt lat="45.92438" lon="4.44998">
        <ele>385.2</ele>
        <time>2022-06-26T08:31:11Z</time>
      </trkpt>
      <trkpt lat="45.9244" lon="4.44993">
        <ele>385.2</ele>
        <time>2022-06-26T08:31:12Z</time>
      </trkpt>
      <trkpt lat="45.92442" lon="4.44987">
        <ele>385.2</ele>
        <time>2022-06-26T08:31:13Z</time>
      </trkpt>
      <trkpt lat="45.92443" lon="4.44982">
        <ele>385.4</ele>
        <time>2022-06-26T08:31:14Z</time>
      </trkpt>
      <trkpt lat="45.92442" lon="4.44977">
        <ele>385.4</ele>
        <time>2022-06-26T08:31:15Z</time>
      </trkpt>
      <trkpt lat="45.92441" lon="4.44972">
        <ele>385.8</ele>
        <time>2022-06-26T08:31:16Z</time>
      </trkpt>
      <trkpt lat="45.92439" lon="4.44969">
        <ele>386</ele>
        <time>2022-06-26T08:31:17Z</time>
      </trkpt>
      <trkpt lat="45.92436" lon="4.44968">
        <ele>386.2</ele>
        <time>2022-06-26T08:31:18Z</time>
      </trkpt>
      <trkpt lat="45.92434" lon="4.44968">
        <ele>386.6</ele>
        <time>2022-06-26T08:31:19Z</time>
      </trkpt>
      <trkpt lat="45.92431" lon="4.44969">
        <ele>386.6</ele>
        <time>2022-06-26T08:31:20Z</time>
      </trkpt>
      <trkpt lat="45.9243" lon="4.44971">
        <ele>387</ele>
        <time>2022-06-26T08:31:21Z</time>
      </trkpt>
      <trkpt lat="45.92428" lon="4.44972">
        <ele>387</ele>
        <time>2022-06-26T08:31:22Z</time>
      </trkpt>
      <trkpt lat="45.92426" lon="4.44974">
        <ele>387.2</ele>
        <time>2022-06-26T08:31:23Z</time>
      </trkpt>
      <trkpt lat="45.92425" lon="4.44976">
        <ele>387.4</ele>
        <time>2022-06-26T08:31:24Z</time>
      </trkpt>
      <trkpt lat="45.92423" lon="4.44978">
        <ele>387.8</ele>
        <time>2022-06-26T08:31:25Z</time>
      </trkpt>
      <trkpt lat="45.92422" lon="4.4498">
        <ele>388</ele>
        <time>2022-06-26T08:31:26Z</time>
      </trkpt>
      <trkpt lat="45.9242" lon="4.44982">
        <ele>388.2</ele>
        <time>2022-06-26T08:31:27Z</time>
      </trkpt>
      <trkpt lat="45.92418" lon="4.44985">
        <ele>388.4</ele>
        <time>2022-06-26T08:31:28Z</time>
      </trkpt>
      <trkpt lat="45.92417" lon="4.44987">
        <ele>388.4</ele>
        <time>2022-06-26T08:31:29Z</time>
      </trkpt>
      <trkpt lat="45.92414" lon="4.4499">
        <ele>388.8</ele>
        <time>2022-06-26T08:31:30Z</time>
      </trkpt>
      <trkpt lat="45.92412" lon="4.44993">
        <ele>388.8</ele>
        <time>2022-06-26T08:31:31Z</time>
      </trkpt>
      <trkpt lat="45.9241" lon="4.44997">
        <ele>389.4</ele>
        <time>2022-06-26T08:31:32Z</time>
      </trkpt>
      <trkpt lat="45.92408" lon="4.45">
        <ele>389.6</ele>
        <time>2022-06-26T08:31:33Z</time>
      </trkpt>
      <trkpt lat="45.92405" lon="4.45004">
        <ele>389.6</ele>
        <time>2022-06-26T08:31:34Z</time>
      </trkpt>
      <trkpt lat="45.92404" lon="4.45007">
        <ele>390</ele>
        <time>2022-06-26T08:31:35Z</time>
      </trkpt>
      <trkpt lat="45.92402" lon="4.4501">
        <ele>390.2</ele>
        <time>2022-06-26T08:31:36Z</time>
      </trkpt>
      <trkpt lat="45.92399" lon="4.45013">
        <ele>390.4</ele>
        <time>2022-06-26T08:31:37Z</time>
      </trkpt>
      <trkpt lat="45.92397" lon="4.45016">
        <ele>390.6</ele>
        <time>2022-06-26T08:31:38Z</time>
      </trkpt>
      <trkpt lat="45.92395" lon="4.45019">
        <ele>390.6</ele>
        <time>2022-06-26T08:31:39Z</time>
      </trkpt>
      <trkpt lat="45.92393" lon="4.45022">
        <ele>391</ele>
        <time>2022-06-26T08:31:40Z</time>
      </trkpt>
      <trkpt lat="45.92391" lon="4.45025">
        <ele>391.2</ele>
        <time>2022-06-26T08:31:41Z</time>
      </trkpt>
      <trkpt lat="45.92389" lon="4.45028">
        <ele>391.2</ele>
        <time>2022-06-26T08:31:42Z</time>
      </trkpt>
      <trkpt lat="45.92388" lon="4.45032">
        <ele>391.6</ele>
        <time>2022-06-26T08:31:43Z</time>
      </trkpt>
      <trkpt lat="45.92386" lon="4.45036">
        <ele>391.6</ele>
        <time>2022-06-26T08:31:44Z</time>
      </trkpt>
      <trkpt lat="45.92384" lon="4.45039">
        <ele>392</ele>
        <time>2022-06-26T08:31:45Z</time>
      </trkpt>
      <trkpt lat="45.92382" lon="4.45044">
        <ele>392</ele>
        <time>2022-06-26T08:31:46Z</time>
      </trkpt>
      <trkpt lat="45.9238" lon="4.45048">
        <ele>392</ele>
        <time>2022-06-26T08:31:47Z</time>
      </trkpt>
      <trkpt lat="45.92379" lon="4.45052">
        <ele>392.2</ele>
        <time>2022-06-26T08:31:48Z</time>
      </trkpt>
      <trkpt lat="45.92377" lon="4.45056">
        <ele>392.4</ele>
        <time>2022-06-26T08:31:49Z</time>
      </trkpt>
      <trkpt lat="45.92375" lon="4.4506">
        <ele>392.8</ele>
        <time>2022-06-26T08:31:50Z</time>
      </trkpt>
      <trkpt lat="45.92374" lon="4.45064">
        <ele>392.8</ele>
        <time>2022-06-26T08:31:51Z</time>
      </trkpt>
      <trkpt lat="45.92373" lon="4.45068">
        <ele>393</ele>
        <time>2022-06-26T08:31:52Z</time>
      </trkpt>
      <trkpt lat="45.92371" lon="4.45073">
        <ele>393</ele>
        <time>2022-06-26T08:31:53Z</time>
      </trkpt>
      <trkpt lat="45.9237" lon="4.45078">
        <ele>393.4</ele>
        <time>2022-06-26T08:31:54Z</time>
      </trkpt>
      <trkpt lat="45.92369" lon="4.45082">
        <ele>393.6</ele>
        <time>2022-06-26T08:31:55Z</time>
      </trkpt>
      <trkpt lat="45.92367" lon="4.45086">
        <ele>393.6</ele>
        <time>2022-06-26T08:31:56Z</time>
      </trkpt>
      <trkpt lat="45.92366" lon="4.4509">
        <ele>394</ele>
        <time>2022-06-26T08:31:57Z</time>
      </trkpt>
      <trkpt lat="45.92365" lon="4.45095">
        <ele>394</ele>
        <time>2022-06-26T08:31:58Z</time>
      </trkpt>
      <trkpt lat="45.92364" lon="4.45099">
        <ele>394.4</ele>
        <time>2022-06-26T08:31:59Z</time>
      </trkpt>
      <trkpt lat="45.92363" lon="4.45103">
        <ele>394.4</ele>
        <time>2022-06-26T08:32:00Z</time>
      </trkpt>
      <trkpt lat="45.92362" lon="4.45108">
        <ele>394.8</ele>
        <time>2022-06-26T08:32:01Z</time>
      </trkpt>
      <trkpt lat="45.92361" lon="4.45112">
        <ele>395</ele>
        <time>2022-06-26T08:32:02Z</time>
      </trkpt>
      <trkpt lat="45.9236" lon="4.45115">
        <ele>395.2</ele>
        <time>2022-06-26T08:32:03Z</time>
      </trkpt>
      <trkpt lat="45.92358" lon="4.45118">
        <ele>395.2</ele>
        <time>2022-06-26T08:32:04Z</time>
      </trkpt>
      <trkpt lat="45.92356" lon="4.4512">
        <ele>395.6</ele>
        <time>2022-06-26T08:32:05Z</time>
      </trkpt>
      <trkpt lat="45.92354" lon="4.45119">
        <ele>396</ele>
        <time>2022-06-26T08:32:06Z</time>
      </trkpt>
      <trkpt lat="45.92352" lon="4.45117">
        <ele>396.2</ele>
        <time>2022-06-26T08:32:07Z</time>
      </trkpt>
      <trkpt lat="45.92351" lon="4.45115">
        <ele>396.4</ele>
        <time>2022-06-26T08:32:08Z</time>
      </trkpt>
      <trkpt lat="45.9235" lon="4.45112">
        <ele>396.8</ele>
        <time>2022-06-26T08:32:09Z</time>
      </trkpt>
      <trkpt lat="45.9235" lon="4.4511">
        <ele>397</ele>
        <time>2022-06-26T08:32:10Z</time>
      </trkpt>
      <trkpt lat="45.92351" lon="4.45108">
        <ele>397.2</ele>
        <time>2022-06-26T08:32:11Z</time>
      </trkpt>
      <trkpt lat="45.92351" lon="4.45105">
        <ele>397.6</ele>
        <time>2022-06-26T08:32:12Z</time>
      </trkpt>
      <trkpt lat="45.92352" lon="4.45102">
        <ele>398</ele>
        <time>2022-06-26T08:32:13Z</time>
      </trkpt>
      <trkpt lat="45.92352" lon="4.45099">
        <ele>398.2</ele>
        <time>2022-06-26T08:32:14Z</time>
      </trkpt>
      <trkpt lat="45.92353" lon="4.45097">
        <ele>398.6</ele>
        <time>2022-06-26T08:32:15Z</time>
      </trkpt>
      <trkpt lat="45.92353" lon="4.45094">
        <ele>398.8</ele>
        <time>2022-06-26T08:32:16Z</time>
      </trkpt>
      <trkpt lat="45.92354" lon="4.45092">
        <ele>399</ele>
        <time>2022-06-26T08:32:17Z</time>
      </trkpt>
      <trkpt lat="45.92354" lon="4.45089">
        <ele>399.2</ele>
        <time>2022-06-26T08:32:18Z</time>
      </trkpt>
      <trkpt lat="45.92355" lon="4.45087">
        <ele>399.4</ele>
        <time>2022-06-26T08:32:19Z</time>
      </trkpt>
      <trkpt lat="45.92355" lon="4.45085">
        <ele>399.8</ele>
        <time>2022-06-26T08:32:20Z</time>
      </trkpt>
      <trkpt lat="45.92356" lon="4.45083">
        <ele>400</ele>
        <time>2022-06-26T08:32:21Z</time>
      </trkpt>
      <trkpt lat="45.92356" lon="4.4508">
        <ele>400.2</ele>
        <time>2022-06-26T08:32:22Z</time>
      </trkpt>
      <trkpt lat="45.92356" lon="4.45078">
        <ele>400.6</ele>
        <time>2022-06-26T08:32:23Z</time>
      </trkpt>
      <trkpt lat="45.92357" lon="4.45076">
        <ele>400.8</ele>
        <time>2022-06-26T08:32:24Z</time>
      </trkpt>
      <trkpt lat="45.92357" lon="4.45074">
        <ele>401.2</ele>
        <time>2022-06-26T08:32:25Z</time>
      </trkpt>
      <trkpt lat="45.92358" lon="4.45072">
        <ele>401.4</ele>
        <time>2022-06-26T08:32:26Z</time>
      </trkpt>
      <trkpt lat="45.92358" lon="4.45069">
        <ele>401.4</ele>
        <time>2022-06-26T08:32:27Z</time>
      </trkpt>
      <trkpt lat="45.92358" lon="4.45066">
        <ele>401.8</ele>
        <time>2022-06-26T08:32:28Z</time>
      </trkpt>
      <trkpt lat="45.92359" lon="4.45064">
        <ele>402</ele>
        <time>2022-06-26T08:32:29Z</time>
      </trkpt>
      <trkpt lat="45.9236" lon="4.45062">
        <ele>402.4</ele>
        <time>2022-06-26T08:32:30Z</time>
      </trkpt>
      <trkpt lat="45.92361" lon="4.4506">
        <ele>402.6</ele>
        <time>2022-06-26T08:32:31Z</time>
      </trkpt>
      <trkpt lat="45.92361" lon="4.45057">
        <ele>402.6</ele>
        <time>2022-06-26T08:32:32Z</time>
      </trkpt>
      <trkpt lat="45.92362" lon="4.45055">
        <ele>403.2</ele>
        <time>2022-06-26T08:32:33Z</time>
      </trkpt>
      <trkpt lat="45.92362" lon="4.45053">
        <ele>403.4</ele>
        <time>2022-06-26T08:32:34Z</time>
      </trkpt>
      <trkpt lat="45.92363" lon="4.4505">
        <ele>403.6</ele>
        <time>2022-06-26T08:32:35Z</time>
      </trkpt>
      <trkpt lat="45.92364" lon="4.45048">
        <ele>404</ele>
        <time>2022-06-26T08:32:36Z</time>
      </trkpt>
      <trkpt lat="45.92364" lon="4.45045">
        <ele>404.2</ele>
        <time>2022-06-26T08:32:37Z</time>
      </trkpt>
      <trkpt lat="45.92365" lon="4.45042">
        <ele>404.6</ele>
        <time>2022-06-26T08:32:38Z</time>
      </trkpt>
      <trkpt lat="45.92366" lon="4.4504">
        <ele>404.8</ele>
        <time>2022-06-26T08:32:39Z</time>
      </trkpt>
      <trkpt lat="45.92366" lon="4.45037">
        <ele>405</ele>
        <time>2022-06-26T08:32:40Z</time>
      </trkpt>
      <trkpt lat="45.92367" lon="4.45035">
        <ele>405.4</ele>
        <time>2022-06-26T08:32:41Z</time>
      </trkpt>
      <trkpt lat="45.92367" lon="4.45032">
        <ele>405.6</ele>
        <time>2022-06-26T08:32:42Z</time>
      </trkpt>
      <trkpt lat="45.92367" lon="4.45029">
        <ele>405.8</ele>
        <time>2022-06-26T08:32:43Z</time>
      </trkpt>
      <trkpt lat="45.92368" lon="4.45027">
        <ele>406.2</ele>
        <time>2022-06-26T08:32:44Z</time>
      </trkpt>
      <trkpt lat="45.92368" lon="4.45024">
        <ele>406.4</ele>
        <time>2022-06-26T08:32:45Z</time>
      </trkpt>
      <trkpt lat="45.92369" lon="4.45021">
        <ele>406.8</ele>
        <time>2022-06-26T08:32:46Z</time>
      </trkpt>
      <trkpt lat="45.92369" lon="4.45019">
        <ele>407.2</ele>
        <time>2022-06-26T08:32:47Z</time>
      </trkpt>
      <trkpt lat="45.92369" lon="4.45017">
        <ele>407.4</ele>
        <time>2022-06-26T08:32:48Z</time>
      </trkpt>
      <trkpt lat="45.9237" lon="4.45014">
        <ele>407.6</ele>
        <time>2022-06-26T08:32:49Z</time>
      </trkpt>
      <trkpt lat="45.92371" lon="4.45012">
        <ele>408</ele>
        <time>2022-06-26T08:32:50Z</time>
      </trkpt>
      <trkpt lat="45.92371" lon="4.4501">
        <ele>408.2</ele>
        <time>2022-06-26T08:32:51Z</time>
      </trkpt>
      <trkpt lat="45.92372" lon="4.45007">
        <ele>408.6</ele>
        <time>2022-06-26T08:32:52Z</time>
      </trkpt>
      <trkpt lat="45.92372" lon="4.45005">
        <ele>408.8</ele>
        <time>2022-06-26T08:32:53Z</time>
      </trkpt>
      <trkpt lat="45.92373" lon="4.45002">
        <ele>409.2</ele>
        <time>2022-06-26T08:32:54Z</time>
      </trkpt>
      <trkpt lat="45.92373" lon="4.44999">
        <ele>409.4</ele>
        <time>2022-06-26T08:32:55Z</time>
      </trkpt>
      <trkpt lat="45.92373" lon="4.44997">
        <ele>409.8</ele>
        <time>2022-06-26T08:32:56Z</time>
      </trkpt>
      <trkpt lat="45.92373" lon="4.44994">
        <ele>410</ele>
        <time>2022-06-26T08:32:57Z</time>
      </trkpt>
      <trkpt lat="45.92373" lon="4.44991">
        <ele>410.4</ele>
        <time>2022-06-26T08:32:58Z</time>
      </trkpt>
      <trkpt lat="45.92374" lon="4.44989">
        <ele>410.6</ele>
        <time>2022-06-26T08:32:59Z</time>
      </trkpt>
      <trkpt lat="45.92374" lon="4.44986">
        <ele>410.8</ele>
        <time>2022-06-26T08:33:00Z</time>
      </trkpt>
      <trkpt lat="45.92375" lon="4.44983">
        <ele>411.2</ele>
        <time>2022-06-26T08:33:01Z</time>
      </trkpt>
      <trkpt lat="45.92375" lon="4.4498">
        <ele>411.4</ele>
        <time>2022-06-26T08:33:02Z</time>
      </trkpt>
      <trkpt lat="45.92376" lon="4.44977">
        <ele>411.8</ele>
        <time>2022-06-26T08:33:03Z</time>
      </trkpt>
      <trkpt lat="45.92377" lon="4.44975">
        <ele>412</ele>
        <time>2022-06-26T08:33:04Z</time>
      </trkpt>
      <trkpt lat="45.92377" lon="4.44972">
        <ele>412.4</ele>
        <time>2022-06-26T08:33:05Z</time>
      </trkpt>
      <trkpt lat="45.92378" lon="4.4497">
        <ele>412.6</ele>
        <time>2022-06-26T08:33:06Z</time>
      </trkpt>
      <trkpt lat="45.92378" lon="4.44967">
        <ele>413</ele>
        <time>2022-06-26T08:33:07Z</time>
      </trkpt>
      <trkpt lat="45.92379" lon="4.44965">
        <ele>413.2</ele>
        <time>2022-06-26T08:33:08Z</time>
      </trkpt>
      <trkpt lat="45.9238" lon="4.44963">
        <ele>413.6</ele>
        <time>2022-06-26T08:33:09Z</time>
      </trkpt>
      <trkpt lat="45.9238" lon="4.4496">
        <ele>413.8</ele>
        <time>2022-06-26T08:33:10Z</time>
      </trkpt>
      <trkpt lat="45.92381" lon="4.44957">
        <ele>414</ele>
        <time>2022-06-26T08:33:11Z</time>
      </trkpt>
      <trkpt lat="45.92382" lon="4.44955">
        <ele>414.4</ele>
        <time>2022-06-26T08:33:12Z</time>
      </trkpt>
      <trkpt lat="45.92382" lon="4.44952">
        <ele>414.6</ele>
        <time>2022-06-26T08:33:13Z</time>
      </trkpt>
      <trkpt lat="45.92383" lon="4.4495">
        <ele>415</ele>
        <time>2022-06-26T08:33:14Z</time>
      </trkpt>
      <trkpt lat="45.92383" lon="4.44947">
        <ele>415.2</ele>
        <time>2022-06-26T08:33:15Z</time>
      </trkpt>
      <trkpt lat="45.92383" lon="4.44945">
        <ele>415.4</ele>
        <time>2022-06-26T08:33:16Z</time>
      </trkpt>
      <trkpt lat="45.92384" lon="4.44942">
        <ele>415.8</ele>
        <time>2022-06-26T08:33:17Z</time>
      </trkpt>
      <trkpt lat="45.92384" lon="4.4494">
        <ele>416</ele>
        <time>2022-06-26T08:33:18Z</time>
      </trkpt>
      <trkpt lat="45.92385" lon="4.44938">
        <ele>416.2</ele>
        <time>2022-06-26T08:33:19Z</time>
      </trkpt>
      <trkpt lat="45.92385" lon="4.44936">
        <ele>416.4</ele>
        <time>2022-06-26T08:33:20Z</time>
      </trkpt>
      <trkpt lat="45.92385" lon="4.44934">
        <ele>416.4</ele>
        <time>2022-06-26T08:33:21Z</time>
      </trkpt>
      <trkpt lat="45.92385" lon="4.44932">
        <ele>416.8</ele>
        <time>2022-06-26T08:33:22Z</time>
      </trkpt>
      <trkpt lat="45.92386" lon="4.4493">
        <ele>417</ele>
        <time>2022-06-26T08:33:23Z</time>
      </trkpt>
      <trkpt lat="45.92386" lon="4.44928">
        <ele>417.2</ele>
        <time>2022-06-26T08:33:24Z</time>
      </trkpt>
      <trkpt lat="45.92386" lon="4.44927">
        <ele>417.4</ele>
        <time>2022-06-26T08:33:25Z</time>
      </trkpt>
      <trkpt lat="45.92386" lon="4.44924">
        <ele>417.6</ele>
        <time>2022-06-26T08:33:26Z</time>
      </trkpt>
      <trkpt lat="45.92387" lon="4.44922">
        <ele>417.6</ele>
        <time>2022-06-26T08:33:27Z</time>
      </trkpt>
      <trkpt lat="45.92387" lon="4.4492">
        <ele>418</ele>
        <time>2022-06-26T08:33:28Z</time>
      </trkpt>
      <trkpt lat="45.92387" lon="4.44918">
        <ele>418.4</ele>
        <time>2022-06-26T08:33:29Z</time>
      </trkpt>
      <trkpt lat="45.92387" lon="4.44916">
        <ele>418.6</ele>
        <time>2022-06-26T08:33:30Z</time>
      </trkpt>
      <trkpt lat="45.92387" lon="4.44914">
        <ele>418.6</ele>
        <time>2022-06-26T08:33:31Z</time>
      </trkpt>
      <trkpt lat="45.92387" lon="4.44912">
        <ele>419</ele>
        <time>2022-06-26T08:33:32Z</time>
      </trkpt>
      <trkpt lat="45.92387" lon="4.4491">
        <ele>419.2</ele>
        <time>2022-06-26T08:33:33Z</time>
      </trkpt>
      <trkpt lat="45.92387" lon="4.44908">
        <ele>419.4</ele>
        <time>2022-06-26T08:33:34Z</time>
      </trkpt>
      <trkpt lat="45.92387" lon="4.44905">
        <ele>419.8</ele>
        <time>2022-06-26T08:33:35Z</time>
      </trkpt>
      <trkpt lat="45.92388" lon="4.44903">
        <ele>420</ele>
        <time>2022-06-26T08:33:36Z</time>
      </trkpt>
      <trkpt lat="45.92388" lon="4.44901">
        <ele>420.4</ele>
        <time>2022-06-26T08:33:37Z</time>
      </trkpt>
      <trkpt lat="45.92387" lon="4.44899">
        <ele>420.6</ele>
        <time>2022-06-26T08:33:38Z</time>
      </trkpt>
      <trkpt lat="45.92387" lon="4.44897">
        <ele>420.6</ele>
        <time>2022-06-26T08:33:39Z</time>
      </trkpt>
      <trkpt lat="45.92387" lon="4.44894">
        <ele>421</ele>
        <time>2022-06-26T08:33:40Z</time>
      </trkpt>
      <trkpt lat="45.92386" lon="4.44892">
        <ele>421</ele>
        <time>2022-06-26T08:33:41Z</time>
      </trkpt>
      <trkpt lat="45.92386" lon="4.4489">
        <ele>421.4</ele>
        <time>2022-06-26T08:33:42Z</time>
      </trkpt>
      <trkpt lat="45.92385" lon="4.44888">
        <ele>421.6</ele>
        <time>2022-06-26T08:33:43Z</time>
      </trkpt>
      <trkpt lat="45.92385" lon="4.44886">
        <ele>421.8</ele>
        <time>2022-06-26T08:33:44Z</time>
      </trkpt>
      <trkpt lat="45.92384" lon="4.44884">
        <ele>422.2</ele>
        <time>2022-06-26T08:33:45Z</time>
      </trkpt>
      <trkpt lat="45.92383" lon="4.44882">
        <ele>422.4</ele>
        <time>2022-06-26T08:33:46Z</time>
      </trkpt>
      <trkpt lat="45.92382" lon="4.4488">
        <ele>422.8</ele>
        <time>2022-06-26T08:33:47Z</time>
      </trkpt>
      <trkpt lat="45.92381" lon="4.44878">
        <ele>423</ele>
        <time>2022-06-26T08:33:48Z</time>
      </trkpt>
      <trkpt lat="45.9238" lon="4.44876">
        <ele>423.4</ele>
        <time>2022-06-26T08:33:49Z</time>
      </trkpt>
      <trkpt lat="45.9238" lon="4.44874">
        <ele>423.4</ele>
        <time>2022-06-26T08:33:50Z</time>
      </trkpt>
      <trkpt lat="45.92379" lon="4.44872">
        <ele>423.8</ele>
        <time>2022-06-26T08:33:51Z</time>
      </trkpt>
      <trkpt lat="45.92378" lon="4.4487">
        <ele>424</ele>
        <time>2022-06-26T08:33:52Z</time>
      </trkpt>
      <trkpt lat="45.92377" lon="4.44868">
        <ele>424.2</ele>
        <time>2022-06-26T08:33:53Z</time>
      </trkpt>
      <trkpt lat="45.92376" lon="4.44867">
        <ele>424.4</ele>
        <time>2022-06-26T08:33:54Z</time>
      </trkpt>
      <trkpt lat="45.92374" lon="4.44865">
        <ele>424.8</ele>
        <time>2022-06-26T08:33:55Z</time>
      </trkpt>
      <trkpt lat="45.92373" lon="4.44863">
        <ele>425</ele>
        <time>2022-06-26T08:33:56Z</time>
      </trkpt>
      <trkpt lat="45.92371" lon="4.44859">
        <ele>425</ele>
        <time>2022-06-26T08:33:57Z</time>
      </trkpt>
      <trkpt lat="45.9237" lon="4.44857">
        <ele>425.4</ele>
        <time>2022-06-26T08:33:58Z</time>
      </trkpt>
      <trkpt lat="45.92369" lon="4.44855">
        <ele>425.4</ele>
        <time>2022-06-26T08:33:59Z</time>
      </trkpt>
      <trkpt lat="45.92368" lon="4.44853">
        <ele>425.8</ele>
        <time>2022-06-26T08:34:00Z</time>
      </trkpt>
      <trkpt lat="45.92367" lon="4.44851">
        <ele>425.8</ele>
        <time>2022-06-26T08:34:01Z</time>
      </trkpt>
      <trkpt lat="45.92366" lon="4.44849">
        <ele>426.2</ele>
        <time>2022-06-26T08:34:02Z</time>
      </trkpt>
      <trkpt lat="45.92365" lon="4.44847">
        <ele>426.4</ele>
        <time>2022-06-26T08:34:03Z</time>
      </trkpt>
      <trkpt lat="45.92364" lon="4.44845">
        <ele>426.6</ele>
        <time>2022-06-26T08:34:04Z</time>
      </trkpt>
      <trkpt lat="45.92363" lon="4.44843">
        <ele>427</ele>
        <time>2022-06-26T08:34:05Z</time>
      </trkpt>
      <trkpt lat="45.92362" lon="4.44841">
        <ele>427.2</ele>
        <time>2022-06-26T08:34:06Z</time>
      </trkpt>
      <trkpt lat="45.92361" lon="4.44839">
        <ele>427.4</ele>
        <time>2022-06-26T08:34:07Z</time>
      </trkpt>
      <trkpt lat="45.9236" lon="4.44837">
        <ele>427.6</ele>
        <time>2022-06-26T08:34:08Z</time>
      </trkpt>
      <trkpt lat="45.92358" lon="4.44835">
        <ele>428</ele>
        <time>2022-06-26T08:34:09Z</time>
      </trkpt>
      <trkpt lat="45.92357" lon="4.44833">
        <ele>428.2</ele>
        <time>2022-06-26T08:34:10Z</time>
      </trkpt>
      <trkpt lat="45.92356" lon="4.44831">
        <ele>428.4</ele>
        <time>2022-06-26T08:34:11Z</time>
      </trkpt>
      <trkpt lat="45.92355" lon="4.44829">
        <ele>428.6</ele>
        <time>2022-06-26T08:34:12Z</time>
      </trkpt>
      <trkpt lat="45.92354" lon="4.44826">
        <ele>428.6</ele>
        <time>2022-06-26T08:34:13Z</time>
      </trkpt>
      <trkpt lat="45.92353" lon="4.44824">
        <ele>429</ele>
        <time>2022-06-26T08:34:14Z</time>
      </trkpt>
      <trkpt lat="45.92352" lon="4.44822">
        <ele>429</ele>
        <time>2022-06-26T08:34:15Z</time>
      </trkpt>
      <trkpt lat="45.92351" lon="4.4482">
        <ele>429.4</ele>
        <time>2022-06-26T08:34:16Z</time>
      </trkpt>
      <trkpt lat="45.9235" lon="4.44818">
        <ele>429.6</ele>
        <time>2022-06-26T08:34:17Z</time>
      </trkpt>
      <trkpt lat="45.92349" lon="4.44816">
        <ele>429.8</ele>
        <time>2022-06-26T08:34:18Z</time>
      </trkpt>
      <trkpt lat="45.92348" lon="4.44814">
        <ele>430</ele>
        <time>2022-06-26T08:34:19Z</time>
      </trkpt>
      <trkpt lat="45.92347" lon="4.44812">
        <ele>430.2</ele>
        <time>2022-06-26T08:34:20Z</time>
      </trkpt>
      <trkpt lat="45.92347" lon="4.4481">
        <ele>430.6</ele>
        <time>2022-06-26T08:34:21Z</time>
      </trkpt>
      <trkpt lat="45.92346" lon="4.44808">
        <ele>430.8</ele>
        <time>2022-06-26T08:34:22Z</time>
      </trkpt>
      <trkpt lat="45.92345" lon="4.44806">
        <ele>430.8</ele>
        <time>2022-06-26T08:34:23Z</time>
      </trkpt>
      <trkpt lat="45.92344" lon="4.44804">
        <ele>431.2</ele>
        <time>2022-06-26T08:34:24Z</time>
      </trkpt>
      <trkpt lat="45.92343" lon="4.44802">
        <ele>431.6</ele>
        <time>2022-06-26T08:34:25Z</time>
      </trkpt>
      <trkpt lat="45.92342" lon="4.448">
        <ele>431.8</ele>
        <time>2022-06-26T08:34:26Z</time>
      </trkpt>
      <trkpt lat="45.92341" lon="4.44798">
        <ele>431.8</ele>
        <time>2022-06-26T08:34:27Z</time>
      </trkpt>
      <trkpt lat="45.9234" lon="4.44796">
        <ele>432</ele>
        <time>2022-06-26T08:34:28Z</time>
      </trkpt>
      <trkpt lat="45.92339" lon="4.44794">
        <ele>432.4</ele>
        <time>2022-06-26T08:34:29Z</time>
      </trkpt>
      <trkpt lat="45.92338" lon="4.44792">
        <ele>432.6</ele>
        <time>2022-06-26T08:34:30Z</time>
      </trkpt>
      <trkpt lat="45.92337" lon="4.44791">
        <ele>433</ele>
        <time>2022-06-26T08:34:31Z</time>
      </trkpt>
      <trkpt lat="45.92336" lon="4.44789">
        <ele>433.2</ele>
        <time>2022-06-26T08:34:32Z</time>
      </trkpt>
      <trkpt lat="45.92335" lon="4.44787">
        <ele>433.4</ele>
        <time>2022-06-26T08:34:33Z</time>
      </trkpt>
      <trkpt lat="45.92334" lon="4.44786">
        <ele>433.6</ele>
        <time>2022-06-26T08:34:34Z</time>
      </trkpt>
      <trkpt lat="45.92333" lon="4.44784">
        <ele>433.8</ele>
        <time>2022-06-26T08:34:35Z</time>
      </trkpt>
      <trkpt lat="45.92331" lon="4.44783">
        <ele>434</ele>
        <time>2022-06-26T08:34:36Z</time>
      </trkpt>
      <trkpt lat="45.9233" lon="4.44781">
        <ele>434</ele>
        <time>2022-06-26T08:34:37Z</time>
      </trkpt>
      <trkpt lat="45.92329" lon="4.4478">
        <ele>434.4</ele>
        <time>2022-06-26T08:34:38Z</time>
      </trkpt>
      <trkpt lat="45.92328" lon="4.44778">
        <ele>434.6</ele>
        <time>2022-06-26T08:34:39Z</time>
      </trkpt>
      <trkpt lat="45.92327" lon="4.44777">
        <ele>434.8</ele>
        <time>2022-06-26T08:34:40Z</time>
      </trkpt>
      <trkpt lat="45.92326" lon="4.44776">
        <ele>435</ele>
        <time>2022-06-26T08:34:41Z</time>
      </trkpt>
      <trkpt lat="45.92325" lon="4.44774">
        <ele>435</ele>
        <time>2022-06-26T08:34:42Z</time>
      </trkpt>
      <trkpt lat="45.92324" lon="4.44773">
        <ele>435.4</ele>
        <time>2022-06-26T08:34:43Z</time>
      </trkpt>
      <trkpt lat="45.92323" lon="4.44771">
        <ele>435.4</ele>
        <time>2022-06-26T08:34:44Z</time>
      </trkpt>
      <trkpt lat="45.92322" lon="4.4477">
        <ele>435.8</ele>
        <time>2022-06-26T08:34:45Z</time>
      </trkpt>
      <trkpt lat="45.9232" lon="4.44769">
        <ele>435.8</ele>
        <time>2022-06-26T08:34:46Z</time>
      </trkpt>
      <trkpt lat="45.92319" lon="4.44768">
        <ele>436.2</ele>
        <time>2022-06-26T08:34:47Z</time>
      </trkpt>
      <trkpt lat="45.92318" lon="4.44766">
        <ele>436.4</ele>
        <time>2022-06-26T08:34:48Z</time>
      </trkpt>
      <trkpt lat="45.92317" lon="4.44765">
        <ele>436.4</ele>
        <time>2022-06-26T08:34:49Z</time>
      </trkpt>
      <trkpt lat="45.92316" lon="4.44764">
        <ele>436.8</ele>
        <time>2022-06-26T08:34:50Z</time>
      </trkpt>
      <trkpt lat="45.92315" lon="4.44763">
        <ele>437</ele>
        <time>2022-06-26T08:34:51Z</time>
      </trkpt>
      <trkpt lat="45.92314" lon="4.44761">
        <ele>437</ele>
        <time>2022-06-26T08:34:52Z</time>
      </trkpt>
      <trkpt lat="45.92313" lon="4.4476">
        <ele>437.4</ele>
        <time>2022-06-26T08:34:53Z</time>
      </trkpt>
      <trkpt lat="45.92312" lon="4.44758">
        <ele>437.4</ele>
        <time>2022-06-26T08:34:54Z</time>
      </trkpt>
      <trkpt lat="45.9231" lon="4.44757">
        <ele>437.8</ele>
        <time>2022-06-26T08:34:55Z</time>
      </trkpt>
      <trkpt lat="45.92309" lon="4.44757">
        <ele>437.8</ele>
        <time>2022-06-26T08:34:56Z</time>
      </trkpt>
      <trkpt lat="45.92307" lon="4.44756">
        <ele>438</ele>
        <time>2022-06-26T08:34:57Z</time>
      </trkpt>
      <trkpt lat="45.92306" lon="4.44755">
        <ele>438</ele>
        <time>2022-06-26T08:34:58Z</time>
      </trkpt>
      <trkpt lat="45.92305" lon="4.44754">
        <ele>438.4</ele>
        <time>2022-06-26T08:34:59Z</time>
      </trkpt>
      <trkpt lat="45.92304" lon="4.44753">
        <ele>438.6</ele>
        <time>2022-06-26T08:35:00Z</time>
      </trkpt>
      <trkpt lat="45.92302" lon="4.44752">
        <ele>438.8</ele>
        <time>2022-06-26T08:35:01Z</time>
      </trkpt>
      <trkpt lat="45.923" lon="4.44751">
        <ele>439</ele>
        <time>2022-06-26T08:35:02Z</time>
      </trkpt>
      <trkpt lat="45.92299" lon="4.4475">
        <ele>439</ele>
        <time>2022-06-26T08:35:03Z</time>
      </trkpt>
      <trkpt lat="45.92297" lon="4.44749">
        <ele>439.4</ele>
        <time>2022-06-26T08:35:04Z</time>
      </trkpt>
      <trkpt lat="45.92296" lon="4.44748">
        <ele>439.4</ele>
        <time>2022-06-26T08:35:05Z</time>
      </trkpt>
      <trkpt lat="45.92295" lon="4.44747">
        <ele>439.8</ele>
        <time>2022-06-26T08:35:06Z</time>
      </trkpt>
      <trkpt lat="45.92293" lon="4.44746">
        <ele>440</ele>
        <time>2022-06-26T08:35:07Z</time>
      </trkpt>
      <trkpt lat="45.92292" lon="4.44745">
        <ele>440.2</ele>
        <time>2022-06-26T08:35:08Z</time>
      </trkpt>
      <trkpt lat="45.9229" lon="4.44744">
        <ele>440.2</ele>
        <time>2022-06-26T08:35:09Z</time>
      </trkpt>
      <trkpt lat="45.92288" lon="4.44743">
        <ele>440.6</ele>
        <time>2022-06-26T08:35:10Z</time>
      </trkpt>
      <trkpt lat="45.92287" lon="4.44743">
        <ele>440.8</ele>
        <time>2022-06-26T08:35:11Z</time>
      </trkpt>
      <trkpt lat="45.92285" lon="4.44742">
        <ele>440.8</ele>
        <time>2022-06-26T08:35:12Z</time>
      </trkpt>
      <trkpt lat="45.92284" lon="4.44741">
        <ele>441.2</ele>
        <time>2022-06-26T08:35:13Z</time>
      </trkpt>
      <trkpt lat="45.92283" lon="4.4474">
        <ele>441.2</ele>
        <time>2022-06-26T08:35:14Z</time>
      </trkpt>
      <trkpt lat="45.92281" lon="4.44739">
        <ele>441.6</ele>
        <time>2022-06-26T08:35:15Z</time>
      </trkpt>
      <trkpt lat="45.9228" lon="4.44738">
        <ele>441.6</ele>
        <time>2022-06-26T08:35:16Z</time>
      </trkpt>
      <trkpt lat="45.92278" lon="4.44737">
        <ele>441.8</ele>
        <time>2022-06-26T08:35:17Z</time>
      </trkpt>
      <trkpt lat="45.92277" lon="4.44736">
        <ele>441.8</ele>
        <time>2022-06-26T08:35:18Z</time>
      </trkpt>
      <trkpt lat="45.92276" lon="4.44735">
        <ele>442.2</ele>
        <time>2022-06-26T08:35:19Z</time>
      </trkpt>
      <trkpt lat="45.92274" lon="4.44735">
        <ele>442.6</ele>
        <time>2022-06-26T08:35:20Z</time>
      </trkpt>
      <trkpt lat="45.92272" lon="4.44734">
        <ele>442.8</ele>
        <time>2022-06-26T08:35:21Z</time>
      </trkpt>
      <trkpt lat="45.92271" lon="4.44733">
        <ele>443</ele>
        <time>2022-06-26T08:35:22Z</time>
      </trkpt>
      <trkpt lat="45.92269" lon="4.44732">
        <ele>443</ele>
        <time>2022-06-26T08:35:23Z</time>
      </trkpt>
      <trkpt lat="45.92268" lon="4.44731">
        <ele>443.4</ele>
        <time>2022-06-26T08:35:24Z</time>
      </trkpt>
      <trkpt lat="45.92266" lon="4.4473">
        <ele>443.6</ele>
        <time>2022-06-26T08:35:25Z</time>
      </trkpt>
      <trkpt lat="45.92265" lon="4.44729">
        <ele>443.6</ele>
        <time>2022-06-26T08:35:26Z</time>
      </trkpt>
      <trkpt lat="45.92264" lon="4.44728">
        <ele>444</ele>
        <time>2022-06-26T08:35:27Z</time>
      </trkpt>
      <trkpt lat="45.92262" lon="4.44727">
        <ele>444</ele>
        <time>2022-06-26T08:35:28Z</time>
      </trkpt>
      <trkpt lat="45.92261" lon="4.44725">
        <ele>444.4</ele>
        <time>2022-06-26T08:35:29Z</time>
      </trkpt>
      <trkpt lat="45.92259" lon="4.44725">
        <ele>444.4</ele>
        <time>2022-06-26T08:35:30Z</time>
      </trkpt>
      <trkpt lat="45.92258" lon="4.44724">
        <ele>444.8</ele>
        <time>2022-06-26T08:35:31Z</time>
      </trkpt>
      <trkpt lat="45.92257" lon="4.44723">
        <ele>445</ele>
        <time>2022-06-26T08:35:32Z</time>
      </trkpt>
      <trkpt lat="45.92255" lon="4.44722">
        <ele>445</ele>
        <time>2022-06-26T08:35:33Z</time>
      </trkpt>
      <trkpt lat="45.92254" lon="4.4472">
        <ele>445.4</ele>
        <time>2022-06-26T08:35:34Z</time>
      </trkpt>
      <trkpt lat="45.92253" lon="4.44719">
        <ele>445.4</ele>
        <time>2022-06-26T08:35:35Z</time>
      </trkpt>
      <trkpt lat="45.92251" lon="4.44718">
        <ele>445.8</ele>
        <time>2022-06-26T08:35:36Z</time>
      </trkpt>
      <trkpt lat="45.9225" lon="4.44717">
        <ele>446</ele>
        <time>2022-06-26T08:35:37Z</time>
      </trkpt>
      <trkpt lat="45.92248" lon="4.44716">
        <ele>446</ele>
        <time>2022-06-26T08:35:38Z</time>
      </trkpt>
      <trkpt lat="45.92246" lon="4.44715">
        <ele>446.4</ele>
        <time>2022-06-26T08:35:39Z</time>
      </trkpt>
      <trkpt lat="45.92245" lon="4.44714">
        <ele>446.8</ele>
        <time>2022-06-26T08:35:40Z</time>
      </trkpt>
      <trkpt lat="45.92243" lon="4.44712">
        <ele>447</ele>
        <time>2022-06-26T08:35:41Z</time>
      </trkpt>
      <trkpt lat="45.92242" lon="4.44711">
        <ele>447.2</ele>
        <time>2022-06-26T08:35:42Z</time>
      </trkpt>
      <trkpt lat="45.92241" lon="4.4471">
        <ele>447.4</ele>
        <time>2022-06-26T08:35:43Z</time>
      </trkpt>
      <trkpt lat="45.9224" lon="4.44708">
        <ele>447.4</ele>
        <time>2022-06-26T08:35:44Z</time>
      </trkpt>
      <trkpt lat="45.92238" lon="4.44707">
        <ele>447.8</ele>
        <time>2022-06-26T08:35:45Z</time>
      </trkpt>
      <trkpt lat="45.92237" lon="4.44705">
        <ele>448</ele>
        <time>2022-06-26T08:35:46Z</time>
      </trkpt>
      <trkpt lat="45.92236" lon="4.44704">
        <ele>448</ele>
        <time>2022-06-26T08:35:47Z</time>
      </trkpt>
      <trkpt lat="45.92235" lon="4.44702">
        <ele>448.4</ele>
        <time>2022-06-26T08:35:48Z</time>
      </trkpt>
      <trkpt lat="45.92234" lon="4.447">
        <ele>448.6</ele>
        <time>2022-06-26T08:35:49Z</time>
      </trkpt>
      <trkpt lat="45.92232" lon="4.44699">
        <ele>448.8</ele>
        <time>2022-06-26T08:35:50Z</time>
      </trkpt>
      <trkpt lat="45.92231" lon="4.44698">
        <ele>449</ele>
        <time>2022-06-26T08:35:51Z</time>
      </trkpt>
      <trkpt lat="45.9223" lon="4.44697">
        <ele>449</ele>
        <time>2022-06-26T08:35:52Z</time>
      </trkpt>
      <trkpt lat="45.92229" lon="4.44695">
        <ele>449.4</ele>
        <time>2022-06-26T08:35:53Z</time>
      </trkpt>
      <trkpt lat="45.92227" lon="4.44694">
        <ele>449.4</ele>
        <time>2022-06-26T08:35:54Z</time>
      </trkpt>
      <trkpt lat="45.92226" lon="4.44693">
        <ele>449.8</ele>
        <time>2022-06-26T08:35:55Z</time>
      </trkpt>
      <trkpt lat="45.92225" lon="4.44692">
        <ele>450</ele>
        <time>2022-06-26T08:35:56Z</time>
      </trkpt>
      <trkpt lat="45.92223" lon="4.44691">
        <ele>450.2</ele>
        <time>2022-06-26T08:35:57Z</time>
      </trkpt>
      <trkpt lat="45.92222" lon="4.4469">
        <ele>450.2</ele>
        <time>2022-06-26T08:35:58Z</time>
      </trkpt>
      <trkpt lat="45.92221" lon="4.4469">
        <ele>450.8</ele>
        <time>2022-06-26T08:35:59Z</time>
      </trkpt>
      <trkpt lat="45.92219" lon="4.44688">
        <ele>450.8</ele>
        <time>2022-06-26T08:36:00Z</time>
      </trkpt>
      <trkpt lat="45.92218" lon="4.44687">
        <ele>451</ele>
        <time>2022-06-26T08:36:01Z</time>
      </trkpt>
      <trkpt lat="45.92217" lon="4.44686">
        <ele>451</ele>
        <time>2022-06-26T08:36:02Z</time>
      </trkpt>
      <trkpt lat="45.92215" lon="4.44685">
        <ele>451.4</ele>
        <time>2022-06-26T08:36:03Z</time>
      </trkpt>
      <trkpt lat="45.92214" lon="4.44685">
        <ele>451.8</ele>
        <time>2022-06-26T08:36:04Z</time>
      </trkpt>
      <trkpt lat="45.92212" lon="4.44684">
        <ele>451.8</ele>
        <time>2022-06-26T08:36:05Z</time>
      </trkpt>
      <trkpt lat="45.92211" lon="4.44683">
        <ele>452</ele>
        <time>2022-06-26T08:36:06Z</time>
      </trkpt>
      <trkpt lat="45.9221" lon="4.44682">
        <ele>452.4</ele>
        <time>2022-06-26T08:36:07Z</time>
      </trkpt>
      <trkpt lat="45.92208" lon="4.4468">
        <ele>452.6</ele>
        <time>2022-06-26T08:36:08Z</time>
      </trkpt>
      <trkpt lat="45.92207" lon="4.4468">
        <ele>453</ele>
        <time>2022-06-26T08:36:09Z</time>
      </trkpt>
      <trkpt lat="45.92206" lon="4.44679">
        <ele>453.2</ele>
        <time>2022-06-26T08:36:10Z</time>
      </trkpt>
      <trkpt lat="45.92204" lon="4.44678">
        <ele>453.2</ele>
        <time>2022-06-26T08:36:11Z</time>
      </trkpt>
      <trkpt lat="45.92203" lon="4.44677">
        <ele>453.6</ele>
        <time>2022-06-26T08:36:12Z</time>
      </trkpt>
      <trkpt lat="45.92202" lon="4.44676">
        <ele>453.6</ele>
        <time>2022-06-26T08:36:13Z</time>
      </trkpt>
      <trkpt lat="45.92201" lon="4.44675">
        <ele>454</ele>
        <time>2022-06-26T08:36:14Z</time>
      </trkpt>
      <trkpt lat="45.92199" lon="4.44674">
        <ele>454.2</ele>
        <time>2022-06-26T08:36:15Z</time>
      </trkpt>
      <trkpt lat="45.92198" lon="4.44673">
        <ele>454.2</ele>
        <time>2022-06-26T08:36:16Z</time>
      </trkpt>
      <trkpt lat="45.92197" lon="4.44672">
        <ele>454.6</ele>
        <time>2022-06-26T08:36:17Z</time>
      </trkpt>
      <trkpt lat="45.92195" lon="4.44671">
        <ele>454.8</ele>
        <time>2022-06-26T08:36:18Z</time>
      </trkpt>
      <trkpt lat="45.92194" lon="4.4467">
        <ele>455</ele>
        <time>2022-06-26T08:36:19Z</time>
      </trkpt>
      <trkpt lat="45.92193" lon="4.44669">
        <ele>455.2</ele>
        <time>2022-06-26T08:36:20Z</time>
      </trkpt>
      <trkpt lat="45.92191" lon="4.44668">
        <ele>455.4</ele>
        <time>2022-06-26T08:36:21Z</time>
      </trkpt>
      <trkpt lat="45.9219" lon="4.44667">
        <ele>455.8</ele>
        <time>2022-06-26T08:36:22Z</time>
      </trkpt>
      <trkpt lat="45.92188" lon="4.44666">
        <ele>456</ele>
        <time>2022-06-26T08:36:23Z</time>
      </trkpt>
      <trkpt lat="45.92187" lon="4.44665">
        <ele>456.2</ele>
        <time>2022-06-26T08:36:24Z</time>
      </trkpt>
      <trkpt lat="45.92186" lon="4.44664">
        <ele>456.6</ele>
        <time>2022-06-26T08:36:25Z</time>
      </trkpt>
      <trkpt lat="45.92184" lon="4.44663">
        <ele>456.8</ele>
        <time>2022-06-26T08:36:26Z</time>
      </trkpt>
      <trkpt lat="45.92183" lon="4.44662">
        <ele>457</ele>
        <time>2022-06-26T08:36:27Z</time>
      </trkpt>
      <trkpt lat="45.92181" lon="4.44661">
        <ele>457.2</ele>
        <time>2022-06-26T08:36:28Z</time>
      </trkpt>
      <trkpt lat="45.9218" lon="4.44661">
        <ele>457.2</ele>
        <time>2022-06-26T08:36:29Z</time>
      </trkpt>
      <trkpt lat="45.92178" lon="4.4466">
        <ele>457.8</ele>
        <time>2022-06-26T08:36:30Z</time>
      </trkpt>
      <trkpt lat="45.92177" lon="4.44659">
        <ele>458</ele>
        <time>2022-06-26T08:36:31Z</time>
      </trkpt>
      <trkpt lat="45.92175" lon="4.44658">
        <ele>458.2</ele>
        <time>2022-06-26T08:36:32Z</time>
      </trkpt>
      <trkpt lat="45.92174" lon="4.44657">
        <ele>458.6</ele>
        <time>2022-06-26T08:36:33Z</time>
      </trkpt>
      <trkpt lat="45.92173" lon="4.44656">
        <ele>458.8</ele>
        <time>2022-06-26T08:36:34Z</time>
      </trkpt>
      <trkpt lat="45.92171" lon="4.44655">
        <ele>459</ele>
        <time>2022-06-26T08:36:35Z</time>
      </trkpt>
      <trkpt lat="45.9217" lon="4.44655">
        <ele>459.2</ele>
        <time>2022-06-26T08:36:36Z</time>
      </trkpt>
      <trkpt lat="45.92168" lon="4.44654">
        <ele>459.4</ele>
        <time>2022-06-26T08:36:37Z</time>
      </trkpt>
      <trkpt lat="45.92167" lon="4.44653">
        <ele>459.4</ele>
        <time>2022-06-26T08:36:38Z</time>
      </trkpt>
      <trkpt lat="45.92165" lon="4.44653">
        <ele>459.8</ele>
        <time>2022-06-26T08:36:39Z</time>
      </trkpt>
      <trkpt lat="45.92163" lon="4.44652">
        <ele>460</ele>
        <time>2022-06-26T08:36:40Z</time>
      </trkpt>
      <trkpt lat="45.92162" lon="4.44652">
        <ele>460.4</ele>
        <time>2022-06-26T08:36:41Z</time>
      </trkpt>
      <trkpt lat="45.92161" lon="4.44651">
        <ele>460.6</ele>
        <time>2022-06-26T08:36:42Z</time>
      </trkpt>
      <trkpt lat="45.92159" lon="4.4465">
        <ele>460.6</ele>
        <time>2022-06-26T08:36:43Z</time>
      </trkpt>
      <trkpt lat="45.92158" lon="4.4465">
        <ele>461</ele>
        <time>2022-06-26T08:36:44Z</time>
      </trkpt>
      <trkpt lat="45.92157" lon="4.44649">
        <ele>461.2</ele>
        <time>2022-06-26T08:36:45Z</time>
      </trkpt>
      <trkpt lat="45.92155" lon="4.44648">
        <ele>461.4</ele>
        <time>2022-06-26T08:36:46Z</time>
      </trkpt>
      <trkpt lat="45.92154" lon="4.44648">
        <ele>461.8</ele>
        <time>2022-06-26T08:36:47Z</time>
      </trkpt>
      <trkpt lat="45.92152" lon="4.44648">
        <ele>461.8</ele>
        <time>2022-06-26T08:36:48Z</time>
      </trkpt>
      <trkpt lat="45.92151" lon="4.44648">
        <ele>462</ele>
        <time>2022-06-26T08:36:49Z</time>
      </trkpt>
      <trkpt lat="45.92149" lon="4.44647">
        <ele>462.4</ele>
        <time>2022-06-26T08:36:50Z</time>
      </trkpt>
      <trkpt lat="45.92148" lon="4.44647">
        <ele>462.6</ele>
        <time>2022-06-26T08:36:51Z</time>
      </trkpt>
      <trkpt lat="45.92146" lon="4.44646">
        <ele>463</ele>
        <time>2022-06-26T08:36:52Z</time>
      </trkpt>
      <trkpt lat="45.92144" lon="4.44646">
        <ele>463.2</ele>
        <time>2022-06-26T08:36:53Z</time>
      </trkpt>
      <trkpt lat="45.92142" lon="4.44645">
        <ele>463.4</ele>
        <time>2022-06-26T08:36:54Z</time>
      </trkpt>
      <trkpt lat="45.9214" lon="4.44644">
        <ele>463.4</ele>
        <time>2022-06-26T08:36:55Z</time>
      </trkpt>
      <trkpt lat="45.92138" lon="4.44643">
        <ele>463.8</ele>
        <time>2022-06-26T08:36:56Z</time>
      </trkpt>
      <trkpt lat="45.92136" lon="4.44643">
        <ele>464.2</ele>
        <time>2022-06-26T08:36:57Z</time>
      </trkpt>
      <trkpt lat="45.92135" lon="4.44642">
        <ele>464.2</ele>
        <time>2022-06-26T08:36:58Z</time>
      </trkpt>
      <trkpt lat="45.92133" lon="4.44642">
        <ele>464.4</ele>
        <time>2022-06-26T08:36:59Z</time>
      </trkpt>
      <trkpt lat="45.92132" lon="4.44641">
        <ele>464.8</ele>
        <time>2022-06-26T08:37:00Z</time>
      </trkpt>
      <trkpt lat="45.9213" lon="4.4464">
        <ele>465</ele>
        <time>2022-06-26T08:37:01Z</time>
      </trkpt>
      <trkpt lat="45.92129" lon="4.4464">
        <ele>465.4</ele>
        <time>2022-06-26T08:37:02Z</time>
      </trkpt>
      <trkpt lat="45.92127" lon="4.44639">
        <ele>465.6</ele>
        <time>2022-06-26T08:37:03Z</time>
      </trkpt>
      <trkpt lat="45.92126" lon="4.44638">
        <ele>465.8</ele>
        <time>2022-06-26T08:37:04Z</time>
      </trkpt>
      <trkpt lat="45.92124" lon="4.44637">
        <ele>466</ele>
        <time>2022-06-26T08:37:05Z</time>
      </trkpt>
      <trkpt lat="45.92123" lon="4.44636">
        <ele>466.4</ele>
        <time>2022-06-26T08:37:06Z</time>
      </trkpt>
      <trkpt lat="45.92122" lon="4.44635">
        <ele>466.6</ele>
        <time>2022-06-26T08:37:07Z</time>
      </trkpt>
      <trkpt lat="45.9212" lon="4.44634">
        <ele>466.8</ele>
        <time>2022-06-26T08:37:08Z</time>
      </trkpt>
      <trkpt lat="45.92119" lon="4.44633">
        <ele>467</ele>
        <time>2022-06-26T08:37:09Z</time>
      </trkpt>
      <trkpt lat="45.92118" lon="4.44632">
        <ele>467</ele>
        <time>2022-06-26T08:37:10Z</time>
      </trkpt>
      <trkpt lat="45.92116" lon="4.44631">
        <ele>467.4</ele>
        <time>2022-06-26T08:37:11Z</time>
      </trkpt>
      <trkpt lat="45.92115" lon="4.4463">
        <ele>467.6</ele>
        <time>2022-06-26T08:37:12Z</time>
      </trkpt>
      <trkpt lat="45.92114" lon="4.44629">
        <ele>468</ele>
        <time>2022-06-26T08:37:13Z</time>
      </trkpt>
      <trkpt lat="45.92113" lon="4.44629">
        <ele>468.2</ele>
        <time>2022-06-26T08:37:14Z</time>
      </trkpt>
      <trkpt lat="45.92112" lon="4.44628">
        <ele>468.4</ele>
        <time>2022-06-26T08:37:15Z</time>
      </trkpt>
      <trkpt lat="45.9211" lon="4.44627">
        <ele>468.6</ele>
        <time>2022-06-26T08:37:16Z</time>
      </trkpt>
      <trkpt lat="45.92108" lon="4.44626">
        <ele>468.8</ele>
        <time>2022-06-26T08:37:17Z</time>
      </trkpt>
      <trkpt lat="45.92107" lon="4.44625">
        <ele>469</ele>
        <time>2022-06-26T08:37:18Z</time>
      </trkpt>
      <trkpt lat="45.92105" lon="4.44624">
        <ele>469.4</ele>
        <time>2022-06-26T08:37:19Z</time>
      </trkpt>
      <trkpt lat="45.92104" lon="4.44623">
        <ele>469.6</ele>
        <time>2022-06-26T08:37:20Z</time>
      </trkpt>
      <trkpt lat="45.92103" lon="4.44622">
        <ele>469.8</ele>
        <time>2022-06-26T08:37:21Z</time>
      </trkpt>
      <trkpt lat="45.92101" lon="4.44621">
        <ele>470</ele>
        <time>2022-06-26T08:37:22Z</time>
      </trkpt>
      <trkpt lat="45.921" lon="4.44621">
        <ele>470</ele>
        <time>2022-06-26T08:37:23Z</time>
      </trkpt>
      <trkpt lat="45.92098" lon="4.4462">
        <ele>470.4</ele>
        <time>2022-06-26T08:37:24Z</time>
      </trkpt>
      <trkpt lat="45.92096" lon="4.44619">
        <ele>470.4</ele>
        <time>2022-06-26T08:37:25Z</time>
      </trkpt>
      <trkpt lat="45.92094" lon="4.44618">
        <ele>470.8</ele>
        <time>2022-06-26T08:37:26Z</time>
      </trkpt>
      <trkpt lat="45.92093" lon="4.44617">
        <ele>471</ele>
        <time>2022-06-26T08:37:27Z</time>
      </trkpt>
      <trkpt lat="45.92091" lon="4.44616">
        <ele>471</ele>
        <time>2022-06-26T08:37:28Z</time>
      </trkpt>
      <trkpt lat="45.9209" lon="4.44616">
        <ele>471.4</ele>
        <time>2022-06-26T08:37:29Z</time>
      </trkpt>
      <trkpt lat="45.92088" lon="4.44615">
        <ele>471.6</ele>
        <time>2022-06-26T08:37:30Z</time>
      </trkpt>
      <trkpt lat="45.92087" lon="4.44615">
        <ele>471.8</ele>
        <time>2022-06-26T08:37:31Z</time>
      </trkpt>
      <trkpt lat="45.92086" lon="4.44614">
        <ele>472</ele>
        <time>2022-06-26T08:37:32Z</time>
      </trkpt>
      <trkpt lat="45.92084" lon="4.44614">
        <ele>472.2</ele>
        <time>2022-06-26T08:37:33Z</time>
      </trkpt>
      <trkpt lat="45.92082" lon="4.44614">
        <ele>472.4</ele>
        <time>2022-06-26T08:37:34Z</time>
      </trkpt>
      <trkpt lat="45.92081" lon="4.44613">
        <ele>472.4</ele>
        <time>2022-06-26T08:37:35Z</time>
      </trkpt>
      <trkpt lat="45.92079" lon="4.44613">
        <ele>472.8</ele>
        <time>2022-06-26T08:37:36Z</time>
      </trkpt>
      <trkpt lat="45.92077" lon="4.44612">
        <ele>472.8</ele>
        <time>2022-06-26T08:37:37Z</time>
      </trkpt>
      <trkpt lat="45.92076" lon="4.44612">
        <ele>473.2</ele>
        <time>2022-06-26T08:37:38Z</time>
      </trkpt>
      <trkpt lat="45.92074" lon="4.44612">
        <ele>473.2</ele>
        <time>2022-06-26T08:37:39Z</time>
      </trkpt>
      <trkpt lat="45.92073" lon="4.44611">
        <ele>473.6</ele>
        <time>2022-06-26T08:37:40Z</time>
      </trkpt>
      <trkpt lat="45.92072" lon="4.44611">
        <ele>473.8</ele>
        <time>2022-06-26T08:37:41Z</time>
      </trkpt>
      <trkpt lat="45.9207" lon="4.44611">
        <ele>473.8</ele>
        <time>2022-06-26T08:37:42Z</time>
      </trkpt>
      <trkpt lat="45.92068" lon="4.44611">
        <ele>474.2</ele>
        <time>2022-06-26T08:37:43Z</time>
      </trkpt>
      <trkpt lat="45.92067" lon="4.44612">
        <ele>474.4</ele>
        <time>2022-06-26T08:37:44Z</time>
      </trkpt>
      <trkpt lat="45.92066" lon="4.44612">
        <ele>474.4</ele>
        <time>2022-06-26T08:37:45Z</time>
      </trkpt>
      <trkpt lat="45.92064" lon="4.44613">
        <ele>474.8</ele>
        <time>2022-06-26T08:37:46Z</time>
      </trkpt>
      <trkpt lat="45.92063" lon="4.44613">
        <ele>474.8</ele>
        <time>2022-06-26T08:37:47Z</time>
      </trkpt>
      <trkpt lat="45.92061" lon="4.44614">
        <ele>475.2</ele>
        <time>2022-06-26T08:37:48Z</time>
      </trkpt>
      <trkpt lat="45.92059" lon="4.44615">
        <ele>475.4</ele>
        <time>2022-06-26T08:37:49Z</time>
      </trkpt>
      <trkpt lat="45.92058" lon="4.44615">
        <ele>475.6</ele>
        <time>2022-06-26T08:37:50Z</time>
      </trkpt>
      <trkpt lat="45.92056" lon="4.44615">
        <ele>475.6</ele>
        <time>2022-06-26T08:37:51Z</time>
      </trkpt>
      <trkpt lat="45.92054" lon="4.44616">
        <ele>475.8</ele>
        <time>2022-06-26T08:37:52Z</time>
      </trkpt>
      <trkpt lat="45.92053" lon="4.44616">
        <ele>475.8</ele>
        <time>2022-06-26T08:37:53Z</time>
      </trkpt>
      <trkpt lat="45.92051" lon="4.44616">
        <ele>476.2</ele>
        <time>2022-06-26T08:37:54Z</time>
      </trkpt>
      <trkpt lat="45.9205" lon="4.44617">
        <ele>476.2</ele>
        <time>2022-06-26T08:37:55Z</time>
      </trkpt>
      <trkpt lat="45.92048" lon="4.44617">
        <ele>476.6</ele>
        <time>2022-06-26T08:37:56Z</time>
      </trkpt>
      <trkpt lat="45.92047" lon="4.44618">
        <ele>476.6</ele>
        <time>2022-06-26T08:37:57Z</time>
      </trkpt>
      <trkpt lat="45.92046" lon="4.44619">
        <ele>476.8</ele>
        <time>2022-06-26T08:37:58Z</time>
      </trkpt>
      <trkpt lat="45.92044" lon="4.4462">
        <ele>477.2</ele>
        <time>2022-06-26T08:37:59Z</time>
      </trkpt>
      <trkpt lat="45.92043" lon="4.4462">
        <ele>477.2</ele>
        <time>2022-06-26T08:38:00Z</time>
      </trkpt>
      <trkpt lat="45.92041" lon="4.44621">
        <ele>477.4</ele>
        <time>2022-06-26T08:38:01Z</time>
      </trkpt>
      <trkpt lat="45.9204" lon="4.44622">
        <ele>477.4</ele>
        <time>2022-06-26T08:38:02Z</time>
      </trkpt>
      <trkpt lat="45.92038" lon="4.44622">
        <ele>477.8</ele>
        <time>2022-06-26T08:38:03Z</time>
      </trkpt>
      <trkpt lat="45.92037" lon="4.44623">
        <ele>477.8</ele>
        <time>2022-06-26T08:38:04Z</time>
      </trkpt>
      <trkpt lat="45.92035" lon="4.44624">
        <ele>478</ele>
        <time>2022-06-26T08:38:05Z</time>
      </trkpt>
      <trkpt lat="45.92033" lon="4.44624">
        <ele>478</ele>
        <time>2022-06-26T08:38:06Z</time>
      </trkpt>
      <trkpt lat="45.92032" lon="4.44624">
        <ele>478.6</ele>
        <time>2022-06-26T08:38:07Z</time>
      </trkpt>
      <trkpt lat="45.9203" lon="4.44625">
        <ele>478.8</ele>
        <time>2022-06-26T08:38:08Z</time>
      </trkpt>
      <trkpt lat="45.92029" lon="4.44626">
        <ele>479</ele>
        <time>2022-06-26T08:38:09Z</time>
      </trkpt>
      <trkpt lat="45.92027" lon="4.44626">
        <ele>479</ele>
        <time>2022-06-26T08:38:10Z</time>
      </trkpt>
      <trkpt lat="45.92026" lon="4.44627">
        <ele>479.4</ele>
        <time>2022-06-26T08:38:11Z</time>
      </trkpt>
      <trkpt lat="45.92024" lon="4.44628">
        <ele>479.6</ele>
        <time>2022-06-26T08:38:12Z</time>
      </trkpt>
      <trkpt lat="45.92023" lon="4.44628">
        <ele>479.6</ele>
        <time>2022-06-26T08:38:13Z</time>
      </trkpt>
      <trkpt lat="45.92021" lon="4.44629">
        <ele>480</ele>
        <time>2022-06-26T08:38:14Z</time>
      </trkpt>
      <trkpt lat="45.9202" lon="4.4463">
        <ele>480</ele>
        <time>2022-06-26T08:38:15Z</time>
      </trkpt>
      <trkpt lat="45.92018" lon="4.4463">
        <ele>480</ele>
        <time>2022-06-26T08:38:16Z</time>
      </trkpt>
      <trkpt lat="45.92017" lon="4.44631">
        <ele>480.2</ele>
        <time>2022-06-26T08:38:17Z</time>
      </trkpt>
      <trkpt lat="45.92015" lon="4.44632">
        <ele>480.2</ele>
        <time>2022-06-26T08:38:18Z</time>
      </trkpt>
      <trkpt lat="45.92014" lon="4.44633">
        <ele>480.6</ele>
        <time>2022-06-26T08:38:19Z</time>
      </trkpt>
      <trkpt lat="45.92012" lon="4.44633">
        <ele>480.6</ele>
        <time>2022-06-26T08:38:20Z</time>
      </trkpt>
      <trkpt lat="45.92011" lon="4.44634">
        <ele>481</ele>
        <time>2022-06-26T08:38:21Z</time>
      </trkpt>
      <trkpt lat="45.92009" lon="4.44634">
        <ele>481</ele>
        <time>2022-06-26T08:38:22Z</time>
      </trkpt>
      <trkpt lat="45.92008" lon="4.44635">
        <ele>481.2</ele>
        <time>2022-06-26T08:38:23Z</time>
      </trkpt>
      <trkpt lat="45.92006" lon="4.44636">
        <ele>481.4</ele>
        <time>2022-06-26T08:38:24Z</time>
      </trkpt>
      <trkpt lat="45.92004" lon="4.44636">
        <ele>481.4</ele>
        <time>2022-06-26T08:38:25Z</time>
      </trkpt>
      <trkpt lat="45.92003" lon="4.44637">
        <ele>481.6</ele>
        <time>2022-06-26T08:38:26Z</time>
      </trkpt>
      <trkpt lat="45.92002" lon="4.44638">
        <ele>481.6</ele>
        <time>2022-06-26T08:38:27Z</time>
      </trkpt>
      <trkpt lat="45.92" lon="4.44639">
        <ele>482</ele>
        <time>2022-06-26T08:38:28Z</time>
      </trkpt>
      <trkpt lat="45.91999" lon="4.4464">
        <ele>482.2</ele>
        <time>2022-06-26T08:38:29Z</time>
      </trkpt>
      <trkpt lat="45.91997" lon="4.4464">
        <ele>482.6</ele>
        <time>2022-06-26T08:38:30Z</time>
      </trkpt>
      <trkpt lat="45.91996" lon="4.44641">
        <ele>482.6</ele>
        <time>2022-06-26T08:38:31Z</time>
      </trkpt>
      <trkpt lat="45.91994" lon="4.44642">
        <ele>482.8</ele>
        <time>2022-06-26T08:38:32Z</time>
      </trkpt>
      <trkpt lat="45.91992" lon="4.44643">
        <ele>482.8</ele>
        <time>2022-06-26T08:38:33Z</time>
      </trkpt>
      <trkpt lat="45.91991" lon="4.44644">
        <ele>483.2</ele>
        <time>2022-06-26T08:38:34Z</time>
      </trkpt>
      <trkpt lat="45.9199" lon="4.44645">
        <ele>483.4</ele>
        <time>2022-06-26T08:38:35Z</time>
      </trkpt>
      <trkpt lat="45.91988" lon="4.44646">
        <ele>483.4</ele>
        <time>2022-06-26T08:38:36Z</time>
      </trkpt>
      <trkpt lat="45.91987" lon="4.44647">
        <ele>483.8</ele>
        <time>2022-06-26T08:38:37Z</time>
      </trkpt>
      <trkpt lat="45.91985" lon="4.44648">
        <ele>483.8</ele>
        <time>2022-06-26T08:38:38Z</time>
      </trkpt>
      <trkpt lat="45.91983" lon="4.44648">
        <ele>484.2</ele>
        <time>2022-06-26T08:38:39Z</time>
      </trkpt>
      <trkpt lat="45.91982" lon="4.44649">
        <ele>484.2</ele>
        <time>2022-06-26T08:38:40Z</time>
      </trkpt>
      <trkpt lat="45.9198" lon="4.4465">
        <ele>484.4</ele>
        <time>2022-06-26T08:38:41Z</time>
      </trkpt>
      <trkpt lat="45.91978" lon="4.44651">
        <ele>484.4</ele>
        <time>2022-06-26T08:38:42Z</time>
      </trkpt>
      <trkpt lat="45.91977" lon="4.44651">
        <ele>484.6</ele>
        <time>2022-06-26T08:38:43Z</time>
      </trkpt>
      <trkpt lat="45.91975" lon="4.44652">
        <ele>484.6</ele>
        <time>2022-06-26T08:38:44Z</time>
      </trkpt>
      <trkpt lat="45.91974" lon="4.44654">
        <ele>485</ele>
        <time>2022-06-26T08:38:45Z</time>
      </trkpt>
      <trkpt lat="45.91972" lon="4.44655">
        <ele>485</ele>
        <time>2022-06-26T08:38:46Z</time>
      </trkpt>
      <trkpt lat="45.91971" lon="4.44656">
        <ele>485.4</ele>
        <time>2022-06-26T08:38:47Z</time>
      </trkpt>
      <trkpt lat="45.91969" lon="4.44658">
        <ele>485.4</ele>
        <time>2022-06-26T08:38:48Z</time>
      </trkpt>
      <trkpt lat="45.91968" lon="4.44659">
        <ele>485.8</ele>
        <time>2022-06-26T08:38:49Z</time>
      </trkpt>
      <trkpt lat="45.91967" lon="4.4466">
        <ele>486</ele>
        <time>2022-06-26T08:38:50Z</time>
      </trkpt>
      <trkpt lat="45.91965" lon="4.44662">
        <ele>486</ele>
        <time>2022-06-26T08:38:51Z</time>
      </trkpt>
      <trkpt lat="45.91964" lon="4.44664">
        <ele>486.4</ele>
        <time>2022-06-26T08:38:52Z</time>
      </trkpt>
      <trkpt lat="45.91962" lon="4.44665">
        <ele>486.4</ele>
        <time>2022-06-26T08:38:53Z</time>
      </trkpt>
      <trkpt lat="45.9196" lon="4.44666">
        <ele>486.8</ele>
        <time>2022-06-26T08:38:54Z</time>
      </trkpt>
      <trkpt lat="45.91959" lon="4.44667">
        <ele>486.8</ele>
        <time>2022-06-26T08:38:55Z</time>
      </trkpt>
      <trkpt lat="45.91958" lon="4.44669">
        <ele>487</ele>
        <time>2022-06-26T08:38:56Z</time>
      </trkpt>
      <trkpt lat="45.91956" lon="4.4467">
        <ele>487</ele>
        <time>2022-06-26T08:38:57Z</time>
      </trkpt>
      <trkpt lat="45.91955" lon="4.44672">
        <ele>487.2</ele>
        <time>2022-06-26T08:38:58Z</time>
      </trkpt>
      <trkpt lat="45.91954" lon="4.44674">
        <ele>487.2</ele>
        <time>2022-06-26T08:38:59Z</time>
      </trkpt>
      <trkpt lat="45.91953" lon="4.44675">
        <ele>487.6</ele>
        <time>2022-06-26T08:39:00Z</time>
      </trkpt>
      <trkpt lat="45.91952" lon="4.44677">
        <ele>487.6</ele>
        <time>2022-06-26T08:39:01Z</time>
      </trkpt>
      <trkpt lat="45.91951" lon="4.44678">
        <ele>488</ele>
        <time>2022-06-26T08:39:02Z</time>
      </trkpt>
      <trkpt lat="45.91949" lon="4.4468">
        <ele>488</ele>
        <time>2022-06-26T08:39:03Z</time>
      </trkpt>
      <trkpt lat="45.91948" lon="4.44681">
        <ele>488.2</ele>
        <time>2022-06-26T08:39:04Z</time>
      </trkpt>
      <trkpt lat="45.91947" lon="4.44683">
        <ele>488.6</ele>
        <time>2022-06-26T08:39:05Z</time>
      </trkpt>
      <trkpt lat="45.91946" lon="4.44684">
        <ele>488.6</ele>
        <time>2022-06-26T08:39:06Z</time>
      </trkpt>
      <trkpt lat="45.91944" lon="4.44685">
        <ele>488.8</ele>
        <time>2022-06-26T08:39:07Z</time>
      </trkpt>
      <trkpt lat="45.91943" lon="4.44686">
        <ele>488.8</ele>
        <time>2022-06-26T08:39:08Z</time>
      </trkpt>
      <trkpt lat="45.91942" lon="4.44687">
        <ele>489.2</ele>
        <time>2022-06-26T08:39:09Z</time>
      </trkpt>
      <trkpt lat="45.9194" lon="4.44688">
        <ele>489.4</ele>
        <time>2022-06-26T08:39:10Z</time>
      </trkpt>
      <trkpt lat="45.91939" lon="4.44689">
        <ele>489.4</ele>
        <time>2022-06-26T08:39:11Z</time>
      </trkpt>
      <trkpt lat="45.91938" lon="4.44691">
        <ele>489.8</ele>
        <time>2022-06-26T08:39:12Z</time>
      </trkpt>
      <trkpt lat="45.91937" lon="4.44692">
        <ele>489.8</ele>
        <time>2022-06-26T08:39:13Z</time>
      </trkpt>
      <trkpt lat="45.91936" lon="4.44693">
        <ele>490.2</ele>
        <time>2022-06-26T08:39:14Z</time>
      </trkpt>
      <trkpt lat="45.91935" lon="4.44695">
        <ele>490.4</ele>
        <time>2022-06-26T08:39:15Z</time>
      </trkpt>
      <trkpt lat="45.91933" lon="4.44696">
        <ele>490.4</ele>
        <time>2022-06-26T08:39:16Z</time>
      </trkpt>
      <trkpt lat="45.91932" lon="4.44698">
        <ele>490.8</ele>
        <time>2022-06-26T08:39:17Z</time>
      </trkpt>
      <trkpt lat="45.9193" lon="4.44699">
        <ele>490.8</ele>
        <time>2022-06-26T08:39:18Z</time>
      </trkpt>
      <trkpt lat="45.91929" lon="4.44701">
        <ele>491</ele>
        <time>2022-06-26T08:39:19Z</time>
      </trkpt>
      <trkpt lat="45.91927" lon="4.44703">
        <ele>491</ele>
        <time>2022-06-26T08:39:20Z</time>
      </trkpt>
      <trkpt lat="45.91926" lon="4.44705">
        <ele>491.4</ele>
        <time>2022-06-26T08:39:21Z</time>
      </trkpt>
      <trkpt lat="45.91924" lon="4.44707">
        <ele>491.6</ele>
        <time>2022-06-26T08:39:22Z</time>
      </trkpt>
      <trkpt lat="45.91923" lon="4.44709">
        <ele>491.6</ele>
        <time>2022-06-26T08:39:23Z</time>
      </trkpt>
      <trkpt lat="45.91922" lon="4.4471">
        <ele>492</ele>
        <time>2022-06-26T08:39:24Z</time>
      </trkpt>
      <trkpt lat="45.91921" lon="4.44712">
        <ele>492.2</ele>
        <time>2022-06-26T08:39:25Z</time>
      </trkpt>
      <trkpt lat="45.9192" lon="4.44714">
        <ele>492.4</ele>
        <time>2022-06-26T08:39:26Z</time>
      </trkpt>
      <trkpt lat="45.91919" lon="4.44715">
        <ele>492.4</ele>
        <time>2022-06-26T08:39:27Z</time>
      </trkpt>
      <trkpt lat="45.91918" lon="4.44717">
        <ele>492.6</ele>
        <time>2022-06-26T08:39:28Z</time>
      </trkpt>
      <trkpt lat="45.91917" lon="4.44718">
        <ele>492.6</ele>
        <time>2022-06-26T08:39:29Z</time>
      </trkpt>
      <trkpt lat="45.91916" lon="4.4472">
        <ele>493</ele>
        <time>2022-06-26T08:39:30Z</time>
      </trkpt>
      <trkpt lat="45.91914" lon="4.44721">
        <ele>493</ele>
        <time>2022-06-26T08:39:31Z</time>
      </trkpt>
      <trkpt lat="45.91913" lon="4.44722">
        <ele>493.4</ele>
        <time>2022-06-26T08:39:32Z</time>
      </trkpt>
      <trkpt lat="45.91912" lon="4.44724">
        <ele>493.6</ele>
        <time>2022-06-26T08:39:33Z</time>
      </trkpt>
      <trkpt lat="45.9191" lon="4.44725">
        <ele>493.8</ele>
        <time>2022-06-26T08:39:34Z</time>
      </trkpt>
      <trkpt lat="45.91909" lon="4.44727">
        <ele>493.8</ele>
        <time>2022-06-26T08:39:35Z</time>
      </trkpt>
      <trkpt lat="45.91908" lon="4.44728">
        <ele>494.2</ele>
        <time>2022-06-26T08:39:36Z</time>
      </trkpt>
      <trkpt lat="45.91907" lon="4.4473">
        <ele>494.2</ele>
        <time>2022-06-26T08:39:37Z</time>
      </trkpt>
      <trkpt lat="45.91905" lon="4.44731">
        <ele>494.6</ele>
        <time>2022-06-26T08:39:38Z</time>
      </trkpt>
      <trkpt lat="45.91904" lon="4.44733">
        <ele>494.6</ele>
        <time>2022-06-26T08:39:39Z</time>
      </trkpt>
      <trkpt lat="45.91902" lon="4.44734">
        <ele>494.8</ele>
        <time>2022-06-26T08:39:40Z</time>
      </trkpt>
      <trkpt lat="45.91901" lon="4.44736">
        <ele>494.8</ele>
        <time>2022-06-26T08:39:41Z</time>
      </trkpt>
      <trkpt lat="45.91899" lon="4.44737">
        <ele>495.2</ele>
        <time>2022-06-26T08:39:42Z</time>
      </trkpt>
      <trkpt lat="45.91897" lon="4.44739">
        <ele>495.4</ele>
        <time>2022-06-26T08:39:43Z</time>
      </trkpt>
      <trkpt lat="45.91896" lon="4.44741">
        <ele>495.6</ele>
        <time>2022-06-26T08:39:44Z</time>
      </trkpt>
      <trkpt lat="45.91895" lon="4.44742">
        <ele>495.6</ele>
        <time>2022-06-26T08:39:45Z</time>
      </trkpt>
      <trkpt lat="45.91893" lon="4.44744">
        <ele>496</ele>
        <time>2022-06-26T08:39:46Z</time>
      </trkpt>
      <trkpt lat="45.91892" lon="4.44746">
        <ele>496</ele>
        <time>2022-06-26T08:39:47Z</time>
      </trkpt>
      <trkpt lat="45.91891" lon="4.44748">
        <ele>496.4</ele>
        <time>2022-06-26T08:39:48Z</time>
      </trkpt>
      <trkpt lat="45.9189" lon="4.4475">
        <ele>496.4</ele>
        <time>2022-06-26T08:39:49Z</time>
      </trkpt>
      <trkpt lat="45.91889" lon="4.44751">
        <ele>496.8</ele>
        <time>2022-06-26T08:39:50Z</time>
      </trkpt>
      <trkpt lat="45.91888" lon="4.44752">
        <ele>497</ele>
        <time>2022-06-26T08:39:51Z</time>
      </trkpt>
      <trkpt lat="45.91886" lon="4.44754">
        <ele>497.4</ele>
        <time>2022-06-26T08:39:52Z</time>
      </trkpt>
      <trkpt lat="45.91885" lon="4.44755">
        <ele>497.6</ele>
        <time>2022-06-26T08:39:53Z</time>
      </trkpt>
      <trkpt lat="45.91883" lon="4.44756">
        <ele>497.6</ele>
        <time>2022-06-26T08:39:54Z</time>
      </trkpt>
      <trkpt lat="45.91882" lon="4.44758">
        <ele>498</ele>
        <time>2022-06-26T08:39:55Z</time>
      </trkpt>
      <trkpt lat="45.9188" lon="4.44759">
        <ele>498</ele>
        <time>2022-06-26T08:39:56Z</time>
      </trkpt>
      <trkpt lat="45.91879" lon="4.44761">
        <ele>498.4</ele>
        <time>2022-06-26T08:39:57Z</time>
      </trkpt>
      <trkpt lat="45.91878" lon="4.44762">
        <ele>498.6</ele>
        <time>2022-06-26T08:39:58Z</time>
      </trkpt>
      <trkpt lat="45.91876" lon="4.44763">
        <ele>498.6</ele>
        <time>2022-06-26T08:39:59Z</time>
      </trkpt>
      <trkpt lat="45.91875" lon="4.44765">
        <ele>499</ele>
        <time>2022-06-26T08:40:00Z</time>
      </trkpt>
      <trkpt lat="45.91873" lon="4.44766">
        <ele>499</ele>
        <time>2022-06-26T08:40:01Z</time>
      </trkpt>
      <trkpt lat="45.91872" lon="4.44768">
        <ele>499.4</ele>
        <time>2022-06-26T08:40:02Z</time>
      </trkpt>
      <trkpt lat="45.91871" lon="4.44769">
        <ele>499.6</ele>
        <time>2022-06-26T08:40:03Z</time>
      </trkpt>
      <trkpt lat="45.91869" lon="4.44771">
        <ele>500</ele>
        <time>2022-06-26T08:40:04Z</time>
      </trkpt>
      <trkpt lat="45.91868" lon="4.44772">
        <ele>500</ele>
        <time>2022-06-26T08:40:05Z</time>
      </trkpt>
      <trkpt lat="45.91867" lon="4.44774">
        <ele>500.4</ele>
        <time>2022-06-26T08:40:06Z</time>
      </trkpt>
      <trkpt lat="45.91865" lon="4.44775">
        <ele>500.6</ele>
        <time>2022-06-26T08:40:07Z</time>
      </trkpt>
      <trkpt lat="45.91864" lon="4.44777">
        <ele>500.8</ele>
        <time>2022-06-26T08:40:08Z</time>
      </trkpt>
      <trkpt lat="45.91862" lon="4.44778">
        <ele>501</ele>
        <time>2022-06-26T08:40:09Z</time>
      </trkpt>
      <trkpt lat="45.91861" lon="4.44779">
        <ele>501.4</ele>
        <time>2022-06-26T08:40:10Z</time>
      </trkpt>
      <trkpt lat="45.91859" lon="4.4478">
        <ele>501.4</ele>
        <time>2022-06-26T08:40:11Z</time>
      </trkpt>
      <trkpt lat="45.91857" lon="4.44781">
        <ele>501.6</ele>
        <time>2022-06-26T08:40:12Z</time>
      </trkpt>
      <trkpt lat="45.91856" lon="4.44782">
        <ele>501.6</ele>
        <time>2022-06-26T08:40:13Z</time>
      </trkpt>
      <trkpt lat="45.91854" lon="4.44783">
        <ele>502</ele>
        <time>2022-06-26T08:40:14Z</time>
      </trkpt>
      <trkpt lat="45.91853" lon="4.44784">
        <ele>502</ele>
        <time>2022-06-26T08:40:15Z</time>
      </trkpt>
      <trkpt lat="45.91852" lon="4.44786">
        <ele>502.4</ele>
        <time>2022-06-26T08:40:16Z</time>
      </trkpt>
      <trkpt lat="45.91851" lon="4.44787">
        <ele>502.8</ele>
        <time>2022-06-26T08:40:17Z</time>
      </trkpt>
      <trkpt lat="45.91849" lon="4.44788">
        <ele>503</ele>
        <time>2022-06-26T08:40:18Z</time>
      </trkpt>
      <trkpt lat="45.91848" lon="4.44789">
        <ele>503.2</ele>
        <time>2022-06-26T08:40:19Z</time>
      </trkpt>
      <trkpt lat="45.91846" lon="4.4479">
        <ele>503.2</ele>
        <time>2022-06-26T08:40:20Z</time>
      </trkpt>
      <trkpt lat="45.91844" lon="4.44791">
        <ele>503.6</ele>
        <time>2022-06-26T08:40:21Z</time>
      </trkpt>
      <trkpt lat="45.91843" lon="4.44792">
        <ele>503.8</ele>
        <time>2022-06-26T08:40:22Z</time>
      </trkpt>
      <trkpt lat="45.91841" lon="4.44792">
        <ele>504</ele>
        <time>2022-06-26T08:40:23Z</time>
      </trkpt>
      <trkpt lat="45.9184" lon="4.44793">
        <ele>504.2</ele>
        <time>2022-06-26T08:40:24Z</time>
      </trkpt>
      <trkpt lat="45.91838" lon="4.44794">
        <ele>504.2</ele>
        <time>2022-06-26T08:40:25Z</time>
      </trkpt>
      <trkpt lat="45.91837" lon="4.44796">
        <ele>504.6</ele>
        <time>2022-06-26T08:40:26Z</time>
      </trkpt>
      <trkpt lat="45.91836" lon="4.44797">
        <ele>504.6</ele>
        <time>2022-06-26T08:40:27Z</time>
      </trkpt>
      <trkpt lat="45.91835" lon="4.44798">
        <ele>505</ele>
        <time>2022-06-26T08:40:28Z</time>
      </trkpt>
      <trkpt lat="45.91833" lon="4.44799">
        <ele>505</ele>
        <time>2022-06-26T08:40:29Z</time>
      </trkpt>
      <trkpt lat="45.91832" lon="4.448">
        <ele>505.4</ele>
        <time>2022-06-26T08:40:30Z</time>
      </trkpt>
      <trkpt lat="45.9183" lon="4.44801">
        <ele>505.4</ele>
        <time>2022-06-26T08:40:31Z</time>
      </trkpt>
      <trkpt lat="45.91829" lon="4.44802">
        <ele>505.8</ele>
        <time>2022-06-26T08:40:32Z</time>
      </trkpt>
      <trkpt lat="45.91828" lon="4.44803">
        <ele>506</ele>
        <time>2022-06-26T08:40:33Z</time>
      </trkpt>
      <trkpt lat="45.91826" lon="4.44804">
        <ele>506.2</ele>
        <time>2022-06-26T08:40:34Z</time>
      </trkpt>
      <trkpt lat="45.91824" lon="4.44805">
        <ele>506.4</ele>
        <time>2022-06-26T08:40:35Z</time>
      </trkpt>
      <trkpt lat="45.91823" lon="4.44806">
        <ele>506.8</ele>
        <time>2022-06-26T08:40:36Z</time>
      </trkpt>
      <trkpt lat="45.91821" lon="4.44807">
        <ele>507</ele>
        <time>2022-06-26T08:40:37Z</time>
      </trkpt>
      <trkpt lat="45.9182" lon="4.44808">
        <ele>507.2</ele>
        <time>2022-06-26T08:40:38Z</time>
      </trkpt>
      <trkpt lat="45.91818" lon="4.44809">
        <ele>507.2</ele>
        <time>2022-06-26T08:40:39Z</time>
      </trkpt>
      <trkpt lat="45.91817" lon="4.4481">
        <ele>507.6</ele>
        <time>2022-06-26T08:40:40Z</time>
      </trkpt>
      <trkpt lat="45.91815" lon="4.44811">
        <ele>507.8</ele>
        <time>2022-06-26T08:40:41Z</time>
      </trkpt>
      <trkpt lat="45.91814" lon="4.44812">
        <ele>507.8</ele>
        <time>2022-06-26T08:40:42Z</time>
      </trkpt>
      <trkpt lat="45.91812" lon="4.44813">
        <ele>508.6</ele>
        <time>2022-06-26T08:40:44Z</time>
      </trkpt>
      <trkpt lat="45.91811" lon="4.44814">
        <ele>508.8</ele>
        <time>2022-06-26T08:40:45Z</time>
      </trkpt>
      <trkpt lat="45.91809" lon="4.44815">
        <ele>509</ele>
        <time>2022-06-26T08:40:46Z</time>
      </trkpt>
      <trkpt lat="45.91807" lon="4.44816">
        <ele>509.4</ele>
        <time>2022-06-26T08:40:47Z</time>
      </trkpt>
      <trkpt lat="45.91806" lon="4.44817">
        <ele>509.6</ele>
        <time>2022-06-26T08:40:48Z</time>
      </trkpt>
      <trkpt lat="45.91804" lon="4.44818">
        <ele>509.8</ele>
        <time>2022-06-26T08:40:49Z</time>
      </trkpt>
      <trkpt lat="45.91803" lon="4.44819">
        <ele>509.8</ele>
        <time>2022-06-26T08:40:50Z</time>
      </trkpt>
      <trkpt lat="45.91801" lon="4.4482">
        <ele>510.2</ele>
        <time>2022-06-26T08:40:51Z</time>
      </trkpt>
      <trkpt lat="45.918" lon="4.44821">
        <ele>510.2</ele>
        <time>2022-06-26T08:40:52Z</time>
      </trkpt>
      <trkpt lat="45.91798" lon="4.44822">
        <ele>510.6</ele>
        <time>2022-06-26T08:40:53Z</time>
      </trkpt>
      <trkpt lat="45.91797" lon="4.44823">
        <ele>510.8</ele>
        <time>2022-06-26T08:40:54Z</time>
      </trkpt>
      <trkpt lat="45.91795" lon="4.44824">
        <ele>510.8</ele>
        <time>2022-06-26T08:40:55Z</time>
      </trkpt>
      <trkpt lat="45.91794" lon="4.44825">
        <ele>511.2</ele>
        <time>2022-06-26T08:40:56Z</time>
      </trkpt>
      <trkpt lat="45.91793" lon="4.44826">
        <ele>511.4</ele>
        <time>2022-06-26T08:40:57Z</time>
      </trkpt>
      <trkpt lat="45.91791" lon="4.44826">
        <ele>511.4</ele>
        <time>2022-06-26T08:40:58Z</time>
      </trkpt>
      <trkpt lat="45.9179" lon="4.44827">
        <ele>511.8</ele>
        <time>2022-06-26T08:40:59Z</time>
      </trkpt>
      <trkpt lat="45.91788" lon="4.44828">
        <ele>511.8</ele>
        <time>2022-06-26T08:41:00Z</time>
      </trkpt>
      <trkpt lat="45.91787" lon="4.44829">
        <ele>512</ele>
        <time>2022-06-26T08:41:01Z</time>
      </trkpt>
      <trkpt lat="45.91785" lon="4.4483">
        <ele>512.4</ele>
        <time>2022-06-26T08:41:02Z</time>
      </trkpt>
      <trkpt lat="45.91783" lon="4.4483">
        <ele>512.6</ele>
        <time>2022-06-26T08:41:03Z</time>
      </trkpt>
      <trkpt lat="45.91782" lon="4.44831">
        <ele>512.6</ele>
        <time>2022-06-26T08:41:04Z</time>
      </trkpt>
      <trkpt lat="45.9178" lon="4.44833">
        <ele>512.8</ele>
        <time>2022-06-26T08:41:05Z</time>
      </trkpt>
      <trkpt lat="45.91778" lon="4.44834">
        <ele>512.8</ele>
        <time>2022-06-26T08:41:06Z</time>
      </trkpt>
      <trkpt lat="45.91777" lon="4.44835">
        <ele>513.2</ele>
        <time>2022-06-26T08:41:07Z</time>
      </trkpt>
      <trkpt lat="45.91775" lon="4.44836">
        <ele>513.4</ele>
        <time>2022-06-26T08:41:08Z</time>
      </trkpt>
      <trkpt lat="45.91773" lon="4.44837">
        <ele>513.6</ele>
        <time>2022-06-26T08:41:09Z</time>
      </trkpt>
      <trkpt lat="45.91772" lon="4.44838">
        <ele>514</ele>
        <time>2022-06-26T08:41:10Z</time>
      </trkpt>
      <trkpt lat="45.9177" lon="4.44839">
        <ele>514</ele>
        <time>2022-06-26T08:41:11Z</time>
      </trkpt>
      <trkpt lat="45.91769" lon="4.4484">
        <ele>514.2</ele>
        <time>2022-06-26T08:41:12Z</time>
      </trkpt>
      <trkpt lat="45.91767" lon="4.44841">
        <ele>514.4</ele>
        <time>2022-06-26T08:41:13Z</time>
      </trkpt>
      <trkpt lat="45.91766" lon="4.44842">
        <ele>514.6</ele>
        <time>2022-06-26T08:41:14Z</time>
      </trkpt>
      <trkpt lat="45.91764" lon="4.44843">
        <ele>515</ele>
        <time>2022-06-26T08:41:15Z</time>
      </trkpt>
      <trkpt lat="45.91762" lon="4.44844">
        <ele>515</ele>
        <time>2022-06-26T08:41:16Z</time>
      </trkpt>
      <trkpt lat="45.9176" lon="4.44845">
        <ele>515.2</ele>
        <time>2022-06-26T08:41:17Z</time>
      </trkpt>
      <trkpt lat="45.91757" lon="4.44847">
        <ele>515.2</ele>
        <time>2022-06-26T08:41:18Z</time>
      </trkpt>
      <trkpt lat="45.91755" lon="4.44848">
        <ele>515.6</ele>
        <time>2022-06-26T08:41:19Z</time>
      </trkpt>
      <trkpt lat="45.91753" lon="4.44848">
        <ele>515.8</ele>
        <time>2022-06-26T08:41:20Z</time>
      </trkpt>
      <trkpt lat="45.91752" lon="4.44848">
        <ele>515.8</ele>
        <time>2022-06-26T08:41:21Z</time>
      </trkpt>
      <trkpt lat="45.9175" lon="4.44849">
        <ele>516.2</ele>
        <time>2022-06-26T08:41:22Z</time>
      </trkpt>
      <trkpt lat="45.91748" lon="4.44849">
        <ele>516.2</ele>
        <time>2022-06-26T08:41:23Z</time>
      </trkpt>
      <trkpt lat="45.91746" lon="4.44849">
        <ele>516.6</ele>
        <time>2022-06-26T08:41:24Z</time>
      </trkpt>
      <trkpt lat="45.91744" lon="4.44849">
        <ele>516.6</ele>
        <time>2022-06-26T08:41:25Z</time>
      </trkpt>
      <trkpt lat="45.91743" lon="4.44849">
        <ele>517</ele>
        <time>2022-06-26T08:41:26Z</time>
      </trkpt>
      <trkpt lat="45.91741" lon="4.4485">
        <ele>517.2</ele>
        <time>2022-06-26T08:41:27Z</time>
      </trkpt>
      <trkpt lat="45.91739" lon="4.44849">
        <ele>517.4</ele>
        <time>2022-06-26T08:41:28Z</time>
      </trkpt>
      <trkpt lat="45.91738" lon="4.44849">
        <ele>517.6</ele>
        <time>2022-06-26T08:41:29Z</time>
      </trkpt>
      <trkpt lat="45.91736" lon="4.44849">
        <ele>517.8</ele>
        <time>2022-06-26T08:41:30Z</time>
      </trkpt>
      <trkpt lat="45.91735" lon="4.44848">
        <ele>517.8</ele>
        <time>2022-06-26T08:41:31Z</time>
      </trkpt>
      <trkpt lat="45.91733" lon="4.44848">
        <ele>518.2</ele>
        <time>2022-06-26T08:41:32Z</time>
      </trkpt>
      <trkpt lat="45.91732" lon="4.44847">
        <ele>518.2</ele>
        <time>2022-06-26T08:41:33Z</time>
      </trkpt>
      <trkpt lat="45.9173" lon="4.44845">
        <ele>518.6</ele>
        <time>2022-06-26T08:41:34Z</time>
      </trkpt>
      <trkpt lat="45.91729" lon="4.44844">
        <ele>518.8</ele>
        <time>2022-06-26T08:41:35Z</time>
      </trkpt>
      <trkpt lat="45.91727" lon="4.44843">
        <ele>519.2</ele>
        <time>2022-06-26T08:41:36Z</time>
      </trkpt>
      <trkpt lat="45.91725" lon="4.44842">
        <ele>519.2</ele>
        <time>2022-06-26T08:41:37Z</time>
      </trkpt>
      <trkpt lat="45.91724" lon="4.44841">
        <ele>519.6</ele>
        <time>2022-06-26T08:41:38Z</time>
      </trkpt>
      <trkpt lat="45.91722" lon="4.4484">
        <ele>519.8</ele>
        <time>2022-06-26T08:41:39Z</time>
      </trkpt>
      <trkpt lat="45.91721" lon="4.44839">
        <ele>520.2</ele>
        <time>2022-06-26T08:41:40Z</time>
      </trkpt>
      <trkpt lat="45.91719" lon="4.44837">
        <ele>520.4</ele>
        <time>2022-06-26T08:41:41Z</time>
      </trkpt>
      <trkpt lat="45.91717" lon="4.44836">
        <ele>520.6</ele>
        <time>2022-06-26T08:41:42Z</time>
      </trkpt>
      <trkpt lat="45.91715" lon="4.44835">
        <ele>521</ele>
        <time>2022-06-26T08:41:43Z</time>
      </trkpt>
      <trkpt lat="45.91713" lon="4.44834">
        <ele>521.2</ele>
        <time>2022-06-26T08:41:44Z</time>
      </trkpt>
      <trkpt lat="45.91712" lon="4.44833">
        <ele>521.6</ele>
        <time>2022-06-26T08:41:45Z</time>
      </trkpt>
      <trkpt lat="45.9171" lon="4.44832">
        <ele>521.8</ele>
        <time>2022-06-26T08:41:46Z</time>
      </trkpt>
      <trkpt lat="45.91709" lon="4.44831">
        <ele>522</ele>
        <time>2022-06-26T08:41:47Z</time>
      </trkpt>
      <trkpt lat="45.91707" lon="4.4483">
        <ele>522.4</ele>
        <time>2022-06-26T08:41:48Z</time>
      </trkpt>
      <trkpt lat="45.91706" lon="4.44829">
        <ele>522.6</ele>
        <time>2022-06-26T08:41:49Z</time>
      </trkpt>
      <trkpt lat="45.91704" lon="4.44828">
        <ele>522.8</ele>
        <time>2022-06-26T08:41:50Z</time>
      </trkpt>
      <trkpt lat="45.91702" lon="4.44827">
        <ele>523</ele>
        <time>2022-06-26T08:41:51Z</time>
      </trkpt>
      <trkpt lat="45.91701" lon="4.44826">
        <ele>523.4</ele>
        <time>2022-06-26T08:41:52Z</time>
      </trkpt>
      <trkpt lat="45.917" lon="4.44824">
        <ele>523.6</ele>
        <time>2022-06-26T08:41:53Z</time>
      </trkpt>
      <trkpt lat="45.91699" lon="4.44822">
        <ele>523.6</ele>
        <time>2022-06-26T08:41:54Z</time>
      </trkpt>
      <trkpt lat="45.91697" lon="4.44821">
        <ele>524</ele>
        <time>2022-06-26T08:41:55Z</time>
      </trkpt>
      <trkpt lat="45.91696" lon="4.44819">
        <ele>524.2</ele>
        <time>2022-06-26T08:41:56Z</time>
      </trkpt>
      <trkpt lat="45.91694" lon="4.44818">
        <ele>524.4</ele>
        <time>2022-06-26T08:41:57Z</time>
      </trkpt>
      <trkpt lat="45.91693" lon="4.44817">
        <ele>524.6</ele>
        <time>2022-06-26T08:41:58Z</time>
      </trkpt>
      <trkpt lat="45.91692" lon="4.44815">
        <ele>525</ele>
        <time>2022-06-26T08:41:59Z</time>
      </trkpt>
      <trkpt lat="45.9169" lon="4.44814">
        <ele>525.2</ele>
        <time>2022-06-26T08:42:00Z</time>
      </trkpt>
      <trkpt lat="45.91689" lon="4.44812">
        <ele>525.6</ele>
        <time>2022-06-26T08:42:01Z</time>
      </trkpt>
      <trkpt lat="45.91687" lon="4.44811">
        <ele>525.8</ele>
        <time>2022-06-26T08:42:02Z</time>
      </trkpt>
      <trkpt lat="45.91686" lon="4.4481">
        <ele>526</ele>
        <time>2022-06-26T08:42:03Z</time>
      </trkpt>
      <trkpt lat="45.91685" lon="4.44808">
        <ele>526.2</ele>
        <time>2022-06-26T08:42:04Z</time>
      </trkpt>
      <trkpt lat="45.91684" lon="4.44807">
        <ele>526.2</ele>
        <time>2022-06-26T08:42:05Z</time>
      </trkpt>
      <trkpt lat="45.91682" lon="4.44805">
        <ele>526.6</ele>
        <time>2022-06-26T08:42:06Z</time>
      </trkpt>
      <trkpt lat="45.91681" lon="4.44804">
        <ele>527</ele>
        <time>2022-06-26T08:42:07Z</time>
      </trkpt>
      <trkpt lat="45.9168" lon="4.44803">
        <ele>527.2</ele>
        <time>2022-06-26T08:42:08Z</time>
      </trkpt>
      <trkpt lat="45.91679" lon="4.44801">
        <ele>527.4</ele>
        <time>2022-06-26T08:42:09Z</time>
      </trkpt>
      <trkpt lat="45.91678" lon="4.448">
        <ele>527.6</ele>
        <time>2022-06-26T08:42:10Z</time>
      </trkpt>
      <trkpt lat="45.91676" lon="4.44798">
        <ele>527.8</ele>
        <time>2022-06-26T08:42:11Z</time>
      </trkpt>
      <trkpt lat="45.91675" lon="4.44796">
        <ele>528.2</ele>
        <time>2022-06-26T08:42:12Z</time>
      </trkpt>
      <trkpt lat="45.91674" lon="4.44795">
        <ele>528.4</ele>
        <time>2022-06-26T08:42:13Z</time>
      </trkpt>
      <trkpt lat="45.91673" lon="4.44794">
        <ele>528.6</ele>
        <time>2022-06-26T08:42:14Z</time>
      </trkpt>
      <trkpt lat="45.91672" lon="4.44792">
        <ele>528.8</ele>
        <time>2022-06-26T08:42:15Z</time>
      </trkpt>
      <trkpt lat="45.9167" lon="4.44791">
        <ele>528.8</ele>
        <time>2022-06-26T08:42:16Z</time>
      </trkpt>
      <trkpt lat="45.91669" lon="4.44789">
        <ele>529</ele>
        <time>2022-06-26T08:42:17Z</time>
      </trkpt>
      <trkpt lat="45.91668" lon="4.44788">
        <ele>529.4</ele>
        <time>2022-06-26T08:42:18Z</time>
      </trkpt>
      <trkpt lat="45.91666" lon="4.44787">
        <ele>529.6</ele>
        <time>2022-06-26T08:42:19Z</time>
      </trkpt>
      <trkpt lat="45.91665" lon="4.44786">
        <ele>529.8</ele>
        <time>2022-06-26T08:42:20Z</time>
      </trkpt>
      <trkpt lat="45.91664" lon="4.44784">
        <ele>530</ele>
        <time>2022-06-26T08:42:21Z</time>
      </trkpt>
      <trkpt lat="45.91662" lon="4.44783">
        <ele>530.2</ele>
        <time>2022-06-26T08:42:22Z</time>
      </trkpt>
      <trkpt lat="45.91661" lon="4.44781">
        <ele>530.2</ele>
        <time>2022-06-26T08:42:23Z</time>
      </trkpt>
      <trkpt lat="45.9166" lon="4.4478">
        <ele>530.8</ele>
        <time>2022-06-26T08:42:24Z</time>
      </trkpt>
      <trkpt lat="45.91659" lon="4.44778">
        <ele>531</ele>
        <time>2022-06-26T08:42:25Z</time>
      </trkpt>
      <trkpt lat="45.91657" lon="4.44777">
        <ele>531</ele>
        <time>2022-06-26T08:42:26Z</time>
      </trkpt>
      <trkpt lat="45.91656" lon="4.44775">
        <ele>531.4</ele>
        <time>2022-06-26T08:42:27Z</time>
      </trkpt>
      <trkpt lat="45.91655" lon="4.44774">
        <ele>531.6</ele>
        <time>2022-06-26T08:42:28Z</time>
      </trkpt>
      <trkpt lat="45.91653" lon="4.44772">
        <ele>531.8</ele>
        <time>2022-06-26T08:42:29Z</time>
      </trkpt>
      <trkpt lat="45.91652" lon="4.44771">
        <ele>532.2</ele>
        <time>2022-06-26T08:42:30Z</time>
      </trkpt>
      <trkpt lat="45.91651" lon="4.44769">
        <ele>532.4</ele>
        <time>2022-06-26T08:42:31Z</time>
      </trkpt>
      <trkpt lat="45.91649" lon="4.44768">
        <ele>532.6</ele>
        <time>2022-06-26T08:42:32Z</time>
      </trkpt>
      <trkpt lat="45.91648" lon="4.44766">
        <ele>533</ele>
        <time>2022-06-26T08:42:33Z</time>
      </trkpt>
      <trkpt lat="45.91647" lon="4.44765">
        <ele>533.2</ele>
        <time>2022-06-26T08:42:34Z</time>
      </trkpt>
      <trkpt lat="45.91645" lon="4.44764">
        <ele>533.4</ele>
        <time>2022-06-26T08:42:35Z</time>
      </trkpt>
      <trkpt lat="45.91644" lon="4.44762">
        <ele>533.6</ele>
        <time>2022-06-26T08:42:36Z</time>
      </trkpt>
      <trkpt lat="45.91643" lon="4.44761">
        <ele>534</ele>
        <time>2022-06-26T08:42:37Z</time>
      </trkpt>
      <trkpt lat="45.91641" lon="4.44759">
        <ele>534.2</ele>
        <time>2022-06-26T08:42:38Z</time>
      </trkpt>
      <trkpt lat="45.9164" lon="4.44758">
        <ele>534.2</ele>
        <time>2022-06-26T08:42:39Z</time>
      </trkpt>
      <trkpt lat="45.91639" lon="4.44757">
        <ele>534.6</ele>
        <time>2022-06-26T08:42:40Z</time>
      </trkpt>
      <trkpt lat="45.91637" lon="4.44755">
        <ele>534.8</ele>
        <time>2022-06-26T08:42:41Z</time>
      </trkpt>
      <trkpt lat="45.91636" lon="4.44754">
        <ele>534.8</ele>
        <time>2022-06-26T08:42:42Z</time>
      </trkpt>
      <trkpt lat="45.91635" lon="4.44752">
        <ele>535.4</ele>
        <time>2022-06-26T08:42:43Z</time>
      </trkpt>
      <trkpt lat="45.91633" lon="4.44751">
        <ele>535.6</ele>
        <time>2022-06-26T08:42:44Z</time>
      </trkpt>
      <trkpt lat="45.91632" lon="4.44749">
        <ele>535.8</ele>
        <time>2022-06-26T08:42:45Z</time>
      </trkpt>
      <trkpt lat="45.9163" lon="4.44748">
        <ele>536</ele>
        <time>2022-06-26T08:42:46Z</time>
      </trkpt>
      <trkpt lat="45.91629" lon="4.44746">
        <ele>536</ele>
        <time>2022-06-26T08:42:47Z</time>
      </trkpt>
      <trkpt lat="45.91628" lon="4.44745">
        <ele>536.4</ele>
        <time>2022-06-26T08:42:48Z</time>
      </trkpt>
      <trkpt lat="45.91626" lon="4.44743">
        <ele>536.4</ele>
        <time>2022-06-26T08:42:49Z</time>
      </trkpt>
      <trkpt lat="45.91625" lon="4.44742">
        <ele>536.8</ele>
        <time>2022-06-26T08:42:50Z</time>
      </trkpt>
      <trkpt lat="45.91623" lon="4.44741">
        <ele>536.8</ele>
        <time>2022-06-26T08:42:51Z</time>
      </trkpt>
      <trkpt lat="45.91622" lon="4.44739">
        <ele>537.2</ele>
        <time>2022-06-26T08:42:52Z</time>
      </trkpt>
      <trkpt lat="45.9162" lon="4.44738">
        <ele>537.6</ele>
        <time>2022-06-26T08:42:53Z</time>
      </trkpt>
      <trkpt lat="45.91619" lon="4.44737">
        <ele>537.8</ele>
        <time>2022-06-26T08:42:54Z</time>
      </trkpt>
      <trkpt lat="45.91618" lon="4.44735">
        <ele>538</ele>
        <time>2022-06-26T08:42:55Z</time>
      </trkpt>
      <trkpt lat="45.91616" lon="4.44734">
        <ele>538.4</ele>
        <time>2022-06-26T08:42:56Z</time>
      </trkpt>
      <trkpt lat="45.91615" lon="4.44733">
        <ele>538.6</ele>
        <time>2022-06-26T08:42:57Z</time>
      </trkpt>
      <trkpt lat="45.91613" lon="4.44732">
        <ele>538.8</ele>
        <time>2022-06-26T08:42:58Z</time>
      </trkpt>
      <trkpt lat="45.91612" lon="4.4473">
        <ele>539.2</ele>
        <time>2022-06-26T08:42:59Z</time>
      </trkpt>
      <trkpt lat="45.91611" lon="4.44729">
        <ele>539.4</ele>
        <time>2022-06-26T08:43:00Z</time>
      </trkpt>
      <trkpt lat="45.91609" lon="4.44728">
        <ele>539.8</ele>
        <time>2022-06-26T08:43:01Z</time>
      </trkpt>
      <trkpt lat="45.91608" lon="4.44728">
        <ele>539.8</ele>
        <time>2022-06-26T08:43:02Z</time>
      </trkpt>
      <trkpt lat="45.91606" lon="4.44727">
        <ele>540</ele>
        <time>2022-06-26T08:43:03Z</time>
      </trkpt>
      <trkpt lat="45.91605" lon="4.44726">
        <ele>540.4</ele>
        <time>2022-06-26T08:43:04Z</time>
      </trkpt>
      <trkpt lat="45.91603" lon="4.44725">
        <ele>540.6</ele>
        <time>2022-06-26T08:43:05Z</time>
      </trkpt>
      <trkpt lat="45.91602" lon="4.44724">
        <ele>540.8</ele>
        <time>2022-06-26T08:43:06Z</time>
      </trkpt>
      <trkpt lat="45.91601" lon="4.44724">
        <ele>541</ele>
        <time>2022-06-26T08:43:07Z</time>
      </trkpt>
      <trkpt lat="45.91599" lon="4.44723">
        <ele>541</ele>
        <time>2022-06-26T08:43:08Z</time>
      </trkpt>
      <trkpt lat="45.91598" lon="4.44722">
        <ele>541.4</ele>
        <time>2022-06-26T08:43:09Z</time>
      </trkpt>
      <trkpt lat="45.91596" lon="4.44721">
        <ele>541.4</ele>
        <time>2022-06-26T08:43:10Z</time>
      </trkpt>
      <trkpt lat="45.91595" lon="4.4472">
        <ele>541.8</ele>
        <time>2022-06-26T08:43:11Z</time>
      </trkpt>
      <trkpt lat="45.91593" lon="4.4472">
        <ele>542</ele>
        <time>2022-06-26T08:43:12Z</time>
      </trkpt>
      <trkpt lat="45.91592" lon="4.4472">
        <ele>542</ele>
        <time>2022-06-26T08:43:13Z</time>
      </trkpt>
      <trkpt lat="45.9159" lon="4.44719">
        <ele>542.4</ele>
        <time>2022-06-26T08:43:14Z</time>
      </trkpt>
      <trkpt lat="45.91589" lon="4.44719">
        <ele>542.6</ele>
        <time>2022-06-26T08:43:15Z</time>
      </trkpt>
      <trkpt lat="45.91587" lon="4.44719">
        <ele>542.8</ele>
        <time>2022-06-26T08:43:16Z</time>
      </trkpt>
      <trkpt lat="45.91585" lon="4.44718">
        <ele>543.2</ele>
        <time>2022-06-26T08:43:17Z</time>
      </trkpt>
      <trkpt lat="45.91583" lon="4.44718">
        <ele>543.4</ele>
        <time>2022-06-26T08:43:18Z</time>
      </trkpt>
      <trkpt lat="45.91582" lon="4.44717">
        <ele>543.8</ele>
        <time>2022-06-26T08:43:19Z</time>
      </trkpt>
      <trkpt lat="45.9158" lon="4.44716">
        <ele>544</ele>
        <time>2022-06-26T08:43:20Z</time>
      </trkpt>
      <trkpt lat="45.91579" lon="4.44715">
        <ele>544.2</ele>
        <time>2022-06-26T08:43:21Z</time>
      </trkpt>
      <trkpt lat="45.91577" lon="4.44715">
        <ele>544.4</ele>
        <time>2022-06-26T08:43:22Z</time>
      </trkpt>
      <trkpt lat="45.91576" lon="4.44714">
        <ele>544.4</ele>
        <time>2022-06-26T08:43:23Z</time>
      </trkpt>
      <trkpt lat="45.91574" lon="4.44714">
        <ele>544.6</ele>
        <time>2022-06-26T08:43:24Z</time>
      </trkpt>
      <trkpt lat="45.91573" lon="4.44713">
        <ele>544.6</ele>
        <time>2022-06-26T08:43:25Z</time>
      </trkpt>
      <trkpt lat="45.91571" lon="4.44713">
        <ele>545</ele>
        <time>2022-06-26T08:43:26Z</time>
      </trkpt>
      <trkpt lat="45.9157" lon="4.44712">
        <ele>545.2</ele>
        <time>2022-06-26T08:43:27Z</time>
      </trkpt>
      <trkpt lat="45.91568" lon="4.44711">
        <ele>545.4</ele>
        <time>2022-06-26T08:43:28Z</time>
      </trkpt>
      <trkpt lat="45.91567" lon="4.4471">
        <ele>545.8</ele>
        <time>2022-06-26T08:43:29Z</time>
      </trkpt>
      <trkpt lat="45.91565" lon="4.44709">
        <ele>546</ele>
        <time>2022-06-26T08:43:30Z</time>
      </trkpt>
      <trkpt lat="45.91564" lon="4.44708">
        <ele>546.2</ele>
        <time>2022-06-26T08:43:31Z</time>
      </trkpt>
      <trkpt lat="45.91562" lon="4.44707">
        <ele>546.4</ele>
        <time>2022-06-26T08:43:32Z</time>
      </trkpt>
      <trkpt lat="45.91561" lon="4.44705">
        <ele>546.6</ele>
        <time>2022-06-26T08:43:33Z</time>
      </trkpt>
      <trkpt lat="45.9156" lon="4.44703">
        <ele>547</ele>
        <time>2022-06-26T08:43:34Z</time>
      </trkpt>
      <trkpt lat="45.91559" lon="4.44702">
        <ele>547.2</ele>
        <time>2022-06-26T08:43:35Z</time>
      </trkpt>
      <trkpt lat="45.91558" lon="4.44701">
        <ele>547.4</ele>
        <time>2022-06-26T08:43:36Z</time>
      </trkpt>
      <trkpt lat="45.91556" lon="4.447">
        <ele>547.8</ele>
        <time>2022-06-26T08:43:37Z</time>
      </trkpt>
      <trkpt lat="45.91555" lon="4.44699">
        <ele>547.8</ele>
        <time>2022-06-26T08:43:38Z</time>
      </trkpt>
      <trkpt lat="45.91554" lon="4.44697">
        <ele>548</ele>
        <time>2022-06-26T08:43:39Z</time>
      </trkpt>
      <trkpt lat="45.91553" lon="4.44696">
        <ele>548</ele>
        <time>2022-06-26T08:43:40Z</time>
      </trkpt>
      <trkpt lat="45.91552" lon="4.44694">
        <ele>548.6</ele>
        <time>2022-06-26T08:43:41Z</time>
      </trkpt>
      <trkpt lat="45.91551" lon="4.44692">
        <ele>548.8</ele>
        <time>2022-06-26T08:43:42Z</time>
      </trkpt>
      <trkpt lat="45.9155" lon="4.44691">
        <ele>549</ele>
        <time>2022-06-26T08:43:43Z</time>
      </trkpt>
      <trkpt lat="45.9155" lon="4.44689">
        <ele>549</ele>
        <time>2022-06-26T08:43:44Z</time>
      </trkpt>
      <trkpt lat="45.91549" lon="4.44686">
        <ele>549.4</ele>
        <time>2022-06-26T08:43:45Z</time>
      </trkpt>
      <trkpt lat="45.91549" lon="4.44684">
        <ele>549.6</ele>
        <time>2022-06-26T08:43:46Z</time>
      </trkpt>
      <trkpt lat="45.91549" lon="4.44682">
        <ele>549.8</ele>
        <time>2022-06-26T08:43:47Z</time>
      </trkpt>
      <trkpt lat="45.91548" lon="4.4468">
        <ele>549.8</ele>
        <time>2022-06-26T08:43:48Z</time>
      </trkpt>
      <trkpt lat="45.91548" lon="4.44678">
        <ele>550.2</ele>
        <time>2022-06-26T08:43:49Z</time>
      </trkpt>
      <trkpt lat="45.91547" lon="4.44676">
        <ele>550.4</ele>
        <time>2022-06-26T08:43:50Z</time>
      </trkpt>
      <trkpt lat="45.91547" lon="4.44674">
        <ele>550.6</ele>
        <time>2022-06-26T08:43:51Z</time>
      </trkpt>
      <trkpt lat="45.91547" lon="4.44672">
        <ele>551</ele>
        <time>2022-06-26T08:43:52Z</time>
      </trkpt>
      <trkpt lat="45.91547" lon="4.4467">
        <ele>551.2</ele>
        <time>2022-06-26T08:43:53Z</time>
      </trkpt>
      <trkpt lat="45.91547" lon="4.44668">
        <ele>551.4</ele>
        <time>2022-06-26T08:43:54Z</time>
      </trkpt>
      <trkpt lat="45.91547" lon="4.44666">
        <ele>551.8</ele>
        <time>2022-06-26T08:43:55Z</time>
      </trkpt>
      <trkpt lat="45.91547" lon="4.44664">
        <ele>552.2</ele>
        <time>2022-06-26T08:43:56Z</time>
      </trkpt>
      <trkpt lat="45.91547" lon="4.44662">
        <ele>552.2</ele>
        <time>2022-06-26T08:43:57Z</time>
      </trkpt>
      <trkpt lat="45.91547" lon="4.4466">
        <ele>552.6</ele>
        <time>2022-06-26T08:43:58Z</time>
      </trkpt>
      <trkpt lat="45.91547" lon="4.44658">
        <ele>552.8</ele>
        <time>2022-06-26T08:43:59Z</time>
      </trkpt>
      <trkpt lat="45.91547" lon="4.44656">
        <ele>553</ele>
        <time>2022-06-26T08:44:00Z</time>
      </trkpt>
      <trkpt lat="45.91547" lon="4.44654">
        <ele>553.2</ele>
        <time>2022-06-26T08:44:01Z</time>
      </trkpt>
      <trkpt lat="45.91547" lon="4.44651">
        <ele>553.4</ele>
        <time>2022-06-26T08:44:02Z</time>
      </trkpt>
      <trkpt lat="45.91548" lon="4.44649">
        <ele>553.6</ele>
        <time>2022-06-26T08:44:03Z</time>
      </trkpt>
      <trkpt lat="45.91548" lon="4.44647">
        <ele>553.8</ele>
        <time>2022-06-26T08:44:04Z</time>
      </trkpt>
      <trkpt lat="45.91548" lon="4.44645">
        <ele>553.8</ele>
        <time>2022-06-26T08:44:05Z</time>
      </trkpt>
      <trkpt lat="45.91548" lon="4.44643">
        <ele>554.2</ele>
        <time>2022-06-26T08:44:06Z</time>
      </trkpt>
      <trkpt lat="45.91548" lon="4.44641">
        <ele>554.2</ele>
        <time>2022-06-26T08:44:07Z</time>
      </trkpt>
      <trkpt lat="45.91548" lon="4.44639">
        <ele>554.6</ele>
        <time>2022-06-26T08:44:08Z</time>
      </trkpt>
      <trkpt lat="45.91548" lon="4.44637">
        <ele>554.8</ele>
        <time>2022-06-26T08:44:09Z</time>
      </trkpt>
      <trkpt lat="45.91548" lon="4.44635">
        <ele>554.8</ele>
        <time>2022-06-26T08:44:10Z</time>
      </trkpt>
      <trkpt lat="45.91549" lon="4.44634">
        <ele>555</ele>
        <time>2022-06-26T08:44:11Z</time>
      </trkpt>
      <trkpt lat="45.91549" lon="4.44632">
        <ele>555</ele>
        <time>2022-06-26T08:44:12Z</time>
      </trkpt>
      <trkpt lat="45.91549" lon="4.44631">
        <ele>555.4</ele>
        <time>2022-06-26T08:44:13Z</time>
      </trkpt>
      <trkpt lat="45.91549" lon="4.44622">
        <ele>556.4</ele>
        <time>2022-06-26T08:44:17Z</time>
      </trkpt>
      <trkpt lat="45.91549" lon="4.4462">
        <ele>556.6</ele>
        <time>2022-06-26T08:44:18Z</time>
      </trkpt>
      <trkpt lat="45.91549" lon="4.44618">
        <ele>556.6</ele>
        <time>2022-06-26T08:44:19Z</time>
      </trkpt>
      <trkpt lat="45.91549" lon="4.44616">
        <ele>557</ele>
        <time>2022-06-26T08:44:20Z</time>
      </trkpt>
      <trkpt lat="45.91549" lon="4.44614">
        <ele>557</ele>
        <time>2022-06-26T08:44:21Z</time>
      </trkpt>
      <trkpt lat="45.91549" lon="4.44613">
        <ele>557.4</ele>
        <time>2022-06-26T08:44:22Z</time>
      </trkpt>
      <trkpt lat="45.91549" lon="4.44611">
        <ele>557.6</ele>
        <time>2022-06-26T08:44:23Z</time>
      </trkpt>
      <trkpt lat="45.91548" lon="4.44609">
        <ele>557.6</ele>
        <time>2022-06-26T08:44:24Z</time>
      </trkpt>
      <trkpt lat="45.91548" lon="4.44607">
        <ele>557.8</ele>
        <time>2022-06-26T08:44:25Z</time>
      </trkpt>
      <trkpt lat="45.91547" lon="4.44605">
        <ele>557.8</ele>
        <time>2022-06-26T08:44:26Z</time>
      </trkpt>
      <trkpt lat="45.91546" lon="4.44603">
        <ele>558.2</ele>
        <time>2022-06-26T08:44:27Z</time>
      </trkpt>
      <trkpt lat="45.91546" lon="4.44602">
        <ele>558.2</ele>
        <time>2022-06-26T08:44:28Z</time>
      </trkpt>
      <trkpt lat="45.91545" lon="4.446">
        <ele>558.6</ele>
        <time>2022-06-26T08:44:29Z</time>
      </trkpt>
      <trkpt lat="45.91545" lon="4.44598">
        <ele>558.6</ele>
        <time>2022-06-26T08:44:30Z</time>
      </trkpt>
      <trkpt lat="45.91544" lon="4.44596">
        <ele>559</ele>
        <time>2022-06-26T08:44:31Z</time>
      </trkpt>
      <trkpt lat="45.91544" lon="4.44594">
        <ele>559</ele>
        <time>2022-06-26T08:44:32Z</time>
      </trkpt>
      <trkpt lat="45.91544" lon="4.44593">
        <ele>559.4</ele>
        <time>2022-06-26T08:44:33Z</time>
      </trkpt>
      <trkpt lat="45.91543" lon="4.44591">
        <ele>559.6</ele>
        <time>2022-06-26T08:44:34Z</time>
      </trkpt>
      <trkpt lat="45.91543" lon="4.44589">
        <ele>559.8</ele>
        <time>2022-06-26T08:44:35Z</time>
      </trkpt>
      <trkpt lat="45.91542" lon="4.44587">
        <ele>560</ele>
        <time>2022-06-26T08:44:36Z</time>
      </trkpt>
      <trkpt lat="45.91542" lon="4.44585">
        <ele>560</ele>
        <time>2022-06-26T08:44:37Z</time>
      </trkpt>
      <trkpt lat="45.91542" lon="4.44583">
        <ele>560.2</ele>
        <time>2022-06-26T08:44:38Z</time>
      </trkpt>
      <trkpt lat="45.91541" lon="4.44581">
        <ele>560.2</ele>
        <time>2022-06-26T08:44:39Z</time>
      </trkpt>
      <trkpt lat="45.9154" lon="4.44579">
        <ele>560.6</ele>
        <time>2022-06-26T08:44:40Z</time>
      </trkpt>
      <trkpt lat="45.9154" lon="4.44578">
        <ele>560.8</ele>
        <time>2022-06-26T08:44:41Z</time>
      </trkpt>
      <trkpt lat="45.9154" lon="4.44576">
        <ele>561</ele>
        <time>2022-06-26T08:44:42Z</time>
      </trkpt>
      <trkpt lat="45.9154" lon="4.44574">
        <ele>561</ele>
        <time>2022-06-26T08:44:43Z</time>
      </trkpt>
      <trkpt lat="45.9154" lon="4.44572">
        <ele>561.4</ele>
        <time>2022-06-26T08:44:44Z</time>
      </trkpt>
      <trkpt lat="45.9154" lon="4.4457">
        <ele>561.4</ele>
        <time>2022-06-26T08:44:45Z</time>
      </trkpt>
      <trkpt lat="45.9154" lon="4.44568">
        <ele>561.4</ele>
        <time>2022-06-26T08:44:46Z</time>
      </trkpt>
      <trkpt lat="45.91541" lon="4.44565">
        <ele>561.8</ele>
        <time>2022-06-26T08:44:48Z</time>
      </trkpt>
      <trkpt lat="45.91541" lon="4.44563">
        <ele>562.2</ele>
        <time>2022-06-26T08:44:49Z</time>
      </trkpt>
      <trkpt lat="45.91541" lon="4.44561">
        <ele>562.2</ele>
        <time>2022-06-26T08:44:50Z</time>
      </trkpt>
      <trkpt lat="45.91542" lon="4.44558">
        <ele>562.4</ele>
        <time>2022-06-26T08:44:51Z</time>
      </trkpt>
      <trkpt lat="45.91543" lon="4.44556">
        <ele>562.4</ele>
        <time>2022-06-26T08:44:52Z</time>
      </trkpt>
      <trkpt lat="45.91544" lon="4.44554">
        <ele>562.8</ele>
        <time>2022-06-26T08:44:53Z</time>
      </trkpt>
      <trkpt lat="45.91545" lon="4.44552">
        <ele>562.8</ele>
        <time>2022-06-26T08:44:54Z</time>
      </trkpt>
      <trkpt lat="45.91546" lon="4.44549">
        <ele>563</ele>
        <time>2022-06-26T08:44:55Z</time>
      </trkpt>
      <trkpt lat="45.91547" lon="4.44547">
        <ele>563</ele>
        <time>2022-06-26T08:44:56Z</time>
      </trkpt>
      <trkpt lat="45.91548" lon="4.44545">
        <ele>563.4</ele>
        <time>2022-06-26T08:44:57Z</time>
      </trkpt>
      <trkpt lat="45.91548" lon="4.44543">
        <ele>563.4</ele>
        <time>2022-06-26T08:44:58Z</time>
      </trkpt>
      <trkpt lat="45.91549" lon="4.44541">
        <ele>563.6</ele>
        <time>2022-06-26T08:44:59Z</time>
      </trkpt>
      <trkpt lat="45.9155" lon="4.44539">
        <ele>563.6</ele>
        <time>2022-06-26T08:45:00Z</time>
      </trkpt>
      <trkpt lat="45.91552" lon="4.44537">
        <ele>563.8</ele>
        <time>2022-06-26T08:45:01Z</time>
      </trkpt>
      <trkpt lat="45.91552" lon="4.44535">
        <ele>563.8</ele>
        <time>2022-06-26T08:45:02Z</time>
      </trkpt>
      <trkpt lat="45.91553" lon="4.44534">
        <ele>564</ele>
        <time>2022-06-26T08:45:03Z</time>
      </trkpt>
      <trkpt lat="45.91554" lon="4.44532">
        <ele>564</ele>
        <time>2022-06-26T08:45:04Z</time>
      </trkpt>
      <trkpt lat="45.91555" lon="4.44531">
        <ele>564.4</ele>
        <time>2022-06-26T08:45:05Z</time>
      </trkpt>
      <trkpt lat="45.91557" lon="4.4453">
        <ele>564.4</ele>
        <time>2022-06-26T08:45:06Z</time>
      </trkpt>
      <trkpt lat="45.91558" lon="4.44529">
        <ele>564.6</ele>
        <time>2022-06-26T08:45:07Z</time>
      </trkpt>
      <trkpt lat="45.91559" lon="4.44528">
        <ele>564.6</ele>
        <time>2022-06-26T08:45:08Z</time>
      </trkpt>
      <trkpt lat="45.9156" lon="4.44526">
        <ele>565</ele>
        <time>2022-06-26T08:45:09Z</time>
      </trkpt>
      <trkpt lat="45.91561" lon="4.44525">
        <ele>565</ele>
        <time>2022-06-26T08:45:10Z</time>
      </trkpt>
      <trkpt lat="45.91562" lon="4.44524">
        <ele>565.4</ele>
        <time>2022-06-26T08:45:11Z</time>
      </trkpt>
      <trkpt lat="45.91563" lon="4.44523">
        <ele>565.4</ele>
        <time>2022-06-26T08:45:12Z</time>
      </trkpt>
      <trkpt lat="45.91564" lon="4.44523">
        <ele>565.6</ele>
        <time>2022-06-26T08:45:13Z</time>
      </trkpt>
      <trkpt lat="45.91565" lon="4.44522">
        <ele>565.6</ele>
        <time>2022-06-26T08:45:14Z</time>
      </trkpt>
      <trkpt lat="45.91566" lon="4.44521">
        <ele>565.8</ele>
        <time>2022-06-26T08:45:15Z</time>
      </trkpt>
      <trkpt lat="45.91568" lon="4.4452">
        <ele>565.8</ele>
        <time>2022-06-26T08:45:16Z</time>
      </trkpt>
      <trkpt lat="45.91569" lon="4.4452">
        <ele>566.2</ele>
        <time>2022-06-26T08:45:17Z</time>
      </trkpt>
      <trkpt lat="45.9157" lon="4.44519">
        <ele>566.4</ele>
        <time>2022-06-26T08:45:18Z</time>
      </trkpt>
      <trkpt lat="45.91571" lon="4.44518">
        <ele>566.6</ele>
        <time>2022-06-26T08:45:19Z</time>
      </trkpt>
      <trkpt lat="45.91572" lon="4.44517">
        <ele>566.6</ele>
        <time>2022-06-26T08:45:20Z</time>
      </trkpt>
      <trkpt lat="45.91574" lon="4.44516">
        <ele>567</ele>
        <time>2022-06-26T08:45:21Z</time>
      </trkpt>
      <trkpt lat="45.91575" lon="4.44515">
        <ele>567</ele>
        <time>2022-06-26T08:45:22Z</time>
      </trkpt>
      <trkpt lat="45.91577" lon="4.44513">
        <ele>567.4</ele>
        <time>2022-06-26T08:45:23Z</time>
      </trkpt>
      <trkpt lat="45.91578" lon="4.44512">
        <ele>567.6</ele>
        <time>2022-06-26T08:45:24Z</time>
      </trkpt>
      <trkpt lat="45.9158" lon="4.44511">
        <ele>567.6</ele>
        <time>2022-06-26T08:45:25Z</time>
      </trkpt>
      <trkpt lat="45.91581" lon="4.4451">
        <ele>567.8</ele>
        <time>2022-06-26T08:45:26Z</time>
      </trkpt>
      <trkpt lat="45.91582" lon="4.44509">
        <ele>567.8</ele>
        <time>2022-06-26T08:45:27Z</time>
      </trkpt>
      <trkpt lat="45.91583" lon="4.44507">
        <ele>568.2</ele>
        <time>2022-06-26T08:45:28Z</time>
      </trkpt>
      <trkpt lat="45.91585" lon="4.44507">
        <ele>568.2</ele>
        <time>2022-06-26T08:45:29Z</time>
      </trkpt>
      <trkpt lat="45.91586" lon="4.44506">
        <ele>568.4</ele>
        <time>2022-06-26T08:45:30Z</time>
      </trkpt>
      <trkpt lat="45.91587" lon="4.44505">
        <ele>568.4</ele>
        <time>2022-06-26T08:45:31Z</time>
      </trkpt>
      <trkpt lat="45.91588" lon="4.44503">
        <ele>568.6</ele>
        <time>2022-06-26T08:45:32Z</time>
      </trkpt>
      <trkpt lat="45.9159" lon="4.44502">
        <ele>568.6</ele>
        <time>2022-06-26T08:45:33Z</time>
      </trkpt>
      <trkpt lat="45.91592" lon="4.445">
        <ele>569</ele>
        <time>2022-06-26T08:45:34Z</time>
      </trkpt>
      <trkpt lat="45.91593" lon="4.44499">
        <ele>569</ele>
        <time>2022-06-26T08:45:35Z</time>
      </trkpt>
      <trkpt lat="45.91595" lon="4.44498">
        <ele>569.2</ele>
        <time>2022-06-26T08:45:36Z</time>
      </trkpt>
      <trkpt lat="45.91596" lon="4.44497">
        <ele>569.4</ele>
        <time>2022-06-26T08:45:37Z</time>
      </trkpt>
      <trkpt lat="45.91597" lon="4.44496">
        <ele>569.8</ele>
        <time>2022-06-26T08:45:38Z</time>
      </trkpt>
      <trkpt lat="45.91598" lon="4.44495">
        <ele>569.8</ele>
        <time>2022-06-26T08:45:39Z</time>
      </trkpt>
      <trkpt lat="45.91598" lon="4.44494">
        <ele>570</ele>
        <time>2022-06-26T08:45:40Z</time>
      </trkpt>
      <trkpt lat="45.91599" lon="4.44492">
        <ele>570</ele>
        <time>2022-06-26T08:45:41Z</time>
      </trkpt>
      <trkpt lat="45.91599" lon="4.4449">
        <ele>570.4</ele>
        <time>2022-06-26T08:45:42Z</time>
      </trkpt>
      <trkpt lat="45.916" lon="4.44488">
        <ele>570.4</ele>
        <time>2022-06-26T08:45:43Z</time>
      </trkpt>
      <trkpt lat="45.91601" lon="4.44486">
        <ele>570.8</ele>
        <time>2022-06-26T08:45:44Z</time>
      </trkpt>
      <trkpt lat="45.91601" lon="4.44484">
        <ele>570.8</ele>
        <time>2022-06-26T08:45:45Z</time>
      </trkpt>
      <trkpt lat="45.91602" lon="4.44482">
        <ele>571</ele>
        <time>2022-06-26T08:45:46Z</time>
      </trkpt>
      <trkpt lat="45.91603" lon="4.4448">
        <ele>571</ele>
        <time>2022-06-26T08:45:47Z</time>
      </trkpt>
      <trkpt lat="45.91604" lon="4.44478">
        <ele>571.4</ele>
        <time>2022-06-26T08:45:48Z</time>
      </trkpt>
      <trkpt lat="45.91604" lon="4.44476">
        <ele>571.6</ele>
        <time>2022-06-26T08:45:49Z</time>
      </trkpt>
      <trkpt lat="45.91605" lon="4.44474">
        <ele>571.6</ele>
        <time>2022-06-26T08:45:50Z</time>
      </trkpt>
      <trkpt lat="45.91606" lon="4.44472">
        <ele>572</ele>
        <time>2022-06-26T08:45:51Z</time>
      </trkpt>
      <trkpt lat="45.91607" lon="4.4447">
        <ele>572</ele>
        <time>2022-06-26T08:45:52Z</time>
      </trkpt>
      <trkpt lat="45.91607" lon="4.44468">
        <ele>572.2</ele>
        <time>2022-06-26T08:45:53Z</time>
      </trkpt>
      <trkpt lat="45.91608" lon="4.44466">
        <ele>572.2</ele>
        <time>2022-06-26T08:45:54Z</time>
      </trkpt>
      <trkpt lat="45.91608" lon="4.44465">
        <ele>572.6</ele>
        <time>2022-06-26T08:45:55Z</time>
      </trkpt>
      <trkpt lat="45.91609" lon="4.44463">
        <ele>572.6</ele>
        <time>2022-06-26T08:45:56Z</time>
      </trkpt>
      <trkpt lat="45.91609" lon="4.44461">
        <ele>573</ele>
        <time>2022-06-26T08:45:57Z</time>
      </trkpt>
      <trkpt lat="45.91609" lon="4.44458">
        <ele>573</ele>
        <time>2022-06-26T08:45:58Z</time>
      </trkpt>
      <trkpt lat="45.91608" lon="4.44456">
        <ele>573.4</ele>
        <time>2022-06-26T08:45:59Z</time>
      </trkpt>
      <trkpt lat="45.91609" lon="4.44454">
        <ele>573.4</ele>
        <time>2022-06-26T08:46:00Z</time>
      </trkpt>
      <trkpt lat="45.91609" lon="4.44452">
        <ele>573.6</ele>
        <time>2022-06-26T08:46:01Z</time>
      </trkpt>
      <trkpt lat="45.91609" lon="4.44449">
        <ele>573.8</ele>
        <time>2022-06-26T08:46:02Z</time>
      </trkpt>
      <trkpt lat="45.91609" lon="4.44447">
        <ele>574</ele>
        <time>2022-06-26T08:46:03Z</time>
      </trkpt>
      <trkpt lat="45.91609" lon="4.44445">
        <ele>574.2</ele>
        <time>2022-06-26T08:46:04Z</time>
      </trkpt>
      <trkpt lat="45.91608" lon="4.44442">
        <ele>574.2</ele>
        <time>2022-06-26T08:46:05Z</time>
      </trkpt>
      <trkpt lat="45.91608" lon="4.4444">
        <ele>574.6</ele>
        <time>2022-06-26T08:46:06Z</time>
      </trkpt>
      <trkpt lat="45.91607" lon="4.44438">
        <ele>574.6</ele>
        <time>2022-06-26T08:46:07Z</time>
      </trkpt>
      <trkpt lat="45.91607" lon="4.44435">
        <ele>575</ele>
        <time>2022-06-26T08:46:08Z</time>
      </trkpt>
      <trkpt lat="45.91607" lon="4.44433">
        <ele>575.2</ele>
        <time>2022-06-26T08:46:09Z</time>
      </trkpt>
      <trkpt lat="45.91607" lon="4.44431">
        <ele>575.2</ele>
        <time>2022-06-26T08:46:10Z</time>
      </trkpt>
      <trkpt lat="45.91607" lon="4.44429">
        <ele>575.6</ele>
        <time>2022-06-26T08:46:11Z</time>
      </trkpt>
      <trkpt lat="45.91607" lon="4.44427">
        <ele>575.8</ele>
        <time>2022-06-26T08:46:12Z</time>
      </trkpt>
      <trkpt lat="45.91606" lon="4.44424">
        <ele>576</ele>
        <time>2022-06-26T08:46:13Z</time>
      </trkpt>
      <trkpt lat="45.91606" lon="4.44422">
        <ele>576</ele>
        <time>2022-06-26T08:46:14Z</time>
      </trkpt>
      <trkpt lat="45.91606" lon="4.4442">
        <ele>576.4</ele>
        <time>2022-06-26T08:46:15Z</time>
      </trkpt>
      <trkpt lat="45.91607" lon="4.44418">
        <ele>576.6</ele>
        <time>2022-06-26T08:46:16Z</time>
      </trkpt>
      <trkpt lat="45.91606" lon="4.44416">
        <ele>576.8</ele>
        <time>2022-06-26T08:46:17Z</time>
      </trkpt>
      <trkpt lat="45.91606" lon="4.44414">
        <ele>576.8</ele>
        <time>2022-06-26T08:46:18Z</time>
      </trkpt>
      <trkpt lat="45.91606" lon="4.44411">
        <ele>577.2</ele>
        <time>2022-06-26T08:46:19Z</time>
      </trkpt>
      <trkpt lat="45.91606" lon="4.44409">
        <ele>577.2</ele>
        <time>2022-06-26T08:46:20Z</time>
      </trkpt>
      <trkpt lat="45.91607" lon="4.44407">
        <ele>577.6</ele>
        <time>2022-06-26T08:46:21Z</time>
      </trkpt>
      <trkpt lat="45.91606" lon="4.44405">
        <ele>577.6</ele>
        <time>2022-06-26T08:46:22Z</time>
      </trkpt>
      <trkpt lat="45.91606" lon="4.44403">
        <ele>577.8</ele>
        <time>2022-06-26T08:46:23Z</time>
      </trkpt>
      <trkpt lat="45.91606" lon="4.44401">
        <ele>577.8</ele>
        <time>2022-06-26T08:46:24Z</time>
      </trkpt>
      <trkpt lat="45.91606" lon="4.44398">
        <ele>578</ele>
        <time>2022-06-26T08:46:25Z</time>
      </trkpt>
      <trkpt lat="45.91606" lon="4.44396">
        <ele>578</ele>
        <time>2022-06-26T08:46:26Z</time>
      </trkpt>
      <trkpt lat="45.91606" lon="4.44394">
        <ele>578.4</ele>
        <time>2022-06-26T08:46:27Z</time>
      </trkpt>
      <trkpt lat="45.91605" lon="4.44392">
        <ele>578.4</ele>
        <time>2022-06-26T08:46:28Z</time>
      </trkpt>
      <trkpt lat="45.91605" lon="4.4439">
        <ele>578.8</ele>
        <time>2022-06-26T08:46:29Z</time>
      </trkpt>
      <trkpt lat="45.91605" lon="4.44388">
        <ele>578.8</ele>
        <time>2022-06-26T08:46:30Z</time>
      </trkpt>
      <trkpt lat="45.91606" lon="4.44385">
        <ele>579</ele>
        <time>2022-06-26T08:46:31Z</time>
      </trkpt>
      <trkpt lat="45.91606" lon="4.44383">
        <ele>579</ele>
        <time>2022-06-26T08:46:32Z</time>
      </trkpt>
      <trkpt lat="45.91606" lon="4.4438">
        <ele>579.4</ele>
        <time>2022-06-26T08:46:33Z</time>
      </trkpt>
      <trkpt lat="45.91606" lon="4.44378">
        <ele>579.4</ele>
        <time>2022-06-26T08:46:34Z</time>
      </trkpt>
      <trkpt lat="45.91606" lon="4.44376">
        <ele>579.8</ele>
        <time>2022-06-26T08:46:35Z</time>
      </trkpt>
      <trkpt lat="45.91606" lon="4.44374">
        <ele>580</ele>
        <time>2022-06-26T08:46:36Z</time>
      </trkpt>
      <trkpt lat="45.91606" lon="4.44371">
        <ele>580.2</ele>
        <time>2022-06-26T08:46:37Z</time>
      </trkpt>
      <trkpt lat="45.91606" lon="4.44369">
        <ele>580.2</ele>
        <time>2022-06-26T08:46:38Z</time>
      </trkpt>
      <trkpt lat="45.91605" lon="4.44367">
        <ele>580.6</ele>
        <time>2022-06-26T08:46:39Z</time>
      </trkpt>
      <trkpt lat="45.91605" lon="4.44365">
        <ele>580.8</ele>
        <time>2022-06-26T08:46:40Z</time>
      </trkpt>
      <trkpt lat="45.91605" lon="4.44363">
        <ele>581</ele>
        <time>2022-06-26T08:46:41Z</time>
      </trkpt>
      <trkpt lat="45.91605" lon="4.44361">
        <ele>581.2</ele>
        <time>2022-06-26T08:46:42Z</time>
      </trkpt>
      <trkpt lat="45.91606" lon="4.44359">
        <ele>581.2</ele>
        <time>2022-06-26T08:46:43Z</time>
      </trkpt>
      <trkpt lat="45.91606" lon="4.44357">
        <ele>581.4</ele>
        <time>2022-06-26T08:46:44Z</time>
      </trkpt>
      <trkpt lat="45.91606" lon="4.44355">
        <ele>581.4</ele>
        <time>2022-06-26T08:46:45Z</time>
      </trkpt>
      <trkpt lat="45.91606" lon="4.44353">
        <ele>581.8</ele>
        <time>2022-06-26T08:46:46Z</time>
      </trkpt>
      <trkpt lat="45.91607" lon="4.44351">
        <ele>581.8</ele>
        <time>2022-06-26T08:46:47Z</time>
      </trkpt>
      <trkpt lat="45.91608" lon="4.44349">
        <ele>582.2</ele>
        <time>2022-06-26T08:46:48Z</time>
      </trkpt>
      <trkpt lat="45.91608" lon="4.44347">
        <ele>582.2</ele>
        <time>2022-06-26T08:46:49Z</time>
      </trkpt>
      <trkpt lat="45.91609" lon="4.44345">
        <ele>582.4</ele>
        <time>2022-06-26T08:46:50Z</time>
      </trkpt>
      <trkpt lat="45.91609" lon="4.44343">
        <ele>582.4</ele>
        <time>2022-06-26T08:46:51Z</time>
      </trkpt>
      <trkpt lat="45.91609" lon="4.44341">
        <ele>582.8</ele>
        <time>2022-06-26T08:46:52Z</time>
      </trkpt>
      <trkpt lat="45.9161" lon="4.44339">
        <ele>583</ele>
        <time>2022-06-26T08:46:53Z</time>
      </trkpt>
      <trkpt lat="45.9161" lon="4.44337">
        <ele>583</ele>
        <time>2022-06-26T08:46:54Z</time>
      </trkpt>
      <trkpt lat="45.91611" lon="4.44335">
        <ele>583.2</ele>
        <time>2022-06-26T08:46:55Z</time>
      </trkpt>
      <trkpt lat="45.91612" lon="4.44333">
        <ele>583.2</ele>
        <time>2022-06-26T08:46:56Z</time>
      </trkpt>
      <trkpt lat="45.91612" lon="4.44331">
        <ele>583.6</ele>
        <time>2022-06-26T08:46:57Z</time>
      </trkpt>
      <trkpt lat="45.91613" lon="4.44329">
        <ele>583.8</ele>
        <time>2022-06-26T08:46:58Z</time>
      </trkpt>
      <trkpt lat="45.91613" lon="4.44327">
        <ele>583.8</ele>
        <time>2022-06-26T08:46:59Z</time>
      </trkpt>
      <trkpt lat="45.91614" lon="4.44325">
        <ele>584</ele>
        <time>2022-06-26T08:47:00Z</time>
      </trkpt>
      <trkpt lat="45.91615" lon="4.44324">
        <ele>584</ele>
        <time>2022-06-26T08:47:01Z</time>
      </trkpt>
      <trkpt lat="45.91616" lon="4.44322">
        <ele>584.4</ele>
        <time>2022-06-26T08:47:02Z</time>
      </trkpt>
      <trkpt lat="45.91616" lon="4.4432">
        <ele>584.4</ele>
        <time>2022-06-26T08:47:03Z</time>
      </trkpt>
      <trkpt lat="45.91617" lon="4.44318">
        <ele>584.6</ele>
        <time>2022-06-26T08:47:04Z</time>
      </trkpt>
      <trkpt lat="45.91618" lon="4.44316">
        <ele>584.6</ele>
        <time>2022-06-26T08:47:05Z</time>
      </trkpt>
      <trkpt lat="45.91618" lon="4.44315">
        <ele>585</ele>
        <time>2022-06-26T08:47:06Z</time>
      </trkpt>
      <trkpt lat="45.91619" lon="4.44313">
        <ele>585</ele>
        <time>2022-06-26T08:47:07Z</time>
      </trkpt>
      <trkpt lat="45.9162" lon="4.44311">
        <ele>585.4</ele>
        <time>2022-06-26T08:47:08Z</time>
      </trkpt>
      <trkpt lat="45.9162" lon="4.44309">
        <ele>585.4</ele>
        <time>2022-06-26T08:47:09Z</time>
      </trkpt>
      <trkpt lat="45.91621" lon="4.44308">
        <ele>585.6</ele>
        <time>2022-06-26T08:47:10Z</time>
      </trkpt>
      <trkpt lat="45.91622" lon="4.44306">
        <ele>585.6</ele>
        <time>2022-06-26T08:47:11Z</time>
      </trkpt>
      <trkpt lat="45.91623" lon="4.44304">
        <ele>586</ele>
        <time>2022-06-26T08:47:12Z</time>
      </trkpt>
      <trkpt lat="45.91624" lon="4.44303">
        <ele>586</ele>
        <time>2022-06-26T08:47:13Z</time>
      </trkpt>
      <trkpt lat="45.91625" lon="4.44301">
        <ele>586.4</ele>
        <time>2022-06-26T08:47:14Z</time>
      </trkpt>
      <trkpt lat="45.91626" lon="4.443">
        <ele>586.4</ele>
        <time>2022-06-26T08:47:15Z</time>
      </trkpt>
      <trkpt lat="45.91626" lon="4.44298">
        <ele>586.8</ele>
        <time>2022-06-26T08:47:16Z</time>
      </trkpt>
      <trkpt lat="45.91627" lon="4.44296">
        <ele>586.8</ele>
        <time>2022-06-26T08:47:17Z</time>
      </trkpt>
      <trkpt lat="45.91628" lon="4.44295">
        <ele>587</ele>
        <time>2022-06-26T08:47:18Z</time>
      </trkpt>
      <trkpt lat="45.91629" lon="4.44293">
        <ele>587</ele>
        <time>2022-06-26T08:47:19Z</time>
      </trkpt>
      <trkpt lat="45.9163" lon="4.44291">
        <ele>587.4</ele>
        <time>2022-06-26T08:47:20Z</time>
      </trkpt>
      <trkpt lat="45.91631" lon="4.4429">
        <ele>587.4</ele>
        <time>2022-06-26T08:47:21Z</time>
      </trkpt>
      <trkpt lat="45.91632" lon="4.44288">
        <ele>587.6</ele>
        <time>2022-06-26T08:47:22Z</time>
      </trkpt>
      <trkpt lat="45.91632" lon="4.44287">
        <ele>587.6</ele>
        <time>2022-06-26T08:47:23Z</time>
      </trkpt>
      <trkpt lat="45.91633" lon="4.44285">
        <ele>588</ele>
        <time>2022-06-26T08:47:24Z</time>
      </trkpt>
      <trkpt lat="45.91634" lon="4.44284">
        <ele>588</ele>
        <time>2022-06-26T08:47:25Z</time>
      </trkpt>
      <trkpt lat="45.91635" lon="4.44282">
        <ele>588.4</ele>
        <time>2022-06-26T08:47:26Z</time>
      </trkpt>
      <trkpt lat="45.91636" lon="4.4428">
        <ele>588.4</ele>
        <time>2022-06-26T08:47:27Z</time>
      </trkpt>
      <trkpt lat="45.91636" lon="4.44279">
        <ele>588.6</ele>
        <time>2022-06-26T08:47:28Z</time>
      </trkpt>
      <trkpt lat="45.91637" lon="4.44277">
        <ele>588.6</ele>
        <time>2022-06-26T08:47:29Z</time>
      </trkpt>
      <trkpt lat="45.91638" lon="4.44275">
        <ele>589</ele>
        <time>2022-06-26T08:47:30Z</time>
      </trkpt>
      <trkpt lat="45.91638" lon="4.44273">
        <ele>589</ele>
        <time>2022-06-26T08:47:31Z</time>
      </trkpt>
      <trkpt lat="45.91639" lon="4.44271">
        <ele>589.2</ele>
        <time>2022-06-26T08:47:32Z</time>
      </trkpt>
      <trkpt lat="45.91639" lon="4.4427">
        <ele>589.2</ele>
        <time>2022-06-26T08:47:33Z</time>
      </trkpt>
      <trkpt lat="45.9164" lon="4.44268">
        <ele>589.6</ele>
        <time>2022-06-26T08:47:34Z</time>
      </trkpt>
      <trkpt lat="45.91641" lon="4.44267">
        <ele>589.6</ele>
        <time>2022-06-26T08:47:35Z</time>
      </trkpt>
      <trkpt lat="45.91642" lon="4.44265">
        <ele>589.8</ele>
        <time>2022-06-26T08:47:36Z</time>
      </trkpt>
      <trkpt lat="45.91643" lon="4.44263">
        <ele>590</ele>
        <time>2022-06-26T08:47:37Z</time>
      </trkpt>
      <trkpt lat="45.91644" lon="4.44262">
        <ele>590</ele>
        <time>2022-06-26T08:47:38Z</time>
      </trkpt>
      <trkpt lat="45.91645" lon="4.4426">
        <ele>590.4</ele>
        <time>2022-06-26T08:47:39Z</time>
      </trkpt>
      <trkpt lat="45.91646" lon="4.44258">
        <ele>590.4</ele>
        <time>2022-06-26T08:47:40Z</time>
      </trkpt>
      <trkpt lat="45.91646" lon="4.44256">
        <ele>590.6</ele>
        <time>2022-06-26T08:47:41Z</time>
      </trkpt>
      <trkpt lat="45.91647" lon="4.44254">
        <ele>590.6</ele>
        <time>2022-06-26T08:47:42Z</time>
      </trkpt>
      <trkpt lat="45.91648" lon="4.44252">
        <ele>591</ele>
        <time>2022-06-26T08:47:43Z</time>
      </trkpt>
      <trkpt lat="45.91649" lon="4.4425">
        <ele>591</ele>
        <time>2022-06-26T08:47:44Z</time>
      </trkpt>
      <trkpt lat="45.91649" lon="4.44248">
        <ele>591.2</ele>
        <time>2022-06-26T08:47:45Z</time>
      </trkpt>
      <trkpt lat="45.9165" lon="4.44246">
        <ele>591.2</ele>
        <time>2022-06-26T08:47:46Z</time>
      </trkpt>
      <trkpt lat="45.91651" lon="4.44244">
        <ele>591.4</ele>
        <time>2022-06-26T08:47:47Z</time>
      </trkpt>
      <trkpt lat="45.91652" lon="4.44242">
        <ele>591.4</ele>
        <time>2022-06-26T08:47:48Z</time>
      </trkpt>
      <trkpt lat="45.91653" lon="4.4424">
        <ele>591.8</ele>
        <time>2022-06-26T08:47:49Z</time>
      </trkpt>
      <trkpt lat="45.91654" lon="4.44238">
        <ele>591.8</ele>
        <time>2022-06-26T08:47:50Z</time>
      </trkpt>
      <trkpt lat="45.91655" lon="4.44236">
        <ele>592</ele>
        <time>2022-06-26T08:47:51Z</time>
      </trkpt>
      <trkpt lat="45.91656" lon="4.44234">
        <ele>592</ele>
        <time>2022-06-26T08:47:52Z</time>
      </trkpt>
      <trkpt lat="45.91657" lon="4.44231">
        <ele>592.4</ele>
        <time>2022-06-26T08:47:53Z</time>
      </trkpt>
      <trkpt lat="45.91658" lon="4.44228">
        <ele>592.6</ele>
        <time>2022-06-26T08:47:54Z</time>
      </trkpt>
      <trkpt lat="45.91659" lon="4.44226">
        <ele>592.6</ele>
        <time>2022-06-26T08:47:55Z</time>
      </trkpt>
      <trkpt lat="45.9166" lon="4.44223">
        <ele>593</ele>
        <time>2022-06-26T08:47:56Z</time>
      </trkpt>
      <trkpt lat="45.9166" lon="4.44221">
        <ele>593</ele>
        <time>2022-06-26T08:47:57Z</time>
      </trkpt>
      <trkpt lat="45.91662" lon="4.44216">
        <ele>593.2</ele>
        <time>2022-06-26T08:47:58Z</time>
      </trkpt>
      <trkpt lat="45.91663" lon="4.44213">
        <ele>593.2</ele>
        <time>2022-06-26T08:47:59Z</time>
      </trkpt>
      <trkpt lat="45.91663" lon="4.4421">
        <ele>593.6</ele>
        <time>2022-06-26T08:48:00Z</time>
      </trkpt>
      <trkpt lat="45.91663" lon="4.44208">
        <ele>593.6</ele>
        <time>2022-06-26T08:48:01Z</time>
      </trkpt>
      <trkpt lat="45.91664" lon="4.44205">
        <ele>594</ele>
        <time>2022-06-26T08:48:02Z</time>
      </trkpt>
      <trkpt lat="45.91664" lon="4.44203">
        <ele>594</ele>
        <time>2022-06-26T08:48:03Z</time>
      </trkpt>
      <trkpt lat="45.91665" lon="4.442">
        <ele>594.2</ele>
        <time>2022-06-26T08:48:04Z</time>
      </trkpt>
      <trkpt lat="45.91665" lon="4.44197">
        <ele>594.2</ele>
        <time>2022-06-26T08:48:05Z</time>
      </trkpt>
      <trkpt lat="45.91666" lon="4.44195">
        <ele>594.2</ele>
        <time>2022-06-26T08:48:06Z</time>
      </trkpt>
      <trkpt lat="45.91667" lon="4.44193">
        <ele>594.6</ele>
        <time>2022-06-26T08:48:07Z</time>
      </trkpt>
      <trkpt lat="45.91667" lon="4.4419">
        <ele>594.6</ele>
        <time>2022-06-26T08:48:08Z</time>
      </trkpt>
      <trkpt lat="45.91668" lon="4.44187">
        <ele>594.8</ele>
        <time>2022-06-26T08:48:09Z</time>
      </trkpt>
      <trkpt lat="45.91668" lon="4.44185">
        <ele>594.8</ele>
        <time>2022-06-26T08:48:10Z</time>
      </trkpt>
      <trkpt lat="45.91668" lon="4.44182">
        <ele>594.8</ele>
        <time>2022-06-26T08:48:11Z</time>
      </trkpt>
      <trkpt lat="45.91669" lon="4.4418">
        <ele>595.2</ele>
        <time>2022-06-26T08:48:12Z</time>
      </trkpt>
      <trkpt lat="45.91669" lon="4.44177">
        <ele>595.2</ele>
        <time>2022-06-26T08:48:13Z</time>
      </trkpt>
      <trkpt lat="45.91669" lon="4.44175">
        <ele>595.6</ele>
        <time>2022-06-26T08:48:14Z</time>
      </trkpt>
      <trkpt lat="45.9167" lon="4.44172">
        <ele>595.6</ele>
        <time>2022-06-26T08:48:15Z</time>
      </trkpt>
      <trkpt lat="45.9167" lon="4.4417">
        <ele>595.6</ele>
        <time>2022-06-26T08:48:16Z</time>
      </trkpt>
      <trkpt lat="45.91671" lon="4.44167">
        <ele>595.8</ele>
        <time>2022-06-26T08:48:17Z</time>
      </trkpt>
      <trkpt lat="45.91671" lon="4.44164">
        <ele>595.8</ele>
        <time>2022-06-26T08:48:18Z</time>
      </trkpt>
      <trkpt lat="45.91671" lon="4.44162">
        <ele>596</ele>
        <time>2022-06-26T08:48:19Z</time>
      </trkpt>
      <trkpt lat="45.91672" lon="4.44159">
        <ele>596</ele>
        <time>2022-06-26T08:48:20Z</time>
      </trkpt>
      <trkpt lat="45.91672" lon="4.44156">
        <ele>596</ele>
        <time>2022-06-26T08:48:21Z</time>
      </trkpt>
      <trkpt lat="45.91673" lon="4.44154">
        <ele>596.4</ele>
        <time>2022-06-26T08:48:22Z</time>
      </trkpt>
      <trkpt lat="45.91673" lon="4.44151">
        <ele>596.4</ele>
        <time>2022-06-26T08:48:23Z</time>
      </trkpt>
      <trkpt lat="45.91673" lon="4.44148">
        <ele>596.8</ele>
        <time>2022-06-26T08:48:24Z</time>
      </trkpt>
      <trkpt lat="45.91673" lon="4.44146">
        <ele>596.8</ele>
        <time>2022-06-26T08:48:25Z</time>
      </trkpt>
      <trkpt lat="45.91672" lon="4.44143">
        <ele>597</ele>
        <time>2022-06-26T08:48:26Z</time>
      </trkpt>
      <trkpt lat="45.91672" lon="4.4414">
        <ele>597</ele>
        <time>2022-06-26T08:48:27Z</time>
      </trkpt>
      <trkpt lat="45.91673" lon="4.44137">
        <ele>597.4</ele>
        <time>2022-06-26T08:48:28Z</time>
      </trkpt>
      <trkpt lat="45.91673" lon="4.44134">
        <ele>597.4</ele>
        <time>2022-06-26T08:48:29Z</time>
      </trkpt>
      <trkpt lat="45.91672" lon="4.44131">
        <ele>597.8</ele>
        <time>2022-06-26T08:48:30Z</time>
      </trkpt>
      <trkpt lat="45.91672" lon="4.44128">
        <ele>597.8</ele>
        <time>2022-06-26T08:48:31Z</time>
      </trkpt>
      <trkpt lat="45.91671" lon="4.44125">
        <ele>597.8</ele>
        <time>2022-06-26T08:48:32Z</time>
      </trkpt>
      <trkpt lat="45.91671" lon="4.44123">
        <ele>597.8</ele>
        <time>2022-06-26T08:48:33Z</time>
      </trkpt>
      <trkpt lat="45.91671" lon="4.4412">
        <ele>598</ele>
        <time>2022-06-26T08:48:34Z</time>
      </trkpt>
      <trkpt lat="45.9167" lon="4.44117">
        <ele>598</ele>
        <time>2022-06-26T08:48:35Z</time>
      </trkpt>
      <trkpt lat="45.9167" lon="4.44113">
        <ele>598</ele>
        <time>2022-06-26T08:48:36Z</time>
      </trkpt>
      <trkpt lat="45.91669" lon="4.4411">
        <ele>598.2</ele>
        <time>2022-06-26T08:48:37Z</time>
      </trkpt>
      <trkpt lat="45.91669" lon="4.44107">
        <ele>598.2</ele>
        <time>2022-06-26T08:48:38Z</time>
      </trkpt>
      <trkpt lat="45.91668" lon="4.44104">
        <ele>598.6</ele>
        <time>2022-06-26T08:48:39Z</time>
      </trkpt>
      <trkpt lat="45.91668" lon="4.441">
        <ele>598.6</ele>
        <time>2022-06-26T08:48:40Z</time>
      </trkpt>
      <trkpt lat="45.91667" lon="4.44097">
        <ele>598.8</ele>
        <time>2022-06-26T08:48:41Z</time>
      </trkpt>
      <trkpt lat="45.91667" lon="4.44094">
        <ele>598.8</ele>
        <time>2022-06-26T08:48:42Z</time>
      </trkpt>
      <trkpt lat="45.91666" lon="4.44091">
        <ele>599</ele>
        <time>2022-06-26T08:48:43Z</time>
      </trkpt>
      <trkpt lat="45.91665" lon="4.44087">
        <ele>599</ele>
        <time>2022-06-26T08:48:44Z</time>
      </trkpt>
      <trkpt lat="45.91664" lon="4.44084">
        <ele>599.4</ele>
        <time>2022-06-26T08:48:45Z</time>
      </trkpt>
      <trkpt lat="45.91664" lon="4.4408">
        <ele>599.4</ele>
        <time>2022-06-26T08:48:46Z</time>
      </trkpt>
      <trkpt lat="45.91663" lon="4.44077">
        <ele>599.6</ele>
        <time>2022-06-26T08:48:47Z</time>
      </trkpt>
      <trkpt lat="45.91662" lon="4.44073">
        <ele>599.6</ele>
        <time>2022-06-26T08:48:48Z</time>
      </trkpt>
      <trkpt lat="45.91662" lon="4.4407">
        <ele>599.8</ele>
        <time>2022-06-26T08:48:49Z</time>
      </trkpt>
      <trkpt lat="45.91661" lon="4.44066">
        <ele>599.8</ele>
        <time>2022-06-26T08:48:50Z</time>
      </trkpt>
      <trkpt lat="45.9166" lon="4.44063">
        <ele>599.8</ele>
        <time>2022-06-26T08:48:51Z</time>
      </trkpt>
      <trkpt lat="45.91659" lon="4.44059">
        <ele>600.2</ele>
        <time>2022-06-26T08:48:52Z</time>
      </trkpt>
      <trkpt lat="45.91659" lon="4.44056">
        <ele>600.2</ele>
        <time>2022-06-26T08:48:53Z</time>
      </trkpt>
      <trkpt lat="45.91658" lon="4.44053">
        <ele>600.4</ele>
        <time>2022-06-26T08:48:54Z</time>
      </trkpt>
      <trkpt lat="45.91657" lon="4.44049">
        <ele>600.4</ele>
        <time>2022-06-26T08:48:55Z</time>
      </trkpt>
      <trkpt lat="45.91657" lon="4.44046">
        <ele>600.6</ele>
        <time>2022-06-26T08:48:56Z</time>
      </trkpt>
      <trkpt lat="45.91656" lon="4.44043">
        <ele>600.6</ele>
        <time>2022-06-26T08:48:57Z</time>
      </trkpt>
      <trkpt lat="45.91655" lon="4.44039">
        <ele>601</ele>
        <time>2022-06-26T08:48:58Z</time>
      </trkpt>
      <trkpt lat="45.91654" lon="4.44036">
        <ele>601</ele>
        <time>2022-06-26T08:48:59Z</time>
      </trkpt>
      <trkpt lat="45.91654" lon="4.44033">
        <ele>601.2</ele>
        <time>2022-06-26T08:49:00Z</time>
      </trkpt>
      <trkpt lat="45.91653" lon="4.44029">
        <ele>601.2</ele>
        <time>2022-06-26T08:49:01Z</time>
      </trkpt>
      <trkpt lat="45.91652" lon="4.44026">
        <ele>601.4</ele>
        <time>2022-06-26T08:49:02Z</time>
      </trkpt>
      <trkpt lat="45.91652" lon="4.44022">
        <ele>601.4</ele>
        <time>2022-06-26T08:49:03Z</time>
      </trkpt>
      <trkpt lat="45.91651" lon="4.44019">
        <ele>601.6</ele>
        <time>2022-06-26T08:49:04Z</time>
      </trkpt>
      <trkpt lat="45.9165" lon="4.44015">
        <ele>601.6</ele>
        <time>2022-06-26T08:49:05Z</time>
      </trkpt>
      <trkpt lat="45.91649" lon="4.44012">
        <ele>601.8</ele>
        <time>2022-06-26T08:49:06Z</time>
      </trkpt>
      <trkpt lat="45.91648" lon="4.44008">
        <ele>601.8</ele>
        <time>2022-06-26T08:49:07Z</time>
      </trkpt>
      <trkpt lat="45.91648" lon="4.44005">
        <ele>601.8</ele>
        <time>2022-06-26T08:49:08Z</time>
      </trkpt>
      <trkpt lat="45.91647" lon="4.44001">
        <ele>602.2</ele>
        <time>2022-06-26T08:49:09Z</time>
      </trkpt>
      <trkpt lat="45.91646" lon="4.43998">
        <ele>602.2</ele>
        <time>2022-06-26T08:49:10Z</time>
      </trkpt>
      <trkpt lat="45.91646" lon="4.43994">
        <ele>602.2</ele>
        <time>2022-06-26T08:49:11Z</time>
      </trkpt>
      <trkpt lat="45.91645" lon="4.43991">
        <ele>602.4</ele>
        <time>2022-06-26T08:49:12Z</time>
      </trkpt>
      <trkpt lat="45.91644" lon="4.43987">
        <ele>602.4</ele>
        <time>2022-06-26T08:49:13Z</time>
      </trkpt>
      <trkpt lat="45.91644" lon="4.43984">
        <ele>602.4</ele>
        <time>2022-06-26T08:49:14Z</time>
      </trkpt>
      <trkpt lat="45.91643" lon="4.43981">
        <ele>602.6</ele>
        <time>2022-06-26T08:49:15Z</time>
      </trkpt>
      <trkpt lat="45.91642" lon="4.43977">
        <ele>602.6</ele>
        <time>2022-06-26T08:49:16Z</time>
      </trkpt>
      <trkpt lat="45.91641" lon="4.43974">
        <ele>602.6</ele>
        <time>2022-06-26T08:49:17Z</time>
      </trkpt>
      <trkpt lat="45.91641" lon="4.43971">
        <ele>603</ele>
        <time>2022-06-26T08:49:18Z</time>
      </trkpt>
      <trkpt lat="45.9164" lon="4.43968">
        <ele>603</ele>
        <time>2022-06-26T08:49:19Z</time>
      </trkpt>
      <trkpt lat="45.91639" lon="4.43965">
        <ele>603.2</ele>
        <time>2022-06-26T08:49:20Z</time>
      </trkpt>
      <trkpt lat="45.91638" lon="4.43961">
        <ele>603.4</ele>
        <time>2022-06-26T08:49:21Z</time>
      </trkpt>
      <trkpt lat="45.91638" lon="4.43958">
        <ele>603.4</ele>
        <time>2022-06-26T08:49:22Z</time>
      </trkpt>
      <trkpt lat="45.91637" lon="4.43955">
        <ele>603.6</ele>
        <time>2022-06-26T08:49:23Z</time>
      </trkpt>
      <trkpt lat="45.91636" lon="4.43952">
        <ele>603.6</ele>
        <time>2022-06-26T08:49:24Z</time>
      </trkpt>
      <trkpt lat="45.91635" lon="4.4395">
        <ele>603.8</ele>
        <time>2022-06-26T08:49:25Z</time>
      </trkpt>
      <trkpt lat="45.91634" lon="4.43947">
        <ele>603.8</ele>
        <time>2022-06-26T08:49:26Z</time>
      </trkpt>
      <trkpt lat="45.91633" lon="4.43944">
        <ele>603.8</ele>
        <time>2022-06-26T08:49:27Z</time>
      </trkpt>
      <trkpt lat="45.91633" lon="4.43941">
        <ele>604</ele>
        <time>2022-06-26T08:49:28Z</time>
      </trkpt>
      <trkpt lat="45.91632" lon="4.43937">
        <ele>604</ele>
        <time>2022-06-26T08:49:29Z</time>
      </trkpt>
      <trkpt lat="45.91631" lon="4.43934">
        <ele>604</ele>
        <time>2022-06-26T08:49:30Z</time>
      </trkpt>
      <trkpt lat="45.91631" lon="4.43931">
        <ele>604</ele>
        <time>2022-06-26T08:49:31Z</time>
      </trkpt>
      <trkpt lat="45.9163" lon="4.43928">
        <ele>604</ele>
        <time>2022-06-26T08:49:32Z</time>
      </trkpt>
      <trkpt lat="45.9163" lon="4.43925">
        <ele>604</ele>
        <time>2022-06-26T08:49:33Z</time>
      </trkpt>
      <trkpt lat="45.91629" lon="4.43922">
        <ele>604</ele>
        <time>2022-06-26T08:49:34Z</time>
      </trkpt>
      <trkpt lat="45.91628" lon="4.43918">
        <ele>604</ele>
        <time>2022-06-26T08:49:35Z</time>
      </trkpt>
      <trkpt lat="45.91628" lon="4.43914">
        <ele>604</ele>
        <time>2022-06-26T08:49:36Z</time>
      </trkpt>
      <trkpt lat="45.91629" lon="4.4391">
        <ele>604</ele>
        <time>2022-06-26T08:49:37Z</time>
      </trkpt>
      <trkpt lat="45.91631" lon="4.43906">
        <ele>603.8</ele>
        <time>2022-06-26T08:49:38Z</time>
      </trkpt>
      <trkpt lat="45.91634" lon="4.43902">
        <ele>603.8</ele>
        <time>2022-06-26T08:49:39Z</time>
      </trkpt>
      <trkpt lat="45.91638" lon="4.43899">
        <ele>603.4</ele>
        <time>2022-06-26T08:49:40Z</time>
      </trkpt>
      <trkpt lat="45.91642" lon="4.43895">
        <ele>603.2</ele>
        <time>2022-06-26T08:49:41Z</time>
      </trkpt>
      <trkpt lat="45.91646" lon="4.4389">
        <ele>603.2</ele>
        <time>2022-06-26T08:49:42Z</time>
      </trkpt>
      <trkpt lat="45.9165" lon="4.43885">
        <ele>602.8</ele>
        <time>2022-06-26T08:49:43Z</time>
      </trkpt>
      <trkpt lat="45.91654" lon="4.4388">
        <ele>602.4</ele>
        <time>2022-06-26T08:49:44Z</time>
      </trkpt>
      <trkpt lat="45.9166" lon="4.43874">
        <ele>602.2</ele>
        <time>2022-06-26T08:49:45Z</time>
      </trkpt>
      <trkpt lat="45.91665" lon="4.43868">
        <ele>601.8</ele>
        <time>2022-06-26T08:49:46Z</time>
      </trkpt>
      <trkpt lat="45.9167" lon="4.43862">
        <ele>601.4</ele>
        <time>2022-06-26T08:49:47Z</time>
      </trkpt>
      <trkpt lat="45.91675" lon="4.43855">
        <ele>600.8</ele>
        <time>2022-06-26T08:49:48Z</time>
      </trkpt>
      <trkpt lat="45.91681" lon="4.43848">
        <ele>600.4</ele>
        <time>2022-06-26T08:49:49Z</time>
      </trkpt>
      <trkpt lat="45.91687" lon="4.43841">
        <ele>600</ele>
        <time>2022-06-26T08:49:50Z</time>
      </trkpt>
      <trkpt lat="45.91693" lon="4.43834">
        <ele>599.8</ele>
        <time>2022-06-26T08:49:51Z</time>
      </trkpt>
      <trkpt lat="45.91699" lon="4.43827">
        <ele>599.4</ele>
        <time>2022-06-26T08:49:52Z</time>
      </trkpt>
      <trkpt lat="45.91705" lon="4.4382">
        <ele>599</ele>
        <time>2022-06-26T08:49:53Z</time>
      </trkpt>
      <trkpt lat="45.91711" lon="4.43814">
        <ele>598.8</ele>
        <time>2022-06-26T08:49:54Z</time>
      </trkpt>
      <trkpt lat="45.91718" lon="4.43807">
        <ele>598.6</ele>
        <time>2022-06-26T08:49:55Z</time>
      </trkpt>
      <trkpt lat="45.91724" lon="4.43801">
        <ele>598.6</ele>
        <time>2022-06-26T08:49:56Z</time>
      </trkpt>
      <trkpt lat="45.9173" lon="4.43796">
        <ele>598</ele>
        <time>2022-06-26T08:49:57Z</time>
      </trkpt>
      <trkpt lat="45.91737" lon="4.43791">
        <ele>597.6</ele>
        <time>2022-06-26T08:49:58Z</time>
      </trkpt>
      <trkpt lat="45.91743" lon="4.43787">
        <ele>597.4</ele>
        <time>2022-06-26T08:49:59Z</time>
      </trkpt>
      <trkpt lat="45.91751" lon="4.43785">
        <ele>597.4</ele>
        <time>2022-06-26T08:50:00Z</time>
      </trkpt>
      <trkpt lat="45.91758" lon="4.43784">
        <ele>597</ele>
        <time>2022-06-26T08:50:01Z</time>
      </trkpt>
      <trkpt lat="45.91766" lon="4.43784">
        <ele>597</ele>
        <time>2022-06-26T08:50:02Z</time>
      </trkpt>
      <trkpt lat="45.91773" lon="4.43785">
        <ele>596.8</ele>
        <time>2022-06-26T08:50:03Z</time>
      </trkpt>
      <trkpt lat="45.9178" lon="4.43786">
        <ele>596.8</ele>
        <time>2022-06-26T08:50:04Z</time>
      </trkpt>
      <trkpt lat="45.91787" lon="4.43789">
        <ele>596.6</ele>
        <time>2022-06-26T08:50:05Z</time>
      </trkpt>
      <trkpt lat="45.91794" lon="4.43791">
        <ele>596.2</ele>
        <time>2022-06-26T08:50:06Z</time>
      </trkpt>
      <trkpt lat="45.91801" lon="4.43793">
        <ele>596</ele>
        <time>2022-06-26T08:50:07Z</time>
      </trkpt>
      <trkpt lat="45.91807" lon="4.43795">
        <ele>596</ele>
        <time>2022-06-26T08:50:08Z</time>
      </trkpt>
      <trkpt lat="45.91813" lon="4.43796">
        <ele>595.6</ele>
        <time>2022-06-26T08:50:09Z</time>
      </trkpt>
      <trkpt lat="45.9182" lon="4.43796">
        <ele>595.4</ele>
        <time>2022-06-26T08:50:10Z</time>
      </trkpt>
      <trkpt lat="45.91826" lon="4.43795">
        <ele>595.2</ele>
        <time>2022-06-26T08:50:11Z</time>
      </trkpt>
      <trkpt lat="45.91832" lon="4.43792">
        <ele>595</ele>
        <time>2022-06-26T08:50:12Z</time>
      </trkpt>
      <trkpt lat="45.91838" lon="4.43788">
        <ele>594.8</ele>
        <time>2022-06-26T08:50:13Z</time>
      </trkpt>
      <trkpt lat="45.91843" lon="4.43783">
        <ele>594.8</ele>
        <time>2022-06-26T08:50:14Z</time>
      </trkpt>
      <trkpt lat="45.91848" lon="4.43778">
        <ele>594.4</ele>
        <time>2022-06-26T08:50:15Z</time>
      </trkpt>
      <trkpt lat="45.91853" lon="4.43773">
        <ele>594.4</ele>
        <time>2022-06-26T08:50:16Z</time>
      </trkpt>
      <trkpt lat="45.91858" lon="4.43768">
        <ele>594</ele>
        <time>2022-06-26T08:50:17Z</time>
      </trkpt>
      <trkpt lat="45.91862" lon="4.43763">
        <ele>594</ele>
        <time>2022-06-26T08:50:18Z</time>
      </trkpt>
      <trkpt lat="45.91866" lon="4.43758">
        <ele>594</ele>
        <time>2022-06-26T08:50:19Z</time>
      </trkpt>
      <trkpt lat="45.91871" lon="4.43753">
        <ele>594</ele>
        <time>2022-06-26T08:50:20Z</time>
      </trkpt>
      <trkpt lat="45.91874" lon="4.43748">
        <ele>594</ele>
        <time>2022-06-26T08:50:21Z</time>
      </trkpt>
      <trkpt lat="45.91878" lon="4.43743">
        <ele>594</ele>
        <time>2022-06-26T08:50:22Z</time>
      </trkpt>
      <trkpt lat="45.91882" lon="4.43738">
        <ele>594</ele>
        <time>2022-06-26T08:50:23Z</time>
      </trkpt>
      <trkpt lat="45.91885" lon="4.43733">
        <ele>594</ele>
        <time>2022-06-26T08:50:24Z</time>
      </trkpt>
      <trkpt lat="45.91888" lon="4.43727">
        <ele>594</ele>
        <time>2022-06-26T08:50:25Z</time>
      </trkpt>
      <trkpt lat="45.91891" lon="4.43722">
        <ele>594</ele>
        <time>2022-06-26T08:50:26Z</time>
      </trkpt>
      <trkpt lat="45.91893" lon="4.43717">
        <ele>594</ele>
        <time>2022-06-26T08:50:27Z</time>
      </trkpt>
      <trkpt lat="45.91895" lon="4.43712">
        <ele>594.4</ele>
        <time>2022-06-26T08:50:28Z</time>
      </trkpt>
      <trkpt lat="45.91897" lon="4.43707">
        <ele>594.4</ele>
        <time>2022-06-26T08:50:29Z</time>
      </trkpt>
      <trkpt lat="45.91899" lon="4.43702">
        <ele>594.4</ele>
        <time>2022-06-26T08:50:30Z</time>
      </trkpt>
      <trkpt lat="45.91902" lon="4.43697">
        <ele>594.4</ele>
        <time>2022-06-26T08:50:31Z</time>
      </trkpt>
      <trkpt lat="45.91904" lon="4.43692">
        <ele>594.4</ele>
        <time>2022-06-26T08:50:32Z</time>
      </trkpt>
      <trkpt lat="45.91907" lon="4.43687">
        <ele>594.4</ele>
        <time>2022-06-26T08:50:33Z</time>
      </trkpt>
      <trkpt lat="45.91909" lon="4.43682">
        <ele>594.4</ele>
        <time>2022-06-26T08:50:34Z</time>
      </trkpt>
      <trkpt lat="45.91912" lon="4.43678">
        <ele>594.4</ele>
        <time>2022-06-26T08:50:35Z</time>
      </trkpt>
      <trkpt lat="45.91914" lon="4.43674">
        <ele>594.4</ele>
        <time>2022-06-26T08:50:36Z</time>
      </trkpt>
      <trkpt lat="45.91916" lon="4.43669">
        <ele>594.4</ele>
        <time>2022-06-26T08:50:37Z</time>
      </trkpt>
      <trkpt lat="45.91918" lon="4.43666">
        <ele>594.4</ele>
        <time>2022-06-26T08:50:38Z</time>
      </trkpt>
      <trkpt lat="45.9192" lon="4.43662">
        <ele>594.4</ele>
        <time>2022-06-26T08:50:39Z</time>
      </trkpt>
      <trkpt lat="45.91922" lon="4.43658">
        <ele>594.4</ele>
        <time>2022-06-26T08:50:40Z</time>
      </trkpt>
      <trkpt lat="45.91925" lon="4.43654">
        <ele>594.4</ele>
        <time>2022-06-26T08:50:41Z</time>
      </trkpt>
      <trkpt lat="45.91928" lon="4.43649">
        <ele>594.4</ele>
        <time>2022-06-26T08:50:42Z</time>
      </trkpt>
      <trkpt lat="45.91931" lon="4.43644">
        <ele>594.4</ele>
        <time>2022-06-26T08:50:43Z</time>
      </trkpt>
      <trkpt lat="45.91934" lon="4.4364">
        <ele>594.4</ele>
        <time>2022-06-26T08:50:44Z</time>
      </trkpt>
      <trkpt lat="45.91937" lon="4.43636">
        <ele>594.4</ele>
        <time>2022-06-26T08:50:45Z</time>
      </trkpt>
      <trkpt lat="45.9194" lon="4.43632">
        <ele>594.4</ele>
        <time>2022-06-26T08:50:46Z</time>
      </trkpt>
      <trkpt lat="45.91943" lon="4.43628">
        <ele>594.4</ele>
        <time>2022-06-26T08:50:47Z</time>
      </trkpt>
      <trkpt lat="45.91946" lon="4.43624">
        <ele>594.4</ele>
        <time>2022-06-26T08:50:48Z</time>
      </trkpt>
      <trkpt lat="45.9195" lon="4.43619">
        <ele>594.4</ele>
        <time>2022-06-26T08:50:49Z</time>
      </trkpt>
      <trkpt lat="45.91954" lon="4.43614">
        <ele>594.2</ele>
        <time>2022-06-26T08:50:50Z</time>
      </trkpt>
      <trkpt lat="45.91958" lon="4.43609">
        <ele>594.2</ele>
        <time>2022-06-26T08:50:51Z</time>
      </trkpt>
      <trkpt lat="45.91961" lon="4.43604">
        <ele>594.2</ele>
        <time>2022-06-26T08:50:52Z</time>
      </trkpt>
      <trkpt lat="45.91965" lon="4.436">
        <ele>594.2</ele>
        <time>2022-06-26T08:50:53Z</time>
      </trkpt>
      <trkpt lat="45.91969" lon="4.43594">
        <ele>594.2</ele>
        <time>2022-06-26T08:50:54Z</time>
      </trkpt>
      <trkpt lat="45.91974" lon="4.43589">
        <ele>594.2</ele>
        <time>2022-06-26T08:50:55Z</time>
      </trkpt>
      <trkpt lat="45.91978" lon="4.43583">
        <ele>594.2</ele>
        <time>2022-06-26T08:50:56Z</time>
      </trkpt>
      <trkpt lat="45.91982" lon="4.43578">
        <ele>594.2</ele>
        <time>2022-06-26T08:50:57Z</time>
      </trkpt>
      <trkpt lat="45.91986" lon="4.43572">
        <ele>594.2</ele>
        <time>2022-06-26T08:50:58Z</time>
      </trkpt>
      <trkpt lat="45.91991" lon="4.43566">
        <ele>594.2</ele>
        <time>2022-06-26T08:50:59Z</time>
      </trkpt>
      <trkpt lat="45.91997" lon="4.4356">
        <ele>594.2</ele>
        <time>2022-06-26T08:51:00Z</time>
      </trkpt>
      <trkpt lat="45.92002" lon="4.43555">
        <ele>594.2</ele>
        <time>2022-06-26T08:51:01Z</time>
      </trkpt>
      <trkpt lat="45.92007" lon="4.4355">
        <ele>594.2</ele>
        <time>2022-06-26T08:51:02Z</time>
      </trkpt>
      <trkpt lat="45.92012" lon="4.43545">
        <ele>594.2</ele>
        <time>2022-06-26T08:51:03Z</time>
      </trkpt>
      <trkpt lat="45.92016" lon="4.43541">
        <ele>594.2</ele>
        <time>2022-06-26T08:51:04Z</time>
      </trkpt>
      <trkpt lat="45.92021" lon="4.43536">
        <ele>594.2</ele>
        <time>2022-06-26T08:51:05Z</time>
      </trkpt>
      <trkpt lat="45.92025" lon="4.43533">
        <ele>594.2</ele>
        <time>2022-06-26T08:51:06Z</time>
      </trkpt>
      <trkpt lat="45.9203" lon="4.43529">
        <ele>594.2</ele>
        <time>2022-06-26T08:51:07Z</time>
      </trkpt>
      <trkpt lat="45.92035" lon="4.43527">
        <ele>594.2</ele>
        <time>2022-06-26T08:51:08Z</time>
      </trkpt>
      <trkpt lat="45.9204" lon="4.43524">
        <ele>594.2</ele>
        <time>2022-06-26T08:51:09Z</time>
      </trkpt>
      <trkpt lat="45.92044" lon="4.43522">
        <ele>594.2</ele>
        <time>2022-06-26T08:51:10Z</time>
      </trkpt>
      <trkpt lat="45.92048" lon="4.43519">
        <ele>594.2</ele>
        <time>2022-06-26T08:51:11Z</time>
      </trkpt>
      <trkpt lat="45.92053" lon="4.43518">
        <ele>594.2</ele>
        <time>2022-06-26T08:51:12Z</time>
      </trkpt>
      <trkpt lat="45.92058" lon="4.43516">
        <ele>594.2</ele>
        <time>2022-06-26T08:51:13Z</time>
      </trkpt>
      <trkpt lat="45.92064" lon="4.43514">
        <ele>594.2</ele>
        <time>2022-06-26T08:51:14Z</time>
      </trkpt>
      <trkpt lat="45.92068" lon="4.43512">
        <ele>594.2</ele>
        <time>2022-06-26T08:51:15Z</time>
      </trkpt>
      <trkpt lat="45.92074" lon="4.43511">
        <ele>594.4</ele>
        <time>2022-06-26T08:51:16Z</time>
      </trkpt>
      <trkpt lat="45.92078" lon="4.4351">
        <ele>594.4</ele>
        <time>2022-06-26T08:51:17Z</time>
      </trkpt>
      <trkpt lat="45.92083" lon="4.43509">
        <ele>594.4</ele>
        <time>2022-06-26T08:51:18Z</time>
      </trkpt>
      <trkpt lat="45.92087" lon="4.43508">
        <ele>594.4</ele>
        <time>2022-06-26T08:51:19Z</time>
      </trkpt>
      <trkpt lat="45.92092" lon="4.43507">
        <ele>594.4</ele>
        <time>2022-06-26T08:51:20Z</time>
      </trkpt>
      <trkpt lat="45.92096" lon="4.43506">
        <ele>594.4</ele>
        <time>2022-06-26T08:51:21Z</time>
      </trkpt>
      <trkpt lat="45.92102" lon="4.43504">
        <ele>594.6</ele>
        <time>2022-06-26T08:51:22Z</time>
      </trkpt>
      <trkpt lat="45.92107" lon="4.43504">
        <ele>594.6</ele>
        <time>2022-06-26T08:51:23Z</time>
      </trkpt>
      <trkpt lat="45.92112" lon="4.43503">
        <ele>594.6</ele>
        <time>2022-06-26T08:51:24Z</time>
      </trkpt>
      <trkpt lat="45.92116" lon="4.43502">
        <ele>594.6</ele>
        <time>2022-06-26T08:51:25Z</time>
      </trkpt>
      <trkpt lat="45.92121" lon="4.435">
        <ele>594.6</ele>
        <time>2022-06-26T08:51:26Z</time>
      </trkpt>
      <trkpt lat="45.92126" lon="4.43499">
        <ele>594.6</ele>
        <time>2022-06-26T08:51:27Z</time>
      </trkpt>
      <trkpt lat="45.92131" lon="4.43498">
        <ele>594.4</ele>
        <time>2022-06-26T08:51:28Z</time>
      </trkpt>
      <trkpt lat="45.92136" lon="4.43497">
        <ele>594.4</ele>
        <time>2022-06-26T08:51:29Z</time>
      </trkpt>
      <trkpt lat="45.92142" lon="4.43498">
        <ele>594.4</ele>
        <time>2022-06-26T08:51:30Z</time>
      </trkpt>
      <trkpt lat="45.92148" lon="4.43497">
        <ele>594.4</ele>
        <time>2022-06-26T08:51:31Z</time>
      </trkpt>
      <trkpt lat="45.92153" lon="4.43497">
        <ele>594.2</ele>
        <time>2022-06-26T08:51:32Z</time>
      </trkpt>
      <trkpt lat="45.92159" lon="4.43498">
        <ele>594.2</ele>
        <time>2022-06-26T08:51:33Z</time>
      </trkpt>
      <trkpt lat="45.92164" lon="4.43499">
        <ele>594.2</ele>
        <time>2022-06-26T08:51:34Z</time>
      </trkpt>
      <trkpt lat="45.92166" lon="4.43499">
        <ele>593.8</ele>
        <time>2022-06-26T08:51:35Z</time>
      </trkpt>
      <trkpt lat="45.92169" lon="4.43499">
        <ele>593.8</ele>
        <time>2022-06-26T08:51:36Z</time>
      </trkpt>
      <trkpt lat="45.92173" lon="4.43501">
        <ele>593.8</ele>
        <time>2022-06-26T08:51:37Z</time>
      </trkpt>
      <trkpt lat="45.92178" lon="4.43502">
        <ele>593.8</ele>
        <time>2022-06-26T08:51:38Z</time>
      </trkpt>
      <trkpt lat="45.92182" lon="4.43504">
        <ele>593.8</ele>
        <time>2022-06-26T08:51:39Z</time>
      </trkpt>
      <trkpt lat="45.92186" lon="4.43506">
        <ele>594</ele>
        <time>2022-06-26T08:51:40Z</time>
      </trkpt>
      <trkpt lat="45.9219" lon="4.43508">
        <ele>594</ele>
        <time>2022-06-26T08:51:41Z</time>
      </trkpt>
      <trkpt lat="45.92194" lon="4.43511">
        <ele>594</ele>
        <time>2022-06-26T08:51:42Z</time>
      </trkpt>
      <trkpt lat="45.92198" lon="4.43514">
        <ele>594</ele>
        <time>2022-06-26T08:51:43Z</time>
      </trkpt>
      <trkpt lat="45.92202" lon="4.43517">
        <ele>594</ele>
        <time>2022-06-26T08:51:44Z</time>
      </trkpt>
      <trkpt lat="45.92206" lon="4.43521">
        <ele>594</ele>
        <time>2022-06-26T08:51:45Z</time>
      </trkpt>
      <trkpt lat="45.92209" lon="4.43525">
        <ele>594</ele>
        <time>2022-06-26T08:51:46Z</time>
      </trkpt>
      <trkpt lat="45.92213" lon="4.4353">
        <ele>594</ele>
        <time>2022-06-26T08:51:47Z</time>
      </trkpt>
      <trkpt lat="45.92216" lon="4.43535">
        <ele>593.8</ele>
        <time>2022-06-26T08:51:48Z</time>
      </trkpt>
      <trkpt lat="45.92219" lon="4.4354">
        <ele>593.8</ele>
        <time>2022-06-26T08:51:49Z</time>
      </trkpt>
      <trkpt lat="45.92222" lon="4.43546">
        <ele>593.8</ele>
        <time>2022-06-26T08:51:50Z</time>
      </trkpt>
      <trkpt lat="45.92226" lon="4.4355">
        <ele>593.8</ele>
        <time>2022-06-26T08:51:51Z</time>
      </trkpt>
      <trkpt lat="45.9223" lon="4.43554">
        <ele>593.8</ele>
        <time>2022-06-26T08:51:52Z</time>
      </trkpt>
      <trkpt lat="45.92233" lon="4.43558">
        <ele>593.8</ele>
        <time>2022-06-26T08:51:53Z</time>
      </trkpt>
      <trkpt lat="45.92237" lon="4.43561">
        <ele>593.8</ele>
        <time>2022-06-26T08:51:54Z</time>
      </trkpt>
      <trkpt lat="45.9224" lon="4.43563">
        <ele>594.2</ele>
        <time>2022-06-26T08:51:55Z</time>
      </trkpt>
      <trkpt lat="45.92243" lon="4.43564">
        <ele>594.6</ele>
        <time>2022-06-26T08:51:56Z</time>
      </trkpt>
      <trkpt lat="45.92245" lon="4.43566">
        <ele>594.8</ele>
        <time>2022-06-26T08:51:57Z</time>
      </trkpt>
      <trkpt lat="45.92248" lon="4.43567">
        <ele>595.2</ele>
        <time>2022-06-26T08:51:58Z</time>
      </trkpt>
      <trkpt lat="45.9225" lon="4.43569">
        <ele>595.8</ele>
        <time>2022-06-26T08:51:59Z</time>
      </trkpt>
      <trkpt lat="45.92253" lon="4.4357">
        <ele>596</ele>
        <time>2022-06-26T08:52:00Z</time>
      </trkpt>
      <trkpt lat="45.92255" lon="4.43571">
        <ele>596.4</ele>
        <time>2022-06-26T08:52:01Z</time>
      </trkpt>
      <trkpt lat="45.92257" lon="4.43572">
        <ele>596.6</ele>
        <time>2022-06-26T08:52:02Z</time>
      </trkpt>
      <trkpt lat="45.9226" lon="4.43573">
        <ele>596.6</ele>
        <time>2022-06-26T08:52:03Z</time>
      </trkpt>
      <trkpt lat="45.92262" lon="4.43575">
        <ele>597</ele>
        <time>2022-06-26T08:52:04Z</time>
      </trkpt>
      <trkpt lat="45.92264" lon="4.43577">
        <ele>597.2</ele>
        <time>2022-06-26T08:52:05Z</time>
      </trkpt>
      <trkpt lat="45.92266" lon="4.43579">
        <ele>597.2</ele>
        <time>2022-06-26T08:52:06Z</time>
      </trkpt>
      <trkpt lat="45.92269" lon="4.43581">
        <ele>597.6</ele>
        <time>2022-06-26T08:52:07Z</time>
      </trkpt>
      <trkpt lat="45.92271" lon="4.43582">
        <ele>597.6</ele>
        <time>2022-06-26T08:52:08Z</time>
      </trkpt>
      <trkpt lat="45.92274" lon="4.43583">
        <ele>597.6</ele>
        <time>2022-06-26T08:52:09Z</time>
      </trkpt>
      <trkpt lat="45.92276" lon="4.43585">
        <ele>598</ele>
        <time>2022-06-26T08:52:10Z</time>
      </trkpt>
      <trkpt lat="45.92278" lon="4.43585">
        <ele>598</ele>
        <time>2022-06-26T08:52:11Z</time>
      </trkpt>
      <trkpt lat="45.92281" lon="4.43586">
        <ele>598</ele>
        <time>2022-06-26T08:52:12Z</time>
      </trkpt>
      <trkpt lat="45.92283" lon="4.43585">
        <ele>598.2</ele>
        <time>2022-06-26T08:52:13Z</time>
      </trkpt>
      <trkpt lat="45.92285" lon="4.43582">
        <ele>598.2</ele>
        <time>2022-06-26T08:52:14Z</time>
      </trkpt>
      <trkpt lat="45.92287" lon="4.43579">
        <ele>598.4</ele>
        <time>2022-06-26T08:52:15Z</time>
      </trkpt>
      <trkpt lat="45.92287" lon="4.43575">
        <ele>598.6</ele>
        <time>2022-06-26T08:52:16Z</time>
      </trkpt>
      <trkpt lat="45.92287" lon="4.43572">
        <ele>599</ele>
        <time>2022-06-26T08:52:17Z</time>
      </trkpt>
      <trkpt lat="45.92287" lon="4.43568">
        <ele>599.2</ele>
        <time>2022-06-26T08:52:18Z</time>
      </trkpt>
      <trkpt lat="45.92287" lon="4.43564">
        <ele>599.6</ele>
        <time>2022-06-26T08:52:19Z</time>
      </trkpt>
      <trkpt lat="45.92287" lon="4.43561">
        <ele>600</ele>
        <time>2022-06-26T08:52:20Z</time>
      </trkpt>
      <trkpt lat="45.92287" lon="4.43558">
        <ele>600.2</ele>
        <time>2022-06-26T08:52:21Z</time>
      </trkpt>
      <trkpt lat="45.92286" lon="4.43554">
        <ele>600.6</ele>
        <time>2022-06-26T08:52:22Z</time>
      </trkpt>
      <trkpt lat="45.92286" lon="4.43551">
        <ele>601</ele>
        <time>2022-06-26T08:52:23Z</time>
      </trkpt>
      <trkpt lat="45.92286" lon="4.43548">
        <ele>601.4</ele>
        <time>2022-06-26T08:52:24Z</time>
      </trkpt>
      <trkpt lat="45.92286" lon="4.43545">
        <ele>601.8</ele>
        <time>2022-06-26T08:52:25Z</time>
      </trkpt>
      <trkpt lat="45.92286" lon="4.43543">
        <ele>602.2</ele>
        <time>2022-06-26T08:52:26Z</time>
      </trkpt>
      <trkpt lat="45.92287" lon="4.4354">
        <ele>602.4</ele>
        <time>2022-06-26T08:52:27Z</time>
      </trkpt>
      <trkpt lat="45.92288" lon="4.43538">
        <ele>602.8</ele>
        <time>2022-06-26T08:52:28Z</time>
      </trkpt>
      <trkpt lat="45.92289" lon="4.43536">
        <ele>603</ele>
        <time>2022-06-26T08:52:29Z</time>
      </trkpt>
      <trkpt lat="45.92291" lon="4.43534">
        <ele>603.2</ele>
        <time>2022-06-26T08:52:30Z</time>
      </trkpt>
      <trkpt lat="45.92293" lon="4.43533">
        <ele>603.4</ele>
        <time>2022-06-26T08:52:31Z</time>
      </trkpt>
      <trkpt lat="45.92295" lon="4.43531">
        <ele>603.8</ele>
        <time>2022-06-26T08:52:32Z</time>
      </trkpt>
      <trkpt lat="45.92297" lon="4.4353">
        <ele>604</ele>
        <time>2022-06-26T08:52:33Z</time>
      </trkpt>
      <trkpt lat="45.92299" lon="4.43528">
        <ele>604.2</ele>
        <time>2022-06-26T08:52:34Z</time>
      </trkpt>
      <trkpt lat="45.92301" lon="4.43526">
        <ele>604.2</ele>
        <time>2022-06-26T08:52:35Z</time>
      </trkpt>
      <trkpt lat="45.92303" lon="4.43525">
        <ele>604.6</ele>
        <time>2022-06-26T08:52:36Z</time>
      </trkpt>
      <trkpt lat="45.92305" lon="4.43523">
        <ele>604.6</ele>
        <time>2022-06-26T08:52:37Z</time>
      </trkpt>
      <trkpt lat="45.92306" lon="4.43521">
        <ele>604.8</ele>
        <time>2022-06-26T08:52:38Z</time>
      </trkpt>
      <trkpt lat="45.92308" lon="4.43518">
        <ele>604.8</ele>
        <time>2022-06-26T08:52:39Z</time>
      </trkpt>
      <trkpt lat="45.9231" lon="4.43516">
        <ele>605</ele>
        <time>2022-06-26T08:52:40Z</time>
      </trkpt>
      <trkpt lat="45.92311" lon="4.43514">
        <ele>605</ele>
        <time>2022-06-26T08:52:41Z</time>
      </trkpt>
      <trkpt lat="45.92313" lon="4.43511">
        <ele>605.4</ele>
        <time>2022-06-26T08:52:42Z</time>
      </trkpt>
      <trkpt lat="45.92314" lon="4.43509">
        <ele>605.4</ele>
        <time>2022-06-26T08:52:43Z</time>
      </trkpt>
      <trkpt lat="45.92316" lon="4.43507">
        <ele>605.8</ele>
        <time>2022-06-26T08:52:44Z</time>
      </trkpt>
      <trkpt lat="45.92318" lon="4.43505">
        <ele>605.8</ele>
        <time>2022-06-26T08:52:45Z</time>
      </trkpt>
      <trkpt lat="45.9232" lon="4.43501">
        <ele>606.2</ele>
        <time>2022-06-26T08:52:46Z</time>
      </trkpt>
      <trkpt lat="45.92321" lon="4.43499">
        <ele>606.2</ele>
        <time>2022-06-26T08:52:47Z</time>
      </trkpt>
      <trkpt lat="45.92322" lon="4.43497">
        <ele>606.4</ele>
        <time>2022-06-26T08:52:48Z</time>
      </trkpt>
      <trkpt lat="45.92323" lon="4.43495">
        <ele>606.8</ele>
        <time>2022-06-26T08:52:49Z</time>
      </trkpt>
      <trkpt lat="45.92325" lon="4.43493">
        <ele>606.8</ele>
        <time>2022-06-26T08:52:50Z</time>
      </trkpt>
      <trkpt lat="45.92326" lon="4.43491">
        <ele>607</ele>
        <time>2022-06-26T08:52:51Z</time>
      </trkpt>
      <trkpt lat="45.92327" lon="4.43489">
        <ele>607.2</ele>
        <time>2022-06-26T08:52:52Z</time>
      </trkpt>
      <trkpt lat="45.92328" lon="4.43487">
        <ele>607.6</ele>
        <time>2022-06-26T08:52:53Z</time>
      </trkpt>
      <trkpt lat="45.92329" lon="4.43485">
        <ele>607.6</ele>
        <time>2022-06-26T08:52:54Z</time>
      </trkpt>
      <trkpt lat="45.92331" lon="4.43483">
        <ele>607.8</ele>
        <time>2022-06-26T08:52:55Z</time>
      </trkpt>
      <trkpt lat="45.92332" lon="4.43481">
        <ele>608.2</ele>
        <time>2022-06-26T08:52:56Z</time>
      </trkpt>
      <trkpt lat="45.92334" lon="4.4348">
        <ele>608.2</ele>
        <time>2022-06-26T08:52:57Z</time>
      </trkpt>
      <trkpt lat="45.92336" lon="4.43478">
        <ele>608.6</ele>
        <time>2022-06-26T08:52:58Z</time>
      </trkpt>
      <trkpt lat="45.92337" lon="4.43476">
        <ele>608.8</ele>
        <time>2022-06-26T08:52:59Z</time>
      </trkpt>
      <trkpt lat="45.92339" lon="4.43475">
        <ele>609</ele>
        <time>2022-06-26T08:53:00Z</time>
      </trkpt>
      <trkpt lat="45.9234" lon="4.43473">
        <ele>609.2</ele>
        <time>2022-06-26T08:53:01Z</time>
      </trkpt>
      <trkpt lat="45.92342" lon="4.43472">
        <ele>609.2</ele>
        <time>2022-06-26T08:53:02Z</time>
      </trkpt>
      <trkpt lat="45.92344" lon="4.4347">
        <ele>609.6</ele>
        <time>2022-06-26T08:53:03Z</time>
      </trkpt>
      <trkpt lat="45.92345" lon="4.43468">
        <ele>609.8</ele>
        <time>2022-06-26T08:53:04Z</time>
      </trkpt>
      <trkpt lat="45.92348" lon="4.43467">
        <ele>609.8</ele>
        <time>2022-06-26T08:53:05Z</time>
      </trkpt>
      <trkpt lat="45.9235" lon="4.43465">
        <ele>610.2</ele>
        <time>2022-06-26T08:53:06Z</time>
      </trkpt>
      <trkpt lat="45.92351" lon="4.43464">
        <ele>610.2</ele>
        <time>2022-06-26T08:53:07Z</time>
      </trkpt>
      <trkpt lat="45.92353" lon="4.43463">
        <ele>610.6</ele>
        <time>2022-06-26T08:53:08Z</time>
      </trkpt>
      <trkpt lat="45.92356" lon="4.43461">
        <ele>610.8</ele>
        <time>2022-06-26T08:53:09Z</time>
      </trkpt>
      <trkpt lat="45.92357" lon="4.4346">
        <ele>611.2</ele>
        <time>2022-06-26T08:53:10Z</time>
      </trkpt>
      <trkpt lat="45.92359" lon="4.43459">
        <ele>611.4</ele>
        <time>2022-06-26T08:53:11Z</time>
      </trkpt>
      <trkpt lat="45.92361" lon="4.43458">
        <ele>611.6</ele>
        <time>2022-06-26T08:53:12Z</time>
      </trkpt>
      <trkpt lat="45.92362" lon="4.43457">
        <ele>611.8</ele>
        <time>2022-06-26T08:53:13Z</time>
      </trkpt>
      <trkpt lat="45.92364" lon="4.43456">
        <ele>612</ele>
        <time>2022-06-26T08:53:14Z</time>
      </trkpt>
      <trkpt lat="45.92366" lon="4.43455">
        <ele>612.4</ele>
        <time>2022-06-26T08:53:15Z</time>
      </trkpt>
      <trkpt lat="45.92368" lon="4.43454">
        <ele>612.6</ele>
        <time>2022-06-26T08:53:16Z</time>
      </trkpt>
      <trkpt lat="45.9237" lon="4.43454">
        <ele>612.6</ele>
        <time>2022-06-26T08:53:17Z</time>
      </trkpt>
      <trkpt lat="45.92372" lon="4.43453">
        <ele>613</ele>
        <time>2022-06-26T08:53:18Z</time>
      </trkpt>
      <trkpt lat="45.92375" lon="4.43453">
        <ele>613.2</ele>
        <time>2022-06-26T08:53:19Z</time>
      </trkpt>
      <trkpt lat="45.92377" lon="4.43453">
        <ele>613.4</ele>
        <time>2022-06-26T08:53:20Z</time>
      </trkpt>
      <trkpt lat="45.92379" lon="4.43452">
        <ele>613.4</ele>
        <time>2022-06-26T08:53:21Z</time>
      </trkpt>
      <trkpt lat="45.92381" lon="4.43452">
        <ele>613.8</ele>
        <time>2022-06-26T08:53:22Z</time>
      </trkpt>
      <trkpt lat="45.92383" lon="4.43451">
        <ele>613.8</ele>
        <time>2022-06-26T08:53:23Z</time>
      </trkpt>
      <trkpt lat="45.92385" lon="4.43451">
        <ele>614.2</ele>
        <time>2022-06-26T08:53:24Z</time>
      </trkpt>
      <trkpt lat="45.92387" lon="4.43451">
        <ele>614.4</ele>
        <time>2022-06-26T08:53:25Z</time>
      </trkpt>
      <trkpt lat="45.92388" lon="4.4345">
        <ele>614.6</ele>
        <time>2022-06-26T08:53:26Z</time>
      </trkpt>
      <trkpt lat="45.92389" lon="4.4345">
        <ele>614.6</ele>
        <time>2022-06-26T08:53:27Z</time>
      </trkpt>
      <trkpt lat="45.92391" lon="4.43449">
        <ele>615</ele>
        <time>2022-06-26T08:53:28Z</time>
      </trkpt>
      <trkpt lat="45.92395" lon="4.43448">
        <ele>615.6</ele>
        <time>2022-06-26T08:53:31Z</time>
      </trkpt>
      <trkpt lat="45.92397" lon="4.43448">
        <ele>615.6</ele>
        <time>2022-06-26T08:53:32Z</time>
      </trkpt>
      <trkpt lat="45.92399" lon="4.43448">
        <ele>615.8</ele>
        <time>2022-06-26T08:53:33Z</time>
      </trkpt>
      <trkpt lat="45.924" lon="4.43448">
        <ele>616</ele>
        <time>2022-06-26T08:53:34Z</time>
      </trkpt>
      <trkpt lat="45.92402" lon="4.43448">
        <ele>616</ele>
        <time>2022-06-26T08:53:35Z</time>
      </trkpt>
      <trkpt lat="45.92404" lon="4.43448">
        <ele>616.4</ele>
        <time>2022-06-26T08:53:36Z</time>
      </trkpt>
      <trkpt lat="45.92406" lon="4.43448">
        <ele>616.4</ele>
        <time>2022-06-26T08:53:37Z</time>
      </trkpt>
      <trkpt lat="45.92408" lon="4.43448">
        <ele>617</ele>
        <time>2022-06-26T08:53:38Z</time>
      </trkpt>
      <trkpt lat="45.9241" lon="4.43448">
        <ele>617</ele>
        <time>2022-06-26T08:53:39Z</time>
      </trkpt>
      <trkpt lat="45.92412" lon="4.43448">
        <ele>617.2</ele>
        <time>2022-06-26T08:53:40Z</time>
      </trkpt>
      <trkpt lat="45.92414" lon="4.43449">
        <ele>617.2</ele>
        <time>2022-06-26T08:53:41Z</time>
      </trkpt>
      <trkpt lat="45.92416" lon="4.43449">
        <ele>617.6</ele>
        <time>2022-06-26T08:53:42Z</time>
      </trkpt>
      <trkpt lat="45.92418" lon="4.43449">
        <ele>617.6</ele>
        <time>2022-06-26T08:53:43Z</time>
      </trkpt>
      <trkpt lat="45.9242" lon="4.43449">
        <ele>617.8</ele>
        <time>2022-06-26T08:53:44Z</time>
      </trkpt>
      <trkpt lat="45.92423" lon="4.43449">
        <ele>618</ele>
        <time>2022-06-26T08:53:45Z</time>
      </trkpt>
      <trkpt lat="45.92425" lon="4.43449">
        <ele>618.2</ele>
        <time>2022-06-26T08:53:46Z</time>
      </trkpt>
      <trkpt lat="45.92427" lon="4.43449">
        <ele>618.2</ele>
        <time>2022-06-26T08:53:47Z</time>
      </trkpt>
      <trkpt lat="45.92429" lon="4.43449">
        <ele>618.6</ele>
        <time>2022-06-26T08:53:48Z</time>
      </trkpt>
      <trkpt lat="45.92431" lon="4.4345">
        <ele>618.8</ele>
        <time>2022-06-26T08:53:49Z</time>
      </trkpt>
      <trkpt lat="45.92433" lon="4.4345">
        <ele>619</ele>
        <time>2022-06-26T08:53:50Z</time>
      </trkpt>
      <trkpt lat="45.92435" lon="4.43451">
        <ele>619.2</ele>
        <time>2022-06-26T08:53:51Z</time>
      </trkpt>
      <trkpt lat="45.92437" lon="4.43452">
        <ele>619.2</ele>
        <time>2022-06-26T08:53:52Z</time>
      </trkpt>
      <trkpt lat="45.92439" lon="4.43452">
        <ele>619.8</ele>
        <time>2022-06-26T08:53:53Z</time>
      </trkpt>
      <trkpt lat="45.92441" lon="4.43453">
        <ele>620</ele>
        <time>2022-06-26T08:53:54Z</time>
      </trkpt>
      <trkpt lat="45.92443" lon="4.43454">
        <ele>620.2</ele>
        <time>2022-06-26T08:53:55Z</time>
      </trkpt>
      <trkpt lat="45.92445" lon="4.43454">
        <ele>620.2</ele>
        <time>2022-06-26T08:53:56Z</time>
      </trkpt>
      <trkpt lat="45.92447" lon="4.43455">
        <ele>620.6</ele>
        <time>2022-06-26T08:53:57Z</time>
      </trkpt>
      <trkpt lat="45.92449" lon="4.43456">
        <ele>620.8</ele>
        <time>2022-06-26T08:53:58Z</time>
      </trkpt>
      <trkpt lat="45.92451" lon="4.43456">
        <ele>621</ele>
        <time>2022-06-26T08:53:59Z</time>
      </trkpt>
      <trkpt lat="45.92454" lon="4.43456">
        <ele>621.2</ele>
        <time>2022-06-26T08:54:00Z</time>
      </trkpt>
      <trkpt lat="45.92456" lon="4.43456">
        <ele>621.2</ele>
        <time>2022-06-26T08:54:01Z</time>
      </trkpt>
      <trkpt lat="45.92458" lon="4.43456">
        <ele>621.6</ele>
        <time>2022-06-26T08:54:02Z</time>
      </trkpt>
      <trkpt lat="45.9246" lon="4.43456">
        <ele>621.6</ele>
        <time>2022-06-26T08:54:03Z</time>
      </trkpt>
      <trkpt lat="45.92463" lon="4.43457">
        <ele>622</ele>
        <time>2022-06-26T08:54:04Z</time>
      </trkpt>
      <trkpt lat="45.92465" lon="4.43457">
        <ele>622</ele>
        <time>2022-06-26T08:54:05Z</time>
      </trkpt>
      <trkpt lat="45.92468" lon="4.43458">
        <ele>622.2</ele>
        <time>2022-06-26T08:54:06Z</time>
      </trkpt>
      <trkpt lat="45.9247" lon="4.43458">
        <ele>622.2</ele>
        <time>2022-06-26T08:54:07Z</time>
      </trkpt>
      <trkpt lat="45.92472" lon="4.43458">
        <ele>622.6</ele>
        <time>2022-06-26T08:54:08Z</time>
      </trkpt>
      <trkpt lat="45.92474" lon="4.43458">
        <ele>622.6</ele>
        <time>2022-06-26T08:54:09Z</time>
      </trkpt>
      <trkpt lat="45.92477" lon="4.43458">
        <ele>622.8</ele>
        <time>2022-06-26T08:54:10Z</time>
      </trkpt>
      <trkpt lat="45.92479" lon="4.43459">
        <ele>622.8</ele>
        <time>2022-06-26T08:54:11Z</time>
      </trkpt>
      <trkpt lat="45.92482" lon="4.43459">
        <ele>623.2</ele>
        <time>2022-06-26T08:54:12Z</time>
      </trkpt>
      <trkpt lat="45.92484" lon="4.43459">
        <ele>623.2</ele>
        <time>2022-06-26T08:54:13Z</time>
      </trkpt>
      <trkpt lat="45.92486" lon="4.43459">
        <ele>623.4</ele>
        <time>2022-06-26T08:54:14Z</time>
      </trkpt>
      <trkpt lat="45.92489" lon="4.43459">
        <ele>623.4</ele>
        <time>2022-06-26T08:54:15Z</time>
      </trkpt>
      <trkpt lat="45.92491" lon="4.43458">
        <ele>623.6</ele>
        <time>2022-06-26T08:54:16Z</time>
      </trkpt>
      <trkpt lat="45.92493" lon="4.43458">
        <ele>623.6</ele>
        <time>2022-06-26T08:54:17Z</time>
      </trkpt>
      <trkpt lat="45.92495" lon="4.43458">
        <ele>624</ele>
        <time>2022-06-26T08:54:18Z</time>
      </trkpt>
      <trkpt lat="45.92497" lon="4.43457">
        <ele>624</ele>
        <time>2022-06-26T08:54:19Z</time>
      </trkpt>
      <trkpt lat="45.92499" lon="4.43457">
        <ele>624.4</ele>
        <time>2022-06-26T08:54:20Z</time>
      </trkpt>
      <trkpt lat="45.92501" lon="4.43456">
        <ele>624.4</ele>
        <time>2022-06-26T08:54:21Z</time>
      </trkpt>
      <trkpt lat="45.92504" lon="4.43456">
        <ele>624.6</ele>
        <time>2022-06-26T08:54:22Z</time>
      </trkpt>
      <trkpt lat="45.92506" lon="4.43455">
        <ele>624.6</ele>
        <time>2022-06-26T08:54:23Z</time>
      </trkpt>
      <trkpt lat="45.92507" lon="4.43455">
        <ele>625</ele>
        <time>2022-06-26T08:54:24Z</time>
      </trkpt>
      <trkpt lat="45.92509" lon="4.43454">
        <ele>625.4</ele>
        <time>2022-06-26T08:54:25Z</time>
      </trkpt>
      <trkpt lat="45.92511" lon="4.43454">
        <ele>625.4</ele>
        <time>2022-06-26T08:54:26Z</time>
      </trkpt>
      <trkpt lat="45.92513" lon="4.43453">
        <ele>625.8</ele>
        <time>2022-06-26T08:54:27Z</time>
      </trkpt>
      <trkpt lat="45.92515" lon="4.43453">
        <ele>626</ele>
        <time>2022-06-26T08:54:28Z</time>
      </trkpt>
      <trkpt lat="45.92517" lon="4.43452">
        <ele>626.2</ele>
        <time>2022-06-26T08:54:29Z</time>
      </trkpt>
      <trkpt lat="45.92518" lon="4.43451">
        <ele>626.6</ele>
        <time>2022-06-26T08:54:30Z</time>
      </trkpt>
      <trkpt lat="45.9252" lon="4.4345">
        <ele>626.8</ele>
        <time>2022-06-26T08:54:31Z</time>
      </trkpt>
      <trkpt lat="45.92521" lon="4.43449">
        <ele>627</ele>
        <time>2022-06-26T08:54:32Z</time>
      </trkpt>
      <trkpt lat="45.92523" lon="4.43447">
        <ele>627.2</ele>
        <time>2022-06-26T08:54:33Z</time>
      </trkpt>
      <trkpt lat="45.92524" lon="4.43446">
        <ele>627.2</ele>
        <time>2022-06-26T08:54:34Z</time>
      </trkpt>
      <trkpt lat="45.92525" lon="4.43444">
        <ele>627.6</ele>
        <time>2022-06-26T08:54:35Z</time>
      </trkpt>
      <trkpt lat="45.92527" lon="4.43443">
        <ele>628</ele>
        <time>2022-06-26T08:54:36Z</time>
      </trkpt>
      <trkpt lat="45.92528" lon="4.43442">
        <ele>628</ele>
        <time>2022-06-26T08:54:37Z</time>
      </trkpt>
      <trkpt lat="45.92529" lon="4.43441">
        <ele>628</ele>
        <time>2022-06-26T08:54:38Z</time>
      </trkpt>
      <trkpt lat="45.92531" lon="4.4344">
        <ele>628.2</ele>
        <time>2022-06-26T08:54:39Z</time>
      </trkpt>
      <trkpt lat="45.92532" lon="4.43439">
        <ele>628.2</ele>
        <time>2022-06-26T08:54:40Z</time>
      </trkpt>
      <trkpt lat="45.92533" lon="4.43438">
        <ele>628.6</ele>
        <time>2022-06-26T08:54:41Z</time>
      </trkpt>
      <trkpt lat="45.92535" lon="4.43436">
        <ele>628.8</ele>
        <time>2022-06-26T08:54:42Z</time>
      </trkpt>
      <trkpt lat="45.92536" lon="4.43435">
        <ele>629</ele>
        <time>2022-06-26T08:54:43Z</time>
      </trkpt>
      <trkpt lat="45.92538" lon="4.43433">
        <ele>629</ele>
        <time>2022-06-26T08:54:44Z</time>
      </trkpt>
      <trkpt lat="45.92539" lon="4.43432">
        <ele>629.2</ele>
        <time>2022-06-26T08:54:45Z</time>
      </trkpt>
      <trkpt lat="45.9254" lon="4.43431">
        <ele>629.2</ele>
        <time>2022-06-26T08:54:46Z</time>
      </trkpt>
      <trkpt lat="45.92542" lon="4.43429">
        <ele>629.6</ele>
        <time>2022-06-26T08:54:47Z</time>
      </trkpt>
      <trkpt lat="45.92543" lon="4.43428">
        <ele>629.6</ele>
        <time>2022-06-26T08:54:48Z</time>
      </trkpt>
      <trkpt lat="45.92545" lon="4.43427">
        <ele>629.8</ele>
        <time>2022-06-26T08:54:49Z</time>
      </trkpt>
      <trkpt lat="45.92546" lon="4.43425">
        <ele>629.8</ele>
        <time>2022-06-26T08:54:50Z</time>
      </trkpt>
      <trkpt lat="45.92547" lon="4.43424">
        <ele>630.2</ele>
        <time>2022-06-26T08:54:51Z</time>
      </trkpt>
      <trkpt lat="45.92549" lon="4.43422">
        <ele>630.2</ele>
        <time>2022-06-26T08:54:52Z</time>
      </trkpt>
      <trkpt lat="45.9255" lon="4.4342">
        <ele>630.4</ele>
        <time>2022-06-26T08:54:53Z</time>
      </trkpt>
      <trkpt lat="45.92551" lon="4.43419">
        <ele>630.6</ele>
        <time>2022-06-26T08:54:54Z</time>
      </trkpt>
      <trkpt lat="45.92553" lon="4.43418">
        <ele>630.6</ele>
        <time>2022-06-26T08:54:55Z</time>
      </trkpt>
      <trkpt lat="45.92554" lon="4.43416">
        <ele>631</ele>
        <time>2022-06-26T08:54:56Z</time>
      </trkpt>
      <trkpt lat="45.92555" lon="4.43414">
        <ele>631</ele>
        <time>2022-06-26T08:54:57Z</time>
      </trkpt>
      <trkpt lat="45.92557" lon="4.43413">
        <ele>631.4</ele>
        <time>2022-06-26T08:54:58Z</time>
      </trkpt>
      <trkpt lat="45.92558" lon="4.43411">
        <ele>631.6</ele>
        <time>2022-06-26T08:54:59Z</time>
      </trkpt>
      <trkpt lat="45.9256" lon="4.43409">
        <ele>631.6</ele>
        <time>2022-06-26T08:55:00Z</time>
      </trkpt>
      <trkpt lat="45.92561" lon="4.43407">
        <ele>632</ele>
        <time>2022-06-26T08:55:01Z</time>
      </trkpt>
      <trkpt lat="45.92563" lon="4.43405">
        <ele>632</ele>
        <time>2022-06-26T08:55:02Z</time>
      </trkpt>
      <trkpt lat="45.92564" lon="4.43403">
        <ele>632.2</ele>
        <time>2022-06-26T08:55:03Z</time>
      </trkpt>
      <trkpt lat="45.92566" lon="4.43401">
        <ele>632.2</ele>
        <time>2022-06-26T08:55:04Z</time>
      </trkpt>
      <trkpt lat="45.92567" lon="4.43399">
        <ele>632.6</ele>
        <time>2022-06-26T08:55:05Z</time>
      </trkpt>
      <trkpt lat="45.92569" lon="4.43397">
        <ele>632.8</ele>
        <time>2022-06-26T08:55:06Z</time>
      </trkpt>
      <trkpt lat="45.9257" lon="4.43395">
        <ele>633</ele>
        <time>2022-06-26T08:55:07Z</time>
      </trkpt>
      <trkpt lat="45.92572" lon="4.43392">
        <ele>633</ele>
        <time>2022-06-26T08:55:08Z</time>
      </trkpt>
      <trkpt lat="45.92573" lon="4.4339">
        <ele>633</ele>
        <time>2022-06-26T08:55:09Z</time>
      </trkpt>
      <trkpt lat="45.92574" lon="4.43389">
        <ele>633.4</ele>
        <time>2022-06-26T08:55:10Z</time>
      </trkpt>
      <trkpt lat="45.92576" lon="4.43386">
        <ele>633.4</ele>
        <time>2022-06-26T08:55:11Z</time>
      </trkpt>
      <trkpt lat="45.92577" lon="4.43384">
        <ele>633.6</ele>
        <time>2022-06-26T08:55:12Z</time>
      </trkpt>
      <trkpt lat="45.92579" lon="4.43382">
        <ele>633.6</ele>
        <time>2022-06-26T08:55:13Z</time>
      </trkpt>
      <trkpt lat="45.9258" lon="4.43379">
        <ele>634</ele>
        <time>2022-06-26T08:55:14Z</time>
      </trkpt>
      <trkpt lat="45.92582" lon="4.43376">
        <ele>634</ele>
        <time>2022-06-26T08:55:15Z</time>
      </trkpt>
      <trkpt lat="45.92583" lon="4.43374">
        <ele>634.2</ele>
        <time>2022-06-26T08:55:16Z</time>
      </trkpt>
      <trkpt lat="45.92585" lon="4.43371">
        <ele>634.2</ele>
        <time>2022-06-26T08:55:17Z</time>
      </trkpt>
      <trkpt lat="45.92586" lon="4.43368">
        <ele>634.6</ele>
        <time>2022-06-26T08:55:18Z</time>
      </trkpt>
      <trkpt lat="45.92588" lon="4.43365">
        <ele>634.6</ele>
        <time>2022-06-26T08:55:19Z</time>
      </trkpt>
      <trkpt lat="45.9259" lon="4.43362">
        <ele>634.8</ele>
        <time>2022-06-26T08:55:20Z</time>
      </trkpt>
      <trkpt lat="45.92591" lon="4.4336">
        <ele>634.8</ele>
        <time>2022-06-26T08:55:21Z</time>
      </trkpt>
      <trkpt lat="45.92593" lon="4.43357">
        <ele>635</ele>
        <time>2022-06-26T08:55:22Z</time>
      </trkpt>
      <trkpt lat="45.92594" lon="4.43354">
        <ele>635</ele>
        <time>2022-06-26T08:55:23Z</time>
      </trkpt>
      <trkpt lat="45.92595" lon="4.43352">
        <ele>635.2</ele>
        <time>2022-06-26T08:55:24Z</time>
      </trkpt>
      <trkpt lat="45.92597" lon="4.4335">
        <ele>635.2</ele>
        <time>2022-06-26T08:55:25Z</time>
      </trkpt>
      <trkpt lat="45.92598" lon="4.43347">
        <ele>635.6</ele>
        <time>2022-06-26T08:55:26Z</time>
      </trkpt>
      <trkpt lat="45.926" lon="4.43345">
        <ele>635.6</ele>
        <time>2022-06-26T08:55:27Z</time>
      </trkpt>
      <trkpt lat="45.92601" lon="4.43342">
        <ele>635.6</ele>
        <time>2022-06-26T08:55:28Z</time>
      </trkpt>
      <trkpt lat="45.92603" lon="4.43339">
        <ele>635.8</ele>
        <time>2022-06-26T08:55:29Z</time>
      </trkpt>
      <trkpt lat="45.92604" lon="4.43337">
        <ele>635.8</ele>
        <time>2022-06-26T08:55:30Z</time>
      </trkpt>
      <trkpt lat="45.92606" lon="4.43334">
        <ele>635.8</ele>
        <time>2022-06-26T08:55:31Z</time>
      </trkpt>
      <trkpt lat="45.92608" lon="4.43331">
        <ele>636</ele>
        <time>2022-06-26T08:55:32Z</time>
      </trkpt>
      <trkpt lat="45.9261" lon="4.43328">
        <ele>636</ele>
        <time>2022-06-26T08:55:33Z</time>
      </trkpt>
      <trkpt lat="45.92612" lon="4.43325">
        <ele>636</ele>
        <time>2022-06-26T08:55:34Z</time>
      </trkpt>
      <trkpt lat="45.92614" lon="4.43322">
        <ele>636</ele>
        <time>2022-06-26T08:55:35Z</time>
      </trkpt>
      <trkpt lat="45.92616" lon="4.43318">
        <ele>636</ele>
        <time>2022-06-26T08:55:36Z</time>
      </trkpt>
      <trkpt lat="45.92619" lon="4.43315">
        <ele>636</ele>
        <time>2022-06-26T08:55:37Z</time>
      </trkpt>
      <trkpt lat="45.92621" lon="4.43311">
        <ele>636</ele>
        <time>2022-06-26T08:55:38Z</time>
      </trkpt>
      <trkpt lat="45.92623" lon="4.43308">
        <ele>636.2</ele>
        <time>2022-06-26T08:55:39Z</time>
      </trkpt>
      <trkpt lat="45.92626" lon="4.43304">
        <ele>636.2</ele>
        <time>2022-06-26T08:55:40Z</time>
      </trkpt>
      <trkpt lat="45.92628" lon="4.43301">
        <ele>636.2</ele>
        <time>2022-06-26T08:55:41Z</time>
      </trkpt>
      <trkpt lat="45.9263" lon="4.43297">
        <ele>636.2</ele>
        <time>2022-06-26T08:55:42Z</time>
      </trkpt>
      <trkpt lat="45.92632" lon="4.43294">
        <ele>636.2</ele>
        <time>2022-06-26T08:55:43Z</time>
      </trkpt>
      <trkpt lat="45.92634" lon="4.4329">
        <ele>636.4</ele>
        <time>2022-06-26T08:55:44Z</time>
      </trkpt>
      <trkpt lat="45.92636" lon="4.43287">
        <ele>636.4</ele>
        <time>2022-06-26T08:55:45Z</time>
      </trkpt>
      <trkpt lat="45.92638" lon="4.43284">
        <ele>636.4</ele>
        <time>2022-06-26T08:55:46Z</time>
      </trkpt>
      <trkpt lat="45.9264" lon="4.43281">
        <ele>636.6</ele>
        <time>2022-06-26T08:55:47Z</time>
      </trkpt>
      <trkpt lat="45.92641" lon="4.43278">
        <ele>636.6</ele>
        <time>2022-06-26T08:55:48Z</time>
      </trkpt>
      <trkpt lat="45.92642" lon="4.43275">
        <ele>636.6</ele>
        <time>2022-06-26T08:55:49Z</time>
      </trkpt>
      <trkpt lat="45.92645" lon="4.43271">
        <ele>636.6</ele>
        <time>2022-06-26T08:55:50Z</time>
      </trkpt>
      <trkpt lat="45.92646" lon="4.43268">
        <ele>636.6</ele>
        <time>2022-06-26T08:55:51Z</time>
      </trkpt>
      <trkpt lat="45.92648" lon="4.43264">
        <ele>636.6</ele>
        <time>2022-06-26T08:55:52Z</time>
      </trkpt>
      <trkpt lat="45.9265" lon="4.4326">
        <ele>636.8</ele>
        <time>2022-06-26T08:55:53Z</time>
      </trkpt>
      <trkpt lat="45.92652" lon="4.43256">
        <ele>636.8</ele>
        <time>2022-06-26T08:55:54Z</time>
      </trkpt>
      <trkpt lat="45.92653" lon="4.43252">
        <ele>636.8</ele>
        <time>2022-06-26T08:55:55Z</time>
      </trkpt>
      <trkpt lat="45.92655" lon="4.43249">
        <ele>636.8</ele>
        <time>2022-06-26T08:55:56Z</time>
      </trkpt>
      <trkpt lat="45.92656" lon="4.43246">
        <ele>637.2</ele>
        <time>2022-06-26T08:55:57Z</time>
      </trkpt>
      <trkpt lat="45.92658" lon="4.43242">
        <ele>637.2</ele>
        <time>2022-06-26T08:55:58Z</time>
      </trkpt>
      <trkpt lat="45.9266" lon="4.43238">
        <ele>637.4</ele>
        <time>2022-06-26T08:55:59Z</time>
      </trkpt>
      <trkpt lat="45.92662" lon="4.43234">
        <ele>637.4</ele>
        <time>2022-06-26T08:56:00Z</time>
      </trkpt>
      <trkpt lat="45.92663" lon="4.4323">
        <ele>637.4</ele>
        <time>2022-06-26T08:56:01Z</time>
      </trkpt>
      <trkpt lat="45.92665" lon="4.43226">
        <ele>637.6</ele>
        <time>2022-06-26T08:56:02Z</time>
      </trkpt>
      <trkpt lat="45.92667" lon="4.43223">
        <ele>637.6</ele>
        <time>2022-06-26T08:56:03Z</time>
      </trkpt>
      <trkpt lat="45.92669" lon="4.43219">
        <ele>637.6</ele>
        <time>2022-06-26T08:56:04Z</time>
      </trkpt>
      <trkpt lat="45.92672" lon="4.43215">
        <ele>637.6</ele>
        <time>2022-06-26T08:56:05Z</time>
      </trkpt>
      <trkpt lat="45.92674" lon="4.43211">
        <ele>638</ele>
        <time>2022-06-26T08:56:06Z</time>
      </trkpt>
      <trkpt lat="45.92674" lon="4.43207">
        <ele>638</ele>
        <time>2022-06-26T08:56:07Z</time>
      </trkpt>
      <trkpt lat="45.92676" lon="4.43203">
        <ele>638.2</ele>
        <time>2022-06-26T08:56:08Z</time>
      </trkpt>
      <trkpt lat="45.92679" lon="4.43199">
        <ele>638.2</ele>
        <time>2022-06-26T08:56:09Z</time>
      </trkpt>
      <trkpt lat="45.92681" lon="4.43195">
        <ele>638.2</ele>
        <time>2022-06-26T08:56:10Z</time>
      </trkpt>
      <trkpt lat="45.92683" lon="4.43191">
        <ele>638.4</ele>
        <time>2022-06-26T08:56:11Z</time>
      </trkpt>
      <trkpt lat="45.92685" lon="4.43186">
        <ele>638.4</ele>
        <time>2022-06-26T08:56:12Z</time>
      </trkpt>
      <trkpt lat="45.92687" lon="4.43183">
        <ele>638.6</ele>
        <time>2022-06-26T08:56:13Z</time>
      </trkpt>
      <trkpt lat="45.92689" lon="4.4318">
        <ele>638.6</ele>
        <time>2022-06-26T08:56:14Z</time>
      </trkpt>
      <trkpt lat="45.9269" lon="4.43176">
        <ele>639</ele>
        <time>2022-06-26T08:56:15Z</time>
      </trkpt>
      <trkpt lat="45.92692" lon="4.43172">
        <ele>639</ele>
        <time>2022-06-26T08:56:16Z</time>
      </trkpt>
      <trkpt lat="45.92694" lon="4.43168">
        <ele>639.4</ele>
        <time>2022-06-26T08:56:17Z</time>
      </trkpt>
      <trkpt lat="45.92696" lon="4.43164">
        <ele>639.4</ele>
        <time>2022-06-26T08:56:18Z</time>
      </trkpt>
      <trkpt lat="45.92697" lon="4.4316">
        <ele>639.8</ele>
        <time>2022-06-26T08:56:19Z</time>
      </trkpt>
      <trkpt lat="45.92698" lon="4.43155">
        <ele>639.8</ele>
        <time>2022-06-26T08:56:20Z</time>
      </trkpt>
      <trkpt lat="45.92699" lon="4.43151">
        <ele>640.2</ele>
        <time>2022-06-26T08:56:21Z</time>
      </trkpt>
      <trkpt lat="45.927" lon="4.43147">
        <ele>640.2</ele>
        <time>2022-06-26T08:56:22Z</time>
      </trkpt>
      <trkpt lat="45.92701" lon="4.43143">
        <ele>640.6</ele>
        <time>2022-06-26T08:56:23Z</time>
      </trkpt>
      <trkpt lat="45.92701" lon="4.43139">
        <ele>641</ele>
        <time>2022-06-26T08:56:24Z</time>
      </trkpt>
      <trkpt lat="45.92702" lon="4.43136">
        <ele>641.2</ele>
        <time>2022-06-26T08:56:25Z</time>
      </trkpt>
      <trkpt lat="45.92703" lon="4.43133">
        <ele>641.2</ele>
        <time>2022-06-26T08:56:26Z</time>
      </trkpt>
      <trkpt lat="45.92704" lon="4.43129">
        <ele>641.4</ele>
        <time>2022-06-26T08:56:27Z</time>
      </trkpt>
      <trkpt lat="45.92704" lon="4.43126">
        <ele>641.4</ele>
        <time>2022-06-26T08:56:28Z</time>
      </trkpt>
      <trkpt lat="45.92705" lon="4.43123">
        <ele>641.8</ele>
        <time>2022-06-26T08:56:29Z</time>
      </trkpt>
      <trkpt lat="45.92706" lon="4.4312">
        <ele>641.8</ele>
        <time>2022-06-26T08:56:30Z</time>
      </trkpt>
      <trkpt lat="45.92706" lon="4.43117">
        <ele>642.2</ele>
        <time>2022-06-26T08:56:31Z</time>
      </trkpt>
      <trkpt lat="45.92707" lon="4.43113">
        <ele>642.6</ele>
        <time>2022-06-26T08:56:32Z</time>
      </trkpt>
      <trkpt lat="45.92707" lon="4.4311">
        <ele>642.6</ele>
        <time>2022-06-26T08:56:33Z</time>
      </trkpt>
      <trkpt lat="45.92707" lon="4.43107">
        <ele>642.8</ele>
        <time>2022-06-26T08:56:34Z</time>
      </trkpt>
      <trkpt lat="45.92708" lon="4.43104">
        <ele>642.8</ele>
        <time>2022-06-26T08:56:35Z</time>
      </trkpt>
      <trkpt lat="45.92708" lon="4.431">
        <ele>643</ele>
        <time>2022-06-26T08:56:36Z</time>
      </trkpt>
      <trkpt lat="45.92708" lon="4.43097">
        <ele>643</ele>
        <time>2022-06-26T08:56:37Z</time>
      </trkpt>
      <trkpt lat="45.92708" lon="4.43093">
        <ele>643.4</ele>
        <time>2022-06-26T08:56:38Z</time>
      </trkpt>
      <trkpt lat="45.92708" lon="4.4309">
        <ele>643.4</ele>
        <time>2022-06-26T08:56:39Z</time>
      </trkpt>
      <trkpt lat="45.92708" lon="4.43086">
        <ele>643.6</ele>
        <time>2022-06-26T08:56:40Z</time>
      </trkpt>
      <trkpt lat="45.92708" lon="4.43081">
        <ele>643.6</ele>
        <time>2022-06-26T08:56:41Z</time>
      </trkpt>
      <trkpt lat="45.92708" lon="4.43077">
        <ele>643.6</ele>
        <time>2022-06-26T08:56:42Z</time>
      </trkpt>
      <trkpt lat="45.92708" lon="4.43072">
        <ele>643.6</ele>
        <time>2022-06-26T08:56:43Z</time>
      </trkpt>
      <trkpt lat="45.92708" lon="4.43067">
        <ele>643.8</ele>
        <time>2022-06-26T08:56:44Z</time>
      </trkpt>
      <trkpt lat="45.92709" lon="4.43062">
        <ele>643.8</ele>
        <time>2022-06-26T08:56:45Z</time>
      </trkpt>
      <trkpt lat="45.9271" lon="4.43056">
        <ele>643.8</ele>
        <time>2022-06-26T08:56:46Z</time>
      </trkpt>
      <trkpt lat="45.92712" lon="4.4305">
        <ele>643.8</ele>
        <time>2022-06-26T08:56:47Z</time>
      </trkpt>
      <trkpt lat="45.92715" lon="4.43045">
        <ele>643.8</ele>
        <time>2022-06-26T08:56:48Z</time>
      </trkpt>
      <trkpt lat="45.92718" lon="4.43041">
        <ele>643.6</ele>
        <time>2022-06-26T08:56:49Z</time>
      </trkpt>
      <trkpt lat="45.92722" lon="4.43037">
        <ele>643.6</ele>
        <time>2022-06-26T08:56:50Z</time>
      </trkpt>
      <trkpt lat="45.92726" lon="4.43033">
        <ele>643.6</ele>
        <time>2022-06-26T08:56:51Z</time>
      </trkpt>
      <trkpt lat="45.9273" lon="4.4303">
        <ele>643.6</ele>
        <time>2022-06-26T08:56:52Z</time>
      </trkpt>
      <trkpt lat="45.92733" lon="4.43028">
        <ele>643.8</ele>
        <time>2022-06-26T08:56:53Z</time>
      </trkpt>
      <trkpt lat="45.92735" lon="4.43025">
        <ele>644.2</ele>
        <time>2022-06-26T08:56:54Z</time>
      </trkpt>
      <trkpt lat="45.92738" lon="4.43023">
        <ele>644.6</ele>
        <time>2022-06-26T08:56:55Z</time>
      </trkpt>
      <trkpt lat="45.9274" lon="4.43021">
        <ele>644.8</ele>
        <time>2022-06-26T08:56:56Z</time>
      </trkpt>
      <trkpt lat="45.92742" lon="4.43019">
        <ele>645.2</ele>
        <time>2022-06-26T08:56:57Z</time>
      </trkpt>
      <trkpt lat="45.92744" lon="4.43016">
        <ele>645.6</ele>
        <time>2022-06-26T08:56:58Z</time>
      </trkpt>
      <trkpt lat="45.92746" lon="4.43014">
        <ele>645.6</ele>
        <time>2022-06-26T08:56:59Z</time>
      </trkpt>
      <trkpt lat="45.92747" lon="4.43012">
        <ele>646</ele>
        <time>2022-06-26T08:57:00Z</time>
      </trkpt>
      <trkpt lat="45.92749" lon="4.4301">
        <ele>646.2</ele>
        <time>2022-06-26T08:57:01Z</time>
      </trkpt>
      <trkpt lat="45.9275" lon="4.43007">
        <ele>646.2</ele>
        <time>2022-06-26T08:57:02Z</time>
      </trkpt>
      <trkpt lat="45.92753" lon="4.43004">
        <ele>646.4</ele>
        <time>2022-06-26T08:57:03Z</time>
      </trkpt>
      <trkpt lat="45.92755" lon="4.43001">
        <ele>646.4</ele>
        <time>2022-06-26T08:57:04Z</time>
      </trkpt>
      <trkpt lat="45.92758" lon="4.42997">
        <ele>646.4</ele>
        <time>2022-06-26T08:57:05Z</time>
      </trkpt>
      <trkpt lat="45.92761" lon="4.42993">
        <ele>646.4</ele>
        <time>2022-06-26T08:57:06Z</time>
      </trkpt>
      <trkpt lat="45.92763" lon="4.42989">
        <ele>646.4</ele>
        <time>2022-06-26T08:57:07Z</time>
      </trkpt>
      <trkpt lat="45.92767" lon="4.42985">
        <ele>646.4</ele>
        <time>2022-06-26T08:57:08Z</time>
      </trkpt>
      <trkpt lat="45.9277" lon="4.42981">
        <ele>646.4</ele>
        <time>2022-06-26T08:57:09Z</time>
      </trkpt>
      <trkpt lat="45.92773" lon="4.42976">
        <ele>646.4</ele>
        <time>2022-06-26T08:57:10Z</time>
      </trkpt>
      <trkpt lat="45.92777" lon="4.42972">
        <ele>646</ele>
        <time>2022-06-26T08:57:11Z</time>
      </trkpt>
      <trkpt lat="45.92781" lon="4.42968">
        <ele>646</ele>
        <time>2022-06-26T08:57:12Z</time>
      </trkpt>
      <trkpt lat="45.92785" lon="4.42964">
        <ele>645.8</ele>
        <time>2022-06-26T08:57:13Z</time>
      </trkpt>
      <trkpt lat="45.9279" lon="4.4296">
        <ele>645.8</ele>
        <time>2022-06-26T08:57:14Z</time>
      </trkpt>
      <trkpt lat="45.92794" lon="4.42956">
        <ele>645.6</ele>
        <time>2022-06-26T08:57:15Z</time>
      </trkpt>
      <trkpt lat="45.92799" lon="4.42951">
        <ele>645.6</ele>
        <time>2022-06-26T08:57:16Z</time>
      </trkpt>
      <trkpt lat="45.92804" lon="4.42946">
        <ele>645.2</ele>
        <time>2022-06-26T08:57:17Z</time>
      </trkpt>
      <trkpt lat="45.92809" lon="4.42941">
        <ele>645</ele>
        <time>2022-06-26T08:57:18Z</time>
      </trkpt>
      <trkpt lat="45.92814" lon="4.42936">
        <ele>644.6</ele>
        <time>2022-06-26T08:57:19Z</time>
      </trkpt>
      <trkpt lat="45.92819" lon="4.4293">
        <ele>644.2</ele>
        <time>2022-06-26T08:57:20Z</time>
      </trkpt>
      <trkpt lat="45.92824" lon="4.42924">
        <ele>644.2</ele>
        <time>2022-06-26T08:57:21Z</time>
      </trkpt>
      <trkpt lat="45.9283" lon="4.42918">
        <ele>644</ele>
        <time>2022-06-26T08:57:22Z</time>
      </trkpt>
      <trkpt lat="45.92835" lon="4.42913">
        <ele>644</ele>
        <time>2022-06-26T08:57:23Z</time>
      </trkpt>
      <trkpt lat="45.92841" lon="4.42907">
        <ele>643.4</ele>
        <time>2022-06-26T08:57:24Z</time>
      </trkpt>
      <trkpt lat="45.92846" lon="4.42902">
        <ele>643</ele>
        <time>2022-06-26T08:57:25Z</time>
      </trkpt>
      <trkpt lat="45.9285" lon="4.42897">
        <ele>642.4</ele>
        <time>2022-06-26T08:57:26Z</time>
      </trkpt>
      <trkpt lat="45.92855" lon="4.42893">
        <ele>642.2</ele>
        <time>2022-06-26T08:57:27Z</time>
      </trkpt>
      <trkpt lat="45.9286" lon="4.42888">
        <ele>641.8</ele>
        <time>2022-06-26T08:57:28Z</time>
      </trkpt>
      <trkpt lat="45.92864" lon="4.42884">
        <ele>641.6</ele>
        <time>2022-06-26T08:57:29Z</time>
      </trkpt>
      <trkpt lat="45.92869" lon="4.42879">
        <ele>641.6</ele>
        <time>2022-06-26T08:57:30Z</time>
      </trkpt>
      <trkpt lat="45.92874" lon="4.42875">
        <ele>641.2</ele>
        <time>2022-06-26T08:57:31Z</time>
      </trkpt>
      <trkpt lat="45.92879" lon="4.42871">
        <ele>640.8</ele>
        <time>2022-06-26T08:57:32Z</time>
      </trkpt>
      <trkpt lat="45.92884" lon="4.42867">
        <ele>640.4</ele>
        <time>2022-06-26T08:57:33Z</time>
      </trkpt>
      <trkpt lat="45.92889" lon="4.42864">
        <ele>640</ele>
        <time>2022-06-26T08:57:34Z</time>
      </trkpt>
      <trkpt lat="45.92893" lon="4.4286">
        <ele>639.8</ele>
        <time>2022-06-26T08:57:35Z</time>
      </trkpt>
      <trkpt lat="45.92897" lon="4.42855">
        <ele>639.6</ele>
        <time>2022-06-26T08:57:36Z</time>
      </trkpt>
      <trkpt lat="45.92901" lon="4.42848">
        <ele>639.4</ele>
        <time>2022-06-26T08:57:37Z</time>
      </trkpt>
      <trkpt lat="45.92905" lon="4.42841">
        <ele>639</ele>
        <time>2022-06-26T08:57:38Z</time>
      </trkpt>
      <trkpt lat="45.92909" lon="4.42835">
        <ele>639</ele>
        <time>2022-06-26T08:57:39Z</time>
      </trkpt>
      <trkpt lat="45.92912" lon="4.42829">
        <ele>638.6</ele>
        <time>2022-06-26T08:57:40Z</time>
      </trkpt>
      <trkpt lat="45.92916" lon="4.42823">
        <ele>638.4</ele>
        <time>2022-06-26T08:57:41Z</time>
      </trkpt>
      <trkpt lat="45.92919" lon="4.42818">
        <ele>638.2</ele>
        <time>2022-06-26T08:57:42Z</time>
      </trkpt>
      <trkpt lat="45.92923" lon="4.42812">
        <ele>637.8</ele>
        <time>2022-06-26T08:57:43Z</time>
      </trkpt>
      <trkpt lat="45.92926" lon="4.42806">
        <ele>637.8</ele>
        <time>2022-06-26T08:57:44Z</time>
      </trkpt>
      <trkpt lat="45.9293" lon="4.42801">
        <ele>637.4</ele>
        <time>2022-06-26T08:57:45Z</time>
      </trkpt>
      <trkpt lat="45.92935" lon="4.42796">
        <ele>637.4</ele>
        <time>2022-06-26T08:57:46Z</time>
      </trkpt>
      <trkpt lat="45.9294" lon="4.42791">
        <ele>637.2</ele>
        <time>2022-06-26T08:57:47Z</time>
      </trkpt>
      <trkpt lat="45.92945" lon="4.42786">
        <ele>637</ele>
        <time>2022-06-26T08:57:48Z</time>
      </trkpt>
      <trkpt lat="45.92949" lon="4.42781">
        <ele>637</ele>
        <time>2022-06-26T08:57:49Z</time>
      </trkpt>
      <trkpt lat="45.92954" lon="4.42777">
        <ele>637</ele>
        <time>2022-06-26T08:57:50Z</time>
      </trkpt>
      <trkpt lat="45.92959" lon="4.42773">
        <ele>636.8</ele>
        <time>2022-06-26T08:57:51Z</time>
      </trkpt>
      <trkpt lat="45.92963" lon="4.42769">
        <ele>636.6</ele>
        <time>2022-06-26T08:57:52Z</time>
      </trkpt>
      <trkpt lat="45.9297" lon="4.42762">
        <ele>636.6</ele>
        <time>2022-06-26T08:57:53Z</time>
      </trkpt>
      <trkpt lat="45.92972" lon="4.4276">
        <ele>636.2</ele>
        <time>2022-06-26T08:57:54Z</time>
      </trkpt>
      <trkpt lat="45.92977" lon="4.42756">
        <ele>636</ele>
        <time>2022-06-26T08:57:55Z</time>
      </trkpt>
      <trkpt lat="45.92982" lon="4.42753">
        <ele>635.8</ele>
        <time>2022-06-26T08:57:56Z</time>
      </trkpt>
      <trkpt lat="45.92988" lon="4.42748">
        <ele>635.6</ele>
        <time>2022-06-26T08:57:57Z</time>
      </trkpt>
      <trkpt lat="45.9299" lon="4.42746">
        <ele>635.6</ele>
        <time>2022-06-26T08:57:58Z</time>
      </trkpt>
      <trkpt lat="45.92994" lon="4.42743">
        <ele>635.2</ele>
        <time>2022-06-26T08:57:59Z</time>
      </trkpt>
      <trkpt lat="45.92998" lon="4.42741">
        <ele>635.2</ele>
        <time>2022-06-26T08:58:00Z</time>
      </trkpt>
      <trkpt lat="45.93002" lon="4.42738">
        <ele>634.8</ele>
        <time>2022-06-26T08:58:01Z</time>
      </trkpt>
      <trkpt lat="45.93005" lon="4.42736">
        <ele>634.8</ele>
        <time>2022-06-26T08:58:02Z</time>
      </trkpt>
      <trkpt lat="45.93009" lon="4.42734">
        <ele>634.6</ele>
        <time>2022-06-26T08:58:03Z</time>
      </trkpt>
      <trkpt lat="45.93013" lon="4.42731">
        <ele>634.6</ele>
        <time>2022-06-26T08:58:04Z</time>
      </trkpt>
      <trkpt lat="45.93016" lon="4.42728">
        <ele>634.2</ele>
        <time>2022-06-26T08:58:05Z</time>
      </trkpt>
      <trkpt lat="45.93018" lon="4.42725">
        <ele>634</ele>
        <time>2022-06-26T08:58:06Z</time>
      </trkpt>
      <trkpt lat="45.93022" lon="4.42722">
        <ele>634</ele>
        <time>2022-06-26T08:58:07Z</time>
      </trkpt>
      <trkpt lat="45.93025" lon="4.42717">
        <ele>633.4</ele>
        <time>2022-06-26T08:58:08Z</time>
      </trkpt>
      <trkpt lat="45.93029" lon="4.42713">
        <ele>633.2</ele>
        <time>2022-06-26T08:58:09Z</time>
      </trkpt>
      <trkpt lat="45.93032" lon="4.42708">
        <ele>632.8</ele>
        <time>2022-06-26T08:58:10Z</time>
      </trkpt>
      <trkpt lat="45.93035" lon="4.42703">
        <ele>632.6</ele>
        <time>2022-06-26T08:58:11Z</time>
      </trkpt>
      <trkpt lat="45.93037" lon="4.42697">
        <ele>632.2</ele>
        <time>2022-06-26T08:58:12Z</time>
      </trkpt>
      <trkpt lat="45.93038" lon="4.42691">
        <ele>632</ele>
        <time>2022-06-26T08:58:13Z</time>
      </trkpt>
      <trkpt lat="45.9304" lon="4.42686">
        <ele>631.6</ele>
        <time>2022-06-26T08:58:14Z</time>
      </trkpt>
      <trkpt lat="45.93041" lon="4.42681">
        <ele>631.2</ele>
        <time>2022-06-26T08:58:15Z</time>
      </trkpt>
      <trkpt lat="45.93042" lon="4.42677">
        <ele>631</ele>
        <time>2022-06-26T08:58:16Z</time>
      </trkpt>
      <trkpt lat="45.93043" lon="4.42673">
        <ele>630.6</ele>
        <time>2022-06-26T08:58:17Z</time>
      </trkpt>
      <trkpt lat="45.93044" lon="4.42669">
        <ele>630.4</ele>
        <time>2022-06-26T08:58:18Z</time>
      </trkpt>
      <trkpt lat="45.93045" lon="4.42665">
        <ele>630.2</ele>
        <time>2022-06-26T08:58:19Z</time>
      </trkpt>
      <trkpt lat="45.93044" lon="4.42656">
        <ele>630.2</ele>
        <time>2022-06-26T08:58:20Z</time>
      </trkpt>
      <trkpt lat="45.93047" lon="4.4265">
        <ele>630</ele>
        <time>2022-06-26T08:58:21Z</time>
      </trkpt>
      <trkpt lat="45.93049" lon="4.42644">
        <ele>630</ele>
        <time>2022-06-26T08:58:22Z</time>
      </trkpt>
      <trkpt lat="45.9305" lon="4.42639">
        <ele>630</ele>
        <time>2022-06-26T08:58:23Z</time>
      </trkpt>
      <trkpt lat="45.93051" lon="4.42632">
        <ele>629.8</ele>
        <time>2022-06-26T08:58:24Z</time>
      </trkpt>
      <trkpt lat="45.93053" lon="4.42627">
        <ele>629.8</ele>
        <time>2022-06-26T08:58:25Z</time>
      </trkpt>
      <trkpt lat="45.93054" lon="4.42621">
        <ele>629.8</ele>
        <time>2022-06-26T08:58:26Z</time>
      </trkpt>
      <trkpt lat="45.93055" lon="4.42616">
        <ele>629.8</ele>
        <time>2022-06-26T08:58:27Z</time>
      </trkpt>
      <trkpt lat="45.93057" lon="4.42612">
        <ele>630</ele>
        <time>2022-06-26T08:58:28Z</time>
      </trkpt>
      <trkpt lat="45.93059" lon="4.42608">
        <ele>630</ele>
        <time>2022-06-26T08:58:29Z</time>
      </trkpt>
      <trkpt lat="45.9306" lon="4.42604">
        <ele>630.2</ele>
        <time>2022-06-26T08:58:30Z</time>
      </trkpt>
      <trkpt lat="45.93062" lon="4.42601">
        <ele>630.2</ele>
        <time>2022-06-26T08:58:31Z</time>
      </trkpt>
      <trkpt lat="45.93064" lon="4.42597">
        <ele>630.2</ele>
        <time>2022-06-26T08:58:32Z</time>
      </trkpt>
      <trkpt lat="45.93066" lon="4.42594">
        <ele>630.4</ele>
        <time>2022-06-26T08:58:33Z</time>
      </trkpt>
      <trkpt lat="45.93067" lon="4.4259">
        <ele>630.4</ele>
        <time>2022-06-26T08:58:34Z</time>
      </trkpt>
      <trkpt lat="45.93069" lon="4.42586">
        <ele>630.6</ele>
        <time>2022-06-26T08:58:35Z</time>
      </trkpt>
      <trkpt lat="45.93071" lon="4.42582">
        <ele>631</ele>
        <time>2022-06-26T08:58:36Z</time>
      </trkpt>
      <trkpt lat="45.93073" lon="4.42576">
        <ele>631</ele>
        <time>2022-06-26T08:58:37Z</time>
      </trkpt>
      <trkpt lat="45.93073" lon="4.42574">
        <ele>631.2</ele>
        <time>2022-06-26T08:58:38Z</time>
      </trkpt>
      <trkpt lat="45.93075" lon="4.4257">
        <ele>631.2</ele>
        <time>2022-06-26T08:58:39Z</time>
      </trkpt>
      <trkpt lat="45.93076" lon="4.42566">
        <ele>631.6</ele>
        <time>2022-06-26T08:58:40Z</time>
      </trkpt>
      <trkpt lat="45.93077" lon="4.42562">
        <ele>631.6</ele>
        <time>2022-06-26T08:58:41Z</time>
      </trkpt>
      <trkpt lat="45.93078" lon="4.42558">
        <ele>632</ele>
        <time>2022-06-26T08:58:42Z</time>
      </trkpt>
      <trkpt lat="45.93079" lon="4.42555">
        <ele>632</ele>
        <time>2022-06-26T08:58:43Z</time>
      </trkpt>
      <trkpt lat="45.9308" lon="4.42551">
        <ele>632.2</ele>
        <time>2022-06-26T08:58:44Z</time>
      </trkpt>
      <trkpt lat="45.93082" lon="4.42548">
        <ele>632.2</ele>
        <time>2022-06-26T08:58:45Z</time>
      </trkpt>
      <trkpt lat="45.93083" lon="4.42544">
        <ele>632.2</ele>
        <time>2022-06-26T08:58:46Z</time>
      </trkpt>
      <trkpt lat="45.93085" lon="4.4254">
        <ele>632.6</ele>
        <time>2022-06-26T08:58:47Z</time>
      </trkpt>
      <trkpt lat="45.93086" lon="4.42536">
        <ele>632.2</ele>
        <time>2022-06-26T08:58:48Z</time>
      </trkpt>
      <trkpt lat="45.93087" lon="4.42532">
        <ele>632.6</ele>
        <time>2022-06-26T08:58:49Z</time>
      </trkpt>
      <trkpt lat="45.93089" lon="4.42528">
        <ele>632.8</ele>
        <time>2022-06-26T08:58:50Z</time>
      </trkpt>
      <trkpt lat="45.9309" lon="4.42524">
        <ele>632.8</ele>
        <time>2022-06-26T08:58:51Z</time>
      </trkpt>
      <trkpt lat="45.93091" lon="4.4252">
        <ele>633</ele>
        <time>2022-06-26T08:58:52Z</time>
      </trkpt>
      <trkpt lat="45.93093" lon="4.42516">
        <ele>633</ele>
        <time>2022-06-26T08:58:53Z</time>
      </trkpt>
      <trkpt lat="45.93094" lon="4.42512">
        <ele>633.4</ele>
        <time>2022-06-26T08:58:54Z</time>
      </trkpt>
      <trkpt lat="45.93096" lon="4.42508">
        <ele>633.6</ele>
        <time>2022-06-26T08:58:55Z</time>
      </trkpt>
      <trkpt lat="45.93098" lon="4.42504">
        <ele>633.6</ele>
        <time>2022-06-26T08:58:56Z</time>
      </trkpt>
      <trkpt lat="45.93099" lon="4.425">
        <ele>634</ele>
        <time>2022-06-26T08:58:57Z</time>
      </trkpt>
      <trkpt lat="45.931" lon="4.42496">
        <ele>634</ele>
        <time>2022-06-26T08:58:58Z</time>
      </trkpt>
      <trkpt lat="45.93103" lon="4.4249">
        <ele>634.2</ele>
        <time>2022-06-26T08:58:59Z</time>
      </trkpt>
      <trkpt lat="45.93104" lon="4.42488">
        <ele>634.2</ele>
        <time>2022-06-26T08:59:00Z</time>
      </trkpt>
      <trkpt lat="45.93106" lon="4.42485">
        <ele>634.2</ele>
        <time>2022-06-26T08:59:01Z</time>
      </trkpt>
      <trkpt lat="45.93108" lon="4.42481">
        <ele>634.4</ele>
        <time>2022-06-26T08:59:02Z</time>
      </trkpt>
      <trkpt lat="45.9311" lon="4.42478">
        <ele>634.4</ele>
        <time>2022-06-26T08:59:03Z</time>
      </trkpt>
      <trkpt lat="45.93113" lon="4.42474">
        <ele>634.4</ele>
        <time>2022-06-26T08:59:04Z</time>
      </trkpt>
      <trkpt lat="45.93115" lon="4.42471">
        <ele>634.8</ele>
        <time>2022-06-26T08:59:05Z</time>
      </trkpt>
      <trkpt lat="45.93118" lon="4.42469">
        <ele>634.8</ele>
        <time>2022-06-26T08:59:06Z</time>
      </trkpt>
      <trkpt lat="45.93121" lon="4.42466">
        <ele>635</ele>
        <time>2022-06-26T08:59:07Z</time>
      </trkpt>
      <trkpt lat="45.93124" lon="4.42464">
        <ele>635</ele>
        <time>2022-06-26T08:59:08Z</time>
      </trkpt>
      <trkpt lat="45.93127" lon="4.42463">
        <ele>635.2</ele>
        <time>2022-06-26T08:59:09Z</time>
      </trkpt>
      <trkpt lat="45.9313" lon="4.42461">
        <ele>635.2</ele>
        <time>2022-06-26T08:59:10Z</time>
      </trkpt>
      <trkpt lat="45.93133" lon="4.4246">
        <ele>635.6</ele>
        <time>2022-06-26T08:59:11Z</time>
      </trkpt>
      <trkpt lat="45.93136" lon="4.42459">
        <ele>635.8</ele>
        <time>2022-06-26T08:59:12Z</time>
      </trkpt>
      <trkpt lat="45.93138" lon="4.42458">
        <ele>635.8</ele>
        <time>2022-06-26T08:59:13Z</time>
      </trkpt>
      <trkpt lat="45.93141" lon="4.42458">
        <ele>636</ele>
        <time>2022-06-26T08:59:14Z</time>
      </trkpt>
      <trkpt lat="45.93144" lon="4.42457">
        <ele>636</ele>
        <time>2022-06-26T08:59:15Z</time>
      </trkpt>
      <trkpt lat="45.93147" lon="4.42456">
        <ele>636.4</ele>
        <time>2022-06-26T08:59:16Z</time>
      </trkpt>
      <trkpt lat="45.9315" lon="4.42455">
        <ele>636.4</ele>
        <time>2022-06-26T08:59:17Z</time>
      </trkpt>
      <trkpt lat="45.93153" lon="4.42454">
        <ele>636.6</ele>
        <time>2022-06-26T08:59:18Z</time>
      </trkpt>
      <trkpt lat="45.93155" lon="4.42452">
        <ele>636.6</ele>
        <time>2022-06-26T08:59:19Z</time>
      </trkpt>
      <trkpt lat="45.93158" lon="4.4245">
        <ele>637</ele>
        <time>2022-06-26T08:59:20Z</time>
      </trkpt>
      <trkpt lat="45.93161" lon="4.42448">
        <ele>637</ele>
        <time>2022-06-26T08:59:21Z</time>
      </trkpt>
      <trkpt lat="45.93163" lon="4.42446">
        <ele>637.4</ele>
        <time>2022-06-26T08:59:22Z</time>
      </trkpt>
      <trkpt lat="45.93165" lon="4.42444">
        <ele>637.6</ele>
        <time>2022-06-26T08:59:23Z</time>
      </trkpt>
      <trkpt lat="45.93168" lon="4.42442">
        <ele>637.6</ele>
        <time>2022-06-26T08:59:24Z</time>
      </trkpt>
      <trkpt lat="45.9317" lon="4.42439">
        <ele>637.8</ele>
        <time>2022-06-26T08:59:25Z</time>
      </trkpt>
      <trkpt lat="45.93173" lon="4.42435">
        <ele>637.8</ele>
        <time>2022-06-26T08:59:26Z</time>
      </trkpt>
      <trkpt lat="45.93174" lon="4.42433">
        <ele>638</ele>
        <time>2022-06-26T08:59:27Z</time>
      </trkpt>
      <trkpt lat="45.93175" lon="4.42431">
        <ele>638</ele>
        <time>2022-06-26T08:59:28Z</time>
      </trkpt>
      <trkpt lat="45.93177" lon="4.42428">
        <ele>638.4</ele>
        <time>2022-06-26T08:59:29Z</time>
      </trkpt>
      <trkpt lat="45.93178" lon="4.42425">
        <ele>638.4</ele>
        <time>2022-06-26T08:59:30Z</time>
      </trkpt>
      <trkpt lat="45.9318" lon="4.42422">
        <ele>638.8</ele>
        <time>2022-06-26T08:59:31Z</time>
      </trkpt>
      <trkpt lat="45.93182" lon="4.42419">
        <ele>638.8</ele>
        <time>2022-06-26T08:59:32Z</time>
      </trkpt>
      <trkpt lat="45.93184" lon="4.42417">
        <ele>639.2</ele>
        <time>2022-06-26T08:59:33Z</time>
      </trkpt>
      <trkpt lat="45.93186" lon="4.42413">
        <ele>639.2</ele>
        <time>2022-06-26T08:59:34Z</time>
      </trkpt>
      <trkpt lat="45.93188" lon="4.4241">
        <ele>639.4</ele>
        <time>2022-06-26T08:59:35Z</time>
      </trkpt>
      <trkpt lat="45.9319" lon="4.42407">
        <ele>639.4</ele>
        <time>2022-06-26T08:59:36Z</time>
      </trkpt>
      <trkpt lat="45.93192" lon="4.42403">
        <ele>639.4</ele>
        <time>2022-06-26T08:59:37Z</time>
      </trkpt>
      <trkpt lat="45.93194" lon="4.424">
        <ele>639.4</ele>
        <time>2022-06-26T08:59:38Z</time>
      </trkpt>
      <trkpt lat="45.93197" lon="4.42396">
        <ele>639.6</ele>
        <time>2022-06-26T08:59:39Z</time>
      </trkpt>
      <trkpt lat="45.93199" lon="4.42393">
        <ele>639.8</ele>
        <time>2022-06-26T08:59:40Z</time>
      </trkpt>
      <trkpt lat="45.93201" lon="4.42389">
        <ele>640.2</ele>
        <time>2022-06-26T08:59:41Z</time>
      </trkpt>
      <trkpt lat="45.93204" lon="4.42385">
        <ele>640.4</ele>
        <time>2022-06-26T08:59:42Z</time>
      </trkpt>
      <trkpt lat="45.93206" lon="4.4238">
        <ele>640.4</ele>
        <time>2022-06-26T08:59:43Z</time>
      </trkpt>
      <trkpt lat="45.93208" lon="4.42376">
        <ele>640.6</ele>
        <time>2022-06-26T08:59:44Z</time>
      </trkpt>
      <trkpt lat="45.9321" lon="4.42372">
        <ele>640.6</ele>
        <time>2022-06-26T08:59:45Z</time>
      </trkpt>
      <trkpt lat="45.93212" lon="4.42368">
        <ele>641</ele>
        <time>2022-06-26T08:59:46Z</time>
      </trkpt>
      <trkpt lat="45.93214" lon="4.42364">
        <ele>641</ele>
        <time>2022-06-26T08:59:47Z</time>
      </trkpt>
      <trkpt lat="45.93215" lon="4.4236">
        <ele>641</ele>
        <time>2022-06-26T08:59:48Z</time>
      </trkpt>
      <trkpt lat="45.93217" lon="4.42356">
        <ele>641.4</ele>
        <time>2022-06-26T08:59:49Z</time>
      </trkpt>
      <trkpt lat="45.93219" lon="4.42352">
        <ele>641.4</ele>
        <time>2022-06-26T08:59:50Z</time>
      </trkpt>
      <trkpt lat="45.9322" lon="4.42347">
        <ele>641.6</ele>
        <time>2022-06-26T08:59:51Z</time>
      </trkpt>
      <trkpt lat="45.93222" lon="4.42343">
        <ele>641.6</ele>
        <time>2022-06-26T08:59:52Z</time>
      </trkpt>
      <trkpt lat="45.93223" lon="4.42339">
        <ele>642</ele>
        <time>2022-06-26T08:59:53Z</time>
      </trkpt>
      <trkpt lat="45.93224" lon="4.42335">
        <ele>642</ele>
        <time>2022-06-26T08:59:54Z</time>
      </trkpt>
      <trkpt lat="45.93226" lon="4.42331">
        <ele>642.2</ele>
        <time>2022-06-26T08:59:55Z</time>
      </trkpt>
      <trkpt lat="45.93227" lon="4.42327">
        <ele>642.2</ele>
        <time>2022-06-26T08:59:56Z</time>
      </trkpt>
      <trkpt lat="45.93229" lon="4.42324">
        <ele>642.6</ele>
        <time>2022-06-26T08:59:57Z</time>
      </trkpt>
      <trkpt lat="45.93231" lon="4.42319">
        <ele>642.6</ele>
        <time>2022-06-26T08:59:58Z</time>
      </trkpt>
      <trkpt lat="45.93232" lon="4.42316">
        <ele>642.8</ele>
        <time>2022-06-26T08:59:59Z</time>
      </trkpt>
      <trkpt lat="45.93234" lon="4.42312">
        <ele>642.8</ele>
        <time>2022-06-26T09:00:00Z</time>
      </trkpt>
      <trkpt lat="45.93235" lon="4.42309">
        <ele>643</ele>
        <time>2022-06-26T09:00:01Z</time>
      </trkpt>
      <trkpt lat="45.93237" lon="4.42305">
        <ele>643</ele>
        <time>2022-06-26T09:00:02Z</time>
      </trkpt>
      <trkpt lat="45.93238" lon="4.42301">
        <ele>643.4</ele>
        <time>2022-06-26T09:00:03Z</time>
      </trkpt>
      <trkpt lat="45.9324" lon="4.42297">
        <ele>643.4</ele>
        <time>2022-06-26T09:00:04Z</time>
      </trkpt>
      <trkpt lat="45.93241" lon="4.42293">
        <ele>643.6</ele>
        <time>2022-06-26T09:00:05Z</time>
      </trkpt>
      <trkpt lat="45.93242" lon="4.42289">
        <ele>643.6</ele>
        <time>2022-06-26T09:00:06Z</time>
      </trkpt>
      <trkpt lat="45.93244" lon="4.42286">
        <ele>644</ele>
        <time>2022-06-26T09:00:07Z</time>
      </trkpt>
      <trkpt lat="45.93246" lon="4.42282">
        <ele>644</ele>
        <time>2022-06-26T09:00:08Z</time>
      </trkpt>
      <trkpt lat="45.93247" lon="4.42277">
        <ele>644.2</ele>
        <time>2022-06-26T09:00:09Z</time>
      </trkpt>
      <trkpt lat="45.93249" lon="4.42273">
        <ele>644.4</ele>
        <time>2022-06-26T09:00:10Z</time>
      </trkpt>
      <trkpt lat="45.93251" lon="4.4227">
        <ele>644.4</ele>
        <time>2022-06-26T09:00:11Z</time>
      </trkpt>
      <trkpt lat="45.93252" lon="4.42265">
        <ele>644.6</ele>
        <time>2022-06-26T09:00:12Z</time>
      </trkpt>
      <trkpt lat="45.93254" lon="4.42261">
        <ele>644.6</ele>
        <time>2022-06-26T09:00:13Z</time>
      </trkpt>
      <trkpt lat="45.93256" lon="4.42257">
        <ele>645</ele>
        <time>2022-06-26T09:00:14Z</time>
      </trkpt>
      <trkpt lat="45.93258" lon="4.42252">
        <ele>645</ele>
        <time>2022-06-26T09:00:15Z</time>
      </trkpt>
      <trkpt lat="45.93259" lon="4.42248">
        <ele>645.2</ele>
        <time>2022-06-26T09:00:16Z</time>
      </trkpt>
      <trkpt lat="45.93261" lon="4.42244">
        <ele>645.2</ele>
        <time>2022-06-26T09:00:17Z</time>
      </trkpt>
      <trkpt lat="45.93263" lon="4.4224">
        <ele>645.4</ele>
        <time>2022-06-26T09:00:18Z</time>
      </trkpt>
      <trkpt lat="45.93266" lon="4.42236">
        <ele>645.4</ele>
        <time>2022-06-26T09:00:19Z</time>
      </trkpt>
      <trkpt lat="45.93267" lon="4.42231">
        <ele>645.8</ele>
        <time>2022-06-26T09:00:20Z</time>
      </trkpt>
      <trkpt lat="45.93268" lon="4.42225">
        <ele>645.8</ele>
        <time>2022-06-26T09:00:21Z</time>
      </trkpt>
      <trkpt lat="45.9327" lon="4.42221">
        <ele>646</ele>
        <time>2022-06-26T09:00:22Z</time>
      </trkpt>
      <trkpt lat="45.93271" lon="4.42216">
        <ele>646</ele>
        <time>2022-06-26T09:00:23Z</time>
      </trkpt>
      <trkpt lat="45.93272" lon="4.42212">
        <ele>646.2</ele>
        <time>2022-06-26T09:00:24Z</time>
      </trkpt>
      <trkpt lat="45.93272" lon="4.42208">
        <ele>646.2</ele>
        <time>2022-06-26T09:00:25Z</time>
      </trkpt>
      <trkpt lat="45.93273" lon="4.42203">
        <ele>646.6</ele>
        <time>2022-06-26T09:00:26Z</time>
      </trkpt>
      <trkpt lat="45.93273" lon="4.42199">
        <ele>646.6</ele>
        <time>2022-06-26T09:00:27Z</time>
      </trkpt>
      <trkpt lat="45.93274" lon="4.42195">
        <ele>647</ele>
        <time>2022-06-26T09:00:28Z</time>
      </trkpt>
      <trkpt lat="45.93274" lon="4.4219">
        <ele>647</ele>
        <time>2022-06-26T09:00:29Z</time>
      </trkpt>
      <trkpt lat="45.93274" lon="4.42186">
        <ele>647.2</ele>
        <time>2022-06-26T09:00:30Z</time>
      </trkpt>
      <trkpt lat="45.93274" lon="4.42182">
        <ele>647.2</ele>
        <time>2022-06-26T09:00:31Z</time>
      </trkpt>
      <trkpt lat="45.93275" lon="4.42178">
        <ele>647.4</ele>
        <time>2022-06-26T09:00:32Z</time>
      </trkpt>
      <trkpt lat="45.93275" lon="4.42173">
        <ele>647.4</ele>
        <time>2022-06-26T09:00:33Z</time>
      </trkpt>
      <trkpt lat="45.93275" lon="4.4217">
        <ele>647.8</ele>
        <time>2022-06-26T09:00:34Z</time>
      </trkpt>
      <trkpt lat="45.93275" lon="4.42166">
        <ele>647.8</ele>
        <time>2022-06-26T09:00:35Z</time>
      </trkpt>
      <trkpt lat="45.93275" lon="4.42162">
        <ele>648</ele>
        <time>2022-06-26T09:00:36Z</time>
      </trkpt>
      <trkpt lat="45.93275" lon="4.42158">
        <ele>648</ele>
        <time>2022-06-26T09:00:37Z</time>
      </trkpt>
      <trkpt lat="45.93275" lon="4.42155">
        <ele>648</ele>
        <time>2022-06-26T09:00:38Z</time>
      </trkpt>
      <trkpt lat="45.93275" lon="4.42151">
        <ele>648.4</ele>
        <time>2022-06-26T09:00:39Z</time>
      </trkpt>
      <trkpt lat="45.93275" lon="4.42147">
        <ele>648.4</ele>
        <time>2022-06-26T09:00:40Z</time>
      </trkpt>
      <trkpt lat="45.93275" lon="4.42143">
        <ele>648.6</ele>
        <time>2022-06-26T09:00:41Z</time>
      </trkpt>
      <trkpt lat="45.93275" lon="4.42138">
        <ele>648.6</ele>
        <time>2022-06-26T09:00:42Z</time>
      </trkpt>
      <trkpt lat="45.93276" lon="4.42133">
        <ele>649</ele>
        <time>2022-06-26T09:00:43Z</time>
      </trkpt>
      <trkpt lat="45.93277" lon="4.42128">
        <ele>649</ele>
        <time>2022-06-26T09:00:44Z</time>
      </trkpt>
      <trkpt lat="45.93278" lon="4.42124">
        <ele>649</ele>
        <time>2022-06-26T09:00:45Z</time>
      </trkpt>
      <trkpt lat="45.93279" lon="4.4212">
        <ele>649.2</ele>
        <time>2022-06-26T09:00:46Z</time>
      </trkpt>
      <trkpt lat="45.93281" lon="4.42116">
        <ele>649.2</ele>
        <time>2022-06-26T09:00:47Z</time>
      </trkpt>
      <trkpt lat="45.93283" lon="4.42113">
        <ele>649.6</ele>
        <time>2022-06-26T09:00:48Z</time>
      </trkpt>
      <trkpt lat="45.93286" lon="4.42111">
        <ele>649.8</ele>
        <time>2022-06-26T09:00:49Z</time>
      </trkpt>
      <trkpt lat="45.93289" lon="4.42108">
        <ele>649.8</ele>
        <time>2022-06-26T09:00:50Z</time>
      </trkpt>
      <trkpt lat="45.93291" lon="4.42105">
        <ele>650.2</ele>
        <time>2022-06-26T09:00:51Z</time>
      </trkpt>
      <trkpt lat="45.93294" lon="4.42103">
        <ele>650.4</ele>
        <time>2022-06-26T09:00:52Z</time>
      </trkpt>
      <trkpt lat="45.93297" lon="4.42102">
        <ele>650.4</ele>
        <time>2022-06-26T09:00:53Z</time>
      </trkpt>
      <trkpt lat="45.933" lon="4.42102">
        <ele>650.6</ele>
        <time>2022-06-26T09:00:54Z</time>
      </trkpt>
      <trkpt lat="45.93302" lon="4.42101">
        <ele>650.6</ele>
        <time>2022-06-26T09:00:55Z</time>
      </trkpt>
      <trkpt lat="45.93305" lon="4.42101">
        <ele>651</ele>
        <time>2022-06-26T09:00:56Z</time>
      </trkpt>
      <trkpt lat="45.93308" lon="4.421">
        <ele>651</ele>
        <time>2022-06-26T09:00:57Z</time>
      </trkpt>
      <trkpt lat="45.9331" lon="4.42099">
        <ele>651.4</ele>
        <time>2022-06-26T09:00:58Z</time>
      </trkpt>
      <trkpt lat="45.93312" lon="4.42098">
        <ele>651.4</ele>
        <time>2022-06-26T09:00:59Z</time>
      </trkpt>
      <trkpt lat="45.93314" lon="4.42097">
        <ele>651.6</ele>
        <time>2022-06-26T09:01:00Z</time>
      </trkpt>
      <trkpt lat="45.93316" lon="4.42096">
        <ele>651.6</ele>
        <time>2022-06-26T09:01:01Z</time>
      </trkpt>
      <trkpt lat="45.93319" lon="4.42095">
        <ele>651.8</ele>
        <time>2022-06-26T09:01:02Z</time>
      </trkpt>
      <trkpt lat="45.93322" lon="4.42093">
        <ele>651.8</ele>
        <time>2022-06-26T09:01:03Z</time>
      </trkpt>
      <trkpt lat="45.93325" lon="4.42092">
        <ele>652</ele>
        <time>2022-06-26T09:01:04Z</time>
      </trkpt>
      <trkpt lat="45.93328" lon="4.4209">
        <ele>652</ele>
        <time>2022-06-26T09:01:05Z</time>
      </trkpt>
      <trkpt lat="45.93331" lon="4.42089">
        <ele>652.4</ele>
        <time>2022-06-26T09:01:06Z</time>
      </trkpt>
      <trkpt lat="45.93334" lon="4.42088">
        <ele>652.4</ele>
        <time>2022-06-26T09:01:07Z</time>
      </trkpt>
      <trkpt lat="45.93337" lon="4.42086">
        <ele>652.6</ele>
        <time>2022-06-26T09:01:08Z</time>
      </trkpt>
      <trkpt lat="45.9334" lon="4.42085">
        <ele>652.6</ele>
        <time>2022-06-26T09:01:09Z</time>
      </trkpt>
      <trkpt lat="45.93343" lon="4.42084">
        <ele>653</ele>
        <time>2022-06-26T09:01:10Z</time>
      </trkpt>
      <trkpt lat="45.93345" lon="4.42082">
        <ele>653</ele>
        <time>2022-06-26T09:01:11Z</time>
      </trkpt>
      <trkpt lat="45.93347" lon="4.42081">
        <ele>653.4</ele>
        <time>2022-06-26T09:01:12Z</time>
      </trkpt>
      <trkpt lat="45.9335" lon="4.42079">
        <ele>653.4</ele>
        <time>2022-06-26T09:01:13Z</time>
      </trkpt>
      <trkpt lat="45.93353" lon="4.42077">
        <ele>653.6</ele>
        <time>2022-06-26T09:01:14Z</time>
      </trkpt>
      <trkpt lat="45.93356" lon="4.42075">
        <ele>653.6</ele>
        <time>2022-06-26T09:01:15Z</time>
      </trkpt>
      <trkpt lat="45.93359" lon="4.42073">
        <ele>653.6</ele>
        <time>2022-06-26T09:01:16Z</time>
      </trkpt>
      <trkpt lat="45.93362" lon="4.42071">
        <ele>654</ele>
        <time>2022-06-26T09:01:17Z</time>
      </trkpt>
      <trkpt lat="45.93365" lon="4.42068">
        <ele>654</ele>
        <time>2022-06-26T09:01:18Z</time>
      </trkpt>
      <trkpt lat="45.93368" lon="4.42066">
        <ele>654</ele>
        <time>2022-06-26T09:01:19Z</time>
      </trkpt>
      <trkpt lat="45.9337" lon="4.42063">
        <ele>654.4</ele>
        <time>2022-06-26T09:01:20Z</time>
      </trkpt>
      <trkpt lat="45.93372" lon="4.4206">
        <ele>654.4</ele>
        <time>2022-06-26T09:01:21Z</time>
      </trkpt>
      <trkpt lat="45.93375" lon="4.42057">
        <ele>654.6</ele>
        <time>2022-06-26T09:01:22Z</time>
      </trkpt>
      <trkpt lat="45.93377" lon="4.42055">
        <ele>654.6</ele>
        <time>2022-06-26T09:01:23Z</time>
      </trkpt>
      <trkpt lat="45.9338" lon="4.42052">
        <ele>654.8</ele>
        <time>2022-06-26T09:01:24Z</time>
      </trkpt>
      <trkpt lat="45.93385" lon="4.42047">
        <ele>654.8</ele>
        <time>2022-06-26T09:01:25Z</time>
      </trkpt>
      <trkpt lat="45.93388" lon="4.42044">
        <ele>655</ele>
        <time>2022-06-26T09:01:26Z</time>
      </trkpt>
      <trkpt lat="45.9339" lon="4.42041">
        <ele>655</ele>
        <time>2022-06-26T09:01:27Z</time>
      </trkpt>
      <trkpt lat="45.93393" lon="4.42038">
        <ele>655.4</ele>
        <time>2022-06-26T09:01:28Z</time>
      </trkpt>
      <trkpt lat="45.93396" lon="4.42036">
        <ele>655.4</ele>
        <time>2022-06-26T09:01:29Z</time>
      </trkpt>
      <trkpt lat="45.93399" lon="4.42033">
        <ele>655.4</ele>
        <time>2022-06-26T09:01:30Z</time>
      </trkpt>
      <trkpt lat="45.93402" lon="4.4203">
        <ele>655.6</ele>
        <time>2022-06-26T09:01:31Z</time>
      </trkpt>
      <trkpt lat="45.93404" lon="4.42028">
        <ele>655.6</ele>
        <time>2022-06-26T09:01:32Z</time>
      </trkpt>
      <trkpt lat="45.93407" lon="4.42025">
        <ele>656</ele>
        <time>2022-06-26T09:01:33Z</time>
      </trkpt>
      <trkpt lat="45.9341" lon="4.42023">
        <ele>656</ele>
        <time>2022-06-26T09:01:34Z</time>
      </trkpt>
      <trkpt lat="45.93413" lon="4.42021">
        <ele>656</ele>
        <time>2022-06-26T09:01:35Z</time>
      </trkpt>
      <trkpt lat="45.93416" lon="4.42019">
        <ele>656.2</ele>
        <time>2022-06-26T09:01:36Z</time>
      </trkpt>
      <trkpt lat="45.9342" lon="4.42016">
        <ele>656.2</ele>
        <time>2022-06-26T09:01:37Z</time>
      </trkpt>
      <trkpt lat="45.93423" lon="4.42014">
        <ele>656.2</ele>
        <time>2022-06-26T09:01:38Z</time>
      </trkpt>
      <trkpt lat="45.93426" lon="4.42013">
        <ele>656.4</ele>
        <time>2022-06-26T09:01:39Z</time>
      </trkpt>
      <trkpt lat="45.9343" lon="4.42012">
        <ele>656.6</ele>
        <time>2022-06-26T09:01:40Z</time>
      </trkpt>
      <trkpt lat="45.93433" lon="4.42011">
        <ele>656.6</ele>
        <time>2022-06-26T09:01:41Z</time>
      </trkpt>
      <trkpt lat="45.93437" lon="4.42012">
        <ele>656.8</ele>
        <time>2022-06-26T09:01:42Z</time>
      </trkpt>
      <trkpt lat="45.9344" lon="4.42012">
        <ele>656.8</ele>
        <time>2022-06-26T09:01:43Z</time>
      </trkpt>
      <trkpt lat="45.93443" lon="4.42013">
        <ele>656.8</ele>
        <time>2022-06-26T09:01:44Z</time>
      </trkpt>
      <trkpt lat="45.93447" lon="4.42014">
        <ele>657</ele>
        <time>2022-06-26T09:01:45Z</time>
      </trkpt>
      <trkpt lat="45.9345" lon="4.42015">
        <ele>657</ele>
        <time>2022-06-26T09:01:46Z</time>
      </trkpt>
      <trkpt lat="45.93453" lon="4.42016">
        <ele>657.2</ele>
        <time>2022-06-26T09:01:47Z</time>
      </trkpt>
      <trkpt lat="45.93457" lon="4.42017">
        <ele>657.2</ele>
        <time>2022-06-26T09:01:49Z</time>
      </trkpt>
      <trkpt lat="45.9346" lon="4.42017">
        <ele>657.2</ele>
        <time>2022-06-26T09:01:50Z</time>
      </trkpt>
      <trkpt lat="45.93464" lon="4.42018">
        <ele>657.4</ele>
        <time>2022-06-26T09:01:51Z</time>
      </trkpt>
      <trkpt lat="45.93467" lon="4.42017">
        <ele>657.4</ele>
        <time>2022-06-26T09:01:52Z</time>
      </trkpt>
      <trkpt lat="45.9347" lon="4.42016">
        <ele>657.4</ele>
        <time>2022-06-26T09:01:53Z</time>
      </trkpt>
      <trkpt lat="45.93473" lon="4.42013">
        <ele>657.4</ele>
        <time>2022-06-26T09:01:54Z</time>
      </trkpt>
      <trkpt lat="45.93476" lon="4.4201">
        <ele>657.4</ele>
        <time>2022-06-26T09:01:55Z</time>
      </trkpt>
      <trkpt lat="45.93478" lon="4.42005">
        <ele>657.4</ele>
        <time>2022-06-26T09:01:56Z</time>
      </trkpt>
      <trkpt lat="45.93479" lon="4.42001">
        <ele>657.8</ele>
        <time>2022-06-26T09:01:57Z</time>
      </trkpt>
      <trkpt lat="45.9348" lon="4.41996">
        <ele>657.8</ele>
        <time>2022-06-26T09:01:58Z</time>
      </trkpt>
      <trkpt lat="45.93481" lon="4.41991">
        <ele>657.8</ele>
        <time>2022-06-26T09:01:59Z</time>
      </trkpt>
      <trkpt lat="45.93482" lon="4.41986">
        <ele>658</ele>
        <time>2022-06-26T09:02:00Z</time>
      </trkpt>
      <trkpt lat="45.93483" lon="4.41981">
        <ele>658</ele>
        <time>2022-06-26T09:02:01Z</time>
      </trkpt>
      <trkpt lat="45.93484" lon="4.41976">
        <ele>658</ele>
        <time>2022-06-26T09:02:02Z</time>
      </trkpt>
      <trkpt lat="45.93485" lon="4.41972">
        <ele>658.2</ele>
        <time>2022-06-26T09:02:03Z</time>
      </trkpt>
      <trkpt lat="45.93486" lon="4.41967">
        <ele>658.2</ele>
        <time>2022-06-26T09:02:04Z</time>
      </trkpt>
      <trkpt lat="45.93487" lon="4.41962">
        <ele>658.6</ele>
        <time>2022-06-26T09:02:05Z</time>
      </trkpt>
      <trkpt lat="45.93488" lon="4.41957">
        <ele>658.6</ele>
        <time>2022-06-26T09:02:06Z</time>
      </trkpt>
      <trkpt lat="45.93489" lon="4.41953">
        <ele>658.6</ele>
        <time>2022-06-26T09:02:07Z</time>
      </trkpt>
      <trkpt lat="45.9349" lon="4.41948">
        <ele>658.6</ele>
        <time>2022-06-26T09:02:08Z</time>
      </trkpt>
      <trkpt lat="45.93491" lon="4.41944">
        <ele>658.8</ele>
        <time>2022-06-26T09:02:09Z</time>
      </trkpt>
      <trkpt lat="45.93492" lon="4.41939">
        <ele>658.8</ele>
        <time>2022-06-26T09:02:10Z</time>
      </trkpt>
      <trkpt lat="45.93493" lon="4.41935">
        <ele>659</ele>
        <time>2022-06-26T09:02:11Z</time>
      </trkpt>
      <trkpt lat="45.93494" lon="4.4193">
        <ele>659</ele>
        <time>2022-06-26T09:02:12Z</time>
      </trkpt>
      <trkpt lat="45.93495" lon="4.41926">
        <ele>659</ele>
        <time>2022-06-26T09:02:13Z</time>
      </trkpt>
      <trkpt lat="45.93496" lon="4.41921">
        <ele>659</ele>
        <time>2022-06-26T09:02:14Z</time>
      </trkpt>
      <trkpt lat="45.93497" lon="4.41916">
        <ele>659.2</ele>
        <time>2022-06-26T09:02:15Z</time>
      </trkpt>
      <trkpt lat="45.93498" lon="4.41912">
        <ele>659.2</ele>
        <time>2022-06-26T09:02:16Z</time>
      </trkpt>
      <trkpt lat="45.93499" lon="4.41907">
        <ele>659.2</ele>
        <time>2022-06-26T09:02:17Z</time>
      </trkpt>
      <trkpt lat="45.935" lon="4.41903">
        <ele>659.2</ele>
        <time>2022-06-26T09:02:18Z</time>
      </trkpt>
      <trkpt lat="45.93501" lon="4.41898">
        <ele>659.6</ele>
        <time>2022-06-26T09:02:19Z</time>
      </trkpt>
      <trkpt lat="45.93502" lon="4.41894">
        <ele>659.6</ele>
        <time>2022-06-26T09:02:20Z</time>
      </trkpt>
      <trkpt lat="45.93503" lon="4.41889">
        <ele>659.8</ele>
        <time>2022-06-26T09:02:21Z</time>
      </trkpt>
      <trkpt lat="45.93504" lon="4.41884">
        <ele>659.8</ele>
        <time>2022-06-26T09:02:22Z</time>
      </trkpt>
      <trkpt lat="45.93505" lon="4.4188">
        <ele>659.8</ele>
        <time>2022-06-26T09:02:23Z</time>
      </trkpt>
      <trkpt lat="45.93506" lon="4.41875">
        <ele>659.8</ele>
        <time>2022-06-26T09:02:24Z</time>
      </trkpt>
      <trkpt lat="45.93507" lon="4.41871">
        <ele>659.8</ele>
        <time>2022-06-26T09:02:25Z</time>
      </trkpt>
      <trkpt lat="45.93508" lon="4.41866">
        <ele>660</ele>
        <time>2022-06-26T09:02:26Z</time>
      </trkpt>
      <trkpt lat="45.93509" lon="4.41861">
        <ele>660</ele>
        <time>2022-06-26T09:02:27Z</time>
      </trkpt>
      <trkpt lat="45.9351" lon="4.41856">
        <ele>660.2</ele>
        <time>2022-06-26T09:02:28Z</time>
      </trkpt>
      <trkpt lat="45.93511" lon="4.41851">
        <ele>660.2</ele>
        <time>2022-06-26T09:02:29Z</time>
      </trkpt>
      <trkpt lat="45.93512" lon="4.41846">
        <ele>660.2</ele>
        <time>2022-06-26T09:02:30Z</time>
      </trkpt>
      <trkpt lat="45.93513" lon="4.41841">
        <ele>660.2</ele>
        <time>2022-06-26T09:02:31Z</time>
      </trkpt>
      <trkpt lat="45.93515" lon="4.41836">
        <ele>660.4</ele>
        <time>2022-06-26T09:02:32Z</time>
      </trkpt>
      <trkpt lat="45.93516" lon="4.41831">
        <ele>660.4</ele>
        <time>2022-06-26T09:02:33Z</time>
      </trkpt>
      <trkpt lat="45.93516" lon="4.41826">
        <ele>660.4</ele>
        <time>2022-06-26T09:02:34Z</time>
      </trkpt>
      <trkpt lat="45.93517" lon="4.41821">
        <ele>660.4</ele>
        <time>2022-06-26T09:02:35Z</time>
      </trkpt>
      <trkpt lat="45.93518" lon="4.41816">
        <ele>660.4</ele>
        <time>2022-06-26T09:02:36Z</time>
      </trkpt>
      <trkpt lat="45.93519" lon="4.41811">
        <ele>660.8</ele>
        <time>2022-06-26T09:02:37Z</time>
      </trkpt>
      <trkpt lat="45.93519" lon="4.41806">
        <ele>660.8</ele>
        <time>2022-06-26T09:02:38Z</time>
      </trkpt>
      <trkpt lat="45.9352" lon="4.41801">
        <ele>660.8</ele>
        <time>2022-06-26T09:02:39Z</time>
      </trkpt>
      <trkpt lat="45.9352" lon="4.41796">
        <ele>661</ele>
        <time>2022-06-26T09:02:40Z</time>
      </trkpt>
      <trkpt lat="45.93521" lon="4.41791">
        <ele>661</ele>
        <time>2022-06-26T09:02:41Z</time>
      </trkpt>
      <trkpt lat="45.93521" lon="4.41787">
        <ele>661</ele>
        <time>2022-06-26T09:02:42Z</time>
      </trkpt>
      <trkpt lat="45.93521" lon="4.41782">
        <ele>661</ele>
        <time>2022-06-26T09:02:43Z</time>
      </trkpt>
      <trkpt lat="45.93521" lon="4.41777">
        <ele>661</ele>
        <time>2022-06-26T09:02:44Z</time>
      </trkpt>
      <trkpt lat="45.93521" lon="4.41772">
        <ele>661.4</ele>
        <time>2022-06-26T09:02:45Z</time>
      </trkpt>
      <trkpt lat="45.93522" lon="4.41767">
        <ele>661.4</ele>
        <time>2022-06-26T09:02:46Z</time>
      </trkpt>
      <trkpt lat="45.93522" lon="4.41762">
        <ele>661.4</ele>
        <time>2022-06-26T09:02:47Z</time>
      </trkpt>
      <trkpt lat="45.93522" lon="4.41757">
        <ele>661.6</ele>
        <time>2022-06-26T09:02:48Z</time>
      </trkpt>
      <trkpt lat="45.93522" lon="4.41752">
        <ele>661.6</ele>
        <time>2022-06-26T09:02:49Z</time>
      </trkpt>
      <trkpt lat="45.93522" lon="4.41747">
        <ele>662</ele>
        <time>2022-06-26T09:02:50Z</time>
      </trkpt>
      <trkpt lat="45.93522" lon="4.41743">
        <ele>662</ele>
        <time>2022-06-26T09:02:51Z</time>
      </trkpt>
      <trkpt lat="45.93522" lon="4.41739">
        <ele>662.2</ele>
        <time>2022-06-26T09:02:52Z</time>
      </trkpt>
      <trkpt lat="45.93522" lon="4.41736">
        <ele>662.2</ele>
        <time>2022-06-26T09:02:53Z</time>
      </trkpt>
      <trkpt lat="45.93522" lon="4.41732">
        <ele>662.2</ele>
        <time>2022-06-26T09:02:54Z</time>
      </trkpt>
      <trkpt lat="45.93522" lon="4.41728">
        <ele>662.2</ele>
        <time>2022-06-26T09:02:55Z</time>
      </trkpt>
      <trkpt lat="45.93522" lon="4.41724">
        <ele>662.4</ele>
        <time>2022-06-26T09:02:56Z</time>
      </trkpt>
      <trkpt lat="45.93523" lon="4.4172">
        <ele>662.4</ele>
        <time>2022-06-26T09:02:57Z</time>
      </trkpt>
      <trkpt lat="45.93523" lon="4.41715">
        <ele>662.4</ele>
        <time>2022-06-26T09:02:58Z</time>
      </trkpt>
      <trkpt lat="45.93523" lon="4.41711">
        <ele>662.4</ele>
        <time>2022-06-26T09:02:59Z</time>
      </trkpt>
      <trkpt lat="45.93524" lon="4.41707">
        <ele>662.6</ele>
        <time>2022-06-26T09:03:00Z</time>
      </trkpt>
      <trkpt lat="45.93524" lon="4.41702">
        <ele>662.6</ele>
        <time>2022-06-26T09:03:01Z</time>
      </trkpt>
      <trkpt lat="45.93524" lon="4.41697">
        <ele>662.6</ele>
        <time>2022-06-26T09:03:02Z</time>
      </trkpt>
      <trkpt lat="45.93524" lon="4.41692">
        <ele>663</ele>
        <time>2022-06-26T09:03:03Z</time>
      </trkpt>
      <trkpt lat="45.93525" lon="4.41687">
        <ele>663</ele>
        <time>2022-06-26T09:03:04Z</time>
      </trkpt>
      <trkpt lat="45.93525" lon="4.41683">
        <ele>663</ele>
        <time>2022-06-26T09:03:05Z</time>
      </trkpt>
      <trkpt lat="45.93525" lon="4.41678">
        <ele>663.2</ele>
        <time>2022-06-26T09:03:06Z</time>
      </trkpt>
      <trkpt lat="45.93525" lon="4.41673">
        <ele>663.2</ele>
        <time>2022-06-26T09:03:07Z</time>
      </trkpt>
      <trkpt lat="45.93525" lon="4.41668">
        <ele>663.2</ele>
        <time>2022-06-26T09:03:08Z</time>
      </trkpt>
      <trkpt lat="45.93526" lon="4.41663">
        <ele>663.2</ele>
        <time>2022-06-26T09:03:09Z</time>
      </trkpt>
      <trkpt lat="45.93526" lon="4.41658">
        <ele>663.6</ele>
        <time>2022-06-26T09:03:10Z</time>
      </trkpt>
      <trkpt lat="45.93526" lon="4.41653">
        <ele>663.6</ele>
        <time>2022-06-26T09:03:11Z</time>
      </trkpt>
      <trkpt lat="45.93527" lon="4.41648">
        <ele>663.6</ele>
        <time>2022-06-26T09:03:12Z</time>
      </trkpt>
      <trkpt lat="45.93527" lon="4.41643">
        <ele>663.6</ele>
        <time>2022-06-26T09:03:13Z</time>
      </trkpt>
      <trkpt lat="45.93527" lon="4.41638">
        <ele>663.8</ele>
        <time>2022-06-26T09:03:14Z</time>
      </trkpt>
      <trkpt lat="45.93528" lon="4.41633">
        <ele>663.8</ele>
        <time>2022-06-26T09:03:15Z</time>
      </trkpt>
      <trkpt lat="45.93528" lon="4.41628">
        <ele>663.8</ele>
        <time>2022-06-26T09:03:16Z</time>
      </trkpt>
      <trkpt lat="45.93528" lon="4.41623">
        <ele>664</ele>
        <time>2022-06-26T09:03:17Z</time>
      </trkpt>
      <trkpt lat="45.93528" lon="4.41618">
        <ele>664</ele>
        <time>2022-06-26T09:03:18Z</time>
      </trkpt>
      <trkpt lat="45.93529" lon="4.41613">
        <ele>664</ele>
        <time>2022-06-26T09:03:19Z</time>
      </trkpt>
      <trkpt lat="45.9353" lon="4.41608">
        <ele>664.4</ele>
        <time>2022-06-26T09:03:20Z</time>
      </trkpt>
      <trkpt lat="45.9353" lon="4.41603">
        <ele>664.4</ele>
        <time>2022-06-26T09:03:21Z</time>
      </trkpt>
      <trkpt lat="45.9353" lon="4.41598">
        <ele>664.6</ele>
        <time>2022-06-26T09:03:22Z</time>
      </trkpt>
      <trkpt lat="45.93531" lon="4.41593">
        <ele>664.6</ele>
        <time>2022-06-26T09:03:23Z</time>
      </trkpt>
      <trkpt lat="45.93531" lon="4.41588">
        <ele>664.8</ele>
        <time>2022-06-26T09:03:24Z</time>
      </trkpt>
      <trkpt lat="45.93532" lon="4.41583">
        <ele>664.8</ele>
        <time>2022-06-26T09:03:25Z</time>
      </trkpt>
      <trkpt lat="45.93532" lon="4.41579">
        <ele>664.8</ele>
        <time>2022-06-26T09:03:26Z</time>
      </trkpt>
      <trkpt lat="45.93532" lon="4.41574">
        <ele>664.8</ele>
        <time>2022-06-26T09:03:27Z</time>
      </trkpt>
      <trkpt lat="45.93532" lon="4.41569">
        <ele>664.8</ele>
        <time>2022-06-26T09:03:28Z</time>
      </trkpt>
      <trkpt lat="45.93532" lon="4.41564">
        <ele>665</ele>
        <time>2022-06-26T09:03:29Z</time>
      </trkpt>
      <trkpt lat="45.93532" lon="4.41559">
        <ele>665</ele>
        <time>2022-06-26T09:03:30Z</time>
      </trkpt>
      <trkpt lat="45.93532" lon="4.41555">
        <ele>665.2</ele>
        <time>2022-06-26T09:03:31Z</time>
      </trkpt>
      <trkpt lat="45.93532" lon="4.4155">
        <ele>665.2</ele>
        <time>2022-06-26T09:03:32Z</time>
      </trkpt>
      <trkpt lat="45.93532" lon="4.41546">
        <ele>665.2</ele>
        <time>2022-06-26T09:03:33Z</time>
      </trkpt>
      <trkpt lat="45.93531" lon="4.41541">
        <ele>665.4</ele>
        <time>2022-06-26T09:03:34Z</time>
      </trkpt>
      <trkpt lat="45.93531" lon="4.41536">
        <ele>665.4</ele>
        <time>2022-06-26T09:03:35Z</time>
      </trkpt>
      <trkpt lat="45.9353" lon="4.41531">
        <ele>665.6</ele>
        <time>2022-06-26T09:03:36Z</time>
      </trkpt>
      <trkpt lat="45.9353" lon="4.41526">
        <ele>665.6</ele>
        <time>2022-06-26T09:03:37Z</time>
      </trkpt>
      <trkpt lat="45.9353" lon="4.41521">
        <ele>665.6</ele>
        <time>2022-06-26T09:03:38Z</time>
      </trkpt>
      <trkpt lat="45.9353" lon="4.41517">
        <ele>665.8</ele>
        <time>2022-06-26T09:03:39Z</time>
      </trkpt>
      <trkpt lat="45.93529" lon="4.41512">
        <ele>665.8</ele>
        <time>2022-06-26T09:03:40Z</time>
      </trkpt>
      <trkpt lat="45.93528" lon="4.41507">
        <ele>665.8</ele>
        <time>2022-06-26T09:03:41Z</time>
      </trkpt>
      <trkpt lat="45.93527" lon="4.41502">
        <ele>666.2</ele>
        <time>2022-06-26T09:03:42Z</time>
      </trkpt>
      <trkpt lat="45.93527" lon="4.41497">
        <ele>666.2</ele>
        <time>2022-06-26T09:03:43Z</time>
      </trkpt>
      <trkpt lat="45.93527" lon="4.41492">
        <ele>666.2</ele>
        <time>2022-06-26T09:03:44Z</time>
      </trkpt>
      <trkpt lat="45.93526" lon="4.41487">
        <ele>666.2</ele>
        <time>2022-06-26T09:03:45Z</time>
      </trkpt>
      <trkpt lat="45.93526" lon="4.41482">
        <ele>666.2</ele>
        <time>2022-06-26T09:03:46Z</time>
      </trkpt>
      <trkpt lat="45.93526" lon="4.41477">
        <ele>666.4</ele>
        <time>2022-06-26T09:03:47Z</time>
      </trkpt>
      <trkpt lat="45.93525" lon="4.41472">
        <ele>666.4</ele>
        <time>2022-06-26T09:03:48Z</time>
      </trkpt>
      <trkpt lat="45.93524" lon="4.41467">
        <ele>666.4</ele>
        <time>2022-06-26T09:03:49Z</time>
      </trkpt>
      <trkpt lat="45.93524" lon="4.41462">
        <ele>666.6</ele>
        <time>2022-06-26T09:03:50Z</time>
      </trkpt>
      <trkpt lat="45.93524" lon="4.41457">
        <ele>666.6</ele>
        <time>2022-06-26T09:03:51Z</time>
      </trkpt>
      <trkpt lat="45.93523" lon="4.41451">
        <ele>666.6</ele>
        <time>2022-06-26T09:03:52Z</time>
      </trkpt>
      <trkpt lat="45.93523" lon="4.41446">
        <ele>666.6</ele>
        <time>2022-06-26T09:03:53Z</time>
      </trkpt>
      <trkpt lat="45.93523" lon="4.41442">
        <ele>666.8</ele>
        <time>2022-06-26T09:03:54Z</time>
      </trkpt>
      <trkpt lat="45.93524" lon="4.41437">
        <ele>666.8</ele>
        <time>2022-06-26T09:03:55Z</time>
      </trkpt>
      <trkpt lat="45.93524" lon="4.41432">
        <ele>666.8</ele>
        <time>2022-06-26T09:03:56Z</time>
      </trkpt>
      <trkpt lat="45.93525" lon="4.41428">
        <ele>667.2</ele>
        <time>2022-06-26T09:03:57Z</time>
      </trkpt>
      <trkpt lat="45.93526" lon="4.41424">
        <ele>667.2</ele>
        <time>2022-06-26T09:03:58Z</time>
      </trkpt>
      <trkpt lat="45.93528" lon="4.41421">
        <ele>667.4</ele>
        <time>2022-06-26T09:03:59Z</time>
      </trkpt>
      <trkpt lat="45.93531" lon="4.41418">
        <ele>667.4</ele>
        <time>2022-06-26T09:04:00Z</time>
      </trkpt>
      <trkpt lat="45.93533" lon="4.41416">
        <ele>667.4</ele>
        <time>2022-06-26T09:04:01Z</time>
      </trkpt>
      <trkpt lat="45.93537" lon="4.41414">
        <ele>667.6</ele>
        <time>2022-06-26T09:04:02Z</time>
      </trkpt>
      <trkpt lat="45.9354" lon="4.41413">
        <ele>667.6</ele>
        <time>2022-06-26T09:04:03Z</time>
      </trkpt>
      <trkpt lat="45.93544" lon="4.41412">
        <ele>667.6</ele>
        <time>2022-06-26T09:04:04Z</time>
      </trkpt>
      <trkpt lat="45.93548" lon="4.41411">
        <ele>667.8</ele>
        <time>2022-06-26T09:04:05Z</time>
      </trkpt>
      <trkpt lat="45.93551" lon="4.41411">
        <ele>667.8</ele>
        <time>2022-06-26T09:04:06Z</time>
      </trkpt>
      <trkpt lat="45.93555" lon="4.41411">
        <ele>668.2</ele>
        <time>2022-06-26T09:04:07Z</time>
      </trkpt>
      <trkpt lat="45.93559" lon="4.41411">
        <ele>668.2</ele>
        <time>2022-06-26T09:04:08Z</time>
      </trkpt>
      <trkpt lat="45.93562" lon="4.41411">
        <ele>668.4</ele>
        <time>2022-06-26T09:04:09Z</time>
      </trkpt>
      <trkpt lat="45.93566" lon="4.41412">
        <ele>668.4</ele>
        <time>2022-06-26T09:04:10Z</time>
      </trkpt>
      <trkpt lat="45.9357" lon="4.41412">
        <ele>668.4</ele>
        <time>2022-06-26T09:04:11Z</time>
      </trkpt>
      <trkpt lat="45.93573" lon="4.41412">
        <ele>668.4</ele>
        <time>2022-06-26T09:04:12Z</time>
      </trkpt>
      <trkpt lat="45.93577" lon="4.41413">
        <ele>668.6</ele>
        <time>2022-06-26T09:04:13Z</time>
      </trkpt>
      <trkpt lat="45.93581" lon="4.41413">
        <ele>668.6</ele>
        <time>2022-06-26T09:04:14Z</time>
      </trkpt>
      <trkpt lat="45.93584" lon="4.41413">
        <ele>668.6</ele>
        <time>2022-06-26T09:04:15Z</time>
      </trkpt>
      <trkpt lat="45.93588" lon="4.41413">
        <ele>668.6</ele>
        <time>2022-06-26T09:04:16Z</time>
      </trkpt>
      <trkpt lat="45.93591" lon="4.41413">
        <ele>668.8</ele>
        <time>2022-06-26T09:04:17Z</time>
      </trkpt>
      <trkpt lat="45.93595" lon="4.41413">
        <ele>668.8</ele>
        <time>2022-06-26T09:04:18Z</time>
      </trkpt>
      <trkpt lat="45.93599" lon="4.41413">
        <ele>669</ele>
        <time>2022-06-26T09:04:19Z</time>
      </trkpt>
      <trkpt lat="45.93602" lon="4.41414">
        <ele>669</ele>
        <time>2022-06-26T09:04:20Z</time>
      </trkpt>
      <trkpt lat="45.93606" lon="4.41414">
        <ele>669.4</ele>
        <time>2022-06-26T09:04:21Z</time>
      </trkpt>
      <trkpt lat="45.9361" lon="4.41415">
        <ele>669.4</ele>
        <time>2022-06-26T09:04:22Z</time>
      </trkpt>
      <trkpt lat="45.93613" lon="4.41415">
        <ele>669.4</ele>
        <time>2022-06-26T09:04:23Z</time>
      </trkpt>
      <trkpt lat="45.93617" lon="4.41415">
        <ele>669.4</ele>
        <time>2022-06-26T09:04:24Z</time>
      </trkpt>
      <trkpt lat="45.9362" lon="4.41415">
        <ele>669.6</ele>
        <time>2022-06-26T09:04:25Z</time>
      </trkpt>
      <trkpt lat="45.93624" lon="4.41415">
        <ele>669.6</ele>
        <time>2022-06-26T09:04:26Z</time>
      </trkpt>
      <trkpt lat="45.93627" lon="4.41416">
        <ele>669.6</ele>
        <time>2022-06-26T09:04:27Z</time>
      </trkpt>
      <trkpt lat="45.9363" lon="4.41416">
        <ele>670</ele>
        <time>2022-06-26T09:04:28Z</time>
      </trkpt>
      <trkpt lat="45.93634" lon="4.41417">
        <ele>670</ele>
        <time>2022-06-26T09:04:29Z</time>
      </trkpt>
      <trkpt lat="45.93637" lon="4.41417">
        <ele>670</ele>
        <time>2022-06-26T09:04:30Z</time>
      </trkpt>
      <trkpt lat="45.93641" lon="4.41418">
        <ele>670</ele>
        <time>2022-06-26T09:04:31Z</time>
      </trkpt>
      <trkpt lat="45.93644" lon="4.41419">
        <ele>670.2</ele>
        <time>2022-06-26T09:04:32Z</time>
      </trkpt>
      <trkpt lat="45.93648" lon="4.41421">
        <ele>670.2</ele>
        <time>2022-06-26T09:04:33Z</time>
      </trkpt>
      <trkpt lat="45.93651" lon="4.41422">
        <ele>670.2</ele>
        <time>2022-06-26T09:04:34Z</time>
      </trkpt>
      <trkpt lat="45.93654" lon="4.41424">
        <ele>670.4</ele>
        <time>2022-06-26T09:04:35Z</time>
      </trkpt>
      <trkpt lat="45.93657" lon="4.41426">
        <ele>670.4</ele>
        <time>2022-06-26T09:04:36Z</time>
      </trkpt>
      <trkpt lat="45.9366" lon="4.41429">
        <ele>670.8</ele>
        <time>2022-06-26T09:04:37Z</time>
      </trkpt>
      <trkpt lat="45.93663" lon="4.41431">
        <ele>670.8</ele>
        <time>2022-06-26T09:04:38Z</time>
      </trkpt>
      <trkpt lat="45.93666" lon="4.41434">
        <ele>671</ele>
        <time>2022-06-26T09:04:39Z</time>
      </trkpt>
      <trkpt lat="45.93669" lon="4.41436">
        <ele>671</ele>
        <time>2022-06-26T09:04:40Z</time>
      </trkpt>
      <trkpt lat="45.93672" lon="4.41438">
        <ele>671</ele>
        <time>2022-06-26T09:04:41Z</time>
      </trkpt>
      <trkpt lat="45.93675" lon="4.4144">
        <ele>671</ele>
        <time>2022-06-26T09:04:42Z</time>
      </trkpt>
      <trkpt lat="45.93678" lon="4.41442">
        <ele>671.2</ele>
        <time>2022-06-26T09:04:43Z</time>
      </trkpt>
      <trkpt lat="45.93682" lon="4.41444">
        <ele>671.2</ele>
        <time>2022-06-26T09:04:44Z</time>
      </trkpt>
      <trkpt lat="45.93685" lon="4.41445">
        <ele>671.2</ele>
        <time>2022-06-26T09:04:45Z</time>
      </trkpt>
      <trkpt lat="45.93688" lon="4.41446">
        <ele>671.2</ele>
        <time>2022-06-26T09:04:46Z</time>
      </trkpt>
      <trkpt lat="45.93692" lon="4.41447">
        <ele>671.6</ele>
        <time>2022-06-26T09:04:47Z</time>
      </trkpt>
      <trkpt lat="45.93695" lon="4.41447">
        <ele>671.6</ele>
        <time>2022-06-26T09:04:48Z</time>
      </trkpt>
      <trkpt lat="45.93698" lon="4.41447">
        <ele>671.8</ele>
        <time>2022-06-26T09:04:49Z</time>
      </trkpt>
      <trkpt lat="45.93701" lon="4.41446">
        <ele>671.8</ele>
        <time>2022-06-26T09:04:50Z</time>
      </trkpt>
      <trkpt lat="45.93705" lon="4.41444">
        <ele>671.8</ele>
        <time>2022-06-26T09:04:51Z</time>
      </trkpt>
      <trkpt lat="45.93708" lon="4.41442">
        <ele>671.8</ele>
        <time>2022-06-26T09:04:52Z</time>
      </trkpt>
      <trkpt lat="45.93711" lon="4.41439">
        <ele>672</ele>
        <time>2022-06-26T09:04:53Z</time>
      </trkpt>
      <trkpt lat="45.93714" lon="4.41437">
        <ele>672</ele>
        <time>2022-06-26T09:04:54Z</time>
      </trkpt>
      <trkpt lat="45.93717" lon="4.41434">
        <ele>672</ele>
        <time>2022-06-26T09:04:55Z</time>
      </trkpt>
      <trkpt lat="45.93719" lon="4.41431">
        <ele>672.2</ele>
        <time>2022-06-26T09:04:56Z</time>
      </trkpt>
      <trkpt lat="45.93722" lon="4.41428">
        <ele>672.2</ele>
        <time>2022-06-26T09:04:57Z</time>
      </trkpt>
      <trkpt lat="45.93725" lon="4.41425">
        <ele>672.2</ele>
        <time>2022-06-26T09:04:58Z</time>
      </trkpt>
      <trkpt lat="45.93727" lon="4.41422">
        <ele>672.6</ele>
        <time>2022-06-26T09:04:59Z</time>
      </trkpt>
      <trkpt lat="45.9373" lon="4.41419">
        <ele>672.6</ele>
        <time>2022-06-26T09:05:00Z</time>
      </trkpt>
      <trkpt lat="45.93733" lon="4.41416">
        <ele>672.6</ele>
        <time>2022-06-26T09:05:01Z</time>
      </trkpt>
      <trkpt lat="45.93735" lon="4.41413">
        <ele>672.6</ele>
        <time>2022-06-26T09:05:02Z</time>
      </trkpt>
      <trkpt lat="45.93738" lon="4.41409">
        <ele>672.8</ele>
        <time>2022-06-26T09:05:03Z</time>
      </trkpt>
      <trkpt lat="45.93741" lon="4.41406">
        <ele>672.8</ele>
        <time>2022-06-26T09:05:04Z</time>
      </trkpt>
      <trkpt lat="45.93744" lon="4.41403">
        <ele>673</ele>
        <time>2022-06-26T09:05:05Z</time>
      </trkpt>
      <trkpt lat="45.93746" lon="4.414">
        <ele>673</ele>
        <time>2022-06-26T09:05:06Z</time>
      </trkpt>
      <trkpt lat="45.93749" lon="4.41396">
        <ele>673.4</ele>
        <time>2022-06-26T09:05:07Z</time>
      </trkpt>
      <trkpt lat="45.93752" lon="4.41393">
        <ele>673.4</ele>
        <time>2022-06-26T09:05:08Z</time>
      </trkpt>
      <trkpt lat="45.93755" lon="4.4139">
        <ele>673.6</ele>
        <time>2022-06-26T09:05:09Z</time>
      </trkpt>
      <trkpt lat="45.93757" lon="4.41387">
        <ele>673.6</ele>
        <time>2022-06-26T09:05:10Z</time>
      </trkpt>
      <trkpt lat="45.9376" lon="4.41384">
        <ele>673.6</ele>
        <time>2022-06-26T09:05:11Z</time>
      </trkpt>
      <trkpt lat="45.93763" lon="4.4138">
        <ele>673.8</ele>
        <time>2022-06-26T09:05:12Z</time>
      </trkpt>
      <trkpt lat="45.93765" lon="4.41377">
        <ele>673.8</ele>
        <time>2022-06-26T09:05:13Z</time>
      </trkpt>
      <trkpt lat="45.93767" lon="4.41374">
        <ele>674</ele>
        <time>2022-06-26T09:05:14Z</time>
      </trkpt>
      <trkpt lat="45.9377" lon="4.4137">
        <ele>674</ele>
        <time>2022-06-26T09:05:15Z</time>
      </trkpt>
      <trkpt lat="45.93772" lon="4.41366">
        <ele>674</ele>
        <time>2022-06-26T09:05:16Z</time>
      </trkpt>
      <trkpt lat="45.93774" lon="4.41363">
        <ele>674.2</ele>
        <time>2022-06-26T09:05:17Z</time>
      </trkpt>
      <trkpt lat="45.93777" lon="4.41359">
        <ele>674.2</ele>
        <time>2022-06-26T09:05:18Z</time>
      </trkpt>
      <trkpt lat="45.93779" lon="4.41355">
        <ele>674.2</ele>
        <time>2022-06-26T09:05:19Z</time>
      </trkpt>
      <trkpt lat="45.93781" lon="4.41351">
        <ele>674.2</ele>
        <time>2022-06-26T09:05:20Z</time>
      </trkpt>
      <trkpt lat="45.93782" lon="4.41346">
        <ele>674.6</ele>
        <time>2022-06-26T09:05:21Z</time>
      </trkpt>
      <trkpt lat="45.93784" lon="4.41341">
        <ele>674.6</ele>
        <time>2022-06-26T09:05:22Z</time>
      </trkpt>
      <trkpt lat="45.93785" lon="4.41336">
        <ele>674.6</ele>
        <time>2022-06-26T09:05:23Z</time>
      </trkpt>
      <trkpt lat="45.93785" lon="4.41331">
        <ele>674.8</ele>
        <time>2022-06-26T09:05:24Z</time>
      </trkpt>
      <trkpt lat="45.93786" lon="4.41325">
        <ele>674.8</ele>
        <time>2022-06-26T09:05:25Z</time>
      </trkpt>
      <trkpt lat="45.93787" lon="4.4132">
        <ele>674.8</ele>
        <time>2022-06-26T09:05:26Z</time>
      </trkpt>
      <trkpt lat="45.93787" lon="4.41315">
        <ele>675</ele>
        <time>2022-06-26T09:05:27Z</time>
      </trkpt>
      <trkpt lat="45.93787" lon="4.4131">
        <ele>675</ele>
        <time>2022-06-26T09:05:28Z</time>
      </trkpt>
      <trkpt lat="45.93788" lon="4.41306">
        <ele>675.2</ele>
        <time>2022-06-26T09:05:29Z</time>
      </trkpt>
      <trkpt lat="45.93789" lon="4.41301">
        <ele>675.2</ele>
        <time>2022-06-26T09:05:30Z</time>
      </trkpt>
      <trkpt lat="45.9379" lon="4.41296">
        <ele>675.6</ele>
        <time>2022-06-26T09:05:31Z</time>
      </trkpt>
      <trkpt lat="45.9379" lon="4.41291">
        <ele>675.6</ele>
        <time>2022-06-26T09:05:32Z</time>
      </trkpt>
      <trkpt lat="45.93791" lon="4.41286">
        <ele>675.6</ele>
        <time>2022-06-26T09:05:33Z</time>
      </trkpt>
      <trkpt lat="45.93791" lon="4.4128">
        <ele>675.8</ele>
        <time>2022-06-26T09:05:34Z</time>
      </trkpt>
      <trkpt lat="45.93791" lon="4.41275">
        <ele>675.8</ele>
        <time>2022-06-26T09:05:35Z</time>
      </trkpt>
      <trkpt lat="45.93792" lon="4.4127">
        <ele>676</ele>
        <time>2022-06-26T09:05:36Z</time>
      </trkpt>
      <trkpt lat="45.93793" lon="4.41264">
        <ele>676</ele>
        <time>2022-06-26T09:05:37Z</time>
      </trkpt>
      <trkpt lat="45.93794" lon="4.41259">
        <ele>676.4</ele>
        <time>2022-06-26T09:05:38Z</time>
      </trkpt>
      <trkpt lat="45.93794" lon="4.41254">
        <ele>676.4</ele>
        <time>2022-06-26T09:05:39Z</time>
      </trkpt>
      <trkpt lat="45.93795" lon="4.41248">
        <ele>676.6</ele>
        <time>2022-06-26T09:05:40Z</time>
      </trkpt>
      <trkpt lat="45.93796" lon="4.41243">
        <ele>676.6</ele>
        <time>2022-06-26T09:05:41Z</time>
      </trkpt>
      <trkpt lat="45.93796" lon="4.41238">
        <ele>676.8</ele>
        <time>2022-06-26T09:05:42Z</time>
      </trkpt>
      <trkpt lat="45.93797" lon="4.41233">
        <ele>676.8</ele>
        <time>2022-06-26T09:05:43Z</time>
      </trkpt>
      <trkpt lat="45.93798" lon="4.41228">
        <ele>677</ele>
        <time>2022-06-26T09:05:44Z</time>
      </trkpt>
      <trkpt lat="45.93799" lon="4.41223">
        <ele>677</ele>
        <time>2022-06-26T09:05:45Z</time>
      </trkpt>
      <trkpt lat="45.938" lon="4.41218">
        <ele>677.2</ele>
        <time>2022-06-26T09:05:46Z</time>
      </trkpt>
      <trkpt lat="45.938" lon="4.41213">
        <ele>677.2</ele>
        <time>2022-06-26T09:05:47Z</time>
      </trkpt>
      <trkpt lat="45.938" lon="4.41208">
        <ele>677.2</ele>
        <time>2022-06-26T09:05:48Z</time>
      </trkpt>
      <trkpt lat="45.93801" lon="4.41203">
        <ele>677.2</ele>
        <time>2022-06-26T09:05:49Z</time>
      </trkpt>
      <trkpt lat="45.93801" lon="4.41198">
        <ele>677.2</ele>
        <time>2022-06-26T09:05:50Z</time>
      </trkpt>
      <trkpt lat="45.93801" lon="4.41193">
        <ele>677.4</ele>
        <time>2022-06-26T09:05:51Z</time>
      </trkpt>
      <trkpt lat="45.93801" lon="4.41188">
        <ele>677.4</ele>
        <time>2022-06-26T09:05:52Z</time>
      </trkpt>
      <trkpt lat="45.93802" lon="4.41183">
        <ele>677.4</ele>
        <time>2022-06-26T09:05:53Z</time>
      </trkpt>
      <trkpt lat="45.93802" lon="4.41178">
        <ele>677.8</ele>
        <time>2022-06-26T09:05:54Z</time>
      </trkpt>
      <trkpt lat="45.93802" lon="4.41173">
        <ele>677.8</ele>
        <time>2022-06-26T09:05:55Z</time>
      </trkpt>
      <trkpt lat="45.93803" lon="4.41168">
        <ele>678</ele>
        <time>2022-06-26T09:05:56Z</time>
      </trkpt>
      <trkpt lat="45.93803" lon="4.41163">
        <ele>678</ele>
        <time>2022-06-26T09:05:57Z</time>
      </trkpt>
      <trkpt lat="45.93804" lon="4.41158">
        <ele>678.2</ele>
        <time>2022-06-26T09:05:58Z</time>
      </trkpt>
      <trkpt lat="45.93804" lon="4.41152">
        <ele>678.2</ele>
        <time>2022-06-26T09:05:59Z</time>
      </trkpt>
      <trkpt lat="45.93804" lon="4.41148">
        <ele>678.2</ele>
        <time>2022-06-26T09:06:00Z</time>
      </trkpt>
      <trkpt lat="45.93804" lon="4.41143">
        <ele>678.2</ele>
        <time>2022-06-26T09:06:01Z</time>
      </trkpt>
      <trkpt lat="45.93804" lon="4.41138">
        <ele>678.4</ele>
        <time>2022-06-26T09:06:02Z</time>
      </trkpt>
      <trkpt lat="45.93804" lon="4.41134">
        <ele>678.4</ele>
        <time>2022-06-26T09:06:03Z</time>
      </trkpt>
      <trkpt lat="45.93803" lon="4.41129">
        <ele>678.4</ele>
        <time>2022-06-26T09:06:04Z</time>
      </trkpt>
      <trkpt lat="45.93803" lon="4.41125">
        <ele>678.6</ele>
        <time>2022-06-26T09:06:05Z</time>
      </trkpt>
      <trkpt lat="45.93801" lon="4.4112">
        <ele>678.6</ele>
        <time>2022-06-26T09:06:06Z</time>
      </trkpt>
      <trkpt lat="45.93799" lon="4.41115">
        <ele>678.6</ele>
        <time>2022-06-26T09:06:07Z</time>
      </trkpt>
      <trkpt lat="45.93797" lon="4.4111">
        <ele>679</ele>
        <time>2022-06-26T09:06:08Z</time>
      </trkpt>
      <trkpt lat="45.93795" lon="4.41105">
        <ele>679</ele>
        <time>2022-06-26T09:06:09Z</time>
      </trkpt>
      <trkpt lat="45.93792" lon="4.411">
        <ele>679</ele>
        <time>2022-06-26T09:06:10Z</time>
      </trkpt>
      <trkpt lat="45.93789" lon="4.41096">
        <ele>679.2</ele>
        <time>2022-06-26T09:06:11Z</time>
      </trkpt>
      <trkpt lat="45.93786" lon="4.41092">
        <ele>679.2</ele>
        <time>2022-06-26T09:06:12Z</time>
      </trkpt>
      <trkpt lat="45.93782" lon="4.41089">
        <ele>679.2</ele>
        <time>2022-06-26T09:06:13Z</time>
      </trkpt>
      <trkpt lat="45.93779" lon="4.41088">
        <ele>679.4</ele>
        <time>2022-06-26T09:06:14Z</time>
      </trkpt>
      <trkpt lat="45.93776" lon="4.41085">
        <ele>679.4</ele>
        <time>2022-06-26T09:06:15Z</time>
      </trkpt>
      <trkpt lat="45.93773" lon="4.41084">
        <ele>679.4</ele>
        <time>2022-06-26T09:06:16Z</time>
      </trkpt>
      <trkpt lat="45.9377" lon="4.41082">
        <ele>679.8</ele>
        <time>2022-06-26T09:06:17Z</time>
      </trkpt>
      <trkpt lat="45.93767" lon="4.41081">
        <ele>679.8</ele>
        <time>2022-06-26T09:06:18Z</time>
      </trkpt>
      <trkpt lat="45.93763" lon="4.41079">
        <ele>679.8</ele>
        <time>2022-06-26T09:06:19Z</time>
      </trkpt>
      <trkpt lat="45.9376" lon="4.41078">
        <ele>680</ele>
        <time>2022-06-26T09:06:20Z</time>
      </trkpt>
      <trkpt lat="45.93755" lon="4.41076">
        <ele>680</ele>
        <time>2022-06-26T09:06:21Z</time>
      </trkpt>
      <trkpt lat="45.93751" lon="4.41074">
        <ele>680</ele>
        <time>2022-06-26T09:06:22Z</time>
      </trkpt>
      <trkpt lat="45.93747" lon="4.41072">
        <ele>680.4</ele>
        <time>2022-06-26T09:06:23Z</time>
      </trkpt>
      <trkpt lat="45.93743" lon="4.4107">
        <ele>680.4</ele>
        <time>2022-06-26T09:06:24Z</time>
      </trkpt>
      <trkpt lat="45.93739" lon="4.41067">
        <ele>680.4</ele>
        <time>2022-06-26T09:06:25Z</time>
      </trkpt>
      <trkpt lat="45.93735" lon="4.41065">
        <ele>680.8</ele>
        <time>2022-06-26T09:06:26Z</time>
      </trkpt>
      <trkpt lat="45.93732" lon="4.41063">
        <ele>680.8</ele>
        <time>2022-06-26T09:06:27Z</time>
      </trkpt>
      <trkpt lat="45.93728" lon="4.4106">
        <ele>681</ele>
        <time>2022-06-26T09:06:28Z</time>
      </trkpt>
      <trkpt lat="45.93725" lon="4.41057">
        <ele>681</ele>
        <time>2022-06-26T09:06:29Z</time>
      </trkpt>
      <trkpt lat="45.93722" lon="4.41055">
        <ele>681</ele>
        <time>2022-06-26T09:06:30Z</time>
      </trkpt>
      <trkpt lat="45.93718" lon="4.41051">
        <ele>681.2</ele>
        <time>2022-06-26T09:06:31Z</time>
      </trkpt>
      <trkpt lat="45.93715" lon="4.41048">
        <ele>681.2</ele>
        <time>2022-06-26T09:06:32Z</time>
      </trkpt>
      <trkpt lat="45.93712" lon="4.41044">
        <ele>681.2</ele>
        <time>2022-06-26T09:06:33Z</time>
      </trkpt>
      <trkpt lat="45.93709" lon="4.4104">
        <ele>681.6</ele>
        <time>2022-06-26T09:06:34Z</time>
      </trkpt>
      <trkpt lat="45.93707" lon="4.41037">
        <ele>681.6</ele>
        <time>2022-06-26T09:06:35Z</time>
      </trkpt>
      <trkpt lat="45.93704" lon="4.41033">
        <ele>681.8</ele>
        <time>2022-06-26T09:06:36Z</time>
      </trkpt>
      <trkpt lat="45.93701" lon="4.4103">
        <ele>681.8</ele>
        <time>2022-06-26T09:06:37Z</time>
      </trkpt>
      <trkpt lat="45.93697" lon="4.41027">
        <ele>681.8</ele>
        <time>2022-06-26T09:06:38Z</time>
      </trkpt>
      <trkpt lat="45.93694" lon="4.41024">
        <ele>682</ele>
        <time>2022-06-26T09:06:39Z</time>
      </trkpt>
      <trkpt lat="45.93691" lon="4.41021">
        <ele>682</ele>
        <time>2022-06-26T09:06:40Z</time>
      </trkpt>
      <trkpt lat="45.93688" lon="4.41017">
        <ele>682.2</ele>
        <time>2022-06-26T09:06:41Z</time>
      </trkpt>
      <trkpt lat="45.93685" lon="4.41014">
        <ele>682.2</ele>
        <time>2022-06-26T09:06:42Z</time>
      </trkpt>
      <trkpt lat="45.93683" lon="4.4101">
        <ele>682.4</ele>
        <time>2022-06-26T09:06:43Z</time>
      </trkpt>
      <trkpt lat="45.9368" lon="4.41007">
        <ele>682.4</ele>
        <time>2022-06-26T09:06:44Z</time>
      </trkpt>
      <trkpt lat="45.93677" lon="4.41003">
        <ele>682.4</ele>
        <time>2022-06-26T09:06:45Z</time>
      </trkpt>
      <trkpt lat="45.93674" lon="4.41">
        <ele>682.6</ele>
        <time>2022-06-26T09:06:46Z</time>
      </trkpt>
      <trkpt lat="45.93671" lon="4.40996">
        <ele>682.6</ele>
        <time>2022-06-26T09:06:47Z</time>
      </trkpt>
      <trkpt lat="45.93669" lon="4.40993">
        <ele>683</ele>
        <time>2022-06-26T09:06:48Z</time>
      </trkpt>
      <trkpt lat="45.93666" lon="4.40989">
        <ele>683</ele>
        <time>2022-06-26T09:06:49Z</time>
      </trkpt>
      <trkpt lat="45.93664" lon="4.40986">
        <ele>683</ele>
        <time>2022-06-26T09:06:50Z</time>
      </trkpt>
      <trkpt lat="45.93662" lon="4.40982">
        <ele>683</ele>
        <time>2022-06-26T09:06:51Z</time>
      </trkpt>
      <trkpt lat="45.9366" lon="4.40979">
        <ele>683.2</ele>
        <time>2022-06-26T09:06:52Z</time>
      </trkpt>
      <trkpt lat="45.93657" lon="4.40975">
        <ele>683.2</ele>
        <time>2022-06-26T09:06:53Z</time>
      </trkpt>
      <trkpt lat="45.93654" lon="4.40972">
        <ele>683.2</ele>
        <time>2022-06-26T09:06:54Z</time>
      </trkpt>
      <trkpt lat="45.93652" lon="4.40969">
        <ele>683.2</ele>
        <time>2022-06-26T09:06:56Z</time>
      </trkpt>
      <trkpt lat="45.93649" lon="4.40966">
        <ele>683.4</ele>
        <time>2022-06-26T09:06:57Z</time>
      </trkpt>
      <trkpt lat="45.93647" lon="4.40963">
        <ele>683.4</ele>
        <time>2022-06-26T09:06:58Z</time>
      </trkpt>
      <trkpt lat="45.93644" lon="4.40959">
        <ele>683.6</ele>
        <time>2022-06-26T09:06:59Z</time>
      </trkpt>
      <trkpt lat="45.93642" lon="4.40955">
        <ele>683.6</ele>
        <time>2022-06-26T09:07:00Z</time>
      </trkpt>
      <trkpt lat="45.9364" lon="4.40951">
        <ele>684</ele>
        <time>2022-06-26T09:07:01Z</time>
      </trkpt>
      <trkpt lat="45.93638" lon="4.40947">
        <ele>684</ele>
        <time>2022-06-26T09:07:02Z</time>
      </trkpt>
      <trkpt lat="45.93636" lon="4.40943">
        <ele>684.2</ele>
        <time>2022-06-26T09:07:03Z</time>
      </trkpt>
      <trkpt lat="45.93634" lon="4.40939">
        <ele>684.2</ele>
        <time>2022-06-26T09:07:04Z</time>
      </trkpt>
      <trkpt lat="45.93632" lon="4.40935">
        <ele>684.4</ele>
        <time>2022-06-26T09:07:05Z</time>
      </trkpt>
      <trkpt lat="45.93629" lon="4.40931">
        <ele>684.4</ele>
        <time>2022-06-26T09:07:06Z</time>
      </trkpt>
      <trkpt lat="45.93627" lon="4.40927">
        <ele>684.4</ele>
        <time>2022-06-26T09:07:07Z</time>
      </trkpt>
      <trkpt lat="45.93625" lon="4.40922">
        <ele>684.6</ele>
        <time>2022-06-26T09:07:08Z</time>
      </trkpt>
      <trkpt lat="45.93625" lon="4.40917">
        <ele>684.6</ele>
        <time>2022-06-26T09:07:09Z</time>
      </trkpt>
      <trkpt lat="45.93625" lon="4.40912">
        <ele>684.6</ele>
        <time>2022-06-26T09:07:10Z</time>
      </trkpt>
      <trkpt lat="45.93626" lon="4.40907">
        <ele>684.8</ele>
        <time>2022-06-26T09:07:11Z</time>
      </trkpt>
      <trkpt lat="45.93626" lon="4.40901">
        <ele>684.8</ele>
        <time>2022-06-26T09:07:12Z</time>
      </trkpt>
      <trkpt lat="45.93628" lon="4.40895">
        <ele>684.8</ele>
        <time>2022-06-26T09:07:13Z</time>
      </trkpt>
      <trkpt lat="45.9363" lon="4.4089">
        <ele>684.8</ele>
        <time>2022-06-26T09:07:14Z</time>
      </trkpt>
      <trkpt lat="45.93632" lon="4.40886">
        <ele>684.8</ele>
        <time>2022-06-26T09:07:15Z</time>
      </trkpt>
      <trkpt lat="45.93634" lon="4.40881">
        <ele>685</ele>
        <time>2022-06-26T09:07:16Z</time>
      </trkpt>
      <trkpt lat="45.93636" lon="4.40877">
        <ele>685</ele>
        <time>2022-06-26T09:07:17Z</time>
      </trkpt>
      <trkpt lat="45.93639" lon="4.40873">
        <ele>685</ele>
        <time>2022-06-26T09:07:18Z</time>
      </trkpt>
      <trkpt lat="45.93642" lon="4.40869">
        <ele>685</ele>
        <time>2022-06-26T09:07:19Z</time>
      </trkpt>
      <trkpt lat="45.93644" lon="4.40865">
        <ele>685.4</ele>
        <time>2022-06-26T09:07:20Z</time>
      </trkpt>
      <trkpt lat="45.93646" lon="4.40861">
        <ele>685.6</ele>
        <time>2022-06-26T09:07:21Z</time>
      </trkpt>
      <trkpt lat="45.93649" lon="4.40856">
        <ele>685.6</ele>
        <time>2022-06-26T09:07:22Z</time>
      </trkpt>
      <trkpt lat="45.93651" lon="4.40852">
        <ele>686</ele>
        <time>2022-06-26T09:07:23Z</time>
      </trkpt>
      <trkpt lat="45.93653" lon="4.40848">
        <ele>686</ele>
        <time>2022-06-26T09:07:24Z</time>
      </trkpt>
      <trkpt lat="45.93655" lon="4.40844">
        <ele>686</ele>
        <time>2022-06-26T09:07:25Z</time>
      </trkpt>
      <trkpt lat="45.93657" lon="4.4084">
        <ele>686</ele>
        <time>2022-06-26T09:07:26Z</time>
      </trkpt>
      <trkpt lat="45.9366" lon="4.40837">
        <ele>686.2</ele>
        <time>2022-06-26T09:07:27Z</time>
      </trkpt>
      <trkpt lat="45.93662" lon="4.40833">
        <ele>686.2</ele>
        <time>2022-06-26T09:07:28Z</time>
      </trkpt>
      <trkpt lat="45.93665" lon="4.40829">
        <ele>686.2</ele>
        <time>2022-06-26T09:07:29Z</time>
      </trkpt>
      <trkpt lat="45.93668" lon="4.40825">
        <ele>686.4</ele>
        <time>2022-06-26T09:07:30Z</time>
      </trkpt>
      <trkpt lat="45.9367" lon="4.40822">
        <ele>686.4</ele>
        <time>2022-06-26T09:07:31Z</time>
      </trkpt>
      <trkpt lat="45.93673" lon="4.40818">
        <ele>686.4</ele>
        <time>2022-06-26T09:07:32Z</time>
      </trkpt>
      <trkpt lat="45.93675" lon="4.40815">
        <ele>686.8</ele>
        <time>2022-06-26T09:07:33Z</time>
      </trkpt>
      <trkpt lat="45.93678" lon="4.40811">
        <ele>686.8</ele>
        <time>2022-06-26T09:07:34Z</time>
      </trkpt>
      <trkpt lat="45.9368" lon="4.40808">
        <ele>687</ele>
        <time>2022-06-26T09:07:35Z</time>
      </trkpt>
      <trkpt lat="45.93683" lon="4.40804">
        <ele>687</ele>
        <time>2022-06-26T09:07:36Z</time>
      </trkpt>
      <trkpt lat="45.93686" lon="4.408">
        <ele>687</ele>
        <time>2022-06-26T09:07:37Z</time>
      </trkpt>
      <trkpt lat="45.93688" lon="4.40796">
        <ele>687.2</ele>
        <time>2022-06-26T09:07:38Z</time>
      </trkpt>
      <trkpt lat="45.93691" lon="4.40792">
        <ele>687.2</ele>
        <time>2022-06-26T09:07:39Z</time>
      </trkpt>
      <trkpt lat="45.93694" lon="4.40789">
        <ele>687.6</ele>
        <time>2022-06-26T09:07:40Z</time>
      </trkpt>
      <trkpt lat="45.93696" lon="4.40785">
        <ele>687.6</ele>
        <time>2022-06-26T09:07:41Z</time>
      </trkpt>
      <trkpt lat="45.93699" lon="4.40781">
        <ele>687.6</ele>
        <time>2022-06-26T09:07:42Z</time>
      </trkpt>
      <trkpt lat="45.93701" lon="4.40777">
        <ele>687.8</ele>
        <time>2022-06-26T09:07:43Z</time>
      </trkpt>
      <trkpt lat="45.93704" lon="4.40773">
        <ele>687.8</ele>
        <time>2022-06-26T09:07:44Z</time>
      </trkpt>
      <trkpt lat="45.93707" lon="4.40769">
        <ele>687.8</ele>
        <time>2022-06-26T09:07:45Z</time>
      </trkpt>
      <trkpt lat="45.93709" lon="4.40765">
        <ele>688</ele>
        <time>2022-06-26T09:07:46Z</time>
      </trkpt>
      <trkpt lat="45.93712" lon="4.4076">
        <ele>688</ele>
        <time>2022-06-26T09:07:47Z</time>
      </trkpt>
      <trkpt lat="45.93714" lon="4.40757">
        <ele>688</ele>
        <time>2022-06-26T09:07:48Z</time>
      </trkpt>
      <trkpt lat="45.93716" lon="4.40753">
        <ele>688.2</ele>
        <time>2022-06-26T09:07:49Z</time>
      </trkpt>
      <trkpt lat="45.93719" lon="4.40749">
        <ele>688.2</ele>
        <time>2022-06-26T09:07:50Z</time>
      </trkpt>
      <trkpt lat="45.93722" lon="4.40745">
        <ele>688.4</ele>
        <time>2022-06-26T09:07:51Z</time>
      </trkpt>
      <trkpt lat="45.93724" lon="4.40741">
        <ele>688.4</ele>
        <time>2022-06-26T09:07:52Z</time>
      </trkpt>
      <trkpt lat="45.93726" lon="4.40737">
        <ele>688.8</ele>
        <time>2022-06-26T09:07:53Z</time>
      </trkpt>
      <trkpt lat="45.93729" lon="4.40733">
        <ele>688.8</ele>
        <time>2022-06-26T09:07:54Z</time>
      </trkpt>
      <trkpt lat="45.93731" lon="4.40729">
        <ele>688.8</ele>
        <time>2022-06-26T09:07:55Z</time>
      </trkpt>
      <trkpt lat="45.93733" lon="4.40724">
        <ele>688.8</ele>
        <time>2022-06-26T09:07:56Z</time>
      </trkpt>
      <trkpt lat="45.93735" lon="4.4072">
        <ele>689</ele>
        <time>2022-06-26T09:07:57Z</time>
      </trkpt>
      <trkpt lat="45.93737" lon="4.40715">
        <ele>689</ele>
        <time>2022-06-26T09:07:58Z</time>
      </trkpt>
      <trkpt lat="45.93739" lon="4.40711">
        <ele>689.2</ele>
        <time>2022-06-26T09:07:59Z</time>
      </trkpt>
      <trkpt lat="45.9374" lon="4.40706">
        <ele>689.2</ele>
        <time>2022-06-26T09:08:00Z</time>
      </trkpt>
      <trkpt lat="45.93742" lon="4.40701">
        <ele>689.2</ele>
        <time>2022-06-26T09:08:01Z</time>
      </trkpt>
      <trkpt lat="45.93743" lon="4.40695">
        <ele>689.2</ele>
        <time>2022-06-26T09:08:02Z</time>
      </trkpt>
      <trkpt lat="45.93744" lon="4.4069">
        <ele>689.6</ele>
        <time>2022-06-26T09:08:03Z</time>
      </trkpt>
      <trkpt lat="45.93745" lon="4.40685">
        <ele>689.6</ele>
        <time>2022-06-26T09:08:04Z</time>
      </trkpt>
      <trkpt lat="45.93746" lon="4.4068">
        <ele>689.6</ele>
        <time>2022-06-26T09:08:05Z</time>
      </trkpt>
      <trkpt lat="45.93747" lon="4.40675">
        <ele>689.6</ele>
        <time>2022-06-26T09:08:06Z</time>
      </trkpt>
      <trkpt lat="45.93748" lon="4.4067">
        <ele>689.6</ele>
        <time>2022-06-26T09:08:07Z</time>
      </trkpt>
      <trkpt lat="45.93749" lon="4.40665">
        <ele>689.8</ele>
        <time>2022-06-26T09:08:08Z</time>
      </trkpt>
      <trkpt lat="45.93749" lon="4.40659">
        <ele>689.8</ele>
        <time>2022-06-26T09:08:09Z</time>
      </trkpt>
      <trkpt lat="45.93749" lon="4.40654">
        <ele>689.8</ele>
        <time>2022-06-26T09:08:10Z</time>
      </trkpt>
      <trkpt lat="45.93748" lon="4.40648">
        <ele>689.8</ele>
        <time>2022-06-26T09:08:11Z</time>
      </trkpt>
      <trkpt lat="45.93747" lon="4.40643">
        <ele>690</ele>
        <time>2022-06-26T09:08:12Z</time>
      </trkpt>
      <trkpt lat="45.93746" lon="4.40637">
        <ele>690</ele>
        <time>2022-06-26T09:08:13Z</time>
      </trkpt>
      <trkpt lat="45.93744" lon="4.40631">
        <ele>690.2</ele>
        <time>2022-06-26T09:08:14Z</time>
      </trkpt>
      <trkpt lat="45.93743" lon="4.40626">
        <ele>690.2</ele>
        <time>2022-06-26T09:08:15Z</time>
      </trkpt>
      <trkpt lat="45.9374" lon="4.40621">
        <ele>690.2</ele>
        <time>2022-06-26T09:08:16Z</time>
      </trkpt>
      <trkpt lat="45.93738" lon="4.40617">
        <ele>690.6</ele>
        <time>2022-06-26T09:08:17Z</time>
      </trkpt>
      <trkpt lat="45.93734" lon="4.40613">
        <ele>690.6</ele>
        <time>2022-06-26T09:08:18Z</time>
      </trkpt>
      <trkpt lat="45.93731" lon="4.40609">
        <ele>690.6</ele>
        <time>2022-06-26T09:08:19Z</time>
      </trkpt>
      <trkpt lat="45.93728" lon="4.40605">
        <ele>690.8</ele>
        <time>2022-06-26T09:08:20Z</time>
      </trkpt>
      <trkpt lat="45.93725" lon="4.40601">
        <ele>690.8</ele>
        <time>2022-06-26T09:08:21Z</time>
      </trkpt>
      <trkpt lat="45.93722" lon="4.40597">
        <ele>691</ele>
        <time>2022-06-26T09:08:22Z</time>
      </trkpt>
      <trkpt lat="45.93719" lon="4.40594">
        <ele>691</ele>
        <time>2022-06-26T09:08:23Z</time>
      </trkpt>
      <trkpt lat="45.93716" lon="4.40591">
        <ele>691</ele>
        <time>2022-06-26T09:08:24Z</time>
      </trkpt>
      <trkpt lat="45.93713" lon="4.40588">
        <ele>691.4</ele>
        <time>2022-06-26T09:08:25Z</time>
      </trkpt>
      <trkpt lat="45.9371" lon="4.40586">
        <ele>691.4</ele>
        <time>2022-06-26T09:08:26Z</time>
      </trkpt>
      <trkpt lat="45.93706" lon="4.40584">
        <ele>691.4</ele>
        <time>2022-06-26T09:08:27Z</time>
      </trkpt>
      <trkpt lat="45.93703" lon="4.40582">
        <ele>691.6</ele>
        <time>2022-06-26T09:08:28Z</time>
      </trkpt>
      <trkpt lat="45.937" lon="4.40579">
        <ele>691.6</ele>
        <time>2022-06-26T09:08:29Z</time>
      </trkpt>
      <trkpt lat="45.93697" lon="4.40576">
        <ele>691.8</ele>
        <time>2022-06-26T09:08:30Z</time>
      </trkpt>
      <trkpt lat="45.93694" lon="4.40572">
        <ele>691.8</ele>
        <time>2022-06-26T09:08:31Z</time>
      </trkpt>
      <trkpt lat="45.93692" lon="4.40568">
        <ele>691.8</ele>
        <time>2022-06-26T09:08:32Z</time>
      </trkpt>
      <trkpt lat="45.9369" lon="4.40563">
        <ele>692.2</ele>
        <time>2022-06-26T09:08:33Z</time>
      </trkpt>
      <trkpt lat="45.93688" lon="4.40559">
        <ele>692.2</ele>
        <time>2022-06-26T09:08:34Z</time>
      </trkpt>
      <trkpt lat="45.93687" lon="4.40555">
        <ele>692.2</ele>
        <time>2022-06-26T09:08:35Z</time>
      </trkpt>
      <trkpt lat="45.93686" lon="4.40551">
        <ele>692.4</ele>
        <time>2022-06-26T09:08:36Z</time>
      </trkpt>
      <trkpt lat="45.93686" lon="4.40546">
        <ele>692.4</ele>
        <time>2022-06-26T09:08:37Z</time>
      </trkpt>
      <trkpt lat="45.93686" lon="4.40541">
        <ele>692.8</ele>
        <time>2022-06-26T09:08:38Z</time>
      </trkpt>
      <trkpt lat="45.93687" lon="4.40535">
        <ele>692.8</ele>
        <time>2022-06-26T09:08:39Z</time>
      </trkpt>
      <trkpt lat="45.93687" lon="4.4053">
        <ele>692.8</ele>
        <time>2022-06-26T09:08:40Z</time>
      </trkpt>
      <trkpt lat="45.93688" lon="4.40526">
        <ele>693</ele>
        <time>2022-06-26T09:08:41Z</time>
      </trkpt>
      <trkpt lat="45.9369" lon="4.40521">
        <ele>693</ele>
        <time>2022-06-26T09:08:42Z</time>
      </trkpt>
      <trkpt lat="45.93691" lon="4.40516">
        <ele>693</ele>
        <time>2022-06-26T09:08:43Z</time>
      </trkpt>
      <trkpt lat="45.93693" lon="4.40511">
        <ele>693.4</ele>
        <time>2022-06-26T09:08:44Z</time>
      </trkpt>
      <trkpt lat="45.93694" lon="4.40507">
        <ele>693.4</ele>
        <time>2022-06-26T09:08:45Z</time>
      </trkpt>
      <trkpt lat="45.93696" lon="4.40502">
        <ele>693.4</ele>
        <time>2022-06-26T09:08:46Z</time>
      </trkpt>
      <trkpt lat="45.93697" lon="4.40497">
        <ele>693.6</ele>
        <time>2022-06-26T09:08:47Z</time>
      </trkpt>
      <trkpt lat="45.93699" lon="4.40492">
        <ele>693.6</ele>
        <time>2022-06-26T09:08:48Z</time>
      </trkpt>
      <trkpt lat="45.93701" lon="4.40488">
        <ele>693.6</ele>
        <time>2022-06-26T09:08:49Z</time>
      </trkpt>
      <trkpt lat="45.93702" lon="4.40483">
        <ele>693.8</ele>
        <time>2022-06-26T09:08:50Z</time>
      </trkpt>
      <trkpt lat="45.93704" lon="4.40478">
        <ele>693.8</ele>
        <time>2022-06-26T09:08:51Z</time>
      </trkpt>
      <trkpt lat="45.93705" lon="4.40473">
        <ele>693.8</ele>
        <time>2022-06-26T09:08:52Z</time>
      </trkpt>
      <trkpt lat="45.93707" lon="4.40468">
        <ele>693.8</ele>
        <time>2022-06-26T09:08:53Z</time>
      </trkpt>
      <trkpt lat="45.93709" lon="4.40464">
        <ele>694</ele>
        <time>2022-06-26T09:08:54Z</time>
      </trkpt>
      <trkpt lat="45.93711" lon="4.4046">
        <ele>694</ele>
        <time>2022-06-26T09:08:55Z</time>
      </trkpt>
      <trkpt lat="45.93713" lon="4.40456">
        <ele>694</ele>
        <time>2022-06-26T09:08:56Z</time>
      </trkpt>
      <trkpt lat="45.93715" lon="4.40452">
        <ele>694</ele>
        <time>2022-06-26T09:08:57Z</time>
      </trkpt>
      <trkpt lat="45.93717" lon="4.40447">
        <ele>694.4</ele>
        <time>2022-06-26T09:08:58Z</time>
      </trkpt>
      <trkpt lat="45.93719" lon="4.40443">
        <ele>694.4</ele>
        <time>2022-06-26T09:08:59Z</time>
      </trkpt>
      <trkpt lat="45.93722" lon="4.40438">
        <ele>694.4</ele>
        <time>2022-06-26T09:09:00Z</time>
      </trkpt>
      <trkpt lat="45.93724" lon="4.40434">
        <ele>694.6</ele>
        <time>2022-06-26T09:09:01Z</time>
      </trkpt>
      <trkpt lat="45.93726" lon="4.40431">
        <ele>694.6</ele>
        <time>2022-06-26T09:09:02Z</time>
      </trkpt>
      <trkpt lat="45.93729" lon="4.40427">
        <ele>694.6</ele>
        <time>2022-06-26T09:09:03Z</time>
      </trkpt>
      <trkpt lat="45.93731" lon="4.40423">
        <ele>695</ele>
        <time>2022-06-26T09:09:04Z</time>
      </trkpt>
      <trkpt lat="45.93733" lon="4.4042">
        <ele>695</ele>
        <time>2022-06-26T09:09:05Z</time>
      </trkpt>
      <trkpt lat="45.93736" lon="4.40417">
        <ele>695</ele>
        <time>2022-06-26T09:09:06Z</time>
      </trkpt>
      <trkpt lat="45.93739" lon="4.40414">
        <ele>695.2</ele>
        <time>2022-06-26T09:09:07Z</time>
      </trkpt>
      <trkpt lat="45.93741" lon="4.4041">
        <ele>695.2</ele>
        <time>2022-06-26T09:09:08Z</time>
      </trkpt>
      <trkpt lat="45.93744" lon="4.40407">
        <ele>695.4</ele>
        <time>2022-06-26T09:09:09Z</time>
      </trkpt>
      <trkpt lat="45.93747" lon="4.40404">
        <ele>695.4</ele>
        <time>2022-06-26T09:09:10Z</time>
      </trkpt>
      <trkpt lat="45.9375" lon="4.40401">
        <ele>695.4</ele>
        <time>2022-06-26T09:09:11Z</time>
      </trkpt>
      <trkpt lat="45.93753" lon="4.40398">
        <ele>695.6</ele>
        <time>2022-06-26T09:09:12Z</time>
      </trkpt>
      <trkpt lat="45.93756" lon="4.40395">
        <ele>695.6</ele>
        <time>2022-06-26T09:09:13Z</time>
      </trkpt>
      <trkpt lat="45.93759" lon="4.40391">
        <ele>695.8</ele>
        <time>2022-06-26T09:09:14Z</time>
      </trkpt>
      <trkpt lat="45.93762" lon="4.40388">
        <ele>695.8</ele>
        <time>2022-06-26T09:09:15Z</time>
      </trkpt>
      <trkpt lat="45.93766" lon="4.40385">
        <ele>696</ele>
        <time>2022-06-26T09:09:16Z</time>
      </trkpt>
      <trkpt lat="45.93769" lon="4.40381">
        <ele>696</ele>
        <time>2022-06-26T09:09:17Z</time>
      </trkpt>
      <trkpt lat="45.93772" lon="4.40378">
        <ele>696</ele>
        <time>2022-06-26T09:09:18Z</time>
      </trkpt>
      <trkpt lat="45.93775" lon="4.40375">
        <ele>696</ele>
        <time>2022-06-26T09:09:19Z</time>
      </trkpt>
      <trkpt lat="45.93779" lon="4.40372">
        <ele>696.2</ele>
        <time>2022-06-26T09:09:20Z</time>
      </trkpt>
      <trkpt lat="45.93782" lon="4.40369">
        <ele>696.2</ele>
        <time>2022-06-26T09:09:21Z</time>
      </trkpt>
      <trkpt lat="45.93785" lon="4.40366">
        <ele>696.6</ele>
        <time>2022-06-26T09:09:22Z</time>
      </trkpt>
      <trkpt lat="45.93789" lon="4.40364">
        <ele>696.6</ele>
        <time>2022-06-26T09:09:23Z</time>
      </trkpt>
      <trkpt lat="45.93792" lon="4.40361">
        <ele>696.6</ele>
        <time>2022-06-26T09:09:24Z</time>
      </trkpt>
      <trkpt lat="45.93796" lon="4.40359">
        <ele>696.8</ele>
        <time>2022-06-26T09:09:25Z</time>
      </trkpt>
      <trkpt lat="45.938" lon="4.40357">
        <ele>696.8</ele>
        <time>2022-06-26T09:09:26Z</time>
      </trkpt>
      <trkpt lat="45.93804" lon="4.40356">
        <ele>696.8</ele>
        <time>2022-06-26T09:09:27Z</time>
      </trkpt>
      <trkpt lat="45.93807" lon="4.40354">
        <ele>697.2</ele>
        <time>2022-06-26T09:09:28Z</time>
      </trkpt>
      <trkpt lat="45.93811" lon="4.40352">
        <ele>697.2</ele>
        <time>2022-06-26T09:09:29Z</time>
      </trkpt>
      <trkpt lat="45.93814" lon="4.40351">
        <ele>697.2</ele>
        <time>2022-06-26T09:09:30Z</time>
      </trkpt>
      <trkpt lat="45.93817" lon="4.40349">
        <ele>697.4</ele>
        <time>2022-06-26T09:09:31Z</time>
      </trkpt>
      <trkpt lat="45.9382" lon="4.40348">
        <ele>697.4</ele>
        <time>2022-06-26T09:09:32Z</time>
      </trkpt>
      <trkpt lat="45.93823" lon="4.40347">
        <ele>697.4</ele>
        <time>2022-06-26T09:09:33Z</time>
      </trkpt>
      <trkpt lat="45.93827" lon="4.40345">
        <ele>697.8</ele>
        <time>2022-06-26T09:09:34Z</time>
      </trkpt>
      <trkpt lat="45.9383" lon="4.40345">
        <ele>697.8</ele>
        <time>2022-06-26T09:09:35Z</time>
      </trkpt>
      <trkpt lat="45.93833" lon="4.40345">
        <ele>698</ele>
        <time>2022-06-26T09:09:36Z</time>
      </trkpt>
      <trkpt lat="45.93837" lon="4.40344">
        <ele>698</ele>
        <time>2022-06-26T09:09:37Z</time>
      </trkpt>
      <trkpt lat="45.9384" lon="4.40343">
        <ele>698</ele>
        <time>2022-06-26T09:09:38Z</time>
      </trkpt>
      <trkpt lat="45.93844" lon="4.40342">
        <ele>698.4</ele>
        <time>2022-06-26T09:09:39Z</time>
      </trkpt>
      <trkpt lat="45.93847" lon="4.40341">
        <ele>698.4</ele>
        <time>2022-06-26T09:09:40Z</time>
      </trkpt>
      <trkpt lat="45.93851" lon="4.40341">
        <ele>698.4</ele>
        <time>2022-06-26T09:09:41Z</time>
      </trkpt>
      <trkpt lat="45.93854" lon="4.4034">
        <ele>698.6</ele>
        <time>2022-06-26T09:09:42Z</time>
      </trkpt>
      <trkpt lat="45.93858" lon="4.4034">
        <ele>698.6</ele>
        <time>2022-06-26T09:09:43Z</time>
      </trkpt>
      <trkpt lat="45.93861" lon="4.40339">
        <ele>698.8</ele>
        <time>2022-06-26T09:09:44Z</time>
      </trkpt>
      <trkpt lat="45.93865" lon="4.40338">
        <ele>698.8</ele>
        <time>2022-06-26T09:09:45Z</time>
      </trkpt>
      <trkpt lat="45.93868" lon="4.40338">
        <ele>698.8</ele>
        <time>2022-06-26T09:09:46Z</time>
      </trkpt>
      <trkpt lat="45.93872" lon="4.40338">
        <ele>699.2</ele>
        <time>2022-06-26T09:09:47Z</time>
      </trkpt>
      <trkpt lat="45.93875" lon="4.40338">
        <ele>699.2</ele>
        <time>2022-06-26T09:09:48Z</time>
      </trkpt>
      <trkpt lat="45.93879" lon="4.40338">
        <ele>699.4</ele>
        <time>2022-06-26T09:09:49Z</time>
      </trkpt>
      <trkpt lat="45.93882" lon="4.40339">
        <ele>699.4</ele>
        <time>2022-06-26T09:09:50Z</time>
      </trkpt>
      <trkpt lat="45.93886" lon="4.40339">
        <ele>699.4</ele>
        <time>2022-06-26T09:09:51Z</time>
      </trkpt>
      <trkpt lat="45.93889" lon="4.40339">
        <ele>699.4</ele>
        <time>2022-06-26T09:09:52Z</time>
      </trkpt>
      <trkpt lat="45.93893" lon="4.40338">
        <ele>699.4</ele>
        <time>2022-06-26T09:09:53Z</time>
      </trkpt>
      <trkpt lat="45.93896" lon="4.40338">
        <ele>699.4</ele>
        <time>2022-06-26T09:09:54Z</time>
      </trkpt>
      <trkpt lat="45.939" lon="4.40338">
        <ele>699.4</ele>
        <time>2022-06-26T09:09:55Z</time>
      </trkpt>
      <trkpt lat="45.93904" lon="4.40338">
        <ele>699.4</ele>
        <time>2022-06-26T09:09:56Z</time>
      </trkpt>
      <trkpt lat="45.93907" lon="4.40339">
        <ele>699.4</ele>
        <time>2022-06-26T09:09:57Z</time>
      </trkpt>
      <trkpt lat="45.93911" lon="4.40339">
        <ele>699.4</ele>
        <time>2022-06-26T09:09:58Z</time>
      </trkpt>
      <trkpt lat="45.93915" lon="4.40337">
        <ele>699.4</ele>
        <time>2022-06-26T09:09:59Z</time>
      </trkpt>
      <trkpt lat="45.93919" lon="4.40337">
        <ele>699.4</ele>
        <time>2022-06-26T09:10:00Z</time>
      </trkpt>
      <trkpt lat="45.93922" lon="4.40338">
        <ele>699.6</ele>
        <time>2022-06-26T09:10:01Z</time>
      </trkpt>
      <trkpt lat="45.93925" lon="4.40339">
        <ele>699.6</ele>
        <time>2022-06-26T09:10:02Z</time>
      </trkpt>
      <trkpt lat="45.9393" lon="4.40337">
        <ele>700.2</ele>
        <time>2022-06-26T09:10:03Z</time>
      </trkpt>
      <trkpt lat="45.93933" lon="4.40336">
        <ele>700.4</ele>
        <time>2022-06-26T09:10:04Z</time>
      </trkpt>
      <trkpt lat="45.93937" lon="4.40334">
        <ele>700.4</ele>
        <time>2022-06-26T09:10:05Z</time>
      </trkpt>
      <trkpt lat="45.93942" lon="4.40333">
        <ele>700.6</ele>
        <time>2022-06-26T09:10:06Z</time>
      </trkpt>
      <trkpt lat="45.93946" lon="4.40332">
        <ele>700.6</ele>
        <time>2022-06-26T09:10:07Z</time>
      </trkpt>
      <trkpt lat="45.9395" lon="4.40332">
        <ele>700.6</ele>
        <time>2022-06-26T09:10:08Z</time>
      </trkpt>
      <trkpt lat="45.93954" lon="4.40332">
        <ele>700.6</ele>
        <time>2022-06-26T09:10:09Z</time>
      </trkpt>
      <trkpt lat="45.93957" lon="4.40332">
        <ele>700.6</ele>
        <time>2022-06-26T09:10:10Z</time>
      </trkpt>
      <trkpt lat="45.93962" lon="4.40331">
        <ele>700.6</ele>
        <time>2022-06-26T09:10:11Z</time>
      </trkpt>
      <trkpt lat="45.93965" lon="4.4033">
        <ele>700.8</ele>
        <time>2022-06-26T09:10:12Z</time>
      </trkpt>
      <trkpt lat="45.93969" lon="4.40329">
        <ele>700.8</ele>
        <time>2022-06-26T09:10:13Z</time>
      </trkpt>
      <trkpt lat="45.93973" lon="4.40327">
        <ele>700.8</ele>
        <time>2022-06-26T09:10:14Z</time>
      </trkpt>
      <trkpt lat="45.93977" lon="4.40326">
        <ele>700.8</ele>
        <time>2022-06-26T09:10:15Z</time>
      </trkpt>
      <trkpt lat="45.93981" lon="4.40325">
        <ele>700.8</ele>
        <time>2022-06-26T09:10:16Z</time>
      </trkpt>
      <trkpt lat="45.93984" lon="4.40324">
        <ele>700.8</ele>
        <time>2022-06-26T09:10:17Z</time>
      </trkpt>
      <trkpt lat="45.93988" lon="4.40324">
        <ele>700.8</ele>
        <time>2022-06-26T09:10:18Z</time>
      </trkpt>
      <trkpt lat="45.93991" lon="4.40324">
        <ele>700.8</ele>
        <time>2022-06-26T09:10:19Z</time>
      </trkpt>
      <trkpt lat="45.93995" lon="4.40323">
        <ele>700.8</ele>
        <time>2022-06-26T09:10:20Z</time>
      </trkpt>
      <trkpt lat="45.93998" lon="4.40321">
        <ele>700.8</ele>
        <time>2022-06-26T09:10:21Z</time>
      </trkpt>
      <trkpt lat="45.94002" lon="4.4032">
        <ele>701.2</ele>
        <time>2022-06-26T09:10:22Z</time>
      </trkpt>
      <trkpt lat="45.94006" lon="4.40318">
        <ele>701.6</ele>
        <time>2022-06-26T09:10:23Z</time>
      </trkpt>
      <trkpt lat="45.9401" lon="4.40316">
        <ele>701.6</ele>
        <time>2022-06-26T09:10:24Z</time>
      </trkpt>
      <trkpt lat="45.94013" lon="4.40316">
        <ele>701</ele>
        <time>2022-06-26T09:10:25Z</time>
      </trkpt>
      <trkpt lat="45.94017" lon="4.40314">
        <ele>701</ele>
        <time>2022-06-26T09:10:26Z</time>
      </trkpt>
      <trkpt lat="45.94021" lon="4.40312">
        <ele>701</ele>
        <time>2022-06-26T09:10:27Z</time>
      </trkpt>
      <trkpt lat="45.94026" lon="4.4031">
        <ele>701</ele>
        <time>2022-06-26T09:10:28Z</time>
      </trkpt>
      <trkpt lat="45.94029" lon="4.40309">
        <ele>701</ele>
        <time>2022-06-26T09:10:29Z</time>
      </trkpt>
      <trkpt lat="45.94033" lon="4.40308">
        <ele>701</ele>
        <time>2022-06-26T09:10:30Z</time>
      </trkpt>
      <trkpt lat="45.94037" lon="4.40306">
        <ele>701</ele>
        <time>2022-06-26T09:10:31Z</time>
      </trkpt>
      <trkpt lat="45.94041" lon="4.40304">
        <ele>701.2</ele>
        <time>2022-06-26T09:10:32Z</time>
      </trkpt>
      <trkpt lat="45.94045" lon="4.40301">
        <ele>701.2</ele>
        <time>2022-06-26T09:10:33Z</time>
      </trkpt>
      <trkpt lat="45.94049" lon="4.40298">
        <ele>701.2</ele>
        <time>2022-06-26T09:10:34Z</time>
      </trkpt>
      <trkpt lat="45.94052" lon="4.40295">
        <ele>701.2</ele>
        <time>2022-06-26T09:10:35Z</time>
      </trkpt>
      <trkpt lat="45.94055" lon="4.40291">
        <ele>701</ele>
        <time>2022-06-26T09:10:36Z</time>
      </trkpt>
      <trkpt lat="45.94057" lon="4.40286">
        <ele>701.2</ele>
        <time>2022-06-26T09:10:37Z</time>
      </trkpt>
      <trkpt lat="45.94059" lon="4.40281">
        <ele>701.2</ele>
        <time>2022-06-26T09:10:38Z</time>
      </trkpt>
      <trkpt lat="45.94061" lon="4.40276">
        <ele>701.8</ele>
        <time>2022-06-26T09:10:39Z</time>
      </trkpt>
      <trkpt lat="45.94062" lon="4.4027">
        <ele>701.8</ele>
        <time>2022-06-26T09:10:40Z</time>
      </trkpt>
      <trkpt lat="45.94062" lon="4.40264">
        <ele>701.8</ele>
        <time>2022-06-26T09:10:41Z</time>
      </trkpt>
      <trkpt lat="45.94061" lon="4.40258">
        <ele>701.8</ele>
        <time>2022-06-26T09:10:42Z</time>
      </trkpt>
      <trkpt lat="45.94061" lon="4.40252">
        <ele>702</ele>
        <time>2022-06-26T09:10:43Z</time>
      </trkpt>
      <trkpt lat="45.9406" lon="4.40247">
        <ele>702</ele>
        <time>2022-06-26T09:10:44Z</time>
      </trkpt>
      <trkpt lat="45.94059" lon="4.40242">
        <ele>702</ele>
        <time>2022-06-26T09:10:45Z</time>
      </trkpt>
      <trkpt lat="45.94059" lon="4.40237">
        <ele>702.2</ele>
        <time>2022-06-26T09:10:46Z</time>
      </trkpt>
      <trkpt lat="45.94058" lon="4.40232">
        <ele>702.2</ele>
        <time>2022-06-26T09:10:47Z</time>
      </trkpt>
      <trkpt lat="45.94057" lon="4.40227">
        <ele>702.2</ele>
        <time>2022-06-26T09:10:48Z</time>
      </trkpt>
      <trkpt lat="45.94056" lon="4.40223">
        <ele>702.2</ele>
        <time>2022-06-26T09:10:49Z</time>
      </trkpt>
      <trkpt lat="45.94055" lon="4.40218">
        <ele>702.2</ele>
        <time>2022-06-26T09:10:50Z</time>
      </trkpt>
      <trkpt lat="45.94054" lon="4.40213">
        <ele>702.2</ele>
        <time>2022-06-26T09:10:51Z</time>
      </trkpt>
      <trkpt lat="45.94052" lon="4.40209">
        <ele>702.2</ele>
        <time>2022-06-26T09:10:52Z</time>
      </trkpt>
      <trkpt lat="45.9405" lon="4.40204">
        <ele>702.6</ele>
        <time>2022-06-26T09:10:53Z</time>
      </trkpt>
      <trkpt lat="45.94048" lon="4.40199">
        <ele>702.6</ele>
        <time>2022-06-26T09:10:54Z</time>
      </trkpt>
      <trkpt lat="45.94046" lon="4.40195">
        <ele>702.4</ele>
        <time>2022-06-26T09:10:55Z</time>
      </trkpt>
      <trkpt lat="45.94044" lon="4.4019">
        <ele>702.4</ele>
        <time>2022-06-26T09:10:56Z</time>
      </trkpt>
      <trkpt lat="45.94042" lon="4.40186">
        <ele>702.4</ele>
        <time>2022-06-26T09:10:57Z</time>
      </trkpt>
      <trkpt lat="45.94039" lon="4.40182">
        <ele>702.4</ele>
        <time>2022-06-26T09:10:58Z</time>
      </trkpt>
      <trkpt lat="45.94037" lon="4.40178">
        <ele>702.4</ele>
        <time>2022-06-26T09:10:59Z</time>
      </trkpt>
      <trkpt lat="45.94034" lon="4.40174">
        <ele>702.4</ele>
        <time>2022-06-26T09:11:00Z</time>
      </trkpt>
      <trkpt lat="45.94031" lon="4.4017">
        <ele>702.4</ele>
        <time>2022-06-26T09:11:01Z</time>
      </trkpt>
      <trkpt lat="45.94029" lon="4.40165">
        <ele>702.4</ele>
        <time>2022-06-26T09:11:02Z</time>
      </trkpt>
      <trkpt lat="45.94026" lon="4.40161">
        <ele>702.4</ele>
        <time>2022-06-26T09:11:03Z</time>
      </trkpt>
      <trkpt lat="45.94023" lon="4.40157">
        <ele>702.4</ele>
        <time>2022-06-26T09:11:04Z</time>
      </trkpt>
      <trkpt lat="45.94021" lon="4.40153">
        <ele>702.4</ele>
        <time>2022-06-26T09:11:05Z</time>
      </trkpt>
      <trkpt lat="45.94018" lon="4.40149">
        <ele>702.4</ele>
        <time>2022-06-26T09:11:06Z</time>
      </trkpt>
      <trkpt lat="45.94016" lon="4.40145">
        <ele>702.4</ele>
        <time>2022-06-26T09:11:07Z</time>
      </trkpt>
      <trkpt lat="45.94013" lon="4.40141">
        <ele>702.4</ele>
        <time>2022-06-26T09:11:08Z</time>
      </trkpt>
      <trkpt lat="45.94011" lon="4.40137">
        <ele>702.6</ele>
        <time>2022-06-26T09:11:09Z</time>
      </trkpt>
      <trkpt lat="45.94009" lon="4.40133">
        <ele>702.6</ele>
        <time>2022-06-26T09:11:10Z</time>
      </trkpt>
      <trkpt lat="45.94006" lon="4.40129">
        <ele>702.6</ele>
        <time>2022-06-26T09:11:11Z</time>
      </trkpt>
      <trkpt lat="45.94004" lon="4.40125">
        <ele>702.6</ele>
        <time>2022-06-26T09:11:12Z</time>
      </trkpt>
      <trkpt lat="45.94001" lon="4.40121">
        <ele>702.6</ele>
        <time>2022-06-26T09:11:13Z</time>
      </trkpt>
      <trkpt lat="45.93998" lon="4.40118">
        <ele>703</ele>
        <time>2022-06-26T09:11:14Z</time>
      </trkpt>
      <trkpt lat="45.93993" lon="4.4011">
        <ele>703</ele>
        <time>2022-06-26T09:11:15Z</time>
      </trkpt>
      <trkpt lat="45.9399" lon="4.40106">
        <ele>703</ele>
        <time>2022-06-26T09:11:16Z</time>
      </trkpt>
      <trkpt lat="45.93988" lon="4.40102">
        <ele>703</ele>
        <time>2022-06-26T09:11:17Z</time>
      </trkpt>
      <trkpt lat="45.93985" lon="4.40098">
        <ele>703.2</ele>
        <time>2022-06-26T09:11:18Z</time>
      </trkpt>
      <trkpt lat="45.93983" lon="4.40095">
        <ele>703.2</ele>
        <time>2022-06-26T09:11:19Z</time>
      </trkpt>
      <trkpt lat="45.9398" lon="4.40091">
        <ele>703.2</ele>
        <time>2022-06-26T09:11:20Z</time>
      </trkpt>
      <trkpt lat="45.93977" lon="4.40088">
        <ele>703.2</ele>
        <time>2022-06-26T09:11:21Z</time>
      </trkpt>
      <trkpt lat="45.93974" lon="4.40085">
        <ele>703.2</ele>
        <time>2022-06-26T09:11:22Z</time>
      </trkpt>
      <trkpt lat="45.93972" lon="4.40081">
        <ele>703.2</ele>
        <time>2022-06-26T09:11:23Z</time>
      </trkpt>
      <trkpt lat="45.9397" lon="4.40077">
        <ele>703.6</ele>
        <time>2022-06-26T09:11:24Z</time>
      </trkpt>
      <trkpt lat="45.93967" lon="4.40073">
        <ele>703.6</ele>
        <time>2022-06-26T09:11:25Z</time>
      </trkpt>
      <trkpt lat="45.93964" lon="4.40069">
        <ele>703.6</ele>
        <time>2022-06-26T09:11:26Z</time>
      </trkpt>
      <trkpt lat="45.93961" lon="4.40065">
        <ele>703.6</ele>
        <time>2022-06-26T09:11:27Z</time>
      </trkpt>
      <trkpt lat="45.93959" lon="4.40061">
        <ele>703.6</ele>
        <time>2022-06-26T09:11:28Z</time>
      </trkpt>
      <trkpt lat="45.93957" lon="4.40057">
        <ele>703.6</ele>
        <time>2022-06-26T09:11:29Z</time>
      </trkpt>
      <trkpt lat="45.93956" lon="4.40053">
        <ele>703.6</ele>
        <time>2022-06-26T09:11:30Z</time>
      </trkpt>
      <trkpt lat="45.93954" lon="4.40048">
        <ele>703.6</ele>
        <time>2022-06-26T09:11:31Z</time>
      </trkpt>
      <trkpt lat="45.93953" lon="4.40043">
        <ele>703.6</ele>
        <time>2022-06-26T09:11:32Z</time>
      </trkpt>
      <trkpt lat="45.93953" lon="4.40039">
        <ele>703.6</ele>
        <time>2022-06-26T09:11:33Z</time>
      </trkpt>
      <trkpt lat="45.93952" lon="4.40034">
        <ele>704</ele>
        <time>2022-06-26T09:11:34Z</time>
      </trkpt>
      <trkpt lat="45.93953" lon="4.40028">
        <ele>704</ele>
        <time>2022-06-26T09:11:35Z</time>
      </trkpt>
      <trkpt lat="45.93954" lon="4.40022">
        <ele>704</ele>
        <time>2022-06-26T09:11:36Z</time>
      </trkpt>
      <trkpt lat="45.93955" lon="4.40016">
        <ele>704.2</ele>
        <time>2022-06-26T09:11:37Z</time>
      </trkpt>
      <trkpt lat="45.93957" lon="4.40011">
        <ele>704.2</ele>
        <time>2022-06-26T09:11:38Z</time>
      </trkpt>
      <trkpt lat="45.93959" lon="4.40006">
        <ele>704.2</ele>
        <time>2022-06-26T09:11:39Z</time>
      </trkpt>
      <trkpt lat="45.93962" lon="4.40002">
        <ele>704.4</ele>
        <time>2022-06-26T09:11:40Z</time>
      </trkpt>
      <trkpt lat="45.93964" lon="4.39997">
        <ele>704.8</ele>
        <time>2022-06-26T09:11:41Z</time>
      </trkpt>
      <trkpt lat="45.93967" lon="4.39993">
        <ele>704.8</ele>
        <time>2022-06-26T09:11:42Z</time>
      </trkpt>
      <trkpt lat="45.9397" lon="4.3999">
        <ele>704.8</ele>
        <time>2022-06-26T09:11:43Z</time>
      </trkpt>
      <trkpt lat="45.93973" lon="4.39986">
        <ele>704.8</ele>
        <time>2022-06-26T09:11:44Z</time>
      </trkpt>
      <trkpt lat="45.93975" lon="4.39982">
        <ele>704.8</ele>
        <time>2022-06-26T09:11:45Z</time>
      </trkpt>
      <trkpt lat="45.93977" lon="4.39978">
        <ele>704.8</ele>
        <time>2022-06-26T09:11:46Z</time>
      </trkpt>
      <trkpt lat="45.9398" lon="4.39974">
        <ele>704.8</ele>
        <time>2022-06-26T09:11:47Z</time>
      </trkpt>
      <trkpt lat="45.93983" lon="4.3997">
        <ele>705</ele>
        <time>2022-06-26T09:11:48Z</time>
      </trkpt>
      <trkpt lat="45.93986" lon="4.39967">
        <ele>705</ele>
        <time>2022-06-26T09:11:49Z</time>
      </trkpt>
      <trkpt lat="45.93988" lon="4.39963">
        <ele>705</ele>
        <time>2022-06-26T09:11:50Z</time>
      </trkpt>
      <trkpt lat="45.93991" lon="4.39959">
        <ele>705</ele>
        <time>2022-06-26T09:11:51Z</time>
      </trkpt>
      <trkpt lat="45.93994" lon="4.39955">
        <ele>705</ele>
        <time>2022-06-26T09:11:52Z</time>
      </trkpt>
      <trkpt lat="45.93997" lon="4.39951">
        <ele>705</ele>
        <time>2022-06-26T09:11:53Z</time>
      </trkpt>
      <trkpt lat="45.94" lon="4.39948">
        <ele>705</ele>
        <time>2022-06-26T09:11:54Z</time>
      </trkpt>
      <trkpt lat="45.94003" lon="4.39944">
        <ele>705.2</ele>
        <time>2022-06-26T09:11:55Z</time>
      </trkpt>
      <trkpt lat="45.94006" lon="4.3994">
        <ele>705.2</ele>
        <time>2022-06-26T09:11:56Z</time>
      </trkpt>
      <trkpt lat="45.94008" lon="4.39936">
        <ele>705.2</ele>
        <time>2022-06-26T09:11:57Z</time>
      </trkpt>
      <trkpt lat="45.94011" lon="4.39932">
        <ele>705.2</ele>
        <time>2022-06-26T09:11:58Z</time>
      </trkpt>
      <trkpt lat="45.94013" lon="4.39928">
        <ele>705.2</ele>
        <time>2022-06-26T09:11:59Z</time>
      </trkpt>
      <trkpt lat="45.94015" lon="4.39923">
        <ele>705.2</ele>
        <time>2022-06-26T09:12:00Z</time>
      </trkpt>
      <trkpt lat="45.94017" lon="4.39917">
        <ele>705.8</ele>
        <time>2022-06-26T09:12:01Z</time>
      </trkpt>
      <trkpt lat="45.94018" lon="4.39912">
        <ele>706</ele>
        <time>2022-06-26T09:12:02Z</time>
      </trkpt>
      <trkpt lat="45.94019" lon="4.39907">
        <ele>706.2</ele>
        <time>2022-06-26T09:12:03Z</time>
      </trkpt>
      <trkpt lat="45.9402" lon="4.39902">
        <ele>706.2</ele>
        <time>2022-06-26T09:12:04Z</time>
      </trkpt>
      <trkpt lat="45.9402" lon="4.39896">
        <ele>706.2</ele>
        <time>2022-06-26T09:12:05Z</time>
      </trkpt>
      <trkpt lat="45.94019" lon="4.39891">
        <ele>706.2</ele>
        <time>2022-06-26T09:12:06Z</time>
      </trkpt>
      <trkpt lat="45.94018" lon="4.39885">
        <ele>706.6</ele>
        <time>2022-06-26T09:12:07Z</time>
      </trkpt>
      <trkpt lat="45.94017" lon="4.3988">
        <ele>706.6</ele>
        <time>2022-06-26T09:12:08Z</time>
      </trkpt>
      <trkpt lat="45.94017" lon="4.39877">
        <ele>706.6</ele>
        <time>2022-06-26T09:12:09Z</time>
      </trkpt>
      <trkpt lat="45.94016" lon="4.39874">
        <ele>707.4</ele>
        <time>2022-06-26T09:12:10Z</time>
      </trkpt>
      <trkpt lat="45.94015" lon="4.39868">
        <ele>708</ele>
        <time>2022-06-26T09:12:11Z</time>
      </trkpt>
      <trkpt lat="45.94014" lon="4.39863">
        <ele>708.6</ele>
        <time>2022-06-26T09:12:12Z</time>
      </trkpt>
      <trkpt lat="45.94013" lon="4.39857">
        <ele>708.8</ele>
        <time>2022-06-26T09:12:13Z</time>
      </trkpt>
      <trkpt lat="45.94012" lon="4.39852">
        <ele>709.2</ele>
        <time>2022-06-26T09:12:14Z</time>
      </trkpt>
      <trkpt lat="45.9401" lon="4.39846">
        <ele>709.4</ele>
        <time>2022-06-26T09:12:15Z</time>
      </trkpt>
      <trkpt lat="45.94009" lon="4.39841">
        <ele>709.4</ele>
        <time>2022-06-26T09:12:16Z</time>
      </trkpt>
      <trkpt lat="45.94008" lon="4.39835">
        <ele>709.6</ele>
        <time>2022-06-26T09:12:17Z</time>
      </trkpt>
      <trkpt lat="45.94007" lon="4.39829">
        <ele>709.6</ele>
        <time>2022-06-26T09:12:18Z</time>
      </trkpt>
      <trkpt lat="45.94006" lon="4.39823">
        <ele>709.8</ele>
        <time>2022-06-26T09:12:19Z</time>
      </trkpt>
      <trkpt lat="45.94005" lon="4.39818">
        <ele>709.8</ele>
        <time>2022-06-26T09:12:20Z</time>
      </trkpt>
      <trkpt lat="45.94004" lon="4.39812">
        <ele>709.8</ele>
        <time>2022-06-26T09:12:21Z</time>
      </trkpt>
      <trkpt lat="45.94002" lon="4.39806">
        <ele>709.8</ele>
        <time>2022-06-26T09:12:22Z</time>
      </trkpt>
      <trkpt lat="45.94001" lon="4.39801">
        <ele>709.8</ele>
        <time>2022-06-26T09:12:23Z</time>
      </trkpt>
      <trkpt lat="45.93999" lon="4.39796">
        <ele>709.8</ele>
        <time>2022-06-26T09:12:24Z</time>
      </trkpt>
      <trkpt lat="45.93997" lon="4.39791">
        <ele>709.8</ele>
        <time>2022-06-26T09:12:25Z</time>
      </trkpt>
      <trkpt lat="45.93995" lon="4.39786">
        <ele>709.8</ele>
        <time>2022-06-26T09:12:26Z</time>
      </trkpt>
      <trkpt lat="45.93993" lon="4.3978">
        <ele>709.8</ele>
        <time>2022-06-26T09:12:27Z</time>
      </trkpt>
      <trkpt lat="45.9399" lon="4.39775">
        <ele>710</ele>
        <time>2022-06-26T09:12:28Z</time>
      </trkpt>
      <trkpt lat="45.93988" lon="4.3977">
        <ele>710</ele>
        <time>2022-06-26T09:12:29Z</time>
      </trkpt>
      <trkpt lat="45.93985" lon="4.39764">
        <ele>710</ele>
        <time>2022-06-26T09:12:30Z</time>
      </trkpt>
      <trkpt lat="45.93983" lon="4.39759">
        <ele>710</ele>
        <time>2022-06-26T09:12:31Z</time>
      </trkpt>
      <trkpt lat="45.9398" lon="4.39754">
        <ele>710</ele>
        <time>2022-06-26T09:12:32Z</time>
      </trkpt>
      <trkpt lat="45.93976" lon="4.39748">
        <ele>710</ele>
        <time>2022-06-26T09:12:33Z</time>
      </trkpt>
      <trkpt lat="45.93973" lon="4.39743">
        <ele>710</ele>
        <time>2022-06-26T09:12:34Z</time>
      </trkpt>
      <trkpt lat="45.93969" lon="4.39737">
        <ele>710</ele>
        <time>2022-06-26T09:12:35Z</time>
      </trkpt>
      <trkpt lat="45.93966" lon="4.39732">
        <ele>710</ele>
        <time>2022-06-26T09:12:36Z</time>
      </trkpt>
      <trkpt lat="45.93963" lon="4.39726">
        <ele>710</ele>
        <time>2022-06-26T09:12:37Z</time>
      </trkpt>
      <trkpt lat="45.93959" lon="4.3972">
        <ele>710</ele>
        <time>2022-06-26T09:12:38Z</time>
      </trkpt>
      <trkpt lat="45.93957" lon="4.39713">
        <ele>709.6</ele>
        <time>2022-06-26T09:12:39Z</time>
      </trkpt>
      <trkpt lat="45.93954" lon="4.39707">
        <ele>709.6</ele>
        <time>2022-06-26T09:12:40Z</time>
      </trkpt>
      <trkpt lat="45.93952" lon="4.39699">
        <ele>709.6</ele>
        <time>2022-06-26T09:12:41Z</time>
      </trkpt>
      <trkpt lat="45.93949" lon="4.39692">
        <ele>709.2</ele>
        <time>2022-06-26T09:12:42Z</time>
      </trkpt>
      <trkpt lat="45.93946" lon="4.39684">
        <ele>709.2</ele>
        <time>2022-06-26T09:12:43Z</time>
      </trkpt>
      <trkpt lat="45.93944" lon="4.39677">
        <ele>709.2</ele>
        <time>2022-06-26T09:12:44Z</time>
      </trkpt>
      <trkpt lat="45.93941" lon="4.39669">
        <ele>709.2</ele>
        <time>2022-06-26T09:12:45Z</time>
      </trkpt>
      <trkpt lat="45.93938" lon="4.39661">
        <ele>709.2</ele>
        <time>2022-06-26T09:12:46Z</time>
      </trkpt>
      <trkpt lat="45.93936" lon="4.39653">
        <ele>709.2</ele>
        <time>2022-06-26T09:12:47Z</time>
      </trkpt>
      <trkpt lat="45.93933" lon="4.39644">
        <ele>709.2</ele>
        <time>2022-06-26T09:12:48Z</time>
      </trkpt>
      <trkpt lat="45.93931" lon="4.39637">
        <ele>709.2</ele>
        <time>2022-06-26T09:12:49Z</time>
      </trkpt>
      <trkpt lat="45.93927" lon="4.39629">
        <ele>709.2</ele>
        <time>2022-06-26T09:12:50Z</time>
      </trkpt>
      <trkpt lat="45.93923" lon="4.39622">
        <ele>709.2</ele>
        <time>2022-06-26T09:12:51Z</time>
      </trkpt>
      <trkpt lat="45.93919" lon="4.39615">
        <ele>709.2</ele>
        <time>2022-06-26T09:12:52Z</time>
      </trkpt>
      <trkpt lat="45.93915" lon="4.39609">
        <ele>709.2</ele>
        <time>2022-06-26T09:12:53Z</time>
      </trkpt>
      <trkpt lat="45.9391" lon="4.39603">
        <ele>709.2</ele>
        <time>2022-06-26T09:12:54Z</time>
      </trkpt>
      <trkpt lat="45.93904" lon="4.39598">
        <ele>709.2</ele>
        <time>2022-06-26T09:12:55Z</time>
      </trkpt>
      <trkpt lat="45.93898" lon="4.39594">
        <ele>709.2</ele>
        <time>2022-06-26T09:12:56Z</time>
      </trkpt>
      <trkpt lat="45.93892" lon="4.39591">
        <ele>709.2</ele>
        <time>2022-06-26T09:12:57Z</time>
      </trkpt>
      <trkpt lat="45.93885" lon="4.39589">
        <ele>709.2</ele>
        <time>2022-06-26T09:12:58Z</time>
      </trkpt>
      <trkpt lat="45.93878" lon="4.39588">
        <ele>709</ele>
        <time>2022-06-26T09:12:59Z</time>
      </trkpt>
      <trkpt lat="45.93871" lon="4.39589">
        <ele>709</ele>
        <time>2022-06-26T09:13:00Z</time>
      </trkpt>
      <trkpt lat="45.93865" lon="4.39591">
        <ele>708.8</ele>
        <time>2022-06-26T09:13:01Z</time>
      </trkpt>
      <trkpt lat="45.93858" lon="4.39593">
        <ele>708.8</ele>
        <time>2022-06-26T09:13:02Z</time>
      </trkpt>
      <trkpt lat="45.93851" lon="4.39595">
        <ele>708.8</ele>
        <time>2022-06-26T09:13:03Z</time>
      </trkpt>
      <trkpt lat="45.93845" lon="4.39595">
        <ele>708.6</ele>
        <time>2022-06-26T09:13:04Z</time>
      </trkpt>
      <trkpt lat="45.93838" lon="4.39593">
        <ele>708.6</ele>
        <time>2022-06-26T09:13:05Z</time>
      </trkpt>
      <trkpt lat="45.93832" lon="4.3959">
        <ele>708.2</ele>
        <time>2022-06-26T09:13:06Z</time>
      </trkpt>
      <trkpt lat="45.93826" lon="4.39585">
        <ele>708</ele>
        <time>2022-06-26T09:13:07Z</time>
      </trkpt>
      <trkpt lat="45.93821" lon="4.39579">
        <ele>707.6</ele>
        <time>2022-06-26T09:13:08Z</time>
      </trkpt>
      <trkpt lat="45.93816" lon="4.39571">
        <ele>707.6</ele>
        <time>2022-06-26T09:13:09Z</time>
      </trkpt>
      <trkpt lat="45.93812" lon="4.39564">
        <ele>707.6</ele>
        <time>2022-06-26T09:13:10Z</time>
      </trkpt>
      <trkpt lat="45.93808" lon="4.39556">
        <ele>707.4</ele>
        <time>2022-06-26T09:13:11Z</time>
      </trkpt>
      <trkpt lat="45.93804" lon="4.39548">
        <ele>707.4</ele>
        <time>2022-06-26T09:13:12Z</time>
      </trkpt>
      <trkpt lat="45.93801" lon="4.39539">
        <ele>707.4</ele>
        <time>2022-06-26T09:13:13Z</time>
      </trkpt>
      <trkpt lat="45.93799" lon="4.39531">
        <ele>707.4</ele>
        <time>2022-06-26T09:13:14Z</time>
      </trkpt>
      <trkpt lat="45.93796" lon="4.39522">
        <ele>707.4</ele>
        <time>2022-06-26T09:13:15Z</time>
      </trkpt>
      <trkpt lat="45.93794" lon="4.39513">
        <ele>707.4</ele>
        <time>2022-06-26T09:13:16Z</time>
      </trkpt>
      <trkpt lat="45.93792" lon="4.39504">
        <ele>707.4</ele>
        <time>2022-06-26T09:13:17Z</time>
      </trkpt>
      <trkpt lat="45.93791" lon="4.39495">
        <ele>707.4</ele>
        <time>2022-06-26T09:13:18Z</time>
      </trkpt>
      <trkpt lat="45.93789" lon="4.39486">
        <ele>707.4</ele>
        <time>2022-06-26T09:13:19Z</time>
      </trkpt>
      <trkpt lat="45.93787" lon="4.39477">
        <ele>706.8</ele>
        <time>2022-06-26T09:13:20Z</time>
      </trkpt>
      <trkpt lat="45.93786" lon="4.39467">
        <ele>706.8</ele>
        <time>2022-06-26T09:13:21Z</time>
      </trkpt>
      <trkpt lat="45.93784" lon="4.39458">
        <ele>706.8</ele>
        <time>2022-06-26T09:13:22Z</time>
      </trkpt>
      <trkpt lat="45.93783" lon="4.39448">
        <ele>706.8</ele>
        <time>2022-06-26T09:13:23Z</time>
      </trkpt>
      <trkpt lat="45.93781" lon="4.39439">
        <ele>707</ele>
        <time>2022-06-26T09:13:24Z</time>
      </trkpt>
      <trkpt lat="45.9378" lon="4.3943">
        <ele>707</ele>
        <time>2022-06-26T09:13:25Z</time>
      </trkpt>
      <trkpt lat="45.93779" lon="4.39421">
        <ele>707</ele>
        <time>2022-06-26T09:13:26Z</time>
      </trkpt>
      <trkpt lat="45.93778" lon="4.39413">
        <ele>707</ele>
        <time>2022-06-26T09:13:27Z</time>
      </trkpt>
      <trkpt lat="45.93776" lon="4.39404">
        <ele>707</ele>
        <time>2022-06-26T09:13:28Z</time>
      </trkpt>
      <trkpt lat="45.93774" lon="4.39396">
        <ele>707</ele>
        <time>2022-06-26T09:13:29Z</time>
      </trkpt>
      <trkpt lat="45.93772" lon="4.39387">
        <ele>707</ele>
        <time>2022-06-26T09:13:30Z</time>
      </trkpt>
      <trkpt lat="45.93769" lon="4.39379">
        <ele>707</ele>
        <time>2022-06-26T09:13:31Z</time>
      </trkpt>
      <trkpt lat="45.93765" lon="4.39372">
        <ele>707</ele>
        <time>2022-06-26T09:13:32Z</time>
      </trkpt>
      <trkpt lat="45.93761" lon="4.39365">
        <ele>707</ele>
        <time>2022-06-26T09:13:33Z</time>
      </trkpt>
      <trkpt lat="45.93757" lon="4.39358">
        <ele>707</ele>
        <time>2022-06-26T09:13:34Z</time>
      </trkpt>
      <trkpt lat="45.93752" lon="4.39352">
        <ele>707</ele>
        <time>2022-06-26T09:13:35Z</time>
      </trkpt>
      <trkpt lat="45.93747" lon="4.39347">
        <ele>707</ele>
        <time>2022-06-26T09:13:36Z</time>
      </trkpt>
      <trkpt lat="45.93743" lon="4.39342">
        <ele>707.2</ele>
        <time>2022-06-26T09:13:37Z</time>
      </trkpt>
      <trkpt lat="45.93738" lon="4.39338">
        <ele>707.2</ele>
        <time>2022-06-26T09:13:38Z</time>
      </trkpt>
      <trkpt lat="45.93733" lon="4.39334">
        <ele>707.2</ele>
        <time>2022-06-26T09:13:39Z</time>
      </trkpt>
      <trkpt lat="45.93728" lon="4.39331">
        <ele>707.2</ele>
        <time>2022-06-26T09:13:40Z</time>
      </trkpt>
      <trkpt lat="45.93723" lon="4.39328">
        <ele>707.2</ele>
        <time>2022-06-26T09:13:41Z</time>
      </trkpt>
      <trkpt lat="45.93717" lon="4.39327">
        <ele>707.2</ele>
        <time>2022-06-26T09:13:42Z</time>
      </trkpt>
      <trkpt lat="45.93711" lon="4.39328">
        <ele>707.2</ele>
        <time>2022-06-26T09:13:43Z</time>
      </trkpt>
      <trkpt lat="45.93706" lon="4.39329">
        <ele>707.4</ele>
        <time>2022-06-26T09:13:44Z</time>
      </trkpt>
      <trkpt lat="45.93701" lon="4.39331">
        <ele>707.4</ele>
        <time>2022-06-26T09:13:45Z</time>
      </trkpt>
      <trkpt lat="45.93696" lon="4.39333">
        <ele>707.4</ele>
        <time>2022-06-26T09:13:46Z</time>
      </trkpt>
      <trkpt lat="45.93691" lon="4.39336">
        <ele>707.8</ele>
        <time>2022-06-26T09:13:47Z</time>
      </trkpt>
      <trkpt lat="45.93687" lon="4.39338">
        <ele>707.8</ele>
        <time>2022-06-26T09:13:48Z</time>
      </trkpt>
      <trkpt lat="45.93683" lon="4.39341">
        <ele>707.8</ele>
        <time>2022-06-26T09:13:49Z</time>
      </trkpt>
      <trkpt lat="45.93678" lon="4.39343">
        <ele>707.8</ele>
        <time>2022-06-26T09:13:50Z</time>
      </trkpt>
      <trkpt lat="45.93674" lon="4.39345">
        <ele>707.8</ele>
        <time>2022-06-26T09:13:51Z</time>
      </trkpt>
      <trkpt lat="45.9367" lon="4.39347">
        <ele>708</ele>
        <time>2022-06-26T09:13:52Z</time>
      </trkpt>
      <trkpt lat="45.93666" lon="4.3935">
        <ele>708.2</ele>
        <time>2022-06-26T09:13:53Z</time>
      </trkpt>
      <trkpt lat="45.93662" lon="4.39352">
        <ele>708.2</ele>
        <time>2022-06-26T09:13:54Z</time>
      </trkpt>
      <trkpt lat="45.93658" lon="4.39355">
        <ele>708.6</ele>
        <time>2022-06-26T09:13:55Z</time>
      </trkpt>
      <trkpt lat="45.93654" lon="4.39359">
        <ele>708.6</ele>
        <time>2022-06-26T09:13:56Z</time>
      </trkpt>
      <trkpt lat="45.9365" lon="4.39364">
        <ele>708.6</ele>
        <time>2022-06-26T09:13:57Z</time>
      </trkpt>
      <trkpt lat="45.93647" lon="4.39368">
        <ele>708.6</ele>
        <time>2022-06-26T09:13:58Z</time>
      </trkpt>
      <trkpt lat="45.93644" lon="4.39372">
        <ele>708.6</ele>
        <time>2022-06-26T09:13:59Z</time>
      </trkpt>
      <trkpt lat="45.93642" lon="4.39376">
        <ele>708.6</ele>
        <time>2022-06-26T09:14:00Z</time>
      </trkpt>
      <trkpt lat="45.9364" lon="4.3938">
        <ele>708.6</ele>
        <time>2022-06-26T09:14:01Z</time>
      </trkpt>
      <trkpt lat="45.93638" lon="4.39384">
        <ele>708.6</ele>
        <time>2022-06-26T09:14:02Z</time>
      </trkpt>
      <trkpt lat="45.93636" lon="4.39389">
        <ele>708.6</ele>
        <time>2022-06-26T09:14:03Z</time>
      </trkpt>
      <trkpt lat="45.93634" lon="4.39394">
        <ele>709</ele>
        <time>2022-06-26T09:14:04Z</time>
      </trkpt>
      <trkpt lat="45.93632" lon="4.39399">
        <ele>709</ele>
        <time>2022-06-26T09:14:05Z</time>
      </trkpt>
      <trkpt lat="45.9363" lon="4.39405">
        <ele>709.2</ele>
        <time>2022-06-26T09:14:06Z</time>
      </trkpt>
      <trkpt lat="45.93627" lon="4.39412">
        <ele>709.2</ele>
        <time>2022-06-26T09:14:07Z</time>
      </trkpt>
      <trkpt lat="45.93625" lon="4.39418">
        <ele>709.2</ele>
        <time>2022-06-26T09:14:08Z</time>
      </trkpt>
      <trkpt lat="45.93623" lon="4.39424">
        <ele>709.4</ele>
        <time>2022-06-26T09:14:09Z</time>
      </trkpt>
      <trkpt lat="45.93621" lon="4.3943">
        <ele>709.4</ele>
        <time>2022-06-26T09:14:10Z</time>
      </trkpt>
      <trkpt lat="45.93619" lon="4.39437">
        <ele>709.4</ele>
        <time>2022-06-26T09:14:11Z</time>
      </trkpt>
      <trkpt lat="45.93618" lon="4.39443">
        <ele>709.6</ele>
        <time>2022-06-26T09:14:12Z</time>
      </trkpt>
      <trkpt lat="45.93616" lon="4.39449">
        <ele>709.6</ele>
        <time>2022-06-26T09:14:13Z</time>
      </trkpt>
      <trkpt lat="45.93614" lon="4.39456">
        <ele>709.6</ele>
        <time>2022-06-26T09:14:14Z</time>
      </trkpt>
      <trkpt lat="45.93612" lon="4.39463">
        <ele>709.6</ele>
        <time>2022-06-26T09:14:15Z</time>
      </trkpt>
      <trkpt lat="45.9361" lon="4.39469">
        <ele>709.6</ele>
        <time>2022-06-26T09:14:16Z</time>
      </trkpt>
      <trkpt lat="45.93609" lon="4.39476">
        <ele>709.6</ele>
        <time>2022-06-26T09:14:17Z</time>
      </trkpt>
      <trkpt lat="45.93607" lon="4.39482">
        <ele>709.6</ele>
        <time>2022-06-26T09:14:18Z</time>
      </trkpt>
      <trkpt lat="45.93605" lon="4.39488">
        <ele>709.6</ele>
        <time>2022-06-26T09:14:19Z</time>
      </trkpt>
      <trkpt lat="45.93603" lon="4.39493">
        <ele>709.6</ele>
        <time>2022-06-26T09:14:20Z</time>
      </trkpt>
      <trkpt lat="45.93601" lon="4.39498">
        <ele>709.6</ele>
        <time>2022-06-26T09:14:21Z</time>
      </trkpt>
      <trkpt lat="45.93598" lon="4.39503">
        <ele>709.6</ele>
        <time>2022-06-26T09:14:22Z</time>
      </trkpt>
      <trkpt lat="45.93595" lon="4.39507">
        <ele>710</ele>
        <time>2022-06-26T09:14:23Z</time>
      </trkpt>
      <trkpt lat="45.93593" lon="4.39512">
        <ele>710</ele>
        <time>2022-06-26T09:14:24Z</time>
      </trkpt>
      <trkpt lat="45.9359" lon="4.39517">
        <ele>710.2</ele>
        <time>2022-06-26T09:14:25Z</time>
      </trkpt>
      <trkpt lat="45.93587" lon="4.39522">
        <ele>710.2</ele>
        <time>2022-06-26T09:14:26Z</time>
      </trkpt>
      <trkpt lat="45.93583" lon="4.39528">
        <ele>710.6</ele>
        <time>2022-06-26T09:14:27Z</time>
      </trkpt>
      <trkpt lat="45.93581" lon="4.39533">
        <ele>710.6</ele>
        <time>2022-06-26T09:14:28Z</time>
      </trkpt>
      <trkpt lat="45.93578" lon="4.39538">
        <ele>710.8</ele>
        <time>2022-06-26T09:14:29Z</time>
      </trkpt>
      <trkpt lat="45.93576" lon="4.39543">
        <ele>710.8</ele>
        <time>2022-06-26T09:14:30Z</time>
      </trkpt>
      <trkpt lat="45.93575" lon="4.3955">
        <ele>710.8</ele>
        <time>2022-06-26T09:14:31Z</time>
      </trkpt>
      <trkpt lat="45.93573" lon="4.39556">
        <ele>711.2</ele>
        <time>2022-06-26T09:14:32Z</time>
      </trkpt>
      <trkpt lat="45.93571" lon="4.39563">
        <ele>711.2</ele>
        <time>2022-06-26T09:14:33Z</time>
      </trkpt>
      <trkpt lat="45.93569" lon="4.39569">
        <ele>711.2</ele>
        <time>2022-06-26T09:14:34Z</time>
      </trkpt>
      <trkpt lat="45.93567" lon="4.39575">
        <ele>711.4</ele>
        <time>2022-06-26T09:14:35Z</time>
      </trkpt>
      <trkpt lat="45.93566" lon="4.39581">
        <ele>711.6</ele>
        <time>2022-06-26T09:14:36Z</time>
      </trkpt>
      <trkpt lat="45.93564" lon="4.39587">
        <ele>711.6</ele>
        <time>2022-06-26T09:14:37Z</time>
      </trkpt>
      <trkpt lat="45.93562" lon="4.39593">
        <ele>711.6</ele>
        <time>2022-06-26T09:14:38Z</time>
      </trkpt>
      <trkpt lat="45.9356" lon="4.39599">
        <ele>712</ele>
        <time>2022-06-26T09:14:39Z</time>
      </trkpt>
      <trkpt lat="45.93558" lon="4.39606">
        <ele>712</ele>
        <time>2022-06-26T09:14:40Z</time>
      </trkpt>
      <trkpt lat="45.93556" lon="4.39612">
        <ele>712</ele>
        <time>2022-06-26T09:14:41Z</time>
      </trkpt>
      <trkpt lat="45.93554" lon="4.39619">
        <ele>712</ele>
        <time>2022-06-26T09:14:42Z</time>
      </trkpt>
      <trkpt lat="45.93552" lon="4.39625">
        <ele>712.4</ele>
        <time>2022-06-26T09:14:43Z</time>
      </trkpt>
      <trkpt lat="45.9355" lon="4.39632">
        <ele>712.4</ele>
        <time>2022-06-26T09:14:44Z</time>
      </trkpt>
      <trkpt lat="45.93548" lon="4.39638">
        <ele>712.4</ele>
        <time>2022-06-26T09:14:45Z</time>
      </trkpt>
      <trkpt lat="45.93546" lon="4.39644">
        <ele>712.4</ele>
        <time>2022-06-26T09:14:46Z</time>
      </trkpt>
      <trkpt lat="45.93545" lon="4.3965">
        <ele>712.2</ele>
        <time>2022-06-26T09:14:47Z</time>
      </trkpt>
      <trkpt lat="45.93544" lon="4.39656">
        <ele>712.2</ele>
        <time>2022-06-26T09:14:48Z</time>
      </trkpt>
      <trkpt lat="45.93542" lon="4.39662">
        <ele>712.2</ele>
        <time>2022-06-26T09:14:49Z</time>
      </trkpt>
      <trkpt lat="45.9354" lon="4.39668">
        <ele>712.2</ele>
        <time>2022-06-26T09:14:50Z</time>
      </trkpt>
      <trkpt lat="45.93538" lon="4.39673">
        <ele>712.2</ele>
        <time>2022-06-26T09:14:51Z</time>
      </trkpt>
      <trkpt lat="45.93536" lon="4.39679">
        <ele>712.2</ele>
        <time>2022-06-26T09:14:52Z</time>
      </trkpt>
      <trkpt lat="45.93534" lon="4.39685">
        <ele>712.2</ele>
        <time>2022-06-26T09:14:53Z</time>
      </trkpt>
      <trkpt lat="45.93532" lon="4.39692">
        <ele>712.2</ele>
        <time>2022-06-26T09:14:54Z</time>
      </trkpt>
      <trkpt lat="45.9353" lon="4.39698">
        <ele>712.2</ele>
        <time>2022-06-26T09:14:55Z</time>
      </trkpt>
      <trkpt lat="45.93527" lon="4.39703">
        <ele>712.2</ele>
        <time>2022-06-26T09:14:56Z</time>
      </trkpt>
      <trkpt lat="45.93524" lon="4.39709">
        <ele>712.2</ele>
        <time>2022-06-26T09:14:57Z</time>
      </trkpt>
      <trkpt lat="45.9352" lon="4.39715">
        <ele>712.2</ele>
        <time>2022-06-26T09:14:58Z</time>
      </trkpt>
      <trkpt lat="45.93514" lon="4.39721">
        <ele>712.2</ele>
        <time>2022-06-26T09:14:59Z</time>
      </trkpt>
      <trkpt lat="45.9351" lon="4.39725">
        <ele>712.2</ele>
        <time>2022-06-26T09:15:00Z</time>
      </trkpt>
      <trkpt lat="45.93505" lon="4.3973">
        <ele>712.4</ele>
        <time>2022-06-26T09:15:01Z</time>
      </trkpt>
      <trkpt lat="45.93502" lon="4.39733">
        <ele>712.4</ele>
        <time>2022-06-26T09:15:02Z</time>
      </trkpt>
      <trkpt lat="45.93499" lon="4.39736">
        <ele>712.4</ele>
        <time>2022-06-26T09:15:03Z</time>
      </trkpt>
      <trkpt lat="45.93495" lon="4.39739">
        <ele>712.4</ele>
        <time>2022-06-26T09:15:04Z</time>
      </trkpt>
      <trkpt lat="45.9349" lon="4.39742">
        <ele>712.4</ele>
        <time>2022-06-26T09:15:05Z</time>
      </trkpt>
      <trkpt lat="45.93487" lon="4.39744">
        <ele>712.8</ele>
        <time>2022-06-26T09:15:06Z</time>
      </trkpt>
      <trkpt lat="45.93484" lon="4.39747">
        <ele>712.8</ele>
        <time>2022-06-26T09:15:07Z</time>
      </trkpt>
      <trkpt lat="45.93482" lon="4.39749">
        <ele>712.8</ele>
        <time>2022-06-26T09:15:08Z</time>
      </trkpt>
      <trkpt lat="45.93478" lon="4.39752">
        <ele>712.8</ele>
        <time>2022-06-26T09:15:09Z</time>
      </trkpt>
      <trkpt lat="45.93475" lon="4.39754">
        <ele>712.8</ele>
        <time>2022-06-26T09:15:10Z</time>
      </trkpt>
      <trkpt lat="45.93471" lon="4.39757">
        <ele>712.8</ele>
        <time>2022-06-26T09:15:11Z</time>
      </trkpt>
      <trkpt lat="45.93466" lon="4.39761">
        <ele>712.8</ele>
        <time>2022-06-26T09:15:12Z</time>
      </trkpt>
      <trkpt lat="45.93462" lon="4.39765">
        <ele>712.8</ele>
        <time>2022-06-26T09:15:13Z</time>
      </trkpt>
      <trkpt lat="45.93457" lon="4.39769">
        <ele>713</ele>
        <time>2022-06-26T09:15:14Z</time>
      </trkpt>
      <trkpt lat="45.93453" lon="4.39772">
        <ele>713</ele>
        <time>2022-06-26T09:15:15Z</time>
      </trkpt>
      <trkpt lat="45.93448" lon="4.39774">
        <ele>713</ele>
        <time>2022-06-26T09:15:16Z</time>
      </trkpt>
      <trkpt lat="45.93444" lon="4.39777">
        <ele>713</ele>
        <time>2022-06-26T09:15:17Z</time>
      </trkpt>
      <trkpt lat="45.9344" lon="4.39779">
        <ele>713</ele>
        <time>2022-06-26T09:15:18Z</time>
      </trkpt>
      <trkpt lat="45.93436" lon="4.39782">
        <ele>713.2</ele>
        <time>2022-06-26T09:15:19Z</time>
      </trkpt>
      <trkpt lat="45.93432" lon="4.39784">
        <ele>713.4</ele>
        <time>2022-06-26T09:15:20Z</time>
      </trkpt>
      <trkpt lat="45.93427" lon="4.39788">
        <ele>713.4</ele>
        <time>2022-06-26T09:15:21Z</time>
      </trkpt>
      <trkpt lat="45.93422" lon="4.3979">
        <ele>713.4</ele>
        <time>2022-06-26T09:15:22Z</time>
      </trkpt>
      <trkpt lat="45.93418" lon="4.39792">
        <ele>713.6</ele>
        <time>2022-06-26T09:15:23Z</time>
      </trkpt>
      <trkpt lat="45.93413" lon="4.39794">
        <ele>714</ele>
        <time>2022-06-26T09:15:24Z</time>
      </trkpt>
      <trkpt lat="45.93409" lon="4.39795">
        <ele>714</ele>
        <time>2022-06-26T09:15:25Z</time>
      </trkpt>
      <trkpt lat="45.93404" lon="4.39797">
        <ele>714</ele>
        <time>2022-06-26T09:15:26Z</time>
      </trkpt>
      <trkpt lat="45.934" lon="4.398">
        <ele>714</ele>
        <time>2022-06-26T09:15:27Z</time>
      </trkpt>
      <trkpt lat="45.9339" lon="4.39804">
        <ele>714</ele>
        <time>2022-06-26T09:15:28Z</time>
      </trkpt>
      <trkpt lat="45.93386" lon="4.39806">
        <ele>714</ele>
        <time>2022-06-26T09:15:29Z</time>
      </trkpt>
      <trkpt lat="45.93381" lon="4.39809">
        <ele>714</ele>
        <time>2022-06-26T09:15:30Z</time>
      </trkpt>
      <trkpt lat="45.93377" lon="4.39813">
        <ele>714</ele>
        <time>2022-06-26T09:15:31Z</time>
      </trkpt>
      <trkpt lat="45.93372" lon="4.39817">
        <ele>714</ele>
        <time>2022-06-26T09:15:32Z</time>
      </trkpt>
      <trkpt lat="45.93368" lon="4.39822">
        <ele>714</ele>
        <time>2022-06-26T09:15:33Z</time>
      </trkpt>
      <trkpt lat="45.93364" lon="4.39827">
        <ele>714</ele>
        <time>2022-06-26T09:15:34Z</time>
      </trkpt>
      <trkpt lat="45.9336" lon="4.39832">
        <ele>714</ele>
        <time>2022-06-26T09:15:35Z</time>
      </trkpt>
      <trkpt lat="45.93356" lon="4.39836">
        <ele>714.2</ele>
        <time>2022-06-26T09:15:36Z</time>
      </trkpt>
      <trkpt lat="45.93353" lon="4.39842">
        <ele>714.2</ele>
        <time>2022-06-26T09:15:37Z</time>
      </trkpt>
      <trkpt lat="45.9335" lon="4.39848">
        <ele>714.2</ele>
        <time>2022-06-26T09:15:38Z</time>
      </trkpt>
      <trkpt lat="45.93348" lon="4.39855">
        <ele>714.2</ele>
        <time>2022-06-26T09:15:39Z</time>
      </trkpt>
      <trkpt lat="45.93346" lon="4.39861">
        <ele>714.6</ele>
        <time>2022-06-26T09:15:40Z</time>
      </trkpt>
      <trkpt lat="45.93344" lon="4.39868">
        <ele>714.6</ele>
        <time>2022-06-26T09:15:41Z</time>
      </trkpt>
      <trkpt lat="45.93343" lon="4.39875">
        <ele>714.6</ele>
        <time>2022-06-26T09:15:42Z</time>
      </trkpt>
      <trkpt lat="45.93342" lon="4.39882">
        <ele>714.6</ele>
        <time>2022-06-26T09:15:43Z</time>
      </trkpt>
      <trkpt lat="45.9334" lon="4.39888">
        <ele>714.6</ele>
        <time>2022-06-26T09:15:44Z</time>
      </trkpt>
      <trkpt lat="45.93339" lon="4.39895">
        <ele>714.6</ele>
        <time>2022-06-26T09:15:45Z</time>
      </trkpt>
      <trkpt lat="45.93337" lon="4.39902">
        <ele>714.6</ele>
        <time>2022-06-26T09:15:46Z</time>
      </trkpt>
      <trkpt lat="45.93335" lon="4.39908">
        <ele>714.2</ele>
        <time>2022-06-26T09:15:47Z</time>
      </trkpt>
      <trkpt lat="45.93332" lon="4.39914">
        <ele>714.2</ele>
        <time>2022-06-26T09:15:48Z</time>
      </trkpt>
      <trkpt lat="45.93329" lon="4.39919">
        <ele>714.6</ele>
        <time>2022-06-26T09:15:49Z</time>
      </trkpt>
      <trkpt lat="45.93325" lon="4.39925">
        <ele>714.6</ele>
        <time>2022-06-26T09:15:50Z</time>
      </trkpt>
      <trkpt lat="45.93322" lon="4.39931">
        <ele>714.6</ele>
        <time>2022-06-26T09:15:51Z</time>
      </trkpt>
      <trkpt lat="45.93319" lon="4.39937">
        <ele>714.6</ele>
        <time>2022-06-26T09:15:52Z</time>
      </trkpt>
      <trkpt lat="45.93317" lon="4.39943">
        <ele>714.8</ele>
        <time>2022-06-26T09:15:53Z</time>
      </trkpt>
      <trkpt lat="45.93314" lon="4.39949">
        <ele>714.8</ele>
        <time>2022-06-26T09:15:54Z</time>
      </trkpt>
      <trkpt lat="45.93311" lon="4.39955">
        <ele>714.8</ele>
        <time>2022-06-26T09:15:55Z</time>
      </trkpt>
      <trkpt lat="45.93308" lon="4.39962">
        <ele>714.8</ele>
        <time>2022-06-26T09:15:56Z</time>
      </trkpt>
      <trkpt lat="45.93305" lon="4.39968">
        <ele>715</ele>
        <time>2022-06-26T09:15:57Z</time>
      </trkpt>
      <trkpt lat="45.93302" lon="4.39974">
        <ele>715</ele>
        <time>2022-06-26T09:15:58Z</time>
      </trkpt>
      <trkpt lat="45.93299" lon="4.3998">
        <ele>715</ele>
        <time>2022-06-26T09:15:59Z</time>
      </trkpt>
      <trkpt lat="45.93296" lon="4.39986">
        <ele>715</ele>
        <time>2022-06-26T09:16:00Z</time>
      </trkpt>
      <trkpt lat="45.93293" lon="4.39993">
        <ele>715</ele>
        <time>2022-06-26T09:16:01Z</time>
      </trkpt>
      <trkpt lat="45.93289" lon="4.39999">
        <ele>715.2</ele>
        <time>2022-06-26T09:16:02Z</time>
      </trkpt>
      <trkpt lat="45.93286" lon="4.40005">
        <ele>715.2</ele>
        <time>2022-06-26T09:16:03Z</time>
      </trkpt>
      <trkpt lat="45.93282" lon="4.40011">
        <ele>715.2</ele>
        <time>2022-06-26T09:16:04Z</time>
      </trkpt>
      <trkpt lat="45.93279" lon="4.40017">
        <ele>715.4</ele>
        <time>2022-06-26T09:16:05Z</time>
      </trkpt>
      <trkpt lat="45.93275" lon="4.40022">
        <ele>715.4</ele>
        <time>2022-06-26T09:16:06Z</time>
      </trkpt>
      <trkpt lat="45.93272" lon="4.40027">
        <ele>715.4</ele>
        <time>2022-06-26T09:16:07Z</time>
      </trkpt>
      <trkpt lat="45.93268" lon="4.40032">
        <ele>715.4</ele>
        <time>2022-06-26T09:16:08Z</time>
      </trkpt>
      <trkpt lat="45.93264" lon="4.40036">
        <ele>715.8</ele>
        <time>2022-06-26T09:16:09Z</time>
      </trkpt>
      <trkpt lat="45.9326" lon="4.4004">
        <ele>715.8</ele>
        <time>2022-06-26T09:16:10Z</time>
      </trkpt>
      <trkpt lat="45.93256" lon="4.40044">
        <ele>715.8</ele>
        <time>2022-06-26T09:16:11Z</time>
      </trkpt>
      <trkpt lat="45.93252" lon="4.40046">
        <ele>715.8</ele>
        <time>2022-06-26T09:16:12Z</time>
      </trkpt>
      <trkpt lat="45.93247" lon="4.40048">
        <ele>716</ele>
        <time>2022-06-26T09:16:13Z</time>
      </trkpt>
      <trkpt lat="45.93242" lon="4.4005">
        <ele>716</ele>
        <time>2022-06-26T09:16:14Z</time>
      </trkpt>
      <trkpt lat="45.93237" lon="4.40052">
        <ele>716</ele>
        <time>2022-06-26T09:16:15Z</time>
      </trkpt>
      <trkpt lat="45.93232" lon="4.40053">
        <ele>716</ele>
        <time>2022-06-26T09:16:16Z</time>
      </trkpt>
      <trkpt lat="45.93227" lon="4.40054">
        <ele>716</ele>
        <time>2022-06-26T09:16:17Z</time>
      </trkpt>
      <trkpt lat="45.93222" lon="4.40055">
        <ele>716</ele>
        <time>2022-06-26T09:16:18Z</time>
      </trkpt>
      <trkpt lat="45.93217" lon="4.40056">
        <ele>716</ele>
        <time>2022-06-26T09:16:19Z</time>
      </trkpt>
      <trkpt lat="45.93211" lon="4.40057">
        <ele>716.2</ele>
        <time>2022-06-26T09:16:20Z</time>
      </trkpt>
      <trkpt lat="45.93206" lon="4.40058">
        <ele>716.2</ele>
        <time>2022-06-26T09:16:21Z</time>
      </trkpt>
      <trkpt lat="45.93201" lon="4.40058">
        <ele>716.6</ele>
        <time>2022-06-26T09:16:22Z</time>
      </trkpt>
      <trkpt lat="45.93196" lon="4.40058">
        <ele>716.6</ele>
        <time>2022-06-26T09:16:23Z</time>
      </trkpt>
      <trkpt lat="45.93191" lon="4.40058">
        <ele>716.8</ele>
        <time>2022-06-26T09:16:24Z</time>
      </trkpt>
      <trkpt lat="45.93186" lon="4.40057">
        <ele>716.8</ele>
        <time>2022-06-26T09:16:25Z</time>
      </trkpt>
      <trkpt lat="45.9318" lon="4.40056">
        <ele>716.8</ele>
        <time>2022-06-26T09:16:26Z</time>
      </trkpt>
      <trkpt lat="45.93175" lon="4.40055">
        <ele>716.8</ele>
        <time>2022-06-26T09:16:27Z</time>
      </trkpt>
      <trkpt lat="45.9317" lon="4.40054">
        <ele>716.8</ele>
        <time>2022-06-26T09:16:28Z</time>
      </trkpt>
      <trkpt lat="45.93165" lon="4.40053">
        <ele>716.8</ele>
        <time>2022-06-26T09:16:29Z</time>
      </trkpt>
      <trkpt lat="45.9316" lon="4.40052">
        <ele>716.8</ele>
        <time>2022-06-26T09:16:30Z</time>
      </trkpt>
      <trkpt lat="45.93155" lon="4.40051">
        <ele>716.8</ele>
        <time>2022-06-26T09:16:31Z</time>
      </trkpt>
      <trkpt lat="45.9315" lon="4.40051">
        <ele>716.8</ele>
        <time>2022-06-26T09:16:32Z</time>
      </trkpt>
      <trkpt lat="45.93144" lon="4.4005">
        <ele>716.8</ele>
        <time>2022-06-26T09:16:33Z</time>
      </trkpt>
      <trkpt lat="45.93139" lon="4.40049">
        <ele>716.8</ele>
        <time>2022-06-26T09:16:34Z</time>
      </trkpt>
      <trkpt lat="45.93134" lon="4.40048">
        <ele>716.8</ele>
        <time>2022-06-26T09:16:35Z</time>
      </trkpt>
      <trkpt lat="45.93129" lon="4.40047">
        <ele>716.8</ele>
        <time>2022-06-26T09:16:36Z</time>
      </trkpt>
      <trkpt lat="45.93125" lon="4.40046">
        <ele>716.8</ele>
        <time>2022-06-26T09:16:37Z</time>
      </trkpt>
      <trkpt lat="45.9312" lon="4.40045">
        <ele>717</ele>
        <time>2022-06-26T09:16:38Z</time>
      </trkpt>
      <trkpt lat="45.93116" lon="4.40044">
        <ele>717</ele>
        <time>2022-06-26T09:16:39Z</time>
      </trkpt>
      <trkpt lat="45.93112" lon="4.40042">
        <ele>717</ele>
        <time>2022-06-26T09:16:40Z</time>
      </trkpt>
      <trkpt lat="45.93109" lon="4.40039">
        <ele>717</ele>
        <time>2022-06-26T09:16:41Z</time>
      </trkpt>
      <trkpt lat="45.93106" lon="4.40035">
        <ele>717</ele>
        <time>2022-06-26T09:16:42Z</time>
      </trkpt>
      <trkpt lat="45.93104" lon="4.40031">
        <ele>717</ele>
        <time>2022-06-26T09:16:43Z</time>
      </trkpt>
      <trkpt lat="45.93102" lon="4.40027">
        <ele>717</ele>
        <time>2022-06-26T09:16:44Z</time>
      </trkpt>
      <trkpt lat="45.931" lon="4.40022">
        <ele>717</ele>
        <time>2022-06-26T09:16:45Z</time>
      </trkpt>
      <trkpt lat="45.931" lon="4.40017">
        <ele>717</ele>
        <time>2022-06-26T09:16:46Z</time>
      </trkpt>
      <trkpt lat="45.931" lon="4.40012">
        <ele>716.8</ele>
        <time>2022-06-26T09:16:47Z</time>
      </trkpt>
      <trkpt lat="45.931" lon="4.40007">
        <ele>716.8</ele>
        <time>2022-06-26T09:16:48Z</time>
      </trkpt>
      <trkpt lat="45.931" lon="4.40001">
        <ele>716.8</ele>
        <time>2022-06-26T09:16:49Z</time>
      </trkpt>
      <trkpt lat="45.93101" lon="4.39995">
        <ele>716.8</ele>
        <time>2022-06-26T09:16:50Z</time>
      </trkpt>
      <trkpt lat="45.93102" lon="4.39989">
        <ele>716.8</ele>
        <time>2022-06-26T09:16:51Z</time>
      </trkpt>
      <trkpt lat="45.93103" lon="4.39983">
        <ele>716.4</ele>
        <time>2022-06-26T09:16:52Z</time>
      </trkpt>
      <trkpt lat="45.93105" lon="4.39977">
        <ele>716.4</ele>
        <time>2022-06-26T09:16:53Z</time>
      </trkpt>
      <trkpt lat="45.93107" lon="4.3997">
        <ele>716.4</ele>
        <time>2022-06-26T09:16:54Z</time>
      </trkpt>
      <trkpt lat="45.93109" lon="4.39964">
        <ele>716.2</ele>
        <time>2022-06-26T09:16:55Z</time>
      </trkpt>
      <trkpt lat="45.93111" lon="4.39957">
        <ele>716.2</ele>
        <time>2022-06-26T09:16:56Z</time>
      </trkpt>
      <trkpt lat="45.93113" lon="4.3995">
        <ele>716.2</ele>
        <time>2022-06-26T09:16:57Z</time>
      </trkpt>
      <trkpt lat="45.93116" lon="4.39943">
        <ele>716.2</ele>
        <time>2022-06-26T09:16:58Z</time>
      </trkpt>
      <trkpt lat="45.93118" lon="4.39936">
        <ele>716.2</ele>
        <time>2022-06-26T09:16:59Z</time>
      </trkpt>
      <trkpt lat="45.9312" lon="4.39928">
        <ele>716.2</ele>
        <time>2022-06-26T09:17:00Z</time>
      </trkpt>
      <trkpt lat="45.93121" lon="4.39921">
        <ele>716.2</ele>
        <time>2022-06-26T09:17:01Z</time>
      </trkpt>
      <trkpt lat="45.93124" lon="4.39913">
        <ele>716</ele>
        <time>2022-06-26T09:17:02Z</time>
      </trkpt>
      <trkpt lat="45.93125" lon="4.39905">
        <ele>716</ele>
        <time>2022-06-26T09:17:03Z</time>
      </trkpt>
      <trkpt lat="45.93127" lon="4.39898">
        <ele>716</ele>
        <time>2022-06-26T09:17:04Z</time>
      </trkpt>
      <trkpt lat="45.93129" lon="4.39889">
        <ele>715.8</ele>
        <time>2022-06-26T09:17:05Z</time>
      </trkpt>
      <trkpt lat="45.9313" lon="4.39881">
        <ele>715.8</ele>
        <time>2022-06-26T09:17:06Z</time>
      </trkpt>
      <trkpt lat="45.9313" lon="4.39873">
        <ele>715.8</ele>
        <time>2022-06-26T09:17:07Z</time>
      </trkpt>
      <trkpt lat="45.93131" lon="4.39865">
        <ele>715.4</ele>
        <time>2022-06-26T09:17:08Z</time>
      </trkpt>
      <trkpt lat="45.93131" lon="4.39856">
        <ele>715.4</ele>
        <time>2022-06-26T09:17:09Z</time>
      </trkpt>
      <trkpt lat="45.93131" lon="4.39847">
        <ele>715.4</ele>
        <time>2022-06-26T09:17:10Z</time>
      </trkpt>
      <trkpt lat="45.9313" lon="4.39838">
        <ele>715.4</ele>
        <time>2022-06-26T09:17:11Z</time>
      </trkpt>
      <trkpt lat="45.93129" lon="4.39829">
        <ele>715.4</ele>
        <time>2022-06-26T09:17:12Z</time>
      </trkpt>
      <trkpt lat="45.93128" lon="4.3982">
        <ele>715.4</ele>
        <time>2022-06-26T09:17:13Z</time>
      </trkpt>
      <trkpt lat="45.93126" lon="4.39811">
        <ele>715.4</ele>
        <time>2022-06-26T09:17:14Z</time>
      </trkpt>
      <trkpt lat="45.93124" lon="4.39803">
        <ele>715.2</ele>
        <time>2022-06-26T09:17:15Z</time>
      </trkpt>
      <trkpt lat="45.93121" lon="4.39795">
        <ele>715.2</ele>
        <time>2022-06-26T09:17:16Z</time>
      </trkpt>
      <trkpt lat="45.93117" lon="4.39788">
        <ele>715.2</ele>
        <time>2022-06-26T09:17:17Z</time>
      </trkpt>
      <trkpt lat="45.93114" lon="4.39781">
        <ele>715.2</ele>
        <time>2022-06-26T09:17:18Z</time>
      </trkpt>
      <trkpt lat="45.9311" lon="4.39774">
        <ele>715</ele>
        <time>2022-06-26T09:17:19Z</time>
      </trkpt>
      <trkpt lat="45.93107" lon="4.39767">
        <ele>715</ele>
        <time>2022-06-26T09:17:20Z</time>
      </trkpt>
      <trkpt lat="45.93104" lon="4.39759">
        <ele>714.8</ele>
        <time>2022-06-26T09:17:21Z</time>
      </trkpt>
      <trkpt lat="45.93102" lon="4.3975">
        <ele>714.8</ele>
        <time>2022-06-26T09:17:22Z</time>
      </trkpt>
      <trkpt lat="45.931" lon="4.39741">
        <ele>714.8</ele>
        <time>2022-06-26T09:17:23Z</time>
      </trkpt>
      <trkpt lat="45.93099" lon="4.39732">
        <ele>714.8</ele>
        <time>2022-06-26T09:17:24Z</time>
      </trkpt>
      <trkpt lat="45.93098" lon="4.39723">
        <ele>714.6</ele>
        <time>2022-06-26T09:17:25Z</time>
      </trkpt>
      <trkpt lat="45.93098" lon="4.39713">
        <ele>714.6</ele>
        <time>2022-06-26T09:17:26Z</time>
      </trkpt>
      <trkpt lat="45.93098" lon="4.39704">
        <ele>714.6</ele>
        <time>2022-06-26T09:17:27Z</time>
      </trkpt>
      <trkpt lat="45.93099" lon="4.39695">
        <ele>714.2</ele>
        <time>2022-06-26T09:17:28Z</time>
      </trkpt>
      <trkpt lat="45.931" lon="4.39685">
        <ele>714</ele>
        <time>2022-06-26T09:17:29Z</time>
      </trkpt>
      <trkpt lat="45.93102" lon="4.39676">
        <ele>714</ele>
        <time>2022-06-26T09:17:30Z</time>
      </trkpt>
      <trkpt lat="45.93104" lon="4.39667">
        <ele>714</ele>
        <time>2022-06-26T09:17:31Z</time>
      </trkpt>
      <trkpt lat="45.93105" lon="4.39658">
        <ele>713.8</ele>
        <time>2022-06-26T09:17:32Z</time>
      </trkpt>
      <trkpt lat="45.93107" lon="4.39649">
        <ele>713.8</ele>
        <time>2022-06-26T09:17:33Z</time>
      </trkpt>
      <trkpt lat="45.9311" lon="4.39641">
        <ele>713.8</ele>
        <time>2022-06-26T09:17:34Z</time>
      </trkpt>
      <trkpt lat="45.93112" lon="4.39632">
        <ele>713.4</ele>
        <time>2022-06-26T09:17:35Z</time>
      </trkpt>
      <trkpt lat="45.93115" lon="4.39625">
        <ele>713.4</ele>
        <time>2022-06-26T09:17:36Z</time>
      </trkpt>
      <trkpt lat="45.93119" lon="4.39617">
        <ele>713</ele>
        <time>2022-06-26T09:17:37Z</time>
      </trkpt>
      <trkpt lat="45.93123" lon="4.3961">
        <ele>713</ele>
        <time>2022-06-26T09:17:38Z</time>
      </trkpt>
      <trkpt lat="45.93127" lon="4.39603">
        <ele>713</ele>
        <time>2022-06-26T09:17:39Z</time>
      </trkpt>
      <trkpt lat="45.93131" lon="4.39595">
        <ele>713</ele>
        <time>2022-06-26T09:17:40Z</time>
      </trkpt>
      <trkpt lat="45.93135" lon="4.39588">
        <ele>713</ele>
        <time>2022-06-26T09:17:41Z</time>
      </trkpt>
      <trkpt lat="45.93139" lon="4.3958">
        <ele>713</ele>
        <time>2022-06-26T09:17:42Z</time>
      </trkpt>
      <trkpt lat="45.93143" lon="4.39572">
        <ele>712.8</ele>
        <time>2022-06-26T09:17:43Z</time>
      </trkpt>
      <trkpt lat="45.93146" lon="4.39564">
        <ele>712.8</ele>
        <time>2022-06-26T09:17:44Z</time>
      </trkpt>
      <trkpt lat="45.9315" lon="4.39556">
        <ele>712.8</ele>
        <time>2022-06-26T09:17:45Z</time>
      </trkpt>
      <trkpt lat="45.93153" lon="4.39547">
        <ele>712.8</ele>
        <time>2022-06-26T09:17:46Z</time>
      </trkpt>
      <trkpt lat="45.93157" lon="4.39539">
        <ele>712.8</ele>
        <time>2022-06-26T09:17:47Z</time>
      </trkpt>
      <trkpt lat="45.9316" lon="4.3953">
        <ele>712.8</ele>
        <time>2022-06-26T09:17:48Z</time>
      </trkpt>
      <trkpt lat="45.93163" lon="4.39521">
        <ele>712.8</ele>
        <time>2022-06-26T09:17:49Z</time>
      </trkpt>
      <trkpt lat="45.93166" lon="4.39512">
        <ele>712.6</ele>
        <time>2022-06-26T09:17:50Z</time>
      </trkpt>
      <trkpt lat="45.93169" lon="4.39503">
        <ele>712.6</ele>
        <time>2022-06-26T09:17:51Z</time>
      </trkpt>
      <trkpt lat="45.93172" lon="4.39494">
        <ele>712.6</ele>
        <time>2022-06-26T09:17:52Z</time>
      </trkpt>
      <trkpt lat="45.93175" lon="4.39485">
        <ele>712.4</ele>
        <time>2022-06-26T09:17:53Z</time>
      </trkpt>
      <trkpt lat="45.93178" lon="4.39476">
        <ele>712.4</ele>
        <time>2022-06-26T09:17:54Z</time>
      </trkpt>
      <trkpt lat="45.9318" lon="4.39468">
        <ele>712.2</ele>
        <time>2022-06-26T09:17:55Z</time>
      </trkpt>
      <trkpt lat="45.93183" lon="4.39459">
        <ele>712.2</ele>
        <time>2022-06-26T09:17:56Z</time>
      </trkpt>
      <trkpt lat="45.93185" lon="4.3945">
        <ele>711.8</ele>
        <time>2022-06-26T09:17:57Z</time>
      </trkpt>
      <trkpt lat="45.93187" lon="4.39442">
        <ele>711.8</ele>
        <time>2022-06-26T09:17:58Z</time>
      </trkpt>
      <trkpt lat="45.93188" lon="4.39433">
        <ele>711.8</ele>
        <time>2022-06-26T09:17:59Z</time>
      </trkpt>
      <trkpt lat="45.93189" lon="4.39424">
        <ele>711.8</ele>
        <time>2022-06-26T09:18:00Z</time>
      </trkpt>
      <trkpt lat="45.9319" lon="4.39414">
        <ele>711.8</ele>
        <time>2022-06-26T09:18:01Z</time>
      </trkpt>
      <trkpt lat="45.9319" lon="4.39405">
        <ele>711.8</ele>
        <time>2022-06-26T09:18:02Z</time>
      </trkpt>
      <trkpt lat="45.9319" lon="4.39396">
        <ele>711.8</ele>
        <time>2022-06-26T09:18:03Z</time>
      </trkpt>
      <trkpt lat="45.9319" lon="4.39387">
        <ele>711.8</ele>
        <time>2022-06-26T09:18:04Z</time>
      </trkpt>
      <trkpt lat="45.9319" lon="4.39377">
        <ele>711.8</ele>
        <time>2022-06-26T09:18:05Z</time>
      </trkpt>
      <trkpt lat="45.9319" lon="4.39368">
        <ele>711.8</ele>
        <time>2022-06-26T09:18:06Z</time>
      </trkpt>
      <trkpt lat="45.9319" lon="4.39358">
        <ele>711.8</ele>
        <time>2022-06-26T09:18:07Z</time>
      </trkpt>
      <trkpt lat="45.9319" lon="4.39349">
        <ele>711.8</ele>
        <time>2022-06-26T09:18:08Z</time>
      </trkpt>
      <trkpt lat="45.9319" lon="4.3934">
        <ele>711.8</ele>
        <time>2022-06-26T09:18:09Z</time>
      </trkpt>
      <trkpt lat="45.9319" lon="4.3933">
        <ele>711.8</ele>
        <time>2022-06-26T09:18:10Z</time>
      </trkpt>
      <trkpt lat="45.93191" lon="4.39321">
        <ele>711.8</ele>
        <time>2022-06-26T09:18:11Z</time>
      </trkpt>
      <trkpt lat="45.93192" lon="4.39313">
        <ele>711.8</ele>
        <time>2022-06-26T09:18:12Z</time>
      </trkpt>
      <trkpt lat="45.93192" lon="4.39305">
        <ele>712</ele>
        <time>2022-06-26T09:18:13Z</time>
      </trkpt>
      <trkpt lat="45.93193" lon="4.39298">
        <ele>712</ele>
        <time>2022-06-26T09:18:14Z</time>
      </trkpt>
      <trkpt lat="45.93195" lon="4.39292">
        <ele>712</ele>
        <time>2022-06-26T09:18:15Z</time>
      </trkpt>
      <trkpt lat="45.93196" lon="4.39286">
        <ele>712.4</ele>
        <time>2022-06-26T09:18:16Z</time>
      </trkpt>
      <trkpt lat="45.93197" lon="4.39281">
        <ele>712.4</ele>
        <time>2022-06-26T09:18:17Z</time>
      </trkpt>
      <trkpt lat="45.93198" lon="4.39276">
        <ele>712.8</ele>
        <time>2022-06-26T09:18:18Z</time>
      </trkpt>
      <trkpt lat="45.93199" lon="4.39272">
        <ele>713.2</ele>
        <time>2022-06-26T09:18:19Z</time>
      </trkpt>
      <trkpt lat="45.932" lon="4.39267">
        <ele>713.6</ele>
        <time>2022-06-26T09:18:20Z</time>
      </trkpt>
      <trkpt lat="45.93201" lon="4.39263">
        <ele>713.6</ele>
        <time>2022-06-26T09:18:21Z</time>
      </trkpt>
      <trkpt lat="45.93201" lon="4.39259">
        <ele>714.2</ele>
        <time>2022-06-26T09:18:22Z</time>
      </trkpt>
      <trkpt lat="45.93202" lon="4.39255">
        <ele>714.6</ele>
        <time>2022-06-26T09:18:23Z</time>
      </trkpt>
      <trkpt lat="45.93202" lon="4.39251">
        <ele>715</ele>
        <time>2022-06-26T09:18:24Z</time>
      </trkpt>
      <trkpt lat="45.93203" lon="4.39247">
        <ele>715.2</ele>
        <time>2022-06-26T09:18:25Z</time>
      </trkpt>
      <trkpt lat="45.93204" lon="4.39244">
        <ele>715.2</ele>
        <time>2022-06-26T09:18:26Z</time>
      </trkpt>
      <trkpt lat="45.93204" lon="4.39241">
        <ele>715.6</ele>
        <time>2022-06-26T09:18:27Z</time>
      </trkpt>
      <trkpt lat="45.93205" lon="4.39238">
        <ele>716</ele>
        <time>2022-06-26T09:18:28Z</time>
      </trkpt>
      <trkpt lat="45.93205" lon="4.39235">
        <ele>716</ele>
        <time>2022-06-26T09:18:29Z</time>
      </trkpt>
      <trkpt lat="45.93206" lon="4.39231">
        <ele>716.4</ele>
        <time>2022-06-26T09:18:30Z</time>
      </trkpt>
      <trkpt lat="45.93206" lon="4.39228">
        <ele>716.4</ele>
        <time>2022-06-26T09:18:31Z</time>
      </trkpt>
      <trkpt lat="45.93206" lon="4.39225">
        <ele>716.6</ele>
        <time>2022-06-26T09:18:32Z</time>
      </trkpt>
      <trkpt lat="45.93206" lon="4.39222">
        <ele>717</ele>
        <time>2022-06-26T09:18:33Z</time>
      </trkpt>
      <trkpt lat="45.93206" lon="4.39218">
        <ele>717.4</ele>
        <time>2022-06-26T09:18:34Z</time>
      </trkpt>
      <trkpt lat="45.93206" lon="4.39215">
        <ele>717.4</ele>
        <time>2022-06-26T09:18:35Z</time>
      </trkpt>
      <trkpt lat="45.93206" lon="4.39212">
        <ele>717.6</ele>
        <time>2022-06-26T09:18:36Z</time>
      </trkpt>
      <trkpt lat="45.93206" lon="4.3921">
        <ele>718.2</ele>
        <time>2022-06-26T09:18:37Z</time>
      </trkpt>
      <trkpt lat="45.93206" lon="4.39207">
        <ele>718.4</ele>
        <time>2022-06-26T09:18:38Z</time>
      </trkpt>
      <trkpt lat="45.93206" lon="4.39205">
        <ele>718.4</ele>
        <time>2022-06-26T09:18:39Z</time>
      </trkpt>
      <trkpt lat="45.93207" lon="4.39204">
        <ele>718.4</ele>
        <time>2022-06-26T09:18:40Z</time>
      </trkpt>
      <trkpt lat="45.93207" lon="4.39202">
        <ele>719.2</ele>
        <time>2022-06-26T09:18:41Z</time>
      </trkpt>
      <trkpt lat="45.93207" lon="4.392">
        <ele>719.8</ele>
        <time>2022-06-26T09:18:42Z</time>
      </trkpt>
      <trkpt lat="45.93206" lon="4.39198">
        <ele>720.4</ele>
        <time>2022-06-26T09:18:43Z</time>
      </trkpt>
      <trkpt lat="45.93206" lon="4.39197">
        <ele>721</ele>
        <time>2022-06-26T09:18:44Z</time>
      </trkpt>
      <trkpt lat="45.93206" lon="4.39195">
        <ele>721.8</ele>
        <time>2022-06-26T09:18:45Z</time>
      </trkpt>
      <trkpt lat="45.93205" lon="4.39194">
        <ele>722.8</ele>
        <time>2022-06-26T09:18:46Z</time>
      </trkpt>
      <trkpt lat="45.93205" lon="4.39192">
        <ele>723.4</ele>
        <time>2022-06-26T09:18:47Z</time>
      </trkpt>
      <trkpt lat="45.93204" lon="4.3919">
        <ele>724.6</ele>
        <time>2022-06-26T09:18:48Z</time>
      </trkpt>
      <trkpt lat="45.93203" lon="4.39188">
        <ele>724.6</ele>
        <time>2022-06-26T09:18:49Z</time>
      </trkpt>
      <trkpt lat="45.93201" lon="4.39186">
        <ele>724.8</ele>
        <time>2022-06-26T09:18:50Z</time>
      </trkpt>
      <trkpt lat="45.93199" lon="4.39185">
        <ele>725.2</ele>
        <time>2022-06-26T09:18:51Z</time>
      </trkpt>
      <trkpt lat="45.93197" lon="4.39183">
        <ele>725.2</ele>
        <time>2022-06-26T09:18:52Z</time>
      </trkpt>
      <trkpt lat="45.93196" lon="4.39181">
        <ele>725</ele>
        <time>2022-06-26T09:18:53Z</time>
      </trkpt>
      <trkpt lat="45.93194" lon="4.39179">
        <ele>725</ele>
        <time>2022-06-26T09:18:54Z</time>
      </trkpt>
      <trkpt lat="45.93191" lon="4.39177">
        <ele>725</ele>
        <time>2022-06-26T09:18:55Z</time>
      </trkpt>
      <trkpt lat="45.93189" lon="4.39175">
        <ele>725</ele>
        <time>2022-06-26T09:18:56Z</time>
      </trkpt>
      <trkpt lat="45.93187" lon="4.39173">
        <ele>725.6</ele>
        <time>2022-06-26T09:18:57Z</time>
      </trkpt>
      <trkpt lat="45.93185" lon="4.39172">
        <ele>725.6</ele>
        <time>2022-06-26T09:18:58Z</time>
      </trkpt>
      <trkpt lat="45.93183" lon="4.3917">
        <ele>725.8</ele>
        <time>2022-06-26T09:18:59Z</time>
      </trkpt>
      <trkpt lat="45.93181" lon="4.39169">
        <ele>725.8</ele>
        <time>2022-06-26T09:19:00Z</time>
      </trkpt>
      <trkpt lat="45.93178" lon="4.39168">
        <ele>726.2</ele>
        <time>2022-06-26T09:19:01Z</time>
      </trkpt>
      <trkpt lat="45.93176" lon="4.39167">
        <ele>726.2</ele>
        <time>2022-06-26T09:19:02Z</time>
      </trkpt>
      <trkpt lat="45.93173" lon="4.39165">
        <ele>726.2</ele>
        <time>2022-06-26T09:19:03Z</time>
      </trkpt>
      <trkpt lat="45.93171" lon="4.39164">
        <ele>726.2</ele>
        <time>2022-06-26T09:19:04Z</time>
      </trkpt>
      <trkpt lat="45.93168" lon="4.39163">
        <ele>725.8</ele>
        <time>2022-06-26T09:19:05Z</time>
      </trkpt>
      <trkpt lat="45.93166" lon="4.39162">
        <ele>725.8</ele>
        <time>2022-06-26T09:19:06Z</time>
      </trkpt>
      <trkpt lat="45.93164" lon="4.39161">
        <ele>725.8</ele>
        <time>2022-06-26T09:19:07Z</time>
      </trkpt>
      <trkpt lat="45.93162" lon="4.3916">
        <ele>726.6</ele>
        <time>2022-06-26T09:19:08Z</time>
      </trkpt>
      <trkpt lat="45.9316" lon="4.39159">
        <ele>726.8</ele>
        <time>2022-06-26T09:19:09Z</time>
      </trkpt>
      <trkpt lat="45.93158" lon="4.39157">
        <ele>727.2</ele>
        <time>2022-06-26T09:19:10Z</time>
      </trkpt>
      <trkpt lat="45.93156" lon="4.39156">
        <ele>727.2</ele>
        <time>2022-06-26T09:19:11Z</time>
      </trkpt>
      <trkpt lat="45.93154" lon="4.39155">
        <ele>727.4</ele>
        <time>2022-06-26T09:19:12Z</time>
      </trkpt>
      <trkpt lat="45.93151" lon="4.39154">
        <ele>727.4</ele>
        <time>2022-06-26T09:19:13Z</time>
      </trkpt>
      <trkpt lat="45.93149" lon="4.39154">
        <ele>728</ele>
        <time>2022-06-26T09:19:14Z</time>
      </trkpt>
      <trkpt lat="45.93148" lon="4.39153">
        <ele>728</ele>
        <time>2022-06-26T09:19:15Z</time>
      </trkpt>
      <trkpt lat="45.93146" lon="4.39153">
        <ele>728</ele>
        <time>2022-06-26T09:19:16Z</time>
      </trkpt>
      <trkpt lat="45.93144" lon="4.39153">
        <ele>728</ele>
        <time>2022-06-26T09:19:17Z</time>
      </trkpt>
      <trkpt lat="45.93142" lon="4.39152">
        <ele>728.2</ele>
        <time>2022-06-26T09:19:18Z</time>
      </trkpt>
      <trkpt lat="45.9314" lon="4.39151">
        <ele>728.2</ele>
        <time>2022-06-26T09:19:19Z</time>
      </trkpt>
      <trkpt lat="45.93139" lon="4.3915">
        <ele>728.6</ele>
        <time>2022-06-26T09:19:20Z</time>
      </trkpt>
      <trkpt lat="45.93137" lon="4.3915">
        <ele>728.6</ele>
        <time>2022-06-26T09:19:21Z</time>
      </trkpt>
      <trkpt lat="45.93135" lon="4.39149">
        <ele>728.6</ele>
        <time>2022-06-26T09:19:22Z</time>
      </trkpt>
      <trkpt lat="45.93134" lon="4.39148">
        <ele>728.6</ele>
        <time>2022-06-26T09:19:23Z</time>
      </trkpt>
      <trkpt lat="45.93132" lon="4.39147">
        <ele>728.6</ele>
        <time>2022-06-26T09:19:25Z</time>
      </trkpt>
      <trkpt lat="45.93129" lon="4.39144">
        <ele>729</ele>
        <time>2022-06-26T09:19:26Z</time>
      </trkpt>
      <trkpt lat="45.93127" lon="4.39142">
        <ele>729.4</ele>
        <time>2022-06-26T09:19:27Z</time>
      </trkpt>
      <trkpt lat="45.93126" lon="4.3914">
        <ele>729.4</ele>
        <time>2022-06-26T09:19:28Z</time>
      </trkpt>
      <trkpt lat="45.93125" lon="4.3914">
        <ele>729.8</ele>
        <time>2022-06-26T09:19:29Z</time>
      </trkpt>
      <trkpt lat="45.93125" lon="4.39139">
        <ele>730.4</ele>
        <time>2022-06-26T09:19:30Z</time>
      </trkpt>
      <trkpt lat="45.93112" lon="4.39122">
        <ele>736.8</ele>
        <time>2022-06-26T09:21:01Z</time>
      </trkpt>
      <trkpt lat="45.93111" lon="4.3912">
        <ele>737</ele>
        <time>2022-06-26T09:21:02Z</time>
      </trkpt>
      <trkpt lat="45.93109" lon="4.39118">
        <ele>737</ele>
        <time>2022-06-26T09:21:03Z</time>
      </trkpt>
      <trkpt lat="45.93107" lon="4.39116">
        <ele>737.4</ele>
        <time>2022-06-26T09:21:04Z</time>
      </trkpt>
      <trkpt lat="45.93105" lon="4.39114">
        <ele>737.4</ele>
        <time>2022-06-26T09:21:05Z</time>
      </trkpt>
      <trkpt lat="45.93101" lon="4.39109">
        <ele>737.6</ele>
        <time>2022-06-26T09:21:13Z</time>
      </trkpt>
      <trkpt lat="45.931" lon="4.39108">
        <ele>737.8</ele>
        <time>2022-06-26T09:21:14Z</time>
      </trkpt>
      <trkpt lat="45.93099" lon="4.39106">
        <ele>737.8</ele>
        <time>2022-06-26T09:21:15Z</time>
      </trkpt>
      <trkpt lat="45.93097" lon="4.39104">
        <ele>737.8</ele>
        <time>2022-06-26T09:21:16Z</time>
      </trkpt>
      <trkpt lat="45.93096" lon="4.39102">
        <ele>738.2</ele>
        <time>2022-06-26T09:21:17Z</time>
      </trkpt>
      <trkpt lat="45.93095" lon="4.39099">
        <ele>738.2</ele>
        <time>2022-06-26T09:21:18Z</time>
      </trkpt>
      <trkpt lat="45.93094" lon="4.39096">
        <ele>738.2</ele>
        <time>2022-06-26T09:21:19Z</time>
      </trkpt>
      <trkpt lat="45.93093" lon="4.39094">
        <ele>738.4</ele>
        <time>2022-06-26T09:21:20Z</time>
      </trkpt>
      <trkpt lat="45.93092" lon="4.39091">
        <ele>738.4</ele>
        <time>2022-06-26T09:21:21Z</time>
      </trkpt>
      <trkpt lat="45.93091" lon="4.39088">
        <ele>738.4</ele>
        <time>2022-06-26T09:21:22Z</time>
      </trkpt>
      <trkpt lat="45.93089" lon="4.39085">
        <ele>738.4</ele>
        <time>2022-06-26T09:21:23Z</time>
      </trkpt>
      <trkpt lat="45.93087" lon="4.39083">
        <ele>738.6</ele>
        <time>2022-06-26T09:21:24Z</time>
      </trkpt>
      <trkpt lat="45.93085" lon="4.3908">
        <ele>738.6</ele>
        <time>2022-06-26T09:21:25Z</time>
      </trkpt>
      <trkpt lat="45.93084" lon="4.39077">
        <ele>738.6</ele>
        <time>2022-06-26T09:21:26Z</time>
      </trkpt>
      <trkpt lat="45.93082" lon="4.39074">
        <ele>738.6</ele>
        <time>2022-06-26T09:21:27Z</time>
      </trkpt>
      <trkpt lat="45.93081" lon="4.39071">
        <ele>738.6</ele>
        <time>2022-06-26T09:21:28Z</time>
      </trkpt>
      <trkpt lat="45.93079" lon="4.39067">
        <ele>738.8</ele>
        <time>2022-06-26T09:21:29Z</time>
      </trkpt>
      <trkpt lat="45.93077" lon="4.39064">
        <ele>738.8</ele>
        <time>2022-06-26T09:21:30Z</time>
      </trkpt>
      <trkpt lat="45.93075" lon="4.3906">
        <ele>738.8</ele>
        <time>2022-06-26T09:21:31Z</time>
      </trkpt>
      <trkpt lat="45.93073" lon="4.39056">
        <ele>739</ele>
        <time>2022-06-26T09:21:32Z</time>
      </trkpt>
      <trkpt lat="45.93071" lon="4.39053">
        <ele>739</ele>
        <time>2022-06-26T09:21:33Z</time>
      </trkpt>
      <trkpt lat="45.93068" lon="4.39049">
        <ele>739</ele>
        <time>2022-06-26T09:21:34Z</time>
      </trkpt>
      <trkpt lat="45.93066" lon="4.39046">
        <ele>739</ele>
        <time>2022-06-26T09:21:35Z</time>
      </trkpt>
      <trkpt lat="45.93063" lon="4.39042">
        <ele>739.2</ele>
        <time>2022-06-26T09:21:36Z</time>
      </trkpt>
      <trkpt lat="45.9306" lon="4.39039">
        <ele>739.2</ele>
        <time>2022-06-26T09:21:37Z</time>
      </trkpt>
      <trkpt lat="45.93058" lon="4.39036">
        <ele>739.2</ele>
        <time>2022-06-26T09:21:38Z</time>
      </trkpt>
      <trkpt lat="45.93055" lon="4.39033">
        <ele>739.2</ele>
        <time>2022-06-26T09:21:39Z</time>
      </trkpt>
      <trkpt lat="45.93053" lon="4.3903">
        <ele>739.4</ele>
        <time>2022-06-26T09:21:40Z</time>
      </trkpt>
      <trkpt lat="45.9305" lon="4.39028">
        <ele>739.4</ele>
        <time>2022-06-26T09:21:41Z</time>
      </trkpt>
      <trkpt lat="45.93047" lon="4.39024">
        <ele>739.4</ele>
        <time>2022-06-26T09:21:42Z</time>
      </trkpt>
      <trkpt lat="45.93044" lon="4.39022">
        <ele>739.4</ele>
        <time>2022-06-26T09:21:43Z</time>
      </trkpt>
      <trkpt lat="45.9304" lon="4.3902">
        <ele>739.4</ele>
        <time>2022-06-26T09:21:44Z</time>
      </trkpt>
      <trkpt lat="45.93036" lon="4.39019">
        <ele>739.4</ele>
        <time>2022-06-26T09:21:45Z</time>
      </trkpt>
      <trkpt lat="45.93032" lon="4.39019">
        <ele>739.4</ele>
        <time>2022-06-26T09:21:46Z</time>
      </trkpt>
      <trkpt lat="45.93028" lon="4.39019">
        <ele>739.2</ele>
        <time>2022-06-26T09:21:47Z</time>
      </trkpt>
      <trkpt lat="45.93024" lon="4.39019">
        <ele>739.2</ele>
        <time>2022-06-26T09:21:48Z</time>
      </trkpt>
      <trkpt lat="45.9302" lon="4.39019">
        <ele>739.2</ele>
        <time>2022-06-26T09:21:49Z</time>
      </trkpt>
      <trkpt lat="45.93015" lon="4.39019">
        <ele>739.2</ele>
        <time>2022-06-26T09:21:50Z</time>
      </trkpt>
      <trkpt lat="45.9301" lon="4.3902">
        <ele>739</ele>
        <time>2022-06-26T09:21:51Z</time>
      </trkpt>
      <trkpt lat="45.93006" lon="4.39019">
        <ele>739</ele>
        <time>2022-06-26T09:21:52Z</time>
      </trkpt>
      <trkpt lat="45.93" lon="4.39019">
        <ele>738.8</ele>
        <time>2022-06-26T09:21:53Z</time>
      </trkpt>
      <trkpt lat="45.92995" lon="4.39018">
        <ele>738.8</ele>
        <time>2022-06-26T09:21:54Z</time>
      </trkpt>
      <trkpt lat="45.9299" lon="4.39016">
        <ele>738.6</ele>
        <time>2022-06-26T09:21:55Z</time>
      </trkpt>
      <trkpt lat="45.92985" lon="4.39014">
        <ele>738.6</ele>
        <time>2022-06-26T09:21:56Z</time>
      </trkpt>
      <trkpt lat="45.9298" lon="4.39012">
        <ele>738.2</ele>
        <time>2022-06-26T09:21:57Z</time>
      </trkpt>
      <trkpt lat="45.92975" lon="4.39009">
        <ele>738.2</ele>
        <time>2022-06-26T09:21:58Z</time>
      </trkpt>
      <trkpt lat="45.9297" lon="4.39006">
        <ele>737.8</ele>
        <time>2022-06-26T09:21:59Z</time>
      </trkpt>
      <trkpt lat="45.92966" lon="4.39002">
        <ele>737.8</ele>
        <time>2022-06-26T09:22:00Z</time>
      </trkpt>
      <trkpt lat="45.92962" lon="4.38999">
        <ele>737.6</ele>
        <time>2022-06-26T09:22:01Z</time>
      </trkpt>
      <trkpt lat="45.92959" lon="4.38996">
        <ele>737.6</ele>
        <time>2022-06-26T09:22:02Z</time>
      </trkpt>
      <trkpt lat="45.92956" lon="4.38993">
        <ele>737.2</ele>
        <time>2022-06-26T09:22:03Z</time>
      </trkpt>
      <trkpt lat="45.92953" lon="4.3899">
        <ele>737.2</ele>
        <time>2022-06-26T09:22:04Z</time>
      </trkpt>
      <trkpt lat="45.92951" lon="4.38987">
        <ele>737.2</ele>
        <time>2022-06-26T09:22:05Z</time>
      </trkpt>
      <trkpt lat="45.92948" lon="4.38984">
        <ele>736.8</ele>
        <time>2022-06-26T09:22:06Z</time>
      </trkpt>
      <trkpt lat="45.92946" lon="4.3898">
        <ele>736.8</ele>
        <time>2022-06-26T09:22:07Z</time>
      </trkpt>
      <trkpt lat="45.92942" lon="4.38976">
        <ele>736.6</ele>
        <time>2022-06-26T09:22:08Z</time>
      </trkpt>
      <trkpt lat="45.92939" lon="4.38972">
        <ele>736.4</ele>
        <time>2022-06-26T09:22:09Z</time>
      </trkpt>
      <trkpt lat="45.92936" lon="4.38968">
        <ele>736.2</ele>
        <time>2022-06-26T09:22:10Z</time>
      </trkpt>
      <trkpt lat="45.92932" lon="4.38964">
        <ele>735.8</ele>
        <time>2022-06-26T09:22:11Z</time>
      </trkpt>
      <trkpt lat="45.92929" lon="4.38959">
        <ele>735.4</ele>
        <time>2022-06-26T09:22:12Z</time>
      </trkpt>
      <trkpt lat="45.92925" lon="4.38954">
        <ele>734.8</ele>
        <time>2022-06-26T09:22:13Z</time>
      </trkpt>
      <trkpt lat="45.92922" lon="4.38947">
        <ele>734.2</ele>
        <time>2022-06-26T09:22:14Z</time>
      </trkpt>
      <trkpt lat="45.92918" lon="4.38941">
        <ele>733.8</ele>
        <time>2022-06-26T09:22:15Z</time>
      </trkpt>
      <trkpt lat="45.92914" lon="4.38934">
        <ele>733</ele>
        <time>2022-06-26T09:22:16Z</time>
      </trkpt>
      <trkpt lat="45.92911" lon="4.38926">
        <ele>732.4</ele>
        <time>2022-06-26T09:22:17Z</time>
      </trkpt>
      <trkpt lat="45.92907" lon="4.38919">
        <ele>731.4</ele>
        <time>2022-06-26T09:22:18Z</time>
      </trkpt>
      <trkpt lat="45.92903" lon="4.38912">
        <ele>730.6</ele>
        <time>2022-06-26T09:22:19Z</time>
      </trkpt>
      <trkpt lat="45.92898" lon="4.38904">
        <ele>729.6</ele>
        <time>2022-06-26T09:22:20Z</time>
      </trkpt>
      <trkpt lat="45.92894" lon="4.38896">
        <ele>728.6</ele>
        <time>2022-06-26T09:22:21Z</time>
      </trkpt>
      <trkpt lat="45.9289" lon="4.38888">
        <ele>727.4</ele>
        <time>2022-06-26T09:22:22Z</time>
      </trkpt>
      <trkpt lat="45.92886" lon="4.3888">
        <ele>726.4</ele>
        <time>2022-06-26T09:22:23Z</time>
      </trkpt>
      <trkpt lat="45.92883" lon="4.38872">
        <ele>725.4</ele>
        <time>2022-06-26T09:22:24Z</time>
      </trkpt>
      <trkpt lat="45.9288" lon="4.38864">
        <ele>724.6</ele>
        <time>2022-06-26T09:22:25Z</time>
      </trkpt>
      <trkpt lat="45.92877" lon="4.38856">
        <ele>723.8</ele>
        <time>2022-06-26T09:22:26Z</time>
      </trkpt>
      <trkpt lat="45.92874" lon="4.38849">
        <ele>723</ele>
        <time>2022-06-26T09:22:27Z</time>
      </trkpt>
      <trkpt lat="45.92871" lon="4.38843">
        <ele>722.2</ele>
        <time>2022-06-26T09:22:28Z</time>
      </trkpt>
      <trkpt lat="45.92869" lon="4.38838">
        <ele>721.6</ele>
        <time>2022-06-26T09:22:29Z</time>
      </trkpt>
      <trkpt lat="45.92867" lon="4.38835">
        <ele>721.2</ele>
        <time>2022-06-26T09:22:30Z</time>
      </trkpt>
      <trkpt lat="45.92864" lon="4.38833">
        <ele>720.8</ele>
        <time>2022-06-26T09:22:31Z</time>
      </trkpt>
      <trkpt lat="45.92862" lon="4.38831">
        <ele>720.6</ele>
        <time>2022-06-26T09:22:32Z</time>
      </trkpt>
      <trkpt lat="45.9286" lon="4.3883">
        <ele>720.4</ele>
        <time>2022-06-26T09:22:33Z</time>
      </trkpt>
      <trkpt lat="45.92857" lon="4.38829">
        <ele>720.4</ele>
        <time>2022-06-26T09:22:34Z</time>
      </trkpt>
      <trkpt lat="45.92855" lon="4.3883">
        <ele>720</ele>
        <time>2022-06-26T09:22:35Z</time>
      </trkpt>
      <trkpt lat="45.92852" lon="4.38832">
        <ele>720</ele>
        <time>2022-06-26T09:22:36Z</time>
      </trkpt>
      <trkpt lat="45.92849" lon="4.38835">
        <ele>719.8</ele>
        <time>2022-06-26T09:22:37Z</time>
      </trkpt>
      <trkpt lat="45.92847" lon="4.38838">
        <ele>719.8</ele>
        <time>2022-06-26T09:22:38Z</time>
      </trkpt>
      <trkpt lat="45.92844" lon="4.38841">
        <ele>719.6</ele>
        <time>2022-06-26T09:22:39Z</time>
      </trkpt>
      <trkpt lat="45.92842" lon="4.38844">
        <ele>719.6</ele>
        <time>2022-06-26T09:22:40Z</time>
      </trkpt>
      <trkpt lat="45.92839" lon="4.38847">
        <ele>719.6</ele>
        <time>2022-06-26T09:22:41Z</time>
      </trkpt>
      <trkpt lat="45.92837" lon="4.3885">
        <ele>719.6</ele>
        <time>2022-06-26T09:22:42Z</time>
      </trkpt>
      <trkpt lat="45.92835" lon="4.38853">
        <ele>719.6</ele>
        <time>2022-06-26T09:22:43Z</time>
      </trkpt>
      <trkpt lat="45.92832" lon="4.38856">
        <ele>719.6</ele>
        <time>2022-06-26T09:22:44Z</time>
      </trkpt>
      <trkpt lat="45.9283" lon="4.38859">
        <ele>719.6</ele>
        <time>2022-06-26T09:22:45Z</time>
      </trkpt>
      <trkpt lat="45.92828" lon="4.38862">
        <ele>719.6</ele>
        <time>2022-06-26T09:22:46Z</time>
      </trkpt>
      <trkpt lat="45.92825" lon="4.38865">
        <ele>719.8</ele>
        <time>2022-06-26T09:22:47Z</time>
      </trkpt>
      <trkpt lat="45.92823" lon="4.38868">
        <ele>719.8</ele>
        <time>2022-06-26T09:22:48Z</time>
      </trkpt>
      <trkpt lat="45.92821" lon="4.38871">
        <ele>720.2</ele>
        <time>2022-06-26T09:22:49Z</time>
      </trkpt>
      <trkpt lat="45.92818" lon="4.38874">
        <ele>720.4</ele>
        <time>2022-06-26T09:22:50Z</time>
      </trkpt>
      <trkpt lat="45.92816" lon="4.38877">
        <ele>720.4</ele>
        <time>2022-06-26T09:22:51Z</time>
      </trkpt>
      <trkpt lat="45.92814" lon="4.3888">
        <ele>720.6</ele>
        <time>2022-06-26T09:22:52Z</time>
      </trkpt>
      <trkpt lat="45.92813" lon="4.38884">
        <ele>720.6</ele>
        <time>2022-06-26T09:22:53Z</time>
      </trkpt>
      <trkpt lat="45.92811" lon="4.38888">
        <ele>720.8</ele>
        <time>2022-06-26T09:22:54Z</time>
      </trkpt>
      <trkpt lat="45.9281" lon="4.38891">
        <ele>720.8</ele>
        <time>2022-06-26T09:22:55Z</time>
      </trkpt>
      <trkpt lat="45.92808" lon="4.38895">
        <ele>721.2</ele>
        <time>2022-06-26T09:22:56Z</time>
      </trkpt>
      <trkpt lat="45.92807" lon="4.38897">
        <ele>721.2</ele>
        <time>2022-06-26T09:22:57Z</time>
      </trkpt>
      <trkpt lat="45.92807" lon="4.38899">
        <ele>721.2</ele>
        <time>2022-06-26T09:22:58Z</time>
      </trkpt>
      <trkpt lat="45.92806" lon="4.38903">
        <ele>721.2</ele>
        <time>2022-06-26T09:22:59Z</time>
      </trkpt>
      <trkpt lat="45.92805" lon="4.38907">
        <ele>721.2</ele>
        <time>2022-06-26T09:23:00Z</time>
      </trkpt>
      <trkpt lat="45.92804" lon="4.38911">
        <ele>721.4</ele>
        <time>2022-06-26T09:23:01Z</time>
      </trkpt>
      <trkpt lat="45.92804" lon="4.38915">
        <ele>721.4</ele>
        <time>2022-06-26T09:23:02Z</time>
      </trkpt>
      <trkpt lat="45.92803" lon="4.38919">
        <ele>721.4</ele>
        <time>2022-06-26T09:23:03Z</time>
      </trkpt>
      <trkpt lat="45.92802" lon="4.38922">
        <ele>721.4</ele>
        <time>2022-06-26T09:23:04Z</time>
      </trkpt>
      <trkpt lat="45.92802" lon="4.38926">
        <ele>721.4</ele>
        <time>2022-06-26T09:23:05Z</time>
      </trkpt>
      <trkpt lat="45.92801" lon="4.38929">
        <ele>721.4</ele>
        <time>2022-06-26T09:23:06Z</time>
      </trkpt>
      <trkpt lat="45.92801" lon="4.38932">
        <ele>721</ele>
        <time>2022-06-26T09:23:07Z</time>
      </trkpt>
      <trkpt lat="45.92801" lon="4.38934">
        <ele>721</ele>
        <time>2022-06-26T09:23:08Z</time>
      </trkpt>
      <trkpt lat="45.92801" lon="4.38935">
        <ele>720.8</ele>
        <time>2022-06-26T09:23:09Z</time>
      </trkpt>
      <trkpt lat="45.92805" lon="4.38933">
        <ele>720.4</ele>
        <time>2022-06-26T09:23:24Z</time>
      </trkpt>
      <trkpt lat="45.92807" lon="4.3893">
        <ele>720.4</ele>
        <time>2022-06-26T09:23:25Z</time>
      </trkpt>
      <trkpt lat="45.92808" lon="4.38926">
        <ele>720.4</ele>
        <time>2022-06-26T09:23:26Z</time>
      </trkpt>
      <trkpt lat="45.92808" lon="4.38922">
        <ele>720</ele>
        <time>2022-06-26T09:23:27Z</time>
      </trkpt>
      <trkpt lat="45.92809" lon="4.38917">
        <ele>720</ele>
        <time>2022-06-26T09:23:28Z</time>
      </trkpt>
      <trkpt lat="45.92809" lon="4.38913">
        <ele>720</ele>
        <time>2022-06-26T09:23:29Z</time>
      </trkpt>
      <trkpt lat="45.9281" lon="4.38908">
        <ele>720</ele>
        <time>2022-06-26T09:23:30Z</time>
      </trkpt>
      <trkpt lat="45.92811" lon="4.38904">
        <ele>720.4</ele>
        <time>2022-06-26T09:23:31Z</time>
      </trkpt>
      <trkpt lat="45.92812" lon="4.38899">
        <ele>720.4</ele>
        <time>2022-06-26T09:23:32Z</time>
      </trkpt>
      <trkpt lat="45.92814" lon="4.38895">
        <ele>720.4</ele>
        <time>2022-06-26T09:23:33Z</time>
      </trkpt>
      <trkpt lat="45.92815" lon="4.3889">
        <ele>720.4</ele>
        <time>2022-06-26T09:23:34Z</time>
      </trkpt>
      <trkpt lat="45.92817" lon="4.38885">
        <ele>720.4</ele>
        <time>2022-06-26T09:23:35Z</time>
      </trkpt>
      <trkpt lat="45.92819" lon="4.38881">
        <ele>720.6</ele>
        <time>2022-06-26T09:23:36Z</time>
      </trkpt>
      <trkpt lat="45.92822" lon="4.38877">
        <ele>720.6</ele>
        <time>2022-06-26T09:23:37Z</time>
      </trkpt>
      <trkpt lat="45.92825" lon="4.38873">
        <ele>720.6</ele>
        <time>2022-06-26T09:23:38Z</time>
      </trkpt>
      <trkpt lat="45.92828" lon="4.3887">
        <ele>720.4</ele>
        <time>2022-06-26T09:23:39Z</time>
      </trkpt>
      <trkpt lat="45.92832" lon="4.38866">
        <ele>720.4</ele>
        <time>2022-06-26T09:23:40Z</time>
      </trkpt>
      <trkpt lat="45.92835" lon="4.38862">
        <ele>720.4</ele>
        <time>2022-06-26T09:23:41Z</time>
      </trkpt>
      <trkpt lat="45.92838" lon="4.38857">
        <ele>720.4</ele>
        <time>2022-06-26T09:23:42Z</time>
      </trkpt>
      <trkpt lat="45.92842" lon="4.38853">
        <ele>720.2</ele>
        <time>2022-06-26T09:23:43Z</time>
      </trkpt>
      <trkpt lat="45.92845" lon="4.38849">
        <ele>720.2</ele>
        <time>2022-06-26T09:23:44Z</time>
      </trkpt>
      <trkpt lat="45.92849" lon="4.38844">
        <ele>720.2</ele>
        <time>2022-06-26T09:23:45Z</time>
      </trkpt>
      <trkpt lat="45.92852" lon="4.38839">
        <ele>720.2</ele>
        <time>2022-06-26T09:23:46Z</time>
      </trkpt>
      <trkpt lat="45.92856" lon="4.38833">
        <ele>719.8</ele>
        <time>2022-06-26T09:23:47Z</time>
      </trkpt>
      <trkpt lat="45.92859" lon="4.38826">
        <ele>719.8</ele>
        <time>2022-06-26T09:23:48Z</time>
      </trkpt>
      <trkpt lat="45.92861" lon="4.38819">
        <ele>719.8</ele>
        <time>2022-06-26T09:23:49Z</time>
      </trkpt>
      <trkpt lat="45.92864" lon="4.38812">
        <ele>719.8</ele>
        <time>2022-06-26T09:23:50Z</time>
      </trkpt>
      <trkpt lat="45.92865" lon="4.38804">
        <ele>719.8</ele>
        <time>2022-06-26T09:23:51Z</time>
      </trkpt>
      <trkpt lat="45.92867" lon="4.38797">
        <ele>719.8</ele>
        <time>2022-06-26T09:23:52Z</time>
      </trkpt>
      <trkpt lat="45.92868" lon="4.38789">
        <ele>719.8</ele>
        <time>2022-06-26T09:23:53Z</time>
      </trkpt>
      <trkpt lat="45.92869" lon="4.3878">
        <ele>719.4</ele>
        <time>2022-06-26T09:23:54Z</time>
      </trkpt>
      <trkpt lat="45.92868" lon="4.38772">
        <ele>719.4</ele>
        <time>2022-06-26T09:23:55Z</time>
      </trkpt>
      <trkpt lat="45.92868" lon="4.38764">
        <ele>719.4</ele>
        <time>2022-06-26T09:23:56Z</time>
      </trkpt>
      <trkpt lat="45.92867" lon="4.38757">
        <ele>719.4</ele>
        <time>2022-06-26T09:23:57Z</time>
      </trkpt>
      <trkpt lat="45.92866" lon="4.38749">
        <ele>719.4</ele>
        <time>2022-06-26T09:23:58Z</time>
      </trkpt>
      <trkpt lat="45.92864" lon="4.38741">
        <ele>719.4</ele>
        <time>2022-06-26T09:23:59Z</time>
      </trkpt>
      <trkpt lat="45.92862" lon="4.38734">
        <ele>719.4</ele>
        <time>2022-06-26T09:24:00Z</time>
      </trkpt>
      <trkpt lat="45.9286" lon="4.38727">
        <ele>719.4</ele>
        <time>2022-06-26T09:24:01Z</time>
      </trkpt>
      <trkpt lat="45.92857" lon="4.3872">
        <ele>719.4</ele>
        <time>2022-06-26T09:24:02Z</time>
      </trkpt>
      <trkpt lat="45.92854" lon="4.38713">
        <ele>719.4</ele>
        <time>2022-06-26T09:24:03Z</time>
      </trkpt>
      <trkpt lat="45.9285" lon="4.38706">
        <ele>719.4</ele>
        <time>2022-06-26T09:24:04Z</time>
      </trkpt>
      <trkpt lat="45.92846" lon="4.387">
        <ele>719.4</ele>
        <time>2022-06-26T09:24:05Z</time>
      </trkpt>
      <trkpt lat="45.92842" lon="4.38693">
        <ele>719.4</ele>
        <time>2022-06-26T09:24:06Z</time>
      </trkpt>
      <trkpt lat="45.92838" lon="4.38685">
        <ele>719.4</ele>
        <time>2022-06-26T09:24:07Z</time>
      </trkpt>
      <trkpt lat="45.92834" lon="4.38677">
        <ele>719.4</ele>
        <time>2022-06-26T09:24:08Z</time>
      </trkpt>
      <trkpt lat="45.92831" lon="4.3867">
        <ele>719.4</ele>
        <time>2022-06-26T09:24:09Z</time>
      </trkpt>
      <trkpt lat="45.92828" lon="4.38661">
        <ele>719.4</ele>
        <time>2022-06-26T09:24:10Z</time>
      </trkpt>
      <trkpt lat="45.92826" lon="4.38653">
        <ele>719.4</ele>
        <time>2022-06-26T09:24:11Z</time>
      </trkpt>
      <trkpt lat="45.92824" lon="4.38644">
        <ele>719.4</ele>
        <time>2022-06-26T09:24:12Z</time>
      </trkpt>
      <trkpt lat="45.92823" lon="4.38636">
        <ele>719.4</ele>
        <time>2022-06-26T09:24:13Z</time>
      </trkpt>
      <trkpt lat="45.92822" lon="4.38627">
        <ele>719.4</ele>
        <time>2022-06-26T09:24:14Z</time>
      </trkpt>
      <trkpt lat="45.92822" lon="4.38618">
        <ele>719.8</ele>
        <time>2022-06-26T09:24:15Z</time>
      </trkpt>
      <trkpt lat="45.92822" lon="4.3861">
        <ele>719.8</ele>
        <time>2022-06-26T09:24:16Z</time>
      </trkpt>
      <trkpt lat="45.92822" lon="4.38601">
        <ele>719.8</ele>
        <time>2022-06-26T09:24:17Z</time>
      </trkpt>
      <trkpt lat="45.92823" lon="4.38592">
        <ele>720</ele>
        <time>2022-06-26T09:24:18Z</time>
      </trkpt>
      <trkpt lat="45.92824" lon="4.38584">
        <ele>720</ele>
        <time>2022-06-26T09:24:19Z</time>
      </trkpt>
      <trkpt lat="45.92825" lon="4.38575">
        <ele>720.2</ele>
        <time>2022-06-26T09:24:20Z</time>
      </trkpt>
      <trkpt lat="45.92827" lon="4.38567">
        <ele>720.2</ele>
        <time>2022-06-26T09:24:21Z</time>
      </trkpt>
      <trkpt lat="45.92829" lon="4.38559">
        <ele>720.2</ele>
        <time>2022-06-26T09:24:22Z</time>
      </trkpt>
      <trkpt lat="45.92832" lon="4.38551">
        <ele>720.2</ele>
        <time>2022-06-26T09:24:23Z</time>
      </trkpt>
      <trkpt lat="45.92834" lon="4.38543">
        <ele>720.2</ele>
        <time>2022-06-26T09:24:24Z</time>
      </trkpt>
      <trkpt lat="45.92836" lon="4.38536">
        <ele>720.2</ele>
        <time>2022-06-26T09:24:25Z</time>
      </trkpt>
      <trkpt lat="45.92838" lon="4.38528">
        <ele>720.4</ele>
        <time>2022-06-26T09:24:26Z</time>
      </trkpt>
      <trkpt lat="45.92841" lon="4.3852">
        <ele>720.4</ele>
        <time>2022-06-26T09:24:27Z</time>
      </trkpt>
      <trkpt lat="45.92843" lon="4.38513">
        <ele>720.4</ele>
        <time>2022-06-26T09:24:28Z</time>
      </trkpt>
      <trkpt lat="45.92845" lon="4.38505">
        <ele>720.6</ele>
        <time>2022-06-26T09:24:29Z</time>
      </trkpt>
      <trkpt lat="45.92848" lon="4.38498">
        <ele>720.6</ele>
        <time>2022-06-26T09:24:30Z</time>
      </trkpt>
      <trkpt lat="45.9285" lon="4.38491">
        <ele>720.6</ele>
        <time>2022-06-26T09:24:31Z</time>
      </trkpt>
      <trkpt lat="45.92853" lon="4.38483">
        <ele>721</ele>
        <time>2022-06-26T09:24:32Z</time>
      </trkpt>
      <trkpt lat="45.92855" lon="4.38476">
        <ele>721</ele>
        <time>2022-06-26T09:24:33Z</time>
      </trkpt>
      <trkpt lat="45.92857" lon="4.38469">
        <ele>721</ele>
        <time>2022-06-26T09:24:34Z</time>
      </trkpt>
      <trkpt lat="45.92858" lon="4.38461">
        <ele>721.2</ele>
        <time>2022-06-26T09:24:35Z</time>
      </trkpt>
      <trkpt lat="45.92859" lon="4.38454">
        <ele>721.2</ele>
        <time>2022-06-26T09:24:36Z</time>
      </trkpt>
      <trkpt lat="45.9286" lon="4.38446">
        <ele>721.4</ele>
        <time>2022-06-26T09:24:37Z</time>
      </trkpt>
      <trkpt lat="45.92859" lon="4.38438">
        <ele>721.4</ele>
        <time>2022-06-26T09:24:38Z</time>
      </trkpt>
      <trkpt lat="45.92858" lon="4.38431">
        <ele>721.4</ele>
        <time>2022-06-26T09:24:39Z</time>
      </trkpt>
      <trkpt lat="45.92857" lon="4.38424">
        <ele>721.4</ele>
        <time>2022-06-26T09:24:40Z</time>
      </trkpt>
      <trkpt lat="45.92855" lon="4.38417">
        <ele>721.4</ele>
        <time>2022-06-26T09:24:41Z</time>
      </trkpt>
      <trkpt lat="45.92852" lon="4.3841">
        <ele>721.4</ele>
        <time>2022-06-26T09:24:42Z</time>
      </trkpt>
      <trkpt lat="45.92848" lon="4.38404">
        <ele>721.4</ele>
        <time>2022-06-26T09:24:43Z</time>
      </trkpt>
      <trkpt lat="45.92845" lon="4.38398">
        <ele>721.6</ele>
        <time>2022-06-26T09:24:44Z</time>
      </trkpt>
      <trkpt lat="45.9284" lon="4.38393">
        <ele>721.6</ele>
        <time>2022-06-26T09:24:45Z</time>
      </trkpt>
      <trkpt lat="45.92836" lon="4.38389">
        <ele>721.6</ele>
        <time>2022-06-26T09:24:46Z</time>
      </trkpt>
      <trkpt lat="45.92831" lon="4.38385">
        <ele>721.6</ele>
        <time>2022-06-26T09:24:47Z</time>
      </trkpt>
      <trkpt lat="45.92825" lon="4.38381">
        <ele>721.8</ele>
        <time>2022-06-26T09:24:48Z</time>
      </trkpt>
      <trkpt lat="45.9282" lon="4.38378">
        <ele>721.8</ele>
        <time>2022-06-26T09:24:49Z</time>
      </trkpt>
      <trkpt lat="45.92815" lon="4.38374">
        <ele>721.8</ele>
        <time>2022-06-26T09:24:50Z</time>
      </trkpt>
      <trkpt lat="45.9281" lon="4.38371">
        <ele>721.8</ele>
        <time>2022-06-26T09:24:51Z</time>
      </trkpt>
      <trkpt lat="45.92805" lon="4.38367">
        <ele>721.8</ele>
        <time>2022-06-26T09:24:52Z</time>
      </trkpt>
      <trkpt lat="45.928" lon="4.38364">
        <ele>722</ele>
        <time>2022-06-26T09:24:53Z</time>
      </trkpt>
      <trkpt lat="45.92795" lon="4.3836">
        <ele>722</ele>
        <time>2022-06-26T09:24:54Z</time>
      </trkpt>
      <trkpt lat="45.9279" lon="4.38357">
        <ele>722</ele>
        <time>2022-06-26T09:24:55Z</time>
      </trkpt>
      <trkpt lat="45.92785" lon="4.38354">
        <ele>722</ele>
        <time>2022-06-26T09:24:56Z</time>
      </trkpt>
      <trkpt lat="45.92781" lon="4.3835">
        <ele>722</ele>
        <time>2022-06-26T09:24:57Z</time>
      </trkpt>
      <trkpt lat="45.92776" lon="4.38345">
        <ele>722.4</ele>
        <time>2022-06-26T09:24:58Z</time>
      </trkpt>
      <trkpt lat="45.92772" lon="4.3834">
        <ele>722.4</ele>
        <time>2022-06-26T09:24:59Z</time>
      </trkpt>
      <trkpt lat="45.92768" lon="4.38334">
        <ele>722.6</ele>
        <time>2022-06-26T09:25:00Z</time>
      </trkpt>
      <trkpt lat="45.92765" lon="4.38328">
        <ele>722.6</ele>
        <time>2022-06-26T09:25:01Z</time>
      </trkpt>
      <trkpt lat="45.92763" lon="4.38322">
        <ele>723</ele>
        <time>2022-06-26T09:25:02Z</time>
      </trkpt>
      <trkpt lat="45.9276" lon="4.38316">
        <ele>723</ele>
        <time>2022-06-26T09:25:03Z</time>
      </trkpt>
      <trkpt lat="45.92758" lon="4.38309">
        <ele>723</ele>
        <time>2022-06-26T09:25:04Z</time>
      </trkpt>
      <trkpt lat="45.92756" lon="4.38303">
        <ele>723.2</ele>
        <time>2022-06-26T09:25:05Z</time>
      </trkpt>
      <trkpt lat="45.92754" lon="4.38296">
        <ele>723.2</ele>
        <time>2022-06-26T09:25:06Z</time>
      </trkpt>
      <trkpt lat="45.92752" lon="4.3829">
        <ele>723.6</ele>
        <time>2022-06-26T09:25:07Z</time>
      </trkpt>
      <trkpt lat="45.9275" lon="4.38283">
        <ele>723.6</ele>
        <time>2022-06-26T09:25:08Z</time>
      </trkpt>
      <trkpt lat="45.92748" lon="4.38276">
        <ele>723.8</ele>
        <time>2022-06-26T09:25:09Z</time>
      </trkpt>
      <trkpt lat="45.92746" lon="4.3827">
        <ele>723.8</ele>
        <time>2022-06-26T09:25:10Z</time>
      </trkpt>
      <trkpt lat="45.92743" lon="4.38263">
        <ele>723.8</ele>
        <time>2022-06-26T09:25:11Z</time>
      </trkpt>
      <trkpt lat="45.92741" lon="4.38257">
        <ele>724.2</ele>
        <time>2022-06-26T09:25:12Z</time>
      </trkpt>
      <trkpt lat="45.92739" lon="4.3825">
        <ele>724.2</ele>
        <time>2022-06-26T09:25:13Z</time>
      </trkpt>
      <trkpt lat="45.92737" lon="4.38244">
        <ele>724.2</ele>
        <time>2022-06-26T09:25:14Z</time>
      </trkpt>
      <trkpt lat="45.92735" lon="4.38237">
        <ele>724.4</ele>
        <time>2022-06-26T09:25:15Z</time>
      </trkpt>
      <trkpt lat="45.92733" lon="4.3823">
        <ele>724.4</ele>
        <time>2022-06-26T09:25:16Z</time>
      </trkpt>
      <trkpt lat="45.92731" lon="4.38224">
        <ele>724.6</ele>
        <time>2022-06-26T09:25:17Z</time>
      </trkpt>
      <trkpt lat="45.92729" lon="4.38217">
        <ele>724.6</ele>
        <time>2022-06-26T09:25:18Z</time>
      </trkpt>
      <trkpt lat="45.92727" lon="4.38211">
        <ele>724.6</ele>
        <time>2022-06-26T09:25:19Z</time>
      </trkpt>
      <trkpt lat="45.92725" lon="4.38205">
        <ele>725</ele>
        <time>2022-06-26T09:25:20Z</time>
      </trkpt>
      <trkpt lat="45.92723" lon="4.38199">
        <ele>725</ele>
        <time>2022-06-26T09:25:21Z</time>
      </trkpt>
      <trkpt lat="45.9272" lon="4.38192">
        <ele>725.2</ele>
        <time>2022-06-26T09:25:22Z</time>
      </trkpt>
      <trkpt lat="45.92718" lon="4.38186">
        <ele>725.2</ele>
        <time>2022-06-26T09:25:23Z</time>
      </trkpt>
      <trkpt lat="45.92716" lon="4.3818">
        <ele>725.4</ele>
        <time>2022-06-26T09:25:24Z</time>
      </trkpt>
      <trkpt lat="45.92714" lon="4.38174">
        <ele>725.4</ele>
        <time>2022-06-26T09:25:25Z</time>
      </trkpt>
      <trkpt lat="45.92713" lon="4.38168">
        <ele>725.6</ele>
        <time>2022-06-26T09:25:26Z</time>
      </trkpt>
      <trkpt lat="45.92711" lon="4.38161">
        <ele>725.6</ele>
        <time>2022-06-26T09:25:27Z</time>
      </trkpt>
      <trkpt lat="45.92709" lon="4.38155">
        <ele>725.8</ele>
        <time>2022-06-26T09:25:28Z</time>
      </trkpt>
      <trkpt lat="45.92708" lon="4.38149">
        <ele>725.8</ele>
        <time>2022-06-26T09:25:29Z</time>
      </trkpt>
      <trkpt lat="45.92706" lon="4.38142">
        <ele>725.8</ele>
        <time>2022-06-26T09:25:30Z</time>
      </trkpt>
      <trkpt lat="45.92704" lon="4.38136">
        <ele>726.2</ele>
        <time>2022-06-26T09:25:31Z</time>
      </trkpt>
      <trkpt lat="45.92703" lon="4.38129">
        <ele>726.2</ele>
        <time>2022-06-26T09:25:32Z</time>
      </trkpt>
      <trkpt lat="45.92702" lon="4.38123">
        <ele>726.4</ele>
        <time>2022-06-26T09:25:33Z</time>
      </trkpt>
      <trkpt lat="45.92701" lon="4.38116">
        <ele>726.4</ele>
        <time>2022-06-26T09:25:34Z</time>
      </trkpt>
      <trkpt lat="45.927" lon="4.3811">
        <ele>727</ele>
        <time>2022-06-26T09:25:35Z</time>
      </trkpt>
      <trkpt lat="45.92699" lon="4.38103">
        <ele>727</ele>
        <time>2022-06-26T09:25:36Z</time>
      </trkpt>
      <trkpt lat="45.92699" lon="4.38096">
        <ele>727</ele>
        <time>2022-06-26T09:25:37Z</time>
      </trkpt>
      <trkpt lat="45.92699" lon="4.38089">
        <ele>727.2</ele>
        <time>2022-06-26T09:25:38Z</time>
      </trkpt>
      <trkpt lat="45.92699" lon="4.38082">
        <ele>727.2</ele>
        <time>2022-06-26T09:25:39Z</time>
      </trkpt>
      <trkpt lat="45.92699" lon="4.38076">
        <ele>727.4</ele>
        <time>2022-06-26T09:25:40Z</time>
      </trkpt>
      <trkpt lat="45.92699" lon="4.38069">
        <ele>727.4</ele>
        <time>2022-06-26T09:25:41Z</time>
      </trkpt>
      <trkpt lat="45.92699" lon="4.38063">
        <ele>727.4</ele>
        <time>2022-06-26T09:25:42Z</time>
      </trkpt>
      <trkpt lat="45.92699" lon="4.38058">
        <ele>727.8</ele>
        <time>2022-06-26T09:25:43Z</time>
      </trkpt>
      <trkpt lat="45.92699" lon="4.38053">
        <ele>727.8</ele>
        <time>2022-06-26T09:25:44Z</time>
      </trkpt>
      <trkpt lat="45.927" lon="4.38049">
        <ele>727.8</ele>
        <time>2022-06-26T09:25:45Z</time>
      </trkpt>
      <trkpt lat="45.927" lon="4.38045">
        <ele>727.8</ele>
        <time>2022-06-26T09:25:46Z</time>
      </trkpt>
      <trkpt lat="45.927" lon="4.38042">
        <ele>727.8</ele>
        <time>2022-06-26T09:25:47Z</time>
      </trkpt>
      <trkpt lat="45.927" lon="4.38038">
        <ele>728</ele>
        <time>2022-06-26T09:25:48Z</time>
      </trkpt>
      <trkpt lat="45.927" lon="4.38034">
        <ele>728</ele>
        <time>2022-06-26T09:25:49Z</time>
      </trkpt>
      <trkpt lat="45.927" lon="4.38029">
        <ele>728</ele>
        <time>2022-06-26T09:25:50Z</time>
      </trkpt>
      <trkpt lat="45.927" lon="4.38024">
        <ele>728</ele>
        <time>2022-06-26T09:25:51Z</time>
      </trkpt>
      <trkpt lat="45.927" lon="4.38019">
        <ele>728.2</ele>
        <time>2022-06-26T09:25:52Z</time>
      </trkpt>
      <trkpt lat="45.927" lon="4.38014">
        <ele>728.2</ele>
        <time>2022-06-26T09:25:53Z</time>
      </trkpt>
      <trkpt lat="45.927" lon="4.38008">
        <ele>728.2</ele>
        <time>2022-06-26T09:25:54Z</time>
      </trkpt>
      <trkpt lat="45.927" lon="4.38003">
        <ele>728.2</ele>
        <time>2022-06-26T09:25:55Z</time>
      </trkpt>
      <trkpt lat="45.927" lon="4.37997">
        <ele>728.2</ele>
        <time>2022-06-26T09:25:56Z</time>
      </trkpt>
      <trkpt lat="45.927" lon="4.37991">
        <ele>728.2</ele>
        <time>2022-06-26T09:25:57Z</time>
      </trkpt>
      <trkpt lat="45.92701" lon="4.37985">
        <ele>728.2</ele>
        <time>2022-06-26T09:25:58Z</time>
      </trkpt>
      <trkpt lat="45.92701" lon="4.3798">
        <ele>728.2</ele>
        <time>2022-06-26T09:25:59Z</time>
      </trkpt>
      <trkpt lat="45.92701" lon="4.37974">
        <ele>728.2</ele>
        <time>2022-06-26T09:26:00Z</time>
      </trkpt>
      <trkpt lat="45.92701" lon="4.37968">
        <ele>728.2</ele>
        <time>2022-06-26T09:26:01Z</time>
      </trkpt>
      <trkpt lat="45.92701" lon="4.37963">
        <ele>728.2</ele>
        <time>2022-06-26T09:26:02Z</time>
      </trkpt>
      <trkpt lat="45.92702" lon="4.37957">
        <ele>728.2</ele>
        <time>2022-06-26T09:26:03Z</time>
      </trkpt>
      <trkpt lat="45.92702" lon="4.37952">
        <ele>728.2</ele>
        <time>2022-06-26T09:26:04Z</time>
      </trkpt>
      <trkpt lat="45.92702" lon="4.37946">
        <ele>728</ele>
        <time>2022-06-26T09:26:05Z</time>
      </trkpt>
      <trkpt lat="45.92702" lon="4.37941">
        <ele>728</ele>
        <time>2022-06-26T09:26:06Z</time>
      </trkpt>
      <trkpt lat="45.92702" lon="4.37937">
        <ele>728</ele>
        <time>2022-06-26T09:26:07Z</time>
      </trkpt>
      <trkpt lat="45.92702" lon="4.37933">
        <ele>728</ele>
        <time>2022-06-26T09:26:08Z</time>
      </trkpt>
      <trkpt lat="45.92702" lon="4.37929">
        <ele>728</ele>
        <time>2022-06-26T09:26:09Z</time>
      </trkpt>
      <trkpt lat="45.92702" lon="4.37926">
        <ele>728</ele>
        <time>2022-06-26T09:26:10Z</time>
      </trkpt>
      <trkpt lat="45.92702" lon="4.37923">
        <ele>728</ele>
        <time>2022-06-26T09:26:11Z</time>
      </trkpt>
      <trkpt lat="45.92702" lon="4.3792">
        <ele>728</ele>
        <time>2022-06-26T09:26:12Z</time>
      </trkpt>
      <trkpt lat="45.92703" lon="4.37917">
        <ele>728</ele>
        <time>2022-06-26T09:26:13Z</time>
      </trkpt>
      <trkpt lat="45.92703" lon="4.37914">
        <ele>728</ele>
        <time>2022-06-26T09:26:14Z</time>
      </trkpt>
      <trkpt lat="45.92703" lon="4.37912">
        <ele>728</ele>
        <time>2022-06-26T09:26:15Z</time>
      </trkpt>
      <trkpt lat="45.92702" lon="4.3791">
        <ele>728</ele>
        <time>2022-06-26T09:26:16Z</time>
      </trkpt>
      <trkpt lat="45.927" lon="4.37909">
        <ele>728</ele>
        <time>2022-06-26T09:26:17Z</time>
      </trkpt>
      <trkpt lat="45.92699" lon="4.37908">
        <ele>728</ele>
        <time>2022-06-26T09:26:18Z</time>
      </trkpt>
      <trkpt lat="45.92697" lon="4.37909">
        <ele>728</ele>
        <time>2022-06-26T09:26:19Z</time>
      </trkpt>
      <trkpt lat="45.92695" lon="4.37911">
        <ele>728</ele>
        <time>2022-06-26T09:26:20Z</time>
      </trkpt>
      <trkpt lat="45.92695" lon="4.37914">
        <ele>728</ele>
        <time>2022-06-26T09:26:21Z</time>
      </trkpt>
      <trkpt lat="45.92694" lon="4.37918">
        <ele>728</ele>
        <time>2022-06-26T09:26:22Z</time>
      </trkpt>
      <trkpt lat="45.92695" lon="4.37923">
        <ele>728</ele>
        <time>2022-06-26T09:26:23Z</time>
      </trkpt>
      <trkpt lat="45.92695" lon="4.37927">
        <ele>728</ele>
        <time>2022-06-26T09:26:24Z</time>
      </trkpt>
      <trkpt lat="45.92696" lon="4.37932">
        <ele>728</ele>
        <time>2022-06-26T09:26:25Z</time>
      </trkpt>
      <trkpt lat="45.92696" lon="4.37937">
        <ele>728</ele>
        <time>2022-06-26T09:26:26Z</time>
      </trkpt>
      <trkpt lat="45.92696" lon="4.37942">
        <ele>728</ele>
        <time>2022-06-26T09:26:27Z</time>
      </trkpt>
      <trkpt lat="45.92695" lon="4.37947">
        <ele>728</ele>
        <time>2022-06-26T09:26:28Z</time>
      </trkpt>
      <trkpt lat="45.92695" lon="4.37953">
        <ele>728</ele>
        <time>2022-06-26T09:26:29Z</time>
      </trkpt>
      <trkpt lat="45.92694" lon="4.37958">
        <ele>728</ele>
        <time>2022-06-26T09:26:30Z</time>
      </trkpt>
      <trkpt lat="45.92693" lon="4.37964">
        <ele>728</ele>
        <time>2022-06-26T09:26:31Z</time>
      </trkpt>
      <trkpt lat="45.92693" lon="4.37969">
        <ele>728</ele>
        <time>2022-06-26T09:26:32Z</time>
      </trkpt>
      <trkpt lat="45.92693" lon="4.37974">
        <ele>728</ele>
        <time>2022-06-26T09:26:33Z</time>
      </trkpt>
      <trkpt lat="45.92693" lon="4.37979">
        <ele>728</ele>
        <time>2022-06-26T09:26:34Z</time>
      </trkpt>
      <trkpt lat="45.92693" lon="4.37984">
        <ele>728</ele>
        <time>2022-06-26T09:26:35Z</time>
      </trkpt>
      <trkpt lat="45.92693" lon="4.37989">
        <ele>728</ele>
        <time>2022-06-26T09:26:36Z</time>
      </trkpt>
      <trkpt lat="45.92693" lon="4.37993">
        <ele>728</ele>
        <time>2022-06-26T09:26:37Z</time>
      </trkpt>
      <trkpt lat="45.92693" lon="4.37996">
        <ele>728</ele>
        <time>2022-06-26T09:26:38Z</time>
      </trkpt>
      <trkpt lat="45.92693" lon="4.37999">
        <ele>728</ele>
        <time>2022-06-26T09:26:39Z</time>
      </trkpt>
      <trkpt lat="45.92693" lon="4.38">
        <ele>727.8</ele>
        <time>2022-06-26T09:26:40Z</time>
      </trkpt>
      <trkpt lat="45.92693" lon="4.38001">
        <ele>727.8</ele>
        <time>2022-06-26T09:26:41Z</time>
      </trkpt>
      <trkpt lat="45.92691" lon="4.37989">
        <ele>728</ele>
        <time>2022-06-26T09:27:36Z</time>
      </trkpt>
      <trkpt lat="45.92696" lon="4.37987">
        <ele>729.8</ele>
        <time>2022-06-26T09:39:00Z</time>
      </trkpt>
      <trkpt lat="45.92697" lon="4.37986">
        <ele>729.8</ele>
        <time>2022-06-26T09:39:02Z</time>
      </trkpt>
      <trkpt lat="45.92698" lon="4.37983">
        <ele>729.8</ele>
        <time>2022-06-26T09:39:03Z</time>
      </trkpt>
      <trkpt lat="45.92699" lon="4.3798">
        <ele>729.8</ele>
        <time>2022-06-26T09:39:04Z</time>
      </trkpt>
      <trkpt lat="45.92699" lon="4.37977">
        <ele>729.8</ele>
        <time>2022-06-26T09:39:05Z</time>
      </trkpt>
      <trkpt lat="45.92699" lon="4.37973">
        <ele>729.8</ele>
        <time>2022-06-26T09:39:06Z</time>
      </trkpt>
      <trkpt lat="45.92699" lon="4.37967">
        <ele>729.8</ele>
        <time>2022-06-26T09:39:07Z</time>
      </trkpt>
      <trkpt lat="45.92699" lon="4.37963">
        <ele>729.8</ele>
        <time>2022-06-26T09:39:08Z</time>
      </trkpt>
      <trkpt lat="45.92699" lon="4.3796">
        <ele>729.8</ele>
        <time>2022-06-26T09:39:09Z</time>
      </trkpt>
      <trkpt lat="45.92699" lon="4.37957">
        <ele>729.8</ele>
        <time>2022-06-26T09:39:10Z</time>
      </trkpt>
      <trkpt lat="45.92699" lon="4.37953">
        <ele>729.8</ele>
        <time>2022-06-26T09:39:11Z</time>
      </trkpt>
      <trkpt lat="45.927" lon="4.37949">
        <ele>729.8</ele>
        <time>2022-06-26T09:39:12Z</time>
      </trkpt>
      <trkpt lat="45.927" lon="4.37945">
        <ele>729.8</ele>
        <time>2022-06-26T09:39:13Z</time>
      </trkpt>
      <trkpt lat="45.927" lon="4.3794">
        <ele>729.8</ele>
        <time>2022-06-26T09:39:14Z</time>
      </trkpt>
      <trkpt lat="45.927" lon="4.37936">
        <ele>729.8</ele>
        <time>2022-06-26T09:39:15Z</time>
      </trkpt>
      <trkpt lat="45.927" lon="4.37931">
        <ele>729.8</ele>
        <time>2022-06-26T09:39:16Z</time>
      </trkpt>
      <trkpt lat="45.92699" lon="4.37926">
        <ele>729.8</ele>
        <time>2022-06-26T09:39:17Z</time>
      </trkpt>
      <trkpt lat="45.92698" lon="4.37921">
        <ele>729.8</ele>
        <time>2022-06-26T09:39:18Z</time>
      </trkpt>
      <trkpt lat="45.92697" lon="4.37916">
        <ele>729.8</ele>
        <time>2022-06-26T09:39:19Z</time>
      </trkpt>
      <trkpt lat="45.92696" lon="4.37911">
        <ele>729.8</ele>
        <time>2022-06-26T09:39:20Z</time>
      </trkpt>
      <trkpt lat="45.92696" lon="4.37906">
        <ele>729.8</ele>
        <time>2022-06-26T09:39:21Z</time>
      </trkpt>
      <trkpt lat="45.92696" lon="4.379">
        <ele>729.6</ele>
        <time>2022-06-26T09:39:22Z</time>
      </trkpt>
      <trkpt lat="45.92696" lon="4.37895">
        <ele>729.6</ele>
        <time>2022-06-26T09:39:23Z</time>
      </trkpt>
      <trkpt lat="45.92696" lon="4.3789">
        <ele>729.6</ele>
        <time>2022-06-26T09:39:24Z</time>
      </trkpt>
      <trkpt lat="45.92696" lon="4.37885">
        <ele>729.6</ele>
        <time>2022-06-26T09:39:25Z</time>
      </trkpt>
      <trkpt lat="45.92696" lon="4.3788">
        <ele>729.6</ele>
        <time>2022-06-26T09:39:26Z</time>
      </trkpt>
      <trkpt lat="45.92696" lon="4.37875">
        <ele>729.6</ele>
        <time>2022-06-26T09:39:27Z</time>
      </trkpt>
      <trkpt lat="45.92696" lon="4.3787">
        <ele>729.6</ele>
        <time>2022-06-26T09:39:28Z</time>
      </trkpt>
      <trkpt lat="45.92697" lon="4.37865">
        <ele>729.6</ele>
        <time>2022-06-26T09:39:29Z</time>
      </trkpt>
      <trkpt lat="45.92697" lon="4.37861">
        <ele>729.6</ele>
        <time>2022-06-26T09:39:30Z</time>
      </trkpt>
      <trkpt lat="45.92697" lon="4.37856">
        <ele>729.6</ele>
        <time>2022-06-26T09:39:31Z</time>
      </trkpt>
      <trkpt lat="45.92697" lon="4.37851">
        <ele>729.6</ele>
        <time>2022-06-26T09:39:32Z</time>
      </trkpt>
      <trkpt lat="45.92696" lon="4.37847">
        <ele>729.6</ele>
        <time>2022-06-26T09:39:33Z</time>
      </trkpt>
      <trkpt lat="45.92695" lon="4.37843">
        <ele>729.6</ele>
        <time>2022-06-26T09:39:34Z</time>
      </trkpt>
      <trkpt lat="45.92693" lon="4.37839">
        <ele>729.6</ele>
        <time>2022-06-26T09:39:35Z</time>
      </trkpt>
      <trkpt lat="45.92691" lon="4.37835">
        <ele>729.6</ele>
        <time>2022-06-26T09:39:36Z</time>
      </trkpt>
      <trkpt lat="45.92688" lon="4.3783">
        <ele>729.8</ele>
        <time>2022-06-26T09:39:37Z</time>
      </trkpt>
      <trkpt lat="45.92686" lon="4.37826">
        <ele>729.8</ele>
        <time>2022-06-26T09:39:38Z</time>
      </trkpt>
      <trkpt lat="45.92685" lon="4.3782">
        <ele>729.8</ele>
        <time>2022-06-26T09:39:39Z</time>
      </trkpt>
      <trkpt lat="45.92683" lon="4.37815">
        <ele>729.8</ele>
        <time>2022-06-26T09:39:40Z</time>
      </trkpt>
      <trkpt lat="45.92681" lon="4.3781">
        <ele>729.8</ele>
        <time>2022-06-26T09:39:41Z</time>
      </trkpt>
      <trkpt lat="45.92679" lon="4.37805">
        <ele>729.8</ele>
        <time>2022-06-26T09:39:42Z</time>
      </trkpt>
      <trkpt lat="45.92678" lon="4.378">
        <ele>730</ele>
        <time>2022-06-26T09:39:43Z</time>
      </trkpt>
      <trkpt lat="45.92676" lon="4.37795">
        <ele>730</ele>
        <time>2022-06-26T09:39:44Z</time>
      </trkpt>
      <trkpt lat="45.92674" lon="4.3779">
        <ele>730</ele>
        <time>2022-06-26T09:39:45Z</time>
      </trkpt>
      <trkpt lat="45.92673" lon="4.37785">
        <ele>730.4</ele>
        <time>2022-06-26T09:39:46Z</time>
      </trkpt>
      <trkpt lat="45.92671" lon="4.37781">
        <ele>730.4</ele>
        <time>2022-06-26T09:39:47Z</time>
      </trkpt>
      <trkpt lat="45.9267" lon="4.37777">
        <ele>730.6</ele>
        <time>2022-06-26T09:39:48Z</time>
      </trkpt>
      <trkpt lat="45.92668" lon="4.37773">
        <ele>730.6</ele>
        <time>2022-06-26T09:39:49Z</time>
      </trkpt>
      <trkpt lat="45.92666" lon="4.37769">
        <ele>730.8</ele>
        <time>2022-06-26T09:39:50Z</time>
      </trkpt>
      <trkpt lat="45.92663" lon="4.37765">
        <ele>730.8</ele>
        <time>2022-06-26T09:39:51Z</time>
      </trkpt>
      <trkpt lat="45.92661" lon="4.37761">
        <ele>731.2</ele>
        <time>2022-06-26T09:39:52Z</time>
      </trkpt>
      <trkpt lat="45.92659" lon="4.37757">
        <ele>731.2</ele>
        <time>2022-06-26T09:39:53Z</time>
      </trkpt>
      <trkpt lat="45.92656" lon="4.37753">
        <ele>731.2</ele>
        <time>2022-06-26T09:39:54Z</time>
      </trkpt>
      <trkpt lat="45.92653" lon="4.37749">
        <ele>731.2</ele>
        <time>2022-06-26T09:39:55Z</time>
      </trkpt>
      <trkpt lat="45.9265" lon="4.37746">
        <ele>731.2</ele>
        <time>2022-06-26T09:39:56Z</time>
      </trkpt>
      <trkpt lat="45.92646" lon="4.37742">
        <ele>731.2</ele>
        <time>2022-06-26T09:39:57Z</time>
      </trkpt>
      <trkpt lat="45.92643" lon="4.3774">
        <ele>731.2</ele>
        <time>2022-06-26T09:39:58Z</time>
      </trkpt>
      <trkpt lat="45.92639" lon="4.37737">
        <ele>731.2</ele>
        <time>2022-06-26T09:39:59Z</time>
      </trkpt>
      <trkpt lat="45.92636" lon="4.37735">
        <ele>731.2</ele>
        <time>2022-06-26T09:40:00Z</time>
      </trkpt>
      <trkpt lat="45.92632" lon="4.37732">
        <ele>731.4</ele>
        <time>2022-06-26T09:40:01Z</time>
      </trkpt>
      <trkpt lat="45.92628" lon="4.3773">
        <ele>731.4</ele>
        <time>2022-06-26T09:40:02Z</time>
      </trkpt>
      <trkpt lat="45.92625" lon="4.37728">
        <ele>731.4</ele>
        <time>2022-06-26T09:40:03Z</time>
      </trkpt>
      <trkpt lat="45.92621" lon="4.37727">
        <ele>731.4</ele>
        <time>2022-06-26T09:40:04Z</time>
      </trkpt>
      <trkpt lat="45.92617" lon="4.37727">
        <ele>731.4</ele>
        <time>2022-06-26T09:40:05Z</time>
      </trkpt>
      <trkpt lat="45.92612" lon="4.37726">
        <ele>731.4</ele>
        <time>2022-06-26T09:40:06Z</time>
      </trkpt>
      <trkpt lat="45.92608" lon="4.37726">
        <ele>731.4</ele>
        <time>2022-06-26T09:40:07Z</time>
      </trkpt>
      <trkpt lat="45.92604" lon="4.37726">
        <ele>731.4</ele>
        <time>2022-06-26T09:40:08Z</time>
      </trkpt>
      <trkpt lat="45.926" lon="4.37726">
        <ele>731.4</ele>
        <time>2022-06-26T09:40:09Z</time>
      </trkpt>
      <trkpt lat="45.92596" lon="4.37726">
        <ele>731.4</ele>
        <time>2022-06-26T09:40:10Z</time>
      </trkpt>
      <trkpt lat="45.92592" lon="4.37725">
        <ele>731.6</ele>
        <time>2022-06-26T09:40:11Z</time>
      </trkpt>
      <trkpt lat="45.92588" lon="4.37725">
        <ele>731.6</ele>
        <time>2022-06-26T09:40:12Z</time>
      </trkpt>
      <trkpt lat="45.92584" lon="4.37725">
        <ele>732</ele>
        <time>2022-06-26T09:40:13Z</time>
      </trkpt>
      <trkpt lat="45.9258" lon="4.37725">
        <ele>732</ele>
        <time>2022-06-26T09:40:14Z</time>
      </trkpt>
      <trkpt lat="45.92577" lon="4.37725">
        <ele>732.2</ele>
        <time>2022-06-26T09:40:15Z</time>
      </trkpt>
      <trkpt lat="45.92573" lon="4.37725">
        <ele>732.2</ele>
        <time>2022-06-26T09:40:16Z</time>
      </trkpt>
      <trkpt lat="45.92569" lon="4.37725">
        <ele>732.2</ele>
        <time>2022-06-26T09:40:17Z</time>
      </trkpt>
      <trkpt lat="45.92566" lon="4.37725">
        <ele>732.6</ele>
        <time>2022-06-26T09:40:18Z</time>
      </trkpt>
      <trkpt lat="45.92562" lon="4.37724">
        <ele>732.6</ele>
        <time>2022-06-26T09:40:19Z</time>
      </trkpt>
      <trkpt lat="45.92559" lon="4.37724">
        <ele>732.8</ele>
        <time>2022-06-26T09:40:20Z</time>
      </trkpt>
      <trkpt lat="45.92555" lon="4.37725">
        <ele>732.8</ele>
        <time>2022-06-26T09:40:21Z</time>
      </trkpt>
      <trkpt lat="45.92552" lon="4.37725">
        <ele>733</ele>
        <time>2022-06-26T09:40:22Z</time>
      </trkpt>
      <trkpt lat="45.92548" lon="4.37725">
        <ele>733</ele>
        <time>2022-06-26T09:40:23Z</time>
      </trkpt>
      <trkpt lat="45.92544" lon="4.37726">
        <ele>733</ele>
        <time>2022-06-26T09:40:24Z</time>
      </trkpt>
      <trkpt lat="45.92541" lon="4.37726">
        <ele>733.2</ele>
        <time>2022-06-26T09:40:25Z</time>
      </trkpt>
      <trkpt lat="45.92537" lon="4.37727">
        <ele>733.2</ele>
        <time>2022-06-26T09:40:26Z</time>
      </trkpt>
      <trkpt lat="45.92534" lon="4.37727">
        <ele>733.2</ele>
        <time>2022-06-26T09:40:27Z</time>
      </trkpt>
      <trkpt lat="45.9253" lon="4.37728">
        <ele>733.4</ele>
        <time>2022-06-26T09:40:28Z</time>
      </trkpt>
      <trkpt lat="45.92527" lon="4.37728">
        <ele>733.4</ele>
        <time>2022-06-26T09:40:29Z</time>
      </trkpt>
      <trkpt lat="45.92523" lon="4.37728">
        <ele>733.4</ele>
        <time>2022-06-26T09:40:30Z</time>
      </trkpt>
      <trkpt lat="45.92519" lon="4.37728">
        <ele>733.4</ele>
        <time>2022-06-26T09:40:31Z</time>
      </trkpt>
      <trkpt lat="45.92516" lon="4.37728">
        <ele>733.8</ele>
        <time>2022-06-26T09:40:32Z</time>
      </trkpt>
      <trkpt lat="45.92512" lon="4.37728">
        <ele>733.8</ele>
        <time>2022-06-26T09:40:33Z</time>
      </trkpt>
      <trkpt lat="45.92508" lon="4.37728">
        <ele>734</ele>
        <time>2022-06-26T09:40:34Z</time>
      </trkpt>
      <trkpt lat="45.92504" lon="4.37728">
        <ele>734</ele>
        <time>2022-06-26T09:40:35Z</time>
      </trkpt>
      <trkpt lat="45.925" lon="4.37728">
        <ele>734</ele>
        <time>2022-06-26T09:40:36Z</time>
      </trkpt>
      <trkpt lat="45.92496" lon="4.37728">
        <ele>734.2</ele>
        <time>2022-06-26T09:40:37Z</time>
      </trkpt>
      <trkpt lat="45.92492" lon="4.37728">
        <ele>734.2</ele>
        <time>2022-06-26T09:40:38Z</time>
      </trkpt>
      <trkpt lat="45.92488" lon="4.37728">
        <ele>734.2</ele>
        <time>2022-06-26T09:40:39Z</time>
      </trkpt>
      <trkpt lat="45.92484" lon="4.37728">
        <ele>734.2</ele>
        <time>2022-06-26T09:40:40Z</time>
      </trkpt>
      <trkpt lat="45.92479" lon="4.37728">
        <ele>734.2</ele>
        <time>2022-06-26T09:40:41Z</time>
      </trkpt>
      <trkpt lat="45.92475" lon="4.37728">
        <ele>734.2</ele>
        <time>2022-06-26T09:40:42Z</time>
      </trkpt>
      <trkpt lat="45.92471" lon="4.37728">
        <ele>734.2</ele>
        <time>2022-06-26T09:40:43Z</time>
      </trkpt>
      <trkpt lat="45.92467" lon="4.37728">
        <ele>734.2</ele>
        <time>2022-06-26T09:40:44Z</time>
      </trkpt>
      <trkpt lat="45.92462" lon="4.37728">
        <ele>734.2</ele>
        <time>2022-06-26T09:40:45Z</time>
      </trkpt>
      <trkpt lat="45.92458" lon="4.37728">
        <ele>734.2</ele>
        <time>2022-06-26T09:40:46Z</time>
      </trkpt>
      <trkpt lat="45.92453" lon="4.37728">
        <ele>734</ele>
        <time>2022-06-26T09:40:47Z</time>
      </trkpt>
      <trkpt lat="45.92448" lon="4.37728">
        <ele>734</ele>
        <time>2022-06-26T09:40:48Z</time>
      </trkpt>
      <trkpt lat="45.92443" lon="4.37728">
        <ele>734</ele>
        <time>2022-06-26T09:40:49Z</time>
      </trkpt>
      <trkpt lat="45.92438" lon="4.37728">
        <ele>734</ele>
        <time>2022-06-26T09:40:50Z</time>
      </trkpt>
      <trkpt lat="45.92433" lon="4.37728">
        <ele>733.6</ele>
        <time>2022-06-26T09:40:51Z</time>
      </trkpt>
      <trkpt lat="45.92429" lon="4.37728">
        <ele>733.6</ele>
        <time>2022-06-26T09:40:52Z</time>
      </trkpt>
      <trkpt lat="45.92424" lon="4.37729">
        <ele>733.4</ele>
        <time>2022-06-26T09:40:53Z</time>
      </trkpt>
      <trkpt lat="45.92419" lon="4.37729">
        <ele>733.4</ele>
        <time>2022-06-26T09:40:54Z</time>
      </trkpt>
      <trkpt lat="45.92414" lon="4.37729">
        <ele>733.2</ele>
        <time>2022-06-26T09:40:55Z</time>
      </trkpt>
      <trkpt lat="45.92409" lon="4.37729">
        <ele>733.2</ele>
        <time>2022-06-26T09:40:56Z</time>
      </trkpt>
      <trkpt lat="45.92404" lon="4.37729">
        <ele>733</ele>
        <time>2022-06-26T09:40:57Z</time>
      </trkpt>
      <trkpt lat="45.92401" lon="4.37729">
        <ele>733</ele>
        <time>2022-06-26T09:40:58Z</time>
      </trkpt>
      <trkpt lat="45.92397" lon="4.37729">
        <ele>732.6</ele>
        <time>2022-06-26T09:40:59Z</time>
      </trkpt>
      <trkpt lat="45.92395" lon="4.3773">
        <ele>732.6</ele>
        <time>2022-06-26T09:41:00Z</time>
      </trkpt>
      <trkpt lat="45.92393" lon="4.37732">
        <ele>732.6</ele>
        <time>2022-06-26T09:41:01Z</time>
      </trkpt>
      <trkpt lat="45.92393" lon="4.37735">
        <ele>732.6</ele>
        <time>2022-06-26T09:41:02Z</time>
      </trkpt>
      <trkpt lat="45.92395" lon="4.37738">
        <ele>732.6</ele>
        <time>2022-06-26T09:41:03Z</time>
      </trkpt>
      <trkpt lat="45.92396" lon="4.3774">
        <ele>732.4</ele>
        <time>2022-06-26T09:41:04Z</time>
      </trkpt>
      <trkpt lat="45.92398" lon="4.37742">
        <ele>732.4</ele>
        <time>2022-06-26T09:41:05Z</time>
      </trkpt>
      <trkpt lat="45.92399" lon="4.37744">
        <ele>732.4</ele>
        <time>2022-06-26T09:41:06Z</time>
      </trkpt>
      <trkpt lat="45.924" lon="4.37746">
        <ele>732.2</ele>
        <time>2022-06-26T09:41:07Z</time>
      </trkpt>
      <trkpt lat="45.92401" lon="4.37748">
        <ele>732.2</ele>
        <time>2022-06-26T09:41:08Z</time>
      </trkpt>
      <trkpt lat="45.92401" lon="4.37749">
        <ele>732.2</ele>
        <time>2022-06-26T09:41:09Z</time>
      </trkpt>
      <trkpt lat="45.92399" lon="4.37755">
        <ele>732.6</ele>
        <time>2022-06-26T10:15:25Z</time>
      </trkpt>
      <trkpt lat="45.92399" lon="4.37752">
        <ele>732.6</ele>
        <time>2022-06-26T10:15:26Z</time>
      </trkpt>
      <trkpt lat="45.92399" lon="4.3775">
        <ele>732.8</ele>
        <time>2022-06-26T10:15:27Z</time>
      </trkpt>
      <trkpt lat="45.92399" lon="4.37747">
        <ele>732.8</ele>
        <time>2022-06-26T10:15:28Z</time>
      </trkpt>
      <trkpt lat="45.92399" lon="4.37744">
        <ele>732.8</ele>
        <time>2022-06-26T10:15:29Z</time>
      </trkpt>
      <trkpt lat="45.92398" lon="4.37742">
        <ele>732.8</ele>
        <time>2022-06-26T10:15:30Z</time>
      </trkpt>
      <trkpt lat="45.92397" lon="4.37739">
        <ele>733.2</ele>
        <time>2022-06-26T10:15:31Z</time>
      </trkpt>
      <trkpt lat="45.92395" lon="4.37738">
        <ele>733.2</ele>
        <time>2022-06-26T10:15:32Z</time>
      </trkpt>
      <trkpt lat="45.92392" lon="4.37737">
        <ele>733.2</ele>
        <time>2022-06-26T10:15:33Z</time>
      </trkpt>
      <trkpt lat="45.92389" lon="4.37737">
        <ele>733.2</ele>
        <time>2022-06-26T10:15:34Z</time>
      </trkpt>
      <trkpt lat="45.92385" lon="4.37737">
        <ele>733.2</ele>
        <time>2022-06-26T10:15:35Z</time>
      </trkpt>
      <trkpt lat="45.92381" lon="4.37736">
        <ele>733.2</ele>
        <time>2022-06-26T10:15:36Z</time>
      </trkpt>
      <trkpt lat="45.92378" lon="4.37736">
        <ele>733.2</ele>
        <time>2022-06-26T10:15:37Z</time>
      </trkpt>
      <trkpt lat="45.92374" lon="4.37735">
        <ele>733.2</ele>
        <time>2022-06-26T10:15:38Z</time>
      </trkpt>
      <trkpt lat="45.9237" lon="4.37735">
        <ele>733.2</ele>
        <time>2022-06-26T10:15:39Z</time>
      </trkpt>
      <trkpt lat="45.92366" lon="4.37735">
        <ele>733</ele>
        <time>2022-06-26T10:15:40Z</time>
      </trkpt>
      <trkpt lat="45.92363" lon="4.37735">
        <ele>733</ele>
        <time>2022-06-26T10:15:41Z</time>
      </trkpt>
      <trkpt lat="45.92358" lon="4.37734">
        <ele>733</ele>
        <time>2022-06-26T10:15:42Z</time>
      </trkpt>
      <trkpt lat="45.92354" lon="4.37734">
        <ele>732.6</ele>
        <time>2022-06-26T10:15:43Z</time>
      </trkpt>
      <trkpt lat="45.9235" lon="4.37734">
        <ele>732.6</ele>
        <time>2022-06-26T10:15:44Z</time>
      </trkpt>
      <trkpt lat="45.92345" lon="4.37734">
        <ele>732.6</ele>
        <time>2022-06-26T10:15:45Z</time>
      </trkpt>
      <trkpt lat="45.9234" lon="4.37734">
        <ele>732.4</ele>
        <time>2022-06-26T10:15:46Z</time>
      </trkpt>
      <trkpt lat="45.92335" lon="4.37733">
        <ele>732.4</ele>
        <time>2022-06-26T10:15:47Z</time>
      </trkpt>
      <trkpt lat="45.9233" lon="4.37733">
        <ele>732.4</ele>
        <time>2022-06-26T10:15:48Z</time>
      </trkpt>
      <trkpt lat="45.92325" lon="4.37732">
        <ele>732.2</ele>
        <time>2022-06-26T10:15:49Z</time>
      </trkpt>
      <trkpt lat="45.9232" lon="4.37732">
        <ele>732.2</ele>
        <time>2022-06-26T10:15:50Z</time>
      </trkpt>
      <trkpt lat="45.92315" lon="4.37732">
        <ele>732.2</ele>
        <time>2022-06-26T10:15:51Z</time>
      </trkpt>
      <trkpt lat="45.9231" lon="4.37732">
        <ele>732</ele>
        <time>2022-06-26T10:15:52Z</time>
      </trkpt>
      <trkpt lat="45.92305" lon="4.37732">
        <ele>732</ele>
        <time>2022-06-26T10:15:53Z</time>
      </trkpt>
      <trkpt lat="45.923" lon="4.37732">
        <ele>732</ele>
        <time>2022-06-26T10:15:54Z</time>
      </trkpt>
      <trkpt lat="45.92296" lon="4.37732">
        <ele>732</ele>
        <time>2022-06-26T10:15:55Z</time>
      </trkpt>
      <trkpt lat="45.92291" lon="4.37733">
        <ele>732</ele>
        <time>2022-06-26T10:15:56Z</time>
      </trkpt>
      <trkpt lat="45.92287" lon="4.37733">
        <ele>732</ele>
        <time>2022-06-26T10:15:57Z</time>
      </trkpt>
      <trkpt lat="45.92283" lon="4.37733">
        <ele>732</ele>
        <time>2022-06-26T10:15:58Z</time>
      </trkpt>
      <trkpt lat="45.92279" lon="4.37733">
        <ele>732</ele>
        <time>2022-06-26T10:15:59Z</time>
      </trkpt>
      <trkpt lat="45.92275" lon="4.37733">
        <ele>732.2</ele>
        <time>2022-06-26T10:16:00Z</time>
      </trkpt>
      <trkpt lat="45.92272" lon="4.37734">
        <ele>732.2</ele>
        <time>2022-06-26T10:16:01Z</time>
      </trkpt>
      <trkpt lat="45.92268" lon="4.37735">
        <ele>732.2</ele>
        <time>2022-06-26T10:16:02Z</time>
      </trkpt>
      <trkpt lat="45.92264" lon="4.37736">
        <ele>732.2</ele>
        <time>2022-06-26T10:16:03Z</time>
      </trkpt>
      <trkpt lat="45.92261" lon="4.37738">
        <ele>732.4</ele>
        <time>2022-06-26T10:16:04Z</time>
      </trkpt>
      <trkpt lat="45.92257" lon="4.3774">
        <ele>732.4</ele>
        <time>2022-06-26T10:16:05Z</time>
      </trkpt>
      <trkpt lat="45.92255" lon="4.37742">
        <ele>732.4</ele>
        <time>2022-06-26T10:16:06Z</time>
      </trkpt>
      <trkpt lat="45.92252" lon="4.37743">
        <ele>732.4</ele>
        <time>2022-06-26T10:16:07Z</time>
      </trkpt>
      <trkpt lat="45.9225" lon="4.37744">
        <ele>732.8</ele>
        <time>2022-06-26T10:16:08Z</time>
      </trkpt>
      <trkpt lat="45.92247" lon="4.37744">
        <ele>732.8</ele>
        <time>2022-06-26T10:16:09Z</time>
      </trkpt>
      <trkpt lat="45.92245" lon="4.37744">
        <ele>732.8</ele>
        <time>2022-06-26T10:16:10Z</time>
      </trkpt>
      <trkpt lat="45.92243" lon="4.37745">
        <ele>733</ele>
        <time>2022-06-26T10:16:11Z</time>
      </trkpt>
      <trkpt lat="45.92241" lon="4.37745">
        <ele>733</ele>
        <time>2022-06-26T10:16:12Z</time>
      </trkpt>
      <trkpt lat="45.9224" lon="4.37746">
        <ele>733</ele>
        <time>2022-06-26T10:16:13Z</time>
      </trkpt>
      <trkpt lat="45.92239" lon="4.37746">
        <ele>733</ele>
        <time>2022-06-26T10:16:14Z</time>
      </trkpt>
      <trkpt lat="45.92238" lon="4.37747">
        <ele>733</ele>
        <time>2022-06-26T10:16:15Z</time>
      </trkpt>
      <trkpt lat="45.92234" lon="4.37742">
        <ele>733</ele>
        <time>2022-06-26T10:18:13Z</time>
      </trkpt>
      <trkpt lat="45.92232" lon="4.37743">
        <ele>733</ele>
        <time>2022-06-26T10:18:14Z</time>
      </trkpt>
      <trkpt lat="45.92231" lon="4.37743">
        <ele>733</ele>
        <time>2022-06-26T10:18:15Z</time>
      </trkpt>
      <trkpt lat="45.92229" lon="4.37744">
        <ele>733</ele>
        <time>2022-06-26T10:18:16Z</time>
      </trkpt>
      <trkpt lat="45.92227" lon="4.37745">
        <ele>733.2</ele>
        <time>2022-06-26T10:18:17Z</time>
      </trkpt>
      <trkpt lat="45.92225" lon="4.37745">
        <ele>733.2</ele>
        <time>2022-06-26T10:18:18Z</time>
      </trkpt>
      <trkpt lat="45.92224" lon="4.37746">
        <ele>733.2</ele>
        <time>2022-06-26T10:18:19Z</time>
      </trkpt>
      <trkpt lat="45.92221" lon="4.37746">
        <ele>733.2</ele>
        <time>2022-06-26T10:18:20Z</time>
      </trkpt>
      <trkpt lat="45.92219" lon="4.37746">
        <ele>733.4</ele>
        <time>2022-06-26T10:18:21Z</time>
      </trkpt>
      <trkpt lat="45.92216" lon="4.37746">
        <ele>733.4</ele>
        <time>2022-06-26T10:18:22Z</time>
      </trkpt>
      <trkpt lat="45.92213" lon="4.37745">
        <ele>733.4</ele>
        <time>2022-06-26T10:18:23Z</time>
      </trkpt>
      <trkpt lat="45.9221" lon="4.37745">
        <ele>733.4</ele>
        <time>2022-06-26T10:18:24Z</time>
      </trkpt>
      <trkpt lat="45.92206" lon="4.37745">
        <ele>733.4</ele>
        <time>2022-06-26T10:18:25Z</time>
      </trkpt>
      <trkpt lat="45.92203" lon="4.37745">
        <ele>733.4</ele>
        <time>2022-06-26T10:18:26Z</time>
      </trkpt>
      <trkpt lat="45.92199" lon="4.37745">
        <ele>733.8</ele>
        <time>2022-06-26T10:18:27Z</time>
      </trkpt>
      <trkpt lat="45.92196" lon="4.37745">
        <ele>733.8</ele>
        <time>2022-06-26T10:18:28Z</time>
      </trkpt>
      <trkpt lat="45.92192" lon="4.37745">
        <ele>734</ele>
        <time>2022-06-26T10:18:29Z</time>
      </trkpt>
      <trkpt lat="45.92188" lon="4.37745">
        <ele>734</ele>
        <time>2022-06-26T10:18:30Z</time>
      </trkpt>
      <trkpt lat="45.92185" lon="4.37745">
        <ele>734</ele>
        <time>2022-06-26T10:18:31Z</time>
      </trkpt>
      <trkpt lat="45.92181" lon="4.37745">
        <ele>734.2</ele>
        <time>2022-06-26T10:18:32Z</time>
      </trkpt>
      <trkpt lat="45.92177" lon="4.37745">
        <ele>734.2</ele>
        <time>2022-06-26T10:18:33Z</time>
      </trkpt>
      <trkpt lat="45.92174" lon="4.37745">
        <ele>734.2</ele>
        <time>2022-06-26T10:18:34Z</time>
      </trkpt>
      <trkpt lat="45.9217" lon="4.37745">
        <ele>734.4</ele>
        <time>2022-06-26T10:18:35Z</time>
      </trkpt>
      <trkpt lat="45.92166" lon="4.37746">
        <ele>734.4</ele>
        <time>2022-06-26T10:18:36Z</time>
      </trkpt>
      <trkpt lat="45.92162" lon="4.37746">
        <ele>734.4</ele>
        <time>2022-06-26T10:18:37Z</time>
      </trkpt>
      <trkpt lat="45.92158" lon="4.37746">
        <ele>734.8</ele>
        <time>2022-06-26T10:18:38Z</time>
      </trkpt>
      <trkpt lat="45.92154" lon="4.37747">
        <ele>734.8</ele>
        <time>2022-06-26T10:18:39Z</time>
      </trkpt>
      <trkpt lat="45.92149" lon="4.37748">
        <ele>735</ele>
        <time>2022-06-26T10:18:40Z</time>
      </trkpt>
      <trkpt lat="45.92145" lon="4.3775">
        <ele>735</ele>
        <time>2022-06-26T10:18:41Z</time>
      </trkpt>
      <trkpt lat="45.92141" lon="4.37752">
        <ele>735</ele>
        <time>2022-06-26T10:18:42Z</time>
      </trkpt>
      <trkpt lat="45.92137" lon="4.37755">
        <ele>735</ele>
        <time>2022-06-26T10:18:43Z</time>
      </trkpt>
      <trkpt lat="45.92133" lon="4.37758">
        <ele>735</ele>
        <time>2022-06-26T10:18:44Z</time>
      </trkpt>
      <trkpt lat="45.92129" lon="4.37761">
        <ele>735</ele>
        <time>2022-06-26T10:18:45Z</time>
      </trkpt>
      <trkpt lat="45.92125" lon="4.37764">
        <ele>735</ele>
        <time>2022-06-26T10:18:46Z</time>
      </trkpt>
      <trkpt lat="45.92121" lon="4.37768">
        <ele>735</ele>
        <time>2022-06-26T10:18:47Z</time>
      </trkpt>
      <trkpt lat="45.92116" lon="4.37771">
        <ele>735</ele>
        <time>2022-06-26T10:18:48Z</time>
      </trkpt>
      <trkpt lat="45.92112" lon="4.37775">
        <ele>735</ele>
        <time>2022-06-26T10:18:49Z</time>
      </trkpt>
      <trkpt lat="45.92108" lon="4.37779">
        <ele>735</ele>
        <time>2022-06-26T10:18:50Z</time>
      </trkpt>
      <trkpt lat="45.92104" lon="4.37783">
        <ele>735</ele>
        <time>2022-06-26T10:18:51Z</time>
      </trkpt>
      <trkpt lat="45.92099" lon="4.37786">
        <ele>735</ele>
        <time>2022-06-26T10:18:52Z</time>
      </trkpt>
      <trkpt lat="45.92095" lon="4.3779">
        <ele>735</ele>
        <time>2022-06-26T10:18:53Z</time>
      </trkpt>
      <trkpt lat="45.92091" lon="4.37794">
        <ele>735</ele>
        <time>2022-06-26T10:18:54Z</time>
      </trkpt>
      <trkpt lat="45.92086" lon="4.37797">
        <ele>735</ele>
        <time>2022-06-26T10:18:55Z</time>
      </trkpt>
      <trkpt lat="45.92081" lon="4.37801">
        <ele>735</ele>
        <time>2022-06-26T10:18:56Z</time>
      </trkpt>
      <trkpt lat="45.92076" lon="4.37803">
        <ele>735</ele>
        <time>2022-06-26T10:18:57Z</time>
      </trkpt>
      <trkpt lat="45.92071" lon="4.37806">
        <ele>735</ele>
        <time>2022-06-26T10:18:58Z</time>
      </trkpt>
      <trkpt lat="45.92066" lon="4.37807">
        <ele>735</ele>
        <time>2022-06-26T10:18:59Z</time>
      </trkpt>
      <trkpt lat="45.92061" lon="4.37809">
        <ele>735</ele>
        <time>2022-06-26T10:19:00Z</time>
      </trkpt>
      <trkpt lat="45.92056" lon="4.37809">
        <ele>735</ele>
        <time>2022-06-26T10:19:01Z</time>
      </trkpt>
      <trkpt lat="45.92051" lon="4.37809">
        <ele>735</ele>
        <time>2022-06-26T10:19:02Z</time>
      </trkpt>
      <trkpt lat="45.92046" lon="4.37808">
        <ele>735.4</ele>
        <time>2022-06-26T10:19:03Z</time>
      </trkpt>
      <trkpt lat="45.92041" lon="4.37807">
        <ele>735.4</ele>
        <time>2022-06-26T10:19:04Z</time>
      </trkpt>
      <trkpt lat="45.92037" lon="4.37805">
        <ele>735.4</ele>
        <time>2022-06-26T10:19:05Z</time>
      </trkpt>
      <trkpt lat="45.92032" lon="4.37803">
        <ele>735.6</ele>
        <time>2022-06-26T10:19:06Z</time>
      </trkpt>
      <trkpt lat="45.92028" lon="4.378">
        <ele>735.6</ele>
        <time>2022-06-26T10:19:07Z</time>
      </trkpt>
      <trkpt lat="45.92023" lon="4.37796">
        <ele>735.6</ele>
        <time>2022-06-26T10:19:08Z</time>
      </trkpt>
      <trkpt lat="45.9202" lon="4.37792">
        <ele>735.6</ele>
        <time>2022-06-26T10:19:09Z</time>
      </trkpt>
      <trkpt lat="45.92017" lon="4.37787">
        <ele>736</ele>
        <time>2022-06-26T10:19:10Z</time>
      </trkpt>
      <trkpt lat="45.92014" lon="4.37782">
        <ele>736</ele>
        <time>2022-06-26T10:19:11Z</time>
      </trkpt>
      <trkpt lat="45.92011" lon="4.37777">
        <ele>736.2</ele>
        <time>2022-06-26T10:19:12Z</time>
      </trkpt>
      <trkpt lat="45.92008" lon="4.37773">
        <ele>736.2</ele>
        <time>2022-06-26T10:19:13Z</time>
      </trkpt>
      <trkpt lat="45.92005" lon="4.37768">
        <ele>736.4</ele>
        <time>2022-06-26T10:19:14Z</time>
      </trkpt>
      <trkpt lat="45.92003" lon="4.37763">
        <ele>736.4</ele>
        <time>2022-06-26T10:19:15Z</time>
      </trkpt>
      <trkpt lat="45.92001" lon="4.37757">
        <ele>736.4</ele>
        <time>2022-06-26T10:19:16Z</time>
      </trkpt>
      <trkpt lat="45.91999" lon="4.37751">
        <ele>736.6</ele>
        <time>2022-06-26T10:19:17Z</time>
      </trkpt>
      <trkpt lat="45.91997" lon="4.37745">
        <ele>736.6</ele>
        <time>2022-06-26T10:19:18Z</time>
      </trkpt>
      <trkpt lat="45.91995" lon="4.37739">
        <ele>736.6</ele>
        <time>2022-06-26T10:19:19Z</time>
      </trkpt>
      <trkpt lat="45.91992" lon="4.37733">
        <ele>736.6</ele>
        <time>2022-06-26T10:19:20Z</time>
      </trkpt>
      <trkpt lat="45.9199" lon="4.37727">
        <ele>737</ele>
        <time>2022-06-26T10:19:21Z</time>
      </trkpt>
      <trkpt lat="45.91988" lon="4.37721">
        <ele>737</ele>
        <time>2022-06-26T10:19:22Z</time>
      </trkpt>
      <trkpt lat="45.91985" lon="4.37715">
        <ele>737.2</ele>
        <time>2022-06-26T10:19:23Z</time>
      </trkpt>
      <trkpt lat="45.91983" lon="4.37709">
        <ele>737.2</ele>
        <time>2022-06-26T10:19:24Z</time>
      </trkpt>
      <trkpt lat="45.91981" lon="4.37703">
        <ele>737.2</ele>
        <time>2022-06-26T10:19:25Z</time>
      </trkpt>
      <trkpt lat="45.91979" lon="4.37697">
        <ele>737.4</ele>
        <time>2022-06-26T10:19:26Z</time>
      </trkpt>
      <trkpt lat="45.91977" lon="4.37691">
        <ele>737.4</ele>
        <time>2022-06-26T10:19:27Z</time>
      </trkpt>
      <trkpt lat="45.91975" lon="4.37684">
        <ele>737.4</ele>
        <time>2022-06-26T10:19:28Z</time>
      </trkpt>
      <trkpt lat="45.91973" lon="4.37678">
        <ele>737.4</ele>
        <time>2022-06-26T10:19:29Z</time>
      </trkpt>
      <trkpt lat="45.91971" lon="4.37672">
        <ele>737.4</ele>
        <time>2022-06-26T10:19:30Z</time>
      </trkpt>
      <trkpt lat="45.91969" lon="4.37665">
        <ele>737.6</ele>
        <time>2022-06-26T10:19:31Z</time>
      </trkpt>
      <trkpt lat="45.91967" lon="4.37659">
        <ele>737.6</ele>
        <time>2022-06-26T10:19:32Z</time>
      </trkpt>
      <trkpt lat="45.91965" lon="4.37652">
        <ele>737.8</ele>
        <time>2022-06-26T10:19:33Z</time>
      </trkpt>
      <trkpt lat="45.91963" lon="4.37646">
        <ele>737.8</ele>
        <time>2022-06-26T10:19:34Z</time>
      </trkpt>
      <trkpt lat="45.91962" lon="4.37639">
        <ele>738.2</ele>
        <time>2022-06-26T10:19:35Z</time>
      </trkpt>
      <trkpt lat="45.91961" lon="4.37633">
        <ele>738.2</ele>
        <time>2022-06-26T10:19:36Z</time>
      </trkpt>
      <trkpt lat="45.9196" lon="4.37626">
        <ele>738.2</ele>
        <time>2022-06-26T10:19:37Z</time>
      </trkpt>
      <trkpt lat="45.9196" lon="4.3762">
        <ele>738.4</ele>
        <time>2022-06-26T10:19:38Z</time>
      </trkpt>
      <trkpt lat="45.9196" lon="4.37613">
        <ele>738.4</ele>
        <time>2022-06-26T10:19:39Z</time>
      </trkpt>
      <trkpt lat="45.9196" lon="4.37607">
        <ele>738.4</ele>
        <time>2022-06-26T10:19:40Z</time>
      </trkpt>
      <trkpt lat="45.91961" lon="4.376">
        <ele>738.6</ele>
        <time>2022-06-26T10:19:41Z</time>
      </trkpt>
      <trkpt lat="45.91961" lon="4.37594">
        <ele>738.6</ele>
        <time>2022-06-26T10:19:42Z</time>
      </trkpt>
      <trkpt lat="45.91962" lon="4.37588">
        <ele>738.8</ele>
        <time>2022-06-26T10:19:43Z</time>
      </trkpt>
      <trkpt lat="45.91963" lon="4.37582">
        <ele>738.8</ele>
        <time>2022-06-26T10:19:44Z</time>
      </trkpt>
      <trkpt lat="45.91964" lon="4.37576">
        <ele>739.2</ele>
        <time>2022-06-26T10:19:45Z</time>
      </trkpt>
      <trkpt lat="45.91965" lon="4.3757">
        <ele>739.2</ele>
        <time>2022-06-26T10:19:46Z</time>
      </trkpt>
      <trkpt lat="45.91966" lon="4.37564">
        <ele>739.4</ele>
        <time>2022-06-26T10:19:47Z</time>
      </trkpt>
      <trkpt lat="45.91967" lon="4.37558">
        <ele>739.6</ele>
        <time>2022-06-26T10:19:48Z</time>
      </trkpt>
      <trkpt lat="45.91968" lon="4.37552">
        <ele>740</ele>
        <time>2022-06-26T10:19:49Z</time>
      </trkpt>
      <trkpt lat="45.91969" lon="4.37546">
        <ele>740</ele>
        <time>2022-06-26T10:19:50Z</time>
      </trkpt>
      <trkpt lat="45.9197" lon="4.3754">
        <ele>740.2</ele>
        <time>2022-06-26T10:19:51Z</time>
      </trkpt>
      <trkpt lat="45.91971" lon="4.37534">
        <ele>740.2</ele>
        <time>2022-06-26T10:19:52Z</time>
      </trkpt>
      <trkpt lat="45.91971" lon="4.37529">
        <ele>740.6</ele>
        <time>2022-06-26T10:19:53Z</time>
      </trkpt>
      <trkpt lat="45.91972" lon="4.37524">
        <ele>740.6</ele>
        <time>2022-06-26T10:19:54Z</time>
      </trkpt>
      <trkpt lat="45.91972" lon="4.37519">
        <ele>740.6</ele>
        <time>2022-06-26T10:19:55Z</time>
      </trkpt>
      <trkpt lat="45.91972" lon="4.37514">
        <ele>740.8</ele>
        <time>2022-06-26T10:19:56Z</time>
      </trkpt>
      <trkpt lat="45.91972" lon="4.37511">
        <ele>740.8</ele>
        <time>2022-06-26T10:19:57Z</time>
      </trkpt>
      <trkpt lat="45.91972" lon="4.37509">
        <ele>741</ele>
        <time>2022-06-26T10:19:58Z</time>
      </trkpt>
      <trkpt lat="45.91972" lon="4.37508">
        <ele>741</ele>
        <time>2022-06-26T10:19:59Z</time>
      </trkpt>
      <trkpt lat="45.91971" lon="4.375">
        <ele>741.2</ele>
        <time>2022-06-26T10:21:42Z</time>
      </trkpt>
      <trkpt lat="45.91971" lon="4.37497">
        <ele>741.2</ele>
        <time>2022-06-26T10:21:43Z</time>
      </trkpt>
      <trkpt lat="45.9197" lon="4.37495">
        <ele>741.2</ele>
        <time>2022-06-26T10:21:44Z</time>
      </trkpt>
      <trkpt lat="45.9197" lon="4.37491">
        <ele>741.2</ele>
        <time>2022-06-26T10:21:45Z</time>
      </trkpt>
      <trkpt lat="45.91969" lon="4.37488">
        <ele>741.2</ele>
        <time>2022-06-26T10:21:46Z</time>
      </trkpt>
      <trkpt lat="45.91969" lon="4.37484">
        <ele>741.2</ele>
        <time>2022-06-26T10:21:47Z</time>
      </trkpt>
      <trkpt lat="45.91968" lon="4.3748">
        <ele>741.2</ele>
        <time>2022-06-26T10:21:48Z</time>
      </trkpt>
      <trkpt lat="45.91967" lon="4.37476">
        <ele>741.2</ele>
        <time>2022-06-26T10:21:49Z</time>
      </trkpt>
      <trkpt lat="45.91966" lon="4.37471">
        <ele>741.4</ele>
        <time>2022-06-26T10:21:50Z</time>
      </trkpt>
      <trkpt lat="45.91966" lon="4.37467">
        <ele>741.4</ele>
        <time>2022-06-26T10:21:51Z</time>
      </trkpt>
      <trkpt lat="45.91965" lon="4.37462">
        <ele>741.4</ele>
        <time>2022-06-26T10:21:52Z</time>
      </trkpt>
      <trkpt lat="45.91964" lon="4.37457">
        <ele>741.6</ele>
        <time>2022-06-26T10:21:53Z</time>
      </trkpt>
      <trkpt lat="45.91963" lon="4.37451">
        <ele>741.6</ele>
        <time>2022-06-26T10:21:54Z</time>
      </trkpt>
      <trkpt lat="45.91961" lon="4.37446">
        <ele>741.6</ele>
        <time>2022-06-26T10:21:55Z</time>
      </trkpt>
      <trkpt lat="45.9196" lon="4.37441">
        <ele>742</ele>
        <time>2022-06-26T10:21:56Z</time>
      </trkpt>
      <trkpt lat="45.91959" lon="4.37436">
        <ele>742</ele>
        <time>2022-06-26T10:21:57Z</time>
      </trkpt>
      <trkpt lat="45.91957" lon="4.3743">
        <ele>742</ele>
        <time>2022-06-26T10:21:58Z</time>
      </trkpt>
      <trkpt lat="45.91956" lon="4.37425">
        <ele>742.2</ele>
        <time>2022-06-26T10:21:59Z</time>
      </trkpt>
      <trkpt lat="45.91955" lon="4.37419">
        <ele>742.2</ele>
        <time>2022-06-26T10:22:00Z</time>
      </trkpt>
      <trkpt lat="45.91953" lon="4.37413">
        <ele>742.4</ele>
        <time>2022-06-26T10:22:01Z</time>
      </trkpt>
      <trkpt lat="45.91951" lon="4.37408">
        <ele>742.4</ele>
        <time>2022-06-26T10:22:02Z</time>
      </trkpt>
      <trkpt lat="45.91949" lon="4.37402">
        <ele>742.4</ele>
        <time>2022-06-26T10:22:03Z</time>
      </trkpt>
      <trkpt lat="45.91947" lon="4.37397">
        <ele>742.8</ele>
        <time>2022-06-26T10:22:04Z</time>
      </trkpt>
      <trkpt lat="45.91945" lon="4.37391">
        <ele>742.8</ele>
        <time>2022-06-26T10:22:05Z</time>
      </trkpt>
      <trkpt lat="45.91942" lon="4.37387">
        <ele>742.8</ele>
        <time>2022-06-26T10:22:06Z</time>
      </trkpt>
      <trkpt lat="45.91939" lon="4.37382">
        <ele>743.2</ele>
        <time>2022-06-26T10:22:07Z</time>
      </trkpt>
      <trkpt lat="45.91935" lon="4.37378">
        <ele>743.2</ele>
        <time>2022-06-26T10:22:08Z</time>
      </trkpt>
      <trkpt lat="45.91931" lon="4.37374">
        <ele>743.4</ele>
        <time>2022-06-26T10:22:09Z</time>
      </trkpt>
      <trkpt lat="45.91928" lon="4.37371">
        <ele>743.4</ele>
        <time>2022-06-26T10:22:10Z</time>
      </trkpt>
      <trkpt lat="45.91924" lon="4.37368">
        <ele>743.4</ele>
        <time>2022-06-26T10:22:11Z</time>
      </trkpt>
      <trkpt lat="45.9192" lon="4.37366">
        <ele>743.8</ele>
        <time>2022-06-26T10:22:12Z</time>
      </trkpt>
      <trkpt lat="45.91916" lon="4.37363">
        <ele>743.8</ele>
        <time>2022-06-26T10:22:13Z</time>
      </trkpt>
      <trkpt lat="45.91911" lon="4.37361">
        <ele>744</ele>
        <time>2022-06-26T10:22:14Z</time>
      </trkpt>
      <trkpt lat="45.91907" lon="4.3736">
        <ele>744</ele>
        <time>2022-06-26T10:22:15Z</time>
      </trkpt>
      <trkpt lat="45.91903" lon="4.37359">
        <ele>744.4</ele>
        <time>2022-06-26T10:22:16Z</time>
      </trkpt>
      <trkpt lat="45.91898" lon="4.37358">
        <ele>744.4</ele>
        <time>2022-06-26T10:22:17Z</time>
      </trkpt>
      <trkpt lat="45.91894" lon="4.37358">
        <ele>744.6</ele>
        <time>2022-06-26T10:22:18Z</time>
      </trkpt>
      <trkpt lat="45.91889" lon="4.37358">
        <ele>744.6</ele>
        <time>2022-06-26T10:22:19Z</time>
      </trkpt>
      <trkpt lat="45.91885" lon="4.37358">
        <ele>744.8</ele>
        <time>2022-06-26T10:22:20Z</time>
      </trkpt>
      <trkpt lat="45.9188" lon="4.37359">
        <ele>745</ele>
        <time>2022-06-26T10:22:21Z</time>
      </trkpt>
      <trkpt lat="45.91875" lon="4.37359">
        <ele>745</ele>
        <time>2022-06-26T10:22:22Z</time>
      </trkpt>
      <trkpt lat="45.9187" lon="4.3736">
        <ele>745.2</ele>
        <time>2022-06-26T10:22:23Z</time>
      </trkpt>
      <trkpt lat="45.91866" lon="4.37361">
        <ele>745.2</ele>
        <time>2022-06-26T10:22:24Z</time>
      </trkpt>
      <trkpt lat="45.91861" lon="4.37361">
        <ele>745.2</ele>
        <time>2022-06-26T10:22:25Z</time>
      </trkpt>
      <trkpt lat="45.91856" lon="4.37361">
        <ele>745.2</ele>
        <time>2022-06-26T10:22:26Z</time>
      </trkpt>
      <trkpt lat="45.91851" lon="4.37361">
        <ele>745.2</ele>
        <time>2022-06-26T10:22:27Z</time>
      </trkpt>
      <trkpt lat="45.91846" lon="4.37361">
        <ele>745.2</ele>
        <time>2022-06-26T10:22:28Z</time>
      </trkpt>
      <trkpt lat="45.91841" lon="4.3736">
        <ele>745.2</ele>
        <time>2022-06-26T10:22:29Z</time>
      </trkpt>
      <trkpt lat="45.91836" lon="4.37358">
        <ele>745.2</ele>
        <time>2022-06-26T10:22:30Z</time>
      </trkpt>
      <trkpt lat="45.91831" lon="4.37356">
        <ele>745.4</ele>
        <time>2022-06-26T10:22:31Z</time>
      </trkpt>
      <trkpt lat="45.91826" lon="4.37354">
        <ele>745.4</ele>
        <time>2022-06-26T10:22:32Z</time>
      </trkpt>
      <trkpt lat="45.91822" lon="4.37351">
        <ele>745.8</ele>
        <time>2022-06-26T10:22:33Z</time>
      </trkpt>
      <trkpt lat="45.91818" lon="4.37348">
        <ele>745.8</ele>
        <time>2022-06-26T10:22:34Z</time>
      </trkpt>
      <trkpt lat="45.91814" lon="4.37345">
        <ele>746</ele>
        <time>2022-06-26T10:22:35Z</time>
      </trkpt>
      <trkpt lat="45.9181" lon="4.37342">
        <ele>746</ele>
        <time>2022-06-26T10:22:36Z</time>
      </trkpt>
      <trkpt lat="45.91806" lon="4.37338">
        <ele>746.4</ele>
        <time>2022-06-26T10:22:37Z</time>
      </trkpt>
      <trkpt lat="45.91802" lon="4.37335">
        <ele>746.4</ele>
        <time>2022-06-26T10:22:38Z</time>
      </trkpt>
      <trkpt lat="45.91798" lon="4.37331">
        <ele>746.6</ele>
        <time>2022-06-26T10:22:39Z</time>
      </trkpt>
      <trkpt lat="45.91794" lon="4.37328">
        <ele>746.6</ele>
        <time>2022-06-26T10:22:40Z</time>
      </trkpt>
      <trkpt lat="45.91789" lon="4.37325">
        <ele>746.8</ele>
        <time>2022-06-26T10:22:41Z</time>
      </trkpt>
      <trkpt lat="45.91785" lon="4.37322">
        <ele>746.8</ele>
        <time>2022-06-26T10:22:42Z</time>
      </trkpt>
      <trkpt lat="45.91781" lon="4.37319">
        <ele>746.8</ele>
        <time>2022-06-26T10:22:43Z</time>
      </trkpt>
      <trkpt lat="45.91776" lon="4.37316">
        <ele>747.2</ele>
        <time>2022-06-26T10:22:44Z</time>
      </trkpt>
      <trkpt lat="45.91772" lon="4.37313">
        <ele>747.2</ele>
        <time>2022-06-26T10:22:45Z</time>
      </trkpt>
      <trkpt lat="45.91767" lon="4.37311">
        <ele>747.4</ele>
        <time>2022-06-26T10:22:46Z</time>
      </trkpt>
      <trkpt lat="45.91763" lon="4.37309">
        <ele>747.4</ele>
        <time>2022-06-26T10:22:47Z</time>
      </trkpt>
      <trkpt lat="45.91758" lon="4.37307">
        <ele>747.6</ele>
        <time>2022-06-26T10:22:48Z</time>
      </trkpt>
      <trkpt lat="45.91754" lon="4.37305">
        <ele>747.6</ele>
        <time>2022-06-26T10:22:49Z</time>
      </trkpt>
      <trkpt lat="45.91749" lon="4.37303">
        <ele>747.6</ele>
        <time>2022-06-26T10:22:50Z</time>
      </trkpt>
      <trkpt lat="45.91745" lon="4.373">
        <ele>748</ele>
        <time>2022-06-26T10:22:51Z</time>
      </trkpt>
      <trkpt lat="45.9174" lon="4.37298">
        <ele>748</ele>
        <time>2022-06-26T10:22:52Z</time>
      </trkpt>
      <trkpt lat="45.91735" lon="4.37296">
        <ele>748</ele>
        <time>2022-06-26T10:22:53Z</time>
      </trkpt>
      <trkpt lat="45.91731" lon="4.37295">
        <ele>748.2</ele>
        <time>2022-06-26T10:22:54Z</time>
      </trkpt>
      <trkpt lat="45.91726" lon="4.37292">
        <ele>748.2</ele>
        <time>2022-06-26T10:22:55Z</time>
      </trkpt>
      <trkpt lat="45.91722" lon="4.3729">
        <ele>748.6</ele>
        <time>2022-06-26T10:22:56Z</time>
      </trkpt>
      <trkpt lat="45.91717" lon="4.37288">
        <ele>748.6</ele>
        <time>2022-06-26T10:22:57Z</time>
      </trkpt>
      <trkpt lat="45.91713" lon="4.37286">
        <ele>748.8</ele>
        <time>2022-06-26T10:22:58Z</time>
      </trkpt>
      <trkpt lat="45.91708" lon="4.37284">
        <ele>748.8</ele>
        <time>2022-06-26T10:22:59Z</time>
      </trkpt>
      <trkpt lat="45.91704" lon="4.37282">
        <ele>748.8</ele>
        <time>2022-06-26T10:23:00Z</time>
      </trkpt>
      <trkpt lat="45.91699" lon="4.3728">
        <ele>749</ele>
        <time>2022-06-26T10:23:01Z</time>
      </trkpt>
      <trkpt lat="45.91695" lon="4.37277">
        <ele>749</ele>
        <time>2022-06-26T10:23:02Z</time>
      </trkpt>
      <trkpt lat="45.9169" lon="4.37274">
        <ele>749.2</ele>
        <time>2022-06-26T10:23:03Z</time>
      </trkpt>
      <trkpt lat="45.91686" lon="4.37271">
        <ele>749.2</ele>
        <time>2022-06-26T10:23:04Z</time>
      </trkpt>
      <trkpt lat="45.91682" lon="4.37268">
        <ele>749.2</ele>
        <time>2022-06-26T10:23:05Z</time>
      </trkpt>
      <trkpt lat="45.91678" lon="4.37265">
        <ele>749.6</ele>
        <time>2022-06-26T10:23:06Z</time>
      </trkpt>
      <trkpt lat="45.91674" lon="4.37262">
        <ele>749.6</ele>
        <time>2022-06-26T10:23:07Z</time>
      </trkpt>
      <trkpt lat="45.9167" lon="4.37259">
        <ele>749.8</ele>
        <time>2022-06-26T10:23:08Z</time>
      </trkpt>
      <trkpt lat="45.91666" lon="4.37255">
        <ele>749.8</ele>
        <time>2022-06-26T10:23:09Z</time>
      </trkpt>
      <trkpt lat="45.91662" lon="4.37251">
        <ele>750</ele>
        <time>2022-06-26T10:23:10Z</time>
      </trkpt>
      <trkpt lat="45.91658" lon="4.37248">
        <ele>750</ele>
        <time>2022-06-26T10:23:11Z</time>
      </trkpt>
      <trkpt lat="45.91655" lon="4.37244">
        <ele>750.4</ele>
        <time>2022-06-26T10:23:12Z</time>
      </trkpt>
      <trkpt lat="45.91651" lon="4.37241">
        <ele>750.4</ele>
        <time>2022-06-26T10:23:13Z</time>
      </trkpt>
      <trkpt lat="45.91647" lon="4.37237">
        <ele>750.4</ele>
        <time>2022-06-26T10:23:14Z</time>
      </trkpt>
      <trkpt lat="45.91643" lon="4.37233">
        <ele>750.6</ele>
        <time>2022-06-26T10:23:15Z</time>
      </trkpt>
      <trkpt lat="45.91639" lon="4.37229">
        <ele>750.6</ele>
        <time>2022-06-26T10:23:16Z</time>
      </trkpt>
      <trkpt lat="45.91635" lon="4.37226">
        <ele>750.6</ele>
        <time>2022-06-26T10:23:17Z</time>
      </trkpt>
      <trkpt lat="45.91631" lon="4.37222">
        <ele>751</ele>
        <time>2022-06-26T10:23:18Z</time>
      </trkpt>
      <trkpt lat="45.91627" lon="4.37219">
        <ele>751</ele>
        <time>2022-06-26T10:23:19Z</time>
      </trkpt>
      <trkpt lat="45.91623" lon="4.37215">
        <ele>751.2</ele>
        <time>2022-06-26T10:23:20Z</time>
      </trkpt>
      <trkpt lat="45.9162" lon="4.37212">
        <ele>751.2</ele>
        <time>2022-06-26T10:23:21Z</time>
      </trkpt>
      <trkpt lat="45.91616" lon="4.37208">
        <ele>751.6</ele>
        <time>2022-06-26T10:23:22Z</time>
      </trkpt>
      <trkpt lat="45.91612" lon="4.37205">
        <ele>751.6</ele>
        <time>2022-06-26T10:23:23Z</time>
      </trkpt>
      <trkpt lat="45.91608" lon="4.37202">
        <ele>751.8</ele>
        <time>2022-06-26T10:23:24Z</time>
      </trkpt>
      <trkpt lat="45.91604" lon="4.37198">
        <ele>752</ele>
        <time>2022-06-26T10:23:25Z</time>
      </trkpt>
      <trkpt lat="45.91601" lon="4.37195">
        <ele>752</ele>
        <time>2022-06-26T10:23:26Z</time>
      </trkpt>
      <trkpt lat="45.91597" lon="4.37191">
        <ele>752</ele>
        <time>2022-06-26T10:23:27Z</time>
      </trkpt>
      <trkpt lat="45.91593" lon="4.37188">
        <ele>752</ele>
        <time>2022-06-26T10:23:28Z</time>
      </trkpt>
      <trkpt lat="45.91589" lon="4.37184">
        <ele>752.2</ele>
        <time>2022-06-26T10:23:29Z</time>
      </trkpt>
      <trkpt lat="45.91585" lon="4.37181">
        <ele>752.2</ele>
        <time>2022-06-26T10:23:30Z</time>
      </trkpt>
      <trkpt lat="45.91581" lon="4.37178">
        <ele>752.2</ele>
        <time>2022-06-26T10:23:31Z</time>
      </trkpt>
      <trkpt lat="45.91577" lon="4.37175">
        <ele>752.4</ele>
        <time>2022-06-26T10:23:32Z</time>
      </trkpt>
      <trkpt lat="45.91573" lon="4.37172">
        <ele>752.4</ele>
        <time>2022-06-26T10:23:33Z</time>
      </trkpt>
      <trkpt lat="45.91568" lon="4.37169">
        <ele>752.4</ele>
        <time>2022-06-26T10:23:34Z</time>
      </trkpt>
      <trkpt lat="45.91564" lon="4.37166">
        <ele>752.8</ele>
        <time>2022-06-26T10:23:35Z</time>
      </trkpt>
      <trkpt lat="45.9156" lon="4.37164">
        <ele>752.8</ele>
        <time>2022-06-26T10:23:36Z</time>
      </trkpt>
      <trkpt lat="45.91556" lon="4.37161">
        <ele>753</ele>
        <time>2022-06-26T10:23:37Z</time>
      </trkpt>
      <trkpt lat="45.91552" lon="4.37159">
        <ele>753</ele>
        <time>2022-06-26T10:23:38Z</time>
      </trkpt>
      <trkpt lat="45.91548" lon="4.37157">
        <ele>753</ele>
        <time>2022-06-26T10:23:39Z</time>
      </trkpt>
      <trkpt lat="45.91544" lon="4.37155">
        <ele>753.4</ele>
        <time>2022-06-26T10:23:40Z</time>
      </trkpt>
      <trkpt lat="45.9154" lon="4.37153">
        <ele>753.4</ele>
        <time>2022-06-26T10:23:41Z</time>
      </trkpt>
      <trkpt lat="45.91535" lon="4.37151">
        <ele>753.6</ele>
        <time>2022-06-26T10:23:42Z</time>
      </trkpt>
      <trkpt lat="45.91531" lon="4.3715">
        <ele>753.6</ele>
        <time>2022-06-26T10:23:43Z</time>
      </trkpt>
      <trkpt lat="45.91527" lon="4.37148">
        <ele>753.8</ele>
        <time>2022-06-26T10:23:44Z</time>
      </trkpt>
      <trkpt lat="45.91523" lon="4.37147">
        <ele>753.8</ele>
        <time>2022-06-26T10:23:45Z</time>
      </trkpt>
      <trkpt lat="45.91518" lon="4.37145">
        <ele>753.8</ele>
        <time>2022-06-26T10:23:46Z</time>
      </trkpt>
      <trkpt lat="45.91514" lon="4.37143">
        <ele>754.2</ele>
        <time>2022-06-26T10:23:47Z</time>
      </trkpt>
      <trkpt lat="45.91509" lon="4.37142">
        <ele>754.2</ele>
        <time>2022-06-26T10:23:48Z</time>
      </trkpt>
      <trkpt lat="45.91505" lon="4.37139">
        <ele>754.2</ele>
        <time>2022-06-26T10:23:49Z</time>
      </trkpt>
      <trkpt lat="45.91501" lon="4.37137">
        <ele>754.4</ele>
        <time>2022-06-26T10:23:50Z</time>
      </trkpt>
      <trkpt lat="45.91496" lon="4.37134">
        <ele>754.4</ele>
        <time>2022-06-26T10:23:51Z</time>
      </trkpt>
      <trkpt lat="45.91492" lon="4.3713">
        <ele>754.4</ele>
        <time>2022-06-26T10:23:52Z</time>
      </trkpt>
      <trkpt lat="45.91488" lon="4.37127">
        <ele>754.4</ele>
        <time>2022-06-26T10:23:53Z</time>
      </trkpt>
      <trkpt lat="45.91484" lon="4.37122">
        <ele>754.6</ele>
        <time>2022-06-26T10:23:54Z</time>
      </trkpt>
      <trkpt lat="45.91481" lon="4.37117">
        <ele>754.6</ele>
        <time>2022-06-26T10:23:55Z</time>
      </trkpt>
      <trkpt lat="45.91478" lon="4.37111">
        <ele>754.6</ele>
        <time>2022-06-26T10:23:56Z</time>
      </trkpt>
      <trkpt lat="45.91475" lon="4.37105">
        <ele>754.8</ele>
        <time>2022-06-26T10:23:57Z</time>
      </trkpt>
      <trkpt lat="45.91473" lon="4.37099">
        <ele>754.8</ele>
        <time>2022-06-26T10:23:58Z</time>
      </trkpt>
      <trkpt lat="45.91471" lon="4.37093">
        <ele>755</ele>
        <time>2022-06-26T10:23:59Z</time>
      </trkpt>
      <trkpt lat="45.91469" lon="4.37086">
        <ele>755</ele>
        <time>2022-06-26T10:24:00Z</time>
      </trkpt>
      <trkpt lat="45.91468" lon="4.37079">
        <ele>755</ele>
        <time>2022-06-26T10:24:01Z</time>
      </trkpt>
      <trkpt lat="45.91467" lon="4.37072">
        <ele>755.4</ele>
        <time>2022-06-26T10:24:02Z</time>
      </trkpt>
      <trkpt lat="45.91467" lon="4.37065">
        <ele>755.4</ele>
        <time>2022-06-26T10:24:03Z</time>
      </trkpt>
      <trkpt lat="45.91467" lon="4.37058">
        <ele>755.6</ele>
        <time>2022-06-26T10:24:04Z</time>
      </trkpt>
      <trkpt lat="45.91467" lon="4.3705">
        <ele>755.6</ele>
        <time>2022-06-26T10:24:05Z</time>
      </trkpt>
      <trkpt lat="45.91468" lon="4.37043">
        <ele>755.6</ele>
        <time>2022-06-26T10:24:06Z</time>
      </trkpt>
      <trkpt lat="45.91469" lon="4.37036">
        <ele>755.6</ele>
        <time>2022-06-26T10:24:07Z</time>
      </trkpt>
      <trkpt lat="45.9147" lon="4.37029">
        <ele>756</ele>
        <time>2022-06-26T10:24:08Z</time>
      </trkpt>
      <trkpt lat="45.91471" lon="4.37022">
        <ele>756</ele>
        <time>2022-06-26T10:24:09Z</time>
      </trkpt>
      <trkpt lat="45.91472" lon="4.37015">
        <ele>756.2</ele>
        <time>2022-06-26T10:24:10Z</time>
      </trkpt>
      <trkpt lat="45.91473" lon="4.37008">
        <ele>756.2</ele>
        <time>2022-06-26T10:24:11Z</time>
      </trkpt>
      <trkpt lat="45.91474" lon="4.37001">
        <ele>756.2</ele>
        <time>2022-06-26T10:24:12Z</time>
      </trkpt>
      <trkpt lat="45.91476" lon="4.36994">
        <ele>756.6</ele>
        <time>2022-06-26T10:24:13Z</time>
      </trkpt>
      <trkpt lat="45.91477" lon="4.36987">
        <ele>756.6</ele>
        <time>2022-06-26T10:24:14Z</time>
      </trkpt>
      <trkpt lat="45.91478" lon="4.3698">
        <ele>756.8</ele>
        <time>2022-06-26T10:24:15Z</time>
      </trkpt>
      <trkpt lat="45.91479" lon="4.36973">
        <ele>756.8</ele>
        <time>2022-06-26T10:24:16Z</time>
      </trkpt>
      <trkpt lat="45.9148" lon="4.36966">
        <ele>756.8</ele>
        <time>2022-06-26T10:24:17Z</time>
      </trkpt>
      <trkpt lat="45.91481" lon="4.36959">
        <ele>757.2</ele>
        <time>2022-06-26T10:24:18Z</time>
      </trkpt>
      <trkpt lat="45.91482" lon="4.36953">
        <ele>757.2</ele>
        <time>2022-06-26T10:24:19Z</time>
      </trkpt>
      <trkpt lat="45.91483" lon="4.36946">
        <ele>757.4</ele>
        <time>2022-06-26T10:24:20Z</time>
      </trkpt>
      <trkpt lat="45.91484" lon="4.36939">
        <ele>757.4</ele>
        <time>2022-06-26T10:24:21Z</time>
      </trkpt>
      <trkpt lat="45.91484" lon="4.36932">
        <ele>757.8</ele>
        <time>2022-06-26T10:24:22Z</time>
      </trkpt>
      <trkpt lat="45.91484" lon="4.36926">
        <ele>757.8</ele>
        <time>2022-06-26T10:24:23Z</time>
      </trkpt>
      <trkpt lat="45.91483" lon="4.36919">
        <ele>758</ele>
        <time>2022-06-26T10:24:24Z</time>
      </trkpt>
      <trkpt lat="45.91481" lon="4.36913">
        <ele>758.2</ele>
        <time>2022-06-26T10:24:25Z</time>
      </trkpt>
      <trkpt lat="45.91479" lon="4.36907">
        <ele>758.2</ele>
        <time>2022-06-26T10:24:26Z</time>
      </trkpt>
      <trkpt lat="45.91476" lon="4.36901">
        <ele>758.6</ele>
        <time>2022-06-26T10:24:27Z</time>
      </trkpt>
      <trkpt lat="45.91473" lon="4.36897">
        <ele>758.8</ele>
        <time>2022-06-26T10:24:28Z</time>
      </trkpt>
      <trkpt lat="45.91469" lon="4.36893">
        <ele>758.8</ele>
        <time>2022-06-26T10:24:29Z</time>
      </trkpt>
      <trkpt lat="45.91465" lon="4.36891">
        <ele>759.2</ele>
        <time>2022-06-26T10:24:30Z</time>
      </trkpt>
      <trkpt lat="45.91461" lon="4.36889">
        <ele>759.2</ele>
        <time>2022-06-26T10:24:31Z</time>
      </trkpt>
      <trkpt lat="45.91456" lon="4.36887">
        <ele>759.4</ele>
        <time>2022-06-26T10:24:32Z</time>
      </trkpt>
      <trkpt lat="45.91451" lon="4.36886">
        <ele>759.4</ele>
        <time>2022-06-26T10:24:33Z</time>
      </trkpt>
      <trkpt lat="45.91447" lon="4.36885">
        <ele>759.6</ele>
        <time>2022-06-26T10:24:34Z</time>
      </trkpt>
      <trkpt lat="45.91442" lon="4.36884">
        <ele>759.6</ele>
        <time>2022-06-26T10:24:35Z</time>
      </trkpt>
      <trkpt lat="45.91437" lon="4.36884">
        <ele>760</ele>
        <time>2022-06-26T10:24:36Z</time>
      </trkpt>
      <trkpt lat="45.91432" lon="4.36885">
        <ele>760</ele>
        <time>2022-06-26T10:24:37Z</time>
      </trkpt>
      <trkpt lat="45.91427" lon="4.36885">
        <ele>760.2</ele>
        <time>2022-06-26T10:24:38Z</time>
      </trkpt>
      <trkpt lat="45.91422" lon="4.36884">
        <ele>760.2</ele>
        <time>2022-06-26T10:24:39Z</time>
      </trkpt>
      <trkpt lat="45.91417" lon="4.36884">
        <ele>760.4</ele>
        <time>2022-06-26T10:24:40Z</time>
      </trkpt>
      <trkpt lat="45.91411" lon="4.36884">
        <ele>760.4</ele>
        <time>2022-06-26T10:24:41Z</time>
      </trkpt>
      <trkpt lat="45.91406" lon="4.36884">
        <ele>760.6</ele>
        <time>2022-06-26T10:24:42Z</time>
      </trkpt>
      <trkpt lat="45.91401" lon="4.36884">
        <ele>760.6</ele>
        <time>2022-06-26T10:24:43Z</time>
      </trkpt>
      <trkpt lat="45.91396" lon="4.36884">
        <ele>760.6</ele>
        <time>2022-06-26T10:24:44Z</time>
      </trkpt>
      <trkpt lat="45.91391" lon="4.36884">
        <ele>761</ele>
        <time>2022-06-26T10:24:45Z</time>
      </trkpt>
      <trkpt lat="45.91386" lon="4.36884">
        <ele>761</ele>
        <time>2022-06-26T10:24:46Z</time>
      </trkpt>
      <trkpt lat="45.91381" lon="4.36884">
        <ele>761</ele>
        <time>2022-06-26T10:24:47Z</time>
      </trkpt>
      <trkpt lat="45.91376" lon="4.36884">
        <ele>761</ele>
        <time>2022-06-26T10:24:48Z</time>
      </trkpt>
      <trkpt lat="45.91371" lon="4.36883">
        <ele>761.2</ele>
        <time>2022-06-26T10:24:49Z</time>
      </trkpt>
      <trkpt lat="45.91365" lon="4.36883">
        <ele>761.2</ele>
        <time>2022-06-26T10:24:50Z</time>
      </trkpt>
      <trkpt lat="45.9136" lon="4.36882">
        <ele>761.2</ele>
        <time>2022-06-26T10:24:51Z</time>
      </trkpt>
      <trkpt lat="45.91354" lon="4.3688">
        <ele>761.2</ele>
        <time>2022-06-26T10:24:52Z</time>
      </trkpt>
      <trkpt lat="45.91349" lon="4.36877">
        <ele>761.2</ele>
        <time>2022-06-26T10:24:53Z</time>
      </trkpt>
      <trkpt lat="45.91344" lon="4.36874">
        <ele>761</ele>
        <time>2022-06-26T10:24:54Z</time>
      </trkpt>
      <trkpt lat="45.91338" lon="4.3687">
        <ele>761</ele>
        <time>2022-06-26T10:24:55Z</time>
      </trkpt>
      <trkpt lat="45.91333" lon="4.36866">
        <ele>761</ele>
        <time>2022-06-26T10:24:56Z</time>
      </trkpt>
      <trkpt lat="45.91328" lon="4.36862">
        <ele>761</ele>
        <time>2022-06-26T10:24:57Z</time>
      </trkpt>
      <trkpt lat="45.91323" lon="4.36857">
        <ele>760.6</ele>
        <time>2022-06-26T10:24:58Z</time>
      </trkpt>
      <trkpt lat="45.91318" lon="4.36852">
        <ele>760.6</ele>
        <time>2022-06-26T10:24:59Z</time>
      </trkpt>
      <trkpt lat="45.91313" lon="4.36847">
        <ele>760.6</ele>
        <time>2022-06-26T10:25:00Z</time>
      </trkpt>
      <trkpt lat="45.91308" lon="4.36842">
        <ele>760.6</ele>
        <time>2022-06-26T10:25:01Z</time>
      </trkpt>
      <trkpt lat="45.91303" lon="4.36837">
        <ele>760.6</ele>
        <time>2022-06-26T10:25:02Z</time>
      </trkpt>
      <trkpt lat="45.91298" lon="4.36832">
        <ele>760.6</ele>
        <time>2022-06-26T10:25:03Z</time>
      </trkpt>
      <trkpt lat="45.91293" lon="4.36827">
        <ele>760.4</ele>
        <time>2022-06-26T10:25:04Z</time>
      </trkpt>
      <trkpt lat="45.91288" lon="4.36822">
        <ele>760.4</ele>
        <time>2022-06-26T10:25:05Z</time>
      </trkpt>
      <trkpt lat="45.91283" lon="4.36817">
        <ele>760.4</ele>
        <time>2022-06-26T10:25:06Z</time>
      </trkpt>
      <trkpt lat="45.91278" lon="4.36812">
        <ele>760.4</ele>
        <time>2022-06-26T10:25:07Z</time>
      </trkpt>
      <trkpt lat="45.91274" lon="4.36808">
        <ele>760.4</ele>
        <time>2022-06-26T10:25:08Z</time>
      </trkpt>
      <trkpt lat="45.91269" lon="4.36803">
        <ele>760.2</ele>
        <time>2022-06-26T10:25:09Z</time>
      </trkpt>
      <trkpt lat="45.91264" lon="4.36798">
        <ele>760.2</ele>
        <time>2022-06-26T10:25:10Z</time>
      </trkpt>
      <trkpt lat="45.9126" lon="4.36793">
        <ele>760.2</ele>
        <time>2022-06-26T10:25:11Z</time>
      </trkpt>
      <trkpt lat="45.91255" lon="4.36788">
        <ele>760.2</ele>
        <time>2022-06-26T10:25:12Z</time>
      </trkpt>
      <trkpt lat="45.91251" lon="4.36783">
        <ele>760.2</ele>
        <time>2022-06-26T10:25:13Z</time>
      </trkpt>
      <trkpt lat="45.91247" lon="4.36777">
        <ele>760.2</ele>
        <time>2022-06-26T10:25:14Z</time>
      </trkpt>
      <trkpt lat="45.91243" lon="4.3677">
        <ele>760.2</ele>
        <time>2022-06-26T10:25:15Z</time>
      </trkpt>
      <trkpt lat="45.91241" lon="4.36762">
        <ele>760.2</ele>
        <time>2022-06-26T10:25:16Z</time>
      </trkpt>
      <trkpt lat="45.91239" lon="4.36754">
        <ele>760.2</ele>
        <time>2022-06-26T10:25:17Z</time>
      </trkpt>
      <trkpt lat="45.91238" lon="4.36744">
        <ele>760.2</ele>
        <time>2022-06-26T10:25:18Z</time>
      </trkpt>
      <trkpt lat="45.91238" lon="4.36735">
        <ele>760</ele>
        <time>2022-06-26T10:25:19Z</time>
      </trkpt>
      <trkpt lat="45.91239" lon="4.36726">
        <ele>760</ele>
        <time>2022-06-26T10:25:20Z</time>
      </trkpt>
      <trkpt lat="45.9124" lon="4.36716">
        <ele>760</ele>
        <time>2022-06-26T10:25:21Z</time>
      </trkpt>
      <trkpt lat="45.91241" lon="4.36707">
        <ele>759.6</ele>
        <time>2022-06-26T10:25:22Z</time>
      </trkpt>
      <trkpt lat="45.91243" lon="4.36697">
        <ele>759.6</ele>
        <time>2022-06-26T10:25:23Z</time>
      </trkpt>
      <trkpt lat="45.91245" lon="4.36688">
        <ele>759.4</ele>
        <time>2022-06-26T10:25:24Z</time>
      </trkpt>
      <trkpt lat="45.91246" lon="4.36678">
        <ele>759.4</ele>
        <time>2022-06-26T10:25:25Z</time>
      </trkpt>
      <trkpt lat="45.91248" lon="4.36668">
        <ele>759.2</ele>
        <time>2022-06-26T10:25:26Z</time>
      </trkpt>
      <trkpt lat="45.9125" lon="4.36659">
        <ele>759.2</ele>
        <time>2022-06-26T10:25:27Z</time>
      </trkpt>
      <trkpt lat="45.91253" lon="4.36649">
        <ele>759.2</ele>
        <time>2022-06-26T10:25:28Z</time>
      </trkpt>
      <trkpt lat="45.91255" lon="4.3664">
        <ele>759</ele>
        <time>2022-06-26T10:25:29Z</time>
      </trkpt>
      <trkpt lat="45.91258" lon="4.36631">
        <ele>759</ele>
        <time>2022-06-26T10:25:30Z</time>
      </trkpt>
      <trkpt lat="45.9126" lon="4.36622">
        <ele>759</ele>
        <time>2022-06-26T10:25:31Z</time>
      </trkpt>
      <trkpt lat="45.91264" lon="4.36614">
        <ele>759</ele>
        <time>2022-06-26T10:25:32Z</time>
      </trkpt>
      <trkpt lat="45.91267" lon="4.36606">
        <ele>759</ele>
        <time>2022-06-26T10:25:33Z</time>
      </trkpt>
      <trkpt lat="45.9127" lon="4.36598">
        <ele>759</ele>
        <time>2022-06-26T10:25:34Z</time>
      </trkpt>
      <trkpt lat="45.91274" lon="4.3659">
        <ele>759</ele>
        <time>2022-06-26T10:25:35Z</time>
      </trkpt>
      <trkpt lat="45.91278" lon="4.36583">
        <ele>759</ele>
        <time>2022-06-26T10:25:36Z</time>
      </trkpt>
      <trkpt lat="45.91282" lon="4.36576">
        <ele>759</ele>
        <time>2022-06-26T10:25:37Z</time>
      </trkpt>
      <trkpt lat="45.91286" lon="4.36569">
        <ele>759.2</ele>
        <time>2022-06-26T10:25:38Z</time>
      </trkpt>
      <trkpt lat="45.9129" lon="4.36562">
        <ele>759.2</ele>
        <time>2022-06-26T10:25:39Z</time>
      </trkpt>
      <trkpt lat="45.91294" lon="4.36556">
        <ele>759.2</ele>
        <time>2022-06-26T10:25:40Z</time>
      </trkpt>
      <trkpt lat="45.91298" lon="4.3655">
        <ele>759.4</ele>
        <time>2022-06-26T10:25:41Z</time>
      </trkpt>
      <trkpt lat="45.91302" lon="4.36544">
        <ele>759.4</ele>
        <time>2022-06-26T10:25:42Z</time>
      </trkpt>
      <trkpt lat="45.91306" lon="4.36538">
        <ele>759.4</ele>
        <time>2022-06-26T10:25:43Z</time>
      </trkpt>
      <trkpt lat="45.9131" lon="4.36533">
        <ele>759.6</ele>
        <time>2022-06-26T10:25:44Z</time>
      </trkpt>
      <trkpt lat="45.91314" lon="4.36527">
        <ele>759.6</ele>
        <time>2022-06-26T10:25:45Z</time>
      </trkpt>
      <trkpt lat="45.91317" lon="4.36521">
        <ele>759.6</ele>
        <time>2022-06-26T10:25:46Z</time>
      </trkpt>
      <trkpt lat="45.91321" lon="4.36515">
        <ele>759.6</ele>
        <time>2022-06-26T10:25:47Z</time>
      </trkpt>
      <trkpt lat="45.91325" lon="4.3651">
        <ele>760</ele>
        <time>2022-06-26T10:25:48Z</time>
      </trkpt>
      <trkpt lat="45.91328" lon="4.36504">
        <ele>760</ele>
        <time>2022-06-26T10:25:49Z</time>
      </trkpt>
      <trkpt lat="45.91332" lon="4.36499">
        <ele>760.2</ele>
        <time>2022-06-26T10:25:50Z</time>
      </trkpt>
      <trkpt lat="45.91336" lon="4.36494">
        <ele>760.2</ele>
        <time>2022-06-26T10:25:51Z</time>
      </trkpt>
      <trkpt lat="45.9134" lon="4.36489">
        <ele>760.4</ele>
        <time>2022-06-26T10:25:52Z</time>
      </trkpt>
      <trkpt lat="45.91343" lon="4.36484">
        <ele>760.4</ele>
        <time>2022-06-26T10:25:53Z</time>
      </trkpt>
      <trkpt lat="45.91347" lon="4.36479">
        <ele>760.4</ele>
        <time>2022-06-26T10:25:54Z</time>
      </trkpt>
      <trkpt lat="45.91351" lon="4.36474">
        <ele>760.6</ele>
        <time>2022-06-26T10:25:55Z</time>
      </trkpt>
      <trkpt lat="45.91354" lon="4.36469">
        <ele>760.6</ele>
        <time>2022-06-26T10:25:56Z</time>
      </trkpt>
      <trkpt lat="45.91358" lon="4.36464">
        <ele>761</ele>
        <time>2022-06-26T10:25:57Z</time>
      </trkpt>
      <trkpt lat="45.91362" lon="4.36459">
        <ele>761</ele>
        <time>2022-06-26T10:25:58Z</time>
      </trkpt>
      <trkpt lat="45.91365" lon="4.36454">
        <ele>761.2</ele>
        <time>2022-06-26T10:25:59Z</time>
      </trkpt>
      <trkpt lat="45.91369" lon="4.36448">
        <ele>761.2</ele>
        <time>2022-06-26T10:26:00Z</time>
      </trkpt>
      <trkpt lat="45.91372" lon="4.36443">
        <ele>761.6</ele>
        <time>2022-06-26T10:26:01Z</time>
      </trkpt>
      <trkpt lat="45.91376" lon="4.36438">
        <ele>761.6</ele>
        <time>2022-06-26T10:26:02Z</time>
      </trkpt>
      <trkpt lat="45.91379" lon="4.36433">
        <ele>761.8</ele>
        <time>2022-06-26T10:26:03Z</time>
      </trkpt>
      <trkpt lat="45.91383" lon="4.36428">
        <ele>761.8</ele>
        <time>2022-06-26T10:26:04Z</time>
      </trkpt>
      <trkpt lat="45.91386" lon="4.36423">
        <ele>761.8</ele>
        <time>2022-06-26T10:26:05Z</time>
      </trkpt>
      <trkpt lat="45.9139" lon="4.36418">
        <ele>762.2</ele>
        <time>2022-06-26T10:26:06Z</time>
      </trkpt>
      <trkpt lat="45.91394" lon="4.36413">
        <ele>762.2</ele>
        <time>2022-06-26T10:26:07Z</time>
      </trkpt>
      <trkpt lat="45.91398" lon="4.36408">
        <ele>762.4</ele>
        <time>2022-06-26T10:26:08Z</time>
      </trkpt>
      <trkpt lat="45.91401" lon="4.36403">
        <ele>762.4</ele>
        <time>2022-06-26T10:26:09Z</time>
      </trkpt>
      <trkpt lat="45.91405" lon="4.36398">
        <ele>762.6</ele>
        <time>2022-06-26T10:26:10Z</time>
      </trkpt>
      <trkpt lat="45.91408" lon="4.36393">
        <ele>762.6</ele>
        <time>2022-06-26T10:26:11Z</time>
      </trkpt>
      <trkpt lat="45.91412" lon="4.36388">
        <ele>763</ele>
        <time>2022-06-26T10:26:12Z</time>
      </trkpt>
      <trkpt lat="45.91415" lon="4.36383">
        <ele>763</ele>
        <time>2022-06-26T10:26:13Z</time>
      </trkpt>
      <trkpt lat="45.91419" lon="4.36377">
        <ele>763.2</ele>
        <time>2022-06-26T10:26:14Z</time>
      </trkpt>
      <trkpt lat="45.91422" lon="4.36372">
        <ele>763.2</ele>
        <time>2022-06-26T10:26:15Z</time>
      </trkpt>
      <trkpt lat="45.91425" lon="4.36367">
        <ele>763.6</ele>
        <time>2022-06-26T10:26:16Z</time>
      </trkpt>
      <trkpt lat="45.91428" lon="4.36362">
        <ele>763.6</ele>
        <time>2022-06-26T10:26:17Z</time>
      </trkpt>
      <trkpt lat="45.91431" lon="4.36357">
        <ele>764</ele>
        <time>2022-06-26T10:26:18Z</time>
      </trkpt>
      <trkpt lat="45.91434" lon="4.36351">
        <ele>764</ele>
        <time>2022-06-26T10:26:19Z</time>
      </trkpt>
      <trkpt lat="45.91436" lon="4.36346">
        <ele>764.2</ele>
        <time>2022-06-26T10:26:20Z</time>
      </trkpt>
      <trkpt lat="45.91439" lon="4.3634">
        <ele>764.2</ele>
        <time>2022-06-26T10:26:21Z</time>
      </trkpt>
      <trkpt lat="45.91441" lon="4.36333">
        <ele>764.4</ele>
        <time>2022-06-26T10:26:22Z</time>
      </trkpt>
      <trkpt lat="45.91443" lon="4.36327">
        <ele>764.4</ele>
        <time>2022-06-26T10:26:23Z</time>
      </trkpt>
      <trkpt lat="45.91444" lon="4.36321">
        <ele>764.4</ele>
        <time>2022-06-26T10:26:24Z</time>
      </trkpt>
      <trkpt lat="45.91446" lon="4.36314">
        <ele>764.6</ele>
        <time>2022-06-26T10:26:25Z</time>
      </trkpt>
      <trkpt lat="45.91447" lon="4.36307">
        <ele>764.6</ele>
        <time>2022-06-26T10:26:26Z</time>
      </trkpt>
      <trkpt lat="45.91448" lon="4.363">
        <ele>765</ele>
        <time>2022-06-26T10:26:27Z</time>
      </trkpt>
      <trkpt lat="45.91449" lon="4.36293">
        <ele>765</ele>
        <time>2022-06-26T10:26:28Z</time>
      </trkpt>
      <trkpt lat="45.91449" lon="4.36286">
        <ele>765</ele>
        <time>2022-06-26T10:26:29Z</time>
      </trkpt>
      <trkpt lat="45.9145" lon="4.36279">
        <ele>765.2</ele>
        <time>2022-06-26T10:26:30Z</time>
      </trkpt>
      <trkpt lat="45.9145" lon="4.36271">
        <ele>765.2</ele>
        <time>2022-06-26T10:26:31Z</time>
      </trkpt>
      <trkpt lat="45.91449" lon="4.36264">
        <ele>765.4</ele>
        <time>2022-06-26T10:26:32Z</time>
      </trkpt>
      <trkpt lat="45.91449" lon="4.36256">
        <ele>765.4</ele>
        <time>2022-06-26T10:26:33Z</time>
      </trkpt>
      <trkpt lat="45.91448" lon="4.36248">
        <ele>765.4</ele>
        <time>2022-06-26T10:26:34Z</time>
      </trkpt>
      <trkpt lat="45.91448" lon="4.3624">
        <ele>765.4</ele>
        <time>2022-06-26T10:26:35Z</time>
      </trkpt>
      <trkpt lat="45.91447" lon="4.36231">
        <ele>765.4</ele>
        <time>2022-06-26T10:26:36Z</time>
      </trkpt>
      <trkpt lat="45.91446" lon="4.36223">
        <ele>765.4</ele>
        <time>2022-06-26T10:26:37Z</time>
      </trkpt>
      <trkpt lat="45.91446" lon="4.36214">
        <ele>765.4</ele>
        <time>2022-06-26T10:26:38Z</time>
      </trkpt>
      <trkpt lat="45.91446" lon="4.36205">
        <ele>765.2</ele>
        <time>2022-06-26T10:26:39Z</time>
      </trkpt>
      <trkpt lat="45.91447" lon="4.36195">
        <ele>765.2</ele>
        <time>2022-06-26T10:26:40Z</time>
      </trkpt>
      <trkpt lat="45.91447" lon="4.36186">
        <ele>765</ele>
        <time>2022-06-26T10:26:41Z</time>
      </trkpt>
      <trkpt lat="45.91448" lon="4.36177">
        <ele>765</ele>
        <time>2022-06-26T10:26:42Z</time>
      </trkpt>
      <trkpt lat="45.91449" lon="4.36168">
        <ele>764.8</ele>
        <time>2022-06-26T10:26:43Z</time>
      </trkpt>
      <trkpt lat="45.91451" lon="4.36158">
        <ele>764.8</ele>
        <time>2022-06-26T10:26:44Z</time>
      </trkpt>
      <trkpt lat="45.91452" lon="4.36149">
        <ele>764.4</ele>
        <time>2022-06-26T10:26:45Z</time>
      </trkpt>
      <trkpt lat="45.91454" lon="4.3614">
        <ele>764.4</ele>
        <time>2022-06-26T10:26:46Z</time>
      </trkpt>
      <trkpt lat="45.91456" lon="4.36131">
        <ele>764.2</ele>
        <time>2022-06-26T10:26:47Z</time>
      </trkpt>
      <trkpt lat="45.91458" lon="4.36123">
        <ele>764.2</ele>
        <time>2022-06-26T10:26:48Z</time>
      </trkpt>
      <trkpt lat="45.9146" lon="4.36115">
        <ele>764.2</ele>
        <time>2022-06-26T10:26:49Z</time>
      </trkpt>
      <trkpt lat="45.91462" lon="4.36106">
        <ele>764.2</ele>
        <time>2022-06-26T10:26:50Z</time>
      </trkpt>
      <trkpt lat="45.91464" lon="4.36099">
        <ele>764</ele>
        <time>2022-06-26T10:26:51Z</time>
      </trkpt>
      <trkpt lat="45.91466" lon="4.36091">
        <ele>764</ele>
        <time>2022-06-26T10:26:52Z</time>
      </trkpt>
      <trkpt lat="45.91469" lon="4.36083">
        <ele>764</ele>
        <time>2022-06-26T10:26:53Z</time>
      </trkpt>
      <trkpt lat="45.91471" lon="4.36076">
        <ele>764</ele>
        <time>2022-06-26T10:26:54Z</time>
      </trkpt>
      <trkpt lat="45.91474" lon="4.36068">
        <ele>764</ele>
        <time>2022-06-26T10:26:55Z</time>
      </trkpt>
      <trkpt lat="45.91477" lon="4.36061">
        <ele>764</ele>
        <time>2022-06-26T10:26:56Z</time>
      </trkpt>
      <trkpt lat="45.9148" lon="4.36054">
        <ele>764</ele>
        <time>2022-06-26T10:26:57Z</time>
      </trkpt>
      <trkpt lat="45.91482" lon="4.36046">
        <ele>764</ele>
        <time>2022-06-26T10:26:58Z</time>
      </trkpt>
      <trkpt lat="45.91485" lon="4.36039">
        <ele>764</ele>
        <time>2022-06-26T10:26:59Z</time>
      </trkpt>
      <trkpt lat="45.91488" lon="4.36032">
        <ele>764</ele>
        <time>2022-06-26T10:27:00Z</time>
      </trkpt>
      <trkpt lat="45.9149" lon="4.36024">
        <ele>764</ele>
        <time>2022-06-26T10:27:01Z</time>
      </trkpt>
      <trkpt lat="45.91493" lon="4.36016">
        <ele>764</ele>
        <time>2022-06-26T10:27:02Z</time>
      </trkpt>
      <trkpt lat="45.91495" lon="4.36008">
        <ele>764</ele>
        <time>2022-06-26T10:27:03Z</time>
      </trkpt>
      <trkpt lat="45.91497" lon="4.36">
        <ele>764</ele>
        <time>2022-06-26T10:27:04Z</time>
      </trkpt>
      <trkpt lat="45.91498" lon="4.35991">
        <ele>764</ele>
        <time>2022-06-26T10:27:05Z</time>
      </trkpt>
      <trkpt lat="45.91499" lon="4.35983">
        <ele>764</ele>
        <time>2022-06-26T10:27:06Z</time>
      </trkpt>
      <trkpt lat="45.91501" lon="4.35974">
        <ele>764</ele>
        <time>2022-06-26T10:27:07Z</time>
      </trkpt>
      <trkpt lat="45.91502" lon="4.35965">
        <ele>764</ele>
        <time>2022-06-26T10:27:08Z</time>
      </trkpt>
      <trkpt lat="45.91503" lon="4.35956">
        <ele>764</ele>
        <time>2022-06-26T10:27:09Z</time>
      </trkpt>
      <trkpt lat="45.91504" lon="4.35946">
        <ele>764</ele>
        <time>2022-06-26T10:27:10Z</time>
      </trkpt>
      <trkpt lat="45.91506" lon="4.35937">
        <ele>763.8</ele>
        <time>2022-06-26T10:27:11Z</time>
      </trkpt>
      <trkpt lat="45.91508" lon="4.35928">
        <ele>763.8</ele>
        <time>2022-06-26T10:27:12Z</time>
      </trkpt>
      <trkpt lat="45.9151" lon="4.35919">
        <ele>763.8</ele>
        <time>2022-06-26T10:27:13Z</time>
      </trkpt>
      <trkpt lat="45.91513" lon="4.3591">
        <ele>763.4</ele>
        <time>2022-06-26T10:27:14Z</time>
      </trkpt>
      <trkpt lat="45.91516" lon="4.359">
        <ele>763.4</ele>
        <time>2022-06-26T10:27:15Z</time>
      </trkpt>
      <trkpt lat="45.91519" lon="4.35891">
        <ele>763.2</ele>
        <time>2022-06-26T10:27:16Z</time>
      </trkpt>
      <trkpt lat="45.91523" lon="4.35882">
        <ele>763.2</ele>
        <time>2022-06-26T10:27:17Z</time>
      </trkpt>
      <trkpt lat="45.91526" lon="4.35873">
        <ele>763</ele>
        <time>2022-06-26T10:27:18Z</time>
      </trkpt>
      <trkpt lat="45.91529" lon="4.35865">
        <ele>763</ele>
        <time>2022-06-26T10:27:19Z</time>
      </trkpt>
      <trkpt lat="45.91533" lon="4.35856">
        <ele>763</ele>
        <time>2022-06-26T10:27:20Z</time>
      </trkpt>
      <trkpt lat="45.91536" lon="4.35848">
        <ele>763</ele>
        <time>2022-06-26T10:27:21Z</time>
      </trkpt>
      <trkpt lat="45.91538" lon="4.35839">
        <ele>762.8</ele>
        <time>2022-06-26T10:27:23Z</time>
      </trkpt>
      <trkpt lat="45.9154" lon="4.3583">
        <ele>762.8</ele>
        <time>2022-06-26T10:27:24Z</time>
      </trkpt>
      <trkpt lat="45.9154" lon="4.35821">
        <ele>762.6</ele>
        <time>2022-06-26T10:27:25Z</time>
      </trkpt>
      <trkpt lat="45.91541" lon="4.35801">
        <ele>762.6</ele>
        <time>2022-06-26T10:27:26Z</time>
      </trkpt>
      <trkpt lat="45.91541" lon="4.35791">
        <ele>762.6</ele>
        <time>2022-06-26T10:27:27Z</time>
      </trkpt>
      <trkpt lat="45.91541" lon="4.35781">
        <ele>762.2</ele>
        <time>2022-06-26T10:27:28Z</time>
      </trkpt>
      <trkpt lat="45.91541" lon="4.35771">
        <ele>762.2</ele>
        <time>2022-06-26T10:27:29Z</time>
      </trkpt>
      <trkpt lat="45.91541" lon="4.35761">
        <ele>761.8</ele>
        <time>2022-06-26T10:27:30Z</time>
      </trkpt>
      <trkpt lat="45.91541" lon="4.3575">
        <ele>761.8</ele>
        <time>2022-06-26T10:27:31Z</time>
      </trkpt>
      <trkpt lat="45.91541" lon="4.3574">
        <ele>761.6</ele>
        <time>2022-06-26T10:27:32Z</time>
      </trkpt>
      <trkpt lat="45.91541" lon="4.3573">
        <ele>761.6</ele>
        <time>2022-06-26T10:27:33Z</time>
      </trkpt>
      <trkpt lat="45.91541" lon="4.35719">
        <ele>761.2</ele>
        <time>2022-06-26T10:27:34Z</time>
      </trkpt>
      <trkpt lat="45.91542" lon="4.35709">
        <ele>761.2</ele>
        <time>2022-06-26T10:27:35Z</time>
      </trkpt>
      <trkpt lat="45.91542" lon="4.35698">
        <ele>761</ele>
        <time>2022-06-26T10:27:36Z</time>
      </trkpt>
      <trkpt lat="45.91542" lon="4.35687">
        <ele>760.8</ele>
        <time>2022-06-26T10:27:37Z</time>
      </trkpt>
      <trkpt lat="45.91542" lon="4.35676">
        <ele>760.8</ele>
        <time>2022-06-26T10:27:38Z</time>
      </trkpt>
      <trkpt lat="45.91542" lon="4.35666">
        <ele>760.4</ele>
        <time>2022-06-26T10:27:39Z</time>
      </trkpt>
      <trkpt lat="45.91542" lon="4.35655">
        <ele>760.4</ele>
        <time>2022-06-26T10:27:40Z</time>
      </trkpt>
      <trkpt lat="45.91542" lon="4.35644">
        <ele>760.2</ele>
        <time>2022-06-26T10:27:41Z</time>
      </trkpt>
      <trkpt lat="45.91542" lon="4.35633">
        <ele>760.2</ele>
        <time>2022-06-26T10:27:42Z</time>
      </trkpt>
      <trkpt lat="45.91542" lon="4.35622">
        <ele>759.8</ele>
        <time>2022-06-26T10:27:43Z</time>
      </trkpt>
      <trkpt lat="45.91541" lon="4.35612">
        <ele>759.8</ele>
        <time>2022-06-26T10:27:44Z</time>
      </trkpt>
      <trkpt lat="45.91541" lon="4.35601">
        <ele>759.6</ele>
        <time>2022-06-26T10:27:45Z</time>
      </trkpt>
      <trkpt lat="45.9154" lon="4.3559">
        <ele>759.6</ele>
        <time>2022-06-26T10:27:46Z</time>
      </trkpt>
      <trkpt lat="45.9154" lon="4.35579">
        <ele>759</ele>
        <time>2022-06-26T10:27:47Z</time>
      </trkpt>
      <trkpt lat="45.91539" lon="4.35568">
        <ele>758.8</ele>
        <time>2022-06-26T10:27:48Z</time>
      </trkpt>
      <trkpt lat="45.91537" lon="4.35557">
        <ele>758.8</ele>
        <time>2022-06-26T10:27:49Z</time>
      </trkpt>
      <trkpt lat="45.91536" lon="4.35547">
        <ele>758.6</ele>
        <time>2022-06-26T10:27:50Z</time>
      </trkpt>
      <trkpt lat="45.91534" lon="4.35536">
        <ele>758.2</ele>
        <time>2022-06-26T10:27:51Z</time>
      </trkpt>
      <trkpt lat="45.91532" lon="4.35526">
        <ele>758.2</ele>
        <time>2022-06-26T10:27:52Z</time>
      </trkpt>
      <trkpt lat="45.9153" lon="4.35515">
        <ele>758</ele>
        <time>2022-06-26T10:27:54Z</time>
      </trkpt>
      <trkpt lat="45.91528" lon="4.35505">
        <ele>758</ele>
        <time>2022-06-26T10:27:55Z</time>
      </trkpt>
      <trkpt lat="45.91526" lon="4.35495">
        <ele>757.6</ele>
        <time>2022-06-26T10:27:56Z</time>
      </trkpt>
      <trkpt lat="45.91523" lon="4.35485">
        <ele>757.6</ele>
        <time>2022-06-26T10:27:57Z</time>
      </trkpt>
      <trkpt lat="45.9152" lon="4.35475">
        <ele>757.4</ele>
        <time>2022-06-26T10:27:58Z</time>
      </trkpt>
      <trkpt lat="45.91516" lon="4.35465">
        <ele>757.4</ele>
        <time>2022-06-26T10:27:59Z</time>
      </trkpt>
      <trkpt lat="45.91512" lon="4.35456">
        <ele>757.2</ele>
        <time>2022-06-26T10:28:00Z</time>
      </trkpt>
      <trkpt lat="45.91507" lon="4.35448">
        <ele>757.2</ele>
        <time>2022-06-26T10:28:01Z</time>
      </trkpt>
      <trkpt lat="45.91502" lon="4.35439">
        <ele>757.2</ele>
        <time>2022-06-26T10:28:02Z</time>
      </trkpt>
      <trkpt lat="45.91497" lon="4.35431">
        <ele>756.6</ele>
        <time>2022-06-26T10:28:03Z</time>
      </trkpt>
      <trkpt lat="45.91492" lon="4.35423">
        <ele>756.4</ele>
        <time>2022-06-26T10:28:04Z</time>
      </trkpt>
      <trkpt lat="45.91486" lon="4.35416">
        <ele>756.4</ele>
        <time>2022-06-26T10:28:05Z</time>
      </trkpt>
      <trkpt lat="45.91481" lon="4.35408">
        <ele>756.2</ele>
        <time>2022-06-26T10:28:06Z</time>
      </trkpt>
      <trkpt lat="45.91476" lon="4.354">
        <ele>755.8</ele>
        <time>2022-06-26T10:28:07Z</time>
      </trkpt>
      <trkpt lat="45.91471" lon="4.35392">
        <ele>755.6</ele>
        <time>2022-06-26T10:28:08Z</time>
      </trkpt>
      <trkpt lat="45.91466" lon="4.35383">
        <ele>755.6</ele>
        <time>2022-06-26T10:28:09Z</time>
      </trkpt>
      <trkpt lat="45.91462" lon="4.35373">
        <ele>755.4</ele>
        <time>2022-06-26T10:28:10Z</time>
      </trkpt>
      <trkpt lat="45.9146" lon="4.35363">
        <ele>755.4</ele>
        <time>2022-06-26T10:28:11Z</time>
      </trkpt>
      <trkpt lat="45.91457" lon="4.35353">
        <ele>755</ele>
        <time>2022-06-26T10:28:12Z</time>
      </trkpt>
      <trkpt lat="45.91456" lon="4.35342">
        <ele>754.8</ele>
        <time>2022-06-26T10:28:13Z</time>
      </trkpt>
      <trkpt lat="45.91455" lon="4.35331">
        <ele>754.6</ele>
        <time>2022-06-26T10:28:14Z</time>
      </trkpt>
      <trkpt lat="45.91454" lon="4.3532">
        <ele>754.4</ele>
        <time>2022-06-26T10:28:15Z</time>
      </trkpt>
      <trkpt lat="45.91454" lon="4.35309">
        <ele>754</ele>
        <time>2022-06-26T10:28:16Z</time>
      </trkpt>
      <trkpt lat="45.91454" lon="4.35298">
        <ele>754</ele>
        <time>2022-06-26T10:28:17Z</time>
      </trkpt>
      <trkpt lat="45.91453" lon="4.35287">
        <ele>753.8</ele>
        <time>2022-06-26T10:28:18Z</time>
      </trkpt>
      <trkpt lat="45.91453" lon="4.35276">
        <ele>753.8</ele>
        <time>2022-06-26T10:28:19Z</time>
      </trkpt>
      <trkpt lat="45.91453" lon="4.35265">
        <ele>753.6</ele>
        <time>2022-06-26T10:28:20Z</time>
      </trkpt>
      <trkpt lat="45.91454" lon="4.35254">
        <ele>753.2</ele>
        <time>2022-06-26T10:28:21Z</time>
      </trkpt>
      <trkpt lat="45.91455" lon="4.35242">
        <ele>753</ele>
        <time>2022-06-26T10:28:22Z</time>
      </trkpt>
      <trkpt lat="45.91457" lon="4.35231">
        <ele>753</ele>
        <time>2022-06-26T10:28:23Z</time>
      </trkpt>
      <trkpt lat="45.91459" lon="4.3522">
        <ele>752.6</ele>
        <time>2022-06-26T10:28:24Z</time>
      </trkpt>
      <trkpt lat="45.91461" lon="4.35209">
        <ele>752.6</ele>
        <time>2022-06-26T10:28:25Z</time>
      </trkpt>
      <trkpt lat="45.91464" lon="4.35198">
        <ele>752.4</ele>
        <time>2022-06-26T10:28:26Z</time>
      </trkpt>
      <trkpt lat="45.91466" lon="4.35187">
        <ele>752.4</ele>
        <time>2022-06-26T10:28:27Z</time>
      </trkpt>
      <trkpt lat="45.9147" lon="4.35177">
        <ele>752</ele>
        <time>2022-06-26T10:28:28Z</time>
      </trkpt>
      <trkpt lat="45.91473" lon="4.35166">
        <ele>751.8</ele>
        <time>2022-06-26T10:28:29Z</time>
      </trkpt>
      <trkpt lat="45.91476" lon="4.35156">
        <ele>751.8</ele>
        <time>2022-06-26T10:28:30Z</time>
      </trkpt>
      <trkpt lat="45.9148" lon="4.35146">
        <ele>751.6</ele>
        <time>2022-06-26T10:28:31Z</time>
      </trkpt>
      <trkpt lat="45.91483" lon="4.35136">
        <ele>751.6</ele>
        <time>2022-06-26T10:28:32Z</time>
      </trkpt>
      <trkpt lat="45.91487" lon="4.35127">
        <ele>751.2</ele>
        <time>2022-06-26T10:28:33Z</time>
      </trkpt>
      <trkpt lat="45.9149" lon="4.35117">
        <ele>751</ele>
        <time>2022-06-26T10:28:34Z</time>
      </trkpt>
      <trkpt lat="45.91493" lon="4.35108">
        <ele>750.8</ele>
        <time>2022-06-26T10:28:35Z</time>
      </trkpt>
      <trkpt lat="45.91496" lon="4.35099">
        <ele>750.6</ele>
        <time>2022-06-26T10:28:36Z</time>
      </trkpt>
      <trkpt lat="45.91498" lon="4.3509">
        <ele>750.4</ele>
        <time>2022-06-26T10:28:37Z</time>
      </trkpt>
      <trkpt lat="45.915" lon="4.3508">
        <ele>750</ele>
        <time>2022-06-26T10:28:38Z</time>
      </trkpt>
      <trkpt lat="45.915" lon="4.3507">
        <ele>750</ele>
        <time>2022-06-26T10:28:39Z</time>
      </trkpt>
      <trkpt lat="45.915" lon="4.35061">
        <ele>749.8</ele>
        <time>2022-06-26T10:28:40Z</time>
      </trkpt>
      <trkpt lat="45.915" lon="4.35051">
        <ele>749.8</ele>
        <time>2022-06-26T10:28:41Z</time>
      </trkpt>
      <trkpt lat="45.91501" lon="4.35042">
        <ele>749.8</ele>
        <time>2022-06-26T10:28:42Z</time>
      </trkpt>
      <trkpt lat="45.91501" lon="4.35033">
        <ele>749.8</ele>
        <time>2022-06-26T10:28:43Z</time>
      </trkpt>
      <trkpt lat="45.91501" lon="4.35024">
        <ele>750</ele>
        <time>2022-06-26T10:28:44Z</time>
      </trkpt>
      <trkpt lat="45.91502" lon="4.35016">
        <ele>750</ele>
        <time>2022-06-26T10:28:45Z</time>
      </trkpt>
      <trkpt lat="45.91502" lon="4.35008">
        <ele>750.4</ele>
        <time>2022-06-26T10:28:46Z</time>
      </trkpt>
      <trkpt lat="45.91502" lon="4.35">
        <ele>750.4</ele>
        <time>2022-06-26T10:28:47Z</time>
      </trkpt>
      <trkpt lat="45.91501" lon="4.34993">
        <ele>750.6</ele>
        <time>2022-06-26T10:28:48Z</time>
      </trkpt>
      <trkpt lat="45.91501" lon="4.34985">
        <ele>750.6</ele>
        <time>2022-06-26T10:28:49Z</time>
      </trkpt>
      <trkpt lat="45.91501" lon="4.34977">
        <ele>751</ele>
        <time>2022-06-26T10:28:50Z</time>
      </trkpt>
      <trkpt lat="45.915" lon="4.3497">
        <ele>751</ele>
        <time>2022-06-26T10:28:51Z</time>
      </trkpt>
      <trkpt lat="45.91499" lon="4.34962">
        <ele>751.4</ele>
        <time>2022-06-26T10:28:52Z</time>
      </trkpt>
      <trkpt lat="45.91499" lon="4.34955">
        <ele>751.6</ele>
        <time>2022-06-26T10:28:53Z</time>
      </trkpt>
      <trkpt lat="45.91498" lon="4.34947">
        <ele>751.8</ele>
        <time>2022-06-26T10:28:54Z</time>
      </trkpt>
      <trkpt lat="45.91497" lon="4.3494">
        <ele>751.8</ele>
        <time>2022-06-26T10:28:55Z</time>
      </trkpt>
      <trkpt lat="45.91497" lon="4.34933">
        <ele>752.2</ele>
        <time>2022-06-26T10:28:56Z</time>
      </trkpt>
      <trkpt lat="45.91496" lon="4.34926">
        <ele>752.4</ele>
        <time>2022-06-26T10:28:57Z</time>
      </trkpt>
      <trkpt lat="45.91495" lon="4.34919">
        <ele>752.6</ele>
        <time>2022-06-26T10:28:58Z</time>
      </trkpt>
      <trkpt lat="45.91495" lon="4.34912">
        <ele>752.6</ele>
        <time>2022-06-26T10:28:59Z</time>
      </trkpt>
      <trkpt lat="45.91494" lon="4.34906">
        <ele>753</ele>
        <time>2022-06-26T10:29:00Z</time>
      </trkpt>
      <trkpt lat="45.91494" lon="4.34899">
        <ele>753</ele>
        <time>2022-06-26T10:29:01Z</time>
      </trkpt>
      <trkpt lat="45.91494" lon="4.34892">
        <ele>753.4</ele>
        <time>2022-06-26T10:29:02Z</time>
      </trkpt>
      <trkpt lat="45.91494" lon="4.34886">
        <ele>753.6</ele>
        <time>2022-06-26T10:29:03Z</time>
      </trkpt>
      <trkpt lat="45.91495" lon="4.34879">
        <ele>753.6</ele>
        <time>2022-06-26T10:29:04Z</time>
      </trkpt>
      <trkpt lat="45.91495" lon="4.34873">
        <ele>754</ele>
        <time>2022-06-26T10:29:05Z</time>
      </trkpt>
      <trkpt lat="45.91496" lon="4.34866">
        <ele>754.4</ele>
        <time>2022-06-26T10:29:06Z</time>
      </trkpt>
      <trkpt lat="45.91497" lon="4.3486">
        <ele>754.4</ele>
        <time>2022-06-26T10:29:07Z</time>
      </trkpt>
      <trkpt lat="45.91498" lon="4.34854">
        <ele>754.6</ele>
        <time>2022-06-26T10:29:08Z</time>
      </trkpt>
      <trkpt lat="45.91499" lon="4.34848">
        <ele>754.6</ele>
        <time>2022-06-26T10:29:09Z</time>
      </trkpt>
      <trkpt lat="45.915" lon="4.34842">
        <ele>755</ele>
        <time>2022-06-26T10:29:10Z</time>
      </trkpt>
      <trkpt lat="45.91501" lon="4.34836">
        <ele>755</ele>
        <time>2022-06-26T10:29:11Z</time>
      </trkpt>
      <trkpt lat="45.91502" lon="4.34831">
        <ele>755.4</ele>
        <time>2022-06-26T10:29:12Z</time>
      </trkpt>
      <trkpt lat="45.91504" lon="4.34825">
        <ele>755.6</ele>
        <time>2022-06-26T10:29:13Z</time>
      </trkpt>
      <trkpt lat="45.91505" lon="4.34819">
        <ele>755.8</ele>
        <time>2022-06-26T10:29:14Z</time>
      </trkpt>
      <trkpt lat="45.91506" lon="4.34813">
        <ele>756</ele>
        <time>2022-06-26T10:29:15Z</time>
      </trkpt>
      <trkpt lat="45.91507" lon="4.34808">
        <ele>756</ele>
        <time>2022-06-26T10:29:16Z</time>
      </trkpt>
      <trkpt lat="45.91508" lon="4.34802">
        <ele>756.4</ele>
        <time>2022-06-26T10:29:17Z</time>
      </trkpt>
      <trkpt lat="45.9151" lon="4.34797">
        <ele>756.6</ele>
        <time>2022-06-26T10:29:18Z</time>
      </trkpt>
      <trkpt lat="45.91511" lon="4.34791">
        <ele>756.6</ele>
        <time>2022-06-26T10:29:19Z</time>
      </trkpt>
      <trkpt lat="45.91512" lon="4.34785">
        <ele>757</ele>
        <time>2022-06-26T10:29:20Z</time>
      </trkpt>
      <trkpt lat="45.91513" lon="4.3478">
        <ele>757</ele>
        <time>2022-06-26T10:29:21Z</time>
      </trkpt>
      <trkpt lat="45.91515" lon="4.34774">
        <ele>757.2</ele>
        <time>2022-06-26T10:29:22Z</time>
      </trkpt>
      <trkpt lat="45.91516" lon="4.34769">
        <ele>757.2</ele>
        <time>2022-06-26T10:29:23Z</time>
      </trkpt>
      <trkpt lat="45.91517" lon="4.34763">
        <ele>757.6</ele>
        <time>2022-06-26T10:29:24Z</time>
      </trkpt>
      <trkpt lat="45.91518" lon="4.34758">
        <ele>757.8</ele>
        <time>2022-06-26T10:29:25Z</time>
      </trkpt>
      <trkpt lat="45.91519" lon="4.34752">
        <ele>758</ele>
        <time>2022-06-26T10:29:26Z</time>
      </trkpt>
      <trkpt lat="45.9152" lon="4.34747">
        <ele>758.4</ele>
        <time>2022-06-26T10:29:27Z</time>
      </trkpt>
      <trkpt lat="45.91521" lon="4.34741">
        <ele>758.6</ele>
        <time>2022-06-26T10:29:28Z</time>
      </trkpt>
      <trkpt lat="45.91522" lon="4.34736">
        <ele>758.8</ele>
        <time>2022-06-26T10:29:29Z</time>
      </trkpt>
      <trkpt lat="45.91523" lon="4.34731">
        <ele>758.8</ele>
        <time>2022-06-26T10:29:30Z</time>
      </trkpt>
      <trkpt lat="45.91524" lon="4.34726">
        <ele>759.2</ele>
        <time>2022-06-26T10:29:31Z</time>
      </trkpt>
      <trkpt lat="45.91525" lon="4.3472">
        <ele>759.4</ele>
        <time>2022-06-26T10:29:32Z</time>
      </trkpt>
      <trkpt lat="45.91525" lon="4.34715">
        <ele>759.6</ele>
        <time>2022-06-26T10:29:33Z</time>
      </trkpt>
      <trkpt lat="45.91525" lon="4.34709">
        <ele>759.6</ele>
        <time>2022-06-26T10:29:34Z</time>
      </trkpt>
      <trkpt lat="45.91525" lon="4.34703">
        <ele>760</ele>
        <time>2022-06-26T10:29:35Z</time>
      </trkpt>
      <trkpt lat="45.91525" lon="4.34697">
        <ele>760</ele>
        <time>2022-06-26T10:29:36Z</time>
      </trkpt>
      <trkpt lat="45.91525" lon="4.34691">
        <ele>760.2</ele>
        <time>2022-06-26T10:29:37Z</time>
      </trkpt>
      <trkpt lat="45.91526" lon="4.34685">
        <ele>760.2</ele>
        <time>2022-06-26T10:29:38Z</time>
      </trkpt>
      <trkpt lat="45.91526" lon="4.34679">
        <ele>760.6</ele>
        <time>2022-06-26T10:29:39Z</time>
      </trkpt>
      <trkpt lat="45.91527" lon="4.34672">
        <ele>761</ele>
        <time>2022-06-26T10:29:40Z</time>
      </trkpt>
      <trkpt lat="45.91527" lon="4.34666">
        <ele>761</ele>
        <time>2022-06-26T10:29:41Z</time>
      </trkpt>
      <trkpt lat="45.91527" lon="4.3466">
        <ele>761.2</ele>
        <time>2022-06-26T10:29:42Z</time>
      </trkpt>
      <trkpt lat="45.91528" lon="4.34653">
        <ele>761.2</ele>
        <time>2022-06-26T10:29:43Z</time>
      </trkpt>
      <trkpt lat="45.91528" lon="4.34647">
        <ele>761.6</ele>
        <time>2022-06-26T10:29:44Z</time>
      </trkpt>
      <trkpt lat="45.91528" lon="4.3464">
        <ele>761.8</ele>
        <time>2022-06-26T10:29:45Z</time>
      </trkpt>
      <trkpt lat="45.91529" lon="4.34634">
        <ele>762</ele>
        <time>2022-06-26T10:29:46Z</time>
      </trkpt>
      <trkpt lat="45.91529" lon="4.34628">
        <ele>762.2</ele>
        <time>2022-06-26T10:29:47Z</time>
      </trkpt>
      <trkpt lat="45.91529" lon="4.34622">
        <ele>762.4</ele>
        <time>2022-06-26T10:29:48Z</time>
      </trkpt>
      <trkpt lat="45.91529" lon="4.34616">
        <ele>762.4</ele>
        <time>2022-06-26T10:29:49Z</time>
      </trkpt>
      <trkpt lat="45.9153" lon="4.34611">
        <ele>762.8</ele>
        <time>2022-06-26T10:29:50Z</time>
      </trkpt>
      <trkpt lat="45.9153" lon="4.34605">
        <ele>763</ele>
        <time>2022-06-26T10:29:51Z</time>
      </trkpt>
      <trkpt lat="45.91531" lon="4.346">
        <ele>763</ele>
        <time>2022-06-26T10:29:52Z</time>
      </trkpt>
      <trkpt lat="45.91531" lon="4.34595">
        <ele>763.4</ele>
        <time>2022-06-26T10:29:53Z</time>
      </trkpt>
      <trkpt lat="45.91531" lon="4.3459">
        <ele>763.6</ele>
        <time>2022-06-26T10:29:54Z</time>
      </trkpt>
      <trkpt lat="45.91532" lon="4.34584">
        <ele>763.6</ele>
        <time>2022-06-26T10:29:55Z</time>
      </trkpt>
      <trkpt lat="45.91533" lon="4.34579">
        <ele>764</ele>
        <time>2022-06-26T10:29:56Z</time>
      </trkpt>
      <trkpt lat="45.91534" lon="4.34575">
        <ele>764.2</ele>
        <time>2022-06-26T10:29:57Z</time>
      </trkpt>
      <trkpt lat="45.91535" lon="4.3457">
        <ele>764.2</ele>
        <time>2022-06-26T10:29:58Z</time>
      </trkpt>
      <trkpt lat="45.91535" lon="4.34565">
        <ele>764.6</ele>
        <time>2022-06-26T10:29:59Z</time>
      </trkpt>
      <trkpt lat="45.91536" lon="4.34561">
        <ele>764.6</ele>
        <time>2022-06-26T10:30:00Z</time>
      </trkpt>
      <trkpt lat="45.91536" lon="4.34556">
        <ele>765</ele>
        <time>2022-06-26T10:30:01Z</time>
      </trkpt>
      <trkpt lat="45.91536" lon="4.34552">
        <ele>765.2</ele>
        <time>2022-06-26T10:30:02Z</time>
      </trkpt>
      <trkpt lat="45.91535" lon="4.34548">
        <ele>765.4</ele>
        <time>2022-06-26T10:30:03Z</time>
      </trkpt>
      <trkpt lat="45.91533" lon="4.34545">
        <ele>765.4</ele>
        <time>2022-06-26T10:30:04Z</time>
      </trkpt>
      <trkpt lat="45.91531" lon="4.34543">
        <ele>765.8</ele>
        <time>2022-06-26T10:30:05Z</time>
      </trkpt>
      <trkpt lat="45.91529" lon="4.34541">
        <ele>765.8</ele>
        <time>2022-06-26T10:30:06Z</time>
      </trkpt>
      <trkpt lat="45.91526" lon="4.3454">
        <ele>765.8</ele>
        <time>2022-06-26T10:30:07Z</time>
      </trkpt>
      <trkpt lat="45.91523" lon="4.34539">
        <ele>765.8</ele>
        <time>2022-06-26T10:30:08Z</time>
      </trkpt>
      <trkpt lat="45.9152" lon="4.34538">
        <ele>765.8</ele>
        <time>2022-06-26T10:30:09Z</time>
      </trkpt>
      <trkpt lat="45.91517" lon="4.34536">
        <ele>765.4</ele>
        <time>2022-06-26T10:30:10Z</time>
      </trkpt>
      <trkpt lat="45.91514" lon="4.34534">
        <ele>765.4</ele>
        <time>2022-06-26T10:30:11Z</time>
      </trkpt>
      <trkpt lat="45.9151" lon="4.34532">
        <ele>765.4</ele>
        <time>2022-06-26T10:30:12Z</time>
      </trkpt>
      <trkpt lat="45.91506" lon="4.3453">
        <ele>765.2</ele>
        <time>2022-06-26T10:30:13Z</time>
      </trkpt>
      <trkpt lat="45.91502" lon="4.34528">
        <ele>765.2</ele>
        <time>2022-06-26T10:30:14Z</time>
      </trkpt>
      <trkpt lat="45.91497" lon="4.34527">
        <ele>765.2</ele>
        <time>2022-06-26T10:30:15Z</time>
      </trkpt>
      <trkpt lat="45.91493" lon="4.34525">
        <ele>765</ele>
        <time>2022-06-26T10:30:16Z</time>
      </trkpt>
      <trkpt lat="45.91488" lon="4.34523">
        <ele>765</ele>
        <time>2022-06-26T10:30:17Z</time>
      </trkpt>
      <trkpt lat="45.91483" lon="4.34521">
        <ele>764.6</ele>
        <time>2022-06-26T10:30:18Z</time>
      </trkpt>
      <trkpt lat="45.91479" lon="4.34519">
        <ele>764.6</ele>
        <time>2022-06-26T10:30:19Z</time>
      </trkpt>
      <trkpt lat="45.91474" lon="4.34517">
        <ele>764.2</ele>
        <time>2022-06-26T10:30:20Z</time>
      </trkpt>
      <trkpt lat="45.91468" lon="4.34516">
        <ele>764.2</ele>
        <time>2022-06-26T10:30:21Z</time>
      </trkpt>
      <trkpt lat="45.91463" lon="4.34514">
        <ele>764.2</ele>
        <time>2022-06-26T10:30:22Z</time>
      </trkpt>
      <trkpt lat="45.91458" lon="4.34511">
        <ele>763.8</ele>
        <time>2022-06-26T10:30:23Z</time>
      </trkpt>
      <trkpt lat="45.91453" lon="4.34509">
        <ele>763.6</ele>
        <time>2022-06-26T10:30:24Z</time>
      </trkpt>
      <trkpt lat="45.91447" lon="4.34507">
        <ele>763.2</ele>
        <time>2022-06-26T10:30:25Z</time>
      </trkpt>
      <trkpt lat="45.91441" lon="4.34504">
        <ele>763</ele>
        <time>2022-06-26T10:30:26Z</time>
      </trkpt>
      <trkpt lat="45.91435" lon="4.345">
        <ele>762.8</ele>
        <time>2022-06-26T10:30:27Z</time>
      </trkpt>
      <trkpt lat="45.9143" lon="4.34496">
        <ele>762.6</ele>
        <time>2022-06-26T10:30:28Z</time>
      </trkpt>
      <trkpt lat="45.91424" lon="4.34492">
        <ele>762.6</ele>
        <time>2022-06-26T10:30:29Z</time>
      </trkpt>
      <trkpt lat="45.91418" lon="4.34487">
        <ele>762</ele>
        <time>2022-06-26T10:30:30Z</time>
      </trkpt>
      <trkpt lat="45.91412" lon="4.34482">
        <ele>761.8</ele>
        <time>2022-06-26T10:30:31Z</time>
      </trkpt>
      <trkpt lat="45.91407" lon="4.34476">
        <ele>761.6</ele>
        <time>2022-06-26T10:30:32Z</time>
      </trkpt>
      <trkpt lat="45.91402" lon="4.3447">
        <ele>761.2</ele>
        <time>2022-06-26T10:30:33Z</time>
      </trkpt>
      <trkpt lat="45.91398" lon="4.34463">
        <ele>761.2</ele>
        <time>2022-06-26T10:30:34Z</time>
      </trkpt>
      <trkpt lat="45.91394" lon="4.34456">
        <ele>760.8</ele>
        <time>2022-06-26T10:30:35Z</time>
      </trkpt>
      <trkpt lat="45.9139" lon="4.34449">
        <ele>760.4</ele>
        <time>2022-06-26T10:30:36Z</time>
      </trkpt>
      <trkpt lat="45.91387" lon="4.34442">
        <ele>760</ele>
        <time>2022-06-26T10:30:37Z</time>
      </trkpt>
      <trkpt lat="45.91383" lon="4.34436">
        <ele>759.8</ele>
        <time>2022-06-26T10:30:38Z</time>
      </trkpt>
      <trkpt lat="45.9138" lon="4.3443">
        <ele>759.2</ele>
        <time>2022-06-26T10:30:39Z</time>
      </trkpt>
      <trkpt lat="45.91376" lon="4.34424">
        <ele>758.8</ele>
        <time>2022-06-26T10:30:40Z</time>
      </trkpt>
      <trkpt lat="45.91371" lon="4.34418">
        <ele>758.4</ele>
        <time>2022-06-26T10:30:41Z</time>
      </trkpt>
      <trkpt lat="45.91366" lon="4.34412">
        <ele>758</ele>
        <time>2022-06-26T10:30:42Z</time>
      </trkpt>
      <trkpt lat="45.91361" lon="4.34405">
        <ele>757.4</ele>
        <time>2022-06-26T10:30:43Z</time>
      </trkpt>
      <trkpt lat="45.91356" lon="4.34399">
        <ele>757.2</ele>
        <time>2022-06-26T10:30:44Z</time>
      </trkpt>
      <trkpt lat="45.91352" lon="4.34394">
        <ele>756.8</ele>
        <time>2022-06-26T10:30:45Z</time>
      </trkpt>
      <trkpt lat="45.91347" lon="4.3439">
        <ele>756.6</ele>
        <time>2022-06-26T10:30:46Z</time>
      </trkpt>
      <trkpt lat="45.91343" lon="4.34385">
        <ele>756.6</ele>
        <time>2022-06-26T10:30:47Z</time>
      </trkpt>
      <trkpt lat="45.91339" lon="4.34382">
        <ele>756.2</ele>
        <time>2022-06-26T10:30:48Z</time>
      </trkpt>
      <trkpt lat="45.91334" lon="4.3438">
        <ele>756.2</ele>
        <time>2022-06-26T10:30:49Z</time>
      </trkpt>
      <trkpt lat="45.9133" lon="4.34379">
        <ele>756</ele>
        <time>2022-06-26T10:30:50Z</time>
      </trkpt>
      <trkpt lat="45.91326" lon="4.3438">
        <ele>755.6</ele>
        <time>2022-06-26T10:30:51Z</time>
      </trkpt>
      <trkpt lat="45.91322" lon="4.34382">
        <ele>755.2</ele>
        <time>2022-06-26T10:30:52Z</time>
      </trkpt>
      <trkpt lat="45.91317" lon="4.34385">
        <ele>754.6</ele>
        <time>2022-06-26T10:30:53Z</time>
      </trkpt>
      <trkpt lat="45.9131" lon="4.34389">
        <ele>753.8</ele>
        <time>2022-06-26T10:30:54Z</time>
      </trkpt>
      <trkpt lat="45.91303" lon="4.34396">
        <ele>753</ele>
        <time>2022-06-26T10:30:55Z</time>
      </trkpt>
      <trkpt lat="45.91296" lon="4.34403">
        <ele>752</ele>
        <time>2022-06-26T10:30:56Z</time>
      </trkpt>
      <trkpt lat="45.91288" lon="4.34411">
        <ele>750.8</ele>
        <time>2022-06-26T10:30:57Z</time>
      </trkpt>
      <trkpt lat="45.91281" lon="4.34419">
        <ele>749.8</ele>
        <time>2022-06-26T10:30:58Z</time>
      </trkpt>
      <trkpt lat="45.91274" lon="4.34427">
        <ele>748.6</ele>
        <time>2022-06-26T10:30:59Z</time>
      </trkpt>
      <trkpt lat="45.91268" lon="4.34435">
        <ele>747.4</ele>
        <time>2022-06-26T10:31:00Z</time>
      </trkpt>
      <trkpt lat="45.91262" lon="4.34444">
        <ele>746</ele>
        <time>2022-06-26T10:31:01Z</time>
      </trkpt>
      <trkpt lat="45.91257" lon="4.34454">
        <ele>744.6</ele>
        <time>2022-06-26T10:31:02Z</time>
      </trkpt>
      <trkpt lat="45.91252" lon="4.34464">
        <ele>743.2</ele>
        <time>2022-06-26T10:31:03Z</time>
      </trkpt>
      <trkpt lat="45.91247" lon="4.34474">
        <ele>741.8</ele>
        <time>2022-06-26T10:31:04Z</time>
      </trkpt>
      <trkpt lat="45.91242" lon="4.34485">
        <ele>740.4</ele>
        <time>2022-06-26T10:31:05Z</time>
      </trkpt>
      <trkpt lat="45.91235" lon="4.34496">
        <ele>739.2</ele>
        <time>2022-06-26T10:31:06Z</time>
      </trkpt>
      <trkpt lat="45.91229" lon="4.34507">
        <ele>737.8</ele>
        <time>2022-06-26T10:31:07Z</time>
      </trkpt>
      <trkpt lat="45.91224" lon="4.34518">
        <ele>736.4</ele>
        <time>2022-06-26T10:31:08Z</time>
      </trkpt>
      <trkpt lat="45.91219" lon="4.34528">
        <ele>735.2</ele>
        <time>2022-06-26T10:31:09Z</time>
      </trkpt>
      <trkpt lat="45.91215" lon="4.34538">
        <ele>734</ele>
        <time>2022-06-26T10:31:10Z</time>
      </trkpt>
      <trkpt lat="45.91211" lon="4.34548">
        <ele>732.6</ele>
        <time>2022-06-26T10:31:11Z</time>
      </trkpt>
      <trkpt lat="45.91208" lon="4.34557">
        <ele>731.2</ele>
        <time>2022-06-26T10:31:12Z</time>
      </trkpt>
      <trkpt lat="45.91204" lon="4.34566">
        <ele>730.2</ele>
        <time>2022-06-26T10:31:13Z</time>
      </trkpt>
      <trkpt lat="45.912" lon="4.34575">
        <ele>729</ele>
        <time>2022-06-26T10:31:14Z</time>
      </trkpt>
      <trkpt lat="45.91195" lon="4.34583">
        <ele>727.8</ele>
        <time>2022-06-26T10:31:15Z</time>
      </trkpt>
      <trkpt lat="45.9119" lon="4.34592">
        <ele>726.4</ele>
        <time>2022-06-26T10:31:16Z</time>
      </trkpt>
      <trkpt lat="45.91184" lon="4.34601">
        <ele>725.2</ele>
        <time>2022-06-26T10:31:17Z</time>
      </trkpt>
      <trkpt lat="45.91177" lon="4.34609">
        <ele>724.2</ele>
        <time>2022-06-26T10:31:18Z</time>
      </trkpt>
      <trkpt lat="45.91171" lon="4.34616">
        <ele>723.2</ele>
        <time>2022-06-26T10:31:19Z</time>
      </trkpt>
      <trkpt lat="45.91164" lon="4.34623">
        <ele>722</ele>
        <time>2022-06-26T10:31:20Z</time>
      </trkpt>
      <trkpt lat="45.91159" lon="4.34629">
        <ele>721</ele>
        <time>2022-06-26T10:31:21Z</time>
      </trkpt>
      <trkpt lat="45.91154" lon="4.34635">
        <ele>720.2</ele>
        <time>2022-06-26T10:31:22Z</time>
      </trkpt>
      <trkpt lat="45.91149" lon="4.3464">
        <ele>719.4</ele>
        <time>2022-06-26T10:31:23Z</time>
      </trkpt>
      <trkpt lat="45.91145" lon="4.34647">
        <ele>718.6</ele>
        <time>2022-06-26T10:31:24Z</time>
      </trkpt>
      <trkpt lat="45.91141" lon="4.34655">
        <ele>717.8</ele>
        <time>2022-06-26T10:31:25Z</time>
      </trkpt>
      <trkpt lat="45.91137" lon="4.34665">
        <ele>716.8</ele>
        <time>2022-06-26T10:31:26Z</time>
      </trkpt>
      <trkpt lat="45.91134" lon="4.34676">
        <ele>715.8</ele>
        <time>2022-06-26T10:31:27Z</time>
      </trkpt>
      <trkpt lat="45.91131" lon="4.34687">
        <ele>714.6</ele>
        <time>2022-06-26T10:31:28Z</time>
      </trkpt>
      <trkpt lat="45.91128" lon="4.34697">
        <ele>713.6</ele>
        <time>2022-06-26T10:31:29Z</time>
      </trkpt>
      <trkpt lat="45.91125" lon="4.34707">
        <ele>712.6</ele>
        <time>2022-06-26T10:31:30Z</time>
      </trkpt>
      <trkpt lat="45.91121" lon="4.34716">
        <ele>712</ele>
        <time>2022-06-26T10:31:31Z</time>
      </trkpt>
      <trkpt lat="45.91116" lon="4.34726">
        <ele>711.4</ele>
        <time>2022-06-26T10:31:32Z</time>
      </trkpt>
      <trkpt lat="45.91111" lon="4.34735">
        <ele>710.4</ele>
        <time>2022-06-26T10:31:33Z</time>
      </trkpt>
      <trkpt lat="45.91106" lon="4.34745">
        <ele>709.6</ele>
        <time>2022-06-26T10:31:34Z</time>
      </trkpt>
      <trkpt lat="45.911" lon="4.34755">
        <ele>708.8</ele>
        <time>2022-06-26T10:31:35Z</time>
      </trkpt>
      <trkpt lat="45.91095" lon="4.34764">
        <ele>707.8</ele>
        <time>2022-06-26T10:31:36Z</time>
      </trkpt>
      <trkpt lat="45.9109" lon="4.34773">
        <ele>706.8</ele>
        <time>2022-06-26T10:31:37Z</time>
      </trkpt>
      <trkpt lat="45.91086" lon="4.34782">
        <ele>706</ele>
        <time>2022-06-26T10:31:38Z</time>
      </trkpt>
      <trkpt lat="45.91081" lon="4.3479">
        <ele>705.2</ele>
        <time>2022-06-26T10:31:39Z</time>
      </trkpt>
      <trkpt lat="45.91077" lon="4.34797">
        <ele>704.4</ele>
        <time>2022-06-26T10:31:40Z</time>
      </trkpt>
      <trkpt lat="45.91072" lon="4.34804">
        <ele>703.6</ele>
        <time>2022-06-26T10:31:41Z</time>
      </trkpt>
      <trkpt lat="45.91067" lon="4.34811">
        <ele>703</ele>
        <time>2022-06-26T10:31:42Z</time>
      </trkpt>
      <trkpt lat="45.91063" lon="4.34817">
        <ele>702.4</ele>
        <time>2022-06-26T10:31:43Z</time>
      </trkpt>
      <trkpt lat="45.91058" lon="4.34823">
        <ele>701.6</ele>
        <time>2022-06-26T10:31:44Z</time>
      </trkpt>
      <trkpt lat="45.91053" lon="4.34829">
        <ele>701</ele>
        <time>2022-06-26T10:31:45Z</time>
      </trkpt>
      <trkpt lat="45.91048" lon="4.34834">
        <ele>700.4</ele>
        <time>2022-06-26T10:31:46Z</time>
      </trkpt>
      <trkpt lat="45.91042" lon="4.34839">
        <ele>699.6</ele>
        <time>2022-06-26T10:31:47Z</time>
      </trkpt>
      <trkpt lat="45.91037" lon="4.34844">
        <ele>698.8</ele>
        <time>2022-06-26T10:31:48Z</time>
      </trkpt>
      <trkpt lat="45.91031" lon="4.34848">
        <ele>698.2</ele>
        <time>2022-06-26T10:31:49Z</time>
      </trkpt>
      <trkpt lat="45.91024" lon="4.34852">
        <ele>697.2</ele>
        <time>2022-06-26T10:31:50Z</time>
      </trkpt>
      <trkpt lat="45.91018" lon="4.34855">
        <ele>696.4</ele>
        <time>2022-06-26T10:31:51Z</time>
      </trkpt>
      <trkpt lat="45.91011" lon="4.34857">
        <ele>695.4</ele>
        <time>2022-06-26T10:31:52Z</time>
      </trkpt>
      <trkpt lat="45.91004" lon="4.3486">
        <ele>694.2</ele>
        <time>2022-06-26T10:31:53Z</time>
      </trkpt>
      <trkpt lat="45.90992" lon="4.34862">
        <ele>693.2</ele>
        <time>2022-06-26T10:31:54Z</time>
      </trkpt>
      <trkpt lat="45.90986" lon="4.34863">
        <ele>691.4</ele>
        <time>2022-06-26T10:31:55Z</time>
      </trkpt>
      <trkpt lat="45.9098" lon="4.34863">
        <ele>690.4</ele>
        <time>2022-06-26T10:31:56Z</time>
      </trkpt>
      <trkpt lat="45.90975" lon="4.34862">
        <ele>689.6</ele>
        <time>2022-06-26T10:31:57Z</time>
      </trkpt>
      <trkpt lat="45.90969" lon="4.3486">
        <ele>688.8</ele>
        <time>2022-06-26T10:31:58Z</time>
      </trkpt>
      <trkpt lat="45.90963" lon="4.34855">
        <ele>688</ele>
        <time>2022-06-26T10:31:59Z</time>
      </trkpt>
      <trkpt lat="45.90957" lon="4.34849">
        <ele>687.4</ele>
        <time>2022-06-26T10:32:00Z</time>
      </trkpt>
      <trkpt lat="45.90952" lon="4.34842">
        <ele>686.8</ele>
        <time>2022-06-26T10:32:01Z</time>
      </trkpt>
      <trkpt lat="45.90946" lon="4.34834">
        <ele>686.2</ele>
        <time>2022-06-26T10:32:02Z</time>
      </trkpt>
      <trkpt lat="45.9094" lon="4.34826">
        <ele>686.2</ele>
        <time>2022-06-26T10:32:03Z</time>
      </trkpt>
      <trkpt lat="45.90935" lon="4.34818">
        <ele>685.8</ele>
        <time>2022-06-26T10:32:04Z</time>
      </trkpt>
      <trkpt lat="45.90929" lon="4.34811">
        <ele>685.4</ele>
        <time>2022-06-26T10:32:05Z</time>
      </trkpt>
      <trkpt lat="45.90923" lon="4.34804">
        <ele>685.2</ele>
        <time>2022-06-26T10:32:06Z</time>
      </trkpt>
      <trkpt lat="45.90916" lon="4.34797">
        <ele>684.8</ele>
        <time>2022-06-26T10:32:07Z</time>
      </trkpt>
      <trkpt lat="45.90909" lon="4.34793">
        <ele>684.4</ele>
        <time>2022-06-26T10:32:08Z</time>
      </trkpt>
      <trkpt lat="45.90901" lon="4.3479">
        <ele>684.4</ele>
        <time>2022-06-26T10:32:09Z</time>
      </trkpt>
      <trkpt lat="45.90893" lon="4.34788">
        <ele>684</ele>
        <time>2022-06-26T10:32:10Z</time>
      </trkpt>
      <trkpt lat="45.90884" lon="4.34787">
        <ele>683.8</ele>
        <time>2022-06-26T10:32:11Z</time>
      </trkpt>
      <trkpt lat="45.90875" lon="4.34788">
        <ele>683.2</ele>
        <time>2022-06-26T10:32:12Z</time>
      </trkpt>
      <trkpt lat="45.90865" lon="4.3479">
        <ele>682.8</ele>
        <time>2022-06-26T10:32:13Z</time>
      </trkpt>
      <trkpt lat="45.90856" lon="4.34791">
        <ele>682.2</ele>
        <time>2022-06-26T10:32:14Z</time>
      </trkpt>
      <trkpt lat="45.90848" lon="4.34793">
        <ele>681.4</ele>
        <time>2022-06-26T10:32:15Z</time>
      </trkpt>
      <trkpt lat="45.9084" lon="4.34796">
        <ele>680.4</ele>
        <time>2022-06-26T10:32:16Z</time>
      </trkpt>
      <trkpt lat="45.90832" lon="4.34798">
        <ele>679.8</ele>
        <time>2022-06-26T10:32:17Z</time>
      </trkpt>
      <trkpt lat="45.90824" lon="4.348">
        <ele>679</ele>
        <time>2022-06-26T10:32:18Z</time>
      </trkpt>
      <trkpt lat="45.90815" lon="4.348">
        <ele>678.6</ele>
        <time>2022-06-26T10:32:19Z</time>
      </trkpt>
      <trkpt lat="45.90808" lon="4.34799">
        <ele>678</ele>
        <time>2022-06-26T10:32:20Z</time>
      </trkpt>
      <trkpt lat="45.90801" lon="4.34798">
        <ele>677.6</ele>
        <time>2022-06-26T10:32:21Z</time>
      </trkpt>
      <trkpt lat="45.90795" lon="4.34801">
        <ele>677.2</ele>
        <time>2022-06-26T10:32:22Z</time>
      </trkpt>
      <trkpt lat="45.9079" lon="4.34805">
        <ele>677.2</ele>
        <time>2022-06-26T10:32:23Z</time>
      </trkpt>
      <trkpt lat="45.90786" lon="4.3481">
        <ele>677</ele>
        <time>2022-06-26T10:32:24Z</time>
      </trkpt>
      <trkpt lat="45.90783" lon="4.34817">
        <ele>677</ele>
        <time>2022-06-26T10:32:25Z</time>
      </trkpt>
      <trkpt lat="45.90782" lon="4.34824">
        <ele>677</ele>
        <time>2022-06-26T10:32:26Z</time>
      </trkpt>
      <trkpt lat="45.90781" lon="4.34831">
        <ele>677</ele>
        <time>2022-06-26T10:32:27Z</time>
      </trkpt>
      <trkpt lat="45.9078" lon="4.34837">
        <ele>677</ele>
        <time>2022-06-26T10:32:28Z</time>
      </trkpt>
      <trkpt lat="45.90778" lon="4.34843">
        <ele>677.4</ele>
        <time>2022-06-26T10:32:29Z</time>
      </trkpt>
      <trkpt lat="45.90778" lon="4.34848">
        <ele>677.6</ele>
        <time>2022-06-26T10:32:30Z</time>
      </trkpt>
      <trkpt lat="45.90778" lon="4.34853">
        <ele>677.8</ele>
        <time>2022-06-26T10:32:31Z</time>
      </trkpt>
      <trkpt lat="45.90778" lon="4.34858">
        <ele>678.2</ele>
        <time>2022-06-26T10:32:32Z</time>
      </trkpt>
      <trkpt lat="45.90777" lon="4.34862">
        <ele>678.4</ele>
        <time>2022-06-26T10:32:33Z</time>
      </trkpt>
      <trkpt lat="45.90777" lon="4.34867">
        <ele>678.8</ele>
        <time>2022-06-26T10:32:34Z</time>
      </trkpt>
      <trkpt lat="45.90776" lon="4.34871">
        <ele>679</ele>
        <time>2022-06-26T10:32:35Z</time>
      </trkpt>
      <trkpt lat="45.90775" lon="4.34876">
        <ele>679.2</ele>
        <time>2022-06-26T10:32:36Z</time>
      </trkpt>
      <trkpt lat="45.90775" lon="4.34881">
        <ele>679.2</ele>
        <time>2022-06-26T10:32:37Z</time>
      </trkpt>
      <trkpt lat="45.90774" lon="4.34887">
        <ele>679.6</ele>
        <time>2022-06-26T10:32:38Z</time>
      </trkpt>
      <trkpt lat="45.90772" lon="4.34892">
        <ele>679.6</ele>
        <time>2022-06-26T10:32:39Z</time>
      </trkpt>
      <trkpt lat="45.90771" lon="4.34898">
        <ele>679.6</ele>
        <time>2022-06-26T10:32:40Z</time>
      </trkpt>
      <trkpt lat="45.90769" lon="4.34904">
        <ele>679.8</ele>
        <time>2022-06-26T10:32:41Z</time>
      </trkpt>
      <trkpt lat="45.90767" lon="4.3491">
        <ele>679.8</ele>
        <time>2022-06-26T10:32:42Z</time>
      </trkpt>
      <trkpt lat="45.90765" lon="4.34915">
        <ele>680.2</ele>
        <time>2022-06-26T10:32:43Z</time>
      </trkpt>
      <trkpt lat="45.90763" lon="4.34919">
        <ele>680.4</ele>
        <time>2022-06-26T10:32:44Z</time>
      </trkpt>
      <trkpt lat="45.90761" lon="4.34924">
        <ele>680.4</ele>
        <time>2022-06-26T10:32:45Z</time>
      </trkpt>
      <trkpt lat="45.90759" lon="4.34929">
        <ele>680.8</ele>
        <time>2022-06-26T10:32:46Z</time>
      </trkpt>
      <trkpt lat="45.90758" lon="4.34934">
        <ele>680.8</ele>
        <time>2022-06-26T10:32:47Z</time>
      </trkpt>
      <trkpt lat="45.90756" lon="4.34939">
        <ele>681</ele>
        <time>2022-06-26T10:32:48Z</time>
      </trkpt>
      <trkpt lat="45.90753" lon="4.34943">
        <ele>681.2</ele>
        <time>2022-06-26T10:32:49Z</time>
      </trkpt>
      <trkpt lat="45.90751" lon="4.34947">
        <ele>681.6</ele>
        <time>2022-06-26T10:32:50Z</time>
      </trkpt>
      <trkpt lat="45.90748" lon="4.34951">
        <ele>681.6</ele>
        <time>2022-06-26T10:32:51Z</time>
      </trkpt>
      <trkpt lat="45.90746" lon="4.34954">
        <ele>681.8</ele>
        <time>2022-06-26T10:32:52Z</time>
      </trkpt>
      <trkpt lat="45.90744" lon="4.34958">
        <ele>681.8</ele>
        <time>2022-06-26T10:32:53Z</time>
      </trkpt>
      <trkpt lat="45.90741" lon="4.34961">
        <ele>682</ele>
        <time>2022-06-26T10:32:54Z</time>
      </trkpt>
      <trkpt lat="45.90738" lon="4.34965">
        <ele>682</ele>
        <time>2022-06-26T10:32:55Z</time>
      </trkpt>
      <trkpt lat="45.90736" lon="4.34968">
        <ele>682</ele>
        <time>2022-06-26T10:32:56Z</time>
      </trkpt>
      <trkpt lat="45.90732" lon="4.34972">
        <ele>682</ele>
        <time>2022-06-26T10:32:57Z</time>
      </trkpt>
      <trkpt lat="45.90729" lon="4.34976">
        <ele>682</ele>
        <time>2022-06-26T10:32:58Z</time>
      </trkpt>
      <trkpt lat="45.90726" lon="4.3498">
        <ele>682</ele>
        <time>2022-06-26T10:32:59Z</time>
      </trkpt>
      <trkpt lat="45.90722" lon="4.34984">
        <ele>682</ele>
        <time>2022-06-26T10:33:00Z</time>
      </trkpt>
      <trkpt lat="45.90718" lon="4.34987">
        <ele>682</ele>
        <time>2022-06-26T10:33:01Z</time>
      </trkpt>
      <trkpt lat="45.90713" lon="4.34991">
        <ele>681.6</ele>
        <time>2022-06-26T10:33:02Z</time>
      </trkpt>
      <trkpt lat="45.90708" lon="4.34994">
        <ele>681.6</ele>
        <time>2022-06-26T10:33:03Z</time>
      </trkpt>
      <trkpt lat="45.90703" lon="4.34998">
        <ele>681.2</ele>
        <time>2022-06-26T10:33:04Z</time>
      </trkpt>
      <trkpt lat="45.90698" lon="4.35002">
        <ele>681</ele>
        <time>2022-06-26T10:33:05Z</time>
      </trkpt>
      <trkpt lat="45.90692" lon="4.35005">
        <ele>680.8</ele>
        <time>2022-06-26T10:33:06Z</time>
      </trkpt>
      <trkpt lat="45.90686" lon="4.35008">
        <ele>680.8</ele>
        <time>2022-06-26T10:33:07Z</time>
      </trkpt>
      <trkpt lat="45.90681" lon="4.35011">
        <ele>680.6</ele>
        <time>2022-06-26T10:33:08Z</time>
      </trkpt>
      <trkpt lat="45.90674" lon="4.35014">
        <ele>680.2</ele>
        <time>2022-06-26T10:33:09Z</time>
      </trkpt>
      <trkpt lat="45.90669" lon="4.35017">
        <ele>680</ele>
        <time>2022-06-26T10:33:10Z</time>
      </trkpt>
      <trkpt lat="45.90663" lon="4.35019">
        <ele>679.8</ele>
        <time>2022-06-26T10:33:11Z</time>
      </trkpt>
      <trkpt lat="45.90657" lon="4.35021">
        <ele>679.4</ele>
        <time>2022-06-26T10:33:12Z</time>
      </trkpt>
      <trkpt lat="45.90652" lon="4.35021">
        <ele>679</ele>
        <time>2022-06-26T10:33:13Z</time>
      </trkpt>
      <trkpt lat="45.90646" lon="4.35021">
        <ele>678.6</ele>
        <time>2022-06-26T10:33:14Z</time>
      </trkpt>
      <trkpt lat="45.9064" lon="4.3502">
        <ele>678.2</ele>
        <time>2022-06-26T10:33:15Z</time>
      </trkpt>
      <trkpt lat="45.90634" lon="4.35017">
        <ele>677.8</ele>
        <time>2022-06-26T10:33:16Z</time>
      </trkpt>
      <trkpt lat="45.90629" lon="4.35013">
        <ele>677.2</ele>
        <time>2022-06-26T10:33:17Z</time>
      </trkpt>
      <trkpt lat="45.90623" lon="4.35009">
        <ele>676.8</ele>
        <time>2022-06-26T10:33:18Z</time>
      </trkpt>
      <trkpt lat="45.90618" lon="4.35004">
        <ele>676.4</ele>
        <time>2022-06-26T10:33:19Z</time>
      </trkpt>
      <trkpt lat="45.90613" lon="4.35">
        <ele>676</ele>
        <time>2022-06-26T10:33:20Z</time>
      </trkpt>
      <trkpt lat="45.90607" lon="4.34997">
        <ele>675.6</ele>
        <time>2022-06-26T10:33:21Z</time>
      </trkpt>
      <trkpt lat="45.90602" lon="4.34996">
        <ele>675.2</ele>
        <time>2022-06-26T10:33:22Z</time>
      </trkpt>
      <trkpt lat="45.90597" lon="4.34997">
        <ele>674.8</ele>
        <time>2022-06-26T10:33:23Z</time>
      </trkpt>
      <trkpt lat="45.90592" lon="4.35">
        <ele>674.4</ele>
        <time>2022-06-26T10:33:24Z</time>
      </trkpt>
      <trkpt lat="45.90587" lon="4.35006">
        <ele>674</ele>
        <time>2022-06-26T10:33:25Z</time>
      </trkpt>
      <trkpt lat="45.90584" lon="4.35014">
        <ele>673.6</ele>
        <time>2022-06-26T10:33:26Z</time>
      </trkpt>
      <trkpt lat="45.90581" lon="4.35023">
        <ele>673</ele>
        <time>2022-06-26T10:33:27Z</time>
      </trkpt>
      <trkpt lat="45.90579" lon="4.35032">
        <ele>672.4</ele>
        <time>2022-06-26T10:33:28Z</time>
      </trkpt>
      <trkpt lat="45.90576" lon="4.35041">
        <ele>671.8</ele>
        <time>2022-06-26T10:33:29Z</time>
      </trkpt>
      <trkpt lat="45.90574" lon="4.35049">
        <ele>671.2</ele>
        <time>2022-06-26T10:33:30Z</time>
      </trkpt>
      <trkpt lat="45.90572" lon="4.35057">
        <ele>670.6</ele>
        <time>2022-06-26T10:33:31Z</time>
      </trkpt>
      <trkpt lat="45.90571" lon="4.35065">
        <ele>670</ele>
        <time>2022-06-26T10:33:32Z</time>
      </trkpt>
      <trkpt lat="45.90569" lon="4.35073">
        <ele>669.4</ele>
        <time>2022-06-26T10:33:33Z</time>
      </trkpt>
      <trkpt lat="45.90568" lon="4.35082">
        <ele>669</ele>
        <time>2022-06-26T10:33:34Z</time>
      </trkpt>
      <trkpt lat="45.90566" lon="4.35091">
        <ele>668.4</ele>
        <time>2022-06-26T10:33:35Z</time>
      </trkpt>
      <trkpt lat="45.90564" lon="4.35099">
        <ele>668</ele>
        <time>2022-06-26T10:33:36Z</time>
      </trkpt>
      <trkpt lat="45.90562" lon="4.35108">
        <ele>667.4</ele>
        <time>2022-06-26T10:33:37Z</time>
      </trkpt>
      <trkpt lat="45.90558" lon="4.35117">
        <ele>667</ele>
        <time>2022-06-26T10:33:38Z</time>
      </trkpt>
      <trkpt lat="45.90554" lon="4.35126">
        <ele>666.4</ele>
        <time>2022-06-26T10:33:39Z</time>
      </trkpt>
      <trkpt lat="45.90548" lon="4.35135">
        <ele>665.8</ele>
        <time>2022-06-26T10:33:40Z</time>
      </trkpt>
      <trkpt lat="45.90543" lon="4.35144">
        <ele>665</ele>
        <time>2022-06-26T10:33:41Z</time>
      </trkpt>
      <trkpt lat="45.90538" lon="4.35152">
        <ele>664.6</ele>
        <time>2022-06-26T10:33:42Z</time>
      </trkpt>
      <trkpt lat="45.90532" lon="4.35161">
        <ele>664.2</ele>
        <time>2022-06-26T10:33:43Z</time>
      </trkpt>
      <trkpt lat="45.90527" lon="4.3517">
        <ele>663.6</ele>
        <time>2022-06-26T10:33:44Z</time>
      </trkpt>
      <trkpt lat="45.90522" lon="4.3518">
        <ele>663.2</ele>
        <time>2022-06-26T10:33:45Z</time>
      </trkpt>
      <trkpt lat="45.90518" lon="4.35189">
        <ele>662.6</ele>
        <time>2022-06-26T10:33:46Z</time>
      </trkpt>
      <trkpt lat="45.90513" lon="4.35198">
        <ele>661.8</ele>
        <time>2022-06-26T10:33:47Z</time>
      </trkpt>
      <trkpt lat="45.90509" lon="4.35206">
        <ele>661.2</ele>
        <time>2022-06-26T10:33:48Z</time>
      </trkpt>
      <trkpt lat="45.90504" lon="4.35214">
        <ele>660.4</ele>
        <time>2022-06-26T10:33:49Z</time>
      </trkpt>
      <trkpt lat="45.90499" lon="4.35221">
        <ele>659.6</ele>
        <time>2022-06-26T10:33:50Z</time>
      </trkpt>
      <trkpt lat="45.90493" lon="4.35228">
        <ele>658.8</ele>
        <time>2022-06-26T10:33:51Z</time>
      </trkpt>
      <trkpt lat="45.90487" lon="4.35235">
        <ele>658.2</ele>
        <time>2022-06-26T10:33:52Z</time>
      </trkpt>
      <trkpt lat="45.90481" lon="4.35243">
        <ele>657.4</ele>
        <time>2022-06-26T10:33:53Z</time>
      </trkpt>
      <trkpt lat="45.90475" lon="4.3525">
        <ele>656.4</ele>
        <time>2022-06-26T10:33:54Z</time>
      </trkpt>
      <trkpt lat="45.90469" lon="4.35257">
        <ele>655.6</ele>
        <time>2022-06-26T10:33:55Z</time>
      </trkpt>
      <trkpt lat="45.90463" lon="4.35264">
        <ele>654.6</ele>
        <time>2022-06-26T10:33:56Z</time>
      </trkpt>
      <trkpt lat="45.90457" lon="4.35271">
        <ele>653.4</ele>
        <time>2022-06-26T10:33:57Z</time>
      </trkpt>
      <trkpt lat="45.9045" lon="4.35278">
        <ele>652.4</ele>
        <time>2022-06-26T10:33:58Z</time>
      </trkpt>
      <trkpt lat="45.90444" lon="4.35285">
        <ele>651.4</ele>
        <time>2022-06-26T10:33:59Z</time>
      </trkpt>
      <trkpt lat="45.90438" lon="4.35291">
        <ele>650.4</ele>
        <time>2022-06-26T10:34:00Z</time>
      </trkpt>
      <trkpt lat="45.90432" lon="4.35298">
        <ele>649.4</ele>
        <time>2022-06-26T10:34:01Z</time>
      </trkpt>
      <trkpt lat="45.90426" lon="4.35304">
        <ele>648.2</ele>
        <time>2022-06-26T10:34:02Z</time>
      </trkpt>
      <trkpt lat="45.90421" lon="4.35311">
        <ele>647.2</ele>
        <time>2022-06-26T10:34:03Z</time>
      </trkpt>
      <trkpt lat="45.90417" lon="4.35318">
        <ele>646.2</ele>
        <time>2022-06-26T10:34:04Z</time>
      </trkpt>
      <trkpt lat="45.90412" lon="4.35328">
        <ele>645.2</ele>
        <time>2022-06-26T10:34:05Z</time>
      </trkpt>
      <trkpt lat="45.90408" lon="4.35338">
        <ele>644.2</ele>
        <time>2022-06-26T10:34:06Z</time>
      </trkpt>
      <trkpt lat="45.90404" lon="4.35349">
        <ele>643</ele>
        <time>2022-06-26T10:34:07Z</time>
      </trkpt>
      <trkpt lat="45.904" lon="4.3536">
        <ele>642</ele>
        <time>2022-06-26T10:34:08Z</time>
      </trkpt>
      <trkpt lat="45.90396" lon="4.3537">
        <ele>641</ele>
        <time>2022-06-26T10:34:09Z</time>
      </trkpt>
      <trkpt lat="45.90391" lon="4.35381">
        <ele>639.8</ele>
        <time>2022-06-26T10:34:10Z</time>
      </trkpt>
      <trkpt lat="45.90385" lon="4.35391">
        <ele>638.6</ele>
        <time>2022-06-26T10:34:11Z</time>
      </trkpt>
      <trkpt lat="45.9038" lon="4.35401">
        <ele>637.6</ele>
        <time>2022-06-26T10:34:12Z</time>
      </trkpt>
      <trkpt lat="45.90375" lon="4.3541">
        <ele>636.4</ele>
        <time>2022-06-26T10:34:13Z</time>
      </trkpt>
      <trkpt lat="45.9037" lon="4.35419">
        <ele>635.2</ele>
        <time>2022-06-26T10:34:14Z</time>
      </trkpt>
      <trkpt lat="45.90366" lon="4.35428">
        <ele>634</ele>
        <time>2022-06-26T10:34:15Z</time>
      </trkpt>
      <trkpt lat="45.90361" lon="4.35436">
        <ele>632.8</ele>
        <time>2022-06-26T10:34:16Z</time>
      </trkpt>
      <trkpt lat="45.90357" lon="4.35442">
        <ele>631.8</ele>
        <time>2022-06-26T10:34:17Z</time>
      </trkpt>
      <trkpt lat="45.90352" lon="4.35448">
        <ele>630.8</ele>
        <time>2022-06-26T10:34:18Z</time>
      </trkpt>
      <trkpt lat="45.90347" lon="4.35452">
        <ele>629.8</ele>
        <time>2022-06-26T10:34:19Z</time>
      </trkpt>
      <trkpt lat="45.90343" lon="4.35454">
        <ele>629</ele>
        <time>2022-06-26T10:34:20Z</time>
      </trkpt>
      <trkpt lat="45.90339" lon="4.35456">
        <ele>628.2</ele>
        <time>2022-06-26T10:34:21Z</time>
      </trkpt>
      <trkpt lat="45.90336" lon="4.35458">
        <ele>627.4</ele>
        <time>2022-06-26T10:34:22Z</time>
      </trkpt>
      <trkpt lat="45.90334" lon="4.35461">
        <ele>626.8</ele>
        <time>2022-06-26T10:34:23Z</time>
      </trkpt>
      <trkpt lat="45.90333" lon="4.35466">
        <ele>626.2</ele>
        <time>2022-06-26T10:34:24Z</time>
      </trkpt>
      <trkpt lat="45.90334" lon="4.35471">
        <ele>625.6</ele>
        <time>2022-06-26T10:34:25Z</time>
      </trkpt>
      <trkpt lat="45.90336" lon="4.35477">
        <ele>624.8</ele>
        <time>2022-06-26T10:34:26Z</time>
      </trkpt>
      <trkpt lat="45.90339" lon="4.35483">
        <ele>624.2</ele>
        <time>2022-06-26T10:34:27Z</time>
      </trkpt>
      <trkpt lat="45.90343" lon="4.35489">
        <ele>623.4</ele>
        <time>2022-06-26T10:34:28Z</time>
      </trkpt>
      <trkpt lat="45.90348" lon="4.35495">
        <ele>622.8</ele>
        <time>2022-06-26T10:34:29Z</time>
      </trkpt>
      <trkpt lat="45.90354" lon="4.355">
        <ele>622</ele>
        <time>2022-06-26T10:34:30Z</time>
      </trkpt>
      <trkpt lat="45.9036" lon="4.35505">
        <ele>621.2</ele>
        <time>2022-06-26T10:34:31Z</time>
      </trkpt>
      <trkpt lat="45.90368" lon="4.35508">
        <ele>620.2</ele>
        <time>2022-06-26T10:34:32Z</time>
      </trkpt>
      <trkpt lat="45.90376" lon="4.3551">
        <ele>619.4</ele>
        <time>2022-06-26T10:34:33Z</time>
      </trkpt>
      <trkpt lat="45.90384" lon="4.35512">
        <ele>618.4</ele>
        <time>2022-06-26T10:34:34Z</time>
      </trkpt>
      <trkpt lat="45.90391" lon="4.35514">
        <ele>617.6</ele>
        <time>2022-06-26T10:34:35Z</time>
      </trkpt>
      <trkpt lat="45.90399" lon="4.35515">
        <ele>616.8</ele>
        <time>2022-06-26T10:34:36Z</time>
      </trkpt>
      <trkpt lat="45.90407" lon="4.35515">
        <ele>616.2</ele>
        <time>2022-06-26T10:34:37Z</time>
      </trkpt>
      <trkpt lat="45.90415" lon="4.35514">
        <ele>615.6</ele>
        <time>2022-06-26T10:34:38Z</time>
      </trkpt>
      <trkpt lat="45.90423" lon="4.35512">
        <ele>615</ele>
        <time>2022-06-26T10:34:39Z</time>
      </trkpt>
      <trkpt lat="45.90431" lon="4.35509">
        <ele>614.6</ele>
        <time>2022-06-26T10:34:40Z</time>
      </trkpt>
      <trkpt lat="45.90438" lon="4.35506">
        <ele>614.2</ele>
        <time>2022-06-26T10:34:41Z</time>
      </trkpt>
      <trkpt lat="45.90445" lon="4.35504">
        <ele>613.6</ele>
        <time>2022-06-26T10:34:42Z</time>
      </trkpt>
      <trkpt lat="45.90453" lon="4.35503">
        <ele>613.2</ele>
        <time>2022-06-26T10:34:43Z</time>
      </trkpt>
      <trkpt lat="45.9046" lon="4.35503">
        <ele>612.8</ele>
        <time>2022-06-26T10:34:44Z</time>
      </trkpt>
      <trkpt lat="45.90468" lon="4.35503">
        <ele>612.2</ele>
        <time>2022-06-26T10:34:45Z</time>
      </trkpt>
      <trkpt lat="45.90476" lon="4.35504">
        <ele>611.8</ele>
        <time>2022-06-26T10:34:46Z</time>
      </trkpt>
      <trkpt lat="45.90484" lon="4.35503">
        <ele>611</ele>
        <time>2022-06-26T10:34:47Z</time>
      </trkpt>
      <trkpt lat="45.90491" lon="4.35502">
        <ele>610.4</ele>
        <time>2022-06-26T10:34:48Z</time>
      </trkpt>
      <trkpt lat="45.90499" lon="4.355">
        <ele>609.6</ele>
        <time>2022-06-26T10:34:49Z</time>
      </trkpt>
      <trkpt lat="45.90506" lon="4.35496">
        <ele>608.8</ele>
        <time>2022-06-26T10:34:50Z</time>
      </trkpt>
      <trkpt lat="45.90513" lon="4.35491">
        <ele>608.8</ele>
        <time>2022-06-26T10:34:51Z</time>
      </trkpt>
      <trkpt lat="45.90521" lon="4.35485">
        <ele>608.2</ele>
        <time>2022-06-26T10:34:52Z</time>
      </trkpt>
      <trkpt lat="45.90529" lon="4.35479">
        <ele>607.6</ele>
        <time>2022-06-26T10:34:53Z</time>
      </trkpt>
      <trkpt lat="45.90536" lon="4.35474">
        <ele>607</ele>
        <time>2022-06-26T10:34:54Z</time>
      </trkpt>
      <trkpt lat="45.90543" lon="4.35469">
        <ele>606.4</ele>
        <time>2022-06-26T10:34:55Z</time>
      </trkpt>
      <trkpt lat="45.9055" lon="4.35466">
        <ele>605.6</ele>
        <time>2022-06-26T10:34:56Z</time>
      </trkpt>
      <trkpt lat="45.90556" lon="4.35464">
        <ele>605</ele>
        <time>2022-06-26T10:34:57Z</time>
      </trkpt>
      <trkpt lat="45.90561" lon="4.35463">
        <ele>604.4</ele>
        <time>2022-06-26T10:34:58Z</time>
      </trkpt>
      <trkpt lat="45.90566" lon="4.35464">
        <ele>603.8</ele>
        <time>2022-06-26T10:34:59Z</time>
      </trkpt>
      <trkpt lat="45.90569" lon="4.35469">
        <ele>603.2</ele>
        <time>2022-06-26T10:35:00Z</time>
      </trkpt>
      <trkpt lat="45.90572" lon="4.35476">
        <ele>602.8</ele>
        <time>2022-06-26T10:35:01Z</time>
      </trkpt>
      <trkpt lat="45.90572" lon="4.35485">
        <ele>602.2</ele>
        <time>2022-06-26T10:35:02Z</time>
      </trkpt>
      <trkpt lat="45.90571" lon="4.35495">
        <ele>601.4</ele>
        <time>2022-06-26T10:35:03Z</time>
      </trkpt>
      <trkpt lat="45.9057" lon="4.35506">
        <ele>600.8</ele>
        <time>2022-06-26T10:35:04Z</time>
      </trkpt>
      <trkpt lat="45.9057" lon="4.35518">
        <ele>600</ele>
        <time>2022-06-26T10:35:05Z</time>
      </trkpt>
      <trkpt lat="45.90571" lon="4.35529">
        <ele>599.2</ele>
        <time>2022-06-26T10:35:06Z</time>
      </trkpt>
      <trkpt lat="45.90571" lon="4.3554">
        <ele>598.6</ele>
        <time>2022-06-26T10:35:07Z</time>
      </trkpt>
      <trkpt lat="45.90571" lon="4.35549">
        <ele>598</ele>
        <time>2022-06-26T10:35:08Z</time>
      </trkpt>
      <trkpt lat="45.9057" lon="4.35558">
        <ele>597.6</ele>
        <time>2022-06-26T10:35:09Z</time>
      </trkpt>
      <trkpt lat="45.90569" lon="4.35567">
        <ele>597</ele>
        <time>2022-06-26T10:35:10Z</time>
      </trkpt>
      <trkpt lat="45.90566" lon="4.35576">
        <ele>596.6</ele>
        <time>2022-06-26T10:35:11Z</time>
      </trkpt>
      <trkpt lat="45.90562" lon="4.35583">
        <ele>596.4</ele>
        <time>2022-06-26T10:35:12Z</time>
      </trkpt>
      <trkpt lat="45.90557" lon="4.35591">
        <ele>596</ele>
        <time>2022-06-26T10:35:13Z</time>
      </trkpt>
      <trkpt lat="45.90552" lon="4.35598">
        <ele>595.6</ele>
        <time>2022-06-26T10:35:14Z</time>
      </trkpt>
      <trkpt lat="45.90547" lon="4.35604">
        <ele>595.2</ele>
        <time>2022-06-26T10:35:15Z</time>
      </trkpt>
      <trkpt lat="45.90542" lon="4.3561">
        <ele>594.8</ele>
        <time>2022-06-26T10:35:16Z</time>
      </trkpt>
      <trkpt lat="45.90535" lon="4.35615">
        <ele>594.4</ele>
        <time>2022-06-26T10:35:17Z</time>
      </trkpt>
      <trkpt lat="45.90528" lon="4.35621">
        <ele>594</ele>
        <time>2022-06-26T10:35:18Z</time>
      </trkpt>
      <trkpt lat="45.90522" lon="4.35627">
        <ele>593.4</ele>
        <time>2022-06-26T10:35:19Z</time>
      </trkpt>
      <trkpt lat="45.90514" lon="4.35631">
        <ele>593</ele>
        <time>2022-06-26T10:35:20Z</time>
      </trkpt>
      <trkpt lat="45.90507" lon="4.35635">
        <ele>592.8</ele>
        <time>2022-06-26T10:35:21Z</time>
      </trkpt>
      <trkpt lat="45.905" lon="4.3564">
        <ele>592.2</ele>
        <time>2022-06-26T10:35:22Z</time>
      </trkpt>
      <trkpt lat="45.90492" lon="4.35644">
        <ele>591.6</ele>
        <time>2022-06-26T10:35:23Z</time>
      </trkpt>
      <trkpt lat="45.90483" lon="4.35649">
        <ele>591.4</ele>
        <time>2022-06-26T10:35:24Z</time>
      </trkpt>
      <trkpt lat="45.90474" lon="4.35655">
        <ele>590.8</ele>
        <time>2022-06-26T10:35:25Z</time>
      </trkpt>
      <trkpt lat="45.90465" lon="4.35663">
        <ele>590.2</ele>
        <time>2022-06-26T10:35:26Z</time>
      </trkpt>
      <trkpt lat="45.90456" lon="4.35671">
        <ele>589.8</ele>
        <time>2022-06-26T10:35:27Z</time>
      </trkpt>
      <trkpt lat="45.90447" lon="4.35679">
        <ele>589.2</ele>
        <time>2022-06-26T10:35:28Z</time>
      </trkpt>
      <trkpt lat="45.90438" lon="4.35687">
        <ele>588.6</ele>
        <time>2022-06-26T10:35:29Z</time>
      </trkpt>
      <trkpt lat="45.90429" lon="4.35694">
        <ele>588.2</ele>
        <time>2022-06-26T10:35:30Z</time>
      </trkpt>
      <trkpt lat="45.9042" lon="4.35703">
        <ele>587.8</ele>
        <time>2022-06-26T10:35:31Z</time>
      </trkpt>
      <trkpt lat="45.90411" lon="4.35711">
        <ele>587.2</ele>
        <time>2022-06-26T10:35:32Z</time>
      </trkpt>
      <trkpt lat="45.90402" lon="4.35719">
        <ele>586.8</ele>
        <time>2022-06-26T10:35:33Z</time>
      </trkpt>
      <trkpt lat="45.90391" lon="4.35727">
        <ele>586.2</ele>
        <time>2022-06-26T10:35:34Z</time>
      </trkpt>
      <trkpt lat="45.9038" lon="4.35736">
        <ele>585.4</ele>
        <time>2022-06-26T10:35:35Z</time>
      </trkpt>
      <trkpt lat="45.90369" lon="4.35745">
        <ele>585</ele>
        <time>2022-06-26T10:35:36Z</time>
      </trkpt>
      <trkpt lat="45.9036" lon="4.35752">
        <ele>584.4</ele>
        <time>2022-06-26T10:35:37Z</time>
      </trkpt>
      <trkpt lat="45.9035" lon="4.35759">
        <ele>583.6</ele>
        <time>2022-06-26T10:35:38Z</time>
      </trkpt>
      <trkpt lat="45.90341" lon="4.35766">
        <ele>582.8</ele>
        <time>2022-06-26T10:35:39Z</time>
      </trkpt>
      <trkpt lat="45.90331" lon="4.35772">
        <ele>582.4</ele>
        <time>2022-06-26T10:35:40Z</time>
      </trkpt>
      <trkpt lat="45.90322" lon="4.35779">
        <ele>582</ele>
        <time>2022-06-26T10:35:41Z</time>
      </trkpt>
      <trkpt lat="45.90312" lon="4.35787">
        <ele>581.6</ele>
        <time>2022-06-26T10:35:42Z</time>
      </trkpt>
      <trkpt lat="45.90303" lon="4.35795">
        <ele>581</ele>
        <time>2022-06-26T10:35:43Z</time>
      </trkpt>
      <trkpt lat="45.90294" lon="4.35803">
        <ele>580.6</ele>
        <time>2022-06-26T10:35:44Z</time>
      </trkpt>
      <trkpt lat="45.90286" lon="4.35812">
        <ele>580</ele>
        <time>2022-06-26T10:35:45Z</time>
      </trkpt>
      <trkpt lat="45.90278" lon="4.35821">
        <ele>579.6</ele>
        <time>2022-06-26T10:35:46Z</time>
      </trkpt>
      <trkpt lat="45.9027" lon="4.35829">
        <ele>579.2</ele>
        <time>2022-06-26T10:35:47Z</time>
      </trkpt>
      <trkpt lat="45.90262" lon="4.35837">
        <ele>578.6</ele>
        <time>2022-06-26T10:35:48Z</time>
      </trkpt>
      <trkpt lat="45.90254" lon="4.35844">
        <ele>578</ele>
        <time>2022-06-26T10:35:49Z</time>
      </trkpt>
      <trkpt lat="45.90246" lon="4.35851">
        <ele>577.6</ele>
        <time>2022-06-26T10:35:50Z</time>
      </trkpt>
      <trkpt lat="45.90237" lon="4.35855">
        <ele>577</ele>
        <time>2022-06-26T10:35:51Z</time>
      </trkpt>
      <trkpt lat="45.90228" lon="4.35862">
        <ele>576.6</ele>
        <time>2022-06-26T10:35:52Z</time>
      </trkpt>
      <trkpt lat="45.90221" lon="4.3587">
        <ele>576</ele>
        <time>2022-06-26T10:35:53Z</time>
      </trkpt>
      <trkpt lat="45.90213" lon="4.35878">
        <ele>575.6</ele>
        <time>2022-06-26T10:35:54Z</time>
      </trkpt>
      <trkpt lat="45.90205" lon="4.35886">
        <ele>575</ele>
        <time>2022-06-26T10:35:55Z</time>
      </trkpt>
      <trkpt lat="45.90197" lon="4.35893">
        <ele>574.6</ele>
        <time>2022-06-26T10:35:56Z</time>
      </trkpt>
      <trkpt lat="45.90189" lon="4.35901">
        <ele>574.4</ele>
        <time>2022-06-26T10:35:57Z</time>
      </trkpt>
      <trkpt lat="45.90181" lon="4.35909">
        <ele>574</ele>
        <time>2022-06-26T10:35:58Z</time>
      </trkpt>
      <trkpt lat="45.90173" lon="4.35916">
        <ele>573.4</ele>
        <time>2022-06-26T10:35:59Z</time>
      </trkpt>
      <trkpt lat="45.90165" lon="4.35922">
        <ele>572.8</ele>
        <time>2022-06-26T10:36:00Z</time>
      </trkpt>
      <trkpt lat="45.90159" lon="4.35928">
        <ele>572.4</ele>
        <time>2022-06-26T10:36:01Z</time>
      </trkpt>
      <trkpt lat="45.90152" lon="4.35934">
        <ele>571.6</ele>
        <time>2022-06-26T10:36:02Z</time>
      </trkpt>
      <trkpt lat="45.90147" lon="4.35941">
        <ele>571</ele>
        <time>2022-06-26T10:36:03Z</time>
      </trkpt>
      <trkpt lat="45.90141" lon="4.35947">
        <ele>570.4</ele>
        <time>2022-06-26T10:36:04Z</time>
      </trkpt>
      <trkpt lat="45.90135" lon="4.35953">
        <ele>570</ele>
        <time>2022-06-26T10:36:05Z</time>
      </trkpt>
      <trkpt lat="45.90128" lon="4.35957">
        <ele>569.4</ele>
        <time>2022-06-26T10:36:06Z</time>
      </trkpt>
      <trkpt lat="45.90123" lon="4.35963">
        <ele>568.8</ele>
        <time>2022-06-26T10:36:07Z</time>
      </trkpt>
      <trkpt lat="45.90117" lon="4.35969">
        <ele>568.4</ele>
        <time>2022-06-26T10:36:08Z</time>
      </trkpt>
      <trkpt lat="45.90111" lon="4.35976">
        <ele>568</ele>
        <time>2022-06-26T10:36:09Z</time>
      </trkpt>
      <trkpt lat="45.90106" lon="4.35983">
        <ele>567.4</ele>
        <time>2022-06-26T10:36:10Z</time>
      </trkpt>
      <trkpt lat="45.901" lon="4.35991">
        <ele>567</ele>
        <time>2022-06-26T10:36:11Z</time>
      </trkpt>
      <trkpt lat="45.90094" lon="4.35999">
        <ele>566.6</ele>
        <time>2022-06-26T10:36:12Z</time>
      </trkpt>
      <trkpt lat="45.90088" lon="4.36006">
        <ele>566.2</ele>
        <time>2022-06-26T10:36:13Z</time>
      </trkpt>
      <trkpt lat="45.90082" lon="4.36014">
        <ele>566</ele>
        <time>2022-06-26T10:36:14Z</time>
      </trkpt>
      <trkpt lat="45.90077" lon="4.36021">
        <ele>565.8</ele>
        <time>2022-06-26T10:36:15Z</time>
      </trkpt>
      <trkpt lat="45.90071" lon="4.36028">
        <ele>565.4</ele>
        <time>2022-06-26T10:36:16Z</time>
      </trkpt>
      <trkpt lat="45.90065" lon="4.36034">
        <ele>565.2</ele>
        <time>2022-06-26T10:36:17Z</time>
      </trkpt>
      <trkpt lat="45.9006" lon="4.3604">
        <ele>565.2</ele>
        <time>2022-06-26T10:36:18Z</time>
      </trkpt>
      <trkpt lat="45.90056" lon="4.36046">
        <ele>565</ele>
        <time>2022-06-26T10:36:19Z</time>
      </trkpt>
      <trkpt lat="45.90051" lon="4.36051">
        <ele>565</ele>
        <time>2022-06-26T10:36:20Z</time>
      </trkpt>
      <trkpt lat="45.90046" lon="4.36056">
        <ele>564.6</ele>
        <time>2022-06-26T10:36:21Z</time>
      </trkpt>
      <trkpt lat="45.90041" lon="4.36063">
        <ele>564.6</ele>
        <time>2022-06-26T10:36:22Z</time>
      </trkpt>
      <trkpt lat="45.90035" lon="4.36069">
        <ele>564.2</ele>
        <time>2022-06-26T10:36:23Z</time>
      </trkpt>
      <trkpt lat="45.90028" lon="4.36075">
        <ele>564</ele>
        <time>2022-06-26T10:36:24Z</time>
      </trkpt>
      <trkpt lat="45.90023" lon="4.36082">
        <ele>563.8</ele>
        <time>2022-06-26T10:36:25Z</time>
      </trkpt>
      <trkpt lat="45.90017" lon="4.36089">
        <ele>563.4</ele>
        <time>2022-06-26T10:36:26Z</time>
      </trkpt>
      <trkpt lat="45.90011" lon="4.36095">
        <ele>563</ele>
        <time>2022-06-26T10:36:27Z</time>
      </trkpt>
      <trkpt lat="45.90005" lon="4.36101">
        <ele>562.6</ele>
        <time>2022-06-26T10:36:28Z</time>
      </trkpt>
      <trkpt lat="45.89998" lon="4.36108">
        <ele>562.2</ele>
        <time>2022-06-26T10:36:29Z</time>
      </trkpt>
      <trkpt lat="45.89991" lon="4.36114">
        <ele>561.8</ele>
        <time>2022-06-26T10:36:30Z</time>
      </trkpt>
      <trkpt lat="45.89984" lon="4.3612">
        <ele>561.6</ele>
        <time>2022-06-26T10:36:31Z</time>
      </trkpt>
      <trkpt lat="45.89977" lon="4.36126">
        <ele>561.2</ele>
        <time>2022-06-26T10:36:32Z</time>
      </trkpt>
      <trkpt lat="45.8997" lon="4.36132">
        <ele>561</ele>
        <time>2022-06-26T10:36:33Z</time>
      </trkpt>
      <trkpt lat="45.89962" lon="4.36137">
        <ele>560.4</ele>
        <time>2022-06-26T10:36:34Z</time>
      </trkpt>
      <trkpt lat="45.89955" lon="4.36142">
        <ele>559.8</ele>
        <time>2022-06-26T10:36:35Z</time>
      </trkpt>
      <trkpt lat="45.89947" lon="4.36147">
        <ele>559.4</ele>
        <time>2022-06-26T10:36:36Z</time>
      </trkpt>
      <trkpt lat="45.89939" lon="4.36152">
        <ele>559.2</ele>
        <time>2022-06-26T10:36:37Z</time>
      </trkpt>
      <trkpt lat="45.8993" lon="4.36156">
        <ele>558.6</ele>
        <time>2022-06-26T10:36:38Z</time>
      </trkpt>
      <trkpt lat="45.89921" lon="4.3616">
        <ele>558.2</ele>
        <time>2022-06-26T10:36:39Z</time>
      </trkpt>
      <trkpt lat="45.89911" lon="4.36164">
        <ele>557.6</ele>
        <time>2022-06-26T10:36:40Z</time>
      </trkpt>
      <trkpt lat="45.89899" lon="4.36169">
        <ele>557</ele>
        <time>2022-06-26T10:36:41Z</time>
      </trkpt>
      <trkpt lat="45.89887" lon="4.36173">
        <ele>556.6</ele>
        <time>2022-06-26T10:36:42Z</time>
      </trkpt>
      <trkpt lat="45.89877" lon="4.36177">
        <ele>556.2</ele>
        <time>2022-06-26T10:36:43Z</time>
      </trkpt>
      <trkpt lat="45.89866" lon="4.36183">
        <ele>555.8</ele>
        <time>2022-06-26T10:36:44Z</time>
      </trkpt>
      <trkpt lat="45.89857" lon="4.36189">
        <ele>555.2</ele>
        <time>2022-06-26T10:36:45Z</time>
      </trkpt>
      <trkpt lat="45.89848" lon="4.36195">
        <ele>554.8</ele>
        <time>2022-06-26T10:36:46Z</time>
      </trkpt>
      <trkpt lat="45.89839" lon="4.36202">
        <ele>554.4</ele>
        <time>2022-06-26T10:36:47Z</time>
      </trkpt>
      <trkpt lat="45.8983" lon="4.36208">
        <ele>554</ele>
        <time>2022-06-26T10:36:48Z</time>
      </trkpt>
      <trkpt lat="45.89821" lon="4.36215">
        <ele>553.4</ele>
        <time>2022-06-26T10:36:49Z</time>
      </trkpt>
      <trkpt lat="45.89812" lon="4.36221">
        <ele>553</ele>
        <time>2022-06-26T10:36:50Z</time>
      </trkpt>
      <trkpt lat="45.89803" lon="4.36226">
        <ele>552.4</ele>
        <time>2022-06-26T10:36:51Z</time>
      </trkpt>
      <trkpt lat="45.89795" lon="4.36233">
        <ele>552</ele>
        <time>2022-06-26T10:36:52Z</time>
      </trkpt>
      <trkpt lat="45.89785" lon="4.3624">
        <ele>551.6</ele>
        <time>2022-06-26T10:36:53Z</time>
      </trkpt>
      <trkpt lat="45.89776" lon="4.36245">
        <ele>551.2</ele>
        <time>2022-06-26T10:36:54Z</time>
      </trkpt>
      <trkpt lat="45.89767" lon="4.36252">
        <ele>550.8</ele>
        <time>2022-06-26T10:36:55Z</time>
      </trkpt>
      <trkpt lat="45.8976" lon="4.36257">
        <ele>550.4</ele>
        <time>2022-06-26T10:36:56Z</time>
      </trkpt>
      <trkpt lat="45.89753" lon="4.36263">
        <ele>549.8</ele>
        <time>2022-06-26T10:36:57Z</time>
      </trkpt>
      <trkpt lat="45.89747" lon="4.36267">
        <ele>549.4</ele>
        <time>2022-06-26T10:36:58Z</time>
      </trkpt>
      <trkpt lat="45.89742" lon="4.36272">
        <ele>549</ele>
        <time>2022-06-26T10:36:59Z</time>
      </trkpt>
      <trkpt lat="45.89736" lon="4.36276">
        <ele>548.6</ele>
        <time>2022-06-26T10:37:00Z</time>
      </trkpt>
      <trkpt lat="45.89731" lon="4.3628">
        <ele>548.4</ele>
        <time>2022-06-26T10:37:01Z</time>
      </trkpt>
      <trkpt lat="45.89725" lon="4.36284">
        <ele>548</ele>
        <time>2022-06-26T10:37:02Z</time>
      </trkpt>
      <trkpt lat="45.8972" lon="4.36287">
        <ele>547.8</ele>
        <time>2022-06-26T10:37:03Z</time>
      </trkpt>
      <trkpt lat="45.89714" lon="4.36291">
        <ele>547.8</ele>
        <time>2022-06-26T10:37:04Z</time>
      </trkpt>
      <trkpt lat="45.89708" lon="4.36294">
        <ele>547.6</ele>
        <time>2022-06-26T10:37:05Z</time>
      </trkpt>
      <trkpt lat="45.89702" lon="4.36296">
        <ele>547.2</ele>
        <time>2022-06-26T10:37:06Z</time>
      </trkpt>
      <trkpt lat="45.89696" lon="4.36299">
        <ele>547</ele>
        <time>2022-06-26T10:37:07Z</time>
      </trkpt>
      <trkpt lat="45.8969" lon="4.36301">
        <ele>546.8</ele>
        <time>2022-06-26T10:37:08Z</time>
      </trkpt>
      <trkpt lat="45.89684" lon="4.36303">
        <ele>546.6</ele>
        <time>2022-06-26T10:37:09Z</time>
      </trkpt>
      <trkpt lat="45.89679" lon="4.36304">
        <ele>546.2</ele>
        <time>2022-06-26T10:37:10Z</time>
      </trkpt>
      <trkpt lat="45.89673" lon="4.36306">
        <ele>545.8</ele>
        <time>2022-06-26T10:37:11Z</time>
      </trkpt>
      <trkpt lat="45.89667" lon="4.36308">
        <ele>545.8</ele>
        <time>2022-06-26T10:37:12Z</time>
      </trkpt>
      <trkpt lat="45.8966" lon="4.3631">
        <ele>545.4</ele>
        <time>2022-06-26T10:37:13Z</time>
      </trkpt>
      <trkpt lat="45.89653" lon="4.36312">
        <ele>545.4</ele>
        <time>2022-06-26T10:37:14Z</time>
      </trkpt>
      <trkpt lat="45.89646" lon="4.36315">
        <ele>544.8</ele>
        <time>2022-06-26T10:37:15Z</time>
      </trkpt>
      <trkpt lat="45.89639" lon="4.36317">
        <ele>544.2</ele>
        <time>2022-06-26T10:37:16Z</time>
      </trkpt>
      <trkpt lat="45.89632" lon="4.36319">
        <ele>543.8</ele>
        <time>2022-06-26T10:37:17Z</time>
      </trkpt>
      <trkpt lat="45.89625" lon="4.36321">
        <ele>543.2</ele>
        <time>2022-06-26T10:37:18Z</time>
      </trkpt>
      <trkpt lat="45.89618" lon="4.36323">
        <ele>542.8</ele>
        <time>2022-06-26T10:37:19Z</time>
      </trkpt>
      <trkpt lat="45.89611" lon="4.36326">
        <ele>542.4</ele>
        <time>2022-06-26T10:37:20Z</time>
      </trkpt>
      <trkpt lat="45.89603" lon="4.36329">
        <ele>541.8</ele>
        <time>2022-06-26T10:37:21Z</time>
      </trkpt>
      <trkpt lat="45.89596" lon="4.36332">
        <ele>541.2</ele>
        <time>2022-06-26T10:37:22Z</time>
      </trkpt>
      <trkpt lat="45.89589" lon="4.36335">
        <ele>540.6</ele>
        <time>2022-06-26T10:37:23Z</time>
      </trkpt>
      <trkpt lat="45.89582" lon="4.36338">
        <ele>540</ele>
        <time>2022-06-26T10:37:24Z</time>
      </trkpt>
      <trkpt lat="45.89574" lon="4.36341">
        <ele>539.4</ele>
        <time>2022-06-26T10:37:25Z</time>
      </trkpt>
      <trkpt lat="45.89565" lon="4.36344">
        <ele>538.8</ele>
        <time>2022-06-26T10:37:26Z</time>
      </trkpt>
      <trkpt lat="45.89557" lon="4.36348">
        <ele>538.2</ele>
        <time>2022-06-26T10:37:27Z</time>
      </trkpt>
      <trkpt lat="45.89549" lon="4.36353">
        <ele>537.6</ele>
        <time>2022-06-26T10:37:28Z</time>
      </trkpt>
      <trkpt lat="45.89541" lon="4.36359">
        <ele>537</ele>
        <time>2022-06-26T10:37:29Z</time>
      </trkpt>
      <trkpt lat="45.89534" lon="4.36364">
        <ele>536.6</ele>
        <time>2022-06-26T10:37:30Z</time>
      </trkpt>
      <trkpt lat="45.89527" lon="4.36369">
        <ele>536</ele>
        <time>2022-06-26T10:37:31Z</time>
      </trkpt>
      <trkpt lat="45.89521" lon="4.36373">
        <ele>535.4</ele>
        <time>2022-06-26T10:37:32Z</time>
      </trkpt>
      <trkpt lat="45.89514" lon="4.36378">
        <ele>535</ele>
        <time>2022-06-26T10:37:33Z</time>
      </trkpt>
      <trkpt lat="45.89507" lon="4.36383">
        <ele>534.8</ele>
        <time>2022-06-26T10:37:34Z</time>
      </trkpt>
      <trkpt lat="45.895" lon="4.36388">
        <ele>534.8</ele>
        <time>2022-06-26T10:37:35Z</time>
      </trkpt>
      <trkpt lat="45.89494" lon="4.36393">
        <ele>534.2</ele>
        <time>2022-06-26T10:37:36Z</time>
      </trkpt>
      <trkpt lat="45.89487" lon="4.36397">
        <ele>534</ele>
        <time>2022-06-26T10:37:37Z</time>
      </trkpt>
      <trkpt lat="45.8948" lon="4.36401">
        <ele>534</ele>
        <time>2022-06-26T10:37:38Z</time>
      </trkpt>
      <trkpt lat="45.89473" lon="4.36404">
        <ele>533.8</ele>
        <time>2022-06-26T10:37:39Z</time>
      </trkpt>
      <trkpt lat="45.89467" lon="4.36406">
        <ele>533.8</ele>
        <time>2022-06-26T10:37:40Z</time>
      </trkpt>
      <trkpt lat="45.8946" lon="4.36409">
        <ele>533.8</ele>
        <time>2022-06-26T10:37:41Z</time>
      </trkpt>
      <trkpt lat="45.89453" lon="4.36411">
        <ele>533.4</ele>
        <time>2022-06-26T10:37:42Z</time>
      </trkpt>
      <trkpt lat="45.89446" lon="4.36414">
        <ele>533.2</ele>
        <time>2022-06-26T10:37:43Z</time>
      </trkpt>
      <trkpt lat="45.8944" lon="4.36417">
        <ele>533.2</ele>
        <time>2022-06-26T10:37:44Z</time>
      </trkpt>
      <trkpt lat="45.89433" lon="4.3642">
        <ele>532.8</ele>
        <time>2022-06-26T10:37:45Z</time>
      </trkpt>
      <trkpt lat="45.89427" lon="4.36423">
        <ele>532.8</ele>
        <time>2022-06-26T10:37:46Z</time>
      </trkpt>
      <trkpt lat="45.89421" lon="4.36427">
        <ele>532.6</ele>
        <time>2022-06-26T10:37:47Z</time>
      </trkpt>
      <trkpt lat="45.89414" lon="4.36431">
        <ele>532.4</ele>
        <time>2022-06-26T10:37:48Z</time>
      </trkpt>
      <trkpt lat="45.89407" lon="4.36434">
        <ele>532.2</ele>
        <time>2022-06-26T10:37:49Z</time>
      </trkpt>
      <trkpt lat="45.89399" lon="4.36437">
        <ele>531.8</ele>
        <time>2022-06-26T10:37:50Z</time>
      </trkpt>
      <trkpt lat="45.89391" lon="4.3644">
        <ele>531.2</ele>
        <time>2022-06-26T10:37:51Z</time>
      </trkpt>
      <trkpt lat="45.89383" lon="4.36442">
        <ele>530.8</ele>
        <time>2022-06-26T10:37:52Z</time>
      </trkpt>
      <trkpt lat="45.89375" lon="4.36445">
        <ele>530.4</ele>
        <time>2022-06-26T10:37:53Z</time>
      </trkpt>
      <trkpt lat="45.89366" lon="4.36447">
        <ele>530</ele>
        <time>2022-06-26T10:37:54Z</time>
      </trkpt>
      <trkpt lat="45.89357" lon="4.36448">
        <ele>529.8</ele>
        <time>2022-06-26T10:37:55Z</time>
      </trkpt>
      <trkpt lat="45.89349" lon="4.3645">
        <ele>529.8</ele>
        <time>2022-06-26T10:37:56Z</time>
      </trkpt>
      <trkpt lat="45.8934" lon="4.36451">
        <ele>529.4</ele>
        <time>2022-06-26T10:37:57Z</time>
      </trkpt>
      <trkpt lat="45.89332" lon="4.36452">
        <ele>529</ele>
        <time>2022-06-26T10:37:58Z</time>
      </trkpt>
      <trkpt lat="45.89323" lon="4.36453">
        <ele>529</ele>
        <time>2022-06-26T10:37:59Z</time>
      </trkpt>
      <trkpt lat="45.89314" lon="4.36453">
        <ele>528.6</ele>
        <time>2022-06-26T10:38:00Z</time>
      </trkpt>
      <trkpt lat="45.89306" lon="4.36454">
        <ele>528.6</ele>
        <time>2022-06-26T10:38:01Z</time>
      </trkpt>
      <trkpt lat="45.89298" lon="4.36455">
        <ele>528.2</ele>
        <time>2022-06-26T10:38:02Z</time>
      </trkpt>
      <trkpt lat="45.8929" lon="4.36456">
        <ele>528.2</ele>
        <time>2022-06-26T10:38:03Z</time>
      </trkpt>
      <trkpt lat="45.89282" lon="4.36456">
        <ele>527.8</ele>
        <time>2022-06-26T10:38:04Z</time>
      </trkpt>
      <trkpt lat="45.89274" lon="4.36457">
        <ele>527.6</ele>
        <time>2022-06-26T10:38:05Z</time>
      </trkpt>
      <trkpt lat="45.89266" lon="4.36458">
        <ele>527.2</ele>
        <time>2022-06-26T10:38:06Z</time>
      </trkpt>
      <trkpt lat="45.89259" lon="4.36459">
        <ele>526.8</ele>
        <time>2022-06-26T10:38:07Z</time>
      </trkpt>
      <trkpt lat="45.89252" lon="4.36461">
        <ele>526.4</ele>
        <time>2022-06-26T10:38:08Z</time>
      </trkpt>
      <trkpt lat="45.89245" lon="4.36462">
        <ele>526</ele>
        <time>2022-06-26T10:38:09Z</time>
      </trkpt>
      <trkpt lat="45.89237" lon="4.36463">
        <ele>525.6</ele>
        <time>2022-06-26T10:38:10Z</time>
      </trkpt>
      <trkpt lat="45.8923" lon="4.36462">
        <ele>525.2</ele>
        <time>2022-06-26T10:38:11Z</time>
      </trkpt>
      <trkpt lat="45.89222" lon="4.3646">
        <ele>524.8</ele>
        <time>2022-06-26T10:38:12Z</time>
      </trkpt>
      <trkpt lat="45.89213" lon="4.36459">
        <ele>524.2</ele>
        <time>2022-06-26T10:38:13Z</time>
      </trkpt>
      <trkpt lat="45.89204" lon="4.36457">
        <ele>523.6</ele>
        <time>2022-06-26T10:38:14Z</time>
      </trkpt>
      <trkpt lat="45.89196" lon="4.36457">
        <ele>523</ele>
        <time>2022-06-26T10:38:15Z</time>
      </trkpt>
      <trkpt lat="45.89187" lon="4.36457">
        <ele>522.4</ele>
        <time>2022-06-26T10:38:16Z</time>
      </trkpt>
      <trkpt lat="45.89179" lon="4.36458">
        <ele>522</ele>
        <time>2022-06-26T10:38:17Z</time>
      </trkpt>
      <trkpt lat="45.89171" lon="4.36459">
        <ele>521.4</ele>
        <time>2022-06-26T10:38:18Z</time>
      </trkpt>
      <trkpt lat="45.89163" lon="4.36461">
        <ele>520.8</ele>
        <time>2022-06-26T10:38:19Z</time>
      </trkpt>
      <trkpt lat="45.89155" lon="4.36463">
        <ele>520.4</ele>
        <time>2022-06-26T10:38:20Z</time>
      </trkpt>
      <trkpt lat="45.89147" lon="4.36466">
        <ele>520</ele>
        <time>2022-06-26T10:38:21Z</time>
      </trkpt>
      <trkpt lat="45.8914" lon="4.36469">
        <ele>519.6</ele>
        <time>2022-06-26T10:38:22Z</time>
      </trkpt>
      <trkpt lat="45.89132" lon="4.36474">
        <ele>519.2</ele>
        <time>2022-06-26T10:38:23Z</time>
      </trkpt>
      <trkpt lat="45.89126" lon="4.36479">
        <ele>518.8</ele>
        <time>2022-06-26T10:38:24Z</time>
      </trkpt>
      <trkpt lat="45.8912" lon="4.36484">
        <ele>518.4</ele>
        <time>2022-06-26T10:38:25Z</time>
      </trkpt>
      <trkpt lat="45.89114" lon="4.3649">
        <ele>518</ele>
        <time>2022-06-26T10:38:26Z</time>
      </trkpt>
      <trkpt lat="45.89109" lon="4.36496">
        <ele>517.6</ele>
        <time>2022-06-26T10:38:27Z</time>
      </trkpt>
      <trkpt lat="45.89104" lon="4.36502">
        <ele>517</ele>
        <time>2022-06-26T10:38:29Z</time>
      </trkpt>
      <trkpt lat="45.891" lon="4.36508">
        <ele>516.6</ele>
        <time>2022-06-26T10:38:30Z</time>
      </trkpt>
      <trkpt lat="45.89097" lon="4.36514">
        <ele>516.2</ele>
        <time>2022-06-26T10:38:31Z</time>
      </trkpt>
      <trkpt lat="45.89093" lon="4.36521">
        <ele>516</ele>
        <time>2022-06-26T10:38:32Z</time>
      </trkpt>
      <trkpt lat="45.8909" lon="4.36529">
        <ele>515.6</ele>
        <time>2022-06-26T10:38:33Z</time>
      </trkpt>
      <trkpt lat="45.89087" lon="4.36537">
        <ele>515.4</ele>
        <time>2022-06-26T10:38:34Z</time>
      </trkpt>
      <trkpt lat="45.89084" lon="4.36545">
        <ele>515.2</ele>
        <time>2022-06-26T10:38:35Z</time>
      </trkpt>
      <trkpt lat="45.89081" lon="4.36553">
        <ele>515</ele>
        <time>2022-06-26T10:38:36Z</time>
      </trkpt>
      <trkpt lat="45.89079" lon="4.36561">
        <ele>514.6</ele>
        <time>2022-06-26T10:38:37Z</time>
      </trkpt>
      <trkpt lat="45.89076" lon="4.36569">
        <ele>514.4</ele>
        <time>2022-06-26T10:38:38Z</time>
      </trkpt>
      <trkpt lat="45.89074" lon="4.36577">
        <ele>514.2</ele>
        <time>2022-06-26T10:38:39Z</time>
      </trkpt>
      <trkpt lat="45.89072" lon="4.36585">
        <ele>513.8</ele>
        <time>2022-06-26T10:38:40Z</time>
      </trkpt>
      <trkpt lat="45.89069" lon="4.36594">
        <ele>513.6</ele>
        <time>2022-06-26T10:38:41Z</time>
      </trkpt>
      <trkpt lat="45.89067" lon="4.36603">
        <ele>513.2</ele>
        <time>2022-06-26T10:38:42Z</time>
      </trkpt>
      <trkpt lat="45.89064" lon="4.36612">
        <ele>512.8</ele>
        <time>2022-06-26T10:38:43Z</time>
      </trkpt>
      <trkpt lat="45.8906" lon="4.36621">
        <ele>512.6</ele>
        <time>2022-06-26T10:38:44Z</time>
      </trkpt>
      <trkpt lat="45.89057" lon="4.3663">
        <ele>512</ele>
        <time>2022-06-26T10:38:45Z</time>
      </trkpt>
      <trkpt lat="45.89054" lon="4.3664">
        <ele>511.6</ele>
        <time>2022-06-26T10:38:46Z</time>
      </trkpt>
      <trkpt lat="45.8905" lon="4.36651">
        <ele>511.6</ele>
        <time>2022-06-26T10:38:47Z</time>
      </trkpt>
      <trkpt lat="45.89046" lon="4.36661">
        <ele>511</ele>
        <time>2022-06-26T10:38:48Z</time>
      </trkpt>
      <trkpt lat="45.89042" lon="4.36672">
        <ele>510.4</ele>
        <time>2022-06-26T10:38:49Z</time>
      </trkpt>
      <trkpt lat="45.89038" lon="4.36682">
        <ele>510</ele>
        <time>2022-06-26T10:38:50Z</time>
      </trkpt>
      <trkpt lat="45.89034" lon="4.36693">
        <ele>509.4</ele>
        <time>2022-06-26T10:38:51Z</time>
      </trkpt>
      <trkpt lat="45.8903" lon="4.36703">
        <ele>508.8</ele>
        <time>2022-06-26T10:38:52Z</time>
      </trkpt>
      <trkpt lat="45.89025" lon="4.36714">
        <ele>508.2</ele>
        <time>2022-06-26T10:38:53Z</time>
      </trkpt>
      <trkpt lat="45.8902" lon="4.36725">
        <ele>507.6</ele>
        <time>2022-06-26T10:38:54Z</time>
      </trkpt>
      <trkpt lat="45.89015" lon="4.36737">
        <ele>507</ele>
        <time>2022-06-26T10:38:55Z</time>
      </trkpt>
      <trkpt lat="45.89011" lon="4.36747">
        <ele>506.6</ele>
        <time>2022-06-26T10:38:56Z</time>
      </trkpt>
      <trkpt lat="45.89006" lon="4.36758">
        <ele>506.2</ele>
        <time>2022-06-26T10:38:57Z</time>
      </trkpt>
      <trkpt lat="45.89001" lon="4.36768">
        <ele>505.8</ele>
        <time>2022-06-26T10:38:58Z</time>
      </trkpt>
      <trkpt lat="45.88996" lon="4.36779">
        <ele>505.4</ele>
        <time>2022-06-26T10:38:59Z</time>
      </trkpt>
      <trkpt lat="45.88991" lon="4.36789">
        <ele>505.2</ele>
        <time>2022-06-26T10:39:00Z</time>
      </trkpt>
      <trkpt lat="45.88986" lon="4.36799">
        <ele>504.8</ele>
        <time>2022-06-26T10:39:01Z</time>
      </trkpt>
      <trkpt lat="45.88981" lon="4.36809">
        <ele>504.4</ele>
        <time>2022-06-26T10:39:02Z</time>
      </trkpt>
      <trkpt lat="45.88976" lon="4.36819">
        <ele>504.2</ele>
        <time>2022-06-26T10:39:03Z</time>
      </trkpt>
      <trkpt lat="45.88971" lon="4.3683">
        <ele>504</ele>
        <time>2022-06-26T10:39:04Z</time>
      </trkpt>
      <trkpt lat="45.88967" lon="4.36841">
        <ele>504</ele>
        <time>2022-06-26T10:39:05Z</time>
      </trkpt>
      <trkpt lat="45.88962" lon="4.36851">
        <ele>503.6</ele>
        <time>2022-06-26T10:39:06Z</time>
      </trkpt>
      <trkpt lat="45.88958" lon="4.36861">
        <ele>503.6</ele>
        <time>2022-06-26T10:39:07Z</time>
      </trkpt>
      <trkpt lat="45.88955" lon="4.36871">
        <ele>503.2</ele>
        <time>2022-06-26T10:39:08Z</time>
      </trkpt>
      <trkpt lat="45.88952" lon="4.36881">
        <ele>503.2</ele>
        <time>2022-06-26T10:39:09Z</time>
      </trkpt>
      <trkpt lat="45.8895" lon="4.36891">
        <ele>503</ele>
        <time>2022-06-26T10:39:10Z</time>
      </trkpt>
      <trkpt lat="45.88948" lon="4.369">
        <ele>502.8</ele>
        <time>2022-06-26T10:39:11Z</time>
      </trkpt>
      <trkpt lat="45.88947" lon="4.36911">
        <ele>502.4</ele>
        <time>2022-06-26T10:39:12Z</time>
      </trkpt>
      <trkpt lat="45.88947" lon="4.36921">
        <ele>502.4</ele>
        <time>2022-06-26T10:39:13Z</time>
      </trkpt>
      <trkpt lat="45.88946" lon="4.36932">
        <ele>502</ele>
        <time>2022-06-26T10:39:14Z</time>
      </trkpt>
      <trkpt lat="45.88947" lon="4.36943">
        <ele>501.6</ele>
        <time>2022-06-26T10:39:15Z</time>
      </trkpt>
      <trkpt lat="45.88947" lon="4.36953">
        <ele>501.4</ele>
        <time>2022-06-26T10:39:16Z</time>
      </trkpt>
      <trkpt lat="45.88947" lon="4.36963">
        <ele>501</ele>
        <time>2022-06-26T10:39:17Z</time>
      </trkpt>
      <trkpt lat="45.88946" lon="4.36974">
        <ele>500.8</ele>
        <time>2022-06-26T10:39:18Z</time>
      </trkpt>
      <trkpt lat="45.88944" lon="4.36984">
        <ele>500.4</ele>
        <time>2022-06-26T10:39:19Z</time>
      </trkpt>
      <trkpt lat="45.88941" lon="4.36994">
        <ele>500.2</ele>
        <time>2022-06-26T10:39:20Z</time>
      </trkpt>
      <trkpt lat="45.88937" lon="4.37003">
        <ele>500</ele>
        <time>2022-06-26T10:39:21Z</time>
      </trkpt>
      <trkpt lat="45.88933" lon="4.37012">
        <ele>500</ele>
        <time>2022-06-26T10:39:22Z</time>
      </trkpt>
      <trkpt lat="45.88928" lon="4.37019">
        <ele>499.6</ele>
        <time>2022-06-26T10:39:23Z</time>
      </trkpt>
      <trkpt lat="45.88922" lon="4.37025">
        <ele>499.6</ele>
        <time>2022-06-26T10:39:24Z</time>
      </trkpt>
      <trkpt lat="45.88917" lon="4.37031">
        <ele>499.6</ele>
        <time>2022-06-26T10:39:25Z</time>
      </trkpt>
      <trkpt lat="45.88911" lon="4.37036">
        <ele>499.6</ele>
        <time>2022-06-26T10:39:26Z</time>
      </trkpt>
      <trkpt lat="45.88907" lon="4.37041">
        <ele>499.6</ele>
        <time>2022-06-26T10:39:27Z</time>
      </trkpt>
      <trkpt lat="45.88898" lon="4.37053">
        <ele>499.2</ele>
        <time>2022-06-26T10:39:28Z</time>
      </trkpt>
      <trkpt lat="45.88895" lon="4.37059">
        <ele>499.2</ele>
        <time>2022-06-26T10:39:29Z</time>
      </trkpt>
      <trkpt lat="45.88891" lon="4.37066">
        <ele>499.2</ele>
        <time>2022-06-26T10:39:30Z</time>
      </trkpt>
      <trkpt lat="45.88888" lon="4.37073">
        <ele>499.2</ele>
        <time>2022-06-26T10:39:31Z</time>
      </trkpt>
      <trkpt lat="45.88885" lon="4.3708">
        <ele>499</ele>
        <time>2022-06-26T10:39:32Z</time>
      </trkpt>
      <trkpt lat="45.88882" lon="4.37087">
        <ele>499</ele>
        <time>2022-06-26T10:39:33Z</time>
      </trkpt>
      <trkpt lat="45.88879" lon="4.37094">
        <ele>499</ele>
        <time>2022-06-26T10:39:34Z</time>
      </trkpt>
      <trkpt lat="45.88877" lon="4.371">
        <ele>499</ele>
        <time>2022-06-26T10:39:35Z</time>
      </trkpt>
      <trkpt lat="45.88875" lon="4.37107">
        <ele>499</ele>
        <time>2022-06-26T10:39:36Z</time>
      </trkpt>
      <trkpt lat="45.88874" lon="4.37113">
        <ele>499.4</ele>
        <time>2022-06-26T10:39:37Z</time>
      </trkpt>
      <trkpt lat="45.88874" lon="4.37118">
        <ele>499.6</ele>
        <time>2022-06-26T10:39:38Z</time>
      </trkpt>
      <trkpt lat="45.88874" lon="4.37123">
        <ele>499.6</ele>
        <time>2022-06-26T10:39:39Z</time>
      </trkpt>
      <trkpt lat="45.88875" lon="4.37128">
        <ele>500</ele>
        <time>2022-06-26T10:39:40Z</time>
      </trkpt>
      <trkpt lat="45.88875" lon="4.37132">
        <ele>500.4</ele>
        <time>2022-06-26T10:39:41Z</time>
      </trkpt>
      <trkpt lat="45.88876" lon="4.37137">
        <ele>500.8</ele>
        <time>2022-06-26T10:39:42Z</time>
      </trkpt>
      <trkpt lat="45.88877" lon="4.37141">
        <ele>501</ele>
        <time>2022-06-26T10:39:43Z</time>
      </trkpt>
      <trkpt lat="45.88878" lon="4.37145">
        <ele>501</ele>
        <time>2022-06-26T10:39:44Z</time>
      </trkpt>
      <trkpt lat="45.88879" lon="4.37148">
        <ele>501.4</ele>
        <time>2022-06-26T10:39:45Z</time>
      </trkpt>
      <trkpt lat="45.88881" lon="4.37152">
        <ele>501.6</ele>
        <time>2022-06-26T10:39:46Z</time>
      </trkpt>
      <trkpt lat="45.88882" lon="4.37156">
        <ele>501.6</ele>
        <time>2022-06-26T10:39:47Z</time>
      </trkpt>
      <trkpt lat="45.88884" lon="4.37159">
        <ele>501.8</ele>
        <time>2022-06-26T10:39:48Z</time>
      </trkpt>
      <trkpt lat="45.88886" lon="4.37163">
        <ele>501.8</ele>
        <time>2022-06-26T10:39:49Z</time>
      </trkpt>
      <trkpt lat="45.88887" lon="4.37167">
        <ele>502.2</ele>
        <time>2022-06-26T10:39:50Z</time>
      </trkpt>
      <trkpt lat="45.88888" lon="4.37172">
        <ele>502.2</ele>
        <time>2022-06-26T10:39:51Z</time>
      </trkpt>
      <trkpt lat="45.88889" lon="4.37177">
        <ele>502.2</ele>
        <time>2022-06-26T10:39:52Z</time>
      </trkpt>
      <trkpt lat="45.88891" lon="4.37182">
        <ele>502.2</ele>
        <time>2022-06-26T10:39:53Z</time>
      </trkpt>
      <trkpt lat="45.88892" lon="4.37188">
        <ele>502.2</ele>
        <time>2022-06-26T10:39:54Z</time>
      </trkpt>
      <trkpt lat="45.88893" lon="4.37194">
        <ele>502.2</ele>
        <time>2022-06-26T10:39:55Z</time>
      </trkpt>
      <trkpt lat="45.88894" lon="4.372">
        <ele>502.2</ele>
        <time>2022-06-26T10:39:56Z</time>
      </trkpt>
      <trkpt lat="45.88895" lon="4.37207">
        <ele>502.2</ele>
        <time>2022-06-26T10:39:57Z</time>
      </trkpt>
      <trkpt lat="45.88895" lon="4.37214">
        <ele>502.2</ele>
        <time>2022-06-26T10:39:58Z</time>
      </trkpt>
      <trkpt lat="45.88896" lon="4.37221">
        <ele>502.2</ele>
        <time>2022-06-26T10:39:59Z</time>
      </trkpt>
      <trkpt lat="45.88896" lon="4.37228">
        <ele>502.2</ele>
        <time>2022-06-26T10:40:00Z</time>
      </trkpt>
      <trkpt lat="45.88896" lon="4.37236">
        <ele>501.8</ele>
        <time>2022-06-26T10:40:01Z</time>
      </trkpt>
      <trkpt lat="45.88897" lon="4.37243">
        <ele>501.8</ele>
        <time>2022-06-26T10:40:02Z</time>
      </trkpt>
      <trkpt lat="45.88897" lon="4.37251">
        <ele>501.6</ele>
        <time>2022-06-26T10:40:03Z</time>
      </trkpt>
      <trkpt lat="45.88898" lon="4.37259">
        <ele>501.6</ele>
        <time>2022-06-26T10:40:04Z</time>
      </trkpt>
      <trkpt lat="45.88898" lon="4.37267">
        <ele>501.4</ele>
        <time>2022-06-26T10:40:05Z</time>
      </trkpt>
      <trkpt lat="45.88898" lon="4.37276">
        <ele>501.4</ele>
        <time>2022-06-26T10:40:06Z</time>
      </trkpt>
      <trkpt lat="45.88899" lon="4.37284">
        <ele>501.2</ele>
        <time>2022-06-26T10:40:07Z</time>
      </trkpt>
      <trkpt lat="45.88899" lon="4.37293">
        <ele>501.2</ele>
        <time>2022-06-26T10:40:08Z</time>
      </trkpt>
      <trkpt lat="45.88899" lon="4.37301">
        <ele>500.8</ele>
        <time>2022-06-26T10:40:09Z</time>
      </trkpt>
      <trkpt lat="45.889" lon="4.3731">
        <ele>500.6</ele>
        <time>2022-06-26T10:40:10Z</time>
      </trkpt>
      <trkpt lat="45.889" lon="4.37319">
        <ele>500.4</ele>
        <time>2022-06-26T10:40:11Z</time>
      </trkpt>
      <trkpt lat="45.889" lon="4.37328">
        <ele>500.4</ele>
        <time>2022-06-26T10:40:12Z</time>
      </trkpt>
      <trkpt lat="45.88901" lon="4.37337">
        <ele>500</ele>
        <time>2022-06-26T10:40:13Z</time>
      </trkpt>
      <trkpt lat="45.88902" lon="4.37346">
        <ele>499.8</ele>
        <time>2022-06-26T10:40:14Z</time>
      </trkpt>
      <trkpt lat="45.88902" lon="4.37355">
        <ele>499.8</ele>
        <time>2022-06-26T10:40:15Z</time>
      </trkpt>
      <trkpt lat="45.88902" lon="4.37364">
        <ele>499.4</ele>
        <time>2022-06-26T10:40:16Z</time>
      </trkpt>
      <trkpt lat="45.88901" lon="4.37374">
        <ele>499.2</ele>
        <time>2022-06-26T10:40:17Z</time>
      </trkpt>
      <trkpt lat="45.88901" lon="4.37384">
        <ele>498.8</ele>
        <time>2022-06-26T10:40:18Z</time>
      </trkpt>
      <trkpt lat="45.88901" lon="4.37394">
        <ele>498.6</ele>
        <time>2022-06-26T10:40:19Z</time>
      </trkpt>
      <trkpt lat="45.88901" lon="4.37405">
        <ele>498.4</ele>
        <time>2022-06-26T10:40:20Z</time>
      </trkpt>
      <trkpt lat="45.88901" lon="4.37415">
        <ele>498</ele>
        <time>2022-06-26T10:40:21Z</time>
      </trkpt>
      <trkpt lat="45.88901" lon="4.37426">
        <ele>497.8</ele>
        <time>2022-06-26T10:40:22Z</time>
      </trkpt>
      <trkpt lat="45.889" lon="4.37437">
        <ele>497.6</ele>
        <time>2022-06-26T10:40:23Z</time>
      </trkpt>
      <trkpt lat="45.88899" lon="4.37447">
        <ele>497.2</ele>
        <time>2022-06-26T10:40:24Z</time>
      </trkpt>
      <trkpt lat="45.88898" lon="4.37456">
        <ele>497</ele>
        <time>2022-06-26T10:40:25Z</time>
      </trkpt>
      <trkpt lat="45.88897" lon="4.37465">
        <ele>496.8</ele>
        <time>2022-06-26T10:40:26Z</time>
      </trkpt>
      <trkpt lat="45.88895" lon="4.37474">
        <ele>496.8</ele>
        <time>2022-06-26T10:40:27Z</time>
      </trkpt>
      <trkpt lat="45.88894" lon="4.37482">
        <ele>496.4</ele>
        <time>2022-06-26T10:40:28Z</time>
      </trkpt>
      <trkpt lat="45.88892" lon="4.37491">
        <ele>496.4</ele>
        <time>2022-06-26T10:40:29Z</time>
      </trkpt>
      <trkpt lat="45.8889" lon="4.37499">
        <ele>496.2</ele>
        <time>2022-06-26T10:40:30Z</time>
      </trkpt>
      <trkpt lat="45.88889" lon="4.37508">
        <ele>496.2</ele>
        <time>2022-06-26T10:40:31Z</time>
      </trkpt>
      <trkpt lat="45.88887" lon="4.37516">
        <ele>496.2</ele>
        <time>2022-06-26T10:40:32Z</time>
      </trkpt>
      <trkpt lat="45.88885" lon="4.37523">
        <ele>495.8</ele>
        <time>2022-06-26T10:40:33Z</time>
      </trkpt>
      <trkpt lat="45.88883" lon="4.37529">
        <ele>495.8</ele>
        <time>2022-06-26T10:40:34Z</time>
      </trkpt>
      <trkpt lat="45.8888" lon="4.37534">
        <ele>495.6</ele>
        <time>2022-06-26T10:40:35Z</time>
      </trkpt>
      <trkpt lat="45.88876" lon="4.37537">
        <ele>495.6</ele>
        <time>2022-06-26T10:40:36Z</time>
      </trkpt>
      <trkpt lat="45.88873" lon="4.37539">
        <ele>495.6</ele>
        <time>2022-06-26T10:40:37Z</time>
      </trkpt>
      <trkpt lat="45.88869" lon="4.37539">
        <ele>495.6</ele>
        <time>2022-06-26T10:40:38Z</time>
      </trkpt>
      <trkpt lat="45.88865" lon="4.37538">
        <ele>495.6</ele>
        <time>2022-06-26T10:40:39Z</time>
      </trkpt>
      <trkpt lat="45.88862" lon="4.37536">
        <ele>495.8</ele>
        <time>2022-06-26T10:40:40Z</time>
      </trkpt>
      <trkpt lat="45.8886" lon="4.37534">
        <ele>495.8</ele>
        <time>2022-06-26T10:40:41Z</time>
      </trkpt>
      <trkpt lat="45.88858" lon="4.3753">
        <ele>496.2</ele>
        <time>2022-06-26T10:40:42Z</time>
      </trkpt>
      <trkpt lat="45.88856" lon="4.37526">
        <ele>496.4</ele>
        <time>2022-06-26T10:40:43Z</time>
      </trkpt>
      <trkpt lat="45.88855" lon="4.37522">
        <ele>496.8</ele>
        <time>2022-06-26T10:40:44Z</time>
      </trkpt>
      <trkpt lat="45.88853" lon="4.37518">
        <ele>497</ele>
        <time>2022-06-26T10:40:45Z</time>
      </trkpt>
      <trkpt lat="45.88852" lon="4.37515">
        <ele>497.2</ele>
        <time>2022-06-26T10:40:46Z</time>
      </trkpt>
      <trkpt lat="45.88851" lon="4.37511">
        <ele>497.4</ele>
        <time>2022-06-26T10:40:47Z</time>
      </trkpt>
      <trkpt lat="45.8885" lon="4.37507">
        <ele>497.6</ele>
        <time>2022-06-26T10:40:48Z</time>
      </trkpt>
      <trkpt lat="45.88849" lon="4.37502">
        <ele>498</ele>
        <time>2022-06-26T10:40:49Z</time>
      </trkpt>
      <trkpt lat="45.88849" lon="4.37498">
        <ele>498.2</ele>
        <time>2022-06-26T10:40:50Z</time>
      </trkpt>
      <trkpt lat="45.88849" lon="4.37494">
        <ele>498.4</ele>
        <time>2022-06-26T10:40:51Z</time>
      </trkpt>
      <trkpt lat="45.88848" lon="4.3749">
        <ele>498.6</ele>
        <time>2022-06-26T10:40:52Z</time>
      </trkpt>
      <trkpt lat="45.88848" lon="4.37486">
        <ele>499</ele>
        <time>2022-06-26T10:40:53Z</time>
      </trkpt>
      <trkpt lat="45.88848" lon="4.37482">
        <ele>499.4</ele>
        <time>2022-06-26T10:40:54Z</time>
      </trkpt>
      <trkpt lat="45.88848" lon="4.37477">
        <ele>499.6</ele>
        <time>2022-06-26T10:40:55Z</time>
      </trkpt>
      <trkpt lat="45.88849" lon="4.37473">
        <ele>500</ele>
        <time>2022-06-26T10:40:56Z</time>
      </trkpt>
      <trkpt lat="45.8885" lon="4.37468">
        <ele>500</ele>
        <time>2022-06-26T10:40:57Z</time>
      </trkpt>
      <trkpt lat="45.8885" lon="4.37464">
        <ele>500.4</ele>
        <time>2022-06-26T10:40:58Z</time>
      </trkpt>
      <trkpt lat="45.88851" lon="4.3746">
        <ele>500.6</ele>
        <time>2022-06-26T10:40:59Z</time>
      </trkpt>
      <trkpt lat="45.88851" lon="4.37456">
        <ele>500.6</ele>
        <time>2022-06-26T10:41:00Z</time>
      </trkpt>
      <trkpt lat="45.88852" lon="4.37453">
        <ele>501.2</ele>
        <time>2022-06-26T10:41:01Z</time>
      </trkpt>
      <trkpt lat="45.88852" lon="4.37449">
        <ele>501.2</ele>
        <time>2022-06-26T10:41:02Z</time>
      </trkpt>
      <trkpt lat="45.88853" lon="4.37446">
        <ele>501.6</ele>
        <time>2022-06-26T10:41:03Z</time>
      </trkpt>
      <trkpt lat="45.88853" lon="4.37443">
        <ele>501.6</ele>
        <time>2022-06-26T10:41:04Z</time>
      </trkpt>
      <trkpt lat="45.88853" lon="4.3744">
        <ele>502</ele>
        <time>2022-06-26T10:41:05Z</time>
      </trkpt>
      <trkpt lat="45.88854" lon="4.37436">
        <ele>502.2</ele>
        <time>2022-06-26T10:41:06Z</time>
      </trkpt>
      <trkpt lat="45.88854" lon="4.37433">
        <ele>502.2</ele>
        <time>2022-06-26T10:41:07Z</time>
      </trkpt>
      <trkpt lat="45.88854" lon="4.37429">
        <ele>502.6</ele>
        <time>2022-06-26T10:41:08Z</time>
      </trkpt>
      <trkpt lat="45.88854" lon="4.37425">
        <ele>502.8</ele>
        <time>2022-06-26T10:41:09Z</time>
      </trkpt>
      <trkpt lat="45.88855" lon="4.37422">
        <ele>502.8</ele>
        <time>2022-06-26T10:41:10Z</time>
      </trkpt>
      <trkpt lat="45.88855" lon="4.37418">
        <ele>503.2</ele>
        <time>2022-06-26T10:41:11Z</time>
      </trkpt>
      <trkpt lat="45.88856" lon="4.37415">
        <ele>503.2</ele>
        <time>2022-06-26T10:41:12Z</time>
      </trkpt>
      <trkpt lat="45.88857" lon="4.37411">
        <ele>503.6</ele>
        <time>2022-06-26T10:41:13Z</time>
      </trkpt>
      <trkpt lat="45.88857" lon="4.37408">
        <ele>503.6</ele>
        <time>2022-06-26T10:41:14Z</time>
      </trkpt>
      <trkpt lat="45.88857" lon="4.37405">
        <ele>504</ele>
        <time>2022-06-26T10:41:15Z</time>
      </trkpt>
      <trkpt lat="45.88858" lon="4.37401">
        <ele>504.2</ele>
        <time>2022-06-26T10:41:16Z</time>
      </trkpt>
      <trkpt lat="45.88858" lon="4.37398">
        <ele>504.4</ele>
        <time>2022-06-26T10:41:17Z</time>
      </trkpt>
      <trkpt lat="45.88858" lon="4.37395">
        <ele>504.6</ele>
        <time>2022-06-26T10:41:18Z</time>
      </trkpt>
      <trkpt lat="45.88859" lon="4.37391">
        <ele>504.8</ele>
        <time>2022-06-26T10:41:19Z</time>
      </trkpt>
      <trkpt lat="45.88859" lon="4.37388">
        <ele>505</ele>
        <time>2022-06-26T10:41:20Z</time>
      </trkpt>
      <trkpt lat="45.88859" lon="4.37384">
        <ele>505.4</ele>
        <time>2022-06-26T10:41:21Z</time>
      </trkpt>
      <trkpt lat="45.8886" lon="4.37381">
        <ele>505.6</ele>
        <time>2022-06-26T10:41:22Z</time>
      </trkpt>
      <trkpt lat="45.8886" lon="4.37377">
        <ele>505.6</ele>
        <time>2022-06-26T10:41:23Z</time>
      </trkpt>
      <trkpt lat="45.8886" lon="4.37374">
        <ele>506</ele>
        <time>2022-06-26T10:41:24Z</time>
      </trkpt>
      <trkpt lat="45.8886" lon="4.3737">
        <ele>506</ele>
        <time>2022-06-26T10:41:25Z</time>
      </trkpt>
      <trkpt lat="45.88861" lon="4.37367">
        <ele>506.4</ele>
        <time>2022-06-26T10:41:26Z</time>
      </trkpt>
      <trkpt lat="45.88861" lon="4.37364">
        <ele>506.4</ele>
        <time>2022-06-26T10:41:27Z</time>
      </trkpt>
      <trkpt lat="45.88861" lon="4.37361">
        <ele>506.6</ele>
        <time>2022-06-26T10:41:28Z</time>
      </trkpt>
      <trkpt lat="45.88861" lon="4.37357">
        <ele>506.6</ele>
        <time>2022-06-26T10:41:29Z</time>
      </trkpt>
      <trkpt lat="45.88862" lon="4.37354">
        <ele>506.8</ele>
        <time>2022-06-26T10:41:30Z</time>
      </trkpt>
      <trkpt lat="45.88862" lon="4.3735">
        <ele>507</ele>
        <time>2022-06-26T10:41:31Z</time>
      </trkpt>
      <trkpt lat="45.88862" lon="4.37347">
        <ele>507</ele>
        <time>2022-06-26T10:41:32Z</time>
      </trkpt>
      <trkpt lat="45.88862" lon="4.37344">
        <ele>507.4</ele>
        <time>2022-06-26T10:41:33Z</time>
      </trkpt>
      <trkpt lat="45.88862" lon="4.3734">
        <ele>507.4</ele>
        <time>2022-06-26T10:41:34Z</time>
      </trkpt>
      <trkpt lat="45.88862" lon="4.37337">
        <ele>507.6</ele>
        <time>2022-06-26T10:41:35Z</time>
      </trkpt>
      <trkpt lat="45.88862" lon="4.37333">
        <ele>507.6</ele>
        <time>2022-06-26T10:41:36Z</time>
      </trkpt>
      <trkpt lat="45.88863" lon="4.3733">
        <ele>508</ele>
        <time>2022-06-26T10:41:37Z</time>
      </trkpt>
      <trkpt lat="45.88863" lon="4.37326">
        <ele>508.2</ele>
        <time>2022-06-26T10:41:38Z</time>
      </trkpt>
      <trkpt lat="45.88862" lon="4.37323">
        <ele>508.2</ele>
        <time>2022-06-26T10:41:39Z</time>
      </trkpt>
      <trkpt lat="45.88862" lon="4.3732">
        <ele>508.6</ele>
        <time>2022-06-26T10:41:40Z</time>
      </trkpt>
      <trkpt lat="45.88862" lon="4.37316">
        <ele>508.6</ele>
        <time>2022-06-26T10:41:41Z</time>
      </trkpt>
      <trkpt lat="45.88862" lon="4.37313">
        <ele>508.8</ele>
        <time>2022-06-26T10:41:42Z</time>
      </trkpt>
      <trkpt lat="45.88862" lon="4.37309">
        <ele>508.8</ele>
        <time>2022-06-26T10:41:43Z</time>
      </trkpt>
      <trkpt lat="45.88862" lon="4.37306">
        <ele>509.2</ele>
        <time>2022-06-26T10:41:44Z</time>
      </trkpt>
      <trkpt lat="45.88862" lon="4.37302">
        <ele>509.4</ele>
        <time>2022-06-26T10:41:45Z</time>
      </trkpt>
      <trkpt lat="45.88863" lon="4.37299">
        <ele>509.4</ele>
        <time>2022-06-26T10:41:46Z</time>
      </trkpt>
      <trkpt lat="45.88863" lon="4.37296">
        <ele>509.8</ele>
        <time>2022-06-26T10:41:47Z</time>
      </trkpt>
      <trkpt lat="45.88863" lon="4.37292">
        <ele>509.8</ele>
        <time>2022-06-26T10:41:48Z</time>
      </trkpt>
      <trkpt lat="45.88864" lon="4.37289">
        <ele>510</ele>
        <time>2022-06-26T10:41:49Z</time>
      </trkpt>
      <trkpt lat="45.88864" lon="4.37286">
        <ele>510</ele>
        <time>2022-06-26T10:41:50Z</time>
      </trkpt>
      <trkpt lat="45.88864" lon="4.37282">
        <ele>510.4</ele>
        <time>2022-06-26T10:41:51Z</time>
      </trkpt>
      <trkpt lat="45.88864" lon="4.37279">
        <ele>510.4</ele>
        <time>2022-06-26T10:41:52Z</time>
      </trkpt>
      <trkpt lat="45.88864" lon="4.37276">
        <ele>510.8</ele>
        <time>2022-06-26T10:41:53Z</time>
      </trkpt>
      <trkpt lat="45.88864" lon="4.37272">
        <ele>511</ele>
        <time>2022-06-26T10:41:54Z</time>
      </trkpt>
      <trkpt lat="45.88864" lon="4.37269">
        <ele>511</ele>
        <time>2022-06-26T10:41:55Z</time>
      </trkpt>
      <trkpt lat="45.88864" lon="4.37266">
        <ele>511.4</ele>
        <time>2022-06-26T10:41:56Z</time>
      </trkpt>
      <trkpt lat="45.88864" lon="4.37262">
        <ele>511.4</ele>
        <time>2022-06-26T10:41:57Z</time>
      </trkpt>
      <trkpt lat="45.88864" lon="4.37259">
        <ele>511.8</ele>
        <time>2022-06-26T10:41:58Z</time>
      </trkpt>
      <trkpt lat="45.88864" lon="4.37256">
        <ele>512</ele>
        <time>2022-06-26T10:41:59Z</time>
      </trkpt>
      <trkpt lat="45.88863" lon="4.37253">
        <ele>512</ele>
        <time>2022-06-26T10:42:00Z</time>
      </trkpt>
      <trkpt lat="45.88862" lon="4.3725">
        <ele>512.4</ele>
        <time>2022-06-26T10:42:01Z</time>
      </trkpt>
      <trkpt lat="45.88862" lon="4.37247">
        <ele>512.4</ele>
        <time>2022-06-26T10:42:02Z</time>
      </trkpt>
      <trkpt lat="45.88861" lon="4.37244">
        <ele>512.8</ele>
        <time>2022-06-26T10:42:03Z</time>
      </trkpt>
      <trkpt lat="45.8886" lon="4.37241">
        <ele>512.8</ele>
        <time>2022-06-26T10:42:04Z</time>
      </trkpt>
      <trkpt lat="45.88858" lon="4.37239">
        <ele>513</ele>
        <time>2022-06-26T10:42:05Z</time>
      </trkpt>
      <trkpt lat="45.88857" lon="4.37236">
        <ele>513</ele>
        <time>2022-06-26T10:42:06Z</time>
      </trkpt>
      <trkpt lat="45.88855" lon="4.37234">
        <ele>513.4</ele>
        <time>2022-06-26T10:42:07Z</time>
      </trkpt>
      <trkpt lat="45.88853" lon="4.37232">
        <ele>513.4</ele>
        <time>2022-06-26T10:42:08Z</time>
      </trkpt>
      <trkpt lat="45.88851" lon="4.37231">
        <ele>513.8</ele>
        <time>2022-06-26T10:42:09Z</time>
      </trkpt>
      <trkpt lat="45.88848" lon="4.3723">
        <ele>513.8</ele>
        <time>2022-06-26T10:42:10Z</time>
      </trkpt>
      <trkpt lat="45.88846" lon="4.37229">
        <ele>514</ele>
        <time>2022-06-26T10:42:11Z</time>
      </trkpt>
      <trkpt lat="45.88844" lon="4.37228">
        <ele>514.2</ele>
        <time>2022-06-26T10:42:12Z</time>
      </trkpt>
      <trkpt lat="45.88841" lon="4.37228">
        <ele>514.4</ele>
        <time>2022-06-26T10:42:13Z</time>
      </trkpt>
      <trkpt lat="45.88839" lon="4.37228">
        <ele>514.4</ele>
        <time>2022-06-26T10:42:14Z</time>
      </trkpt>
      <trkpt lat="45.88837" lon="4.37229">
        <ele>514.8</ele>
        <time>2022-06-26T10:42:15Z</time>
      </trkpt>
      <trkpt lat="45.88834" lon="4.3723">
        <ele>514.8</ele>
        <time>2022-06-26T10:42:16Z</time>
      </trkpt>
      <trkpt lat="45.88832" lon="4.37231">
        <ele>515</ele>
        <time>2022-06-26T10:42:17Z</time>
      </trkpt>
      <trkpt lat="45.8883" lon="4.37233">
        <ele>515</ele>
        <time>2022-06-26T10:42:18Z</time>
      </trkpt>
      <trkpt lat="45.88829" lon="4.37235">
        <ele>515.4</ele>
        <time>2022-06-26T10:42:19Z</time>
      </trkpt>
      <trkpt lat="45.88827" lon="4.37238">
        <ele>515.6</ele>
        <time>2022-06-26T10:42:20Z</time>
      </trkpt>
      <trkpt lat="45.88826" lon="4.3724">
        <ele>515.6</ele>
        <time>2022-06-26T10:42:21Z</time>
      </trkpt>
      <trkpt lat="45.88825" lon="4.37242">
        <ele>516</ele>
        <time>2022-06-26T10:42:22Z</time>
      </trkpt>
      <trkpt lat="45.88823" lon="4.37245">
        <ele>516</ele>
        <time>2022-06-26T10:42:23Z</time>
      </trkpt>
      <trkpt lat="45.88821" lon="4.37247">
        <ele>516.4</ele>
        <time>2022-06-26T10:42:24Z</time>
      </trkpt>
      <trkpt lat="45.8882" lon="4.3725">
        <ele>516.4</ele>
        <time>2022-06-26T10:42:25Z</time>
      </trkpt>
      <trkpt lat="45.88819" lon="4.37253">
        <ele>516.8</ele>
        <time>2022-06-26T10:42:26Z</time>
      </trkpt>
      <trkpt lat="45.88818" lon="4.37256">
        <ele>516.8</ele>
        <time>2022-06-26T10:42:27Z</time>
      </trkpt>
      <trkpt lat="45.88817" lon="4.3726">
        <ele>517</ele>
        <time>2022-06-26T10:42:28Z</time>
      </trkpt>
      <trkpt lat="45.88815" lon="4.37263">
        <ele>517.2</ele>
        <time>2022-06-26T10:42:29Z</time>
      </trkpt>
      <trkpt lat="45.88814" lon="4.37266">
        <ele>517.4</ele>
        <time>2022-06-26T10:42:30Z</time>
      </trkpt>
      <trkpt lat="45.88813" lon="4.37269">
        <ele>517.8</ele>
        <time>2022-06-26T10:42:31Z</time>
      </trkpt>
      <trkpt lat="45.88813" lon="4.37272">
        <ele>517.8</ele>
        <time>2022-06-26T10:42:32Z</time>
      </trkpt>
      <trkpt lat="45.88812" lon="4.37276">
        <ele>518</ele>
        <time>2022-06-26T10:42:33Z</time>
      </trkpt>
      <trkpt lat="45.88811" lon="4.37279">
        <ele>518</ele>
        <time>2022-06-26T10:42:34Z</time>
      </trkpt>
      <trkpt lat="45.8881" lon="4.37282">
        <ele>518.4</ele>
        <time>2022-06-26T10:42:35Z</time>
      </trkpt>
      <trkpt lat="45.88809" lon="4.37286">
        <ele>518.6</ele>
        <time>2022-06-26T10:42:36Z</time>
      </trkpt>
      <trkpt lat="45.88808" lon="4.37289">
        <ele>518.6</ele>
        <time>2022-06-26T10:42:37Z</time>
      </trkpt>
      <trkpt lat="45.88807" lon="4.37292">
        <ele>519</ele>
        <time>2022-06-26T10:42:38Z</time>
      </trkpt>
      <trkpt lat="45.88806" lon="4.37295">
        <ele>519</ele>
        <time>2022-06-26T10:42:39Z</time>
      </trkpt>
      <trkpt lat="45.88805" lon="4.37299">
        <ele>519.2</ele>
        <time>2022-06-26T10:42:40Z</time>
      </trkpt>
      <trkpt lat="45.88804" lon="4.37302">
        <ele>519.2</ele>
        <time>2022-06-26T10:42:41Z</time>
      </trkpt>
      <trkpt lat="45.88802" lon="4.37305">
        <ele>519.6</ele>
        <time>2022-06-26T10:42:42Z</time>
      </trkpt>
      <trkpt lat="45.88801" lon="4.37308">
        <ele>519.6</ele>
        <time>2022-06-26T10:42:43Z</time>
      </trkpt>
      <trkpt lat="45.888" lon="4.3731">
        <ele>520</ele>
        <time>2022-06-26T10:42:44Z</time>
      </trkpt>
      <trkpt lat="45.88799" lon="4.37313">
        <ele>520</ele>
        <time>2022-06-26T10:42:45Z</time>
      </trkpt>
      <trkpt lat="45.88797" lon="4.37314">
        <ele>520.4</ele>
        <time>2022-06-26T10:42:46Z</time>
      </trkpt>
      <trkpt lat="45.88795" lon="4.37316">
        <ele>520.4</ele>
        <time>2022-06-26T10:42:47Z</time>
      </trkpt>
      <trkpt lat="45.88792" lon="4.37317">
        <ele>520.6</ele>
        <time>2022-06-26T10:42:48Z</time>
      </trkpt>
      <trkpt lat="45.88789" lon="4.37317">
        <ele>520.6</ele>
        <time>2022-06-26T10:42:49Z</time>
      </trkpt>
      <trkpt lat="45.88787" lon="4.37315">
        <ele>520.8</ele>
        <time>2022-06-26T10:42:50Z</time>
      </trkpt>
      <trkpt lat="45.88784" lon="4.37314">
        <ele>520.8</ele>
        <time>2022-06-26T10:42:51Z</time>
      </trkpt>
      <trkpt lat="45.88782" lon="4.37311">
        <ele>521.2</ele>
        <time>2022-06-26T10:42:52Z</time>
      </trkpt>
      <trkpt lat="45.8878" lon="4.37309">
        <ele>521.4</ele>
        <time>2022-06-26T10:42:53Z</time>
      </trkpt>
      <trkpt lat="45.88779" lon="4.37307">
        <ele>521.4</ele>
        <time>2022-06-26T10:42:54Z</time>
      </trkpt>
      <trkpt lat="45.88777" lon="4.37305">
        <ele>521.6</ele>
        <time>2022-06-26T10:42:55Z</time>
      </trkpt>
      <trkpt lat="45.88776" lon="4.37302">
        <ele>521.6</ele>
        <time>2022-06-26T10:42:56Z</time>
      </trkpt>
      <trkpt lat="45.88774" lon="4.373">
        <ele>522</ele>
        <time>2022-06-26T10:42:57Z</time>
      </trkpt>
      <trkpt lat="45.88772" lon="4.37297">
        <ele>522.2</ele>
        <time>2022-06-26T10:42:58Z</time>
      </trkpt>
      <trkpt lat="45.88771" lon="4.37294">
        <ele>522.4</ele>
        <time>2022-06-26T10:42:59Z</time>
      </trkpt>
      <trkpt lat="45.88769" lon="4.37292">
        <ele>522.6</ele>
        <time>2022-06-26T10:43:00Z</time>
      </trkpt>
      <trkpt lat="45.88767" lon="4.37289">
        <ele>522.8</ele>
        <time>2022-06-26T10:43:01Z</time>
      </trkpt>
      <trkpt lat="45.88766" lon="4.37287">
        <ele>523</ele>
        <time>2022-06-26T10:43:02Z</time>
      </trkpt>
      <trkpt lat="45.88764" lon="4.37284">
        <ele>523.4</ele>
        <time>2022-06-26T10:43:03Z</time>
      </trkpt>
      <trkpt lat="45.88762" lon="4.37282">
        <ele>523.6</ele>
        <time>2022-06-26T10:43:04Z</time>
      </trkpt>
      <trkpt lat="45.8876" lon="4.37279">
        <ele>523.8</ele>
        <time>2022-06-26T10:43:05Z</time>
      </trkpt>
      <trkpt lat="45.88759" lon="4.37277">
        <ele>524</ele>
        <time>2022-06-26T10:43:06Z</time>
      </trkpt>
      <trkpt lat="45.88757" lon="4.37274">
        <ele>524.2</ele>
        <time>2022-06-26T10:43:07Z</time>
      </trkpt>
      <trkpt lat="45.88755" lon="4.37271">
        <ele>524.6</ele>
        <time>2022-06-26T10:43:08Z</time>
      </trkpt>
      <trkpt lat="45.88753" lon="4.37269">
        <ele>524.8</ele>
        <time>2022-06-26T10:43:09Z</time>
      </trkpt>
      <trkpt lat="45.88752" lon="4.37266">
        <ele>525.2</ele>
        <time>2022-06-26T10:43:10Z</time>
      </trkpt>
      <trkpt lat="45.8875" lon="4.37263">
        <ele>525.4</ele>
        <time>2022-06-26T10:43:11Z</time>
      </trkpt>
      <trkpt lat="45.88748" lon="4.3726">
        <ele>525.6</ele>
        <time>2022-06-26T10:43:12Z</time>
      </trkpt>
      <trkpt lat="45.88746" lon="4.37258">
        <ele>525.8</ele>
        <time>2022-06-26T10:43:13Z</time>
      </trkpt>
      <trkpt lat="45.88744" lon="4.37255">
        <ele>526.2</ele>
        <time>2022-06-26T10:43:14Z</time>
      </trkpt>
      <trkpt lat="45.88743" lon="4.37252">
        <ele>526.4</ele>
        <time>2022-06-26T10:43:15Z</time>
      </trkpt>
      <trkpt lat="45.88741" lon="4.37249">
        <ele>526.6</ele>
        <time>2022-06-26T10:43:16Z</time>
      </trkpt>
      <trkpt lat="45.8874" lon="4.37247">
        <ele>527</ele>
        <time>2022-06-26T10:43:17Z</time>
      </trkpt>
      <trkpt lat="45.88738" lon="4.37244">
        <ele>527.2</ele>
        <time>2022-06-26T10:43:18Z</time>
      </trkpt>
      <trkpt lat="45.88737" lon="4.37242">
        <ele>527.4</ele>
        <time>2022-06-26T10:43:19Z</time>
      </trkpt>
      <trkpt lat="45.88735" lon="4.37238">
        <ele>527.8</ele>
        <time>2022-06-26T10:43:20Z</time>
      </trkpt>
      <trkpt lat="45.88733" lon="4.37235">
        <ele>528</ele>
        <time>2022-06-26T10:43:21Z</time>
      </trkpt>
      <trkpt lat="45.88731" lon="4.37231">
        <ele>528.2</ele>
        <time>2022-06-26T10:43:22Z</time>
      </trkpt>
      <trkpt lat="45.88729" lon="4.37229">
        <ele>528.6</ele>
        <time>2022-06-26T10:43:23Z</time>
      </trkpt>
      <trkpt lat="45.88727" lon="4.37226">
        <ele>528.8</ele>
        <time>2022-06-26T10:43:24Z</time>
      </trkpt>
      <trkpt lat="45.88726" lon="4.37223">
        <ele>529</ele>
        <time>2022-06-26T10:43:25Z</time>
      </trkpt>
      <trkpt lat="45.88726" lon="4.3722">
        <ele>529.2</ele>
        <time>2022-06-26T10:43:26Z</time>
      </trkpt>
      <trkpt lat="45.88725" lon="4.37216">
        <ele>529.2</ele>
        <time>2022-06-26T10:43:27Z</time>
      </trkpt>
      <trkpt lat="45.88725" lon="4.37211">
        <ele>529.4</ele>
        <time>2022-06-26T10:43:28Z</time>
      </trkpt>
      <trkpt lat="45.88725" lon="4.37207">
        <ele>529.4</ele>
        <time>2022-06-26T10:43:29Z</time>
      </trkpt>
      <trkpt lat="45.88724" lon="4.37202">
        <ele>529.8</ele>
        <time>2022-06-26T10:43:30Z</time>
      </trkpt>
      <trkpt lat="45.88723" lon="4.37198">
        <ele>529.8</ele>
        <time>2022-06-26T10:43:31Z</time>
      </trkpt>
      <trkpt lat="45.88722" lon="4.37194">
        <ele>530.2</ele>
        <time>2022-06-26T10:43:32Z</time>
      </trkpt>
      <trkpt lat="45.88721" lon="4.3719">
        <ele>530.2</ele>
        <time>2022-06-26T10:43:33Z</time>
      </trkpt>
      <trkpt lat="45.8872" lon="4.37187">
        <ele>530.4</ele>
        <time>2022-06-26T10:43:34Z</time>
      </trkpt>
      <trkpt lat="45.88719" lon="4.37184">
        <ele>530.4</ele>
        <time>2022-06-26T10:43:35Z</time>
      </trkpt>
      <trkpt lat="45.88717" lon="4.37181">
        <ele>530.4</ele>
        <time>2022-06-26T10:43:36Z</time>
      </trkpt>
      <trkpt lat="45.88715" lon="4.37177">
        <ele>530.6</ele>
        <time>2022-06-26T10:43:37Z</time>
      </trkpt>
      <trkpt lat="45.88714" lon="4.37173">
        <ele>530.6</ele>
        <time>2022-06-26T10:43:38Z</time>
      </trkpt>
      <trkpt lat="45.88712" lon="4.37169">
        <ele>531</ele>
        <time>2022-06-26T10:43:39Z</time>
      </trkpt>
      <trkpt lat="45.8871" lon="4.37165">
        <ele>531</ele>
        <time>2022-06-26T10:43:40Z</time>
      </trkpt>
      <trkpt lat="45.88708" lon="4.37162">
        <ele>531</ele>
        <time>2022-06-26T10:43:41Z</time>
      </trkpt>
      <trkpt lat="45.88706" lon="4.37158">
        <ele>531.2</ele>
        <time>2022-06-26T10:43:42Z</time>
      </trkpt>
      <trkpt lat="45.88704" lon="4.37155">
        <ele>531.2</ele>
        <time>2022-06-26T10:43:43Z</time>
      </trkpt>
      <trkpt lat="45.88702" lon="4.37152">
        <ele>531.2</ele>
        <time>2022-06-26T10:43:44Z</time>
      </trkpt>
      <trkpt lat="45.88701" lon="4.37148">
        <ele>531.4</ele>
        <time>2022-06-26T10:43:45Z</time>
      </trkpt>
      <trkpt lat="45.887" lon="4.37145">
        <ele>531.4</ele>
        <time>2022-06-26T10:43:46Z</time>
      </trkpt>
      <trkpt lat="45.88698" lon="4.37141">
        <ele>531.4</ele>
        <time>2022-06-26T10:43:47Z</time>
      </trkpt>
      <trkpt lat="45.88697" lon="4.37138">
        <ele>531.8</ele>
        <time>2022-06-26T10:43:48Z</time>
      </trkpt>
      <trkpt lat="45.88695" lon="4.37136">
        <ele>531.8</ele>
        <time>2022-06-26T10:43:49Z</time>
      </trkpt>
      <trkpt lat="45.88693" lon="4.37134">
        <ele>532</ele>
        <time>2022-06-26T10:43:50Z</time>
      </trkpt>
      <trkpt lat="45.88692" lon="4.37132">
        <ele>532</ele>
        <time>2022-06-26T10:43:51Z</time>
      </trkpt>
      <trkpt lat="45.8869" lon="4.3713">
        <ele>532.2</ele>
        <time>2022-06-26T10:43:52Z</time>
      </trkpt>
      <trkpt lat="45.88689" lon="4.37127">
        <ele>532.2</ele>
        <time>2022-06-26T10:43:53Z</time>
      </trkpt>
      <trkpt lat="45.88687" lon="4.37125">
        <ele>532.2</ele>
        <time>2022-06-26T10:43:54Z</time>
      </trkpt>
      <trkpt lat="45.88685" lon="4.37123">
        <ele>532.6</ele>
        <time>2022-06-26T10:43:55Z</time>
      </trkpt>
      <trkpt lat="45.88682" lon="4.37121">
        <ele>532.6</ele>
        <time>2022-06-26T10:43:56Z</time>
      </trkpt>
      <trkpt lat="45.8868" lon="4.37118">
        <ele>532.8</ele>
        <time>2022-06-26T10:43:57Z</time>
      </trkpt>
      <trkpt lat="45.88679" lon="4.37116">
        <ele>532.8</ele>
        <time>2022-06-26T10:43:58Z</time>
      </trkpt>
      <trkpt lat="45.88677" lon="4.37114">
        <ele>533</ele>
        <time>2022-06-26T10:43:59Z</time>
      </trkpt>
      <trkpt lat="45.88675" lon="4.37111">
        <ele>533</ele>
        <time>2022-06-26T10:44:00Z</time>
      </trkpt>
      <trkpt lat="45.88673" lon="4.37108">
        <ele>533</ele>
        <time>2022-06-26T10:44:01Z</time>
      </trkpt>
      <trkpt lat="45.88671" lon="4.37105">
        <ele>533.4</ele>
        <time>2022-06-26T10:44:02Z</time>
      </trkpt>
      <trkpt lat="45.88669" lon="4.37102">
        <ele>533.4</ele>
        <time>2022-06-26T10:44:03Z</time>
      </trkpt>
      <trkpt lat="45.88667" lon="4.371">
        <ele>533.8</ele>
        <time>2022-06-26T10:44:04Z</time>
      </trkpt>
      <trkpt lat="45.88665" lon="4.37098">
        <ele>533.8</ele>
        <time>2022-06-26T10:44:05Z</time>
      </trkpt>
      <trkpt lat="45.88663" lon="4.37096">
        <ele>534</ele>
        <time>2022-06-26T10:44:06Z</time>
      </trkpt>
      <trkpt lat="45.88661" lon="4.37093">
        <ele>534.2</ele>
        <time>2022-06-26T10:44:07Z</time>
      </trkpt>
      <trkpt lat="45.88659" lon="4.37091">
        <ele>534.2</ele>
        <time>2022-06-26T10:44:08Z</time>
      </trkpt>
      <trkpt lat="45.88657" lon="4.37088">
        <ele>534.6</ele>
        <time>2022-06-26T10:44:09Z</time>
      </trkpt>
      <trkpt lat="45.88655" lon="4.37086">
        <ele>534.6</ele>
        <time>2022-06-26T10:44:10Z</time>
      </trkpt>
      <trkpt lat="45.88653" lon="4.37083">
        <ele>535</ele>
        <time>2022-06-26T10:44:11Z</time>
      </trkpt>
      <trkpt lat="45.88651" lon="4.37081">
        <ele>535.2</ele>
        <time>2022-06-26T10:44:12Z</time>
      </trkpt>
      <trkpt lat="45.88649" lon="4.37078">
        <ele>535.4</ele>
        <time>2022-06-26T10:44:13Z</time>
      </trkpt>
      <trkpt lat="45.88647" lon="4.37076">
        <ele>535.8</ele>
        <time>2022-06-26T10:44:14Z</time>
      </trkpt>
      <trkpt lat="45.88645" lon="4.37073">
        <ele>536</ele>
        <time>2022-06-26T10:44:15Z</time>
      </trkpt>
      <trkpt lat="45.88643" lon="4.37071">
        <ele>536.2</ele>
        <time>2022-06-26T10:44:16Z</time>
      </trkpt>
      <trkpt lat="45.8864" lon="4.3707">
        <ele>536.6</ele>
        <time>2022-06-26T10:44:17Z</time>
      </trkpt>
      <trkpt lat="45.88638" lon="4.37069">
        <ele>537</ele>
        <time>2022-06-26T10:44:18Z</time>
      </trkpt>
      <trkpt lat="45.88635" lon="4.37068">
        <ele>537.2</ele>
        <time>2022-06-26T10:44:19Z</time>
      </trkpt>
      <trkpt lat="45.88632" lon="4.37068">
        <ele>537.6</ele>
        <time>2022-06-26T10:44:20Z</time>
      </trkpt>
      <trkpt lat="45.8863" lon="4.37069">
        <ele>537.8</ele>
        <time>2022-06-26T10:44:21Z</time>
      </trkpt>
      <trkpt lat="45.88628" lon="4.37069">
        <ele>538</ele>
        <time>2022-06-26T10:44:22Z</time>
      </trkpt>
      <trkpt lat="45.88626" lon="4.3707">
        <ele>538.2</ele>
        <time>2022-06-26T10:44:23Z</time>
      </trkpt>
      <trkpt lat="45.88624" lon="4.3707">
        <ele>538.6</ele>
        <time>2022-06-26T10:44:24Z</time>
      </trkpt>
      <trkpt lat="45.88622" lon="4.3707">
        <ele>538.8</ele>
        <time>2022-06-26T10:44:25Z</time>
      </trkpt>
      <trkpt lat="45.8862" lon="4.37071">
        <ele>539</ele>
        <time>2022-06-26T10:44:26Z</time>
      </trkpt>
      <trkpt lat="45.88619" lon="4.37071">
        <ele>539.4</ele>
        <time>2022-06-26T10:44:27Z</time>
      </trkpt>
      <trkpt lat="45.88618" lon="4.37072">
        <ele>539.6</ele>
        <time>2022-06-26T10:44:28Z</time>
      </trkpt>
      <trkpt lat="45.88616" lon="4.37073">
        <ele>539.8</ele>
        <time>2022-06-26T10:44:29Z</time>
      </trkpt>
      <trkpt lat="45.88615" lon="4.37075">
        <ele>539.8</ele>
        <time>2022-06-26T10:44:30Z</time>
      </trkpt>
      <trkpt lat="45.88614" lon="4.37076">
        <ele>540.2</ele>
        <time>2022-06-26T10:44:31Z</time>
      </trkpt>
      <trkpt lat="45.88613" lon="4.37078">
        <ele>540.2</ele>
        <time>2022-06-26T10:44:32Z</time>
      </trkpt>
      <trkpt lat="45.88612" lon="4.37079">
        <ele>540.6</ele>
        <time>2022-06-26T10:44:33Z</time>
      </trkpt>
      <trkpt lat="45.88611" lon="4.37081">
        <ele>540.6</ele>
        <time>2022-06-26T10:44:34Z</time>
      </trkpt>
      <trkpt lat="45.88609" lon="4.37082">
        <ele>541</ele>
        <time>2022-06-26T10:44:35Z</time>
      </trkpt>
      <trkpt lat="45.88608" lon="4.37083">
        <ele>541</ele>
        <time>2022-06-26T10:44:36Z</time>
      </trkpt>
      <trkpt lat="45.88608" lon="4.37085">
        <ele>541.4</ele>
        <time>2022-06-26T10:44:37Z</time>
      </trkpt>
      <trkpt lat="45.88607" lon="4.37086">
        <ele>541.6</ele>
        <time>2022-06-26T10:44:38Z</time>
      </trkpt>
      <trkpt lat="45.88605" lon="4.37088">
        <ele>541.6</ele>
        <time>2022-06-26T10:44:39Z</time>
      </trkpt>
      <trkpt lat="45.88604" lon="4.37089">
        <ele>542</ele>
        <time>2022-06-26T10:44:40Z</time>
      </trkpt>
      <trkpt lat="45.88604" lon="4.3709">
        <ele>542</ele>
        <time>2022-06-26T10:44:41Z</time>
      </trkpt>
      <trkpt lat="45.88603" lon="4.37092">
        <ele>542.4</ele>
        <time>2022-06-26T10:44:42Z</time>
      </trkpt>
      <trkpt lat="45.88602" lon="4.37094">
        <ele>542.6</ele>
        <time>2022-06-26T10:44:43Z</time>
      </trkpt>
      <trkpt lat="45.88601" lon="4.37096">
        <ele>542.6</ele>
        <time>2022-06-26T10:44:44Z</time>
      </trkpt>
      <trkpt lat="45.886" lon="4.37098">
        <ele>543</ele>
        <time>2022-06-26T10:44:45Z</time>
      </trkpt>
      <trkpt lat="45.88599" lon="4.37101">
        <ele>543.2</ele>
        <time>2022-06-26T10:44:46Z</time>
      </trkpt>
      <trkpt lat="45.88598" lon="4.37103">
        <ele>543.4</ele>
        <time>2022-06-26T10:44:47Z</time>
      </trkpt>
      <trkpt lat="45.88597" lon="4.37105">
        <ele>543.4</ele>
        <time>2022-06-26T10:44:48Z</time>
      </trkpt>
      <trkpt lat="45.88596" lon="4.37107">
        <ele>543.6</ele>
        <time>2022-06-26T10:44:49Z</time>
      </trkpt>
      <trkpt lat="45.88595" lon="4.37108">
        <ele>543.6</ele>
        <time>2022-06-26T10:44:50Z</time>
      </trkpt>
      <trkpt lat="45.88594" lon="4.3711">
        <ele>544</ele>
        <time>2022-06-26T10:44:51Z</time>
      </trkpt>
      <trkpt lat="45.88593" lon="4.37112">
        <ele>544</ele>
        <time>2022-06-26T10:44:52Z</time>
      </trkpt>
      <trkpt lat="45.88592" lon="4.37114">
        <ele>544.4</ele>
        <time>2022-06-26T10:44:53Z</time>
      </trkpt>
      <trkpt lat="45.88591" lon="4.37115">
        <ele>544.6</ele>
        <time>2022-06-26T10:44:54Z</time>
      </trkpt>
      <trkpt lat="45.8859" lon="4.37117">
        <ele>544.6</ele>
        <time>2022-06-26T10:44:55Z</time>
      </trkpt>
      <trkpt lat="45.88588" lon="4.37118">
        <ele>545</ele>
        <time>2022-06-26T10:44:56Z</time>
      </trkpt>
      <trkpt lat="45.88586" lon="4.37119">
        <ele>545.4</ele>
        <time>2022-06-26T10:44:57Z</time>
      </trkpt>
      <trkpt lat="45.88584" lon="4.3712">
        <ele>545.6</ele>
        <time>2022-06-26T10:44:58Z</time>
      </trkpt>
      <trkpt lat="45.88583" lon="4.37121">
        <ele>545.6</ele>
        <time>2022-06-26T10:44:59Z</time>
      </trkpt>
      <trkpt lat="45.88581" lon="4.37122">
        <ele>545.8</ele>
        <time>2022-06-26T10:45:00Z</time>
      </trkpt>
      <trkpt lat="45.88579" lon="4.37124">
        <ele>545.8</ele>
        <time>2022-06-26T10:45:01Z</time>
      </trkpt>
      <trkpt lat="45.88577" lon="4.37125">
        <ele>546</ele>
        <time>2022-06-26T10:45:02Z</time>
      </trkpt>
      <trkpt lat="45.88574" lon="4.37126">
        <ele>546</ele>
        <time>2022-06-26T10:45:03Z</time>
      </trkpt>
      <trkpt lat="45.88572" lon="4.37127">
        <ele>546.4</ele>
        <time>2022-06-26T10:45:04Z</time>
      </trkpt>
      <trkpt lat="45.88569" lon="4.37129">
        <ele>546.4</ele>
        <time>2022-06-26T10:45:05Z</time>
      </trkpt>
      <trkpt lat="45.88567" lon="4.3713">
        <ele>546.6</ele>
        <time>2022-06-26T10:45:06Z</time>
      </trkpt>
      <trkpt lat="45.88564" lon="4.37131">
        <ele>546.6</ele>
        <time>2022-06-26T10:45:07Z</time>
      </trkpt>
      <trkpt lat="45.88562" lon="4.37133">
        <ele>547</ele>
        <time>2022-06-26T10:45:08Z</time>
      </trkpt>
      <trkpt lat="45.88559" lon="4.37135">
        <ele>547</ele>
        <time>2022-06-26T10:45:09Z</time>
      </trkpt>
      <trkpt lat="45.88557" lon="4.37136">
        <ele>547.2</ele>
        <time>2022-06-26T10:45:10Z</time>
      </trkpt>
      <trkpt lat="45.88555" lon="4.37137">
        <ele>547.2</ele>
        <time>2022-06-26T10:45:11Z</time>
      </trkpt>
      <trkpt lat="45.88553" lon="4.37139">
        <ele>547.4</ele>
        <time>2022-06-26T10:45:12Z</time>
      </trkpt>
      <trkpt lat="45.88551" lon="4.3714">
        <ele>547.6</ele>
        <time>2022-06-26T10:45:13Z</time>
      </trkpt>
      <trkpt lat="45.88549" lon="4.37142">
        <ele>547.6</ele>
        <time>2022-06-26T10:45:14Z</time>
      </trkpt>
      <trkpt lat="45.88547" lon="4.37144">
        <ele>548</ele>
        <time>2022-06-26T10:45:15Z</time>
      </trkpt>
      <trkpt lat="45.88545" lon="4.37146">
        <ele>548.2</ele>
        <time>2022-06-26T10:45:16Z</time>
      </trkpt>
      <trkpt lat="45.88543" lon="4.37148">
        <ele>548.6</ele>
        <time>2022-06-26T10:45:17Z</time>
      </trkpt>
      <trkpt lat="45.88541" lon="4.3715">
        <ele>548.8</ele>
        <time>2022-06-26T10:45:18Z</time>
      </trkpt>
      <trkpt lat="45.88539" lon="4.37152">
        <ele>548.8</ele>
        <time>2022-06-26T10:45:19Z</time>
      </trkpt>
      <trkpt lat="45.88537" lon="4.37154">
        <ele>549.2</ele>
        <time>2022-06-26T10:45:20Z</time>
      </trkpt>
      <trkpt lat="45.88535" lon="4.37156">
        <ele>549.2</ele>
        <time>2022-06-26T10:45:21Z</time>
      </trkpt>
      <trkpt lat="45.88533" lon="4.37158">
        <ele>549.4</ele>
        <time>2022-06-26T10:45:22Z</time>
      </trkpt>
      <trkpt lat="45.88531" lon="4.3716">
        <ele>549.4</ele>
        <time>2022-06-26T10:45:23Z</time>
      </trkpt>
      <trkpt lat="45.8853" lon="4.37162">
        <ele>549.8</ele>
        <time>2022-06-26T10:45:24Z</time>
      </trkpt>
      <trkpt lat="45.88528" lon="4.37164">
        <ele>549.8</ele>
        <time>2022-06-26T10:45:25Z</time>
      </trkpt>
      <trkpt lat="45.88527" lon="4.37166">
        <ele>550.2</ele>
        <time>2022-06-26T10:45:26Z</time>
      </trkpt>
      <trkpt lat="45.88525" lon="4.37168">
        <ele>550.2</ele>
        <time>2022-06-26T10:45:27Z</time>
      </trkpt>
      <trkpt lat="45.88524" lon="4.3717">
        <ele>550.4</ele>
        <time>2022-06-26T10:45:28Z</time>
      </trkpt>
      <trkpt lat="45.88522" lon="4.37172">
        <ele>550.4</ele>
        <time>2022-06-26T10:45:29Z</time>
      </trkpt>
      <trkpt lat="45.88521" lon="4.37174">
        <ele>550.8</ele>
        <time>2022-06-26T10:45:30Z</time>
      </trkpt>
      <trkpt lat="45.88519" lon="4.37176">
        <ele>551.2</ele>
        <time>2022-06-26T10:45:31Z</time>
      </trkpt>
      <trkpt lat="45.88518" lon="4.37179">
        <ele>551.2</ele>
        <time>2022-06-26T10:45:32Z</time>
      </trkpt>
      <trkpt lat="45.88517" lon="4.37181">
        <ele>551.4</ele>
        <time>2022-06-26T10:45:33Z</time>
      </trkpt>
      <trkpt lat="45.88516" lon="4.37183">
        <ele>551.4</ele>
        <time>2022-06-26T10:45:34Z</time>
      </trkpt>
      <trkpt lat="45.88514" lon="4.37185">
        <ele>551.8</ele>
        <time>2022-06-26T10:45:35Z</time>
      </trkpt>
      <trkpt lat="45.88512" lon="4.37187">
        <ele>552</ele>
        <time>2022-06-26T10:45:36Z</time>
      </trkpt>
      <trkpt lat="45.88511" lon="4.37188">
        <ele>552</ele>
        <time>2022-06-26T10:45:37Z</time>
      </trkpt>
      <trkpt lat="45.88509" lon="4.3719">
        <ele>552.2</ele>
        <time>2022-06-26T10:45:38Z</time>
      </trkpt>
      <trkpt lat="45.88508" lon="4.37192">
        <ele>552.2</ele>
        <time>2022-06-26T10:45:39Z</time>
      </trkpt>
      <trkpt lat="45.88506" lon="4.37194">
        <ele>552.6</ele>
        <time>2022-06-26T10:45:40Z</time>
      </trkpt>
      <trkpt lat="45.88505" lon="4.37196">
        <ele>552.6</ele>
        <time>2022-06-26T10:45:41Z</time>
      </trkpt>
      <trkpt lat="45.88503" lon="4.37198">
        <ele>553</ele>
        <time>2022-06-26T10:45:42Z</time>
      </trkpt>
      <trkpt lat="45.88502" lon="4.372">
        <ele>553.2</ele>
        <time>2022-06-26T10:45:43Z</time>
      </trkpt>
      <trkpt lat="45.885" lon="4.37202">
        <ele>553.2</ele>
        <time>2022-06-26T10:45:44Z</time>
      </trkpt>
      <trkpt lat="45.88499" lon="4.37204">
        <ele>553.6</ele>
        <time>2022-06-26T10:45:45Z</time>
      </trkpt>
      <trkpt lat="45.88497" lon="4.37206">
        <ele>553.6</ele>
        <time>2022-06-26T10:45:46Z</time>
      </trkpt>
      <trkpt lat="45.88496" lon="4.37208">
        <ele>553.8</ele>
        <time>2022-06-26T10:45:47Z</time>
      </trkpt>
      <trkpt lat="45.88494" lon="4.37209">
        <ele>553.8</ele>
        <time>2022-06-26T10:45:48Z</time>
      </trkpt>
      <trkpt lat="45.88492" lon="4.37211">
        <ele>554.2</ele>
        <time>2022-06-26T10:45:49Z</time>
      </trkpt>
      <trkpt lat="45.8849" lon="4.37213">
        <ele>554.2</ele>
        <time>2022-06-26T10:45:50Z</time>
      </trkpt>
      <trkpt lat="45.88488" lon="4.37214">
        <ele>554.4</ele>
        <time>2022-06-26T10:45:51Z</time>
      </trkpt>
      <trkpt lat="45.88486" lon="4.37215">
        <ele>554.4</ele>
        <time>2022-06-26T10:45:52Z</time>
      </trkpt>
      <trkpt lat="45.88483" lon="4.37216">
        <ele>554.8</ele>
        <time>2022-06-26T10:45:53Z</time>
      </trkpt>
      <trkpt lat="45.88481" lon="4.37218">
        <ele>554.8</ele>
        <time>2022-06-26T10:45:54Z</time>
      </trkpt>
      <trkpt lat="45.88479" lon="4.37219">
        <ele>555.2</ele>
        <time>2022-06-26T10:45:55Z</time>
      </trkpt>
      <trkpt lat="45.88477" lon="4.3722">
        <ele>555.2</ele>
        <time>2022-06-26T10:45:56Z</time>
      </trkpt>
      <trkpt lat="45.88475" lon="4.37221">
        <ele>555.4</ele>
        <time>2022-06-26T10:45:57Z</time>
      </trkpt>
      <trkpt lat="45.88473" lon="4.37222">
        <ele>555.4</ele>
        <time>2022-06-26T10:45:58Z</time>
      </trkpt>
      <trkpt lat="45.88471" lon="4.37222">
        <ele>555.8</ele>
        <time>2022-06-26T10:45:59Z</time>
      </trkpt>
      <trkpt lat="45.88469" lon="4.37223">
        <ele>555.8</ele>
        <time>2022-06-26T10:46:00Z</time>
      </trkpt>
      <trkpt lat="45.88467" lon="4.37223">
        <ele>556.2</ele>
        <time>2022-06-26T10:46:01Z</time>
      </trkpt>
      <trkpt lat="45.88465" lon="4.37224">
        <ele>556.2</ele>
        <time>2022-06-26T10:46:02Z</time>
      </trkpt>
      <trkpt lat="45.88463" lon="4.37225">
        <ele>556.4</ele>
        <time>2022-06-26T10:46:03Z</time>
      </trkpt>
      <trkpt lat="45.88461" lon="4.37226">
        <ele>556.4</ele>
        <time>2022-06-26T10:46:04Z</time>
      </trkpt>
      <trkpt lat="45.88459" lon="4.37228">
        <ele>556.8</ele>
        <time>2022-06-26T10:46:05Z</time>
      </trkpt>
      <trkpt lat="45.88457" lon="4.37229">
        <ele>556.8</ele>
        <time>2022-06-26T10:46:06Z</time>
      </trkpt>
      <trkpt lat="45.88455" lon="4.3723">
        <ele>557.2</ele>
        <time>2022-06-26T10:46:07Z</time>
      </trkpt>
      <trkpt lat="45.88453" lon="4.37232">
        <ele>557.2</ele>
        <time>2022-06-26T10:46:08Z</time>
      </trkpt>
      <trkpt lat="45.88452" lon="4.37234">
        <ele>557.4</ele>
        <time>2022-06-26T10:46:09Z</time>
      </trkpt>
      <trkpt lat="45.8845" lon="4.37236">
        <ele>557.4</ele>
        <time>2022-06-26T10:46:10Z</time>
      </trkpt>
      <trkpt lat="45.88449" lon="4.37239">
        <ele>557.8</ele>
        <time>2022-06-26T10:46:11Z</time>
      </trkpt>
      <trkpt lat="45.88447" lon="4.37241">
        <ele>558</ele>
        <time>2022-06-26T10:46:12Z</time>
      </trkpt>
      <trkpt lat="45.88446" lon="4.37243">
        <ele>558.2</ele>
        <time>2022-06-26T10:46:13Z</time>
      </trkpt>
      <trkpt lat="45.88445" lon="4.37246">
        <ele>558.2</ele>
        <time>2022-06-26T10:46:14Z</time>
      </trkpt>
      <trkpt lat="45.88444" lon="4.37249">
        <ele>558.6</ele>
        <time>2022-06-26T10:46:15Z</time>
      </trkpt>
      <trkpt lat="45.88442" lon="4.37252">
        <ele>558.6</ele>
        <time>2022-06-26T10:46:16Z</time>
      </trkpt>
      <trkpt lat="45.88441" lon="4.37254">
        <ele>559</ele>
        <time>2022-06-26T10:46:17Z</time>
      </trkpt>
      <trkpt lat="45.8844" lon="4.37258">
        <ele>559</ele>
        <time>2022-06-26T10:46:18Z</time>
      </trkpt>
      <trkpt lat="45.8844" lon="4.37261">
        <ele>559.2</ele>
        <time>2022-06-26T10:46:19Z</time>
      </trkpt>
      <trkpt lat="45.8844" lon="4.37264">
        <ele>559.4</ele>
        <time>2022-06-26T10:46:20Z</time>
      </trkpt>
      <trkpt lat="45.8844" lon="4.37268">
        <ele>559.4</ele>
        <time>2022-06-26T10:46:21Z</time>
      </trkpt>
      <trkpt lat="45.88439" lon="4.37272">
        <ele>559.8</ele>
        <time>2022-06-26T10:46:22Z</time>
      </trkpt>
      <trkpt lat="45.88439" lon="4.37275">
        <ele>559.8</ele>
        <time>2022-06-26T10:46:23Z</time>
      </trkpt>
      <trkpt lat="45.88439" lon="4.37279">
        <ele>560.2</ele>
        <time>2022-06-26T10:46:24Z</time>
      </trkpt>
      <trkpt lat="45.88439" lon="4.37282">
        <ele>560.4</ele>
        <time>2022-06-26T10:46:25Z</time>
      </trkpt>
      <trkpt lat="45.88439" lon="4.37286">
        <ele>560.4</ele>
        <time>2022-06-26T10:46:26Z</time>
      </trkpt>
      <trkpt lat="45.8844" lon="4.3729">
        <ele>560.8</ele>
        <time>2022-06-26T10:46:27Z</time>
      </trkpt>
      <trkpt lat="45.8844" lon="4.37293">
        <ele>561</ele>
        <time>2022-06-26T10:46:28Z</time>
      </trkpt>
      <trkpt lat="45.8844" lon="4.37297">
        <ele>561.2</ele>
        <time>2022-06-26T10:46:29Z</time>
      </trkpt>
      <trkpt lat="45.8844" lon="4.373">
        <ele>561.4</ele>
        <time>2022-06-26T10:46:30Z</time>
      </trkpt>
      <trkpt lat="45.8844" lon="4.37303">
        <ele>561.4</ele>
        <time>2022-06-26T10:46:31Z</time>
      </trkpt>
      <trkpt lat="45.8844" lon="4.37306">
        <ele>561.8</ele>
        <time>2022-06-26T10:46:32Z</time>
      </trkpt>
      <trkpt lat="45.8844" lon="4.3731">
        <ele>561.8</ele>
        <time>2022-06-26T10:46:33Z</time>
      </trkpt>
      <trkpt lat="45.88441" lon="4.37313">
        <ele>562.2</ele>
        <time>2022-06-26T10:46:34Z</time>
      </trkpt>
      <trkpt lat="45.88441" lon="4.37316">
        <ele>562.2</ele>
        <time>2022-06-26T10:46:35Z</time>
      </trkpt>
      <trkpt lat="45.88441" lon="4.37319">
        <ele>562.4</ele>
        <time>2022-06-26T10:46:36Z</time>
      </trkpt>
      <trkpt lat="45.88442" lon="4.37322">
        <ele>562.4</ele>
        <time>2022-06-26T10:46:37Z</time>
      </trkpt>
      <trkpt lat="45.88442" lon="4.37325">
        <ele>562.8</ele>
        <time>2022-06-26T10:46:38Z</time>
      </trkpt>
      <trkpt lat="45.88442" lon="4.37328">
        <ele>563</ele>
        <time>2022-06-26T10:46:39Z</time>
      </trkpt>
      <trkpt lat="45.88442" lon="4.37331">
        <ele>563</ele>
        <time>2022-06-26T10:46:40Z</time>
      </trkpt>
      <trkpt lat="45.88443" lon="4.37334">
        <ele>563.4</ele>
        <time>2022-06-26T10:46:41Z</time>
      </trkpt>
      <trkpt lat="45.88443" lon="4.37337">
        <ele>563.4</ele>
        <time>2022-06-26T10:46:42Z</time>
      </trkpt>
      <trkpt lat="45.88443" lon="4.3734">
        <ele>563.6</ele>
        <time>2022-06-26T10:46:43Z</time>
      </trkpt>
      <trkpt lat="45.88444" lon="4.37342">
        <ele>563.6</ele>
        <time>2022-06-26T10:46:44Z</time>
      </trkpt>
      <trkpt lat="45.88444" lon="4.37345">
        <ele>564</ele>
        <time>2022-06-26T10:46:45Z</time>
      </trkpt>
      <trkpt lat="45.88445" lon="4.37348">
        <ele>564</ele>
        <time>2022-06-26T10:46:46Z</time>
      </trkpt>
      <trkpt lat="45.88446" lon="4.37351">
        <ele>564.4</ele>
        <time>2022-06-26T10:46:47Z</time>
      </trkpt>
      <trkpt lat="45.88446" lon="4.37354">
        <ele>564.4</ele>
        <time>2022-06-26T10:46:48Z</time>
      </trkpt>
      <trkpt lat="45.88447" lon="4.37356">
        <ele>564.6</ele>
        <time>2022-06-26T10:46:49Z</time>
      </trkpt>
      <trkpt lat="45.88447" lon="4.37359">
        <ele>564.6</ele>
        <time>2022-06-26T10:46:50Z</time>
      </trkpt>
      <trkpt lat="45.88448" lon="4.37362">
        <ele>564.8</ele>
        <time>2022-06-26T10:46:51Z</time>
      </trkpt>
      <trkpt lat="45.88448" lon="4.37365">
        <ele>564.8</ele>
        <time>2022-06-26T10:46:52Z</time>
      </trkpt>
      <trkpt lat="45.88448" lon="4.37368">
        <ele>565.2</ele>
        <time>2022-06-26T10:46:53Z</time>
      </trkpt>
      <trkpt lat="45.88448" lon="4.3737">
        <ele>565.2</ele>
        <time>2022-06-26T10:46:54Z</time>
      </trkpt>
      <trkpt lat="45.88448" lon="4.37373">
        <ele>565.6</ele>
        <time>2022-06-26T10:46:55Z</time>
      </trkpt>
      <trkpt lat="45.88448" lon="4.37376">
        <ele>565.6</ele>
        <time>2022-06-26T10:46:56Z</time>
      </trkpt>
      <trkpt lat="45.88448" lon="4.37379">
        <ele>565.8</ele>
        <time>2022-06-26T10:46:57Z</time>
      </trkpt>
      <trkpt lat="45.88448" lon="4.37381">
        <ele>565.8</ele>
        <time>2022-06-26T10:46:58Z</time>
      </trkpt>
      <trkpt lat="45.88448" lon="4.37384">
        <ele>566.2</ele>
        <time>2022-06-26T10:46:59Z</time>
      </trkpt>
      <trkpt lat="45.88448" lon="4.37386">
        <ele>566.4</ele>
        <time>2022-06-26T10:47:00Z</time>
      </trkpt>
      <trkpt lat="45.88448" lon="4.37389">
        <ele>566.4</ele>
        <time>2022-06-26T10:47:01Z</time>
      </trkpt>
      <trkpt lat="45.88449" lon="4.37392">
        <ele>566.8</ele>
        <time>2022-06-26T10:47:02Z</time>
      </trkpt>
      <trkpt lat="45.88449" lon="4.37394">
        <ele>567</ele>
        <time>2022-06-26T10:47:03Z</time>
      </trkpt>
      <trkpt lat="45.88449" lon="4.37397">
        <ele>567</ele>
        <time>2022-06-26T10:47:04Z</time>
      </trkpt>
      <trkpt lat="45.88449" lon="4.37399">
        <ele>567.4</ele>
        <time>2022-06-26T10:47:05Z</time>
      </trkpt>
      <trkpt lat="45.88448" lon="4.37402">
        <ele>567.6</ele>
        <time>2022-06-26T10:47:06Z</time>
      </trkpt>
      <trkpt lat="45.88448" lon="4.37404">
        <ele>567.6</ele>
        <time>2022-06-26T10:47:07Z</time>
      </trkpt>
      <trkpt lat="45.88448" lon="4.37407">
        <ele>568</ele>
        <time>2022-06-26T10:47:08Z</time>
      </trkpt>
      <trkpt lat="45.88447" lon="4.37409">
        <ele>568</ele>
        <time>2022-06-26T10:47:09Z</time>
      </trkpt>
      <trkpt lat="45.88447" lon="4.37412">
        <ele>568.2</ele>
        <time>2022-06-26T10:47:10Z</time>
      </trkpt>
      <trkpt lat="45.88446" lon="4.37414">
        <ele>568.2</ele>
        <time>2022-06-26T10:47:11Z</time>
      </trkpt>
      <trkpt lat="45.88446" lon="4.37416">
        <ele>568.6</ele>
        <time>2022-06-26T10:47:12Z</time>
      </trkpt>
      <trkpt lat="45.88445" lon="4.37418">
        <ele>568.6</ele>
        <time>2022-06-26T10:47:13Z</time>
      </trkpt>
      <trkpt lat="45.88445" lon="4.37421">
        <ele>568.8</ele>
        <time>2022-06-26T10:47:14Z</time>
      </trkpt>
      <trkpt lat="45.88445" lon="4.37423">
        <ele>568.8</ele>
        <time>2022-06-26T10:47:15Z</time>
      </trkpt>
      <trkpt lat="45.88444" lon="4.37425">
        <ele>569.2</ele>
        <time>2022-06-26T10:47:16Z</time>
      </trkpt>
      <trkpt lat="45.88443" lon="4.37427">
        <ele>569.2</ele>
        <time>2022-06-26T10:47:17Z</time>
      </trkpt>
      <trkpt lat="45.88442" lon="4.37429">
        <ele>569.4</ele>
        <time>2022-06-26T10:47:18Z</time>
      </trkpt>
      <trkpt lat="45.88441" lon="4.37431">
        <ele>569.4</ele>
        <time>2022-06-26T10:47:19Z</time>
      </trkpt>
      <trkpt lat="45.88441" lon="4.37434">
        <ele>569.6</ele>
        <time>2022-06-26T10:47:20Z</time>
      </trkpt>
      <trkpt lat="45.8844" lon="4.37436">
        <ele>569.6</ele>
        <time>2022-06-26T10:47:21Z</time>
      </trkpt>
      <trkpt lat="45.8844" lon="4.37439">
        <ele>570</ele>
        <time>2022-06-26T10:47:22Z</time>
      </trkpt>
      <trkpt lat="45.88439" lon="4.37441">
        <ele>570</ele>
        <time>2022-06-26T10:47:23Z</time>
      </trkpt>
      <trkpt lat="45.88438" lon="4.37444">
        <ele>570.2</ele>
        <time>2022-06-26T10:47:24Z</time>
      </trkpt>
      <trkpt lat="45.88437" lon="4.37446">
        <ele>570.4</ele>
        <time>2022-06-26T10:47:25Z</time>
      </trkpt>
      <trkpt lat="45.88437" lon="4.37448">
        <ele>570.4</ele>
        <time>2022-06-26T10:47:26Z</time>
      </trkpt>
      <trkpt lat="45.88436" lon="4.3745">
        <ele>570.8</ele>
        <time>2022-06-26T10:47:27Z</time>
      </trkpt>
      <trkpt lat="45.88435" lon="4.37453">
        <ele>570.8</ele>
        <time>2022-06-26T10:47:28Z</time>
      </trkpt>
      <trkpt lat="45.88434" lon="4.37455">
        <ele>571</ele>
        <time>2022-06-26T10:47:29Z</time>
      </trkpt>
      <trkpt lat="45.88433" lon="4.37457">
        <ele>571</ele>
        <time>2022-06-26T10:47:30Z</time>
      </trkpt>
      <trkpt lat="45.88432" lon="4.37459">
        <ele>571.2</ele>
        <time>2022-06-26T10:47:31Z</time>
      </trkpt>
      <trkpt lat="45.88431" lon="4.37461">
        <ele>571.2</ele>
        <time>2022-06-26T10:47:32Z</time>
      </trkpt>
      <trkpt lat="45.8843" lon="4.37463">
        <ele>571.6</ele>
        <time>2022-06-26T10:47:33Z</time>
      </trkpt>
      <trkpt lat="45.88428" lon="4.37465">
        <ele>571.6</ele>
        <time>2022-06-26T10:47:34Z</time>
      </trkpt>
      <trkpt lat="45.88427" lon="4.37466">
        <ele>571.8</ele>
        <time>2022-06-26T10:47:35Z</time>
      </trkpt>
      <trkpt lat="45.88425" lon="4.37468">
        <ele>571.8</ele>
        <time>2022-06-26T10:47:36Z</time>
      </trkpt>
      <trkpt lat="45.88423" lon="4.37469">
        <ele>572.2</ele>
        <time>2022-06-26T10:47:37Z</time>
      </trkpt>
      <trkpt lat="45.88421" lon="4.3747">
        <ele>572.2</ele>
        <time>2022-06-26T10:47:38Z</time>
      </trkpt>
      <trkpt lat="45.8842" lon="4.37471">
        <ele>572.4</ele>
        <time>2022-06-26T10:47:39Z</time>
      </trkpt>
      <trkpt lat="45.88418" lon="4.37471">
        <ele>572.4</ele>
        <time>2022-06-26T10:47:40Z</time>
      </trkpt>
      <trkpt lat="45.88416" lon="4.37472">
        <ele>572.8</ele>
        <time>2022-06-26T10:47:41Z</time>
      </trkpt>
      <trkpt lat="45.88414" lon="4.37472">
        <ele>572.8</ele>
        <time>2022-06-26T10:47:42Z</time>
      </trkpt>
      <trkpt lat="45.88412" lon="4.37471">
        <ele>573.2</ele>
        <time>2022-06-26T10:47:43Z</time>
      </trkpt>
      <trkpt lat="45.8841" lon="4.37471">
        <ele>573.2</ele>
        <time>2022-06-26T10:47:44Z</time>
      </trkpt>
      <trkpt lat="45.88408" lon="4.37471">
        <ele>573.4</ele>
        <time>2022-06-26T10:47:45Z</time>
      </trkpt>
      <trkpt lat="45.88406" lon="4.37471">
        <ele>573.4</ele>
        <time>2022-06-26T10:47:46Z</time>
      </trkpt>
      <trkpt lat="45.88405" lon="4.37471">
        <ele>573.6</ele>
        <time>2022-06-26T10:47:47Z</time>
      </trkpt>
      <trkpt lat="45.88403" lon="4.3747">
        <ele>573.6</ele>
        <time>2022-06-26T10:47:48Z</time>
      </trkpt>
      <trkpt lat="45.88401" lon="4.37469">
        <ele>574</ele>
        <time>2022-06-26T10:47:49Z</time>
      </trkpt>
      <trkpt lat="45.884" lon="4.37468">
        <ele>574</ele>
        <time>2022-06-26T10:47:50Z</time>
      </trkpt>
      <trkpt lat="45.88398" lon="4.37468">
        <ele>574.2</ele>
        <time>2022-06-26T10:47:51Z</time>
      </trkpt>
      <trkpt lat="45.88396" lon="4.37467">
        <ele>574.4</ele>
        <time>2022-06-26T10:47:52Z</time>
      </trkpt>
      <trkpt lat="45.88394" lon="4.37467">
        <ele>574.4</ele>
        <time>2022-06-26T10:47:53Z</time>
      </trkpt>
      <trkpt lat="45.88392" lon="4.37467">
        <ele>574.8</ele>
        <time>2022-06-26T10:47:54Z</time>
      </trkpt>
      <trkpt lat="45.8839" lon="4.37466">
        <ele>574.8</ele>
        <time>2022-06-26T10:47:55Z</time>
      </trkpt>
      <trkpt lat="45.88388" lon="4.37465">
        <ele>575</ele>
        <time>2022-06-26T10:47:56Z</time>
      </trkpt>
      <trkpt lat="45.88387" lon="4.37464">
        <ele>575</ele>
        <time>2022-06-26T10:47:57Z</time>
      </trkpt>
      <trkpt lat="45.88385" lon="4.37463">
        <ele>575.2</ele>
        <time>2022-06-26T10:47:58Z</time>
      </trkpt>
      <trkpt lat="45.88383" lon="4.37462">
        <ele>575.2</ele>
        <time>2022-06-26T10:47:59Z</time>
      </trkpt>
      <trkpt lat="45.88381" lon="4.37461">
        <ele>575.6</ele>
        <time>2022-06-26T10:48:00Z</time>
      </trkpt>
      <trkpt lat="45.88379" lon="4.3746">
        <ele>575.6</ele>
        <time>2022-06-26T10:48:01Z</time>
      </trkpt>
      <trkpt lat="45.88377" lon="4.3746">
        <ele>576</ele>
        <time>2022-06-26T10:48:02Z</time>
      </trkpt>
      <trkpt lat="45.88375" lon="4.37459">
        <ele>576.2</ele>
        <time>2022-06-26T10:48:03Z</time>
      </trkpt>
      <trkpt lat="45.88373" lon="4.37458">
        <ele>576.2</ele>
        <time>2022-06-26T10:48:04Z</time>
      </trkpt>
      <trkpt lat="45.88371" lon="4.37458">
        <ele>576.6</ele>
        <time>2022-06-26T10:48:05Z</time>
      </trkpt>
      <trkpt lat="45.88369" lon="4.37457">
        <ele>576.8</ele>
        <time>2022-06-26T10:48:06Z</time>
      </trkpt>
      <trkpt lat="45.88367" lon="4.37457">
        <ele>577</ele>
        <time>2022-06-26T10:48:07Z</time>
      </trkpt>
      <trkpt lat="45.88365" lon="4.37457">
        <ele>577.2</ele>
        <time>2022-06-26T10:48:08Z</time>
      </trkpt>
      <trkpt lat="45.88363" lon="4.37456">
        <ele>577.2</ele>
        <time>2022-06-26T10:48:09Z</time>
      </trkpt>
      <trkpt lat="45.88361" lon="4.37456">
        <ele>577.6</ele>
        <time>2022-06-26T10:48:10Z</time>
      </trkpt>
      <trkpt lat="45.88358" lon="4.37455">
        <ele>577.8</ele>
        <time>2022-06-26T10:48:12Z</time>
      </trkpt>
      <trkpt lat="45.88356" lon="4.37455">
        <ele>578</ele>
        <time>2022-06-26T10:48:13Z</time>
      </trkpt>
      <trkpt lat="45.88354" lon="4.37454">
        <ele>578</ele>
        <time>2022-06-26T10:48:14Z</time>
      </trkpt>
      <trkpt lat="45.88352" lon="4.37452">
        <ele>578.4</ele>
        <time>2022-06-26T10:48:15Z</time>
      </trkpt>
      <trkpt lat="45.8835" lon="4.37451">
        <ele>578.6</ele>
        <time>2022-06-26T10:48:16Z</time>
      </trkpt>
      <trkpt lat="45.88348" lon="4.37451">
        <ele>578.8</ele>
        <time>2022-06-26T10:48:17Z</time>
      </trkpt>
      <trkpt lat="45.88346" lon="4.3745">
        <ele>579.2</ele>
        <time>2022-06-26T10:48:18Z</time>
      </trkpt>
      <trkpt lat="45.88344" lon="4.3745">
        <ele>579.2</ele>
        <time>2022-06-26T10:48:19Z</time>
      </trkpt>
      <trkpt lat="45.88342" lon="4.37449">
        <ele>579.6</ele>
        <time>2022-06-26T10:48:20Z</time>
      </trkpt>
      <trkpt lat="45.8834" lon="4.37448">
        <ele>579.6</ele>
        <time>2022-06-26T10:48:21Z</time>
      </trkpt>
      <trkpt lat="45.88338" lon="4.37448">
        <ele>579.8</ele>
        <time>2022-06-26T10:48:22Z</time>
      </trkpt>
      <trkpt lat="45.88337" lon="4.37448">
        <ele>579.8</ele>
        <time>2022-06-26T10:48:23Z</time>
      </trkpt>
      <trkpt lat="45.88335" lon="4.37447">
        <ele>580.2</ele>
        <time>2022-06-26T10:48:24Z</time>
      </trkpt>
      <trkpt lat="45.88333" lon="4.37446">
        <ele>580.2</ele>
        <time>2022-06-26T10:48:25Z</time>
      </trkpt>
      <trkpt lat="45.88331" lon="4.37445">
        <ele>580.6</ele>
        <time>2022-06-26T10:48:26Z</time>
      </trkpt>
      <trkpt lat="45.88329" lon="4.37444">
        <ele>580.6</ele>
        <time>2022-06-26T10:48:27Z</time>
      </trkpt>
      <trkpt lat="45.88327" lon="4.37443">
        <ele>581</ele>
        <time>2022-06-26T10:48:28Z</time>
      </trkpt>
      <trkpt lat="45.88326" lon="4.37442">
        <ele>581</ele>
        <time>2022-06-26T10:48:29Z</time>
      </trkpt>
      <trkpt lat="45.88324" lon="4.3744">
        <ele>581.2</ele>
        <time>2022-06-26T10:48:30Z</time>
      </trkpt>
      <trkpt lat="45.88323" lon="4.37438">
        <ele>581.2</ele>
        <time>2022-06-26T10:48:31Z</time>
      </trkpt>
      <trkpt lat="45.88322" lon="4.37436">
        <ele>581.4</ele>
        <time>2022-06-26T10:48:32Z</time>
      </trkpt>
      <trkpt lat="45.88321" lon="4.37433">
        <ele>581.6</ele>
        <time>2022-06-26T10:48:33Z</time>
      </trkpt>
      <trkpt lat="45.8832" lon="4.37431">
        <ele>581.6</ele>
        <time>2022-06-26T10:48:34Z</time>
      </trkpt>
      <trkpt lat="45.88319" lon="4.37429">
        <ele>582</ele>
        <time>2022-06-26T10:48:35Z</time>
      </trkpt>
      <trkpt lat="45.88317" lon="4.37427">
        <ele>582</ele>
        <time>2022-06-26T10:48:36Z</time>
      </trkpt>
      <trkpt lat="45.88316" lon="4.37425">
        <ele>582.2</ele>
        <time>2022-06-26T10:48:37Z</time>
      </trkpt>
      <trkpt lat="45.88315" lon="4.37424">
        <ele>582.2</ele>
        <time>2022-06-26T10:48:38Z</time>
      </trkpt>
      <trkpt lat="45.88313" lon="4.37422">
        <ele>582.6</ele>
        <time>2022-06-26T10:48:39Z</time>
      </trkpt>
      <trkpt lat="45.88312" lon="4.37419">
        <ele>582.6</ele>
        <time>2022-06-26T10:48:40Z</time>
      </trkpt>
      <trkpt lat="45.88311" lon="4.37417">
        <ele>582.6</ele>
        <time>2022-06-26T10:48:41Z</time>
      </trkpt>
      <trkpt lat="45.8831" lon="4.37414">
        <ele>582.8</ele>
        <time>2022-06-26T10:48:42Z</time>
      </trkpt>
      <trkpt lat="45.88309" lon="4.37412">
        <ele>582.8</ele>
        <time>2022-06-26T10:48:43Z</time>
      </trkpt>
      <trkpt lat="45.88308" lon="4.3741">
        <ele>583.2</ele>
        <time>2022-06-26T10:48:44Z</time>
      </trkpt>
      <trkpt lat="45.88307" lon="4.37408">
        <ele>583.2</ele>
        <time>2022-06-26T10:48:45Z</time>
      </trkpt>
      <trkpt lat="45.88305" lon="4.37406">
        <ele>583.4</ele>
        <time>2022-06-26T10:48:46Z</time>
      </trkpt>
      <trkpt lat="45.88304" lon="4.37404">
        <ele>583.4</ele>
        <time>2022-06-26T10:48:47Z</time>
      </trkpt>
      <trkpt lat="45.88303" lon="4.37402">
        <ele>583.8</ele>
        <time>2022-06-26T10:48:48Z</time>
      </trkpt>
      <trkpt lat="45.88301" lon="4.37401">
        <ele>583.8</ele>
        <time>2022-06-26T10:48:49Z</time>
      </trkpt>
      <trkpt lat="45.883" lon="4.37399">
        <ele>584</ele>
        <time>2022-06-26T10:48:50Z</time>
      </trkpt>
      <trkpt lat="45.88299" lon="4.37397">
        <ele>584</ele>
        <time>2022-06-26T10:48:51Z</time>
      </trkpt>
      <trkpt lat="45.88298" lon="4.37395">
        <ele>584.4</ele>
        <time>2022-06-26T10:48:52Z</time>
      </trkpt>
      <trkpt lat="45.88297" lon="4.37393">
        <ele>584.4</ele>
        <time>2022-06-26T10:48:53Z</time>
      </trkpt>
      <trkpt lat="45.88295" lon="4.37391">
        <ele>584.8</ele>
        <time>2022-06-26T10:48:54Z</time>
      </trkpt>
      <trkpt lat="45.88294" lon="4.3739">
        <ele>584.8</ele>
        <time>2022-06-26T10:48:55Z</time>
      </trkpt>
      <trkpt lat="45.88292" lon="4.37388">
        <ele>585.2</ele>
        <time>2022-06-26T10:48:56Z</time>
      </trkpt>
      <trkpt lat="45.88291" lon="4.37387">
        <ele>585.2</ele>
        <time>2022-06-26T10:48:57Z</time>
      </trkpt>
      <trkpt lat="45.88289" lon="4.37386">
        <ele>585.6</ele>
        <time>2022-06-26T10:48:58Z</time>
      </trkpt>
      <trkpt lat="45.88287" lon="4.37386">
        <ele>585.6</ele>
        <time>2022-06-26T10:48:59Z</time>
      </trkpt>
      <trkpt lat="45.88285" lon="4.37385">
        <ele>585.8</ele>
        <time>2022-06-26T10:49:00Z</time>
      </trkpt>
      <trkpt lat="45.88283" lon="4.37384">
        <ele>585.8</ele>
        <time>2022-06-26T10:49:01Z</time>
      </trkpt>
      <trkpt lat="45.88279" lon="4.37383">
        <ele>586.2</ele>
        <time>2022-06-26T10:49:02Z</time>
      </trkpt>
      <trkpt lat="45.88277" lon="4.37382">
        <ele>586.4</ele>
        <time>2022-06-26T10:49:03Z</time>
      </trkpt>
      <trkpt lat="45.88274" lon="4.37382">
        <ele>586.6</ele>
        <time>2022-06-26T10:49:04Z</time>
      </trkpt>
      <trkpt lat="45.88272" lon="4.37382">
        <ele>586.6</ele>
        <time>2022-06-26T10:49:05Z</time>
      </trkpt>
      <trkpt lat="45.8827" lon="4.37381">
        <ele>587</ele>
        <time>2022-06-26T10:49:06Z</time>
      </trkpt>
      <trkpt lat="45.88268" lon="4.37381">
        <ele>587.2</ele>
        <time>2022-06-26T10:49:07Z</time>
      </trkpt>
      <trkpt lat="45.88266" lon="4.37382">
        <ele>587.2</ele>
        <time>2022-06-26T10:49:08Z</time>
      </trkpt>
      <trkpt lat="45.88264" lon="4.37382">
        <ele>587.4</ele>
        <time>2022-06-26T10:49:09Z</time>
      </trkpt>
      <trkpt lat="45.88262" lon="4.37383">
        <ele>587.4</ele>
        <time>2022-06-26T10:49:10Z</time>
      </trkpt>
      <trkpt lat="45.8826" lon="4.37383">
        <ele>587.8</ele>
        <time>2022-06-26T10:49:11Z</time>
      </trkpt>
      <trkpt lat="45.88258" lon="4.37384">
        <ele>587.8</ele>
        <time>2022-06-26T10:49:12Z</time>
      </trkpt>
      <trkpt lat="45.88256" lon="4.37384">
        <ele>588</ele>
        <time>2022-06-26T10:49:13Z</time>
      </trkpt>
      <trkpt lat="45.88254" lon="4.37385">
        <ele>588</ele>
        <time>2022-06-26T10:49:14Z</time>
      </trkpt>
      <trkpt lat="45.88252" lon="4.37385">
        <ele>588.4</ele>
        <time>2022-06-26T10:49:15Z</time>
      </trkpt>
      <trkpt lat="45.8825" lon="4.37386">
        <ele>588.4</ele>
        <time>2022-06-26T10:49:16Z</time>
      </trkpt>
      <trkpt lat="45.88249" lon="4.37387">
        <ele>588.8</ele>
        <time>2022-06-26T10:49:17Z</time>
      </trkpt>
      <trkpt lat="45.88247" lon="4.37388">
        <ele>588.8</ele>
        <time>2022-06-26T10:49:18Z</time>
      </trkpt>
      <trkpt lat="45.88245" lon="4.37389">
        <ele>589</ele>
        <time>2022-06-26T10:49:19Z</time>
      </trkpt>
      <trkpt lat="45.88243" lon="4.3739">
        <ele>589</ele>
        <time>2022-06-26T10:49:20Z</time>
      </trkpt>
      <trkpt lat="45.88241" lon="4.3739">
        <ele>589.4</ele>
        <time>2022-06-26T10:49:21Z</time>
      </trkpt>
      <trkpt lat="45.88239" lon="4.37392">
        <ele>589.4</ele>
        <time>2022-06-26T10:49:22Z</time>
      </trkpt>
      <trkpt lat="45.88238" lon="4.37393">
        <ele>589.6</ele>
        <time>2022-06-26T10:49:23Z</time>
      </trkpt>
      <trkpt lat="45.88236" lon="4.37394">
        <ele>589.6</ele>
        <time>2022-06-26T10:49:24Z</time>
      </trkpt>
      <trkpt lat="45.88235" lon="4.37394">
        <ele>590</ele>
        <time>2022-06-26T10:49:25Z</time>
      </trkpt>
      <trkpt lat="45.88233" lon="4.37394">
        <ele>590</ele>
        <time>2022-06-26T10:49:26Z</time>
      </trkpt>
      <trkpt lat="45.88231" lon="4.37394">
        <ele>590.2</ele>
        <time>2022-06-26T10:49:27Z</time>
      </trkpt>
      <trkpt lat="45.88229" lon="4.37394">
        <ele>590.4</ele>
        <time>2022-06-26T10:49:28Z</time>
      </trkpt>
      <trkpt lat="45.88227" lon="4.37394">
        <ele>590.4</ele>
        <time>2022-06-26T10:49:29Z</time>
      </trkpt>
      <trkpt lat="45.88225" lon="4.37394">
        <ele>590.8</ele>
        <time>2022-06-26T10:49:30Z</time>
      </trkpt>
      <trkpt lat="45.88223" lon="4.37394">
        <ele>590.8</ele>
        <time>2022-06-26T10:49:31Z</time>
      </trkpt>
      <trkpt lat="45.88221" lon="4.37393">
        <ele>591</ele>
        <time>2022-06-26T10:49:32Z</time>
      </trkpt>
      <trkpt lat="45.8822" lon="4.37393">
        <ele>591</ele>
        <time>2022-06-26T10:49:33Z</time>
      </trkpt>
      <trkpt lat="45.88218" lon="4.37392">
        <ele>591.2</ele>
        <time>2022-06-26T10:49:34Z</time>
      </trkpt>
      <trkpt lat="45.88216" lon="4.37392">
        <ele>591.2</ele>
        <time>2022-06-26T10:49:35Z</time>
      </trkpt>
      <trkpt lat="45.88214" lon="4.37391">
        <ele>591.6</ele>
        <time>2022-06-26T10:49:36Z</time>
      </trkpt>
      <trkpt lat="45.88212" lon="4.3739">
        <ele>591.6</ele>
        <time>2022-06-26T10:49:37Z</time>
      </trkpt>
      <trkpt lat="45.8821" lon="4.37389">
        <ele>591.8</ele>
        <time>2022-06-26T10:49:38Z</time>
      </trkpt>
      <trkpt lat="45.88208" lon="4.37388">
        <ele>591.8</ele>
        <time>2022-06-26T10:49:39Z</time>
      </trkpt>
      <trkpt lat="45.88207" lon="4.37388">
        <ele>592.2</ele>
        <time>2022-06-26T10:49:40Z</time>
      </trkpt>
      <trkpt lat="45.88205" lon="4.37387">
        <ele>592.2</ele>
        <time>2022-06-26T10:49:41Z</time>
      </trkpt>
      <trkpt lat="45.88204" lon="4.37386">
        <ele>592.4</ele>
        <time>2022-06-26T10:49:42Z</time>
      </trkpt>
      <trkpt lat="45.88202" lon="4.37384">
        <ele>592.4</ele>
        <time>2022-06-26T10:49:43Z</time>
      </trkpt>
      <trkpt lat="45.88201" lon="4.37383">
        <ele>592.6</ele>
        <time>2022-06-26T10:49:44Z</time>
      </trkpt>
      <trkpt lat="45.88199" lon="4.37382">
        <ele>592.6</ele>
        <time>2022-06-26T10:49:45Z</time>
      </trkpt>
      <trkpt lat="45.88197" lon="4.3738">
        <ele>593</ele>
        <time>2022-06-26T10:49:46Z</time>
      </trkpt>
      <trkpt lat="45.88196" lon="4.37379">
        <ele>593</ele>
        <time>2022-06-26T10:49:47Z</time>
      </trkpt>
      <trkpt lat="45.88194" lon="4.37377">
        <ele>593.4</ele>
        <time>2022-06-26T10:49:48Z</time>
      </trkpt>
      <trkpt lat="45.88193" lon="4.37375">
        <ele>593.4</ele>
        <time>2022-06-26T10:49:49Z</time>
      </trkpt>
      <trkpt lat="45.88192" lon="4.37373">
        <ele>593.8</ele>
        <time>2022-06-26T10:49:50Z</time>
      </trkpt>
      <trkpt lat="45.88191" lon="4.37371">
        <ele>594</ele>
        <time>2022-06-26T10:49:51Z</time>
      </trkpt>
      <trkpt lat="45.8819" lon="4.37369">
        <ele>594</ele>
        <time>2022-06-26T10:49:52Z</time>
      </trkpt>
      <trkpt lat="45.88189" lon="4.37366">
        <ele>594.2</ele>
        <time>2022-06-26T10:49:53Z</time>
      </trkpt>
      <trkpt lat="45.88187" lon="4.37364">
        <ele>594.2</ele>
        <time>2022-06-26T10:49:54Z</time>
      </trkpt>
      <trkpt lat="45.88186" lon="4.37362">
        <ele>594.6</ele>
        <time>2022-06-26T10:49:55Z</time>
      </trkpt>
      <trkpt lat="45.88185" lon="4.3736">
        <ele>594.6</ele>
        <time>2022-06-26T10:49:56Z</time>
      </trkpt>
      <trkpt lat="45.88184" lon="4.37357">
        <ele>594.8</ele>
        <time>2022-06-26T10:49:57Z</time>
      </trkpt>
      <trkpt lat="45.88183" lon="4.37355">
        <ele>594.8</ele>
        <time>2022-06-26T10:49:58Z</time>
      </trkpt>
      <trkpt lat="45.88182" lon="4.37353">
        <ele>595.2</ele>
        <time>2022-06-26T10:49:59Z</time>
      </trkpt>
      <trkpt lat="45.88182" lon="4.37351">
        <ele>595.2</ele>
        <time>2022-06-26T10:50:00Z</time>
      </trkpt>
      <trkpt lat="45.88181" lon="4.37349">
        <ele>595.6</ele>
        <time>2022-06-26T10:50:01Z</time>
      </trkpt>
      <trkpt lat="45.8818" lon="4.37347">
        <ele>595.6</ele>
        <time>2022-06-26T10:50:02Z</time>
      </trkpt>
      <trkpt lat="45.88179" lon="4.37345">
        <ele>596</ele>
        <time>2022-06-26T10:50:03Z</time>
      </trkpt>
      <trkpt lat="45.88178" lon="4.37343">
        <ele>596</ele>
        <time>2022-06-26T10:50:04Z</time>
      </trkpt>
      <trkpt lat="45.88176" lon="4.37341">
        <ele>596.4</ele>
        <time>2022-06-26T10:50:05Z</time>
      </trkpt>
      <trkpt lat="45.88175" lon="4.3734">
        <ele>596.4</ele>
        <time>2022-06-26T10:50:06Z</time>
      </trkpt>
      <trkpt lat="45.88173" lon="4.37338">
        <ele>596.6</ele>
        <time>2022-06-26T10:50:07Z</time>
      </trkpt>
      <trkpt lat="45.88172" lon="4.37336">
        <ele>596.6</ele>
        <time>2022-06-26T10:50:08Z</time>
      </trkpt>
      <trkpt lat="45.8817" lon="4.37335">
        <ele>597</ele>
        <time>2022-06-26T10:50:09Z</time>
      </trkpt>
      <trkpt lat="45.88169" lon="4.37333">
        <ele>597</ele>
        <time>2022-06-26T10:50:10Z</time>
      </trkpt>
      <trkpt lat="45.88167" lon="4.37332">
        <ele>597.4</ele>
        <time>2022-06-26T10:50:11Z</time>
      </trkpt>
      <trkpt lat="45.88166" lon="4.3733">
        <ele>597.4</ele>
        <time>2022-06-26T10:50:12Z</time>
      </trkpt>
      <trkpt lat="45.88164" lon="4.37329">
        <ele>597.6</ele>
        <time>2022-06-26T10:50:13Z</time>
      </trkpt>
      <trkpt lat="45.88163" lon="4.37328">
        <ele>597.8</ele>
        <time>2022-06-26T10:50:14Z</time>
      </trkpt>
      <trkpt lat="45.88161" lon="4.37326">
        <ele>598</ele>
        <time>2022-06-26T10:50:15Z</time>
      </trkpt>
      <trkpt lat="45.8816" lon="4.37325">
        <ele>598</ele>
        <time>2022-06-26T10:50:16Z</time>
      </trkpt>
      <trkpt lat="45.88158" lon="4.37324">
        <ele>598.2</ele>
        <time>2022-06-26T10:50:17Z</time>
      </trkpt>
      <trkpt lat="45.88157" lon="4.37323">
        <ele>598.2</ele>
        <time>2022-06-26T10:50:18Z</time>
      </trkpt>
      <trkpt lat="45.88155" lon="4.37321">
        <ele>598.6</ele>
        <time>2022-06-26T10:50:19Z</time>
      </trkpt>
      <trkpt lat="45.88154" lon="4.37319">
        <ele>598.8</ele>
        <time>2022-06-26T10:50:20Z</time>
      </trkpt>
      <trkpt lat="45.88152" lon="4.37318">
        <ele>598.8</ele>
        <time>2022-06-26T10:50:21Z</time>
      </trkpt>
      <trkpt lat="45.8815" lon="4.37316">
        <ele>599</ele>
        <time>2022-06-26T10:50:22Z</time>
      </trkpt>
      <trkpt lat="45.88148" lon="4.37315">
        <ele>599</ele>
        <time>2022-06-26T10:50:23Z</time>
      </trkpt>
      <trkpt lat="45.88146" lon="4.37313">
        <ele>599.2</ele>
        <time>2022-06-26T10:50:24Z</time>
      </trkpt>
      <trkpt lat="45.88144" lon="4.37312">
        <ele>599.2</ele>
        <time>2022-06-26T10:50:25Z</time>
      </trkpt>
      <trkpt lat="45.88141" lon="4.37311">
        <ele>599.4</ele>
        <time>2022-06-26T10:50:26Z</time>
      </trkpt>
      <trkpt lat="45.88139" lon="4.3731">
        <ele>599.4</ele>
        <time>2022-06-26T10:50:27Z</time>
      </trkpt>
      <trkpt lat="45.88137" lon="4.37309">
        <ele>599.8</ele>
        <time>2022-06-26T10:50:28Z</time>
      </trkpt>
      <trkpt lat="45.88135" lon="4.37307">
        <ele>600</ele>
        <time>2022-06-26T10:50:29Z</time>
      </trkpt>
      <trkpt lat="45.88133" lon="4.37306">
        <ele>600</ele>
        <time>2022-06-26T10:50:30Z</time>
      </trkpt>
      <trkpt lat="45.88131" lon="4.37304">
        <ele>600.4</ele>
        <time>2022-06-26T10:50:31Z</time>
      </trkpt>
      <trkpt lat="45.8813" lon="4.37303">
        <ele>600.4</ele>
        <time>2022-06-26T10:50:32Z</time>
      </trkpt>
      <trkpt lat="45.88128" lon="4.37302">
        <ele>600.6</ele>
        <time>2022-06-26T10:50:33Z</time>
      </trkpt>
      <trkpt lat="45.88126" lon="4.37301">
        <ele>600.6</ele>
        <time>2022-06-26T10:50:34Z</time>
      </trkpt>
      <trkpt lat="45.88125" lon="4.37299">
        <ele>601</ele>
        <time>2022-06-26T10:50:35Z</time>
      </trkpt>
      <trkpt lat="45.88123" lon="4.37298">
        <ele>601.2</ele>
        <time>2022-06-26T10:50:36Z</time>
      </trkpt>
      <trkpt lat="45.88122" lon="4.37296">
        <ele>601.2</ele>
        <time>2022-06-26T10:50:37Z</time>
      </trkpt>
      <trkpt lat="45.8812" lon="4.37294">
        <ele>601.4</ele>
        <time>2022-06-26T10:50:38Z</time>
      </trkpt>
      <trkpt lat="45.88119" lon="4.37292">
        <ele>601.8</ele>
        <time>2022-06-26T10:50:39Z</time>
      </trkpt>
      <trkpt lat="45.88117" lon="4.37291">
        <ele>601.8</ele>
        <time>2022-06-26T10:50:40Z</time>
      </trkpt>
      <trkpt lat="45.88116" lon="4.3729">
        <ele>602.2</ele>
        <time>2022-06-26T10:50:41Z</time>
      </trkpt>
      <trkpt lat="45.88114" lon="4.37289">
        <ele>602.2</ele>
        <time>2022-06-26T10:50:42Z</time>
      </trkpt>
      <trkpt lat="45.88112" lon="4.37288">
        <ele>602.4</ele>
        <time>2022-06-26T10:50:43Z</time>
      </trkpt>
      <trkpt lat="45.88111" lon="4.37288">
        <ele>602.4</ele>
        <time>2022-06-26T10:50:44Z</time>
      </trkpt>
      <trkpt lat="45.88109" lon="4.37287">
        <ele>602.8</ele>
        <time>2022-06-26T10:50:45Z</time>
      </trkpt>
      <trkpt lat="45.88107" lon="4.37286">
        <ele>602.8</ele>
        <time>2022-06-26T10:50:46Z</time>
      </trkpt>
      <trkpt lat="45.88106" lon="4.37285">
        <ele>603</ele>
        <time>2022-06-26T10:50:47Z</time>
      </trkpt>
      <trkpt lat="45.88104" lon="4.37284">
        <ele>603</ele>
        <time>2022-06-26T10:50:48Z</time>
      </trkpt>
      <trkpt lat="45.88103" lon="4.37283">
        <ele>603.4</ele>
        <time>2022-06-26T10:50:49Z</time>
      </trkpt>
      <trkpt lat="45.88101" lon="4.37282">
        <ele>603.4</ele>
        <time>2022-06-26T10:50:50Z</time>
      </trkpt>
      <trkpt lat="45.881" lon="4.3728">
        <ele>603.6</ele>
        <time>2022-06-26T10:50:51Z</time>
      </trkpt>
      <trkpt lat="45.88098" lon="4.37278">
        <ele>603.6</ele>
        <time>2022-06-26T10:50:52Z</time>
      </trkpt>
      <trkpt lat="45.88097" lon="4.37276">
        <ele>604</ele>
        <time>2022-06-26T10:50:53Z</time>
      </trkpt>
      <trkpt lat="45.88095" lon="4.37275">
        <ele>604</ele>
        <time>2022-06-26T10:50:54Z</time>
      </trkpt>
      <trkpt lat="45.88094" lon="4.37274">
        <ele>604.4</ele>
        <time>2022-06-26T10:50:55Z</time>
      </trkpt>
      <trkpt lat="45.88092" lon="4.37272">
        <ele>604.4</ele>
        <time>2022-06-26T10:50:56Z</time>
      </trkpt>
      <trkpt lat="45.8809" lon="4.37272">
        <ele>604.6</ele>
        <time>2022-06-26T10:50:57Z</time>
      </trkpt>
      <trkpt lat="45.88089" lon="4.37271">
        <ele>604.6</ele>
        <time>2022-06-26T10:50:58Z</time>
      </trkpt>
      <trkpt lat="45.88087" lon="4.3727">
        <ele>605</ele>
        <time>2022-06-26T10:50:59Z</time>
      </trkpt>
      <trkpt lat="45.88085" lon="4.37269">
        <ele>605</ele>
        <time>2022-06-26T10:51:00Z</time>
      </trkpt>
      <trkpt lat="45.88083" lon="4.37268">
        <ele>605.4</ele>
        <time>2022-06-26T10:51:01Z</time>
      </trkpt>
      <trkpt lat="45.88081" lon="4.37267">
        <ele>605.4</ele>
        <time>2022-06-26T10:51:02Z</time>
      </trkpt>
      <trkpt lat="45.88079" lon="4.37266">
        <ele>605.6</ele>
        <time>2022-06-26T10:51:03Z</time>
      </trkpt>
      <trkpt lat="45.88077" lon="4.37266">
        <ele>605.6</ele>
        <time>2022-06-26T10:51:04Z</time>
      </trkpt>
      <trkpt lat="45.88075" lon="4.37265">
        <ele>605.8</ele>
        <time>2022-06-26T10:51:05Z</time>
      </trkpt>
      <trkpt lat="45.88073" lon="4.37264">
        <ele>605.8</ele>
        <time>2022-06-26T10:51:06Z</time>
      </trkpt>
      <trkpt lat="45.88072" lon="4.37262">
        <ele>606.2</ele>
        <time>2022-06-26T10:51:07Z</time>
      </trkpt>
      <trkpt lat="45.8807" lon="4.37261">
        <ele>606.2</ele>
        <time>2022-06-26T10:51:08Z</time>
      </trkpt>
      <trkpt lat="45.88069" lon="4.3726">
        <ele>606.4</ele>
        <time>2022-06-26T10:51:09Z</time>
      </trkpt>
      <trkpt lat="45.88067" lon="4.37259">
        <ele>606.4</ele>
        <time>2022-06-26T10:51:10Z</time>
      </trkpt>
      <trkpt lat="45.88065" lon="4.37259">
        <ele>606.6</ele>
        <time>2022-06-26T10:51:11Z</time>
      </trkpt>
      <trkpt lat="45.88063" lon="4.37258">
        <ele>606.6</ele>
        <time>2022-06-26T10:51:12Z</time>
      </trkpt>
      <trkpt lat="45.88061" lon="4.37257">
        <ele>607</ele>
        <time>2022-06-26T10:51:13Z</time>
      </trkpt>
      <trkpt lat="45.8806" lon="4.37256">
        <ele>607</ele>
        <time>2022-06-26T10:51:14Z</time>
      </trkpt>
      <trkpt lat="45.88058" lon="4.37255">
        <ele>607.2</ele>
        <time>2022-06-26T10:51:15Z</time>
      </trkpt>
      <trkpt lat="45.88056" lon="4.37255">
        <ele>607.2</ele>
        <time>2022-06-26T10:51:16Z</time>
      </trkpt>
      <trkpt lat="45.88054" lon="4.37254">
        <ele>607.6</ele>
        <time>2022-06-26T10:51:17Z</time>
      </trkpt>
      <trkpt lat="45.88052" lon="4.37254">
        <ele>607.6</ele>
        <time>2022-06-26T10:51:18Z</time>
      </trkpt>
      <trkpt lat="45.8805" lon="4.37254">
        <ele>607.8</ele>
        <time>2022-06-26T10:51:19Z</time>
      </trkpt>
      <trkpt lat="45.88048" lon="4.37254">
        <ele>607.8</ele>
        <time>2022-06-26T10:51:20Z</time>
      </trkpt>
      <trkpt lat="45.88046" lon="4.37254">
        <ele>608.2</ele>
        <time>2022-06-26T10:51:21Z</time>
      </trkpt>
      <trkpt lat="45.88044" lon="4.37253">
        <ele>608.2</ele>
        <time>2022-06-26T10:51:22Z</time>
      </trkpt>
      <trkpt lat="45.88042" lon="4.37252">
        <ele>608.4</ele>
        <time>2022-06-26T10:51:23Z</time>
      </trkpt>
      <trkpt lat="45.88041" lon="4.37252">
        <ele>608.4</ele>
        <time>2022-06-26T10:51:24Z</time>
      </trkpt>
      <trkpt lat="45.88038" lon="4.37251">
        <ele>608.6</ele>
        <time>2022-06-26T10:51:25Z</time>
      </trkpt>
      <trkpt lat="45.88036" lon="4.37251">
        <ele>608.6</ele>
        <time>2022-06-26T10:51:26Z</time>
      </trkpt>
      <trkpt lat="45.88034" lon="4.3725">
        <ele>609</ele>
        <time>2022-06-26T10:51:27Z</time>
      </trkpt>
      <trkpt lat="45.88031" lon="4.37251">
        <ele>609</ele>
        <time>2022-06-26T10:51:28Z</time>
      </trkpt>
      <trkpt lat="45.88029" lon="4.37251">
        <ele>609.2</ele>
        <time>2022-06-26T10:51:29Z</time>
      </trkpt>
      <trkpt lat="45.88027" lon="4.37251">
        <ele>609.2</ele>
        <time>2022-06-26T10:51:30Z</time>
      </trkpt>
      <trkpt lat="45.88025" lon="4.37251">
        <ele>609.4</ele>
        <time>2022-06-26T10:51:31Z</time>
      </trkpt>
      <trkpt lat="45.88023" lon="4.37251">
        <ele>609.4</ele>
        <time>2022-06-26T10:51:32Z</time>
      </trkpt>
      <trkpt lat="45.88021" lon="4.37251">
        <ele>609.6</ele>
        <time>2022-06-26T10:51:33Z</time>
      </trkpt>
      <trkpt lat="45.8802" lon="4.37251">
        <ele>609.6</ele>
        <time>2022-06-26T10:51:34Z</time>
      </trkpt>
      <trkpt lat="45.88018" lon="4.37251">
        <ele>609.6</ele>
        <time>2022-06-26T10:51:35Z</time>
      </trkpt>
      <trkpt lat="45.88016" lon="4.37252">
        <ele>610</ele>
        <time>2022-06-26T10:51:36Z</time>
      </trkpt>
      <trkpt lat="45.88014" lon="4.37252">
        <ele>610</ele>
        <time>2022-06-26T10:51:37Z</time>
      </trkpt>
      <trkpt lat="45.88012" lon="4.37253">
        <ele>610.2</ele>
        <time>2022-06-26T10:51:38Z</time>
      </trkpt>
      <trkpt lat="45.8801" lon="4.37253">
        <ele>610.2</ele>
        <time>2022-06-26T10:51:39Z</time>
      </trkpt>
      <trkpt lat="45.88008" lon="4.37254">
        <ele>610.6</ele>
        <time>2022-06-26T10:51:40Z</time>
      </trkpt>
      <trkpt lat="45.88007" lon="4.37254">
        <ele>610.6</ele>
        <time>2022-06-26T10:51:41Z</time>
      </trkpt>
      <trkpt lat="45.88005" lon="4.37255">
        <ele>610.8</ele>
        <time>2022-06-26T10:51:42Z</time>
      </trkpt>
      <trkpt lat="45.88003" lon="4.37255">
        <ele>610.8</ele>
        <time>2022-06-26T10:51:43Z</time>
      </trkpt>
      <trkpt lat="45.88002" lon="4.37257">
        <ele>610.8</ele>
        <time>2022-06-26T10:51:44Z</time>
      </trkpt>
      <trkpt lat="45.88" lon="4.37258">
        <ele>611</ele>
        <time>2022-06-26T10:51:45Z</time>
      </trkpt>
      <trkpt lat="45.87998" lon="4.3726">
        <ele>611</ele>
        <time>2022-06-26T10:51:46Z</time>
      </trkpt>
      <trkpt lat="45.87996" lon="4.37261">
        <ele>611.4</ele>
        <time>2022-06-26T10:51:47Z</time>
      </trkpt>
      <trkpt lat="45.87995" lon="4.37263">
        <ele>611.4</ele>
        <time>2022-06-26T10:51:48Z</time>
      </trkpt>
      <trkpt lat="45.87993" lon="4.37265">
        <ele>611.8</ele>
        <time>2022-06-26T10:51:49Z</time>
      </trkpt>
      <trkpt lat="45.87992" lon="4.37267">
        <ele>611.8</ele>
        <time>2022-06-26T10:51:50Z</time>
      </trkpt>
      <trkpt lat="45.8799" lon="4.37271">
        <ele>612</ele>
        <time>2022-06-26T10:51:51Z</time>
      </trkpt>
      <trkpt lat="45.87989" lon="4.37273">
        <ele>612</ele>
        <time>2022-06-26T10:51:52Z</time>
      </trkpt>
      <trkpt lat="45.87988" lon="4.37276">
        <ele>612.4</ele>
        <time>2022-06-26T10:51:53Z</time>
      </trkpt>
      <trkpt lat="45.87986" lon="4.37278">
        <ele>612.6</ele>
        <time>2022-06-26T10:51:54Z</time>
      </trkpt>
      <trkpt lat="45.87985" lon="4.3728">
        <ele>612.6</ele>
        <time>2022-06-26T10:51:55Z</time>
      </trkpt>
      <trkpt lat="45.87984" lon="4.37283">
        <ele>613</ele>
        <time>2022-06-26T10:51:56Z</time>
      </trkpt>
      <trkpt lat="45.87983" lon="4.37285">
        <ele>613</ele>
        <time>2022-06-26T10:51:57Z</time>
      </trkpt>
      <trkpt lat="45.87981" lon="4.37288">
        <ele>613.2</ele>
        <time>2022-06-26T10:51:58Z</time>
      </trkpt>
      <trkpt lat="45.8798" lon="4.37292">
        <ele>613.4</ele>
        <time>2022-06-26T10:51:59Z</time>
      </trkpt>
      <trkpt lat="45.87979" lon="4.37295">
        <ele>613.4</ele>
        <time>2022-06-26T10:52:00Z</time>
      </trkpt>
      <trkpt lat="45.87978" lon="4.373">
        <ele>613.8</ele>
        <time>2022-06-26T10:52:01Z</time>
      </trkpt>
      <trkpt lat="45.87976" lon="4.37303">
        <ele>613.8</ele>
        <time>2022-06-26T10:52:02Z</time>
      </trkpt>
      <trkpt lat="45.87976" lon="4.37306">
        <ele>614</ele>
        <time>2022-06-26T10:52:03Z</time>
      </trkpt>
      <trkpt lat="45.87975" lon="4.37309">
        <ele>614</ele>
        <time>2022-06-26T10:52:04Z</time>
      </trkpt>
      <trkpt lat="45.87974" lon="4.37312">
        <ele>614.4</ele>
        <time>2022-06-26T10:52:05Z</time>
      </trkpt>
      <trkpt lat="45.87974" lon="4.37314">
        <ele>614.4</ele>
        <time>2022-06-26T10:52:06Z</time>
      </trkpt>
      <trkpt lat="45.87973" lon="4.37317">
        <ele>614.6</ele>
        <time>2022-06-26T10:52:07Z</time>
      </trkpt>
      <trkpt lat="45.87973" lon="4.3732">
        <ele>614.6</ele>
        <time>2022-06-26T10:52:08Z</time>
      </trkpt>
      <trkpt lat="45.87972" lon="4.37322">
        <ele>614.8</ele>
        <time>2022-06-26T10:52:09Z</time>
      </trkpt>
      <trkpt lat="45.87972" lon="4.37324">
        <ele>614.8</ele>
        <time>2022-06-26T10:52:10Z</time>
      </trkpt>
      <trkpt lat="45.87972" lon="4.37327">
        <ele>615.2</ele>
        <time>2022-06-26T10:52:11Z</time>
      </trkpt>
      <trkpt lat="45.87972" lon="4.37331">
        <ele>615.2</ele>
        <time>2022-06-26T10:52:12Z</time>
      </trkpt>
      <trkpt lat="45.87972" lon="4.37334">
        <ele>615.4</ele>
        <time>2022-06-26T10:52:13Z</time>
      </trkpt>
      <trkpt lat="45.87972" lon="4.37337">
        <ele>615.4</ele>
        <time>2022-06-26T10:52:14Z</time>
      </trkpt>
      <trkpt lat="45.87972" lon="4.3734">
        <ele>615.4</ele>
        <time>2022-06-26T10:52:15Z</time>
      </trkpt>
      <trkpt lat="45.87972" lon="4.37344">
        <ele>615.6</ele>
        <time>2022-06-26T10:52:16Z</time>
      </trkpt>
      <trkpt lat="45.87972" lon="4.37347">
        <ele>615.6</ele>
        <time>2022-06-26T10:52:17Z</time>
      </trkpt>
      <trkpt lat="45.87972" lon="4.37351">
        <ele>615.8</ele>
        <time>2022-06-26T10:52:18Z</time>
      </trkpt>
      <trkpt lat="45.87971" lon="4.37355">
        <ele>615.8</ele>
        <time>2022-06-26T10:52:19Z</time>
      </trkpt>
      <trkpt lat="45.87971" lon="4.37359">
        <ele>616.2</ele>
        <time>2022-06-26T10:52:20Z</time>
      </trkpt>
      <trkpt lat="45.87971" lon="4.37362">
        <ele>616.2</ele>
        <time>2022-06-26T10:52:21Z</time>
      </trkpt>
      <trkpt lat="45.87971" lon="4.37366">
        <ele>616.4</ele>
        <time>2022-06-26T10:52:22Z</time>
      </trkpt>
      <trkpt lat="45.87971" lon="4.37369">
        <ele>616.4</ele>
        <time>2022-06-26T10:52:23Z</time>
      </trkpt>
      <trkpt lat="45.87972" lon="4.37373">
        <ele>616.6</ele>
        <time>2022-06-26T10:52:24Z</time>
      </trkpt>
      <trkpt lat="45.87972" lon="4.37376">
        <ele>616.6</ele>
        <time>2022-06-26T10:52:25Z</time>
      </trkpt>
      <trkpt lat="45.87972" lon="4.37379">
        <ele>617</ele>
        <time>2022-06-26T10:52:26Z</time>
      </trkpt>
      <trkpt lat="45.87972" lon="4.37383">
        <ele>617.2</ele>
        <time>2022-06-26T10:52:27Z</time>
      </trkpt>
      <trkpt lat="45.87971" lon="4.37387">
        <ele>617.2</ele>
        <time>2022-06-26T10:52:28Z</time>
      </trkpt>
      <trkpt lat="45.87971" lon="4.3739">
        <ele>617.6</ele>
        <time>2022-06-26T10:52:29Z</time>
      </trkpt>
      <trkpt lat="45.87971" lon="4.37394">
        <ele>617.6</ele>
        <time>2022-06-26T10:52:30Z</time>
      </trkpt>
      <trkpt lat="45.87971" lon="4.37397">
        <ele>618</ele>
        <time>2022-06-26T10:52:31Z</time>
      </trkpt>
      <trkpt lat="45.87971" lon="4.374">
        <ele>618</ele>
        <time>2022-06-26T10:52:32Z</time>
      </trkpt>
      <trkpt lat="45.87971" lon="4.37404">
        <ele>618.2</ele>
        <time>2022-06-26T10:52:33Z</time>
      </trkpt>
      <trkpt lat="45.87971" lon="4.37407">
        <ele>618.2</ele>
        <time>2022-06-26T10:52:34Z</time>
      </trkpt>
      <trkpt lat="45.87972" lon="4.3741">
        <ele>618.6</ele>
        <time>2022-06-26T10:52:35Z</time>
      </trkpt>
      <trkpt lat="45.87971" lon="4.37413">
        <ele>618.6</ele>
        <time>2022-06-26T10:52:36Z</time>
      </trkpt>
      <trkpt lat="45.87971" lon="4.37416">
        <ele>618.8</ele>
        <time>2022-06-26T10:52:37Z</time>
      </trkpt>
      <trkpt lat="45.87971" lon="4.3742">
        <ele>618.8</ele>
        <time>2022-06-26T10:52:38Z</time>
      </trkpt>
      <trkpt lat="45.87971" lon="4.37423">
        <ele>619.2</ele>
        <time>2022-06-26T10:52:39Z</time>
      </trkpt>
      <trkpt lat="45.87971" lon="4.37426">
        <ele>619.2</ele>
        <time>2022-06-26T10:52:40Z</time>
      </trkpt>
      <trkpt lat="45.87971" lon="4.37429">
        <ele>619.6</ele>
        <time>2022-06-26T10:52:41Z</time>
      </trkpt>
      <trkpt lat="45.87971" lon="4.37432">
        <ele>619.6</ele>
        <time>2022-06-26T10:52:42Z</time>
      </trkpt>
      <trkpt lat="45.87971" lon="4.37435">
        <ele>619.8</ele>
        <time>2022-06-26T10:52:43Z</time>
      </trkpt>
      <trkpt lat="45.87971" lon="4.37438">
        <ele>619.8</ele>
        <time>2022-06-26T10:52:44Z</time>
      </trkpt>
      <trkpt lat="45.87971" lon="4.37441">
        <ele>619.8</ele>
        <time>2022-06-26T10:52:45Z</time>
      </trkpt>
      <trkpt lat="45.87971" lon="4.37445">
        <ele>620.2</ele>
        <time>2022-06-26T10:52:46Z</time>
      </trkpt>
      <trkpt lat="45.87971" lon="4.37448">
        <ele>620.2</ele>
        <time>2022-06-26T10:52:47Z</time>
      </trkpt>
      <trkpt lat="45.87971" lon="4.37451">
        <ele>620.4</ele>
        <time>2022-06-26T10:52:48Z</time>
      </trkpt>
      <trkpt lat="45.8797" lon="4.37454">
        <ele>620.4</ele>
        <time>2022-06-26T10:52:49Z</time>
      </trkpt>
      <trkpt lat="45.8797" lon="4.37458">
        <ele>620.6</ele>
        <time>2022-06-26T10:52:50Z</time>
      </trkpt>
      <trkpt lat="45.87969" lon="4.37461">
        <ele>620.6</ele>
        <time>2022-06-26T10:52:51Z</time>
      </trkpt>
      <trkpt lat="45.87968" lon="4.37464">
        <ele>620.8</ele>
        <time>2022-06-26T10:52:52Z</time>
      </trkpt>
      <trkpt lat="45.87967" lon="4.37467">
        <ele>620.8</ele>
        <time>2022-06-26T10:52:53Z</time>
      </trkpt>
      <trkpt lat="45.87967" lon="4.3747">
        <ele>621</ele>
        <time>2022-06-26T10:52:54Z</time>
      </trkpt>
      <trkpt lat="45.87967" lon="4.37474">
        <ele>621</ele>
        <time>2022-06-26T10:52:55Z</time>
      </trkpt>
      <trkpt lat="45.87967" lon="4.37477">
        <ele>621.4</ele>
        <time>2022-06-26T10:52:56Z</time>
      </trkpt>
      <trkpt lat="45.87966" lon="4.3748">
        <ele>621.4</ele>
        <time>2022-06-26T10:52:57Z</time>
      </trkpt>
      <trkpt lat="45.87966" lon="4.37482">
        <ele>621.6</ele>
        <time>2022-06-26T10:52:58Z</time>
      </trkpt>
      <trkpt lat="45.87965" lon="4.37485">
        <ele>621.6</ele>
        <time>2022-06-26T10:52:59Z</time>
      </trkpt>
      <trkpt lat="45.87965" lon="4.37487">
        <ele>622</ele>
        <time>2022-06-26T10:53:00Z</time>
      </trkpt>
      <trkpt lat="45.87965" lon="4.3749">
        <ele>622</ele>
        <time>2022-06-26T10:53:01Z</time>
      </trkpt>
      <trkpt lat="45.87965" lon="4.37493">
        <ele>622.4</ele>
        <time>2022-06-26T10:53:02Z</time>
      </trkpt>
      <trkpt lat="45.87965" lon="4.37495">
        <ele>622.4</ele>
        <time>2022-06-26T10:53:03Z</time>
      </trkpt>
      <trkpt lat="45.87964" lon="4.37498">
        <ele>622.6</ele>
        <time>2022-06-26T10:53:04Z</time>
      </trkpt>
      <trkpt lat="45.87964" lon="4.375">
        <ele>622.6</ele>
        <time>2022-06-26T10:53:05Z</time>
      </trkpt>
      <trkpt lat="45.87963" lon="4.37503">
        <ele>622.8</ele>
        <time>2022-06-26T10:53:06Z</time>
      </trkpt>
      <trkpt lat="45.87961" lon="4.37505">
        <ele>622.8</ele>
        <time>2022-06-26T10:53:07Z</time>
      </trkpt>
      <trkpt lat="45.8796" lon="4.37507">
        <ele>623.2</ele>
        <time>2022-06-26T10:53:08Z</time>
      </trkpt>
      <trkpt lat="45.87959" lon="4.37509">
        <ele>623.2</ele>
        <time>2022-06-26T10:53:09Z</time>
      </trkpt>
      <trkpt lat="45.87958" lon="4.37511">
        <ele>623.4</ele>
        <time>2022-06-26T10:53:10Z</time>
      </trkpt>
      <trkpt lat="45.87956" lon="4.37513">
        <ele>623.4</ele>
        <time>2022-06-26T10:53:11Z</time>
      </trkpt>
      <trkpt lat="45.87955" lon="4.37515">
        <ele>623.6</ele>
        <time>2022-06-26T10:53:12Z</time>
      </trkpt>
      <trkpt lat="45.87954" lon="4.37517">
        <ele>623.6</ele>
        <time>2022-06-26T10:53:13Z</time>
      </trkpt>
      <trkpt lat="45.87953" lon="4.37519">
        <ele>623.8</ele>
        <time>2022-06-26T10:53:14Z</time>
      </trkpt>
      <trkpt lat="45.87952" lon="4.37521">
        <ele>623.8</ele>
        <time>2022-06-26T10:53:15Z</time>
      </trkpt>
      <trkpt lat="45.87951" lon="4.37523">
        <ele>624</ele>
        <time>2022-06-26T10:53:16Z</time>
      </trkpt>
      <trkpt lat="45.87951" lon="4.37526">
        <ele>624</ele>
        <time>2022-06-26T10:53:17Z</time>
      </trkpt>
      <trkpt lat="45.8795" lon="4.37528">
        <ele>624.2</ele>
        <time>2022-06-26T10:53:18Z</time>
      </trkpt>
      <trkpt lat="45.87949" lon="4.3753">
        <ele>624.2</ele>
        <time>2022-06-26T10:53:19Z</time>
      </trkpt>
      <trkpt lat="45.87948" lon="4.37532">
        <ele>624.6</ele>
        <time>2022-06-26T10:53:20Z</time>
      </trkpt>
      <trkpt lat="45.87947" lon="4.37534">
        <ele>624.6</ele>
        <time>2022-06-26T10:53:21Z</time>
      </trkpt>
      <trkpt lat="45.87947" lon="4.37537">
        <ele>624.8</ele>
        <time>2022-06-26T10:53:22Z</time>
      </trkpt>
      <trkpt lat="45.87946" lon="4.37539">
        <ele>624.8</ele>
        <time>2022-06-26T10:53:23Z</time>
      </trkpt>
      <trkpt lat="45.87946" lon="4.37542">
        <ele>625</ele>
        <time>2022-06-26T10:53:24Z</time>
      </trkpt>
      <trkpt lat="45.87945" lon="4.37544">
        <ele>625</ele>
        <time>2022-06-26T10:53:25Z</time>
      </trkpt>
      <trkpt lat="45.87944" lon="4.37547">
        <ele>625</ele>
        <time>2022-06-26T10:53:26Z</time>
      </trkpt>
      <trkpt lat="45.87943" lon="4.37549">
        <ele>625</ele>
        <time>2022-06-26T10:53:27Z</time>
      </trkpt>
      <trkpt lat="45.87942" lon="4.37551">
        <ele>625.4</ele>
        <time>2022-06-26T10:53:28Z</time>
      </trkpt>
      <trkpt lat="45.8794" lon="4.37554">
        <ele>625.4</ele>
        <time>2022-06-26T10:53:29Z</time>
      </trkpt>
      <trkpt lat="45.87939" lon="4.37556">
        <ele>625.6</ele>
        <time>2022-06-26T10:53:30Z</time>
      </trkpt>
      <trkpt lat="45.87938" lon="4.37559">
        <ele>625.6</ele>
        <time>2022-06-26T10:53:31Z</time>
      </trkpt>
      <trkpt lat="45.87937" lon="4.37562">
        <ele>625.8</ele>
        <time>2022-06-26T10:53:32Z</time>
      </trkpt>
      <trkpt lat="45.87937" lon="4.37564">
        <ele>625.8</ele>
        <time>2022-06-26T10:53:33Z</time>
      </trkpt>
      <trkpt lat="45.87936" lon="4.37567">
        <ele>626.2</ele>
        <time>2022-06-26T10:53:34Z</time>
      </trkpt>
      <trkpt lat="45.87935" lon="4.3757">
        <ele>626.4</ele>
        <time>2022-06-26T10:53:35Z</time>
      </trkpt>
      <trkpt lat="45.87934" lon="4.37572">
        <ele>626.4</ele>
        <time>2022-06-26T10:53:36Z</time>
      </trkpt>
      <trkpt lat="45.87933" lon="4.37574">
        <ele>626.6</ele>
        <time>2022-06-26T10:53:37Z</time>
      </trkpt>
      <trkpt lat="45.87933" lon="4.37577">
        <ele>626.6</ele>
        <time>2022-06-26T10:53:38Z</time>
      </trkpt>
      <trkpt lat="45.87932" lon="4.3758">
        <ele>626.8</ele>
        <time>2022-06-26T10:53:39Z</time>
      </trkpt>
      <trkpt lat="45.87931" lon="4.37583">
        <ele>626.8</ele>
        <time>2022-06-26T10:53:40Z</time>
      </trkpt>
      <trkpt lat="45.8793" lon="4.37586">
        <ele>627.2</ele>
        <time>2022-06-26T10:53:41Z</time>
      </trkpt>
      <trkpt lat="45.87929" lon="4.37589">
        <ele>627.2</ele>
        <time>2022-06-26T10:53:42Z</time>
      </trkpt>
      <trkpt lat="45.87929" lon="4.37592">
        <ele>627.4</ele>
        <time>2022-06-26T10:53:43Z</time>
      </trkpt>
      <trkpt lat="45.87928" lon="4.37594">
        <ele>627.4</ele>
        <time>2022-06-26T10:53:44Z</time>
      </trkpt>
      <trkpt lat="45.87927" lon="4.37597">
        <ele>627.6</ele>
        <time>2022-06-26T10:53:45Z</time>
      </trkpt>
      <trkpt lat="45.87926" lon="4.376">
        <ele>627.6</ele>
        <time>2022-06-26T10:53:46Z</time>
      </trkpt>
      <trkpt lat="45.87926" lon="4.37603">
        <ele>628</ele>
        <time>2022-06-26T10:53:47Z</time>
      </trkpt>
      <trkpt lat="45.87925" lon="4.37606">
        <ele>628</ele>
        <time>2022-06-26T10:53:48Z</time>
      </trkpt>
      <trkpt lat="45.87925" lon="4.37609">
        <ele>628.2</ele>
        <time>2022-06-26T10:53:49Z</time>
      </trkpt>
      <trkpt lat="45.87924" lon="4.37613">
        <ele>628.2</ele>
        <time>2022-06-26T10:53:50Z</time>
      </trkpt>
      <trkpt lat="45.87923" lon="4.37616">
        <ele>628.4</ele>
        <time>2022-06-26T10:53:51Z</time>
      </trkpt>
      <trkpt lat="45.87922" lon="4.37618">
        <ele>628.4</ele>
        <time>2022-06-26T10:53:52Z</time>
      </trkpt>
      <trkpt lat="45.87921" lon="4.37621">
        <ele>628.8</ele>
        <time>2022-06-26T10:53:53Z</time>
      </trkpt>
      <trkpt lat="45.87921" lon="4.37623">
        <ele>628.8</ele>
        <time>2022-06-26T10:53:54Z</time>
      </trkpt>
      <trkpt lat="45.8792" lon="4.37626">
        <ele>629</ele>
        <time>2022-06-26T10:53:55Z</time>
      </trkpt>
      <trkpt lat="45.87919" lon="4.37629">
        <ele>629</ele>
        <time>2022-06-26T10:53:56Z</time>
      </trkpt>
      <trkpt lat="45.87919" lon="4.37631">
        <ele>629.2</ele>
        <time>2022-06-26T10:53:57Z</time>
      </trkpt>
      <trkpt lat="45.87918" lon="4.37634">
        <ele>629.2</ele>
        <time>2022-06-26T10:53:58Z</time>
      </trkpt>
      <trkpt lat="45.87918" lon="4.37636">
        <ele>629.6</ele>
        <time>2022-06-26T10:53:59Z</time>
      </trkpt>
      <trkpt lat="45.87918" lon="4.37639">
        <ele>629.6</ele>
        <time>2022-06-26T10:54:00Z</time>
      </trkpt>
      <trkpt lat="45.87918" lon="4.37642">
        <ele>629.8</ele>
        <time>2022-06-26T10:54:01Z</time>
      </trkpt>
      <trkpt lat="45.87918" lon="4.37645">
        <ele>629.8</ele>
        <time>2022-06-26T10:54:02Z</time>
      </trkpt>
      <trkpt lat="45.87917" lon="4.37648">
        <ele>630.2</ele>
        <time>2022-06-26T10:54:03Z</time>
      </trkpt>
      <trkpt lat="45.87917" lon="4.37651">
        <ele>630.2</ele>
        <time>2022-06-26T10:54:04Z</time>
      </trkpt>
      <trkpt lat="45.87917" lon="4.37654">
        <ele>630.2</ele>
        <time>2022-06-26T10:54:05Z</time>
      </trkpt>
      <trkpt lat="45.87916" lon="4.37658">
        <ele>630.4</ele>
        <time>2022-06-26T10:54:06Z</time>
      </trkpt>
      <trkpt lat="45.87916" lon="4.37661">
        <ele>630.4</ele>
        <time>2022-06-26T10:54:07Z</time>
      </trkpt>
      <trkpt lat="45.87916" lon="4.37664">
        <ele>630.6</ele>
        <time>2022-06-26T10:54:08Z</time>
      </trkpt>
      <trkpt lat="45.87916" lon="4.37667">
        <ele>630.6</ele>
        <time>2022-06-26T10:54:09Z</time>
      </trkpt>
      <trkpt lat="45.87917" lon="4.3767">
        <ele>630.8</ele>
        <time>2022-06-26T10:54:10Z</time>
      </trkpt>
      <trkpt lat="45.87917" lon="4.37673">
        <ele>630.8</ele>
        <time>2022-06-26T10:54:11Z</time>
      </trkpt>
      <trkpt lat="45.87917" lon="4.37676">
        <ele>631.2</ele>
        <time>2022-06-26T10:54:12Z</time>
      </trkpt>
      <trkpt lat="45.87917" lon="4.3768">
        <ele>631.2</ele>
        <time>2022-06-26T10:54:13Z</time>
      </trkpt>
      <trkpt lat="45.87916" lon="4.37683">
        <ele>631.2</ele>
        <time>2022-06-26T10:54:14Z</time>
      </trkpt>
      <trkpt lat="45.87916" lon="4.37687">
        <ele>631.4</ele>
        <time>2022-06-26T10:54:15Z</time>
      </trkpt>
      <trkpt lat="45.87916" lon="4.37691">
        <ele>631.4</ele>
        <time>2022-06-26T10:54:16Z</time>
      </trkpt>
      <trkpt lat="45.87916" lon="4.37695">
        <ele>631.6</ele>
        <time>2022-06-26T10:54:17Z</time>
      </trkpt>
      <trkpt lat="45.87915" lon="4.37698">
        <ele>631.6</ele>
        <time>2022-06-26T10:54:18Z</time>
      </trkpt>
      <trkpt lat="45.87915" lon="4.37702">
        <ele>632</ele>
        <time>2022-06-26T10:54:19Z</time>
      </trkpt>
      <trkpt lat="45.87915" lon="4.37705">
        <ele>632</ele>
        <time>2022-06-26T10:54:20Z</time>
      </trkpt>
      <trkpt lat="45.87914" lon="4.37708">
        <ele>632.2</ele>
        <time>2022-06-26T10:54:21Z</time>
      </trkpt>
      <trkpt lat="45.87914" lon="4.37712">
        <ele>632.2</ele>
        <time>2022-06-26T10:54:22Z</time>
      </trkpt>
      <trkpt lat="45.87913" lon="4.37715">
        <ele>632.6</ele>
        <time>2022-06-26T10:54:23Z</time>
      </trkpt>
      <trkpt lat="45.87913" lon="4.37718">
        <ele>632.6</ele>
        <time>2022-06-26T10:54:24Z</time>
      </trkpt>
      <trkpt lat="45.87913" lon="4.37721">
        <ele>632.8</ele>
        <time>2022-06-26T10:54:25Z</time>
      </trkpt>
      <trkpt lat="45.87912" lon="4.37724">
        <ele>632.8</ele>
        <time>2022-06-26T10:54:26Z</time>
      </trkpt>
      <trkpt lat="45.87912" lon="4.37727">
        <ele>632.8</ele>
        <time>2022-06-26T10:54:27Z</time>
      </trkpt>
      <trkpt lat="45.87912" lon="4.3773">
        <ele>633.2</ele>
        <time>2022-06-26T10:54:28Z</time>
      </trkpt>
      <trkpt lat="45.87911" lon="4.37733">
        <ele>633.2</ele>
        <time>2022-06-26T10:54:29Z</time>
      </trkpt>
      <trkpt lat="45.87911" lon="4.37735">
        <ele>633.4</ele>
        <time>2022-06-26T10:54:30Z</time>
      </trkpt>
      <trkpt lat="45.8791" lon="4.37738">
        <ele>633.4</ele>
        <time>2022-06-26T10:54:31Z</time>
      </trkpt>
      <trkpt lat="45.8791" lon="4.37742">
        <ele>633.8</ele>
        <time>2022-06-26T10:54:32Z</time>
      </trkpt>
      <trkpt lat="45.8791" lon="4.37744">
        <ele>633.8</ele>
        <time>2022-06-26T10:54:33Z</time>
      </trkpt>
      <trkpt lat="45.87909" lon="4.37747">
        <ele>634</ele>
        <time>2022-06-26T10:54:34Z</time>
      </trkpt>
      <trkpt lat="45.87909" lon="4.3775">
        <ele>634</ele>
        <time>2022-06-26T10:54:35Z</time>
      </trkpt>
      <trkpt lat="45.87908" lon="4.37753">
        <ele>634.2</ele>
        <time>2022-06-26T10:54:36Z</time>
      </trkpt>
      <trkpt lat="45.87907" lon="4.37756">
        <ele>634.2</ele>
        <time>2022-06-26T10:54:37Z</time>
      </trkpt>
      <trkpt lat="45.87906" lon="4.37758">
        <ele>634.4</ele>
        <time>2022-06-26T10:54:38Z</time>
      </trkpt>
      <trkpt lat="45.87905" lon="4.37761">
        <ele>634.4</ele>
        <time>2022-06-26T10:54:39Z</time>
      </trkpt>
      <trkpt lat="45.87904" lon="4.37764">
        <ele>634.8</ele>
        <time>2022-06-26T10:54:40Z</time>
      </trkpt>
      <trkpt lat="45.87903" lon="4.37766">
        <ele>634.8</ele>
        <time>2022-06-26T10:54:41Z</time>
      </trkpt>
      <trkpt lat="45.87902" lon="4.37769">
        <ele>635.2</ele>
        <time>2022-06-26T10:54:42Z</time>
      </trkpt>
      <trkpt lat="45.87901" lon="4.37771">
        <ele>635.2</ele>
        <time>2022-06-26T10:54:43Z</time>
      </trkpt>
      <trkpt lat="45.879" lon="4.37774">
        <ele>635.4</ele>
        <time>2022-06-26T10:54:44Z</time>
      </trkpt>
      <trkpt lat="45.87898" lon="4.37776">
        <ele>635.4</ele>
        <time>2022-06-26T10:54:45Z</time>
      </trkpt>
      <trkpt lat="45.87897" lon="4.37779">
        <ele>635.6</ele>
        <time>2022-06-26T10:54:46Z</time>
      </trkpt>
      <trkpt lat="45.87896" lon="4.37781">
        <ele>635.6</ele>
        <time>2022-06-26T10:54:47Z</time>
      </trkpt>
      <trkpt lat="45.87895" lon="4.37783">
        <ele>636</ele>
        <time>2022-06-26T10:54:48Z</time>
      </trkpt>
      <trkpt lat="45.87893" lon="4.37786">
        <ele>636</ele>
        <time>2022-06-26T10:54:49Z</time>
      </trkpt>
      <trkpt lat="45.87892" lon="4.37788">
        <ele>636.2</ele>
        <time>2022-06-26T10:54:50Z</time>
      </trkpt>
      <trkpt lat="45.8789" lon="4.3779">
        <ele>636.2</ele>
        <time>2022-06-26T10:54:51Z</time>
      </trkpt>
      <trkpt lat="45.87888" lon="4.37792">
        <ele>636.4</ele>
        <time>2022-06-26T10:54:52Z</time>
      </trkpt>
      <trkpt lat="45.87887" lon="4.37794">
        <ele>636.4</ele>
        <time>2022-06-26T10:54:53Z</time>
      </trkpt>
      <trkpt lat="45.87885" lon="4.37795">
        <ele>636.6</ele>
        <time>2022-06-26T10:54:54Z</time>
      </trkpt>
      <trkpt lat="45.87883" lon="4.37797">
        <ele>636.6</ele>
        <time>2022-06-26T10:54:55Z</time>
      </trkpt>
      <trkpt lat="45.87882" lon="4.37798">
        <ele>637</ele>
        <time>2022-06-26T10:54:56Z</time>
      </trkpt>
      <trkpt lat="45.8788" lon="4.378">
        <ele>637</ele>
        <time>2022-06-26T10:54:57Z</time>
      </trkpt>
      <trkpt lat="45.87879" lon="4.37801">
        <ele>637.4</ele>
        <time>2022-06-26T10:54:58Z</time>
      </trkpt>
      <trkpt lat="45.87878" lon="4.37803">
        <ele>637.4</ele>
        <time>2022-06-26T10:54:59Z</time>
      </trkpt>
      <trkpt lat="45.87876" lon="4.37805">
        <ele>637.6</ele>
        <time>2022-06-26T10:55:00Z</time>
      </trkpt>
      <trkpt lat="45.87875" lon="4.37806">
        <ele>637.6</ele>
        <time>2022-06-26T10:55:01Z</time>
      </trkpt>
      <trkpt lat="45.87874" lon="4.37807">
        <ele>637.8</ele>
        <time>2022-06-26T10:55:02Z</time>
      </trkpt>
      <trkpt lat="45.87872" lon="4.37809">
        <ele>637.8</ele>
        <time>2022-06-26T10:55:03Z</time>
      </trkpt>
      <trkpt lat="45.87871" lon="4.37811">
        <ele>638</ele>
        <time>2022-06-26T10:55:04Z</time>
      </trkpt>
      <trkpt lat="45.87869" lon="4.37813">
        <ele>638.2</ele>
        <time>2022-06-26T10:55:05Z</time>
      </trkpt>
      <trkpt lat="45.87868" lon="4.37815">
        <ele>638.2</ele>
        <time>2022-06-26T10:55:06Z</time>
      </trkpt>
      <trkpt lat="45.87866" lon="4.37818">
        <ele>638.6</ele>
        <time>2022-06-26T10:55:07Z</time>
      </trkpt>
      <trkpt lat="45.87865" lon="4.3782">
        <ele>638.6</ele>
        <time>2022-06-26T10:55:08Z</time>
      </trkpt>
      <trkpt lat="45.87864" lon="4.37822">
        <ele>638.8</ele>
        <time>2022-06-26T10:55:09Z</time>
      </trkpt>
      <trkpt lat="45.87862" lon="4.37825">
        <ele>638.8</ele>
        <time>2022-06-26T10:55:10Z</time>
      </trkpt>
      <trkpt lat="45.8786" lon="4.37827">
        <ele>639.2</ele>
        <time>2022-06-26T10:55:11Z</time>
      </trkpt>
      <trkpt lat="45.87859" lon="4.37829">
        <ele>639.2</ele>
        <time>2022-06-26T10:55:12Z</time>
      </trkpt>
      <trkpt lat="45.87857" lon="4.37831">
        <ele>639.4</ele>
        <time>2022-06-26T10:55:13Z</time>
      </trkpt>
      <trkpt lat="45.87855" lon="4.37833">
        <ele>639.4</ele>
        <time>2022-06-26T10:55:14Z</time>
      </trkpt>
      <trkpt lat="45.87854" lon="4.37835">
        <ele>639.8</ele>
        <time>2022-06-26T10:55:15Z</time>
      </trkpt>
      <trkpt lat="45.87852" lon="4.37837">
        <ele>639.8</ele>
        <time>2022-06-26T10:55:16Z</time>
      </trkpt>
      <trkpt lat="45.8785" lon="4.37839">
        <ele>640.2</ele>
        <time>2022-06-26T10:55:17Z</time>
      </trkpt>
      <trkpt lat="45.87848" lon="4.37842">
        <ele>640.2</ele>
        <time>2022-06-26T10:55:18Z</time>
      </trkpt>
      <trkpt lat="45.87846" lon="4.37844">
        <ele>640.4</ele>
        <time>2022-06-26T10:55:19Z</time>
      </trkpt>
      <trkpt lat="45.87844" lon="4.37846">
        <ele>640.6</ele>
        <time>2022-06-26T10:55:20Z</time>
      </trkpt>
      <trkpt lat="45.87842" lon="4.37848">
        <ele>640.6</ele>
        <time>2022-06-26T10:55:21Z</time>
      </trkpt>
      <trkpt lat="45.8784" lon="4.3785">
        <ele>641</ele>
        <time>2022-06-26T10:55:22Z</time>
      </trkpt>
      <trkpt lat="45.87839" lon="4.37852">
        <ele>641</ele>
        <time>2022-06-26T10:55:23Z</time>
      </trkpt>
      <trkpt lat="45.87837" lon="4.37854">
        <ele>641.2</ele>
        <time>2022-06-26T10:55:24Z</time>
      </trkpt>
      <trkpt lat="45.87836" lon="4.37855">
        <ele>641.2</ele>
        <time>2022-06-26T10:55:25Z</time>
      </trkpt>
      <trkpt lat="45.87834" lon="4.37857">
        <ele>641.6</ele>
        <time>2022-06-26T10:55:26Z</time>
      </trkpt>
      <trkpt lat="45.87833" lon="4.37859">
        <ele>641.6</ele>
        <time>2022-06-26T10:55:27Z</time>
      </trkpt>
      <trkpt lat="45.87832" lon="4.37861">
        <ele>641.8</ele>
        <time>2022-06-26T10:55:28Z</time>
      </trkpt>
      <trkpt lat="45.8783" lon="4.37863">
        <ele>641.8</ele>
        <time>2022-06-26T10:55:29Z</time>
      </trkpt>
      <trkpt lat="45.87829" lon="4.37865">
        <ele>642.2</ele>
        <time>2022-06-26T10:55:30Z</time>
      </trkpt>
      <trkpt lat="45.87827" lon="4.37867">
        <ele>642.2</ele>
        <time>2022-06-26T10:55:31Z</time>
      </trkpt>
      <trkpt lat="45.87826" lon="4.37869">
        <ele>642.6</ele>
        <time>2022-06-26T10:55:32Z</time>
      </trkpt>
      <trkpt lat="45.87825" lon="4.37871">
        <ele>642.6</ele>
        <time>2022-06-26T10:55:33Z</time>
      </trkpt>
      <trkpt lat="45.87824" lon="4.37873">
        <ele>642.8</ele>
        <time>2022-06-26T10:55:34Z</time>
      </trkpt>
      <trkpt lat="45.87822" lon="4.37875">
        <ele>642.8</ele>
        <time>2022-06-26T10:55:35Z</time>
      </trkpt>
      <trkpt lat="45.8782" lon="4.37877">
        <ele>643.2</ele>
        <time>2022-06-26T10:55:36Z</time>
      </trkpt>
      <trkpt lat="45.87819" lon="4.37879">
        <ele>643.2</ele>
        <time>2022-06-26T10:55:37Z</time>
      </trkpt>
      <trkpt lat="45.87817" lon="4.37881">
        <ele>643.6</ele>
        <time>2022-06-26T10:55:38Z</time>
      </trkpt>
      <trkpt lat="45.87816" lon="4.37883">
        <ele>643.6</ele>
        <time>2022-06-26T10:55:39Z</time>
      </trkpt>
      <trkpt lat="45.87814" lon="4.37886">
        <ele>643.8</ele>
        <time>2022-06-26T10:55:40Z</time>
      </trkpt>
      <trkpt lat="45.87813" lon="4.37888">
        <ele>643.8</ele>
        <time>2022-06-26T10:55:41Z</time>
      </trkpt>
      <trkpt lat="45.87811" lon="4.37891">
        <ele>644</ele>
        <time>2022-06-26T10:55:42Z</time>
      </trkpt>
      <trkpt lat="45.8781" lon="4.37894">
        <ele>644</ele>
        <time>2022-06-26T10:55:43Z</time>
      </trkpt>
      <trkpt lat="45.87808" lon="4.37897">
        <ele>644.4</ele>
        <time>2022-06-26T10:55:44Z</time>
      </trkpt>
      <trkpt lat="45.87807" lon="4.379">
        <ele>644.6</ele>
        <time>2022-06-26T10:55:45Z</time>
      </trkpt>
      <trkpt lat="45.87805" lon="4.37903">
        <ele>644.8</ele>
        <time>2022-06-26T10:55:46Z</time>
      </trkpt>
      <trkpt lat="45.87804" lon="4.37906">
        <ele>645</ele>
        <time>2022-06-26T10:55:47Z</time>
      </trkpt>
      <trkpt lat="45.87802" lon="4.37909">
        <ele>645</ele>
        <time>2022-06-26T10:55:48Z</time>
      </trkpt>
      <trkpt lat="45.87801" lon="4.37913">
        <ele>645.4</ele>
        <time>2022-06-26T10:55:49Z</time>
      </trkpt>
      <trkpt lat="45.878" lon="4.37916">
        <ele>645.4</ele>
        <time>2022-06-26T10:55:50Z</time>
      </trkpt>
      <trkpt lat="45.87799" lon="4.3792">
        <ele>645.6</ele>
        <time>2022-06-26T10:55:51Z</time>
      </trkpt>
      <trkpt lat="45.87798" lon="4.37924">
        <ele>645.6</ele>
        <time>2022-06-26T10:55:52Z</time>
      </trkpt>
      <trkpt lat="45.87797" lon="4.37927">
        <ele>646</ele>
        <time>2022-06-26T10:55:53Z</time>
      </trkpt>
      <trkpt lat="45.87796" lon="4.37931">
        <ele>646</ele>
        <time>2022-06-26T10:55:54Z</time>
      </trkpt>
      <trkpt lat="45.87795" lon="4.37934">
        <ele>646.2</ele>
        <time>2022-06-26T10:55:55Z</time>
      </trkpt>
      <trkpt lat="45.87794" lon="4.37938">
        <ele>646.2</ele>
        <time>2022-06-26T10:55:56Z</time>
      </trkpt>
      <trkpt lat="45.87793" lon="4.37941">
        <ele>646.4</ele>
        <time>2022-06-26T10:55:57Z</time>
      </trkpt>
      <trkpt lat="45.87792" lon="4.37944">
        <ele>646.4</ele>
        <time>2022-06-26T10:55:58Z</time>
      </trkpt>
      <trkpt lat="45.8779" lon="4.37948">
        <ele>646.8</ele>
        <time>2022-06-26T10:55:59Z</time>
      </trkpt>
      <trkpt lat="45.87789" lon="4.37952">
        <ele>646.8</ele>
        <time>2022-06-26T10:56:00Z</time>
      </trkpt>
      <trkpt lat="45.87788" lon="4.37955">
        <ele>647.2</ele>
        <time>2022-06-26T10:56:01Z</time>
      </trkpt>
      <trkpt lat="45.87787" lon="4.37958">
        <ele>647.2</ele>
        <time>2022-06-26T10:56:02Z</time>
      </trkpt>
      <trkpt lat="45.87786" lon="4.37961">
        <ele>647.6</ele>
        <time>2022-06-26T10:56:03Z</time>
      </trkpt>
      <trkpt lat="45.87785" lon="4.37965">
        <ele>647.6</ele>
        <time>2022-06-26T10:56:04Z</time>
      </trkpt>
      <trkpt lat="45.87783" lon="4.37968">
        <ele>647.8</ele>
        <time>2022-06-26T10:56:05Z</time>
      </trkpt>
      <trkpt lat="45.87782" lon="4.37972">
        <ele>647.8</ele>
        <time>2022-06-26T10:56:06Z</time>
      </trkpt>
      <trkpt lat="45.87781" lon="4.37975">
        <ele>648.2</ele>
        <time>2022-06-26T10:56:07Z</time>
      </trkpt>
      <trkpt lat="45.8778" lon="4.37978">
        <ele>648.2</ele>
        <time>2022-06-26T10:56:08Z</time>
      </trkpt>
      <trkpt lat="45.87779" lon="4.3798">
        <ele>648.4</ele>
        <time>2022-06-26T10:56:09Z</time>
      </trkpt>
      <trkpt lat="45.87777" lon="4.37984">
        <ele>648.4</ele>
        <time>2022-06-26T10:56:10Z</time>
      </trkpt>
      <trkpt lat="45.87776" lon="4.37987">
        <ele>649</ele>
        <time>2022-06-26T10:56:11Z</time>
      </trkpt>
      <trkpt lat="45.87775" lon="4.3799">
        <ele>649</ele>
        <time>2022-06-26T10:56:12Z</time>
      </trkpt>
      <trkpt lat="45.87774" lon="4.37993">
        <ele>649.2</ele>
        <time>2022-06-26T10:56:13Z</time>
      </trkpt>
      <trkpt lat="45.87773" lon="4.37996">
        <ele>649.2</ele>
        <time>2022-06-26T10:56:14Z</time>
      </trkpt>
      <trkpt lat="45.87772" lon="4.37999">
        <ele>649.2</ele>
        <time>2022-06-26T10:56:15Z</time>
      </trkpt>
      <trkpt lat="45.87771" lon="4.38002">
        <ele>649.6</ele>
        <time>2022-06-26T10:56:16Z</time>
      </trkpt>
      <trkpt lat="45.87771" lon="4.38006">
        <ele>649.6</ele>
        <time>2022-06-26T10:56:17Z</time>
      </trkpt>
      <trkpt lat="45.8777" lon="4.38009">
        <ele>649.8</ele>
        <time>2022-06-26T10:56:18Z</time>
      </trkpt>
      <trkpt lat="45.87769" lon="4.38011">
        <ele>649.8</ele>
        <time>2022-06-26T10:56:19Z</time>
      </trkpt>
      <trkpt lat="45.87767" lon="4.38014">
        <ele>650.2</ele>
        <time>2022-06-26T10:56:20Z</time>
      </trkpt>
      <trkpt lat="45.87767" lon="4.38017">
        <ele>650.2</ele>
        <time>2022-06-26T10:56:21Z</time>
      </trkpt>
      <trkpt lat="45.87766" lon="4.3802">
        <ele>650.6</ele>
        <time>2022-06-26T10:56:22Z</time>
      </trkpt>
      <trkpt lat="45.87765" lon="4.38023">
        <ele>650.6</ele>
        <time>2022-06-26T10:56:23Z</time>
      </trkpt>
      <trkpt lat="45.87763" lon="4.38026">
        <ele>650.8</ele>
        <time>2022-06-26T10:56:24Z</time>
      </trkpt>
      <trkpt lat="45.87762" lon="4.38028">
        <ele>650.8</ele>
        <time>2022-06-26T10:56:25Z</time>
      </trkpt>
      <trkpt lat="45.87761" lon="4.38031">
        <ele>651</ele>
        <time>2022-06-26T10:56:26Z</time>
      </trkpt>
      <trkpt lat="45.8776" lon="4.38034">
        <ele>651</ele>
        <time>2022-06-26T10:56:27Z</time>
      </trkpt>
      <trkpt lat="45.87759" lon="4.38037">
        <ele>651.2</ele>
        <time>2022-06-26T10:56:28Z</time>
      </trkpt>
      <trkpt lat="45.87758" lon="4.3804">
        <ele>651.2</ele>
        <time>2022-06-26T10:56:29Z</time>
      </trkpt>
      <trkpt lat="45.87757" lon="4.38043">
        <ele>651.6</ele>
        <time>2022-06-26T10:56:30Z</time>
      </trkpt>
      <trkpt lat="45.87756" lon="4.38046">
        <ele>651.6</ele>
        <time>2022-06-26T10:56:31Z</time>
      </trkpt>
      <trkpt lat="45.87755" lon="4.38049">
        <ele>652</ele>
        <time>2022-06-26T10:56:32Z</time>
      </trkpt>
      <trkpt lat="45.87754" lon="4.38053">
        <ele>652</ele>
        <time>2022-06-26T10:56:33Z</time>
      </trkpt>
      <trkpt lat="45.87753" lon="4.38056">
        <ele>652.4</ele>
        <time>2022-06-26T10:56:34Z</time>
      </trkpt>
      <trkpt lat="45.87752" lon="4.38058">
        <ele>652.8</ele>
        <time>2022-06-26T10:56:36Z</time>
      </trkpt>
      <trkpt lat="45.87751" lon="4.38061">
        <ele>652.8</ele>
        <time>2022-06-26T10:56:37Z</time>
      </trkpt>
      <trkpt lat="45.8775" lon="4.38064">
        <ele>653.2</ele>
        <time>2022-06-26T10:56:38Z</time>
      </trkpt>
      <trkpt lat="45.87749" lon="4.38067">
        <ele>653.2</ele>
        <time>2022-06-26T10:56:39Z</time>
      </trkpt>
      <trkpt lat="45.87748" lon="4.3807">
        <ele>653.4</ele>
        <time>2022-06-26T10:56:40Z</time>
      </trkpt>
      <trkpt lat="45.87747" lon="4.38073">
        <ele>653.4</ele>
        <time>2022-06-26T10:56:41Z</time>
      </trkpt>
      <trkpt lat="45.87746" lon="4.38075">
        <ele>653.8</ele>
        <time>2022-06-26T10:56:42Z</time>
      </trkpt>
      <trkpt lat="45.87744" lon="4.38078">
        <ele>653.8</ele>
        <time>2022-06-26T10:56:43Z</time>
      </trkpt>
      <trkpt lat="45.87743" lon="4.3808">
        <ele>654.2</ele>
        <time>2022-06-26T10:56:44Z</time>
      </trkpt>
      <trkpt lat="45.87742" lon="4.38082">
        <ele>654.2</ele>
        <time>2022-06-26T10:56:45Z</time>
      </trkpt>
      <trkpt lat="45.8774" lon="4.38085">
        <ele>654.6</ele>
        <time>2022-06-26T10:56:46Z</time>
      </trkpt>
      <trkpt lat="45.87738" lon="4.38087">
        <ele>654.6</ele>
        <time>2022-06-26T10:56:47Z</time>
      </trkpt>
      <trkpt lat="45.87737" lon="4.38088">
        <ele>654.8</ele>
        <time>2022-06-26T10:56:48Z</time>
      </trkpt>
      <trkpt lat="45.87735" lon="4.3809">
        <ele>654.8</ele>
        <time>2022-06-26T10:56:49Z</time>
      </trkpt>
      <trkpt lat="45.87733" lon="4.38091">
        <ele>655.2</ele>
        <time>2022-06-26T10:56:50Z</time>
      </trkpt>
      <trkpt lat="45.87731" lon="4.38093">
        <ele>655.2</ele>
        <time>2022-06-26T10:56:51Z</time>
      </trkpt>
      <trkpt lat="45.87729" lon="4.38094">
        <ele>655.4</ele>
        <time>2022-06-26T10:56:52Z</time>
      </trkpt>
      <trkpt lat="45.87727" lon="4.38095">
        <ele>655.4</ele>
        <time>2022-06-26T10:56:53Z</time>
      </trkpt>
      <trkpt lat="45.87725" lon="4.38096">
        <ele>655.8</ele>
        <time>2022-06-26T10:56:54Z</time>
      </trkpt>
      <trkpt lat="45.87723" lon="4.38098">
        <ele>655.8</ele>
        <time>2022-06-26T10:56:55Z</time>
      </trkpt>
      <trkpt lat="45.87721" lon="4.38099">
        <ele>655.8</ele>
        <time>2022-06-26T10:56:56Z</time>
      </trkpt>
      <trkpt lat="45.87719" lon="4.38099">
        <ele>656</ele>
        <time>2022-06-26T10:56:57Z</time>
      </trkpt>
      <trkpt lat="45.87716" lon="4.38099">
        <ele>656</ele>
        <time>2022-06-26T10:56:58Z</time>
      </trkpt>
      <trkpt lat="45.87714" lon="4.38099">
        <ele>656</ele>
        <time>2022-06-26T10:56:59Z</time>
      </trkpt>
      <trkpt lat="45.87711" lon="4.38099">
        <ele>656</ele>
        <time>2022-06-26T10:57:00Z</time>
      </trkpt>
      <trkpt lat="45.87708" lon="4.38098">
        <ele>656.2</ele>
        <time>2022-06-26T10:57:01Z</time>
      </trkpt>
      <trkpt lat="45.87706" lon="4.38096">
        <ele>656.2</ele>
        <time>2022-06-26T10:57:02Z</time>
      </trkpt>
      <trkpt lat="45.87705" lon="4.38093">
        <ele>656.2</ele>
        <time>2022-06-26T10:57:03Z</time>
      </trkpt>
      <trkpt lat="45.87703" lon="4.38089">
        <ele>656.2</ele>
        <time>2022-06-26T10:57:04Z</time>
      </trkpt>
      <trkpt lat="45.87702" lon="4.38085">
        <ele>656.4</ele>
        <time>2022-06-26T10:57:05Z</time>
      </trkpt>
      <trkpt lat="45.87701" lon="4.38081">
        <ele>656.4</ele>
        <time>2022-06-26T10:57:06Z</time>
      </trkpt>
      <trkpt lat="45.877" lon="4.38077">
        <ele>656.4</ele>
        <time>2022-06-26T10:57:07Z</time>
      </trkpt>
      <trkpt lat="45.87699" lon="4.38073">
        <ele>656.4</ele>
        <time>2022-06-26T10:57:08Z</time>
      </trkpt>
      <trkpt lat="45.87699" lon="4.3807">
        <ele>656.4</ele>
        <time>2022-06-26T10:57:09Z</time>
      </trkpt>
      <trkpt lat="45.87698" lon="4.38066">
        <ele>656.4</ele>
        <time>2022-06-26T10:57:10Z</time>
      </trkpt>
      <trkpt lat="45.87698" lon="4.38062">
        <ele>656.6</ele>
        <time>2022-06-26T10:57:11Z</time>
      </trkpt>
      <trkpt lat="45.87697" lon="4.38058">
        <ele>656.6</ele>
        <time>2022-06-26T10:57:12Z</time>
      </trkpt>
      <trkpt lat="45.87696" lon="4.38054">
        <ele>656.6</ele>
        <time>2022-06-26T10:57:13Z</time>
      </trkpt>
      <trkpt lat="45.87695" lon="4.38051">
        <ele>656.6</ele>
        <time>2022-06-26T10:57:14Z</time>
      </trkpt>
      <trkpt lat="45.87694" lon="4.38048">
        <ele>657</ele>
        <time>2022-06-26T10:57:15Z</time>
      </trkpt>
      <trkpt lat="45.87693" lon="4.38044">
        <ele>657</ele>
        <time>2022-06-26T10:57:16Z</time>
      </trkpt>
      <trkpt lat="45.87691" lon="4.3804">
        <ele>657</ele>
        <time>2022-06-26T10:57:17Z</time>
      </trkpt>
      <trkpt lat="45.8769" lon="4.38037">
        <ele>657.2</ele>
        <time>2022-06-26T10:57:18Z</time>
      </trkpt>
      <trkpt lat="45.87688" lon="4.38034">
        <ele>657.2</ele>
        <time>2022-06-26T10:57:19Z</time>
      </trkpt>
      <trkpt lat="45.87686" lon="4.3803">
        <ele>657.2</ele>
        <time>2022-06-26T10:57:20Z</time>
      </trkpt>
      <trkpt lat="45.87685" lon="4.38027">
        <ele>657.4</ele>
        <time>2022-06-26T10:57:21Z</time>
      </trkpt>
      <trkpt lat="45.87683" lon="4.38024">
        <ele>657.4</ele>
        <time>2022-06-26T10:57:22Z</time>
      </trkpt>
      <trkpt lat="45.87681" lon="4.38021">
        <ele>657.6</ele>
        <time>2022-06-26T10:57:23Z</time>
      </trkpt>
      <trkpt lat="45.87679" lon="4.38019">
        <ele>657.6</ele>
        <time>2022-06-26T10:57:24Z</time>
      </trkpt>
      <trkpt lat="45.87677" lon="4.38016">
        <ele>657.6</ele>
        <time>2022-06-26T10:57:25Z</time>
      </trkpt>
      <trkpt lat="45.87675" lon="4.38014">
        <ele>658</ele>
        <time>2022-06-26T10:57:26Z</time>
      </trkpt>
      <trkpt lat="45.87672" lon="4.38012">
        <ele>658</ele>
        <time>2022-06-26T10:57:27Z</time>
      </trkpt>
      <trkpt lat="45.8767" lon="4.38009">
        <ele>658.4</ele>
        <time>2022-06-26T10:57:28Z</time>
      </trkpt>
      <trkpt lat="45.87668" lon="4.38006">
        <ele>658.4</ele>
        <time>2022-06-26T10:57:29Z</time>
      </trkpt>
      <trkpt lat="45.87666" lon="4.38003">
        <ele>658.6</ele>
        <time>2022-06-26T10:57:30Z</time>
      </trkpt>
      <trkpt lat="45.87664" lon="4.38001">
        <ele>658.8</ele>
        <time>2022-06-26T10:57:31Z</time>
      </trkpt>
      <trkpt lat="45.87662" lon="4.37998">
        <ele>659</ele>
        <time>2022-06-26T10:57:32Z</time>
      </trkpt>
      <trkpt lat="45.8766" lon="4.37995">
        <ele>659</ele>
        <time>2022-06-26T10:57:33Z</time>
      </trkpt>
      <trkpt lat="45.87658" lon="4.37993">
        <ele>659.4</ele>
        <time>2022-06-26T10:57:34Z</time>
      </trkpt>
      <trkpt lat="45.87656" lon="4.37991">
        <ele>659.4</ele>
        <time>2022-06-26T10:57:35Z</time>
      </trkpt>
      <trkpt lat="45.87653" lon="4.37988">
        <ele>659.8</ele>
        <time>2022-06-26T10:57:36Z</time>
      </trkpt>
      <trkpt lat="45.87651" lon="4.37986">
        <ele>659.8</ele>
        <time>2022-06-26T10:57:37Z</time>
      </trkpt>
      <trkpt lat="45.87649" lon="4.37984">
        <ele>660</ele>
        <time>2022-06-26T10:57:38Z</time>
      </trkpt>
      <trkpt lat="45.87646" lon="4.37983">
        <ele>660</ele>
        <time>2022-06-26T10:57:39Z</time>
      </trkpt>
      <trkpt lat="45.87644" lon="4.37981">
        <ele>660.2</ele>
        <time>2022-06-26T10:57:40Z</time>
      </trkpt>
      <trkpt lat="45.87641" lon="4.37978">
        <ele>660.2</ele>
        <time>2022-06-26T10:57:41Z</time>
      </trkpt>
      <trkpt lat="45.87638" lon="4.37976">
        <ele>660.6</ele>
        <time>2022-06-26T10:57:42Z</time>
      </trkpt>
      <trkpt lat="45.87636" lon="4.37974">
        <ele>660.6</ele>
        <time>2022-06-26T10:57:43Z</time>
      </trkpt>
      <trkpt lat="45.87633" lon="4.37971">
        <ele>660.8</ele>
        <time>2022-06-26T10:57:44Z</time>
      </trkpt>
      <trkpt lat="45.8763" lon="4.37969">
        <ele>660.8</ele>
        <time>2022-06-26T10:57:45Z</time>
      </trkpt>
      <trkpt lat="45.87627" lon="4.37967">
        <ele>661.2</ele>
        <time>2022-06-26T10:57:46Z</time>
      </trkpt>
      <trkpt lat="45.87624" lon="4.37965">
        <ele>661.2</ele>
        <time>2022-06-26T10:57:47Z</time>
      </trkpt>
      <trkpt lat="45.87621" lon="4.37964">
        <ele>661.6</ele>
        <time>2022-06-26T10:57:48Z</time>
      </trkpt>
      <trkpt lat="45.87619" lon="4.37962">
        <ele>661.6</ele>
        <time>2022-06-26T10:57:49Z</time>
      </trkpt>
      <trkpt lat="45.87616" lon="4.37961">
        <ele>661.8</ele>
        <time>2022-06-26T10:57:50Z</time>
      </trkpt>
      <trkpt lat="45.87613" lon="4.3796">
        <ele>661.8</ele>
        <time>2022-06-26T10:57:51Z</time>
      </trkpt>
      <trkpt lat="45.8761" lon="4.37958">
        <ele>662</ele>
        <time>2022-06-26T10:57:52Z</time>
      </trkpt>
      <trkpt lat="45.87607" lon="4.37957">
        <ele>662</ele>
        <time>2022-06-26T10:57:53Z</time>
      </trkpt>
      <trkpt lat="45.87604" lon="4.37956">
        <ele>662.4</ele>
        <time>2022-06-26T10:57:54Z</time>
      </trkpt>
      <trkpt lat="45.87601" lon="4.37955">
        <ele>662.4</ele>
        <time>2022-06-26T10:57:55Z</time>
      </trkpt>
      <trkpt lat="45.87598" lon="4.37954">
        <ele>662.8</ele>
        <time>2022-06-26T10:57:56Z</time>
      </trkpt>
      <trkpt lat="45.87595" lon="4.37953">
        <ele>662.8</ele>
        <time>2022-06-26T10:57:57Z</time>
      </trkpt>
      <trkpt lat="45.87592" lon="4.37952">
        <ele>663</ele>
        <time>2022-06-26T10:57:58Z</time>
      </trkpt>
      <trkpt lat="45.87589" lon="4.37952">
        <ele>663</ele>
        <time>2022-06-26T10:57:59Z</time>
      </trkpt>
      <trkpt lat="45.87587" lon="4.37951">
        <ele>663.4</ele>
        <time>2022-06-26T10:58:00Z</time>
      </trkpt>
      <trkpt lat="45.87584" lon="4.37951">
        <ele>663.4</ele>
        <time>2022-06-26T10:58:01Z</time>
      </trkpt>
      <trkpt lat="45.87581" lon="4.37951">
        <ele>663.6</ele>
        <time>2022-06-26T10:58:02Z</time>
      </trkpt>
      <trkpt lat="45.87578" lon="4.3795">
        <ele>663.6</ele>
        <time>2022-06-26T10:58:03Z</time>
      </trkpt>
      <trkpt lat="45.87575" lon="4.3795">
        <ele>664</ele>
        <time>2022-06-26T10:58:04Z</time>
      </trkpt>
      <trkpt lat="45.87572" lon="4.37951">
        <ele>664</ele>
        <time>2022-06-26T10:58:05Z</time>
      </trkpt>
      <trkpt lat="45.8757" lon="4.37951">
        <ele>664.4</ele>
        <time>2022-06-26T10:58:06Z</time>
      </trkpt>
      <trkpt lat="45.87567" lon="4.37951">
        <ele>664.4</ele>
        <time>2022-06-26T10:58:07Z</time>
      </trkpt>
      <trkpt lat="45.87564" lon="4.37952">
        <ele>664.6</ele>
        <time>2022-06-26T10:58:08Z</time>
      </trkpt>
      <trkpt lat="45.87561" lon="4.37952">
        <ele>664.8</ele>
        <time>2022-06-26T10:58:09Z</time>
      </trkpt>
      <trkpt lat="45.87559" lon="4.37953">
        <ele>664.8</ele>
        <time>2022-06-26T10:58:10Z</time>
      </trkpt>
      <trkpt lat="45.87556" lon="4.37953">
        <ele>664.8</ele>
        <time>2022-06-26T10:58:11Z</time>
      </trkpt>
      <trkpt lat="45.87553" lon="4.37955">
        <ele>665.2</ele>
        <time>2022-06-26T10:58:12Z</time>
      </trkpt>
      <trkpt lat="45.87551" lon="4.37956">
        <ele>665.2</ele>
        <time>2022-06-26T10:58:13Z</time>
      </trkpt>
      <trkpt lat="45.87548" lon="4.37957">
        <ele>665.6</ele>
        <time>2022-06-26T10:58:14Z</time>
      </trkpt>
      <trkpt lat="45.87546" lon="4.37958">
        <ele>665.6</ele>
        <time>2022-06-26T10:58:15Z</time>
      </trkpt>
      <trkpt lat="45.87543" lon="4.3796">
        <ele>666</ele>
        <time>2022-06-26T10:58:16Z</time>
      </trkpt>
      <trkpt lat="45.8754" lon="4.37961">
        <ele>666</ele>
        <time>2022-06-26T10:58:17Z</time>
      </trkpt>
      <trkpt lat="45.87538" lon="4.37962">
        <ele>666</ele>
        <time>2022-06-26T10:58:18Z</time>
      </trkpt>
      <trkpt lat="45.87535" lon="4.37964">
        <ele>666.2</ele>
        <time>2022-06-26T10:58:19Z</time>
      </trkpt>
      <trkpt lat="45.87532" lon="4.37965">
        <ele>666.2</ele>
        <time>2022-06-26T10:58:20Z</time>
      </trkpt>
      <trkpt lat="45.8753" lon="4.37966">
        <ele>666.4</ele>
        <time>2022-06-26T10:58:21Z</time>
      </trkpt>
      <trkpt lat="45.87527" lon="4.37967">
        <ele>666.4</ele>
        <time>2022-06-26T10:58:22Z</time>
      </trkpt>
      <trkpt lat="45.87524" lon="4.37967">
        <ele>666.6</ele>
        <time>2022-06-26T10:58:23Z</time>
      </trkpt>
      <trkpt lat="45.87521" lon="4.37968">
        <ele>666.6</ele>
        <time>2022-06-26T10:58:24Z</time>
      </trkpt>
      <trkpt lat="45.87518" lon="4.37968">
        <ele>666.6</ele>
        <time>2022-06-26T10:58:25Z</time>
      </trkpt>
      <trkpt lat="45.87515" lon="4.37968">
        <ele>666.8</ele>
        <time>2022-06-26T10:58:26Z</time>
      </trkpt>
      <trkpt lat="45.87513" lon="4.37968">
        <ele>666.8</ele>
        <time>2022-06-26T10:58:27Z</time>
      </trkpt>
      <trkpt lat="45.8751" lon="4.37967">
        <ele>667.2</ele>
        <time>2022-06-26T10:58:28Z</time>
      </trkpt>
      <trkpt lat="45.87507" lon="4.37966">
        <ele>667.4</ele>
        <time>2022-06-26T10:58:29Z</time>
      </trkpt>
      <trkpt lat="45.87504" lon="4.37965">
        <ele>667.4</ele>
        <time>2022-06-26T10:58:30Z</time>
      </trkpt>
      <trkpt lat="45.87502" lon="4.37963">
        <ele>667.8</ele>
        <time>2022-06-26T10:58:31Z</time>
      </trkpt>
      <trkpt lat="45.87499" lon="4.37962">
        <ele>667.8</ele>
        <time>2022-06-26T10:58:32Z</time>
      </trkpt>
      <trkpt lat="45.87496" lon="4.3796">
        <ele>668.2</ele>
        <time>2022-06-26T10:58:33Z</time>
      </trkpt>
      <trkpt lat="45.87494" lon="4.37959">
        <ele>668.4</ele>
        <time>2022-06-26T10:58:34Z</time>
      </trkpt>
      <trkpt lat="45.87492" lon="4.37957">
        <ele>668.4</ele>
        <time>2022-06-26T10:58:35Z</time>
      </trkpt>
      <trkpt lat="45.87489" lon="4.37955">
        <ele>668.6</ele>
        <time>2022-06-26T10:58:36Z</time>
      </trkpt>
      <trkpt lat="45.87487" lon="4.37952">
        <ele>668.6</ele>
        <time>2022-06-26T10:58:37Z</time>
      </trkpt>
      <trkpt lat="45.87485" lon="4.3795">
        <ele>669</ele>
        <time>2022-06-26T10:58:38Z</time>
      </trkpt>
      <trkpt lat="45.87483" lon="4.37948">
        <ele>669</ele>
        <time>2022-06-26T10:58:39Z</time>
      </trkpt>
      <trkpt lat="45.87481" lon="4.37945">
        <ele>669.2</ele>
        <time>2022-06-26T10:58:40Z</time>
      </trkpt>
      <trkpt lat="45.87479" lon="4.37943">
        <ele>669.2</ele>
        <time>2022-06-26T10:58:41Z</time>
      </trkpt>
      <trkpt lat="45.87477" lon="4.3794">
        <ele>669.6</ele>
        <time>2022-06-26T10:58:42Z</time>
      </trkpt>
      <trkpt lat="45.87475" lon="4.37937">
        <ele>669.8</ele>
        <time>2022-06-26T10:58:43Z</time>
      </trkpt>
      <trkpt lat="45.87473" lon="4.37934">
        <ele>669.8</ele>
        <time>2022-06-26T10:58:44Z</time>
      </trkpt>
      <trkpt lat="45.87471" lon="4.37931">
        <ele>670.2</ele>
        <time>2022-06-26T10:58:45Z</time>
      </trkpt>
      <trkpt lat="45.8747" lon="4.37928">
        <ele>670.2</ele>
        <time>2022-06-26T10:58:46Z</time>
      </trkpt>
      <trkpt lat="45.87468" lon="4.37925">
        <ele>670.4</ele>
        <time>2022-06-26T10:58:47Z</time>
      </trkpt>
      <trkpt lat="45.87464" lon="4.3792">
        <ele>670.6</ele>
        <time>2022-06-26T10:58:48Z</time>
      </trkpt>
      <trkpt lat="45.87462" lon="4.37918">
        <ele>670.6</ele>
        <time>2022-06-26T10:58:49Z</time>
      </trkpt>
      <trkpt lat="45.8746" lon="4.37915">
        <ele>671</ele>
        <time>2022-06-26T10:58:50Z</time>
      </trkpt>
      <trkpt lat="45.87459" lon="4.37912">
        <ele>671</ele>
        <time>2022-06-26T10:58:51Z</time>
      </trkpt>
      <trkpt lat="45.87457" lon="4.3791">
        <ele>671.2</ele>
        <time>2022-06-26T10:58:52Z</time>
      </trkpt>
      <trkpt lat="45.87455" lon="4.37907">
        <ele>671.2</ele>
        <time>2022-06-26T10:58:53Z</time>
      </trkpt>
      <trkpt lat="45.87454" lon="4.37904">
        <ele>671.4</ele>
        <time>2022-06-26T10:58:54Z</time>
      </trkpt>
      <trkpt lat="45.87452" lon="4.37901">
        <ele>671.4</ele>
        <time>2022-06-26T10:58:55Z</time>
      </trkpt>
      <trkpt lat="45.8745" lon="4.37898">
        <ele>671.8</ele>
        <time>2022-06-26T10:58:56Z</time>
      </trkpt>
      <trkpt lat="45.87449" lon="4.37895">
        <ele>671.8</ele>
        <time>2022-06-26T10:58:57Z</time>
      </trkpt>
      <trkpt lat="45.87447" lon="4.37892">
        <ele>672</ele>
        <time>2022-06-26T10:58:58Z</time>
      </trkpt>
      <trkpt lat="45.87445" lon="4.3789">
        <ele>672</ele>
        <time>2022-06-26T10:58:59Z</time>
      </trkpt>
      <trkpt lat="45.87443" lon="4.37887">
        <ele>672.4</ele>
        <time>2022-06-26T10:59:00Z</time>
      </trkpt>
      <trkpt lat="45.87442" lon="4.37883">
        <ele>672.4</ele>
        <time>2022-06-26T10:59:01Z</time>
      </trkpt>
      <trkpt lat="45.8744" lon="4.3788">
        <ele>672.6</ele>
        <time>2022-06-26T10:59:02Z</time>
      </trkpt>
      <trkpt lat="45.87438" lon="4.37876">
        <ele>672.6</ele>
        <time>2022-06-26T10:59:03Z</time>
      </trkpt>
      <trkpt lat="45.87437" lon="4.37873">
        <ele>672.6</ele>
        <time>2022-06-26T10:59:04Z</time>
      </trkpt>
      <trkpt lat="45.87435" lon="4.3787">
        <ele>673</ele>
        <time>2022-06-26T10:59:05Z</time>
      </trkpt>
      <trkpt lat="45.87434" lon="4.37866">
        <ele>673</ele>
        <time>2022-06-26T10:59:06Z</time>
      </trkpt>
      <trkpt lat="45.87432" lon="4.37863">
        <ele>673.4</ele>
        <time>2022-06-26T10:59:07Z</time>
      </trkpt>
      <trkpt lat="45.8743" lon="4.3786">
        <ele>673.4</ele>
        <time>2022-06-26T10:59:08Z</time>
      </trkpt>
      <trkpt lat="45.87429" lon="4.37856">
        <ele>673.6</ele>
        <time>2022-06-26T10:59:09Z</time>
      </trkpt>
      <trkpt lat="45.87427" lon="4.37853">
        <ele>673.6</ele>
        <time>2022-06-26T10:59:10Z</time>
      </trkpt>
      <trkpt lat="45.87425" lon="4.3785">
        <ele>673.8</ele>
        <time>2022-06-26T10:59:11Z</time>
      </trkpt>
      <trkpt lat="45.87424" lon="4.37846">
        <ele>673.8</ele>
        <time>2022-06-26T10:59:12Z</time>
      </trkpt>
      <trkpt lat="45.87422" lon="4.37843">
        <ele>674</ele>
        <time>2022-06-26T10:59:13Z</time>
      </trkpt>
      <trkpt lat="45.87421" lon="4.3784">
        <ele>674</ele>
        <time>2022-06-26T10:59:14Z</time>
      </trkpt>
      <trkpt lat="45.8742" lon="4.37837">
        <ele>674.4</ele>
        <time>2022-06-26T10:59:15Z</time>
      </trkpt>
      <trkpt lat="45.87418" lon="4.37833">
        <ele>674.4</ele>
        <time>2022-06-26T10:59:16Z</time>
      </trkpt>
      <trkpt lat="45.87417" lon="4.3783">
        <ele>674.8</ele>
        <time>2022-06-26T10:59:17Z</time>
      </trkpt>
      <trkpt lat="45.87416" lon="4.37827">
        <ele>674.8</ele>
        <time>2022-06-26T10:59:18Z</time>
      </trkpt>
      <trkpt lat="45.87414" lon="4.37823">
        <ele>675</ele>
        <time>2022-06-26T10:59:19Z</time>
      </trkpt>
      <trkpt lat="45.87413" lon="4.3782">
        <ele>675</ele>
        <time>2022-06-26T10:59:20Z</time>
      </trkpt>
      <trkpt lat="45.87412" lon="4.37816">
        <ele>675.2</ele>
        <time>2022-06-26T10:59:21Z</time>
      </trkpt>
      <trkpt lat="45.87411" lon="4.37813">
        <ele>675.2</ele>
        <time>2022-06-26T10:59:22Z</time>
      </trkpt>
      <trkpt lat="45.8741" lon="4.37809">
        <ele>675.6</ele>
        <time>2022-06-26T10:59:23Z</time>
      </trkpt>
      <trkpt lat="45.87409" lon="4.37806">
        <ele>675.6</ele>
        <time>2022-06-26T10:59:24Z</time>
      </trkpt>
      <trkpt lat="45.87408" lon="4.37802">
        <ele>675.8</ele>
        <time>2022-06-26T10:59:25Z</time>
      </trkpt>
      <trkpt lat="45.87407" lon="4.37799">
        <ele>675.8</ele>
        <time>2022-06-26T10:59:26Z</time>
      </trkpt>
      <trkpt lat="45.87406" lon="4.37795">
        <ele>676</ele>
        <time>2022-06-26T10:59:27Z</time>
      </trkpt>
      <trkpt lat="45.87405" lon="4.37791">
        <ele>676</ele>
        <time>2022-06-26T10:59:28Z</time>
      </trkpt>
      <trkpt lat="45.87404" lon="4.37787">
        <ele>676.4</ele>
        <time>2022-06-26T10:59:29Z</time>
      </trkpt>
      <trkpt lat="45.87404" lon="4.37784">
        <ele>676.4</ele>
        <time>2022-06-26T10:59:30Z</time>
      </trkpt>
      <trkpt lat="45.87403" lon="4.3778">
        <ele>676.8</ele>
        <time>2022-06-26T10:59:31Z</time>
      </trkpt>
      <trkpt lat="45.87402" lon="4.37777">
        <ele>676.8</ele>
        <time>2022-06-26T10:59:32Z</time>
      </trkpt>
      <trkpt lat="45.87402" lon="4.37773">
        <ele>677</ele>
        <time>2022-06-26T10:59:33Z</time>
      </trkpt>
      <trkpt lat="45.87401" lon="4.3777">
        <ele>677</ele>
        <time>2022-06-26T10:59:34Z</time>
      </trkpt>
      <trkpt lat="45.874" lon="4.37766">
        <ele>677.2</ele>
        <time>2022-06-26T10:59:35Z</time>
      </trkpt>
      <trkpt lat="45.874" lon="4.37762">
        <ele>677.2</ele>
        <time>2022-06-26T10:59:36Z</time>
      </trkpt>
      <trkpt lat="45.874" lon="4.37759">
        <ele>677.6</ele>
        <time>2022-06-26T10:59:37Z</time>
      </trkpt>
      <trkpt lat="45.87399" lon="4.37755">
        <ele>677.6</ele>
        <time>2022-06-26T10:59:38Z</time>
      </trkpt>
      <trkpt lat="45.87398" lon="4.37751">
        <ele>678</ele>
        <time>2022-06-26T10:59:39Z</time>
      </trkpt>
      <trkpt lat="45.87398" lon="4.37748">
        <ele>678</ele>
        <time>2022-06-26T10:59:40Z</time>
      </trkpt>
      <trkpt lat="45.87397" lon="4.37744">
        <ele>678.2</ele>
        <time>2022-06-26T10:59:41Z</time>
      </trkpt>
      <trkpt lat="45.87396" lon="4.3774">
        <ele>678.2</ele>
        <time>2022-06-26T10:59:42Z</time>
      </trkpt>
      <trkpt lat="45.87396" lon="4.37737">
        <ele>678.6</ele>
        <time>2022-06-26T10:59:43Z</time>
      </trkpt>
      <trkpt lat="45.87395" lon="4.37734">
        <ele>678.6</ele>
        <time>2022-06-26T10:59:44Z</time>
      </trkpt>
      <trkpt lat="45.87395" lon="4.3773">
        <ele>678.8</ele>
        <time>2022-06-26T10:59:45Z</time>
      </trkpt>
      <trkpt lat="45.87394" lon="4.37727">
        <ele>678.8</ele>
        <time>2022-06-26T10:59:46Z</time>
      </trkpt>
      <trkpt lat="45.87393" lon="4.37724">
        <ele>679.2</ele>
        <time>2022-06-26T10:59:47Z</time>
      </trkpt>
      <trkpt lat="45.87393" lon="4.3772">
        <ele>679.2</ele>
        <time>2022-06-26T10:59:48Z</time>
      </trkpt>
      <trkpt lat="45.87392" lon="4.37717">
        <ele>679.4</ele>
        <time>2022-06-26T10:59:49Z</time>
      </trkpt>
      <trkpt lat="45.87391" lon="4.37714">
        <ele>679.4</ele>
        <time>2022-06-26T10:59:50Z</time>
      </trkpt>
      <trkpt lat="45.8739" lon="4.37711">
        <ele>679.6</ele>
        <time>2022-06-26T10:59:51Z</time>
      </trkpt>
      <trkpt lat="45.87389" lon="4.37707">
        <ele>679.6</ele>
        <time>2022-06-26T10:59:52Z</time>
      </trkpt>
      <trkpt lat="45.87389" lon="4.37704">
        <ele>680</ele>
        <time>2022-06-26T10:59:53Z</time>
      </trkpt>
      <trkpt lat="45.87388" lon="4.37701">
        <ele>680</ele>
        <time>2022-06-26T10:59:54Z</time>
      </trkpt>
      <trkpt lat="45.87387" lon="4.37697">
        <ele>680.2</ele>
        <time>2022-06-26T10:59:55Z</time>
      </trkpt>
      <trkpt lat="45.87387" lon="4.37694">
        <ele>680.2</ele>
        <time>2022-06-26T10:59:56Z</time>
      </trkpt>
      <trkpt lat="45.87386" lon="4.37691">
        <ele>680.4</ele>
        <time>2022-06-26T10:59:57Z</time>
      </trkpt>
      <trkpt lat="45.87385" lon="4.37688">
        <ele>680.4</ele>
        <time>2022-06-26T10:59:58Z</time>
      </trkpt>
      <trkpt lat="45.87384" lon="4.37685">
        <ele>680.6</ele>
        <time>2022-06-26T10:59:59Z</time>
      </trkpt>
      <trkpt lat="45.87383" lon="4.37682">
        <ele>680.6</ele>
        <time>2022-06-26T11:00:00Z</time>
      </trkpt>
      <trkpt lat="45.87382" lon="4.37679">
        <ele>681</ele>
        <time>2022-06-26T11:00:01Z</time>
      </trkpt>
      <trkpt lat="45.87382" lon="4.37676">
        <ele>681</ele>
        <time>2022-06-26T11:00:02Z</time>
      </trkpt>
      <trkpt lat="45.87381" lon="4.37673">
        <ele>681.2</ele>
        <time>2022-06-26T11:00:03Z</time>
      </trkpt>
      <trkpt lat="45.8738" lon="4.3767">
        <ele>681.2</ele>
        <time>2022-06-26T11:00:04Z</time>
      </trkpt>
      <trkpt lat="45.87379" lon="4.37667">
        <ele>681.2</ele>
        <time>2022-06-26T11:00:05Z</time>
      </trkpt>
      <trkpt lat="45.87378" lon="4.37664">
        <ele>681.4</ele>
        <time>2022-06-26T11:00:06Z</time>
      </trkpt>
      <trkpt lat="45.87377" lon="4.37661">
        <ele>681.4</ele>
        <time>2022-06-26T11:00:07Z</time>
      </trkpt>
      <trkpt lat="45.87377" lon="4.37658">
        <ele>681.6</ele>
        <time>2022-06-26T11:00:08Z</time>
      </trkpt>
      <trkpt lat="45.87376" lon="4.37655">
        <ele>681.6</ele>
        <time>2022-06-26T11:00:09Z</time>
      </trkpt>
      <trkpt lat="45.87375" lon="4.37653">
        <ele>682</ele>
        <time>2022-06-26T11:00:10Z</time>
      </trkpt>
      <trkpt lat="45.87374" lon="4.3765">
        <ele>682</ele>
        <time>2022-06-26T11:00:11Z</time>
      </trkpt>
      <trkpt lat="45.87373" lon="4.37648">
        <ele>682.2</ele>
        <time>2022-06-26T11:00:12Z</time>
      </trkpt>
      <trkpt lat="45.87371" lon="4.37646">
        <ele>682.2</ele>
        <time>2022-06-26T11:00:13Z</time>
      </trkpt>
      <trkpt lat="45.8737" lon="4.37643">
        <ele>682.2</ele>
        <time>2022-06-26T11:00:14Z</time>
      </trkpt>
      <trkpt lat="45.87369" lon="4.3764">
        <ele>682.4</ele>
        <time>2022-06-26T11:00:15Z</time>
      </trkpt>
      <trkpt lat="45.87368" lon="4.37638">
        <ele>682.4</ele>
        <time>2022-06-26T11:00:16Z</time>
      </trkpt>
      <trkpt lat="45.87368" lon="4.37635">
        <ele>682.8</ele>
        <time>2022-06-26T11:00:17Z</time>
      </trkpt>
      <trkpt lat="45.87367" lon="4.37631">
        <ele>683</ele>
        <time>2022-06-26T11:00:18Z</time>
      </trkpt>
      <trkpt lat="45.87366" lon="4.37628">
        <ele>683</ele>
        <time>2022-06-26T11:00:19Z</time>
      </trkpt>
      <trkpt lat="45.87366" lon="4.37625">
        <ele>683.2</ele>
        <time>2022-06-26T11:00:20Z</time>
      </trkpt>
      <trkpt lat="45.87365" lon="4.37622">
        <ele>683.2</ele>
        <time>2022-06-26T11:00:21Z</time>
      </trkpt>
      <trkpt lat="45.87364" lon="4.37618">
        <ele>683.6</ele>
        <time>2022-06-26T11:00:22Z</time>
      </trkpt>
      <trkpt lat="45.87364" lon="4.37617">
        <ele>683.6</ele>
        <time>2022-06-26T11:00:23Z</time>
      </trkpt>
      <trkpt lat="45.87363" lon="4.37615">
        <ele>683.6</ele>
        <time>2022-06-26T11:00:24Z</time>
      </trkpt>
      <trkpt lat="45.87362" lon="4.37613">
        <ele>683.6</ele>
        <time>2022-06-26T11:00:25Z</time>
      </trkpt>
      <trkpt lat="45.87362" lon="4.37612">
        <ele>684</ele>
        <time>2022-06-26T11:03:57Z</time>
      </trkpt>
      <trkpt lat="45.87361" lon="4.3761">
        <ele>684</ele>
        <time>2022-06-26T11:03:58Z</time>
      </trkpt>
      <trkpt lat="45.87361" lon="4.37608">
        <ele>684</ele>
        <time>2022-06-26T11:03:59Z</time>
      </trkpt>
      <trkpt lat="45.8736" lon="4.37606">
        <ele>684</ele>
        <time>2022-06-26T11:04:00Z</time>
      </trkpt>
      <trkpt lat="45.87359" lon="4.37604">
        <ele>684.2</ele>
        <time>2022-06-26T11:04:01Z</time>
      </trkpt>
      <trkpt lat="45.87358" lon="4.37602">
        <ele>684.2</ele>
        <time>2022-06-26T11:04:02Z</time>
      </trkpt>
      <trkpt lat="45.87358" lon="4.37599">
        <ele>684.2</ele>
        <time>2022-06-26T11:04:03Z</time>
      </trkpt>
      <trkpt lat="45.87357" lon="4.37597">
        <ele>684.2</ele>
        <time>2022-06-26T11:04:04Z</time>
      </trkpt>
      <trkpt lat="45.87355" lon="4.37594">
        <ele>684.4</ele>
        <time>2022-06-26T11:04:05Z</time>
      </trkpt>
      <trkpt lat="45.87354" lon="4.37591">
        <ele>684.4</ele>
        <time>2022-06-26T11:04:06Z</time>
      </trkpt>
      <trkpt lat="45.87353" lon="4.37589">
        <ele>684.4</ele>
        <time>2022-06-26T11:04:07Z</time>
      </trkpt>
      <trkpt lat="45.87352" lon="4.37586">
        <ele>684.8</ele>
        <time>2022-06-26T11:04:08Z</time>
      </trkpt>
      <trkpt lat="45.87351" lon="4.37583">
        <ele>684.8</ele>
        <time>2022-06-26T11:04:09Z</time>
      </trkpt>
      <trkpt lat="45.8735" lon="4.3758">
        <ele>684.8</ele>
        <time>2022-06-26T11:04:10Z</time>
      </trkpt>
      <trkpt lat="45.87349" lon="4.37577">
        <ele>685</ele>
        <time>2022-06-26T11:04:11Z</time>
      </trkpt>
      <trkpt lat="45.87348" lon="4.37574">
        <ele>685</ele>
        <time>2022-06-26T11:04:12Z</time>
      </trkpt>
      <trkpt lat="45.87347" lon="4.37571">
        <ele>685.4</ele>
        <time>2022-06-26T11:04:13Z</time>
      </trkpt>
      <trkpt lat="45.87347" lon="4.37569">
        <ele>685.4</ele>
        <time>2022-06-26T11:04:14Z</time>
      </trkpt>
      <trkpt lat="45.87346" lon="4.37566">
        <ele>685.6</ele>
        <time>2022-06-26T11:04:15Z</time>
      </trkpt>
      <trkpt lat="45.87344" lon="4.37563">
        <ele>685.6</ele>
        <time>2022-06-26T11:04:16Z</time>
      </trkpt>
      <trkpt lat="45.87343" lon="4.3756">
        <ele>685.8</ele>
        <time>2022-06-26T11:04:17Z</time>
      </trkpt>
      <trkpt lat="45.87342" lon="4.37557">
        <ele>685.8</ele>
        <time>2022-06-26T11:04:18Z</time>
      </trkpt>
      <trkpt lat="45.87341" lon="4.37555">
        <ele>686.2</ele>
        <time>2022-06-26T11:04:19Z</time>
      </trkpt>
      <trkpt lat="45.8734" lon="4.37552">
        <ele>686.2</ele>
        <time>2022-06-26T11:04:20Z</time>
      </trkpt>
      <trkpt lat="45.87338" lon="4.3755">
        <ele>686.4</ele>
        <time>2022-06-26T11:04:21Z</time>
      </trkpt>
      <trkpt lat="45.87337" lon="4.37548">
        <ele>686.4</ele>
        <time>2022-06-26T11:04:22Z</time>
      </trkpt>
      <trkpt lat="45.87335" lon="4.37545">
        <ele>686.6</ele>
        <time>2022-06-26T11:04:23Z</time>
      </trkpt>
      <trkpt lat="45.87334" lon="4.37543">
        <ele>686.6</ele>
        <time>2022-06-26T11:04:24Z</time>
      </trkpt>
      <trkpt lat="45.87332" lon="4.37541">
        <ele>687</ele>
        <time>2022-06-26T11:04:25Z</time>
      </trkpt>
      <trkpt lat="45.87331" lon="4.37539">
        <ele>687</ele>
        <time>2022-06-26T11:04:26Z</time>
      </trkpt>
      <trkpt lat="45.87329" lon="4.37537">
        <ele>687.2</ele>
        <time>2022-06-26T11:04:27Z</time>
      </trkpt>
      <trkpt lat="45.87327" lon="4.37535">
        <ele>687.2</ele>
        <time>2022-06-26T11:04:28Z</time>
      </trkpt>
      <trkpt lat="45.87325" lon="4.37533">
        <ele>687.6</ele>
        <time>2022-06-26T11:04:29Z</time>
      </trkpt>
      <trkpt lat="45.87323" lon="4.37531">
        <ele>687.6</ele>
        <time>2022-06-26T11:04:30Z</time>
      </trkpt>
      <trkpt lat="45.87321" lon="4.3753">
        <ele>687.8</ele>
        <time>2022-06-26T11:04:31Z</time>
      </trkpt>
      <trkpt lat="45.87319" lon="4.37528">
        <ele>687.8</ele>
        <time>2022-06-26T11:04:32Z</time>
      </trkpt>
      <trkpt lat="45.87317" lon="4.37526">
        <ele>688.2</ele>
        <time>2022-06-26T11:04:33Z</time>
      </trkpt>
      <trkpt lat="45.87315" lon="4.37525">
        <ele>688.2</ele>
        <time>2022-06-26T11:04:34Z</time>
      </trkpt>
      <trkpt lat="45.87313" lon="4.37523">
        <ele>688.4</ele>
        <time>2022-06-26T11:04:35Z</time>
      </trkpt>
      <trkpt lat="45.87311" lon="4.37521">
        <ele>688.4</ele>
        <time>2022-06-26T11:04:36Z</time>
      </trkpt>
      <trkpt lat="45.87309" lon="4.3752">
        <ele>688.6</ele>
        <time>2022-06-26T11:04:37Z</time>
      </trkpt>
      <trkpt lat="45.87306" lon="4.37518">
        <ele>688.6</ele>
        <time>2022-06-26T11:04:38Z</time>
      </trkpt>
      <trkpt lat="45.87304" lon="4.37517">
        <ele>689</ele>
        <time>2022-06-26T11:04:39Z</time>
      </trkpt>
      <trkpt lat="45.87302" lon="4.37517">
        <ele>689</ele>
        <time>2022-06-26T11:04:40Z</time>
      </trkpt>
      <trkpt lat="45.87299" lon="4.37516">
        <ele>689.2</ele>
        <time>2022-06-26T11:04:41Z</time>
      </trkpt>
      <trkpt lat="45.87297" lon="4.37515">
        <ele>689.2</ele>
        <time>2022-06-26T11:04:42Z</time>
      </trkpt>
      <trkpt lat="45.87294" lon="4.37514">
        <ele>689.4</ele>
        <time>2022-06-26T11:04:43Z</time>
      </trkpt>
      <trkpt lat="45.87291" lon="4.37513">
        <ele>689.4</ele>
        <time>2022-06-26T11:04:44Z</time>
      </trkpt>
      <trkpt lat="45.87289" lon="4.37512">
        <ele>689.8</ele>
        <time>2022-06-26T11:04:45Z</time>
      </trkpt>
      <trkpt lat="45.87286" lon="4.37511">
        <ele>689.8</ele>
        <time>2022-06-26T11:04:46Z</time>
      </trkpt>
      <trkpt lat="45.87283" lon="4.3751">
        <ele>690</ele>
        <time>2022-06-26T11:04:47Z</time>
      </trkpt>
      <trkpt lat="45.87281" lon="4.37509">
        <ele>690</ele>
        <time>2022-06-26T11:04:48Z</time>
      </trkpt>
      <trkpt lat="45.87278" lon="4.37508">
        <ele>690.2</ele>
        <time>2022-06-26T11:04:49Z</time>
      </trkpt>
      <trkpt lat="45.87275" lon="4.37507">
        <ele>690.2</ele>
        <time>2022-06-26T11:04:50Z</time>
      </trkpt>
      <trkpt lat="45.87272" lon="4.37506">
        <ele>690.6</ele>
        <time>2022-06-26T11:04:51Z</time>
      </trkpt>
      <trkpt lat="45.87269" lon="4.37506">
        <ele>690.6</ele>
        <time>2022-06-26T11:04:52Z</time>
      </trkpt>
      <trkpt lat="45.87266" lon="4.37505">
        <ele>690.8</ele>
        <time>2022-06-26T11:04:53Z</time>
      </trkpt>
      <trkpt lat="45.87264" lon="4.37505">
        <ele>690.8</ele>
        <time>2022-06-26T11:04:54Z</time>
      </trkpt>
      <trkpt lat="45.8726" lon="4.37504">
        <ele>691</ele>
        <time>2022-06-26T11:04:55Z</time>
      </trkpt>
      <trkpt lat="45.87257" lon="4.37504">
        <ele>691</ele>
        <time>2022-06-26T11:04:56Z</time>
      </trkpt>
      <trkpt lat="45.87254" lon="4.37503">
        <ele>691.4</ele>
        <time>2022-06-26T11:04:57Z</time>
      </trkpt>
      <trkpt lat="45.87251" lon="4.37503">
        <ele>691.4</ele>
        <time>2022-06-26T11:04:58Z</time>
      </trkpt>
      <trkpt lat="45.87248" lon="4.37503">
        <ele>691.6</ele>
        <time>2022-06-26T11:04:59Z</time>
      </trkpt>
      <trkpt lat="45.87245" lon="4.37503">
        <ele>691.6</ele>
        <time>2022-06-26T11:05:00Z</time>
      </trkpt>
      <trkpt lat="45.87242" lon="4.37504">
        <ele>692</ele>
        <time>2022-06-26T11:05:01Z</time>
      </trkpt>
      <trkpt lat="45.87239" lon="4.37505">
        <ele>692.2</ele>
        <time>2022-06-26T11:05:02Z</time>
      </trkpt>
      <trkpt lat="45.87237" lon="4.37506">
        <ele>692.2</ele>
        <time>2022-06-26T11:05:03Z</time>
      </trkpt>
      <trkpt lat="45.87234" lon="4.37507">
        <ele>692.6</ele>
        <time>2022-06-26T11:05:04Z</time>
      </trkpt>
      <trkpt lat="45.87231" lon="4.37507">
        <ele>692.6</ele>
        <time>2022-06-26T11:05:05Z</time>
      </trkpt>
      <trkpt lat="45.87228" lon="4.37508">
        <ele>692.8</ele>
        <time>2022-06-26T11:05:06Z</time>
      </trkpt>
      <trkpt lat="45.87225" lon="4.37509">
        <ele>693</ele>
        <time>2022-06-26T11:05:07Z</time>
      </trkpt>
      <trkpt lat="45.87222" lon="4.3751">
        <ele>693.4</ele>
        <time>2022-06-26T11:05:08Z</time>
      </trkpt>
      <trkpt lat="45.87219" lon="4.37511">
        <ele>693.4</ele>
        <time>2022-06-26T11:05:09Z</time>
      </trkpt>
      <trkpt lat="45.87216" lon="4.37513">
        <ele>693.6</ele>
        <time>2022-06-26T11:05:10Z</time>
      </trkpt>
      <trkpt lat="45.87213" lon="4.37515">
        <ele>693.6</ele>
        <time>2022-06-26T11:05:11Z</time>
      </trkpt>
      <trkpt lat="45.8721" lon="4.37516">
        <ele>693.8</ele>
        <time>2022-06-26T11:05:12Z</time>
      </trkpt>
      <trkpt lat="45.87208" lon="4.37518">
        <ele>693.8</ele>
        <time>2022-06-26T11:05:13Z</time>
      </trkpt>
      <trkpt lat="45.87205" lon="4.37519">
        <ele>693.8</ele>
        <time>2022-06-26T11:05:14Z</time>
      </trkpt>
      <trkpt lat="45.87202" lon="4.37519">
        <ele>694.2</ele>
        <time>2022-06-26T11:05:15Z</time>
      </trkpt>
      <trkpt lat="45.87199" lon="4.3752">
        <ele>694.2</ele>
        <time>2022-06-26T11:05:16Z</time>
      </trkpt>
      <trkpt lat="45.87196" lon="4.37521">
        <ele>694.6</ele>
        <time>2022-06-26T11:05:17Z</time>
      </trkpt>
      <trkpt lat="45.87193" lon="4.37522">
        <ele>694.6</ele>
        <time>2022-06-26T11:05:18Z</time>
      </trkpt>
      <trkpt lat="45.8719" lon="4.37522">
        <ele>694.8</ele>
        <time>2022-06-26T11:05:19Z</time>
      </trkpt>
      <trkpt lat="45.87187" lon="4.37522">
        <ele>694.8</ele>
        <time>2022-06-26T11:05:20Z</time>
      </trkpt>
      <trkpt lat="45.87184" lon="4.37523">
        <ele>695.2</ele>
        <time>2022-06-26T11:05:21Z</time>
      </trkpt>
      <trkpt lat="45.87181" lon="4.37523">
        <ele>695.4</ele>
        <time>2022-06-26T11:05:22Z</time>
      </trkpt>
      <trkpt lat="45.87179" lon="4.37523">
        <ele>695.6</ele>
        <time>2022-06-26T11:05:23Z</time>
      </trkpt>
      <trkpt lat="45.87176" lon="4.37523">
        <ele>695.6</ele>
        <time>2022-06-26T11:05:24Z</time>
      </trkpt>
      <trkpt lat="45.87173" lon="4.37524">
        <ele>696</ele>
        <time>2022-06-26T11:05:25Z</time>
      </trkpt>
      <trkpt lat="45.8717" lon="4.37524">
        <ele>696</ele>
        <time>2022-06-26T11:05:26Z</time>
      </trkpt>
      <trkpt lat="45.87167" lon="4.37524">
        <ele>696.4</ele>
        <time>2022-06-26T11:05:27Z</time>
      </trkpt>
      <trkpt lat="45.87164" lon="4.37524">
        <ele>696.6</ele>
        <time>2022-06-26T11:05:28Z</time>
      </trkpt>
      <trkpt lat="45.87161" lon="4.37525">
        <ele>696.8</ele>
        <time>2022-06-26T11:05:29Z</time>
      </trkpt>
      <trkpt lat="45.87158" lon="4.37526">
        <ele>696.8</ele>
        <time>2022-06-26T11:05:30Z</time>
      </trkpt>
      <trkpt lat="45.87156" lon="4.37527">
        <ele>697.2</ele>
        <time>2022-06-26T11:05:31Z</time>
      </trkpt>
      <trkpt lat="45.87154" lon="4.37528">
        <ele>697.6</ele>
        <time>2022-06-26T11:05:32Z</time>
      </trkpt>
      <trkpt lat="45.87151" lon="4.37529">
        <ele>697.6</ele>
        <time>2022-06-26T11:05:33Z</time>
      </trkpt>
      <trkpt lat="45.87149" lon="4.3753">
        <ele>697.8</ele>
        <time>2022-06-26T11:05:34Z</time>
      </trkpt>
      <trkpt lat="45.87147" lon="4.37532">
        <ele>698.2</ele>
        <time>2022-06-26T11:05:35Z</time>
      </trkpt>
      <trkpt lat="45.87144" lon="4.37534">
        <ele>698.2</ele>
        <time>2022-06-26T11:05:36Z</time>
      </trkpt>
      <trkpt lat="45.87142" lon="4.37536">
        <ele>698.4</ele>
        <time>2022-06-26T11:05:37Z</time>
      </trkpt>
      <trkpt lat="45.87139" lon="4.37538">
        <ele>698.4</ele>
        <time>2022-06-26T11:05:38Z</time>
      </trkpt>
      <trkpt lat="45.87137" lon="4.37541">
        <ele>698.8</ele>
        <time>2022-06-26T11:05:39Z</time>
      </trkpt>
      <trkpt lat="45.87134" lon="4.37543">
        <ele>698.8</ele>
        <time>2022-06-26T11:05:40Z</time>
      </trkpt>
      <trkpt lat="45.87132" lon="4.37545">
        <ele>699</ele>
        <time>2022-06-26T11:05:41Z</time>
      </trkpt>
      <trkpt lat="45.8713" lon="4.37547">
        <ele>699.2</ele>
        <time>2022-06-26T11:05:42Z</time>
      </trkpt>
      <trkpt lat="45.87127" lon="4.3755">
        <ele>699.2</ele>
        <time>2022-06-26T11:05:43Z</time>
      </trkpt>
      <trkpt lat="45.87125" lon="4.37552">
        <ele>699.6</ele>
        <time>2022-06-26T11:05:44Z</time>
      </trkpt>
      <trkpt lat="45.87123" lon="4.37554">
        <ele>699.6</ele>
        <time>2022-06-26T11:05:45Z</time>
      </trkpt>
      <trkpt lat="45.87121" lon="4.37557">
        <ele>700</ele>
        <time>2022-06-26T11:05:46Z</time>
      </trkpt>
      <trkpt lat="45.8712" lon="4.3756">
        <ele>700</ele>
        <time>2022-06-26T11:05:47Z</time>
      </trkpt>
      <trkpt lat="45.87118" lon="4.37563">
        <ele>700.2</ele>
        <time>2022-06-26T11:05:48Z</time>
      </trkpt>
      <trkpt lat="45.87117" lon="4.37566">
        <ele>700.2</ele>
        <time>2022-06-26T11:05:49Z</time>
      </trkpt>
      <trkpt lat="45.87115" lon="4.37569">
        <ele>700.4</ele>
        <time>2022-06-26T11:05:50Z</time>
      </trkpt>
      <trkpt lat="45.87114" lon="4.37572">
        <ele>700.4</ele>
        <time>2022-06-26T11:05:51Z</time>
      </trkpt>
      <trkpt lat="45.87113" lon="4.37576">
        <ele>700.4</ele>
        <time>2022-06-26T11:05:52Z</time>
      </trkpt>
      <trkpt lat="45.87112" lon="4.37579">
        <ele>700.8</ele>
        <time>2022-06-26T11:05:53Z</time>
      </trkpt>
      <trkpt lat="45.87111" lon="4.37582">
        <ele>701</ele>
        <time>2022-06-26T11:05:54Z</time>
      </trkpt>
      <trkpt lat="45.8711" lon="4.37585">
        <ele>701</ele>
        <time>2022-06-26T11:05:55Z</time>
      </trkpt>
      <trkpt lat="45.8711" lon="4.37589">
        <ele>701.4</ele>
        <time>2022-06-26T11:05:56Z</time>
      </trkpt>
      <trkpt lat="45.87109" lon="4.37593">
        <ele>701.4</ele>
        <time>2022-06-26T11:05:57Z</time>
      </trkpt>
      <trkpt lat="45.87108" lon="4.37597">
        <ele>701.6</ele>
        <time>2022-06-26T11:05:58Z</time>
      </trkpt>
      <trkpt lat="45.87108" lon="4.37601">
        <ele>701.6</ele>
        <time>2022-06-26T11:05:59Z</time>
      </trkpt>
      <trkpt lat="45.87108" lon="4.37605">
        <ele>702</ele>
        <time>2022-06-26T11:06:00Z</time>
      </trkpt>
      <trkpt lat="45.87107" lon="4.37609">
        <ele>702</ele>
        <time>2022-06-26T11:06:01Z</time>
      </trkpt>
      <trkpt lat="45.87106" lon="4.37613">
        <ele>702.2</ele>
        <time>2022-06-26T11:06:02Z</time>
      </trkpt>
      <trkpt lat="45.87106" lon="4.37617">
        <ele>702.2</ele>
        <time>2022-06-26T11:06:03Z</time>
      </trkpt>
      <trkpt lat="45.87105" lon="4.37621">
        <ele>702.6</ele>
        <time>2022-06-26T11:06:04Z</time>
      </trkpt>
      <trkpt lat="45.87105" lon="4.37625">
        <ele>702.6</ele>
        <time>2022-06-26T11:06:05Z</time>
      </trkpt>
      <trkpt lat="45.87105" lon="4.37629">
        <ele>702.8</ele>
        <time>2022-06-26T11:06:06Z</time>
      </trkpt>
      <trkpt lat="45.87104" lon="4.37633">
        <ele>702.8</ele>
        <time>2022-06-26T11:06:07Z</time>
      </trkpt>
      <trkpt lat="45.87104" lon="4.37637">
        <ele>703</ele>
        <time>2022-06-26T11:06:08Z</time>
      </trkpt>
      <trkpt lat="45.87103" lon="4.37641">
        <ele>703</ele>
        <time>2022-06-26T11:06:09Z</time>
      </trkpt>
      <trkpt lat="45.87102" lon="4.37644">
        <ele>703.4</ele>
        <time>2022-06-26T11:06:10Z</time>
      </trkpt>
      <trkpt lat="45.87102" lon="4.37648">
        <ele>703.4</ele>
        <time>2022-06-26T11:06:11Z</time>
      </trkpt>
      <trkpt lat="45.87102" lon="4.37651">
        <ele>703.8</ele>
        <time>2022-06-26T11:06:12Z</time>
      </trkpt>
      <trkpt lat="45.87102" lon="4.37655">
        <ele>703.8</ele>
        <time>2022-06-26T11:06:13Z</time>
      </trkpt>
      <trkpt lat="45.87101" lon="4.37659">
        <ele>704</ele>
        <time>2022-06-26T11:06:14Z</time>
      </trkpt>
      <trkpt lat="45.87101" lon="4.37663">
        <ele>704</ele>
        <time>2022-06-26T11:06:15Z</time>
      </trkpt>
      <trkpt lat="45.871" lon="4.37667">
        <ele>704</ele>
        <time>2022-06-26T11:06:16Z</time>
      </trkpt>
      <trkpt lat="45.87099" lon="4.37671">
        <ele>704.4</ele>
        <time>2022-06-26T11:06:17Z</time>
      </trkpt>
      <trkpt lat="45.87099" lon="4.37675">
        <ele>704.4</ele>
        <time>2022-06-26T11:06:18Z</time>
      </trkpt>
      <trkpt lat="45.87099" lon="4.37679">
        <ele>704.6</ele>
        <time>2022-06-26T11:06:19Z</time>
      </trkpt>
      <trkpt lat="45.87098" lon="4.37682">
        <ele>704.6</ele>
        <time>2022-06-26T11:06:20Z</time>
      </trkpt>
      <trkpt lat="45.87098" lon="4.37686">
        <ele>704.8</ele>
        <time>2022-06-26T11:06:21Z</time>
      </trkpt>
      <trkpt lat="45.87098" lon="4.3769">
        <ele>704.8</ele>
        <time>2022-06-26T11:06:22Z</time>
      </trkpt>
      <trkpt lat="45.87097" lon="4.37694">
        <ele>705.2</ele>
        <time>2022-06-26T11:06:23Z</time>
      </trkpt>
      <trkpt lat="45.87097" lon="4.37697">
        <ele>705.2</ele>
        <time>2022-06-26T11:06:24Z</time>
      </trkpt>
      <trkpt lat="45.87097" lon="4.37701">
        <ele>705.4</ele>
        <time>2022-06-26T11:06:25Z</time>
      </trkpt>
      <trkpt lat="45.87097" lon="4.37704">
        <ele>705.4</ele>
        <time>2022-06-26T11:06:26Z</time>
      </trkpt>
      <trkpt lat="45.87096" lon="4.37708">
        <ele>705.8</ele>
        <time>2022-06-26T11:06:27Z</time>
      </trkpt>
      <trkpt lat="45.87096" lon="4.37711">
        <ele>706</ele>
        <time>2022-06-26T11:06:28Z</time>
      </trkpt>
      <trkpt lat="45.87095" lon="4.37715">
        <ele>706</ele>
        <time>2022-06-26T11:06:29Z</time>
      </trkpt>
      <trkpt lat="45.87094" lon="4.37718">
        <ele>706.4</ele>
        <time>2022-06-26T11:06:30Z</time>
      </trkpt>
      <trkpt lat="45.87094" lon="4.37722">
        <ele>706.4</ele>
        <time>2022-06-26T11:06:31Z</time>
      </trkpt>
      <trkpt lat="45.87094" lon="4.37725">
        <ele>706.6</ele>
        <time>2022-06-26T11:06:32Z</time>
      </trkpt>
      <trkpt lat="45.87094" lon="4.37729">
        <ele>706.6</ele>
        <time>2022-06-26T11:06:33Z</time>
      </trkpt>
      <trkpt lat="45.87093" lon="4.37732">
        <ele>707</ele>
        <time>2022-06-26T11:06:34Z</time>
      </trkpt>
      <trkpt lat="45.87092" lon="4.37736">
        <ele>707</ele>
        <time>2022-06-26T11:06:35Z</time>
      </trkpt>
      <trkpt lat="45.87091" lon="4.37739">
        <ele>707.2</ele>
        <time>2022-06-26T11:06:36Z</time>
      </trkpt>
      <trkpt lat="45.87091" lon="4.37742">
        <ele>707.2</ele>
        <time>2022-06-26T11:06:37Z</time>
      </trkpt>
      <trkpt lat="45.87089" lon="4.37745">
        <ele>707.4</ele>
        <time>2022-06-26T11:06:38Z</time>
      </trkpt>
      <trkpt lat="45.87088" lon="4.37749">
        <ele>707.4</ele>
        <time>2022-06-26T11:06:39Z</time>
      </trkpt>
      <trkpt lat="45.87087" lon="4.37751">
        <ele>707.8</ele>
        <time>2022-06-26T11:06:40Z</time>
      </trkpt>
      <trkpt lat="45.87086" lon="4.37754">
        <ele>707.8</ele>
        <time>2022-06-26T11:06:41Z</time>
      </trkpt>
      <trkpt lat="45.87085" lon="4.37757">
        <ele>708</ele>
        <time>2022-06-26T11:06:42Z</time>
      </trkpt>
      <trkpt lat="45.87084" lon="4.3776">
        <ele>708</ele>
        <time>2022-06-26T11:06:43Z</time>
      </trkpt>
      <trkpt lat="45.87083" lon="4.37763">
        <ele>708.2</ele>
        <time>2022-06-26T11:06:44Z</time>
      </trkpt>
      <trkpt lat="45.87083" lon="4.37765">
        <ele>708.2</ele>
        <time>2022-06-26T11:06:45Z</time>
      </trkpt>
      <trkpt lat="45.87083" lon="4.37767">
        <ele>708.6</ele>
        <time>2022-06-26T11:06:46Z</time>
      </trkpt>
      <trkpt lat="45.87082" lon="4.3777">
        <ele>708.6</ele>
        <time>2022-06-26T11:06:47Z</time>
      </trkpt>
      <trkpt lat="45.87082" lon="4.37772">
        <ele>708.8</ele>
        <time>2022-06-26T11:06:48Z</time>
      </trkpt>
      <trkpt lat="45.87081" lon="4.37775">
        <ele>708.8</ele>
        <time>2022-06-26T11:06:49Z</time>
      </trkpt>
      <trkpt lat="45.8708" lon="4.37777">
        <ele>709.2</ele>
        <time>2022-06-26T11:06:50Z</time>
      </trkpt>
      <trkpt lat="45.8708" lon="4.37781">
        <ele>709.2</ele>
        <time>2022-06-26T11:06:51Z</time>
      </trkpt>
      <trkpt lat="45.87079" lon="4.37783">
        <ele>709.4</ele>
        <time>2022-06-26T11:06:52Z</time>
      </trkpt>
      <trkpt lat="45.87078" lon="4.37788">
        <ele>709.6</ele>
        <time>2022-06-26T11:06:53Z</time>
      </trkpt>
      <trkpt lat="45.87077" lon="4.37791">
        <ele>709.6</ele>
        <time>2022-06-26T11:06:54Z</time>
      </trkpt>
      <trkpt lat="45.87076" lon="4.37793">
        <ele>710</ele>
        <time>2022-06-26T11:06:55Z</time>
      </trkpt>
      <trkpt lat="45.87075" lon="4.37797">
        <ele>710</ele>
        <time>2022-06-26T11:06:56Z</time>
      </trkpt>
      <trkpt lat="45.87074" lon="4.37803">
        <ele>710</ele>
        <time>2022-06-26T11:06:57Z</time>
      </trkpt>
      <trkpt lat="45.87073" lon="4.37809">
        <ele>710.2</ele>
        <time>2022-06-26T11:06:58Z</time>
      </trkpt>
      <trkpt lat="45.87073" lon="4.37814">
        <ele>710.2</ele>
        <time>2022-06-26T11:06:59Z</time>
      </trkpt>
      <trkpt lat="45.87073" lon="4.37818">
        <ele>710.6</ele>
        <time>2022-06-26T11:07:00Z</time>
      </trkpt>
      <trkpt lat="45.87073" lon="4.37823">
        <ele>710.6</ele>
        <time>2022-06-26T11:07:01Z</time>
      </trkpt>
      <trkpt lat="45.87072" lon="4.37828">
        <ele>710.8</ele>
        <time>2022-06-26T11:07:02Z</time>
      </trkpt>
      <trkpt lat="45.87072" lon="4.37832">
        <ele>710.8</ele>
        <time>2022-06-26T11:07:03Z</time>
      </trkpt>
      <trkpt lat="45.87072" lon="4.37837">
        <ele>711.2</ele>
        <time>2022-06-26T11:07:04Z</time>
      </trkpt>
      <trkpt lat="45.87072" lon="4.37842">
        <ele>711.2</ele>
        <time>2022-06-26T11:07:05Z</time>
      </trkpt>
      <trkpt lat="45.87072" lon="4.37847">
        <ele>711.6</ele>
        <time>2022-06-26T11:07:06Z</time>
      </trkpt>
      <trkpt lat="45.87072" lon="4.37852">
        <ele>711.6</ele>
        <time>2022-06-26T11:07:07Z</time>
      </trkpt>
      <trkpt lat="45.87072" lon="4.37857">
        <ele>711.8</ele>
        <time>2022-06-26T11:07:08Z</time>
      </trkpt>
      <trkpt lat="45.87072" lon="4.37862">
        <ele>711.8</ele>
        <time>2022-06-26T11:07:09Z</time>
      </trkpt>
      <trkpt lat="45.87072" lon="4.37867">
        <ele>712</ele>
        <time>2022-06-26T11:07:10Z</time>
      </trkpt>
      <trkpt lat="45.87071" lon="4.37872">
        <ele>712</ele>
        <time>2022-06-26T11:07:11Z</time>
      </trkpt>
      <trkpt lat="45.87071" lon="4.37877">
        <ele>712.4</ele>
        <time>2022-06-26T11:07:12Z</time>
      </trkpt>
      <trkpt lat="45.87071" lon="4.37882">
        <ele>712.4</ele>
        <time>2022-06-26T11:07:13Z</time>
      </trkpt>
      <trkpt lat="45.87071" lon="4.37887">
        <ele>712.6</ele>
        <time>2022-06-26T11:07:14Z</time>
      </trkpt>
      <trkpt lat="45.87071" lon="4.37892">
        <ele>712.6</ele>
        <time>2022-06-26T11:07:15Z</time>
      </trkpt>
      <trkpt lat="45.87071" lon="4.37897">
        <ele>713</ele>
        <time>2022-06-26T11:07:16Z</time>
      </trkpt>
      <trkpt lat="45.8707" lon="4.37902">
        <ele>713</ele>
        <time>2022-06-26T11:07:17Z</time>
      </trkpt>
      <trkpt lat="45.8707" lon="4.37906">
        <ele>713.4</ele>
        <time>2022-06-26T11:07:18Z</time>
      </trkpt>
      <trkpt lat="45.87069" lon="4.3791">
        <ele>713.4</ele>
        <time>2022-06-26T11:07:19Z</time>
      </trkpt>
      <trkpt lat="45.87068" lon="4.37915">
        <ele>713.8</ele>
        <time>2022-06-26T11:07:20Z</time>
      </trkpt>
      <trkpt lat="45.87068" lon="4.37919">
        <ele>713.8</ele>
        <time>2022-06-26T11:07:21Z</time>
      </trkpt>
      <trkpt lat="45.87067" lon="4.37923">
        <ele>714</ele>
        <time>2022-06-26T11:07:22Z</time>
      </trkpt>
      <trkpt lat="45.87066" lon="4.37927">
        <ele>714</ele>
        <time>2022-06-26T11:07:23Z</time>
      </trkpt>
      <trkpt lat="45.87065" lon="4.37931">
        <ele>714.4</ele>
        <time>2022-06-26T11:07:24Z</time>
      </trkpt>
      <trkpt lat="45.87064" lon="4.37935">
        <ele>714.4</ele>
        <time>2022-06-26T11:07:25Z</time>
      </trkpt>
      <trkpt lat="45.87063" lon="4.37939">
        <ele>714.8</ele>
        <time>2022-06-26T11:07:26Z</time>
      </trkpt>
      <trkpt lat="45.87062" lon="4.37943">
        <ele>714.8</ele>
        <time>2022-06-26T11:07:27Z</time>
      </trkpt>
      <trkpt lat="45.87061" lon="4.37947">
        <ele>715</ele>
        <time>2022-06-26T11:07:28Z</time>
      </trkpt>
      <trkpt lat="45.87059" lon="4.37951">
        <ele>715</ele>
        <time>2022-06-26T11:07:29Z</time>
      </trkpt>
      <trkpt lat="45.87058" lon="4.37954">
        <ele>715.2</ele>
        <time>2022-06-26T11:07:30Z</time>
      </trkpt>
      <trkpt lat="45.87057" lon="4.37958">
        <ele>715.2</ele>
        <time>2022-06-26T11:07:31Z</time>
      </trkpt>
      <trkpt lat="45.87056" lon="4.37961">
        <ele>715.6</ele>
        <time>2022-06-26T11:07:32Z</time>
      </trkpt>
      <trkpt lat="45.87055" lon="4.37966">
        <ele>715.6</ele>
        <time>2022-06-26T11:07:33Z</time>
      </trkpt>
      <trkpt lat="45.87054" lon="4.37969">
        <ele>716</ele>
        <time>2022-06-26T11:07:34Z</time>
      </trkpt>
      <trkpt lat="45.87052" lon="4.37973">
        <ele>716</ele>
        <time>2022-06-26T11:07:35Z</time>
      </trkpt>
      <trkpt lat="45.87051" lon="4.37976">
        <ele>716.2</ele>
        <time>2022-06-26T11:07:36Z</time>
      </trkpt>
      <trkpt lat="45.8705" lon="4.3798">
        <ele>716.4</ele>
        <time>2022-06-26T11:07:37Z</time>
      </trkpt>
      <trkpt lat="45.87048" lon="4.37983">
        <ele>716.6</ele>
        <time>2022-06-26T11:07:38Z</time>
      </trkpt>
      <trkpt lat="45.87047" lon="4.37986">
        <ele>716.6</ele>
        <time>2022-06-26T11:07:39Z</time>
      </trkpt>
      <trkpt lat="45.87045" lon="4.37989">
        <ele>717</ele>
        <time>2022-06-26T11:07:40Z</time>
      </trkpt>
      <trkpt lat="45.87044" lon="4.37992">
        <ele>717</ele>
        <time>2022-06-26T11:07:41Z</time>
      </trkpt>
      <trkpt lat="45.87043" lon="4.37995">
        <ele>717.2</ele>
        <time>2022-06-26T11:07:42Z</time>
      </trkpt>
      <trkpt lat="45.87041" lon="4.37998">
        <ele>717.2</ele>
        <time>2022-06-26T11:07:43Z</time>
      </trkpt>
      <trkpt lat="45.8704" lon="4.38001">
        <ele>717.6</ele>
        <time>2022-06-26T11:07:44Z</time>
      </trkpt>
      <trkpt lat="45.87039" lon="4.38004">
        <ele>717.6</ele>
        <time>2022-06-26T11:07:45Z</time>
      </trkpt>
      <trkpt lat="45.87037" lon="4.38007">
        <ele>718</ele>
        <time>2022-06-26T11:07:46Z</time>
      </trkpt>
      <trkpt lat="45.87036" lon="4.3801">
        <ele>718</ele>
        <time>2022-06-26T11:07:47Z</time>
      </trkpt>
      <trkpt lat="45.87034" lon="4.38012">
        <ele>718.2</ele>
        <time>2022-06-26T11:07:48Z</time>
      </trkpt>
      <trkpt lat="45.87032" lon="4.38015">
        <ele>718.2</ele>
        <time>2022-06-26T11:07:49Z</time>
      </trkpt>
      <trkpt lat="45.8703" lon="4.38018">
        <ele>718.6</ele>
        <time>2022-06-26T11:07:50Z</time>
      </trkpt>
      <trkpt lat="45.87029" lon="4.3802">
        <ele>718.6</ele>
        <time>2022-06-26T11:07:51Z</time>
      </trkpt>
      <trkpt lat="45.87027" lon="4.38023">
        <ele>718.8</ele>
        <time>2022-06-26T11:07:52Z</time>
      </trkpt>
      <trkpt lat="45.87026" lon="4.38026">
        <ele>718.8</ele>
        <time>2022-06-26T11:07:53Z</time>
      </trkpt>
      <trkpt lat="45.87024" lon="4.38029">
        <ele>719.2</ele>
        <time>2022-06-26T11:07:54Z</time>
      </trkpt>
      <trkpt lat="45.87023" lon="4.38031">
        <ele>719.2</ele>
        <time>2022-06-26T11:07:55Z</time>
      </trkpt>
      <trkpt lat="45.87022" lon="4.38034">
        <ele>719.4</ele>
        <time>2022-06-26T11:07:56Z</time>
      </trkpt>
      <trkpt lat="45.8702" lon="4.38036">
        <ele>719.4</ele>
        <time>2022-06-26T11:07:57Z</time>
      </trkpt>
      <trkpt lat="45.87019" lon="4.3804">
        <ele>719.8</ele>
        <time>2022-06-26T11:07:58Z</time>
      </trkpt>
      <trkpt lat="45.87018" lon="4.38043">
        <ele>719.8</ele>
        <time>2022-06-26T11:07:59Z</time>
      </trkpt>
      <trkpt lat="45.87017" lon="4.38045">
        <ele>720</ele>
        <time>2022-06-26T11:08:00Z</time>
      </trkpt>
      <trkpt lat="45.87014" lon="4.38047">
        <ele>720</ele>
        <time>2022-06-26T11:08:01Z</time>
      </trkpt>
      <trkpt lat="45.87013" lon="4.3805">
        <ele>720.2</ele>
        <time>2022-06-26T11:08:02Z</time>
      </trkpt>
      <trkpt lat="45.87011" lon="4.38052">
        <ele>720.4</ele>
        <time>2022-06-26T11:08:03Z</time>
      </trkpt>
      <trkpt lat="45.8701" lon="4.38054">
        <ele>720.4</ele>
        <time>2022-06-26T11:08:04Z</time>
      </trkpt>
      <trkpt lat="45.87009" lon="4.38056">
        <ele>720.8</ele>
        <time>2022-06-26T11:08:05Z</time>
      </trkpt>
      <trkpt lat="45.87007" lon="4.38058">
        <ele>720.8</ele>
        <time>2022-06-26T11:08:06Z</time>
      </trkpt>
      <trkpt lat="45.87006" lon="4.38061">
        <ele>721</ele>
        <time>2022-06-26T11:08:07Z</time>
      </trkpt>
      <trkpt lat="45.87005" lon="4.38063">
        <ele>721.2</ele>
        <time>2022-06-26T11:08:08Z</time>
      </trkpt>
      <trkpt lat="45.87004" lon="4.38066">
        <ele>721.2</ele>
        <time>2022-06-26T11:08:09Z</time>
      </trkpt>
      <trkpt lat="45.87003" lon="4.38069">
        <ele>721.6</ele>
        <time>2022-06-26T11:08:10Z</time>
      </trkpt>
      <trkpt lat="45.87001" lon="4.38071">
        <ele>721.6</ele>
        <time>2022-06-26T11:08:11Z</time>
      </trkpt>
      <trkpt lat="45.87" lon="4.38073">
        <ele>722</ele>
        <time>2022-06-26T11:08:12Z</time>
      </trkpt>
      <trkpt lat="45.86998" lon="4.38076">
        <ele>722</ele>
        <time>2022-06-26T11:08:13Z</time>
      </trkpt>
      <trkpt lat="45.86996" lon="4.38078">
        <ele>722</ele>
        <time>2022-06-26T11:08:14Z</time>
      </trkpt>
      <trkpt lat="45.86995" lon="4.38081">
        <ele>722.2</ele>
        <time>2022-06-26T11:08:15Z</time>
      </trkpt>
      <trkpt lat="45.86994" lon="4.38083">
        <ele>722.2</ele>
        <time>2022-06-26T11:08:16Z</time>
      </trkpt>
      <trkpt lat="45.86992" lon="4.38085">
        <ele>722.6</ele>
        <time>2022-06-26T11:08:17Z</time>
      </trkpt>
      <trkpt lat="45.86991" lon="4.38087">
        <ele>722.6</ele>
        <time>2022-06-26T11:08:18Z</time>
      </trkpt>
      <trkpt lat="45.8699" lon="4.3809">
        <ele>723</ele>
        <time>2022-06-26T11:08:19Z</time>
      </trkpt>
      <trkpt lat="45.86989" lon="4.38091">
        <ele>723</ele>
        <time>2022-06-26T11:08:20Z</time>
      </trkpt>
      <trkpt lat="45.86987" lon="4.38094">
        <ele>723.2</ele>
        <time>2022-06-26T11:08:21Z</time>
      </trkpt>
      <trkpt lat="45.86986" lon="4.38096">
        <ele>723.2</ele>
        <time>2022-06-26T11:08:22Z</time>
      </trkpt>
      <trkpt lat="45.86984" lon="4.38098">
        <ele>723.4</ele>
        <time>2022-06-26T11:08:23Z</time>
      </trkpt>
      <trkpt lat="45.86983" lon="4.38101">
        <ele>723.4</ele>
        <time>2022-06-26T11:08:24Z</time>
      </trkpt>
      <trkpt lat="45.86981" lon="4.38103">
        <ele>723.8</ele>
        <time>2022-06-26T11:08:25Z</time>
      </trkpt>
      <trkpt lat="45.86979" lon="4.38106">
        <ele>723.8</ele>
        <time>2022-06-26T11:08:26Z</time>
      </trkpt>
      <trkpt lat="45.86978" lon="4.38108">
        <ele>724</ele>
        <time>2022-06-26T11:08:27Z</time>
      </trkpt>
      <trkpt lat="45.86976" lon="4.3811">
        <ele>724</ele>
        <time>2022-06-26T11:08:28Z</time>
      </trkpt>
      <trkpt lat="45.86974" lon="4.38112">
        <ele>724.2</ele>
        <time>2022-06-26T11:08:29Z</time>
      </trkpt>
      <trkpt lat="45.86973" lon="4.38114">
        <ele>724.2</ele>
        <time>2022-06-26T11:08:30Z</time>
      </trkpt>
      <trkpt lat="45.86971" lon="4.38118">
        <ele>724.6</ele>
        <time>2022-06-26T11:08:31Z</time>
      </trkpt>
      <trkpt lat="45.86969" lon="4.38121">
        <ele>724.6</ele>
        <time>2022-06-26T11:08:32Z</time>
      </trkpt>
      <trkpt lat="45.86968" lon="4.38124">
        <ele>724.8</ele>
        <time>2022-06-26T11:08:33Z</time>
      </trkpt>
      <trkpt lat="45.86966" lon="4.38127">
        <ele>725</ele>
        <time>2022-06-26T11:08:34Z</time>
      </trkpt>
      <trkpt lat="45.86965" lon="4.38131">
        <ele>725</ele>
        <time>2022-06-26T11:08:35Z</time>
      </trkpt>
      <trkpt lat="45.86964" lon="4.38135">
        <ele>725.2</ele>
        <time>2022-06-26T11:08:36Z</time>
      </trkpt>
      <trkpt lat="45.86963" lon="4.38137">
        <ele>725.2</ele>
        <time>2022-06-26T11:08:37Z</time>
      </trkpt>
      <trkpt lat="45.86962" lon="4.38142">
        <ele>725.6</ele>
        <time>2022-06-26T11:08:38Z</time>
      </trkpt>
      <trkpt lat="45.8696" lon="4.38146">
        <ele>725.6</ele>
        <time>2022-06-26T11:08:39Z</time>
      </trkpt>
      <trkpt lat="45.86958" lon="4.38149">
        <ele>725.8</ele>
        <time>2022-06-26T11:08:40Z</time>
      </trkpt>
      <trkpt lat="45.86957" lon="4.38151">
        <ele>725.8</ele>
        <time>2022-06-26T11:08:41Z</time>
      </trkpt>
      <trkpt lat="45.86955" lon="4.38155">
        <ele>726.2</ele>
        <time>2022-06-26T11:08:42Z</time>
      </trkpt>
      <trkpt lat="45.86953" lon="4.38158">
        <ele>726.2</ele>
        <time>2022-06-26T11:08:43Z</time>
      </trkpt>
      <trkpt lat="45.86952" lon="4.38161">
        <ele>726.4</ele>
        <time>2022-06-26T11:08:44Z</time>
      </trkpt>
      <trkpt lat="45.8695" lon="4.38164">
        <ele>726.4</ele>
        <time>2022-06-26T11:08:45Z</time>
      </trkpt>
      <trkpt lat="45.86949" lon="4.38168">
        <ele>726.6</ele>
        <time>2022-06-26T11:08:46Z</time>
      </trkpt>
      <trkpt lat="45.86947" lon="4.38171">
        <ele>726.6</ele>
        <time>2022-06-26T11:08:47Z</time>
      </trkpt>
      <trkpt lat="45.86945" lon="4.38175">
        <ele>726.8</ele>
        <time>2022-06-26T11:08:48Z</time>
      </trkpt>
      <trkpt lat="45.86945" lon="4.38182">
        <ele>726.8</ele>
        <time>2022-06-26T11:08:49Z</time>
      </trkpt>
      <trkpt lat="45.86944" lon="4.38187">
        <ele>727</ele>
        <time>2022-06-26T11:08:50Z</time>
      </trkpt>
      <trkpt lat="45.86942" lon="4.38192">
        <ele>727</ele>
        <time>2022-06-26T11:08:51Z</time>
      </trkpt>
      <trkpt lat="45.86941" lon="4.38196">
        <ele>727</ele>
        <time>2022-06-26T11:08:52Z</time>
      </trkpt>
      <trkpt lat="45.86939" lon="4.38201">
        <ele>727.4</ele>
        <time>2022-06-26T11:08:53Z</time>
      </trkpt>
      <trkpt lat="45.86938" lon="4.38205">
        <ele>727.4</ele>
        <time>2022-06-26T11:08:54Z</time>
      </trkpt>
      <trkpt lat="45.86936" lon="4.38208">
        <ele>727.6</ele>
        <time>2022-06-26T11:08:55Z</time>
      </trkpt>
      <trkpt lat="45.86935" lon="4.38214">
        <ele>727.6</ele>
        <time>2022-06-26T11:08:56Z</time>
      </trkpt>
      <trkpt lat="45.86935" lon="4.38218">
        <ele>728</ele>
        <time>2022-06-26T11:08:57Z</time>
      </trkpt>
      <trkpt lat="45.86934" lon="4.38222">
        <ele>728</ele>
        <time>2022-06-26T11:08:58Z</time>
      </trkpt>
      <trkpt lat="45.86933" lon="4.38226">
        <ele>728.2</ele>
        <time>2022-06-26T11:08:59Z</time>
      </trkpt>
      <trkpt lat="45.86932" lon="4.3823">
        <ele>728.2</ele>
        <time>2022-06-26T11:09:00Z</time>
      </trkpt>
      <trkpt lat="45.86931" lon="4.38235">
        <ele>728.6</ele>
        <time>2022-06-26T11:09:01Z</time>
      </trkpt>
      <trkpt lat="45.8693" lon="4.38239">
        <ele>728.6</ele>
        <time>2022-06-26T11:09:02Z</time>
      </trkpt>
      <trkpt lat="45.86929" lon="4.38243">
        <ele>728.8</ele>
        <time>2022-06-26T11:09:03Z</time>
      </trkpt>
      <trkpt lat="45.86927" lon="4.38247">
        <ele>728.8</ele>
        <time>2022-06-26T11:09:04Z</time>
      </trkpt>
      <trkpt lat="45.86925" lon="4.38252">
        <ele>729</ele>
        <time>2022-06-26T11:09:05Z</time>
      </trkpt>
      <trkpt lat="45.86923" lon="4.38255">
        <ele>729</ele>
        <time>2022-06-26T11:09:06Z</time>
      </trkpt>
      <trkpt lat="45.86921" lon="4.38258">
        <ele>729.4</ele>
        <time>2022-06-26T11:09:07Z</time>
      </trkpt>
      <trkpt lat="45.8692" lon="4.38261">
        <ele>729.4</ele>
        <time>2022-06-26T11:09:08Z</time>
      </trkpt>
      <trkpt lat="45.86918" lon="4.38266">
        <ele>729.6</ele>
        <time>2022-06-26T11:09:09Z</time>
      </trkpt>
      <trkpt lat="45.86917" lon="4.38269">
        <ele>729.6</ele>
        <time>2022-06-26T11:09:10Z</time>
      </trkpt>
      <trkpt lat="45.86915" lon="4.38271">
        <ele>729.8</ele>
        <time>2022-06-26T11:09:11Z</time>
      </trkpt>
      <trkpt lat="45.86912" lon="4.38274">
        <ele>730</ele>
        <time>2022-06-26T11:09:12Z</time>
      </trkpt>
      <trkpt lat="45.8691" lon="4.38276">
        <ele>730</ele>
        <time>2022-06-26T11:09:13Z</time>
      </trkpt>
      <trkpt lat="45.86908" lon="4.38278">
        <ele>730.4</ele>
        <time>2022-06-26T11:09:14Z</time>
      </trkpt>
      <trkpt lat="45.86905" lon="4.3828">
        <ele>730.4</ele>
        <time>2022-06-26T11:09:15Z</time>
      </trkpt>
      <trkpt lat="45.86903" lon="4.38282">
        <ele>730.8</ele>
        <time>2022-06-26T11:09:16Z</time>
      </trkpt>
      <trkpt lat="45.869" lon="4.38283">
        <ele>730.8</ele>
        <time>2022-06-26T11:09:17Z</time>
      </trkpt>
      <trkpt lat="45.86897" lon="4.38284">
        <ele>731.2</ele>
        <time>2022-06-26T11:09:18Z</time>
      </trkpt>
      <trkpt lat="45.86894" lon="4.38285">
        <ele>731.2</ele>
        <time>2022-06-26T11:09:19Z</time>
      </trkpt>
      <trkpt lat="45.86891" lon="4.38286">
        <ele>731.6</ele>
        <time>2022-06-26T11:09:20Z</time>
      </trkpt>
      <trkpt lat="45.86888" lon="4.38287">
        <ele>731.6</ele>
        <time>2022-06-26T11:09:21Z</time>
      </trkpt>
      <trkpt lat="45.86884" lon="4.38287">
        <ele>731.8</ele>
        <time>2022-06-26T11:09:22Z</time>
      </trkpt>
      <trkpt lat="45.86881" lon="4.38287">
        <ele>731.8</ele>
        <time>2022-06-26T11:09:23Z</time>
      </trkpt>
      <trkpt lat="45.86878" lon="4.38287">
        <ele>732.2</ele>
        <time>2022-06-26T11:09:24Z</time>
      </trkpt>
      <trkpt lat="45.86875" lon="4.38286">
        <ele>732.2</ele>
        <time>2022-06-26T11:09:25Z</time>
      </trkpt>
      <trkpt lat="45.86872" lon="4.38286">
        <ele>732.4</ele>
        <time>2022-06-26T11:09:26Z</time>
      </trkpt>
      <trkpt lat="45.86869" lon="4.38284">
        <ele>732.4</ele>
        <time>2022-06-26T11:09:27Z</time>
      </trkpt>
      <trkpt lat="45.86866" lon="4.38283">
        <ele>732.8</ele>
        <time>2022-06-26T11:09:28Z</time>
      </trkpt>
      <trkpt lat="45.86863" lon="4.38281">
        <ele>732.8</ele>
        <time>2022-06-26T11:09:29Z</time>
      </trkpt>
      <trkpt lat="45.8686" lon="4.38279">
        <ele>733</ele>
        <time>2022-06-26T11:09:30Z</time>
      </trkpt>
      <trkpt lat="45.86857" lon="4.38277">
        <ele>733</ele>
        <time>2022-06-26T11:09:31Z</time>
      </trkpt>
      <trkpt lat="45.86854" lon="4.38274">
        <ele>733.4</ele>
        <time>2022-06-26T11:09:32Z</time>
      </trkpt>
      <trkpt lat="45.86852" lon="4.38272">
        <ele>733.8</ele>
        <time>2022-06-26T11:09:33Z</time>
      </trkpt>
      <trkpt lat="45.86849" lon="4.38269">
        <ele>734</ele>
        <time>2022-06-26T11:09:34Z</time>
      </trkpt>
      <trkpt lat="45.86846" lon="4.38267">
        <ele>734.2</ele>
        <time>2022-06-26T11:09:35Z</time>
      </trkpt>
      <trkpt lat="45.86844" lon="4.38265">
        <ele>734.2</ele>
        <time>2022-06-26T11:09:36Z</time>
      </trkpt>
      <trkpt lat="45.86841" lon="4.38263">
        <ele>734.6</ele>
        <time>2022-06-26T11:09:37Z</time>
      </trkpt>
      <trkpt lat="45.86839" lon="4.3826">
        <ele>734.6</ele>
        <time>2022-06-26T11:09:38Z</time>
      </trkpt>
      <trkpt lat="45.86836" lon="4.38258">
        <ele>735</ele>
        <time>2022-06-26T11:09:39Z</time>
      </trkpt>
      <trkpt lat="45.86833" lon="4.38255">
        <ele>735</ele>
        <time>2022-06-26T11:09:40Z</time>
      </trkpt>
      <trkpt lat="45.8683" lon="4.38253">
        <ele>735.4</ele>
        <time>2022-06-26T11:09:41Z</time>
      </trkpt>
      <trkpt lat="45.86828" lon="4.38251">
        <ele>735.6</ele>
        <time>2022-06-26T11:09:42Z</time>
      </trkpt>
      <trkpt lat="45.86826" lon="4.38249">
        <ele>735.8</ele>
        <time>2022-06-26T11:09:43Z</time>
      </trkpt>
      <trkpt lat="45.86823" lon="4.38247">
        <ele>736</ele>
        <time>2022-06-26T11:09:44Z</time>
      </trkpt>
      <trkpt lat="45.86821" lon="4.38246">
        <ele>736</ele>
        <time>2022-06-26T11:09:45Z</time>
      </trkpt>
      <trkpt lat="45.86819" lon="4.38244">
        <ele>736.4</ele>
        <time>2022-06-26T11:09:46Z</time>
      </trkpt>
      <trkpt lat="45.86817" lon="4.38243">
        <ele>736.6</ele>
        <time>2022-06-26T11:09:47Z</time>
      </trkpt>
      <trkpt lat="45.86815" lon="4.38241">
        <ele>736.6</ele>
        <time>2022-06-26T11:09:48Z</time>
      </trkpt>
      <trkpt lat="45.86813" lon="4.3824">
        <ele>737</ele>
        <time>2022-06-26T11:09:49Z</time>
      </trkpt>
      <trkpt lat="45.86811" lon="4.38238">
        <ele>737.2</ele>
        <time>2022-06-26T11:09:50Z</time>
      </trkpt>
      <trkpt lat="45.86809" lon="4.38236">
        <ele>737.2</ele>
        <time>2022-06-26T11:09:51Z</time>
      </trkpt>
      <trkpt lat="45.86806" lon="4.38235">
        <ele>737.6</ele>
        <time>2022-06-26T11:09:52Z</time>
      </trkpt>
      <trkpt lat="45.86804" lon="4.38233">
        <ele>737.6</ele>
        <time>2022-06-26T11:09:53Z</time>
      </trkpt>
      <trkpt lat="45.86801" lon="4.38232">
        <ele>738</ele>
        <time>2022-06-26T11:09:54Z</time>
      </trkpt>
      <trkpt lat="45.86799" lon="4.38231">
        <ele>738</ele>
        <time>2022-06-26T11:09:55Z</time>
      </trkpt>
      <trkpt lat="45.86796" lon="4.38231">
        <ele>738.2</ele>
        <time>2022-06-26T11:09:56Z</time>
      </trkpt>
      <trkpt lat="45.86793" lon="4.3823">
        <ele>738.4</ele>
        <time>2022-06-26T11:09:57Z</time>
      </trkpt>
      <trkpt lat="45.86791" lon="4.38229">
        <ele>738.4</ele>
        <time>2022-06-26T11:09:58Z</time>
      </trkpt>
      <trkpt lat="45.86789" lon="4.38228">
        <ele>738.8</ele>
        <time>2022-06-26T11:09:59Z</time>
      </trkpt>
      <trkpt lat="45.86787" lon="4.38228">
        <ele>738.8</ele>
        <time>2022-06-26T11:10:00Z</time>
      </trkpt>
      <trkpt lat="45.86785" lon="4.38227">
        <ele>739.2</ele>
        <time>2022-06-26T11:10:01Z</time>
      </trkpt>
      <trkpt lat="45.86783" lon="4.38226">
        <ele>739.2</ele>
        <time>2022-06-26T11:10:02Z</time>
      </trkpt>
      <trkpt lat="45.86781" lon="4.38224">
        <ele>739.4</ele>
        <time>2022-06-26T11:10:03Z</time>
      </trkpt>
      <trkpt lat="45.86778" lon="4.38223">
        <ele>739.4</ele>
        <time>2022-06-26T11:10:04Z</time>
      </trkpt>
      <trkpt lat="45.86775" lon="4.38222">
        <ele>739.6</ele>
        <time>2022-06-26T11:10:05Z</time>
      </trkpt>
      <trkpt lat="45.86773" lon="4.38221">
        <ele>740</ele>
        <time>2022-06-26T11:10:06Z</time>
      </trkpt>
      <trkpt lat="45.8677" lon="4.3822">
        <ele>740</ele>
        <time>2022-06-26T11:10:07Z</time>
      </trkpt>
      <trkpt lat="45.86767" lon="4.38219">
        <ele>740.2</ele>
        <time>2022-06-26T11:10:08Z</time>
      </trkpt>
      <trkpt lat="45.86764" lon="4.38217">
        <ele>740.2</ele>
        <time>2022-06-26T11:10:09Z</time>
      </trkpt>
      <trkpt lat="45.86761" lon="4.38216">
        <ele>740.4</ele>
        <time>2022-06-26T11:10:10Z</time>
      </trkpt>
      <trkpt lat="45.86758" lon="4.38215">
        <ele>740.4</ele>
        <time>2022-06-26T11:10:11Z</time>
      </trkpt>
      <trkpt lat="45.86755" lon="4.38214">
        <ele>740.8</ele>
        <time>2022-06-26T11:10:12Z</time>
      </trkpt>
      <trkpt lat="45.86752" lon="4.38212">
        <ele>740.8</ele>
        <time>2022-06-26T11:10:13Z</time>
      </trkpt>
      <trkpt lat="45.86749" lon="4.38211">
        <ele>741.2</ele>
        <time>2022-06-26T11:10:14Z</time>
      </trkpt>
      <trkpt lat="45.86746" lon="4.3821">
        <ele>741.2</ele>
        <time>2022-06-26T11:10:15Z</time>
      </trkpt>
      <trkpt lat="45.86743" lon="4.38209">
        <ele>741.4</ele>
        <time>2022-06-26T11:10:16Z</time>
      </trkpt>
      <trkpt lat="45.8674" lon="4.38207">
        <ele>741.4</ele>
        <time>2022-06-26T11:10:17Z</time>
      </trkpt>
      <trkpt lat="45.86737" lon="4.38206">
        <ele>741.6</ele>
        <time>2022-06-26T11:10:18Z</time>
      </trkpt>
      <trkpt lat="45.86734" lon="4.38204">
        <ele>741.6</ele>
        <time>2022-06-26T11:10:19Z</time>
      </trkpt>
      <trkpt lat="45.86732" lon="4.38202">
        <ele>741.6</ele>
        <time>2022-06-26T11:10:20Z</time>
      </trkpt>
      <trkpt lat="45.86728" lon="4.382">
        <ele>742</ele>
        <time>2022-06-26T11:10:21Z</time>
      </trkpt>
      <trkpt lat="45.86726" lon="4.38198">
        <ele>742</ele>
        <time>2022-06-26T11:10:22Z</time>
      </trkpt>
      <trkpt lat="45.86723" lon="4.38196">
        <ele>742.4</ele>
        <time>2022-06-26T11:10:23Z</time>
      </trkpt>
      <trkpt lat="45.8672" lon="4.38193">
        <ele>742.4</ele>
        <time>2022-06-26T11:10:24Z</time>
      </trkpt>
      <trkpt lat="45.86717" lon="4.38191">
        <ele>742.6</ele>
        <time>2022-06-26T11:10:25Z</time>
      </trkpt>
      <trkpt lat="45.86715" lon="4.38188">
        <ele>742.6</ele>
        <time>2022-06-26T11:10:26Z</time>
      </trkpt>
      <trkpt lat="45.86712" lon="4.38186">
        <ele>743</ele>
        <time>2022-06-26T11:10:27Z</time>
      </trkpt>
      <trkpt lat="45.86709" lon="4.38182">
        <ele>743</ele>
        <time>2022-06-26T11:10:28Z</time>
      </trkpt>
      <trkpt lat="45.86707" lon="4.3818">
        <ele>743.2</ele>
        <time>2022-06-26T11:10:29Z</time>
      </trkpt>
      <trkpt lat="45.86705" lon="4.38176">
        <ele>743.2</ele>
        <time>2022-06-26T11:10:30Z</time>
      </trkpt>
      <trkpt lat="45.86703" lon="4.38173">
        <ele>743.4</ele>
        <time>2022-06-26T11:10:31Z</time>
      </trkpt>
      <trkpt lat="45.86701" lon="4.3817">
        <ele>743.4</ele>
        <time>2022-06-26T11:10:32Z</time>
      </trkpt>
      <trkpt lat="45.86699" lon="4.38166">
        <ele>743.8</ele>
        <time>2022-06-26T11:10:33Z</time>
      </trkpt>
      <trkpt lat="45.86698" lon="4.38163">
        <ele>743.8</ele>
        <time>2022-06-26T11:10:34Z</time>
      </trkpt>
      <trkpt lat="45.86696" lon="4.38159">
        <ele>744</ele>
        <time>2022-06-26T11:10:35Z</time>
      </trkpt>
      <trkpt lat="45.86694" lon="4.38155">
        <ele>744</ele>
        <time>2022-06-26T11:10:36Z</time>
      </trkpt>
      <trkpt lat="45.86693" lon="4.38152">
        <ele>744.4</ele>
        <time>2022-06-26T11:10:37Z</time>
      </trkpt>
      <trkpt lat="45.86691" lon="4.38148">
        <ele>744.4</ele>
        <time>2022-06-26T11:10:38Z</time>
      </trkpt>
      <trkpt lat="45.8669" lon="4.38144">
        <ele>745</ele>
        <time>2022-06-26T11:10:39Z</time>
      </trkpt>
      <trkpt lat="45.86689" lon="4.3814">
        <ele>745.2</ele>
        <time>2022-06-26T11:10:41Z</time>
      </trkpt>
      <trkpt lat="45.86688" lon="4.38136">
        <ele>745.4</ele>
        <time>2022-06-26T11:10:42Z</time>
      </trkpt>
      <trkpt lat="45.86687" lon="4.38133">
        <ele>745.4</ele>
        <time>2022-06-26T11:10:43Z</time>
      </trkpt>
      <trkpt lat="45.86686" lon="4.38129">
        <ele>745.8</ele>
        <time>2022-06-26T11:10:44Z</time>
      </trkpt>
      <trkpt lat="45.86685" lon="4.38125">
        <ele>745.8</ele>
        <time>2022-06-26T11:10:45Z</time>
      </trkpt>
      <trkpt lat="45.86684" lon="4.38121">
        <ele>746</ele>
        <time>2022-06-26T11:10:46Z</time>
      </trkpt>
      <trkpt lat="45.86684" lon="4.38117">
        <ele>746</ele>
        <time>2022-06-26T11:10:47Z</time>
      </trkpt>
      <trkpt lat="45.86683" lon="4.38113">
        <ele>746.4</ele>
        <time>2022-06-26T11:10:48Z</time>
      </trkpt>
      <trkpt lat="45.86682" lon="4.3811">
        <ele>746.4</ele>
        <time>2022-06-26T11:10:49Z</time>
      </trkpt>
      <trkpt lat="45.86681" lon="4.38106">
        <ele>746.6</ele>
        <time>2022-06-26T11:10:50Z</time>
      </trkpt>
      <trkpt lat="45.86681" lon="4.38103">
        <ele>746.6</ele>
        <time>2022-06-26T11:10:51Z</time>
      </trkpt>
      <trkpt lat="45.86681" lon="4.38099">
        <ele>746.8</ele>
        <time>2022-06-26T11:10:52Z</time>
      </trkpt>
      <trkpt lat="45.8668" lon="4.38095">
        <ele>746.8</ele>
        <time>2022-06-26T11:10:53Z</time>
      </trkpt>
      <trkpt lat="45.8668" lon="4.38091">
        <ele>747.2</ele>
        <time>2022-06-26T11:10:54Z</time>
      </trkpt>
      <trkpt lat="45.86679" lon="4.38087">
        <ele>747.4</ele>
        <time>2022-06-26T11:10:55Z</time>
      </trkpt>
      <trkpt lat="45.86679" lon="4.38083">
        <ele>747.4</ele>
        <time>2022-06-26T11:10:56Z</time>
      </trkpt>
      <trkpt lat="45.86679" lon="4.38079">
        <ele>747.8</ele>
        <time>2022-06-26T11:10:57Z</time>
      </trkpt>
      <trkpt lat="45.86679" lon="4.38075">
        <ele>747.8</ele>
        <time>2022-06-26T11:10:58Z</time>
      </trkpt>
      <trkpt lat="45.86679" lon="4.38071">
        <ele>748</ele>
        <time>2022-06-26T11:10:59Z</time>
      </trkpt>
      <trkpt lat="45.86679" lon="4.38066">
        <ele>748</ele>
        <time>2022-06-26T11:11:00Z</time>
      </trkpt>
      <trkpt lat="45.86679" lon="4.38062">
        <ele>748.4</ele>
        <time>2022-06-26T11:11:01Z</time>
      </trkpt>
      <trkpt lat="45.86679" lon="4.38058">
        <ele>748.4</ele>
        <time>2022-06-26T11:11:02Z</time>
      </trkpt>
      <trkpt lat="45.86679" lon="4.38053">
        <ele>748.6</ele>
        <time>2022-06-26T11:11:03Z</time>
      </trkpt>
      <trkpt lat="45.86679" lon="4.38049">
        <ele>748.6</ele>
        <time>2022-06-26T11:11:04Z</time>
      </trkpt>
      <trkpt lat="45.86679" lon="4.38045">
        <ele>749</ele>
        <time>2022-06-26T11:11:05Z</time>
      </trkpt>
      <trkpt lat="45.86679" lon="4.38041">
        <ele>749.2</ele>
        <time>2022-06-26T11:11:06Z</time>
      </trkpt>
      <trkpt lat="45.8668" lon="4.38037">
        <ele>749.2</ele>
        <time>2022-06-26T11:11:07Z</time>
      </trkpt>
      <trkpt lat="45.8668" lon="4.38033">
        <ele>749.6</ele>
        <time>2022-06-26T11:11:08Z</time>
      </trkpt>
      <trkpt lat="45.8668" lon="4.38029">
        <ele>749.6</ele>
        <time>2022-06-26T11:11:09Z</time>
      </trkpt>
      <trkpt lat="45.8668" lon="4.38025">
        <ele>749.8</ele>
        <time>2022-06-26T11:11:10Z</time>
      </trkpt>
      <trkpt lat="45.86681" lon="4.38021">
        <ele>749.8</ele>
        <time>2022-06-26T11:11:11Z</time>
      </trkpt>
      <trkpt lat="45.86681" lon="4.38017">
        <ele>750.2</ele>
        <time>2022-06-26T11:11:12Z</time>
      </trkpt>
      <trkpt lat="45.86682" lon="4.38014">
        <ele>750.2</ele>
        <time>2022-06-26T11:11:13Z</time>
      </trkpt>
      <trkpt lat="45.86682" lon="4.38009">
        <ele>750.6</ele>
        <time>2022-06-26T11:11:14Z</time>
      </trkpt>
      <trkpt lat="45.86683" lon="4.38005">
        <ele>750.6</ele>
        <time>2022-06-26T11:11:15Z</time>
      </trkpt>
      <trkpt lat="45.86683" lon="4.38001">
        <ele>751</ele>
        <time>2022-06-26T11:11:16Z</time>
      </trkpt>
      <trkpt lat="45.86683" lon="4.37996">
        <ele>751</ele>
        <time>2022-06-26T11:11:17Z</time>
      </trkpt>
      <trkpt lat="45.86684" lon="4.37992">
        <ele>751.4</ele>
        <time>2022-06-26T11:11:18Z</time>
      </trkpt>
      <trkpt lat="45.86684" lon="4.37987">
        <ele>751.4</ele>
        <time>2022-06-26T11:11:19Z</time>
      </trkpt>
      <trkpt lat="45.86685" lon="4.37983">
        <ele>751.4</ele>
        <time>2022-06-26T11:11:20Z</time>
      </trkpt>
      <trkpt lat="45.86686" lon="4.37979">
        <ele>751.6</ele>
        <time>2022-06-26T11:11:21Z</time>
      </trkpt>
      <trkpt lat="45.86686" lon="4.37975">
        <ele>751.8</ele>
        <time>2022-06-26T11:11:22Z</time>
      </trkpt>
      <trkpt lat="45.86687" lon="4.37971">
        <ele>752.2</ele>
        <time>2022-06-26T11:11:23Z</time>
      </trkpt>
      <trkpt lat="45.86688" lon="4.37967">
        <ele>752.2</ele>
        <time>2022-06-26T11:11:24Z</time>
      </trkpt>
      <trkpt lat="45.86689" lon="4.37963">
        <ele>752.6</ele>
        <time>2022-06-26T11:11:25Z</time>
      </trkpt>
      <trkpt lat="45.8669" lon="4.37959">
        <ele>752.6</ele>
        <time>2022-06-26T11:11:26Z</time>
      </trkpt>
      <trkpt lat="45.86691" lon="4.37955">
        <ele>752.8</ele>
        <time>2022-06-26T11:11:27Z</time>
      </trkpt>
      <trkpt lat="45.86692" lon="4.37951">
        <ele>752.8</ele>
        <time>2022-06-26T11:11:28Z</time>
      </trkpt>
      <trkpt lat="45.86693" lon="4.37947">
        <ele>753.2</ele>
        <time>2022-06-26T11:11:29Z</time>
      </trkpt>
      <trkpt lat="45.86694" lon="4.37943">
        <ele>753.2</ele>
        <time>2022-06-26T11:11:30Z</time>
      </trkpt>
      <trkpt lat="45.86695" lon="4.37939">
        <ele>753.4</ele>
        <time>2022-06-26T11:11:31Z</time>
      </trkpt>
      <trkpt lat="45.86696" lon="4.37935">
        <ele>753.4</ele>
        <time>2022-06-26T11:11:32Z</time>
      </trkpt>
      <trkpt lat="45.86697" lon="4.37932">
        <ele>753.8</ele>
        <time>2022-06-26T11:11:33Z</time>
      </trkpt>
      <trkpt lat="45.86698" lon="4.37929">
        <ele>753.8</ele>
        <time>2022-06-26T11:11:34Z</time>
      </trkpt>
      <trkpt lat="45.867" lon="4.37926">
        <ele>754</ele>
        <time>2022-06-26T11:11:35Z</time>
      </trkpt>
      <trkpt lat="45.86701" lon="4.37922">
        <ele>754</ele>
        <time>2022-06-26T11:11:36Z</time>
      </trkpt>
      <trkpt lat="45.86702" lon="4.37919">
        <ele>754.4</ele>
        <time>2022-06-26T11:11:37Z</time>
      </trkpt>
      <trkpt lat="45.86704" lon="4.37915">
        <ele>754.4</ele>
        <time>2022-06-26T11:11:38Z</time>
      </trkpt>
      <trkpt lat="45.86705" lon="4.37912">
        <ele>754.8</ele>
        <time>2022-06-26T11:11:39Z</time>
      </trkpt>
      <trkpt lat="45.86706" lon="4.3791">
        <ele>754.8</ele>
        <time>2022-06-26T11:11:40Z</time>
      </trkpt>
      <trkpt lat="45.86708" lon="4.37906">
        <ele>755</ele>
        <time>2022-06-26T11:11:41Z</time>
      </trkpt>
      <trkpt lat="45.86709" lon="4.37904">
        <ele>755.4</ele>
        <time>2022-06-26T11:11:42Z</time>
      </trkpt>
      <trkpt lat="45.8671" lon="4.37901">
        <ele>755.4</ele>
        <time>2022-06-26T11:11:43Z</time>
      </trkpt>
      <trkpt lat="45.86711" lon="4.37898">
        <ele>755.6</ele>
        <time>2022-06-26T11:11:44Z</time>
      </trkpt>
      <trkpt lat="45.86713" lon="4.37895">
        <ele>755.6</ele>
        <time>2022-06-26T11:11:45Z</time>
      </trkpt>
      <trkpt lat="45.86714" lon="4.37892">
        <ele>756</ele>
        <time>2022-06-26T11:11:46Z</time>
      </trkpt>
      <trkpt lat="45.86715" lon="4.37889">
        <ele>756</ele>
        <time>2022-06-26T11:11:47Z</time>
      </trkpt>
      <trkpt lat="45.86717" lon="4.37886">
        <ele>756</ele>
        <time>2022-06-26T11:11:48Z</time>
      </trkpt>
      <trkpt lat="45.86718" lon="4.37884">
        <ele>756.4</ele>
        <time>2022-06-26T11:11:49Z</time>
      </trkpt>
      <trkpt lat="45.86719" lon="4.37881">
        <ele>756.4</ele>
        <time>2022-06-26T11:11:50Z</time>
      </trkpt>
      <trkpt lat="45.8672" lon="4.37878">
        <ele>756.6</ele>
        <time>2022-06-26T11:11:51Z</time>
      </trkpt>
      <trkpt lat="45.86721" lon="4.37875">
        <ele>756.8</ele>
        <time>2022-06-26T11:11:52Z</time>
      </trkpt>
      <trkpt lat="45.86722" lon="4.37871">
        <ele>756.8</ele>
        <time>2022-06-26T11:11:53Z</time>
      </trkpt>
      <trkpt lat="45.86723" lon="4.37868">
        <ele>757.2</ele>
        <time>2022-06-26T11:11:54Z</time>
      </trkpt>
      <trkpt lat="45.86723" lon="4.37865">
        <ele>757.2</ele>
        <time>2022-06-26T11:11:55Z</time>
      </trkpt>
      <trkpt lat="45.86724" lon="4.37861">
        <ele>757.4</ele>
        <time>2022-06-26T11:11:56Z</time>
      </trkpt>
      <trkpt lat="45.86725" lon="4.37858">
        <ele>757.4</ele>
        <time>2022-06-26T11:11:57Z</time>
      </trkpt>
      <trkpt lat="45.86726" lon="4.37854">
        <ele>757.8</ele>
        <time>2022-06-26T11:11:58Z</time>
      </trkpt>
      <trkpt lat="45.86727" lon="4.37851">
        <ele>757.8</ele>
        <time>2022-06-26T11:11:59Z</time>
      </trkpt>
      <trkpt lat="45.86728" lon="4.37848">
        <ele>758</ele>
        <time>2022-06-26T11:12:00Z</time>
      </trkpt>
      <trkpt lat="45.86729" lon="4.37844">
        <ele>758.2</ele>
        <time>2022-06-26T11:12:01Z</time>
      </trkpt>
      <trkpt lat="45.8673" lon="4.37841">
        <ele>758.2</ele>
        <time>2022-06-26T11:12:02Z</time>
      </trkpt>
      <trkpt lat="45.86731" lon="4.37838">
        <ele>758.6</ele>
        <time>2022-06-26T11:12:03Z</time>
      </trkpt>
      <trkpt lat="45.86732" lon="4.37835">
        <ele>758.6</ele>
        <time>2022-06-26T11:12:04Z</time>
      </trkpt>
      <trkpt lat="45.86733" lon="4.37833">
        <ele>758.8</ele>
        <time>2022-06-26T11:12:05Z</time>
      </trkpt>
      <trkpt lat="45.86734" lon="4.3783">
        <ele>758.8</ele>
        <time>2022-06-26T11:12:06Z</time>
      </trkpt>
      <trkpt lat="45.86735" lon="4.37826">
        <ele>759.2</ele>
        <time>2022-06-26T11:12:07Z</time>
      </trkpt>
      <trkpt lat="45.86736" lon="4.37823">
        <ele>759.2</ele>
        <time>2022-06-26T11:12:08Z</time>
      </trkpt>
      <trkpt lat="45.86736" lon="4.3782">
        <ele>759.4</ele>
        <time>2022-06-26T11:12:09Z</time>
      </trkpt>
      <trkpt lat="45.86737" lon="4.37817">
        <ele>759.4</ele>
        <time>2022-06-26T11:12:10Z</time>
      </trkpt>
      <trkpt lat="45.86738" lon="4.37814">
        <ele>759.8</ele>
        <time>2022-06-26T11:12:11Z</time>
      </trkpt>
      <trkpt lat="45.86739" lon="4.37811">
        <ele>759.8</ele>
        <time>2022-06-26T11:12:12Z</time>
      </trkpt>
      <trkpt lat="45.86739" lon="4.37808">
        <ele>760</ele>
        <time>2022-06-26T11:12:13Z</time>
      </trkpt>
      <trkpt lat="45.8674" lon="4.37804">
        <ele>760</ele>
        <time>2022-06-26T11:12:14Z</time>
      </trkpt>
      <trkpt lat="45.86741" lon="4.378">
        <ele>760.2</ele>
        <time>2022-06-26T11:12:15Z</time>
      </trkpt>
      <trkpt lat="45.86742" lon="4.37795">
        <ele>760.6</ele>
        <time>2022-06-26T11:12:16Z</time>
      </trkpt>
      <trkpt lat="45.86743" lon="4.37791">
        <ele>760.6</ele>
        <time>2022-06-26T11:12:17Z</time>
      </trkpt>
      <trkpt lat="45.86743" lon="4.37786">
        <ele>760.8</ele>
        <time>2022-06-26T11:12:18Z</time>
      </trkpt>
      <trkpt lat="45.86743" lon="4.37782">
        <ele>760.8</ele>
        <time>2022-06-26T11:12:19Z</time>
      </trkpt>
      <trkpt lat="45.86744" lon="4.37778">
        <ele>761.2</ele>
        <time>2022-06-26T11:12:20Z</time>
      </trkpt>
      <trkpt lat="45.86744" lon="4.37774">
        <ele>761.4</ele>
        <time>2022-06-26T11:12:21Z</time>
      </trkpt>
      <trkpt lat="45.86745" lon="4.3777">
        <ele>761.6</ele>
        <time>2022-06-26T11:12:22Z</time>
      </trkpt>
      <trkpt lat="45.86745" lon="4.37766">
        <ele>761.6</ele>
        <time>2022-06-26T11:12:23Z</time>
      </trkpt>
      <trkpt lat="45.86746" lon="4.37761">
        <ele>762</ele>
        <time>2022-06-26T11:12:24Z</time>
      </trkpt>
      <trkpt lat="45.86747" lon="4.37757">
        <ele>762</ele>
        <time>2022-06-26T11:12:25Z</time>
      </trkpt>
      <trkpt lat="45.86748" lon="4.37753">
        <ele>762.4</ele>
        <time>2022-06-26T11:12:26Z</time>
      </trkpt>
      <trkpt lat="45.86748" lon="4.3775">
        <ele>762.4</ele>
        <time>2022-06-26T11:12:27Z</time>
      </trkpt>
      <trkpt lat="45.86749" lon="4.37746">
        <ele>762.6</ele>
        <time>2022-06-26T11:12:28Z</time>
      </trkpt>
      <trkpt lat="45.86749" lon="4.37742">
        <ele>762.6</ele>
        <time>2022-06-26T11:12:29Z</time>
      </trkpt>
      <trkpt lat="45.86749" lon="4.37739">
        <ele>762.8</ele>
        <time>2022-06-26T11:12:30Z</time>
      </trkpt>
      <trkpt lat="45.86749" lon="4.37735">
        <ele>762.8</ele>
        <time>2022-06-26T11:12:31Z</time>
      </trkpt>
      <trkpt lat="45.86749" lon="4.37731">
        <ele>763</ele>
        <time>2022-06-26T11:12:32Z</time>
      </trkpt>
      <trkpt lat="45.86749" lon="4.37727">
        <ele>763</ele>
        <time>2022-06-26T11:12:33Z</time>
      </trkpt>
      <trkpt lat="45.8675" lon="4.37722">
        <ele>763.4</ele>
        <time>2022-06-26T11:12:34Z</time>
      </trkpt>
      <trkpt lat="45.86749" lon="4.37718">
        <ele>763.4</ele>
        <time>2022-06-26T11:12:35Z</time>
      </trkpt>
      <trkpt lat="45.8675" lon="4.37714">
        <ele>763.6</ele>
        <time>2022-06-26T11:12:36Z</time>
      </trkpt>
      <trkpt lat="45.8675" lon="4.3771">
        <ele>763.6</ele>
        <time>2022-06-26T11:12:37Z</time>
      </trkpt>
      <trkpt lat="45.8675" lon="4.37707">
        <ele>763.8</ele>
        <time>2022-06-26T11:12:38Z</time>
      </trkpt>
      <trkpt lat="45.8675" lon="4.37703">
        <ele>763.8</ele>
        <time>2022-06-26T11:12:39Z</time>
      </trkpt>
      <trkpt lat="45.8675" lon="4.37699">
        <ele>764</ele>
        <time>2022-06-26T11:12:40Z</time>
      </trkpt>
      <trkpt lat="45.8675" lon="4.37695">
        <ele>764</ele>
        <time>2022-06-26T11:12:41Z</time>
      </trkpt>
      <trkpt lat="45.8675" lon="4.37691">
        <ele>764.4</ele>
        <time>2022-06-26T11:12:42Z</time>
      </trkpt>
      <trkpt lat="45.8675" lon="4.37688">
        <ele>764.4</ele>
        <time>2022-06-26T11:12:43Z</time>
      </trkpt>
      <trkpt lat="45.86749" lon="4.37685">
        <ele>764.6</ele>
        <time>2022-06-26T11:12:44Z</time>
      </trkpt>
      <trkpt lat="45.86749" lon="4.37681">
        <ele>764.6</ele>
        <time>2022-06-26T11:12:45Z</time>
      </trkpt>
      <trkpt lat="45.86748" lon="4.37678">
        <ele>764.8</ele>
        <time>2022-06-26T11:12:46Z</time>
      </trkpt>
      <trkpt lat="45.86748" lon="4.37673">
        <ele>764.8</ele>
        <time>2022-06-26T11:12:47Z</time>
      </trkpt>
      <trkpt lat="45.86748" lon="4.37672">
        <ele>764.8</ele>
        <time>2022-06-26T11:12:48Z</time>
      </trkpt>
      <trkpt lat="45.86748" lon="4.37669">
        <ele>765.2</ele>
        <time>2022-06-26T11:12:49Z</time>
      </trkpt>
      <trkpt lat="45.86748" lon="4.37666">
        <ele>765.2</ele>
        <time>2022-06-26T11:12:50Z</time>
      </trkpt>
      <trkpt lat="45.86747" lon="4.37662">
        <ele>765.6</ele>
        <time>2022-06-26T11:12:51Z</time>
      </trkpt>
      <trkpt lat="45.86747" lon="4.37657">
        <ele>765.6</ele>
        <time>2022-06-26T11:12:52Z</time>
      </trkpt>
      <trkpt lat="45.86746" lon="4.37653">
        <ele>765.8</ele>
        <time>2022-06-26T11:12:53Z</time>
      </trkpt>
      <trkpt lat="45.86745" lon="4.3765">
        <ele>765.8</ele>
        <time>2022-06-26T11:12:54Z</time>
      </trkpt>
      <trkpt lat="45.86743" lon="4.37646">
        <ele>766.2</ele>
        <time>2022-06-26T11:12:55Z</time>
      </trkpt>
      <trkpt lat="45.86742" lon="4.37642">
        <ele>766.2</ele>
        <time>2022-06-26T11:12:56Z</time>
      </trkpt>
      <trkpt lat="45.8674" lon="4.37638">
        <ele>766.4</ele>
        <time>2022-06-26T11:12:57Z</time>
      </trkpt>
      <trkpt lat="45.86739" lon="4.37635">
        <ele>766.4</ele>
        <time>2022-06-26T11:12:58Z</time>
      </trkpt>
      <trkpt lat="45.86739" lon="4.37632">
        <ele>766.6</ele>
        <time>2022-06-26T11:12:59Z</time>
      </trkpt>
      <trkpt lat="45.86737" lon="4.37627">
        <ele>766.6</ele>
        <time>2022-06-26T11:13:00Z</time>
      </trkpt>
      <trkpt lat="45.86736" lon="4.37622">
        <ele>767</ele>
        <time>2022-06-26T11:13:01Z</time>
      </trkpt>
      <trkpt lat="45.86734" lon="4.37618">
        <ele>767</ele>
        <time>2022-06-26T11:13:02Z</time>
      </trkpt>
      <trkpt lat="45.86732" lon="4.37614">
        <ele>767.4</ele>
        <time>2022-06-26T11:13:03Z</time>
      </trkpt>
      <trkpt lat="45.86731" lon="4.37611">
        <ele>767.4</ele>
        <time>2022-06-26T11:13:04Z</time>
      </trkpt>
      <trkpt lat="45.8673" lon="4.37607">
        <ele>767.6</ele>
        <time>2022-06-26T11:13:05Z</time>
      </trkpt>
      <trkpt lat="45.86729" lon="4.37603">
        <ele>767.6</ele>
        <time>2022-06-26T11:13:06Z</time>
      </trkpt>
      <trkpt lat="45.86727" lon="4.37599">
        <ele>768</ele>
        <time>2022-06-26T11:13:07Z</time>
      </trkpt>
      <trkpt lat="45.86726" lon="4.37596">
        <ele>768</ele>
        <time>2022-06-26T11:13:08Z</time>
      </trkpt>
      <trkpt lat="45.86724" lon="4.37593">
        <ele>768.4</ele>
        <time>2022-06-26T11:13:09Z</time>
      </trkpt>
      <trkpt lat="45.86722" lon="4.37589">
        <ele>768.4</ele>
        <time>2022-06-26T11:13:10Z</time>
      </trkpt>
      <trkpt lat="45.8672" lon="4.37586">
        <ele>768.4</ele>
        <time>2022-06-26T11:13:11Z</time>
      </trkpt>
      <trkpt lat="45.86717" lon="4.37582">
        <ele>768.6</ele>
        <time>2022-06-26T11:13:12Z</time>
      </trkpt>
      <trkpt lat="45.86716" lon="4.37578">
        <ele>768.6</ele>
        <time>2022-06-26T11:13:13Z</time>
      </trkpt>
      <trkpt lat="45.86711" lon="4.37571">
        <ele>769</ele>
        <time>2022-06-26T11:13:14Z</time>
      </trkpt>
      <trkpt lat="45.86709" lon="4.37568">
        <ele>769</ele>
        <time>2022-06-26T11:13:15Z</time>
      </trkpt>
      <trkpt lat="45.86706" lon="4.37565">
        <ele>769.2</ele>
        <time>2022-06-26T11:13:16Z</time>
      </trkpt>
      <trkpt lat="45.86704" lon="4.37562">
        <ele>769.2</ele>
        <time>2022-06-26T11:13:17Z</time>
      </trkpt>
      <trkpt lat="45.86702" lon="4.3756">
        <ele>769.2</ele>
        <time>2022-06-26T11:13:18Z</time>
      </trkpt>
      <trkpt lat="45.867" lon="4.37557">
        <ele>769.6</ele>
        <time>2022-06-26T11:13:19Z</time>
      </trkpt>
      <trkpt lat="45.86697" lon="4.37554">
        <ele>769.6</ele>
        <time>2022-06-26T11:13:20Z</time>
      </trkpt>
      <trkpt lat="45.86695" lon="4.37551">
        <ele>770</ele>
        <time>2022-06-26T11:13:21Z</time>
      </trkpt>
      <trkpt lat="45.86692" lon="4.37548">
        <ele>770</ele>
        <time>2022-06-26T11:13:22Z</time>
      </trkpt>
      <trkpt lat="45.86689" lon="4.37545">
        <ele>770.2</ele>
        <time>2022-06-26T11:13:23Z</time>
      </trkpt>
      <trkpt lat="45.86687" lon="4.37543">
        <ele>770.2</ele>
        <time>2022-06-26T11:13:24Z</time>
      </trkpt>
      <trkpt lat="45.86684" lon="4.37541">
        <ele>770.6</ele>
        <time>2022-06-26T11:13:25Z</time>
      </trkpt>
      <trkpt lat="45.86682" lon="4.37538">
        <ele>770.6</ele>
        <time>2022-06-26T11:13:26Z</time>
      </trkpt>
      <trkpt lat="45.86679" lon="4.37535">
        <ele>770.8</ele>
        <time>2022-06-26T11:13:27Z</time>
      </trkpt>
      <trkpt lat="45.86676" lon="4.37533">
        <ele>770.8</ele>
        <time>2022-06-26T11:13:28Z</time>
      </trkpt>
      <trkpt lat="45.86673" lon="4.37531">
        <ele>771</ele>
        <time>2022-06-26T11:13:29Z</time>
      </trkpt>
      <trkpt lat="45.86671" lon="4.37528">
        <ele>771</ele>
        <time>2022-06-26T11:13:30Z</time>
      </trkpt>
      <trkpt lat="45.86668" lon="4.37527">
        <ele>771.4</ele>
        <time>2022-06-26T11:13:31Z</time>
      </trkpt>
      <trkpt lat="45.86665" lon="4.37524">
        <ele>771.4</ele>
        <time>2022-06-26T11:13:32Z</time>
      </trkpt>
      <trkpt lat="45.86662" lon="4.37522">
        <ele>771.6</ele>
        <time>2022-06-26T11:13:33Z</time>
      </trkpt>
      <trkpt lat="45.86659" lon="4.3752">
        <ele>771.6</ele>
        <time>2022-06-26T11:13:34Z</time>
      </trkpt>
      <trkpt lat="45.86656" lon="4.37517">
        <ele>772</ele>
        <time>2022-06-26T11:13:35Z</time>
      </trkpt>
      <trkpt lat="45.86653" lon="4.37514">
        <ele>772</ele>
        <time>2022-06-26T11:13:36Z</time>
      </trkpt>
      <trkpt lat="45.86651" lon="4.37512">
        <ele>772.4</ele>
        <time>2022-06-26T11:13:37Z</time>
      </trkpt>
      <trkpt lat="45.86648" lon="4.3751">
        <ele>772.4</ele>
        <time>2022-06-26T11:13:38Z</time>
      </trkpt>
      <trkpt lat="45.86646" lon="4.37507">
        <ele>772.6</ele>
        <time>2022-06-26T11:13:39Z</time>
      </trkpt>
      <trkpt lat="45.86644" lon="4.37504">
        <ele>772.6</ele>
        <time>2022-06-26T11:13:40Z</time>
      </trkpt>
      <trkpt lat="45.86641" lon="4.375">
        <ele>773</ele>
        <time>2022-06-26T11:13:41Z</time>
      </trkpt>
      <trkpt lat="45.86639" lon="4.37497">
        <ele>773</ele>
        <time>2022-06-26T11:13:42Z</time>
      </trkpt>
      <trkpt lat="45.86638" lon="4.37493">
        <ele>773.4</ele>
        <time>2022-06-26T11:13:43Z</time>
      </trkpt>
      <trkpt lat="45.86637" lon="4.37489">
        <ele>773.4</ele>
        <time>2022-06-26T11:13:44Z</time>
      </trkpt>
      <trkpt lat="45.86636" lon="4.37485">
        <ele>773.6</ele>
        <time>2022-06-26T11:13:45Z</time>
      </trkpt>
      <trkpt lat="45.86634" lon="4.37481">
        <ele>773.6</ele>
        <time>2022-06-26T11:13:46Z</time>
      </trkpt>
      <trkpt lat="45.86634" lon="4.37477">
        <ele>774</ele>
        <time>2022-06-26T11:13:47Z</time>
      </trkpt>
      <trkpt lat="45.86633" lon="4.37473">
        <ele>774.2</ele>
        <time>2022-06-26T11:13:48Z</time>
      </trkpt>
      <trkpt lat="45.86632" lon="4.37469">
        <ele>774.2</ele>
        <time>2022-06-26T11:13:49Z</time>
      </trkpt>
      <trkpt lat="45.86632" lon="4.37465">
        <ele>774.4</ele>
        <time>2022-06-26T11:13:50Z</time>
      </trkpt>
      <trkpt lat="45.86632" lon="4.37461">
        <ele>774.4</ele>
        <time>2022-06-26T11:13:51Z</time>
      </trkpt>
      <trkpt lat="45.86631" lon="4.37457">
        <ele>774.8</ele>
        <time>2022-06-26T11:13:52Z</time>
      </trkpt>
      <trkpt lat="45.86631" lon="4.37453">
        <ele>775</ele>
        <time>2022-06-26T11:13:53Z</time>
      </trkpt>
      <trkpt lat="45.86631" lon="4.37449">
        <ele>775</ele>
        <time>2022-06-26T11:13:54Z</time>
      </trkpt>
      <trkpt lat="45.86631" lon="4.37446">
        <ele>775.4</ele>
        <time>2022-06-26T11:13:55Z</time>
      </trkpt>
      <trkpt lat="45.86631" lon="4.37442">
        <ele>775.4</ele>
        <time>2022-06-26T11:13:56Z</time>
      </trkpt>
      <trkpt lat="45.86631" lon="4.37438">
        <ele>775.6</ele>
        <time>2022-06-26T11:13:57Z</time>
      </trkpt>
      <trkpt lat="45.8663" lon="4.37434">
        <ele>775.6</ele>
        <time>2022-06-26T11:13:58Z</time>
      </trkpt>
      <trkpt lat="45.86631" lon="4.3743">
        <ele>776</ele>
        <time>2022-06-26T11:13:59Z</time>
      </trkpt>
      <trkpt lat="45.86631" lon="4.37427">
        <ele>776.2</ele>
        <time>2022-06-26T11:14:00Z</time>
      </trkpt>
      <trkpt lat="45.86632" lon="4.37423">
        <ele>776.2</ele>
        <time>2022-06-26T11:14:01Z</time>
      </trkpt>
      <trkpt lat="45.86632" lon="4.3742">
        <ele>776.6</ele>
        <time>2022-06-26T11:14:02Z</time>
      </trkpt>
      <trkpt lat="45.86633" lon="4.37416">
        <ele>776.6</ele>
        <time>2022-06-26T11:14:03Z</time>
      </trkpt>
      <trkpt lat="45.86633" lon="4.37412">
        <ele>776.8</ele>
        <time>2022-06-26T11:14:04Z</time>
      </trkpt>
      <trkpt lat="45.86634" lon="4.37409">
        <ele>776.8</ele>
        <time>2022-06-26T11:14:05Z</time>
      </trkpt>
      <trkpt lat="45.86634" lon="4.37405">
        <ele>777.2</ele>
        <time>2022-06-26T11:14:06Z</time>
      </trkpt>
      <trkpt lat="45.86635" lon="4.37402">
        <ele>777.2</ele>
        <time>2022-06-26T11:14:07Z</time>
      </trkpt>
      <trkpt lat="45.86635" lon="4.37398">
        <ele>777.2</ele>
        <time>2022-06-26T11:14:08Z</time>
      </trkpt>
      <trkpt lat="45.86636" lon="4.37394">
        <ele>777.6</ele>
        <time>2022-06-26T11:14:09Z</time>
      </trkpt>
      <trkpt lat="45.86637" lon="4.37391">
        <ele>777.6</ele>
        <time>2022-06-26T11:14:10Z</time>
      </trkpt>
      <trkpt lat="45.86637" lon="4.37388">
        <ele>777.8</ele>
        <time>2022-06-26T11:14:11Z</time>
      </trkpt>
      <trkpt lat="45.86638" lon="4.37384">
        <ele>777.8</ele>
        <time>2022-06-26T11:14:12Z</time>
      </trkpt>
      <trkpt lat="45.86638" lon="4.37381">
        <ele>778</ele>
        <time>2022-06-26T11:14:13Z</time>
      </trkpt>
      <trkpt lat="45.86638" lon="4.37378">
        <ele>778.2</ele>
        <time>2022-06-26T11:14:14Z</time>
      </trkpt>
      <trkpt lat="45.86638" lon="4.37375">
        <ele>778.4</ele>
        <time>2022-06-26T11:14:15Z</time>
      </trkpt>
      <trkpt lat="45.86639" lon="4.37372">
        <ele>778.4</ele>
        <time>2022-06-26T11:14:16Z</time>
      </trkpt>
      <trkpt lat="45.86639" lon="4.37369">
        <ele>778.8</ele>
        <time>2022-06-26T11:14:17Z</time>
      </trkpt>
      <trkpt lat="45.86639" lon="4.37365">
        <ele>779</ele>
        <time>2022-06-26T11:14:18Z</time>
      </trkpt>
      <trkpt lat="45.86639" lon="4.37362">
        <ele>779</ele>
        <time>2022-06-26T11:14:19Z</time>
      </trkpt>
      <trkpt lat="45.86639" lon="4.37359">
        <ele>779.2</ele>
        <time>2022-06-26T11:14:20Z</time>
      </trkpt>
      <trkpt lat="45.86639" lon="4.37356">
        <ele>779.2</ele>
        <time>2022-06-26T11:14:21Z</time>
      </trkpt>
      <trkpt lat="45.86638" lon="4.37353">
        <ele>779.4</ele>
        <time>2022-06-26T11:14:22Z</time>
      </trkpt>
      <trkpt lat="45.86638" lon="4.37349">
        <ele>779.8</ele>
        <time>2022-06-26T11:14:23Z</time>
      </trkpt>
      <trkpt lat="45.86638" lon="4.37346">
        <ele>779.8</ele>
        <time>2022-06-26T11:14:24Z</time>
      </trkpt>
      <trkpt lat="45.86638" lon="4.37342">
        <ele>780</ele>
        <time>2022-06-26T11:14:25Z</time>
      </trkpt>
      <trkpt lat="45.86638" lon="4.37339">
        <ele>780</ele>
        <time>2022-06-26T11:14:26Z</time>
      </trkpt>
      <trkpt lat="45.86638" lon="4.37335">
        <ele>780.4</ele>
        <time>2022-06-26T11:14:27Z</time>
      </trkpt>
      <trkpt lat="45.86638" lon="4.37331">
        <ele>780.4</ele>
        <time>2022-06-26T11:14:28Z</time>
      </trkpt>
      <trkpt lat="45.86637" lon="4.37327">
        <ele>780.6</ele>
        <time>2022-06-26T11:14:29Z</time>
      </trkpt>
      <trkpt lat="45.86637" lon="4.37323">
        <ele>780.6</ele>
        <time>2022-06-26T11:14:30Z</time>
      </trkpt>
      <trkpt lat="45.86637" lon="4.37319">
        <ele>780.8</ele>
        <time>2022-06-26T11:14:31Z</time>
      </trkpt>
      <trkpt lat="45.86637" lon="4.37315">
        <ele>780.8</ele>
        <time>2022-06-26T11:14:32Z</time>
      </trkpt>
      <trkpt lat="45.86637" lon="4.37311">
        <ele>781.2</ele>
        <time>2022-06-26T11:14:33Z</time>
      </trkpt>
      <trkpt lat="45.86637" lon="4.37306">
        <ele>781.2</ele>
        <time>2022-06-26T11:14:34Z</time>
      </trkpt>
      <trkpt lat="45.86637" lon="4.37302">
        <ele>781.4</ele>
        <time>2022-06-26T11:14:35Z</time>
      </trkpt>
      <trkpt lat="45.86637" lon="4.37298">
        <ele>781.4</ele>
        <time>2022-06-26T11:14:36Z</time>
      </trkpt>
      <trkpt lat="45.86638" lon="4.37294">
        <ele>781.8</ele>
        <time>2022-06-26T11:14:37Z</time>
      </trkpt>
      <trkpt lat="45.86638" lon="4.3729">
        <ele>781.8</ele>
        <time>2022-06-26T11:14:38Z</time>
      </trkpt>
      <trkpt lat="45.86638" lon="4.37286">
        <ele>782.2</ele>
        <time>2022-06-26T11:14:39Z</time>
      </trkpt>
      <trkpt lat="45.86637" lon="4.37282">
        <ele>782.2</ele>
        <time>2022-06-26T11:14:40Z</time>
      </trkpt>
      <trkpt lat="45.86637" lon="4.37278">
        <ele>782.6</ele>
        <time>2022-06-26T11:14:41Z</time>
      </trkpt>
      <trkpt lat="45.86637" lon="4.37274">
        <ele>782.6</ele>
        <time>2022-06-26T11:14:42Z</time>
      </trkpt>
      <trkpt lat="45.86637" lon="4.3727">
        <ele>782.8</ele>
        <time>2022-06-26T11:14:43Z</time>
      </trkpt>
      <trkpt lat="45.86637" lon="4.37267">
        <ele>782.8</ele>
        <time>2022-06-26T11:14:44Z</time>
      </trkpt>
      <trkpt lat="45.86637" lon="4.37263">
        <ele>783.2</ele>
        <time>2022-06-26T11:14:45Z</time>
      </trkpt>
      <trkpt lat="45.86638" lon="4.37259">
        <ele>783.2</ele>
        <time>2022-06-26T11:14:46Z</time>
      </trkpt>
      <trkpt lat="45.86639" lon="4.37255">
        <ele>783.4</ele>
        <time>2022-06-26T11:14:47Z</time>
      </trkpt>
      <trkpt lat="45.86639" lon="4.37251">
        <ele>783.4</ele>
        <time>2022-06-26T11:14:48Z</time>
      </trkpt>
      <trkpt lat="45.8664" lon="4.37247">
        <ele>783.8</ele>
        <time>2022-06-26T11:14:49Z</time>
      </trkpt>
      <trkpt lat="45.8664" lon="4.37243">
        <ele>783.8</ele>
        <time>2022-06-26T11:14:50Z</time>
      </trkpt>
      <trkpt lat="45.86641" lon="4.37239">
        <ele>784.2</ele>
        <time>2022-06-26T11:14:51Z</time>
      </trkpt>
      <trkpt lat="45.86641" lon="4.37235">
        <ele>784.2</ele>
        <time>2022-06-26T11:14:52Z</time>
      </trkpt>
      <trkpt lat="45.86642" lon="4.37231">
        <ele>784.6</ele>
        <time>2022-06-26T11:14:53Z</time>
      </trkpt>
      <trkpt lat="45.86642" lon="4.37227">
        <ele>784.8</ele>
        <time>2022-06-26T11:14:54Z</time>
      </trkpt>
      <trkpt lat="45.86642" lon="4.37223">
        <ele>784.8</ele>
        <time>2022-06-26T11:14:55Z</time>
      </trkpt>
      <trkpt lat="45.86642" lon="4.37219">
        <ele>785.2</ele>
        <time>2022-06-26T11:14:56Z</time>
      </trkpt>
      <trkpt lat="45.86642" lon="4.37215">
        <ele>785.2</ele>
        <time>2022-06-26T11:14:57Z</time>
      </trkpt>
      <trkpt lat="45.86642" lon="4.37211">
        <ele>785.4</ele>
        <time>2022-06-26T11:14:58Z</time>
      </trkpt>
      <trkpt lat="45.86641" lon="4.37208">
        <ele>785.4</ele>
        <time>2022-06-26T11:14:59Z</time>
      </trkpt>
      <trkpt lat="45.86641" lon="4.37204">
        <ele>785.8</ele>
        <time>2022-06-26T11:15:00Z</time>
      </trkpt>
      <trkpt lat="45.8664" lon="4.372">
        <ele>786</ele>
        <time>2022-06-26T11:15:01Z</time>
      </trkpt>
      <trkpt lat="45.8664" lon="4.37197">
        <ele>786</ele>
        <time>2022-06-26T11:15:02Z</time>
      </trkpt>
      <trkpt lat="45.86639" lon="4.37193">
        <ele>786.2</ele>
        <time>2022-06-26T11:15:03Z</time>
      </trkpt>
      <trkpt lat="45.86638" lon="4.37189">
        <ele>786.2</ele>
        <time>2022-06-26T11:15:04Z</time>
      </trkpt>
      <trkpt lat="45.86637" lon="4.37186">
        <ele>786.6</ele>
        <time>2022-06-26T11:15:05Z</time>
      </trkpt>
      <trkpt lat="45.86635" lon="4.37182">
        <ele>786.6</ele>
        <time>2022-06-26T11:15:06Z</time>
      </trkpt>
      <trkpt lat="45.86634" lon="4.37178">
        <ele>786.8</ele>
        <time>2022-06-26T11:15:07Z</time>
      </trkpt>
      <trkpt lat="45.86633" lon="4.37175">
        <ele>786.8</ele>
        <time>2022-06-26T11:15:08Z</time>
      </trkpt>
      <trkpt lat="45.86631" lon="4.37172">
        <ele>787</ele>
        <time>2022-06-26T11:15:09Z</time>
      </trkpt>
      <trkpt lat="45.86629" lon="4.37168">
        <ele>787</ele>
        <time>2022-06-26T11:15:10Z</time>
      </trkpt>
      <trkpt lat="45.86627" lon="4.37165">
        <ele>787.4</ele>
        <time>2022-06-26T11:15:11Z</time>
      </trkpt>
      <trkpt lat="45.86625" lon="4.37162">
        <ele>787.4</ele>
        <time>2022-06-26T11:15:12Z</time>
      </trkpt>
      <trkpt lat="45.86622" lon="4.37159">
        <ele>787.8</ele>
        <time>2022-06-26T11:15:13Z</time>
      </trkpt>
      <trkpt lat="45.86619" lon="4.37156">
        <ele>787.8</ele>
        <time>2022-06-26T11:15:14Z</time>
      </trkpt>
      <trkpt lat="45.86617" lon="4.37153">
        <ele>788.2</ele>
        <time>2022-06-26T11:15:15Z</time>
      </trkpt>
      <trkpt lat="45.86614" lon="4.3715">
        <ele>788.2</ele>
        <time>2022-06-26T11:15:16Z</time>
      </trkpt>
      <trkpt lat="45.86612" lon="4.37147">
        <ele>788.4</ele>
        <time>2022-06-26T11:15:17Z</time>
      </trkpt>
      <trkpt lat="45.86609" lon="4.37145">
        <ele>788.6</ele>
        <time>2022-06-26T11:15:18Z</time>
      </trkpt>
      <trkpt lat="45.86606" lon="4.37143">
        <ele>788.6</ele>
        <time>2022-06-26T11:15:19Z</time>
      </trkpt>
      <trkpt lat="45.86604" lon="4.37141">
        <ele>788.8</ele>
        <time>2022-06-26T11:15:20Z</time>
      </trkpt>
      <trkpt lat="45.86601" lon="4.37138">
        <ele>788.8</ele>
        <time>2022-06-26T11:15:21Z</time>
      </trkpt>
      <trkpt lat="45.86598" lon="4.37137">
        <ele>789.2</ele>
        <time>2022-06-26T11:15:22Z</time>
      </trkpt>
      <trkpt lat="45.86596" lon="4.37135">
        <ele>789.2</ele>
        <time>2022-06-26T11:15:23Z</time>
      </trkpt>
      <trkpt lat="45.86594" lon="4.37133">
        <ele>789.4</ele>
        <time>2022-06-26T11:15:24Z</time>
      </trkpt>
      <trkpt lat="45.86591" lon="4.37132">
        <ele>789.4</ele>
        <time>2022-06-26T11:15:25Z</time>
      </trkpt>
      <trkpt lat="45.86589" lon="4.3713">
        <ele>789.4</ele>
        <time>2022-06-26T11:15:26Z</time>
      </trkpt>
      <trkpt lat="45.86586" lon="4.37128">
        <ele>789.8</ele>
        <time>2022-06-26T11:15:27Z</time>
      </trkpt>
      <trkpt lat="45.86584" lon="4.37127">
        <ele>789.8</ele>
        <time>2022-06-26T11:15:28Z</time>
      </trkpt>
      <trkpt lat="45.86582" lon="4.37124">
        <ele>790</ele>
        <time>2022-06-26T11:15:29Z</time>
      </trkpt>
      <trkpt lat="45.86579" lon="4.37123">
        <ele>790</ele>
        <time>2022-06-26T11:15:30Z</time>
      </trkpt>
      <trkpt lat="45.86577" lon="4.3712">
        <ele>790</ele>
        <time>2022-06-26T11:15:31Z</time>
      </trkpt>
      <trkpt lat="45.86575" lon="4.37118">
        <ele>790.2</ele>
        <time>2022-06-26T11:15:32Z</time>
      </trkpt>
      <trkpt lat="45.86573" lon="4.37116">
        <ele>790.2</ele>
        <time>2022-06-26T11:15:33Z</time>
      </trkpt>
      <trkpt lat="45.86571" lon="4.37114">
        <ele>790.4</ele>
        <time>2022-06-26T11:15:34Z</time>
      </trkpt>
      <trkpt lat="45.86569" lon="4.37112">
        <ele>790.4</ele>
        <time>2022-06-26T11:15:35Z</time>
      </trkpt>
      <trkpt lat="45.86567" lon="4.3711">
        <ele>790.8</ele>
        <time>2022-06-26T11:15:36Z</time>
      </trkpt>
      <trkpt lat="45.86565" lon="4.37108">
        <ele>790.8</ele>
        <time>2022-06-26T11:15:37Z</time>
      </trkpt>
      <trkpt lat="45.86562" lon="4.37106">
        <ele>791.2</ele>
        <time>2022-06-26T11:15:38Z</time>
      </trkpt>
      <trkpt lat="45.86561" lon="4.37104">
        <ele>791.2</ele>
        <time>2022-06-26T11:15:39Z</time>
      </trkpt>
      <trkpt lat="45.86559" lon="4.37102">
        <ele>791.4</ele>
        <time>2022-06-26T11:15:40Z</time>
      </trkpt>
      <trkpt lat="45.86557" lon="4.37099">
        <ele>791.4</ele>
        <time>2022-06-26T11:15:41Z</time>
      </trkpt>
      <trkpt lat="45.86555" lon="4.37097">
        <ele>791.6</ele>
        <time>2022-06-26T11:15:42Z</time>
      </trkpt>
      <trkpt lat="45.86553" lon="4.37094">
        <ele>791.6</ele>
        <time>2022-06-26T11:15:43Z</time>
      </trkpt>
      <trkpt lat="45.86551" lon="4.37092">
        <ele>791.8</ele>
        <time>2022-06-26T11:15:44Z</time>
      </trkpt>
      <trkpt lat="45.86549" lon="4.37089">
        <ele>791.8</ele>
        <time>2022-06-26T11:15:45Z</time>
      </trkpt>
      <trkpt lat="45.86548" lon="4.37087">
        <ele>792.2</ele>
        <time>2022-06-26T11:15:46Z</time>
      </trkpt>
      <trkpt lat="45.86546" lon="4.37084">
        <ele>792.2</ele>
        <time>2022-06-26T11:15:47Z</time>
      </trkpt>
      <trkpt lat="45.86545" lon="4.37081">
        <ele>792.4</ele>
        <time>2022-06-26T11:15:48Z</time>
      </trkpt>
      <trkpt lat="45.86543" lon="4.37077">
        <ele>792.4</ele>
        <time>2022-06-26T11:15:49Z</time>
      </trkpt>
      <trkpt lat="45.86542" lon="4.37074">
        <ele>792.6</ele>
        <time>2022-06-26T11:15:50Z</time>
      </trkpt>
      <trkpt lat="45.86541" lon="4.3707">
        <ele>792.6</ele>
        <time>2022-06-26T11:15:51Z</time>
      </trkpt>
      <trkpt lat="45.8654" lon="4.37067">
        <ele>793</ele>
        <time>2022-06-26T11:15:52Z</time>
      </trkpt>
      <trkpt lat="45.86539" lon="4.37063">
        <ele>793</ele>
        <time>2022-06-26T11:15:53Z</time>
      </trkpt>
      <trkpt lat="45.86538" lon="4.37059">
        <ele>793.4</ele>
        <time>2022-06-26T11:15:54Z</time>
      </trkpt>
      <trkpt lat="45.86537" lon="4.37056">
        <ele>793.4</ele>
        <time>2022-06-26T11:15:55Z</time>
      </trkpt>
      <trkpt lat="45.86536" lon="4.37052">
        <ele>793.4</ele>
        <time>2022-06-26T11:15:56Z</time>
      </trkpt>
      <trkpt lat="45.86535" lon="4.37048">
        <ele>793.6</ele>
        <time>2022-06-26T11:15:57Z</time>
      </trkpt>
      <trkpt lat="45.86535" lon="4.37044">
        <ele>793.6</ele>
        <time>2022-06-26T11:15:58Z</time>
      </trkpt>
      <trkpt lat="45.86535" lon="4.3704">
        <ele>793.8</ele>
        <time>2022-06-26T11:15:59Z</time>
      </trkpt>
      <trkpt lat="45.86535" lon="4.37036">
        <ele>793.8</ele>
        <time>2022-06-26T11:16:00Z</time>
      </trkpt>
      <trkpt lat="45.86535" lon="4.37032">
        <ele>794.2</ele>
        <time>2022-06-26T11:16:01Z</time>
      </trkpt>
      <trkpt lat="45.86535" lon="4.37028">
        <ele>794.4</ele>
        <time>2022-06-26T11:16:02Z</time>
      </trkpt>
      <trkpt lat="45.86535" lon="4.37025">
        <ele>794.6</ele>
        <time>2022-06-26T11:16:03Z</time>
      </trkpt>
      <trkpt lat="45.86536" lon="4.37021">
        <ele>794.6</ele>
        <time>2022-06-26T11:16:04Z</time>
      </trkpt>
      <trkpt lat="45.86536" lon="4.37017">
        <ele>795</ele>
        <time>2022-06-26T11:16:05Z</time>
      </trkpt>
      <trkpt lat="45.86537" lon="4.37013">
        <ele>795</ele>
        <time>2022-06-26T11:16:06Z</time>
      </trkpt>
      <trkpt lat="45.86537" lon="4.37009">
        <ele>795.4</ele>
        <time>2022-06-26T11:16:07Z</time>
      </trkpt>
      <trkpt lat="45.86537" lon="4.37005">
        <ele>795.4</ele>
        <time>2022-06-26T11:16:08Z</time>
      </trkpt>
      <trkpt lat="45.86538" lon="4.37001">
        <ele>795.8</ele>
        <time>2022-06-26T11:16:09Z</time>
      </trkpt>
      <trkpt lat="45.86538" lon="4.36997">
        <ele>795.8</ele>
        <time>2022-06-26T11:16:10Z</time>
      </trkpt>
      <trkpt lat="45.86539" lon="4.36993">
        <ele>796</ele>
        <time>2022-06-26T11:16:11Z</time>
      </trkpt>
      <trkpt lat="45.86539" lon="4.3699">
        <ele>796</ele>
        <time>2022-06-26T11:16:12Z</time>
      </trkpt>
      <trkpt lat="45.8654" lon="4.36986">
        <ele>796.2</ele>
        <time>2022-06-26T11:16:13Z</time>
      </trkpt>
      <trkpt lat="45.8654" lon="4.36982">
        <ele>796.2</ele>
        <time>2022-06-26T11:16:14Z</time>
      </trkpt>
      <trkpt lat="45.86541" lon="4.36978">
        <ele>796.6</ele>
        <time>2022-06-26T11:16:15Z</time>
      </trkpt>
      <trkpt lat="45.86541" lon="4.36974">
        <ele>796.6</ele>
        <time>2022-06-26T11:16:16Z</time>
      </trkpt>
      <trkpt lat="45.86541" lon="4.3697">
        <ele>797</ele>
        <time>2022-06-26T11:16:17Z</time>
      </trkpt>
      <trkpt lat="45.86542" lon="4.36966">
        <ele>797</ele>
        <time>2022-06-26T11:16:18Z</time>
      </trkpt>
      <trkpt lat="45.86543" lon="4.36962">
        <ele>797.2</ele>
        <time>2022-06-26T11:16:19Z</time>
      </trkpt>
      <trkpt lat="45.86543" lon="4.36958">
        <ele>797.2</ele>
        <time>2022-06-26T11:16:20Z</time>
      </trkpt>
      <trkpt lat="45.86543" lon="4.36954">
        <ele>797.4</ele>
        <time>2022-06-26T11:16:21Z</time>
      </trkpt>
      <trkpt lat="45.86544" lon="4.3695">
        <ele>797.6</ele>
        <time>2022-06-26T11:16:22Z</time>
      </trkpt>
      <trkpt lat="45.86544" lon="4.36946">
        <ele>797.8</ele>
        <time>2022-06-26T11:16:23Z</time>
      </trkpt>
      <trkpt lat="45.86545" lon="4.36942">
        <ele>798</ele>
        <time>2022-06-26T11:16:24Z</time>
      </trkpt>
      <trkpt lat="45.86546" lon="4.36938">
        <ele>798</ele>
        <time>2022-06-26T11:16:25Z</time>
      </trkpt>
      <trkpt lat="45.86546" lon="4.36934">
        <ele>798.4</ele>
        <time>2022-06-26T11:16:26Z</time>
      </trkpt>
      <trkpt lat="45.86546" lon="4.3693">
        <ele>798.4</ele>
        <time>2022-06-26T11:16:27Z</time>
      </trkpt>
      <trkpt lat="45.86547" lon="4.36926">
        <ele>798.6</ele>
        <time>2022-06-26T11:16:28Z</time>
      </trkpt>
      <trkpt lat="45.86547" lon="4.36922">
        <ele>798.6</ele>
        <time>2022-06-26T11:16:29Z</time>
      </trkpt>
      <trkpt lat="45.86547" lon="4.36918">
        <ele>799</ele>
        <time>2022-06-26T11:16:30Z</time>
      </trkpt>
      <trkpt lat="45.86547" lon="4.36914">
        <ele>799.2</ele>
        <time>2022-06-26T11:16:31Z</time>
      </trkpt>
      <trkpt lat="45.86548" lon="4.36909">
        <ele>799.2</ele>
        <time>2022-06-26T11:16:32Z</time>
      </trkpt>
      <trkpt lat="45.86547" lon="4.36905">
        <ele>799.6</ele>
        <time>2022-06-26T11:16:33Z</time>
      </trkpt>
      <trkpt lat="45.86547" lon="4.36901">
        <ele>800</ele>
        <time>2022-06-26T11:16:34Z</time>
      </trkpt>
      <trkpt lat="45.86547" lon="4.36897">
        <ele>800</ele>
        <time>2022-06-26T11:16:35Z</time>
      </trkpt>
      <trkpt lat="45.86547" lon="4.36893">
        <ele>800.2</ele>
        <time>2022-06-26T11:16:36Z</time>
      </trkpt>
      <trkpt lat="45.86547" lon="4.36889">
        <ele>800.2</ele>
        <time>2022-06-26T11:16:37Z</time>
      </trkpt>
      <trkpt lat="45.86546" lon="4.36885">
        <ele>800.6</ele>
        <time>2022-06-26T11:16:38Z</time>
      </trkpt>
      <trkpt lat="45.86546" lon="4.36881">
        <ele>800.6</ele>
        <time>2022-06-26T11:16:39Z</time>
      </trkpt>
      <trkpt lat="45.86545" lon="4.36877">
        <ele>800.8</ele>
        <time>2022-06-26T11:16:40Z</time>
      </trkpt>
      <trkpt lat="45.86544" lon="4.36874">
        <ele>800.8</ele>
        <time>2022-06-26T11:16:41Z</time>
      </trkpt>
      <trkpt lat="45.86543" lon="4.3687">
        <ele>801.2</ele>
        <time>2022-06-26T11:16:42Z</time>
      </trkpt>
      <trkpt lat="45.86542" lon="4.36866">
        <ele>801.2</ele>
        <time>2022-06-26T11:16:43Z</time>
      </trkpt>
      <trkpt lat="45.86541" lon="4.36862">
        <ele>801.4</ele>
        <time>2022-06-26T11:16:44Z</time>
      </trkpt>
      <trkpt lat="45.86541" lon="4.36858">
        <ele>801.4</ele>
        <time>2022-06-26T11:16:45Z</time>
      </trkpt>
      <trkpt lat="45.8654" lon="4.36855">
        <ele>801.8</ele>
        <time>2022-06-26T11:16:46Z</time>
      </trkpt>
      <trkpt lat="45.86539" lon="4.36851">
        <ele>802</ele>
        <time>2022-06-26T11:16:47Z</time>
      </trkpt>
      <trkpt lat="45.86537" lon="4.36847">
        <ele>802</ele>
        <time>2022-06-26T11:16:48Z</time>
      </trkpt>
      <trkpt lat="45.86536" lon="4.36844">
        <ele>802.4</ele>
        <time>2022-06-26T11:16:49Z</time>
      </trkpt>
      <trkpt lat="45.86535" lon="4.36841">
        <ele>802.4</ele>
        <time>2022-06-26T11:16:50Z</time>
      </trkpt>
      <trkpt lat="45.86533" lon="4.36837">
        <ele>802.6</ele>
        <time>2022-06-26T11:16:51Z</time>
      </trkpt>
      <trkpt lat="45.86532" lon="4.36834">
        <ele>802.6</ele>
        <time>2022-06-26T11:16:52Z</time>
      </trkpt>
      <trkpt lat="45.8653" lon="4.36831">
        <ele>803</ele>
        <time>2022-06-26T11:16:53Z</time>
      </trkpt>
      <trkpt lat="45.86529" lon="4.36828">
        <ele>803</ele>
        <time>2022-06-26T11:16:54Z</time>
      </trkpt>
      <trkpt lat="45.86527" lon="4.36825">
        <ele>803.2</ele>
        <time>2022-06-26T11:16:55Z</time>
      </trkpt>
      <trkpt lat="45.86526" lon="4.36822">
        <ele>803.2</ele>
        <time>2022-06-26T11:16:56Z</time>
      </trkpt>
      <trkpt lat="45.86524" lon="4.36819">
        <ele>803.6</ele>
        <time>2022-06-26T11:16:57Z</time>
      </trkpt>
      <trkpt lat="45.86522" lon="4.36817">
        <ele>803.8</ele>
        <time>2022-06-26T11:16:58Z</time>
      </trkpt>
      <trkpt lat="45.8652" lon="4.36814">
        <ele>803.8</ele>
        <time>2022-06-26T11:16:59Z</time>
      </trkpt>
      <trkpt lat="45.86518" lon="4.36811">
        <ele>803.8</ele>
        <time>2022-06-26T11:17:00Z</time>
      </trkpt>
      <trkpt lat="45.86516" lon="4.36809">
        <ele>804.2</ele>
        <time>2022-06-26T11:17:01Z</time>
      </trkpt>
      <trkpt lat="45.86514" lon="4.36806">
        <ele>804.2</ele>
        <time>2022-06-26T11:17:02Z</time>
      </trkpt>
      <trkpt lat="45.86512" lon="4.36803">
        <ele>804.4</ele>
        <time>2022-06-26T11:17:03Z</time>
      </trkpt>
      <trkpt lat="45.8651" lon="4.36801">
        <ele>804.4</ele>
        <time>2022-06-26T11:17:04Z</time>
      </trkpt>
      <trkpt lat="45.86508" lon="4.36798">
        <ele>804.8</ele>
        <time>2022-06-26T11:17:05Z</time>
      </trkpt>
      <trkpt lat="45.86506" lon="4.36796">
        <ele>804.8</ele>
        <time>2022-06-26T11:17:06Z</time>
      </trkpt>
      <trkpt lat="45.86504" lon="4.36794">
        <ele>805</ele>
        <time>2022-06-26T11:17:07Z</time>
      </trkpt>
      <trkpt lat="45.86502" lon="4.36792">
        <ele>805</ele>
        <time>2022-06-26T11:17:08Z</time>
      </trkpt>
      <trkpt lat="45.865" lon="4.3679">
        <ele>805.2</ele>
        <time>2022-06-26T11:17:09Z</time>
      </trkpt>
      <trkpt lat="45.86497" lon="4.36788">
        <ele>805.2</ele>
        <time>2022-06-26T11:17:10Z</time>
      </trkpt>
      <trkpt lat="45.86495" lon="4.36787">
        <ele>805.6</ele>
        <time>2022-06-26T11:17:11Z</time>
      </trkpt>
      <trkpt lat="45.86492" lon="4.36785">
        <ele>805.6</ele>
        <time>2022-06-26T11:17:12Z</time>
      </trkpt>
      <trkpt lat="45.8649" lon="4.36784">
        <ele>806</ele>
        <time>2022-06-26T11:17:13Z</time>
      </trkpt>
      <trkpt lat="45.86488" lon="4.36783">
        <ele>806</ele>
        <time>2022-06-26T11:17:14Z</time>
      </trkpt>
      <trkpt lat="45.86485" lon="4.36781">
        <ele>806.2</ele>
        <time>2022-06-26T11:17:15Z</time>
      </trkpt>
      <trkpt lat="45.86483" lon="4.3678">
        <ele>806.2</ele>
        <time>2022-06-26T11:17:16Z</time>
      </trkpt>
      <trkpt lat="45.8648" lon="4.3678">
        <ele>806.6</ele>
        <time>2022-06-26T11:17:17Z</time>
      </trkpt>
      <trkpt lat="45.86478" lon="4.36779">
        <ele>806.6</ele>
        <time>2022-06-26T11:17:18Z</time>
      </trkpt>
      <trkpt lat="45.86475" lon="4.36778">
        <ele>806.8</ele>
        <time>2022-06-26T11:17:19Z</time>
      </trkpt>
      <trkpt lat="45.86473" lon="4.36777">
        <ele>806.8</ele>
        <time>2022-06-26T11:17:20Z</time>
      </trkpt>
      <trkpt lat="45.8647" lon="4.36776">
        <ele>807</ele>
        <time>2022-06-26T11:17:21Z</time>
      </trkpt>
      <trkpt lat="45.86468" lon="4.36776">
        <ele>807</ele>
        <time>2022-06-26T11:17:22Z</time>
      </trkpt>
      <trkpt lat="45.86465" lon="4.36775">
        <ele>807.4</ele>
        <time>2022-06-26T11:17:23Z</time>
      </trkpt>
      <trkpt lat="45.86462" lon="4.36775">
        <ele>807.4</ele>
        <time>2022-06-26T11:17:24Z</time>
      </trkpt>
      <trkpt lat="45.86459" lon="4.36774">
        <ele>807.6</ele>
        <time>2022-06-26T11:17:25Z</time>
      </trkpt>
      <trkpt lat="45.86457" lon="4.36774">
        <ele>807.6</ele>
        <time>2022-06-26T11:17:26Z</time>
      </trkpt>
      <trkpt lat="45.86454" lon="4.36774">
        <ele>807.8</ele>
        <time>2022-06-26T11:17:27Z</time>
      </trkpt>
      <trkpt lat="45.86451" lon="4.36773">
        <ele>807.8</ele>
        <time>2022-06-26T11:17:28Z</time>
      </trkpt>
      <trkpt lat="45.86449" lon="4.36773">
        <ele>808.2</ele>
        <time>2022-06-26T11:17:29Z</time>
      </trkpt>
      <trkpt lat="45.86446" lon="4.36773">
        <ele>808.2</ele>
        <time>2022-06-26T11:17:30Z</time>
      </trkpt>
      <trkpt lat="45.86443" lon="4.36772">
        <ele>808.6</ele>
        <time>2022-06-26T11:17:31Z</time>
      </trkpt>
      <trkpt lat="45.86441" lon="4.36771">
        <ele>808.6</ele>
        <time>2022-06-26T11:17:32Z</time>
      </trkpt>
      <trkpt lat="45.86438" lon="4.3677">
        <ele>808.6</ele>
        <time>2022-06-26T11:17:33Z</time>
      </trkpt>
      <trkpt lat="45.86435" lon="4.3677">
        <ele>808.8</ele>
        <time>2022-06-26T11:17:34Z</time>
      </trkpt>
      <trkpt lat="45.86433" lon="4.36769">
        <ele>808.8</ele>
        <time>2022-06-26T11:17:35Z</time>
      </trkpt>
      <trkpt lat="45.8643" lon="4.36768">
        <ele>809.2</ele>
        <time>2022-06-26T11:17:36Z</time>
      </trkpt>
      <trkpt lat="45.86427" lon="4.36767">
        <ele>809.2</ele>
        <time>2022-06-26T11:17:37Z</time>
      </trkpt>
      <trkpt lat="45.86425" lon="4.36766">
        <ele>809.4</ele>
        <time>2022-06-26T11:17:38Z</time>
      </trkpt>
      <trkpt lat="45.86422" lon="4.36765">
        <ele>809.4</ele>
        <time>2022-06-26T11:17:39Z</time>
      </trkpt>
      <trkpt lat="45.8642" lon="4.36764">
        <ele>809.8</ele>
        <time>2022-06-26T11:17:40Z</time>
      </trkpt>
      <trkpt lat="45.86417" lon="4.36763">
        <ele>809.8</ele>
        <time>2022-06-26T11:17:41Z</time>
      </trkpt>
      <trkpt lat="45.86414" lon="4.36762">
        <ele>810</ele>
        <time>2022-06-26T11:17:42Z</time>
      </trkpt>
      <trkpt lat="45.86412" lon="4.3676">
        <ele>810</ele>
        <time>2022-06-26T11:17:43Z</time>
      </trkpt>
      <trkpt lat="45.86409" lon="4.36759">
        <ele>810.4</ele>
        <time>2022-06-26T11:17:44Z</time>
      </trkpt>
      <trkpt lat="45.86407" lon="4.36757">
        <ele>810.4</ele>
        <time>2022-06-26T11:17:45Z</time>
      </trkpt>
      <trkpt lat="45.86404" lon="4.36755">
        <ele>810.6</ele>
        <time>2022-06-26T11:17:46Z</time>
      </trkpt>
      <trkpt lat="45.86402" lon="4.36753">
        <ele>810.6</ele>
        <time>2022-06-26T11:17:47Z</time>
      </trkpt>
      <trkpt lat="45.86399" lon="4.36752">
        <ele>810.8</ele>
        <time>2022-06-26T11:17:48Z</time>
      </trkpt>
      <trkpt lat="45.86397" lon="4.3675">
        <ele>810.8</ele>
        <time>2022-06-26T11:17:49Z</time>
      </trkpt>
      <trkpt lat="45.86394" lon="4.36748">
        <ele>811</ele>
        <time>2022-06-26T11:17:50Z</time>
      </trkpt>
      <trkpt lat="45.86392" lon="4.36746">
        <ele>811</ele>
        <time>2022-06-26T11:17:51Z</time>
      </trkpt>
      <trkpt lat="45.8639" lon="4.36744">
        <ele>811.4</ele>
        <time>2022-06-26T11:17:52Z</time>
      </trkpt>
      <trkpt lat="45.86387" lon="4.36742">
        <ele>811.4</ele>
        <time>2022-06-26T11:17:53Z</time>
      </trkpt>
      <trkpt lat="45.86385" lon="4.36739">
        <ele>811.6</ele>
        <time>2022-06-26T11:17:54Z</time>
      </trkpt>
      <trkpt lat="45.86383" lon="4.36737">
        <ele>811.6</ele>
        <time>2022-06-26T11:17:55Z</time>
      </trkpt>
      <trkpt lat="45.86381" lon="4.36734">
        <ele>812</ele>
        <time>2022-06-26T11:17:56Z</time>
      </trkpt>
      <trkpt lat="45.86379" lon="4.36731">
        <ele>812</ele>
        <time>2022-06-26T11:17:57Z</time>
      </trkpt>
      <trkpt lat="45.86377" lon="4.36729">
        <ele>812.2</ele>
        <time>2022-06-26T11:17:58Z</time>
      </trkpt>
      <trkpt lat="45.86375" lon="4.36726">
        <ele>812.2</ele>
        <time>2022-06-26T11:17:59Z</time>
      </trkpt>
      <trkpt lat="45.86373" lon="4.36723">
        <ele>812.6</ele>
        <time>2022-06-26T11:18:00Z</time>
      </trkpt>
      <trkpt lat="45.86371" lon="4.3672">
        <ele>812.6</ele>
        <time>2022-06-26T11:18:01Z</time>
      </trkpt>
      <trkpt lat="45.86369" lon="4.36717">
        <ele>812.8</ele>
        <time>2022-06-26T11:18:02Z</time>
      </trkpt>
      <trkpt lat="45.86367" lon="4.36714">
        <ele>812.8</ele>
        <time>2022-06-26T11:18:03Z</time>
      </trkpt>
      <trkpt lat="45.86366" lon="4.36711">
        <ele>813.2</ele>
        <time>2022-06-26T11:18:04Z</time>
      </trkpt>
      <trkpt lat="45.86364" lon="4.36708">
        <ele>813.2</ele>
        <time>2022-06-26T11:18:05Z</time>
      </trkpt>
      <trkpt lat="45.86362" lon="4.36705">
        <ele>813.4</ele>
        <time>2022-06-26T11:18:06Z</time>
      </trkpt>
      <trkpt lat="45.86361" lon="4.36702">
        <ele>813.4</ele>
        <time>2022-06-26T11:18:07Z</time>
      </trkpt>
      <trkpt lat="45.86359" lon="4.36699">
        <ele>813.8</ele>
        <time>2022-06-26T11:18:08Z</time>
      </trkpt>
      <trkpt lat="45.86357" lon="4.36696">
        <ele>813.8</ele>
        <time>2022-06-26T11:18:09Z</time>
      </trkpt>
      <trkpt lat="45.86355" lon="4.36693">
        <ele>814</ele>
        <time>2022-06-26T11:18:10Z</time>
      </trkpt>
      <trkpt lat="45.86354" lon="4.3669">
        <ele>814</ele>
        <time>2022-06-26T11:18:11Z</time>
      </trkpt>
      <trkpt lat="45.86352" lon="4.36687">
        <ele>814</ele>
        <time>2022-06-26T11:18:12Z</time>
      </trkpt>
      <trkpt lat="45.8635" lon="4.36684">
        <ele>814.4</ele>
        <time>2022-06-26T11:18:13Z</time>
      </trkpt>
      <trkpt lat="45.86349" lon="4.36681">
        <ele>814.4</ele>
        <time>2022-06-26T11:18:14Z</time>
      </trkpt>
      <trkpt lat="45.86347" lon="4.36678">
        <ele>814.6</ele>
        <time>2022-06-26T11:18:15Z</time>
      </trkpt>
      <trkpt lat="45.86346" lon="4.36675">
        <ele>814.6</ele>
        <time>2022-06-26T11:18:16Z</time>
      </trkpt>
      <trkpt lat="45.86344" lon="4.36672">
        <ele>815</ele>
        <time>2022-06-26T11:18:17Z</time>
      </trkpt>
      <trkpt lat="45.86343" lon="4.36669">
        <ele>815</ele>
        <time>2022-06-26T11:18:18Z</time>
      </trkpt>
      <trkpt lat="45.86341" lon="4.36666">
        <ele>815.4</ele>
        <time>2022-06-26T11:18:19Z</time>
      </trkpt>
      <trkpt lat="45.86339" lon="4.36663">
        <ele>815.4</ele>
        <time>2022-06-26T11:18:20Z</time>
      </trkpt>
      <trkpt lat="45.86337" lon="4.36661">
        <ele>815.6</ele>
        <time>2022-06-26T11:18:21Z</time>
      </trkpt>
      <trkpt lat="45.86335" lon="4.36658">
        <ele>815.6</ele>
        <time>2022-06-26T11:18:22Z</time>
      </trkpt>
      <trkpt lat="45.86333" lon="4.36655">
        <ele>816</ele>
        <time>2022-06-26T11:18:23Z</time>
      </trkpt>
      <trkpt lat="45.86331" lon="4.36653">
        <ele>816</ele>
        <time>2022-06-26T11:18:24Z</time>
      </trkpt>
      <trkpt lat="45.86329" lon="4.36651">
        <ele>816.2</ele>
        <time>2022-06-26T11:18:25Z</time>
      </trkpt>
      <trkpt lat="45.86327" lon="4.36648">
        <ele>816.2</ele>
        <time>2022-06-26T11:18:26Z</time>
      </trkpt>
      <trkpt lat="45.86325" lon="4.36646">
        <ele>816.6</ele>
        <time>2022-06-26T11:18:27Z</time>
      </trkpt>
      <trkpt lat="45.86322" lon="4.36644">
        <ele>816.6</ele>
        <time>2022-06-26T11:18:28Z</time>
      </trkpt>
      <trkpt lat="45.8632" lon="4.36642">
        <ele>816.8</ele>
        <time>2022-06-26T11:18:29Z</time>
      </trkpt>
      <trkpt lat="45.86318" lon="4.36641">
        <ele>816.8</ele>
        <time>2022-06-26T11:18:30Z</time>
      </trkpt>
      <trkpt lat="45.86315" lon="4.36639">
        <ele>817.2</ele>
        <time>2022-06-26T11:18:31Z</time>
      </trkpt>
      <trkpt lat="45.86313" lon="4.36637">
        <ele>817.2</ele>
        <time>2022-06-26T11:18:32Z</time>
      </trkpt>
      <trkpt lat="45.8631" lon="4.36636">
        <ele>817.6</ele>
        <time>2022-06-26T11:18:33Z</time>
      </trkpt>
      <trkpt lat="45.86308" lon="4.36634">
        <ele>817.6</ele>
        <time>2022-06-26T11:18:34Z</time>
      </trkpt>
      <trkpt lat="45.86305" lon="4.36633">
        <ele>817.8</ele>
        <time>2022-06-26T11:18:35Z</time>
      </trkpt>
      <trkpt lat="45.86303" lon="4.36631">
        <ele>817.8</ele>
        <time>2022-06-26T11:18:36Z</time>
      </trkpt>
      <trkpt lat="45.863" lon="4.3663">
        <ele>818.2</ele>
        <time>2022-06-26T11:18:37Z</time>
      </trkpt>
      <trkpt lat="45.86298" lon="4.36628">
        <ele>818.2</ele>
        <time>2022-06-26T11:18:38Z</time>
      </trkpt>
      <trkpt lat="45.86295" lon="4.36627">
        <ele>818.4</ele>
        <time>2022-06-26T11:18:39Z</time>
      </trkpt>
      <trkpt lat="45.86292" lon="4.36626">
        <ele>818.6</ele>
        <time>2022-06-26T11:18:40Z</time>
      </trkpt>
      <trkpt lat="45.8629" lon="4.36625">
        <ele>818.6</ele>
        <time>2022-06-26T11:18:41Z</time>
      </trkpt>
      <trkpt lat="45.86287" lon="4.36625">
        <ele>819</ele>
        <time>2022-06-26T11:18:42Z</time>
      </trkpt>
      <trkpt lat="45.86285" lon="4.36624">
        <ele>819</ele>
        <time>2022-06-26T11:18:43Z</time>
      </trkpt>
      <trkpt lat="45.86282" lon="4.36623">
        <ele>819.2</ele>
        <time>2022-06-26T11:18:44Z</time>
      </trkpt>
      <trkpt lat="45.86279" lon="4.36622">
        <ele>819.6</ele>
        <time>2022-06-26T11:18:45Z</time>
      </trkpt>
      <trkpt lat="45.86276" lon="4.36622">
        <ele>819.6</ele>
        <time>2022-06-26T11:18:46Z</time>
      </trkpt>
      <trkpt lat="45.86274" lon="4.36622">
        <ele>819.8</ele>
        <time>2022-06-26T11:18:47Z</time>
      </trkpt>
      <trkpt lat="45.86271" lon="4.36621">
        <ele>819.8</ele>
        <time>2022-06-26T11:18:48Z</time>
      </trkpt>
      <trkpt lat="45.86268" lon="4.36621">
        <ele>820.2</ele>
        <time>2022-06-26T11:18:49Z</time>
      </trkpt>
      <trkpt lat="45.86265" lon="4.36621">
        <ele>820.2</ele>
        <time>2022-06-26T11:18:50Z</time>
      </trkpt>
      <trkpt lat="45.86263" lon="4.36622">
        <ele>820.4</ele>
        <time>2022-06-26T11:18:51Z</time>
      </trkpt>
      <trkpt lat="45.8626" lon="4.36622">
        <ele>820.4</ele>
        <time>2022-06-26T11:18:52Z</time>
      </trkpt>
      <trkpt lat="45.86257" lon="4.36622">
        <ele>820.6</ele>
        <time>2022-06-26T11:18:53Z</time>
      </trkpt>
      <trkpt lat="45.86254" lon="4.36622">
        <ele>820.6</ele>
        <time>2022-06-26T11:18:54Z</time>
      </trkpt>
      <trkpt lat="45.86251" lon="4.36622">
        <ele>821</ele>
        <time>2022-06-26T11:18:55Z</time>
      </trkpt>
      <trkpt lat="45.86248" lon="4.36622">
        <ele>821</ele>
        <time>2022-06-26T11:18:56Z</time>
      </trkpt>
      <trkpt lat="45.86245" lon="4.36622">
        <ele>821.2</ele>
        <time>2022-06-26T11:18:57Z</time>
      </trkpt>
      <trkpt lat="45.86242" lon="4.36623">
        <ele>821.2</ele>
        <time>2022-06-26T11:18:58Z</time>
      </trkpt>
      <trkpt lat="45.86239" lon="4.36623">
        <ele>821.4</ele>
        <time>2022-06-26T11:18:59Z</time>
      </trkpt>
      <trkpt lat="45.86236" lon="4.36623">
        <ele>821.4</ele>
        <time>2022-06-26T11:19:00Z</time>
      </trkpt>
      <trkpt lat="45.86234" lon="4.36624">
        <ele>821.8</ele>
        <time>2022-06-26T11:19:01Z</time>
      </trkpt>
      <trkpt lat="45.86231" lon="4.36624">
        <ele>821.8</ele>
        <time>2022-06-26T11:19:02Z</time>
      </trkpt>
      <trkpt lat="45.86228" lon="4.36624">
        <ele>822</ele>
        <time>2022-06-26T11:19:03Z</time>
      </trkpt>
      <trkpt lat="45.86225" lon="4.36625">
        <ele>822</ele>
        <time>2022-06-26T11:19:04Z</time>
      </trkpt>
      <trkpt lat="45.86223" lon="4.36625">
        <ele>822.4</ele>
        <time>2022-06-26T11:19:05Z</time>
      </trkpt>
      <trkpt lat="45.8622" lon="4.36626">
        <ele>822.4</ele>
        <time>2022-06-26T11:19:06Z</time>
      </trkpt>
      <trkpt lat="45.86217" lon="4.36626">
        <ele>822.6</ele>
        <time>2022-06-26T11:19:07Z</time>
      </trkpt>
      <trkpt lat="45.86214" lon="4.36626">
        <ele>822.6</ele>
        <time>2022-06-26T11:19:08Z</time>
      </trkpt>
      <trkpt lat="45.86212" lon="4.36626">
        <ele>822.8</ele>
        <time>2022-06-26T11:19:09Z</time>
      </trkpt>
      <trkpt lat="45.86209" lon="4.36626">
        <ele>822.8</ele>
        <time>2022-06-26T11:19:10Z</time>
      </trkpt>
      <trkpt lat="45.86206" lon="4.36625">
        <ele>823.2</ele>
        <time>2022-06-26T11:19:11Z</time>
      </trkpt>
      <trkpt lat="45.86204" lon="4.36625">
        <ele>823.4</ele>
        <time>2022-06-26T11:19:12Z</time>
      </trkpt>
      <trkpt lat="45.86201" lon="4.36626">
        <ele>823.4</ele>
        <time>2022-06-26T11:19:13Z</time>
      </trkpt>
      <trkpt lat="45.86198" lon="4.36627">
        <ele>823.8</ele>
        <time>2022-06-26T11:19:14Z</time>
      </trkpt>
      <trkpt lat="45.86195" lon="4.36628">
        <ele>823.8</ele>
        <time>2022-06-26T11:19:15Z</time>
      </trkpt>
      <trkpt lat="45.86193" lon="4.36629">
        <ele>824.2</ele>
        <time>2022-06-26T11:19:16Z</time>
      </trkpt>
      <trkpt lat="45.8619" lon="4.3663">
        <ele>824.2</ele>
        <time>2022-06-26T11:19:17Z</time>
      </trkpt>
      <trkpt lat="45.86187" lon="4.36631">
        <ele>824.4</ele>
        <time>2022-06-26T11:19:18Z</time>
      </trkpt>
      <trkpt lat="45.86185" lon="4.36632">
        <ele>824.4</ele>
        <time>2022-06-26T11:19:19Z</time>
      </trkpt>
      <trkpt lat="45.86182" lon="4.36633">
        <ele>824.8</ele>
        <time>2022-06-26T11:19:20Z</time>
      </trkpt>
      <trkpt lat="45.8618" lon="4.36634">
        <ele>824.8</ele>
        <time>2022-06-26T11:19:21Z</time>
      </trkpt>
      <trkpt lat="45.86177" lon="4.36635">
        <ele>825</ele>
        <time>2022-06-26T11:19:22Z</time>
      </trkpt>
      <trkpt lat="45.86175" lon="4.36637">
        <ele>825</ele>
        <time>2022-06-26T11:19:23Z</time>
      </trkpt>
      <trkpt lat="45.86172" lon="4.36639">
        <ele>825.4</ele>
        <time>2022-06-26T11:19:24Z</time>
      </trkpt>
      <trkpt lat="45.8617" lon="4.3664">
        <ele>825.4</ele>
        <time>2022-06-26T11:19:25Z</time>
      </trkpt>
      <trkpt lat="45.86167" lon="4.36642">
        <ele>825.8</ele>
        <time>2022-06-26T11:19:26Z</time>
      </trkpt>
      <trkpt lat="45.86165" lon="4.36644">
        <ele>825.8</ele>
        <time>2022-06-26T11:19:27Z</time>
      </trkpt>
      <trkpt lat="45.86163" lon="4.36646">
        <ele>825.8</ele>
        <time>2022-06-26T11:19:28Z</time>
      </trkpt>
      <trkpt lat="45.8616" lon="4.36648">
        <ele>826</ele>
        <time>2022-06-26T11:19:29Z</time>
      </trkpt>
      <trkpt lat="45.86158" lon="4.3665">
        <ele>826</ele>
        <time>2022-06-26T11:19:30Z</time>
      </trkpt>
      <trkpt lat="45.86156" lon="4.36653">
        <ele>826.4</ele>
        <time>2022-06-26T11:19:31Z</time>
      </trkpt>
      <trkpt lat="45.86153" lon="4.36655">
        <ele>826.8</ele>
        <time>2022-06-26T11:19:32Z</time>
      </trkpt>
      <trkpt lat="45.86151" lon="4.36657">
        <ele>826.8</ele>
        <time>2022-06-26T11:19:33Z</time>
      </trkpt>
      <trkpt lat="45.86148" lon="4.36659">
        <ele>827</ele>
        <time>2022-06-26T11:19:34Z</time>
      </trkpt>
      <trkpt lat="45.86146" lon="4.36662">
        <ele>827</ele>
        <time>2022-06-26T11:19:35Z</time>
      </trkpt>
      <trkpt lat="45.86143" lon="4.36663">
        <ele>827.4</ele>
        <time>2022-06-26T11:19:36Z</time>
      </trkpt>
      <trkpt lat="45.86141" lon="4.36666">
        <ele>827.4</ele>
        <time>2022-06-26T11:19:37Z</time>
      </trkpt>
      <trkpt lat="45.86138" lon="4.36668">
        <ele>827.6</ele>
        <time>2022-06-26T11:19:38Z</time>
      </trkpt>
      <trkpt lat="45.86136" lon="4.3667">
        <ele>828</ele>
        <time>2022-06-26T11:19:40Z</time>
      </trkpt>
      <trkpt lat="45.86134" lon="4.36672">
        <ele>828.2</ele>
        <time>2022-06-26T11:19:41Z</time>
      </trkpt>
      <trkpt lat="45.86131" lon="4.36674">
        <ele>828.2</ele>
        <time>2022-06-26T11:19:42Z</time>
      </trkpt>
      <trkpt lat="45.86129" lon="4.36676">
        <ele>828.6</ele>
        <time>2022-06-26T11:19:43Z</time>
      </trkpt>
      <trkpt lat="45.86126" lon="4.36678">
        <ele>828.6</ele>
        <time>2022-06-26T11:19:44Z</time>
      </trkpt>
      <trkpt lat="45.86124" lon="4.3668">
        <ele>828.8</ele>
        <time>2022-06-26T11:19:45Z</time>
      </trkpt>
      <trkpt lat="45.86122" lon="4.36682">
        <ele>828.8</ele>
        <time>2022-06-26T11:19:46Z</time>
      </trkpt>
      <trkpt lat="45.86119" lon="4.36684">
        <ele>829.2</ele>
        <time>2022-06-26T11:19:47Z</time>
      </trkpt>
      <trkpt lat="45.86117" lon="4.36686">
        <ele>829.2</ele>
        <time>2022-06-26T11:19:48Z</time>
      </trkpt>
      <trkpt lat="45.86114" lon="4.36688">
        <ele>829.4</ele>
        <time>2022-06-26T11:19:49Z</time>
      </trkpt>
      <trkpt lat="45.86112" lon="4.3669">
        <ele>829.4</ele>
        <time>2022-06-26T11:19:50Z</time>
      </trkpt>
      <trkpt lat="45.86109" lon="4.36692">
        <ele>829.8</ele>
        <time>2022-06-26T11:19:51Z</time>
      </trkpt>
      <trkpt lat="45.86107" lon="4.36694">
        <ele>829.8</ele>
        <time>2022-06-26T11:19:52Z</time>
      </trkpt>
      <trkpt lat="45.86104" lon="4.36696">
        <ele>830</ele>
        <time>2022-06-26T11:19:53Z</time>
      </trkpt>
      <trkpt lat="45.86102" lon="4.36698">
        <ele>830</ele>
        <time>2022-06-26T11:19:54Z</time>
      </trkpt>
      <trkpt lat="45.861" lon="4.36699">
        <ele>830.4</ele>
        <time>2022-06-26T11:19:55Z</time>
      </trkpt>
      <trkpt lat="45.86097" lon="4.367">
        <ele>830.4</ele>
        <time>2022-06-26T11:19:56Z</time>
      </trkpt>
      <trkpt lat="45.86094" lon="4.36702">
        <ele>830.4</ele>
        <time>2022-06-26T11:19:57Z</time>
      </trkpt>
      <trkpt lat="45.86092" lon="4.36703">
        <ele>830.6</ele>
        <time>2022-06-26T11:19:58Z</time>
      </trkpt>
      <trkpt lat="45.86089" lon="4.36703">
        <ele>830.6</ele>
        <time>2022-06-26T11:19:59Z</time>
      </trkpt>
      <trkpt lat="45.86087" lon="4.36704">
        <ele>831</ele>
        <time>2022-06-26T11:20:00Z</time>
      </trkpt>
      <trkpt lat="45.86084" lon="4.36705">
        <ele>831</ele>
        <time>2022-06-26T11:20:01Z</time>
      </trkpt>
      <trkpt lat="45.86081" lon="4.36705">
        <ele>831.2</ele>
        <time>2022-06-26T11:20:02Z</time>
      </trkpt>
      <trkpt lat="45.86078" lon="4.36706">
        <ele>831.2</ele>
        <time>2022-06-26T11:20:03Z</time>
      </trkpt>
      <trkpt lat="45.86075" lon="4.36706">
        <ele>831.2</ele>
        <time>2022-06-26T11:20:04Z</time>
      </trkpt>
      <trkpt lat="45.86072" lon="4.36706">
        <ele>831.6</ele>
        <time>2022-06-26T11:20:05Z</time>
      </trkpt>
      <trkpt lat="45.86069" lon="4.36706">
        <ele>831.6</ele>
        <time>2022-06-26T11:20:06Z</time>
      </trkpt>
      <trkpt lat="45.86066" lon="4.36706">
        <ele>832</ele>
        <time>2022-06-26T11:20:07Z</time>
      </trkpt>
      <trkpt lat="45.86063" lon="4.36706">
        <ele>832</ele>
        <time>2022-06-26T11:20:08Z</time>
      </trkpt>
      <trkpt lat="45.86061" lon="4.36706">
        <ele>832.2</ele>
        <time>2022-06-26T11:20:09Z</time>
      </trkpt>
      <trkpt lat="45.86058" lon="4.36705">
        <ele>832.2</ele>
        <time>2022-06-26T11:20:10Z</time>
      </trkpt>
      <trkpt lat="45.86055" lon="4.36705">
        <ele>832.6</ele>
        <time>2022-06-26T11:20:11Z</time>
      </trkpt>
      <trkpt lat="45.86053" lon="4.36704">
        <ele>832.6</ele>
        <time>2022-06-26T11:20:12Z</time>
      </trkpt>
      <trkpt lat="45.8605" lon="4.36703">
        <ele>832.8</ele>
        <time>2022-06-26T11:20:13Z</time>
      </trkpt>
      <trkpt lat="45.86048" lon="4.36702">
        <ele>833.2</ele>
        <time>2022-06-26T11:20:14Z</time>
      </trkpt>
      <trkpt lat="45.86045" lon="4.367">
        <ele>833.2</ele>
        <time>2022-06-26T11:20:15Z</time>
      </trkpt>
      <trkpt lat="45.86043" lon="4.36699">
        <ele>833.4</ele>
        <time>2022-06-26T11:20:16Z</time>
      </trkpt>
      <trkpt lat="45.8604" lon="4.36697">
        <ele>833.4</ele>
        <time>2022-06-26T11:20:17Z</time>
      </trkpt>
      <trkpt lat="45.86038" lon="4.36695">
        <ele>833.8</ele>
        <time>2022-06-26T11:20:18Z</time>
      </trkpt>
      <trkpt lat="45.86035" lon="4.36693">
        <ele>833.8</ele>
        <time>2022-06-26T11:20:19Z</time>
      </trkpt>
      <trkpt lat="45.86033" lon="4.36691">
        <ele>834</ele>
        <time>2022-06-26T11:20:20Z</time>
      </trkpt>
      <trkpt lat="45.8603" lon="4.36688">
        <ele>834</ele>
        <time>2022-06-26T11:20:21Z</time>
      </trkpt>
      <trkpt lat="45.86028" lon="4.36686">
        <ele>834.4</ele>
        <time>2022-06-26T11:20:22Z</time>
      </trkpt>
      <trkpt lat="45.86026" lon="4.36683">
        <ele>834.4</ele>
        <time>2022-06-26T11:20:23Z</time>
      </trkpt>
      <trkpt lat="45.86024" lon="4.36681">
        <ele>834.8</ele>
        <time>2022-06-26T11:20:24Z</time>
      </trkpt>
      <trkpt lat="45.86021" lon="4.36678">
        <ele>834.8</ele>
        <time>2022-06-26T11:20:25Z</time>
      </trkpt>
      <trkpt lat="45.86019" lon="4.36675">
        <ele>835</ele>
        <time>2022-06-26T11:20:26Z</time>
      </trkpt>
      <trkpt lat="45.86017" lon="4.36672">
        <ele>835</ele>
        <time>2022-06-26T11:20:27Z</time>
      </trkpt>
      <trkpt lat="45.86015" lon="4.36669">
        <ele>835.4</ele>
        <time>2022-06-26T11:20:28Z</time>
      </trkpt>
      <trkpt lat="45.86014" lon="4.36666">
        <ele>835.4</ele>
        <time>2022-06-26T11:20:29Z</time>
      </trkpt>
      <trkpt lat="45.86012" lon="4.36663">
        <ele>835.8</ele>
        <time>2022-06-26T11:20:30Z</time>
      </trkpt>
      <trkpt lat="45.8601" lon="4.36659">
        <ele>835.8</ele>
        <time>2022-06-26T11:20:31Z</time>
      </trkpt>
      <trkpt lat="45.86008" lon="4.36656">
        <ele>836.4</ele>
        <time>2022-06-26T11:20:32Z</time>
      </trkpt>
      <trkpt lat="45.86007" lon="4.36652">
        <ele>836.6</ele>
        <time>2022-06-26T11:20:33Z</time>
      </trkpt>
      <trkpt lat="45.86005" lon="4.36649">
        <ele>836.6</ele>
        <time>2022-06-26T11:20:34Z</time>
      </trkpt>
      <trkpt lat="45.86004" lon="4.36645">
        <ele>837</ele>
        <time>2022-06-26T11:20:35Z</time>
      </trkpt>
      <trkpt lat="45.86003" lon="4.36641">
        <ele>837.2</ele>
        <time>2022-06-26T11:20:36Z</time>
      </trkpt>
      <trkpt lat="45.86002" lon="4.36638">
        <ele>837.2</ele>
        <time>2022-06-26T11:20:37Z</time>
      </trkpt>
      <trkpt lat="45.86001" lon="4.36634">
        <ele>837.4</ele>
        <time>2022-06-26T11:20:38Z</time>
      </trkpt>
      <trkpt lat="45.85999" lon="4.3663">
        <ele>837.6</ele>
        <time>2022-06-26T11:20:39Z</time>
      </trkpt>
      <trkpt lat="45.85998" lon="4.36626">
        <ele>837.6</ele>
        <time>2022-06-26T11:20:40Z</time>
      </trkpt>
      <trkpt lat="45.85997" lon="4.36623">
        <ele>838</ele>
        <time>2022-06-26T11:20:41Z</time>
      </trkpt>
      <trkpt lat="45.85996" lon="4.36619">
        <ele>838</ele>
        <time>2022-06-26T11:20:42Z</time>
      </trkpt>
      <trkpt lat="45.85994" lon="4.36616">
        <ele>838.4</ele>
        <time>2022-06-26T11:20:43Z</time>
      </trkpt>
      <trkpt lat="45.85993" lon="4.36613">
        <ele>838.4</ele>
        <time>2022-06-26T11:20:44Z</time>
      </trkpt>
      <trkpt lat="45.85992" lon="4.3661">
        <ele>838.4</ele>
        <time>2022-06-26T11:20:45Z</time>
      </trkpt>
      <trkpt lat="45.8599" lon="4.36606">
        <ele>838.6</ele>
        <time>2022-06-26T11:20:46Z</time>
      </trkpt>
      <trkpt lat="45.85989" lon="4.36603">
        <ele>838.6</ele>
        <time>2022-06-26T11:20:47Z</time>
      </trkpt>
      <trkpt lat="45.85988" lon="4.366">
        <ele>838.8</ele>
        <time>2022-06-26T11:20:48Z</time>
      </trkpt>
      <trkpt lat="45.85987" lon="4.36597">
        <ele>839</ele>
        <time>2022-06-26T11:20:49Z</time>
      </trkpt>
      <trkpt lat="45.85986" lon="4.36593">
        <ele>839</ele>
        <time>2022-06-26T11:20:50Z</time>
      </trkpt>
      <trkpt lat="45.85985" lon="4.3659">
        <ele>839.4</ele>
        <time>2022-06-26T11:20:51Z</time>
      </trkpt>
      <trkpt lat="45.85983" lon="4.36586">
        <ele>839.6</ele>
        <time>2022-06-26T11:20:52Z</time>
      </trkpt>
      <trkpt lat="45.85982" lon="4.36583">
        <ele>839.8</ele>
        <time>2022-06-26T11:20:53Z</time>
      </trkpt>
      <trkpt lat="45.85981" lon="4.36579">
        <ele>839.8</ele>
        <time>2022-06-26T11:20:54Z</time>
      </trkpt>
      <trkpt lat="45.8598" lon="4.36576">
        <ele>840.2</ele>
        <time>2022-06-26T11:20:55Z</time>
      </trkpt>
      <trkpt lat="45.85978" lon="4.36573">
        <ele>840.2</ele>
        <time>2022-06-26T11:20:56Z</time>
      </trkpt>
      <trkpt lat="45.85977" lon="4.36569">
        <ele>840.6</ele>
        <time>2022-06-26T11:20:57Z</time>
      </trkpt>
      <trkpt lat="45.85976" lon="4.36566">
        <ele>840.6</ele>
        <time>2022-06-26T11:20:58Z</time>
      </trkpt>
      <trkpt lat="45.85975" lon="4.36563">
        <ele>840.8</ele>
        <time>2022-06-26T11:20:59Z</time>
      </trkpt>
      <trkpt lat="45.85973" lon="4.3656">
        <ele>840.8</ele>
        <time>2022-06-26T11:21:00Z</time>
      </trkpt>
      <trkpt lat="45.85972" lon="4.36557">
        <ele>841.2</ele>
        <time>2022-06-26T11:21:01Z</time>
      </trkpt>
      <trkpt lat="45.85971" lon="4.36554">
        <ele>841.2</ele>
        <time>2022-06-26T11:21:02Z</time>
      </trkpt>
      <trkpt lat="45.8597" lon="4.36551">
        <ele>841.4</ele>
        <time>2022-06-26T11:21:03Z</time>
      </trkpt>
      <trkpt lat="45.85969" lon="4.36547">
        <ele>841.6</ele>
        <time>2022-06-26T11:21:04Z</time>
      </trkpt>
      <trkpt lat="45.85967" lon="4.36544">
        <ele>841.6</ele>
        <time>2022-06-26T11:21:05Z</time>
      </trkpt>
      <trkpt lat="45.85966" lon="4.36541">
        <ele>841.8</ele>
        <time>2022-06-26T11:21:06Z</time>
      </trkpt>
      <trkpt lat="45.85965" lon="4.36538">
        <ele>841.8</ele>
        <time>2022-06-26T11:21:07Z</time>
      </trkpt>
      <trkpt lat="45.85963" lon="4.36535">
        <ele>842.2</ele>
        <time>2022-06-26T11:21:08Z</time>
      </trkpt>
      <trkpt lat="45.85962" lon="4.36532">
        <ele>842.2</ele>
        <time>2022-06-26T11:21:09Z</time>
      </trkpt>
      <trkpt lat="45.85961" lon="4.36529">
        <ele>842.6</ele>
        <time>2022-06-26T11:21:10Z</time>
      </trkpt>
      <trkpt lat="45.85959" lon="4.36527">
        <ele>842.6</ele>
        <time>2022-06-26T11:21:11Z</time>
      </trkpt>
      <trkpt lat="45.85958" lon="4.36524">
        <ele>842.8</ele>
        <time>2022-06-26T11:21:12Z</time>
      </trkpt>
      <trkpt lat="45.85956" lon="4.36521">
        <ele>842.8</ele>
        <time>2022-06-26T11:21:13Z</time>
      </trkpt>
      <trkpt lat="45.85955" lon="4.36518">
        <ele>843.2</ele>
        <time>2022-06-26T11:21:14Z</time>
      </trkpt>
      <trkpt lat="45.85953" lon="4.36516">
        <ele>843.2</ele>
        <time>2022-06-26T11:21:15Z</time>
      </trkpt>
      <trkpt lat="45.85952" lon="4.36513">
        <ele>843.4</ele>
        <time>2022-06-26T11:21:16Z</time>
      </trkpt>
      <trkpt lat="45.85951" lon="4.3651">
        <ele>843.4</ele>
        <time>2022-06-26T11:21:17Z</time>
      </trkpt>
      <trkpt lat="45.85949" lon="4.36507">
        <ele>843.6</ele>
        <time>2022-06-26T11:21:18Z</time>
      </trkpt>
      <trkpt lat="45.85948" lon="4.36504">
        <ele>843.6</ele>
        <time>2022-06-26T11:21:19Z</time>
      </trkpt>
      <trkpt lat="45.85946" lon="4.36501">
        <ele>843.8</ele>
        <time>2022-06-26T11:21:20Z</time>
      </trkpt>
      <trkpt lat="45.85945" lon="4.36498">
        <ele>843.8</ele>
        <time>2022-06-26T11:21:21Z</time>
      </trkpt>
      <trkpt lat="45.85943" lon="4.36496">
        <ele>844</ele>
        <time>2022-06-26T11:21:22Z</time>
      </trkpt>
      <trkpt lat="45.85941" lon="4.36493">
        <ele>844</ele>
        <time>2022-06-26T11:21:23Z</time>
      </trkpt>
      <trkpt lat="45.8594" lon="4.36491">
        <ele>844.4</ele>
        <time>2022-06-26T11:21:24Z</time>
      </trkpt>
      <trkpt lat="45.85938" lon="4.36488">
        <ele>844.4</ele>
        <time>2022-06-26T11:21:25Z</time>
      </trkpt>
      <trkpt lat="45.85936" lon="4.36485">
        <ele>844.6</ele>
        <time>2022-06-26T11:21:26Z</time>
      </trkpt>
      <trkpt lat="45.85935" lon="4.36482">
        <ele>844.6</ele>
        <time>2022-06-26T11:21:27Z</time>
      </trkpt>
      <trkpt lat="45.85933" lon="4.36479">
        <ele>844.8</ele>
        <time>2022-06-26T11:21:28Z</time>
      </trkpt>
      <trkpt lat="45.85931" lon="4.36477">
        <ele>844.8</ele>
        <time>2022-06-26T11:21:29Z</time>
      </trkpt>
      <trkpt lat="45.85929" lon="4.36474">
        <ele>845.2</ele>
        <time>2022-06-26T11:21:30Z</time>
      </trkpt>
      <trkpt lat="45.85927" lon="4.36472">
        <ele>845.2</ele>
        <time>2022-06-26T11:21:31Z</time>
      </trkpt>
      <trkpt lat="45.85926" lon="4.36469">
        <ele>845.4</ele>
        <time>2022-06-26T11:21:32Z</time>
      </trkpt>
      <trkpt lat="45.85924" lon="4.36466">
        <ele>845.4</ele>
        <time>2022-06-26T11:21:33Z</time>
      </trkpt>
      <trkpt lat="45.85922" lon="4.36463">
        <ele>845.8</ele>
        <time>2022-06-26T11:21:34Z</time>
      </trkpt>
      <trkpt lat="45.85921" lon="4.36461">
        <ele>845.8</ele>
        <time>2022-06-26T11:21:35Z</time>
      </trkpt>
      <trkpt lat="45.85919" lon="4.36458">
        <ele>846</ele>
        <time>2022-06-26T11:21:36Z</time>
      </trkpt>
      <trkpt lat="45.85918" lon="4.36455">
        <ele>846</ele>
        <time>2022-06-26T11:21:37Z</time>
      </trkpt>
      <trkpt lat="45.85916" lon="4.36452">
        <ele>846.4</ele>
        <time>2022-06-26T11:21:38Z</time>
      </trkpt>
      <trkpt lat="45.85915" lon="4.3645">
        <ele>846.4</ele>
        <time>2022-06-26T11:21:39Z</time>
      </trkpt>
      <trkpt lat="45.85913" lon="4.36447">
        <ele>846.8</ele>
        <time>2022-06-26T11:21:40Z</time>
      </trkpt>
      <trkpt lat="45.85911" lon="4.36445">
        <ele>846.8</ele>
        <time>2022-06-26T11:21:41Z</time>
      </trkpt>
      <trkpt lat="45.8591" lon="4.36442">
        <ele>847</ele>
        <time>2022-06-26T11:21:42Z</time>
      </trkpt>
      <trkpt lat="45.85908" lon="4.3644">
        <ele>847</ele>
        <time>2022-06-26T11:21:43Z</time>
      </trkpt>
      <trkpt lat="45.85906" lon="4.36438">
        <ele>847.4</ele>
        <time>2022-06-26T11:21:44Z</time>
      </trkpt>
      <trkpt lat="45.85904" lon="4.36435">
        <ele>847.4</ele>
        <time>2022-06-26T11:21:45Z</time>
      </trkpt>
      <trkpt lat="45.85903" lon="4.36432">
        <ele>847.6</ele>
        <time>2022-06-26T11:21:46Z</time>
      </trkpt>
      <trkpt lat="45.85901" lon="4.3643">
        <ele>847.6</ele>
        <time>2022-06-26T11:21:47Z</time>
      </trkpt>
      <trkpt lat="45.85899" lon="4.36427">
        <ele>848</ele>
        <time>2022-06-26T11:21:48Z</time>
      </trkpt>
      <trkpt lat="45.85897" lon="4.36425">
        <ele>848.2</ele>
        <time>2022-06-26T11:21:49Z</time>
      </trkpt>
      <trkpt lat="45.85895" lon="4.36422">
        <ele>848.2</ele>
        <time>2022-06-26T11:21:50Z</time>
      </trkpt>
      <trkpt lat="45.85893" lon="4.3642">
        <ele>848.4</ele>
        <time>2022-06-26T11:21:51Z</time>
      </trkpt>
      <trkpt lat="45.85891" lon="4.36417">
        <ele>848.4</ele>
        <time>2022-06-26T11:21:52Z</time>
      </trkpt>
      <trkpt lat="45.85889" lon="4.36415">
        <ele>848.6</ele>
        <time>2022-06-26T11:21:53Z</time>
      </trkpt>
      <trkpt lat="45.85887" lon="4.36412">
        <ele>848.6</ele>
        <time>2022-06-26T11:21:54Z</time>
      </trkpt>
      <trkpt lat="45.85885" lon="4.3641">
        <ele>849</ele>
        <time>2022-06-26T11:21:55Z</time>
      </trkpt>
      <trkpt lat="45.85883" lon="4.36407">
        <ele>849</ele>
        <time>2022-06-26T11:21:56Z</time>
      </trkpt>
      <trkpt lat="45.85881" lon="4.36405">
        <ele>849.2</ele>
        <time>2022-06-26T11:21:57Z</time>
      </trkpt>
      <trkpt lat="45.85879" lon="4.36403">
        <ele>849.2</ele>
        <time>2022-06-26T11:21:58Z</time>
      </trkpt>
      <trkpt lat="45.85876" lon="4.36401">
        <ele>849.6</ele>
        <time>2022-06-26T11:21:59Z</time>
      </trkpt>
      <trkpt lat="45.85874" lon="4.36399">
        <ele>849.6</ele>
        <time>2022-06-26T11:22:00Z</time>
      </trkpt>
      <trkpt lat="45.85872" lon="4.36397">
        <ele>849.8</ele>
        <time>2022-06-26T11:22:01Z</time>
      </trkpt>
      <trkpt lat="45.8587" lon="4.36395">
        <ele>849.8</ele>
        <time>2022-06-26T11:22:02Z</time>
      </trkpt>
      <trkpt lat="45.85867" lon="4.36393">
        <ele>850.2</ele>
        <time>2022-06-26T11:22:03Z</time>
      </trkpt>
      <trkpt lat="45.85865" lon="4.36391">
        <ele>850.2</ele>
        <time>2022-06-26T11:22:04Z</time>
      </trkpt>
      <trkpt lat="45.85863" lon="4.3639">
        <ele>850.4</ele>
        <time>2022-06-26T11:22:05Z</time>
      </trkpt>
      <trkpt lat="45.85861" lon="4.36388">
        <ele>850.4</ele>
        <time>2022-06-26T11:22:06Z</time>
      </trkpt>
      <trkpt lat="45.85859" lon="4.36386">
        <ele>850.6</ele>
        <time>2022-06-26T11:22:07Z</time>
      </trkpt>
      <trkpt lat="45.85856" lon="4.36385">
        <ele>850.6</ele>
        <time>2022-06-26T11:22:08Z</time>
      </trkpt>
      <trkpt lat="45.85854" lon="4.36383">
        <ele>851</ele>
        <time>2022-06-26T11:22:09Z</time>
      </trkpt>
      <trkpt lat="45.85852" lon="4.36382">
        <ele>851</ele>
        <time>2022-06-26T11:22:10Z</time>
      </trkpt>
      <trkpt lat="45.85849" lon="4.3638">
        <ele>851.2</ele>
        <time>2022-06-26T11:22:11Z</time>
      </trkpt>
      <trkpt lat="45.85847" lon="4.36379">
        <ele>851.4</ele>
        <time>2022-06-26T11:22:12Z</time>
      </trkpt>
      <trkpt lat="45.85845" lon="4.36377">
        <ele>851.4</ele>
        <time>2022-06-26T11:22:13Z</time>
      </trkpt>
      <trkpt lat="45.85842" lon="4.36376">
        <ele>851.8</ele>
        <time>2022-06-26T11:22:14Z</time>
      </trkpt>
      <trkpt lat="45.85839" lon="4.36375">
        <ele>851.8</ele>
        <time>2022-06-26T11:22:15Z</time>
      </trkpt>
      <trkpt lat="45.85835" lon="4.36373">
        <ele>852.2</ele>
        <time>2022-06-26T11:22:16Z</time>
      </trkpt>
      <trkpt lat="45.85832" lon="4.36372">
        <ele>852.2</ele>
        <time>2022-06-26T11:22:17Z</time>
      </trkpt>
      <trkpt lat="45.8583" lon="4.36371">
        <ele>852.4</ele>
        <time>2022-06-26T11:22:18Z</time>
      </trkpt>
      <trkpt lat="45.85827" lon="4.3637">
        <ele>852.4</ele>
        <time>2022-06-26T11:22:19Z</time>
      </trkpt>
      <trkpt lat="45.85825" lon="4.36369">
        <ele>852.6</ele>
        <time>2022-06-26T11:22:20Z</time>
      </trkpt>
      <trkpt lat="45.85822" lon="4.36368">
        <ele>852.6</ele>
        <time>2022-06-26T11:22:21Z</time>
      </trkpt>
      <trkpt lat="45.8582" lon="4.36367">
        <ele>852.8</ele>
        <time>2022-06-26T11:22:22Z</time>
      </trkpt>
      <trkpt lat="45.85818" lon="4.36367">
        <ele>852.8</ele>
        <time>2022-06-26T11:22:23Z</time>
      </trkpt>
      <trkpt lat="45.85815" lon="4.36366">
        <ele>853</ele>
        <time>2022-06-26T11:22:24Z</time>
      </trkpt>
      <trkpt lat="45.85813" lon="4.36366">
        <ele>853</ele>
        <time>2022-06-26T11:22:25Z</time>
      </trkpt>
      <trkpt lat="45.8581" lon="4.36365">
        <ele>853.4</ele>
        <time>2022-06-26T11:22:26Z</time>
      </trkpt>
      <trkpt lat="45.85808" lon="4.36365">
        <ele>853.4</ele>
        <time>2022-06-26T11:22:27Z</time>
      </trkpt>
      <trkpt lat="45.85805" lon="4.36365">
        <ele>853.4</ele>
        <time>2022-06-26T11:22:28Z</time>
      </trkpt>
      <trkpt lat="45.85803" lon="4.36364">
        <ele>853.8</ele>
        <time>2022-06-26T11:22:29Z</time>
      </trkpt>
      <trkpt lat="45.858" lon="4.36364">
        <ele>853.8</ele>
        <time>2022-06-26T11:22:30Z</time>
      </trkpt>
      <trkpt lat="45.85798" lon="4.36363">
        <ele>854</ele>
        <time>2022-06-26T11:22:31Z</time>
      </trkpt>
      <trkpt lat="45.85795" lon="4.36363">
        <ele>854</ele>
        <time>2022-06-26T11:22:32Z</time>
      </trkpt>
      <trkpt lat="45.85792" lon="4.36363">
        <ele>854.2</ele>
        <time>2022-06-26T11:22:33Z</time>
      </trkpt>
      <trkpt lat="45.8579" lon="4.36363">
        <ele>854.2</ele>
        <time>2022-06-26T11:22:34Z</time>
      </trkpt>
      <trkpt lat="45.85787" lon="4.36363">
        <ele>854.6</ele>
        <time>2022-06-26T11:22:35Z</time>
      </trkpt>
      <trkpt lat="45.85784" lon="4.36363">
        <ele>854.6</ele>
        <time>2022-06-26T11:22:36Z</time>
      </trkpt>
      <trkpt lat="45.85782" lon="4.36363">
        <ele>855</ele>
        <time>2022-06-26T11:22:37Z</time>
      </trkpt>
      <trkpt lat="45.85779" lon="4.36363">
        <ele>855</ele>
        <time>2022-06-26T11:22:38Z</time>
      </trkpt>
      <trkpt lat="45.85776" lon="4.36363">
        <ele>855.2</ele>
        <time>2022-06-26T11:22:39Z</time>
      </trkpt>
      <trkpt lat="45.85774" lon="4.36362">
        <ele>855.2</ele>
        <time>2022-06-26T11:22:40Z</time>
      </trkpt>
      <trkpt lat="45.85771" lon="4.36362">
        <ele>855.6</ele>
        <time>2022-06-26T11:22:41Z</time>
      </trkpt>
      <trkpt lat="45.85769" lon="4.36362">
        <ele>855.6</ele>
        <time>2022-06-26T11:22:42Z</time>
      </trkpt>
      <trkpt lat="45.85767" lon="4.36362">
        <ele>855.8</ele>
        <time>2022-06-26T11:22:43Z</time>
      </trkpt>
      <trkpt lat="45.85765" lon="4.36362">
        <ele>855.8</ele>
        <time>2022-06-26T11:22:44Z</time>
      </trkpt>
      <trkpt lat="45.85763" lon="4.36362">
        <ele>855.8</ele>
        <time>2022-06-26T11:22:45Z</time>
      </trkpt>
      <trkpt lat="45.8576" lon="4.36363">
        <ele>856.2</ele>
        <time>2022-06-26T11:22:46Z</time>
      </trkpt>
      <trkpt lat="45.85758" lon="4.36363">
        <ele>856.2</ele>
        <time>2022-06-26T11:22:47Z</time>
      </trkpt>
      <trkpt lat="45.85756" lon="4.36364">
        <ele>856.2</ele>
        <time>2022-06-26T11:22:48Z</time>
      </trkpt>
      <trkpt lat="45.85753" lon="4.36364">
        <ele>856.6</ele>
        <time>2022-06-26T11:22:49Z</time>
      </trkpt>
      <trkpt lat="45.85751" lon="4.36364">
        <ele>856.6</ele>
        <time>2022-06-26T11:22:50Z</time>
      </trkpt>
      <trkpt lat="45.85748" lon="4.36364">
        <ele>856.8</ele>
        <time>2022-06-26T11:22:51Z</time>
      </trkpt>
      <trkpt lat="45.85746" lon="4.36363">
        <ele>856.8</ele>
        <time>2022-06-26T11:22:52Z</time>
      </trkpt>
      <trkpt lat="45.85743" lon="4.36363">
        <ele>857.2</ele>
        <time>2022-06-26T11:22:53Z</time>
      </trkpt>
      <trkpt lat="45.85741" lon="4.36364">
        <ele>857.2</ele>
        <time>2022-06-26T11:22:54Z</time>
      </trkpt>
      <trkpt lat="45.85738" lon="4.36364">
        <ele>857.6</ele>
        <time>2022-06-26T11:22:55Z</time>
      </trkpt>
      <trkpt lat="45.85736" lon="4.36364">
        <ele>857.6</ele>
        <time>2022-06-26T11:22:56Z</time>
      </trkpt>
      <trkpt lat="45.85733" lon="4.36364">
        <ele>857.8</ele>
        <time>2022-06-26T11:22:57Z</time>
      </trkpt>
      <trkpt lat="45.85731" lon="4.36364">
        <ele>858</ele>
        <time>2022-06-26T11:22:58Z</time>
      </trkpt>
      <trkpt lat="45.85729" lon="4.36364">
        <ele>858</ele>
        <time>2022-06-26T11:22:59Z</time>
      </trkpt>
      <trkpt lat="45.85726" lon="4.36364">
        <ele>858.4</ele>
        <time>2022-06-26T11:23:00Z</time>
      </trkpt>
      <trkpt lat="45.85724" lon="4.36365">
        <ele>858.4</ele>
        <time>2022-06-26T11:23:01Z</time>
      </trkpt>
      <trkpt lat="45.85721" lon="4.36366">
        <ele>858.4</ele>
        <time>2022-06-26T11:23:02Z</time>
      </trkpt>
      <trkpt lat="45.85719" lon="4.36366">
        <ele>858.6</ele>
        <time>2022-06-26T11:23:03Z</time>
      </trkpt>
      <trkpt lat="45.85716" lon="4.36367">
        <ele>858.6</ele>
        <time>2022-06-26T11:23:04Z</time>
      </trkpt>
      <trkpt lat="45.85714" lon="4.36367">
        <ele>859</ele>
        <time>2022-06-26T11:23:05Z</time>
      </trkpt>
      <trkpt lat="45.85712" lon="4.36368">
        <ele>859</ele>
        <time>2022-06-26T11:23:06Z</time>
      </trkpt>
      <trkpt lat="45.85709" lon="4.36369">
        <ele>859.4</ele>
        <time>2022-06-26T11:23:07Z</time>
      </trkpt>
      <trkpt lat="45.85707" lon="4.3637">
        <ele>859.4</ele>
        <time>2022-06-26T11:23:08Z</time>
      </trkpt>
      <trkpt lat="45.85705" lon="4.36371">
        <ele>859.6</ele>
        <time>2022-06-26T11:23:09Z</time>
      </trkpt>
      <trkpt lat="45.85702" lon="4.36372">
        <ele>859.6</ele>
        <time>2022-06-26T11:23:10Z</time>
      </trkpt>
      <trkpt lat="45.857" lon="4.36373">
        <ele>859.8</ele>
        <time>2022-06-26T11:23:11Z</time>
      </trkpt>
      <trkpt lat="45.85698" lon="4.36374">
        <ele>859.8</ele>
        <time>2022-06-26T11:23:12Z</time>
      </trkpt>
      <trkpt lat="45.85695" lon="4.36375">
        <ele>860.2</ele>
        <time>2022-06-26T11:23:13Z</time>
      </trkpt>
      <trkpt lat="45.85693" lon="4.36376">
        <ele>860.2</ele>
        <time>2022-06-26T11:23:14Z</time>
      </trkpt>
      <trkpt lat="45.85691" lon="4.36377">
        <ele>860.4</ele>
        <time>2022-06-26T11:23:15Z</time>
      </trkpt>
      <trkpt lat="45.85688" lon="4.36378">
        <ele>860.4</ele>
        <time>2022-06-26T11:23:16Z</time>
      </trkpt>
      <trkpt lat="45.85686" lon="4.3638">
        <ele>860.4</ele>
        <time>2022-06-26T11:23:17Z</time>
      </trkpt>
      <trkpt lat="45.85684" lon="4.36381">
        <ele>860.6</ele>
        <time>2022-06-26T11:23:18Z</time>
      </trkpt>
      <trkpt lat="45.85681" lon="4.36382">
        <ele>860.6</ele>
        <time>2022-06-26T11:23:19Z</time>
      </trkpt>
      <trkpt lat="45.85679" lon="4.36383">
        <ele>860.8</ele>
        <time>2022-06-26T11:23:20Z</time>
      </trkpt>
      <trkpt lat="45.85676" lon="4.36384">
        <ele>860.8</ele>
        <time>2022-06-26T11:23:21Z</time>
      </trkpt>
      <trkpt lat="45.85674" lon="4.36385">
        <ele>861.2</ele>
        <time>2022-06-26T11:23:22Z</time>
      </trkpt>
      <trkpt lat="45.85671" lon="4.36386">
        <ele>861.2</ele>
        <time>2022-06-26T11:23:23Z</time>
      </trkpt>
      <trkpt lat="45.85669" lon="4.36388">
        <ele>861.4</ele>
        <time>2022-06-26T11:23:24Z</time>
      </trkpt>
      <trkpt lat="45.85667" lon="4.36389">
        <ele>861.4</ele>
        <time>2022-06-26T11:23:25Z</time>
      </trkpt>
      <trkpt lat="45.85665" lon="4.3639">
        <ele>861.6</ele>
        <time>2022-06-26T11:23:26Z</time>
      </trkpt>
      <trkpt lat="45.85662" lon="4.36391">
        <ele>861.6</ele>
        <time>2022-06-26T11:23:27Z</time>
      </trkpt>
      <trkpt lat="45.8566" lon="4.36391">
        <ele>862</ele>
        <time>2022-06-26T11:23:28Z</time>
      </trkpt>
      <trkpt lat="45.85657" lon="4.36392">
        <ele>862</ele>
        <time>2022-06-26T11:23:29Z</time>
      </trkpt>
      <trkpt lat="45.85655" lon="4.36392">
        <ele>862.2</ele>
        <time>2022-06-26T11:23:30Z</time>
      </trkpt>
      <trkpt lat="45.85652" lon="4.36393">
        <ele>862.2</ele>
        <time>2022-06-26T11:23:31Z</time>
      </trkpt>
      <trkpt lat="45.8565" lon="4.36394">
        <ele>862.4</ele>
        <time>2022-06-26T11:23:32Z</time>
      </trkpt>
      <trkpt lat="45.85647" lon="4.36394">
        <ele>862.4</ele>
        <time>2022-06-26T11:23:33Z</time>
      </trkpt>
      <trkpt lat="45.85644" lon="4.36395">
        <ele>862.8</ele>
        <time>2022-06-26T11:23:34Z</time>
      </trkpt>
      <trkpt lat="45.85642" lon="4.36396">
        <ele>862.8</ele>
        <time>2022-06-26T11:23:35Z</time>
      </trkpt>
      <trkpt lat="45.85639" lon="4.36396">
        <ele>863</ele>
        <time>2022-06-26T11:23:36Z</time>
      </trkpt>
      <trkpt lat="45.85636" lon="4.36397">
        <ele>863</ele>
        <time>2022-06-26T11:23:37Z</time>
      </trkpt>
      <trkpt lat="45.85634" lon="4.36397">
        <ele>863.4</ele>
        <time>2022-06-26T11:23:38Z</time>
      </trkpt>
      <trkpt lat="45.85631" lon="4.36397">
        <ele>863.4</ele>
        <time>2022-06-26T11:23:39Z</time>
      </trkpt>
      <trkpt lat="45.85628" lon="4.36398">
        <ele>863.4</ele>
        <time>2022-06-26T11:23:40Z</time>
      </trkpt>
      <trkpt lat="45.85626" lon="4.36398">
        <ele>863.8</ele>
        <time>2022-06-26T11:23:41Z</time>
      </trkpt>
      <trkpt lat="45.85623" lon="4.36398">
        <ele>863.8</ele>
        <time>2022-06-26T11:23:42Z</time>
      </trkpt>
      <trkpt lat="45.85621" lon="4.36398">
        <ele>864</ele>
        <time>2022-06-26T11:23:43Z</time>
      </trkpt>
      <trkpt lat="45.85618" lon="4.36398">
        <ele>864</ele>
        <time>2022-06-26T11:23:44Z</time>
      </trkpt>
      <trkpt lat="45.85615" lon="4.36398">
        <ele>864.4</ele>
        <time>2022-06-26T11:23:45Z</time>
      </trkpt>
      <trkpt lat="45.85613" lon="4.36398">
        <ele>864.4</ele>
        <time>2022-06-26T11:23:46Z</time>
      </trkpt>
      <trkpt lat="45.8561" lon="4.36398">
        <ele>864.6</ele>
        <time>2022-06-26T11:23:47Z</time>
      </trkpt>
      <trkpt lat="45.85607" lon="4.36398">
        <ele>864.6</ele>
        <time>2022-06-26T11:23:48Z</time>
      </trkpt>
      <trkpt lat="45.85605" lon="4.36398">
        <ele>865</ele>
        <time>2022-06-26T11:23:49Z</time>
      </trkpt>
      <trkpt lat="45.85602" lon="4.36397">
        <ele>865</ele>
        <time>2022-06-26T11:23:50Z</time>
      </trkpt>
      <trkpt lat="45.85599" lon="4.36397">
        <ele>865.2</ele>
        <time>2022-06-26T11:23:51Z</time>
      </trkpt>
      <trkpt lat="45.85597" lon="4.36397">
        <ele>865.2</ele>
        <time>2022-06-26T11:23:52Z</time>
      </trkpt>
      <trkpt lat="45.85594" lon="4.36397">
        <ele>865.6</ele>
        <time>2022-06-26T11:23:53Z</time>
      </trkpt>
      <trkpt lat="45.85591" lon="4.36397">
        <ele>865.6</ele>
        <time>2022-06-26T11:23:54Z</time>
      </trkpt>
      <trkpt lat="45.85588" lon="4.36397">
        <ele>865.8</ele>
        <time>2022-06-26T11:23:55Z</time>
      </trkpt>
      <trkpt lat="45.85586" lon="4.36396">
        <ele>865.8</ele>
        <time>2022-06-26T11:23:56Z</time>
      </trkpt>
      <trkpt lat="45.85583" lon="4.36396">
        <ele>866.2</ele>
        <time>2022-06-26T11:23:57Z</time>
      </trkpt>
      <trkpt lat="45.8558" lon="4.36396">
        <ele>866.2</ele>
        <time>2022-06-26T11:23:58Z</time>
      </trkpt>
      <trkpt lat="45.85577" lon="4.36396">
        <ele>866.4</ele>
        <time>2022-06-26T11:23:59Z</time>
      </trkpt>
      <trkpt lat="45.85574" lon="4.36395">
        <ele>866.4</ele>
        <time>2022-06-26T11:24:00Z</time>
      </trkpt>
      <trkpt lat="45.85572" lon="4.36395">
        <ele>866.4</ele>
        <time>2022-06-26T11:24:01Z</time>
      </trkpt>
      <trkpt lat="45.85569" lon="4.36395">
        <ele>866.6</ele>
        <time>2022-06-26T11:24:02Z</time>
      </trkpt>
      <trkpt lat="45.85566" lon="4.36394">
        <ele>866.6</ele>
        <time>2022-06-26T11:24:03Z</time>
      </trkpt>
      <trkpt lat="45.85563" lon="4.36394">
        <ele>866.6</ele>
        <time>2022-06-26T11:24:04Z</time>
      </trkpt>
      <trkpt lat="45.85561" lon="4.36393">
        <ele>866.6</ele>
        <time>2022-06-26T11:24:05Z</time>
      </trkpt>
      <trkpt lat="45.85558" lon="4.36393">
        <ele>866.8</ele>
        <time>2022-06-26T11:24:06Z</time>
      </trkpt>
      <trkpt lat="45.85555" lon="4.36392">
        <ele>866.8</ele>
        <time>2022-06-26T11:24:07Z</time>
      </trkpt>
      <trkpt lat="45.85552" lon="4.36392">
        <ele>867</ele>
        <time>2022-06-26T11:24:08Z</time>
      </trkpt>
      <trkpt lat="45.85549" lon="4.36391">
        <ele>867</ele>
        <time>2022-06-26T11:24:09Z</time>
      </trkpt>
      <trkpt lat="45.85546" lon="4.36391">
        <ele>867</ele>
        <time>2022-06-26T11:24:10Z</time>
      </trkpt>
      <trkpt lat="45.85543" lon="4.36391">
        <ele>867.4</ele>
        <time>2022-06-26T11:24:11Z</time>
      </trkpt>
      <trkpt lat="45.8554" lon="4.36392">
        <ele>867.4</ele>
        <time>2022-06-26T11:24:12Z</time>
      </trkpt>
      <trkpt lat="45.85537" lon="4.36392">
        <ele>867.6</ele>
        <time>2022-06-26T11:24:13Z</time>
      </trkpt>
      <trkpt lat="45.85534" lon="4.36391">
        <ele>867.6</ele>
        <time>2022-06-26T11:24:14Z</time>
      </trkpt>
      <trkpt lat="45.8553" lon="4.3639">
        <ele>867.6</ele>
        <time>2022-06-26T11:24:15Z</time>
      </trkpt>
      <trkpt lat="45.85527" lon="4.36389">
        <ele>867.6</ele>
        <time>2022-06-26T11:24:16Z</time>
      </trkpt>
      <trkpt lat="45.85524" lon="4.36388">
        <ele>867.8</ele>
        <time>2022-06-26T11:24:17Z</time>
      </trkpt>
      <trkpt lat="45.85521" lon="4.36387">
        <ele>867.8</ele>
        <time>2022-06-26T11:24:18Z</time>
      </trkpt>
      <trkpt lat="45.85517" lon="4.36385">
        <ele>867.8</ele>
        <time>2022-06-26T11:24:19Z</time>
      </trkpt>
      <trkpt lat="45.85514" lon="4.36384">
        <ele>867.8</ele>
        <time>2022-06-26T11:24:20Z</time>
      </trkpt>
      <trkpt lat="45.85511" lon="4.36381">
        <ele>868</ele>
        <time>2022-06-26T11:24:21Z</time>
      </trkpt>
      <trkpt lat="45.85509" lon="4.36379">
        <ele>868</ele>
        <time>2022-06-26T11:24:22Z</time>
      </trkpt>
      <trkpt lat="45.85506" lon="4.36377">
        <ele>868</ele>
        <time>2022-06-26T11:24:23Z</time>
      </trkpt>
      <trkpt lat="45.85503" lon="4.36377">
        <ele>868</ele>
        <time>2022-06-26T11:24:24Z</time>
      </trkpt>
      <trkpt lat="45.855" lon="4.36377">
        <ele>868</ele>
        <time>2022-06-26T11:24:25Z</time>
      </trkpt>
      <trkpt lat="45.85498" lon="4.36379">
        <ele>868</ele>
        <time>2022-06-26T11:24:26Z</time>
      </trkpt>
      <trkpt lat="45.85496" lon="4.36382">
        <ele>868</ele>
        <time>2022-06-26T11:24:27Z</time>
      </trkpt>
      <trkpt lat="45.85494" lon="4.36385">
        <ele>868.4</ele>
        <time>2022-06-26T11:24:28Z</time>
      </trkpt>
      <trkpt lat="45.85492" lon="4.36389">
        <ele>868.4</ele>
        <time>2022-06-26T11:24:29Z</time>
      </trkpt>
      <trkpt lat="45.85491" lon="4.36392">
        <ele>868.6</ele>
        <time>2022-06-26T11:24:30Z</time>
      </trkpt>
      <trkpt lat="45.85489" lon="4.36396">
        <ele>868.6</ele>
        <time>2022-06-26T11:24:31Z</time>
      </trkpt>
      <trkpt lat="45.85488" lon="4.36399">
        <ele>869.2</ele>
        <time>2022-06-26T11:24:32Z</time>
      </trkpt>
      <trkpt lat="45.85486" lon="4.36402">
        <ele>869.4</ele>
        <time>2022-06-26T11:24:33Z</time>
      </trkpt>
      <trkpt lat="45.85485" lon="4.36405">
        <ele>869.6</ele>
        <time>2022-06-26T11:24:34Z</time>
      </trkpt>
      <trkpt lat="45.85483" lon="4.36408">
        <ele>869.8</ele>
        <time>2022-06-26T11:24:35Z</time>
      </trkpt>
      <trkpt lat="45.85481" lon="4.36412">
        <ele>870.2</ele>
        <time>2022-06-26T11:24:36Z</time>
      </trkpt>
      <trkpt lat="45.8548" lon="4.36415">
        <ele>870.4</ele>
        <time>2022-06-26T11:24:37Z</time>
      </trkpt>
      <trkpt lat="45.85479" lon="4.36419">
        <ele>870.6</ele>
        <time>2022-06-26T11:24:38Z</time>
      </trkpt>
      <trkpt lat="45.85478" lon="4.36423">
        <ele>871</ele>
        <time>2022-06-26T11:24:39Z</time>
      </trkpt>
      <trkpt lat="45.85477" lon="4.36428">
        <ele>871.2</ele>
        <time>2022-06-26T11:24:40Z</time>
      </trkpt>
      <trkpt lat="45.85476" lon="4.36432">
        <ele>871.4</ele>
        <time>2022-06-26T11:24:41Z</time>
      </trkpt>
      <trkpt lat="45.85476" lon="4.36435">
        <ele>871.8</ele>
        <time>2022-06-26T11:24:42Z</time>
      </trkpt>
      <trkpt lat="45.85475" lon="4.36439">
        <ele>872</ele>
        <time>2022-06-26T11:24:43Z</time>
      </trkpt>
      <trkpt lat="45.85474" lon="4.36442">
        <ele>872.2</ele>
        <time>2022-06-26T11:24:44Z</time>
      </trkpt>
      <trkpt lat="45.85473" lon="4.36446">
        <ele>872.6</ele>
        <time>2022-06-26T11:24:45Z</time>
      </trkpt>
      <trkpt lat="45.85472" lon="4.36449">
        <ele>872.6</ele>
        <time>2022-06-26T11:24:46Z</time>
      </trkpt>
      <trkpt lat="45.85472" lon="4.36452">
        <ele>873</ele>
        <time>2022-06-26T11:24:47Z</time>
      </trkpt>
      <trkpt lat="45.85471" lon="4.36455">
        <ele>873.2</ele>
        <time>2022-06-26T11:24:48Z</time>
      </trkpt>
      <trkpt lat="45.8547" lon="4.36458">
        <ele>873.6</ele>
        <time>2022-06-26T11:24:49Z</time>
      </trkpt>
      <trkpt lat="45.85469" lon="4.36461">
        <ele>873.8</ele>
        <time>2022-06-26T11:24:50Z</time>
      </trkpt>
      <trkpt lat="45.85469" lon="4.36464">
        <ele>874</ele>
        <time>2022-06-26T11:24:51Z</time>
      </trkpt>
      <trkpt lat="45.85468" lon="4.36467">
        <ele>874.2</ele>
        <time>2022-06-26T11:24:52Z</time>
      </trkpt>
      <trkpt lat="45.85467" lon="4.36469">
        <ele>874.4</ele>
        <time>2022-06-26T11:24:53Z</time>
      </trkpt>
      <trkpt lat="45.85467" lon="4.36472">
        <ele>874.6</ele>
        <time>2022-06-26T11:24:54Z</time>
      </trkpt>
      <trkpt lat="45.85466" lon="4.36474">
        <ele>875</ele>
        <time>2022-06-26T11:24:55Z</time>
      </trkpt>
      <trkpt lat="45.85465" lon="4.36477">
        <ele>875.2</ele>
        <time>2022-06-26T11:24:56Z</time>
      </trkpt>
      <trkpt lat="45.85465" lon="4.36479">
        <ele>875.4</ele>
        <time>2022-06-26T11:24:57Z</time>
      </trkpt>
      <trkpt lat="45.85465" lon="4.36482">
        <ele>875.6</ele>
        <time>2022-06-26T11:24:58Z</time>
      </trkpt>
      <trkpt lat="45.85464" lon="4.36484">
        <ele>876</ele>
        <time>2022-06-26T11:24:59Z</time>
      </trkpt>
      <trkpt lat="45.85463" lon="4.36487">
        <ele>876.2</ele>
        <time>2022-06-26T11:25:00Z</time>
      </trkpt>
      <trkpt lat="45.85462" lon="4.36489">
        <ele>876.4</ele>
        <time>2022-06-26T11:25:01Z</time>
      </trkpt>
      <trkpt lat="45.85461" lon="4.36491">
        <ele>876.6</ele>
        <time>2022-06-26T11:25:02Z</time>
      </trkpt>
      <trkpt lat="45.85461" lon="4.36494">
        <ele>877</ele>
        <time>2022-06-26T11:25:03Z</time>
      </trkpt>
      <trkpt lat="45.8546" lon="4.36496">
        <ele>877.2</ele>
        <time>2022-06-26T11:25:04Z</time>
      </trkpt>
      <trkpt lat="45.85459" lon="4.36499">
        <ele>877.6</ele>
        <time>2022-06-26T11:25:05Z</time>
      </trkpt>
      <trkpt lat="45.85459" lon="4.36502">
        <ele>877.8</ele>
        <time>2022-06-26T11:25:06Z</time>
      </trkpt>
      <trkpt lat="45.85459" lon="4.36504">
        <ele>878</ele>
        <time>2022-06-26T11:25:07Z</time>
      </trkpt>
      <trkpt lat="45.85458" lon="4.36507">
        <ele>878.4</ele>
        <time>2022-06-26T11:25:08Z</time>
      </trkpt>
      <trkpt lat="45.85458" lon="4.36509">
        <ele>878.6</ele>
        <time>2022-06-26T11:25:09Z</time>
      </trkpt>
      <trkpt lat="45.85457" lon="4.36512">
        <ele>878.8</ele>
        <time>2022-06-26T11:25:10Z</time>
      </trkpt>
      <trkpt lat="45.85457" lon="4.36514">
        <ele>879.2</ele>
        <time>2022-06-26T11:25:11Z</time>
      </trkpt>
      <trkpt lat="45.85456" lon="4.36517">
        <ele>879.4</ele>
        <time>2022-06-26T11:25:12Z</time>
      </trkpt>
      <trkpt lat="45.85455" lon="4.36519">
        <ele>879.8</ele>
        <time>2022-06-26T11:25:13Z</time>
      </trkpt>
      <trkpt lat="45.85454" lon="4.36522">
        <ele>880</ele>
        <time>2022-06-26T11:25:14Z</time>
      </trkpt>
      <trkpt lat="45.85454" lon="4.36524">
        <ele>880.4</ele>
        <time>2022-06-26T11:25:15Z</time>
      </trkpt>
      <trkpt lat="45.85453" lon="4.36527">
        <ele>880.6</ele>
        <time>2022-06-26T11:25:16Z</time>
      </trkpt>
      <trkpt lat="45.85453" lon="4.36529">
        <ele>881</ele>
        <time>2022-06-26T11:25:17Z</time>
      </trkpt>
      <trkpt lat="45.85452" lon="4.36532">
        <ele>881.2</ele>
        <time>2022-06-26T11:25:18Z</time>
      </trkpt>
      <trkpt lat="45.85451" lon="4.36534">
        <ele>881.4</ele>
        <time>2022-06-26T11:25:19Z</time>
      </trkpt>
      <trkpt lat="45.8545" lon="4.36537">
        <ele>881.8</ele>
        <time>2022-06-26T11:25:20Z</time>
      </trkpt>
      <trkpt lat="45.85449" lon="4.36539">
        <ele>882.2</ele>
        <time>2022-06-26T11:25:21Z</time>
      </trkpt>
      <trkpt lat="45.85448" lon="4.36542">
        <ele>882.6</ele>
        <time>2022-06-26T11:25:22Z</time>
      </trkpt>
      <trkpt lat="45.85448" lon="4.36545">
        <ele>882.8</ele>
        <time>2022-06-26T11:25:23Z</time>
      </trkpt>
      <trkpt lat="45.85448" lon="4.36548">
        <ele>883.2</ele>
        <time>2022-06-26T11:25:24Z</time>
      </trkpt>
      <trkpt lat="45.85448" lon="4.3655">
        <ele>883.2</ele>
        <time>2022-06-26T11:25:25Z</time>
      </trkpt>
      <trkpt lat="45.85447" lon="4.36553">
        <ele>883.6</ele>
        <time>2022-06-26T11:25:26Z</time>
      </trkpt>
      <trkpt lat="45.85446" lon="4.36556">
        <ele>884</ele>
        <time>2022-06-26T11:25:27Z</time>
      </trkpt>
      <trkpt lat="45.85445" lon="4.36558">
        <ele>884.2</ele>
        <time>2022-06-26T11:25:28Z</time>
      </trkpt>
      <trkpt lat="45.85444" lon="4.36561">
        <ele>884.6</ele>
        <time>2022-06-26T11:25:29Z</time>
      </trkpt>
      <trkpt lat="45.85443" lon="4.36563">
        <ele>884.8</ele>
        <time>2022-06-26T11:25:30Z</time>
      </trkpt>
      <trkpt lat="45.85442" lon="4.36566">
        <ele>884.8</ele>
        <time>2022-06-26T11:25:31Z</time>
      </trkpt>
      <trkpt lat="45.85441" lon="4.36568">
        <ele>885.2</ele>
        <time>2022-06-26T11:25:32Z</time>
      </trkpt>
      <trkpt lat="45.8544" lon="4.3657">
        <ele>885.4</ele>
        <time>2022-06-26T11:25:33Z</time>
      </trkpt>
      <trkpt lat="45.85438" lon="4.36573">
        <ele>885.6</ele>
        <time>2022-06-26T11:25:34Z</time>
      </trkpt>
      <trkpt lat="45.85437" lon="4.36576">
        <ele>886</ele>
        <time>2022-06-26T11:25:35Z</time>
      </trkpt>
      <trkpt lat="45.85436" lon="4.36578">
        <ele>886.2</ele>
        <time>2022-06-26T11:25:36Z</time>
      </trkpt>
      <trkpt lat="45.85435" lon="4.3658">
        <ele>886.4</ele>
        <time>2022-06-26T11:25:37Z</time>
      </trkpt>
      <trkpt lat="45.85433" lon="4.36583">
        <ele>886.6</ele>
        <time>2022-06-26T11:25:38Z</time>
      </trkpt>
      <trkpt lat="45.85432" lon="4.36585">
        <ele>886.8</ele>
        <time>2022-06-26T11:25:39Z</time>
      </trkpt>
      <trkpt lat="45.8543" lon="4.36587">
        <ele>886.8</ele>
        <time>2022-06-26T11:25:40Z</time>
      </trkpt>
      <trkpt lat="45.85429" lon="4.36589">
        <ele>887.2</ele>
        <time>2022-06-26T11:25:41Z</time>
      </trkpt>
      <trkpt lat="45.85427" lon="4.36591">
        <ele>887.4</ele>
        <time>2022-06-26T11:25:42Z</time>
      </trkpt>
      <trkpt lat="45.85426" lon="4.36594">
        <ele>887.6</ele>
        <time>2022-06-26T11:25:43Z</time>
      </trkpt>
      <trkpt lat="45.85425" lon="4.36596">
        <ele>887.8</ele>
        <time>2022-06-26T11:25:44Z</time>
      </trkpt>
      <trkpt lat="45.85423" lon="4.36598">
        <ele>887.8</ele>
        <time>2022-06-26T11:25:45Z</time>
      </trkpt>
      <trkpt lat="45.85421" lon="4.36601">
        <ele>888.2</ele>
        <time>2022-06-26T11:25:46Z</time>
      </trkpt>
      <trkpt lat="45.8542" lon="4.36603">
        <ele>888.4</ele>
        <time>2022-06-26T11:25:47Z</time>
      </trkpt>
      <trkpt lat="45.85418" lon="4.36605">
        <ele>888.4</ele>
        <time>2022-06-26T11:25:48Z</time>
      </trkpt>
      <trkpt lat="45.85417" lon="4.36607">
        <ele>888.8</ele>
        <time>2022-06-26T11:25:49Z</time>
      </trkpt>
      <trkpt lat="45.85415" lon="4.36609">
        <ele>889</ele>
        <time>2022-06-26T11:25:50Z</time>
      </trkpt>
      <trkpt lat="45.85414" lon="4.36611">
        <ele>889.2</ele>
        <time>2022-06-26T11:25:51Z</time>
      </trkpt>
      <trkpt lat="45.85412" lon="4.36613">
        <ele>889.6</ele>
        <time>2022-06-26T11:25:52Z</time>
      </trkpt>
      <trkpt lat="45.85411" lon="4.36616">
        <ele>889.8</ele>
        <time>2022-06-26T11:25:53Z</time>
      </trkpt>
      <trkpt lat="45.85409" lon="4.36618">
        <ele>889.8</ele>
        <time>2022-06-26T11:25:54Z</time>
      </trkpt>
      <trkpt lat="45.85408" lon="4.3662">
        <ele>890</ele>
        <time>2022-06-26T11:25:55Z</time>
      </trkpt>
      <trkpt lat="45.85406" lon="4.36622">
        <ele>890</ele>
        <time>2022-06-26T11:25:56Z</time>
      </trkpt>
      <trkpt lat="45.85405" lon="4.36624">
        <ele>890.4</ele>
        <time>2022-06-26T11:25:57Z</time>
      </trkpt>
      <trkpt lat="45.85404" lon="4.36627">
        <ele>890.4</ele>
        <time>2022-06-26T11:25:58Z</time>
      </trkpt>
      <trkpt lat="45.85402" lon="4.36629">
        <ele>890.8</ele>
        <time>2022-06-26T11:25:59Z</time>
      </trkpt>
      <trkpt lat="45.85401" lon="4.36631">
        <ele>890.8</ele>
        <time>2022-06-26T11:26:00Z</time>
      </trkpt>
      <trkpt lat="45.85399" lon="4.36633">
        <ele>891</ele>
        <time>2022-06-26T11:26:01Z</time>
      </trkpt>
      <trkpt lat="45.85397" lon="4.36635">
        <ele>891</ele>
        <time>2022-06-26T11:26:02Z</time>
      </trkpt>
      <trkpt lat="45.85396" lon="4.36637">
        <ele>891.4</ele>
        <time>2022-06-26T11:26:03Z</time>
      </trkpt>
      <trkpt lat="45.85394" lon="4.36639">
        <ele>891.4</ele>
        <time>2022-06-26T11:26:04Z</time>
      </trkpt>
      <trkpt lat="45.85393" lon="4.3664">
        <ele>891.6</ele>
        <time>2022-06-26T11:26:05Z</time>
      </trkpt>
      <trkpt lat="45.85391" lon="4.36642">
        <ele>891.6</ele>
        <time>2022-06-26T11:26:06Z</time>
      </trkpt>
      <trkpt lat="45.8539" lon="4.36645">
        <ele>892</ele>
        <time>2022-06-26T11:26:07Z</time>
      </trkpt>
      <trkpt lat="45.85388" lon="4.36647">
        <ele>892</ele>
        <time>2022-06-26T11:26:08Z</time>
      </trkpt>
      <trkpt lat="45.85387" lon="4.36649">
        <ele>892</ele>
        <time>2022-06-26T11:26:09Z</time>
      </trkpt>
      <trkpt lat="45.85385" lon="4.36651">
        <ele>892.4</ele>
        <time>2022-06-26T11:26:10Z</time>
      </trkpt>
      <trkpt lat="45.85384" lon="4.36652">
        <ele>892.4</ele>
        <time>2022-06-26T11:26:11Z</time>
      </trkpt>
      <trkpt lat="45.85383" lon="4.36654">
        <ele>892.6</ele>
        <time>2022-06-26T11:26:12Z</time>
      </trkpt>
      <trkpt lat="45.85382" lon="4.36656">
        <ele>892.6</ele>
        <time>2022-06-26T11:26:13Z</time>
      </trkpt>
      <trkpt lat="45.85381" lon="4.36658">
        <ele>893</ele>
        <time>2022-06-26T11:26:14Z</time>
      </trkpt>
      <trkpt lat="45.8538" lon="4.36661">
        <ele>893.2</ele>
        <time>2022-06-26T11:26:15Z</time>
      </trkpt>
      <trkpt lat="45.85379" lon="4.36663">
        <ele>893.2</ele>
        <time>2022-06-26T11:26:16Z</time>
      </trkpt>
      <trkpt lat="45.85378" lon="4.36666">
        <ele>893.6</ele>
        <time>2022-06-26T11:26:17Z</time>
      </trkpt>
      <trkpt lat="45.85377" lon="4.36668">
        <ele>893.8</ele>
        <time>2022-06-26T11:26:18Z</time>
      </trkpt>
      <trkpt lat="45.85375" lon="4.3667">
        <ele>893.8</ele>
        <time>2022-06-26T11:26:19Z</time>
      </trkpt>
      <trkpt lat="45.85374" lon="4.36672">
        <ele>894.2</ele>
        <time>2022-06-26T11:26:20Z</time>
      </trkpt>
      <trkpt lat="45.85372" lon="4.36674">
        <ele>894.2</ele>
        <time>2022-06-26T11:26:21Z</time>
      </trkpt>
      <trkpt lat="45.85371" lon="4.36676">
        <ele>894.6</ele>
        <time>2022-06-26T11:26:22Z</time>
      </trkpt>
      <trkpt lat="45.85369" lon="4.36678">
        <ele>894.6</ele>
        <time>2022-06-26T11:26:23Z</time>
      </trkpt>
      <trkpt lat="45.85367" lon="4.3668">
        <ele>895</ele>
        <time>2022-06-26T11:26:24Z</time>
      </trkpt>
      <trkpt lat="45.85366" lon="4.36682">
        <ele>895</ele>
        <time>2022-06-26T11:26:25Z</time>
      </trkpt>
      <trkpt lat="45.85365" lon="4.36685">
        <ele>895.2</ele>
        <time>2022-06-26T11:26:26Z</time>
      </trkpt>
      <trkpt lat="45.85364" lon="4.36687">
        <ele>895.2</ele>
        <time>2022-06-26T11:26:27Z</time>
      </trkpt>
      <trkpt lat="45.85362" lon="4.36689">
        <ele>895.2</ele>
        <time>2022-06-26T11:26:28Z</time>
      </trkpt>
      <trkpt lat="45.8536" lon="4.36691">
        <ele>895.6</ele>
        <time>2022-06-26T11:26:29Z</time>
      </trkpt>
      <trkpt lat="45.85359" lon="4.36694">
        <ele>895.8</ele>
        <time>2022-06-26T11:26:30Z</time>
      </trkpt>
      <trkpt lat="45.85357" lon="4.36696">
        <ele>895.8</ele>
        <time>2022-06-26T11:26:31Z</time>
      </trkpt>
      <trkpt lat="45.85356" lon="4.36698">
        <ele>896.2</ele>
        <time>2022-06-26T11:26:32Z</time>
      </trkpt>
      <trkpt lat="45.85354" lon="4.36701">
        <ele>896.2</ele>
        <time>2022-06-26T11:26:33Z</time>
      </trkpt>
      <trkpt lat="45.85353" lon="4.36703">
        <ele>896.4</ele>
        <time>2022-06-26T11:26:34Z</time>
      </trkpt>
      <trkpt lat="45.85351" lon="4.36705">
        <ele>896.4</ele>
        <time>2022-06-26T11:26:35Z</time>
      </trkpt>
      <trkpt lat="45.8535" lon="4.36706">
        <ele>896.6</ele>
        <time>2022-06-26T11:26:36Z</time>
      </trkpt>
      <trkpt lat="45.85349" lon="4.36708">
        <ele>896.6</ele>
        <time>2022-06-26T11:26:37Z</time>
      </trkpt>
      <trkpt lat="45.85347" lon="4.3671">
        <ele>897</ele>
        <time>2022-06-26T11:26:38Z</time>
      </trkpt>
      <trkpt lat="45.85345" lon="4.36712">
        <ele>897</ele>
        <time>2022-06-26T11:26:39Z</time>
      </trkpt>
      <trkpt lat="45.85344" lon="4.36714">
        <ele>897.4</ele>
        <time>2022-06-26T11:26:40Z</time>
      </trkpt>
      <trkpt lat="45.85343" lon="4.36715">
        <ele>897.4</ele>
        <time>2022-06-26T11:26:41Z</time>
      </trkpt>
      <trkpt lat="45.85341" lon="4.36717">
        <ele>897.8</ele>
        <time>2022-06-26T11:26:42Z</time>
      </trkpt>
      <trkpt lat="45.8534" lon="4.36719">
        <ele>897.8</ele>
        <time>2022-06-26T11:26:43Z</time>
      </trkpt>
      <trkpt lat="45.85339" lon="4.36722">
        <ele>898.2</ele>
        <time>2022-06-26T11:26:44Z</time>
      </trkpt>
      <trkpt lat="45.85338" lon="4.36725">
        <ele>898.4</ele>
        <time>2022-06-26T11:26:45Z</time>
      </trkpt>
      <trkpt lat="45.85336" lon="4.36727">
        <ele>898.4</ele>
        <time>2022-06-26T11:26:46Z</time>
      </trkpt>
      <trkpt lat="45.85335" lon="4.36729">
        <ele>898.4</ele>
        <time>2022-06-26T11:26:47Z</time>
      </trkpt>
      <trkpt lat="45.85333" lon="4.36731">
        <ele>898.6</ele>
        <time>2022-06-26T11:26:48Z</time>
      </trkpt>
      <trkpt lat="45.85331" lon="4.36733">
        <ele>898.6</ele>
        <time>2022-06-26T11:26:49Z</time>
      </trkpt>
      <trkpt lat="45.8533" lon="4.36736">
        <ele>898.8</ele>
        <time>2022-06-26T11:26:50Z</time>
      </trkpt>
      <trkpt lat="45.85329" lon="4.36738">
        <ele>898.8</ele>
        <time>2022-06-26T11:26:51Z</time>
      </trkpt>
      <trkpt lat="45.85327" lon="4.36741">
        <ele>899.2</ele>
        <time>2022-06-26T11:26:52Z</time>
      </trkpt>
      <trkpt lat="45.85326" lon="4.36744">
        <ele>899.2</ele>
        <time>2022-06-26T11:26:53Z</time>
      </trkpt>
      <trkpt lat="45.85325" lon="4.36747">
        <ele>899.4</ele>
        <time>2022-06-26T11:26:54Z</time>
      </trkpt>
      <trkpt lat="45.85324" lon="4.36749">
        <ele>899.4</ele>
        <time>2022-06-26T11:26:55Z</time>
      </trkpt>
      <trkpt lat="45.85322" lon="4.36751">
        <ele>899.6</ele>
        <time>2022-06-26T11:26:56Z</time>
      </trkpt>
      <trkpt lat="45.85321" lon="4.36753">
        <ele>899.6</ele>
        <time>2022-06-26T11:26:57Z</time>
      </trkpt>
      <trkpt lat="45.85319" lon="4.36755">
        <ele>900</ele>
        <time>2022-06-26T11:26:58Z</time>
      </trkpt>
      <trkpt lat="45.85318" lon="4.36757">
        <ele>900.2</ele>
        <time>2022-06-26T11:26:59Z</time>
      </trkpt>
      <trkpt lat="45.85316" lon="4.36759">
        <ele>900.2</ele>
        <time>2022-06-26T11:27:00Z</time>
      </trkpt>
      <trkpt lat="45.85314" lon="4.36761">
        <ele>900.6</ele>
        <time>2022-06-26T11:27:01Z</time>
      </trkpt>
      <trkpt lat="45.85312" lon="4.36763">
        <ele>900.6</ele>
        <time>2022-06-26T11:27:02Z</time>
      </trkpt>
      <trkpt lat="45.85311" lon="4.36765">
        <ele>901</ele>
        <time>2022-06-26T11:27:03Z</time>
      </trkpt>
      <trkpt lat="45.85309" lon="4.36767">
        <ele>901</ele>
        <time>2022-06-26T11:27:04Z</time>
      </trkpt>
      <trkpt lat="45.85308" lon="4.3677">
        <ele>901.4</ele>
        <time>2022-06-26T11:27:05Z</time>
      </trkpt>
      <trkpt lat="45.85307" lon="4.36772">
        <ele>901.4</ele>
        <time>2022-06-26T11:27:06Z</time>
      </trkpt>
      <trkpt lat="45.85305" lon="4.36775">
        <ele>901.6</ele>
        <time>2022-06-26T11:27:07Z</time>
      </trkpt>
      <trkpt lat="45.85304" lon="4.36778">
        <ele>901.6</ele>
        <time>2022-06-26T11:27:08Z</time>
      </trkpt>
      <trkpt lat="45.85303" lon="4.3678">
        <ele>901.8</ele>
        <time>2022-06-26T11:27:09Z</time>
      </trkpt>
      <trkpt lat="45.85301" lon="4.36782">
        <ele>901.8</ele>
        <time>2022-06-26T11:27:10Z</time>
      </trkpt>
      <trkpt lat="45.85299" lon="4.36786">
        <ele>902.2</ele>
        <time>2022-06-26T11:27:11Z</time>
      </trkpt>
      <trkpt lat="45.85297" lon="4.36788">
        <ele>902.4</ele>
        <time>2022-06-26T11:27:12Z</time>
      </trkpt>
      <trkpt lat="45.85295" lon="4.36791">
        <ele>902.6</ele>
        <time>2022-06-26T11:27:13Z</time>
      </trkpt>
      <trkpt lat="45.85294" lon="4.36793">
        <ele>902.8</ele>
        <time>2022-06-26T11:27:14Z</time>
      </trkpt>
      <trkpt lat="45.85292" lon="4.36795">
        <ele>902.8</ele>
        <time>2022-06-26T11:27:15Z</time>
      </trkpt>
      <trkpt lat="45.8529" lon="4.36797">
        <ele>903.2</ele>
        <time>2022-06-26T11:27:16Z</time>
      </trkpt>
      <trkpt lat="45.85288" lon="4.36799">
        <ele>903.4</ele>
        <time>2022-06-26T11:27:17Z</time>
      </trkpt>
      <trkpt lat="45.85286" lon="4.36802">
        <ele>903.6</ele>
        <time>2022-06-26T11:27:18Z</time>
      </trkpt>
      <trkpt lat="45.85284" lon="4.36805">
        <ele>903.6</ele>
        <time>2022-06-26T11:27:19Z</time>
      </trkpt>
      <trkpt lat="45.85283" lon="4.36808">
        <ele>904</ele>
        <time>2022-06-26T11:27:20Z</time>
      </trkpt>
      <trkpt lat="45.85281" lon="4.36811">
        <ele>904.2</ele>
        <time>2022-06-26T11:27:21Z</time>
      </trkpt>
      <trkpt lat="45.85279" lon="4.36814">
        <ele>904.4</ele>
        <time>2022-06-26T11:27:22Z</time>
      </trkpt>
      <trkpt lat="45.85278" lon="4.36817">
        <ele>904.4</ele>
        <time>2022-06-26T11:27:23Z</time>
      </trkpt>
      <trkpt lat="45.85276" lon="4.3682">
        <ele>904.8</ele>
        <time>2022-06-26T11:27:24Z</time>
      </trkpt>
      <trkpt lat="45.85275" lon="4.36823">
        <ele>905</ele>
        <time>2022-06-26T11:27:25Z</time>
      </trkpt>
      <trkpt lat="45.85273" lon="4.36826">
        <ele>905.2</ele>
        <time>2022-06-26T11:27:26Z</time>
      </trkpt>
      <trkpt lat="45.85271" lon="4.36828">
        <ele>905.4</ele>
        <time>2022-06-26T11:27:27Z</time>
      </trkpt>
      <trkpt lat="45.85269" lon="4.3683">
        <ele>905.6</ele>
        <time>2022-06-26T11:27:28Z</time>
      </trkpt>
      <trkpt lat="45.85268" lon="4.36833">
        <ele>905.8</ele>
        <time>2022-06-26T11:27:29Z</time>
      </trkpt>
      <trkpt lat="45.85266" lon="4.36835">
        <ele>906.2</ele>
        <time>2022-06-26T11:27:30Z</time>
      </trkpt>
      <trkpt lat="45.85264" lon="4.36838">
        <ele>906.4</ele>
        <time>2022-06-26T11:27:31Z</time>
      </trkpt>
      <trkpt lat="45.85263" lon="4.36841">
        <ele>906.6</ele>
        <time>2022-06-26T11:27:32Z</time>
      </trkpt>
      <trkpt lat="45.85261" lon="4.36843">
        <ele>906.6</ele>
        <time>2022-06-26T11:27:33Z</time>
      </trkpt>
      <trkpt lat="45.8526" lon="4.36845">
        <ele>907</ele>
        <time>2022-06-26T11:27:34Z</time>
      </trkpt>
      <trkpt lat="45.85258" lon="4.36847">
        <ele>907.2</ele>
        <time>2022-06-26T11:27:35Z</time>
      </trkpt>
      <trkpt lat="45.85257" lon="4.3685">
        <ele>907.4</ele>
        <time>2022-06-26T11:27:36Z</time>
      </trkpt>
      <trkpt lat="45.85256" lon="4.36852">
        <ele>907.8</ele>
        <time>2022-06-26T11:27:37Z</time>
      </trkpt>
      <trkpt lat="45.85254" lon="4.36855">
        <ele>908</ele>
        <time>2022-06-26T11:27:38Z</time>
      </trkpt>
      <trkpt lat="45.85253" lon="4.36858">
        <ele>908</ele>
        <time>2022-06-26T11:27:39Z</time>
      </trkpt>
      <trkpt lat="45.85251" lon="4.3686">
        <ele>908.4</ele>
        <time>2022-06-26T11:27:40Z</time>
      </trkpt>
      <trkpt lat="45.8525" lon="4.36863">
        <ele>908.6</ele>
        <time>2022-06-26T11:27:41Z</time>
      </trkpt>
      <trkpt lat="45.85249" lon="4.36865">
        <ele>908.6</ele>
        <time>2022-06-26T11:27:42Z</time>
      </trkpt>
      <trkpt lat="45.85247" lon="4.36868">
        <ele>909</ele>
        <time>2022-06-26T11:27:43Z</time>
      </trkpt>
      <trkpt lat="45.85245" lon="4.36871">
        <ele>909.4</ele>
        <time>2022-06-26T11:27:44Z</time>
      </trkpt>
      <trkpt lat="45.85244" lon="4.36873">
        <ele>909.6</ele>
        <time>2022-06-26T11:27:45Z</time>
      </trkpt>
      <trkpt lat="45.85242" lon="4.36876">
        <ele>909.8</ele>
        <time>2022-06-26T11:27:46Z</time>
      </trkpt>
      <trkpt lat="45.85241" lon="4.36879">
        <ele>909.8</ele>
        <time>2022-06-26T11:27:47Z</time>
      </trkpt>
      <trkpt lat="45.85239" lon="4.36881">
        <ele>910.2</ele>
        <time>2022-06-26T11:27:48Z</time>
      </trkpt>
      <trkpt lat="45.85237" lon="4.36884">
        <ele>910.4</ele>
        <time>2022-06-26T11:27:49Z</time>
      </trkpt>
      <trkpt lat="45.85235" lon="4.36887">
        <ele>910.8</ele>
        <time>2022-06-26T11:27:50Z</time>
      </trkpt>
      <trkpt lat="45.85234" lon="4.36889">
        <ele>911</ele>
        <time>2022-06-26T11:27:51Z</time>
      </trkpt>
      <trkpt lat="45.85232" lon="4.36892">
        <ele>911.2</ele>
        <time>2022-06-26T11:27:52Z</time>
      </trkpt>
      <trkpt lat="45.85231" lon="4.36894">
        <ele>911.4</ele>
        <time>2022-06-26T11:27:53Z</time>
      </trkpt>
      <trkpt lat="45.8523" lon="4.36896">
        <ele>911.4</ele>
        <time>2022-06-26T11:27:54Z</time>
      </trkpt>
      <trkpt lat="45.85229" lon="4.36899">
        <ele>911.8</ele>
        <time>2022-06-26T11:27:55Z</time>
      </trkpt>
      <trkpt lat="45.85228" lon="4.36901">
        <ele>912.2</ele>
        <time>2022-06-26T11:27:56Z</time>
      </trkpt>
      <trkpt lat="45.85226" lon="4.36903">
        <ele>912.4</ele>
        <time>2022-06-26T11:27:57Z</time>
      </trkpt>
      <trkpt lat="45.85225" lon="4.36905">
        <ele>912.4</ele>
        <time>2022-06-26T11:27:58Z</time>
      </trkpt>
      <trkpt lat="45.85224" lon="4.36908">
        <ele>912.8</ele>
        <time>2022-06-26T11:27:59Z</time>
      </trkpt>
      <trkpt lat="45.85223" lon="4.3691">
        <ele>912.8</ele>
        <time>2022-06-26T11:28:00Z</time>
      </trkpt>
      <trkpt lat="45.85221" lon="4.36912">
        <ele>913</ele>
        <time>2022-06-26T11:28:01Z</time>
      </trkpt>
      <trkpt lat="45.8522" lon="4.36915">
        <ele>913</ele>
        <time>2022-06-26T11:28:02Z</time>
      </trkpt>
      <trkpt lat="45.85219" lon="4.36917">
        <ele>913.4</ele>
        <time>2022-06-26T11:28:03Z</time>
      </trkpt>
      <trkpt lat="45.85218" lon="4.36919">
        <ele>913.4</ele>
        <time>2022-06-26T11:28:04Z</time>
      </trkpt>
      <trkpt lat="45.85216" lon="4.36921">
        <ele>913.8</ele>
        <time>2022-06-26T11:28:05Z</time>
      </trkpt>
      <trkpt lat="45.85215" lon="4.36924">
        <ele>914</ele>
        <time>2022-06-26T11:28:06Z</time>
      </trkpt>
      <trkpt lat="45.85214" lon="4.36926">
        <ele>914.2</ele>
        <time>2022-06-26T11:28:07Z</time>
      </trkpt>
      <trkpt lat="45.85213" lon="4.36928">
        <ele>914.2</ele>
        <time>2022-06-26T11:28:08Z</time>
      </trkpt>
      <trkpt lat="45.85212" lon="4.36931">
        <ele>914.6</ele>
        <time>2022-06-26T11:28:09Z</time>
      </trkpt>
      <trkpt lat="45.8521" lon="4.36933">
        <ele>914.6</ele>
        <time>2022-06-26T11:28:10Z</time>
      </trkpt>
      <trkpt lat="45.85209" lon="4.36935">
        <ele>915</ele>
        <time>2022-06-26T11:28:11Z</time>
      </trkpt>
      <trkpt lat="45.85208" lon="4.36938">
        <ele>915.4</ele>
        <time>2022-06-26T11:28:12Z</time>
      </trkpt>
      <trkpt lat="45.85206" lon="4.3694">
        <ele>915.4</ele>
        <time>2022-06-26T11:28:13Z</time>
      </trkpt>
      <trkpt lat="45.85204" lon="4.36943">
        <ele>915.8</ele>
        <time>2022-06-26T11:28:14Z</time>
      </trkpt>
      <trkpt lat="45.85203" lon="4.36945">
        <ele>916</ele>
        <time>2022-06-26T11:28:15Z</time>
      </trkpt>
      <trkpt lat="45.85201" lon="4.36948">
        <ele>916.2</ele>
        <time>2022-06-26T11:28:16Z</time>
      </trkpt>
      <trkpt lat="45.852" lon="4.36951">
        <ele>916.4</ele>
        <time>2022-06-26T11:28:17Z</time>
      </trkpt>
      <trkpt lat="45.85198" lon="4.36953">
        <ele>916.4</ele>
        <time>2022-06-26T11:28:18Z</time>
      </trkpt>
      <trkpt lat="45.85197" lon="4.36956">
        <ele>916.6</ele>
        <time>2022-06-26T11:28:19Z</time>
      </trkpt>
      <trkpt lat="45.85196" lon="4.36958">
        <ele>916.6</ele>
        <time>2022-06-26T11:28:20Z</time>
      </trkpt>
      <trkpt lat="45.85194" lon="4.3696">
        <ele>917</ele>
        <time>2022-06-26T11:28:21Z</time>
      </trkpt>
      <trkpt lat="45.85193" lon="4.36963">
        <ele>917</ele>
        <time>2022-06-26T11:28:22Z</time>
      </trkpt>
      <trkpt lat="45.85192" lon="4.36965">
        <ele>917.2</ele>
        <time>2022-06-26T11:28:23Z</time>
      </trkpt>
      <trkpt lat="45.85191" lon="4.36968">
        <ele>917.2</ele>
        <time>2022-06-26T11:28:24Z</time>
      </trkpt>
      <trkpt lat="45.85189" lon="4.36971">
        <ele>917.6</ele>
        <time>2022-06-26T11:28:25Z</time>
      </trkpt>
      <trkpt lat="45.85188" lon="4.36973">
        <ele>917.6</ele>
        <time>2022-06-26T11:28:26Z</time>
      </trkpt>
      <trkpt lat="45.85186" lon="4.36976">
        <ele>917.8</ele>
        <time>2022-06-26T11:28:27Z</time>
      </trkpt>
      <trkpt lat="45.85185" lon="4.36979">
        <ele>917.8</ele>
        <time>2022-06-26T11:28:28Z</time>
      </trkpt>
      <trkpt lat="45.85183" lon="4.36983">
        <ele>918.2</ele>
        <time>2022-06-26T11:28:29Z</time>
      </trkpt>
      <trkpt lat="45.85182" lon="4.36986">
        <ele>918.2</ele>
        <time>2022-06-26T11:28:30Z</time>
      </trkpt>
      <trkpt lat="45.8518" lon="4.36988">
        <ele>918.6</ele>
        <time>2022-06-26T11:28:31Z</time>
      </trkpt>
      <trkpt lat="45.85179" lon="4.36991">
        <ele>918.6</ele>
        <time>2022-06-26T11:28:32Z</time>
      </trkpt>
      <trkpt lat="45.85178" lon="4.36994">
        <ele>918.6</ele>
        <time>2022-06-26T11:28:33Z</time>
      </trkpt>
      <trkpt lat="45.85176" lon="4.36996">
        <ele>918.8</ele>
        <time>2022-06-26T11:28:34Z</time>
      </trkpt>
      <trkpt lat="45.85174" lon="4.36999">
        <ele>918.8</ele>
        <time>2022-06-26T11:28:35Z</time>
      </trkpt>
      <trkpt lat="45.85173" lon="4.37002">
        <ele>919</ele>
        <time>2022-06-26T11:28:36Z</time>
      </trkpt>
      <trkpt lat="45.85171" lon="4.37005">
        <ele>919</ele>
        <time>2022-06-26T11:28:37Z</time>
      </trkpt>
      <trkpt lat="45.8517" lon="4.37008">
        <ele>919.4</ele>
        <time>2022-06-26T11:28:38Z</time>
      </trkpt>
      <trkpt lat="45.85169" lon="4.37011">
        <ele>919.4</ele>
        <time>2022-06-26T11:28:39Z</time>
      </trkpt>
      <trkpt lat="45.85167" lon="4.37013">
        <ele>919.6</ele>
        <time>2022-06-26T11:28:40Z</time>
      </trkpt>
      <trkpt lat="45.85166" lon="4.37016">
        <ele>919.6</ele>
        <time>2022-06-26T11:28:41Z</time>
      </trkpt>
      <trkpt lat="45.85164" lon="4.3702">
        <ele>919.8</ele>
        <time>2022-06-26T11:28:42Z</time>
      </trkpt>
      <trkpt lat="45.85163" lon="4.37023">
        <ele>919.8</ele>
        <time>2022-06-26T11:28:43Z</time>
      </trkpt>
      <trkpt lat="45.85162" lon="4.37027">
        <ele>919.8</ele>
        <time>2022-06-26T11:28:44Z</time>
      </trkpt>
      <trkpt lat="45.85161" lon="4.3703">
        <ele>920.2</ele>
        <time>2022-06-26T11:28:45Z</time>
      </trkpt>
      <trkpt lat="45.8516" lon="4.37034">
        <ele>920.2</ele>
        <time>2022-06-26T11:28:46Z</time>
      </trkpt>
      <trkpt lat="45.85158" lon="4.37038">
        <ele>920.4</ele>
        <time>2022-06-26T11:28:47Z</time>
      </trkpt>
      <trkpt lat="45.85157" lon="4.37041">
        <ele>920.4</ele>
        <time>2022-06-26T11:28:48Z</time>
      </trkpt>
      <trkpt lat="45.85156" lon="4.37044">
        <ele>920.6</ele>
        <time>2022-06-26T11:28:49Z</time>
      </trkpt>
      <trkpt lat="45.85154" lon="4.37047">
        <ele>920.6</ele>
        <time>2022-06-26T11:28:50Z</time>
      </trkpt>
      <trkpt lat="45.85152" lon="4.3705">
        <ele>920.6</ele>
        <time>2022-06-26T11:28:51Z</time>
      </trkpt>
      <trkpt lat="45.85151" lon="4.37053">
        <ele>920.6</ele>
        <time>2022-06-26T11:28:52Z</time>
      </trkpt>
      <trkpt lat="45.85149" lon="4.37056">
        <ele>920.6</ele>
        <time>2022-06-26T11:28:53Z</time>
      </trkpt>
      <trkpt lat="45.85148" lon="4.37059">
        <ele>920.8</ele>
        <time>2022-06-26T11:28:54Z</time>
      </trkpt>
      <trkpt lat="45.85146" lon="4.37062">
        <ele>920.8</ele>
        <time>2022-06-26T11:28:55Z</time>
      </trkpt>
      <trkpt lat="45.85145" lon="4.37066">
        <ele>920.8</ele>
        <time>2022-06-26T11:28:56Z</time>
      </trkpt>
      <trkpt lat="45.85143" lon="4.37069">
        <ele>921</ele>
        <time>2022-06-26T11:28:57Z</time>
      </trkpt>
      <trkpt lat="45.85142" lon="4.37073">
        <ele>921</ele>
        <time>2022-06-26T11:28:58Z</time>
      </trkpt>
      <trkpt lat="45.8514" lon="4.37076">
        <ele>921</ele>
        <time>2022-06-26T11:28:59Z</time>
      </trkpt>
      <trkpt lat="45.85138" lon="4.3708">
        <ele>921.4</ele>
        <time>2022-06-26T11:29:00Z</time>
      </trkpt>
      <trkpt lat="45.85136" lon="4.37084">
        <ele>921.4</ele>
        <time>2022-06-26T11:29:01Z</time>
      </trkpt>
      <trkpt lat="45.85134" lon="4.37087">
        <ele>921.4</ele>
        <time>2022-06-26T11:29:02Z</time>
      </trkpt>
      <trkpt lat="45.85133" lon="4.3709">
        <ele>921.6</ele>
        <time>2022-06-26T11:29:03Z</time>
      </trkpt>
      <trkpt lat="45.8513" lon="4.37093">
        <ele>921.6</ele>
        <time>2022-06-26T11:29:04Z</time>
      </trkpt>
      <trkpt lat="45.85128" lon="4.37096">
        <ele>921.6</ele>
        <time>2022-06-26T11:29:05Z</time>
      </trkpt>
      <trkpt lat="45.85126" lon="4.37099">
        <ele>921.6</ele>
        <time>2022-06-26T11:29:06Z</time>
      </trkpt>
      <trkpt lat="45.85124" lon="4.37103">
        <ele>921.6</ele>
        <time>2022-06-26T11:29:07Z</time>
      </trkpt>
      <trkpt lat="45.85122" lon="4.37107">
        <ele>921.8</ele>
        <time>2022-06-26T11:29:08Z</time>
      </trkpt>
      <trkpt lat="45.8512" lon="4.37112">
        <ele>921.8</ele>
        <time>2022-06-26T11:29:09Z</time>
      </trkpt>
      <trkpt lat="45.85118" lon="4.37116">
        <ele>921.8</ele>
        <time>2022-06-26T11:29:10Z</time>
      </trkpt>
      <trkpt lat="45.85116" lon="4.37119">
        <ele>921.8</ele>
        <time>2022-06-26T11:29:11Z</time>
      </trkpt>
      <trkpt lat="45.85115" lon="4.37123">
        <ele>921.8</ele>
        <time>2022-06-26T11:29:12Z</time>
      </trkpt>
      <trkpt lat="45.85113" lon="4.37128">
        <ele>922</ele>
        <time>2022-06-26T11:29:13Z</time>
      </trkpt>
      <trkpt lat="45.85111" lon="4.37131">
        <ele>922</ele>
        <time>2022-06-26T11:29:14Z</time>
      </trkpt>
      <trkpt lat="45.85108" lon="4.37135">
        <ele>922</ele>
        <time>2022-06-26T11:29:15Z</time>
      </trkpt>
      <trkpt lat="45.85106" lon="4.37139">
        <ele>922</ele>
        <time>2022-06-26T11:29:16Z</time>
      </trkpt>
      <trkpt lat="45.85104" lon="4.37142">
        <ele>922</ele>
        <time>2022-06-26T11:29:17Z</time>
      </trkpt>
      <trkpt lat="45.85102" lon="4.37146">
        <ele>922</ele>
        <time>2022-06-26T11:29:18Z</time>
      </trkpt>
      <trkpt lat="45.85099" lon="4.37149">
        <ele>922</ele>
        <time>2022-06-26T11:29:19Z</time>
      </trkpt>
      <trkpt lat="45.85097" lon="4.37152">
        <ele>922</ele>
        <time>2022-06-26T11:29:20Z</time>
      </trkpt>
      <trkpt lat="45.85095" lon="4.37155">
        <ele>921.8</ele>
        <time>2022-06-26T11:29:21Z</time>
      </trkpt>
      <trkpt lat="45.85092" lon="4.37158">
        <ele>921.8</ele>
        <time>2022-06-26T11:29:22Z</time>
      </trkpt>
      <trkpt lat="45.85088" lon="4.37163">
        <ele>921.6</ele>
        <time>2022-06-26T11:29:23Z</time>
      </trkpt>
      <trkpt lat="45.85085" lon="4.37167">
        <ele>921.6</ele>
        <time>2022-06-26T11:29:24Z</time>
      </trkpt>
      <trkpt lat="45.85081" lon="4.37171">
        <ele>921.6</ele>
        <time>2022-06-26T11:29:25Z</time>
      </trkpt>
      <trkpt lat="45.85077" lon="4.37176">
        <ele>921.2</ele>
        <time>2022-06-26T11:29:26Z</time>
      </trkpt>
      <trkpt lat="45.85072" lon="4.37181">
        <ele>921.2</ele>
        <time>2022-06-26T11:29:27Z</time>
      </trkpt>
      <trkpt lat="45.85068" lon="4.37186">
        <ele>920.8</ele>
        <time>2022-06-26T11:29:28Z</time>
      </trkpt>
      <trkpt lat="45.85063" lon="4.37191">
        <ele>920.6</ele>
        <time>2022-06-26T11:29:29Z</time>
      </trkpt>
      <trkpt lat="45.85058" lon="4.37197">
        <ele>920.4</ele>
        <time>2022-06-26T11:29:30Z</time>
      </trkpt>
      <trkpt lat="45.85053" lon="4.37202">
        <ele>920</ele>
        <time>2022-06-26T11:29:31Z</time>
      </trkpt>
      <trkpt lat="45.85047" lon="4.37208">
        <ele>919.8</ele>
        <time>2022-06-26T11:29:32Z</time>
      </trkpt>
      <trkpt lat="45.85042" lon="4.37212">
        <ele>919.6</ele>
        <time>2022-06-26T11:29:33Z</time>
      </trkpt>
      <trkpt lat="45.85036" lon="4.37216">
        <ele>919.2</ele>
        <time>2022-06-26T11:29:34Z</time>
      </trkpt>
      <trkpt lat="45.85031" lon="4.3722">
        <ele>919.2</ele>
        <time>2022-06-26T11:29:35Z</time>
      </trkpt>
      <trkpt lat="45.85024" lon="4.37225">
        <ele>918.8</ele>
        <time>2022-06-26T11:29:36Z</time>
      </trkpt>
      <trkpt lat="45.85017" lon="4.37231">
        <ele>918.6</ele>
        <time>2022-06-26T11:29:37Z</time>
      </trkpt>
      <trkpt lat="45.8501" lon="4.37235">
        <ele>918</ele>
        <time>2022-06-26T11:29:38Z</time>
      </trkpt>
      <trkpt lat="45.85003" lon="4.37239">
        <ele>917.6</ele>
        <time>2022-06-26T11:29:39Z</time>
      </trkpt>
      <trkpt lat="45.84996" lon="4.37242">
        <ele>917.6</ele>
        <time>2022-06-26T11:29:40Z</time>
      </trkpt>
      <trkpt lat="45.8499" lon="4.37244">
        <ele>917.2</ele>
        <time>2022-06-26T11:29:41Z</time>
      </trkpt>
      <trkpt lat="45.84984" lon="4.37246">
        <ele>917.2</ele>
        <time>2022-06-26T11:29:42Z</time>
      </trkpt>
      <trkpt lat="45.84979" lon="4.37247">
        <ele>917.2</ele>
        <time>2022-06-26T11:29:43Z</time>
      </trkpt>
      <trkpt lat="45.84974" lon="4.37249">
        <ele>917.2</ele>
        <time>2022-06-26T11:29:44Z</time>
      </trkpt>
      <trkpt lat="45.8497" lon="4.3725">
        <ele>917.2</ele>
        <time>2022-06-26T11:29:45Z</time>
      </trkpt>
      <trkpt lat="45.84966" lon="4.37251">
        <ele>917.2</ele>
        <time>2022-06-26T11:29:46Z</time>
      </trkpt>
      <trkpt lat="45.84961" lon="4.37251">
        <ele>917.2</ele>
        <time>2022-06-26T11:29:47Z</time>
      </trkpt>
      <trkpt lat="45.84957" lon="4.37251">
        <ele>917.2</ele>
        <time>2022-06-26T11:29:48Z</time>
      </trkpt>
      <trkpt lat="45.84953" lon="4.37252">
        <ele>917.2</ele>
        <time>2022-06-26T11:29:49Z</time>
      </trkpt>
      <trkpt lat="45.84949" lon="4.37254">
        <ele>917.4</ele>
        <time>2022-06-26T11:29:51Z</time>
      </trkpt>
      <trkpt lat="45.84946" lon="4.37255">
        <ele>917.4</ele>
        <time>2022-06-26T11:29:52Z</time>
      </trkpt>
      <trkpt lat="45.84943" lon="4.37256">
        <ele>917.8</ele>
        <time>2022-06-26T11:29:53Z</time>
      </trkpt>
      <trkpt lat="45.8494" lon="4.37257">
        <ele>917.8</ele>
        <time>2022-06-26T11:29:54Z</time>
      </trkpt>
      <trkpt lat="45.84938" lon="4.37258">
        <ele>918</ele>
        <time>2022-06-26T11:29:55Z</time>
      </trkpt>
      <trkpt lat="45.84934" lon="4.37258">
        <ele>918</ele>
        <time>2022-06-26T11:29:56Z</time>
      </trkpt>
      <trkpt lat="45.84931" lon="4.37259">
        <ele>918.4</ele>
        <time>2022-06-26T11:29:57Z</time>
      </trkpt>
      <trkpt lat="45.84929" lon="4.37259">
        <ele>918.4</ele>
        <time>2022-06-26T11:29:58Z</time>
      </trkpt>
      <trkpt lat="45.84927" lon="4.3726">
        <ele>918.8</ele>
        <time>2022-06-26T11:29:59Z</time>
      </trkpt>
      <trkpt lat="45.84925" lon="4.37261">
        <ele>919</ele>
        <time>2022-06-26T11:30:00Z</time>
      </trkpt>
      <trkpt lat="45.84921" lon="4.37262">
        <ele>919.2</ele>
        <time>2022-06-26T11:30:01Z</time>
      </trkpt>
      <trkpt lat="45.84918" lon="4.37263">
        <ele>919.4</ele>
        <time>2022-06-26T11:30:02Z</time>
      </trkpt>
      <trkpt lat="45.84914" lon="4.37263">
        <ele>919.6</ele>
        <time>2022-06-26T11:30:03Z</time>
      </trkpt>
      <trkpt lat="45.84912" lon="4.37264">
        <ele>919.8</ele>
        <time>2022-06-26T11:30:04Z</time>
      </trkpt>
      <trkpt lat="45.84908" lon="4.37265">
        <ele>920.2</ele>
        <time>2022-06-26T11:30:05Z</time>
      </trkpt>
      <trkpt lat="45.84905" lon="4.37266">
        <ele>920.2</ele>
        <time>2022-06-26T11:30:06Z</time>
      </trkpt>
      <trkpt lat="45.84903" lon="4.37266">
        <ele>920.6</ele>
        <time>2022-06-26T11:30:07Z</time>
      </trkpt>
      <trkpt lat="45.849" lon="4.37267">
        <ele>920.6</ele>
        <time>2022-06-26T11:30:08Z</time>
      </trkpt>
      <trkpt lat="45.84897" lon="4.37267">
        <ele>921</ele>
        <time>2022-06-26T11:30:09Z</time>
      </trkpt>
      <trkpt lat="45.84894" lon="4.37267">
        <ele>921.2</ele>
        <time>2022-06-26T11:30:10Z</time>
      </trkpt>
      <trkpt lat="45.8489" lon="4.37268">
        <ele>921.4</ele>
        <time>2022-06-26T11:30:11Z</time>
      </trkpt>
      <trkpt lat="45.84887" lon="4.37268">
        <ele>921.4</ele>
        <time>2022-06-26T11:30:12Z</time>
      </trkpt>
      <trkpt lat="45.84885" lon="4.37268">
        <ele>921.8</ele>
        <time>2022-06-26T11:30:13Z</time>
      </trkpt>
      <trkpt lat="45.84882" lon="4.37269">
        <ele>922</ele>
        <time>2022-06-26T11:30:14Z</time>
      </trkpt>
      <trkpt lat="45.84876" lon="4.37271">
        <ele>922</ele>
        <time>2022-06-26T11:30:15Z</time>
      </trkpt>
      <trkpt lat="45.84873" lon="4.37271">
        <ele>922.2</ele>
        <time>2022-06-26T11:30:16Z</time>
      </trkpt>
      <trkpt lat="45.84871" lon="4.37272">
        <ele>922.2</ele>
        <time>2022-06-26T11:30:17Z</time>
      </trkpt>
      <trkpt lat="45.84868" lon="4.37273">
        <ele>922.4</ele>
        <time>2022-06-26T11:30:18Z</time>
      </trkpt>
      <trkpt lat="45.84866" lon="4.37273">
        <ele>922.4</ele>
        <time>2022-06-26T11:30:19Z</time>
      </trkpt>
      <trkpt lat="45.84865" lon="4.37273">
        <ele>922.8</ele>
        <time>2022-06-26T11:30:20Z</time>
      </trkpt>
      <trkpt lat="45.84863" lon="4.37274">
        <ele>922.8</ele>
        <time>2022-06-26T11:30:21Z</time>
      </trkpt>
      <trkpt lat="45.8486" lon="4.37274">
        <ele>923</ele>
        <time>2022-06-26T11:30:22Z</time>
      </trkpt>
      <trkpt lat="45.84857" lon="4.37275">
        <ele>923</ele>
        <time>2022-06-26T11:30:23Z</time>
      </trkpt>
      <trkpt lat="45.84853" lon="4.37276">
        <ele>923</ele>
        <time>2022-06-26T11:30:24Z</time>
      </trkpt>
      <trkpt lat="45.84849" lon="4.37277">
        <ele>923.2</ele>
        <time>2022-06-26T11:30:25Z</time>
      </trkpt>
      <trkpt lat="45.84847" lon="4.37277">
        <ele>923.2</ele>
        <time>2022-06-26T11:30:26Z</time>
      </trkpt>
      <trkpt lat="45.84844" lon="4.37277">
        <ele>923.2</ele>
        <time>2022-06-26T11:30:27Z</time>
      </trkpt>
      <trkpt lat="45.84842" lon="4.37278">
        <ele>923.2</ele>
        <time>2022-06-26T11:30:28Z</time>
      </trkpt>
      <trkpt lat="45.84839" lon="4.37278">
        <ele>923.2</ele>
        <time>2022-06-26T11:30:29Z</time>
      </trkpt>
      <trkpt lat="45.84837" lon="4.37279">
        <ele>923.2</ele>
        <time>2022-06-26T11:30:30Z</time>
      </trkpt>
      <trkpt lat="45.84834" lon="4.37279">
        <ele>923.2</ele>
        <time>2022-06-26T11:30:31Z</time>
      </trkpt>
      <trkpt lat="45.84831" lon="4.3728">
        <ele>923.4</ele>
        <time>2022-06-26T11:30:32Z</time>
      </trkpt>
      <trkpt lat="45.84829" lon="4.37281">
        <ele>923.4</ele>
        <time>2022-06-26T11:30:33Z</time>
      </trkpt>
      <trkpt lat="45.84826" lon="4.37281">
        <ele>923.4</ele>
        <time>2022-06-26T11:30:34Z</time>
      </trkpt>
      <trkpt lat="45.84823" lon="4.37282">
        <ele>923.4</ele>
        <time>2022-06-26T11:30:35Z</time>
      </trkpt>
      <trkpt lat="45.84821" lon="4.37283">
        <ele>923.4</ele>
        <time>2022-06-26T11:30:36Z</time>
      </trkpt>
      <trkpt lat="45.84817" lon="4.37284">
        <ele>923.4</ele>
        <time>2022-06-26T11:30:37Z</time>
      </trkpt>
      <trkpt lat="45.84816" lon="4.37285">
        <ele>923.4</ele>
        <time>2022-06-26T11:30:38Z</time>
      </trkpt>
      <trkpt lat="45.84815" lon="4.37285">
        <ele>923.4</ele>
        <time>2022-06-26T11:30:39Z</time>
      </trkpt>
      <trkpt lat="45.84813" lon="4.37286">
        <ele>923.4</ele>
        <time>2022-06-26T11:30:40Z</time>
      </trkpt>
      <trkpt lat="45.84808" lon="4.37287">
        <ele>923.4</ele>
        <time>2022-06-26T11:30:41Z</time>
      </trkpt>
      <trkpt lat="45.84803" lon="4.37288">
        <ele>923.4</ele>
        <time>2022-06-26T11:30:42Z</time>
      </trkpt>
      <trkpt lat="45.84799" lon="4.37289">
        <ele>923.4</ele>
        <time>2022-06-26T11:30:43Z</time>
      </trkpt>
      <trkpt lat="45.84796" lon="4.37289">
        <ele>923.6</ele>
        <time>2022-06-26T11:30:44Z</time>
      </trkpt>
      <trkpt lat="45.84793" lon="4.37289">
        <ele>923.6</ele>
        <time>2022-06-26T11:30:45Z</time>
      </trkpt>
      <trkpt lat="45.8479" lon="4.37289">
        <ele>923.6</ele>
        <time>2022-06-26T11:30:46Z</time>
      </trkpt>
      <trkpt lat="45.84787" lon="4.3729">
        <ele>923.6</ele>
        <time>2022-06-26T11:30:47Z</time>
      </trkpt>
      <trkpt lat="45.84785" lon="4.37291">
        <ele>924</ele>
        <time>2022-06-26T11:30:48Z</time>
      </trkpt>
      <trkpt lat="45.84781" lon="4.37293">
        <ele>924</ele>
        <time>2022-06-26T11:30:49Z</time>
      </trkpt>
      <trkpt lat="45.84777" lon="4.37295">
        <ele>924.2</ele>
        <time>2022-06-26T11:30:50Z</time>
      </trkpt>
      <trkpt lat="45.84774" lon="4.37296">
        <ele>924.2</ele>
        <time>2022-06-26T11:30:51Z</time>
      </trkpt>
      <trkpt lat="45.84771" lon="4.37298">
        <ele>924.2</ele>
        <time>2022-06-26T11:30:52Z</time>
      </trkpt>
      <trkpt lat="45.84767" lon="4.373">
        <ele>924.6</ele>
        <time>2022-06-26T11:30:53Z</time>
      </trkpt>
      <trkpt lat="45.84763" lon="4.37302">
        <ele>924.6</ele>
        <time>2022-06-26T11:30:54Z</time>
      </trkpt>
      <trkpt lat="45.8476" lon="4.37304">
        <ele>924.6</ele>
        <time>2022-06-26T11:30:55Z</time>
      </trkpt>
      <trkpt lat="45.84757" lon="4.37306">
        <ele>924.8</ele>
        <time>2022-06-26T11:30:56Z</time>
      </trkpt>
      <trkpt lat="45.84753" lon="4.37307">
        <ele>924.8</ele>
        <time>2022-06-26T11:30:57Z</time>
      </trkpt>
      <trkpt lat="45.8475" lon="4.37309">
        <ele>924.8</ele>
        <time>2022-06-26T11:30:58Z</time>
      </trkpt>
      <trkpt lat="45.84748" lon="4.37309">
        <ele>924.8</ele>
        <time>2022-06-26T11:30:59Z</time>
      </trkpt>
      <trkpt lat="45.84745" lon="4.37311">
        <ele>925</ele>
        <time>2022-06-26T11:31:00Z</time>
      </trkpt>
      <trkpt lat="45.84742" lon="4.37312">
        <ele>925</ele>
        <time>2022-06-26T11:31:01Z</time>
      </trkpt>
      <trkpt lat="45.84738" lon="4.37315">
        <ele>925.2</ele>
        <time>2022-06-26T11:31:02Z</time>
      </trkpt>
      <trkpt lat="45.84735" lon="4.37317">
        <ele>925.2</ele>
        <time>2022-06-26T11:31:03Z</time>
      </trkpt>
      <trkpt lat="45.84732" lon="4.3732">
        <ele>925.2</ele>
        <time>2022-06-26T11:31:04Z</time>
      </trkpt>
      <trkpt lat="45.84729" lon="4.37322">
        <ele>925.6</ele>
        <time>2022-06-26T11:31:05Z</time>
      </trkpt>
      <trkpt lat="45.84725" lon="4.37325">
        <ele>925.6</ele>
        <time>2022-06-26T11:31:06Z</time>
      </trkpt>
      <trkpt lat="45.84722" lon="4.37327">
        <ele>925.8</ele>
        <time>2022-06-26T11:31:07Z</time>
      </trkpt>
      <trkpt lat="45.84717" lon="4.37329">
        <ele>925.8</ele>
        <time>2022-06-26T11:31:08Z</time>
      </trkpt>
      <trkpt lat="45.84714" lon="4.3733">
        <ele>926</ele>
        <time>2022-06-26T11:31:09Z</time>
      </trkpt>
      <trkpt lat="45.8471" lon="4.37332">
        <ele>926</ele>
        <time>2022-06-26T11:31:10Z</time>
      </trkpt>
      <trkpt lat="45.84707" lon="4.37334">
        <ele>926.2</ele>
        <time>2022-06-26T11:31:11Z</time>
      </trkpt>
      <trkpt lat="45.84704" lon="4.37336">
        <ele>926.2</ele>
        <time>2022-06-26T11:31:12Z</time>
      </trkpt>
      <trkpt lat="45.84701" lon="4.37338">
        <ele>926.4</ele>
        <time>2022-06-26T11:31:13Z</time>
      </trkpt>
      <trkpt lat="45.84698" lon="4.3734">
        <ele>926.4</ele>
        <time>2022-06-26T11:31:14Z</time>
      </trkpt>
      <trkpt lat="45.84695" lon="4.37342">
        <ele>926.4</ele>
        <time>2022-06-26T11:31:15Z</time>
      </trkpt>
      <trkpt lat="45.84691" lon="4.37345">
        <ele>926.4</ele>
        <time>2022-06-26T11:31:16Z</time>
      </trkpt>
      <trkpt lat="45.84688" lon="4.37347">
        <ele>926.4</ele>
        <time>2022-06-26T11:31:17Z</time>
      </trkpt>
      <trkpt lat="45.84685" lon="4.3735">
        <ele>926.6</ele>
        <time>2022-06-26T11:31:18Z</time>
      </trkpt>
      <trkpt lat="45.84682" lon="4.37353">
        <ele>926.6</ele>
        <time>2022-06-26T11:31:19Z</time>
      </trkpt>
      <trkpt lat="45.84679" lon="4.37355">
        <ele>926.6</ele>
        <time>2022-06-26T11:31:20Z</time>
      </trkpt>
      <trkpt lat="45.84675" lon="4.37358">
        <ele>926.6</ele>
        <time>2022-06-26T11:31:21Z</time>
      </trkpt>
      <trkpt lat="45.84672" lon="4.37361">
        <ele>926.6</ele>
        <time>2022-06-26T11:31:22Z</time>
      </trkpt>
      <trkpt lat="45.84664" lon="4.37367">
        <ele>926.6</ele>
        <time>2022-06-26T11:31:23Z</time>
      </trkpt>
      <trkpt lat="45.8466" lon="4.37369">
        <ele>926.6</ele>
        <time>2022-06-26T11:31:24Z</time>
      </trkpt>
      <trkpt lat="45.84657" lon="4.37372">
        <ele>926.6</ele>
        <time>2022-06-26T11:31:25Z</time>
      </trkpt>
      <trkpt lat="45.84654" lon="4.37375">
        <ele>926.6</ele>
        <time>2022-06-26T11:31:26Z</time>
      </trkpt>
      <trkpt lat="45.84651" lon="4.37378">
        <ele>926.6</ele>
        <time>2022-06-26T11:31:27Z</time>
      </trkpt>
      <trkpt lat="45.84648" lon="4.3738">
        <ele>926.6</ele>
        <time>2022-06-26T11:31:28Z</time>
      </trkpt>
      <trkpt lat="45.84645" lon="4.37382">
        <ele>926.6</ele>
        <time>2022-06-26T11:31:29Z</time>
      </trkpt>
      <trkpt lat="45.84643" lon="4.37385">
        <ele>926.6</ele>
        <time>2022-06-26T11:31:30Z</time>
      </trkpt>
      <trkpt lat="45.8464" lon="4.37387">
        <ele>926.6</ele>
        <time>2022-06-26T11:31:31Z</time>
      </trkpt>
      <trkpt lat="45.84638" lon="4.3739">
        <ele>926.6</ele>
        <time>2022-06-26T11:31:32Z</time>
      </trkpt>
      <trkpt lat="45.84636" lon="4.37391">
        <ele>927</ele>
        <time>2022-06-26T11:31:33Z</time>
      </trkpt>
      <trkpt lat="45.84635" lon="4.37393">
        <ele>927</ele>
        <time>2022-06-26T11:31:34Z</time>
      </trkpt>
      <trkpt lat="45.84634" lon="4.37394">
        <ele>927</ele>
        <time>2022-06-26T11:31:35Z</time>
      </trkpt>
      <trkpt lat="45.84634" lon="4.37395">
        <ele>927</ele>
        <time>2022-06-26T11:31:36Z</time>
      </trkpt>
      <trkpt lat="45.84631" lon="4.37399">
        <ele>926.6</ele>
        <time>2022-06-26T11:32:26Z</time>
      </trkpt>
      <trkpt lat="45.8463" lon="4.37401">
        <ele>926.6</ele>
        <time>2022-06-26T11:32:27Z</time>
      </trkpt>
      <trkpt lat="45.84628" lon="4.37403">
        <ele>926.6</ele>
        <time>2022-06-26T11:32:28Z</time>
      </trkpt>
      <trkpt lat="45.84626" lon="4.37406">
        <ele>926.6</ele>
        <time>2022-06-26T11:32:29Z</time>
      </trkpt>
      <trkpt lat="45.84624" lon="4.37409">
        <ele>926.6</ele>
        <time>2022-06-26T11:32:30Z</time>
      </trkpt>
      <trkpt lat="45.84623" lon="4.37411">
        <ele>926.6</ele>
        <time>2022-06-26T11:32:31Z</time>
      </trkpt>
      <trkpt lat="45.8462" lon="4.37414">
        <ele>926.6</ele>
        <time>2022-06-26T11:32:32Z</time>
      </trkpt>
      <trkpt lat="45.84618" lon="4.37417">
        <ele>926.6</ele>
        <time>2022-06-26T11:32:33Z</time>
      </trkpt>
      <trkpt lat="45.84616" lon="4.3742">
        <ele>926.6</ele>
        <time>2022-06-26T11:32:34Z</time>
      </trkpt>
      <trkpt lat="45.84613" lon="4.37423">
        <ele>927</ele>
        <time>2022-06-26T11:32:35Z</time>
      </trkpt>
      <trkpt lat="45.84611" lon="4.37427">
        <ele>927</ele>
        <time>2022-06-26T11:32:36Z</time>
      </trkpt>
      <trkpt lat="45.84608" lon="4.3743">
        <ele>927</ele>
        <time>2022-06-26T11:32:37Z</time>
      </trkpt>
      <trkpt lat="45.84606" lon="4.37434">
        <ele>927</ele>
        <time>2022-06-26T11:32:38Z</time>
      </trkpt>
      <trkpt lat="45.84603" lon="4.37437">
        <ele>927</ele>
        <time>2022-06-26T11:32:39Z</time>
      </trkpt>
      <trkpt lat="45.84601" lon="4.37441">
        <ele>927</ele>
        <time>2022-06-26T11:32:40Z</time>
      </trkpt>
      <trkpt lat="45.84599" lon="4.37444">
        <ele>927</ele>
        <time>2022-06-26T11:32:41Z</time>
      </trkpt>
      <trkpt lat="45.84597" lon="4.37448">
        <ele>927.2</ele>
        <time>2022-06-26T11:32:42Z</time>
      </trkpt>
      <trkpt lat="45.84594" lon="4.37451">
        <ele>927.2</ele>
        <time>2022-06-26T11:32:43Z</time>
      </trkpt>
      <trkpt lat="45.84592" lon="4.37454">
        <ele>927.2</ele>
        <time>2022-06-26T11:32:44Z</time>
      </trkpt>
      <trkpt lat="45.8459" lon="4.37458">
        <ele>927.4</ele>
        <time>2022-06-26T11:32:45Z</time>
      </trkpt>
      <trkpt lat="45.84587" lon="4.37461">
        <ele>927.4</ele>
        <time>2022-06-26T11:32:46Z</time>
      </trkpt>
      <trkpt lat="45.84586" lon="4.37465">
        <ele>927.4</ele>
        <time>2022-06-26T11:32:47Z</time>
      </trkpt>
      <trkpt lat="45.84584" lon="4.37468">
        <ele>927.4</ele>
        <time>2022-06-26T11:32:48Z</time>
      </trkpt>
      <trkpt lat="45.84581" lon="4.37471">
        <ele>927.6</ele>
        <time>2022-06-26T11:32:49Z</time>
      </trkpt>
      <trkpt lat="45.8458" lon="4.37475">
        <ele>927.6</ele>
        <time>2022-06-26T11:32:50Z</time>
      </trkpt>
      <trkpt lat="45.84578" lon="4.37477">
        <ele>927.6</ele>
        <time>2022-06-26T11:32:51Z</time>
      </trkpt>
      <trkpt lat="45.84576" lon="4.3748">
        <ele>927.8</ele>
        <time>2022-06-26T11:32:52Z</time>
      </trkpt>
      <trkpt lat="45.84574" lon="4.37483">
        <ele>927.8</ele>
        <time>2022-06-26T11:32:53Z</time>
      </trkpt>
      <trkpt lat="45.84572" lon="4.37486">
        <ele>928</ele>
        <time>2022-06-26T11:32:54Z</time>
      </trkpt>
      <trkpt lat="45.8457" lon="4.37488">
        <ele>928</ele>
        <time>2022-06-26T11:32:55Z</time>
      </trkpt>
      <trkpt lat="45.84568" lon="4.37491">
        <ele>928.2</ele>
        <time>2022-06-26T11:32:56Z</time>
      </trkpt>
      <trkpt lat="45.84566" lon="4.37495">
        <ele>928.2</ele>
        <time>2022-06-26T11:32:57Z</time>
      </trkpt>
      <trkpt lat="45.84564" lon="4.37498">
        <ele>928.2</ele>
        <time>2022-06-26T11:32:58Z</time>
      </trkpt>
      <trkpt lat="45.84562" lon="4.37502">
        <ele>928.6</ele>
        <time>2022-06-26T11:32:59Z</time>
      </trkpt>
      <trkpt lat="45.8456" lon="4.37505">
        <ele>928.6</ele>
        <time>2022-06-26T11:33:00Z</time>
      </trkpt>
      <trkpt lat="45.84558" lon="4.37508">
        <ele>928.6</ele>
        <time>2022-06-26T11:33:01Z</time>
      </trkpt>
      <trkpt lat="45.84556" lon="4.37511">
        <ele>928.8</ele>
        <time>2022-06-26T11:33:02Z</time>
      </trkpt>
      <trkpt lat="45.84555" lon="4.37514">
        <ele>929</ele>
        <time>2022-06-26T11:33:03Z</time>
      </trkpt>
      <trkpt lat="45.84553" lon="4.37518">
        <ele>929.2</ele>
        <time>2022-06-26T11:33:04Z</time>
      </trkpt>
      <trkpt lat="45.84552" lon="4.37521">
        <ele>929.2</ele>
        <time>2022-06-26T11:33:05Z</time>
      </trkpt>
      <trkpt lat="45.8455" lon="4.37524">
        <ele>929.6</ele>
        <time>2022-06-26T11:33:06Z</time>
      </trkpt>
      <trkpt lat="45.84549" lon="4.37528">
        <ele>929.8</ele>
        <time>2022-06-26T11:33:07Z</time>
      </trkpt>
      <trkpt lat="45.84547" lon="4.37531">
        <ele>929.8</ele>
        <time>2022-06-26T11:33:08Z</time>
      </trkpt>
      <trkpt lat="45.84546" lon="4.37534">
        <ele>930</ele>
        <time>2022-06-26T11:33:09Z</time>
      </trkpt>
      <trkpt lat="45.84544" lon="4.37538">
        <ele>930</ele>
        <time>2022-06-26T11:33:11Z</time>
      </trkpt>
      <trkpt lat="45.84542" lon="4.37542">
        <ele>930</ele>
        <time>2022-06-26T11:33:12Z</time>
      </trkpt>
      <trkpt lat="45.8454" lon="4.37546">
        <ele>930.2</ele>
        <time>2022-06-26T11:33:13Z</time>
      </trkpt>
      <trkpt lat="45.84538" lon="4.3755">
        <ele>930.2</ele>
        <time>2022-06-26T11:33:14Z</time>
      </trkpt>
      <trkpt lat="45.84536" lon="4.37554">
        <ele>930.2</ele>
        <time>2022-06-26T11:33:15Z</time>
      </trkpt>
      <trkpt lat="45.84534" lon="4.37558">
        <ele>930.4</ele>
        <time>2022-06-26T11:33:16Z</time>
      </trkpt>
      <trkpt lat="45.84532" lon="4.37562">
        <ele>930.4</ele>
        <time>2022-06-26T11:33:17Z</time>
      </trkpt>
      <trkpt lat="45.8453" lon="4.37565">
        <ele>930.4</ele>
        <time>2022-06-26T11:33:18Z</time>
      </trkpt>
      <trkpt lat="45.84529" lon="4.37569">
        <ele>930.4</ele>
        <time>2022-06-26T11:33:19Z</time>
      </trkpt>
      <trkpt lat="45.84527" lon="4.37573">
        <ele>930.4</ele>
        <time>2022-06-26T11:33:20Z</time>
      </trkpt>
      <trkpt lat="45.84524" lon="4.37577">
        <ele>930.4</ele>
        <time>2022-06-26T11:33:21Z</time>
      </trkpt>
      <trkpt lat="45.84522" lon="4.37582">
        <ele>930.4</ele>
        <time>2022-06-26T11:33:22Z</time>
      </trkpt>
      <trkpt lat="45.84518" lon="4.37587">
        <ele>930</ele>
        <time>2022-06-26T11:33:23Z</time>
      </trkpt>
      <trkpt lat="45.84515" lon="4.37594">
        <ele>930</ele>
        <time>2022-06-26T11:33:24Z</time>
      </trkpt>
      <trkpt lat="45.84511" lon="4.37599">
        <ele>929.8</ele>
        <time>2022-06-26T11:33:25Z</time>
      </trkpt>
      <trkpt lat="45.84507" lon="4.37606">
        <ele>929.8</ele>
        <time>2022-06-26T11:33:26Z</time>
      </trkpt>
      <trkpt lat="45.84504" lon="4.37613">
        <ele>929.4</ele>
        <time>2022-06-26T11:33:27Z</time>
      </trkpt>
      <trkpt lat="45.84499" lon="4.37622">
        <ele>929.4</ele>
        <time>2022-06-26T11:33:28Z</time>
      </trkpt>
      <trkpt lat="45.84494" lon="4.37632">
        <ele>929.2</ele>
        <time>2022-06-26T11:33:29Z</time>
      </trkpt>
      <trkpt lat="45.84489" lon="4.37641">
        <ele>929.2</ele>
        <time>2022-06-26T11:33:30Z</time>
      </trkpt>
      <trkpt lat="45.84484" lon="4.3765">
        <ele>928.6</ele>
        <time>2022-06-26T11:33:31Z</time>
      </trkpt>
      <trkpt lat="45.84479" lon="4.3766">
        <ele>928.4</ele>
        <time>2022-06-26T11:33:32Z</time>
      </trkpt>
      <trkpt lat="45.84474" lon="4.37668">
        <ele>928.2</ele>
        <time>2022-06-26T11:33:33Z</time>
      </trkpt>
      <trkpt lat="45.84469" lon="4.37677">
        <ele>928.2</ele>
        <time>2022-06-26T11:33:34Z</time>
      </trkpt>
      <trkpt lat="45.84465" lon="4.37686">
        <ele>928</ele>
        <time>2022-06-26T11:33:35Z</time>
      </trkpt>
      <trkpt lat="45.8446" lon="4.37694">
        <ele>927.6</ele>
        <time>2022-06-26T11:33:36Z</time>
      </trkpt>
      <trkpt lat="45.84456" lon="4.37702">
        <ele>927.6</ele>
        <time>2022-06-26T11:33:37Z</time>
      </trkpt>
      <trkpt lat="45.84451" lon="4.3771">
        <ele>927.4</ele>
        <time>2022-06-26T11:33:38Z</time>
      </trkpt>
      <trkpt lat="45.84446" lon="4.37718">
        <ele>927.4</ele>
        <time>2022-06-26T11:33:39Z</time>
      </trkpt>
      <trkpt lat="45.84442" lon="4.37726">
        <ele>927.2</ele>
        <time>2022-06-26T11:33:40Z</time>
      </trkpt>
      <trkpt lat="45.84437" lon="4.37734">
        <ele>927.2</ele>
        <time>2022-06-26T11:33:41Z</time>
      </trkpt>
      <trkpt lat="45.84433" lon="4.37741">
        <ele>927.2</ele>
        <time>2022-06-26T11:33:42Z</time>
      </trkpt>
      <trkpt lat="45.84428" lon="4.37749">
        <ele>927.2</ele>
        <time>2022-06-26T11:33:43Z</time>
      </trkpt>
      <trkpt lat="45.84424" lon="4.37756">
        <ele>927.2</ele>
        <time>2022-06-26T11:33:44Z</time>
      </trkpt>
      <trkpt lat="45.84419" lon="4.37762">
        <ele>927.2</ele>
        <time>2022-06-26T11:33:45Z</time>
      </trkpt>
      <trkpt lat="45.84415" lon="4.37769">
        <ele>927.2</ele>
        <time>2022-06-26T11:33:46Z</time>
      </trkpt>
      <trkpt lat="45.8441" lon="4.37776">
        <ele>927.2</ele>
        <time>2022-06-26T11:33:47Z</time>
      </trkpt>
      <trkpt lat="45.84406" lon="4.37783">
        <ele>927.2</ele>
        <time>2022-06-26T11:33:48Z</time>
      </trkpt>
      <trkpt lat="45.84402" lon="4.37789">
        <ele>927.2</ele>
        <time>2022-06-26T11:33:49Z</time>
      </trkpt>
      <trkpt lat="45.84399" lon="4.37795">
        <ele>927.4</ele>
        <time>2022-06-26T11:33:50Z</time>
      </trkpt>
      <trkpt lat="45.84395" lon="4.378">
        <ele>927.4</ele>
        <time>2022-06-26T11:33:51Z</time>
      </trkpt>
      <trkpt lat="45.84392" lon="4.37805">
        <ele>927.8</ele>
        <time>2022-06-26T11:33:52Z</time>
      </trkpt>
      <trkpt lat="45.84389" lon="4.3781">
        <ele>927.8</ele>
        <time>2022-06-26T11:33:53Z</time>
      </trkpt>
      <trkpt lat="45.84386" lon="4.37815">
        <ele>928</ele>
        <time>2022-06-26T11:33:54Z</time>
      </trkpt>
      <trkpt lat="45.84383" lon="4.37819">
        <ele>928</ele>
        <time>2022-06-26T11:33:55Z</time>
      </trkpt>
      <trkpt lat="45.8438" lon="4.37824">
        <ele>928.4</ele>
        <time>2022-06-26T11:33:56Z</time>
      </trkpt>
      <trkpt lat="45.84377" lon="4.37828">
        <ele>928.4</ele>
        <time>2022-06-26T11:33:57Z</time>
      </trkpt>
      <trkpt lat="45.84375" lon="4.37832">
        <ele>928.4</ele>
        <time>2022-06-26T11:33:58Z</time>
      </trkpt>
      <trkpt lat="45.84372" lon="4.37835">
        <ele>928.4</ele>
        <time>2022-06-26T11:33:59Z</time>
      </trkpt>
      <trkpt lat="45.84369" lon="4.37838">
        <ele>928.4</ele>
        <time>2022-06-26T11:34:00Z</time>
      </trkpt>
      <trkpt lat="45.84366" lon="4.37841">
        <ele>928.4</ele>
        <time>2022-06-26T11:34:01Z</time>
      </trkpt>
      <trkpt lat="45.84363" lon="4.37844">
        <ele>928.4</ele>
        <time>2022-06-26T11:34:02Z</time>
      </trkpt>
      <trkpt lat="45.84361" lon="4.37848">
        <ele>928.4</ele>
        <time>2022-06-26T11:34:03Z</time>
      </trkpt>
      <trkpt lat="45.84358" lon="4.37853">
        <ele>928.4</ele>
        <time>2022-06-26T11:34:04Z</time>
      </trkpt>
      <trkpt lat="45.84354" lon="4.37857">
        <ele>928.4</ele>
        <time>2022-06-26T11:34:05Z</time>
      </trkpt>
      <trkpt lat="45.84351" lon="4.37862">
        <ele>928.4</ele>
        <time>2022-06-26T11:34:06Z</time>
      </trkpt>
      <trkpt lat="45.84347" lon="4.37867">
        <ele>928</ele>
        <time>2022-06-26T11:34:07Z</time>
      </trkpt>
      <trkpt lat="45.84345" lon="4.37872">
        <ele>928</ele>
        <time>2022-06-26T11:34:08Z</time>
      </trkpt>
      <trkpt lat="45.84341" lon="4.37878">
        <ele>927.8</ele>
        <time>2022-06-26T11:34:09Z</time>
      </trkpt>
      <trkpt lat="45.84338" lon="4.37883">
        <ele>927.8</ele>
        <time>2022-06-26T11:34:10Z</time>
      </trkpt>
      <trkpt lat="45.84334" lon="4.37889">
        <ele>927.8</ele>
        <time>2022-06-26T11:34:11Z</time>
      </trkpt>
      <trkpt lat="45.84328" lon="4.37898">
        <ele>927.4</ele>
        <time>2022-06-26T11:34:12Z</time>
      </trkpt>
      <trkpt lat="45.84325" lon="4.37901">
        <ele>927.2</ele>
        <time>2022-06-26T11:34:13Z</time>
      </trkpt>
      <trkpt lat="45.84321" lon="4.37908">
        <ele>926.8</ele>
        <time>2022-06-26T11:34:14Z</time>
      </trkpt>
      <trkpt lat="45.84317" lon="4.37916">
        <ele>926.4</ele>
        <time>2022-06-26T11:34:15Z</time>
      </trkpt>
      <trkpt lat="45.84312" lon="4.37924">
        <ele>926</ele>
        <time>2022-06-26T11:34:16Z</time>
      </trkpt>
      <trkpt lat="45.84306" lon="4.37932">
        <ele>925.6</ele>
        <time>2022-06-26T11:34:17Z</time>
      </trkpt>
      <trkpt lat="45.843" lon="4.37941">
        <ele>925</ele>
        <time>2022-06-26T11:34:18Z</time>
      </trkpt>
      <trkpt lat="45.84294" lon="4.37951">
        <ele>924.4</ele>
        <time>2022-06-26T11:34:19Z</time>
      </trkpt>
      <trkpt lat="45.84286" lon="4.37964">
        <ele>923.8</ele>
        <time>2022-06-26T11:34:20Z</time>
      </trkpt>
      <trkpt lat="45.84277" lon="4.37978">
        <ele>923.2</ele>
        <time>2022-06-26T11:34:21Z</time>
      </trkpt>
      <trkpt lat="45.84268" lon="4.37992">
        <ele>922.4</ele>
        <time>2022-06-26T11:34:22Z</time>
      </trkpt>
      <trkpt lat="45.8426" lon="4.38005">
        <ele>921.8</ele>
        <time>2022-06-26T11:34:23Z</time>
      </trkpt>
      <trkpt lat="45.84252" lon="4.38017">
        <ele>921.2</ele>
        <time>2022-06-26T11:34:24Z</time>
      </trkpt>
      <trkpt lat="45.84244" lon="4.38028">
        <ele>920.2</ele>
        <time>2022-06-26T11:34:25Z</time>
      </trkpt>
      <trkpt lat="45.84237" lon="4.3804">
        <ele>919.2</ele>
        <time>2022-06-26T11:34:26Z</time>
      </trkpt>
      <trkpt lat="45.8423" lon="4.38051">
        <ele>918.2</ele>
        <time>2022-06-26T11:34:27Z</time>
      </trkpt>
      <trkpt lat="45.84222" lon="4.38062">
        <ele>916.2</ele>
        <time>2022-06-26T11:34:29Z</time>
      </trkpt>
      <trkpt lat="45.84215" lon="4.38074">
        <ele>915.4</ele>
        <time>2022-06-26T11:34:30Z</time>
      </trkpt>
      <trkpt lat="45.84208" lon="4.38085">
        <ele>914.6</ele>
        <time>2022-06-26T11:34:31Z</time>
      </trkpt>
      <trkpt lat="45.84202" lon="4.38097">
        <ele>914.2</ele>
        <time>2022-06-26T11:34:32Z</time>
      </trkpt>
      <trkpt lat="45.84197" lon="4.38109">
        <ele>913.4</ele>
        <time>2022-06-26T11:34:33Z</time>
      </trkpt>
      <trkpt lat="45.84192" lon="4.38123">
        <ele>912.4</ele>
        <time>2022-06-26T11:34:34Z</time>
      </trkpt>
      <trkpt lat="45.84188" lon="4.38137">
        <ele>911.6</ele>
        <time>2022-06-26T11:34:35Z</time>
      </trkpt>
      <trkpt lat="45.84183" lon="4.3815">
        <ele>910.8</ele>
        <time>2022-06-26T11:34:36Z</time>
      </trkpt>
      <trkpt lat="45.84178" lon="4.38163">
        <ele>910</ele>
        <time>2022-06-26T11:34:37Z</time>
      </trkpt>
      <trkpt lat="45.84174" lon="4.38177">
        <ele>909.2</ele>
        <time>2022-06-26T11:34:38Z</time>
      </trkpt>
      <trkpt lat="45.84169" lon="4.38189">
        <ele>908.2</ele>
        <time>2022-06-26T11:34:39Z</time>
      </trkpt>
      <trkpt lat="45.84163" lon="4.38201">
        <ele>907.4</ele>
        <time>2022-06-26T11:34:40Z</time>
      </trkpt>
      <trkpt lat="45.84157" lon="4.38213">
        <ele>906.6</ele>
        <time>2022-06-26T11:34:41Z</time>
      </trkpt>
      <trkpt lat="45.84151" lon="4.38226">
        <ele>905.8</ele>
        <time>2022-06-26T11:34:42Z</time>
      </trkpt>
      <trkpt lat="45.84144" lon="4.38239">
        <ele>904.8</ele>
        <time>2022-06-26T11:34:43Z</time>
      </trkpt>
      <trkpt lat="45.84139" lon="4.38252">
        <ele>904</ele>
        <time>2022-06-26T11:34:44Z</time>
      </trkpt>
      <trkpt lat="45.84133" lon="4.38265">
        <ele>903</ele>
        <time>2022-06-26T11:34:45Z</time>
      </trkpt>
      <trkpt lat="45.84127" lon="4.38276">
        <ele>902</ele>
        <time>2022-06-26T11:34:46Z</time>
      </trkpt>
      <trkpt lat="45.8412" lon="4.38287">
        <ele>901.2</ele>
        <time>2022-06-26T11:34:47Z</time>
      </trkpt>
      <trkpt lat="45.84113" lon="4.38298">
        <ele>900.2</ele>
        <time>2022-06-26T11:34:48Z</time>
      </trkpt>
      <trkpt lat="45.84107" lon="4.38311">
        <ele>899.4</ele>
        <time>2022-06-26T11:34:49Z</time>
      </trkpt>
      <trkpt lat="45.84102" lon="4.3832">
        <ele>898.6</ele>
        <time>2022-06-26T11:34:50Z</time>
      </trkpt>
      <trkpt lat="45.84097" lon="4.38329">
        <ele>897.8</ele>
        <time>2022-06-26T11:34:51Z</time>
      </trkpt>
      <trkpt lat="45.84089" lon="4.38337">
        <ele>896.8</ele>
        <time>2022-06-26T11:34:52Z</time>
      </trkpt>
      <trkpt lat="45.8408" lon="4.38345">
        <ele>895.8</ele>
        <time>2022-06-26T11:34:53Z</time>
      </trkpt>
      <trkpt lat="45.84072" lon="4.38352">
        <ele>894.8</ele>
        <time>2022-06-26T11:34:54Z</time>
      </trkpt>
      <trkpt lat="45.84064" lon="4.38359">
        <ele>893.6</ele>
        <time>2022-06-26T11:34:55Z</time>
      </trkpt>
      <trkpt lat="45.84056" lon="4.38366">
        <ele>892.6</ele>
        <time>2022-06-26T11:34:56Z</time>
      </trkpt>
      <trkpt lat="45.84049" lon="4.38372">
        <ele>891.8</ele>
        <time>2022-06-26T11:34:57Z</time>
      </trkpt>
      <trkpt lat="45.84042" lon="4.3838">
        <ele>890.6</ele>
        <time>2022-06-26T11:34:58Z</time>
      </trkpt>
      <trkpt lat="45.84036" lon="4.38388">
        <ele>889.6</ele>
        <time>2022-06-26T11:34:59Z</time>
      </trkpt>
      <trkpt lat="45.84032" lon="4.38396">
        <ele>888.6</ele>
        <time>2022-06-26T11:35:00Z</time>
      </trkpt>
      <trkpt lat="45.84029" lon="4.38407">
        <ele>887.6</ele>
        <time>2022-06-26T11:35:01Z</time>
      </trkpt>
      <trkpt lat="45.84026" lon="4.38419">
        <ele>886.6</ele>
        <time>2022-06-26T11:35:02Z</time>
      </trkpt>
      <trkpt lat="45.84024" lon="4.38431">
        <ele>885.6</ele>
        <time>2022-06-26T11:35:03Z</time>
      </trkpt>
      <trkpt lat="45.84022" lon="4.38442">
        <ele>884.4</ele>
        <time>2022-06-26T11:35:04Z</time>
      </trkpt>
      <trkpt lat="45.84017" lon="4.3845">
        <ele>883.4</ele>
        <time>2022-06-26T11:35:05Z</time>
      </trkpt>
      <trkpt lat="45.8401" lon="4.38457">
        <ele>882.2</ele>
        <time>2022-06-26T11:35:06Z</time>
      </trkpt>
      <trkpt lat="45.84002" lon="4.38462">
        <ele>881.2</ele>
        <time>2022-06-26T11:35:07Z</time>
      </trkpt>
      <trkpt lat="45.83994" lon="4.38467">
        <ele>880</ele>
        <time>2022-06-26T11:35:08Z</time>
      </trkpt>
      <trkpt lat="45.83985" lon="4.38471">
        <ele>878.6</ele>
        <time>2022-06-26T11:35:09Z</time>
      </trkpt>
      <trkpt lat="45.83975" lon="4.38474">
        <ele>877.6</ele>
        <time>2022-06-26T11:35:10Z</time>
      </trkpt>
      <trkpt lat="45.83965" lon="4.38477">
        <ele>876.4</ele>
        <time>2022-06-26T11:35:11Z</time>
      </trkpt>
      <trkpt lat="45.83956" lon="4.38481">
        <ele>875.4</ele>
        <time>2022-06-26T11:35:12Z</time>
      </trkpt>
      <trkpt lat="45.83948" lon="4.38487">
        <ele>874.2</ele>
        <time>2022-06-26T11:35:13Z</time>
      </trkpt>
      <trkpt lat="45.8394" lon="4.38493">
        <ele>872.8</ele>
        <time>2022-06-26T11:35:14Z</time>
      </trkpt>
      <trkpt lat="45.83931" lon="4.38502">
        <ele>872</ele>
        <time>2022-06-26T11:35:15Z</time>
      </trkpt>
      <trkpt lat="45.83924" lon="4.3851">
        <ele>871</ele>
        <time>2022-06-26T11:35:16Z</time>
      </trkpt>
      <trkpt lat="45.83916" lon="4.38521">
        <ele>869.8</ele>
        <time>2022-06-26T11:35:17Z</time>
      </trkpt>
      <trkpt lat="45.83907" lon="4.38532">
        <ele>868.6</ele>
        <time>2022-06-26T11:35:18Z</time>
      </trkpt>
      <trkpt lat="45.839" lon="4.38543">
        <ele>867.4</ele>
        <time>2022-06-26T11:35:19Z</time>
      </trkpt>
      <trkpt lat="45.83892" lon="4.38556">
        <ele>866.6</ele>
        <time>2022-06-26T11:35:20Z</time>
      </trkpt>
      <trkpt lat="45.83884" lon="4.38567">
        <ele>865.8</ele>
        <time>2022-06-26T11:35:21Z</time>
      </trkpt>
      <trkpt lat="45.83877" lon="4.38579">
        <ele>865.2</ele>
        <time>2022-06-26T11:35:22Z</time>
      </trkpt>
      <trkpt lat="45.83869" lon="4.38591">
        <ele>865</ele>
        <time>2022-06-26T11:35:23Z</time>
      </trkpt>
      <trkpt lat="45.83862" lon="4.38602">
        <ele>864.6</ele>
        <time>2022-06-26T11:35:24Z</time>
      </trkpt>
      <trkpt lat="45.83855" lon="4.38614">
        <ele>864.4</ele>
        <time>2022-06-26T11:35:25Z</time>
      </trkpt>
      <trkpt lat="45.83848" lon="4.38625">
        <ele>864</ele>
        <time>2022-06-26T11:35:26Z</time>
      </trkpt>
      <trkpt lat="45.83841" lon="4.38636">
        <ele>863.6</ele>
        <time>2022-06-26T11:35:27Z</time>
      </trkpt>
      <trkpt lat="45.83834" lon="4.38649">
        <ele>863.4</ele>
        <time>2022-06-26T11:35:28Z</time>
      </trkpt>
      <trkpt lat="45.83828" lon="4.38661">
        <ele>863</ele>
        <time>2022-06-26T11:35:29Z</time>
      </trkpt>
      <trkpt lat="45.83821" lon="4.38673">
        <ele>862.4</ele>
        <time>2022-06-26T11:35:30Z</time>
      </trkpt>
      <trkpt lat="45.83815" lon="4.38688">
        <ele>862.2</ele>
        <time>2022-06-26T11:35:31Z</time>
      </trkpt>
      <trkpt lat="45.83808" lon="4.38699">
        <ele>861.8</ele>
        <time>2022-06-26T11:35:32Z</time>
      </trkpt>
      <trkpt lat="45.83802" lon="4.3871">
        <ele>861.6</ele>
        <time>2022-06-26T11:35:33Z</time>
      </trkpt>
      <trkpt lat="45.83795" lon="4.38719">
        <ele>861.2</ele>
        <time>2022-06-26T11:35:34Z</time>
      </trkpt>
      <trkpt lat="45.83788" lon="4.38728">
        <ele>861</ele>
        <time>2022-06-26T11:35:35Z</time>
      </trkpt>
      <trkpt lat="45.83781" lon="4.38736">
        <ele>861</ele>
        <time>2022-06-26T11:35:36Z</time>
      </trkpt>
      <trkpt lat="45.83774" lon="4.38743">
        <ele>860.6</ele>
        <time>2022-06-26T11:35:37Z</time>
      </trkpt>
      <trkpt lat="45.83767" lon="4.38749">
        <ele>860.6</ele>
        <time>2022-06-26T11:35:38Z</time>
      </trkpt>
      <trkpt lat="45.8376" lon="4.38754">
        <ele>860.6</ele>
        <time>2022-06-26T11:35:39Z</time>
      </trkpt>
      <trkpt lat="45.83754" lon="4.3876">
        <ele>860.2</ele>
        <time>2022-06-26T11:35:40Z</time>
      </trkpt>
      <trkpt lat="45.83748" lon="4.38767">
        <ele>860</ele>
        <time>2022-06-26T11:35:41Z</time>
      </trkpt>
      <trkpt lat="45.83742" lon="4.38774">
        <ele>859.6</ele>
        <time>2022-06-26T11:35:42Z</time>
      </trkpt>
      <trkpt lat="45.83737" lon="4.38781">
        <ele>859.4</ele>
        <time>2022-06-26T11:35:43Z</time>
      </trkpt>
      <trkpt lat="45.83731" lon="4.38789">
        <ele>859.2</ele>
        <time>2022-06-26T11:35:44Z</time>
      </trkpt>
      <trkpt lat="45.83726" lon="4.38797">
        <ele>858.8</ele>
        <time>2022-06-26T11:35:45Z</time>
      </trkpt>
      <trkpt lat="45.8372" lon="4.38807">
        <ele>858.4</ele>
        <time>2022-06-26T11:35:46Z</time>
      </trkpt>
      <trkpt lat="45.83716" lon="4.38816">
        <ele>858</ele>
        <time>2022-06-26T11:35:47Z</time>
      </trkpt>
      <trkpt lat="45.83713" lon="4.38827">
        <ele>858</ele>
        <time>2022-06-26T11:35:48Z</time>
      </trkpt>
      <trkpt lat="45.83711" lon="4.38838">
        <ele>857.6</ele>
        <time>2022-06-26T11:35:49Z</time>
      </trkpt>
      <trkpt lat="45.8371" lon="4.38848">
        <ele>857.6</ele>
        <time>2022-06-26T11:35:50Z</time>
      </trkpt>
      <trkpt lat="45.83709" lon="4.38859">
        <ele>857.4</ele>
        <time>2022-06-26T11:35:51Z</time>
      </trkpt>
      <trkpt lat="45.83709" lon="4.38868">
        <ele>857.4</ele>
        <time>2022-06-26T11:35:52Z</time>
      </trkpt>
      <trkpt lat="45.83709" lon="4.38878">
        <ele>857</ele>
        <time>2022-06-26T11:35:53Z</time>
      </trkpt>
      <trkpt lat="45.83708" lon="4.38888">
        <ele>857</ele>
        <time>2022-06-26T11:35:54Z</time>
      </trkpt>
      <trkpt lat="45.83708" lon="4.38898">
        <ele>856.6</ele>
        <time>2022-06-26T11:35:55Z</time>
      </trkpt>
      <trkpt lat="45.83708" lon="4.38909">
        <ele>856.6</ele>
        <time>2022-06-26T11:35:56Z</time>
      </trkpt>
      <trkpt lat="45.83708" lon="4.3892">
        <ele>856.6</ele>
        <time>2022-06-26T11:35:57Z</time>
      </trkpt>
      <trkpt lat="45.83708" lon="4.38931">
        <ele>856.2</ele>
        <time>2022-06-26T11:35:58Z</time>
      </trkpt>
      <trkpt lat="45.83704" lon="4.38954">
        <ele>856</ele>
        <time>2022-06-26T11:35:59Z</time>
      </trkpt>
      <trkpt lat="45.83701" lon="4.38965">
        <ele>855.4</ele>
        <time>2022-06-26T11:36:00Z</time>
      </trkpt>
      <trkpt lat="45.83698" lon="4.38976">
        <ele>855</ele>
        <time>2022-06-26T11:36:01Z</time>
      </trkpt>
      <trkpt lat="45.83694" lon="4.38987">
        <ele>854.6</ele>
        <time>2022-06-26T11:36:02Z</time>
      </trkpt>
      <trkpt lat="45.83689" lon="4.38998">
        <ele>854</ele>
        <time>2022-06-26T11:36:03Z</time>
      </trkpt>
      <trkpt lat="45.83685" lon="4.39009">
        <ele>853.4</ele>
        <time>2022-06-26T11:36:04Z</time>
      </trkpt>
      <trkpt lat="45.83681" lon="4.39019">
        <ele>852.8</ele>
        <time>2022-06-26T11:36:05Z</time>
      </trkpt>
      <trkpt lat="45.83677" lon="4.3903">
        <ele>852.2</ele>
        <time>2022-06-26T11:36:06Z</time>
      </trkpt>
      <trkpt lat="45.83672" lon="4.39041">
        <ele>851.4</ele>
        <time>2022-06-26T11:36:07Z</time>
      </trkpt>
      <trkpt lat="45.83668" lon="4.39051">
        <ele>851</ele>
        <time>2022-06-26T11:36:08Z</time>
      </trkpt>
      <trkpt lat="45.83664" lon="4.39062">
        <ele>850.6</ele>
        <time>2022-06-26T11:36:09Z</time>
      </trkpt>
      <trkpt lat="45.8366" lon="4.39072">
        <ele>850</ele>
        <time>2022-06-26T11:36:10Z</time>
      </trkpt>
      <trkpt lat="45.83657" lon="4.39082">
        <ele>849.4</ele>
        <time>2022-06-26T11:36:11Z</time>
      </trkpt>
      <trkpt lat="45.83653" lon="4.39092">
        <ele>848.8</ele>
        <time>2022-06-26T11:36:12Z</time>
      </trkpt>
      <trkpt lat="45.8365" lon="4.39101">
        <ele>848.4</ele>
        <time>2022-06-26T11:36:13Z</time>
      </trkpt>
      <trkpt lat="45.83646" lon="4.39109">
        <ele>848</ele>
        <time>2022-06-26T11:36:14Z</time>
      </trkpt>
      <trkpt lat="45.83643" lon="4.39117">
        <ele>847.6</ele>
        <time>2022-06-26T11:36:15Z</time>
      </trkpt>
      <trkpt lat="45.8364" lon="4.39124">
        <ele>847.2</ele>
        <time>2022-06-26T11:36:16Z</time>
      </trkpt>
      <trkpt lat="45.83637" lon="4.39132">
        <ele>847</ele>
        <time>2022-06-26T11:36:17Z</time>
      </trkpt>
      <trkpt lat="45.83634" lon="4.39139">
        <ele>846.6</ele>
        <time>2022-06-26T11:36:18Z</time>
      </trkpt>
      <trkpt lat="45.8363" lon="4.39146">
        <ele>846.2</ele>
        <time>2022-06-26T11:36:19Z</time>
      </trkpt>
      <trkpt lat="45.83626" lon="4.39153">
        <ele>846.2</ele>
        <time>2022-06-26T11:36:20Z</time>
      </trkpt>
      <trkpt lat="45.83622" lon="4.39159">
        <ele>845.8</ele>
        <time>2022-06-26T11:36:21Z</time>
      </trkpt>
      <trkpt lat="45.83617" lon="4.39164">
        <ele>845.8</ele>
        <time>2022-06-26T11:36:22Z</time>
      </trkpt>
      <trkpt lat="45.83611" lon="4.39168">
        <ele>845.8</ele>
        <time>2022-06-26T11:36:23Z</time>
      </trkpt>
      <trkpt lat="45.83607" lon="4.39172">
        <ele>845.8</ele>
        <time>2022-06-26T11:36:24Z</time>
      </trkpt>
      <trkpt lat="45.83603" lon="4.39175">
        <ele>846</ele>
        <time>2022-06-26T11:36:25Z</time>
      </trkpt>
      <trkpt lat="45.83598" lon="4.39179">
        <ele>846</ele>
        <time>2022-06-26T11:36:26Z</time>
      </trkpt>
      <trkpt lat="45.83594" lon="4.39182">
        <ele>846.2</ele>
        <time>2022-06-26T11:36:27Z</time>
      </trkpt>
      <trkpt lat="45.8359" lon="4.39184">
        <ele>846.2</ele>
        <time>2022-06-26T11:36:28Z</time>
      </trkpt>
      <trkpt lat="45.83587" lon="4.39187">
        <ele>846.6</ele>
        <time>2022-06-26T11:36:29Z</time>
      </trkpt>
      <trkpt lat="45.83583" lon="4.39189">
        <ele>846.6</ele>
        <time>2022-06-26T11:36:30Z</time>
      </trkpt>
      <trkpt lat="45.8358" lon="4.3919">
        <ele>847</ele>
        <time>2022-06-26T11:36:31Z</time>
      </trkpt>
      <trkpt lat="45.83577" lon="4.39192">
        <ele>847.2</ele>
        <time>2022-06-26T11:36:32Z</time>
      </trkpt>
      <trkpt lat="45.83573" lon="4.39194">
        <ele>847.2</ele>
        <time>2022-06-26T11:36:33Z</time>
      </trkpt>
      <trkpt lat="45.8357" lon="4.39197">
        <ele>847.4</ele>
        <time>2022-06-26T11:36:34Z</time>
      </trkpt>
      <trkpt lat="45.83567" lon="4.39199">
        <ele>847.4</ele>
        <time>2022-06-26T11:36:35Z</time>
      </trkpt>
      <trkpt lat="45.83563" lon="4.39201">
        <ele>847.6</ele>
        <time>2022-06-26T11:36:36Z</time>
      </trkpt>
      <trkpt lat="45.8356" lon="4.39203">
        <ele>847.6</ele>
        <time>2022-06-26T11:36:37Z</time>
      </trkpt>
      <trkpt lat="45.83557" lon="4.39206">
        <ele>848</ele>
        <time>2022-06-26T11:36:38Z</time>
      </trkpt>
      <trkpt lat="45.83553" lon="4.39208">
        <ele>848</ele>
        <time>2022-06-26T11:36:39Z</time>
      </trkpt>
      <trkpt lat="45.8355" lon="4.3921">
        <ele>848.2</ele>
        <time>2022-06-26T11:36:40Z</time>
      </trkpt>
      <trkpt lat="45.83547" lon="4.39212">
        <ele>848.2</ele>
        <time>2022-06-26T11:36:41Z</time>
      </trkpt>
      <trkpt lat="45.83544" lon="4.39214">
        <ele>848.6</ele>
        <time>2022-06-26T11:36:42Z</time>
      </trkpt>
      <trkpt lat="45.8354" lon="4.39216">
        <ele>848.6</ele>
        <time>2022-06-26T11:36:43Z</time>
      </trkpt>
      <trkpt lat="45.83537" lon="4.39217">
        <ele>848.8</ele>
        <time>2022-06-26T11:36:44Z</time>
      </trkpt>
      <trkpt lat="45.83534" lon="4.39219">
        <ele>849</ele>
        <time>2022-06-26T11:36:45Z</time>
      </trkpt>
      <trkpt lat="45.83531" lon="4.39221">
        <ele>849</ele>
        <time>2022-06-26T11:36:46Z</time>
      </trkpt>
      <trkpt lat="45.83528" lon="4.39223">
        <ele>849.4</ele>
        <time>2022-06-26T11:36:47Z</time>
      </trkpt>
      <trkpt lat="45.83525" lon="4.39226">
        <ele>849.4</ele>
        <time>2022-06-26T11:36:48Z</time>
      </trkpt>
      <trkpt lat="45.83522" lon="4.39228">
        <ele>849.8</ele>
        <time>2022-06-26T11:36:49Z</time>
      </trkpt>
      <trkpt lat="45.83518" lon="4.39231">
        <ele>850.2</ele>
        <time>2022-06-26T11:36:50Z</time>
      </trkpt>
      <trkpt lat="45.83515" lon="4.39233">
        <ele>850.4</ele>
        <time>2022-06-26T11:36:51Z</time>
      </trkpt>
      <trkpt lat="45.83511" lon="4.39235">
        <ele>850.6</ele>
        <time>2022-06-26T11:36:52Z</time>
      </trkpt>
      <trkpt lat="45.83507" lon="4.39237">
        <ele>850.6</ele>
        <time>2022-06-26T11:36:53Z</time>
      </trkpt>
      <trkpt lat="45.83503" lon="4.39239">
        <ele>850.6</ele>
        <time>2022-06-26T11:36:54Z</time>
      </trkpt>
      <trkpt lat="45.835" lon="4.39241">
        <ele>851</ele>
        <time>2022-06-26T11:36:55Z</time>
      </trkpt>
      <trkpt lat="45.83496" lon="4.39242">
        <ele>851</ele>
        <time>2022-06-26T11:36:56Z</time>
      </trkpt>
      <trkpt lat="45.83492" lon="4.39244">
        <ele>851.2</ele>
        <time>2022-06-26T11:36:57Z</time>
      </trkpt>
      <trkpt lat="45.83488" lon="4.39245">
        <ele>851.2</ele>
        <time>2022-06-26T11:36:58Z</time>
      </trkpt>
      <trkpt lat="45.83484" lon="4.39245">
        <ele>851.4</ele>
        <time>2022-06-26T11:36:59Z</time>
      </trkpt>
      <trkpt lat="45.8348" lon="4.39246">
        <ele>851.4</ele>
        <time>2022-06-26T11:37:00Z</time>
      </trkpt>
      <trkpt lat="45.83477" lon="4.39246">
        <ele>851.8</ele>
        <time>2022-06-26T11:37:01Z</time>
      </trkpt>
      <trkpt lat="45.83473" lon="4.39245">
        <ele>851.8</ele>
        <time>2022-06-26T11:37:02Z</time>
      </trkpt>
      <trkpt lat="45.83469" lon="4.39245">
        <ele>852.2</ele>
        <time>2022-06-26T11:37:03Z</time>
      </trkpt>
      <trkpt lat="45.83466" lon="4.39244">
        <ele>852.2</ele>
        <time>2022-06-26T11:37:04Z</time>
      </trkpt>
      <trkpt lat="45.83463" lon="4.39243">
        <ele>852.4</ele>
        <time>2022-06-26T11:37:05Z</time>
      </trkpt>
      <trkpt lat="45.83459" lon="4.39243">
        <ele>852.4</ele>
        <time>2022-06-26T11:37:06Z</time>
      </trkpt>
      <trkpt lat="45.83456" lon="4.39242">
        <ele>852.8</ele>
        <time>2022-06-26T11:37:07Z</time>
      </trkpt>
      <trkpt lat="45.83453" lon="4.39242">
        <ele>852.8</ele>
        <time>2022-06-26T11:37:08Z</time>
      </trkpt>
      <trkpt lat="45.83449" lon="4.39241">
        <ele>853</ele>
        <time>2022-06-26T11:37:09Z</time>
      </trkpt>
      <trkpt lat="45.83446" lon="4.39241">
        <ele>853</ele>
        <time>2022-06-26T11:37:10Z</time>
      </trkpt>
      <trkpt lat="45.83442" lon="4.39241">
        <ele>853.2</ele>
        <time>2022-06-26T11:37:11Z</time>
      </trkpt>
      <trkpt lat="45.83439" lon="4.3924">
        <ele>853.2</ele>
        <time>2022-06-26T11:37:12Z</time>
      </trkpt>
      <trkpt lat="45.83436" lon="4.3924">
        <ele>853.4</ele>
        <time>2022-06-26T11:37:13Z</time>
      </trkpt>
      <trkpt lat="45.83432" lon="4.39239">
        <ele>853.4</ele>
        <time>2022-06-26T11:37:14Z</time>
      </trkpt>
      <trkpt lat="45.83429" lon="4.39239">
        <ele>853.8</ele>
        <time>2022-06-26T11:37:15Z</time>
      </trkpt>
      <trkpt lat="45.83425" lon="4.39239">
        <ele>853.8</ele>
        <time>2022-06-26T11:37:16Z</time>
      </trkpt>
      <trkpt lat="45.83422" lon="4.39238">
        <ele>854.2</ele>
        <time>2022-06-26T11:37:18Z</time>
      </trkpt>
      <trkpt lat="45.83418" lon="4.39238">
        <ele>854.2</ele>
        <time>2022-06-26T11:37:19Z</time>
      </trkpt>
      <trkpt lat="45.83415" lon="4.39238">
        <ele>854.4</ele>
        <time>2022-06-26T11:37:20Z</time>
      </trkpt>
      <trkpt lat="45.83412" lon="4.39237">
        <ele>854.4</ele>
        <time>2022-06-26T11:37:21Z</time>
      </trkpt>
      <trkpt lat="45.83408" lon="4.39237">
        <ele>854.4</ele>
        <time>2022-06-26T11:37:22Z</time>
      </trkpt>
      <trkpt lat="45.83404" lon="4.39237">
        <ele>854.6</ele>
        <time>2022-06-26T11:37:23Z</time>
      </trkpt>
      <trkpt lat="45.83401" lon="4.39238">
        <ele>854.6</ele>
        <time>2022-06-26T11:37:24Z</time>
      </trkpt>
      <trkpt lat="45.83397" lon="4.39239">
        <ele>854.8</ele>
        <time>2022-06-26T11:37:25Z</time>
      </trkpt>
      <trkpt lat="45.83394" lon="4.3924">
        <ele>855</ele>
        <time>2022-06-26T11:37:26Z</time>
      </trkpt>
      <trkpt lat="45.8339" lon="4.39241">
        <ele>855</ele>
        <time>2022-06-26T11:37:27Z</time>
      </trkpt>
      <trkpt lat="45.83387" lon="4.39243">
        <ele>855</ele>
        <time>2022-06-26T11:37:28Z</time>
      </trkpt>
      <trkpt lat="45.83384" lon="4.39244">
        <ele>855.2</ele>
        <time>2022-06-26T11:37:29Z</time>
      </trkpt>
      <trkpt lat="45.83381" lon="4.39246">
        <ele>855.2</ele>
        <time>2022-06-26T11:37:30Z</time>
      </trkpt>
      <trkpt lat="45.83377" lon="4.39248">
        <ele>855.6</ele>
        <time>2022-06-26T11:37:31Z</time>
      </trkpt>
      <trkpt lat="45.83374" lon="4.3925">
        <ele>855.6</ele>
        <time>2022-06-26T11:37:32Z</time>
      </trkpt>
      <trkpt lat="45.83371" lon="4.39253">
        <ele>855.6</ele>
        <time>2022-06-26T11:37:33Z</time>
      </trkpt>
      <trkpt lat="45.83368" lon="4.39257">
        <ele>855.8</ele>
        <time>2022-06-26T11:37:34Z</time>
      </trkpt>
      <trkpt lat="45.83365" lon="4.3926">
        <ele>855.8</ele>
        <time>2022-06-26T11:37:35Z</time>
      </trkpt>
      <trkpt lat="45.83363" lon="4.39264">
        <ele>856</ele>
        <time>2022-06-26T11:37:36Z</time>
      </trkpt>
      <trkpt lat="45.8336" lon="4.39268">
        <ele>856</ele>
        <time>2022-06-26T11:37:37Z</time>
      </trkpt>
      <trkpt lat="45.83358" lon="4.39272">
        <ele>856.2</ele>
        <time>2022-06-26T11:37:38Z</time>
      </trkpt>
      <trkpt lat="45.83355" lon="4.39277">
        <ele>856.2</ele>
        <time>2022-06-26T11:37:39Z</time>
      </trkpt>
      <trkpt lat="45.83353" lon="4.39282">
        <ele>856.6</ele>
        <time>2022-06-26T11:37:40Z</time>
      </trkpt>
      <trkpt lat="45.83351" lon="4.39286">
        <ele>856.6</ele>
        <time>2022-06-26T11:37:41Z</time>
      </trkpt>
      <trkpt lat="45.83349" lon="4.39291">
        <ele>856.8</ele>
        <time>2022-06-26T11:37:42Z</time>
      </trkpt>
      <trkpt lat="45.83347" lon="4.39296">
        <ele>856.8</ele>
        <time>2022-06-26T11:37:43Z</time>
      </trkpt>
      <trkpt lat="45.83345" lon="4.39301">
        <ele>856.8</ele>
        <time>2022-06-26T11:37:44Z</time>
      </trkpt>
      <trkpt lat="45.83343" lon="4.39307">
        <ele>856.8</ele>
        <time>2022-06-26T11:37:45Z</time>
      </trkpt>
      <trkpt lat="45.83341" lon="4.39312">
        <ele>857</ele>
        <time>2022-06-26T11:37:46Z</time>
      </trkpt>
      <trkpt lat="45.83339" lon="4.39317">
        <ele>857</ele>
        <time>2022-06-26T11:37:47Z</time>
      </trkpt>
      <trkpt lat="45.83336" lon="4.39322">
        <ele>857</ele>
        <time>2022-06-26T11:37:48Z</time>
      </trkpt>
      <trkpt lat="45.83334" lon="4.39328">
        <ele>857.4</ele>
        <time>2022-06-26T11:37:49Z</time>
      </trkpt>
      <trkpt lat="45.83332" lon="4.39333">
        <ele>857.4</ele>
        <time>2022-06-26T11:37:50Z</time>
      </trkpt>
      <trkpt lat="45.83329" lon="4.39339">
        <ele>857.4</ele>
        <time>2022-06-26T11:37:51Z</time>
      </trkpt>
      <trkpt lat="45.83326" lon="4.39344">
        <ele>857.4</ele>
        <time>2022-06-26T11:37:52Z</time>
      </trkpt>
      <trkpt lat="45.83323" lon="4.3935">
        <ele>857.4</ele>
        <time>2022-06-26T11:37:53Z</time>
      </trkpt>
      <trkpt lat="45.8332" lon="4.39355">
        <ele>857.6</ele>
        <time>2022-06-26T11:37:54Z</time>
      </trkpt>
      <trkpt lat="45.83317" lon="4.39361">
        <ele>857.6</ele>
        <time>2022-06-26T11:37:55Z</time>
      </trkpt>
      <trkpt lat="45.83314" lon="4.39366">
        <ele>857.6</ele>
        <time>2022-06-26T11:37:56Z</time>
      </trkpt>
      <trkpt lat="45.83311" lon="4.39371">
        <ele>857.6</ele>
        <time>2022-06-26T11:37:57Z</time>
      </trkpt>
      <trkpt lat="45.83308" lon="4.39376">
        <ele>857.6</ele>
        <time>2022-06-26T11:37:58Z</time>
      </trkpt>
      <trkpt lat="45.83304" lon="4.39381">
        <ele>857.6</ele>
        <time>2022-06-26T11:37:59Z</time>
      </trkpt>
      <trkpt lat="45.833" lon="4.39386">
        <ele>857.6</ele>
        <time>2022-06-26T11:38:00Z</time>
      </trkpt>
      <trkpt lat="45.83295" lon="4.3939">
        <ele>857.6</ele>
        <time>2022-06-26T11:38:01Z</time>
      </trkpt>
      <trkpt lat="45.83291" lon="4.39394">
        <ele>857.6</ele>
        <time>2022-06-26T11:38:02Z</time>
      </trkpt>
      <trkpt lat="45.83286" lon="4.39398">
        <ele>857.6</ele>
        <time>2022-06-26T11:38:03Z</time>
      </trkpt>
      <trkpt lat="45.83282" lon="4.39402">
        <ele>858</ele>
        <time>2022-06-26T11:38:04Z</time>
      </trkpt>
      <trkpt lat="45.83278" lon="4.39406">
        <ele>858</ele>
        <time>2022-06-26T11:38:05Z</time>
      </trkpt>
      <trkpt lat="45.83273" lon="4.39409">
        <ele>858</ele>
        <time>2022-06-26T11:38:06Z</time>
      </trkpt>
      <trkpt lat="45.83268" lon="4.39411">
        <ele>858.2</ele>
        <time>2022-06-26T11:38:07Z</time>
      </trkpt>
      <trkpt lat="45.83264" lon="4.39413">
        <ele>858.2</ele>
        <time>2022-06-26T11:38:08Z</time>
      </trkpt>
      <trkpt lat="45.83259" lon="4.39415">
        <ele>858.2</ele>
        <time>2022-06-26T11:38:09Z</time>
      </trkpt>
      <trkpt lat="45.83254" lon="4.39417">
        <ele>858.2</ele>
        <time>2022-06-26T11:38:10Z</time>
      </trkpt>
      <trkpt lat="45.8325" lon="4.39419">
        <ele>858.2</ele>
        <time>2022-06-26T11:38:11Z</time>
      </trkpt>
      <trkpt lat="45.83246" lon="4.39421">
        <ele>858.2</ele>
        <time>2022-06-26T11:38:12Z</time>
      </trkpt>
      <trkpt lat="45.83241" lon="4.39423">
        <ele>858.2</ele>
        <time>2022-06-26T11:38:13Z</time>
      </trkpt>
      <trkpt lat="45.83237" lon="4.39426">
        <ele>858.2</ele>
        <time>2022-06-26T11:38:14Z</time>
      </trkpt>
      <trkpt lat="45.83233" lon="4.39428">
        <ele>858.2</ele>
        <time>2022-06-26T11:38:15Z</time>
      </trkpt>
      <trkpt lat="45.83229" lon="4.3943">
        <ele>858.4</ele>
        <time>2022-06-26T11:38:16Z</time>
      </trkpt>
      <trkpt lat="45.83225" lon="4.39432">
        <ele>858.4</ele>
        <time>2022-06-26T11:38:17Z</time>
      </trkpt>
      <trkpt lat="45.83221" lon="4.39434">
        <ele>858.4</ele>
        <time>2022-06-26T11:38:18Z</time>
      </trkpt>
      <trkpt lat="45.83217" lon="4.39436">
        <ele>858.4</ele>
        <time>2022-06-26T11:38:19Z</time>
      </trkpt>
      <trkpt lat="45.83213" lon="4.39438">
        <ele>858.4</ele>
        <time>2022-06-26T11:38:20Z</time>
      </trkpt>
      <trkpt lat="45.83204" lon="4.39443">
        <ele>858.4</ele>
        <time>2022-06-26T11:38:21Z</time>
      </trkpt>
      <trkpt lat="45.832" lon="4.39445">
        <ele>858.4</ele>
        <time>2022-06-26T11:38:22Z</time>
      </trkpt>
      <trkpt lat="45.83196" lon="4.39447">
        <ele>858.4</ele>
        <time>2022-06-26T11:38:23Z</time>
      </trkpt>
      <trkpt lat="45.83191" lon="4.3945">
        <ele>858.8</ele>
        <time>2022-06-26T11:38:24Z</time>
      </trkpt>
      <trkpt lat="45.83187" lon="4.39454">
        <ele>858.8</ele>
        <time>2022-06-26T11:38:25Z</time>
      </trkpt>
      <trkpt lat="45.83182" lon="4.39457">
        <ele>858.8</ele>
        <time>2022-06-26T11:38:26Z</time>
      </trkpt>
      <trkpt lat="45.83178" lon="4.39461">
        <ele>858.8</ele>
        <time>2022-06-26T11:38:27Z</time>
      </trkpt>
      <trkpt lat="45.83173" lon="4.39464">
        <ele>859</ele>
        <time>2022-06-26T11:38:28Z</time>
      </trkpt>
      <trkpt lat="45.83168" lon="4.39467">
        <ele>859</ele>
        <time>2022-06-26T11:38:29Z</time>
      </trkpt>
      <trkpt lat="45.83163" lon="4.39471">
        <ele>859</ele>
        <time>2022-06-26T11:38:30Z</time>
      </trkpt>
      <trkpt lat="45.83159" lon="4.39473">
        <ele>859</ele>
        <time>2022-06-26T11:38:31Z</time>
      </trkpt>
      <trkpt lat="45.83154" lon="4.39476">
        <ele>859</ele>
        <time>2022-06-26T11:38:32Z</time>
      </trkpt>
      <trkpt lat="45.83149" lon="4.39479">
        <ele>859</ele>
        <time>2022-06-26T11:38:33Z</time>
      </trkpt>
      <trkpt lat="45.83145" lon="4.39482">
        <ele>859</ele>
        <time>2022-06-26T11:38:34Z</time>
      </trkpt>
      <trkpt lat="45.83141" lon="4.39484">
        <ele>859</ele>
        <time>2022-06-26T11:38:35Z</time>
      </trkpt>
      <trkpt lat="45.83138" lon="4.39485">
        <ele>859</ele>
        <time>2022-06-26T11:38:36Z</time>
      </trkpt>
      <trkpt lat="45.83135" lon="4.39486">
        <ele>859</ele>
        <time>2022-06-26T11:38:37Z</time>
      </trkpt>
      <trkpt lat="45.83131" lon="4.39487">
        <ele>859</ele>
        <time>2022-06-26T11:38:38Z</time>
      </trkpt>
      <trkpt lat="45.83128" lon="4.39488">
        <ele>859</ele>
        <time>2022-06-26T11:38:39Z</time>
      </trkpt>
      <trkpt lat="45.83124" lon="4.39488">
        <ele>859</ele>
        <time>2022-06-26T11:38:40Z</time>
      </trkpt>
      <trkpt lat="45.83119" lon="4.39489">
        <ele>859</ele>
        <time>2022-06-26T11:38:41Z</time>
      </trkpt>
      <trkpt lat="45.83114" lon="4.39489">
        <ele>859</ele>
        <time>2022-06-26T11:38:42Z</time>
      </trkpt>
      <trkpt lat="45.83108" lon="4.3949">
        <ele>858.6</ele>
        <time>2022-06-26T11:38:43Z</time>
      </trkpt>
      <trkpt lat="45.83102" lon="4.3949">
        <ele>858.6</ele>
        <time>2022-06-26T11:38:44Z</time>
      </trkpt>
      <trkpt lat="45.83095" lon="4.3949">
        <ele>858.2</ele>
        <time>2022-06-26T11:38:45Z</time>
      </trkpt>
      <trkpt lat="45.83089" lon="4.3949">
        <ele>858.2</ele>
        <time>2022-06-26T11:38:46Z</time>
      </trkpt>
      <trkpt lat="45.83082" lon="4.39489">
        <ele>858</ele>
        <time>2022-06-26T11:38:47Z</time>
      </trkpt>
      <trkpt lat="45.83076" lon="4.39489">
        <ele>857.8</ele>
        <time>2022-06-26T11:38:48Z</time>
      </trkpt>
      <trkpt lat="45.8307" lon="4.39489">
        <ele>857.6</ele>
        <time>2022-06-26T11:38:49Z</time>
      </trkpt>
      <trkpt lat="45.83063" lon="4.3949">
        <ele>857.2</ele>
        <time>2022-06-26T11:38:50Z</time>
      </trkpt>
      <trkpt lat="45.83056" lon="4.39489">
        <ele>857</ele>
        <time>2022-06-26T11:38:51Z</time>
      </trkpt>
      <trkpt lat="45.83049" lon="4.39489">
        <ele>856.6</ele>
        <time>2022-06-26T11:38:52Z</time>
      </trkpt>
      <trkpt lat="45.83041" lon="4.39488">
        <ele>856.4</ele>
        <time>2022-06-26T11:38:53Z</time>
      </trkpt>
      <trkpt lat="45.83033" lon="4.39486">
        <ele>856.2</ele>
        <time>2022-06-26T11:38:54Z</time>
      </trkpt>
      <trkpt lat="45.83025" lon="4.39485">
        <ele>855.8</ele>
        <time>2022-06-26T11:38:55Z</time>
      </trkpt>
      <trkpt lat="45.83017" lon="4.39484">
        <ele>855.8</ele>
        <time>2022-06-26T11:38:56Z</time>
      </trkpt>
      <trkpt lat="45.83009" lon="4.39482">
        <ele>855.4</ele>
        <time>2022-06-26T11:38:57Z</time>
      </trkpt>
      <trkpt lat="45.83001" lon="4.3948">
        <ele>855.2</ele>
        <time>2022-06-26T11:38:58Z</time>
      </trkpt>
      <trkpt lat="45.82993" lon="4.39478">
        <ele>855.2</ele>
        <time>2022-06-26T11:38:59Z</time>
      </trkpt>
      <trkpt lat="45.82984" lon="4.39476">
        <ele>854.8</ele>
        <time>2022-06-26T11:39:00Z</time>
      </trkpt>
      <trkpt lat="45.82975" lon="4.39474">
        <ele>854.2</ele>
        <time>2022-06-26T11:39:01Z</time>
      </trkpt>
      <trkpt lat="45.82966" lon="4.39472">
        <ele>853.8</ele>
        <time>2022-06-26T11:39:02Z</time>
      </trkpt>
      <trkpt lat="45.82956" lon="4.3947">
        <ele>853.4</ele>
        <time>2022-06-26T11:39:03Z</time>
      </trkpt>
      <trkpt lat="45.82947" lon="4.39469">
        <ele>853.4</ele>
        <time>2022-06-26T11:39:04Z</time>
      </trkpt>
      <trkpt lat="45.82938" lon="4.39466">
        <ele>852.8</ele>
        <time>2022-06-26T11:39:05Z</time>
      </trkpt>
      <trkpt lat="45.82928" lon="4.39464">
        <ele>852.2</ele>
        <time>2022-06-26T11:39:06Z</time>
      </trkpt>
      <trkpt lat="45.82918" lon="4.39462">
        <ele>851.6</ele>
        <time>2022-06-26T11:39:07Z</time>
      </trkpt>
      <trkpt lat="45.82909" lon="4.3946">
        <ele>851.2</ele>
        <time>2022-06-26T11:39:08Z</time>
      </trkpt>
      <trkpt lat="45.82899" lon="4.39458">
        <ele>850.6</ele>
        <time>2022-06-26T11:39:09Z</time>
      </trkpt>
      <trkpt lat="45.82889" lon="4.39455">
        <ele>850.2</ele>
        <time>2022-06-26T11:39:10Z</time>
      </trkpt>
      <trkpt lat="45.82878" lon="4.39452">
        <ele>849.6</ele>
        <time>2022-06-26T11:39:11Z</time>
      </trkpt>
      <trkpt lat="45.82868" lon="4.39449">
        <ele>849</ele>
        <time>2022-06-26T11:39:12Z</time>
      </trkpt>
      <trkpt lat="45.82858" lon="4.39446">
        <ele>848.4</ele>
        <time>2022-06-26T11:39:13Z</time>
      </trkpt>
      <trkpt lat="45.82849" lon="4.39442">
        <ele>848</ele>
        <time>2022-06-26T11:39:14Z</time>
      </trkpt>
      <trkpt lat="45.82838" lon="4.39439">
        <ele>847.4</ele>
        <time>2022-06-26T11:39:15Z</time>
      </trkpt>
      <trkpt lat="45.82828" lon="4.39434">
        <ele>847</ele>
        <time>2022-06-26T11:39:16Z</time>
      </trkpt>
      <trkpt lat="45.82818" lon="4.39428">
        <ele>846.4</ele>
        <time>2022-06-26T11:39:17Z</time>
      </trkpt>
      <trkpt lat="45.82807" lon="4.39423">
        <ele>846</ele>
        <time>2022-06-26T11:39:18Z</time>
      </trkpt>
      <trkpt lat="45.82796" lon="4.39418">
        <ele>845.8</ele>
        <time>2022-06-26T11:39:19Z</time>
      </trkpt>
      <trkpt lat="45.82784" lon="4.39414">
        <ele>845.4</ele>
        <time>2022-06-26T11:39:20Z</time>
      </trkpt>
      <trkpt lat="45.82773" lon="4.39411">
        <ele>845</ele>
        <time>2022-06-26T11:39:21Z</time>
      </trkpt>
      <trkpt lat="45.82762" lon="4.3941">
        <ele>844.6</ele>
        <time>2022-06-26T11:39:22Z</time>
      </trkpt>
      <trkpt lat="45.82751" lon="4.3941">
        <ele>844.4</ele>
        <time>2022-06-26T11:39:23Z</time>
      </trkpt>
      <trkpt lat="45.8274" lon="4.3941">
        <ele>843.6</ele>
        <time>2022-06-26T11:39:24Z</time>
      </trkpt>
      <trkpt lat="45.82728" lon="4.39411">
        <ele>843.4</ele>
        <time>2022-06-26T11:39:25Z</time>
      </trkpt>
      <trkpt lat="45.82717" lon="4.39411">
        <ele>843</ele>
        <time>2022-06-26T11:39:26Z</time>
      </trkpt>
      <trkpt lat="45.82705" lon="4.39411">
        <ele>842.6</ele>
        <time>2022-06-26T11:39:27Z</time>
      </trkpt>
      <trkpt lat="45.82689" lon="4.39408">
        <ele>842.2</ele>
        <time>2022-06-26T11:39:28Z</time>
      </trkpt>
      <trkpt lat="45.82676" lon="4.39403">
        <ele>841.4</ele>
        <time>2022-06-26T11:39:29Z</time>
      </trkpt>
      <trkpt lat="45.82664" lon="4.39399">
        <ele>840.4</ele>
        <time>2022-06-26T11:39:30Z</time>
      </trkpt>
      <trkpt lat="45.82653" lon="4.39393">
        <ele>839.4</ele>
        <time>2022-06-26T11:39:31Z</time>
      </trkpt>
      <trkpt lat="45.82641" lon="4.39385">
        <ele>838.6</ele>
        <time>2022-06-26T11:39:32Z</time>
      </trkpt>
      <trkpt lat="45.8263" lon="4.39379">
        <ele>837.8</ele>
        <time>2022-06-26T11:39:33Z</time>
      </trkpt>
      <trkpt lat="45.82619" lon="4.39372">
        <ele>837</ele>
        <time>2022-06-26T11:39:34Z</time>
      </trkpt>
      <trkpt lat="45.82608" lon="4.39366">
        <ele>836.4</ele>
        <time>2022-06-26T11:39:35Z</time>
      </trkpt>
      <trkpt lat="45.82597" lon="4.39359">
        <ele>835.8</ele>
        <time>2022-06-26T11:39:36Z</time>
      </trkpt>
      <trkpt lat="45.82586" lon="4.39351">
        <ele>835</ele>
        <time>2022-06-26T11:39:37Z</time>
      </trkpt>
      <trkpt lat="45.82575" lon="4.39342">
        <ele>834.4</ele>
        <time>2022-06-26T11:39:38Z</time>
      </trkpt>
      <trkpt lat="45.82565" lon="4.39334">
        <ele>833.8</ele>
        <time>2022-06-26T11:39:39Z</time>
      </trkpt>
      <trkpt lat="45.82554" lon="4.39324">
        <ele>833.2</ele>
        <time>2022-06-26T11:39:40Z</time>
      </trkpt>
      <trkpt lat="45.82544" lon="4.39315">
        <ele>832.6</ele>
        <time>2022-06-26T11:39:41Z</time>
      </trkpt>
      <trkpt lat="45.82534" lon="4.39305">
        <ele>832</ele>
        <time>2022-06-26T11:39:42Z</time>
      </trkpt>
      <trkpt lat="45.82525" lon="4.39294">
        <ele>831.4</ele>
        <time>2022-06-26T11:39:43Z</time>
      </trkpt>
      <trkpt lat="45.82517" lon="4.39282">
        <ele>831</ele>
        <time>2022-06-26T11:39:44Z</time>
      </trkpt>
      <trkpt lat="45.82508" lon="4.3927">
        <ele>830.4</ele>
        <time>2022-06-26T11:39:45Z</time>
      </trkpt>
      <trkpt lat="45.825" lon="4.39258">
        <ele>829.8</ele>
        <time>2022-06-26T11:39:46Z</time>
      </trkpt>
      <trkpt lat="45.82491" lon="4.39246">
        <ele>829.2</ele>
        <time>2022-06-26T11:39:47Z</time>
      </trkpt>
      <trkpt lat="45.82482" lon="4.39235">
        <ele>828.6</ele>
        <time>2022-06-26T11:39:48Z</time>
      </trkpt>
      <trkpt lat="45.82473" lon="4.39223">
        <ele>828</ele>
        <time>2022-06-26T11:39:49Z</time>
      </trkpt>
      <trkpt lat="45.82464" lon="4.3921">
        <ele>827.4</ele>
        <time>2022-06-26T11:39:50Z</time>
      </trkpt>
      <trkpt lat="45.82455" lon="4.39198">
        <ele>826.8</ele>
        <time>2022-06-26T11:39:51Z</time>
      </trkpt>
      <trkpt lat="45.82446" lon="4.39186">
        <ele>826.2</ele>
        <time>2022-06-26T11:39:52Z</time>
      </trkpt>
      <trkpt lat="45.82438" lon="4.39174">
        <ele>825.6</ele>
        <time>2022-06-26T11:39:53Z</time>
      </trkpt>
      <trkpt lat="45.8243" lon="4.3916">
        <ele>825</ele>
        <time>2022-06-26T11:39:54Z</time>
      </trkpt>
      <trkpt lat="45.82424" lon="4.39146">
        <ele>824.4</ele>
        <time>2022-06-26T11:39:55Z</time>
      </trkpt>
      <trkpt lat="45.82416" lon="4.39133">
        <ele>823.8</ele>
        <time>2022-06-26T11:39:56Z</time>
      </trkpt>
      <trkpt lat="45.82409" lon="4.3912">
        <ele>823.4</ele>
        <time>2022-06-26T11:39:57Z</time>
      </trkpt>
      <trkpt lat="45.82402" lon="4.39107">
        <ele>822.8</ele>
        <time>2022-06-26T11:39:58Z</time>
      </trkpt>
      <trkpt lat="45.82396" lon="4.39093">
        <ele>822.8</ele>
        <time>2022-06-26T11:39:59Z</time>
      </trkpt>
      <trkpt lat="45.82389" lon="4.39079">
        <ele>822.2</ele>
        <time>2022-06-26T11:40:00Z</time>
      </trkpt>
      <trkpt lat="45.82383" lon="4.39065">
        <ele>821.6</ele>
        <time>2022-06-26T11:40:01Z</time>
      </trkpt>
      <trkpt lat="45.82377" lon="4.39051">
        <ele>820.8</ele>
        <time>2022-06-26T11:40:02Z</time>
      </trkpt>
      <trkpt lat="45.82372" lon="4.39037">
        <ele>820.4</ele>
        <time>2022-06-26T11:40:03Z</time>
      </trkpt>
      <trkpt lat="45.82367" lon="4.39022">
        <ele>819.8</ele>
        <time>2022-06-26T11:40:04Z</time>
      </trkpt>
      <trkpt lat="45.82362" lon="4.39006">
        <ele>819.4</ele>
        <time>2022-06-26T11:40:05Z</time>
      </trkpt>
      <trkpt lat="45.82358" lon="4.38991">
        <ele>818.8</ele>
        <time>2022-06-26T11:40:06Z</time>
      </trkpt>
      <trkpt lat="45.82354" lon="4.38974">
        <ele>818.2</ele>
        <time>2022-06-26T11:40:07Z</time>
      </trkpt>
      <trkpt lat="45.82351" lon="4.38957">
        <ele>817.8</ele>
        <time>2022-06-26T11:40:08Z</time>
      </trkpt>
      <trkpt lat="45.82349" lon="4.38938">
        <ele>817.4</ele>
        <time>2022-06-26T11:40:09Z</time>
      </trkpt>
      <trkpt lat="45.82345" lon="4.38922">
        <ele>816.6</ele>
        <time>2022-06-26T11:40:10Z</time>
      </trkpt>
      <trkpt lat="45.82342" lon="4.38906">
        <ele>815.8</ele>
        <time>2022-06-26T11:40:11Z</time>
      </trkpt>
      <trkpt lat="45.82341" lon="4.38891">
        <ele>815.2</ele>
        <time>2022-06-26T11:40:12Z</time>
      </trkpt>
      <trkpt lat="45.82337" lon="4.38876">
        <ele>814.8</ele>
        <time>2022-06-26T11:40:13Z</time>
      </trkpt>
      <trkpt lat="45.82333" lon="4.38862">
        <ele>814.6</ele>
        <time>2022-06-26T11:40:14Z</time>
      </trkpt>
      <trkpt lat="45.82328" lon="4.38847">
        <ele>814.2</ele>
        <time>2022-06-26T11:40:15Z</time>
      </trkpt>
      <trkpt lat="45.82323" lon="4.38832">
        <ele>813.6</ele>
        <time>2022-06-26T11:40:16Z</time>
      </trkpt>
      <trkpt lat="45.82317" lon="4.38818">
        <ele>813.2</ele>
        <time>2022-06-26T11:40:17Z</time>
      </trkpt>
      <trkpt lat="45.82311" lon="4.38803">
        <ele>812.6</ele>
        <time>2022-06-26T11:40:18Z</time>
      </trkpt>
      <trkpt lat="45.82306" lon="4.38787">
        <ele>811.6</ele>
        <time>2022-06-26T11:40:19Z</time>
      </trkpt>
      <trkpt lat="45.82301" lon="4.38772">
        <ele>811</ele>
        <time>2022-06-26T11:40:20Z</time>
      </trkpt>
      <trkpt lat="45.82297" lon="4.38757">
        <ele>810.2</ele>
        <time>2022-06-26T11:40:21Z</time>
      </trkpt>
      <trkpt lat="45.82293" lon="4.38742">
        <ele>809.4</ele>
        <time>2022-06-26T11:40:22Z</time>
      </trkpt>
      <trkpt lat="45.8229" lon="4.38727">
        <ele>809</ele>
        <time>2022-06-26T11:40:23Z</time>
      </trkpt>
      <trkpt lat="45.82286" lon="4.38712">
        <ele>808.4</ele>
        <time>2022-06-26T11:40:24Z</time>
      </trkpt>
      <trkpt lat="45.82282" lon="4.38697">
        <ele>808</ele>
        <time>2022-06-26T11:40:25Z</time>
      </trkpt>
      <trkpt lat="45.82278" lon="4.38683">
        <ele>807.6</ele>
        <time>2022-06-26T11:40:26Z</time>
      </trkpt>
      <trkpt lat="45.82274" lon="4.38669">
        <ele>807</ele>
        <time>2022-06-26T11:40:27Z</time>
      </trkpt>
      <trkpt lat="45.82269" lon="4.38655">
        <ele>806.6</ele>
        <time>2022-06-26T11:40:28Z</time>
      </trkpt>
      <trkpt lat="45.82264" lon="4.38641">
        <ele>806</ele>
        <time>2022-06-26T11:40:29Z</time>
      </trkpt>
      <trkpt lat="45.82259" lon="4.38627">
        <ele>805.2</ele>
        <time>2022-06-26T11:40:30Z</time>
      </trkpt>
      <trkpt lat="45.82253" lon="4.38613">
        <ele>804.4</ele>
        <time>2022-06-26T11:40:31Z</time>
      </trkpt>
      <trkpt lat="45.82247" lon="4.38602">
        <ele>803.6</ele>
        <time>2022-06-26T11:40:32Z</time>
      </trkpt>
      <trkpt lat="45.82238" lon="4.38591">
        <ele>802.8</ele>
        <time>2022-06-26T11:40:33Z</time>
      </trkpt>
      <trkpt lat="45.82223" lon="4.38582">
        <ele>802.4</ele>
        <time>2022-06-26T11:40:34Z</time>
      </trkpt>
      <trkpt lat="45.82212" lon="4.38575">
        <ele>801.8</ele>
        <time>2022-06-26T11:40:35Z</time>
      </trkpt>
      <trkpt lat="45.82201" lon="4.38569">
        <ele>801</ele>
        <time>2022-06-26T11:40:36Z</time>
      </trkpt>
      <trkpt lat="45.8219" lon="4.38566">
        <ele>800.2</ele>
        <time>2022-06-26T11:40:37Z</time>
      </trkpt>
      <trkpt lat="45.82179" lon="4.38563">
        <ele>799.6</ele>
        <time>2022-06-26T11:40:38Z</time>
      </trkpt>
      <trkpt lat="45.82168" lon="4.3856">
        <ele>799</ele>
        <time>2022-06-26T11:40:39Z</time>
      </trkpt>
      <trkpt lat="45.82158" lon="4.38558">
        <ele>798.6</ele>
        <time>2022-06-26T11:40:40Z</time>
      </trkpt>
      <trkpt lat="45.82147" lon="4.38556">
        <ele>798.2</ele>
        <time>2022-06-26T11:40:41Z</time>
      </trkpt>
      <trkpt lat="45.82136" lon="4.38553">
        <ele>797.8</ele>
        <time>2022-06-26T11:40:42Z</time>
      </trkpt>
      <trkpt lat="45.82126" lon="4.3855">
        <ele>797.2</ele>
        <time>2022-06-26T11:40:43Z</time>
      </trkpt>
      <trkpt lat="45.82115" lon="4.38547">
        <ele>796.8</ele>
        <time>2022-06-26T11:40:44Z</time>
      </trkpt>
      <trkpt lat="45.82106" lon="4.38543">
        <ele>796.2</ele>
        <time>2022-06-26T11:40:45Z</time>
      </trkpt>
      <trkpt lat="45.82097" lon="4.3854">
        <ele>795.6</ele>
        <time>2022-06-26T11:40:46Z</time>
      </trkpt>
      <trkpt lat="45.82087" lon="4.38539">
        <ele>795</ele>
        <time>2022-06-26T11:40:47Z</time>
      </trkpt>
      <trkpt lat="45.82076" lon="4.38539">
        <ele>794.6</ele>
        <time>2022-06-26T11:40:48Z</time>
      </trkpt>
      <trkpt lat="45.82066" lon="4.3854">
        <ele>794</ele>
        <time>2022-06-26T11:40:49Z</time>
      </trkpt>
      <trkpt lat="45.82057" lon="4.38541">
        <ele>794</ele>
        <time>2022-06-26T11:40:50Z</time>
      </trkpt>
      <trkpt lat="45.82047" lon="4.38543">
        <ele>793.2</ele>
        <time>2022-06-26T11:40:51Z</time>
      </trkpt>
      <trkpt lat="45.82037" lon="4.38545">
        <ele>792.8</ele>
        <time>2022-06-26T11:40:52Z</time>
      </trkpt>
      <trkpt lat="45.82029" lon="4.38548">
        <ele>792.2</ele>
        <time>2022-06-26T11:40:53Z</time>
      </trkpt>
      <trkpt lat="45.8202" lon="4.38551">
        <ele>791.8</ele>
        <time>2022-06-26T11:40:54Z</time>
      </trkpt>
      <trkpt lat="45.82013" lon="4.38554">
        <ele>791.4</ele>
        <time>2022-06-26T11:40:55Z</time>
      </trkpt>
      <trkpt lat="45.82005" lon="4.38558">
        <ele>791</ele>
        <time>2022-06-26T11:40:56Z</time>
      </trkpt>
      <trkpt lat="45.81999" lon="4.38562">
        <ele>790.6</ele>
        <time>2022-06-26T11:40:57Z</time>
      </trkpt>
      <trkpt lat="45.81992" lon="4.38566">
        <ele>790</ele>
        <time>2022-06-26T11:40:58Z</time>
      </trkpt>
      <trkpt lat="45.81985" lon="4.38571">
        <ele>789.6</ele>
        <time>2022-06-26T11:40:59Z</time>
      </trkpt>
      <trkpt lat="45.81979" lon="4.38575">
        <ele>789.4</ele>
        <time>2022-06-26T11:41:00Z</time>
      </trkpt>
      <trkpt lat="45.81974" lon="4.38579">
        <ele>789</ele>
        <time>2022-06-26T11:41:01Z</time>
      </trkpt>
      <trkpt lat="45.81969" lon="4.38583">
        <ele>788.6</ele>
        <time>2022-06-26T11:41:02Z</time>
      </trkpt>
      <trkpt lat="45.81964" lon="4.38587">
        <ele>788.2</ele>
        <time>2022-06-26T11:41:03Z</time>
      </trkpt>
      <trkpt lat="45.8196" lon="4.38592">
        <ele>788</ele>
        <time>2022-06-26T11:41:04Z</time>
      </trkpt>
      <trkpt lat="45.81957" lon="4.38598">
        <ele>787.8</ele>
        <time>2022-06-26T11:41:05Z</time>
      </trkpt>
      <trkpt lat="45.81955" lon="4.38605">
        <ele>787.4</ele>
        <time>2022-06-26T11:41:06Z</time>
      </trkpt>
      <trkpt lat="45.81955" lon="4.38612">
        <ele>787.2</ele>
        <time>2022-06-26T11:41:07Z</time>
      </trkpt>
      <trkpt lat="45.81956" lon="4.38619">
        <ele>787.2</ele>
        <time>2022-06-26T11:41:08Z</time>
      </trkpt>
      <trkpt lat="45.81958" lon="4.38625">
        <ele>787</ele>
        <time>2022-06-26T11:41:09Z</time>
      </trkpt>
      <trkpt lat="45.81961" lon="4.38632">
        <ele>787</ele>
        <time>2022-06-26T11:41:10Z</time>
      </trkpt>
      <trkpt lat="45.81964" lon="4.38638">
        <ele>786.6</ele>
        <time>2022-06-26T11:41:11Z</time>
      </trkpt>
      <trkpt lat="45.81966" lon="4.38645">
        <ele>786.6</ele>
        <time>2022-06-26T11:41:12Z</time>
      </trkpt>
      <trkpt lat="45.81969" lon="4.38652">
        <ele>786.4</ele>
        <time>2022-06-26T11:41:13Z</time>
      </trkpt>
      <trkpt lat="45.81971" lon="4.3866">
        <ele>786.4</ele>
        <time>2022-06-26T11:41:14Z</time>
      </trkpt>
      <trkpt lat="45.81974" lon="4.38668">
        <ele>786</ele>
        <time>2022-06-26T11:41:15Z</time>
      </trkpt>
      <trkpt lat="45.81976" lon="4.38677">
        <ele>785.8</ele>
        <time>2022-06-26T11:41:16Z</time>
      </trkpt>
      <trkpt lat="45.81979" lon="4.38686">
        <ele>785.4</ele>
        <time>2022-06-26T11:41:17Z</time>
      </trkpt>
      <trkpt lat="45.81981" lon="4.38694">
        <ele>785</ele>
        <time>2022-06-26T11:41:18Z</time>
      </trkpt>
      <trkpt lat="45.81983" lon="4.38703">
        <ele>784.6</ele>
        <time>2022-06-26T11:41:19Z</time>
      </trkpt>
      <trkpt lat="45.81985" lon="4.38712">
        <ele>784.6</ele>
        <time>2022-06-26T11:41:20Z</time>
      </trkpt>
      <trkpt lat="45.81987" lon="4.38722">
        <ele>784.4</ele>
        <time>2022-06-26T11:41:21Z</time>
      </trkpt>
      <trkpt lat="45.8199" lon="4.38731">
        <ele>784</ele>
        <time>2022-06-26T11:41:22Z</time>
      </trkpt>
      <trkpt lat="45.81993" lon="4.38741">
        <ele>783.6</ele>
        <time>2022-06-26T11:41:23Z</time>
      </trkpt>
      <trkpt lat="45.81996" lon="4.38751">
        <ele>783.2</ele>
        <time>2022-06-26T11:41:24Z</time>
      </trkpt>
      <trkpt lat="45.81999" lon="4.3876">
        <ele>783</ele>
        <time>2022-06-26T11:41:25Z</time>
      </trkpt>
      <trkpt lat="45.82001" lon="4.3877">
        <ele>782.6</ele>
        <time>2022-06-26T11:41:26Z</time>
      </trkpt>
      <trkpt lat="45.82004" lon="4.3878">
        <ele>782.2</ele>
        <time>2022-06-26T11:41:27Z</time>
      </trkpt>
      <trkpt lat="45.82007" lon="4.3879">
        <ele>782.2</ele>
        <time>2022-06-26T11:41:28Z</time>
      </trkpt>
      <trkpt lat="45.8201" lon="4.388">
        <ele>781.8</ele>
        <time>2022-06-26T11:41:29Z</time>
      </trkpt>
      <trkpt lat="45.82014" lon="4.38811">
        <ele>781.4</ele>
        <time>2022-06-26T11:41:30Z</time>
      </trkpt>
      <trkpt lat="45.82017" lon="4.38823">
        <ele>781</ele>
        <time>2022-06-26T11:41:31Z</time>
      </trkpt>
      <trkpt lat="45.8202" lon="4.38836">
        <ele>780.8</ele>
        <time>2022-06-26T11:41:32Z</time>
      </trkpt>
      <trkpt lat="45.82024" lon="4.38849">
        <ele>780.4</ele>
        <time>2022-06-26T11:41:33Z</time>
      </trkpt>
      <trkpt lat="45.82027" lon="4.38862">
        <ele>780</ele>
        <time>2022-06-26T11:41:34Z</time>
      </trkpt>
      <trkpt lat="45.8203" lon="4.38875">
        <ele>779.8</ele>
        <time>2022-06-26T11:41:35Z</time>
      </trkpt>
      <trkpt lat="45.82033" lon="4.38889">
        <ele>779.4</ele>
        <time>2022-06-26T11:41:36Z</time>
      </trkpt>
      <trkpt lat="45.82034" lon="4.38903">
        <ele>779</ele>
        <time>2022-06-26T11:41:37Z</time>
      </trkpt>
      <trkpt lat="45.82035" lon="4.38916">
        <ele>778.6</ele>
        <time>2022-06-26T11:41:38Z</time>
      </trkpt>
      <trkpt lat="45.82036" lon="4.3893">
        <ele>778.4</ele>
        <time>2022-06-26T11:41:39Z</time>
      </trkpt>
      <trkpt lat="45.82037" lon="4.38944">
        <ele>778.4</ele>
        <time>2022-06-26T11:41:40Z</time>
      </trkpt>
      <trkpt lat="45.82037" lon="4.38959">
        <ele>778</ele>
        <time>2022-06-26T11:41:41Z</time>
      </trkpt>
      <trkpt lat="45.82037" lon="4.38973">
        <ele>777.6</ele>
        <time>2022-06-26T11:41:42Z</time>
      </trkpt>
      <trkpt lat="45.82037" lon="4.38987">
        <ele>777.4</ele>
        <time>2022-06-26T11:41:43Z</time>
      </trkpt>
      <trkpt lat="45.82035" lon="4.39">
        <ele>777.4</ele>
        <time>2022-06-26T11:41:44Z</time>
      </trkpt>
      <trkpt lat="45.82032" lon="4.39013">
        <ele>777.4</ele>
        <time>2022-06-26T11:41:45Z</time>
      </trkpt>
      <trkpt lat="45.82029" lon="4.39026">
        <ele>777.4</ele>
        <time>2022-06-26T11:41:46Z</time>
      </trkpt>
      <trkpt lat="45.82025" lon="4.39038">
        <ele>777.4</ele>
        <time>2022-06-26T11:41:47Z</time>
      </trkpt>
      <trkpt lat="45.82022" lon="4.3905">
        <ele>777.2</ele>
        <time>2022-06-26T11:41:48Z</time>
      </trkpt>
      <trkpt lat="45.82019" lon="4.39062">
        <ele>777.2</ele>
        <time>2022-06-26T11:41:49Z</time>
      </trkpt>
      <trkpt lat="45.82016" lon="4.39073">
        <ele>776.6</ele>
        <time>2022-06-26T11:41:51Z</time>
      </trkpt>
      <trkpt lat="45.82013" lon="4.39084">
        <ele>776.4</ele>
        <time>2022-06-26T11:41:52Z</time>
      </trkpt>
      <trkpt lat="45.82012" lon="4.39096">
        <ele>776.4</ele>
        <time>2022-06-26T11:41:53Z</time>
      </trkpt>
      <trkpt lat="45.82012" lon="4.39108">
        <ele>776</ele>
        <time>2022-06-26T11:41:54Z</time>
      </trkpt>
      <trkpt lat="45.82013" lon="4.39119">
        <ele>776</ele>
        <time>2022-06-26T11:41:55Z</time>
      </trkpt>
      <trkpt lat="45.82015" lon="4.39129">
        <ele>775.8</ele>
        <time>2022-06-26T11:41:56Z</time>
      </trkpt>
      <trkpt lat="45.82019" lon="4.39138">
        <ele>775.8</ele>
        <time>2022-06-26T11:41:57Z</time>
      </trkpt>
      <trkpt lat="45.82023" lon="4.39146">
        <ele>775.8</ele>
        <time>2022-06-26T11:41:58Z</time>
      </trkpt>
      <trkpt lat="45.82028" lon="4.39154">
        <ele>775.4</ele>
        <time>2022-06-26T11:41:59Z</time>
      </trkpt>
      <trkpt lat="45.82033" lon="4.39162">
        <ele>775.4</ele>
        <time>2022-06-26T11:42:00Z</time>
      </trkpt>
      <trkpt lat="45.82038" lon="4.3917">
        <ele>775</ele>
        <time>2022-06-26T11:42:01Z</time>
      </trkpt>
      <trkpt lat="45.82043" lon="4.39178">
        <ele>775</ele>
        <time>2022-06-26T11:42:02Z</time>
      </trkpt>
      <trkpt lat="45.82048" lon="4.39186">
        <ele>774.8</ele>
        <time>2022-06-26T11:42:03Z</time>
      </trkpt>
      <trkpt lat="45.82053" lon="4.39195">
        <ele>774.8</ele>
        <time>2022-06-26T11:42:04Z</time>
      </trkpt>
      <trkpt lat="45.82057" lon="4.39204">
        <ele>774.4</ele>
        <time>2022-06-26T11:42:05Z</time>
      </trkpt>
      <trkpt lat="45.8206" lon="4.39214">
        <ele>774.2</ele>
        <time>2022-06-26T11:42:06Z</time>
      </trkpt>
      <trkpt lat="45.82063" lon="4.39224">
        <ele>773.8</ele>
        <time>2022-06-26T11:42:07Z</time>
      </trkpt>
      <trkpt lat="45.82064" lon="4.39235">
        <ele>773.6</ele>
        <time>2022-06-26T11:42:08Z</time>
      </trkpt>
      <trkpt lat="45.82065" lon="4.39246">
        <ele>773.6</ele>
        <time>2022-06-26T11:42:09Z</time>
      </trkpt>
      <trkpt lat="45.82065" lon="4.39257">
        <ele>773.6</ele>
        <time>2022-06-26T11:42:10Z</time>
      </trkpt>
      <trkpt lat="45.82064" lon="4.39269">
        <ele>773.2</ele>
        <time>2022-06-26T11:42:11Z</time>
      </trkpt>
      <trkpt lat="45.82063" lon="4.3928">
        <ele>773</ele>
        <time>2022-06-26T11:42:12Z</time>
      </trkpt>
      <trkpt lat="45.82063" lon="4.39292">
        <ele>772.6</ele>
        <time>2022-06-26T11:42:13Z</time>
      </trkpt>
      <trkpt lat="45.82062" lon="4.39303">
        <ele>772.2</ele>
        <time>2022-06-26T11:42:14Z</time>
      </trkpt>
      <trkpt lat="45.82062" lon="4.39315">
        <ele>772</ele>
        <time>2022-06-26T11:42:15Z</time>
      </trkpt>
      <trkpt lat="45.82061" lon="4.39327">
        <ele>772</ele>
        <time>2022-06-26T11:42:16Z</time>
      </trkpt>
      <trkpt lat="45.82061" lon="4.39339">
        <ele>771.8</ele>
        <time>2022-06-26T11:42:17Z</time>
      </trkpt>
      <trkpt lat="45.8206" lon="4.39351">
        <ele>771.8</ele>
        <time>2022-06-26T11:42:18Z</time>
      </trkpt>
      <trkpt lat="45.82059" lon="4.39363">
        <ele>771.8</ele>
        <time>2022-06-26T11:42:19Z</time>
      </trkpt>
      <trkpt lat="45.82058" lon="4.39375">
        <ele>771.4</ele>
        <time>2022-06-26T11:42:20Z</time>
      </trkpt>
      <trkpt lat="45.82058" lon="4.39387">
        <ele>771.2</ele>
        <time>2022-06-26T11:42:21Z</time>
      </trkpt>
      <trkpt lat="45.82058" lon="4.39399">
        <ele>770.8</ele>
        <time>2022-06-26T11:42:22Z</time>
      </trkpt>
      <trkpt lat="45.82057" lon="4.39411">
        <ele>770.4</ele>
        <time>2022-06-26T11:42:23Z</time>
      </trkpt>
      <trkpt lat="45.82056" lon="4.39422">
        <ele>770</ele>
        <time>2022-06-26T11:42:24Z</time>
      </trkpt>
      <trkpt lat="45.82056" lon="4.39434">
        <ele>769.8</ele>
        <time>2022-06-26T11:42:25Z</time>
      </trkpt>
      <trkpt lat="45.82056" lon="4.39446">
        <ele>769.8</ele>
        <time>2022-06-26T11:42:26Z</time>
      </trkpt>
      <trkpt lat="45.82057" lon="4.39457">
        <ele>769.6</ele>
        <time>2022-06-26T11:42:27Z</time>
      </trkpt>
      <trkpt lat="45.82058" lon="4.39468">
        <ele>769.4</ele>
        <time>2022-06-26T11:42:28Z</time>
      </trkpt>
      <trkpt lat="45.8206" lon="4.39479">
        <ele>769</ele>
        <time>2022-06-26T11:42:29Z</time>
      </trkpt>
      <trkpt lat="45.82063" lon="4.3949">
        <ele>768.8</ele>
        <time>2022-06-26T11:42:30Z</time>
      </trkpt>
      <trkpt lat="45.82066" lon="4.39501">
        <ele>768.4</ele>
        <time>2022-06-26T11:42:31Z</time>
      </trkpt>
      <trkpt lat="45.82069" lon="4.39512">
        <ele>768.2</ele>
        <time>2022-06-26T11:42:32Z</time>
      </trkpt>
      <trkpt lat="45.82072" lon="4.39523">
        <ele>768</ele>
        <time>2022-06-26T11:42:33Z</time>
      </trkpt>
      <trkpt lat="45.82075" lon="4.39534">
        <ele>767.8</ele>
        <time>2022-06-26T11:42:34Z</time>
      </trkpt>
      <trkpt lat="45.82077" lon="4.39546">
        <ele>767.4</ele>
        <time>2022-06-26T11:42:35Z</time>
      </trkpt>
      <trkpt lat="45.82079" lon="4.39558">
        <ele>767.2</ele>
        <time>2022-06-26T11:42:36Z</time>
      </trkpt>
      <trkpt lat="45.82081" lon="4.39569">
        <ele>767</ele>
        <time>2022-06-26T11:42:37Z</time>
      </trkpt>
      <trkpt lat="45.82082" lon="4.39582">
        <ele>766.6</ele>
        <time>2022-06-26T11:42:38Z</time>
      </trkpt>
      <trkpt lat="45.82084" lon="4.39594">
        <ele>766.4</ele>
        <time>2022-06-26T11:42:39Z</time>
      </trkpt>
      <trkpt lat="45.82086" lon="4.39606">
        <ele>766.2</ele>
        <time>2022-06-26T11:42:40Z</time>
      </trkpt>
      <trkpt lat="45.82088" lon="4.39618">
        <ele>766</ele>
        <time>2022-06-26T11:42:41Z</time>
      </trkpt>
      <trkpt lat="45.82089" lon="4.3963">
        <ele>765.4</ele>
        <time>2022-06-26T11:42:42Z</time>
      </trkpt>
      <trkpt lat="45.8209" lon="4.39642">
        <ele>765</ele>
        <time>2022-06-26T11:42:43Z</time>
      </trkpt>
      <trkpt lat="45.82091" lon="4.39654">
        <ele>764.6</ele>
        <time>2022-06-26T11:42:44Z</time>
      </trkpt>
      <trkpt lat="45.8209" lon="4.39667">
        <ele>764.6</ele>
        <time>2022-06-26T11:42:45Z</time>
      </trkpt>
      <trkpt lat="45.82088" lon="4.39679">
        <ele>764.2</ele>
        <time>2022-06-26T11:42:46Z</time>
      </trkpt>
      <trkpt lat="45.82084" lon="4.3969">
        <ele>764.2</ele>
        <time>2022-06-26T11:42:47Z</time>
      </trkpt>
      <trkpt lat="45.8208" lon="4.39701">
        <ele>764.2</ele>
        <time>2022-06-26T11:42:48Z</time>
      </trkpt>
      <trkpt lat="45.82074" lon="4.39712">
        <ele>764</ele>
        <time>2022-06-26T11:42:49Z</time>
      </trkpt>
      <trkpt lat="45.82069" lon="4.39722">
        <ele>763.6</ele>
        <time>2022-06-26T11:42:50Z</time>
      </trkpt>
      <trkpt lat="45.82063" lon="4.39732">
        <ele>763.4</ele>
        <time>2022-06-26T11:42:51Z</time>
      </trkpt>
      <trkpt lat="45.82058" lon="4.39742">
        <ele>763</ele>
        <time>2022-06-26T11:42:52Z</time>
      </trkpt>
      <trkpt lat="45.82052" lon="4.39751">
        <ele>762.6</ele>
        <time>2022-06-26T11:42:53Z</time>
      </trkpt>
      <trkpt lat="45.82047" lon="4.3976">
        <ele>762.2</ele>
        <time>2022-06-26T11:42:54Z</time>
      </trkpt>
      <trkpt lat="45.82042" lon="4.3977">
        <ele>761.8</ele>
        <time>2022-06-26T11:42:55Z</time>
      </trkpt>
      <trkpt lat="45.82037" lon="4.39779">
        <ele>761.4</ele>
        <time>2022-06-26T11:42:56Z</time>
      </trkpt>
      <trkpt lat="45.82031" lon="4.39788">
        <ele>761.4</ele>
        <time>2022-06-26T11:42:57Z</time>
      </trkpt>
      <trkpt lat="45.82026" lon="4.39797">
        <ele>761.4</ele>
        <time>2022-06-26T11:42:58Z</time>
      </trkpt>
      <trkpt lat="45.82021" lon="4.39806">
        <ele>761</ele>
        <time>2022-06-26T11:42:59Z</time>
      </trkpt>
      <trkpt lat="45.82016" lon="4.39815">
        <ele>760.8</ele>
        <time>2022-06-26T11:43:00Z</time>
      </trkpt>
      <trkpt lat="45.82011" lon="4.39824">
        <ele>760.8</ele>
        <time>2022-06-26T11:43:01Z</time>
      </trkpt>
      <trkpt lat="45.82006" lon="4.39833">
        <ele>760.8</ele>
        <time>2022-06-26T11:43:02Z</time>
      </trkpt>
      <trkpt lat="45.82001" lon="4.39842">
        <ele>760.8</ele>
        <time>2022-06-26T11:43:03Z</time>
      </trkpt>
      <trkpt lat="45.81996" lon="4.39851">
        <ele>760.2</ele>
        <time>2022-06-26T11:43:04Z</time>
      </trkpt>
      <trkpt lat="45.81992" lon="4.3986">
        <ele>760</ele>
        <time>2022-06-26T11:43:05Z</time>
      </trkpt>
      <trkpt lat="45.81987" lon="4.39869">
        <ele>760</ele>
        <time>2022-06-26T11:43:06Z</time>
      </trkpt>
      <trkpt lat="45.81983" lon="4.39878">
        <ele>759.6</ele>
        <time>2022-06-26T11:43:07Z</time>
      </trkpt>
      <trkpt lat="45.81979" lon="4.39888">
        <ele>759.4</ele>
        <time>2022-06-26T11:43:08Z</time>
      </trkpt>
      <trkpt lat="45.81974" lon="4.39897">
        <ele>759</ele>
        <time>2022-06-26T11:43:09Z</time>
      </trkpt>
      <trkpt lat="45.8197" lon="4.39907">
        <ele>758.8</ele>
        <time>2022-06-26T11:43:10Z</time>
      </trkpt>
      <trkpt lat="45.81966" lon="4.39917">
        <ele>758.8</ele>
        <time>2022-06-26T11:43:11Z</time>
      </trkpt>
      <trkpt lat="45.81961" lon="4.39926">
        <ele>758.6</ele>
        <time>2022-06-26T11:43:12Z</time>
      </trkpt>
      <trkpt lat="45.81956" lon="4.39934">
        <ele>758.6</ele>
        <time>2022-06-26T11:43:13Z</time>
      </trkpt>
      <trkpt lat="45.8195" lon="4.39941">
        <ele>758.6</ele>
        <time>2022-06-26T11:43:14Z</time>
      </trkpt>
      <trkpt lat="45.81944" lon="4.39947">
        <ele>758.6</ele>
        <time>2022-06-26T11:43:15Z</time>
      </trkpt>
      <trkpt lat="45.81937" lon="4.39953">
        <ele>758.6</ele>
        <time>2022-06-26T11:43:16Z</time>
      </trkpt>
      <trkpt lat="45.8193" lon="4.39957">
        <ele>758.4</ele>
        <time>2022-06-26T11:43:17Z</time>
      </trkpt>
      <trkpt lat="45.81923" lon="4.39961">
        <ele>758.4</ele>
        <time>2022-06-26T11:43:18Z</time>
      </trkpt>
      <trkpt lat="45.81915" lon="4.39965">
        <ele>758</ele>
        <time>2022-06-26T11:43:19Z</time>
      </trkpt>
      <trkpt lat="45.81908" lon="4.3997">
        <ele>757.6</ele>
        <time>2022-06-26T11:43:20Z</time>
      </trkpt>
      <trkpt lat="45.81901" lon="4.39974">
        <ele>757.6</ele>
        <time>2022-06-26T11:43:21Z</time>
      </trkpt>
      <trkpt lat="45.81894" lon="4.39979">
        <ele>757.2</ele>
        <time>2022-06-26T11:43:22Z</time>
      </trkpt>
      <trkpt lat="45.81887" lon="4.39984">
        <ele>757.2</ele>
        <time>2022-06-26T11:43:23Z</time>
      </trkpt>
      <trkpt lat="45.8188" lon="4.39989">
        <ele>756.8</ele>
        <time>2022-06-26T11:43:24Z</time>
      </trkpt>
      <trkpt lat="45.81873" lon="4.39995">
        <ele>756.8</ele>
        <time>2022-06-26T11:43:25Z</time>
      </trkpt>
      <trkpt lat="45.81867" lon="4.40003">
        <ele>756.6</ele>
        <time>2022-06-26T11:43:26Z</time>
      </trkpt>
      <trkpt lat="45.81862" lon="4.40012">
        <ele>756.4</ele>
        <time>2022-06-26T11:43:27Z</time>
      </trkpt>
      <trkpt lat="45.81858" lon="4.40021">
        <ele>756.4</ele>
        <time>2022-06-26T11:43:28Z</time>
      </trkpt>
      <trkpt lat="45.81855" lon="4.40032">
        <ele>756</ele>
        <time>2022-06-26T11:43:29Z</time>
      </trkpt>
      <trkpt lat="45.81854" lon="4.40043">
        <ele>756</ele>
        <time>2022-06-26T11:43:30Z</time>
      </trkpt>
      <trkpt lat="45.81855" lon="4.40054">
        <ele>755.4</ele>
        <time>2022-06-26T11:43:31Z</time>
      </trkpt>
      <trkpt lat="45.81857" lon="4.40064">
        <ele>755</ele>
        <time>2022-06-26T11:43:32Z</time>
      </trkpt>
      <trkpt lat="45.8186" lon="4.40075">
        <ele>754.6</ele>
        <time>2022-06-26T11:43:33Z</time>
      </trkpt>
      <trkpt lat="45.81864" lon="4.40085">
        <ele>754.4</ele>
        <time>2022-06-26T11:43:34Z</time>
      </trkpt>
      <trkpt lat="45.81868" lon="4.40095">
        <ele>753.8</ele>
        <time>2022-06-26T11:43:35Z</time>
      </trkpt>
      <trkpt lat="45.81873" lon="4.40105">
        <ele>753.2</ele>
        <time>2022-06-26T11:43:36Z</time>
      </trkpt>
      <trkpt lat="45.81877" lon="4.40116">
        <ele>752.8</ele>
        <time>2022-06-26T11:43:37Z</time>
      </trkpt>
      <trkpt lat="45.81881" lon="4.40126">
        <ele>752.4</ele>
        <time>2022-06-26T11:43:38Z</time>
      </trkpt>
      <trkpt lat="45.81884" lon="4.40137">
        <ele>752</ele>
        <time>2022-06-26T11:43:39Z</time>
      </trkpt>
      <trkpt lat="45.81886" lon="4.40148">
        <ele>752</ele>
        <time>2022-06-26T11:43:40Z</time>
      </trkpt>
      <trkpt lat="45.81888" lon="4.4016">
        <ele>751.8</ele>
        <time>2022-06-26T11:43:41Z</time>
      </trkpt>
      <trkpt lat="45.81888" lon="4.40172">
        <ele>751.6</ele>
        <time>2022-06-26T11:43:42Z</time>
      </trkpt>
      <trkpt lat="45.81887" lon="4.40185">
        <ele>751.4</ele>
        <time>2022-06-26T11:43:43Z</time>
      </trkpt>
      <trkpt lat="45.81884" lon="4.40196">
        <ele>750.8</ele>
        <time>2022-06-26T11:43:44Z</time>
      </trkpt>
      <trkpt lat="45.81879" lon="4.40207">
        <ele>750.6</ele>
        <time>2022-06-26T11:43:45Z</time>
      </trkpt>
      <trkpt lat="45.81874" lon="4.40216">
        <ele>750.2</ele>
        <time>2022-06-26T11:43:46Z</time>
      </trkpt>
      <trkpt lat="45.81868" lon="4.40226">
        <ele>750</ele>
        <time>2022-06-26T11:43:47Z</time>
      </trkpt>
      <trkpt lat="45.81862" lon="4.40235">
        <ele>749.6</ele>
        <time>2022-06-26T11:43:48Z</time>
      </trkpt>
      <trkpt lat="45.81856" lon="4.40245">
        <ele>749.4</ele>
        <time>2022-06-26T11:43:49Z</time>
      </trkpt>
      <trkpt lat="45.8185" lon="4.40254">
        <ele>749.2</ele>
        <time>2022-06-26T11:43:50Z</time>
      </trkpt>
      <trkpt lat="45.81844" lon="4.40265">
        <ele>749</ele>
        <time>2022-06-26T11:43:51Z</time>
      </trkpt>
      <trkpt lat="45.81838" lon="4.40274">
        <ele>748.6</ele>
        <time>2022-06-26T11:43:52Z</time>
      </trkpt>
      <trkpt lat="45.81832" lon="4.40284">
        <ele>748.4</ele>
        <time>2022-06-26T11:43:53Z</time>
      </trkpt>
      <trkpt lat="45.81826" lon="4.40293">
        <ele>748</ele>
        <time>2022-06-26T11:43:54Z</time>
      </trkpt>
      <trkpt lat="45.8182" lon="4.40302">
        <ele>747.8</ele>
        <time>2022-06-26T11:43:55Z</time>
      </trkpt>
      <trkpt lat="45.81814" lon="4.40313">
        <ele>747.4</ele>
        <time>2022-06-26T11:43:56Z</time>
      </trkpt>
      <trkpt lat="45.81808" lon="4.40323">
        <ele>747.4</ele>
        <time>2022-06-26T11:43:57Z</time>
      </trkpt>
      <trkpt lat="45.81802" lon="4.40334">
        <ele>746.8</ele>
        <time>2022-06-26T11:43:58Z</time>
      </trkpt>
      <trkpt lat="45.81796" lon="4.40343">
        <ele>746.4</ele>
        <time>2022-06-26T11:43:59Z</time>
      </trkpt>
      <trkpt lat="45.8179" lon="4.40354">
        <ele>746</ele>
        <time>2022-06-26T11:44:00Z</time>
      </trkpt>
      <trkpt lat="45.81784" lon="4.40365">
        <ele>745.6</ele>
        <time>2022-06-26T11:44:01Z</time>
      </trkpt>
      <trkpt lat="45.81777" lon="4.40374">
        <ele>745</ele>
        <time>2022-06-26T11:44:02Z</time>
      </trkpt>
      <trkpt lat="45.8177" lon="4.40385">
        <ele>744.4</ele>
        <time>2022-06-26T11:44:03Z</time>
      </trkpt>
      <trkpt lat="45.81764" lon="4.40396">
        <ele>744</ele>
        <time>2022-06-26T11:44:04Z</time>
      </trkpt>
      <trkpt lat="45.81758" lon="4.40407">
        <ele>743.6</ele>
        <time>2022-06-26T11:44:05Z</time>
      </trkpt>
      <trkpt lat="45.81752" lon="4.40416">
        <ele>743.2</ele>
        <time>2022-06-26T11:44:06Z</time>
      </trkpt>
      <trkpt lat="45.81747" lon="4.40425">
        <ele>742.8</ele>
        <time>2022-06-26T11:44:07Z</time>
      </trkpt>
      <trkpt lat="45.81742" lon="4.40434">
        <ele>742.2</ele>
        <time>2022-06-26T11:44:08Z</time>
      </trkpt>
      <trkpt lat="45.81737" lon="4.40442">
        <ele>741.8</ele>
        <time>2022-06-26T11:44:09Z</time>
      </trkpt>
      <trkpt lat="45.81732" lon="4.4045">
        <ele>741.2</ele>
        <time>2022-06-26T11:44:10Z</time>
      </trkpt>
      <trkpt lat="45.81728" lon="4.40457">
        <ele>740.6</ele>
        <time>2022-06-26T11:44:11Z</time>
      </trkpt>
      <trkpt lat="45.81724" lon="4.40463">
        <ele>740.2</ele>
        <time>2022-06-26T11:44:12Z</time>
      </trkpt>
      <trkpt lat="45.8172" lon="4.40469">
        <ele>739.8</ele>
        <time>2022-06-26T11:44:13Z</time>
      </trkpt>
      <trkpt lat="45.81715" lon="4.40474">
        <ele>739.4</ele>
        <time>2022-06-26T11:44:14Z</time>
      </trkpt>
      <trkpt lat="45.81711" lon="4.40479">
        <ele>739</ele>
        <time>2022-06-26T11:44:15Z</time>
      </trkpt>
      <trkpt lat="45.81705" lon="4.40482">
        <ele>738.6</ele>
        <time>2022-06-26T11:44:16Z</time>
      </trkpt>
      <trkpt lat="45.817" lon="4.40484">
        <ele>738.2</ele>
        <time>2022-06-26T11:44:17Z</time>
      </trkpt>
      <trkpt lat="45.81696" lon="4.40485">
        <ele>737.8</ele>
        <time>2022-06-26T11:44:18Z</time>
      </trkpt>
      <trkpt lat="45.81691" lon="4.40486">
        <ele>737.6</ele>
        <time>2022-06-26T11:44:19Z</time>
      </trkpt>
      <trkpt lat="45.81686" lon="4.40486">
        <ele>737.2</ele>
        <time>2022-06-26T11:44:20Z</time>
      </trkpt>
      <trkpt lat="45.81681" lon="4.40486">
        <ele>737</ele>
        <time>2022-06-26T11:44:21Z</time>
      </trkpt>
      <trkpt lat="45.81676" lon="4.40487">
        <ele>736.8</ele>
        <time>2022-06-26T11:44:22Z</time>
      </trkpt>
      <trkpt lat="45.81671" lon="4.40489">
        <ele>736.8</ele>
        <time>2022-06-26T11:44:23Z</time>
      </trkpt>
      <trkpt lat="45.81667" lon="4.40493">
        <ele>736.4</ele>
        <time>2022-06-26T11:44:24Z</time>
      </trkpt>
      <trkpt lat="45.81662" lon="4.40496">
        <ele>736.4</ele>
        <time>2022-06-26T11:44:25Z</time>
      </trkpt>
      <trkpt lat="45.81658" lon="4.405">
        <ele>736.4</ele>
        <time>2022-06-26T11:44:26Z</time>
      </trkpt>
      <trkpt lat="45.81654" lon="4.40503">
        <ele>736.4</ele>
        <time>2022-06-26T11:44:27Z</time>
      </trkpt>
      <trkpt lat="45.81651" lon="4.40505">
        <ele>736.4</ele>
        <time>2022-06-26T11:44:28Z</time>
      </trkpt>
      <trkpt lat="45.81648" lon="4.40508">
        <ele>736.6</ele>
        <time>2022-06-26T11:44:29Z</time>
      </trkpt>
      <trkpt lat="45.81645" lon="4.40511">
        <ele>736.8</ele>
        <time>2022-06-26T11:44:30Z</time>
      </trkpt>
      <trkpt lat="45.81643" lon="4.40514">
        <ele>737</ele>
        <time>2022-06-26T11:44:31Z</time>
      </trkpt>
      <trkpt lat="45.8164" lon="4.40516">
        <ele>737.4</ele>
        <time>2022-06-26T11:44:32Z</time>
      </trkpt>
      <trkpt lat="45.81638" lon="4.40519">
        <ele>737.4</ele>
        <time>2022-06-26T11:44:33Z</time>
      </trkpt>
      <trkpt lat="45.81636" lon="4.40521">
        <ele>737.8</ele>
        <time>2022-06-26T11:44:34Z</time>
      </trkpt>
      <trkpt lat="45.81634" lon="4.40523">
        <ele>737.8</ele>
        <time>2022-06-26T11:44:35Z</time>
      </trkpt>
      <trkpt lat="45.81632" lon="4.40524">
        <ele>738</ele>
        <time>2022-06-26T11:44:36Z</time>
      </trkpt>
      <trkpt lat="45.8163" lon="4.40525">
        <ele>738.2</ele>
        <time>2022-06-26T11:44:37Z</time>
      </trkpt>
      <trkpt lat="45.81628" lon="4.40527">
        <ele>738.2</ele>
        <time>2022-06-26T11:44:38Z</time>
      </trkpt>
      <trkpt lat="45.81625" lon="4.40528">
        <ele>738.6</ele>
        <time>2022-06-26T11:44:39Z</time>
      </trkpt>
      <trkpt lat="45.81623" lon="4.40529">
        <ele>739</ele>
        <time>2022-06-26T11:44:40Z</time>
      </trkpt>
      <trkpt lat="45.81621" lon="4.40531">
        <ele>739</ele>
        <time>2022-06-26T11:44:41Z</time>
      </trkpt>
      <trkpt lat="45.81619" lon="4.40533">
        <ele>739.2</ele>
        <time>2022-06-26T11:44:42Z</time>
      </trkpt>
      <trkpt lat="45.81617" lon="4.40534">
        <ele>739.4</ele>
        <time>2022-06-26T11:44:43Z</time>
      </trkpt>
      <trkpt lat="45.81615" lon="4.40536">
        <ele>739.8</ele>
        <time>2022-06-26T11:44:44Z</time>
      </trkpt>
      <trkpt lat="45.81613" lon="4.40537">
        <ele>740</ele>
        <time>2022-06-26T11:44:45Z</time>
      </trkpt>
      <trkpt lat="45.81612" lon="4.40538">
        <ele>740.2</ele>
        <time>2022-06-26T11:44:46Z</time>
      </trkpt>
      <trkpt lat="45.8161" lon="4.4054">
        <ele>740.6</ele>
        <time>2022-06-26T11:44:47Z</time>
      </trkpt>
      <trkpt lat="45.81608" lon="4.40542">
        <ele>740.8</ele>
        <time>2022-06-26T11:44:48Z</time>
      </trkpt>
      <trkpt lat="45.81607" lon="4.40543">
        <ele>741</ele>
        <time>2022-06-26T11:44:49Z</time>
      </trkpt>
      <trkpt lat="45.81605" lon="4.40545">
        <ele>741.2</ele>
        <time>2022-06-26T11:44:50Z</time>
      </trkpt>
      <trkpt lat="45.81603" lon="4.40546">
        <ele>741.4</ele>
        <time>2022-06-26T11:44:51Z</time>
      </trkpt>
      <trkpt lat="45.81601" lon="4.40547">
        <ele>741.8</ele>
        <time>2022-06-26T11:44:52Z</time>
      </trkpt>
      <trkpt lat="45.81599" lon="4.40548">
        <ele>741.8</ele>
        <time>2022-06-26T11:44:53Z</time>
      </trkpt>
      <trkpt lat="45.81597" lon="4.40549">
        <ele>742.2</ele>
        <time>2022-06-26T11:44:54Z</time>
      </trkpt>
      <trkpt lat="45.81596" lon="4.40551">
        <ele>742.4</ele>
        <time>2022-06-26T11:44:55Z</time>
      </trkpt>
      <trkpt lat="45.81595" lon="4.40553">
        <ele>742.6</ele>
        <time>2022-06-26T11:44:56Z</time>
      </trkpt>
      <trkpt lat="45.81593" lon="4.40555">
        <ele>743</ele>
        <time>2022-06-26T11:44:57Z</time>
      </trkpt>
      <trkpt lat="45.81592" lon="4.40556">
        <ele>743.2</ele>
        <time>2022-06-26T11:44:58Z</time>
      </trkpt>
      <trkpt lat="45.8159" lon="4.40557">
        <ele>743.4</ele>
        <time>2022-06-26T11:44:59Z</time>
      </trkpt>
      <trkpt lat="45.81588" lon="4.40559">
        <ele>743.6</ele>
        <time>2022-06-26T11:45:00Z</time>
      </trkpt>
      <trkpt lat="45.81587" lon="4.40561">
        <ele>743.6</ele>
        <time>2022-06-26T11:45:01Z</time>
      </trkpt>
      <trkpt lat="45.81586" lon="4.40562">
        <ele>743.8</ele>
        <time>2022-06-26T11:45:02Z</time>
      </trkpt>
      <trkpt lat="45.81584" lon="4.40562">
        <ele>743.8</ele>
        <time>2022-06-26T11:45:03Z</time>
      </trkpt>
      <trkpt lat="45.81583" lon="4.40563">
        <ele>744.2</ele>
        <time>2022-06-26T11:45:04Z</time>
      </trkpt>
      <trkpt lat="45.81581" lon="4.40564">
        <ele>744.2</ele>
        <time>2022-06-26T11:45:05Z</time>
      </trkpt>
      <trkpt lat="45.8158" lon="4.40566">
        <ele>744.6</ele>
        <time>2022-06-26T11:45:06Z</time>
      </trkpt>
      <trkpt lat="45.81578" lon="4.40567">
        <ele>744.8</ele>
        <time>2022-06-26T11:45:07Z</time>
      </trkpt>
      <trkpt lat="45.81577" lon="4.40568">
        <ele>745</ele>
        <time>2022-06-26T11:45:08Z</time>
      </trkpt>
      <trkpt lat="45.81575" lon="4.40569">
        <ele>745</ele>
        <time>2022-06-26T11:45:09Z</time>
      </trkpt>
      <trkpt lat="45.81573" lon="4.40568">
        <ele>745.4</ele>
        <time>2022-06-26T11:45:10Z</time>
      </trkpt>
      <trkpt lat="45.81572" lon="4.40568">
        <ele>745.4</ele>
        <time>2022-06-26T11:45:11Z</time>
      </trkpt>
      <trkpt lat="45.81571" lon="4.40568">
        <ele>745.4</ele>
        <time>2022-06-26T11:45:12Z</time>
      </trkpt>
      <trkpt lat="45.81569" lon="4.40568">
        <ele>745.6</ele>
        <time>2022-06-26T11:45:13Z</time>
      </trkpt>
      <trkpt lat="45.81568" lon="4.40569">
        <ele>745.6</ele>
        <time>2022-06-26T11:45:14Z</time>
      </trkpt>
      <trkpt lat="45.81567" lon="4.40572">
        <ele>745.6</ele>
        <time>2022-06-26T11:45:15Z</time>
      </trkpt>
      <trkpt lat="45.81567" lon="4.40574">
        <ele>745.8</ele>
        <time>2022-06-26T11:45:16Z</time>
      </trkpt>
      <trkpt lat="45.81567" lon="4.40576">
        <ele>745.8</ele>
        <time>2022-06-26T11:45:17Z</time>
      </trkpt>
      <trkpt lat="45.81567" lon="4.40578">
        <ele>746.2</ele>
        <time>2022-06-26T11:45:18Z</time>
      </trkpt>
      <trkpt lat="45.81567" lon="4.4058">
        <ele>746.2</ele>
        <time>2022-06-26T11:45:19Z</time>
      </trkpt>
      <trkpt lat="45.81566" lon="4.40582">
        <ele>746.4</ele>
        <time>2022-06-26T11:45:20Z</time>
      </trkpt>
      <trkpt lat="45.81564" lon="4.40584">
        <ele>746.6</ele>
        <time>2022-06-26T11:45:21Z</time>
      </trkpt>
      <trkpt lat="45.81562" lon="4.40586">
        <ele>746.8</ele>
        <time>2022-06-26T11:45:22Z</time>
      </trkpt>
      <trkpt lat="45.81561" lon="4.40587">
        <ele>747</ele>
        <time>2022-06-26T11:45:23Z</time>
      </trkpt>
      <trkpt lat="45.81561" lon="4.40588">
        <ele>747</ele>
        <time>2022-06-26T11:45:24Z</time>
      </trkpt>
      <trkpt lat="45.81561" lon="4.40589">
        <ele>747.4</ele>
        <time>2022-06-26T11:45:25Z</time>
      </trkpt>
      <trkpt lat="45.81565" lon="4.40583">
        <ele>747.6</ele>
        <time>2022-06-26T11:45:29Z</time>
      </trkpt>
      <trkpt lat="45.81566" lon="4.4058">
        <ele>747.6</ele>
        <time>2022-06-26T11:45:30Z</time>
      </trkpt>
      <trkpt lat="45.81568" lon="4.40577">
        <ele>747.4</ele>
        <time>2022-06-26T11:45:31Z</time>
      </trkpt>
      <trkpt lat="45.81571" lon="4.40574">
        <ele>747.4</ele>
        <time>2022-06-26T11:45:32Z</time>
      </trkpt>
      <trkpt lat="45.81573" lon="4.40572">
        <ele>747</ele>
        <time>2022-06-26T11:45:33Z</time>
      </trkpt>
      <trkpt lat="45.81576" lon="4.40569">
        <ele>746.8</ele>
        <time>2022-06-26T11:45:34Z</time>
      </trkpt>
      <trkpt lat="45.8158" lon="4.40566">
        <ele>746.6</ele>
        <time>2022-06-26T11:45:35Z</time>
      </trkpt>
      <trkpt lat="45.81583" lon="4.40563">
        <ele>746.2</ele>
        <time>2022-06-26T11:45:36Z</time>
      </trkpt>
      <trkpt lat="45.81587" lon="4.4056">
        <ele>746</ele>
        <time>2022-06-26T11:45:37Z</time>
      </trkpt>
      <trkpt lat="45.8159" lon="4.40556">
        <ele>745.6</ele>
        <time>2022-06-26T11:45:38Z</time>
      </trkpt>
      <trkpt lat="45.81594" lon="4.40553">
        <ele>745.4</ele>
        <time>2022-06-26T11:45:39Z</time>
      </trkpt>
      <trkpt lat="45.81597" lon="4.4055">
        <ele>745</ele>
        <time>2022-06-26T11:45:40Z</time>
      </trkpt>
      <trkpt lat="45.81601" lon="4.40546">
        <ele>744.6</ele>
        <time>2022-06-26T11:45:41Z</time>
      </trkpt>
      <trkpt lat="45.81604" lon="4.40542">
        <ele>744.2</ele>
        <time>2022-06-26T11:45:42Z</time>
      </trkpt>
      <trkpt lat="45.81608" lon="4.40538">
        <ele>743.8</ele>
        <time>2022-06-26T11:45:43Z</time>
      </trkpt>
      <trkpt lat="45.81613" lon="4.40535">
        <ele>743.4</ele>
        <time>2022-06-26T11:45:44Z</time>
      </trkpt>
      <trkpt lat="45.81618" lon="4.40531">
        <ele>743</ele>
        <time>2022-06-26T11:45:45Z</time>
      </trkpt>
      <trkpt lat="45.81623" lon="4.40527">
        <ele>742.4</ele>
        <time>2022-06-26T11:45:46Z</time>
      </trkpt>
      <trkpt lat="45.81628" lon="4.40523">
        <ele>741.8</ele>
        <time>2022-06-26T11:45:47Z</time>
      </trkpt>
      <trkpt lat="45.81633" lon="4.4052">
        <ele>741.2</ele>
        <time>2022-06-26T11:45:48Z</time>
      </trkpt>
      <trkpt lat="45.81638" lon="4.40516">
        <ele>740.8</ele>
        <time>2022-06-26T11:45:49Z</time>
      </trkpt>
      <trkpt lat="45.81643" lon="4.40512">
        <ele>740.4</ele>
        <time>2022-06-26T11:45:50Z</time>
      </trkpt>
      <trkpt lat="45.81647" lon="4.40508">
        <ele>740</ele>
        <time>2022-06-26T11:45:51Z</time>
      </trkpt>
      <trkpt lat="45.81652" lon="4.40504">
        <ele>739.2</ele>
        <time>2022-06-26T11:45:52Z</time>
      </trkpt>
      <trkpt lat="45.81655" lon="4.405">
        <ele>738.6</ele>
        <time>2022-06-26T11:45:53Z</time>
      </trkpt>
      <trkpt lat="45.81659" lon="4.40496">
        <ele>738.2</ele>
        <time>2022-06-26T11:45:54Z</time>
      </trkpt>
      <trkpt lat="45.81662" lon="4.40493">
        <ele>737.8</ele>
        <time>2022-06-26T11:45:55Z</time>
      </trkpt>
      <trkpt lat="45.81664" lon="4.40491">
        <ele>737.4</ele>
        <time>2022-06-26T11:45:56Z</time>
      </trkpt>
      <trkpt lat="45.81666" lon="4.40489">
        <ele>737</ele>
        <time>2022-06-26T11:45:57Z</time>
      </trkpt>
      <trkpt lat="45.81667" lon="4.40487">
        <ele>736.8</ele>
        <time>2022-06-26T11:45:58Z</time>
      </trkpt>
      <trkpt lat="45.81667" lon="4.40485">
        <ele>736.4</ele>
        <time>2022-06-26T11:45:59Z</time>
      </trkpt>
      <trkpt lat="45.81666" lon="4.40483">
        <ele>736.4</ele>
        <time>2022-06-26T11:46:00Z</time>
      </trkpt>
      <trkpt lat="45.81664" lon="4.40482">
        <ele>736.2</ele>
        <time>2022-06-26T11:46:01Z</time>
      </trkpt>
      <trkpt lat="45.81662" lon="4.40481">
        <ele>736.2</ele>
        <time>2022-06-26T11:46:02Z</time>
      </trkpt>
      <trkpt lat="45.81659" lon="4.40481">
        <ele>736</ele>
        <time>2022-06-26T11:46:03Z</time>
      </trkpt>
      <trkpt lat="45.81657" lon="4.40482">
        <ele>736</ele>
        <time>2022-06-26T11:46:04Z</time>
      </trkpt>
      <trkpt lat="45.81654" lon="4.40482">
        <ele>736</ele>
        <time>2022-06-26T11:46:05Z</time>
      </trkpt>
      <trkpt lat="45.81651" lon="4.40482">
        <ele>735.8</ele>
        <time>2022-06-26T11:46:06Z</time>
      </trkpt>
      <trkpt lat="45.81648" lon="4.40482">
        <ele>735.8</ele>
        <time>2022-06-26T11:46:07Z</time>
      </trkpt>
      <trkpt lat="45.81644" lon="4.40482">
        <ele>735.8</ele>
        <time>2022-06-26T11:46:08Z</time>
      </trkpt>
      <trkpt lat="45.8164" lon="4.40481">
        <ele>735.8</ele>
        <time>2022-06-26T11:46:09Z</time>
      </trkpt>
      <trkpt lat="45.81636" lon="4.40481">
        <ele>735.6</ele>
        <time>2022-06-26T11:46:10Z</time>
      </trkpt>
      <trkpt lat="45.81632" lon="4.4048">
        <ele>735.6</ele>
        <time>2022-06-26T11:46:11Z</time>
      </trkpt>
      <trkpt lat="45.81627" lon="4.4048">
        <ele>735.2</ele>
        <time>2022-06-26T11:46:12Z</time>
      </trkpt>
      <trkpt lat="45.81622" lon="4.4048">
        <ele>735.2</ele>
        <time>2022-06-26T11:46:13Z</time>
      </trkpt>
      <trkpt lat="45.81617" lon="4.4048">
        <ele>735</ele>
        <time>2022-06-26T11:46:14Z</time>
      </trkpt>
      <trkpt lat="45.81612" lon="4.40479">
        <ele>734.8</ele>
        <time>2022-06-26T11:46:15Z</time>
      </trkpt>
      <trkpt lat="45.81607" lon="4.40479">
        <ele>734.8</ele>
        <time>2022-06-26T11:46:16Z</time>
      </trkpt>
      <trkpt lat="45.81601" lon="4.40479">
        <ele>734.4</ele>
        <time>2022-06-26T11:46:17Z</time>
      </trkpt>
      <trkpt lat="45.81596" lon="4.40479">
        <ele>734.4</ele>
        <time>2022-06-26T11:46:18Z</time>
      </trkpt>
      <trkpt lat="45.8159" lon="4.40479">
        <ele>734</ele>
        <time>2022-06-26T11:46:19Z</time>
      </trkpt>
      <trkpt lat="45.81584" lon="4.40479">
        <ele>734</ele>
        <time>2022-06-26T11:46:20Z</time>
      </trkpt>
      <trkpt lat="45.81577" lon="4.40479">
        <ele>733.8</ele>
        <time>2022-06-26T11:46:21Z</time>
      </trkpt>
      <trkpt lat="45.8157" lon="4.40479">
        <ele>733.4</ele>
        <time>2022-06-26T11:46:22Z</time>
      </trkpt>
      <trkpt lat="45.81563" lon="4.40479">
        <ele>733.4</ele>
        <time>2022-06-26T11:46:23Z</time>
      </trkpt>
      <trkpt lat="45.81556" lon="4.40479">
        <ele>733.2</ele>
        <time>2022-06-26T11:46:24Z</time>
      </trkpt>
      <trkpt lat="45.81549" lon="4.40479">
        <ele>732.8</ele>
        <time>2022-06-26T11:46:25Z</time>
      </trkpt>
      <trkpt lat="45.81541" lon="4.40479">
        <ele>732.6</ele>
        <time>2022-06-26T11:46:26Z</time>
      </trkpt>
      <trkpt lat="45.81534" lon="4.40479">
        <ele>732.4</ele>
        <time>2022-06-26T11:46:27Z</time>
      </trkpt>
      <trkpt lat="45.81527" lon="4.40478">
        <ele>732.4</ele>
        <time>2022-06-26T11:46:28Z</time>
      </trkpt>
      <trkpt lat="45.8152" lon="4.40477">
        <ele>732</ele>
        <time>2022-06-26T11:46:29Z</time>
      </trkpt>
      <trkpt lat="45.81513" lon="4.40475">
        <ele>731.6</ele>
        <time>2022-06-26T11:46:30Z</time>
      </trkpt>
      <trkpt lat="45.81506" lon="4.40473">
        <ele>731.6</ele>
        <time>2022-06-26T11:46:31Z</time>
      </trkpt>
      <trkpt lat="45.815" lon="4.4047">
        <ele>731.6</ele>
        <time>2022-06-26T11:46:32Z</time>
      </trkpt>
      <trkpt lat="45.81493" lon="4.40466">
        <ele>731.6</ele>
        <time>2022-06-26T11:46:33Z</time>
      </trkpt>
      <trkpt lat="45.81487" lon="4.40463">
        <ele>731.6</ele>
        <time>2022-06-26T11:46:34Z</time>
      </trkpt>
      <trkpt lat="45.81481" lon="4.40459">
        <ele>731.6</ele>
        <time>2022-06-26T11:46:35Z</time>
      </trkpt>
      <trkpt lat="45.81474" lon="4.40456">
        <ele>731.6</ele>
        <time>2022-06-26T11:46:36Z</time>
      </trkpt>
      <trkpt lat="45.81468" lon="4.40453">
        <ele>731.6</ele>
        <time>2022-06-26T11:46:37Z</time>
      </trkpt>
      <trkpt lat="45.81462" lon="4.4045">
        <ele>731.6</ele>
        <time>2022-06-26T11:46:38Z</time>
      </trkpt>
      <trkpt lat="45.81456" lon="4.40447">
        <ele>731.6</ele>
        <time>2022-06-26T11:46:39Z</time>
      </trkpt>
      <trkpt lat="45.8145" lon="4.40445">
        <ele>731.6</ele>
        <time>2022-06-26T11:46:40Z</time>
      </trkpt>
      <trkpt lat="45.81444" lon="4.40442">
        <ele>732</ele>
        <time>2022-06-26T11:46:41Z</time>
      </trkpt>
      <trkpt lat="45.81438" lon="4.4044">
        <ele>732</ele>
        <time>2022-06-26T11:46:42Z</time>
      </trkpt>
      <trkpt lat="45.81432" lon="4.40438">
        <ele>732</ele>
        <time>2022-06-26T11:46:43Z</time>
      </trkpt>
      <trkpt lat="45.81426" lon="4.40436">
        <ele>732</ele>
        <time>2022-06-26T11:46:44Z</time>
      </trkpt>
      <trkpt lat="45.8142" lon="4.40435">
        <ele>732</ele>
        <time>2022-06-26T11:46:45Z</time>
      </trkpt>
      <trkpt lat="45.81414" lon="4.40435">
        <ele>732</ele>
        <time>2022-06-26T11:46:46Z</time>
      </trkpt>
      <trkpt lat="45.81408" lon="4.40435">
        <ele>732</ele>
        <time>2022-06-26T11:46:47Z</time>
      </trkpt>
      <trkpt lat="45.81402" lon="4.40436">
        <ele>732</ele>
        <time>2022-06-26T11:46:48Z</time>
      </trkpt>
      <trkpt lat="45.81397" lon="4.40439">
        <ele>732</ele>
        <time>2022-06-26T11:46:49Z</time>
      </trkpt>
      <trkpt lat="45.81391" lon="4.40441">
        <ele>732.2</ele>
        <time>2022-06-26T11:46:50Z</time>
      </trkpt>
      <trkpt lat="45.81386" lon="4.40444">
        <ele>732.2</ele>
        <time>2022-06-26T11:46:51Z</time>
      </trkpt>
      <trkpt lat="45.81382" lon="4.40446">
        <ele>732.4</ele>
        <time>2022-06-26T11:46:52Z</time>
      </trkpt>
      <trkpt lat="45.81378" lon="4.40449">
        <ele>732.4</ele>
        <time>2022-06-26T11:46:53Z</time>
      </trkpt>
      <trkpt lat="45.81373" lon="4.40451">
        <ele>732.8</ele>
        <time>2022-06-26T11:46:54Z</time>
      </trkpt>
      <trkpt lat="45.81369" lon="4.40453">
        <ele>733</ele>
        <time>2022-06-26T11:46:55Z</time>
      </trkpt>
      <trkpt lat="45.81365" lon="4.40455">
        <ele>733</ele>
        <time>2022-06-26T11:46:56Z</time>
      </trkpt>
      <trkpt lat="45.81362" lon="4.40457">
        <ele>733.4</ele>
        <time>2022-06-26T11:46:57Z</time>
      </trkpt>
      <trkpt lat="45.81358" lon="4.40459">
        <ele>733.6</ele>
        <time>2022-06-26T11:46:58Z</time>
      </trkpt>
      <trkpt lat="45.81355" lon="4.40461">
        <ele>733.6</ele>
        <time>2022-06-26T11:46:59Z</time>
      </trkpt>
      <trkpt lat="45.81352" lon="4.40464">
        <ele>734</ele>
        <time>2022-06-26T11:47:00Z</time>
      </trkpt>
      <trkpt lat="45.81348" lon="4.40466">
        <ele>734</ele>
        <time>2022-06-26T11:47:01Z</time>
      </trkpt>
      <trkpt lat="45.81345" lon="4.40467">
        <ele>734</ele>
        <time>2022-06-26T11:47:02Z</time>
      </trkpt>
      <trkpt lat="45.81342" lon="4.40469">
        <ele>734.4</ele>
        <time>2022-06-26T11:47:03Z</time>
      </trkpt>
      <trkpt lat="45.81338" lon="4.40471">
        <ele>734.4</ele>
        <time>2022-06-26T11:47:04Z</time>
      </trkpt>
      <trkpt lat="45.81335" lon="4.40474">
        <ele>734.6</ele>
        <time>2022-06-26T11:47:05Z</time>
      </trkpt>
      <trkpt lat="45.81332" lon="4.40476">
        <ele>734.6</ele>
        <time>2022-06-26T11:47:06Z</time>
      </trkpt>
      <trkpt lat="45.81329" lon="4.40478">
        <ele>734.8</ele>
        <time>2022-06-26T11:47:07Z</time>
      </trkpt>
      <trkpt lat="45.81326" lon="4.4048">
        <ele>734.8</ele>
        <time>2022-06-26T11:47:08Z</time>
      </trkpt>
      <trkpt lat="45.81324" lon="4.40482">
        <ele>735.2</ele>
        <time>2022-06-26T11:47:09Z</time>
      </trkpt>
      <trkpt lat="45.81321" lon="4.40484">
        <ele>735.2</ele>
        <time>2022-06-26T11:47:10Z</time>
      </trkpt>
      <trkpt lat="45.81318" lon="4.40486">
        <ele>735.6</ele>
        <time>2022-06-26T11:47:11Z</time>
      </trkpt>
      <trkpt lat="45.81316" lon="4.40487">
        <ele>735.6</ele>
        <time>2022-06-26T11:47:12Z</time>
      </trkpt>
      <trkpt lat="45.81313" lon="4.40488">
        <ele>735.8</ele>
        <time>2022-06-26T11:47:13Z</time>
      </trkpt>
      <trkpt lat="45.81311" lon="4.4049">
        <ele>735.8</ele>
        <time>2022-06-26T11:47:14Z</time>
      </trkpt>
      <trkpt lat="45.81308" lon="4.40492">
        <ele>736</ele>
        <time>2022-06-26T11:47:15Z</time>
      </trkpt>
      <trkpt lat="45.81306" lon="4.40494">
        <ele>736</ele>
        <time>2022-06-26T11:47:16Z</time>
      </trkpt>
      <trkpt lat="45.81303" lon="4.40496">
        <ele>736.2</ele>
        <time>2022-06-26T11:47:17Z</time>
      </trkpt>
      <trkpt lat="45.813" lon="4.40498">
        <ele>736.2</ele>
        <time>2022-06-26T11:47:18Z</time>
      </trkpt>
      <trkpt lat="45.81297" lon="4.40502">
        <ele>736.2</ele>
        <time>2022-06-26T11:47:19Z</time>
      </trkpt>
      <trkpt lat="45.81295" lon="4.40505">
        <ele>736.2</ele>
        <time>2022-06-26T11:47:20Z</time>
      </trkpt>
      <trkpt lat="45.81294" lon="4.40509">
        <ele>736.6</ele>
        <time>2022-06-26T11:47:21Z</time>
      </trkpt>
      <trkpt lat="45.81293" lon="4.40514">
        <ele>736.6</ele>
        <time>2022-06-26T11:47:22Z</time>
      </trkpt>
      <trkpt lat="45.81291" lon="4.40518">
        <ele>736.6</ele>
        <time>2022-06-26T11:47:23Z</time>
      </trkpt>
      <trkpt lat="45.8129" lon="4.40523">
        <ele>736.6</ele>
        <time>2022-06-26T11:47:24Z</time>
      </trkpt>
      <trkpt lat="45.81288" lon="4.40528">
        <ele>736.6</ele>
        <time>2022-06-26T11:47:25Z</time>
      </trkpt>
      <trkpt lat="45.81287" lon="4.40532">
        <ele>736.8</ele>
        <time>2022-06-26T11:47:26Z</time>
      </trkpt>
      <trkpt lat="45.81285" lon="4.40538">
        <ele>736.8</ele>
        <time>2022-06-26T11:47:27Z</time>
      </trkpt>
      <trkpt lat="45.81284" lon="4.40543">
        <ele>736.8</ele>
        <time>2022-06-26T11:47:28Z</time>
      </trkpt>
      <trkpt lat="45.81283" lon="4.40548">
        <ele>736.8</ele>
        <time>2022-06-26T11:47:29Z</time>
      </trkpt>
      <trkpt lat="45.81281" lon="4.40553">
        <ele>737</ele>
        <time>2022-06-26T11:47:30Z</time>
      </trkpt>
      <trkpt lat="45.81281" lon="4.40559">
        <ele>737</ele>
        <time>2022-06-26T11:47:31Z</time>
      </trkpt>
      <trkpt lat="45.8128" lon="4.40565">
        <ele>737</ele>
        <time>2022-06-26T11:47:32Z</time>
      </trkpt>
      <trkpt lat="45.8128" lon="4.40571">
        <ele>737</ele>
        <time>2022-06-26T11:47:33Z</time>
      </trkpt>
      <trkpt lat="45.8128" lon="4.40577">
        <ele>737</ele>
        <time>2022-06-26T11:47:34Z</time>
      </trkpt>
      <trkpt lat="45.81279" lon="4.40583">
        <ele>737</ele>
        <time>2022-06-26T11:47:35Z</time>
      </trkpt>
      <trkpt lat="45.81279" lon="4.40589">
        <ele>737.2</ele>
        <time>2022-06-26T11:47:36Z</time>
      </trkpt>
      <trkpt lat="45.81278" lon="4.40595">
        <ele>737.2</ele>
        <time>2022-06-26T11:47:37Z</time>
      </trkpt>
      <trkpt lat="45.81278" lon="4.406">
        <ele>737.2</ele>
        <time>2022-06-26T11:47:38Z</time>
      </trkpt>
      <trkpt lat="45.81277" lon="4.40606">
        <ele>737.6</ele>
        <time>2022-06-26T11:47:39Z</time>
      </trkpt>
      <trkpt lat="45.81276" lon="4.40612">
        <ele>737.6</ele>
        <time>2022-06-26T11:47:40Z</time>
      </trkpt>
      <trkpt lat="45.81275" lon="4.40617">
        <ele>737.8</ele>
        <time>2022-06-26T11:47:41Z</time>
      </trkpt>
      <trkpt lat="45.81274" lon="4.40623">
        <ele>737.8</ele>
        <time>2022-06-26T11:47:42Z</time>
      </trkpt>
      <trkpt lat="45.81273" lon="4.40628">
        <ele>737.8</ele>
        <time>2022-06-26T11:47:43Z</time>
      </trkpt>
      <trkpt lat="45.81273" lon="4.40633">
        <ele>738</ele>
        <time>2022-06-26T11:47:44Z</time>
      </trkpt>
      <trkpt lat="45.81272" lon="4.40639">
        <ele>738</ele>
        <time>2022-06-26T11:47:45Z</time>
      </trkpt>
      <trkpt lat="45.81271" lon="4.40645">
        <ele>738.4</ele>
        <time>2022-06-26T11:47:46Z</time>
      </trkpt>
      <trkpt lat="45.81271" lon="4.40651">
        <ele>738.4</ele>
        <time>2022-06-26T11:47:47Z</time>
      </trkpt>
      <trkpt lat="45.8127" lon="4.40657">
        <ele>738.6</ele>
        <time>2022-06-26T11:47:48Z</time>
      </trkpt>
      <trkpt lat="45.8127" lon="4.40663">
        <ele>738.6</ele>
        <time>2022-06-26T11:47:49Z</time>
      </trkpt>
      <trkpt lat="45.8127" lon="4.40669">
        <ele>738.6</ele>
        <time>2022-06-26T11:47:50Z</time>
      </trkpt>
      <trkpt lat="45.81269" lon="4.40675">
        <ele>738.8</ele>
        <time>2022-06-26T11:47:51Z</time>
      </trkpt>
      <trkpt lat="45.81268" lon="4.40681">
        <ele>738.8</ele>
        <time>2022-06-26T11:47:52Z</time>
      </trkpt>
      <trkpt lat="45.81266" lon="4.40687">
        <ele>738.8</ele>
        <time>2022-06-26T11:47:53Z</time>
      </trkpt>
      <trkpt lat="45.81264" lon="4.40693">
        <ele>738.8</ele>
        <time>2022-06-26T11:47:54Z</time>
      </trkpt>
      <trkpt lat="45.81261" lon="4.40699">
        <ele>739</ele>
        <time>2022-06-26T11:47:55Z</time>
      </trkpt>
      <trkpt lat="45.81259" lon="4.40705">
        <ele>739</ele>
        <time>2022-06-26T11:47:56Z</time>
      </trkpt>
      <trkpt lat="45.81256" lon="4.4071">
        <ele>739.2</ele>
        <time>2022-06-26T11:47:57Z</time>
      </trkpt>
      <trkpt lat="45.81253" lon="4.40716">
        <ele>739.2</ele>
        <time>2022-06-26T11:47:58Z</time>
      </trkpt>
      <trkpt lat="45.8125" lon="4.40722">
        <ele>739.2</ele>
        <time>2022-06-26T11:47:59Z</time>
      </trkpt>
      <trkpt lat="45.81246" lon="4.40727">
        <ele>739.6</ele>
        <time>2022-06-26T11:48:00Z</time>
      </trkpt>
      <trkpt lat="45.81243" lon="4.40732">
        <ele>739.6</ele>
        <time>2022-06-26T11:48:01Z</time>
      </trkpt>
      <trkpt lat="45.8124" lon="4.40737">
        <ele>739.8</ele>
        <time>2022-06-26T11:48:02Z</time>
      </trkpt>
      <trkpt lat="45.81238" lon="4.40742">
        <ele>739.8</ele>
        <time>2022-06-26T11:48:03Z</time>
      </trkpt>
      <trkpt lat="45.81235" lon="4.40748">
        <ele>740</ele>
        <time>2022-06-26T11:48:04Z</time>
      </trkpt>
      <trkpt lat="45.81233" lon="4.40753">
        <ele>740</ele>
        <time>2022-06-26T11:48:05Z</time>
      </trkpt>
      <trkpt lat="45.8123" lon="4.40758">
        <ele>740</ele>
        <time>2022-06-26T11:48:06Z</time>
      </trkpt>
      <trkpt lat="45.81228" lon="4.40763">
        <ele>740.2</ele>
        <time>2022-06-26T11:48:07Z</time>
      </trkpt>
      <trkpt lat="45.81225" lon="4.40768">
        <ele>740.2</ele>
        <time>2022-06-26T11:48:08Z</time>
      </trkpt>
      <trkpt lat="45.81222" lon="4.40773">
        <ele>740.4</ele>
        <time>2022-06-26T11:48:09Z</time>
      </trkpt>
      <trkpt lat="45.8122" lon="4.40778">
        <ele>740.4</ele>
        <time>2022-06-26T11:48:10Z</time>
      </trkpt>
      <trkpt lat="45.81217" lon="4.40783">
        <ele>740.4</ele>
        <time>2022-06-26T11:48:11Z</time>
      </trkpt>
      <trkpt lat="45.81214" lon="4.40788">
        <ele>740.4</ele>
        <time>2022-06-26T11:48:12Z</time>
      </trkpt>
      <trkpt lat="45.81211" lon="4.40793">
        <ele>740.8</ele>
        <time>2022-06-26T11:48:13Z</time>
      </trkpt>
      <trkpt lat="45.81207" lon="4.40798">
        <ele>740.8</ele>
        <time>2022-06-26T11:48:14Z</time>
      </trkpt>
      <trkpt lat="45.81204" lon="4.40803">
        <ele>740.8</ele>
        <time>2022-06-26T11:48:15Z</time>
      </trkpt>
      <trkpt lat="45.81201" lon="4.40808">
        <ele>741</ele>
        <time>2022-06-26T11:48:16Z</time>
      </trkpt>
      <trkpt lat="45.81198" lon="4.40813">
        <ele>741</ele>
        <time>2022-06-26T11:48:17Z</time>
      </trkpt>
      <trkpt lat="45.81195" lon="4.40818">
        <ele>741.2</ele>
        <time>2022-06-26T11:48:18Z</time>
      </trkpt>
      <trkpt lat="45.81191" lon="4.40823">
        <ele>741.2</ele>
        <time>2022-06-26T11:48:19Z</time>
      </trkpt>
      <trkpt lat="45.81188" lon="4.40828">
        <ele>741.4</ele>
        <time>2022-06-26T11:48:20Z</time>
      </trkpt>
      <trkpt lat="45.81185" lon="4.40833">
        <ele>741.4</ele>
        <time>2022-06-26T11:48:21Z</time>
      </trkpt>
      <trkpt lat="45.81181" lon="4.40837">
        <ele>741.4</ele>
        <time>2022-06-26T11:48:22Z</time>
      </trkpt>
      <trkpt lat="45.81178" lon="4.40841">
        <ele>741.8</ele>
        <time>2022-06-26T11:48:23Z</time>
      </trkpt>
      <trkpt lat="45.81175" lon="4.40845">
        <ele>741.8</ele>
        <time>2022-06-26T11:48:24Z</time>
      </trkpt>
      <trkpt lat="45.81172" lon="4.4085">
        <ele>741.8</ele>
        <time>2022-06-26T11:48:25Z</time>
      </trkpt>
      <trkpt lat="45.81168" lon="4.40854">
        <ele>742</ele>
        <time>2022-06-26T11:48:26Z</time>
      </trkpt>
      <trkpt lat="45.81165" lon="4.40859">
        <ele>742</ele>
        <time>2022-06-26T11:48:27Z</time>
      </trkpt>
      <trkpt lat="45.81162" lon="4.40864">
        <ele>742</ele>
        <time>2022-06-26T11:48:28Z</time>
      </trkpt>
      <trkpt lat="45.81158" lon="4.40869">
        <ele>742</ele>
        <time>2022-06-26T11:48:29Z</time>
      </trkpt>
      <trkpt lat="45.81155" lon="4.40874">
        <ele>742</ele>
        <time>2022-06-26T11:48:30Z</time>
      </trkpt>
      <trkpt lat="45.81151" lon="4.4088">
        <ele>742.2</ele>
        <time>2022-06-26T11:48:31Z</time>
      </trkpt>
      <trkpt lat="45.81148" lon="4.40885">
        <ele>742.2</ele>
        <time>2022-06-26T11:48:32Z</time>
      </trkpt>
      <trkpt lat="45.81144" lon="4.40891">
        <ele>742.2</ele>
        <time>2022-06-26T11:48:33Z</time>
      </trkpt>
      <trkpt lat="45.8114" lon="4.40896">
        <ele>742.6</ele>
        <time>2022-06-26T11:48:35Z</time>
      </trkpt>
      <trkpt lat="45.81137" lon="4.40901">
        <ele>742.6</ele>
        <time>2022-06-26T11:48:36Z</time>
      </trkpt>
      <trkpt lat="45.81133" lon="4.40905">
        <ele>742.6</ele>
        <time>2022-06-26T11:48:37Z</time>
      </trkpt>
      <trkpt lat="45.81129" lon="4.4091">
        <ele>742.6</ele>
        <time>2022-06-26T11:48:38Z</time>
      </trkpt>
      <trkpt lat="45.81126" lon="4.40914">
        <ele>742.6</ele>
        <time>2022-06-26T11:48:39Z</time>
      </trkpt>
      <trkpt lat="45.81122" lon="4.40919">
        <ele>742.8</ele>
        <time>2022-06-26T11:48:40Z</time>
      </trkpt>
      <trkpt lat="45.81119" lon="4.40924">
        <ele>742.8</ele>
        <time>2022-06-26T11:48:41Z</time>
      </trkpt>
      <trkpt lat="45.81116" lon="4.40928">
        <ele>743</ele>
        <time>2022-06-26T11:48:42Z</time>
      </trkpt>
      <trkpt lat="45.81112" lon="4.40933">
        <ele>743</ele>
        <time>2022-06-26T11:48:43Z</time>
      </trkpt>
      <trkpt lat="45.81109" lon="4.40937">
        <ele>743.2</ele>
        <time>2022-06-26T11:48:44Z</time>
      </trkpt>
      <trkpt lat="45.81105" lon="4.40942">
        <ele>743.2</ele>
        <time>2022-06-26T11:48:45Z</time>
      </trkpt>
      <trkpt lat="45.81102" lon="4.40946">
        <ele>743.4</ele>
        <time>2022-06-26T11:48:46Z</time>
      </trkpt>
      <trkpt lat="45.81098" lon="4.4095">
        <ele>743.4</ele>
        <time>2022-06-26T11:48:47Z</time>
      </trkpt>
      <trkpt lat="45.81095" lon="4.40955">
        <ele>743.4</ele>
        <time>2022-06-26T11:48:48Z</time>
      </trkpt>
      <trkpt lat="45.81091" lon="4.40959">
        <ele>743.6</ele>
        <time>2022-06-26T11:48:49Z</time>
      </trkpt>
      <trkpt lat="45.81088" lon="4.40964">
        <ele>743.6</ele>
        <time>2022-06-26T11:48:50Z</time>
      </trkpt>
      <trkpt lat="45.81085" lon="4.40969">
        <ele>744</ele>
        <time>2022-06-26T11:48:51Z</time>
      </trkpt>
      <trkpt lat="45.81082" lon="4.40973">
        <ele>744</ele>
        <time>2022-06-26T11:48:52Z</time>
      </trkpt>
      <trkpt lat="45.81078" lon="4.40978">
        <ele>744.2</ele>
        <time>2022-06-26T11:48:53Z</time>
      </trkpt>
      <trkpt lat="45.81075" lon="4.40983">
        <ele>744.2</ele>
        <time>2022-06-26T11:48:54Z</time>
      </trkpt>
      <trkpt lat="45.81072" lon="4.40987">
        <ele>744.2</ele>
        <time>2022-06-26T11:48:55Z</time>
      </trkpt>
      <trkpt lat="45.81068" lon="4.40992">
        <ele>744.2</ele>
        <time>2022-06-26T11:48:56Z</time>
      </trkpt>
      <trkpt lat="45.81065" lon="4.40996">
        <ele>744.2</ele>
        <time>2022-06-26T11:48:57Z</time>
      </trkpt>
      <trkpt lat="45.81061" lon="4.41001">
        <ele>744.4</ele>
        <time>2022-06-26T11:48:58Z</time>
      </trkpt>
      <trkpt lat="45.81058" lon="4.41005">
        <ele>744.4</ele>
        <time>2022-06-26T11:48:59Z</time>
      </trkpt>
      <trkpt lat="45.81054" lon="4.4101">
        <ele>744.8</ele>
        <time>2022-06-26T11:49:00Z</time>
      </trkpt>
      <trkpt lat="45.81051" lon="4.41014">
        <ele>744.8</ele>
        <time>2022-06-26T11:49:01Z</time>
      </trkpt>
      <trkpt lat="45.81048" lon="4.41019">
        <ele>744.8</ele>
        <time>2022-06-26T11:49:02Z</time>
      </trkpt>
      <trkpt lat="45.81044" lon="4.41024">
        <ele>744.8</ele>
        <time>2022-06-26T11:49:03Z</time>
      </trkpt>
      <trkpt lat="45.81041" lon="4.41028">
        <ele>745</ele>
        <time>2022-06-26T11:49:04Z</time>
      </trkpt>
      <trkpt lat="45.81038" lon="4.41033">
        <ele>745</ele>
        <time>2022-06-26T11:49:05Z</time>
      </trkpt>
      <trkpt lat="45.81035" lon="4.41037">
        <ele>745</ele>
        <time>2022-06-26T11:49:06Z</time>
      </trkpt>
      <trkpt lat="45.81032" lon="4.41042">
        <ele>745.2</ele>
        <time>2022-06-26T11:49:07Z</time>
      </trkpt>
      <trkpt lat="45.81029" lon="4.41046">
        <ele>745.2</ele>
        <time>2022-06-26T11:49:08Z</time>
      </trkpt>
      <trkpt lat="45.81026" lon="4.41051">
        <ele>745.2</ele>
        <time>2022-06-26T11:49:09Z</time>
      </trkpt>
      <trkpt lat="45.81023" lon="4.41055">
        <ele>745.2</ele>
        <time>2022-06-26T11:49:10Z</time>
      </trkpt>
      <trkpt lat="45.8102" lon="4.41059">
        <ele>745.4</ele>
        <time>2022-06-26T11:49:11Z</time>
      </trkpt>
      <trkpt lat="45.81017" lon="4.41063">
        <ele>745.4</ele>
        <time>2022-06-26T11:49:12Z</time>
      </trkpt>
      <trkpt lat="45.81014" lon="4.41067">
        <ele>745.4</ele>
        <time>2022-06-26T11:49:13Z</time>
      </trkpt>
      <trkpt lat="45.81011" lon="4.41071">
        <ele>745.8</ele>
        <time>2022-06-26T11:49:14Z</time>
      </trkpt>
      <trkpt lat="45.81007" lon="4.41075">
        <ele>745.8</ele>
        <time>2022-06-26T11:49:15Z</time>
      </trkpt>
      <trkpt lat="45.81004" lon="4.4108">
        <ele>745.8</ele>
        <time>2022-06-26T11:49:16Z</time>
      </trkpt>
      <trkpt lat="45.81001" lon="4.41084">
        <ele>745.8</ele>
        <time>2022-06-26T11:49:17Z</time>
      </trkpt>
      <trkpt lat="45.80997" lon="4.41089">
        <ele>745.8</ele>
        <time>2022-06-26T11:49:18Z</time>
      </trkpt>
      <trkpt lat="45.80994" lon="4.41094">
        <ele>745.8</ele>
        <time>2022-06-26T11:49:19Z</time>
      </trkpt>
      <trkpt lat="45.8099" lon="4.41099">
        <ele>745.8</ele>
        <time>2022-06-26T11:49:20Z</time>
      </trkpt>
      <trkpt lat="45.80987" lon="4.41105">
        <ele>745.4</ele>
        <time>2022-06-26T11:49:21Z</time>
      </trkpt>
      <trkpt lat="45.80984" lon="4.41111">
        <ele>745.4</ele>
        <time>2022-06-26T11:49:22Z</time>
      </trkpt>
      <trkpt lat="45.80981" lon="4.41118">
        <ele>745</ele>
        <time>2022-06-26T11:49:23Z</time>
      </trkpt>
      <trkpt lat="45.80978" lon="4.41125">
        <ele>744.8</ele>
        <time>2022-06-26T11:49:24Z</time>
      </trkpt>
      <trkpt lat="45.80975" lon="4.41133">
        <ele>744.6</ele>
        <time>2022-06-26T11:49:25Z</time>
      </trkpt>
      <trkpt lat="45.80973" lon="4.41141">
        <ele>744.6</ele>
        <time>2022-06-26T11:49:26Z</time>
      </trkpt>
      <trkpt lat="45.80971" lon="4.4115">
        <ele>744.2</ele>
        <time>2022-06-26T11:49:27Z</time>
      </trkpt>
      <trkpt lat="45.80968" lon="4.41159">
        <ele>743.8</ele>
        <time>2022-06-26T11:49:28Z</time>
      </trkpt>
      <trkpt lat="45.80964" lon="4.41172">
        <ele>743.6</ele>
        <time>2022-06-26T11:49:29Z</time>
      </trkpt>
      <trkpt lat="45.80962" lon="4.41177">
        <ele>743.2</ele>
        <time>2022-06-26T11:49:30Z</time>
      </trkpt>
      <trkpt lat="45.80959" lon="4.41186">
        <ele>743</ele>
        <time>2022-06-26T11:49:31Z</time>
      </trkpt>
      <trkpt lat="45.80956" lon="4.41196">
        <ele>742.6</ele>
        <time>2022-06-26T11:49:32Z</time>
      </trkpt>
      <trkpt lat="45.80953" lon="4.41206">
        <ele>742.6</ele>
        <time>2022-06-26T11:49:33Z</time>
      </trkpt>
      <trkpt lat="45.8095" lon="4.41216">
        <ele>742.2</ele>
        <time>2022-06-26T11:49:34Z</time>
      </trkpt>
      <trkpt lat="45.80947" lon="4.41227">
        <ele>742</ele>
        <time>2022-06-26T11:49:35Z</time>
      </trkpt>
      <trkpt lat="45.80944" lon="4.41237">
        <ele>741.6</ele>
        <time>2022-06-26T11:49:36Z</time>
      </trkpt>
      <trkpt lat="45.80941" lon="4.41248">
        <ele>741.6</ele>
        <time>2022-06-26T11:49:37Z</time>
      </trkpt>
      <trkpt lat="45.80938" lon="4.41259">
        <ele>741.2</ele>
        <time>2022-06-26T11:49:38Z</time>
      </trkpt>
      <trkpt lat="45.80935" lon="4.4127">
        <ele>740.8</ele>
        <time>2022-06-26T11:49:39Z</time>
      </trkpt>
      <trkpt lat="45.80931" lon="4.41281">
        <ele>740.8</ele>
        <time>2022-06-26T11:49:40Z</time>
      </trkpt>
      <trkpt lat="45.80928" lon="4.41292">
        <ele>740.4</ele>
        <time>2022-06-26T11:49:41Z</time>
      </trkpt>
      <trkpt lat="45.80925" lon="4.41303">
        <ele>740.4</ele>
        <time>2022-06-26T11:49:42Z</time>
      </trkpt>
      <trkpt lat="45.80922" lon="4.41314">
        <ele>740.4</ele>
        <time>2022-06-26T11:49:43Z</time>
      </trkpt>
      <trkpt lat="45.80919" lon="4.41324">
        <ele>740.4</ele>
        <time>2022-06-26T11:49:44Z</time>
      </trkpt>
      <trkpt lat="45.80916" lon="4.41335">
        <ele>740.4</ele>
        <time>2022-06-26T11:49:45Z</time>
      </trkpt>
      <trkpt lat="45.80913" lon="4.41346">
        <ele>740.4</ele>
        <time>2022-06-26T11:49:46Z</time>
      </trkpt>
      <trkpt lat="45.8091" lon="4.41357">
        <ele>740.2</ele>
        <time>2022-06-26T11:49:47Z</time>
      </trkpt>
      <trkpt lat="45.80907" lon="4.41368">
        <ele>740.2</ele>
        <time>2022-06-26T11:49:48Z</time>
      </trkpt>
      <trkpt lat="45.80904" lon="4.41379">
        <ele>740</ele>
        <time>2022-06-26T11:49:49Z</time>
      </trkpt>
      <trkpt lat="45.80902" lon="4.41391">
        <ele>739.8</ele>
        <time>2022-06-26T11:49:50Z</time>
      </trkpt>
      <trkpt lat="45.80901" lon="4.41402">
        <ele>739.8</ele>
        <time>2022-06-26T11:49:51Z</time>
      </trkpt>
      <trkpt lat="45.80901" lon="4.41413">
        <ele>739.8</ele>
        <time>2022-06-26T11:49:52Z</time>
      </trkpt>
      <trkpt lat="45.80902" lon="4.41424">
        <ele>739.2</ele>
        <time>2022-06-26T11:49:53Z</time>
      </trkpt>
      <trkpt lat="45.80903" lon="4.41434">
        <ele>739</ele>
        <time>2022-06-26T11:49:54Z</time>
      </trkpt>
      <trkpt lat="45.80906" lon="4.41444">
        <ele>739</ele>
        <time>2022-06-26T11:49:55Z</time>
      </trkpt>
      <trkpt lat="45.8091" lon="4.41453">
        <ele>739</ele>
        <time>2022-06-26T11:49:56Z</time>
      </trkpt>
      <trkpt lat="45.80914" lon="4.41461">
        <ele>738.8</ele>
        <time>2022-06-26T11:49:57Z</time>
      </trkpt>
      <trkpt lat="45.80919" lon="4.41469">
        <ele>738.8</ele>
        <time>2022-06-26T11:49:58Z</time>
      </trkpt>
      <trkpt lat="45.80924" lon="4.41475">
        <ele>738.4</ele>
        <time>2022-06-26T11:49:59Z</time>
      </trkpt>
      <trkpt lat="45.8093" lon="4.41481">
        <ele>738.2</ele>
        <time>2022-06-26T11:50:00Z</time>
      </trkpt>
      <trkpt lat="45.80936" lon="4.41486">
        <ele>738.2</ele>
        <time>2022-06-26T11:50:01Z</time>
      </trkpt>
      <trkpt lat="45.80942" lon="4.41491">
        <ele>737.8</ele>
        <time>2022-06-26T11:50:02Z</time>
      </trkpt>
      <trkpt lat="45.80948" lon="4.41496">
        <ele>737.8</ele>
        <time>2022-06-26T11:50:03Z</time>
      </trkpt>
      <trkpt lat="45.80954" lon="4.41502">
        <ele>737.6</ele>
        <time>2022-06-26T11:50:04Z</time>
      </trkpt>
      <trkpt lat="45.8096" lon="4.41507">
        <ele>737.6</ele>
        <time>2022-06-26T11:50:05Z</time>
      </trkpt>
      <trkpt lat="45.80966" lon="4.41513">
        <ele>737.6</ele>
        <time>2022-06-26T11:50:06Z</time>
      </trkpt>
      <trkpt lat="45.80972" lon="4.41519">
        <ele>737.6</ele>
        <time>2022-06-26T11:50:07Z</time>
      </trkpt>
      <trkpt lat="45.80978" lon="4.41524">
        <ele>737.2</ele>
        <time>2022-06-26T11:50:08Z</time>
      </trkpt>
      <trkpt lat="45.80984" lon="4.4153">
        <ele>737</ele>
        <time>2022-06-26T11:50:09Z</time>
      </trkpt>
      <trkpt lat="45.80991" lon="4.41535">
        <ele>736.6</ele>
        <time>2022-06-26T11:50:10Z</time>
      </trkpt>
      <trkpt lat="45.80997" lon="4.4154">
        <ele>736.4</ele>
        <time>2022-06-26T11:50:11Z</time>
      </trkpt>
      <trkpt lat="45.81004" lon="4.41546">
        <ele>736.2</ele>
        <time>2022-06-26T11:50:12Z</time>
      </trkpt>
      <trkpt lat="45.81011" lon="4.4155">
        <ele>736</ele>
        <time>2022-06-26T11:50:13Z</time>
      </trkpt>
      <trkpt lat="45.81018" lon="4.41554">
        <ele>735.6</ele>
        <time>2022-06-26T11:50:14Z</time>
      </trkpt>
      <trkpt lat="45.81025" lon="4.41558">
        <ele>735.4</ele>
        <time>2022-06-26T11:50:15Z</time>
      </trkpt>
      <trkpt lat="45.81032" lon="4.41561">
        <ele>735</ele>
        <time>2022-06-26T11:50:16Z</time>
      </trkpt>
      <trkpt lat="45.8104" lon="4.41564">
        <ele>734.8</ele>
        <time>2022-06-26T11:50:17Z</time>
      </trkpt>
      <trkpt lat="45.81047" lon="4.41567">
        <ele>734.4</ele>
        <time>2022-06-26T11:50:18Z</time>
      </trkpt>
      <trkpt lat="45.81054" lon="4.41569">
        <ele>734</ele>
        <time>2022-06-26T11:50:19Z</time>
      </trkpt>
      <trkpt lat="45.81062" lon="4.41572">
        <ele>733.8</ele>
        <time>2022-06-26T11:50:20Z</time>
      </trkpt>
      <trkpt lat="45.8107" lon="4.41574">
        <ele>733.4</ele>
        <time>2022-06-26T11:50:21Z</time>
      </trkpt>
      <trkpt lat="45.81077" lon="4.41577">
        <ele>733.2</ele>
        <time>2022-06-26T11:50:22Z</time>
      </trkpt>
      <trkpt lat="45.81085" lon="4.4158">
        <ele>733</ele>
        <time>2022-06-26T11:50:23Z</time>
      </trkpt>
      <trkpt lat="45.81092" lon="4.41584">
        <ele>732.8</ele>
        <time>2022-06-26T11:50:24Z</time>
      </trkpt>
      <trkpt lat="45.81099" lon="4.41589">
        <ele>732.8</ele>
        <time>2022-06-26T11:50:25Z</time>
      </trkpt>
      <trkpt lat="45.81104" lon="4.41595">
        <ele>732.4</ele>
        <time>2022-06-26T11:50:26Z</time>
      </trkpt>
      <trkpt lat="45.81109" lon="4.41603">
        <ele>732.4</ele>
        <time>2022-06-26T11:50:27Z</time>
      </trkpt>
      <trkpt lat="45.81114" lon="4.41612">
        <ele>732.2</ele>
        <time>2022-06-26T11:50:28Z</time>
      </trkpt>
      <trkpt lat="45.81117" lon="4.41621">
        <ele>732.2</ele>
        <time>2022-06-26T11:50:29Z</time>
      </trkpt>
      <trkpt lat="45.81119" lon="4.41631">
        <ele>731.8</ele>
        <time>2022-06-26T11:50:30Z</time>
      </trkpt>
      <trkpt lat="45.81121" lon="4.4164">
        <ele>731.8</ele>
        <time>2022-06-26T11:50:31Z</time>
      </trkpt>
      <trkpt lat="45.81123" lon="4.4165">
        <ele>731.8</ele>
        <time>2022-06-26T11:50:32Z</time>
      </trkpt>
      <trkpt lat="45.81124" lon="4.41659">
        <ele>731.8</ele>
        <time>2022-06-26T11:50:33Z</time>
      </trkpt>
      <trkpt lat="45.81125" lon="4.41669">
        <ele>731.6</ele>
        <time>2022-06-26T11:50:34Z</time>
      </trkpt>
      <trkpt lat="45.81126" lon="4.41678">
        <ele>731.6</ele>
        <time>2022-06-26T11:50:35Z</time>
      </trkpt>
      <trkpt lat="45.81127" lon="4.41687">
        <ele>731.6</ele>
        <time>2022-06-26T11:50:36Z</time>
      </trkpt>
      <trkpt lat="45.81128" lon="4.41695">
        <ele>731.6</ele>
        <time>2022-06-26T11:50:37Z</time>
      </trkpt>
      <trkpt lat="45.81129" lon="4.41704">
        <ele>731.6</ele>
        <time>2022-06-26T11:50:38Z</time>
      </trkpt>
      <trkpt lat="45.8113" lon="4.41712">
        <ele>731.6</ele>
        <time>2022-06-26T11:50:39Z</time>
      </trkpt>
      <trkpt lat="45.81131" lon="4.4172">
        <ele>731.6</ele>
        <time>2022-06-26T11:50:40Z</time>
      </trkpt>
      <trkpt lat="45.81131" lon="4.41728">
        <ele>731.6</ele>
        <time>2022-06-26T11:50:41Z</time>
      </trkpt>
      <trkpt lat="45.81132" lon="4.41736">
        <ele>731.6</ele>
        <time>2022-06-26T11:50:42Z</time>
      </trkpt>
      <trkpt lat="45.81133" lon="4.41745">
        <ele>731.6</ele>
        <time>2022-06-26T11:50:43Z</time>
      </trkpt>
      <trkpt lat="45.81134" lon="4.41753">
        <ele>731.6</ele>
        <time>2022-06-26T11:50:44Z</time>
      </trkpt>
      <trkpt lat="45.81135" lon="4.41762">
        <ele>731.6</ele>
        <time>2022-06-26T11:50:45Z</time>
      </trkpt>
      <trkpt lat="45.81136" lon="4.4177">
        <ele>731.6</ele>
        <time>2022-06-26T11:50:46Z</time>
      </trkpt>
      <trkpt lat="45.81137" lon="4.41779">
        <ele>731.6</ele>
        <time>2022-06-26T11:50:47Z</time>
      </trkpt>
      <trkpt lat="45.81138" lon="4.41787">
        <ele>731.6</ele>
        <time>2022-06-26T11:50:48Z</time>
      </trkpt>
      <trkpt lat="45.81139" lon="4.41796">
        <ele>731.6</ele>
        <time>2022-06-26T11:50:49Z</time>
      </trkpt>
      <trkpt lat="45.8114" lon="4.41804">
        <ele>731.6</ele>
        <time>2022-06-26T11:50:50Z</time>
      </trkpt>
      <trkpt lat="45.81141" lon="4.41813">
        <ele>731.6</ele>
        <time>2022-06-26T11:50:51Z</time>
      </trkpt>
      <trkpt lat="45.81142" lon="4.41822">
        <ele>731.4</ele>
        <time>2022-06-26T11:50:52Z</time>
      </trkpt>
      <trkpt lat="45.81143" lon="4.41831">
        <ele>731.4</ele>
        <time>2022-06-26T11:50:53Z</time>
      </trkpt>
      <trkpt lat="45.81144" lon="4.41841">
        <ele>731.4</ele>
        <time>2022-06-26T11:50:54Z</time>
      </trkpt>
      <trkpt lat="45.81145" lon="4.4185">
        <ele>731.4</ele>
        <time>2022-06-26T11:50:55Z</time>
      </trkpt>
      <trkpt lat="45.81146" lon="4.41859">
        <ele>731.4</ele>
        <time>2022-06-26T11:50:56Z</time>
      </trkpt>
      <trkpt lat="45.81147" lon="4.41868">
        <ele>731.2</ele>
        <time>2022-06-26T11:50:57Z</time>
      </trkpt>
      <trkpt lat="45.81148" lon="4.41878">
        <ele>731.2</ele>
        <time>2022-06-26T11:50:58Z</time>
      </trkpt>
      <trkpt lat="45.81148" lon="4.41887">
        <ele>731.2</ele>
        <time>2022-06-26T11:50:59Z</time>
      </trkpt>
      <trkpt lat="45.81148" lon="4.41897">
        <ele>730.8</ele>
        <time>2022-06-26T11:51:00Z</time>
      </trkpt>
      <trkpt lat="45.81147" lon="4.41907">
        <ele>730.8</ele>
        <time>2022-06-26T11:51:01Z</time>
      </trkpt>
      <trkpt lat="45.81146" lon="4.41917">
        <ele>730.8</ele>
        <time>2022-06-26T11:51:02Z</time>
      </trkpt>
      <trkpt lat="45.81144" lon="4.41926">
        <ele>730.8</ele>
        <time>2022-06-26T11:51:03Z</time>
      </trkpt>
      <trkpt lat="45.81141" lon="4.41935">
        <ele>730.8</ele>
        <time>2022-06-26T11:51:04Z</time>
      </trkpt>
      <trkpt lat="45.81139" lon="4.41944">
        <ele>730.8</ele>
        <time>2022-06-26T11:51:05Z</time>
      </trkpt>
      <trkpt lat="45.81135" lon="4.41952">
        <ele>730.8</ele>
        <time>2022-06-26T11:51:06Z</time>
      </trkpt>
      <trkpt lat="45.81132" lon="4.41961">
        <ele>730.8</ele>
        <time>2022-06-26T11:51:07Z</time>
      </trkpt>
      <trkpt lat="45.81128" lon="4.41969">
        <ele>730.8</ele>
        <time>2022-06-26T11:51:08Z</time>
      </trkpt>
      <trkpt lat="45.81124" lon="4.41976">
        <ele>730.6</ele>
        <time>2022-06-26T11:51:09Z</time>
      </trkpt>
      <trkpt lat="45.8112" lon="4.41983">
        <ele>730.6</ele>
        <time>2022-06-26T11:51:10Z</time>
      </trkpt>
      <trkpt lat="45.81115" lon="4.4199">
        <ele>730.6</ele>
        <time>2022-06-26T11:51:11Z</time>
      </trkpt>
      <trkpt lat="45.8111" lon="4.41997">
        <ele>730.6</ele>
        <time>2022-06-26T11:51:12Z</time>
      </trkpt>
      <trkpt lat="45.81106" lon="4.42004">
        <ele>730.6</ele>
        <time>2022-06-26T11:51:13Z</time>
      </trkpt>
      <trkpt lat="45.81101" lon="4.42011">
        <ele>730.2</ele>
        <time>2022-06-26T11:51:14Z</time>
      </trkpt>
      <trkpt lat="45.81096" lon="4.42018">
        <ele>730.2</ele>
        <time>2022-06-26T11:51:15Z</time>
      </trkpt>
      <trkpt lat="45.81091" lon="4.42025">
        <ele>730.2</ele>
        <time>2022-06-26T11:51:16Z</time>
      </trkpt>
      <trkpt lat="45.81087" lon="4.42032">
        <ele>730.2</ele>
        <time>2022-06-26T11:51:17Z</time>
      </trkpt>
      <trkpt lat="45.81082" lon="4.42039">
        <ele>730.2</ele>
        <time>2022-06-26T11:51:18Z</time>
      </trkpt>
      <trkpt lat="45.81077" lon="4.42046">
        <ele>729.8</ele>
        <time>2022-06-26T11:51:19Z</time>
      </trkpt>
      <trkpt lat="45.81073" lon="4.42053">
        <ele>729.8</ele>
        <time>2022-06-26T11:51:20Z</time>
      </trkpt>
      <trkpt lat="45.81068" lon="4.4206">
        <ele>729.8</ele>
        <time>2022-06-26T11:51:21Z</time>
      </trkpt>
      <trkpt lat="45.81063" lon="4.42067">
        <ele>729.6</ele>
        <time>2022-06-26T11:51:22Z</time>
      </trkpt>
      <trkpt lat="45.81058" lon="4.42074">
        <ele>729.6</ele>
        <time>2022-06-26T11:51:23Z</time>
      </trkpt>
      <trkpt lat="45.81054" lon="4.42082">
        <ele>729.6</ele>
        <time>2022-06-26T11:51:24Z</time>
      </trkpt>
      <trkpt lat="45.81049" lon="4.42089">
        <ele>729.6</ele>
        <time>2022-06-26T11:51:25Z</time>
      </trkpt>
      <trkpt lat="45.81044" lon="4.42096">
        <ele>729.4</ele>
        <time>2022-06-26T11:51:26Z</time>
      </trkpt>
      <trkpt lat="45.81039" lon="4.42103">
        <ele>729.4</ele>
        <time>2022-06-26T11:51:27Z</time>
      </trkpt>
      <trkpt lat="45.81034" lon="4.4211">
        <ele>729.4</ele>
        <time>2022-06-26T11:51:28Z</time>
      </trkpt>
      <trkpt lat="45.81029" lon="4.42117">
        <ele>729</ele>
        <time>2022-06-26T11:51:29Z</time>
      </trkpt>
      <trkpt lat="45.81024" lon="4.42125">
        <ele>729</ele>
        <time>2022-06-26T11:51:30Z</time>
      </trkpt>
      <trkpt lat="45.81019" lon="4.42132">
        <ele>728.8</ele>
        <time>2022-06-26T11:51:31Z</time>
      </trkpt>
      <trkpt lat="45.81014" lon="4.4214">
        <ele>728.8</ele>
        <time>2022-06-26T11:51:32Z</time>
      </trkpt>
      <trkpt lat="45.81009" lon="4.42147">
        <ele>728.8</ele>
        <time>2022-06-26T11:51:33Z</time>
      </trkpt>
      <trkpt lat="45.81004" lon="4.42154">
        <ele>728.8</ele>
        <time>2022-06-26T11:51:34Z</time>
      </trkpt>
      <trkpt lat="45.80999" lon="4.42162">
        <ele>728.6</ele>
        <time>2022-06-26T11:51:35Z</time>
      </trkpt>
      <trkpt lat="45.80994" lon="4.4217">
        <ele>728.6</ele>
        <time>2022-06-26T11:51:36Z</time>
      </trkpt>
      <trkpt lat="45.80989" lon="4.42177">
        <ele>728.4</ele>
        <time>2022-06-26T11:51:37Z</time>
      </trkpt>
      <trkpt lat="45.80984" lon="4.42185">
        <ele>728.4</ele>
        <time>2022-06-26T11:51:38Z</time>
      </trkpt>
      <trkpt lat="45.80979" lon="4.42193">
        <ele>728</ele>
        <time>2022-06-26T11:51:39Z</time>
      </trkpt>
      <trkpt lat="45.80974" lon="4.42201">
        <ele>728</ele>
        <time>2022-06-26T11:51:40Z</time>
      </trkpt>
      <trkpt lat="45.80968" lon="4.42209">
        <ele>728</ele>
        <time>2022-06-26T11:51:41Z</time>
      </trkpt>
      <trkpt lat="45.80963" lon="4.42217">
        <ele>727.6</ele>
        <time>2022-06-26T11:51:42Z</time>
      </trkpt>
      <trkpt lat="45.80958" lon="4.42225">
        <ele>727.6</ele>
        <time>2022-06-26T11:51:43Z</time>
      </trkpt>
      <trkpt lat="45.80952" lon="4.42233">
        <ele>727.2</ele>
        <time>2022-06-26T11:51:44Z</time>
      </trkpt>
      <trkpt lat="45.80947" lon="4.42242">
        <ele>727.2</ele>
        <time>2022-06-26T11:51:45Z</time>
      </trkpt>
      <trkpt lat="45.80942" lon="4.4225">
        <ele>727</ele>
        <time>2022-06-26T11:51:46Z</time>
      </trkpt>
      <trkpt lat="45.80936" lon="4.42258">
        <ele>727</ele>
        <time>2022-06-26T11:51:47Z</time>
      </trkpt>
      <trkpt lat="45.8093" lon="4.42266">
        <ele>726.6</ele>
        <time>2022-06-26T11:51:48Z</time>
      </trkpt>
      <trkpt lat="45.80924" lon="4.42274">
        <ele>726.6</ele>
        <time>2022-06-26T11:51:49Z</time>
      </trkpt>
      <trkpt lat="45.80917" lon="4.42281">
        <ele>726.4</ele>
        <time>2022-06-26T11:51:50Z</time>
      </trkpt>
      <trkpt lat="45.80911" lon="4.42288">
        <ele>726.4</ele>
        <time>2022-06-26T11:51:51Z</time>
      </trkpt>
      <trkpt lat="45.80904" lon="4.42294">
        <ele>726.4</ele>
        <time>2022-06-26T11:51:52Z</time>
      </trkpt>
      <trkpt lat="45.80897" lon="4.423">
        <ele>726.4</ele>
        <time>2022-06-26T11:51:53Z</time>
      </trkpt>
      <trkpt lat="45.8089" lon="4.42304">
        <ele>726.6</ele>
        <time>2022-06-26T11:51:54Z</time>
      </trkpt>
      <trkpt lat="45.80882" lon="4.42309">
        <ele>726.6</ele>
        <time>2022-06-26T11:51:55Z</time>
      </trkpt>
      <trkpt lat="45.80875" lon="4.42312">
        <ele>726.4</ele>
        <time>2022-06-26T11:51:56Z</time>
      </trkpt>
      <trkpt lat="45.80867" lon="4.42315">
        <ele>726.2</ele>
        <time>2022-06-26T11:51:57Z</time>
      </trkpt>
      <trkpt lat="45.80859" lon="4.42317">
        <ele>725.8</ele>
        <time>2022-06-26T11:51:58Z</time>
      </trkpt>
      <trkpt lat="45.80852" lon="4.42319">
        <ele>725.8</ele>
        <time>2022-06-26T11:51:59Z</time>
      </trkpt>
      <trkpt lat="45.80844" lon="4.4232">
        <ele>725.4</ele>
        <time>2022-06-26T11:52:00Z</time>
      </trkpt>
      <trkpt lat="45.80836" lon="4.42321">
        <ele>725.2</ele>
        <time>2022-06-26T11:52:01Z</time>
      </trkpt>
      <trkpt lat="45.80828" lon="4.42322">
        <ele>725.2</ele>
        <time>2022-06-26T11:52:02Z</time>
      </trkpt>
      <trkpt lat="45.8082" lon="4.42323">
        <ele>724.8</ele>
        <time>2022-06-26T11:52:03Z</time>
      </trkpt>
      <trkpt lat="45.80813" lon="4.42324">
        <ele>724.8</ele>
        <time>2022-06-26T11:52:04Z</time>
      </trkpt>
      <trkpt lat="45.80805" lon="4.42325">
        <ele>724.8</ele>
        <time>2022-06-26T11:52:05Z</time>
      </trkpt>
      <trkpt lat="45.80797" lon="4.42326">
        <ele>724.6</ele>
        <time>2022-06-26T11:52:06Z</time>
      </trkpt>
      <trkpt lat="45.80789" lon="4.42327">
        <ele>724.6</ele>
        <time>2022-06-26T11:52:07Z</time>
      </trkpt>
      <trkpt lat="45.80781" lon="4.42328">
        <ele>724.6</ele>
        <time>2022-06-26T11:52:08Z</time>
      </trkpt>
      <trkpt lat="45.80773" lon="4.42329">
        <ele>724.4</ele>
        <time>2022-06-26T11:52:09Z</time>
      </trkpt>
      <trkpt lat="45.80765" lon="4.4233">
        <ele>724.4</ele>
        <time>2022-06-26T11:52:10Z</time>
      </trkpt>
      <trkpt lat="45.80757" lon="4.42331">
        <ele>724</ele>
        <time>2022-06-26T11:52:11Z</time>
      </trkpt>
      <trkpt lat="45.8075" lon="4.42332">
        <ele>724</ele>
        <time>2022-06-26T11:52:12Z</time>
      </trkpt>
      <trkpt lat="45.80742" lon="4.42335">
        <ele>724</ele>
        <time>2022-06-26T11:52:13Z</time>
      </trkpt>
      <trkpt lat="45.80734" lon="4.42338">
        <ele>724</ele>
        <time>2022-06-26T11:52:14Z</time>
      </trkpt>
      <trkpt lat="45.80727" lon="4.42342">
        <ele>724</ele>
        <time>2022-06-26T11:52:15Z</time>
      </trkpt>
      <trkpt lat="45.8072" lon="4.42346">
        <ele>724</ele>
        <time>2022-06-26T11:52:16Z</time>
      </trkpt>
      <trkpt lat="45.80713" lon="4.42352">
        <ele>723.8</ele>
        <time>2022-06-26T11:52:17Z</time>
      </trkpt>
      <trkpt lat="45.80706" lon="4.42358">
        <ele>723.6</ele>
        <time>2022-06-26T11:52:18Z</time>
      </trkpt>
      <trkpt lat="45.807" lon="4.42364">
        <ele>723.6</ele>
        <time>2022-06-26T11:52:19Z</time>
      </trkpt>
      <trkpt lat="45.80693" lon="4.42371">
        <ele>723.2</ele>
        <time>2022-06-26T11:52:20Z</time>
      </trkpt>
      <trkpt lat="45.80687" lon="4.42377">
        <ele>723.2</ele>
        <time>2022-06-26T11:52:21Z</time>
      </trkpt>
      <trkpt lat="45.8068" lon="4.42384">
        <ele>723.2</ele>
        <time>2022-06-26T11:52:22Z</time>
      </trkpt>
      <trkpt lat="45.80673" lon="4.4239">
        <ele>722.8</ele>
        <time>2022-06-26T11:52:23Z</time>
      </trkpt>
      <trkpt lat="45.80666" lon="4.42397">
        <ele>722.6</ele>
        <time>2022-06-26T11:52:24Z</time>
      </trkpt>
      <trkpt lat="45.8066" lon="4.42404">
        <ele>722.2</ele>
        <time>2022-06-26T11:52:25Z</time>
      </trkpt>
      <trkpt lat="45.80653" lon="4.4241">
        <ele>722</ele>
        <time>2022-06-26T11:52:26Z</time>
      </trkpt>
      <trkpt lat="45.80645" lon="4.42417">
        <ele>721.8</ele>
        <time>2022-06-26T11:52:27Z</time>
      </trkpt>
      <trkpt lat="45.80638" lon="4.42424">
        <ele>721.6</ele>
        <time>2022-06-26T11:52:28Z</time>
      </trkpt>
      <trkpt lat="45.80631" lon="4.42431">
        <ele>721</ele>
        <time>2022-06-26T11:52:29Z</time>
      </trkpt>
      <trkpt lat="45.80624" lon="4.42438">
        <ele>721</ele>
        <time>2022-06-26T11:52:30Z</time>
      </trkpt>
      <trkpt lat="45.80617" lon="4.42445">
        <ele>720.8</ele>
        <time>2022-06-26T11:52:31Z</time>
      </trkpt>
      <trkpt lat="45.8061" lon="4.42452">
        <ele>720.6</ele>
        <time>2022-06-26T11:52:32Z</time>
      </trkpt>
      <trkpt lat="45.80603" lon="4.42459">
        <ele>720.4</ele>
        <time>2022-06-26T11:52:33Z</time>
      </trkpt>
      <trkpt lat="45.80596" lon="4.42466">
        <ele>720.2</ele>
        <time>2022-06-26T11:52:34Z</time>
      </trkpt>
      <trkpt lat="45.80588" lon="4.42473">
        <ele>720.2</ele>
        <time>2022-06-26T11:52:35Z</time>
      </trkpt>
      <trkpt lat="45.80581" lon="4.42481">
        <ele>719.8</ele>
        <time>2022-06-26T11:52:36Z</time>
      </trkpt>
      <trkpt lat="45.80574" lon="4.42488">
        <ele>719.8</ele>
        <time>2022-06-26T11:52:37Z</time>
      </trkpt>
      <trkpt lat="45.80566" lon="4.42496">
        <ele>719.8</ele>
        <time>2022-06-26T11:52:38Z</time>
      </trkpt>
      <trkpt lat="45.80559" lon="4.42502">
        <ele>719.6</ele>
        <time>2022-06-26T11:52:39Z</time>
      </trkpt>
      <trkpt lat="45.80552" lon="4.42509">
        <ele>719.6</ele>
        <time>2022-06-26T11:52:40Z</time>
      </trkpt>
      <trkpt lat="45.80545" lon="4.42516">
        <ele>719.4</ele>
        <time>2022-06-26T11:52:41Z</time>
      </trkpt>
      <trkpt lat="45.80538" lon="4.42523">
        <ele>719.4</ele>
        <time>2022-06-26T11:52:42Z</time>
      </trkpt>
      <trkpt lat="45.80531" lon="4.42529">
        <ele>719.4</ele>
        <time>2022-06-26T11:52:43Z</time>
      </trkpt>
      <trkpt lat="45.80525" lon="4.42535">
        <ele>719.4</ele>
        <time>2022-06-26T11:52:44Z</time>
      </trkpt>
      <trkpt lat="45.80518" lon="4.42542">
        <ele>719.2</ele>
        <time>2022-06-26T11:52:45Z</time>
      </trkpt>
      <trkpt lat="45.80511" lon="4.42548">
        <ele>719.2</ele>
        <time>2022-06-26T11:52:46Z</time>
      </trkpt>
      <trkpt lat="45.80505" lon="4.42554">
        <ele>718.8</ele>
        <time>2022-06-26T11:52:47Z</time>
      </trkpt>
      <trkpt lat="45.80498" lon="4.42561">
        <ele>718.8</ele>
        <time>2022-06-26T11:52:48Z</time>
      </trkpt>
      <trkpt lat="45.80492" lon="4.42567">
        <ele>718.6</ele>
        <time>2022-06-26T11:52:49Z</time>
      </trkpt>
      <trkpt lat="45.80485" lon="4.42574">
        <ele>718.6</ele>
        <time>2022-06-26T11:52:50Z</time>
      </trkpt>
      <trkpt lat="45.80479" lon="4.4258">
        <ele>718.6</ele>
        <time>2022-06-26T11:52:51Z</time>
      </trkpt>
      <trkpt lat="45.80472" lon="4.42586">
        <ele>718.6</ele>
        <time>2022-06-26T11:52:52Z</time>
      </trkpt>
      <trkpt lat="45.80466" lon="4.42592">
        <ele>718.6</ele>
        <time>2022-06-26T11:52:53Z</time>
      </trkpt>
      <trkpt lat="45.8046" lon="4.42597">
        <ele>718.6</ele>
        <time>2022-06-26T11:52:54Z</time>
      </trkpt>
      <trkpt lat="45.80453" lon="4.42603">
        <ele>718.6</ele>
        <time>2022-06-26T11:52:55Z</time>
      </trkpt>
      <trkpt lat="45.80447" lon="4.42609">
        <ele>718.6</ele>
        <time>2022-06-26T11:52:56Z</time>
      </trkpt>
      <trkpt lat="45.80442" lon="4.42614">
        <ele>718.6</ele>
        <time>2022-06-26T11:52:57Z</time>
      </trkpt>
      <trkpt lat="45.80436" lon="4.4262">
        <ele>718.6</ele>
        <time>2022-06-26T11:52:58Z</time>
      </trkpt>
      <trkpt lat="45.8043" lon="4.42625">
        <ele>718.6</ele>
        <time>2022-06-26T11:52:59Z</time>
      </trkpt>
      <trkpt lat="45.80425" lon="4.42631">
        <ele>718.6</ele>
        <time>2022-06-26T11:53:00Z</time>
      </trkpt>
      <trkpt lat="45.80419" lon="4.42636">
        <ele>719</ele>
        <time>2022-06-26T11:53:01Z</time>
      </trkpt>
      <trkpt lat="45.80415" lon="4.42642">
        <ele>719</ele>
        <time>2022-06-26T11:53:02Z</time>
      </trkpt>
      <trkpt lat="45.8041" lon="4.42648">
        <ele>719.2</ele>
        <time>2022-06-26T11:53:03Z</time>
      </trkpt>
      <trkpt lat="45.80406" lon="4.42654">
        <ele>719.4</ele>
        <time>2022-06-26T11:53:04Z</time>
      </trkpt>
      <trkpt lat="45.80403" lon="4.4266">
        <ele>719.4</ele>
        <time>2022-06-26T11:53:05Z</time>
      </trkpt>
      <trkpt lat="45.804" lon="4.42666">
        <ele>719.8</ele>
        <time>2022-06-26T11:53:06Z</time>
      </trkpt>
      <trkpt lat="45.80397" lon="4.42672">
        <ele>720</ele>
        <time>2022-06-26T11:53:07Z</time>
      </trkpt>
      <trkpt lat="45.80394" lon="4.42678">
        <ele>720</ele>
        <time>2022-06-26T11:53:08Z</time>
      </trkpt>
      <trkpt lat="45.80391" lon="4.42685">
        <ele>720.4</ele>
        <time>2022-06-26T11:53:09Z</time>
      </trkpt>
      <trkpt lat="45.80388" lon="4.42691">
        <ele>720.4</ele>
        <time>2022-06-26T11:53:10Z</time>
      </trkpt>
      <trkpt lat="45.80386" lon="4.42697">
        <ele>720.6</ele>
        <time>2022-06-26T11:53:11Z</time>
      </trkpt>
      <trkpt lat="45.80383" lon="4.42703">
        <ele>720.6</ele>
        <time>2022-06-26T11:53:12Z</time>
      </trkpt>
      <trkpt lat="45.8038" lon="4.42708">
        <ele>721</ele>
        <time>2022-06-26T11:53:13Z</time>
      </trkpt>
      <trkpt lat="45.80377" lon="4.42713">
        <ele>721</ele>
        <time>2022-06-26T11:53:14Z</time>
      </trkpt>
      <trkpt lat="45.80373" lon="4.42718">
        <ele>721.4</ele>
        <time>2022-06-26T11:53:15Z</time>
      </trkpt>
      <trkpt lat="45.80369" lon="4.42722">
        <ele>721.4</ele>
        <time>2022-06-26T11:53:16Z</time>
      </trkpt>
      <trkpt lat="45.80365" lon="4.42725">
        <ele>721.6</ele>
        <time>2022-06-26T11:53:17Z</time>
      </trkpt>
      <trkpt lat="45.80361" lon="4.42728">
        <ele>721.6</ele>
        <time>2022-06-26T11:53:18Z</time>
      </trkpt>
      <trkpt lat="45.80357" lon="4.42731">
        <ele>722</ele>
        <time>2022-06-26T11:53:19Z</time>
      </trkpt>
      <trkpt lat="45.80353" lon="4.42734">
        <ele>722</ele>
        <time>2022-06-26T11:53:20Z</time>
      </trkpt>
      <trkpt lat="45.80349" lon="4.42737">
        <ele>722</ele>
        <time>2022-06-26T11:53:21Z</time>
      </trkpt>
      <trkpt lat="45.80346" lon="4.4274">
        <ele>722.4</ele>
        <time>2022-06-26T11:53:22Z</time>
      </trkpt>
      <trkpt lat="45.80342" lon="4.42742">
        <ele>722.4</ele>
        <time>2022-06-26T11:53:23Z</time>
      </trkpt>
      <trkpt lat="45.80339" lon="4.42745">
        <ele>722.6</ele>
        <time>2022-06-26T11:53:24Z</time>
      </trkpt>
      <trkpt lat="45.80335" lon="4.42747">
        <ele>722.6</ele>
        <time>2022-06-26T11:53:25Z</time>
      </trkpt>
      <trkpt lat="45.80331" lon="4.42749">
        <ele>723.2</ele>
        <time>2022-06-26T11:53:26Z</time>
      </trkpt>
      <trkpt lat="45.80328" lon="4.42751">
        <ele>723.4</ele>
        <time>2022-06-26T11:53:27Z</time>
      </trkpt>
      <trkpt lat="45.80324" lon="4.42753">
        <ele>723.4</ele>
        <time>2022-06-26T11:53:28Z</time>
      </trkpt>
      <trkpt lat="45.80321" lon="4.42756">
        <ele>723.6</ele>
        <time>2022-06-26T11:53:29Z</time>
      </trkpt>
      <trkpt lat="45.80317" lon="4.42758">
        <ele>723.6</ele>
        <time>2022-06-26T11:53:30Z</time>
      </trkpt>
      <trkpt lat="45.80314" lon="4.42761">
        <ele>724</ele>
        <time>2022-06-26T11:53:31Z</time>
      </trkpt>
      <trkpt lat="45.80311" lon="4.42764">
        <ele>724</ele>
        <time>2022-06-26T11:53:32Z</time>
      </trkpt>
      <trkpt lat="45.80308" lon="4.42767">
        <ele>724.4</ele>
        <time>2022-06-26T11:53:33Z</time>
      </trkpt>
      <trkpt lat="45.80305" lon="4.4277">
        <ele>724.4</ele>
        <time>2022-06-26T11:53:34Z</time>
      </trkpt>
      <trkpt lat="45.80302" lon="4.42774">
        <ele>724.6</ele>
        <time>2022-06-26T11:53:35Z</time>
      </trkpt>
      <trkpt lat="45.803" lon="4.42778">
        <ele>724.6</ele>
        <time>2022-06-26T11:53:36Z</time>
      </trkpt>
      <trkpt lat="45.80298" lon="4.42782">
        <ele>725</ele>
        <time>2022-06-26T11:53:37Z</time>
      </trkpt>
      <trkpt lat="45.80296" lon="4.42787">
        <ele>725</ele>
        <time>2022-06-26T11:53:38Z</time>
      </trkpt>
      <trkpt lat="45.80294" lon="4.42791">
        <ele>725.2</ele>
        <time>2022-06-26T11:53:39Z</time>
      </trkpt>
      <trkpt lat="45.80292" lon="4.42796">
        <ele>725.2</ele>
        <time>2022-06-26T11:53:40Z</time>
      </trkpt>
      <trkpt lat="45.80291" lon="4.42802">
        <ele>725.6</ele>
        <time>2022-06-26T11:53:41Z</time>
      </trkpt>
      <trkpt lat="45.8029" lon="4.42808">
        <ele>725.6</ele>
        <time>2022-06-26T11:53:42Z</time>
      </trkpt>
      <trkpt lat="45.80289" lon="4.42813">
        <ele>725.8</ele>
        <time>2022-06-26T11:53:43Z</time>
      </trkpt>
      <trkpt lat="45.80288" lon="4.42819">
        <ele>726</ele>
        <time>2022-06-26T11:53:44Z</time>
      </trkpt>
      <trkpt lat="45.80288" lon="4.42825">
        <ele>726</ele>
        <time>2022-06-26T11:53:45Z</time>
      </trkpt>
      <trkpt lat="45.80287" lon="4.4283">
        <ele>726</ele>
        <time>2022-06-26T11:53:46Z</time>
      </trkpt>
      <trkpt lat="45.80287" lon="4.42836">
        <ele>726.2</ele>
        <time>2022-06-26T11:53:47Z</time>
      </trkpt>
      <trkpt lat="45.80287" lon="4.42841">
        <ele>726.2</ele>
        <time>2022-06-26T11:53:48Z</time>
      </trkpt>
      <trkpt lat="45.80286" lon="4.42847">
        <ele>726.4</ele>
        <time>2022-06-26T11:53:49Z</time>
      </trkpt>
      <trkpt lat="45.80286" lon="4.42852">
        <ele>726.4</ele>
        <time>2022-06-26T11:53:50Z</time>
      </trkpt>
      <trkpt lat="45.80286" lon="4.42857">
        <ele>726.8</ele>
        <time>2022-06-26T11:53:51Z</time>
      </trkpt>
      <trkpt lat="45.80286" lon="4.42863">
        <ele>726.8</ele>
        <time>2022-06-26T11:53:52Z</time>
      </trkpt>
      <trkpt lat="45.80286" lon="4.42868">
        <ele>727</ele>
        <time>2022-06-26T11:53:53Z</time>
      </trkpt>
      <trkpt lat="45.80285" lon="4.42873">
        <ele>727</ele>
        <time>2022-06-26T11:53:54Z</time>
      </trkpt>
      <trkpt lat="45.80285" lon="4.42878">
        <ele>727</ele>
        <time>2022-06-26T11:53:55Z</time>
      </trkpt>
      <trkpt lat="45.80284" lon="4.42884">
        <ele>727.2</ele>
        <time>2022-06-26T11:53:56Z</time>
      </trkpt>
      <trkpt lat="45.80284" lon="4.42889">
        <ele>727.2</ele>
        <time>2022-06-26T11:53:57Z</time>
      </trkpt>
      <trkpt lat="45.80284" lon="4.42894">
        <ele>727.2</ele>
        <time>2022-06-26T11:53:58Z</time>
      </trkpt>
      <trkpt lat="45.80284" lon="4.429">
        <ele>727.6</ele>
        <time>2022-06-26T11:53:59Z</time>
      </trkpt>
      <trkpt lat="45.80283" lon="4.42905">
        <ele>727.6</ele>
        <time>2022-06-26T11:54:00Z</time>
      </trkpt>
      <trkpt lat="45.80283" lon="4.4291">
        <ele>727.8</ele>
        <time>2022-06-26T11:54:01Z</time>
      </trkpt>
      <trkpt lat="45.80283" lon="4.42916">
        <ele>727.8</ele>
        <time>2022-06-26T11:54:02Z</time>
      </trkpt>
      <trkpt lat="45.80283" lon="4.42921">
        <ele>727.8</ele>
        <time>2022-06-26T11:54:03Z</time>
      </trkpt>
      <trkpt lat="45.80282" lon="4.42926">
        <ele>728.2</ele>
        <time>2022-06-26T11:54:04Z</time>
      </trkpt>
      <trkpt lat="45.80281" lon="4.42931">
        <ele>728.2</ele>
        <time>2022-06-26T11:54:05Z</time>
      </trkpt>
      <trkpt lat="45.80281" lon="4.42937">
        <ele>728.4</ele>
        <time>2022-06-26T11:54:06Z</time>
      </trkpt>
      <trkpt lat="45.8028" lon="4.42942">
        <ele>728.4</ele>
        <time>2022-06-26T11:54:07Z</time>
      </trkpt>
      <trkpt lat="45.80279" lon="4.42947">
        <ele>728.4</ele>
        <time>2022-06-26T11:54:08Z</time>
      </trkpt>
      <trkpt lat="45.80278" lon="4.42952">
        <ele>728.6</ele>
        <time>2022-06-26T11:54:09Z</time>
      </trkpt>
      <trkpt lat="45.80277" lon="4.42957">
        <ele>728.6</ele>
        <time>2022-06-26T11:54:10Z</time>
      </trkpt>
      <trkpt lat="45.80276" lon="4.42962">
        <ele>729</ele>
        <time>2022-06-26T11:54:11Z</time>
      </trkpt>
      <trkpt lat="45.80274" lon="4.42967">
        <ele>729</ele>
        <time>2022-06-26T11:54:12Z</time>
      </trkpt>
      <trkpt lat="45.80272" lon="4.42971">
        <ele>729.2</ele>
        <time>2022-06-26T11:54:13Z</time>
      </trkpt>
      <trkpt lat="45.80271" lon="4.42976">
        <ele>729.2</ele>
        <time>2022-06-26T11:54:14Z</time>
      </trkpt>
      <trkpt lat="45.80269" lon="4.4298">
        <ele>729.4</ele>
        <time>2022-06-26T11:54:15Z</time>
      </trkpt>
      <trkpt lat="45.80267" lon="4.42984">
        <ele>729.4</ele>
        <time>2022-06-26T11:54:16Z</time>
      </trkpt>
      <trkpt lat="45.80265" lon="4.42988">
        <ele>729.8</ele>
        <time>2022-06-26T11:54:17Z</time>
      </trkpt>
      <trkpt lat="45.80263" lon="4.42993">
        <ele>729.8</ele>
        <time>2022-06-26T11:54:18Z</time>
      </trkpt>
      <trkpt lat="45.80261" lon="4.42997">
        <ele>729.8</ele>
        <time>2022-06-26T11:54:19Z</time>
      </trkpt>
      <trkpt lat="45.80259" lon="4.43001">
        <ele>730</ele>
        <time>2022-06-26T11:54:20Z</time>
      </trkpt>
      <trkpt lat="45.80257" lon="4.43006">
        <ele>730</ele>
        <time>2022-06-26T11:54:21Z</time>
      </trkpt>
      <trkpt lat="45.80255" lon="4.4301">
        <ele>730</ele>
        <time>2022-06-26T11:54:22Z</time>
      </trkpt>
      <trkpt lat="45.80253" lon="4.43014">
        <ele>730.4</ele>
        <time>2022-06-26T11:54:23Z</time>
      </trkpt>
      <trkpt lat="45.80251" lon="4.43018">
        <ele>730.4</ele>
        <time>2022-06-26T11:54:24Z</time>
      </trkpt>
      <trkpt lat="45.8025" lon="4.43022">
        <ele>730.4</ele>
        <time>2022-06-26T11:54:25Z</time>
      </trkpt>
      <trkpt lat="45.80248" lon="4.43027">
        <ele>730.8</ele>
        <time>2022-06-26T11:54:26Z</time>
      </trkpt>
      <trkpt lat="45.80247" lon="4.43031">
        <ele>730.8</ele>
        <time>2022-06-26T11:54:27Z</time>
      </trkpt>
      <trkpt lat="45.80245" lon="4.43035">
        <ele>730.8</ele>
        <time>2022-06-26T11:54:28Z</time>
      </trkpt>
      <trkpt lat="45.80243" lon="4.4304">
        <ele>731</ele>
        <time>2022-06-26T11:54:29Z</time>
      </trkpt>
      <trkpt lat="45.80242" lon="4.43044">
        <ele>731</ele>
        <time>2022-06-26T11:54:30Z</time>
      </trkpt>
      <trkpt lat="45.8024" lon="4.43048">
        <ele>731.4</ele>
        <time>2022-06-26T11:54:31Z</time>
      </trkpt>
      <trkpt lat="45.80239" lon="4.43052">
        <ele>731.4</ele>
        <time>2022-06-26T11:54:32Z</time>
      </trkpt>
      <trkpt lat="45.80237" lon="4.43057">
        <ele>731.6</ele>
        <time>2022-06-26T11:54:33Z</time>
      </trkpt>
      <trkpt lat="45.80236" lon="4.43061">
        <ele>731.6</ele>
        <time>2022-06-26T11:54:34Z</time>
      </trkpt>
      <trkpt lat="45.80235" lon="4.43066">
        <ele>731.8</ele>
        <time>2022-06-26T11:54:35Z</time>
      </trkpt>
      <trkpt lat="45.80234" lon="4.4307">
        <ele>731.8</ele>
        <time>2022-06-26T11:54:36Z</time>
      </trkpt>
      <trkpt lat="45.80233" lon="4.43075">
        <ele>732</ele>
        <time>2022-06-26T11:54:37Z</time>
      </trkpt>
      <trkpt lat="45.80232" lon="4.4308">
        <ele>732</ele>
        <time>2022-06-26T11:54:38Z</time>
      </trkpt>
      <trkpt lat="45.80232" lon="4.43085">
        <ele>732.4</ele>
        <time>2022-06-26T11:54:39Z</time>
      </trkpt>
      <trkpt lat="45.80231" lon="4.4309">
        <ele>732.4</ele>
        <time>2022-06-26T11:54:40Z</time>
      </trkpt>
      <trkpt lat="45.8023" lon="4.43095">
        <ele>732.6</ele>
        <time>2022-06-26T11:54:41Z</time>
      </trkpt>
      <trkpt lat="45.8023" lon="4.431">
        <ele>732.6</ele>
        <time>2022-06-26T11:54:42Z</time>
      </trkpt>
      <trkpt lat="45.80229" lon="4.43105">
        <ele>733</ele>
        <time>2022-06-26T11:54:43Z</time>
      </trkpt>
      <trkpt lat="45.80229" lon="4.4311">
        <ele>733</ele>
        <time>2022-06-26T11:54:44Z</time>
      </trkpt>
      <trkpt lat="45.8023" lon="4.43116">
        <ele>733</ele>
        <time>2022-06-26T11:54:45Z</time>
      </trkpt>
      <trkpt lat="45.8023" lon="4.43121">
        <ele>733.2</ele>
        <time>2022-06-26T11:54:46Z</time>
      </trkpt>
      <trkpt lat="45.8023" lon="4.43127">
        <ele>733.2</ele>
        <time>2022-06-26T11:54:47Z</time>
      </trkpt>
      <trkpt lat="45.80231" lon="4.43138">
        <ele>733.2</ele>
        <time>2022-06-26T11:54:48Z</time>
      </trkpt>
      <trkpt lat="45.80232" lon="4.43143">
        <ele>733.4</ele>
        <time>2022-06-26T11:54:49Z</time>
      </trkpt>
      <trkpt lat="45.80232" lon="4.43149">
        <ele>733.4</ele>
        <time>2022-06-26T11:54:50Z</time>
      </trkpt>
      <trkpt lat="45.80233" lon="4.43154">
        <ele>733.4</ele>
        <time>2022-06-26T11:54:51Z</time>
      </trkpt>
      <trkpt lat="45.80234" lon="4.4316">
        <ele>733.4</ele>
        <time>2022-06-26T11:54:52Z</time>
      </trkpt>
      <trkpt lat="45.80234" lon="4.43165">
        <ele>733.6</ele>
        <time>2022-06-26T11:54:53Z</time>
      </trkpt>
      <trkpt lat="45.80235" lon="4.43171">
        <ele>733.6</ele>
        <time>2022-06-26T11:54:54Z</time>
      </trkpt>
      <trkpt lat="45.80236" lon="4.43176">
        <ele>734</ele>
        <time>2022-06-26T11:54:55Z</time>
      </trkpt>
      <trkpt lat="45.80236" lon="4.43181">
        <ele>734</ele>
        <time>2022-06-26T11:54:56Z</time>
      </trkpt>
      <trkpt lat="45.80237" lon="4.43186">
        <ele>734.2</ele>
        <time>2022-06-26T11:54:57Z</time>
      </trkpt>
      <trkpt lat="45.80238" lon="4.43192">
        <ele>734.2</ele>
        <time>2022-06-26T11:54:58Z</time>
      </trkpt>
      <trkpt lat="45.80238" lon="4.43197">
        <ele>734.4</ele>
        <time>2022-06-26T11:54:59Z</time>
      </trkpt>
      <trkpt lat="45.80239" lon="4.43202">
        <ele>734.4</ele>
        <time>2022-06-26T11:55:00Z</time>
      </trkpt>
      <trkpt lat="45.8024" lon="4.43207">
        <ele>734.4</ele>
        <time>2022-06-26T11:55:01Z</time>
      </trkpt>
      <trkpt lat="45.8024" lon="4.43212">
        <ele>734.8</ele>
        <time>2022-06-26T11:55:02Z</time>
      </trkpt>
      <trkpt lat="45.80239" lon="4.43217">
        <ele>734.8</ele>
        <time>2022-06-26T11:55:03Z</time>
      </trkpt>
      <trkpt lat="45.80239" lon="4.43222">
        <ele>735</ele>
        <time>2022-06-26T11:55:04Z</time>
      </trkpt>
      <trkpt lat="45.80238" lon="4.43228">
        <ele>735</ele>
        <time>2022-06-26T11:55:05Z</time>
      </trkpt>
      <trkpt lat="45.80238" lon="4.43233">
        <ele>735</ele>
        <time>2022-06-26T11:55:06Z</time>
      </trkpt>
      <trkpt lat="45.80237" lon="4.43238">
        <ele>735.2</ele>
        <time>2022-06-26T11:55:07Z</time>
      </trkpt>
      <trkpt lat="45.80236" lon="4.43243">
        <ele>735.2</ele>
        <time>2022-06-26T11:55:08Z</time>
      </trkpt>
      <trkpt lat="45.80234" lon="4.43248">
        <ele>735.4</ele>
        <time>2022-06-26T11:55:09Z</time>
      </trkpt>
      <trkpt lat="45.80233" lon="4.43253">
        <ele>735.4</ele>
        <time>2022-06-26T11:55:10Z</time>
      </trkpt>
      <trkpt lat="45.80231" lon="4.43258">
        <ele>735.8</ele>
        <time>2022-06-26T11:55:11Z</time>
      </trkpt>
      <trkpt lat="45.80229" lon="4.43262">
        <ele>735.8</ele>
        <time>2022-06-26T11:55:12Z</time>
      </trkpt>
      <trkpt lat="45.80226" lon="4.43267">
        <ele>736</ele>
        <time>2022-06-26T11:55:13Z</time>
      </trkpt>
      <trkpt lat="45.80224" lon="4.43271">
        <ele>736</ele>
        <time>2022-06-26T11:55:14Z</time>
      </trkpt>
      <trkpt lat="45.80221" lon="4.43275">
        <ele>736.2</ele>
        <time>2022-06-26T11:55:15Z</time>
      </trkpt>
      <trkpt lat="45.80218" lon="4.43279">
        <ele>736.2</ele>
        <time>2022-06-26T11:55:16Z</time>
      </trkpt>
      <trkpt lat="45.80215" lon="4.43282">
        <ele>736.6</ele>
        <time>2022-06-26T11:55:17Z</time>
      </trkpt>
      <trkpt lat="45.80212" lon="4.43284">
        <ele>736.6</ele>
        <time>2022-06-26T11:55:18Z</time>
      </trkpt>
      <trkpt lat="45.80209" lon="4.43286">
        <ele>736.8</ele>
        <time>2022-06-26T11:55:19Z</time>
      </trkpt>
      <trkpt lat="45.80206" lon="4.43287">
        <ele>736.8</ele>
        <time>2022-06-26T11:55:20Z</time>
      </trkpt>
      <trkpt lat="45.80202" lon="4.43289">
        <ele>737.2</ele>
        <time>2022-06-26T11:55:21Z</time>
      </trkpt>
      <trkpt lat="45.80198" lon="4.4329">
        <ele>737.2</ele>
        <time>2022-06-26T11:55:22Z</time>
      </trkpt>
      <trkpt lat="45.80195" lon="4.43291">
        <ele>737.4</ele>
        <time>2022-06-26T11:55:23Z</time>
      </trkpt>
      <trkpt lat="45.80191" lon="4.43293">
        <ele>737.4</ele>
        <time>2022-06-26T11:55:24Z</time>
      </trkpt>
      <trkpt lat="45.80188" lon="4.43294">
        <ele>737.6</ele>
        <time>2022-06-26T11:55:25Z</time>
      </trkpt>
      <trkpt lat="45.80185" lon="4.43294">
        <ele>737.6</ele>
        <time>2022-06-26T11:55:26Z</time>
      </trkpt>
      <trkpt lat="45.80181" lon="4.43295">
        <ele>737.6</ele>
        <time>2022-06-26T11:55:27Z</time>
      </trkpt>
      <trkpt lat="45.80178" lon="4.43296">
        <ele>738</ele>
        <time>2022-06-26T11:55:28Z</time>
      </trkpt>
      <trkpt lat="45.80174" lon="4.43298">
        <ele>738</ele>
        <time>2022-06-26T11:55:29Z</time>
      </trkpt>
      <trkpt lat="45.80171" lon="4.43299">
        <ele>738.2</ele>
        <time>2022-06-26T11:55:30Z</time>
      </trkpt>
      <trkpt lat="45.80167" lon="4.433">
        <ele>738.2</ele>
        <time>2022-06-26T11:55:31Z</time>
      </trkpt>
      <trkpt lat="45.80164" lon="4.433">
        <ele>738.2</ele>
        <time>2022-06-26T11:55:32Z</time>
      </trkpt>
      <trkpt lat="45.8016" lon="4.43302">
        <ele>738.6</ele>
        <time>2022-06-26T11:55:33Z</time>
      </trkpt>
      <trkpt lat="45.80157" lon="4.43303">
        <ele>738.6</ele>
        <time>2022-06-26T11:55:34Z</time>
      </trkpt>
      <trkpt lat="45.80154" lon="4.43304">
        <ele>738.6</ele>
        <time>2022-06-26T11:55:35Z</time>
      </trkpt>
      <trkpt lat="45.80151" lon="4.43306">
        <ele>738.8</ele>
        <time>2022-06-26T11:55:36Z</time>
      </trkpt>
      <trkpt lat="45.80147" lon="4.43308">
        <ele>738.8</ele>
        <time>2022-06-26T11:55:37Z</time>
      </trkpt>
      <trkpt lat="45.80144" lon="4.43309">
        <ele>739.2</ele>
        <time>2022-06-26T11:55:38Z</time>
      </trkpt>
      <trkpt lat="45.80141" lon="4.43311">
        <ele>739.2</ele>
        <time>2022-06-26T11:55:39Z</time>
      </trkpt>
      <trkpt lat="45.80137" lon="4.43312">
        <ele>739.2</ele>
        <time>2022-06-26T11:55:40Z</time>
      </trkpt>
      <trkpt lat="45.80134" lon="4.43314">
        <ele>739.4</ele>
        <time>2022-06-26T11:55:41Z</time>
      </trkpt>
      <trkpt lat="45.80131" lon="4.43316">
        <ele>739.4</ele>
        <time>2022-06-26T11:55:42Z</time>
      </trkpt>
      <trkpt lat="45.80127" lon="4.43318">
        <ele>739.6</ele>
        <time>2022-06-26T11:55:43Z</time>
      </trkpt>
      <trkpt lat="45.80124" lon="4.43319">
        <ele>739.6</ele>
        <time>2022-06-26T11:55:44Z</time>
      </trkpt>
      <trkpt lat="45.80121" lon="4.43322">
        <ele>739.6</ele>
        <time>2022-06-26T11:55:45Z</time>
      </trkpt>
      <trkpt lat="45.80118" lon="4.43324">
        <ele>739.8</ele>
        <time>2022-06-26T11:55:46Z</time>
      </trkpt>
      <trkpt lat="45.80114" lon="4.43326">
        <ele>739.8</ele>
        <time>2022-06-26T11:55:47Z</time>
      </trkpt>
      <trkpt lat="45.80111" lon="4.43328">
        <ele>739.8</ele>
        <time>2022-06-26T11:55:48Z</time>
      </trkpt>
      <trkpt lat="45.80107" lon="4.43331">
        <ele>739.8</ele>
        <time>2022-06-26T11:55:49Z</time>
      </trkpt>
      <trkpt lat="45.80104" lon="4.43333">
        <ele>740.2</ele>
        <time>2022-06-26T11:55:50Z</time>
      </trkpt>
      <trkpt lat="45.80101" lon="4.43335">
        <ele>740.2</ele>
        <time>2022-06-26T11:55:51Z</time>
      </trkpt>
      <trkpt lat="45.80097" lon="4.43338">
        <ele>740.4</ele>
        <time>2022-06-26T11:55:52Z</time>
      </trkpt>
      <trkpt lat="45.80093" lon="4.4334">
        <ele>740.4</ele>
        <time>2022-06-26T11:55:53Z</time>
      </trkpt>
      <trkpt lat="45.8009" lon="4.43342">
        <ele>740.4</ele>
        <time>2022-06-26T11:55:54Z</time>
      </trkpt>
      <trkpt lat="45.80086" lon="4.43345">
        <ele>740.4</ele>
        <time>2022-06-26T11:55:55Z</time>
      </trkpt>
      <trkpt lat="45.80083" lon="4.43349">
        <ele>740.6</ele>
        <time>2022-06-26T11:55:56Z</time>
      </trkpt>
      <trkpt lat="45.80079" lon="4.43351">
        <ele>740.6</ele>
        <time>2022-06-26T11:55:57Z</time>
      </trkpt>
      <trkpt lat="45.80075" lon="4.43353">
        <ele>740.6</ele>
        <time>2022-06-26T11:55:58Z</time>
      </trkpt>
      <trkpt lat="45.80071" lon="4.43356">
        <ele>740.6</ele>
        <time>2022-06-26T11:55:59Z</time>
      </trkpt>
      <trkpt lat="45.80067" lon="4.43359">
        <ele>741</ele>
        <time>2022-06-26T11:56:00Z</time>
      </trkpt>
      <trkpt lat="45.80063" lon="4.43363">
        <ele>741</ele>
        <time>2022-06-26T11:56:01Z</time>
      </trkpt>
      <trkpt lat="45.80059" lon="4.43366">
        <ele>741</ele>
        <time>2022-06-26T11:56:02Z</time>
      </trkpt>
      <trkpt lat="45.80055" lon="4.43369">
        <ele>741</ele>
        <time>2022-06-26T11:56:03Z</time>
      </trkpt>
      <trkpt lat="45.8005" lon="4.43373">
        <ele>741.2</ele>
        <time>2022-06-26T11:56:04Z</time>
      </trkpt>
      <trkpt lat="45.80046" lon="4.43376">
        <ele>741.2</ele>
        <time>2022-06-26T11:56:05Z</time>
      </trkpt>
      <trkpt lat="45.80041" lon="4.4338">
        <ele>741.2</ele>
        <time>2022-06-26T11:56:06Z</time>
      </trkpt>
      <trkpt lat="45.80037" lon="4.43384">
        <ele>741.2</ele>
        <time>2022-06-26T11:56:07Z</time>
      </trkpt>
      <trkpt lat="45.80032" lon="4.43387">
        <ele>741.4</ele>
        <time>2022-06-26T11:56:08Z</time>
      </trkpt>
      <trkpt lat="45.80028" lon="4.43391">
        <ele>741.4</ele>
        <time>2022-06-26T11:56:09Z</time>
      </trkpt>
      <trkpt lat="45.80023" lon="4.43395">
        <ele>741.6</ele>
        <time>2022-06-26T11:56:10Z</time>
      </trkpt>
      <trkpt lat="45.80019" lon="4.434">
        <ele>741.6</ele>
        <time>2022-06-26T11:56:11Z</time>
      </trkpt>
      <trkpt lat="45.80014" lon="4.43405">
        <ele>741.6</ele>
        <time>2022-06-26T11:56:12Z</time>
      </trkpt>
      <trkpt lat="45.8001" lon="4.4341">
        <ele>741.6</ele>
        <time>2022-06-26T11:56:13Z</time>
      </trkpt>
      <trkpt lat="45.80006" lon="4.43415">
        <ele>741.6</ele>
        <time>2022-06-26T11:56:14Z</time>
      </trkpt>
      <trkpt lat="45.80002" lon="4.4342">
        <ele>741.6</ele>
        <time>2022-06-26T11:56:15Z</time>
      </trkpt>
      <trkpt lat="45.79998" lon="4.43426">
        <ele>741.6</ele>
        <time>2022-06-26T11:56:16Z</time>
      </trkpt>
      <trkpt lat="45.79994" lon="4.43432">
        <ele>741.6</ele>
        <time>2022-06-26T11:56:17Z</time>
      </trkpt>
      <trkpt lat="45.79989" lon="4.43437">
        <ele>741.6</ele>
        <time>2022-06-26T11:56:18Z</time>
      </trkpt>
      <trkpt lat="45.79984" lon="4.43443">
        <ele>741.6</ele>
        <time>2022-06-26T11:56:19Z</time>
      </trkpt>
      <trkpt lat="45.79979" lon="4.43448">
        <ele>741.4</ele>
        <time>2022-06-26T11:56:20Z</time>
      </trkpt>
      <trkpt lat="45.79974" lon="4.43453">
        <ele>741.4</ele>
        <time>2022-06-26T11:56:21Z</time>
      </trkpt>
      <trkpt lat="45.79968" lon="4.43457">
        <ele>741.4</ele>
        <time>2022-06-26T11:56:22Z</time>
      </trkpt>
      <trkpt lat="45.79962" lon="4.43461">
        <ele>741.4</ele>
        <time>2022-06-26T11:56:23Z</time>
      </trkpt>
      <trkpt lat="45.79956" lon="4.43464">
        <ele>741.4</ele>
        <time>2022-06-26T11:56:24Z</time>
      </trkpt>
      <trkpt lat="45.7995" lon="4.43466">
        <ele>741.2</ele>
        <time>2022-06-26T11:56:25Z</time>
      </trkpt>
      <trkpt lat="45.79944" lon="4.43468">
        <ele>741.2</ele>
        <time>2022-06-26T11:56:26Z</time>
      </trkpt>
      <trkpt lat="45.79937" lon="4.4347">
        <ele>741.2</ele>
        <time>2022-06-26T11:56:27Z</time>
      </trkpt>
      <trkpt lat="45.79931" lon="4.4347">
        <ele>741.2</ele>
        <time>2022-06-26T11:56:28Z</time>
      </trkpt>
      <trkpt lat="45.79925" lon="4.4347">
        <ele>741.2</ele>
        <time>2022-06-26T11:56:29Z</time>
      </trkpt>
      <trkpt lat="45.79918" lon="4.4347">
        <ele>741.2</ele>
        <time>2022-06-26T11:56:30Z</time>
      </trkpt>
      <trkpt lat="45.79912" lon="4.43469">
        <ele>741.2</ele>
        <time>2022-06-26T11:56:31Z</time>
      </trkpt>
      <trkpt lat="45.79905" lon="4.43468">
        <ele>741.2</ele>
        <time>2022-06-26T11:56:32Z</time>
      </trkpt>
      <trkpt lat="45.79899" lon="4.43467">
        <ele>741.2</ele>
        <time>2022-06-26T11:56:33Z</time>
      </trkpt>
      <trkpt lat="45.79893" lon="4.43467">
        <ele>741.2</ele>
        <time>2022-06-26T11:56:34Z</time>
      </trkpt>
      <trkpt lat="45.79887" lon="4.43467">
        <ele>741.2</ele>
        <time>2022-06-26T11:56:35Z</time>
      </trkpt>
      <trkpt lat="45.79881" lon="4.43467">
        <ele>741.4</ele>
        <time>2022-06-26T11:56:36Z</time>
      </trkpt>
      <trkpt lat="45.79875" lon="4.43469">
        <ele>741.4</ele>
        <time>2022-06-26T11:56:37Z</time>
      </trkpt>
      <trkpt lat="45.79869" lon="4.43471">
        <ele>741.4</ele>
        <time>2022-06-26T11:56:38Z</time>
      </trkpt>
      <trkpt lat="45.79863" lon="4.43474">
        <ele>741.4</ele>
        <time>2022-06-26T11:56:39Z</time>
      </trkpt>
      <trkpt lat="45.79858" lon="4.43477">
        <ele>741.4</ele>
        <time>2022-06-26T11:56:40Z</time>
      </trkpt>
      <trkpt lat="45.79853" lon="4.43483">
        <ele>741.8</ele>
        <time>2022-06-26T11:56:41Z</time>
      </trkpt>
      <trkpt lat="45.79848" lon="4.43488">
        <ele>741.8</ele>
        <time>2022-06-26T11:56:42Z</time>
      </trkpt>
      <trkpt lat="45.79843" lon="4.43494">
        <ele>741.8</ele>
        <time>2022-06-26T11:56:43Z</time>
      </trkpt>
      <trkpt lat="45.79839" lon="4.43501">
        <ele>741.8</ele>
        <time>2022-06-26T11:56:44Z</time>
      </trkpt>
      <trkpt lat="45.79835" lon="4.43509">
        <ele>741.8</ele>
        <time>2022-06-26T11:56:45Z</time>
      </trkpt>
      <trkpt lat="45.79831" lon="4.43517">
        <ele>741.8</ele>
        <time>2022-06-26T11:56:46Z</time>
      </trkpt>
      <trkpt lat="45.79828" lon="4.43525">
        <ele>741.8</ele>
        <time>2022-06-26T11:56:47Z</time>
      </trkpt>
      <trkpt lat="45.79825" lon="4.43533">
        <ele>741.8</ele>
        <time>2022-06-26T11:56:48Z</time>
      </trkpt>
      <trkpt lat="45.79823" lon="4.43542">
        <ele>741.8</ele>
        <time>2022-06-26T11:56:49Z</time>
      </trkpt>
      <trkpt lat="45.79821" lon="4.43552">
        <ele>741.8</ele>
        <time>2022-06-26T11:56:50Z</time>
      </trkpt>
      <trkpt lat="45.7982" lon="4.43561">
        <ele>741.8</ele>
        <time>2022-06-26T11:56:51Z</time>
      </trkpt>
      <trkpt lat="45.79819" lon="4.43571">
        <ele>741.6</ele>
        <time>2022-06-26T11:56:52Z</time>
      </trkpt>
      <trkpt lat="45.79817" lon="4.4358">
        <ele>741.6</ele>
        <time>2022-06-26T11:56:53Z</time>
      </trkpt>
      <trkpt lat="45.79815" lon="4.4359">
        <ele>741.4</ele>
        <time>2022-06-26T11:56:54Z</time>
      </trkpt>
      <trkpt lat="45.79813" lon="4.43599">
        <ele>741.4</ele>
        <time>2022-06-26T11:56:55Z</time>
      </trkpt>
      <trkpt lat="45.79811" lon="4.43608">
        <ele>741.4</ele>
        <time>2022-06-26T11:56:56Z</time>
      </trkpt>
      <trkpt lat="45.79808" lon="4.43617">
        <ele>741</ele>
        <time>2022-06-26T11:56:57Z</time>
      </trkpt>
      <trkpt lat="45.79805" lon="4.43625">
        <ele>741</ele>
        <time>2022-06-26T11:56:58Z</time>
      </trkpt>
      <trkpt lat="45.79801" lon="4.43634">
        <ele>741</ele>
        <time>2022-06-26T11:56:59Z</time>
      </trkpt>
      <trkpt lat="45.79798" lon="4.43642">
        <ele>740.8</ele>
        <time>2022-06-26T11:57:00Z</time>
      </trkpt>
      <trkpt lat="45.79794" lon="4.4365">
        <ele>740.8</ele>
        <time>2022-06-26T11:57:01Z</time>
      </trkpt>
      <trkpt lat="45.7979" lon="4.43658">
        <ele>740.8</ele>
        <time>2022-06-26T11:57:02Z</time>
      </trkpt>
      <trkpt lat="45.79786" lon="4.43665">
        <ele>740.8</ele>
        <time>2022-06-26T11:57:03Z</time>
      </trkpt>
      <trkpt lat="45.79782" lon="4.43673">
        <ele>740.6</ele>
        <time>2022-06-26T11:57:04Z</time>
      </trkpt>
      <trkpt lat="45.79778" lon="4.4368">
        <ele>740.6</ele>
        <time>2022-06-26T11:57:05Z</time>
      </trkpt>
      <trkpt lat="45.79773" lon="4.43688">
        <ele>740.6</ele>
        <time>2022-06-26T11:57:06Z</time>
      </trkpt>
      <trkpt lat="45.79769" lon="4.43695">
        <ele>740.6</ele>
        <time>2022-06-26T11:57:07Z</time>
      </trkpt>
      <trkpt lat="45.79764" lon="4.43702">
        <ele>740.6</ele>
        <time>2022-06-26T11:57:08Z</time>
      </trkpt>
      <trkpt lat="45.7976" lon="4.43709">
        <ele>740.6</ele>
        <time>2022-06-26T11:57:09Z</time>
      </trkpt>
      <trkpt lat="45.79756" lon="4.43716">
        <ele>740.6</ele>
        <time>2022-06-26T11:57:10Z</time>
      </trkpt>
      <trkpt lat="45.79752" lon="4.43724">
        <ele>740.6</ele>
        <time>2022-06-26T11:57:11Z</time>
      </trkpt>
      <trkpt lat="45.79748" lon="4.43732">
        <ele>740.6</ele>
        <time>2022-06-26T11:57:12Z</time>
      </trkpt>
      <trkpt lat="45.79744" lon="4.4374">
        <ele>740.6</ele>
        <time>2022-06-26T11:57:13Z</time>
      </trkpt>
      <trkpt lat="45.79741" lon="4.43747">
        <ele>740.6</ele>
        <time>2022-06-26T11:57:14Z</time>
      </trkpt>
      <trkpt lat="45.79737" lon="4.43755">
        <ele>740.6</ele>
        <time>2022-06-26T11:57:15Z</time>
      </trkpt>
      <trkpt lat="45.79733" lon="4.43763">
        <ele>740.6</ele>
        <time>2022-06-26T11:57:16Z</time>
      </trkpt>
      <trkpt lat="45.79729" lon="4.43771">
        <ele>740.6</ele>
        <time>2022-06-26T11:57:17Z</time>
      </trkpt>
      <trkpt lat="45.79725" lon="4.43778">
        <ele>740.6</ele>
        <time>2022-06-26T11:57:18Z</time>
      </trkpt>
      <trkpt lat="45.79721" lon="4.43786">
        <ele>740.6</ele>
        <time>2022-06-26T11:57:19Z</time>
      </trkpt>
      <trkpt lat="45.79717" lon="4.43793">
        <ele>740.6</ele>
        <time>2022-06-26T11:57:20Z</time>
      </trkpt>
      <trkpt lat="45.79713" lon="4.43799">
        <ele>740.6</ele>
        <time>2022-06-26T11:57:21Z</time>
      </trkpt>
      <trkpt lat="45.79708" lon="4.43805">
        <ele>740.6</ele>
        <time>2022-06-26T11:57:22Z</time>
      </trkpt>
      <trkpt lat="45.79704" lon="4.43811">
        <ele>740.6</ele>
        <time>2022-06-26T11:57:23Z</time>
      </trkpt>
      <trkpt lat="45.79699" lon="4.43817">
        <ele>740.6</ele>
        <time>2022-06-26T11:57:24Z</time>
      </trkpt>
      <trkpt lat="45.79694" lon="4.43822">
        <ele>740.4</ele>
        <time>2022-06-26T11:57:25Z</time>
      </trkpt>
      <trkpt lat="45.79689" lon="4.43826">
        <ele>740.4</ele>
        <time>2022-06-26T11:57:26Z</time>
      </trkpt>
      <trkpt lat="45.79683" lon="4.4383">
        <ele>740.4</ele>
        <time>2022-06-26T11:57:27Z</time>
      </trkpt>
      <trkpt lat="45.79677" lon="4.43834">
        <ele>740.4</ele>
        <time>2022-06-26T11:57:28Z</time>
      </trkpt>
      <trkpt lat="45.79672" lon="4.43837">
        <ele>740.4</ele>
        <time>2022-06-26T11:57:29Z</time>
      </trkpt>
      <trkpt lat="45.79666" lon="4.43842">
        <ele>740.4</ele>
        <time>2022-06-26T11:57:30Z</time>
      </trkpt>
      <trkpt lat="45.7966" lon="4.43847">
        <ele>740</ele>
        <time>2022-06-26T11:57:31Z</time>
      </trkpt>
      <trkpt lat="45.79655" lon="4.43851">
        <ele>740</ele>
        <time>2022-06-26T11:57:32Z</time>
      </trkpt>
      <trkpt lat="45.7965" lon="4.43855">
        <ele>740</ele>
        <time>2022-06-26T11:57:33Z</time>
      </trkpt>
      <trkpt lat="45.79644" lon="4.43857">
        <ele>740</ele>
        <time>2022-06-26T11:57:34Z</time>
      </trkpt>
      <trkpt lat="45.79638" lon="4.43859">
        <ele>740</ele>
        <time>2022-06-26T11:57:35Z</time>
      </trkpt>
      <trkpt lat="45.79632" lon="4.4386">
        <ele>740</ele>
        <time>2022-06-26T11:57:36Z</time>
      </trkpt>
      <trkpt lat="45.79626" lon="4.43862">
        <ele>740</ele>
        <time>2022-06-26T11:57:37Z</time>
      </trkpt>
      <trkpt lat="45.7962" lon="4.43862">
        <ele>740</ele>
        <time>2022-06-26T11:57:38Z</time>
      </trkpt>
      <trkpt lat="45.79613" lon="4.43861">
        <ele>740</ele>
        <time>2022-06-26T11:57:39Z</time>
      </trkpt>
      <trkpt lat="45.79606" lon="4.43861">
        <ele>740</ele>
        <time>2022-06-26T11:57:40Z</time>
      </trkpt>
      <trkpt lat="45.796" lon="4.43861">
        <ele>740</ele>
        <time>2022-06-26T11:57:41Z</time>
      </trkpt>
      <trkpt lat="45.79593" lon="4.43861">
        <ele>740</ele>
        <time>2022-06-26T11:57:42Z</time>
      </trkpt>
      <trkpt lat="45.79586" lon="4.43861">
        <ele>740</ele>
        <time>2022-06-26T11:57:43Z</time>
      </trkpt>
      <trkpt lat="45.7958" lon="4.43861">
        <ele>740</ele>
        <time>2022-06-26T11:57:44Z</time>
      </trkpt>
      <trkpt lat="45.79574" lon="4.43861">
        <ele>740</ele>
        <time>2022-06-26T11:57:45Z</time>
      </trkpt>
      <trkpt lat="45.79567" lon="4.43862">
        <ele>740</ele>
        <time>2022-06-26T11:57:46Z</time>
      </trkpt>
      <trkpt lat="45.7956" lon="4.43862">
        <ele>740</ele>
        <time>2022-06-26T11:57:47Z</time>
      </trkpt>
      <trkpt lat="45.79553" lon="4.43863">
        <ele>740</ele>
        <time>2022-06-26T11:57:48Z</time>
      </trkpt>
      <trkpt lat="45.79547" lon="4.43864">
        <ele>740</ele>
        <time>2022-06-26T11:57:49Z</time>
      </trkpt>
      <trkpt lat="45.7954" lon="4.43865">
        <ele>740</ele>
        <time>2022-06-26T11:57:50Z</time>
      </trkpt>
      <trkpt lat="45.79533" lon="4.43866">
        <ele>740</ele>
        <time>2022-06-26T11:57:51Z</time>
      </trkpt>
      <trkpt lat="45.79526" lon="4.43866">
        <ele>740</ele>
        <time>2022-06-26T11:57:52Z</time>
      </trkpt>
      <trkpt lat="45.7952" lon="4.43867">
        <ele>740.4</ele>
        <time>2022-06-26T11:57:53Z</time>
      </trkpt>
      <trkpt lat="45.79513" lon="4.4387">
        <ele>740.4</ele>
        <time>2022-06-26T11:57:54Z</time>
      </trkpt>
      <trkpt lat="45.79506" lon="4.43872">
        <ele>740.4</ele>
        <time>2022-06-26T11:57:55Z</time>
      </trkpt>
      <trkpt lat="45.795" lon="4.43876">
        <ele>740.4</ele>
        <time>2022-06-26T11:57:56Z</time>
      </trkpt>
      <trkpt lat="45.79494" lon="4.43881">
        <ele>740.4</ele>
        <time>2022-06-26T11:57:57Z</time>
      </trkpt>
      <trkpt lat="45.79488" lon="4.43886">
        <ele>740.4</ele>
        <time>2022-06-26T11:57:58Z</time>
      </trkpt>
      <trkpt lat="45.79483" lon="4.43892">
        <ele>740.4</ele>
        <time>2022-06-26T11:57:59Z</time>
      </trkpt>
      <trkpt lat="45.79478" lon="4.43899">
        <ele>740.2</ele>
        <time>2022-06-26T11:58:00Z</time>
      </trkpt>
      <trkpt lat="45.79474" lon="4.43906">
        <ele>740.2</ele>
        <time>2022-06-26T11:58:01Z</time>
      </trkpt>
      <trkpt lat="45.79469" lon="4.43915">
        <ele>740.2</ele>
        <time>2022-06-26T11:58:02Z</time>
      </trkpt>
      <trkpt lat="45.79465" lon="4.43924">
        <ele>740.2</ele>
        <time>2022-06-26T11:58:03Z</time>
      </trkpt>
      <trkpt lat="45.7946" lon="4.43933">
        <ele>740.2</ele>
        <time>2022-06-26T11:58:04Z</time>
      </trkpt>
      <trkpt lat="45.79456" lon="4.43942">
        <ele>740</ele>
        <time>2022-06-26T11:58:05Z</time>
      </trkpt>
      <trkpt lat="45.79451" lon="4.43951">
        <ele>740</ele>
        <time>2022-06-26T11:58:06Z</time>
      </trkpt>
      <trkpt lat="45.79447" lon="4.4396">
        <ele>740</ele>
        <time>2022-06-26T11:58:07Z</time>
      </trkpt>
      <trkpt lat="45.79442" lon="4.43968">
        <ele>740</ele>
        <time>2022-06-26T11:58:08Z</time>
      </trkpt>
      <trkpt lat="45.79437" lon="4.43975">
        <ele>740</ele>
        <time>2022-06-26T11:58:09Z</time>
      </trkpt>
      <trkpt lat="45.79432" lon="4.43981">
        <ele>740</ele>
        <time>2022-06-26T11:58:10Z</time>
      </trkpt>
      <trkpt lat="45.79426" lon="4.43986">
        <ele>739.6</ele>
        <time>2022-06-26T11:58:11Z</time>
      </trkpt>
      <trkpt lat="45.79421" lon="4.43991">
        <ele>739.6</ele>
        <time>2022-06-26T11:58:12Z</time>
      </trkpt>
      <trkpt lat="45.79415" lon="4.43996">
        <ele>739.6</ele>
        <time>2022-06-26T11:58:13Z</time>
      </trkpt>
      <trkpt lat="45.79409" lon="4.44001">
        <ele>739.6</ele>
        <time>2022-06-26T11:58:14Z</time>
      </trkpt>
      <trkpt lat="45.79403" lon="4.44006">
        <ele>739.6</ele>
        <time>2022-06-26T11:58:15Z</time>
      </trkpt>
      <trkpt lat="45.79397" lon="4.4401">
        <ele>739.6</ele>
        <time>2022-06-26T11:58:16Z</time>
      </trkpt>
      <trkpt lat="45.79392" lon="4.44015">
        <ele>739.6</ele>
        <time>2022-06-26T11:58:17Z</time>
      </trkpt>
      <trkpt lat="45.79387" lon="4.44019">
        <ele>739.6</ele>
        <time>2022-06-26T11:58:18Z</time>
      </trkpt>
      <trkpt lat="45.79382" lon="4.44023">
        <ele>739.4</ele>
        <time>2022-06-26T11:58:19Z</time>
      </trkpt>
      <trkpt lat="45.79377" lon="4.44028">
        <ele>739.4</ele>
        <time>2022-06-26T11:58:20Z</time>
      </trkpt>
      <trkpt lat="45.79374" lon="4.44031">
        <ele>739.4</ele>
        <time>2022-06-26T11:58:21Z</time>
      </trkpt>
      <trkpt lat="45.7937" lon="4.44034">
        <ele>739.4</ele>
        <time>2022-06-26T11:58:22Z</time>
      </trkpt>
      <trkpt lat="45.79367" lon="4.44038">
        <ele>739.4</ele>
        <time>2022-06-26T11:58:23Z</time>
      </trkpt>
      <trkpt lat="45.79364" lon="4.44042">
        <ele>739.4</ele>
        <time>2022-06-26T11:58:24Z</time>
      </trkpt>
      <trkpt lat="45.79362" lon="4.44047">
        <ele>739.4</ele>
        <time>2022-06-26T11:58:25Z</time>
      </trkpt>
      <trkpt lat="45.7936" lon="4.44053">
        <ele>739.4</ele>
        <time>2022-06-26T11:58:26Z</time>
      </trkpt>
      <trkpt lat="45.79358" lon="4.4406">
        <ele>739.4</ele>
        <time>2022-06-26T11:58:27Z</time>
      </trkpt>
      <trkpt lat="45.79357" lon="4.44067">
        <ele>739.4</ele>
        <time>2022-06-26T11:58:28Z</time>
      </trkpt>
      <trkpt lat="45.79356" lon="4.44074">
        <ele>739.4</ele>
        <time>2022-06-26T11:58:29Z</time>
      </trkpt>
      <trkpt lat="45.79355" lon="4.44081">
        <ele>739.4</ele>
        <time>2022-06-26T11:58:30Z</time>
      </trkpt>
      <trkpt lat="45.79354" lon="4.44089">
        <ele>739.4</ele>
        <time>2022-06-26T11:58:31Z</time>
      </trkpt>
      <trkpt lat="45.79353" lon="4.44096">
        <ele>739.4</ele>
        <time>2022-06-26T11:58:32Z</time>
      </trkpt>
      <trkpt lat="45.79352" lon="4.44104">
        <ele>739.4</ele>
        <time>2022-06-26T11:58:33Z</time>
      </trkpt>
      <trkpt lat="45.79351" lon="4.44111">
        <ele>739.4</ele>
        <time>2022-06-26T11:58:34Z</time>
      </trkpt>
      <trkpt lat="45.79351" lon="4.44119">
        <ele>739.4</ele>
        <time>2022-06-26T11:58:35Z</time>
      </trkpt>
      <trkpt lat="45.7935" lon="4.44126">
        <ele>739.4</ele>
        <time>2022-06-26T11:58:36Z</time>
      </trkpt>
      <trkpt lat="45.79349" lon="4.44133">
        <ele>739.4</ele>
        <time>2022-06-26T11:58:37Z</time>
      </trkpt>
      <trkpt lat="45.79348" lon="4.4414">
        <ele>739.4</ele>
        <time>2022-06-26T11:58:38Z</time>
      </trkpt>
      <trkpt lat="45.79347" lon="4.44147">
        <ele>739.4</ele>
        <time>2022-06-26T11:58:39Z</time>
      </trkpt>
      <trkpt lat="45.79347" lon="4.44154">
        <ele>739.4</ele>
        <time>2022-06-26T11:58:40Z</time>
      </trkpt>
      <trkpt lat="45.79346" lon="4.4416">
        <ele>739.8</ele>
        <time>2022-06-26T11:58:41Z</time>
      </trkpt>
      <trkpt lat="45.79345" lon="4.44167">
        <ele>739.8</ele>
        <time>2022-06-26T11:58:42Z</time>
      </trkpt>
      <trkpt lat="45.79344" lon="4.44174">
        <ele>739.8</ele>
        <time>2022-06-26T11:58:43Z</time>
      </trkpt>
      <trkpt lat="45.79343" lon="4.44181">
        <ele>740</ele>
        <time>2022-06-26T11:58:44Z</time>
      </trkpt>
      <trkpt lat="45.79342" lon="4.44188">
        <ele>740</ele>
        <time>2022-06-26T11:58:45Z</time>
      </trkpt>
      <trkpt lat="45.79341" lon="4.44194">
        <ele>740</ele>
        <time>2022-06-26T11:58:46Z</time>
      </trkpt>
      <trkpt lat="45.7934" lon="4.44201">
        <ele>740.2</ele>
        <time>2022-06-26T11:58:47Z</time>
      </trkpt>
      <trkpt lat="45.7934" lon="4.44207">
        <ele>740.2</ele>
        <time>2022-06-26T11:58:48Z</time>
      </trkpt>
      <trkpt lat="45.79339" lon="4.44214">
        <ele>740.4</ele>
        <time>2022-06-26T11:58:49Z</time>
      </trkpt>
      <trkpt lat="45.79338" lon="4.4422">
        <ele>740.4</ele>
        <time>2022-06-26T11:58:50Z</time>
      </trkpt>
      <trkpt lat="45.79337" lon="4.44227">
        <ele>740.4</ele>
        <time>2022-06-26T11:58:51Z</time>
      </trkpt>
      <trkpt lat="45.79337" lon="4.44234">
        <ele>740.6</ele>
        <time>2022-06-26T11:58:52Z</time>
      </trkpt>
      <trkpt lat="45.79336" lon="4.44241">
        <ele>740.6</ele>
        <time>2022-06-26T11:58:53Z</time>
      </trkpt>
      <trkpt lat="45.79335" lon="4.44248">
        <ele>740.6</ele>
        <time>2022-06-26T11:58:54Z</time>
      </trkpt>
      <trkpt lat="45.79334" lon="4.44255">
        <ele>740.6</ele>
        <time>2022-06-26T11:58:55Z</time>
      </trkpt>
      <trkpt lat="45.79333" lon="4.44262">
        <ele>740.6</ele>
        <time>2022-06-26T11:58:56Z</time>
      </trkpt>
      <trkpt lat="45.79333" lon="4.4427">
        <ele>740.6</ele>
        <time>2022-06-26T11:58:57Z</time>
      </trkpt>
      <trkpt lat="45.79332" lon="4.44277">
        <ele>740.6</ele>
        <time>2022-06-26T11:58:58Z</time>
      </trkpt>
      <trkpt lat="45.79332" lon="4.44285">
        <ele>740.6</ele>
        <time>2022-06-26T11:58:59Z</time>
      </trkpt>
      <trkpt lat="45.79332" lon="4.44293">
        <ele>740.6</ele>
        <time>2022-06-26T11:59:00Z</time>
      </trkpt>
      <trkpt lat="45.79331" lon="4.44302">
        <ele>740.6</ele>
        <time>2022-06-26T11:59:01Z</time>
      </trkpt>
      <trkpt lat="45.79331" lon="4.4431">
        <ele>740.6</ele>
        <time>2022-06-26T11:59:02Z</time>
      </trkpt>
      <trkpt lat="45.7933" lon="4.44319">
        <ele>740.4</ele>
        <time>2022-06-26T11:59:03Z</time>
      </trkpt>
      <trkpt lat="45.7933" lon="4.44327">
        <ele>740.4</ele>
        <time>2022-06-26T11:59:04Z</time>
      </trkpt>
      <trkpt lat="45.79329" lon="4.44336">
        <ele>740.2</ele>
        <time>2022-06-26T11:59:05Z</time>
      </trkpt>
      <trkpt lat="45.79329" lon="4.44345">
        <ele>740.2</ele>
        <time>2022-06-26T11:59:06Z</time>
      </trkpt>
      <trkpt lat="45.79329" lon="4.44355">
        <ele>740</ele>
        <time>2022-06-26T11:59:07Z</time>
      </trkpt>
      <trkpt lat="45.79329" lon="4.44364">
        <ele>740</ele>
        <time>2022-06-26T11:59:08Z</time>
      </trkpt>
      <trkpt lat="45.79329" lon="4.44373">
        <ele>740</ele>
        <time>2022-06-26T11:59:09Z</time>
      </trkpt>
      <trkpt lat="45.79329" lon="4.44383">
        <ele>739.6</ele>
        <time>2022-06-26T11:59:10Z</time>
      </trkpt>
      <trkpt lat="45.79329" lon="4.44392">
        <ele>739.6</ele>
        <time>2022-06-26T11:59:11Z</time>
      </trkpt>
      <trkpt lat="45.79329" lon="4.44402">
        <ele>739.4</ele>
        <time>2022-06-26T11:59:12Z</time>
      </trkpt>
      <trkpt lat="45.79329" lon="4.44412">
        <ele>739.4</ele>
        <time>2022-06-26T11:59:13Z</time>
      </trkpt>
      <trkpt lat="45.79329" lon="4.44421">
        <ele>739</ele>
        <time>2022-06-26T11:59:14Z</time>
      </trkpt>
      <trkpt lat="45.79329" lon="4.44431">
        <ele>739</ele>
        <time>2022-06-26T11:59:15Z</time>
      </trkpt>
      <trkpt lat="45.7933" lon="4.44442">
        <ele>738.8</ele>
        <time>2022-06-26T11:59:16Z</time>
      </trkpt>
      <trkpt lat="45.7933" lon="4.44452">
        <ele>738.8</ele>
        <time>2022-06-26T11:59:17Z</time>
      </trkpt>
      <trkpt lat="45.79332" lon="4.44461">
        <ele>738.8</ele>
        <time>2022-06-26T11:59:18Z</time>
      </trkpt>
      <trkpt lat="45.79334" lon="4.44471">
        <ele>738.8</ele>
        <time>2022-06-26T11:59:19Z</time>
      </trkpt>
      <trkpt lat="45.79337" lon="4.4448">
        <ele>738.4</ele>
        <time>2022-06-26T11:59:20Z</time>
      </trkpt>
      <trkpt lat="45.79342" lon="4.44488">
        <ele>738.4</ele>
        <time>2022-06-26T11:59:21Z</time>
      </trkpt>
      <trkpt lat="45.79346" lon="4.44496">
        <ele>738.4</ele>
        <time>2022-06-26T11:59:22Z</time>
      </trkpt>
      <trkpt lat="45.79352" lon="4.44503">
        <ele>738</ele>
        <time>2022-06-26T11:59:23Z</time>
      </trkpt>
      <trkpt lat="45.79358" lon="4.4451">
        <ele>737.8</ele>
        <time>2022-06-26T11:59:24Z</time>
      </trkpt>
      <trkpt lat="45.79365" lon="4.44515">
        <ele>737.4</ele>
        <time>2022-06-26T11:59:25Z</time>
      </trkpt>
      <trkpt lat="45.79373" lon="4.4452">
        <ele>737</ele>
        <time>2022-06-26T11:59:26Z</time>
      </trkpt>
      <trkpt lat="45.7938" lon="4.44524">
        <ele>736.8</ele>
        <time>2022-06-26T11:59:27Z</time>
      </trkpt>
      <trkpt lat="45.79388" lon="4.44528">
        <ele>736.8</ele>
        <time>2022-06-26T11:59:28Z</time>
      </trkpt>
      <trkpt lat="45.79396" lon="4.44533">
        <ele>736.4</ele>
        <time>2022-06-26T11:59:29Z</time>
      </trkpt>
      <trkpt lat="45.79403" lon="4.44539">
        <ele>736.2</ele>
        <time>2022-06-26T11:59:30Z</time>
      </trkpt>
      <trkpt lat="45.7941" lon="4.44546">
        <ele>736.2</ele>
        <time>2022-06-26T11:59:31Z</time>
      </trkpt>
      <trkpt lat="45.79417" lon="4.44554">
        <ele>735.8</ele>
        <time>2022-06-26T11:59:32Z</time>
      </trkpt>
      <trkpt lat="45.79423" lon="4.44562">
        <ele>735.8</ele>
        <time>2022-06-26T11:59:33Z</time>
      </trkpt>
      <trkpt lat="45.79428" lon="4.4457">
        <ele>735.4</ele>
        <time>2022-06-26T11:59:34Z</time>
      </trkpt>
      <trkpt lat="45.79433" lon="4.4458">
        <ele>735.4</ele>
        <time>2022-06-26T11:59:35Z</time>
      </trkpt>
      <trkpt lat="45.79437" lon="4.4459">
        <ele>735</ele>
        <time>2022-06-26T11:59:36Z</time>
      </trkpt>
      <trkpt lat="45.7944" lon="4.446">
        <ele>734.8</ele>
        <time>2022-06-26T11:59:37Z</time>
      </trkpt>
      <trkpt lat="45.79443" lon="4.44611">
        <ele>734.8</ele>
        <time>2022-06-26T11:59:38Z</time>
      </trkpt>
      <trkpt lat="45.79445" lon="4.44622">
        <ele>734.4</ele>
        <time>2022-06-26T11:59:39Z</time>
      </trkpt>
      <trkpt lat="45.79447" lon="4.44632">
        <ele>734.4</ele>
        <time>2022-06-26T11:59:40Z</time>
      </trkpt>
      <trkpt lat="45.79449" lon="4.44642">
        <ele>734</ele>
        <time>2022-06-26T11:59:41Z</time>
      </trkpt>
      <trkpt lat="45.79451" lon="4.44653">
        <ele>734</ele>
        <time>2022-06-26T11:59:42Z</time>
      </trkpt>
      <trkpt lat="45.79453" lon="4.44663">
        <ele>734</ele>
        <time>2022-06-26T11:59:43Z</time>
      </trkpt>
      <trkpt lat="45.79455" lon="4.44672">
        <ele>734</ele>
        <time>2022-06-26T11:59:44Z</time>
      </trkpt>
      <trkpt lat="45.79457" lon="4.44682">
        <ele>734</ele>
        <time>2022-06-26T11:59:45Z</time>
      </trkpt>
      <trkpt lat="45.79459" lon="4.44691">
        <ele>734</ele>
        <time>2022-06-26T11:59:46Z</time>
      </trkpt>
      <trkpt lat="45.79461" lon="4.44701">
        <ele>734</ele>
        <time>2022-06-26T11:59:47Z</time>
      </trkpt>
      <trkpt lat="45.79463" lon="4.4471">
        <ele>734</ele>
        <time>2022-06-26T11:59:48Z</time>
      </trkpt>
      <trkpt lat="45.79465" lon="4.44719">
        <ele>734</ele>
        <time>2022-06-26T11:59:49Z</time>
      </trkpt>
      <trkpt lat="45.79467" lon="4.44727">
        <ele>734</ele>
        <time>2022-06-26T11:59:50Z</time>
      </trkpt>
      <trkpt lat="45.7947" lon="4.4474">
        <ele>733.6</ele>
        <time>2022-06-26T11:59:51Z</time>
      </trkpt>
      <trkpt lat="45.79471" lon="4.44745">
        <ele>733.6</ele>
        <time>2022-06-26T11:59:52Z</time>
      </trkpt>
      <trkpt lat="45.79473" lon="4.44753">
        <ele>733.6</ele>
        <time>2022-06-26T11:59:53Z</time>
      </trkpt>
      <trkpt lat="45.79475" lon="4.44762">
        <ele>733.6</ele>
        <time>2022-06-26T11:59:54Z</time>
      </trkpt>
      <trkpt lat="45.79476" lon="4.4477">
        <ele>733.6</ele>
        <time>2022-06-26T11:59:55Z</time>
      </trkpt>
      <trkpt lat="45.79478" lon="4.44778">
        <ele>733.6</ele>
        <time>2022-06-26T11:59:56Z</time>
      </trkpt>
      <trkpt lat="45.7948" lon="4.44785">
        <ele>734</ele>
        <time>2022-06-26T11:59:57Z</time>
      </trkpt>
      <trkpt lat="45.79481" lon="4.44793">
        <ele>734</ele>
        <time>2022-06-26T11:59:58Z</time>
      </trkpt>
      <trkpt lat="45.79482" lon="4.448">
        <ele>734</ele>
        <time>2022-06-26T11:59:59Z</time>
      </trkpt>
      <trkpt lat="45.79483" lon="4.44808">
        <ele>734.2</ele>
        <time>2022-06-26T12:00:00Z</time>
      </trkpt>
      <trkpt lat="45.79484" lon="4.44815">
        <ele>734.2</ele>
        <time>2022-06-26T12:00:01Z</time>
      </trkpt>
      <trkpt lat="45.79485" lon="4.44823">
        <ele>734.6</ele>
        <time>2022-06-26T12:00:02Z</time>
      </trkpt>
      <trkpt lat="45.79486" lon="4.4483">
        <ele>734.6</ele>
        <time>2022-06-26T12:00:03Z</time>
      </trkpt>
      <trkpt lat="45.79486" lon="4.44837">
        <ele>734.8</ele>
        <time>2022-06-26T12:00:04Z</time>
      </trkpt>
      <trkpt lat="45.79487" lon="4.44845">
        <ele>734.8</ele>
        <time>2022-06-26T12:00:05Z</time>
      </trkpt>
      <trkpt lat="45.79486" lon="4.44852">
        <ele>735.2</ele>
        <time>2022-06-26T12:00:06Z</time>
      </trkpt>
      <trkpt lat="45.79486" lon="4.44858">
        <ele>735.2</ele>
        <time>2022-06-26T12:00:07Z</time>
      </trkpt>
      <trkpt lat="45.79485" lon="4.44864">
        <ele>735.4</ele>
        <time>2022-06-26T12:00:08Z</time>
      </trkpt>
      <trkpt lat="45.79485" lon="4.44871">
        <ele>735.4</ele>
        <time>2022-06-26T12:00:09Z</time>
      </trkpt>
      <trkpt lat="45.79484" lon="4.44877">
        <ele>735.8</ele>
        <time>2022-06-26T12:00:10Z</time>
      </trkpt>
      <trkpt lat="45.79483" lon="4.44883">
        <ele>735.8</ele>
        <time>2022-06-26T12:00:11Z</time>
      </trkpt>
      <trkpt lat="45.79482" lon="4.4489">
        <ele>736</ele>
        <time>2022-06-26T12:00:12Z</time>
      </trkpt>
      <trkpt lat="45.7948" lon="4.44897">
        <ele>736</ele>
        <time>2022-06-26T12:00:13Z</time>
      </trkpt>
      <trkpt lat="45.79479" lon="4.44903">
        <ele>736.2</ele>
        <time>2022-06-26T12:00:14Z</time>
      </trkpt>
      <trkpt lat="45.79478" lon="4.4491">
        <ele>736.2</ele>
        <time>2022-06-26T12:00:15Z</time>
      </trkpt>
      <trkpt lat="45.79477" lon="4.44917">
        <ele>736.6</ele>
        <time>2022-06-26T12:00:16Z</time>
      </trkpt>
      <trkpt lat="45.79476" lon="4.44923">
        <ele>736.6</ele>
        <time>2022-06-26T12:00:17Z</time>
      </trkpt>
      <trkpt lat="45.79474" lon="4.4493">
        <ele>736.6</ele>
        <time>2022-06-26T12:00:18Z</time>
      </trkpt>
      <trkpt lat="45.79473" lon="4.44937">
        <ele>736.8</ele>
        <time>2022-06-26T12:00:19Z</time>
      </trkpt>
      <trkpt lat="45.79472" lon="4.44943">
        <ele>736.8</ele>
        <time>2022-06-26T12:00:20Z</time>
      </trkpt>
      <trkpt lat="45.7947" lon="4.4495">
        <ele>737.2</ele>
        <time>2022-06-26T12:00:21Z</time>
      </trkpt>
      <trkpt lat="45.79469" lon="4.44956">
        <ele>737.2</ele>
        <time>2022-06-26T12:00:22Z</time>
      </trkpt>
      <trkpt lat="45.79468" lon="4.44962">
        <ele>737.4</ele>
        <time>2022-06-26T12:00:23Z</time>
      </trkpt>
      <trkpt lat="45.79467" lon="4.44968">
        <ele>737.4</ele>
        <time>2022-06-26T12:00:24Z</time>
      </trkpt>
      <trkpt lat="45.79465" lon="4.44975">
        <ele>737.6</ele>
        <time>2022-06-26T12:00:25Z</time>
      </trkpt>
      <trkpt lat="45.79464" lon="4.44981">
        <ele>737.6</ele>
        <time>2022-06-26T12:00:26Z</time>
      </trkpt>
      <trkpt lat="45.79463" lon="4.44988">
        <ele>737.8</ele>
        <time>2022-06-26T12:00:27Z</time>
      </trkpt>
      <trkpt lat="45.79462" lon="4.44994">
        <ele>737.8</ele>
        <time>2022-06-26T12:00:28Z</time>
      </trkpt>
      <trkpt lat="45.79461" lon="4.45">
        <ele>737.8</ele>
        <time>2022-06-26T12:00:29Z</time>
      </trkpt>
      <trkpt lat="45.79461" lon="4.45007">
        <ele>738</ele>
        <time>2022-06-26T12:00:30Z</time>
      </trkpt>
      <trkpt lat="45.7946" lon="4.45014">
        <ele>738</ele>
        <time>2022-06-26T12:00:31Z</time>
      </trkpt>
      <trkpt lat="45.79459" lon="4.4502">
        <ele>738</ele>
        <time>2022-06-26T12:00:32Z</time>
      </trkpt>
      <trkpt lat="45.79459" lon="4.45027">
        <ele>738.4</ele>
        <time>2022-06-26T12:00:33Z</time>
      </trkpt>
      <trkpt lat="45.79458" lon="4.45036">
        <ele>738.4</ele>
        <time>2022-06-26T12:00:34Z</time>
      </trkpt>
      <trkpt lat="45.79458" lon="4.4504">
        <ele>738.8</ele>
        <time>2022-06-26T12:00:35Z</time>
      </trkpt>
      <trkpt lat="45.79459" lon="4.45049">
        <ele>738.8</ele>
        <time>2022-06-26T12:00:36Z</time>
      </trkpt>
      <trkpt lat="45.79459" lon="4.45053">
        <ele>739</ele>
        <time>2022-06-26T12:00:37Z</time>
      </trkpt>
      <trkpt lat="45.7946" lon="4.45059">
        <ele>739</ele>
        <time>2022-06-26T12:00:38Z</time>
      </trkpt>
      <trkpt lat="45.79461" lon="4.45066">
        <ele>739</ele>
        <time>2022-06-26T12:00:39Z</time>
      </trkpt>
      <trkpt lat="45.79463" lon="4.45072">
        <ele>739.4</ele>
        <time>2022-06-26T12:00:40Z</time>
      </trkpt>
      <trkpt lat="45.79466" lon="4.45078">
        <ele>739.4</ele>
        <time>2022-06-26T12:00:41Z</time>
      </trkpt>
      <trkpt lat="45.79469" lon="4.45084">
        <ele>739.4</ele>
        <time>2022-06-26T12:00:42Z</time>
      </trkpt>
      <trkpt lat="45.79472" lon="4.4509">
        <ele>739.6</ele>
        <time>2022-06-26T12:00:43Z</time>
      </trkpt>
      <trkpt lat="45.79476" lon="4.45094">
        <ele>739.6</ele>
        <time>2022-06-26T12:00:44Z</time>
      </trkpt>
      <trkpt lat="45.7948" lon="4.45098">
        <ele>740</ele>
        <time>2022-06-26T12:00:45Z</time>
      </trkpt>
      <trkpt lat="45.79484" lon="4.45101">
        <ele>740</ele>
        <time>2022-06-26T12:00:46Z</time>
      </trkpt>
      <trkpt lat="45.79489" lon="4.45104">
        <ele>740</ele>
        <time>2022-06-26T12:00:47Z</time>
      </trkpt>
      <trkpt lat="45.79494" lon="4.45106">
        <ele>740.2</ele>
        <time>2022-06-26T12:00:48Z</time>
      </trkpt>
      <trkpt lat="45.79499" lon="4.45107">
        <ele>740.2</ele>
        <time>2022-06-26T12:00:49Z</time>
      </trkpt>
      <trkpt lat="45.79504" lon="4.45108">
        <ele>740.2</ele>
        <time>2022-06-26T12:00:50Z</time>
      </trkpt>
      <trkpt lat="45.79509" lon="4.45107">
        <ele>740.4</ele>
        <time>2022-06-26T12:00:51Z</time>
      </trkpt>
      <trkpt lat="45.79514" lon="4.45106">
        <ele>740.4</ele>
        <time>2022-06-26T12:00:52Z</time>
      </trkpt>
      <trkpt lat="45.79519" lon="4.45105">
        <ele>740.4</ele>
        <time>2022-06-26T12:00:53Z</time>
      </trkpt>
      <trkpt lat="45.79524" lon="4.45103">
        <ele>740.6</ele>
        <time>2022-06-26T12:00:54Z</time>
      </trkpt>
      <trkpt lat="45.7953" lon="4.45101">
        <ele>740.6</ele>
        <time>2022-06-26T12:00:55Z</time>
      </trkpt>
      <trkpt lat="45.79535" lon="4.45099">
        <ele>740.6</ele>
        <time>2022-06-26T12:00:56Z</time>
      </trkpt>
      <trkpt lat="45.79541" lon="4.45096">
        <ele>740.6</ele>
        <time>2022-06-26T12:00:57Z</time>
      </trkpt>
      <trkpt lat="45.79546" lon="4.45092">
        <ele>740.6</ele>
        <time>2022-06-26T12:00:58Z</time>
      </trkpt>
      <trkpt lat="45.79552" lon="4.45088">
        <ele>740.4</ele>
        <time>2022-06-26T12:00:59Z</time>
      </trkpt>
      <trkpt lat="45.79557" lon="4.45084">
        <ele>740.4</ele>
        <time>2022-06-26T12:01:00Z</time>
      </trkpt>
      <trkpt lat="45.79563" lon="4.45079">
        <ele>740.4</ele>
        <time>2022-06-26T12:01:01Z</time>
      </trkpt>
      <trkpt lat="45.79568" lon="4.45074">
        <ele>740.4</ele>
        <time>2022-06-26T12:01:02Z</time>
      </trkpt>
      <trkpt lat="45.79574" lon="4.45069">
        <ele>740</ele>
        <time>2022-06-26T12:01:03Z</time>
      </trkpt>
      <trkpt lat="45.7958" lon="4.45064">
        <ele>740</ele>
        <time>2022-06-26T12:01:04Z</time>
      </trkpt>
      <trkpt lat="45.79586" lon="4.45059">
        <ele>739.8</ele>
        <time>2022-06-26T12:01:05Z</time>
      </trkpt>
      <trkpt lat="45.79592" lon="4.45053">
        <ele>739.8</ele>
        <time>2022-06-26T12:01:06Z</time>
      </trkpt>
      <trkpt lat="45.79599" lon="4.45048">
        <ele>739.6</ele>
        <time>2022-06-26T12:01:07Z</time>
      </trkpt>
      <trkpt lat="45.79605" lon="4.45044">
        <ele>739.6</ele>
        <time>2022-06-26T12:01:08Z</time>
      </trkpt>
      <trkpt lat="45.79612" lon="4.4504">
        <ele>739.2</ele>
        <time>2022-06-26T12:01:09Z</time>
      </trkpt>
      <trkpt lat="45.79619" lon="4.45037">
        <ele>739.2</ele>
        <time>2022-06-26T12:01:10Z</time>
      </trkpt>
      <trkpt lat="45.79626" lon="4.45034">
        <ele>739</ele>
        <time>2022-06-26T12:01:11Z</time>
      </trkpt>
      <trkpt lat="45.79633" lon="4.45031">
        <ele>738.6</ele>
        <time>2022-06-26T12:01:12Z</time>
      </trkpt>
      <trkpt lat="45.79639" lon="4.45029">
        <ele>738.6</ele>
        <time>2022-06-26T12:01:13Z</time>
      </trkpt>
      <trkpt lat="45.79646" lon="4.45026">
        <ele>738.4</ele>
        <time>2022-06-26T12:01:14Z</time>
      </trkpt>
      <trkpt lat="45.79654" lon="4.45024">
        <ele>738.2</ele>
        <time>2022-06-26T12:01:15Z</time>
      </trkpt>
      <trkpt lat="45.79661" lon="4.45021">
        <ele>738.2</ele>
        <time>2022-06-26T12:01:16Z</time>
      </trkpt>
      <trkpt lat="45.79668" lon="4.4502">
        <ele>737.8</ele>
        <time>2022-06-26T12:01:17Z</time>
      </trkpt>
      <trkpt lat="45.79675" lon="4.45018">
        <ele>737.8</ele>
        <time>2022-06-26T12:01:18Z</time>
      </trkpt>
      <trkpt lat="45.79683" lon="4.45018">
        <ele>737.4</ele>
        <time>2022-06-26T12:01:19Z</time>
      </trkpt>
      <trkpt lat="45.7969" lon="4.45018">
        <ele>737.2</ele>
        <time>2022-06-26T12:01:20Z</time>
      </trkpt>
      <trkpt lat="45.79698" lon="4.4502">
        <ele>737</ele>
        <time>2022-06-26T12:01:21Z</time>
      </trkpt>
      <trkpt lat="45.79706" lon="4.45023">
        <ele>737</ele>
        <time>2022-06-26T12:01:22Z</time>
      </trkpt>
      <trkpt lat="45.79714" lon="4.45026">
        <ele>736.6</ele>
        <time>2022-06-26T12:01:23Z</time>
      </trkpt>
      <trkpt lat="45.79721" lon="4.4503">
        <ele>736.6</ele>
        <time>2022-06-26T12:01:24Z</time>
      </trkpt>
      <trkpt lat="45.79728" lon="4.45033">
        <ele>736.4</ele>
        <time>2022-06-26T12:01:25Z</time>
      </trkpt>
      <trkpt lat="45.79735" lon="4.45038">
        <ele>736.4</ele>
        <time>2022-06-26T12:01:26Z</time>
      </trkpt>
      <trkpt lat="45.79741" lon="4.45042">
        <ele>736.4</ele>
        <time>2022-06-26T12:01:27Z</time>
      </trkpt>
      <trkpt lat="45.79747" lon="4.45046">
        <ele>736.4</ele>
        <time>2022-06-26T12:01:28Z</time>
      </trkpt>
      <trkpt lat="45.79753" lon="4.4505">
        <ele>736.4</ele>
        <time>2022-06-26T12:01:29Z</time>
      </trkpt>
      <trkpt lat="45.7976" lon="4.45054">
        <ele>736.4</ele>
        <time>2022-06-26T12:01:30Z</time>
      </trkpt>
      <trkpt lat="45.79766" lon="4.45058">
        <ele>736.4</ele>
        <time>2022-06-26T12:01:31Z</time>
      </trkpt>
      <trkpt lat="45.79773" lon="4.45062">
        <ele>736.4</ele>
        <time>2022-06-26T12:01:32Z</time>
      </trkpt>
      <trkpt lat="45.7978" lon="4.45066">
        <ele>736.2</ele>
        <time>2022-06-26T12:01:33Z</time>
      </trkpt>
      <trkpt lat="45.79787" lon="4.4507">
        <ele>736</ele>
        <time>2022-06-26T12:01:34Z</time>
      </trkpt>
      <trkpt lat="45.79794" lon="4.45074">
        <ele>736</ele>
        <time>2022-06-26T12:01:35Z</time>
      </trkpt>
      <trkpt lat="45.79801" lon="4.45079">
        <ele>735.8</ele>
        <time>2022-06-26T12:01:36Z</time>
      </trkpt>
      <trkpt lat="45.79809" lon="4.45083">
        <ele>735.4</ele>
        <time>2022-06-26T12:01:37Z</time>
      </trkpt>
      <trkpt lat="45.79816" lon="4.45088">
        <ele>735.2</ele>
        <time>2022-06-26T12:01:38Z</time>
      </trkpt>
      <trkpt lat="45.79823" lon="4.45093">
        <ele>735.2</ele>
        <time>2022-06-26T12:01:39Z</time>
      </trkpt>
      <trkpt lat="45.7983" lon="4.45099">
        <ele>734.8</ele>
        <time>2022-06-26T12:01:40Z</time>
      </trkpt>
      <trkpt lat="45.79836" lon="4.45105">
        <ele>734.4</ele>
        <time>2022-06-26T12:01:41Z</time>
      </trkpt>
      <trkpt lat="45.79842" lon="4.45113">
        <ele>734.4</ele>
        <time>2022-06-26T12:01:42Z</time>
      </trkpt>
      <trkpt lat="45.79848" lon="4.45122">
        <ele>734.2</ele>
        <time>2022-06-26T12:01:43Z</time>
      </trkpt>
      <trkpt lat="45.79853" lon="4.45131">
        <ele>734.2</ele>
        <time>2022-06-26T12:01:44Z</time>
      </trkpt>
      <trkpt lat="45.79857" lon="4.45141">
        <ele>734.2</ele>
        <time>2022-06-26T12:01:45Z</time>
      </trkpt>
      <trkpt lat="45.79862" lon="4.4515">
        <ele>733.8</ele>
        <time>2022-06-26T12:01:46Z</time>
      </trkpt>
      <trkpt lat="45.79867" lon="4.45159">
        <ele>733.8</ele>
        <time>2022-06-26T12:01:47Z</time>
      </trkpt>
      <trkpt lat="45.79871" lon="4.45168">
        <ele>733.4</ele>
        <time>2022-06-26T12:01:48Z</time>
      </trkpt>
      <trkpt lat="45.79875" lon="4.45178">
        <ele>733.4</ele>
        <time>2022-06-26T12:01:49Z</time>
      </trkpt>
      <trkpt lat="45.79879" lon="4.45187">
        <ele>733</ele>
        <time>2022-06-26T12:01:50Z</time>
      </trkpt>
      <trkpt lat="45.79883" lon="4.45197">
        <ele>732.8</ele>
        <time>2022-06-26T12:01:51Z</time>
      </trkpt>
      <trkpt lat="45.79886" lon="4.45207">
        <ele>732.4</ele>
        <time>2022-06-26T12:01:52Z</time>
      </trkpt>
      <trkpt lat="45.79889" lon="4.45218">
        <ele>732</ele>
        <time>2022-06-26T12:01:53Z</time>
      </trkpt>
      <trkpt lat="45.79891" lon="4.4523">
        <ele>731.6</ele>
        <time>2022-06-26T12:01:54Z</time>
      </trkpt>
      <trkpt lat="45.79893" lon="4.45242">
        <ele>731.2</ele>
        <time>2022-06-26T12:01:55Z</time>
      </trkpt>
      <trkpt lat="45.79894" lon="4.45254">
        <ele>730.8</ele>
        <time>2022-06-26T12:01:56Z</time>
      </trkpt>
      <trkpt lat="45.79895" lon="4.45267">
        <ele>730.6</ele>
        <time>2022-06-26T12:01:57Z</time>
      </trkpt>
      <trkpt lat="45.79896" lon="4.45282">
        <ele>730.6</ele>
        <time>2022-06-26T12:01:58Z</time>
      </trkpt>
      <trkpt lat="45.79897" lon="4.45297">
        <ele>730</ele>
        <time>2022-06-26T12:01:59Z</time>
      </trkpt>
      <trkpt lat="45.79898" lon="4.45311">
        <ele>729.4</ele>
        <time>2022-06-26T12:02:00Z</time>
      </trkpt>
      <trkpt lat="45.79898" lon="4.45325">
        <ele>729.2</ele>
        <time>2022-06-26T12:02:01Z</time>
      </trkpt>
      <trkpt lat="45.799" lon="4.4534">
        <ele>729.2</ele>
        <time>2022-06-26T12:02:02Z</time>
      </trkpt>
      <trkpt lat="45.799" lon="4.45354">
        <ele>729</ele>
        <time>2022-06-26T12:02:03Z</time>
      </trkpt>
      <trkpt lat="45.79901" lon="4.45368">
        <ele>728.6</ele>
        <time>2022-06-26T12:02:04Z</time>
      </trkpt>
      <trkpt lat="45.79902" lon="4.45382">
        <ele>728.2</ele>
        <time>2022-06-26T12:02:05Z</time>
      </trkpt>
      <trkpt lat="45.79903" lon="4.45397">
        <ele>728</ele>
        <time>2022-06-26T12:02:06Z</time>
      </trkpt>
      <trkpt lat="45.79904" lon="4.45411">
        <ele>727.4</ele>
        <time>2022-06-26T12:02:07Z</time>
      </trkpt>
      <trkpt lat="45.79905" lon="4.45426">
        <ele>727</ele>
        <time>2022-06-26T12:02:08Z</time>
      </trkpt>
      <trkpt lat="45.79905" lon="4.45439">
        <ele>726.8</ele>
        <time>2022-06-26T12:02:09Z</time>
      </trkpt>
      <trkpt lat="45.79905" lon="4.45454">
        <ele>726.4</ele>
        <time>2022-06-26T12:02:10Z</time>
      </trkpt>
      <trkpt lat="45.79906" lon="4.45469">
        <ele>725.8</ele>
        <time>2022-06-26T12:02:11Z</time>
      </trkpt>
      <trkpt lat="45.79907" lon="4.45484">
        <ele>725.8</ele>
        <time>2022-06-26T12:02:12Z</time>
      </trkpt>
      <trkpt lat="45.79908" lon="4.45498">
        <ele>725.2</ele>
        <time>2022-06-26T12:02:13Z</time>
      </trkpt>
      <trkpt lat="45.79908" lon="4.45513">
        <ele>724.8</ele>
        <time>2022-06-26T12:02:14Z</time>
      </trkpt>
      <trkpt lat="45.7991" lon="4.45528">
        <ele>724.2</ele>
        <time>2022-06-26T12:02:15Z</time>
      </trkpt>
      <trkpt lat="45.79911" lon="4.45543">
        <ele>723.6</ele>
        <time>2022-06-26T12:02:16Z</time>
      </trkpt>
      <trkpt lat="45.79912" lon="4.45558">
        <ele>722.8</ele>
        <time>2022-06-26T12:02:17Z</time>
      </trkpt>
      <trkpt lat="45.79913" lon="4.45574">
        <ele>721.8</ele>
        <time>2022-06-26T12:02:18Z</time>
      </trkpt>
      <trkpt lat="45.79913" lon="4.45589">
        <ele>721.2</ele>
        <time>2022-06-26T12:02:19Z</time>
      </trkpt>
      <trkpt lat="45.79914" lon="4.45605">
        <ele>720.6</ele>
        <time>2022-06-26T12:02:20Z</time>
      </trkpt>
      <trkpt lat="45.79914" lon="4.45621">
        <ele>720</ele>
        <time>2022-06-26T12:02:21Z</time>
      </trkpt>
      <trkpt lat="45.79912" lon="4.45636">
        <ele>719.6</ele>
        <time>2022-06-26T12:02:22Z</time>
      </trkpt>
      <trkpt lat="45.79911" lon="4.45653">
        <ele>719</ele>
        <time>2022-06-26T12:02:23Z</time>
      </trkpt>
      <trkpt lat="45.7991" lon="4.45669">
        <ele>718.6</ele>
        <time>2022-06-26T12:02:24Z</time>
      </trkpt>
      <trkpt lat="45.79907" lon="4.45683">
        <ele>718</ele>
        <time>2022-06-26T12:02:25Z</time>
      </trkpt>
      <trkpt lat="45.79903" lon="4.45699">
        <ele>717.2</ele>
        <time>2022-06-26T12:02:26Z</time>
      </trkpt>
      <trkpt lat="45.799" lon="4.45712">
        <ele>716.6</ele>
        <time>2022-06-26T12:02:27Z</time>
      </trkpt>
      <trkpt lat="45.79896" lon="4.45726">
        <ele>716.6</ele>
        <time>2022-06-26T12:02:28Z</time>
      </trkpt>
      <trkpt lat="45.7989" lon="4.4574">
        <ele>716</ele>
        <time>2022-06-26T12:02:29Z</time>
      </trkpt>
      <trkpt lat="45.79886" lon="4.45753">
        <ele>715.2</ele>
        <time>2022-06-26T12:02:30Z</time>
      </trkpt>
      <trkpt lat="45.79881" lon="4.45767">
        <ele>714.6</ele>
        <time>2022-06-26T12:02:31Z</time>
      </trkpt>
      <trkpt lat="45.79876" lon="4.45781">
        <ele>714.2</ele>
        <time>2022-06-26T12:02:32Z</time>
      </trkpt>
      <trkpt lat="45.79871" lon="4.45795">
        <ele>713.6</ele>
        <time>2022-06-26T12:02:33Z</time>
      </trkpt>
      <trkpt lat="45.79866" lon="4.45809">
        <ele>713.4</ele>
        <time>2022-06-26T12:02:34Z</time>
      </trkpt>
      <trkpt lat="45.79862" lon="4.45823">
        <ele>712.8</ele>
        <time>2022-06-26T12:02:35Z</time>
      </trkpt>
      <trkpt lat="45.79856" lon="4.45837">
        <ele>712</ele>
        <time>2022-06-26T12:02:36Z</time>
      </trkpt>
      <trkpt lat="45.7985" lon="4.45851">
        <ele>711.4</ele>
        <time>2022-06-26T12:02:37Z</time>
      </trkpt>
      <trkpt lat="45.79841" lon="4.45863">
        <ele>711.2</ele>
        <time>2022-06-26T12:02:38Z</time>
      </trkpt>
      <trkpt lat="45.79832" lon="4.45872">
        <ele>710.4</ele>
        <time>2022-06-26T12:02:39Z</time>
      </trkpt>
      <trkpt lat="45.79822" lon="4.4588">
        <ele>709.8</ele>
        <time>2022-06-26T12:02:40Z</time>
      </trkpt>
      <trkpt lat="45.79811" lon="4.45887">
        <ele>709.4</ele>
        <time>2022-06-26T12:02:41Z</time>
      </trkpt>
      <trkpt lat="45.798" lon="4.4589">
        <ele>709</ele>
        <time>2022-06-26T12:02:42Z</time>
      </trkpt>
      <trkpt lat="45.79788" lon="4.4589">
        <ele>708.4</ele>
        <time>2022-06-26T12:02:43Z</time>
      </trkpt>
      <trkpt lat="45.79777" lon="4.45887">
        <ele>707.8</ele>
        <time>2022-06-26T12:02:44Z</time>
      </trkpt>
      <trkpt lat="45.79765" lon="4.45883">
        <ele>706.8</ele>
        <time>2022-06-26T12:02:45Z</time>
      </trkpt>
      <trkpt lat="45.79754" lon="4.4588">
        <ele>706</ele>
        <time>2022-06-26T12:02:46Z</time>
      </trkpt>
      <trkpt lat="45.79742" lon="4.45875">
        <ele>705.2</ele>
        <time>2022-06-26T12:02:47Z</time>
      </trkpt>
      <trkpt lat="45.79731" lon="4.45872">
        <ele>704.4</ele>
        <time>2022-06-26T12:02:48Z</time>
      </trkpt>
      <trkpt lat="45.7972" lon="4.45867">
        <ele>703.8</ele>
        <time>2022-06-26T12:02:49Z</time>
      </trkpt>
      <trkpt lat="45.79708" lon="4.45864">
        <ele>703.2</ele>
        <time>2022-06-26T12:02:50Z</time>
      </trkpt>
      <trkpt lat="45.79698" lon="4.45862">
        <ele>702.6</ele>
        <time>2022-06-26T12:02:51Z</time>
      </trkpt>
      <trkpt lat="45.79687" lon="4.4586">
        <ele>702.4</ele>
        <time>2022-06-26T12:02:52Z</time>
      </trkpt>
      <trkpt lat="45.79677" lon="4.4586">
        <ele>702</ele>
        <time>2022-06-26T12:02:53Z</time>
      </trkpt>
      <trkpt lat="45.79668" lon="4.45862">
        <ele>701.6</ele>
        <time>2022-06-26T12:02:54Z</time>
      </trkpt>
      <trkpt lat="45.79657" lon="4.45867">
        <ele>701</ele>
        <time>2022-06-26T12:02:55Z</time>
      </trkpt>
      <trkpt lat="45.79648" lon="4.45873">
        <ele>700.2</ele>
        <time>2022-06-26T12:02:56Z</time>
      </trkpt>
      <trkpt lat="45.79639" lon="4.4588">
        <ele>699.4</ele>
        <time>2022-06-26T12:02:57Z</time>
      </trkpt>
      <trkpt lat="45.79629" lon="4.45887">
        <ele>698.8</ele>
        <time>2022-06-26T12:02:58Z</time>
      </trkpt>
      <trkpt lat="45.79619" lon="4.45894">
        <ele>698</ele>
        <time>2022-06-26T12:02:59Z</time>
      </trkpt>
      <trkpt lat="45.79609" lon="4.45902">
        <ele>697.2</ele>
        <time>2022-06-26T12:03:00Z</time>
      </trkpt>
      <trkpt lat="45.79599" lon="4.45909">
        <ele>696.2</ele>
        <time>2022-06-26T12:03:02Z</time>
      </trkpt>
      <trkpt lat="45.79589" lon="4.45917">
        <ele>695.4</ele>
        <time>2022-06-26T12:03:03Z</time>
      </trkpt>
      <trkpt lat="45.7958" lon="4.45924">
        <ele>694.8</ele>
        <time>2022-06-26T12:03:04Z</time>
      </trkpt>
      <trkpt lat="45.79571" lon="4.45931">
        <ele>694</ele>
        <time>2022-06-26T12:03:05Z</time>
      </trkpt>
      <trkpt lat="45.79563" lon="4.45938">
        <ele>693.4</ele>
        <time>2022-06-26T12:03:06Z</time>
      </trkpt>
      <trkpt lat="45.79554" lon="4.45945">
        <ele>692.6</ele>
        <time>2022-06-26T12:03:07Z</time>
      </trkpt>
      <trkpt lat="45.79547" lon="4.45954">
        <ele>692</ele>
        <time>2022-06-26T12:03:08Z</time>
      </trkpt>
      <trkpt lat="45.79539" lon="4.45962">
        <ele>691.6</ele>
        <time>2022-06-26T12:03:09Z</time>
      </trkpt>
      <trkpt lat="45.79532" lon="4.45971">
        <ele>691</ele>
        <time>2022-06-26T12:03:10Z</time>
      </trkpt>
      <trkpt lat="45.79524" lon="4.45981">
        <ele>690.8</ele>
        <time>2022-06-26T12:03:11Z</time>
      </trkpt>
      <trkpt lat="45.79518" lon="4.45991">
        <ele>690.2</ele>
        <time>2022-06-26T12:03:12Z</time>
      </trkpt>
      <trkpt lat="45.79512" lon="4.46002">
        <ele>689.6</ele>
        <time>2022-06-26T12:03:13Z</time>
      </trkpt>
      <trkpt lat="45.79507" lon="4.46013">
        <ele>689.6</ele>
        <time>2022-06-26T12:03:14Z</time>
      </trkpt>
      <trkpt lat="45.79504" lon="4.46026">
        <ele>688.8</ele>
        <time>2022-06-26T12:03:15Z</time>
      </trkpt>
      <trkpt lat="45.795" lon="4.46039">
        <ele>688.4</ele>
        <time>2022-06-26T12:03:16Z</time>
      </trkpt>
      <trkpt lat="45.79497" lon="4.46053">
        <ele>688</ele>
        <time>2022-06-26T12:03:17Z</time>
      </trkpt>
      <trkpt lat="45.79495" lon="4.46066">
        <ele>687.4</ele>
        <time>2022-06-26T12:03:18Z</time>
      </trkpt>
      <trkpt lat="45.79492" lon="4.46081">
        <ele>687</ele>
        <time>2022-06-26T12:03:19Z</time>
      </trkpt>
      <trkpt lat="45.79486" lon="4.46108">
        <ele>686.4</ele>
        <time>2022-06-26T12:03:20Z</time>
      </trkpt>
      <trkpt lat="45.79483" lon="4.46122">
        <ele>685.6</ele>
        <time>2022-06-26T12:03:21Z</time>
      </trkpt>
      <trkpt lat="45.7948" lon="4.46137">
        <ele>685</ele>
        <time>2022-06-26T12:03:22Z</time>
      </trkpt>
      <trkpt lat="45.79476" lon="4.46152">
        <ele>684.2</ele>
        <time>2022-06-26T12:03:23Z</time>
      </trkpt>
      <trkpt lat="45.79472" lon="4.46166">
        <ele>683.8</ele>
        <time>2022-06-26T12:03:24Z</time>
      </trkpt>
      <trkpt lat="45.79468" lon="4.46181">
        <ele>683.8</ele>
        <time>2022-06-26T12:03:25Z</time>
      </trkpt>
      <trkpt lat="45.79464" lon="4.46196">
        <ele>683.2</ele>
        <time>2022-06-26T12:03:26Z</time>
      </trkpt>
      <trkpt lat="45.79461" lon="4.46211">
        <ele>682.6</ele>
        <time>2022-06-26T12:03:27Z</time>
      </trkpt>
      <trkpt lat="45.79458" lon="4.46227">
        <ele>682.2</ele>
        <time>2022-06-26T12:03:28Z</time>
      </trkpt>
      <trkpt lat="45.79454" lon="4.46242">
        <ele>681.4</ele>
        <time>2022-06-26T12:03:29Z</time>
      </trkpt>
      <trkpt lat="45.7945" lon="4.46257">
        <ele>681</ele>
        <time>2022-06-26T12:03:30Z</time>
      </trkpt>
      <trkpt lat="45.79447" lon="4.46273">
        <ele>680.4</ele>
        <time>2022-06-26T12:03:31Z</time>
      </trkpt>
      <trkpt lat="45.79444" lon="4.46287">
        <ele>679.8</ele>
        <time>2022-06-26T12:03:32Z</time>
      </trkpt>
      <trkpt lat="45.7944" lon="4.46301">
        <ele>679.4</ele>
        <time>2022-06-26T12:03:33Z</time>
      </trkpt>
      <trkpt lat="45.79437" lon="4.46315">
        <ele>678.6</ele>
        <time>2022-06-26T12:03:34Z</time>
      </trkpt>
      <trkpt lat="45.79433" lon="4.46328">
        <ele>678.2</ele>
        <time>2022-06-26T12:03:35Z</time>
      </trkpt>
      <trkpt lat="45.79428" lon="4.46341">
        <ele>677.8</ele>
        <time>2022-06-26T12:03:36Z</time>
      </trkpt>
      <trkpt lat="45.79424" lon="4.46353">
        <ele>677.4</ele>
        <time>2022-06-26T12:03:37Z</time>
      </trkpt>
      <trkpt lat="45.79419" lon="4.46364">
        <ele>677</ele>
        <time>2022-06-26T12:03:38Z</time>
      </trkpt>
      <trkpt lat="45.79414" lon="4.46375">
        <ele>676.6</ele>
        <time>2022-06-26T12:03:39Z</time>
      </trkpt>
      <trkpt lat="45.7941" lon="4.46384">
        <ele>676.4</ele>
        <time>2022-06-26T12:03:40Z</time>
      </trkpt>
      <trkpt lat="45.79405" lon="4.46392">
        <ele>676</ele>
        <time>2022-06-26T12:03:41Z</time>
      </trkpt>
      <trkpt lat="45.79401" lon="4.46399">
        <ele>675.6</ele>
        <time>2022-06-26T12:03:42Z</time>
      </trkpt>
      <trkpt lat="45.79397" lon="4.46404">
        <ele>675.2</ele>
        <time>2022-06-26T12:03:43Z</time>
      </trkpt>
      <trkpt lat="45.79394" lon="4.46408">
        <ele>675</ele>
        <time>2022-06-26T12:03:44Z</time>
      </trkpt>
      <trkpt lat="45.79392" lon="4.46411">
        <ele>674.8</ele>
        <time>2022-06-26T12:03:45Z</time>
      </trkpt>
      <trkpt lat="45.7939" lon="4.46413">
        <ele>674.6</ele>
        <time>2022-06-26T12:03:46Z</time>
      </trkpt>
      <trkpt lat="45.79389" lon="4.46416">
        <ele>674.6</ele>
        <time>2022-06-26T12:03:47Z</time>
      </trkpt>
      <trkpt lat="45.79387" lon="4.46417">
        <ele>673.8</ele>
        <time>2022-06-26T12:04:37Z</time>
      </trkpt>
      <trkpt lat="45.79386" lon="4.46419">
        <ele>674</ele>
        <time>2022-06-26T12:04:38Z</time>
      </trkpt>
      <trkpt lat="45.79385" lon="4.46421">
        <ele>674</ele>
        <time>2022-06-26T12:04:39Z</time>
      </trkpt>
      <trkpt lat="45.79383" lon="4.46424">
        <ele>674</ele>
        <time>2022-06-26T12:04:40Z</time>
      </trkpt>
      <trkpt lat="45.79381" lon="4.46426">
        <ele>674</ele>
        <time>2022-06-26T12:04:41Z</time>
      </trkpt>
      <trkpt lat="45.79379" lon="4.46429">
        <ele>674</ele>
        <time>2022-06-26T12:04:42Z</time>
      </trkpt>
      <trkpt lat="45.79377" lon="4.46433">
        <ele>674</ele>
        <time>2022-06-26T12:04:43Z</time>
      </trkpt>
      <trkpt lat="45.79374" lon="4.46436">
        <ele>674</ele>
        <time>2022-06-26T12:04:44Z</time>
      </trkpt>
      <trkpt lat="45.79372" lon="4.46439">
        <ele>674</ele>
        <time>2022-06-26T12:04:45Z</time>
      </trkpt>
      <trkpt lat="45.7937" lon="4.46443">
        <ele>674</ele>
        <time>2022-06-26T12:04:46Z</time>
      </trkpt>
      <trkpt lat="45.79367" lon="4.46446">
        <ele>674</ele>
        <time>2022-06-26T12:04:47Z</time>
      </trkpt>
      <trkpt lat="45.79365" lon="4.46449">
        <ele>674</ele>
        <time>2022-06-26T12:04:48Z</time>
      </trkpt>
      <trkpt lat="45.79362" lon="4.46452">
        <ele>674</ele>
        <time>2022-06-26T12:04:49Z</time>
      </trkpt>
      <trkpt lat="45.79359" lon="4.46456">
        <ele>674</ele>
        <time>2022-06-26T12:04:50Z</time>
      </trkpt>
      <trkpt lat="45.79356" lon="4.4646">
        <ele>674</ele>
        <time>2022-06-26T12:04:51Z</time>
      </trkpt>
      <trkpt lat="45.79352" lon="4.46464">
        <ele>674</ele>
        <time>2022-06-26T12:04:52Z</time>
      </trkpt>
      <trkpt lat="45.79349" lon="4.46467">
        <ele>674</ele>
        <time>2022-06-26T12:04:53Z</time>
      </trkpt>
      <trkpt lat="45.79345" lon="4.46471">
        <ele>674</ele>
        <time>2022-06-26T12:04:54Z</time>
      </trkpt>
      <trkpt lat="45.79341" lon="4.46475">
        <ele>674</ele>
        <time>2022-06-26T12:04:55Z</time>
      </trkpt>
      <trkpt lat="45.79338" lon="4.46479">
        <ele>673.8</ele>
        <time>2022-06-26T12:04:56Z</time>
      </trkpt>
      <trkpt lat="45.79334" lon="4.46483">
        <ele>673.8</ele>
        <time>2022-06-26T12:04:57Z</time>
      </trkpt>
      <trkpt lat="45.7933" lon="4.46487">
        <ele>673.8</ele>
        <time>2022-06-26T12:04:58Z</time>
      </trkpt>
      <trkpt lat="45.79326" lon="4.46491">
        <ele>673.4</ele>
        <time>2022-06-26T12:04:59Z</time>
      </trkpt>
      <trkpt lat="45.79322" lon="4.46495">
        <ele>673.4</ele>
        <time>2022-06-26T12:05:00Z</time>
      </trkpt>
      <trkpt lat="45.79318" lon="4.46499">
        <ele>673.4</ele>
        <time>2022-06-26T12:05:01Z</time>
      </trkpt>
      <trkpt lat="45.79314" lon="4.46503">
        <ele>673.4</ele>
        <time>2022-06-26T12:05:02Z</time>
      </trkpt>
      <trkpt lat="45.7931" lon="4.46507">
        <ele>673.2</ele>
        <time>2022-06-26T12:05:03Z</time>
      </trkpt>
      <trkpt lat="45.79305" lon="4.46511">
        <ele>673.2</ele>
        <time>2022-06-26T12:05:04Z</time>
      </trkpt>
      <trkpt lat="45.79301" lon="4.46515">
        <ele>673.2</ele>
        <time>2022-06-26T12:05:05Z</time>
      </trkpt>
      <trkpt lat="45.79297" lon="4.46519">
        <ele>672.8</ele>
        <time>2022-06-26T12:05:06Z</time>
      </trkpt>
      <trkpt lat="45.79292" lon="4.46523">
        <ele>672.8</ele>
        <time>2022-06-26T12:05:07Z</time>
      </trkpt>
      <trkpt lat="45.79288" lon="4.46527">
        <ele>672.8</ele>
        <time>2022-06-26T12:05:08Z</time>
      </trkpt>
      <trkpt lat="45.79283" lon="4.46531">
        <ele>672.6</ele>
        <time>2022-06-26T12:05:09Z</time>
      </trkpt>
      <trkpt lat="45.79278" lon="4.46535">
        <ele>672.6</ele>
        <time>2022-06-26T12:05:10Z</time>
      </trkpt>
      <trkpt lat="45.79274" lon="4.46539">
        <ele>672.6</ele>
        <time>2022-06-26T12:05:11Z</time>
      </trkpt>
      <trkpt lat="45.79269" lon="4.46543">
        <ele>672.4</ele>
        <time>2022-06-26T12:05:12Z</time>
      </trkpt>
      <trkpt lat="45.79265" lon="4.46547">
        <ele>672.4</ele>
        <time>2022-06-26T12:05:13Z</time>
      </trkpt>
      <trkpt lat="45.7926" lon="4.46551">
        <ele>672.2</ele>
        <time>2022-06-26T12:05:14Z</time>
      </trkpt>
      <trkpt lat="45.79255" lon="4.46555">
        <ele>672.2</ele>
        <time>2022-06-26T12:05:15Z</time>
      </trkpt>
      <trkpt lat="45.79249" lon="4.4656">
        <ele>671.8</ele>
        <time>2022-06-26T12:05:16Z</time>
      </trkpt>
      <trkpt lat="45.79244" lon="4.46564">
        <ele>671.8</ele>
        <time>2022-06-26T12:05:17Z</time>
      </trkpt>
      <trkpt lat="45.79239" lon="4.46568">
        <ele>671.8</ele>
        <time>2022-06-26T12:05:18Z</time>
      </trkpt>
      <trkpt lat="45.79233" lon="4.46571">
        <ele>671.8</ele>
        <time>2022-06-26T12:05:19Z</time>
      </trkpt>
      <trkpt lat="45.79228" lon="4.46574">
        <ele>671.8</ele>
        <time>2022-06-26T12:05:20Z</time>
      </trkpt>
      <trkpt lat="45.79222" lon="4.46576">
        <ele>671.6</ele>
        <time>2022-06-26T12:05:21Z</time>
      </trkpt>
      <trkpt lat="45.79217" lon="4.46577">
        <ele>671.6</ele>
        <time>2022-06-26T12:05:22Z</time>
      </trkpt>
      <trkpt lat="45.79211" lon="4.46578">
        <ele>671.4</ele>
        <time>2022-06-26T12:05:23Z</time>
      </trkpt>
      <trkpt lat="45.79206" lon="4.46578">
        <ele>671.4</ele>
        <time>2022-06-26T12:05:24Z</time>
      </trkpt>
      <trkpt lat="45.792" lon="4.46577">
        <ele>671.4</ele>
        <time>2022-06-26T12:05:25Z</time>
      </trkpt>
      <trkpt lat="45.79195" lon="4.46577">
        <ele>671.4</ele>
        <time>2022-06-26T12:05:26Z</time>
      </trkpt>
      <trkpt lat="45.7919" lon="4.46576">
        <ele>671.4</ele>
        <time>2022-06-26T12:05:27Z</time>
      </trkpt>
      <trkpt lat="45.79184" lon="4.46575">
        <ele>671.4</ele>
        <time>2022-06-26T12:05:28Z</time>
      </trkpt>
      <trkpt lat="45.79179" lon="4.46574">
        <ele>671.4</ele>
        <time>2022-06-26T12:05:29Z</time>
      </trkpt>
      <trkpt lat="45.79173" lon="4.46574">
        <ele>671.4</ele>
        <time>2022-06-26T12:05:30Z</time>
      </trkpt>
      <trkpt lat="45.79168" lon="4.46573">
        <ele>671.6</ele>
        <time>2022-06-26T12:05:31Z</time>
      </trkpt>
      <trkpt lat="45.79163" lon="4.46573">
        <ele>671.6</ele>
        <time>2022-06-26T12:05:32Z</time>
      </trkpt>
      <trkpt lat="45.79157" lon="4.46572">
        <ele>671.6</ele>
        <time>2022-06-26T12:05:33Z</time>
      </trkpt>
      <trkpt lat="45.79152" lon="4.46571">
        <ele>671.6</ele>
        <time>2022-06-26T12:05:34Z</time>
      </trkpt>
      <trkpt lat="45.79147" lon="4.46571">
        <ele>671.6</ele>
        <time>2022-06-26T12:05:35Z</time>
      </trkpt>
      <trkpt lat="45.79142" lon="4.4657">
        <ele>671.6</ele>
        <time>2022-06-26T12:05:36Z</time>
      </trkpt>
      <trkpt lat="45.79137" lon="4.46569">
        <ele>672</ele>
        <time>2022-06-26T12:05:37Z</time>
      </trkpt>
      <trkpt lat="45.79132" lon="4.46569">
        <ele>672.2</ele>
        <time>2022-06-26T12:05:38Z</time>
      </trkpt>
      <trkpt lat="45.79127" lon="4.46568">
        <ele>672.2</ele>
        <time>2022-06-26T12:05:39Z</time>
      </trkpt>
      <trkpt lat="45.79123" lon="4.46568">
        <ele>672.2</ele>
        <time>2022-06-26T12:05:40Z</time>
      </trkpt>
      <trkpt lat="45.79118" lon="4.46568">
        <ele>672.2</ele>
        <time>2022-06-26T12:05:41Z</time>
      </trkpt>
      <trkpt lat="45.79114" lon="4.46567">
        <ele>672.4</ele>
        <time>2022-06-26T12:05:42Z</time>
      </trkpt>
      <trkpt lat="45.79109" lon="4.46567">
        <ele>672.4</ele>
        <time>2022-06-26T12:05:43Z</time>
      </trkpt>
      <trkpt lat="45.79105" lon="4.46567">
        <ele>672.4</ele>
        <time>2022-06-26T12:05:44Z</time>
      </trkpt>
      <trkpt lat="45.79101" lon="4.46567">
        <ele>672.6</ele>
        <time>2022-06-26T12:05:45Z</time>
      </trkpt>
      <trkpt lat="45.79097" lon="4.46567">
        <ele>672.6</ele>
        <time>2022-06-26T12:05:46Z</time>
      </trkpt>
      <trkpt lat="45.79092" lon="4.46568">
        <ele>672.8</ele>
        <time>2022-06-26T12:05:47Z</time>
      </trkpt>
      <trkpt lat="45.79089" lon="4.46568">
        <ele>672.8</ele>
        <time>2022-06-26T12:05:48Z</time>
      </trkpt>
      <trkpt lat="45.79085" lon="4.46569">
        <ele>673.2</ele>
        <time>2022-06-26T12:05:49Z</time>
      </trkpt>
      <trkpt lat="45.79081" lon="4.4657">
        <ele>673.4</ele>
        <time>2022-06-26T12:05:50Z</time>
      </trkpt>
      <trkpt lat="45.79077" lon="4.46572">
        <ele>673.4</ele>
        <time>2022-06-26T12:05:51Z</time>
      </trkpt>
      <trkpt lat="45.79074" lon="4.46573">
        <ele>673.8</ele>
        <time>2022-06-26T12:05:52Z</time>
      </trkpt>
      <trkpt lat="45.79071" lon="4.46575">
        <ele>673.8</ele>
        <time>2022-06-26T12:05:53Z</time>
      </trkpt>
      <trkpt lat="45.79068" lon="4.46577">
        <ele>674.2</ele>
        <time>2022-06-26T12:05:54Z</time>
      </trkpt>
      <trkpt lat="45.79066" lon="4.46579">
        <ele>674.2</ele>
        <time>2022-06-26T12:05:55Z</time>
      </trkpt>
      <trkpt lat="45.79063" lon="4.4658">
        <ele>674.6</ele>
        <time>2022-06-26T12:05:56Z</time>
      </trkpt>
      <trkpt lat="45.79061" lon="4.46582">
        <ele>674.6</ele>
        <time>2022-06-26T12:05:57Z</time>
      </trkpt>
      <trkpt lat="45.79058" lon="4.46584">
        <ele>675</ele>
        <time>2022-06-26T12:05:58Z</time>
      </trkpt>
      <trkpt lat="45.79055" lon="4.46586">
        <ele>675</ele>
        <time>2022-06-26T12:05:59Z</time>
      </trkpt>
      <trkpt lat="45.79053" lon="4.46589">
        <ele>675.4</ele>
        <time>2022-06-26T12:06:00Z</time>
      </trkpt>
      <trkpt lat="45.79051" lon="4.46591">
        <ele>675.4</ele>
        <time>2022-06-26T12:06:01Z</time>
      </trkpt>
      <trkpt lat="45.79048" lon="4.46593">
        <ele>675.6</ele>
        <time>2022-06-26T12:06:02Z</time>
      </trkpt>
      <trkpt lat="45.79046" lon="4.46596">
        <ele>675.6</ele>
        <time>2022-06-26T12:06:03Z</time>
      </trkpt>
      <trkpt lat="45.79044" lon="4.46598">
        <ele>676</ele>
        <time>2022-06-26T12:06:04Z</time>
      </trkpt>
      <trkpt lat="45.79041" lon="4.466">
        <ele>676</ele>
        <time>2022-06-26T12:06:05Z</time>
      </trkpt>
      <trkpt lat="45.79039" lon="4.46602">
        <ele>676.2</ele>
        <time>2022-06-26T12:06:06Z</time>
      </trkpt>
      <trkpt lat="45.79036" lon="4.46604">
        <ele>676.4</ele>
        <time>2022-06-26T12:06:07Z</time>
      </trkpt>
      <trkpt lat="45.79034" lon="4.46606">
        <ele>676.4</ele>
        <time>2022-06-26T12:06:08Z</time>
      </trkpt>
      <trkpt lat="45.79031" lon="4.46607">
        <ele>676.8</ele>
        <time>2022-06-26T12:06:09Z</time>
      </trkpt>
      <trkpt lat="45.79029" lon="4.46609">
        <ele>676.8</ele>
        <time>2022-06-26T12:06:10Z</time>
      </trkpt>
      <trkpt lat="45.79027" lon="4.46611">
        <ele>677</ele>
        <time>2022-06-26T12:06:11Z</time>
      </trkpt>
      <trkpt lat="45.79025" lon="4.46613">
        <ele>677</ele>
        <time>2022-06-26T12:06:12Z</time>
      </trkpt>
      <trkpt lat="45.79023" lon="4.46615">
        <ele>677.4</ele>
        <time>2022-06-26T12:06:13Z</time>
      </trkpt>
      <trkpt lat="45.79021" lon="4.46617">
        <ele>677.6</ele>
        <time>2022-06-26T12:06:14Z</time>
      </trkpt>
      <trkpt lat="45.79019" lon="4.46619">
        <ele>677.6</ele>
        <time>2022-06-26T12:06:15Z</time>
      </trkpt>
      <trkpt lat="45.79018" lon="4.46621">
        <ele>677.8</ele>
        <time>2022-06-26T12:06:16Z</time>
      </trkpt>
      <trkpt lat="45.79016" lon="4.46622">
        <ele>677.8</ele>
        <time>2022-06-26T12:06:17Z</time>
      </trkpt>
      <trkpt lat="45.79014" lon="4.46624">
        <ele>677.8</ele>
        <time>2022-06-26T12:06:18Z</time>
      </trkpt>
      <trkpt lat="45.79012" lon="4.46627">
        <ele>678.2</ele>
        <time>2022-06-26T12:06:19Z</time>
      </trkpt>
      <trkpt lat="45.79011" lon="4.4663">
        <ele>678.2</ele>
        <time>2022-06-26T12:06:20Z</time>
      </trkpt>
      <trkpt lat="45.7901" lon="4.46632">
        <ele>678.2</ele>
        <time>2022-06-26T12:06:21Z</time>
      </trkpt>
      <trkpt lat="45.79009" lon="4.46635">
        <ele>678.2</ele>
        <time>2022-06-26T12:06:22Z</time>
      </trkpt>
      <trkpt lat="45.79008" lon="4.46638">
        <ele>678.2</ele>
        <time>2022-06-26T12:06:23Z</time>
      </trkpt>
      <trkpt lat="45.79006" lon="4.4664">
        <ele>678.2</ele>
        <time>2022-06-26T12:06:24Z</time>
      </trkpt>
      <trkpt lat="45.79005" lon="4.46644">
        <ele>678.2</ele>
        <time>2022-06-26T12:06:25Z</time>
      </trkpt>
      <trkpt lat="45.79003" lon="4.46648">
        <ele>678.2</ele>
        <time>2022-06-26T12:06:26Z</time>
      </trkpt>
      <trkpt lat="45.79001" lon="4.46651">
        <ele>678</ele>
        <time>2022-06-26T12:06:27Z</time>
      </trkpt>
      <trkpt lat="45.78999" lon="4.46655">
        <ele>678</ele>
        <time>2022-06-26T12:06:28Z</time>
      </trkpt>
      <trkpt lat="45.78997" lon="4.46659">
        <ele>677.6</ele>
        <time>2022-06-26T12:06:29Z</time>
      </trkpt>
      <trkpt lat="45.78995" lon="4.46663">
        <ele>677.4</ele>
        <time>2022-06-26T12:06:30Z</time>
      </trkpt>
      <trkpt lat="45.78993" lon="4.46667">
        <ele>677.2</ele>
        <time>2022-06-26T12:06:31Z</time>
      </trkpt>
      <trkpt lat="45.78992" lon="4.46671">
        <ele>677.2</ele>
        <time>2022-06-26T12:06:32Z</time>
      </trkpt>
      <trkpt lat="45.78991" lon="4.46676">
        <ele>677</ele>
        <time>2022-06-26T12:06:33Z</time>
      </trkpt>
      <trkpt lat="45.78991" lon="4.46681">
        <ele>677</ele>
        <time>2022-06-26T12:06:34Z</time>
      </trkpt>
      <trkpt lat="45.78991" lon="4.46688">
        <ele>677</ele>
        <time>2022-06-26T12:06:35Z</time>
      </trkpt>
      <trkpt lat="45.78991" lon="4.46694">
        <ele>676.6</ele>
        <time>2022-06-26T12:06:36Z</time>
      </trkpt>
      <trkpt lat="45.78992" lon="4.46701">
        <ele>676.2</ele>
        <time>2022-06-26T12:06:37Z</time>
      </trkpt>
      <trkpt lat="45.78992" lon="4.46709">
        <ele>676</ele>
        <time>2022-06-26T12:06:38Z</time>
      </trkpt>
      <trkpt lat="45.78993" lon="4.46716">
        <ele>675.8</ele>
        <time>2022-06-26T12:06:39Z</time>
      </trkpt>
      <trkpt lat="45.78994" lon="4.46724">
        <ele>675.4</ele>
        <time>2022-06-26T12:06:40Z</time>
      </trkpt>
      <trkpt lat="45.78996" lon="4.46731">
        <ele>675.2</ele>
        <time>2022-06-26T12:06:41Z</time>
      </trkpt>
      <trkpt lat="45.78998" lon="4.46737">
        <ele>675</ele>
        <time>2022-06-26T12:06:42Z</time>
      </trkpt>
      <trkpt lat="45.79" lon="4.46743">
        <ele>674.8</ele>
        <time>2022-06-26T12:06:43Z</time>
      </trkpt>
      <trkpt lat="45.79001" lon="4.46749">
        <ele>674.4</ele>
        <time>2022-06-26T12:06:44Z</time>
      </trkpt>
      <trkpt lat="45.79003" lon="4.46754">
        <ele>674.2</ele>
        <time>2022-06-26T12:06:45Z</time>
      </trkpt>
      <trkpt lat="45.79005" lon="4.46757">
        <ele>674</ele>
        <time>2022-06-26T12:06:46Z</time>
      </trkpt>
      <trkpt lat="45.79006" lon="4.46761">
        <ele>674</ele>
        <time>2022-06-26T12:06:47Z</time>
      </trkpt>
      <trkpt lat="45.79007" lon="4.46763">
        <ele>673.6</ele>
        <time>2022-06-26T12:06:48Z</time>
      </trkpt>
      <trkpt lat="45.79008" lon="4.46766">
        <ele>673.6</ele>
        <time>2022-06-26T12:06:49Z</time>
      </trkpt>
      <trkpt lat="45.7901" lon="4.46769">
        <ele>673.4</ele>
        <time>2022-06-26T12:06:50Z</time>
      </trkpt>
      <trkpt lat="45.79012" lon="4.46772">
        <ele>673.4</ele>
        <time>2022-06-26T12:06:51Z</time>
      </trkpt>
      <trkpt lat="45.79014" lon="4.46776">
        <ele>673</ele>
        <time>2022-06-26T12:06:52Z</time>
      </trkpt>
      <trkpt lat="45.79015" lon="4.46781">
        <ele>672.8</ele>
        <time>2022-06-26T12:06:53Z</time>
      </trkpt>
      <trkpt lat="45.79016" lon="4.46787">
        <ele>672.6</ele>
        <time>2022-06-26T12:06:54Z</time>
      </trkpt>
      <trkpt lat="45.79016" lon="4.46794">
        <ele>672.2</ele>
        <time>2022-06-26T12:06:55Z</time>
      </trkpt>
      <trkpt lat="45.79014" lon="4.46801">
        <ele>672</ele>
        <time>2022-06-26T12:06:56Z</time>
      </trkpt>
      <trkpt lat="45.79011" lon="4.46809">
        <ele>671.4</ele>
        <time>2022-06-26T12:06:57Z</time>
      </trkpt>
      <trkpt lat="45.79007" lon="4.46817">
        <ele>671.2</ele>
        <time>2022-06-26T12:06:58Z</time>
      </trkpt>
      <trkpt lat="45.79002" lon="4.46824">
        <ele>670.6</ele>
        <time>2022-06-26T12:06:59Z</time>
      </trkpt>
      <trkpt lat="45.78997" lon="4.46831">
        <ele>670.2</ele>
        <time>2022-06-26T12:07:00Z</time>
      </trkpt>
      <trkpt lat="45.78992" lon="4.46837">
        <ele>669.6</ele>
        <time>2022-06-26T12:07:01Z</time>
      </trkpt>
      <trkpt lat="45.78988" lon="4.46842">
        <ele>669.2</ele>
        <time>2022-06-26T12:07:02Z</time>
      </trkpt>
      <trkpt lat="45.78985" lon="4.46846">
        <ele>668.8</ele>
        <time>2022-06-26T12:07:03Z</time>
      </trkpt>
      <trkpt lat="45.78982" lon="4.46849">
        <ele>668.4</ele>
        <time>2022-06-26T12:07:04Z</time>
      </trkpt>
      <trkpt lat="45.7898" lon="4.46851">
        <ele>668</ele>
        <time>2022-06-26T12:07:05Z</time>
      </trkpt>
      <trkpt lat="45.78978" lon="4.46853">
        <ele>668</ele>
        <time>2022-06-26T12:07:06Z</time>
      </trkpt>
      <trkpt lat="45.78977" lon="4.46855">
        <ele>667.8</ele>
        <time>2022-06-26T12:07:07Z</time>
      </trkpt>
      <trkpt lat="45.78976" lon="4.46859">
        <ele>667.4</ele>
        <time>2022-06-26T12:07:08Z</time>
      </trkpt>
      <trkpt lat="45.78974" lon="4.46863">
        <ele>667.2</ele>
        <time>2022-06-26T12:07:09Z</time>
      </trkpt>
      <trkpt lat="45.78972" lon="4.46867">
        <ele>667.2</ele>
        <time>2022-06-26T12:07:10Z</time>
      </trkpt>
      <trkpt lat="45.7897" lon="4.46871">
        <ele>667</ele>
        <time>2022-06-26T12:07:11Z</time>
      </trkpt>
      <trkpt lat="45.78966" lon="4.46876">
        <ele>666.8</ele>
        <time>2022-06-26T12:07:12Z</time>
      </trkpt>
      <trkpt lat="45.78963" lon="4.4688">
        <ele>666.6</ele>
        <time>2022-06-26T12:07:13Z</time>
      </trkpt>
      <trkpt lat="45.78959" lon="4.46885">
        <ele>666.6</ele>
        <time>2022-06-26T12:07:14Z</time>
      </trkpt>
      <trkpt lat="45.78955" lon="4.4689">
        <ele>666.2</ele>
        <time>2022-06-26T12:07:15Z</time>
      </trkpt>
      <trkpt lat="45.7895" lon="4.46895">
        <ele>666</ele>
        <time>2022-06-26T12:07:16Z</time>
      </trkpt>
      <trkpt lat="45.78946" lon="4.46901">
        <ele>665.6</ele>
        <time>2022-06-26T12:07:17Z</time>
      </trkpt>
      <trkpt lat="45.78941" lon="4.46908">
        <ele>665.2</ele>
        <time>2022-06-26T12:07:18Z</time>
      </trkpt>
      <trkpt lat="45.78936" lon="4.46914">
        <ele>665</ele>
        <time>2022-06-26T12:07:19Z</time>
      </trkpt>
      <trkpt lat="45.78931" lon="4.46922">
        <ele>664.8</ele>
        <time>2022-06-26T12:07:20Z</time>
      </trkpt>
      <trkpt lat="45.78926" lon="4.46929">
        <ele>664.4</ele>
        <time>2022-06-26T12:07:21Z</time>
      </trkpt>
      <trkpt lat="45.78921" lon="4.46937">
        <ele>664.2</ele>
        <time>2022-06-26T12:07:22Z</time>
      </trkpt>
      <trkpt lat="45.78916" lon="4.46945">
        <ele>663.8</ele>
        <time>2022-06-26T12:07:23Z</time>
      </trkpt>
      <trkpt lat="45.7891" lon="4.46953">
        <ele>663.4</ele>
        <time>2022-06-26T12:07:24Z</time>
      </trkpt>
      <trkpt lat="45.78905" lon="4.46961">
        <ele>663</ele>
        <time>2022-06-26T12:07:25Z</time>
      </trkpt>
      <trkpt lat="45.78899" lon="4.46969">
        <ele>662.6</ele>
        <time>2022-06-26T12:07:26Z</time>
      </trkpt>
      <trkpt lat="45.78893" lon="4.46977">
        <ele>662.2</ele>
        <time>2022-06-26T12:07:27Z</time>
      </trkpt>
      <trkpt lat="45.78887" lon="4.46986">
        <ele>661.8</ele>
        <time>2022-06-26T12:07:28Z</time>
      </trkpt>
      <trkpt lat="45.78881" lon="4.46994">
        <ele>661.4</ele>
        <time>2022-06-26T12:07:29Z</time>
      </trkpt>
      <trkpt lat="45.78875" lon="4.47003">
        <ele>661</ele>
        <time>2022-06-26T12:07:30Z</time>
      </trkpt>
      <trkpt lat="45.78869" lon="4.47012">
        <ele>660.6</ele>
        <time>2022-06-26T12:07:31Z</time>
      </trkpt>
      <trkpt lat="45.78863" lon="4.47021">
        <ele>660.2</ele>
        <time>2022-06-26T12:07:32Z</time>
      </trkpt>
      <trkpt lat="45.78858" lon="4.47031">
        <ele>659.8</ele>
        <time>2022-06-26T12:07:33Z</time>
      </trkpt>
      <trkpt lat="45.78852" lon="4.4704">
        <ele>659.4</ele>
        <time>2022-06-26T12:07:34Z</time>
      </trkpt>
      <trkpt lat="45.78847" lon="4.4705">
        <ele>659</ele>
        <time>2022-06-26T12:07:35Z</time>
      </trkpt>
      <trkpt lat="45.78841" lon="4.47059">
        <ele>658.6</ele>
        <time>2022-06-26T12:07:36Z</time>
      </trkpt>
      <trkpt lat="45.78836" lon="4.47069">
        <ele>658.2</ele>
        <time>2022-06-26T12:07:37Z</time>
      </trkpt>
      <trkpt lat="45.78831" lon="4.47079">
        <ele>657.8</ele>
        <time>2022-06-26T12:07:38Z</time>
      </trkpt>
      <trkpt lat="45.78825" lon="4.47089">
        <ele>657.4</ele>
        <time>2022-06-26T12:07:39Z</time>
      </trkpt>
      <trkpt lat="45.7882" lon="4.47099">
        <ele>657</ele>
        <time>2022-06-26T12:07:40Z</time>
      </trkpt>
      <trkpt lat="45.78815" lon="4.47109">
        <ele>656.6</ele>
        <time>2022-06-26T12:07:41Z</time>
      </trkpt>
      <trkpt lat="45.78809" lon="4.47119">
        <ele>656</ele>
        <time>2022-06-26T12:07:42Z</time>
      </trkpt>
      <trkpt lat="45.78803" lon="4.47128">
        <ele>655.4</ele>
        <time>2022-06-26T12:07:43Z</time>
      </trkpt>
      <trkpt lat="45.78798" lon="4.47137">
        <ele>655</ele>
        <time>2022-06-26T12:07:44Z</time>
      </trkpt>
      <trkpt lat="45.78791" lon="4.47145">
        <ele>654.6</ele>
        <time>2022-06-26T12:07:45Z</time>
      </trkpt>
      <trkpt lat="45.78785" lon="4.47153">
        <ele>654</ele>
        <time>2022-06-26T12:07:46Z</time>
      </trkpt>
      <trkpt lat="45.78778" lon="4.4716">
        <ele>653.6</ele>
        <time>2022-06-26T12:07:47Z</time>
      </trkpt>
      <trkpt lat="45.78771" lon="4.47166">
        <ele>653.6</ele>
        <time>2022-06-26T12:07:48Z</time>
      </trkpt>
      <trkpt lat="45.78763" lon="4.47171">
        <ele>653.2</ele>
        <time>2022-06-26T12:07:49Z</time>
      </trkpt>
      <trkpt lat="45.78754" lon="4.47175">
        <ele>652.6</ele>
        <time>2022-06-26T12:07:50Z</time>
      </trkpt>
      <trkpt lat="45.78744" lon="4.47179">
        <ele>652.2</ele>
        <time>2022-06-26T12:07:51Z</time>
      </trkpt>
      <trkpt lat="45.78734" lon="4.47182">
        <ele>651.6</ele>
        <time>2022-06-26T12:07:52Z</time>
      </trkpt>
      <trkpt lat="45.78723" lon="4.47185">
        <ele>651</ele>
        <time>2022-06-26T12:07:53Z</time>
      </trkpt>
      <trkpt lat="45.78713" lon="4.47186">
        <ele>650.4</ele>
        <time>2022-06-26T12:07:54Z</time>
      </trkpt>
      <trkpt lat="45.78703" lon="4.47188">
        <ele>649.8</ele>
        <time>2022-06-26T12:07:55Z</time>
      </trkpt>
      <trkpt lat="45.78693" lon="4.4719">
        <ele>649.4</ele>
        <time>2022-06-26T12:07:56Z</time>
      </trkpt>
      <trkpt lat="45.78683" lon="4.47192">
        <ele>649</ele>
        <time>2022-06-26T12:07:57Z</time>
      </trkpt>
      <trkpt lat="45.78673" lon="4.47195">
        <ele>648.4</ele>
        <time>2022-06-26T12:07:58Z</time>
      </trkpt>
      <trkpt lat="45.78663" lon="4.47197">
        <ele>648</ele>
        <time>2022-06-26T12:07:59Z</time>
      </trkpt>
      <trkpt lat="45.78653" lon="4.47201">
        <ele>647.4</ele>
        <time>2022-06-26T12:08:00Z</time>
      </trkpt>
      <trkpt lat="45.78643" lon="4.47204">
        <ele>646.8</ele>
        <time>2022-06-26T12:08:01Z</time>
      </trkpt>
      <trkpt lat="45.78634" lon="4.47208">
        <ele>646.4</ele>
        <time>2022-06-26T12:08:02Z</time>
      </trkpt>
      <trkpt lat="45.78625" lon="4.47212">
        <ele>645.8</ele>
        <time>2022-06-26T12:08:03Z</time>
      </trkpt>
      <trkpt lat="45.78615" lon="4.47218">
        <ele>645.6</ele>
        <time>2022-06-26T12:08:04Z</time>
      </trkpt>
      <trkpt lat="45.78606" lon="4.47222">
        <ele>645.2</ele>
        <time>2022-06-26T12:08:05Z</time>
      </trkpt>
      <trkpt lat="45.78597" lon="4.47226">
        <ele>644.8</ele>
        <time>2022-06-26T12:08:06Z</time>
      </trkpt>
      <trkpt lat="45.78588" lon="4.4723">
        <ele>644.4</ele>
        <time>2022-06-26T12:08:07Z</time>
      </trkpt>
      <trkpt lat="45.7858" lon="4.47234">
        <ele>644.4</ele>
        <time>2022-06-26T12:08:08Z</time>
      </trkpt>
      <trkpt lat="45.78572" lon="4.47238">
        <ele>644</ele>
        <time>2022-06-26T12:08:09Z</time>
      </trkpt>
      <trkpt lat="45.78564" lon="4.47242">
        <ele>643.6</ele>
        <time>2022-06-26T12:08:10Z</time>
      </trkpt>
      <trkpt lat="45.78557" lon="4.47245">
        <ele>643.6</ele>
        <time>2022-06-26T12:08:11Z</time>
      </trkpt>
      <trkpt lat="45.78549" lon="4.47248">
        <ele>643.2</ele>
        <time>2022-06-26T12:08:12Z</time>
      </trkpt>
      <trkpt lat="45.78541" lon="4.4725">
        <ele>643.2</ele>
        <time>2022-06-26T12:08:13Z</time>
      </trkpt>
      <trkpt lat="45.78533" lon="4.47252">
        <ele>642.6</ele>
        <time>2022-06-26T12:08:14Z</time>
      </trkpt>
      <trkpt lat="45.78525" lon="4.47253">
        <ele>642.4</ele>
        <time>2022-06-26T12:08:15Z</time>
      </trkpt>
      <trkpt lat="45.78517" lon="4.47252">
        <ele>642</ele>
        <time>2022-06-26T12:08:16Z</time>
      </trkpt>
      <trkpt lat="45.78508" lon="4.4725">
        <ele>641.6</ele>
        <time>2022-06-26T12:08:17Z</time>
      </trkpt>
      <trkpt lat="45.785" lon="4.47247">
        <ele>641.2</ele>
        <time>2022-06-26T12:08:18Z</time>
      </trkpt>
      <trkpt lat="45.78491" lon="4.47243">
        <ele>640.8</ele>
        <time>2022-06-26T12:08:19Z</time>
      </trkpt>
      <trkpt lat="45.78483" lon="4.47238">
        <ele>640.4</ele>
        <time>2022-06-26T12:08:20Z</time>
      </trkpt>
      <trkpt lat="45.78475" lon="4.47232">
        <ele>640</ele>
        <time>2022-06-26T12:08:21Z</time>
      </trkpt>
      <trkpt lat="45.78468" lon="4.47225">
        <ele>639.6</ele>
        <time>2022-06-26T12:08:22Z</time>
      </trkpt>
      <trkpt lat="45.78461" lon="4.47215">
        <ele>639.2</ele>
        <time>2022-06-26T12:08:23Z</time>
      </trkpt>
      <trkpt lat="45.78454" lon="4.47205">
        <ele>639</ele>
        <time>2022-06-26T12:08:24Z</time>
      </trkpt>
      <trkpt lat="45.78448" lon="4.47195">
        <ele>639</ele>
        <time>2022-06-26T12:08:25Z</time>
      </trkpt>
      <trkpt lat="45.78441" lon="4.47186">
        <ele>638.4</ele>
        <time>2022-06-26T12:08:26Z</time>
      </trkpt>
      <trkpt lat="45.78435" lon="4.47176">
        <ele>638.2</ele>
        <time>2022-06-26T12:08:27Z</time>
      </trkpt>
      <trkpt lat="45.78429" lon="4.47165">
        <ele>638</ele>
        <time>2022-06-26T12:08:28Z</time>
      </trkpt>
      <trkpt lat="45.78425" lon="4.47154">
        <ele>637.6</ele>
        <time>2022-06-26T12:08:29Z</time>
      </trkpt>
      <trkpt lat="45.78421" lon="4.47141">
        <ele>637.4</ele>
        <time>2022-06-26T12:08:30Z</time>
      </trkpt>
      <trkpt lat="45.78418" lon="4.47129">
        <ele>636.8</ele>
        <time>2022-06-26T12:08:31Z</time>
      </trkpt>
      <trkpt lat="45.78414" lon="4.47116">
        <ele>636.2</ele>
        <time>2022-06-26T12:08:32Z</time>
      </trkpt>
      <trkpt lat="45.7841" lon="4.47103">
        <ele>635.8</ele>
        <time>2022-06-26T12:08:33Z</time>
      </trkpt>
      <trkpt lat="45.78406" lon="4.4709">
        <ele>635.4</ele>
        <time>2022-06-26T12:08:34Z</time>
      </trkpt>
      <trkpt lat="45.784" lon="4.47078">
        <ele>635.2</ele>
        <time>2022-06-26T12:08:35Z</time>
      </trkpt>
      <trkpt lat="45.78394" lon="4.47069">
        <ele>635</ele>
        <time>2022-06-26T12:08:36Z</time>
      </trkpt>
      <trkpt lat="45.78387" lon="4.47061">
        <ele>634.6</ele>
        <time>2022-06-26T12:08:37Z</time>
      </trkpt>
      <trkpt lat="45.78378" lon="4.47053">
        <ele>634.2</ele>
        <time>2022-06-26T12:08:38Z</time>
      </trkpt>
      <trkpt lat="45.78368" lon="4.47048">
        <ele>634</ele>
        <time>2022-06-26T12:08:39Z</time>
      </trkpt>
      <trkpt lat="45.7836" lon="4.47042">
        <ele>633.6</ele>
        <time>2022-06-26T12:08:40Z</time>
      </trkpt>
      <trkpt lat="45.7835" lon="4.47037">
        <ele>633.4</ele>
        <time>2022-06-26T12:08:41Z</time>
      </trkpt>
      <trkpt lat="45.78341" lon="4.47031">
        <ele>633</ele>
        <time>2022-06-26T12:08:42Z</time>
      </trkpt>
      <trkpt lat="45.7833" lon="4.47025">
        <ele>632.6</ele>
        <time>2022-06-26T12:08:43Z</time>
      </trkpt>
      <trkpt lat="45.78322" lon="4.4702">
        <ele>632</ele>
        <time>2022-06-26T12:08:44Z</time>
      </trkpt>
      <trkpt lat="45.78312" lon="4.47015">
        <ele>631.6</ele>
        <time>2022-06-26T12:08:45Z</time>
      </trkpt>
      <trkpt lat="45.78304" lon="4.47009">
        <ele>631</ele>
        <time>2022-06-26T12:08:46Z</time>
      </trkpt>
      <trkpt lat="45.78293" lon="4.47002">
        <ele>630.6</ele>
        <time>2022-06-26T12:08:47Z</time>
      </trkpt>
      <trkpt lat="45.78283" lon="4.46998">
        <ele>630.2</ele>
        <time>2022-06-26T12:08:48Z</time>
      </trkpt>
      <trkpt lat="45.78272" lon="4.46996">
        <ele>629.8</ele>
        <time>2022-06-26T12:08:49Z</time>
      </trkpt>
      <trkpt lat="45.78262" lon="4.46996">
        <ele>629.4</ele>
        <time>2022-06-26T12:08:50Z</time>
      </trkpt>
      <trkpt lat="45.78253" lon="4.47">
        <ele>629.2</ele>
        <time>2022-06-26T12:08:51Z</time>
      </trkpt>
      <trkpt lat="45.78244" lon="4.47005">
        <ele>628.8</ele>
        <time>2022-06-26T12:08:52Z</time>
      </trkpt>
      <trkpt lat="45.78235" lon="4.47012">
        <ele>628.6</ele>
        <time>2022-06-26T12:08:53Z</time>
      </trkpt>
      <trkpt lat="45.78228" lon="4.47021">
        <ele>628.4</ele>
        <time>2022-06-26T12:08:54Z</time>
      </trkpt>
      <trkpt lat="45.78222" lon="4.47033">
        <ele>627.8</ele>
        <time>2022-06-26T12:08:55Z</time>
      </trkpt>
      <trkpt lat="45.78217" lon="4.47045">
        <ele>627.4</ele>
        <time>2022-06-26T12:08:56Z</time>
      </trkpt>
      <trkpt lat="45.78212" lon="4.47057">
        <ele>627.4</ele>
        <time>2022-06-26T12:08:57Z</time>
      </trkpt>
      <trkpt lat="45.78208" lon="4.47069">
        <ele>626.6</ele>
        <time>2022-06-26T12:08:58Z</time>
      </trkpt>
      <trkpt lat="45.78203" lon="4.47082">
        <ele>626</ele>
        <time>2022-06-26T12:08:59Z</time>
      </trkpt>
      <trkpt lat="45.78198" lon="4.47094">
        <ele>625.6</ele>
        <time>2022-06-26T12:09:00Z</time>
      </trkpt>
      <trkpt lat="45.78192" lon="4.47105">
        <ele>625</ele>
        <time>2022-06-26T12:09:01Z</time>
      </trkpt>
      <trkpt lat="45.78186" lon="4.47116">
        <ele>624.6</ele>
        <time>2022-06-26T12:09:02Z</time>
      </trkpt>
      <trkpt lat="45.78179" lon="4.47124">
        <ele>624.2</ele>
        <time>2022-06-26T12:09:03Z</time>
      </trkpt>
      <trkpt lat="45.78171" lon="4.4713">
        <ele>623.8</ele>
        <time>2022-06-26T12:09:04Z</time>
      </trkpt>
      <trkpt lat="45.78162" lon="4.47136">
        <ele>623.4</ele>
        <time>2022-06-26T12:09:05Z</time>
      </trkpt>
      <trkpt lat="45.78153" lon="4.4714">
        <ele>622.8</ele>
        <time>2022-06-26T12:09:06Z</time>
      </trkpt>
      <trkpt lat="45.78143" lon="4.47145">
        <ele>622.2</ele>
        <time>2022-06-26T12:09:07Z</time>
      </trkpt>
      <trkpt lat="45.78133" lon="4.47149">
        <ele>622</ele>
        <time>2022-06-26T12:09:08Z</time>
      </trkpt>
      <trkpt lat="45.78124" lon="4.47155">
        <ele>621.6</ele>
        <time>2022-06-26T12:09:09Z</time>
      </trkpt>
      <trkpt lat="45.78114" lon="4.4716">
        <ele>621</ele>
        <time>2022-06-26T12:09:10Z</time>
      </trkpt>
      <trkpt lat="45.78104" lon="4.47165">
        <ele>620.6</ele>
        <time>2022-06-26T12:09:11Z</time>
      </trkpt>
      <trkpt lat="45.78095" lon="4.47168">
        <ele>620</ele>
        <time>2022-06-26T12:09:12Z</time>
      </trkpt>
      <trkpt lat="45.78086" lon="4.47168">
        <ele>619.4</ele>
        <time>2022-06-26T12:09:13Z</time>
      </trkpt>
      <trkpt lat="45.78074" lon="4.47165">
        <ele>618.8</ele>
        <time>2022-06-26T12:09:14Z</time>
      </trkpt>
      <trkpt lat="45.78064" lon="4.47161">
        <ele>618.2</ele>
        <time>2022-06-26T12:09:15Z</time>
      </trkpt>
      <trkpt lat="45.78055" lon="4.47155">
        <ele>617.6</ele>
        <time>2022-06-26T12:09:16Z</time>
      </trkpt>
      <trkpt lat="45.78044" lon="4.47144">
        <ele>617</ele>
        <time>2022-06-26T12:09:17Z</time>
      </trkpt>
      <trkpt lat="45.78037" lon="4.47134">
        <ele>616.4</ele>
        <time>2022-06-26T12:09:18Z</time>
      </trkpt>
      <trkpt lat="45.78029" lon="4.47125">
        <ele>615.8</ele>
        <time>2022-06-26T12:09:19Z</time>
      </trkpt>
      <trkpt lat="45.78022" lon="4.47118">
        <ele>615.2</ele>
        <time>2022-06-26T12:09:20Z</time>
      </trkpt>
      <trkpt lat="45.78014" lon="4.47114">
        <ele>614.8</ele>
        <time>2022-06-26T12:09:21Z</time>
      </trkpt>
      <trkpt lat="45.78005" lon="4.4711">
        <ele>614.4</ele>
        <time>2022-06-26T12:09:22Z</time>
      </trkpt>
      <trkpt lat="45.77996" lon="4.47108">
        <ele>613.8</ele>
        <time>2022-06-26T12:09:23Z</time>
      </trkpt>
      <trkpt lat="45.77986" lon="4.47109">
        <ele>613.4</ele>
        <time>2022-06-26T12:09:24Z</time>
      </trkpt>
      <trkpt lat="45.77978" lon="4.47111">
        <ele>613</ele>
        <time>2022-06-26T12:09:25Z</time>
      </trkpt>
      <trkpt lat="45.7797" lon="4.47115">
        <ele>612.6</ele>
        <time>2022-06-26T12:09:26Z</time>
      </trkpt>
      <trkpt lat="45.77963" lon="4.47121">
        <ele>612.2</ele>
        <time>2022-06-26T12:09:27Z</time>
      </trkpt>
      <trkpt lat="45.77956" lon="4.47128">
        <ele>611.6</ele>
        <time>2022-06-26T12:09:28Z</time>
      </trkpt>
      <trkpt lat="45.77948" lon="4.47135">
        <ele>611.2</ele>
        <time>2022-06-26T12:09:29Z</time>
      </trkpt>
      <trkpt lat="45.77941" lon="4.47144">
        <ele>610.8</ele>
        <time>2022-06-26T12:09:30Z</time>
      </trkpt>
      <trkpt lat="45.77933" lon="4.47153">
        <ele>610.6</ele>
        <time>2022-06-26T12:09:31Z</time>
      </trkpt>
      <trkpt lat="45.77926" lon="4.47161">
        <ele>610.2</ele>
        <time>2022-06-26T12:09:32Z</time>
      </trkpt>
      <trkpt lat="45.77917" lon="4.47168">
        <ele>609.6</ele>
        <time>2022-06-26T12:09:33Z</time>
      </trkpt>
      <trkpt lat="45.77908" lon="4.47173">
        <ele>609.2</ele>
        <time>2022-06-26T12:09:34Z</time>
      </trkpt>
      <trkpt lat="45.77899" lon="4.47177">
        <ele>608.6</ele>
        <time>2022-06-26T12:09:35Z</time>
      </trkpt>
      <trkpt lat="45.7789" lon="4.47178">
        <ele>608.4</ele>
        <time>2022-06-26T12:09:36Z</time>
      </trkpt>
      <trkpt lat="45.7788" lon="4.47179">
        <ele>608.4</ele>
        <time>2022-06-26T12:09:37Z</time>
      </trkpt>
      <trkpt lat="45.7787" lon="4.47179">
        <ele>608</ele>
        <time>2022-06-26T12:09:38Z</time>
      </trkpt>
      <trkpt lat="45.7786" lon="4.47178">
        <ele>607.6</ele>
        <time>2022-06-26T12:09:39Z</time>
      </trkpt>
      <trkpt lat="45.7785" lon="4.47177">
        <ele>607.4</ele>
        <time>2022-06-26T12:09:40Z</time>
      </trkpt>
      <trkpt lat="45.7784" lon="4.47176">
        <ele>606.8</ele>
        <time>2022-06-26T12:09:41Z</time>
      </trkpt>
      <trkpt lat="45.77831" lon="4.47175">
        <ele>606.4</ele>
        <time>2022-06-26T12:09:42Z</time>
      </trkpt>
      <trkpt lat="45.77821" lon="4.47173">
        <ele>605.8</ele>
        <time>2022-06-26T12:09:43Z</time>
      </trkpt>
      <trkpt lat="45.77811" lon="4.47172">
        <ele>605.4</ele>
        <time>2022-06-26T12:09:44Z</time>
      </trkpt>
      <trkpt lat="45.77802" lon="4.47169">
        <ele>605.2</ele>
        <time>2022-06-26T12:09:45Z</time>
      </trkpt>
      <trkpt lat="45.77792" lon="4.47165">
        <ele>605</ele>
        <time>2022-06-26T12:09:46Z</time>
      </trkpt>
      <trkpt lat="45.77783" lon="4.4716">
        <ele>604.4</ele>
        <time>2022-06-26T12:09:47Z</time>
      </trkpt>
      <trkpt lat="45.77774" lon="4.47154">
        <ele>603.8</ele>
        <time>2022-06-26T12:09:48Z</time>
      </trkpt>
      <trkpt lat="45.77765" lon="4.47147">
        <ele>603.4</ele>
        <time>2022-06-26T12:09:49Z</time>
      </trkpt>
      <trkpt lat="45.77757" lon="4.47139">
        <ele>603</ele>
        <time>2022-06-26T12:09:50Z</time>
      </trkpt>
      <trkpt lat="45.77748" lon="4.4713">
        <ele>602.6</ele>
        <time>2022-06-26T12:09:51Z</time>
      </trkpt>
      <trkpt lat="45.77741" lon="4.47121">
        <ele>602.2</ele>
        <time>2022-06-26T12:09:52Z</time>
      </trkpt>
      <trkpt lat="45.77734" lon="4.47114">
        <ele>601.8</ele>
        <time>2022-06-26T12:09:53Z</time>
      </trkpt>
      <trkpt lat="45.77725" lon="4.47109">
        <ele>601.4</ele>
        <time>2022-06-26T12:09:54Z</time>
      </trkpt>
      <trkpt lat="45.77716" lon="4.47105">
        <ele>601</ele>
        <time>2022-06-26T12:09:55Z</time>
      </trkpt>
      <trkpt lat="45.77707" lon="4.47104">
        <ele>600.6</ele>
        <time>2022-06-26T12:09:56Z</time>
      </trkpt>
      <trkpt lat="45.77697" lon="4.47105">
        <ele>600.2</ele>
        <time>2022-06-26T12:09:57Z</time>
      </trkpt>
      <trkpt lat="45.77689" lon="4.47108">
        <ele>599.8</ele>
        <time>2022-06-26T12:09:58Z</time>
      </trkpt>
      <trkpt lat="45.7768" lon="4.4711">
        <ele>599.4</ele>
        <time>2022-06-26T12:09:59Z</time>
      </trkpt>
      <trkpt lat="45.77671" lon="4.47114">
        <ele>599</ele>
        <time>2022-06-26T12:10:00Z</time>
      </trkpt>
      <trkpt lat="45.77661" lon="4.47118">
        <ele>598.8</ele>
        <time>2022-06-26T12:10:01Z</time>
      </trkpt>
      <trkpt lat="45.77651" lon="4.47121">
        <ele>598.4</ele>
        <time>2022-06-26T12:10:02Z</time>
      </trkpt>
      <trkpt lat="45.77641" lon="4.47122">
        <ele>598.2</ele>
        <time>2022-06-26T12:10:03Z</time>
      </trkpt>
      <trkpt lat="45.7763" lon="4.4712">
        <ele>597.6</ele>
        <time>2022-06-26T12:10:04Z</time>
      </trkpt>
      <trkpt lat="45.77622" lon="4.47117">
        <ele>597.2</ele>
        <time>2022-06-26T12:10:05Z</time>
      </trkpt>
      <trkpt lat="45.77612" lon="4.47113">
        <ele>596.6</ele>
        <time>2022-06-26T12:10:06Z</time>
      </trkpt>
      <trkpt lat="45.77604" lon="4.47109">
        <ele>596.2</ele>
        <time>2022-06-26T12:10:07Z</time>
      </trkpt>
      <trkpt lat="45.77595" lon="4.47106">
        <ele>595.8</ele>
        <time>2022-06-26T12:10:08Z</time>
      </trkpt>
      <trkpt lat="45.77586" lon="4.47106">
        <ele>595.6</ele>
        <time>2022-06-26T12:10:09Z</time>
      </trkpt>
      <trkpt lat="45.77578" lon="4.47106">
        <ele>595.6</ele>
        <time>2022-06-26T12:10:10Z</time>
      </trkpt>
      <trkpt lat="45.77569" lon="4.47109">
        <ele>595</ele>
        <time>2022-06-26T12:10:11Z</time>
      </trkpt>
      <trkpt lat="45.7756" lon="4.47114">
        <ele>594.4</ele>
        <time>2022-06-26T12:10:12Z</time>
      </trkpt>
      <trkpt lat="45.77552" lon="4.4712">
        <ele>593.8</ele>
        <time>2022-06-26T12:10:13Z</time>
      </trkpt>
      <trkpt lat="45.77545" lon="4.47126">
        <ele>593.4</ele>
        <time>2022-06-26T12:10:14Z</time>
      </trkpt>
      <trkpt lat="45.77537" lon="4.47134">
        <ele>593</ele>
        <time>2022-06-26T12:10:15Z</time>
      </trkpt>
      <trkpt lat="45.77529" lon="4.47141">
        <ele>592.6</ele>
        <time>2022-06-26T12:10:16Z</time>
      </trkpt>
      <trkpt lat="45.7752" lon="4.47148">
        <ele>592.2</ele>
        <time>2022-06-26T12:10:17Z</time>
      </trkpt>
      <trkpt lat="45.77511" lon="4.47155">
        <ele>591.6</ele>
        <time>2022-06-26T12:10:19Z</time>
      </trkpt>
      <trkpt lat="45.77503" lon="4.47162">
        <ele>591</ele>
        <time>2022-06-26T12:10:20Z</time>
      </trkpt>
      <trkpt lat="45.77495" lon="4.4717">
        <ele>590.8</ele>
        <time>2022-06-26T12:10:21Z</time>
      </trkpt>
      <trkpt lat="45.77488" lon="4.47179">
        <ele>590.2</ele>
        <time>2022-06-26T12:10:22Z</time>
      </trkpt>
      <trkpt lat="45.77481" lon="4.4719">
        <ele>589.8</ele>
        <time>2022-06-26T12:10:23Z</time>
      </trkpt>
      <trkpt lat="45.77474" lon="4.472">
        <ele>589</ele>
        <time>2022-06-26T12:10:24Z</time>
      </trkpt>
      <trkpt lat="45.77467" lon="4.47212">
        <ele>588.6</ele>
        <time>2022-06-26T12:10:25Z</time>
      </trkpt>
      <trkpt lat="45.7746" lon="4.47222">
        <ele>588</ele>
        <time>2022-06-26T12:10:26Z</time>
      </trkpt>
      <trkpt lat="45.77451" lon="4.47228">
        <ele>587.6</ele>
        <time>2022-06-26T12:10:27Z</time>
      </trkpt>
      <trkpt lat="45.77442" lon="4.47233">
        <ele>587.2</ele>
        <time>2022-06-26T12:10:28Z</time>
      </trkpt>
      <trkpt lat="45.77433" lon="4.47236">
        <ele>586.8</ele>
        <time>2022-06-26T12:10:29Z</time>
      </trkpt>
      <trkpt lat="45.77424" lon="4.47236">
        <ele>586.4</ele>
        <time>2022-06-26T12:10:30Z</time>
      </trkpt>
      <trkpt lat="45.77414" lon="4.47232">
        <ele>586</ele>
        <time>2022-06-26T12:10:31Z</time>
      </trkpt>
      <trkpt lat="45.77406" lon="4.47228">
        <ele>585.8</ele>
        <time>2022-06-26T12:10:32Z</time>
      </trkpt>
      <trkpt lat="45.77397" lon="4.47224">
        <ele>585.8</ele>
        <time>2022-06-26T12:10:33Z</time>
      </trkpt>
      <trkpt lat="45.77389" lon="4.47221">
        <ele>585.4</ele>
        <time>2022-06-26T12:10:34Z</time>
      </trkpt>
      <trkpt lat="45.77379" lon="4.47218">
        <ele>585.4</ele>
        <time>2022-06-26T12:10:35Z</time>
      </trkpt>
      <trkpt lat="45.77371" lon="4.47217">
        <ele>585</ele>
        <time>2022-06-26T12:10:36Z</time>
      </trkpt>
      <trkpt lat="45.77362" lon="4.47217">
        <ele>585</ele>
        <time>2022-06-26T12:10:37Z</time>
      </trkpt>
      <trkpt lat="45.77354" lon="4.47217">
        <ele>584.8</ele>
        <time>2022-06-26T12:10:38Z</time>
      </trkpt>
      <trkpt lat="45.77346" lon="4.47217">
        <ele>584.8</ele>
        <time>2022-06-26T12:10:39Z</time>
      </trkpt>
      <trkpt lat="45.77338" lon="4.47217">
        <ele>584.4</ele>
        <time>2022-06-26T12:10:40Z</time>
      </trkpt>
      <trkpt lat="45.7733" lon="4.47218">
        <ele>584.4</ele>
        <time>2022-06-26T12:10:41Z</time>
      </trkpt>
      <trkpt lat="45.77322" lon="4.47218">
        <ele>584.2</ele>
        <time>2022-06-26T12:10:42Z</time>
      </trkpt>
      <trkpt lat="45.77314" lon="4.47219">
        <ele>584.2</ele>
        <time>2022-06-26T12:10:43Z</time>
      </trkpt>
      <trkpt lat="45.77306" lon="4.4722">
        <ele>584</ele>
        <time>2022-06-26T12:10:44Z</time>
      </trkpt>
      <trkpt lat="45.77298" lon="4.47221">
        <ele>584</ele>
        <time>2022-06-26T12:10:45Z</time>
      </trkpt>
      <trkpt lat="45.77289" lon="4.47222">
        <ele>583.8</ele>
        <time>2022-06-26T12:10:46Z</time>
      </trkpt>
      <trkpt lat="45.77281" lon="4.47223">
        <ele>583.8</ele>
        <time>2022-06-26T12:10:47Z</time>
      </trkpt>
      <trkpt lat="45.77274" lon="4.47226">
        <ele>583.4</ele>
        <time>2022-06-26T12:10:48Z</time>
      </trkpt>
      <trkpt lat="45.77267" lon="4.47229">
        <ele>583.4</ele>
        <time>2022-06-26T12:10:49Z</time>
      </trkpt>
      <trkpt lat="45.7726" lon="4.47233">
        <ele>583</ele>
        <time>2022-06-26T12:10:50Z</time>
      </trkpt>
      <trkpt lat="45.77255" lon="4.4724">
        <ele>583</ele>
        <time>2022-06-26T12:10:51Z</time>
      </trkpt>
      <trkpt lat="45.7725" lon="4.47248">
        <ele>583</ele>
        <time>2022-06-26T12:10:52Z</time>
      </trkpt>
      <trkpt lat="45.77247" lon="4.47257">
        <ele>582.6</ele>
        <time>2022-06-26T12:10:53Z</time>
      </trkpt>
      <trkpt lat="45.77245" lon="4.47267">
        <ele>582.4</ele>
        <time>2022-06-26T12:10:54Z</time>
      </trkpt>
      <trkpt lat="45.77244" lon="4.47277">
        <ele>582.2</ele>
        <time>2022-06-26T12:10:55Z</time>
      </trkpt>
      <trkpt lat="45.77245" lon="4.47288">
        <ele>582</ele>
        <time>2022-06-26T12:10:56Z</time>
      </trkpt>
      <trkpt lat="45.77248" lon="4.47298">
        <ele>582</ele>
        <time>2022-06-26T12:10:57Z</time>
      </trkpt>
      <trkpt lat="45.77251" lon="4.47308">
        <ele>581.4</ele>
        <time>2022-06-26T12:10:58Z</time>
      </trkpt>
      <trkpt lat="45.77254" lon="4.47317">
        <ele>581.2</ele>
        <time>2022-06-26T12:10:59Z</time>
      </trkpt>
      <trkpt lat="45.77256" lon="4.47327">
        <ele>581.2</ele>
        <time>2022-06-26T12:11:00Z</time>
      </trkpt>
      <trkpt lat="45.77258" lon="4.47337">
        <ele>580.8</ele>
        <time>2022-06-26T12:11:01Z</time>
      </trkpt>
      <trkpt lat="45.77258" lon="4.47348">
        <ele>580.8</ele>
        <time>2022-06-26T12:11:02Z</time>
      </trkpt>
      <trkpt lat="45.77256" lon="4.47358">
        <ele>580.4</ele>
        <time>2022-06-26T12:11:03Z</time>
      </trkpt>
      <trkpt lat="45.77253" lon="4.47368">
        <ele>580.2</ele>
        <time>2022-06-26T12:11:04Z</time>
      </trkpt>
      <trkpt lat="45.7725" lon="4.47376">
        <ele>579.8</ele>
        <time>2022-06-26T12:11:05Z</time>
      </trkpt>
      <trkpt lat="45.77242" lon="4.47388">
        <ele>579.4</ele>
        <time>2022-06-26T12:11:06Z</time>
      </trkpt>
      <trkpt lat="45.77239" lon="4.47391">
        <ele>579.4</ele>
        <time>2022-06-26T12:11:07Z</time>
      </trkpt>
      <trkpt lat="45.77234" lon="4.47398">
        <ele>579.4</ele>
        <time>2022-06-26T12:11:08Z</time>
      </trkpt>
      <trkpt lat="45.77227" lon="4.47403">
        <ele>579.2</ele>
        <time>2022-06-26T12:11:09Z</time>
      </trkpt>
      <trkpt lat="45.77219" lon="4.47405">
        <ele>579.2</ele>
        <time>2022-06-26T12:11:10Z</time>
      </trkpt>
      <trkpt lat="45.77212" lon="4.47406">
        <ele>578.8</ele>
        <time>2022-06-26T12:11:11Z</time>
      </trkpt>
      <trkpt lat="45.77204" lon="4.47406">
        <ele>578.8</ele>
        <time>2022-06-26T12:11:12Z</time>
      </trkpt>
      <trkpt lat="45.77196" lon="4.47405">
        <ele>578.6</ele>
        <time>2022-06-26T12:11:13Z</time>
      </trkpt>
      <trkpt lat="45.77189" lon="4.47403">
        <ele>578.6</ele>
        <time>2022-06-26T12:11:14Z</time>
      </trkpt>
      <trkpt lat="45.77181" lon="4.47402">
        <ele>578.6</ele>
        <time>2022-06-26T12:11:15Z</time>
      </trkpt>
      <trkpt lat="45.77174" lon="4.474">
        <ele>578.4</ele>
        <time>2022-06-26T12:11:16Z</time>
      </trkpt>
      <trkpt lat="45.77166" lon="4.47397">
        <ele>578.4</ele>
        <time>2022-06-26T12:11:17Z</time>
      </trkpt>
      <trkpt lat="45.77159" lon="4.47394">
        <ele>578.4</ele>
        <time>2022-06-26T12:11:18Z</time>
      </trkpt>
      <trkpt lat="45.77153" lon="4.47391">
        <ele>578.4</ele>
        <time>2022-06-26T12:11:19Z</time>
      </trkpt>
      <trkpt lat="45.77146" lon="4.47388">
        <ele>578.4</ele>
        <time>2022-06-26T12:11:20Z</time>
      </trkpt>
      <trkpt lat="45.7714" lon="4.47385">
        <ele>578.4</ele>
        <time>2022-06-26T12:11:21Z</time>
      </trkpt>
      <trkpt lat="45.77134" lon="4.4738">
        <ele>578.4</ele>
        <time>2022-06-26T12:11:22Z</time>
      </trkpt>
      <trkpt lat="45.77128" lon="4.47376">
        <ele>578.4</ele>
        <time>2022-06-26T12:11:23Z</time>
      </trkpt>
      <trkpt lat="45.77123" lon="4.47372">
        <ele>578.6</ele>
        <time>2022-06-26T12:11:24Z</time>
      </trkpt>
      <trkpt lat="45.77117" lon="4.47367">
        <ele>578.6</ele>
        <time>2022-06-26T12:11:25Z</time>
      </trkpt>
      <trkpt lat="45.77112" lon="4.47362">
        <ele>578.6</ele>
        <time>2022-06-26T12:11:26Z</time>
      </trkpt>
      <trkpt lat="45.77107" lon="4.47358">
        <ele>578.6</ele>
        <time>2022-06-26T12:11:27Z</time>
      </trkpt>
      <trkpt lat="45.77102" lon="4.47353">
        <ele>578.6</ele>
        <time>2022-06-26T12:11:28Z</time>
      </trkpt>
      <trkpt lat="45.77097" lon="4.47348">
        <ele>579</ele>
        <time>2022-06-26T12:11:29Z</time>
      </trkpt>
      <trkpt lat="45.77092" lon="4.47343">
        <ele>579</ele>
        <time>2022-06-26T12:11:30Z</time>
      </trkpt>
      <trkpt lat="45.77087" lon="4.4734">
        <ele>579</ele>
        <time>2022-06-26T12:11:31Z</time>
      </trkpt>
      <trkpt lat="45.77081" lon="4.47337">
        <ele>579</ele>
        <time>2022-06-26T12:11:32Z</time>
      </trkpt>
      <trkpt lat="45.77075" lon="4.47334">
        <ele>579</ele>
        <time>2022-06-26T12:11:33Z</time>
      </trkpt>
      <trkpt lat="45.77069" lon="4.47333">
        <ele>579</ele>
        <time>2022-06-26T12:11:34Z</time>
      </trkpt>
      <trkpt lat="45.77063" lon="4.47332">
        <ele>579</ele>
        <time>2022-06-26T12:11:35Z</time>
      </trkpt>
      <trkpt lat="45.77058" lon="4.47331">
        <ele>579</ele>
        <time>2022-06-26T12:11:36Z</time>
      </trkpt>
      <trkpt lat="45.77052" lon="4.47332">
        <ele>579</ele>
        <time>2022-06-26T12:11:37Z</time>
      </trkpt>
      <trkpt lat="45.77046" lon="4.47333">
        <ele>579</ele>
        <time>2022-06-26T12:11:38Z</time>
      </trkpt>
      <trkpt lat="45.7704" lon="4.47334">
        <ele>579</ele>
        <time>2022-06-26T12:11:39Z</time>
      </trkpt>
      <trkpt lat="45.77035" lon="4.47336">
        <ele>579</ele>
        <time>2022-06-26T12:11:40Z</time>
      </trkpt>
      <trkpt lat="45.77029" lon="4.47338">
        <ele>579</ele>
        <time>2022-06-26T12:11:41Z</time>
      </trkpt>
      <trkpt lat="45.77025" lon="4.4734">
        <ele>578.6</ele>
        <time>2022-06-26T12:11:42Z</time>
      </trkpt>
      <trkpt lat="45.77021" lon="4.47342">
        <ele>578.6</ele>
        <time>2022-06-26T12:11:43Z</time>
      </trkpt>
      <trkpt lat="45.77017" lon="4.47344">
        <ele>578.4</ele>
        <time>2022-06-26T12:11:44Z</time>
      </trkpt>
      <trkpt lat="45.77015" lon="4.47345">
        <ele>578.4</ele>
        <time>2022-06-26T12:11:45Z</time>
      </trkpt>
      <trkpt lat="45.77013" lon="4.47346">
        <ele>578.2</ele>
        <time>2022-06-26T12:11:46Z</time>
      </trkpt>
      <trkpt lat="45.77013" lon="4.47347">
        <ele>578.2</ele>
        <time>2022-06-26T12:11:47Z</time>
      </trkpt>
      <trkpt lat="45.7701" lon="4.47348">
        <ele>578.4</ele>
        <time>2022-06-26T12:14:11Z</time>
      </trkpt>
      <trkpt lat="45.77009" lon="4.4735">
        <ele>578.4</ele>
        <time>2022-06-26T12:14:12Z</time>
      </trkpt>
      <trkpt lat="45.77007" lon="4.47351">
        <ele>578.4</ele>
        <time>2022-06-26T12:14:13Z</time>
      </trkpt>
      <trkpt lat="45.77005" lon="4.47353">
        <ele>578.4</ele>
        <time>2022-06-26T12:14:14Z</time>
      </trkpt>
      <trkpt lat="45.77003" lon="4.47355">
        <ele>578.4</ele>
        <time>2022-06-26T12:14:15Z</time>
      </trkpt>
      <trkpt lat="45.77" lon="4.47357">
        <ele>578.4</ele>
        <time>2022-06-26T12:14:16Z</time>
      </trkpt>
      <trkpt lat="45.76997" lon="4.4736">
        <ele>578.4</ele>
        <time>2022-06-26T12:14:17Z</time>
      </trkpt>
      <trkpt lat="45.76994" lon="4.47363">
        <ele>578.4</ele>
        <time>2022-06-26T12:14:18Z</time>
      </trkpt>
      <trkpt lat="45.76991" lon="4.47366">
        <ele>578.4</ele>
        <time>2022-06-26T12:14:19Z</time>
      </trkpt>
      <trkpt lat="45.76988" lon="4.4737">
        <ele>578.4</ele>
        <time>2022-06-26T12:14:20Z</time>
      </trkpt>
      <trkpt lat="45.76984" lon="4.47374">
        <ele>578.4</ele>
        <time>2022-06-26T12:14:21Z</time>
      </trkpt>
      <trkpt lat="45.76981" lon="4.47379">
        <ele>578.4</ele>
        <time>2022-06-26T12:14:22Z</time>
      </trkpt>
      <trkpt lat="45.76978" lon="4.47384">
        <ele>578.4</ele>
        <time>2022-06-26T12:14:23Z</time>
      </trkpt>
      <trkpt lat="45.76975" lon="4.47389">
        <ele>578.4</ele>
        <time>2022-06-26T12:14:24Z</time>
      </trkpt>
      <trkpt lat="45.76972" lon="4.47395">
        <ele>578.2</ele>
        <time>2022-06-26T12:14:25Z</time>
      </trkpt>
      <trkpt lat="45.7697" lon="4.47401">
        <ele>578.2</ele>
        <time>2022-06-26T12:14:26Z</time>
      </trkpt>
      <trkpt lat="45.76967" lon="4.47408">
        <ele>578.2</ele>
        <time>2022-06-26T12:14:27Z</time>
      </trkpt>
      <trkpt lat="45.76965" lon="4.47415">
        <ele>578.2</ele>
        <time>2022-06-26T12:14:28Z</time>
      </trkpt>
      <trkpt lat="45.76962" lon="4.47422">
        <ele>578.2</ele>
        <time>2022-06-26T12:14:29Z</time>
      </trkpt>
      <trkpt lat="45.7696" lon="4.47429">
        <ele>578.2</ele>
        <time>2022-06-26T12:14:30Z</time>
      </trkpt>
      <trkpt lat="45.76957" lon="4.47437">
        <ele>578.2</ele>
        <time>2022-06-26T12:14:31Z</time>
      </trkpt>
      <trkpt lat="45.76954" lon="4.47444">
        <ele>578.2</ele>
        <time>2022-06-26T12:14:32Z</time>
      </trkpt>
      <trkpt lat="45.76951" lon="4.4745">
        <ele>578.2</ele>
        <time>2022-06-26T12:14:33Z</time>
      </trkpt>
      <trkpt lat="45.76947" lon="4.47456">
        <ele>578.2</ele>
        <time>2022-06-26T12:14:34Z</time>
      </trkpt>
      <trkpt lat="45.76944" lon="4.47462">
        <ele>578.2</ele>
        <time>2022-06-26T12:14:35Z</time>
      </trkpt>
      <trkpt lat="45.7694" lon="4.47467">
        <ele>578.2</ele>
        <time>2022-06-26T12:14:36Z</time>
      </trkpt>
      <trkpt lat="45.76936" lon="4.47471">
        <ele>578.2</ele>
        <time>2022-06-26T12:14:37Z</time>
      </trkpt>
      <trkpt lat="45.76931" lon="4.47475">
        <ele>578.4</ele>
        <time>2022-06-26T12:14:38Z</time>
      </trkpt>
      <trkpt lat="45.76927" lon="4.47479">
        <ele>578.4</ele>
        <time>2022-06-26T12:14:39Z</time>
      </trkpt>
      <trkpt lat="45.76923" lon="4.47483">
        <ele>578.8</ele>
        <time>2022-06-26T12:14:40Z</time>
      </trkpt>
      <trkpt lat="45.76919" lon="4.47486">
        <ele>578.8</ele>
        <time>2022-06-26T12:14:41Z</time>
      </trkpt>
      <trkpt lat="45.76915" lon="4.47489">
        <ele>579</ele>
        <time>2022-06-26T12:14:42Z</time>
      </trkpt>
      <trkpt lat="45.76911" lon="4.47491">
        <ele>579</ele>
        <time>2022-06-26T12:14:43Z</time>
      </trkpt>
      <trkpt lat="45.76907" lon="4.47494">
        <ele>579.2</ele>
        <time>2022-06-26T12:14:44Z</time>
      </trkpt>
      <trkpt lat="45.76902" lon="4.47496">
        <ele>579.2</ele>
        <time>2022-06-26T12:14:45Z</time>
      </trkpt>
      <trkpt lat="45.76898" lon="4.47498">
        <ele>579.6</ele>
        <time>2022-06-26T12:14:46Z</time>
      </trkpt>
      <trkpt lat="45.76894" lon="4.47501">
        <ele>579.6</ele>
        <time>2022-06-26T12:14:47Z</time>
      </trkpt>
      <trkpt lat="45.76889" lon="4.47503">
        <ele>579.6</ele>
        <time>2022-06-26T12:14:48Z</time>
      </trkpt>
      <trkpt lat="45.76885" lon="4.47505">
        <ele>580</ele>
        <time>2022-06-26T12:14:49Z</time>
      </trkpt>
      <trkpt lat="45.76881" lon="4.47507">
        <ele>580</ele>
        <time>2022-06-26T12:14:50Z</time>
      </trkpt>
      <trkpt lat="45.76877" lon="4.47508">
        <ele>580.4</ele>
        <time>2022-06-26T12:14:51Z</time>
      </trkpt>
      <trkpt lat="45.76873" lon="4.4751">
        <ele>580.4</ele>
        <time>2022-06-26T12:14:52Z</time>
      </trkpt>
      <trkpt lat="45.76869" lon="4.47512">
        <ele>580.6</ele>
        <time>2022-06-26T12:14:53Z</time>
      </trkpt>
      <trkpt lat="45.76865" lon="4.47513">
        <ele>580.6</ele>
        <time>2022-06-26T12:14:54Z</time>
      </trkpt>
      <trkpt lat="45.76861" lon="4.47515">
        <ele>581</ele>
        <time>2022-06-26T12:14:55Z</time>
      </trkpt>
      <trkpt lat="45.76857" lon="4.47516">
        <ele>581</ele>
        <time>2022-06-26T12:14:56Z</time>
      </trkpt>
      <trkpt lat="45.76854" lon="4.47517">
        <ele>581.2</ele>
        <time>2022-06-26T12:14:57Z</time>
      </trkpt>
      <trkpt lat="45.7685" lon="4.47519">
        <ele>581.2</ele>
        <time>2022-06-26T12:14:58Z</time>
      </trkpt>
      <trkpt lat="45.76847" lon="4.4752">
        <ele>581.8</ele>
        <time>2022-06-26T12:14:59Z</time>
      </trkpt>
      <trkpt lat="45.76844" lon="4.47522">
        <ele>581.8</ele>
        <time>2022-06-26T12:15:00Z</time>
      </trkpt>
      <trkpt lat="45.7684" lon="4.47523">
        <ele>582</ele>
        <time>2022-06-26T12:15:01Z</time>
      </trkpt>
      <trkpt lat="45.76837" lon="4.47525">
        <ele>582</ele>
        <time>2022-06-26T12:15:02Z</time>
      </trkpt>
      <trkpt lat="45.76834" lon="4.47527">
        <ele>582.4</ele>
        <time>2022-06-26T12:15:03Z</time>
      </trkpt>
      <trkpt lat="45.7683" lon="4.47528">
        <ele>582.4</ele>
        <time>2022-06-26T12:15:04Z</time>
      </trkpt>
      <trkpt lat="45.76827" lon="4.4753">
        <ele>582.4</ele>
        <time>2022-06-26T12:15:05Z</time>
      </trkpt>
      <trkpt lat="45.76824" lon="4.47531">
        <ele>582.6</ele>
        <time>2022-06-26T12:15:06Z</time>
      </trkpt>
      <trkpt lat="45.76821" lon="4.47533">
        <ele>582.6</ele>
        <time>2022-06-26T12:15:07Z</time>
      </trkpt>
      <trkpt lat="45.76818" lon="4.47536">
        <ele>582.6</ele>
        <time>2022-06-26T12:15:08Z</time>
      </trkpt>
      <trkpt lat="45.76814" lon="4.47538">
        <ele>582.6</ele>
        <time>2022-06-26T12:15:09Z</time>
      </trkpt>
      <trkpt lat="45.76811" lon="4.47541">
        <ele>582.6</ele>
        <time>2022-06-26T12:15:10Z</time>
      </trkpt>
      <trkpt lat="45.76807" lon="4.47545">
        <ele>582.6</ele>
        <time>2022-06-26T12:15:11Z</time>
      </trkpt>
      <trkpt lat="45.76803" lon="4.47548">
        <ele>582.6</ele>
        <time>2022-06-26T12:15:12Z</time>
      </trkpt>
      <trkpt lat="45.76798" lon="4.47552">
        <ele>582.6</ele>
        <time>2022-06-26T12:15:13Z</time>
      </trkpt>
      <trkpt lat="45.76793" lon="4.47556">
        <ele>582.6</ele>
        <time>2022-06-26T12:15:14Z</time>
      </trkpt>
      <trkpt lat="45.76788" lon="4.47561">
        <ele>582.2</ele>
        <time>2022-06-26T12:15:15Z</time>
      </trkpt>
      <trkpt lat="45.76783" lon="4.47566">
        <ele>582.2</ele>
        <time>2022-06-26T12:15:16Z</time>
      </trkpt>
      <trkpt lat="45.76778" lon="4.47571">
        <ele>582</ele>
        <time>2022-06-26T12:15:17Z</time>
      </trkpt>
      <trkpt lat="45.76772" lon="4.47576">
        <ele>582</ele>
        <time>2022-06-26T12:15:18Z</time>
      </trkpt>
      <trkpt lat="45.76767" lon="4.47582">
        <ele>581.6</ele>
        <time>2022-06-26T12:15:19Z</time>
      </trkpt>
      <trkpt lat="45.76761" lon="4.47587">
        <ele>581.2</ele>
        <time>2022-06-26T12:15:20Z</time>
      </trkpt>
      <trkpt lat="45.76756" lon="4.47593">
        <ele>581</ele>
        <time>2022-06-26T12:15:21Z</time>
      </trkpt>
      <trkpt lat="45.7675" lon="4.47599">
        <ele>581</ele>
        <time>2022-06-26T12:15:22Z</time>
      </trkpt>
      <trkpt lat="45.76744" lon="4.47606">
        <ele>580.4</ele>
        <time>2022-06-26T12:15:23Z</time>
      </trkpt>
      <trkpt lat="45.76739" lon="4.47613">
        <ele>580.2</ele>
        <time>2022-06-26T12:15:24Z</time>
      </trkpt>
      <trkpt lat="45.76733" lon="4.47619">
        <ele>580</ele>
        <time>2022-06-26T12:15:25Z</time>
      </trkpt>
      <trkpt lat="45.76727" lon="4.47626">
        <ele>580</ele>
        <time>2022-06-26T12:15:26Z</time>
      </trkpt>
      <trkpt lat="45.76721" lon="4.47633">
        <ele>579.6</ele>
        <time>2022-06-26T12:15:27Z</time>
      </trkpt>
      <trkpt lat="45.76716" lon="4.47641">
        <ele>579.4</ele>
        <time>2022-06-26T12:15:28Z</time>
      </trkpt>
      <trkpt lat="45.7671" lon="4.47648">
        <ele>579</ele>
        <time>2022-06-26T12:15:29Z</time>
      </trkpt>
      <trkpt lat="45.76704" lon="4.47656">
        <ele>578.8</ele>
        <time>2022-06-26T12:15:30Z</time>
      </trkpt>
      <trkpt lat="45.76698" lon="4.47663">
        <ele>578.4</ele>
        <time>2022-06-26T12:15:31Z</time>
      </trkpt>
      <trkpt lat="45.76691" lon="4.4767">
        <ele>578</ele>
        <time>2022-06-26T12:15:32Z</time>
      </trkpt>
      <trkpt lat="45.76685" lon="4.47677">
        <ele>577.8</ele>
        <time>2022-06-26T12:15:33Z</time>
      </trkpt>
      <trkpt lat="45.76678" lon="4.47683">
        <ele>577.6</ele>
        <time>2022-06-26T12:15:34Z</time>
      </trkpt>
      <trkpt lat="45.76671" lon="4.47688">
        <ele>577.2</ele>
        <time>2022-06-26T12:15:35Z</time>
      </trkpt>
      <trkpt lat="45.76663" lon="4.47691">
        <ele>577</ele>
        <time>2022-06-26T12:15:36Z</time>
      </trkpt>
      <trkpt lat="45.76655" lon="4.47694">
        <ele>576.8</ele>
        <time>2022-06-26T12:15:37Z</time>
      </trkpt>
      <trkpt lat="45.76648" lon="4.47695">
        <ele>576.6</ele>
        <time>2022-06-26T12:15:38Z</time>
      </trkpt>
      <trkpt lat="45.7664" lon="4.47697">
        <ele>576.6</ele>
        <time>2022-06-26T12:15:39Z</time>
      </trkpt>
      <trkpt lat="45.76633" lon="4.47698">
        <ele>576.6</ele>
        <time>2022-06-26T12:15:40Z</time>
      </trkpt>
      <trkpt lat="45.76626" lon="4.47699">
        <ele>576.6</ele>
        <time>2022-06-26T12:15:41Z</time>
      </trkpt>
      <trkpt lat="45.7662" lon="4.47701">
        <ele>576.6</ele>
        <time>2022-06-26T12:15:42Z</time>
      </trkpt>
      <trkpt lat="45.76613" lon="4.47702">
        <ele>576.6</ele>
        <time>2022-06-26T12:15:43Z</time>
      </trkpt>
      <trkpt lat="45.76607" lon="4.47704">
        <ele>576.6</ele>
        <time>2022-06-26T12:15:44Z</time>
      </trkpt>
      <trkpt lat="45.76602" lon="4.47707">
        <ele>576.6</ele>
        <time>2022-06-26T12:15:45Z</time>
      </trkpt>
      <trkpt lat="45.76597" lon="4.47711">
        <ele>576.6</ele>
        <time>2022-06-26T12:15:46Z</time>
      </trkpt>
      <trkpt lat="45.76592" lon="4.47715">
        <ele>576.8</ele>
        <time>2022-06-26T12:15:47Z</time>
      </trkpt>
      <trkpt lat="45.76588" lon="4.4772">
        <ele>576.8</ele>
        <time>2022-06-26T12:15:48Z</time>
      </trkpt>
      <trkpt lat="45.76585" lon="4.47725">
        <ele>576.8</ele>
        <time>2022-06-26T12:15:49Z</time>
      </trkpt>
      <trkpt lat="45.76582" lon="4.47729">
        <ele>577</ele>
        <time>2022-06-26T12:15:50Z</time>
      </trkpt>
      <trkpt lat="45.76579" lon="4.47733">
        <ele>577</ele>
        <time>2022-06-26T12:15:51Z</time>
      </trkpt>
      <trkpt lat="45.76576" lon="4.47737">
        <ele>577</ele>
        <time>2022-06-26T12:15:52Z</time>
      </trkpt>
      <trkpt lat="45.76573" lon="4.47741">
        <ele>577</ele>
        <time>2022-06-26T12:15:53Z</time>
      </trkpt>
      <trkpt lat="45.7657" lon="4.47745">
        <ele>577.2</ele>
        <time>2022-06-26T12:15:54Z</time>
      </trkpt>
      <trkpt lat="45.76568" lon="4.4775">
        <ele>577.2</ele>
        <time>2022-06-26T12:15:55Z</time>
      </trkpt>
      <trkpt lat="45.76565" lon="4.47755">
        <ele>577.2</ele>
        <time>2022-06-26T12:15:56Z</time>
      </trkpt>
      <trkpt lat="45.76561" lon="4.4776">
        <ele>577.2</ele>
        <time>2022-06-26T12:15:57Z</time>
      </trkpt>
      <trkpt lat="45.76558" lon="4.47766">
        <ele>577.2</ele>
        <time>2022-06-26T12:15:58Z</time>
      </trkpt>
      <trkpt lat="45.76555" lon="4.47772">
        <ele>577.2</ele>
        <time>2022-06-26T12:15:59Z</time>
      </trkpt>
      <trkpt lat="45.76552" lon="4.47779">
        <ele>577.2</ele>
        <time>2022-06-26T12:16:00Z</time>
      </trkpt>
      <trkpt lat="45.76548" lon="4.47786">
        <ele>577</ele>
        <time>2022-06-26T12:16:01Z</time>
      </trkpt>
      <trkpt lat="45.76545" lon="4.47793">
        <ele>577</ele>
        <time>2022-06-26T12:16:02Z</time>
      </trkpt>
      <trkpt lat="45.76542" lon="4.47801">
        <ele>576.6</ele>
        <time>2022-06-26T12:16:03Z</time>
      </trkpt>
      <trkpt lat="45.76539" lon="4.4781">
        <ele>576.4</ele>
        <time>2022-06-26T12:16:04Z</time>
      </trkpt>
      <trkpt lat="45.76535" lon="4.47819">
        <ele>576.4</ele>
        <time>2022-06-26T12:16:05Z</time>
      </trkpt>
      <trkpt lat="45.76532" lon="4.47827">
        <ele>576</ele>
        <time>2022-06-26T12:16:06Z</time>
      </trkpt>
      <trkpt lat="45.76528" lon="4.47836">
        <ele>575.6</ele>
        <time>2022-06-26T12:16:07Z</time>
      </trkpt>
      <trkpt lat="45.76524" lon="4.47844">
        <ele>575.6</ele>
        <time>2022-06-26T12:16:08Z</time>
      </trkpt>
      <trkpt lat="45.76519" lon="4.47851">
        <ele>575.2</ele>
        <time>2022-06-26T12:16:09Z</time>
      </trkpt>
      <trkpt lat="45.76514" lon="4.47858">
        <ele>575.2</ele>
        <time>2022-06-26T12:16:10Z</time>
      </trkpt>
      <trkpt lat="45.76509" lon="4.47864">
        <ele>575</ele>
        <time>2022-06-26T12:16:11Z</time>
      </trkpt>
      <trkpt lat="45.76503" lon="4.47869">
        <ele>575</ele>
        <time>2022-06-26T12:16:12Z</time>
      </trkpt>
      <trkpt lat="45.76498" lon="4.47874">
        <ele>575</ele>
        <time>2022-06-26T12:16:13Z</time>
      </trkpt>
      <trkpt lat="45.76492" lon="4.47878">
        <ele>575</ele>
        <time>2022-06-26T12:16:14Z</time>
      </trkpt>
      <trkpt lat="45.76486" lon="4.47881">
        <ele>575</ele>
        <time>2022-06-26T12:16:15Z</time>
      </trkpt>
      <trkpt lat="45.7648" lon="4.47884">
        <ele>575</ele>
        <time>2022-06-26T12:16:16Z</time>
      </trkpt>
      <trkpt lat="45.76474" lon="4.47887">
        <ele>575</ele>
        <time>2022-06-26T12:16:17Z</time>
      </trkpt>
      <trkpt lat="45.76469" lon="4.47889">
        <ele>574.8</ele>
        <time>2022-06-26T12:16:18Z</time>
      </trkpt>
      <trkpt lat="45.76463" lon="4.47891">
        <ele>574.8</ele>
        <time>2022-06-26T12:16:19Z</time>
      </trkpt>
      <trkpt lat="45.76457" lon="4.47893">
        <ele>574.8</ele>
        <time>2022-06-26T12:16:20Z</time>
      </trkpt>
      <trkpt lat="45.76452" lon="4.47896">
        <ele>574.8</ele>
        <time>2022-06-26T12:16:21Z</time>
      </trkpt>
      <trkpt lat="45.76446" lon="4.47898">
        <ele>575.2</ele>
        <time>2022-06-26T12:16:22Z</time>
      </trkpt>
      <trkpt lat="45.76441" lon="4.47901">
        <ele>575.2</ele>
        <time>2022-06-26T12:16:23Z</time>
      </trkpt>
      <trkpt lat="45.76436" lon="4.47905">
        <ele>575.2</ele>
        <time>2022-06-26T12:16:24Z</time>
      </trkpt>
      <trkpt lat="45.76432" lon="4.47909">
        <ele>575.2</ele>
        <time>2022-06-26T12:16:25Z</time>
      </trkpt>
      <trkpt lat="45.76428" lon="4.47913">
        <ele>575.4</ele>
        <time>2022-06-26T12:16:26Z</time>
      </trkpt>
      <trkpt lat="45.76424" lon="4.47919">
        <ele>575.4</ele>
        <time>2022-06-26T12:16:27Z</time>
      </trkpt>
      <trkpt lat="45.7642" lon="4.47924">
        <ele>575.4</ele>
        <time>2022-06-26T12:16:28Z</time>
      </trkpt>
      <trkpt lat="45.76416" lon="4.4793">
        <ele>575.4</ele>
        <time>2022-06-26T12:16:29Z</time>
      </trkpt>
      <trkpt lat="45.76413" lon="4.47937">
        <ele>575.4</ele>
        <time>2022-06-26T12:16:30Z</time>
      </trkpt>
      <trkpt lat="45.76411" lon="4.47945">
        <ele>575.4</ele>
        <time>2022-06-26T12:16:31Z</time>
      </trkpt>
      <trkpt lat="45.76409" lon="4.47953">
        <ele>575</ele>
        <time>2022-06-26T12:16:32Z</time>
      </trkpt>
      <trkpt lat="45.76408" lon="4.47962">
        <ele>575</ele>
        <time>2022-06-26T12:16:33Z</time>
      </trkpt>
      <trkpt lat="45.76408" lon="4.47971">
        <ele>575</ele>
        <time>2022-06-26T12:16:34Z</time>
      </trkpt>
      <trkpt lat="45.76408" lon="4.47979">
        <ele>575</ele>
        <time>2022-06-26T12:16:35Z</time>
      </trkpt>
      <trkpt lat="45.76409" lon="4.47988">
        <ele>574.8</ele>
        <time>2022-06-26T12:16:36Z</time>
      </trkpt>
      <trkpt lat="45.76411" lon="4.47997">
        <ele>574.8</ele>
        <time>2022-06-26T12:16:37Z</time>
      </trkpt>
      <trkpt lat="45.76412" lon="4.48006">
        <ele>574.6</ele>
        <time>2022-06-26T12:16:38Z</time>
      </trkpt>
      <trkpt lat="45.76413" lon="4.48015">
        <ele>574.6</ele>
        <time>2022-06-26T12:16:39Z</time>
      </trkpt>
      <trkpt lat="45.76413" lon="4.48025">
        <ele>574.6</ele>
        <time>2022-06-26T12:16:40Z</time>
      </trkpt>
      <trkpt lat="45.76412" lon="4.48034">
        <ele>574.6</ele>
        <time>2022-06-26T12:16:41Z</time>
      </trkpt>
      <trkpt lat="45.7641" lon="4.48044">
        <ele>574.2</ele>
        <time>2022-06-26T12:16:42Z</time>
      </trkpt>
      <trkpt lat="45.76408" lon="4.48052">
        <ele>574.2</ele>
        <time>2022-06-26T12:16:43Z</time>
      </trkpt>
      <trkpt lat="45.76404" lon="4.48061">
        <ele>574.2</ele>
        <time>2022-06-26T12:16:44Z</time>
      </trkpt>
      <trkpt lat="45.76399" lon="4.48068">
        <ele>574.2</ele>
        <time>2022-06-26T12:16:45Z</time>
      </trkpt>
      <trkpt lat="45.76394" lon="4.48074">
        <ele>574.2</ele>
        <time>2022-06-26T12:16:46Z</time>
      </trkpt>
      <trkpt lat="45.76389" lon="4.4808">
        <ele>574</ele>
        <time>2022-06-26T12:16:47Z</time>
      </trkpt>
      <trkpt lat="45.76383" lon="4.48085">
        <ele>574</ele>
        <time>2022-06-26T12:16:48Z</time>
      </trkpt>
      <trkpt lat="45.76377" lon="4.48088">
        <ele>574</ele>
        <time>2022-06-26T12:16:49Z</time>
      </trkpt>
      <trkpt lat="45.76371" lon="4.48091">
        <ele>574</ele>
        <time>2022-06-26T12:16:50Z</time>
      </trkpt>
      <trkpt lat="45.76364" lon="4.48094">
        <ele>574</ele>
        <time>2022-06-26T12:16:51Z</time>
      </trkpt>
      <trkpt lat="45.76357" lon="4.48097">
        <ele>574.2</ele>
        <time>2022-06-26T12:16:52Z</time>
      </trkpt>
      <trkpt lat="45.76351" lon="4.481">
        <ele>574.2</ele>
        <time>2022-06-26T12:16:53Z</time>
      </trkpt>
      <trkpt lat="45.76345" lon="4.48103">
        <ele>574.2</ele>
        <time>2022-06-26T12:16:54Z</time>
      </trkpt>
      <trkpt lat="45.76339" lon="4.48105">
        <ele>574.2</ele>
        <time>2022-06-26T12:16:55Z</time>
      </trkpt>
      <trkpt lat="45.76334" lon="4.48108">
        <ele>574.2</ele>
        <time>2022-06-26T12:16:56Z</time>
      </trkpt>
      <trkpt lat="45.76328" lon="4.48111">
        <ele>574.2</ele>
        <time>2022-06-26T12:16:57Z</time>
      </trkpt>
      <trkpt lat="45.76322" lon="4.48114">
        <ele>574.2</ele>
        <time>2022-06-26T12:16:58Z</time>
      </trkpt>
      <trkpt lat="45.76316" lon="4.48116">
        <ele>574.2</ele>
        <time>2022-06-26T12:16:59Z</time>
      </trkpt>
      <trkpt lat="45.7631" lon="4.48119">
        <ele>574.2</ele>
        <time>2022-06-26T12:17:00Z</time>
      </trkpt>
      <trkpt lat="45.76304" lon="4.48122">
        <ele>574.2</ele>
        <time>2022-06-26T12:17:01Z</time>
      </trkpt>
      <trkpt lat="45.76298" lon="4.48125">
        <ele>574.2</ele>
        <time>2022-06-26T12:17:02Z</time>
      </trkpt>
      <trkpt lat="45.76292" lon="4.48127">
        <ele>574.2</ele>
        <time>2022-06-26T12:17:03Z</time>
      </trkpt>
      <trkpt lat="45.76285" lon="4.48128">
        <ele>574.2</ele>
        <time>2022-06-26T12:17:04Z</time>
      </trkpt>
      <trkpt lat="45.76279" lon="4.48128">
        <ele>574.2</ele>
        <time>2022-06-26T12:17:05Z</time>
      </trkpt>
      <trkpt lat="45.76273" lon="4.48128">
        <ele>574.2</ele>
        <time>2022-06-26T12:17:06Z</time>
      </trkpt>
      <trkpt lat="45.76267" lon="4.48127">
        <ele>574.2</ele>
        <time>2022-06-26T12:17:07Z</time>
      </trkpt>
      <trkpt lat="45.76261" lon="4.48126">
        <ele>574.2</ele>
        <time>2022-06-26T12:17:08Z</time>
      </trkpt>
      <trkpt lat="45.76255" lon="4.48125">
        <ele>574.6</ele>
        <time>2022-06-26T12:17:09Z</time>
      </trkpt>
      <trkpt lat="45.76249" lon="4.48125">
        <ele>574.6</ele>
        <time>2022-06-26T12:17:10Z</time>
      </trkpt>
      <trkpt lat="45.76243" lon="4.48125">
        <ele>574.6</ele>
        <time>2022-06-26T12:17:11Z</time>
      </trkpt>
      <trkpt lat="45.76237" lon="4.48125">
        <ele>574.6</ele>
        <time>2022-06-26T12:17:12Z</time>
      </trkpt>
      <trkpt lat="45.76231" lon="4.48124">
        <ele>574.8</ele>
        <time>2022-06-26T12:17:13Z</time>
      </trkpt>
      <trkpt lat="45.76225" lon="4.48124">
        <ele>574.8</ele>
        <time>2022-06-26T12:17:14Z</time>
      </trkpt>
      <trkpt lat="45.76219" lon="4.48123">
        <ele>575</ele>
        <time>2022-06-26T12:17:15Z</time>
      </trkpt>
      <trkpt lat="45.76213" lon="4.48122">
        <ele>575</ele>
        <time>2022-06-26T12:17:16Z</time>
      </trkpt>
      <trkpt lat="45.76208" lon="4.4812">
        <ele>575</ele>
        <time>2022-06-26T12:17:17Z</time>
      </trkpt>
      <trkpt lat="45.76202" lon="4.48119">
        <ele>575</ele>
        <time>2022-06-26T12:17:18Z</time>
      </trkpt>
      <trkpt lat="45.76196" lon="4.48118">
        <ele>575.2</ele>
        <time>2022-06-26T12:17:19Z</time>
      </trkpt>
      <trkpt lat="45.76191" lon="4.48117">
        <ele>575.2</ele>
        <time>2022-06-26T12:17:20Z</time>
      </trkpt>
      <trkpt lat="45.76185" lon="4.48115">
        <ele>575.4</ele>
        <time>2022-06-26T12:17:21Z</time>
      </trkpt>
      <trkpt lat="45.7618" lon="4.48114">
        <ele>575.4</ele>
        <time>2022-06-26T12:17:22Z</time>
      </trkpt>
      <trkpt lat="45.76174" lon="4.48113">
        <ele>575.4</ele>
        <time>2022-06-26T12:17:23Z</time>
      </trkpt>
      <trkpt lat="45.76169" lon="4.48111">
        <ele>575.4</ele>
        <time>2022-06-26T12:17:24Z</time>
      </trkpt>
      <trkpt lat="45.76163" lon="4.4811">
        <ele>575.8</ele>
        <time>2022-06-26T12:17:25Z</time>
      </trkpt>
      <trkpt lat="45.76158" lon="4.48109">
        <ele>575.8</ele>
        <time>2022-06-26T12:17:26Z</time>
      </trkpt>
      <trkpt lat="45.76152" lon="4.48109">
        <ele>576</ele>
        <time>2022-06-26T12:17:27Z</time>
      </trkpt>
      <trkpt lat="45.76147" lon="4.48109">
        <ele>576</ele>
        <time>2022-06-26T12:17:28Z</time>
      </trkpt>
      <trkpt lat="45.76142" lon="4.48109">
        <ele>576</ele>
        <time>2022-06-26T12:17:29Z</time>
      </trkpt>
      <trkpt lat="45.76136" lon="4.48111">
        <ele>576.4</ele>
        <time>2022-06-26T12:17:30Z</time>
      </trkpt>
      <trkpt lat="45.76131" lon="4.48113">
        <ele>576.4</ele>
        <time>2022-06-26T12:17:31Z</time>
      </trkpt>
      <trkpt lat="45.76126" lon="4.48115">
        <ele>576.4</ele>
        <time>2022-06-26T12:17:32Z</time>
      </trkpt>
      <trkpt lat="45.7612" lon="4.48117">
        <ele>576.4</ele>
        <time>2022-06-26T12:17:33Z</time>
      </trkpt>
      <trkpt lat="45.76115" lon="4.4812">
        <ele>576.6</ele>
        <time>2022-06-26T12:17:34Z</time>
      </trkpt>
      <trkpt lat="45.76109" lon="4.48123">
        <ele>576.6</ele>
        <time>2022-06-26T12:17:35Z</time>
      </trkpt>
      <trkpt lat="45.76104" lon="4.48126">
        <ele>576.6</ele>
        <time>2022-06-26T12:17:36Z</time>
      </trkpt>
      <trkpt lat="45.76099" lon="4.4813">
        <ele>576.6</ele>
        <time>2022-06-26T12:17:37Z</time>
      </trkpt>
      <trkpt lat="45.76094" lon="4.48133">
        <ele>576.8</ele>
        <time>2022-06-26T12:17:38Z</time>
      </trkpt>
      <trkpt lat="45.76089" lon="4.48137">
        <ele>576.8</ele>
        <time>2022-06-26T12:17:39Z</time>
      </trkpt>
      <trkpt lat="45.76084" lon="4.48141">
        <ele>576.8</ele>
        <time>2022-06-26T12:17:40Z</time>
      </trkpt>
      <trkpt lat="45.76078" lon="4.48145">
        <ele>576.8</ele>
        <time>2022-06-26T12:17:41Z</time>
      </trkpt>
      <trkpt lat="45.76073" lon="4.48149">
        <ele>576.8</ele>
        <time>2022-06-26T12:17:42Z</time>
      </trkpt>
      <trkpt lat="45.76068" lon="4.48153">
        <ele>576.8</ele>
        <time>2022-06-26T12:17:43Z</time>
      </trkpt>
      <trkpt lat="45.76063" lon="4.48157">
        <ele>576.8</ele>
        <time>2022-06-26T12:17:44Z</time>
      </trkpt>
      <trkpt lat="45.76058" lon="4.48161">
        <ele>576.8</ele>
        <time>2022-06-26T12:17:45Z</time>
      </trkpt>
      <trkpt lat="45.76053" lon="4.48165">
        <ele>576.8</ele>
        <time>2022-06-26T12:17:46Z</time>
      </trkpt>
      <trkpt lat="45.76048" lon="4.48168">
        <ele>576.8</ele>
        <time>2022-06-26T12:17:47Z</time>
      </trkpt>
      <trkpt lat="45.76043" lon="4.48172">
        <ele>577</ele>
        <time>2022-06-26T12:17:48Z</time>
      </trkpt>
      <trkpt lat="45.76038" lon="4.48176">
        <ele>577</ele>
        <time>2022-06-26T12:17:49Z</time>
      </trkpt>
      <trkpt lat="45.76033" lon="4.4818">
        <ele>577</ele>
        <time>2022-06-26T12:17:50Z</time>
      </trkpt>
      <trkpt lat="45.76028" lon="4.48184">
        <ele>577</ele>
        <time>2022-06-26T12:17:51Z</time>
      </trkpt>
      <trkpt lat="45.76023" lon="4.48188">
        <ele>577</ele>
        <time>2022-06-26T12:17:52Z</time>
      </trkpt>
      <trkpt lat="45.76018" lon="4.48192">
        <ele>577</ele>
        <time>2022-06-26T12:17:53Z</time>
      </trkpt>
      <trkpt lat="45.76013" lon="4.48197">
        <ele>577</ele>
        <time>2022-06-26T12:17:54Z</time>
      </trkpt>
      <trkpt lat="45.76008" lon="4.48202">
        <ele>577</ele>
        <time>2022-06-26T12:17:55Z</time>
      </trkpt>
      <trkpt lat="45.76003" lon="4.48208">
        <ele>577</ele>
        <time>2022-06-26T12:17:56Z</time>
      </trkpt>
      <trkpt lat="45.75999" lon="4.48214">
        <ele>577</ele>
        <time>2022-06-26T12:17:57Z</time>
      </trkpt>
      <trkpt lat="45.75995" lon="4.48221">
        <ele>577</ele>
        <time>2022-06-26T12:17:58Z</time>
      </trkpt>
      <trkpt lat="45.75991" lon="4.48229">
        <ele>576.8</ele>
        <time>2022-06-26T12:17:59Z</time>
      </trkpt>
      <trkpt lat="45.75987" lon="4.48236">
        <ele>576.8</ele>
        <time>2022-06-26T12:18:00Z</time>
      </trkpt>
      <trkpt lat="45.75984" lon="4.48245">
        <ele>576.4</ele>
        <time>2022-06-26T12:18:01Z</time>
      </trkpt>
      <trkpt lat="45.75981" lon="4.48254">
        <ele>576.4</ele>
        <time>2022-06-26T12:18:02Z</time>
      </trkpt>
      <trkpt lat="45.75978" lon="4.48262">
        <ele>576.2</ele>
        <time>2022-06-26T12:18:03Z</time>
      </trkpt>
      <trkpt lat="45.75976" lon="4.48271">
        <ele>576.2</ele>
        <time>2022-06-26T12:18:04Z</time>
      </trkpt>
      <trkpt lat="45.75973" lon="4.4828">
        <ele>576</ele>
        <time>2022-06-26T12:18:05Z</time>
      </trkpt>
      <trkpt lat="45.75972" lon="4.4829">
        <ele>576</ele>
        <time>2022-06-26T12:18:06Z</time>
      </trkpt>
      <trkpt lat="45.75971" lon="4.48299">
        <ele>576</ele>
        <time>2022-06-26T12:18:07Z</time>
      </trkpt>
      <trkpt lat="45.7597" lon="4.4831">
        <ele>575.6</ele>
        <time>2022-06-26T12:18:08Z</time>
      </trkpt>
      <trkpt lat="45.75971" lon="4.4832">
        <ele>575.6</ele>
        <time>2022-06-26T12:18:09Z</time>
      </trkpt>
      <trkpt lat="45.75971" lon="4.4833">
        <ele>575.6</ele>
        <time>2022-06-26T12:18:10Z</time>
      </trkpt>
      <trkpt lat="45.75972" lon="4.48341">
        <ele>575.4</ele>
        <time>2022-06-26T12:18:11Z</time>
      </trkpt>
      <trkpt lat="45.75972" lon="4.48351">
        <ele>575.4</ele>
        <time>2022-06-26T12:18:12Z</time>
      </trkpt>
      <trkpt lat="45.75972" lon="4.48361">
        <ele>575.2</ele>
        <time>2022-06-26T12:18:13Z</time>
      </trkpt>
      <trkpt lat="45.75972" lon="4.48372">
        <ele>575.2</ele>
        <time>2022-06-26T12:18:14Z</time>
      </trkpt>
      <trkpt lat="45.7597" lon="4.48382">
        <ele>574.8</ele>
        <time>2022-06-26T12:18:15Z</time>
      </trkpt>
      <trkpt lat="45.75968" lon="4.48392">
        <ele>574.8</ele>
        <time>2022-06-26T12:18:16Z</time>
      </trkpt>
      <trkpt lat="45.75966" lon="4.48402">
        <ele>574.6</ele>
        <time>2022-06-26T12:18:17Z</time>
      </trkpt>
      <trkpt lat="45.75964" lon="4.48412">
        <ele>574.6</ele>
        <time>2022-06-26T12:18:18Z</time>
      </trkpt>
      <trkpt lat="45.75961" lon="4.48421">
        <ele>574.2</ele>
        <time>2022-06-26T12:18:19Z</time>
      </trkpt>
      <trkpt lat="45.75958" lon="4.48431">
        <ele>574</ele>
        <time>2022-06-26T12:18:20Z</time>
      </trkpt>
      <trkpt lat="45.75956" lon="4.48441">
        <ele>574</ele>
        <time>2022-06-26T12:18:21Z</time>
      </trkpt>
      <trkpt lat="45.75953" lon="4.48451">
        <ele>573.8</ele>
        <time>2022-06-26T12:18:22Z</time>
      </trkpt>
      <trkpt lat="45.75951" lon="4.48461">
        <ele>573.6</ele>
        <time>2022-06-26T12:18:23Z</time>
      </trkpt>
      <trkpt lat="45.7595" lon="4.48471">
        <ele>573.6</ele>
        <time>2022-06-26T12:18:24Z</time>
      </trkpt>
      <trkpt lat="45.75949" lon="4.48482">
        <ele>573.2</ele>
        <time>2022-06-26T12:18:25Z</time>
      </trkpt>
      <trkpt lat="45.75947" lon="4.48492">
        <ele>572.8</ele>
        <time>2022-06-26T12:18:26Z</time>
      </trkpt>
      <trkpt lat="45.75946" lon="4.48503">
        <ele>572.6</ele>
        <time>2022-06-26T12:18:27Z</time>
      </trkpt>
      <trkpt lat="45.75945" lon="4.48514">
        <ele>572.4</ele>
        <time>2022-06-26T12:18:28Z</time>
      </trkpt>
      <trkpt lat="45.75943" lon="4.48525">
        <ele>572</ele>
        <time>2022-06-26T12:18:29Z</time>
      </trkpt>
      <trkpt lat="45.75942" lon="4.48536">
        <ele>571.8</ele>
        <time>2022-06-26T12:18:30Z</time>
      </trkpt>
      <trkpt lat="45.7594" lon="4.48547">
        <ele>571.4</ele>
        <time>2022-06-26T12:18:31Z</time>
      </trkpt>
      <trkpt lat="45.75939" lon="4.48559">
        <ele>571.2</ele>
        <time>2022-06-26T12:18:32Z</time>
      </trkpt>
      <trkpt lat="45.75938" lon="4.4857">
        <ele>570.8</ele>
        <time>2022-06-26T12:18:33Z</time>
      </trkpt>
      <trkpt lat="45.75937" lon="4.48581">
        <ele>570.8</ele>
        <time>2022-06-26T12:18:34Z</time>
      </trkpt>
      <trkpt lat="45.75936" lon="4.48592">
        <ele>570.4</ele>
        <time>2022-06-26T12:18:35Z</time>
      </trkpt>
      <trkpt lat="45.75936" lon="4.48604">
        <ele>570.2</ele>
        <time>2022-06-26T12:18:36Z</time>
      </trkpt>
      <trkpt lat="45.75936" lon="4.48615">
        <ele>569.8</ele>
        <time>2022-06-26T12:18:37Z</time>
      </trkpt>
      <trkpt lat="45.75937" lon="4.48626">
        <ele>569.6</ele>
        <time>2022-06-26T12:18:38Z</time>
      </trkpt>
      <trkpt lat="45.7594" lon="4.48637">
        <ele>569</ele>
        <time>2022-06-26T12:18:39Z</time>
      </trkpt>
      <trkpt lat="45.75943" lon="4.48648">
        <ele>568.6</ele>
        <time>2022-06-26T12:18:40Z</time>
      </trkpt>
      <trkpt lat="45.75946" lon="4.48659">
        <ele>568.4</ele>
        <time>2022-06-26T12:18:41Z</time>
      </trkpt>
      <trkpt lat="45.75949" lon="4.4867">
        <ele>568</ele>
        <time>2022-06-26T12:18:42Z</time>
      </trkpt>
      <trkpt lat="45.75952" lon="4.48681">
        <ele>567.6</ele>
        <time>2022-06-26T12:18:43Z</time>
      </trkpt>
      <trkpt lat="45.75956" lon="4.48693">
        <ele>567.4</ele>
        <time>2022-06-26T12:18:44Z</time>
      </trkpt>
      <trkpt lat="45.75958" lon="4.48705">
        <ele>566.8</ele>
        <time>2022-06-26T12:18:45Z</time>
      </trkpt>
      <trkpt lat="45.7596" lon="4.48717">
        <ele>566.6</ele>
        <time>2022-06-26T12:18:46Z</time>
      </trkpt>
      <trkpt lat="45.75961" lon="4.4873">
        <ele>566.2</ele>
        <time>2022-06-26T12:18:47Z</time>
      </trkpt>
      <trkpt lat="45.7596" lon="4.48742">
        <ele>565.8</ele>
        <time>2022-06-26T12:18:48Z</time>
      </trkpt>
      <trkpt lat="45.75959" lon="4.48755">
        <ele>565.6</ele>
        <time>2022-06-26T12:18:49Z</time>
      </trkpt>
      <trkpt lat="45.75957" lon="4.48767">
        <ele>565.2</ele>
        <time>2022-06-26T12:18:50Z</time>
      </trkpt>
      <trkpt lat="45.75954" lon="4.48779">
        <ele>564.8</ele>
        <time>2022-06-26T12:18:51Z</time>
      </trkpt>
      <trkpt lat="45.7595" lon="4.4879">
        <ele>564.4</ele>
        <time>2022-06-26T12:18:52Z</time>
      </trkpt>
      <trkpt lat="45.75945" lon="4.48801">
        <ele>564.2</ele>
        <time>2022-06-26T12:18:53Z</time>
      </trkpt>
      <trkpt lat="45.75941" lon="4.48812">
        <ele>564</ele>
        <time>2022-06-26T12:18:54Z</time>
      </trkpt>
      <trkpt lat="45.75937" lon="4.48824">
        <ele>563.6</ele>
        <time>2022-06-26T12:18:55Z</time>
      </trkpt>
      <trkpt lat="45.75934" lon="4.48835">
        <ele>563.4</ele>
        <time>2022-06-26T12:18:56Z</time>
      </trkpt>
      <trkpt lat="45.75931" lon="4.48847">
        <ele>563</ele>
        <time>2022-06-26T12:18:57Z</time>
      </trkpt>
      <trkpt lat="45.75929" lon="4.48859">
        <ele>562.8</ele>
        <time>2022-06-26T12:18:58Z</time>
      </trkpt>
      <trkpt lat="45.75927" lon="4.48872">
        <ele>562.4</ele>
        <time>2022-06-26T12:18:59Z</time>
      </trkpt>
      <trkpt lat="45.75925" lon="4.48884">
        <ele>562.4</ele>
        <time>2022-06-26T12:19:00Z</time>
      </trkpt>
      <trkpt lat="45.75923" lon="4.48896">
        <ele>562.2</ele>
        <time>2022-06-26T12:19:01Z</time>
      </trkpt>
      <trkpt lat="45.75921" lon="4.48909">
        <ele>562.2</ele>
        <time>2022-06-26T12:19:02Z</time>
      </trkpt>
      <trkpt lat="45.7592" lon="4.48921">
        <ele>562.2</ele>
        <time>2022-06-26T12:19:03Z</time>
      </trkpt>
      <trkpt lat="45.7592" lon="4.48934">
        <ele>562</ele>
        <time>2022-06-26T12:19:04Z</time>
      </trkpt>
      <trkpt lat="45.75919" lon="4.48946">
        <ele>561.6</ele>
        <time>2022-06-26T12:19:05Z</time>
      </trkpt>
      <trkpt lat="45.75919" lon="4.48959">
        <ele>561.2</ele>
        <time>2022-06-26T12:19:06Z</time>
      </trkpt>
      <trkpt lat="45.75919" lon="4.48972">
        <ele>560.6</ele>
        <time>2022-06-26T12:19:07Z</time>
      </trkpt>
      <trkpt lat="45.75919" lon="4.48985">
        <ele>560.6</ele>
        <time>2022-06-26T12:19:08Z</time>
      </trkpt>
      <trkpt lat="45.75919" lon="4.48999">
        <ele>560.2</ele>
        <time>2022-06-26T12:19:09Z</time>
      </trkpt>
      <trkpt lat="45.75917" lon="4.49012">
        <ele>560.2</ele>
        <time>2022-06-26T12:19:10Z</time>
      </trkpt>
      <trkpt lat="45.75916" lon="4.49024">
        <ele>559.8</ele>
        <time>2022-06-26T12:19:11Z</time>
      </trkpt>
      <trkpt lat="45.75914" lon="4.49037">
        <ele>559.8</ele>
        <time>2022-06-26T12:19:12Z</time>
      </trkpt>
      <trkpt lat="45.75912" lon="4.49049">
        <ele>559.2</ele>
        <time>2022-06-26T12:19:13Z</time>
      </trkpt>
      <trkpt lat="45.75909" lon="4.49063">
        <ele>558.8</ele>
        <time>2022-06-26T12:19:14Z</time>
      </trkpt>
      <trkpt lat="45.75906" lon="4.49075">
        <ele>558.8</ele>
        <time>2022-06-26T12:19:15Z</time>
      </trkpt>
      <trkpt lat="45.75904" lon="4.49088">
        <ele>558.4</ele>
        <time>2022-06-26T12:19:16Z</time>
      </trkpt>
      <trkpt lat="45.75901" lon="4.49101">
        <ele>558</ele>
        <time>2022-06-26T12:19:17Z</time>
      </trkpt>
      <trkpt lat="45.75899" lon="4.49114">
        <ele>557.6</ele>
        <time>2022-06-26T12:19:18Z</time>
      </trkpt>
      <trkpt lat="45.75895" lon="4.49126">
        <ele>557.2</ele>
        <time>2022-06-26T12:19:19Z</time>
      </trkpt>
      <trkpt lat="45.7589" lon="4.49138">
        <ele>556.6</ele>
        <time>2022-06-26T12:19:20Z</time>
      </trkpt>
      <trkpt lat="45.75884" lon="4.4915">
        <ele>556</ele>
        <time>2022-06-26T12:19:21Z</time>
      </trkpt>
      <trkpt lat="45.75878" lon="4.4916">
        <ele>555.4</ele>
        <time>2022-06-26T12:19:22Z</time>
      </trkpt>
      <trkpt lat="45.75871" lon="4.4917">
        <ele>555</ele>
        <time>2022-06-26T12:19:23Z</time>
      </trkpt>
      <trkpt lat="45.75865" lon="4.4918">
        <ele>554.6</ele>
        <time>2022-06-26T12:19:24Z</time>
      </trkpt>
      <trkpt lat="45.75859" lon="4.49189">
        <ele>554.2</ele>
        <time>2022-06-26T12:19:25Z</time>
      </trkpt>
      <trkpt lat="45.75852" lon="4.49199">
        <ele>554</ele>
        <time>2022-06-26T12:19:26Z</time>
      </trkpt>
      <trkpt lat="45.75845" lon="4.49207">
        <ele>553.4</ele>
        <time>2022-06-26T12:19:27Z</time>
      </trkpt>
      <trkpt lat="45.75838" lon="4.49217">
        <ele>552.8</ele>
        <time>2022-06-26T12:19:28Z</time>
      </trkpt>
      <trkpt lat="45.75832" lon="4.49227">
        <ele>552.4</ele>
        <time>2022-06-26T12:19:29Z</time>
      </trkpt>
      <trkpt lat="45.75826" lon="4.49238">
        <ele>552</ele>
        <time>2022-06-26T12:19:30Z</time>
      </trkpt>
      <trkpt lat="45.7582" lon="4.49247">
        <ele>551.6</ele>
        <time>2022-06-26T12:19:31Z</time>
      </trkpt>
      <trkpt lat="45.75814" lon="4.49257">
        <ele>551</ele>
        <time>2022-06-26T12:19:32Z</time>
      </trkpt>
      <trkpt lat="45.75807" lon="4.49267">
        <ele>551</ele>
        <time>2022-06-26T12:19:33Z</time>
      </trkpt>
      <trkpt lat="45.75801" lon="4.49277">
        <ele>550.8</ele>
        <time>2022-06-26T12:19:34Z</time>
      </trkpt>
      <trkpt lat="45.75796" lon="4.49285">
        <ele>550.6</ele>
        <time>2022-06-26T12:19:35Z</time>
      </trkpt>
      <trkpt lat="45.7579" lon="4.49294">
        <ele>550.2</ele>
        <time>2022-06-26T12:19:36Z</time>
      </trkpt>
      <trkpt lat="45.75785" lon="4.49303">
        <ele>549.8</ele>
        <time>2022-06-26T12:19:37Z</time>
      </trkpt>
      <trkpt lat="45.7578" lon="4.49311">
        <ele>549.4</ele>
        <time>2022-06-26T12:19:38Z</time>
      </trkpt>
      <trkpt lat="45.75775" lon="4.4932">
        <ele>549.2</ele>
        <time>2022-06-26T12:19:39Z</time>
      </trkpt>
      <trkpt lat="45.75771" lon="4.49328">
        <ele>549.2</ele>
        <time>2022-06-26T12:19:40Z</time>
      </trkpt>
      <trkpt lat="45.75766" lon="4.49335">
        <ele>549</ele>
        <time>2022-06-26T12:19:41Z</time>
      </trkpt>
      <trkpt lat="45.75762" lon="4.49342">
        <ele>549</ele>
        <time>2022-06-26T12:19:42Z</time>
      </trkpt>
      <trkpt lat="45.75759" lon="4.49349">
        <ele>548.6</ele>
        <time>2022-06-26T12:19:43Z</time>
      </trkpt>
      <trkpt lat="45.75755" lon="4.49355">
        <ele>548.4</ele>
        <time>2022-06-26T12:19:44Z</time>
      </trkpt>
      <trkpt lat="45.75752" lon="4.4936">
        <ele>548.2</ele>
        <time>2022-06-26T12:19:45Z</time>
      </trkpt>
      <trkpt lat="45.7575" lon="4.49365">
        <ele>548</ele>
        <time>2022-06-26T12:19:46Z</time>
      </trkpt>
      <trkpt lat="45.75747" lon="4.49369">
        <ele>547.8</ele>
        <time>2022-06-26T12:19:47Z</time>
      </trkpt>
      <trkpt lat="45.75745" lon="4.49372">
        <ele>547.4</ele>
        <time>2022-06-26T12:19:48Z</time>
      </trkpt>
      <trkpt lat="45.75744" lon="4.49374">
        <ele>547.2</ele>
        <time>2022-06-26T12:19:49Z</time>
      </trkpt>
      <trkpt lat="45.75742" lon="4.49376">
        <ele>547</ele>
        <time>2022-06-26T12:19:50Z</time>
      </trkpt>
      <trkpt lat="45.7574" lon="4.49378">
        <ele>547</ele>
        <time>2022-06-26T12:19:51Z</time>
      </trkpt>
      <trkpt lat="45.75738" lon="4.49379">
        <ele>546.6</ele>
        <time>2022-06-26T12:19:52Z</time>
      </trkpt>
      <trkpt lat="45.75736" lon="4.4938">
        <ele>546.4</ele>
        <time>2022-06-26T12:19:53Z</time>
      </trkpt>
      <trkpt lat="45.75734" lon="4.49381">
        <ele>546.4</ele>
        <time>2022-06-26T12:19:54Z</time>
      </trkpt>
      <trkpt lat="45.75732" lon="4.49382">
        <ele>546.4</ele>
        <time>2022-06-26T12:19:55Z</time>
      </trkpt>
      <trkpt lat="45.75729" lon="4.49383">
        <ele>546.2</ele>
        <time>2022-06-26T12:19:56Z</time>
      </trkpt>
      <trkpt lat="45.75728" lon="4.49386">
        <ele>546.2</ele>
        <time>2022-06-26T12:19:57Z</time>
      </trkpt>
      <trkpt lat="45.75726" lon="4.49388">
        <ele>546.2</ele>
        <time>2022-06-26T12:19:58Z</time>
      </trkpt>
      <trkpt lat="45.75723" lon="4.49391">
        <ele>546</ele>
        <time>2022-06-26T12:19:59Z</time>
      </trkpt>
      <trkpt lat="45.7572" lon="4.49394">
        <ele>546</ele>
        <time>2022-06-26T12:20:00Z</time>
      </trkpt>
      <trkpt lat="45.75716" lon="4.49398">
        <ele>546</ele>
        <time>2022-06-26T12:20:01Z</time>
      </trkpt>
      <trkpt lat="45.75712" lon="4.49402">
        <ele>545.6</ele>
        <time>2022-06-26T12:20:02Z</time>
      </trkpt>
      <trkpt lat="45.75708" lon="4.49405">
        <ele>545.4</ele>
        <time>2022-06-26T12:20:03Z</time>
      </trkpt>
      <trkpt lat="45.75704" lon="4.4941">
        <ele>545.2</ele>
        <time>2022-06-26T12:20:04Z</time>
      </trkpt>
      <trkpt lat="45.75699" lon="4.49416">
        <ele>545</ele>
        <time>2022-06-26T12:20:05Z</time>
      </trkpt>
      <trkpt lat="45.75694" lon="4.49422">
        <ele>544.8</ele>
        <time>2022-06-26T12:20:06Z</time>
      </trkpt>
      <trkpt lat="45.75689" lon="4.49428">
        <ele>544.4</ele>
        <time>2022-06-26T12:20:07Z</time>
      </trkpt>
      <trkpt lat="45.75684" lon="4.49434">
        <ele>544.2</ele>
        <time>2022-06-26T12:20:08Z</time>
      </trkpt>
      <trkpt lat="45.7568" lon="4.4944">
        <ele>543.6</ele>
        <time>2022-06-26T12:20:09Z</time>
      </trkpt>
      <trkpt lat="45.75675" lon="4.49448">
        <ele>543.2</ele>
        <time>2022-06-26T12:20:10Z</time>
      </trkpt>
      <trkpt lat="45.75671" lon="4.49456">
        <ele>542.6</ele>
        <time>2022-06-26T12:20:11Z</time>
      </trkpt>
      <trkpt lat="45.75667" lon="4.49464">
        <ele>542.2</ele>
        <time>2022-06-26T12:20:12Z</time>
      </trkpt>
      <trkpt lat="45.75664" lon="4.49473">
        <ele>541.4</ele>
        <time>2022-06-26T12:20:13Z</time>
      </trkpt>
      <trkpt lat="45.75661" lon="4.49482">
        <ele>540.8</ele>
        <time>2022-06-26T12:20:14Z</time>
      </trkpt>
      <trkpt lat="45.75659" lon="4.49491">
        <ele>539.8</ele>
        <time>2022-06-26T12:20:15Z</time>
      </trkpt>
      <trkpt lat="45.75657" lon="4.49501">
        <ele>539</ele>
        <time>2022-06-26T12:20:16Z</time>
      </trkpt>
      <trkpt lat="45.75655" lon="4.49511">
        <ele>538</ele>
        <time>2022-06-26T12:20:17Z</time>
      </trkpt>
      <trkpt lat="45.75654" lon="4.49522">
        <ele>537</ele>
        <time>2022-06-26T12:20:18Z</time>
      </trkpt>
      <trkpt lat="45.75654" lon="4.49532">
        <ele>536</ele>
        <time>2022-06-26T12:20:19Z</time>
      </trkpt>
      <trkpt lat="45.75654" lon="4.49543">
        <ele>535.2</ele>
        <time>2022-06-26T12:20:20Z</time>
      </trkpt>
      <trkpt lat="45.75654" lon="4.49554">
        <ele>534</ele>
        <time>2022-06-26T12:20:21Z</time>
      </trkpt>
      <trkpt lat="45.75655" lon="4.49564">
        <ele>533</ele>
        <time>2022-06-26T12:20:22Z</time>
      </trkpt>
      <trkpt lat="45.75656" lon="4.49575">
        <ele>531.8</ele>
        <time>2022-06-26T12:20:23Z</time>
      </trkpt>
      <trkpt lat="45.75657" lon="4.49585">
        <ele>530.8</ele>
        <time>2022-06-26T12:20:24Z</time>
      </trkpt>
      <trkpt lat="45.75659" lon="4.49595">
        <ele>530</ele>
        <time>2022-06-26T12:20:25Z</time>
      </trkpt>
      <trkpt lat="45.75661" lon="4.49605">
        <ele>529</ele>
        <time>2022-06-26T12:20:26Z</time>
      </trkpt>
      <trkpt lat="45.75664" lon="4.49615">
        <ele>528.2</ele>
        <time>2022-06-26T12:20:27Z</time>
      </trkpt>
      <trkpt lat="45.75667" lon="4.49626">
        <ele>527.4</ele>
        <time>2022-06-26T12:20:28Z</time>
      </trkpt>
      <trkpt lat="45.75672" lon="4.49636">
        <ele>526.4</ele>
        <time>2022-06-26T12:20:29Z</time>
      </trkpt>
      <trkpt lat="45.75677" lon="4.49645">
        <ele>525.4</ele>
        <time>2022-06-26T12:20:30Z</time>
      </trkpt>
      <trkpt lat="45.75683" lon="4.49654">
        <ele>524.4</ele>
        <time>2022-06-26T12:20:31Z</time>
      </trkpt>
      <trkpt lat="45.75689" lon="4.49662">
        <ele>523.4</ele>
        <time>2022-06-26T12:20:32Z</time>
      </trkpt>
      <trkpt lat="45.75695" lon="4.49671">
        <ele>522.4</ele>
        <time>2022-06-26T12:20:33Z</time>
      </trkpt>
      <trkpt lat="45.75701" lon="4.4968">
        <ele>521.2</ele>
        <time>2022-06-26T12:20:34Z</time>
      </trkpt>
      <trkpt lat="45.75707" lon="4.49689">
        <ele>520.4</ele>
        <time>2022-06-26T12:20:35Z</time>
      </trkpt>
      <trkpt lat="45.75714" lon="4.49698">
        <ele>519.2</ele>
        <time>2022-06-26T12:20:36Z</time>
      </trkpt>
      <trkpt lat="45.75722" lon="4.49707">
        <ele>518.2</ele>
        <time>2022-06-26T12:20:37Z</time>
      </trkpt>
      <trkpt lat="45.75729" lon="4.49714">
        <ele>517.4</ele>
        <time>2022-06-26T12:20:38Z</time>
      </trkpt>
      <trkpt lat="45.75735" lon="4.49721">
        <ele>516.4</ele>
        <time>2022-06-26T12:20:39Z</time>
      </trkpt>
      <trkpt lat="45.75742" lon="4.49727">
        <ele>515.8</ele>
        <time>2022-06-26T12:20:40Z</time>
      </trkpt>
      <trkpt lat="45.75748" lon="4.49732">
        <ele>515.2</ele>
        <time>2022-06-26T12:20:41Z</time>
      </trkpt>
      <trkpt lat="45.75753" lon="4.49736">
        <ele>514.4</ele>
        <time>2022-06-26T12:20:42Z</time>
      </trkpt>
      <trkpt lat="45.75758" lon="4.49739">
        <ele>513.8</ele>
        <time>2022-06-26T12:20:43Z</time>
      </trkpt>
      <trkpt lat="45.75762" lon="4.4974">
        <ele>513</ele>
        <time>2022-06-26T12:20:44Z</time>
      </trkpt>
      <trkpt lat="45.75765" lon="4.49742">
        <ele>512.2</ele>
        <time>2022-06-26T12:20:45Z</time>
      </trkpt>
      <trkpt lat="45.75767" lon="4.49744">
        <ele>511.6</ele>
        <time>2022-06-26T12:20:46Z</time>
      </trkpt>
      <trkpt lat="45.75769" lon="4.49747">
        <ele>511.2</ele>
        <time>2022-06-26T12:20:47Z</time>
      </trkpt>
      <trkpt lat="45.7577" lon="4.49748">
        <ele>510.8</ele>
        <time>2022-06-26T12:20:48Z</time>
      </trkpt>
      <trkpt lat="45.75771" lon="4.49749">
        <ele>510.4</ele>
        <time>2022-06-26T12:20:49Z</time>
      </trkpt>
      <trkpt lat="45.75771" lon="4.4975">
        <ele>510.2</ele>
        <time>2022-06-26T12:20:50Z</time>
      </trkpt>
      <trkpt lat="45.75766" lon="4.49754">
        <ele>509.4</ele>
        <time>2022-06-26T12:20:56Z</time>
      </trkpt>
      <trkpt lat="45.75763" lon="4.49755">
        <ele>509.4</ele>
        <time>2022-06-26T12:20:57Z</time>
      </trkpt>
      <trkpt lat="45.75759" lon="4.49755">
        <ele>509</ele>
        <time>2022-06-26T12:20:58Z</time>
      </trkpt>
      <trkpt lat="45.75755" lon="4.49755">
        <ele>509</ele>
        <time>2022-06-26T12:20:59Z</time>
      </trkpt>
      <trkpt lat="45.75749" lon="4.49754">
        <ele>508.6</ele>
        <time>2022-06-26T12:21:00Z</time>
      </trkpt>
      <trkpt lat="45.75743" lon="4.49754">
        <ele>508.2</ele>
        <time>2022-06-26T12:21:01Z</time>
      </trkpt>
      <trkpt lat="45.75737" lon="4.49753">
        <ele>507.8</ele>
        <time>2022-06-26T12:21:02Z</time>
      </trkpt>
      <trkpt lat="45.75731" lon="4.49753">
        <ele>507.4</ele>
        <time>2022-06-26T12:21:03Z</time>
      </trkpt>
      <trkpt lat="45.75725" lon="4.49752">
        <ele>506.8</ele>
        <time>2022-06-26T12:21:04Z</time>
      </trkpt>
      <trkpt lat="45.7572" lon="4.49752">
        <ele>506.2</ele>
        <time>2022-06-26T12:21:05Z</time>
      </trkpt>
      <trkpt lat="45.75716" lon="4.49752">
        <ele>505.6</ele>
        <time>2022-06-26T12:21:06Z</time>
      </trkpt>
      <trkpt lat="45.75712" lon="4.49752">
        <ele>505.2</ele>
        <time>2022-06-26T12:21:07Z</time>
      </trkpt>
      <trkpt lat="45.75709" lon="4.49751">
        <ele>504.8</ele>
        <time>2022-06-26T12:21:08Z</time>
      </trkpt>
      <trkpt lat="45.75707" lon="4.49751">
        <ele>504.4</ele>
        <time>2022-06-26T12:21:09Z</time>
      </trkpt>
      <trkpt lat="45.75705" lon="4.49751">
        <ele>504</ele>
        <time>2022-06-26T12:21:10Z</time>
      </trkpt>
      <trkpt lat="45.75712" lon="4.49752">
        <ele>503.8</ele>
        <time>2022-06-26T12:21:58Z</time>
      </trkpt>
      <trkpt lat="45.75714" lon="4.49752">
        <ele>504</ele>
        <time>2022-06-26T12:21:59Z</time>
      </trkpt>
      <trkpt lat="45.75716" lon="4.49752">
        <ele>504</ele>
        <time>2022-06-26T12:22:00Z</time>
      </trkpt>
      <trkpt lat="45.75718" lon="4.49752">
        <ele>504.2</ele>
        <time>2022-06-26T12:22:01Z</time>
      </trkpt>
      <trkpt lat="45.7572" lon="4.49752">
        <ele>504.2</ele>
        <time>2022-06-26T12:22:02Z</time>
      </trkpt>
      <trkpt lat="45.75721" lon="4.49752">
        <ele>504.6</ele>
        <time>2022-06-26T12:22:03Z</time>
      </trkpt>
      <trkpt lat="45.75723" lon="4.49752">
        <ele>504.8</ele>
        <time>2022-06-26T12:22:04Z</time>
      </trkpt>
      <trkpt lat="45.75725" lon="4.49752">
        <ele>505</ele>
        <time>2022-06-26T12:22:05Z</time>
      </trkpt>
      <trkpt lat="45.75728" lon="4.49753">
        <ele>505</ele>
        <time>2022-06-26T12:22:06Z</time>
      </trkpt>
      <trkpt lat="45.7573" lon="4.49753">
        <ele>505.4</ele>
        <time>2022-06-26T12:22:07Z</time>
      </trkpt>
      <trkpt lat="45.75732" lon="4.49753">
        <ele>505.6</ele>
        <time>2022-06-26T12:22:08Z</time>
      </trkpt>
      <trkpt lat="45.75734" lon="4.49754">
        <ele>506</ele>
        <time>2022-06-26T12:22:09Z</time>
      </trkpt>
      <trkpt lat="45.75736" lon="4.49753">
        <ele>506</ele>
        <time>2022-06-26T12:22:10Z</time>
      </trkpt>
      <trkpt lat="45.75738" lon="4.49753">
        <ele>506.4</ele>
        <time>2022-06-26T12:22:11Z</time>
      </trkpt>
      <trkpt lat="45.7574" lon="4.49754">
        <ele>506.6</ele>
        <time>2022-06-26T12:22:12Z</time>
      </trkpt>
      <trkpt lat="45.75742" lon="4.49754">
        <ele>506.8</ele>
        <time>2022-06-26T12:22:13Z</time>
      </trkpt>
      <trkpt lat="45.75744" lon="4.49754">
        <ele>506.8</ele>
        <time>2022-06-26T12:22:14Z</time>
      </trkpt>
      <trkpt lat="45.75746" lon="4.49754">
        <ele>507.2</ele>
        <time>2022-06-26T12:22:15Z</time>
      </trkpt>
      <trkpt lat="45.75748" lon="4.49754">
        <ele>507.2</ele>
        <time>2022-06-26T12:22:16Z</time>
      </trkpt>
      <trkpt lat="45.75751" lon="4.49754">
        <ele>507.6</ele>
        <time>2022-06-26T12:22:17Z</time>
      </trkpt>
      <trkpt lat="45.75753" lon="4.49753">
        <ele>507.8</ele>
        <time>2022-06-26T12:22:18Z</time>
      </trkpt>
      <trkpt lat="45.75755" lon="4.49753">
        <ele>507.8</ele>
        <time>2022-06-26T12:22:19Z</time>
      </trkpt>
      <trkpt lat="45.75757" lon="4.49753">
        <ele>508.2</ele>
        <time>2022-06-26T12:22:20Z</time>
      </trkpt>
      <trkpt lat="45.75759" lon="4.49753">
        <ele>508.6</ele>
        <time>2022-06-26T12:22:21Z</time>
      </trkpt>
      <trkpt lat="45.75761" lon="4.49753">
        <ele>508.8</ele>
        <time>2022-06-26T12:22:22Z</time>
      </trkpt>
      <trkpt lat="45.75764" lon="4.49752">
        <ele>509</ele>
        <time>2022-06-26T12:22:23Z</time>
      </trkpt>
      <trkpt lat="45.75766" lon="4.49752">
        <ele>509.2</ele>
        <time>2022-06-26T12:22:24Z</time>
      </trkpt>
      <trkpt lat="45.75768" lon="4.49751">
        <ele>509.2</ele>
        <time>2022-06-26T12:22:25Z</time>
      </trkpt>
      <trkpt lat="45.7577" lon="4.49751">
        <ele>509.6</ele>
        <time>2022-06-26T12:22:26Z</time>
      </trkpt>
      <trkpt lat="45.75772" lon="4.49751">
        <ele>509.8</ele>
        <time>2022-06-26T12:22:27Z</time>
      </trkpt>
      <trkpt lat="45.75775" lon="4.49752">
        <ele>509.8</ele>
        <time>2022-06-26T12:22:28Z</time>
      </trkpt>
      <trkpt lat="45.75778" lon="4.49753">
        <ele>509.8</ele>
        <time>2022-06-26T12:22:29Z</time>
      </trkpt>
      <trkpt lat="45.75781" lon="4.49754">
        <ele>509.8</ele>
        <time>2022-06-26T12:22:30Z</time>
      </trkpt>
      <trkpt lat="45.75784" lon="4.49756">
        <ele>509.8</ele>
        <time>2022-06-26T12:22:31Z</time>
      </trkpt>
      <trkpt lat="45.75787" lon="4.49759">
        <ele>509.8</ele>
        <time>2022-06-26T12:22:32Z</time>
      </trkpt>
      <trkpt lat="45.75789" lon="4.49763">
        <ele>509.8</ele>
        <time>2022-06-26T12:22:33Z</time>
      </trkpt>
      <trkpt lat="45.75791" lon="4.49767">
        <ele>510</ele>
        <time>2022-06-26T12:22:34Z</time>
      </trkpt>
      <trkpt lat="45.75793" lon="4.49771">
        <ele>510</ele>
        <time>2022-06-26T12:22:35Z</time>
      </trkpt>
      <trkpt lat="45.75794" lon="4.49775">
        <ele>510</ele>
        <time>2022-06-26T12:22:36Z</time>
      </trkpt>
      <trkpt lat="45.75794" lon="4.4978">
        <ele>510</ele>
        <time>2022-06-26T12:22:37Z</time>
      </trkpt>
      <trkpt lat="45.75792" lon="4.49785">
        <ele>510</ele>
        <time>2022-06-26T12:22:38Z</time>
      </trkpt>
      <trkpt lat="45.7579" lon="4.49789">
        <ele>510</ele>
        <time>2022-06-26T12:22:39Z</time>
      </trkpt>
      <trkpt lat="45.75786" lon="4.49794">
        <ele>509.8</ele>
        <time>2022-06-26T12:22:40Z</time>
      </trkpt>
      <trkpt lat="45.75782" lon="4.498">
        <ele>509.6</ele>
        <time>2022-06-26T12:22:41Z</time>
      </trkpt>
      <trkpt lat="45.75777" lon="4.49805">
        <ele>509.2</ele>
        <time>2022-06-26T12:22:42Z</time>
      </trkpt>
      <trkpt lat="45.75772" lon="4.49811">
        <ele>509</ele>
        <time>2022-06-26T12:22:43Z</time>
      </trkpt>
      <trkpt lat="45.75766" lon="4.49817">
        <ele>508.6</ele>
        <time>2022-06-26T12:22:44Z</time>
      </trkpt>
      <trkpt lat="45.7576" lon="4.49823">
        <ele>508.4</ele>
        <time>2022-06-26T12:22:45Z</time>
      </trkpt>
      <trkpt lat="45.75754" lon="4.4983">
        <ele>508</ele>
        <time>2022-06-26T12:22:46Z</time>
      </trkpt>
      <trkpt lat="45.75748" lon="4.49836">
        <ele>507.6</ele>
        <time>2022-06-26T12:22:47Z</time>
      </trkpt>
      <trkpt lat="45.75742" lon="4.49843">
        <ele>507.4</ele>
        <time>2022-06-26T12:22:48Z</time>
      </trkpt>
      <trkpt lat="45.75736" lon="4.4985">
        <ele>507</ele>
        <time>2022-06-26T12:22:49Z</time>
      </trkpt>
      <trkpt lat="45.7573" lon="4.49859">
        <ele>507</ele>
        <time>2022-06-26T12:22:50Z</time>
      </trkpt>
      <trkpt lat="45.75725" lon="4.49868">
        <ele>506.6</ele>
        <time>2022-06-26T12:22:51Z</time>
      </trkpt>
      <trkpt lat="45.7572" lon="4.49877">
        <ele>506.4</ele>
        <time>2022-06-26T12:22:52Z</time>
      </trkpt>
      <trkpt lat="45.75715" lon="4.49886">
        <ele>506.4</ele>
        <time>2022-06-26T12:22:53Z</time>
      </trkpt>
      <trkpt lat="45.7571" lon="4.49895">
        <ele>505.8</ele>
        <time>2022-06-26T12:22:54Z</time>
      </trkpt>
      <trkpt lat="45.75705" lon="4.49904">
        <ele>505.6</ele>
        <time>2022-06-26T12:22:55Z</time>
      </trkpt>
      <trkpt lat="45.75699" lon="4.49913">
        <ele>505.4</ele>
        <time>2022-06-26T12:22:56Z</time>
      </trkpt>
      <trkpt lat="45.75693" lon="4.49921">
        <ele>505.4</ele>
        <time>2022-06-26T12:22:57Z</time>
      </trkpt>
      <trkpt lat="45.75686" lon="4.49928">
        <ele>504.6</ele>
        <time>2022-06-26T12:22:58Z</time>
      </trkpt>
      <trkpt lat="45.75679" lon="4.49936">
        <ele>504.2</ele>
        <time>2022-06-26T12:22:59Z</time>
      </trkpt>
      <trkpt lat="45.75672" lon="4.49943">
        <ele>503.8</ele>
        <time>2022-06-26T12:23:00Z</time>
      </trkpt>
      <trkpt lat="45.75666" lon="4.4995">
        <ele>503.4</ele>
        <time>2022-06-26T12:23:01Z</time>
      </trkpt>
      <trkpt lat="45.75659" lon="4.49956">
        <ele>502.8</ele>
        <time>2022-06-26T12:23:02Z</time>
      </trkpt>
      <trkpt lat="45.75652" lon="4.49962">
        <ele>502.4</ele>
        <time>2022-06-26T12:23:03Z</time>
      </trkpt>
      <trkpt lat="45.75645" lon="4.49967">
        <ele>501.8</ele>
        <time>2022-06-26T12:23:04Z</time>
      </trkpt>
      <trkpt lat="45.75638" lon="4.49971">
        <ele>501.6</ele>
        <time>2022-06-26T12:23:05Z</time>
      </trkpt>
      <trkpt lat="45.75631" lon="4.49974">
        <ele>501</ele>
        <time>2022-06-26T12:23:06Z</time>
      </trkpt>
      <trkpt lat="45.75623" lon="4.49977">
        <ele>500.6</ele>
        <time>2022-06-26T12:23:07Z</time>
      </trkpt>
      <trkpt lat="45.75616" lon="4.49979">
        <ele>500</ele>
        <time>2022-06-26T12:23:08Z</time>
      </trkpt>
      <trkpt lat="45.75608" lon="4.49981">
        <ele>499.6</ele>
        <time>2022-06-26T12:23:09Z</time>
      </trkpt>
      <trkpt lat="45.75601" lon="4.49984">
        <ele>499</ele>
        <time>2022-06-26T12:23:10Z</time>
      </trkpt>
      <trkpt lat="45.75593" lon="4.49988">
        <ele>498.2</ele>
        <time>2022-06-26T12:23:11Z</time>
      </trkpt>
      <trkpt lat="45.75585" lon="4.49993">
        <ele>497.6</ele>
        <time>2022-06-26T12:23:12Z</time>
      </trkpt>
      <trkpt lat="45.75578" lon="4.49999">
        <ele>497.2</ele>
        <time>2022-06-26T12:23:13Z</time>
      </trkpt>
      <trkpt lat="45.75571" lon="4.50005">
        <ele>496.6</ele>
        <time>2022-06-26T12:23:14Z</time>
      </trkpt>
      <trkpt lat="45.75563" lon="4.50011">
        <ele>496.2</ele>
        <time>2022-06-26T12:23:15Z</time>
      </trkpt>
      <trkpt lat="45.75556" lon="4.50017">
        <ele>495.2</ele>
        <time>2022-06-26T12:23:16Z</time>
      </trkpt>
      <trkpt lat="45.75549" lon="4.50022">
        <ele>494.4</ele>
        <time>2022-06-26T12:23:17Z</time>
      </trkpt>
      <trkpt lat="45.75543" lon="4.50026">
        <ele>493.8</ele>
        <time>2022-06-26T12:23:18Z</time>
      </trkpt>
      <trkpt lat="45.75536" lon="4.50031">
        <ele>493</ele>
        <time>2022-06-26T12:23:19Z</time>
      </trkpt>
      <trkpt lat="45.7553" lon="4.50036">
        <ele>492.2</ele>
        <time>2022-06-26T12:23:20Z</time>
      </trkpt>
      <trkpt lat="45.75524" lon="4.50042">
        <ele>491.6</ele>
        <time>2022-06-26T12:23:21Z</time>
      </trkpt>
      <trkpt lat="45.75518" lon="4.50048">
        <ele>490.8</ele>
        <time>2022-06-26T12:23:22Z</time>
      </trkpt>
      <trkpt lat="45.75513" lon="4.50055">
        <ele>490.2</ele>
        <time>2022-06-26T12:23:23Z</time>
      </trkpt>
      <trkpt lat="45.75508" lon="4.50064">
        <ele>489.6</ele>
        <time>2022-06-26T12:23:24Z</time>
      </trkpt>
      <trkpt lat="45.75504" lon="4.50072">
        <ele>488.8</ele>
        <time>2022-06-26T12:23:25Z</time>
      </trkpt>
      <trkpt lat="45.75499" lon="4.50082">
        <ele>488.2</ele>
        <time>2022-06-26T12:23:26Z</time>
      </trkpt>
      <trkpt lat="45.75495" lon="4.50092">
        <ele>487.4</ele>
        <time>2022-06-26T12:23:27Z</time>
      </trkpt>
      <trkpt lat="45.75491" lon="4.50101">
        <ele>486.6</ele>
        <time>2022-06-26T12:23:28Z</time>
      </trkpt>
      <trkpt lat="45.75488" lon="4.5011">
        <ele>485.6</ele>
        <time>2022-06-26T12:23:29Z</time>
      </trkpt>
      <trkpt lat="45.75485" lon="4.5012">
        <ele>484.8</ele>
        <time>2022-06-26T12:23:30Z</time>
      </trkpt>
      <trkpt lat="45.75483" lon="4.50129">
        <ele>484</ele>
        <time>2022-06-26T12:23:31Z</time>
      </trkpt>
      <trkpt lat="45.75481" lon="4.50139">
        <ele>483</ele>
        <time>2022-06-26T12:23:32Z</time>
      </trkpt>
      <trkpt lat="45.7548" lon="4.50149">
        <ele>482.2</ele>
        <time>2022-06-26T12:23:33Z</time>
      </trkpt>
      <trkpt lat="45.75478" lon="4.50158">
        <ele>481.6</ele>
        <time>2022-06-26T12:23:34Z</time>
      </trkpt>
      <trkpt lat="45.75476" lon="4.50168">
        <ele>480.6</ele>
        <time>2022-06-26T12:23:35Z</time>
      </trkpt>
      <trkpt lat="45.75473" lon="4.50178">
        <ele>479.8</ele>
        <time>2022-06-26T12:23:36Z</time>
      </trkpt>
      <trkpt lat="45.75471" lon="4.50189">
        <ele>477.6</ele>
        <time>2022-06-26T12:23:38Z</time>
      </trkpt>
      <trkpt lat="45.75469" lon="4.50201">
        <ele>476.6</ele>
        <time>2022-06-26T12:23:39Z</time>
      </trkpt>
      <trkpt lat="45.75467" lon="4.50213">
        <ele>475.4</ele>
        <time>2022-06-26T12:23:40Z</time>
      </trkpt>
      <trkpt lat="45.75464" lon="4.50224">
        <ele>474.2</ele>
        <time>2022-06-26T12:23:41Z</time>
      </trkpt>
      <trkpt lat="45.75462" lon="4.50234">
        <ele>473</ele>
        <time>2022-06-26T12:23:42Z</time>
      </trkpt>
      <trkpt lat="45.7546" lon="4.50243">
        <ele>471.8</ele>
        <time>2022-06-26T12:23:43Z</time>
      </trkpt>
      <trkpt lat="45.75458" lon="4.50252">
        <ele>470.6</ele>
        <time>2022-06-26T12:23:44Z</time>
      </trkpt>
      <trkpt lat="45.75457" lon="4.50261">
        <ele>469.4</ele>
        <time>2022-06-26T12:23:45Z</time>
      </trkpt>
      <trkpt lat="45.75455" lon="4.50268">
        <ele>468.6</ele>
        <time>2022-06-26T12:23:46Z</time>
      </trkpt>
      <trkpt lat="45.75454" lon="4.50276">
        <ele>467.6</ele>
        <time>2022-06-26T12:23:47Z</time>
      </trkpt>
      <trkpt lat="45.75454" lon="4.50285">
        <ele>466.6</ele>
        <time>2022-06-26T12:23:48Z</time>
      </trkpt>
      <trkpt lat="45.75455" lon="4.50294">
        <ele>465.8</ele>
        <time>2022-06-26T12:23:49Z</time>
      </trkpt>
      <trkpt lat="45.75457" lon="4.50303">
        <ele>465.2</ele>
        <time>2022-06-26T12:23:50Z</time>
      </trkpt>
      <trkpt lat="45.7546" lon="4.50312">
        <ele>464.6</ele>
        <time>2022-06-26T12:23:51Z</time>
      </trkpt>
      <trkpt lat="45.75462" lon="4.50321">
        <ele>463.8</ele>
        <time>2022-06-26T12:23:52Z</time>
      </trkpt>
      <trkpt lat="45.75465" lon="4.5033">
        <ele>463.4</ele>
        <time>2022-06-26T12:23:53Z</time>
      </trkpt>
      <trkpt lat="45.75468" lon="4.5034">
        <ele>462.8</ele>
        <time>2022-06-26T12:23:54Z</time>
      </trkpt>
      <trkpt lat="45.7547" lon="4.50349">
        <ele>462.2</ele>
        <time>2022-06-26T12:23:55Z</time>
      </trkpt>
      <trkpt lat="45.75472" lon="4.5036">
        <ele>461.6</ele>
        <time>2022-06-26T12:23:56Z</time>
      </trkpt>
      <trkpt lat="45.75474" lon="4.5037">
        <ele>461.4</ele>
        <time>2022-06-26T12:23:57Z</time>
      </trkpt>
      <trkpt lat="45.75477" lon="4.5038">
        <ele>461</ele>
        <time>2022-06-26T12:23:58Z</time>
      </trkpt>
      <trkpt lat="45.75479" lon="4.5039">
        <ele>460.2</ele>
        <time>2022-06-26T12:23:59Z</time>
      </trkpt>
      <trkpt lat="45.75482" lon="4.504">
        <ele>459.6</ele>
        <time>2022-06-26T12:24:00Z</time>
      </trkpt>
      <trkpt lat="45.75484" lon="4.5041">
        <ele>459</ele>
        <time>2022-06-26T12:24:01Z</time>
      </trkpt>
      <trkpt lat="45.75486" lon="4.50422">
        <ele>458.4</ele>
        <time>2022-06-26T12:24:02Z</time>
      </trkpt>
      <trkpt lat="45.75487" lon="4.50433">
        <ele>457.8</ele>
        <time>2022-06-26T12:24:03Z</time>
      </trkpt>
      <trkpt lat="45.75488" lon="4.50445">
        <ele>457.4</ele>
        <time>2022-06-26T12:24:04Z</time>
      </trkpt>
      <trkpt lat="45.75489" lon="4.50455">
        <ele>456.8</ele>
        <time>2022-06-26T12:24:05Z</time>
      </trkpt>
      <trkpt lat="45.7549" lon="4.50466">
        <ele>456.2</ele>
        <time>2022-06-26T12:24:06Z</time>
      </trkpt>
      <trkpt lat="45.75491" lon="4.50477">
        <ele>455.8</ele>
        <time>2022-06-26T12:24:07Z</time>
      </trkpt>
      <trkpt lat="45.75491" lon="4.50489">
        <ele>455.2</ele>
        <time>2022-06-26T12:24:08Z</time>
      </trkpt>
      <trkpt lat="45.7549" lon="4.50501">
        <ele>454.2</ele>
        <time>2022-06-26T12:24:09Z</time>
      </trkpt>
      <trkpt lat="45.75491" lon="4.50515">
        <ele>453.2</ele>
        <time>2022-06-26T12:24:10Z</time>
      </trkpt>
      <trkpt lat="45.75491" lon="4.5053">
        <ele>452.4</ele>
        <time>2022-06-26T12:24:11Z</time>
      </trkpt>
      <trkpt lat="45.75491" lon="4.50544">
        <ele>451.2</ele>
        <time>2022-06-26T12:24:12Z</time>
      </trkpt>
      <trkpt lat="45.7549" lon="4.50558">
        <ele>450</ele>
        <time>2022-06-26T12:24:13Z</time>
      </trkpt>
      <trkpt lat="45.75489" lon="4.50573">
        <ele>448.8</ele>
        <time>2022-06-26T12:24:14Z</time>
      </trkpt>
      <trkpt lat="45.75488" lon="4.50588">
        <ele>447.8</ele>
        <time>2022-06-26T12:24:15Z</time>
      </trkpt>
      <trkpt lat="45.75487" lon="4.50604">
        <ele>447</ele>
        <time>2022-06-26T12:24:16Z</time>
      </trkpt>
      <trkpt lat="45.75486" lon="4.5062">
        <ele>446.4</ele>
        <time>2022-06-26T12:24:17Z</time>
      </trkpt>
      <trkpt lat="45.75485" lon="4.50634">
        <ele>445.6</ele>
        <time>2022-06-26T12:24:18Z</time>
      </trkpt>
      <trkpt lat="45.75483" lon="4.50648">
        <ele>445</ele>
        <time>2022-06-26T12:24:19Z</time>
      </trkpt>
      <trkpt lat="45.75482" lon="4.50659">
        <ele>444.4</ele>
        <time>2022-06-26T12:24:20Z</time>
      </trkpt>
      <trkpt lat="45.75482" lon="4.50671">
        <ele>444</ele>
        <time>2022-06-26T12:24:21Z</time>
      </trkpt>
      <trkpt lat="45.75481" lon="4.50682">
        <ele>443.6</ele>
        <time>2022-06-26T12:24:22Z</time>
      </trkpt>
      <trkpt lat="45.7548" lon="4.50692">
        <ele>443.4</ele>
        <time>2022-06-26T12:24:23Z</time>
      </trkpt>
      <trkpt lat="45.7548" lon="4.50703">
        <ele>443.4</ele>
        <time>2022-06-26T12:24:24Z</time>
      </trkpt>
      <trkpt lat="45.7548" lon="4.50713">
        <ele>443.2</ele>
        <time>2022-06-26T12:24:25Z</time>
      </trkpt>
      <trkpt lat="45.75481" lon="4.50723">
        <ele>443.2</ele>
        <time>2022-06-26T12:24:26Z</time>
      </trkpt>
      <trkpt lat="45.75483" lon="4.50733">
        <ele>443.2</ele>
        <time>2022-06-26T12:24:27Z</time>
      </trkpt>
      <trkpt lat="45.75485" lon="4.50741">
        <ele>442.6</ele>
        <time>2022-06-26T12:24:28Z</time>
      </trkpt>
      <trkpt lat="45.75488" lon="4.50749">
        <ele>442.6</ele>
        <time>2022-06-26T12:24:29Z</time>
      </trkpt>
      <trkpt lat="45.75491" lon="4.50757">
        <ele>442.4</ele>
        <time>2022-06-26T12:24:30Z</time>
      </trkpt>
      <trkpt lat="45.75493" lon="4.50764">
        <ele>442.4</ele>
        <time>2022-06-26T12:24:31Z</time>
      </trkpt>
      <trkpt lat="45.75496" lon="4.5077">
        <ele>442.4</ele>
        <time>2022-06-26T12:24:32Z</time>
      </trkpt>
      <trkpt lat="45.75498" lon="4.50776">
        <ele>442.4</ele>
        <time>2022-06-26T12:24:33Z</time>
      </trkpt>
      <trkpt lat="45.75501" lon="4.50782">
        <ele>442.4</ele>
        <time>2022-06-26T12:24:34Z</time>
      </trkpt>
      <trkpt lat="45.75503" lon="4.50788">
        <ele>442.4</ele>
        <time>2022-06-26T12:24:35Z</time>
      </trkpt>
      <trkpt lat="45.75506" lon="4.50793">
        <ele>442.8</ele>
        <time>2022-06-26T12:24:36Z</time>
      </trkpt>
      <trkpt lat="45.75508" lon="4.50799">
        <ele>442.8</ele>
        <time>2022-06-26T12:24:37Z</time>
      </trkpt>
      <trkpt lat="45.7551" lon="4.50805">
        <ele>443</ele>
        <time>2022-06-26T12:24:38Z</time>
      </trkpt>
      <trkpt lat="45.75512" lon="4.50811">
        <ele>443</ele>
        <time>2022-06-26T12:24:39Z</time>
      </trkpt>
      <trkpt lat="45.75513" lon="4.50818">
        <ele>443</ele>
        <time>2022-06-26T12:24:40Z</time>
      </trkpt>
      <trkpt lat="45.75515" lon="4.50825">
        <ele>443</ele>
        <time>2022-06-26T12:24:41Z</time>
      </trkpt>
      <trkpt lat="45.75516" lon="4.50833">
        <ele>443</ele>
        <time>2022-06-26T12:24:42Z</time>
      </trkpt>
      <trkpt lat="45.75517" lon="4.50841">
        <ele>443</ele>
        <time>2022-06-26T12:24:43Z</time>
      </trkpt>
      <trkpt lat="45.75518" lon="4.50849">
        <ele>443</ele>
        <time>2022-06-26T12:24:44Z</time>
      </trkpt>
      <trkpt lat="45.75519" lon="4.50858">
        <ele>442.8</ele>
        <time>2022-06-26T12:24:45Z</time>
      </trkpt>
      <trkpt lat="45.7552" lon="4.50866">
        <ele>442.8</ele>
        <time>2022-06-26T12:24:46Z</time>
      </trkpt>
      <trkpt lat="45.75521" lon="4.50875">
        <ele>442.6</ele>
        <time>2022-06-26T12:24:47Z</time>
      </trkpt>
      <trkpt lat="45.75521" lon="4.50883">
        <ele>442.6</ele>
        <time>2022-06-26T12:24:48Z</time>
      </trkpt>
      <trkpt lat="45.75522" lon="4.50891">
        <ele>442.6</ele>
        <time>2022-06-26T12:24:49Z</time>
      </trkpt>
      <trkpt lat="45.75523" lon="4.50899">
        <ele>442.6</ele>
        <time>2022-06-26T12:24:50Z</time>
      </trkpt>
      <trkpt lat="45.75523" lon="4.50906">
        <ele>442.6</ele>
        <time>2022-06-26T12:24:51Z</time>
      </trkpt>
      <trkpt lat="45.75523" lon="4.50913">
        <ele>442.6</ele>
        <time>2022-06-26T12:24:52Z</time>
      </trkpt>
      <trkpt lat="45.75523" lon="4.50919">
        <ele>442.6</ele>
        <time>2022-06-26T12:24:53Z</time>
      </trkpt>
      <trkpt lat="45.75523" lon="4.50926">
        <ele>442.8</ele>
        <time>2022-06-26T12:24:54Z</time>
      </trkpt>
      <trkpt lat="45.75523" lon="4.50932">
        <ele>442.8</ele>
        <time>2022-06-26T12:24:55Z</time>
      </trkpt>
      <trkpt lat="45.75523" lon="4.50939">
        <ele>442.8</ele>
        <time>2022-06-26T12:24:56Z</time>
      </trkpt>
      <trkpt lat="45.75523" lon="4.50946">
        <ele>443</ele>
        <time>2022-06-26T12:24:57Z</time>
      </trkpt>
      <trkpt lat="45.75522" lon="4.50953">
        <ele>443</ele>
        <time>2022-06-26T12:24:58Z</time>
      </trkpt>
      <trkpt lat="45.75522" lon="4.5096">
        <ele>443.2</ele>
        <time>2022-06-26T12:24:59Z</time>
      </trkpt>
      <trkpt lat="45.75521" lon="4.50966">
        <ele>443.2</ele>
        <time>2022-06-26T12:25:00Z</time>
      </trkpt>
      <trkpt lat="45.75521" lon="4.50973">
        <ele>443.2</ele>
        <time>2022-06-26T12:25:01Z</time>
      </trkpt>
      <trkpt lat="45.7552" lon="4.5098">
        <ele>443.6</ele>
        <time>2022-06-26T12:25:02Z</time>
      </trkpt>
      <trkpt lat="45.75519" lon="4.50987">
        <ele>443.6</ele>
        <time>2022-06-26T12:25:03Z</time>
      </trkpt>
      <trkpt lat="45.75518" lon="4.50993">
        <ele>443.6</ele>
        <time>2022-06-26T12:25:04Z</time>
      </trkpt>
      <trkpt lat="45.75517" lon="4.51">
        <ele>443.6</ele>
        <time>2022-06-26T12:25:05Z</time>
      </trkpt>
      <trkpt lat="45.75517" lon="4.51006">
        <ele>443.6</ele>
        <time>2022-06-26T12:25:06Z</time>
      </trkpt>
      <trkpt lat="45.75515" lon="4.51013">
        <ele>443.6</ele>
        <time>2022-06-26T12:25:07Z</time>
      </trkpt>
      <trkpt lat="45.75514" lon="4.51021">
        <ele>443.6</ele>
        <time>2022-06-26T12:25:08Z</time>
      </trkpt>
      <trkpt lat="45.75513" lon="4.51029">
        <ele>443.6</ele>
        <time>2022-06-26T12:25:09Z</time>
      </trkpt>
      <trkpt lat="45.75512" lon="4.51037">
        <ele>443.2</ele>
        <time>2022-06-26T12:25:10Z</time>
      </trkpt>
      <trkpt lat="45.75512" lon="4.51045">
        <ele>443.2</ele>
        <time>2022-06-26T12:25:11Z</time>
      </trkpt>
      <trkpt lat="45.75511" lon="4.51053">
        <ele>443.2</ele>
        <time>2022-06-26T12:25:12Z</time>
      </trkpt>
      <trkpt lat="45.7551" lon="4.51061">
        <ele>443</ele>
        <time>2022-06-26T12:25:13Z</time>
      </trkpt>
      <trkpt lat="45.7551" lon="4.51069">
        <ele>443</ele>
        <time>2022-06-26T12:25:14Z</time>
      </trkpt>
      <trkpt lat="45.75508" lon="4.51077">
        <ele>443</ele>
        <time>2022-06-26T12:25:15Z</time>
      </trkpt>
      <trkpt lat="45.75507" lon="4.51084">
        <ele>443</ele>
        <time>2022-06-26T12:25:16Z</time>
      </trkpt>
      <trkpt lat="45.75506" lon="4.51092">
        <ele>443</ele>
        <time>2022-06-26T12:25:17Z</time>
      </trkpt>
      <trkpt lat="45.75504" lon="4.51099">
        <ele>443</ele>
        <time>2022-06-26T12:25:18Z</time>
      </trkpt>
      <trkpt lat="45.75502" lon="4.51106">
        <ele>443.2</ele>
        <time>2022-06-26T12:25:19Z</time>
      </trkpt>
      <trkpt lat="45.75501" lon="4.51113">
        <ele>443.2</ele>
        <time>2022-06-26T12:25:20Z</time>
      </trkpt>
      <trkpt lat="45.75499" lon="4.5112">
        <ele>443.2</ele>
        <time>2022-06-26T12:25:21Z</time>
      </trkpt>
      <trkpt lat="45.75497" lon="4.51127">
        <ele>443.2</ele>
        <time>2022-06-26T12:25:22Z</time>
      </trkpt>
      <trkpt lat="45.75494" lon="4.51134">
        <ele>442.8</ele>
        <time>2022-06-26T12:25:23Z</time>
      </trkpt>
      <trkpt lat="45.75492" lon="4.51142">
        <ele>442.6</ele>
        <time>2022-06-26T12:25:24Z</time>
      </trkpt>
      <trkpt lat="45.7549" lon="4.5115">
        <ele>442.4</ele>
        <time>2022-06-26T12:25:25Z</time>
      </trkpt>
      <trkpt lat="45.75487" lon="4.51159">
        <ele>442</ele>
        <time>2022-06-26T12:25:26Z</time>
      </trkpt>
      <trkpt lat="45.75484" lon="4.51169">
        <ele>441.6</ele>
        <time>2022-06-26T12:25:27Z</time>
      </trkpt>
      <trkpt lat="45.7548" lon="4.51179">
        <ele>441.2</ele>
        <time>2022-06-26T12:25:28Z</time>
      </trkpt>
      <trkpt lat="45.75476" lon="4.51188">
        <ele>440.8</ele>
        <time>2022-06-26T12:25:29Z</time>
      </trkpt>
      <trkpt lat="45.75472" lon="4.51197">
        <ele>440.6</ele>
        <time>2022-06-26T12:25:30Z</time>
      </trkpt>
      <trkpt lat="45.75468" lon="4.51205">
        <ele>440.6</ele>
        <time>2022-06-26T12:25:31Z</time>
      </trkpt>
      <trkpt lat="45.75465" lon="4.51213">
        <ele>440.2</ele>
        <time>2022-06-26T12:25:32Z</time>
      </trkpt>
      <trkpt lat="45.75462" lon="4.5122">
        <ele>440.2</ele>
        <time>2022-06-26T12:25:33Z</time>
      </trkpt>
      <trkpt lat="45.7546" lon="4.51227">
        <ele>439.8</ele>
        <time>2022-06-26T12:25:34Z</time>
      </trkpt>
      <trkpt lat="45.75459" lon="4.51234">
        <ele>439.8</ele>
        <time>2022-06-26T12:25:35Z</time>
      </trkpt>
      <trkpt lat="45.7546" lon="4.51241">
        <ele>439.8</ele>
        <time>2022-06-26T12:25:36Z</time>
      </trkpt>
      <trkpt lat="45.75461" lon="4.51248">
        <ele>439.6</ele>
        <time>2022-06-26T12:25:37Z</time>
      </trkpt>
      <trkpt lat="45.75462" lon="4.51255">
        <ele>439.6</ele>
        <time>2022-06-26T12:25:38Z</time>
      </trkpt>
      <trkpt lat="45.75465" lon="4.51262">
        <ele>439.4</ele>
        <time>2022-06-26T12:25:39Z</time>
      </trkpt>
      <trkpt lat="45.75467" lon="4.51269">
        <ele>439.4</ele>
        <time>2022-06-26T12:25:40Z</time>
      </trkpt>
      <trkpt lat="45.75471" lon="4.51277">
        <ele>439.2</ele>
        <time>2022-06-26T12:25:41Z</time>
      </trkpt>
      <trkpt lat="45.75474" lon="4.51284">
        <ele>439.2</ele>
        <time>2022-06-26T12:25:42Z</time>
      </trkpt>
      <trkpt lat="45.75477" lon="4.5129">
        <ele>439.2</ele>
        <time>2022-06-26T12:25:43Z</time>
      </trkpt>
      <trkpt lat="45.75481" lon="4.51295">
        <ele>439.2</ele>
        <time>2022-06-26T12:25:44Z</time>
      </trkpt>
      <trkpt lat="45.75484" lon="4.513">
        <ele>439.4</ele>
        <time>2022-06-26T12:25:45Z</time>
      </trkpt>
      <trkpt lat="45.75486" lon="4.51304">
        <ele>439.4</ele>
        <time>2022-06-26T12:25:46Z</time>
      </trkpt>
      <trkpt lat="45.75489" lon="4.51308">
        <ele>439.4</ele>
        <time>2022-06-26T12:25:47Z</time>
      </trkpt>
      <trkpt lat="45.75492" lon="4.51312">
        <ele>439.4</ele>
        <time>2022-06-26T12:25:48Z</time>
      </trkpt>
      <trkpt lat="45.75496" lon="4.51316">
        <ele>439.4</ele>
        <time>2022-06-26T12:25:49Z</time>
      </trkpt>
      <trkpt lat="45.75499" lon="4.5132">
        <ele>439.4</ele>
        <time>2022-06-26T12:25:50Z</time>
      </trkpt>
      <trkpt lat="45.75503" lon="4.51324">
        <ele>439.2</ele>
        <time>2022-06-26T12:25:51Z</time>
      </trkpt>
      <trkpt lat="45.75507" lon="4.51329">
        <ele>438.8</ele>
        <time>2022-06-26T12:25:52Z</time>
      </trkpt>
      <trkpt lat="45.75512" lon="4.51332">
        <ele>438.6</ele>
        <time>2022-06-26T12:25:53Z</time>
      </trkpt>
      <trkpt lat="45.75518" lon="4.51335">
        <ele>438.4</ele>
        <time>2022-06-26T12:25:54Z</time>
      </trkpt>
      <trkpt lat="45.75524" lon="4.51336">
        <ele>438</ele>
        <time>2022-06-26T12:25:55Z</time>
      </trkpt>
      <trkpt lat="45.7553" lon="4.51336">
        <ele>438</ele>
        <time>2022-06-26T12:25:56Z</time>
      </trkpt>
      <trkpt lat="45.75535" lon="4.51337">
        <ele>437.8</ele>
        <time>2022-06-26T12:25:57Z</time>
      </trkpt>
      <trkpt lat="45.7554" lon="4.5134">
        <ele>437.8</ele>
        <time>2022-06-26T12:25:58Z</time>
      </trkpt>
      <trkpt lat="45.75544" lon="4.51345">
        <ele>437.8</ele>
        <time>2022-06-26T12:25:59Z</time>
      </trkpt>
      <trkpt lat="45.75547" lon="4.51351">
        <ele>437.8</ele>
        <time>2022-06-26T12:26:00Z</time>
      </trkpt>
      <trkpt lat="45.75548" lon="4.51356">
        <ele>437.8</ele>
        <time>2022-06-26T12:26:01Z</time>
      </trkpt>
      <trkpt lat="45.7555" lon="4.51362">
        <ele>437.8</ele>
        <time>2022-06-26T12:26:02Z</time>
      </trkpt>
      <trkpt lat="45.75551" lon="4.51367">
        <ele>438</ele>
        <time>2022-06-26T12:26:03Z</time>
      </trkpt>
      <trkpt lat="45.75552" lon="4.51372">
        <ele>438.2</ele>
        <time>2022-06-26T12:26:04Z</time>
      </trkpt>
      <trkpt lat="45.75553" lon="4.51377">
        <ele>438.2</ele>
        <time>2022-06-26T12:26:05Z</time>
      </trkpt>
      <trkpt lat="45.75554" lon="4.51382">
        <ele>438.6</ele>
        <time>2022-06-26T12:26:06Z</time>
      </trkpt>
      <trkpt lat="45.75555" lon="4.51387">
        <ele>438.6</ele>
        <time>2022-06-26T12:26:07Z</time>
      </trkpt>
      <trkpt lat="45.75556" lon="4.51391">
        <ele>438.8</ele>
        <time>2022-06-26T12:26:08Z</time>
      </trkpt>
      <trkpt lat="45.75556" lon="4.51395">
        <ele>438.8</ele>
        <time>2022-06-26T12:26:09Z</time>
      </trkpt>
      <trkpt lat="45.75556" lon="4.51399">
        <ele>439</ele>
        <time>2022-06-26T12:26:10Z</time>
      </trkpt>
      <trkpt lat="45.75557" lon="4.51402">
        <ele>439</ele>
        <time>2022-06-26T12:26:11Z</time>
      </trkpt>
      <trkpt lat="45.75557" lon="4.51406">
        <ele>439.2</ele>
        <time>2022-06-26T12:26:12Z</time>
      </trkpt>
      <trkpt lat="45.75557" lon="4.51412">
        <ele>439.2</ele>
        <time>2022-06-26T12:26:13Z</time>
      </trkpt>
      <trkpt lat="45.75557" lon="4.51415">
        <ele>439.2</ele>
        <time>2022-06-26T12:26:14Z</time>
      </trkpt>
      <trkpt lat="45.75557" lon="4.51418">
        <ele>439.2</ele>
        <time>2022-06-26T12:26:15Z</time>
      </trkpt>
      <trkpt lat="45.75558" lon="4.5142">
        <ele>439.2</ele>
        <time>2022-06-26T12:27:09Z</time>
      </trkpt>
      <trkpt lat="45.75558" lon="4.51423">
        <ele>439.2</ele>
        <time>2022-06-26T12:27:10Z</time>
      </trkpt>
      <trkpt lat="45.75558" lon="4.51427">
        <ele>439.2</ele>
        <time>2022-06-26T12:27:11Z</time>
      </trkpt>
      <trkpt lat="45.75558" lon="4.5143">
        <ele>439.2</ele>
        <time>2022-06-26T12:27:12Z</time>
      </trkpt>
      <trkpt lat="45.75558" lon="4.51434">
        <ele>439.2</ele>
        <time>2022-06-26T12:27:13Z</time>
      </trkpt>
      <trkpt lat="45.75558" lon="4.51438">
        <ele>439.2</ele>
        <time>2022-06-26T12:27:14Z</time>
      </trkpt>
      <trkpt lat="45.75558" lon="4.51443">
        <ele>439.2</ele>
        <time>2022-06-26T12:27:15Z</time>
      </trkpt>
      <trkpt lat="45.75558" lon="4.51448">
        <ele>439.2</ele>
        <time>2022-06-26T12:27:16Z</time>
      </trkpt>
      <trkpt lat="45.75558" lon="4.51453">
        <ele>439.2</ele>
        <time>2022-06-26T12:27:17Z</time>
      </trkpt>
      <trkpt lat="45.75558" lon="4.51459">
        <ele>439</ele>
        <time>2022-06-26T12:27:18Z</time>
      </trkpt>
      <trkpt lat="45.75559" lon="4.51465">
        <ele>439</ele>
        <time>2022-06-26T12:27:19Z</time>
      </trkpt>
      <trkpt lat="45.7556" lon="4.51471">
        <ele>438.8</ele>
        <time>2022-06-26T12:27:20Z</time>
      </trkpt>
      <trkpt lat="45.75561" lon="4.51478">
        <ele>438.6</ele>
        <time>2022-06-26T12:27:21Z</time>
      </trkpt>
      <trkpt lat="45.75562" lon="4.51484">
        <ele>438.6</ele>
        <time>2022-06-26T12:27:22Z</time>
      </trkpt>
      <trkpt lat="45.75563" lon="4.51491">
        <ele>438</ele>
        <time>2022-06-26T12:27:23Z</time>
      </trkpt>
      <trkpt lat="45.75567" lon="4.51497">
        <ele>437.8</ele>
        <time>2022-06-26T12:27:24Z</time>
      </trkpt>
      <trkpt lat="45.75569" lon="4.51503">
        <ele>437.4</ele>
        <time>2022-06-26T12:27:25Z</time>
      </trkpt>
      <trkpt lat="45.75573" lon="4.5151">
        <ele>437</ele>
        <time>2022-06-26T12:27:26Z</time>
      </trkpt>
      <trkpt lat="45.75576" lon="4.51516">
        <ele>436.6</ele>
        <time>2022-06-26T12:27:27Z</time>
      </trkpt>
      <trkpt lat="45.7558" lon="4.51523">
        <ele>436</ele>
        <time>2022-06-26T12:27:28Z</time>
      </trkpt>
      <trkpt lat="45.75584" lon="4.51529">
        <ele>435.2</ele>
        <time>2022-06-26T12:27:29Z</time>
      </trkpt>
      <trkpt lat="45.75589" lon="4.51536">
        <ele>434.6</ele>
        <time>2022-06-26T12:27:30Z</time>
      </trkpt>
      <trkpt lat="45.75593" lon="4.51542">
        <ele>433.8</ele>
        <time>2022-06-26T12:27:31Z</time>
      </trkpt>
      <trkpt lat="45.75599" lon="4.51546">
        <ele>433.2</ele>
        <time>2022-06-26T12:27:32Z</time>
      </trkpt>
      <trkpt lat="45.75605" lon="4.5155">
        <ele>432.4</ele>
        <time>2022-06-26T12:27:33Z</time>
      </trkpt>
      <trkpt lat="45.75612" lon="4.51553">
        <ele>431.8</ele>
        <time>2022-06-26T12:27:34Z</time>
      </trkpt>
      <trkpt lat="45.7562" lon="4.51554">
        <ele>431.4</ele>
        <time>2022-06-26T12:27:35Z</time>
      </trkpt>
      <trkpt lat="45.75627" lon="4.51555">
        <ele>431</ele>
        <time>2022-06-26T12:27:36Z</time>
      </trkpt>
      <trkpt lat="45.75635" lon="4.51556">
        <ele>430.6</ele>
        <time>2022-06-26T12:27:37Z</time>
      </trkpt>
      <trkpt lat="45.75642" lon="4.51556">
        <ele>430.2</ele>
        <time>2022-06-26T12:27:38Z</time>
      </trkpt>
      <trkpt lat="45.7565" lon="4.51557">
        <ele>430.2</ele>
        <time>2022-06-26T12:27:39Z</time>
      </trkpt>
      <trkpt lat="45.75656" lon="4.51558">
        <ele>429.8</ele>
        <time>2022-06-26T12:27:40Z</time>
      </trkpt>
      <trkpt lat="45.75662" lon="4.51559">
        <ele>429.8</ele>
        <time>2022-06-26T12:27:41Z</time>
      </trkpt>
      <trkpt lat="45.75668" lon="4.5156">
        <ele>429.4</ele>
        <time>2022-06-26T12:27:42Z</time>
      </trkpt>
      <trkpt lat="45.75674" lon="4.51563">
        <ele>429</ele>
        <time>2022-06-26T12:27:43Z</time>
      </trkpt>
      <trkpt lat="45.7568" lon="4.51566">
        <ele>428.6</ele>
        <time>2022-06-26T12:27:44Z</time>
      </trkpt>
      <trkpt lat="45.75686" lon="4.5157">
        <ele>428.4</ele>
        <time>2022-06-26T12:27:45Z</time>
      </trkpt>
      <trkpt lat="45.75691" lon="4.51575">
        <ele>428</ele>
        <time>2022-06-26T12:27:46Z</time>
      </trkpt>
      <trkpt lat="45.75696" lon="4.5158">
        <ele>427.8</ele>
        <time>2022-06-26T12:27:47Z</time>
      </trkpt>
      <trkpt lat="45.757" lon="4.51585">
        <ele>427.6</ele>
        <time>2022-06-26T12:27:48Z</time>
      </trkpt>
      <trkpt lat="45.75704" lon="4.51591">
        <ele>427.6</ele>
        <time>2022-06-26T12:27:49Z</time>
      </trkpt>
      <trkpt lat="45.75709" lon="4.51597">
        <ele>427.2</ele>
        <time>2022-06-26T12:27:50Z</time>
      </trkpt>
      <trkpt lat="45.75714" lon="4.51603">
        <ele>427.2</ele>
        <time>2022-06-26T12:27:51Z</time>
      </trkpt>
      <trkpt lat="45.75719" lon="4.51609">
        <ele>427.2</ele>
        <time>2022-06-26T12:27:52Z</time>
      </trkpt>
      <trkpt lat="45.75723" lon="4.51614">
        <ele>427.2</ele>
        <time>2022-06-26T12:27:53Z</time>
      </trkpt>
      <trkpt lat="45.75726" lon="4.51618">
        <ele>427.2</ele>
        <time>2022-06-26T12:27:54Z</time>
      </trkpt>
      <trkpt lat="45.7573" lon="4.51623">
        <ele>427.2</ele>
        <time>2022-06-26T12:27:55Z</time>
      </trkpt>
      <trkpt lat="45.75733" lon="4.51628">
        <ele>427.2</ele>
        <time>2022-06-26T12:27:56Z</time>
      </trkpt>
      <trkpt lat="45.75737" lon="4.51632">
        <ele>427.6</ele>
        <time>2022-06-26T12:27:57Z</time>
      </trkpt>
      <trkpt lat="45.7574" lon="4.51635">
        <ele>427.6</ele>
        <time>2022-06-26T12:27:58Z</time>
      </trkpt>
      <trkpt lat="45.75744" lon="4.51639">
        <ele>427.6</ele>
        <time>2022-06-26T12:27:59Z</time>
      </trkpt>
      <trkpt lat="45.75747" lon="4.51642">
        <ele>427.8</ele>
        <time>2022-06-26T12:28:00Z</time>
      </trkpt>
      <trkpt lat="45.7575" lon="4.51646">
        <ele>427.8</ele>
        <time>2022-06-26T12:28:01Z</time>
      </trkpt>
      <trkpt lat="45.75753" lon="4.51648">
        <ele>427.8</ele>
        <time>2022-06-26T12:28:02Z</time>
      </trkpt>
      <trkpt lat="45.75756" lon="4.51651">
        <ele>427.8</ele>
        <time>2022-06-26T12:28:03Z</time>
      </trkpt>
      <trkpt lat="45.75758" lon="4.51653">
        <ele>427.8</ele>
        <time>2022-06-26T12:28:04Z</time>
      </trkpt>
      <trkpt lat="45.75761" lon="4.51655">
        <ele>427.6</ele>
        <time>2022-06-26T12:28:05Z</time>
      </trkpt>
      <trkpt lat="45.75764" lon="4.51657">
        <ele>427.6</ele>
        <time>2022-06-26T12:28:06Z</time>
      </trkpt>
      <trkpt lat="45.75767" lon="4.5166">
        <ele>427.4</ele>
        <time>2022-06-26T12:28:07Z</time>
      </trkpt>
      <trkpt lat="45.7577" lon="4.51663">
        <ele>427.4</ele>
        <time>2022-06-26T12:28:08Z</time>
      </trkpt>
      <trkpt lat="45.75773" lon="4.51666">
        <ele>427.2</ele>
        <time>2022-06-26T12:28:09Z</time>
      </trkpt>
      <trkpt lat="45.75777" lon="4.5167">
        <ele>426.8</ele>
        <time>2022-06-26T12:28:10Z</time>
      </trkpt>
      <trkpt lat="45.75782" lon="4.51674">
        <ele>426.8</ele>
        <time>2022-06-26T12:28:11Z</time>
      </trkpt>
      <trkpt lat="45.75787" lon="4.51679">
        <ele>426.8</ele>
        <time>2022-06-26T12:28:12Z</time>
      </trkpt>
      <trkpt lat="45.75792" lon="4.51685">
        <ele>426.6</ele>
        <time>2022-06-26T12:28:13Z</time>
      </trkpt>
      <trkpt lat="45.75797" lon="4.51691">
        <ele>426.6</ele>
        <time>2022-06-26T12:28:14Z</time>
      </trkpt>
      <trkpt lat="45.75802" lon="4.51697">
        <ele>426.4</ele>
        <time>2022-06-26T12:28:15Z</time>
      </trkpt>
      <trkpt lat="45.75808" lon="4.51702">
        <ele>426.4</ele>
        <time>2022-06-26T12:28:16Z</time>
      </trkpt>
      <trkpt lat="45.75813" lon="4.51708">
        <ele>425.8</ele>
        <time>2022-06-26T12:28:17Z</time>
      </trkpt>
      <trkpt lat="45.75817" lon="4.51714">
        <ele>425.8</ele>
        <time>2022-06-26T12:28:18Z</time>
      </trkpt>
      <trkpt lat="45.75823" lon="4.51722">
        <ele>425.4</ele>
        <time>2022-06-26T12:28:19Z</time>
      </trkpt>
      <trkpt lat="45.75829" lon="4.51729">
        <ele>425.4</ele>
        <time>2022-06-26T12:28:20Z</time>
      </trkpt>
      <trkpt lat="45.75834" lon="4.51735">
        <ele>425.2</ele>
        <time>2022-06-26T12:28:21Z</time>
      </trkpt>
      <trkpt lat="45.7584" lon="4.51742">
        <ele>425.2</ele>
        <time>2022-06-26T12:28:22Z</time>
      </trkpt>
      <trkpt lat="45.75845" lon="4.5175">
        <ele>424.8</ele>
        <time>2022-06-26T12:28:23Z</time>
      </trkpt>
      <trkpt lat="45.7585" lon="4.51757">
        <ele>424.8</ele>
        <time>2022-06-26T12:28:24Z</time>
      </trkpt>
      <trkpt lat="45.75854" lon="4.51763">
        <ele>424.6</ele>
        <time>2022-06-26T12:28:25Z</time>
      </trkpt>
      <trkpt lat="45.75859" lon="4.5177">
        <ele>424.6</ele>
        <time>2022-06-26T12:28:26Z</time>
      </trkpt>
      <trkpt lat="45.75863" lon="4.51777">
        <ele>424.4</ele>
        <time>2022-06-26T12:28:27Z</time>
      </trkpt>
      <trkpt lat="45.75868" lon="4.51784">
        <ele>424.4</ele>
        <time>2022-06-26T12:28:28Z</time>
      </trkpt>
      <trkpt lat="45.75872" lon="4.51791">
        <ele>424.4</ele>
        <time>2022-06-26T12:28:29Z</time>
      </trkpt>
      <trkpt lat="45.75876" lon="4.51798">
        <ele>424</ele>
        <time>2022-06-26T12:28:30Z</time>
      </trkpt>
      <trkpt lat="45.75879" lon="4.51805">
        <ele>423.6</ele>
        <time>2022-06-26T12:28:31Z</time>
      </trkpt>
      <trkpt lat="45.75882" lon="4.51812">
        <ele>423.6</ele>
        <time>2022-06-26T12:28:32Z</time>
      </trkpt>
      <trkpt lat="45.75884" lon="4.51818">
        <ele>423.4</ele>
        <time>2022-06-26T12:28:33Z</time>
      </trkpt>
      <trkpt lat="45.75887" lon="4.51825">
        <ele>423.4</ele>
        <time>2022-06-26T12:28:34Z</time>
      </trkpt>
      <trkpt lat="45.7589" lon="4.51832">
        <ele>423.4</ele>
        <time>2022-06-26T12:28:35Z</time>
      </trkpt>
      <trkpt lat="45.75893" lon="4.51839">
        <ele>423.4</ele>
        <time>2022-06-26T12:28:36Z</time>
      </trkpt>
      <trkpt lat="45.75896" lon="4.51846">
        <ele>423.2</ele>
        <time>2022-06-26T12:28:37Z</time>
      </trkpt>
      <trkpt lat="45.75899" lon="4.51853">
        <ele>423.2</ele>
        <time>2022-06-26T12:28:38Z</time>
      </trkpt>
      <trkpt lat="45.75902" lon="4.51859">
        <ele>422.6</ele>
        <time>2022-06-26T12:28:39Z</time>
      </trkpt>
      <trkpt lat="45.75905" lon="4.51865">
        <ele>422.2</ele>
        <time>2022-06-26T12:28:40Z</time>
      </trkpt>
      <trkpt lat="45.75908" lon="4.51872">
        <ele>421.8</ele>
        <time>2022-06-26T12:28:41Z</time>
      </trkpt>
      <trkpt lat="45.75911" lon="4.51879">
        <ele>421.4</ele>
        <time>2022-06-26T12:28:42Z</time>
      </trkpt>
      <trkpt lat="45.75914" lon="4.51886">
        <ele>420.8</ele>
        <time>2022-06-26T12:28:43Z</time>
      </trkpt>
      <trkpt lat="45.75916" lon="4.51893">
        <ele>420.2</ele>
        <time>2022-06-26T12:28:44Z</time>
      </trkpt>
      <trkpt lat="45.75917" lon="4.51901">
        <ele>419.4</ele>
        <time>2022-06-26T12:28:45Z</time>
      </trkpt>
      <trkpt lat="45.75917" lon="4.51907">
        <ele>418.8</ele>
        <time>2022-06-26T12:28:46Z</time>
      </trkpt>
      <trkpt lat="45.75916" lon="4.51913">
        <ele>418.2</ele>
        <time>2022-06-26T12:28:47Z</time>
      </trkpt>
      <trkpt lat="45.75913" lon="4.51917">
        <ele>417.2</ele>
        <time>2022-06-26T12:28:49Z</time>
      </trkpt>
      <trkpt lat="45.75909" lon="4.51922">
        <ele>416.8</ele>
        <time>2022-06-26T12:28:50Z</time>
      </trkpt>
      <trkpt lat="45.75905" lon="4.51926">
        <ele>416.4</ele>
        <time>2022-06-26T12:28:51Z</time>
      </trkpt>
      <trkpt lat="45.75899" lon="4.51929">
        <ele>416</ele>
        <time>2022-06-26T12:28:52Z</time>
      </trkpt>
      <trkpt lat="45.75893" lon="4.51932">
        <ele>415.4</ele>
        <time>2022-06-26T12:28:53Z</time>
      </trkpt>
      <trkpt lat="45.75887" lon="4.51935">
        <ele>415</ele>
        <time>2022-06-26T12:28:54Z</time>
      </trkpt>
      <trkpt lat="45.75881" lon="4.51938">
        <ele>414.6</ele>
        <time>2022-06-26T12:28:55Z</time>
      </trkpt>
      <trkpt lat="45.75875" lon="4.51941">
        <ele>414.2</ele>
        <time>2022-06-26T12:28:56Z</time>
      </trkpt>
      <trkpt lat="45.7587" lon="4.51944">
        <ele>414</ele>
        <time>2022-06-26T12:28:57Z</time>
      </trkpt>
      <trkpt lat="45.75866" lon="4.51949">
        <ele>413.6</ele>
        <time>2022-06-26T12:28:58Z</time>
      </trkpt>
      <trkpt lat="45.75862" lon="4.51954">
        <ele>413.4</ele>
        <time>2022-06-26T12:28:59Z</time>
      </trkpt>
      <trkpt lat="45.75859" lon="4.51961">
        <ele>413.2</ele>
        <time>2022-06-26T12:29:00Z</time>
      </trkpt>
      <trkpt lat="45.75856" lon="4.51969">
        <ele>413</ele>
        <time>2022-06-26T12:29:01Z</time>
      </trkpt>
      <trkpt lat="45.75854" lon="4.51977">
        <ele>413</ele>
        <time>2022-06-26T12:29:02Z</time>
      </trkpt>
      <trkpt lat="45.75853" lon="4.51985">
        <ele>413</ele>
        <time>2022-06-26T12:29:03Z</time>
      </trkpt>
      <trkpt lat="45.75852" lon="4.51992">
        <ele>413</ele>
        <time>2022-06-26T12:29:04Z</time>
      </trkpt>
      <trkpt lat="45.75851" lon="4.52">
        <ele>412.8</ele>
        <time>2022-06-26T12:29:05Z</time>
      </trkpt>
      <trkpt lat="45.75851" lon="4.52007">
        <ele>412.8</ele>
        <time>2022-06-26T12:29:06Z</time>
      </trkpt>
      <trkpt lat="45.7585" lon="4.52015">
        <ele>412.8</ele>
        <time>2022-06-26T12:29:07Z</time>
      </trkpt>
      <trkpt lat="45.75849" lon="4.52024">
        <ele>412.8</ele>
        <time>2022-06-26T12:29:08Z</time>
      </trkpt>
      <trkpt lat="45.75848" lon="4.52032">
        <ele>412.8</ele>
        <time>2022-06-26T12:29:09Z</time>
      </trkpt>
      <trkpt lat="45.75847" lon="4.52041">
        <ele>413</ele>
        <time>2022-06-26T12:29:10Z</time>
      </trkpt>
      <trkpt lat="45.75846" lon="4.52049">
        <ele>413</ele>
        <time>2022-06-26T12:29:11Z</time>
      </trkpt>
      <trkpt lat="45.75845" lon="4.52056">
        <ele>413.2</ele>
        <time>2022-06-26T12:29:12Z</time>
      </trkpt>
      <trkpt lat="45.75844" lon="4.52062">
        <ele>413.2</ele>
        <time>2022-06-26T12:29:13Z</time>
      </trkpt>
      <trkpt lat="45.75843" lon="4.52067">
        <ele>413.4</ele>
        <time>2022-06-26T12:29:14Z</time>
      </trkpt>
      <trkpt lat="45.75843" lon="4.52072">
        <ele>413.8</ele>
        <time>2022-06-26T12:29:15Z</time>
      </trkpt>
      <trkpt lat="45.75843" lon="4.52077">
        <ele>414</ele>
        <time>2022-06-26T12:29:16Z</time>
      </trkpt>
      <trkpt lat="45.75843" lon="4.52081">
        <ele>414.2</ele>
        <time>2022-06-26T12:29:17Z</time>
      </trkpt>
      <trkpt lat="45.75843" lon="4.52085">
        <ele>414.6</ele>
        <time>2022-06-26T12:29:18Z</time>
      </trkpt>
      <trkpt lat="45.75843" lon="4.52089">
        <ele>414.8</ele>
        <time>2022-06-26T12:29:19Z</time>
      </trkpt>
      <trkpt lat="45.75843" lon="4.52092">
        <ele>415</ele>
        <time>2022-06-26T12:29:20Z</time>
      </trkpt>
      <trkpt lat="45.75843" lon="4.52096">
        <ele>415.4</ele>
        <time>2022-06-26T12:29:21Z</time>
      </trkpt>
      <trkpt lat="45.75844" lon="4.52099">
        <ele>415.6</ele>
        <time>2022-06-26T12:29:22Z</time>
      </trkpt>
      <trkpt lat="45.75845" lon="4.52102">
        <ele>416</ele>
        <time>2022-06-26T12:29:23Z</time>
      </trkpt>
      <trkpt lat="45.75845" lon="4.52105">
        <ele>416.2</ele>
        <time>2022-06-26T12:29:24Z</time>
      </trkpt>
      <trkpt lat="45.75844" lon="4.52107">
        <ele>416.6</ele>
        <time>2022-06-26T12:29:25Z</time>
      </trkpt>
      <trkpt lat="45.75845" lon="4.5211">
        <ele>416.8</ele>
        <time>2022-06-26T12:29:26Z</time>
      </trkpt>
      <trkpt lat="45.75845" lon="4.52113">
        <ele>417.2</ele>
        <time>2022-06-26T12:29:27Z</time>
      </trkpt>
      <trkpt lat="45.75844" lon="4.52116">
        <ele>417.4</ele>
        <time>2022-06-26T12:29:28Z</time>
      </trkpt>
      <trkpt lat="45.75844" lon="4.52119">
        <ele>417.6</ele>
        <time>2022-06-26T12:29:29Z</time>
      </trkpt>
      <trkpt lat="45.75843" lon="4.52121">
        <ele>418</ele>
        <time>2022-06-26T12:29:30Z</time>
      </trkpt>
      <trkpt lat="45.75843" lon="4.52124">
        <ele>418.2</ele>
        <time>2022-06-26T12:29:31Z</time>
      </trkpt>
      <trkpt lat="45.75842" lon="4.52127">
        <ele>418.4</ele>
        <time>2022-06-26T12:29:32Z</time>
      </trkpt>
      <trkpt lat="45.7584" lon="4.5213">
        <ele>418.8</ele>
        <time>2022-06-26T12:29:33Z</time>
      </trkpt>
      <trkpt lat="45.75839" lon="4.52134">
        <ele>419.2</ele>
        <time>2022-06-26T12:29:34Z</time>
      </trkpt>
      <trkpt lat="45.75837" lon="4.52137">
        <ele>419.4</ele>
        <time>2022-06-26T12:29:35Z</time>
      </trkpt>
      <trkpt lat="45.75835" lon="4.5214">
        <ele>419.8</ele>
        <time>2022-06-26T12:29:36Z</time>
      </trkpt>
      <trkpt lat="45.75834" lon="4.52142">
        <ele>420.2</ele>
        <time>2022-06-26T12:29:37Z</time>
      </trkpt>
      <trkpt lat="45.75833" lon="4.52145">
        <ele>420.6</ele>
        <time>2022-06-26T12:29:38Z</time>
      </trkpt>
      <trkpt lat="45.75832" lon="4.52148">
        <ele>420.8</ele>
        <time>2022-06-26T12:29:39Z</time>
      </trkpt>
      <trkpt lat="45.75831" lon="4.52151">
        <ele>421.2</ele>
        <time>2022-06-26T12:29:40Z</time>
      </trkpt>
      <trkpt lat="45.75831" lon="4.52154">
        <ele>421.4</ele>
        <time>2022-06-26T12:29:41Z</time>
      </trkpt>
      <trkpt lat="45.7583" lon="4.52157">
        <ele>421.8</ele>
        <time>2022-06-26T12:29:42Z</time>
      </trkpt>
      <trkpt lat="45.75829" lon="4.52159">
        <ele>422.2</ele>
        <time>2022-06-26T12:29:43Z</time>
      </trkpt>
      <trkpt lat="45.75828" lon="4.52162">
        <ele>422.6</ele>
        <time>2022-06-26T12:29:44Z</time>
      </trkpt>
      <trkpt lat="45.75827" lon="4.52165">
        <ele>422.8</ele>
        <time>2022-06-26T12:29:45Z</time>
      </trkpt>
      <trkpt lat="45.75826" lon="4.52168">
        <ele>423.2</ele>
        <time>2022-06-26T12:29:46Z</time>
      </trkpt>
      <trkpt lat="45.75826" lon="4.5217">
        <ele>423.4</ele>
        <time>2022-06-26T12:29:47Z</time>
      </trkpt>
      <trkpt lat="45.75825" lon="4.52173">
        <ele>423.8</ele>
        <time>2022-06-26T12:29:48Z</time>
      </trkpt>
      <trkpt lat="45.75825" lon="4.52176">
        <ele>424.2</ele>
        <time>2022-06-26T12:29:49Z</time>
      </trkpt>
      <trkpt lat="45.75824" lon="4.5218">
        <ele>424.6</ele>
        <time>2022-06-26T12:29:50Z</time>
      </trkpt>
      <trkpt lat="45.75824" lon="4.52182">
        <ele>424.8</ele>
        <time>2022-06-26T12:29:51Z</time>
      </trkpt>
      <trkpt lat="45.75823" lon="4.52184">
        <ele>425.2</ele>
        <time>2022-06-26T12:29:52Z</time>
      </trkpt>
      <trkpt lat="45.75822" lon="4.52187">
        <ele>425.4</ele>
        <time>2022-06-26T12:29:53Z</time>
      </trkpt>
      <trkpt lat="45.75821" lon="4.52189">
        <ele>426</ele>
        <time>2022-06-26T12:29:54Z</time>
      </trkpt>
      <trkpt lat="45.75821" lon="4.52192">
        <ele>426.2</ele>
        <time>2022-06-26T12:29:55Z</time>
      </trkpt>
      <trkpt lat="45.7582" lon="4.52194">
        <ele>426.6</ele>
        <time>2022-06-26T12:29:56Z</time>
      </trkpt>
      <trkpt lat="45.75819" lon="4.52196">
        <ele>427</ele>
        <time>2022-06-26T12:29:57Z</time>
      </trkpt>
      <trkpt lat="45.75818" lon="4.52199">
        <ele>427.2</ele>
        <time>2022-06-26T12:29:58Z</time>
      </trkpt>
      <trkpt lat="45.75818" lon="4.522">
        <ele>427.4</ele>
        <time>2022-06-26T12:29:59Z</time>
      </trkpt>
      <trkpt lat="45.75817" lon="4.52202">
        <ele>427.8</ele>
        <time>2022-06-26T12:30:00Z</time>
      </trkpt>
      <trkpt lat="45.75816" lon="4.52204">
        <ele>428</ele>
        <time>2022-06-26T12:30:01Z</time>
      </trkpt>
      <trkpt lat="45.75816" lon="4.52206">
        <ele>428.2</ele>
        <time>2022-06-26T12:30:02Z</time>
      </trkpt>
      <trkpt lat="45.75815" lon="4.52209">
        <ele>428.6</ele>
        <time>2022-06-26T12:30:03Z</time>
      </trkpt>
      <trkpt lat="45.75815" lon="4.52211">
        <ele>428.8</ele>
        <time>2022-06-26T12:30:04Z</time>
      </trkpt>
      <trkpt lat="45.75814" lon="4.52214">
        <ele>429.2</ele>
        <time>2022-06-26T12:30:05Z</time>
      </trkpt>
      <trkpt lat="45.75813" lon="4.52216">
        <ele>429.4</ele>
        <time>2022-06-26T12:30:06Z</time>
      </trkpt>
      <trkpt lat="45.75812" lon="4.52219">
        <ele>429.6</ele>
        <time>2022-06-26T12:30:07Z</time>
      </trkpt>
      <trkpt lat="45.75812" lon="4.52222">
        <ele>430</ele>
        <time>2022-06-26T12:30:08Z</time>
      </trkpt>
      <trkpt lat="45.75812" lon="4.52224">
        <ele>430.2</ele>
        <time>2022-06-26T12:30:09Z</time>
      </trkpt>
      <trkpt lat="45.75811" lon="4.52227">
        <ele>430.4</ele>
        <time>2022-06-26T12:30:10Z</time>
      </trkpt>
      <trkpt lat="45.7581" lon="4.52229">
        <ele>430.6</ele>
        <time>2022-06-26T12:30:11Z</time>
      </trkpt>
      <trkpt lat="45.75809" lon="4.52232">
        <ele>431</ele>
        <time>2022-06-26T12:30:12Z</time>
      </trkpt>
      <trkpt lat="45.75808" lon="4.52234">
        <ele>431.2</ele>
        <time>2022-06-26T12:30:13Z</time>
      </trkpt>
      <trkpt lat="45.75808" lon="4.52237">
        <ele>431.4</ele>
        <time>2022-06-26T12:30:14Z</time>
      </trkpt>
      <trkpt lat="45.75807" lon="4.52239">
        <ele>431.6</ele>
        <time>2022-06-26T12:30:15Z</time>
      </trkpt>
      <trkpt lat="45.75806" lon="4.52241">
        <ele>431.8</ele>
        <time>2022-06-26T12:30:16Z</time>
      </trkpt>
      <trkpt lat="45.75805" lon="4.52244">
        <ele>431.8</ele>
        <time>2022-06-26T12:30:17Z</time>
      </trkpt>
      <trkpt lat="45.75804" lon="4.52246">
        <ele>432.2</ele>
        <time>2022-06-26T12:30:18Z</time>
      </trkpt>
      <trkpt lat="45.75803" lon="4.52249">
        <ele>432.4</ele>
        <time>2022-06-26T12:30:19Z</time>
      </trkpt>
      <trkpt lat="45.75802" lon="4.52251">
        <ele>432.8</ele>
        <time>2022-06-26T12:30:20Z</time>
      </trkpt>
      <trkpt lat="45.75801" lon="4.52254">
        <ele>433</ele>
        <time>2022-06-26T12:30:21Z</time>
      </trkpt>
      <trkpt lat="45.758" lon="4.52259">
        <ele>433.2</ele>
        <time>2022-06-26T12:30:22Z</time>
      </trkpt>
      <trkpt lat="45.75799" lon="4.52261">
        <ele>433.2</ele>
        <time>2022-06-26T12:30:23Z</time>
      </trkpt>
      <trkpt lat="45.75798" lon="4.52263">
        <ele>433.6</ele>
        <time>2022-06-26T12:30:24Z</time>
      </trkpt>
      <trkpt lat="45.75798" lon="4.52266">
        <ele>433.8</ele>
        <time>2022-06-26T12:30:25Z</time>
      </trkpt>
      <trkpt lat="45.75797" lon="4.52267">
        <ele>434.2</ele>
        <time>2022-06-26T12:30:26Z</time>
      </trkpt>
      <trkpt lat="45.75796" lon="4.5227">
        <ele>434.4</ele>
        <time>2022-06-26T12:30:27Z</time>
      </trkpt>
      <trkpt lat="45.75795" lon="4.52272">
        <ele>434.6</ele>
        <time>2022-06-26T12:30:28Z</time>
      </trkpt>
      <trkpt lat="45.75794" lon="4.52274">
        <ele>434.8</ele>
        <time>2022-06-26T12:30:29Z</time>
      </trkpt>
      <trkpt lat="45.75794" lon="4.52276">
        <ele>434.8</ele>
        <time>2022-06-26T12:30:30Z</time>
      </trkpt>
      <trkpt lat="45.75793" lon="4.52278">
        <ele>435.2</ele>
        <time>2022-06-26T12:30:31Z</time>
      </trkpt>
      <trkpt lat="45.75792" lon="4.52281">
        <ele>435.4</ele>
        <time>2022-06-26T12:30:32Z</time>
      </trkpt>
      <trkpt lat="45.75792" lon="4.52283">
        <ele>435.6</ele>
        <time>2022-06-26T12:30:33Z</time>
      </trkpt>
      <trkpt lat="45.75791" lon="4.52285">
        <ele>435.6</ele>
        <time>2022-06-26T12:30:34Z</time>
      </trkpt>
      <trkpt lat="45.7579" lon="4.52287">
        <ele>436</ele>
        <time>2022-06-26T12:30:35Z</time>
      </trkpt>
      <trkpt lat="45.7579" lon="4.52289">
        <ele>436</ele>
        <time>2022-06-26T12:30:36Z</time>
      </trkpt>
      <trkpt lat="45.75789" lon="4.52291">
        <ele>436.2</ele>
        <time>2022-06-26T12:30:37Z</time>
      </trkpt>
      <trkpt lat="45.75788" lon="4.52293">
        <ele>436.2</ele>
        <time>2022-06-26T12:30:38Z</time>
      </trkpt>
      <trkpt lat="45.75786" lon="4.52296">
        <ele>436.6</ele>
        <time>2022-06-26T12:30:39Z</time>
      </trkpt>
      <trkpt lat="45.75786" lon="4.52298">
        <ele>436.6</ele>
        <time>2022-06-26T12:30:40Z</time>
      </trkpt>
      <trkpt lat="45.75785" lon="4.523">
        <ele>436.8</ele>
        <time>2022-06-26T12:30:41Z</time>
      </trkpt>
      <trkpt lat="45.75785" lon="4.52302">
        <ele>436.8</ele>
        <time>2022-06-26T12:30:42Z</time>
      </trkpt>
      <trkpt lat="45.75784" lon="4.52305">
        <ele>437.2</ele>
        <time>2022-06-26T12:30:43Z</time>
      </trkpt>
      <trkpt lat="45.75784" lon="4.52308">
        <ele>437.2</ele>
        <time>2022-06-26T12:30:44Z</time>
      </trkpt>
      <trkpt lat="45.75783" lon="4.5231">
        <ele>437.4</ele>
        <time>2022-06-26T12:30:45Z</time>
      </trkpt>
      <trkpt lat="45.75783" lon="4.52313">
        <ele>437.4</ele>
        <time>2022-06-26T12:30:46Z</time>
      </trkpt>
      <trkpt lat="45.75782" lon="4.52315">
        <ele>437.8</ele>
        <time>2022-06-26T12:30:47Z</time>
      </trkpt>
      <trkpt lat="45.75781" lon="4.52317">
        <ele>437.8</ele>
        <time>2022-06-26T12:30:48Z</time>
      </trkpt>
      <trkpt lat="45.75781" lon="4.5232">
        <ele>437.8</ele>
        <time>2022-06-26T12:30:49Z</time>
      </trkpt>
      <trkpt lat="45.75779" lon="4.52323">
        <ele>438</ele>
        <time>2022-06-26T12:30:50Z</time>
      </trkpt>
      <trkpt lat="45.75778" lon="4.52328">
        <ele>438</ele>
        <time>2022-06-26T12:30:51Z</time>
      </trkpt>
      <trkpt lat="45.75777" lon="4.52331">
        <ele>438</ele>
        <time>2022-06-26T12:30:52Z</time>
      </trkpt>
      <trkpt lat="45.75775" lon="4.52335">
        <ele>438</ele>
        <time>2022-06-26T12:30:53Z</time>
      </trkpt>
      <trkpt lat="45.75774" lon="4.52339">
        <ele>438</ele>
        <time>2022-06-26T12:30:54Z</time>
      </trkpt>
      <trkpt lat="45.75773" lon="4.52343">
        <ele>438.2</ele>
        <time>2022-06-26T12:30:55Z</time>
      </trkpt>
      <trkpt lat="45.75771" lon="4.52347">
        <ele>438.2</ele>
        <time>2022-06-26T12:30:56Z</time>
      </trkpt>
      <trkpt lat="45.7577" lon="4.5235">
        <ele>438.2</ele>
        <time>2022-06-26T12:30:57Z</time>
      </trkpt>
      <trkpt lat="45.75768" lon="4.52354">
        <ele>438.2</ele>
        <time>2022-06-26T12:30:58Z</time>
      </trkpt>
      <trkpt lat="45.75767" lon="4.52358">
        <ele>438.2</ele>
        <time>2022-06-26T12:30:59Z</time>
      </trkpt>
      <trkpt lat="45.75765" lon="4.52362">
        <ele>438.6</ele>
        <time>2022-06-26T12:31:00Z</time>
      </trkpt>
      <trkpt lat="45.75763" lon="4.52366">
        <ele>438.6</ele>
        <time>2022-06-26T12:31:01Z</time>
      </trkpt>
      <trkpt lat="45.75761" lon="4.52369">
        <ele>438.6</ele>
        <time>2022-06-26T12:31:02Z</time>
      </trkpt>
      <trkpt lat="45.7576" lon="4.52373">
        <ele>438.6</ele>
        <time>2022-06-26T12:31:03Z</time>
      </trkpt>
      <trkpt lat="45.75758" lon="4.52377">
        <ele>438.8</ele>
        <time>2022-06-26T12:31:04Z</time>
      </trkpt>
      <trkpt lat="45.75756" lon="4.5238">
        <ele>438.8</ele>
        <time>2022-06-26T12:31:05Z</time>
      </trkpt>
      <trkpt lat="45.75754" lon="4.52383">
        <ele>439</ele>
        <time>2022-06-26T12:31:06Z</time>
      </trkpt>
      <trkpt lat="45.75753" lon="4.52387">
        <ele>439</ele>
        <time>2022-06-26T12:31:07Z</time>
      </trkpt>
      <trkpt lat="45.75751" lon="4.52392">
        <ele>439.2</ele>
        <time>2022-06-26T12:31:08Z</time>
      </trkpt>
      <trkpt lat="45.7575" lon="4.52396">
        <ele>439.2</ele>
        <time>2022-06-26T12:31:09Z</time>
      </trkpt>
      <trkpt lat="45.75749" lon="4.524">
        <ele>439.2</ele>
        <time>2022-06-26T12:31:10Z</time>
      </trkpt>
      <trkpt lat="45.75747" lon="4.52404">
        <ele>439.6</ele>
        <time>2022-06-26T12:31:11Z</time>
      </trkpt>
      <trkpt lat="45.75745" lon="4.52408">
        <ele>439.6</ele>
        <time>2022-06-26T12:31:12Z</time>
      </trkpt>
      <trkpt lat="45.75744" lon="4.52412">
        <ele>439.8</ele>
        <time>2022-06-26T12:31:13Z</time>
      </trkpt>
      <trkpt lat="45.75742" lon="4.52416">
        <ele>439.8</ele>
        <time>2022-06-26T12:31:14Z</time>
      </trkpt>
      <trkpt lat="45.75741" lon="4.5242">
        <ele>440.2</ele>
        <time>2022-06-26T12:31:15Z</time>
      </trkpt>
      <trkpt lat="45.7574" lon="4.52424">
        <ele>440.4</ele>
        <time>2022-06-26T12:31:16Z</time>
      </trkpt>
      <trkpt lat="45.75739" lon="4.52427">
        <ele>440.8</ele>
        <time>2022-06-26T12:31:17Z</time>
      </trkpt>
      <trkpt lat="45.75738" lon="4.52431">
        <ele>441</ele>
        <time>2022-06-26T12:31:18Z</time>
      </trkpt>
      <trkpt lat="45.75737" lon="4.52434">
        <ele>441.4</ele>
        <time>2022-06-26T12:31:19Z</time>
      </trkpt>
      <trkpt lat="45.75736" lon="4.52438">
        <ele>441.6</ele>
        <time>2022-06-26T12:31:20Z</time>
      </trkpt>
      <trkpt lat="45.75735" lon="4.52441">
        <ele>442</ele>
        <time>2022-06-26T12:31:21Z</time>
      </trkpt>
      <trkpt lat="45.75733" lon="4.52445">
        <ele>442.4</ele>
        <time>2022-06-26T12:31:22Z</time>
      </trkpt>
      <trkpt lat="45.75732" lon="4.52448">
        <ele>442.8</ele>
        <time>2022-06-26T12:31:23Z</time>
      </trkpt>
      <trkpt lat="45.75731" lon="4.5245">
        <ele>443.2</ele>
        <time>2022-06-26T12:31:24Z</time>
      </trkpt>
      <trkpt lat="45.75731" lon="4.52454">
        <ele>443.4</ele>
        <time>2022-06-26T12:31:25Z</time>
      </trkpt>
      <trkpt lat="45.7573" lon="4.52456">
        <ele>443.8</ele>
        <time>2022-06-26T12:31:26Z</time>
      </trkpt>
      <trkpt lat="45.75729" lon="4.5246">
        <ele>444</ele>
        <time>2022-06-26T12:31:27Z</time>
      </trkpt>
      <trkpt lat="45.75728" lon="4.52463">
        <ele>444.2</ele>
        <time>2022-06-26T12:31:28Z</time>
      </trkpt>
      <trkpt lat="45.75727" lon="4.52466">
        <ele>444.6</ele>
        <time>2022-06-26T12:31:29Z</time>
      </trkpt>
      <trkpt lat="45.75725" lon="4.52469">
        <ele>444.8</ele>
        <time>2022-06-26T12:31:30Z</time>
      </trkpt>
      <trkpt lat="45.75724" lon="4.52471">
        <ele>445.2</ele>
        <time>2022-06-26T12:31:31Z</time>
      </trkpt>
      <trkpt lat="45.75723" lon="4.52474">
        <ele>445.6</ele>
        <time>2022-06-26T12:31:32Z</time>
      </trkpt>
      <trkpt lat="45.75722" lon="4.52477">
        <ele>445.8</ele>
        <time>2022-06-26T12:31:33Z</time>
      </trkpt>
      <trkpt lat="45.75721" lon="4.5248">
        <ele>446.2</ele>
        <time>2022-06-26T12:31:34Z</time>
      </trkpt>
      <trkpt lat="45.7572" lon="4.52483">
        <ele>446.4</ele>
        <time>2022-06-26T12:31:35Z</time>
      </trkpt>
      <trkpt lat="45.75719" lon="4.52488">
        <ele>446.6</ele>
        <time>2022-06-26T12:31:36Z</time>
      </trkpt>
      <trkpt lat="45.75718" lon="4.52491">
        <ele>446.8</ele>
        <time>2022-06-26T12:31:37Z</time>
      </trkpt>
      <trkpt lat="45.75717" lon="4.52495">
        <ele>447.2</ele>
        <time>2022-06-26T12:31:38Z</time>
      </trkpt>
      <trkpt lat="45.75717" lon="4.52498">
        <ele>447.6</ele>
        <time>2022-06-26T12:31:39Z</time>
      </trkpt>
      <trkpt lat="45.75716" lon="4.52501">
        <ele>447.8</ele>
        <time>2022-06-26T12:31:40Z</time>
      </trkpt>
      <trkpt lat="45.75714" lon="4.52503">
        <ele>448</ele>
        <time>2022-06-26T12:31:41Z</time>
      </trkpt>
      <trkpt lat="45.75713" lon="4.52506">
        <ele>448.4</ele>
        <time>2022-06-26T12:31:42Z</time>
      </trkpt>
      <trkpt lat="45.75712" lon="4.52509">
        <ele>448.6</ele>
        <time>2022-06-26T12:31:43Z</time>
      </trkpt>
      <trkpt lat="45.75711" lon="4.52511">
        <ele>448.8</ele>
        <time>2022-06-26T12:31:44Z</time>
      </trkpt>
      <trkpt lat="45.7571" lon="4.52513">
        <ele>449</ele>
        <time>2022-06-26T12:31:45Z</time>
      </trkpt>
      <trkpt lat="45.75708" lon="4.52515">
        <ele>449.2</ele>
        <time>2022-06-26T12:31:46Z</time>
      </trkpt>
      <trkpt lat="45.75707" lon="4.52517">
        <ele>449.4</ele>
        <time>2022-06-26T12:31:47Z</time>
      </trkpt>
      <trkpt lat="45.75706" lon="4.5252">
        <ele>449.6</ele>
        <time>2022-06-26T12:31:48Z</time>
      </trkpt>
      <trkpt lat="45.75705" lon="4.52521">
        <ele>449.6</ele>
        <time>2022-06-26T12:31:49Z</time>
      </trkpt>
      <trkpt lat="45.75704" lon="4.52524">
        <ele>450</ele>
        <time>2022-06-26T12:31:50Z</time>
      </trkpt>
      <trkpt lat="45.75703" lon="4.52526">
        <ele>450.4</ele>
        <time>2022-06-26T12:31:51Z</time>
      </trkpt>
      <trkpt lat="45.75702" lon="4.52528">
        <ele>450.4</ele>
        <time>2022-06-26T12:31:52Z</time>
      </trkpt>
      <trkpt lat="45.75701" lon="4.52529">
        <ele>450.6</ele>
        <time>2022-06-26T12:31:53Z</time>
      </trkpt>
      <trkpt lat="45.757" lon="4.52531">
        <ele>450.6</ele>
        <time>2022-06-26T12:31:54Z</time>
      </trkpt>
      <trkpt lat="45.75699" lon="4.52533">
        <ele>451</ele>
        <time>2022-06-26T12:31:55Z</time>
      </trkpt>
      <trkpt lat="45.75698" lon="4.52535">
        <ele>451</ele>
        <time>2022-06-26T12:31:56Z</time>
      </trkpt>
      <trkpt lat="45.75696" lon="4.52538">
        <ele>451.4</ele>
        <time>2022-06-26T12:31:57Z</time>
      </trkpt>
      <trkpt lat="45.75695" lon="4.5254">
        <ele>451.4</ele>
        <time>2022-06-26T12:31:58Z</time>
      </trkpt>
      <trkpt lat="45.75694" lon="4.52542">
        <ele>451.6</ele>
        <time>2022-06-26T12:31:59Z</time>
      </trkpt>
      <trkpt lat="45.75692" lon="4.52543">
        <ele>451.8</ele>
        <time>2022-06-26T12:32:00Z</time>
      </trkpt>
      <trkpt lat="45.75691" lon="4.52545">
        <ele>451.8</ele>
        <time>2022-06-26T12:32:01Z</time>
      </trkpt>
      <trkpt lat="45.75689" lon="4.52547">
        <ele>452.2</ele>
        <time>2022-06-26T12:32:02Z</time>
      </trkpt>
      <trkpt lat="45.75687" lon="4.52548">
        <ele>452.6</ele>
        <time>2022-06-26T12:32:03Z</time>
      </trkpt>
      <trkpt lat="45.75685" lon="4.52549">
        <ele>452.8</ele>
        <time>2022-06-26T12:32:04Z</time>
      </trkpt>
      <trkpt lat="45.75684" lon="4.52551">
        <ele>453</ele>
        <time>2022-06-26T12:32:05Z</time>
      </trkpt>
      <trkpt lat="45.75682" lon="4.52552">
        <ele>453.2</ele>
        <time>2022-06-26T12:32:06Z</time>
      </trkpt>
      <trkpt lat="45.75681" lon="4.52554">
        <ele>453.2</ele>
        <time>2022-06-26T12:32:07Z</time>
      </trkpt>
      <trkpt lat="45.7568" lon="4.52556">
        <ele>453.8</ele>
        <time>2022-06-26T12:32:08Z</time>
      </trkpt>
      <trkpt lat="45.75678" lon="4.52557">
        <ele>454</ele>
        <time>2022-06-26T12:32:09Z</time>
      </trkpt>
      <trkpt lat="45.75677" lon="4.52558">
        <ele>454.2</ele>
        <time>2022-06-26T12:32:10Z</time>
      </trkpt>
      <trkpt lat="45.75675" lon="4.5256">
        <ele>454.2</ele>
        <time>2022-06-26T12:32:11Z</time>
      </trkpt>
      <trkpt lat="45.75674" lon="4.52561">
        <ele>454.4</ele>
        <time>2022-06-26T12:32:12Z</time>
      </trkpt>
      <trkpt lat="45.75672" lon="4.52562">
        <ele>454.4</ele>
        <time>2022-06-26T12:32:13Z</time>
      </trkpt>
      <trkpt lat="45.75671" lon="4.52564">
        <ele>454.8</ele>
        <time>2022-06-26T12:32:14Z</time>
      </trkpt>
      <trkpt lat="45.75669" lon="4.52565">
        <ele>454.8</ele>
        <time>2022-06-26T12:32:15Z</time>
      </trkpt>
      <trkpt lat="45.75667" lon="4.52565">
        <ele>455.2</ele>
        <time>2022-06-26T12:32:16Z</time>
      </trkpt>
      <trkpt lat="45.75665" lon="4.52566">
        <ele>455.2</ele>
        <time>2022-06-26T12:32:17Z</time>
      </trkpt>
      <trkpt lat="45.75663" lon="4.52566">
        <ele>455.6</ele>
        <time>2022-06-26T12:32:18Z</time>
      </trkpt>
      <trkpt lat="45.75661" lon="4.52567">
        <ele>455.6</ele>
        <time>2022-06-26T12:32:19Z</time>
      </trkpt>
      <trkpt lat="45.75659" lon="4.52567">
        <ele>456</ele>
        <time>2022-06-26T12:32:20Z</time>
      </trkpt>
      <trkpt lat="45.75657" lon="4.52568">
        <ele>456</ele>
        <time>2022-06-26T12:32:21Z</time>
      </trkpt>
      <trkpt lat="45.75654" lon="4.52568">
        <ele>456.4</ele>
        <time>2022-06-26T12:32:22Z</time>
      </trkpt>
      <trkpt lat="45.75652" lon="4.52568">
        <ele>456.4</ele>
        <time>2022-06-26T12:32:23Z</time>
      </trkpt>
      <trkpt lat="45.7565" lon="4.52568">
        <ele>456.6</ele>
        <time>2022-06-26T12:32:24Z</time>
      </trkpt>
      <trkpt lat="45.75648" lon="4.52569">
        <ele>456.6</ele>
        <time>2022-06-26T12:32:25Z</time>
      </trkpt>
      <trkpt lat="45.75646" lon="4.52569">
        <ele>457</ele>
        <time>2022-06-26T12:32:26Z</time>
      </trkpt>
      <trkpt lat="45.75644" lon="4.52569">
        <ele>457.4</ele>
        <time>2022-06-26T12:32:27Z</time>
      </trkpt>
      <trkpt lat="45.75642" lon="4.5257">
        <ele>457.4</ele>
        <time>2022-06-26T12:32:28Z</time>
      </trkpt>
      <trkpt lat="45.7564" lon="4.52571">
        <ele>457.8</ele>
        <time>2022-06-26T12:32:29Z</time>
      </trkpt>
      <trkpt lat="45.75638" lon="4.52571">
        <ele>457.8</ele>
        <time>2022-06-26T12:32:30Z</time>
      </trkpt>
      <trkpt lat="45.75636" lon="4.52571">
        <ele>458.2</ele>
        <time>2022-06-26T12:32:31Z</time>
      </trkpt>
      <trkpt lat="45.75634" lon="4.52571">
        <ele>458.4</ele>
        <time>2022-06-26T12:32:32Z</time>
      </trkpt>
      <trkpt lat="45.75632" lon="4.52571">
        <ele>458.4</ele>
        <time>2022-06-26T12:32:33Z</time>
      </trkpt>
      <trkpt lat="45.7563" lon="4.52571">
        <ele>458.8</ele>
        <time>2022-06-26T12:32:34Z</time>
      </trkpt>
      <trkpt lat="45.75628" lon="4.52571">
        <ele>459</ele>
        <time>2022-06-26T12:32:35Z</time>
      </trkpt>
      <trkpt lat="45.75626" lon="4.5257">
        <ele>459</ele>
        <time>2022-06-26T12:32:36Z</time>
      </trkpt>
      <trkpt lat="45.75624" lon="4.5257">
        <ele>459.4</ele>
        <time>2022-06-26T12:32:37Z</time>
      </trkpt>
      <trkpt lat="45.75621" lon="4.52569">
        <ele>459.4</ele>
        <time>2022-06-26T12:32:38Z</time>
      </trkpt>
      <trkpt lat="45.75619" lon="4.52569">
        <ele>459.6</ele>
        <time>2022-06-26T12:32:39Z</time>
      </trkpt>
      <trkpt lat="45.75618" lon="4.52569">
        <ele>459.6</ele>
        <time>2022-06-26T12:32:40Z</time>
      </trkpt>
      <trkpt lat="45.75616" lon="4.52568">
        <ele>459.8</ele>
        <time>2022-06-26T12:32:41Z</time>
      </trkpt>
      <trkpt lat="45.75614" lon="4.52567">
        <ele>459.8</ele>
        <time>2022-06-26T12:32:42Z</time>
      </trkpt>
      <trkpt lat="45.75611" lon="4.52567">
        <ele>459.8</ele>
        <time>2022-06-26T12:32:43Z</time>
      </trkpt>
      <trkpt lat="45.75609" lon="4.52566">
        <ele>460.2</ele>
        <time>2022-06-26T12:32:44Z</time>
      </trkpt>
      <trkpt lat="45.75607" lon="4.52565">
        <ele>460.2</ele>
        <time>2022-06-26T12:32:45Z</time>
      </trkpt>
      <trkpt lat="45.75604" lon="4.52564">
        <ele>460.4</ele>
        <time>2022-06-26T12:32:46Z</time>
      </trkpt>
      <trkpt lat="45.75601" lon="4.52563">
        <ele>460.4</ele>
        <time>2022-06-26T12:32:47Z</time>
      </trkpt>
      <trkpt lat="45.75599" lon="4.52563">
        <ele>460.8</ele>
        <time>2022-06-26T12:32:48Z</time>
      </trkpt>
      <trkpt lat="45.75596" lon="4.52562">
        <ele>460.8</ele>
        <time>2022-06-26T12:32:49Z</time>
      </trkpt>
      <trkpt lat="45.75594" lon="4.52561">
        <ele>461.2</ele>
        <time>2022-06-26T12:32:50Z</time>
      </trkpt>
      <trkpt lat="45.75591" lon="4.52561">
        <ele>461.2</ele>
        <time>2022-06-26T12:32:51Z</time>
      </trkpt>
      <trkpt lat="45.75588" lon="4.5256">
        <ele>461.6</ele>
        <time>2022-06-26T12:32:52Z</time>
      </trkpt>
      <trkpt lat="45.75586" lon="4.5256">
        <ele>461.8</ele>
        <time>2022-06-26T12:32:53Z</time>
      </trkpt>
      <trkpt lat="45.75583" lon="4.5256">
        <ele>462</ele>
        <time>2022-06-26T12:32:54Z</time>
      </trkpt>
      <trkpt lat="45.75581" lon="4.5256">
        <ele>462.2</ele>
        <time>2022-06-26T12:32:55Z</time>
      </trkpt>
      <trkpt lat="45.75578" lon="4.5256">
        <ele>462.6</ele>
        <time>2022-06-26T12:32:56Z</time>
      </trkpt>
      <trkpt lat="45.75576" lon="4.52561">
        <ele>462.8</ele>
        <time>2022-06-26T12:32:57Z</time>
      </trkpt>
      <trkpt lat="45.75574" lon="4.52561">
        <ele>462.8</ele>
        <time>2022-06-26T12:32:58Z</time>
      </trkpt>
      <trkpt lat="45.75571" lon="4.52561">
        <ele>463.4</ele>
        <time>2022-06-26T12:33:00Z</time>
      </trkpt>
      <trkpt lat="45.75569" lon="4.52562">
        <ele>463.4</ele>
        <time>2022-06-26T12:33:01Z</time>
      </trkpt>
      <trkpt lat="45.75567" lon="4.52562">
        <ele>463.8</ele>
        <time>2022-06-26T12:33:02Z</time>
      </trkpt>
      <trkpt lat="45.75565" lon="4.52562">
        <ele>464.2</ele>
        <time>2022-06-26T12:33:03Z</time>
      </trkpt>
      <trkpt lat="45.75563" lon="4.52562">
        <ele>464.4</ele>
        <time>2022-06-26T12:33:04Z</time>
      </trkpt>
      <trkpt lat="45.75561" lon="4.52562">
        <ele>464.4</ele>
        <time>2022-06-26T12:33:05Z</time>
      </trkpt>
      <trkpt lat="45.75559" lon="4.52563">
        <ele>464.8</ele>
        <time>2022-06-26T12:33:06Z</time>
      </trkpt>
      <trkpt lat="45.75556" lon="4.52564">
        <ele>464.8</ele>
        <time>2022-06-26T12:33:07Z</time>
      </trkpt>
      <trkpt lat="45.75554" lon="4.52564">
        <ele>465.2</ele>
        <time>2022-06-26T12:33:08Z</time>
      </trkpt>
      <trkpt lat="45.75552" lon="4.52565">
        <ele>465.2</ele>
        <time>2022-06-26T12:33:09Z</time>
      </trkpt>
      <trkpt lat="45.7555" lon="4.52565">
        <ele>465.4</ele>
        <time>2022-06-26T12:33:10Z</time>
      </trkpt>
      <trkpt lat="45.75547" lon="4.52564">
        <ele>465.4</ele>
        <time>2022-06-26T12:33:11Z</time>
      </trkpt>
      <trkpt lat="45.75545" lon="4.52564">
        <ele>465.8</ele>
        <time>2022-06-26T12:33:12Z</time>
      </trkpt>
      <trkpt lat="45.75543" lon="4.52563">
        <ele>465.8</ele>
        <time>2022-06-26T12:33:13Z</time>
      </trkpt>
      <trkpt lat="45.75541" lon="4.52563">
        <ele>466</ele>
        <time>2022-06-26T12:33:14Z</time>
      </trkpt>
      <trkpt lat="45.75539" lon="4.52563">
        <ele>466</ele>
        <time>2022-06-26T12:33:15Z</time>
      </trkpt>
      <trkpt lat="45.75536" lon="4.52564">
        <ele>466.2</ele>
        <time>2022-06-26T12:33:16Z</time>
      </trkpt>
      <trkpt lat="45.75534" lon="4.52564">
        <ele>466.2</ele>
        <time>2022-06-26T12:33:17Z</time>
      </trkpt>
      <trkpt lat="45.75531" lon="4.52564">
        <ele>466.2</ele>
        <time>2022-06-26T12:33:18Z</time>
      </trkpt>
      <trkpt lat="45.75529" lon="4.52565">
        <ele>466.6</ele>
        <time>2022-06-26T12:33:19Z</time>
      </trkpt>
      <trkpt lat="45.75527" lon="4.52565">
        <ele>466.6</ele>
        <time>2022-06-26T12:33:20Z</time>
      </trkpt>
      <trkpt lat="45.75524" lon="4.52566">
        <ele>466.6</ele>
        <time>2022-06-26T12:33:21Z</time>
      </trkpt>
      <trkpt lat="45.75522" lon="4.52567">
        <ele>466.6</ele>
        <time>2022-06-26T12:33:22Z</time>
      </trkpt>
      <trkpt lat="45.75519" lon="4.52569">
        <ele>466.6</ele>
        <time>2022-06-26T12:33:23Z</time>
      </trkpt>
      <trkpt lat="45.75516" lon="4.5257">
        <ele>466.8</ele>
        <time>2022-06-26T12:33:24Z</time>
      </trkpt>
      <trkpt lat="45.75514" lon="4.52572">
        <ele>466.8</ele>
        <time>2022-06-26T12:33:25Z</time>
      </trkpt>
      <trkpt lat="45.75511" lon="4.52575">
        <ele>466.8</ele>
        <time>2022-06-26T12:33:26Z</time>
      </trkpt>
      <trkpt lat="45.75508" lon="4.52577">
        <ele>467</ele>
        <time>2022-06-26T12:33:27Z</time>
      </trkpt>
      <trkpt lat="45.75505" lon="4.52579">
        <ele>467</ele>
        <time>2022-06-26T12:33:28Z</time>
      </trkpt>
      <trkpt lat="45.75502" lon="4.52581">
        <ele>467.2</ele>
        <time>2022-06-26T12:33:29Z</time>
      </trkpt>
      <trkpt lat="45.75499" lon="4.52584">
        <ele>467.2</ele>
        <time>2022-06-26T12:33:30Z</time>
      </trkpt>
      <trkpt lat="45.75497" lon="4.52586">
        <ele>467.6</ele>
        <time>2022-06-26T12:33:31Z</time>
      </trkpt>
      <trkpt lat="45.75494" lon="4.52589">
        <ele>467.6</ele>
        <time>2022-06-26T12:33:32Z</time>
      </trkpt>
      <trkpt lat="45.75492" lon="4.52591">
        <ele>467.8</ele>
        <time>2022-06-26T12:33:33Z</time>
      </trkpt>
      <trkpt lat="45.7549" lon="4.52593">
        <ele>467.8</ele>
        <time>2022-06-26T12:33:34Z</time>
      </trkpt>
      <trkpt lat="45.75487" lon="4.52595">
        <ele>468</ele>
        <time>2022-06-26T12:33:35Z</time>
      </trkpt>
      <trkpt lat="45.75484" lon="4.52597">
        <ele>468</ele>
        <time>2022-06-26T12:33:36Z</time>
      </trkpt>
      <trkpt lat="45.75481" lon="4.52599">
        <ele>468</ele>
        <time>2022-06-26T12:33:37Z</time>
      </trkpt>
      <trkpt lat="45.75479" lon="4.52601">
        <ele>468</ele>
        <time>2022-06-26T12:33:38Z</time>
      </trkpt>
      <trkpt lat="45.75477" lon="4.52604">
        <ele>468.4</ele>
        <time>2022-06-26T12:33:39Z</time>
      </trkpt>
      <trkpt lat="45.75475" lon="4.52606">
        <ele>468.4</ele>
        <time>2022-06-26T12:33:40Z</time>
      </trkpt>
      <trkpt lat="45.75473" lon="4.52609">
        <ele>468.4</ele>
        <time>2022-06-26T12:33:41Z</time>
      </trkpt>
      <trkpt lat="45.75471" lon="4.52611">
        <ele>468.4</ele>
        <time>2022-06-26T12:33:42Z</time>
      </trkpt>
      <trkpt lat="45.75468" lon="4.52613">
        <ele>468.4</ele>
        <time>2022-06-26T12:33:43Z</time>
      </trkpt>
      <trkpt lat="45.75465" lon="4.52616">
        <ele>468.4</ele>
        <time>2022-06-26T12:33:44Z</time>
      </trkpt>
      <trkpt lat="45.75463" lon="4.5262">
        <ele>468.4</ele>
        <time>2022-06-26T12:33:45Z</time>
      </trkpt>
      <trkpt lat="45.75461" lon="4.52623">
        <ele>468.6</ele>
        <time>2022-06-26T12:33:46Z</time>
      </trkpt>
      <trkpt lat="45.75458" lon="4.52627">
        <ele>468.6</ele>
        <time>2022-06-26T12:33:47Z</time>
      </trkpt>
      <trkpt lat="45.75455" lon="4.52631">
        <ele>468.6</ele>
        <time>2022-06-26T12:33:48Z</time>
      </trkpt>
      <trkpt lat="45.75452" lon="4.52634">
        <ele>468.8</ele>
        <time>2022-06-26T12:33:49Z</time>
      </trkpt>
      <trkpt lat="45.75449" lon="4.52637">
        <ele>468.8</ele>
        <time>2022-06-26T12:33:50Z</time>
      </trkpt>
      <trkpt lat="45.75446" lon="4.5264">
        <ele>469</ele>
        <time>2022-06-26T12:33:51Z</time>
      </trkpt>
      <trkpt lat="45.75443" lon="4.52643">
        <ele>469</ele>
        <time>2022-06-26T12:33:52Z</time>
      </trkpt>
      <trkpt lat="45.7544" lon="4.52645">
        <ele>469.4</ele>
        <time>2022-06-26T12:33:53Z</time>
      </trkpt>
      <trkpt lat="45.75438" lon="4.52648">
        <ele>469.6</ele>
        <time>2022-06-26T12:33:54Z</time>
      </trkpt>
      <trkpt lat="45.75435" lon="4.52651">
        <ele>469.6</ele>
        <time>2022-06-26T12:33:55Z</time>
      </trkpt>
      <trkpt lat="45.75433" lon="4.52653">
        <ele>470</ele>
        <time>2022-06-26T12:33:56Z</time>
      </trkpt>
      <trkpt lat="45.7543" lon="4.52655">
        <ele>470</ele>
        <time>2022-06-26T12:33:57Z</time>
      </trkpt>
      <trkpt lat="45.75428" lon="4.52658">
        <ele>470.2</ele>
        <time>2022-06-26T12:33:58Z</time>
      </trkpt>
      <trkpt lat="45.75425" lon="4.52661">
        <ele>470.2</ele>
        <time>2022-06-26T12:33:59Z</time>
      </trkpt>
      <trkpt lat="45.75422" lon="4.52665">
        <ele>470.2</ele>
        <time>2022-06-26T12:34:00Z</time>
      </trkpt>
      <trkpt lat="45.75419" lon="4.52669">
        <ele>470.2</ele>
        <time>2022-06-26T12:34:01Z</time>
      </trkpt>
      <trkpt lat="45.75416" lon="4.52674">
        <ele>470.2</ele>
        <time>2022-06-26T12:34:02Z</time>
      </trkpt>
      <trkpt lat="45.75413" lon="4.52679">
        <ele>470.2</ele>
        <time>2022-06-26T12:34:03Z</time>
      </trkpt>
      <trkpt lat="45.7541" lon="4.52685">
        <ele>470.2</ele>
        <time>2022-06-26T12:34:04Z</time>
      </trkpt>
      <trkpt lat="45.75408" lon="4.5269">
        <ele>470.2</ele>
        <time>2022-06-26T12:34:05Z</time>
      </trkpt>
      <trkpt lat="45.75405" lon="4.52695">
        <ele>470.2</ele>
        <time>2022-06-26T12:34:06Z</time>
      </trkpt>
      <trkpt lat="45.75402" lon="4.527">
        <ele>470.2</ele>
        <time>2022-06-26T12:34:07Z</time>
      </trkpt>
      <trkpt lat="45.754" lon="4.52705">
        <ele>470.2</ele>
        <time>2022-06-26T12:34:08Z</time>
      </trkpt>
      <trkpt lat="45.75398" lon="4.52709">
        <ele>470.2</ele>
        <time>2022-06-26T12:34:09Z</time>
      </trkpt>
      <trkpt lat="45.75396" lon="4.52714">
        <ele>470.2</ele>
        <time>2022-06-26T12:34:10Z</time>
      </trkpt>
      <trkpt lat="45.75394" lon="4.52718">
        <ele>470.2</ele>
        <time>2022-06-26T12:34:11Z</time>
      </trkpt>
      <trkpt lat="45.75391" lon="4.52722">
        <ele>470.2</ele>
        <time>2022-06-26T12:34:12Z</time>
      </trkpt>
      <trkpt lat="45.75389" lon="4.52726">
        <ele>470.2</ele>
        <time>2022-06-26T12:34:13Z</time>
      </trkpt>
      <trkpt lat="45.75387" lon="4.5273">
        <ele>470.2</ele>
        <time>2022-06-26T12:34:14Z</time>
      </trkpt>
      <trkpt lat="45.75384" lon="4.52734">
        <ele>470.2</ele>
        <time>2022-06-26T12:34:15Z</time>
      </trkpt>
      <trkpt lat="45.75382" lon="4.52738">
        <ele>470.2</ele>
        <time>2022-06-26T12:34:16Z</time>
      </trkpt>
      <trkpt lat="45.7538" lon="4.52742">
        <ele>470.2</ele>
        <time>2022-06-26T12:34:17Z</time>
      </trkpt>
      <trkpt lat="45.75378" lon="4.52746">
        <ele>470.2</ele>
        <time>2022-06-26T12:34:18Z</time>
      </trkpt>
      <trkpt lat="45.75376" lon="4.52751">
        <ele>470.2</ele>
        <time>2022-06-26T12:34:19Z</time>
      </trkpt>
      <trkpt lat="45.75373" lon="4.52755">
        <ele>470.2</ele>
        <time>2022-06-26T12:34:20Z</time>
      </trkpt>
      <trkpt lat="45.7537" lon="4.52759">
        <ele>470</ele>
        <time>2022-06-26T12:34:21Z</time>
      </trkpt>
      <trkpt lat="45.75367" lon="4.52764">
        <ele>470</ele>
        <time>2022-06-26T12:34:22Z</time>
      </trkpt>
      <trkpt lat="45.75364" lon="4.52768">
        <ele>470</ele>
        <time>2022-06-26T12:34:23Z</time>
      </trkpt>
      <trkpt lat="45.75361" lon="4.52772">
        <ele>470</ele>
        <time>2022-06-26T12:34:24Z</time>
      </trkpt>
      <trkpt lat="45.75358" lon="4.52776">
        <ele>469.8</ele>
        <time>2022-06-26T12:34:25Z</time>
      </trkpt>
      <trkpt lat="45.75355" lon="4.52781">
        <ele>469.8</ele>
        <time>2022-06-26T12:34:26Z</time>
      </trkpt>
      <trkpt lat="45.75352" lon="4.52785">
        <ele>469.8</ele>
        <time>2022-06-26T12:34:27Z</time>
      </trkpt>
      <trkpt lat="45.75349" lon="4.5279">
        <ele>469.8</ele>
        <time>2022-06-26T12:34:28Z</time>
      </trkpt>
      <trkpt lat="45.75346" lon="4.52795">
        <ele>469.6</ele>
        <time>2022-06-26T12:34:29Z</time>
      </trkpt>
      <trkpt lat="45.75343" lon="4.528">
        <ele>469.6</ele>
        <time>2022-06-26T12:34:30Z</time>
      </trkpt>
      <trkpt lat="45.75339" lon="4.52805">
        <ele>469.4</ele>
        <time>2022-06-26T12:34:31Z</time>
      </trkpt>
      <trkpt lat="45.75336" lon="4.52811">
        <ele>469.4</ele>
        <time>2022-06-26T12:34:32Z</time>
      </trkpt>
      <trkpt lat="45.75332" lon="4.52817">
        <ele>469</ele>
        <time>2022-06-26T12:34:33Z</time>
      </trkpt>
      <trkpt lat="45.75328" lon="4.52824">
        <ele>468.8</ele>
        <time>2022-06-26T12:34:34Z</time>
      </trkpt>
      <trkpt lat="45.75325" lon="4.52832">
        <ele>468.4</ele>
        <time>2022-06-26T12:34:35Z</time>
      </trkpt>
      <trkpt lat="45.75321" lon="4.52839">
        <ele>468</ele>
        <time>2022-06-26T12:34:36Z</time>
      </trkpt>
      <trkpt lat="45.75318" lon="4.52848">
        <ele>467.6</ele>
        <time>2022-06-26T12:34:37Z</time>
      </trkpt>
      <trkpt lat="45.75315" lon="4.52857">
        <ele>467.2</ele>
        <time>2022-06-26T12:34:38Z</time>
      </trkpt>
      <trkpt lat="45.75312" lon="4.52867">
        <ele>466.8</ele>
        <time>2022-06-26T12:34:39Z</time>
      </trkpt>
      <trkpt lat="45.7531" lon="4.52878">
        <ele>466.6</ele>
        <time>2022-06-26T12:34:40Z</time>
      </trkpt>
      <trkpt lat="45.75308" lon="4.52889">
        <ele>466</ele>
        <time>2022-06-26T12:34:41Z</time>
      </trkpt>
      <trkpt lat="45.75307" lon="4.529">
        <ele>465.8</ele>
        <time>2022-06-26T12:34:42Z</time>
      </trkpt>
      <trkpt lat="45.75307" lon="4.52912">
        <ele>465.6</ele>
        <time>2022-06-26T12:34:43Z</time>
      </trkpt>
      <trkpt lat="45.75307" lon="4.52925">
        <ele>465.2</ele>
        <time>2022-06-26T12:34:44Z</time>
      </trkpt>
      <trkpt lat="45.75308" lon="4.52939">
        <ele>464.8</ele>
        <time>2022-06-26T12:34:45Z</time>
      </trkpt>
      <trkpt lat="45.75309" lon="4.52954">
        <ele>464.4</ele>
        <time>2022-06-26T12:34:46Z</time>
      </trkpt>
      <trkpt lat="45.75309" lon="4.52967">
        <ele>464.2</ele>
        <time>2022-06-26T12:34:47Z</time>
      </trkpt>
      <trkpt lat="45.75309" lon="4.5298">
        <ele>463.6</ele>
        <time>2022-06-26T12:34:48Z</time>
      </trkpt>
      <trkpt lat="45.75309" lon="4.52992">
        <ele>463.4</ele>
        <time>2022-06-26T12:34:49Z</time>
      </trkpt>
      <trkpt lat="45.75308" lon="4.53004">
        <ele>463</ele>
        <time>2022-06-26T12:34:50Z</time>
      </trkpt>
      <trkpt lat="45.75307" lon="4.53016">
        <ele>463</ele>
        <time>2022-06-26T12:34:51Z</time>
      </trkpt>
      <trkpt lat="45.75305" lon="4.53028">
        <ele>462.8</ele>
        <time>2022-06-26T12:34:52Z</time>
      </trkpt>
      <trkpt lat="45.75302" lon="4.53038">
        <ele>462.8</ele>
        <time>2022-06-26T12:34:53Z</time>
      </trkpt>
      <trkpt lat="45.75299" lon="4.53048">
        <ele>462.4</ele>
        <time>2022-06-26T12:34:54Z</time>
      </trkpt>
      <trkpt lat="45.75295" lon="4.53057">
        <ele>462.4</ele>
        <time>2022-06-26T12:34:55Z</time>
      </trkpt>
      <trkpt lat="45.7529" lon="4.53065">
        <ele>462.2</ele>
        <time>2022-06-26T12:34:56Z</time>
      </trkpt>
      <trkpt lat="45.75285" lon="4.53072">
        <ele>462.2</ele>
        <time>2022-06-26T12:34:57Z</time>
      </trkpt>
      <trkpt lat="45.7528" lon="4.53079">
        <ele>462</ele>
        <time>2022-06-26T12:34:58Z</time>
      </trkpt>
      <trkpt lat="45.75275" lon="4.53085">
        <ele>462</ele>
        <time>2022-06-26T12:34:59Z</time>
      </trkpt>
      <trkpt lat="45.75271" lon="4.53092">
        <ele>462</ele>
        <time>2022-06-26T12:35:00Z</time>
      </trkpt>
      <trkpt lat="45.75266" lon="4.53098">
        <ele>461.6</ele>
        <time>2022-06-26T12:35:01Z</time>
      </trkpt>
      <trkpt lat="45.75262" lon="4.53106">
        <ele>461.4</ele>
        <time>2022-06-26T12:35:02Z</time>
      </trkpt>
      <trkpt lat="45.75257" lon="4.53114">
        <ele>461</ele>
        <time>2022-06-26T12:35:03Z</time>
      </trkpt>
      <trkpt lat="45.75254" lon="4.53123">
        <ele>460.6</ele>
        <time>2022-06-26T12:35:04Z</time>
      </trkpt>
      <trkpt lat="45.7525" lon="4.53133">
        <ele>460.6</ele>
        <time>2022-06-26T12:35:05Z</time>
      </trkpt>
      <trkpt lat="45.75246" lon="4.53143">
        <ele>460.2</ele>
        <time>2022-06-26T12:35:06Z</time>
      </trkpt>
      <trkpt lat="45.75243" lon="4.53153">
        <ele>460</ele>
        <time>2022-06-26T12:35:07Z</time>
      </trkpt>
      <trkpt lat="45.7524" lon="4.53163">
        <ele>460</ele>
        <time>2022-06-26T12:35:08Z</time>
      </trkpt>
      <trkpt lat="45.75236" lon="4.53173">
        <ele>459.6</ele>
        <time>2022-06-26T12:35:09Z</time>
      </trkpt>
      <trkpt lat="45.75233" lon="4.53183">
        <ele>459.2</ele>
        <time>2022-06-26T12:35:10Z</time>
      </trkpt>
      <trkpt lat="45.75229" lon="4.53193">
        <ele>458.8</ele>
        <time>2022-06-26T12:35:11Z</time>
      </trkpt>
      <trkpt lat="45.75226" lon="4.53202">
        <ele>458.4</ele>
        <time>2022-06-26T12:35:12Z</time>
      </trkpt>
      <trkpt lat="45.75223" lon="4.53211">
        <ele>458.2</ele>
        <time>2022-06-26T12:35:13Z</time>
      </trkpt>
      <trkpt lat="45.75221" lon="4.53219">
        <ele>458</ele>
        <time>2022-06-26T12:35:14Z</time>
      </trkpt>
      <trkpt lat="45.75218" lon="4.53227">
        <ele>457.6</ele>
        <time>2022-06-26T12:35:15Z</time>
      </trkpt>
      <trkpt lat="45.75217" lon="4.53237">
        <ele>457.4</ele>
        <time>2022-06-26T12:35:16Z</time>
      </trkpt>
      <trkpt lat="45.75215" lon="4.53246">
        <ele>456.6</ele>
        <time>2022-06-26T12:35:17Z</time>
      </trkpt>
      <trkpt lat="45.75213" lon="4.53257">
        <ele>456</ele>
        <time>2022-06-26T12:35:18Z</time>
      </trkpt>
      <trkpt lat="45.75211" lon="4.53268">
        <ele>455.6</ele>
        <time>2022-06-26T12:35:19Z</time>
      </trkpt>
      <trkpt lat="45.75209" lon="4.53279">
        <ele>454.8</ele>
        <time>2022-06-26T12:35:20Z</time>
      </trkpt>
      <trkpt lat="45.75207" lon="4.53291">
        <ele>453.8</ele>
        <time>2022-06-26T12:35:21Z</time>
      </trkpt>
      <trkpt lat="45.75205" lon="4.53303">
        <ele>453</ele>
        <time>2022-06-26T12:35:22Z</time>
      </trkpt>
      <trkpt lat="45.75204" lon="4.53317">
        <ele>452</ele>
        <time>2022-06-26T12:35:23Z</time>
      </trkpt>
      <trkpt lat="45.75203" lon="4.53332">
        <ele>451.4</ele>
        <time>2022-06-26T12:35:24Z</time>
      </trkpt>
      <trkpt lat="45.75203" lon="4.53347">
        <ele>450.6</ele>
        <time>2022-06-26T12:35:25Z</time>
      </trkpt>
      <trkpt lat="45.75201" lon="4.53362">
        <ele>449.8</ele>
        <time>2022-06-26T12:35:26Z</time>
      </trkpt>
      <trkpt lat="45.75199" lon="4.53375">
        <ele>448.8</ele>
        <time>2022-06-26T12:35:27Z</time>
      </trkpt>
      <trkpt lat="45.75197" lon="4.53387">
        <ele>447.6</ele>
        <time>2022-06-26T12:35:28Z</time>
      </trkpt>
      <trkpt lat="45.75195" lon="4.53397">
        <ele>446.6</ele>
        <time>2022-06-26T12:35:29Z</time>
      </trkpt>
      <trkpt lat="45.75193" lon="4.53408">
        <ele>445.8</ele>
        <time>2022-06-26T12:35:30Z</time>
      </trkpt>
      <trkpt lat="45.7519" lon="4.53418">
        <ele>445</ele>
        <time>2022-06-26T12:35:31Z</time>
      </trkpt>
      <trkpt lat="45.75187" lon="4.53427">
        <ele>444</ele>
        <time>2022-06-26T12:35:32Z</time>
      </trkpt>
      <trkpt lat="45.75185" lon="4.53436">
        <ele>443.2</ele>
        <time>2022-06-26T12:35:33Z</time>
      </trkpt>
      <trkpt lat="45.75182" lon="4.53446">
        <ele>442.6</ele>
        <time>2022-06-26T12:35:34Z</time>
      </trkpt>
      <trkpt lat="45.75179" lon="4.53455">
        <ele>442</ele>
        <time>2022-06-26T12:35:35Z</time>
      </trkpt>
      <trkpt lat="45.75175" lon="4.53464">
        <ele>441.4</ele>
        <time>2022-06-26T12:35:36Z</time>
      </trkpt>
      <trkpt lat="45.75172" lon="4.53473">
        <ele>441</ele>
        <time>2022-06-26T12:35:37Z</time>
      </trkpt>
      <trkpt lat="45.75168" lon="4.53483">
        <ele>440.6</ele>
        <time>2022-06-26T12:35:38Z</time>
      </trkpt>
      <trkpt lat="45.75164" lon="4.53492">
        <ele>440.2</ele>
        <time>2022-06-26T12:35:39Z</time>
      </trkpt>
      <trkpt lat="45.7516" lon="4.53502">
        <ele>440</ele>
        <time>2022-06-26T12:35:40Z</time>
      </trkpt>
      <trkpt lat="45.75157" lon="4.53511">
        <ele>439.8</ele>
        <time>2022-06-26T12:35:41Z</time>
      </trkpt>
      <trkpt lat="45.75154" lon="4.5352">
        <ele>439.4</ele>
        <time>2022-06-26T12:35:42Z</time>
      </trkpt>
      <trkpt lat="45.75151" lon="4.53529">
        <ele>439.2</ele>
        <time>2022-06-26T12:35:43Z</time>
      </trkpt>
      <trkpt lat="45.75147" lon="4.53538">
        <ele>439</ele>
        <time>2022-06-26T12:35:44Z</time>
      </trkpt>
      <trkpt lat="45.75144" lon="4.53547">
        <ele>439</ele>
        <time>2022-06-26T12:35:45Z</time>
      </trkpt>
      <trkpt lat="45.75141" lon="4.53556">
        <ele>438.6</ele>
        <time>2022-06-26T12:35:46Z</time>
      </trkpt>
      <trkpt lat="45.75138" lon="4.53564">
        <ele>438.6</ele>
        <time>2022-06-26T12:35:47Z</time>
      </trkpt>
      <trkpt lat="45.75134" lon="4.53573">
        <ele>438.4</ele>
        <time>2022-06-26T12:35:48Z</time>
      </trkpt>
      <trkpt lat="45.75131" lon="4.53581">
        <ele>438.4</ele>
        <time>2022-06-26T12:35:49Z</time>
      </trkpt>
      <trkpt lat="45.75129" lon="4.53589">
        <ele>438.2</ele>
        <time>2022-06-26T12:35:50Z</time>
      </trkpt>
      <trkpt lat="45.75125" lon="4.53597">
        <ele>438.2</ele>
        <time>2022-06-26T12:35:51Z</time>
      </trkpt>
      <trkpt lat="45.75122" lon="4.53606">
        <ele>437.8</ele>
        <time>2022-06-26T12:35:52Z</time>
      </trkpt>
      <trkpt lat="45.75119" lon="4.53614">
        <ele>437.8</ele>
        <time>2022-06-26T12:35:53Z</time>
      </trkpt>
      <trkpt lat="45.75116" lon="4.53621">
        <ele>437.6</ele>
        <time>2022-06-26T12:35:54Z</time>
      </trkpt>
      <trkpt lat="45.75114" lon="4.53629">
        <ele>437.6</ele>
        <time>2022-06-26T12:35:55Z</time>
      </trkpt>
      <trkpt lat="45.75111" lon="4.53637">
        <ele>437.6</ele>
        <time>2022-06-26T12:35:56Z</time>
      </trkpt>
      <trkpt lat="45.75109" lon="4.53645">
        <ele>437.4</ele>
        <time>2022-06-26T12:35:57Z</time>
      </trkpt>
      <trkpt lat="45.75108" lon="4.53654">
        <ele>437.2</ele>
        <time>2022-06-26T12:35:58Z</time>
      </trkpt>
      <trkpt lat="45.75108" lon="4.53663">
        <ele>436.8</ele>
        <time>2022-06-26T12:35:59Z</time>
      </trkpt>
      <trkpt lat="45.75109" lon="4.53673">
        <ele>436.6</ele>
        <time>2022-06-26T12:36:00Z</time>
      </trkpt>
      <trkpt lat="45.7511" lon="4.53683">
        <ele>436.2</ele>
        <time>2022-06-26T12:36:01Z</time>
      </trkpt>
      <trkpt lat="45.75113" lon="4.53692">
        <ele>436</ele>
        <time>2022-06-26T12:36:02Z</time>
      </trkpt>
      <trkpt lat="45.75116" lon="4.53702">
        <ele>435.4</ele>
        <time>2022-06-26T12:36:03Z</time>
      </trkpt>
      <trkpt lat="45.7512" lon="4.53712">
        <ele>435</ele>
        <time>2022-06-26T12:36:04Z</time>
      </trkpt>
      <trkpt lat="45.75124" lon="4.53722">
        <ele>434.6</ele>
        <time>2022-06-26T12:36:05Z</time>
      </trkpt>
      <trkpt lat="45.75128" lon="4.53733">
        <ele>434</ele>
        <time>2022-06-26T12:36:06Z</time>
      </trkpt>
      <trkpt lat="45.75132" lon="4.53744">
        <ele>433.6</ele>
        <time>2022-06-26T12:36:07Z</time>
      </trkpt>
      <trkpt lat="45.75136" lon="4.53755">
        <ele>433</ele>
        <time>2022-06-26T12:36:08Z</time>
      </trkpt>
      <trkpt lat="45.7514" lon="4.53766">
        <ele>432.4</ele>
        <time>2022-06-26T12:36:09Z</time>
      </trkpt>
      <trkpt lat="45.75143" lon="4.53777">
        <ele>432</ele>
        <time>2022-06-26T12:36:10Z</time>
      </trkpt>
      <trkpt lat="45.75146" lon="4.53789">
        <ele>431.4</ele>
        <time>2022-06-26T12:36:11Z</time>
      </trkpt>
      <trkpt lat="45.75149" lon="4.53801">
        <ele>431</ele>
        <time>2022-06-26T12:36:12Z</time>
      </trkpt>
      <trkpt lat="45.75151" lon="4.53813">
        <ele>430.6</ele>
        <time>2022-06-26T12:36:13Z</time>
      </trkpt>
      <trkpt lat="45.75154" lon="4.53825">
        <ele>430.2</ele>
        <time>2022-06-26T12:36:14Z</time>
      </trkpt>
      <trkpt lat="45.75157" lon="4.53837">
        <ele>429.6</ele>
        <time>2022-06-26T12:36:15Z</time>
      </trkpt>
      <trkpt lat="45.7516" lon="4.53848">
        <ele>429.2</ele>
        <time>2022-06-26T12:36:16Z</time>
      </trkpt>
      <trkpt lat="45.75164" lon="4.53859">
        <ele>428.8</ele>
        <time>2022-06-26T12:36:17Z</time>
      </trkpt>
      <trkpt lat="45.75168" lon="4.5387">
        <ele>428.4</ele>
        <time>2022-06-26T12:36:18Z</time>
      </trkpt>
      <trkpt lat="45.75173" lon="4.53881">
        <ele>428</ele>
        <time>2022-06-26T12:36:19Z</time>
      </trkpt>
      <trkpt lat="45.75178" lon="4.5389">
        <ele>427.4</ele>
        <time>2022-06-26T12:36:20Z</time>
      </trkpt>
      <trkpt lat="45.75185" lon="4.53899">
        <ele>427.2</ele>
        <time>2022-06-26T12:36:21Z</time>
      </trkpt>
      <trkpt lat="45.75192" lon="4.53909">
        <ele>426.6</ele>
        <time>2022-06-26T12:36:22Z</time>
      </trkpt>
      <trkpt lat="45.75199" lon="4.53918">
        <ele>425.8</ele>
        <time>2022-06-26T12:36:23Z</time>
      </trkpt>
      <trkpt lat="45.75207" lon="4.53928">
        <ele>425.2</ele>
        <time>2022-06-26T12:36:24Z</time>
      </trkpt>
      <trkpt lat="45.75215" lon="4.53938">
        <ele>424.8</ele>
        <time>2022-06-26T12:36:25Z</time>
      </trkpt>
      <trkpt lat="45.75223" lon="4.53948">
        <ele>424</ele>
        <time>2022-06-26T12:36:26Z</time>
      </trkpt>
      <trkpt lat="45.7523" lon="4.53958">
        <ele>423.6</ele>
        <time>2022-06-26T12:36:27Z</time>
      </trkpt>
      <trkpt lat="45.75238" lon="4.53968">
        <ele>422.8</ele>
        <time>2022-06-26T12:36:28Z</time>
      </trkpt>
      <trkpt lat="45.75247" lon="4.53976">
        <ele>422.2</ele>
        <time>2022-06-26T12:36:29Z</time>
      </trkpt>
      <trkpt lat="45.75256" lon="4.53984">
        <ele>421.4</ele>
        <time>2022-06-26T12:36:30Z</time>
      </trkpt>
      <trkpt lat="45.75265" lon="4.5399">
        <ele>420.2</ele>
        <time>2022-06-26T12:36:31Z</time>
      </trkpt>
      <trkpt lat="45.75274" lon="4.53996">
        <ele>419.6</ele>
        <time>2022-06-26T12:36:32Z</time>
      </trkpt>
      <trkpt lat="45.75281" lon="4.54001">
        <ele>418.6</ele>
        <time>2022-06-26T12:36:33Z</time>
      </trkpt>
      <trkpt lat="45.75289" lon="4.54006">
        <ele>417.8</ele>
        <time>2022-06-26T12:36:34Z</time>
      </trkpt>
      <trkpt lat="45.75297" lon="4.54011">
        <ele>417</ele>
        <time>2022-06-26T12:36:35Z</time>
      </trkpt>
      <trkpt lat="45.75306" lon="4.54017">
        <ele>416.2</ele>
        <time>2022-06-26T12:36:36Z</time>
      </trkpt>
      <trkpt lat="45.75316" lon="4.54021">
        <ele>415.4</ele>
        <time>2022-06-26T12:36:37Z</time>
      </trkpt>
      <trkpt lat="45.75327" lon="4.54027">
        <ele>414.6</ele>
        <time>2022-06-26T12:36:38Z</time>
      </trkpt>
      <trkpt lat="45.75337" lon="4.5403">
        <ele>413.6</ele>
        <time>2022-06-26T12:36:39Z</time>
      </trkpt>
      <trkpt lat="45.75347" lon="4.54031">
        <ele>413</ele>
        <time>2022-06-26T12:36:40Z</time>
      </trkpt>
      <trkpt lat="45.75357" lon="4.54032">
        <ele>412.4</ele>
        <time>2022-06-26T12:36:41Z</time>
      </trkpt>
      <trkpt lat="45.75365" lon="4.54034">
        <ele>411.4</ele>
        <time>2022-06-26T12:36:42Z</time>
      </trkpt>
      <trkpt lat="45.75373" lon="4.54039">
        <ele>410.6</ele>
        <time>2022-06-26T12:36:43Z</time>
      </trkpt>
      <trkpt lat="45.75379" lon="4.54046">
        <ele>409.8</ele>
        <time>2022-06-26T12:36:44Z</time>
      </trkpt>
      <trkpt lat="45.75384" lon="4.54055">
        <ele>409</ele>
        <time>2022-06-26T12:36:45Z</time>
      </trkpt>
      <trkpt lat="45.75387" lon="4.54065">
        <ele>408.4</ele>
        <time>2022-06-26T12:36:46Z</time>
      </trkpt>
      <trkpt lat="45.75388" lon="4.54077">
        <ele>407.8</ele>
        <time>2022-06-26T12:36:47Z</time>
      </trkpt>
      <trkpt lat="45.75387" lon="4.54091">
        <ele>407</ele>
        <time>2022-06-26T12:36:48Z</time>
      </trkpt>
      <trkpt lat="45.75383" lon="4.54104">
        <ele>406.2</ele>
        <time>2022-06-26T12:36:49Z</time>
      </trkpt>
      <trkpt lat="45.75379" lon="4.54118">
        <ele>405.6</ele>
        <time>2022-06-26T12:36:50Z</time>
      </trkpt>
      <trkpt lat="45.75375" lon="4.54132">
        <ele>405</ele>
        <time>2022-06-26T12:36:51Z</time>
      </trkpt>
      <trkpt lat="45.75371" lon="4.54146">
        <ele>404.4</ele>
        <time>2022-06-26T12:36:52Z</time>
      </trkpt>
      <trkpt lat="45.75367" lon="4.54159">
        <ele>403.6</ele>
        <time>2022-06-26T12:36:53Z</time>
      </trkpt>
      <trkpt lat="45.75364" lon="4.54174">
        <ele>402.8</ele>
        <time>2022-06-26T12:36:54Z</time>
      </trkpt>
      <trkpt lat="45.75363" lon="4.54189">
        <ele>402</ele>
        <time>2022-06-26T12:36:55Z</time>
      </trkpt>
      <trkpt lat="45.75363" lon="4.54205">
        <ele>401</ele>
        <time>2022-06-26T12:36:56Z</time>
      </trkpt>
      <trkpt lat="45.75363" lon="4.5422">
        <ele>400</ele>
        <time>2022-06-26T12:36:57Z</time>
      </trkpt>
      <trkpt lat="45.75361" lon="4.54234">
        <ele>399.4</ele>
        <time>2022-06-26T12:36:58Z</time>
      </trkpt>
      <trkpt lat="45.75358" lon="4.54247">
        <ele>398.6</ele>
        <time>2022-06-26T12:36:59Z</time>
      </trkpt>
      <trkpt lat="45.75353" lon="4.54259">
        <ele>397.6</ele>
        <time>2022-06-26T12:37:00Z</time>
      </trkpt>
      <trkpt lat="45.75345" lon="4.54269">
        <ele>396.8</ele>
        <time>2022-06-26T12:37:01Z</time>
      </trkpt>
      <trkpt lat="45.75337" lon="4.54278">
        <ele>396</ele>
        <time>2022-06-26T12:37:02Z</time>
      </trkpt>
      <trkpt lat="45.75328" lon="4.54284">
        <ele>395</ele>
        <time>2022-06-26T12:37:03Z</time>
      </trkpt>
      <trkpt lat="45.75317" lon="4.54289">
        <ele>394.4</ele>
        <time>2022-06-26T12:37:04Z</time>
      </trkpt>
      <trkpt lat="45.75305" lon="4.54293">
        <ele>393.4</ele>
        <time>2022-06-26T12:37:05Z</time>
      </trkpt>
      <trkpt lat="45.75294" lon="4.54299">
        <ele>392.6</ele>
        <time>2022-06-26T12:37:06Z</time>
      </trkpt>
      <trkpt lat="45.75283" lon="4.54303">
        <ele>391.8</ele>
        <time>2022-06-26T12:37:07Z</time>
      </trkpt>
      <trkpt lat="45.75271" lon="4.54306">
        <ele>391.2</ele>
        <time>2022-06-26T12:37:08Z</time>
      </trkpt>
      <trkpt lat="45.7526" lon="4.5431">
        <ele>390</ele>
        <time>2022-06-26T12:37:09Z</time>
      </trkpt>
      <trkpt lat="45.7525" lon="4.54313">
        <ele>389</ele>
        <time>2022-06-26T12:37:10Z</time>
      </trkpt>
      <trkpt lat="45.75239" lon="4.54315">
        <ele>388.2</ele>
        <time>2022-06-26T12:37:11Z</time>
      </trkpt>
      <trkpt lat="45.75228" lon="4.54316">
        <ele>387.2</ele>
        <time>2022-06-26T12:37:12Z</time>
      </trkpt>
      <trkpt lat="45.75218" lon="4.54316">
        <ele>386.4</ele>
        <time>2022-06-26T12:37:13Z</time>
      </trkpt>
      <trkpt lat="45.75208" lon="4.54316">
        <ele>385.6</ele>
        <time>2022-06-26T12:37:14Z</time>
      </trkpt>
      <trkpt lat="45.75197" lon="4.54315">
        <ele>384.8</ele>
        <time>2022-06-26T12:37:15Z</time>
      </trkpt>
      <trkpt lat="45.75187" lon="4.54314">
        <ele>384</ele>
        <time>2022-06-26T12:37:16Z</time>
      </trkpt>
      <trkpt lat="45.75176" lon="4.5431">
        <ele>383.4</ele>
        <time>2022-06-26T12:37:17Z</time>
      </trkpt>
      <trkpt lat="45.75166" lon="4.54306">
        <ele>382.4</ele>
        <time>2022-06-26T12:37:18Z</time>
      </trkpt>
      <trkpt lat="45.75144" lon="4.54295">
        <ele>381.6</ele>
        <time>2022-06-26T12:37:19Z</time>
      </trkpt>
      <trkpt lat="45.75133" lon="4.54287">
        <ele>381</ele>
        <time>2022-06-26T12:37:20Z</time>
      </trkpt>
      <trkpt lat="45.75123" lon="4.54278">
        <ele>380.4</ele>
        <time>2022-06-26T12:37:21Z</time>
      </trkpt>
      <trkpt lat="45.75112" lon="4.54271">
        <ele>379.8</ele>
        <time>2022-06-26T12:37:22Z</time>
      </trkpt>
      <trkpt lat="45.75102" lon="4.54263">
        <ele>379.2</ele>
        <time>2022-06-26T12:37:23Z</time>
      </trkpt>
      <trkpt lat="45.75091" lon="4.54256">
        <ele>378.6</ele>
        <time>2022-06-26T12:37:24Z</time>
      </trkpt>
      <trkpt lat="45.75081" lon="4.54248">
        <ele>377.8</ele>
        <time>2022-06-26T12:37:25Z</time>
      </trkpt>
      <trkpt lat="45.75072" lon="4.54241">
        <ele>377.2</ele>
        <time>2022-06-26T12:37:26Z</time>
      </trkpt>
      <trkpt lat="45.75063" lon="4.54232">
        <ele>376.4</ele>
        <time>2022-06-26T12:37:27Z</time>
      </trkpt>
      <trkpt lat="45.75055" lon="4.54224">
        <ele>375.4</ele>
        <time>2022-06-26T12:37:28Z</time>
      </trkpt>
      <trkpt lat="45.75047" lon="4.54217">
        <ele>374.6</ele>
        <time>2022-06-26T12:37:29Z</time>
      </trkpt>
      <trkpt lat="45.7504" lon="4.54208">
        <ele>374</ele>
        <time>2022-06-26T12:37:30Z</time>
      </trkpt>
      <trkpt lat="45.75035" lon="4.54201">
        <ele>373.2</ele>
        <time>2022-06-26T12:37:31Z</time>
      </trkpt>
      <trkpt lat="45.75029" lon="4.54194">
        <ele>372.6</ele>
        <time>2022-06-26T12:37:32Z</time>
      </trkpt>
      <trkpt lat="45.75024" lon="4.54189">
        <ele>372</ele>
        <time>2022-06-26T12:37:33Z</time>
      </trkpt>
      <trkpt lat="45.7502" lon="4.54183">
        <ele>371.4</ele>
        <time>2022-06-26T12:37:34Z</time>
      </trkpt>
      <trkpt lat="45.75016" lon="4.54179">
        <ele>371</ele>
        <time>2022-06-26T12:37:35Z</time>
      </trkpt>
      <trkpt lat="45.75012" lon="4.54176">
        <ele>370.4</ele>
        <time>2022-06-26T12:37:36Z</time>
      </trkpt>
      <trkpt lat="45.75008" lon="4.54177">
        <ele>370.2</ele>
        <time>2022-06-26T12:37:37Z</time>
      </trkpt>
      <trkpt lat="45.75003" lon="4.54182">
        <ele>369.8</ele>
        <time>2022-06-26T12:37:38Z</time>
      </trkpt>
      <trkpt lat="45.75" lon="4.54189">
        <ele>369.4</ele>
        <time>2022-06-26T12:37:39Z</time>
      </trkpt>
      <trkpt lat="45.74999" lon="4.54199">
        <ele>369.2</ele>
        <time>2022-06-26T12:37:40Z</time>
      </trkpt>
      <trkpt lat="45.75" lon="4.54209">
        <ele>369</ele>
        <time>2022-06-26T12:37:41Z</time>
      </trkpt>
      <trkpt lat="45.75001" lon="4.54219">
        <ele>368.6</ele>
        <time>2022-06-26T12:37:42Z</time>
      </trkpt>
      <trkpt lat="45.75004" lon="4.5423">
        <ele>368</ele>
        <time>2022-06-26T12:37:43Z</time>
      </trkpt>
      <trkpt lat="45.75007" lon="4.54241">
        <ele>367.4</ele>
        <time>2022-06-26T12:37:44Z</time>
      </trkpt>
      <trkpt lat="45.75009" lon="4.54253">
        <ele>366.8</ele>
        <time>2022-06-26T12:37:45Z</time>
      </trkpt>
      <trkpt lat="45.75012" lon="4.54265">
        <ele>366.2</ele>
        <time>2022-06-26T12:37:46Z</time>
      </trkpt>
      <trkpt lat="45.75015" lon="4.54277">
        <ele>365.8</ele>
        <time>2022-06-26T12:37:47Z</time>
      </trkpt>
      <trkpt lat="45.75019" lon="4.54291">
        <ele>365.2</ele>
        <time>2022-06-26T12:37:48Z</time>
      </trkpt>
      <trkpt lat="45.75024" lon="4.54304">
        <ele>364.6</ele>
        <time>2022-06-26T12:37:49Z</time>
      </trkpt>
      <trkpt lat="45.75029" lon="4.54317">
        <ele>364.2</ele>
        <time>2022-06-26T12:37:50Z</time>
      </trkpt>
      <trkpt lat="45.75035" lon="4.54331">
        <ele>364</ele>
        <time>2022-06-26T12:37:51Z</time>
      </trkpt>
      <trkpt lat="45.75041" lon="4.54345">
        <ele>363.6</ele>
        <time>2022-06-26T12:37:52Z</time>
      </trkpt>
      <trkpt lat="45.75047" lon="4.54359">
        <ele>363.2</ele>
        <time>2022-06-26T12:37:53Z</time>
      </trkpt>
      <trkpt lat="45.75053" lon="4.54374">
        <ele>362.4</ele>
        <time>2022-06-26T12:37:54Z</time>
      </trkpt>
      <trkpt lat="45.75059" lon="4.54387">
        <ele>362</ele>
        <time>2022-06-26T12:37:55Z</time>
      </trkpt>
      <trkpt lat="45.75065" lon="4.544">
        <ele>360.8</ele>
        <time>2022-06-26T12:37:56Z</time>
      </trkpt>
      <trkpt lat="45.75071" lon="4.54413">
        <ele>359.8</ele>
        <time>2022-06-26T12:37:57Z</time>
      </trkpt>
      <trkpt lat="45.75077" lon="4.54425">
        <ele>358.4</ele>
        <time>2022-06-26T12:37:58Z</time>
      </trkpt>
      <trkpt lat="45.75083" lon="4.54437">
        <ele>357.4</ele>
        <time>2022-06-26T12:37:59Z</time>
      </trkpt>
      <trkpt lat="45.75089" lon="4.5445">
        <ele>356.4</ele>
        <time>2022-06-26T12:38:00Z</time>
      </trkpt>
      <trkpt lat="45.75094" lon="4.54464">
        <ele>355.4</ele>
        <time>2022-06-26T12:38:01Z</time>
      </trkpt>
      <trkpt lat="45.75099" lon="4.54477">
        <ele>354.6</ele>
        <time>2022-06-26T12:38:02Z</time>
      </trkpt>
      <trkpt lat="45.75103" lon="4.54491">
        <ele>354.2</ele>
        <time>2022-06-26T12:38:03Z</time>
      </trkpt>
      <trkpt lat="45.75106" lon="4.54505">
        <ele>353.2</ele>
        <time>2022-06-26T12:38:04Z</time>
      </trkpt>
      <trkpt lat="45.7511" lon="4.54519">
        <ele>352.4</ele>
        <time>2022-06-26T12:38:05Z</time>
      </trkpt>
      <trkpt lat="45.75113" lon="4.54532">
        <ele>351.6</ele>
        <time>2022-06-26T12:38:06Z</time>
      </trkpt>
      <trkpt lat="45.75116" lon="4.54546">
        <ele>351</ele>
        <time>2022-06-26T12:38:07Z</time>
      </trkpt>
      <trkpt lat="45.75119" lon="4.54559">
        <ele>350.6</ele>
        <time>2022-06-26T12:38:08Z</time>
      </trkpt>
      <trkpt lat="45.75124" lon="4.54572">
        <ele>350.2</ele>
        <time>2022-06-26T12:38:09Z</time>
      </trkpt>
      <trkpt lat="45.75129" lon="4.54583">
        <ele>349.8</ele>
        <time>2022-06-26T12:38:10Z</time>
      </trkpt>
      <trkpt lat="45.75136" lon="4.54593">
        <ele>348.8</ele>
        <time>2022-06-26T12:38:11Z</time>
      </trkpt>
      <trkpt lat="45.75143" lon="4.54602">
        <ele>348.2</ele>
        <time>2022-06-26T12:38:12Z</time>
      </trkpt>
      <trkpt lat="45.7515" lon="4.54611">
        <ele>347.4</ele>
        <time>2022-06-26T12:38:13Z</time>
      </trkpt>
      <trkpt lat="45.75158" lon="4.54618">
        <ele>346.6</ele>
        <time>2022-06-26T12:38:14Z</time>
      </trkpt>
      <trkpt lat="45.75165" lon="4.54626">
        <ele>345.8</ele>
        <time>2022-06-26T12:38:15Z</time>
      </trkpt>
      <trkpt lat="45.75171" lon="4.54633">
        <ele>345.2</ele>
        <time>2022-06-26T12:38:16Z</time>
      </trkpt>
      <trkpt lat="45.75177" lon="4.54639">
        <ele>344.6</ele>
        <time>2022-06-26T12:38:17Z</time>
      </trkpt>
      <trkpt lat="45.75185" lon="4.54643">
        <ele>344</ele>
        <time>2022-06-26T12:38:18Z</time>
      </trkpt>
      <trkpt lat="45.75193" lon="4.54644">
        <ele>343.2</ele>
        <time>2022-06-26T12:38:19Z</time>
      </trkpt>
      <trkpt lat="45.75202" lon="4.54643">
        <ele>342.4</ele>
        <time>2022-06-26T12:38:20Z</time>
      </trkpt>
      <trkpt lat="45.7521" lon="4.54641">
        <ele>341.6</ele>
        <time>2022-06-26T12:38:21Z</time>
      </trkpt>
      <trkpt lat="45.75218" lon="4.54638">
        <ele>340.6</ele>
        <time>2022-06-26T12:38:22Z</time>
      </trkpt>
      <trkpt lat="45.75225" lon="4.54636">
        <ele>339.8</ele>
        <time>2022-06-26T12:38:23Z</time>
      </trkpt>
      <trkpt lat="45.75233" lon="4.54634">
        <ele>338.8</ele>
        <time>2022-06-26T12:38:24Z</time>
      </trkpt>
      <trkpt lat="45.75239" lon="4.54632">
        <ele>338</ele>
        <time>2022-06-26T12:38:25Z</time>
      </trkpt>
      <trkpt lat="45.75246" lon="4.54631">
        <ele>337.2</ele>
        <time>2022-06-26T12:38:26Z</time>
      </trkpt>
      <trkpt lat="45.75251" lon="4.54633">
        <ele>336.4</ele>
        <time>2022-06-26T12:38:27Z</time>
      </trkpt>
      <trkpt lat="45.75256" lon="4.54637">
        <ele>335.6</ele>
        <time>2022-06-26T12:38:28Z</time>
      </trkpt>
      <trkpt lat="45.75259" lon="4.54643">
        <ele>334.8</ele>
        <time>2022-06-26T12:38:29Z</time>
      </trkpt>
      <trkpt lat="45.7526" lon="4.54652">
        <ele>334.2</ele>
        <time>2022-06-26T12:38:30Z</time>
      </trkpt>
      <trkpt lat="45.75258" lon="4.54661">
        <ele>333.6</ele>
        <time>2022-06-26T12:38:31Z</time>
      </trkpt>
      <trkpt lat="45.75254" lon="4.5467">
        <ele>332.8</ele>
        <time>2022-06-26T12:38:32Z</time>
      </trkpt>
      <trkpt lat="45.75249" lon="4.54677">
        <ele>332.2</ele>
        <time>2022-06-26T12:38:33Z</time>
      </trkpt>
      <trkpt lat="45.75243" lon="4.54683">
        <ele>331.8</ele>
        <time>2022-06-26T12:38:34Z</time>
      </trkpt>
      <trkpt lat="45.75237" lon="4.54689">
        <ele>331.2</ele>
        <time>2022-06-26T12:38:35Z</time>
      </trkpt>
      <trkpt lat="45.75233" lon="4.54695">
        <ele>330.6</ele>
        <time>2022-06-26T12:38:36Z</time>
      </trkpt>
      <trkpt lat="45.75229" lon="4.54702">
        <ele>330</ele>
        <time>2022-06-26T12:38:37Z</time>
      </trkpt>
      <trkpt lat="45.75226" lon="4.54708">
        <ele>329.6</ele>
        <time>2022-06-26T12:38:38Z</time>
      </trkpt>
      <trkpt lat="45.75223" lon="4.54714">
        <ele>329.2</ele>
        <time>2022-06-26T12:38:39Z</time>
      </trkpt>
      <trkpt lat="45.75221" lon="4.54719">
        <ele>328.8</ele>
        <time>2022-06-26T12:38:40Z</time>
      </trkpt>
      <trkpt lat="45.75219" lon="4.54724">
        <ele>328.4</ele>
        <time>2022-06-26T12:38:41Z</time>
      </trkpt>
      <trkpt lat="45.75217" lon="4.54729">
        <ele>328.2</ele>
        <time>2022-06-26T12:38:42Z</time>
      </trkpt>
      <trkpt lat="45.75215" lon="4.54733">
        <ele>328</ele>
        <time>2022-06-26T12:38:43Z</time>
      </trkpt>
      <trkpt lat="45.75212" lon="4.54736">
        <ele>328</ele>
        <time>2022-06-26T12:38:44Z</time>
      </trkpt>
      <trkpt lat="45.75209" lon="4.54738">
        <ele>327.6</ele>
        <time>2022-06-26T12:38:45Z</time>
      </trkpt>
      <trkpt lat="45.75206" lon="4.54738">
        <ele>327.6</ele>
        <time>2022-06-26T12:38:46Z</time>
      </trkpt>
      <trkpt lat="45.75203" lon="4.54737">
        <ele>327.6</ele>
        <time>2022-06-26T12:38:47Z</time>
      </trkpt>
      <trkpt lat="45.752" lon="4.54735">
        <ele>327.6</ele>
        <time>2022-06-26T12:38:48Z</time>
      </trkpt>
      <trkpt lat="45.75197" lon="4.54733">
        <ele>328</ele>
        <time>2022-06-26T12:38:49Z</time>
      </trkpt>
      <trkpt lat="45.75194" lon="4.5473">
        <ele>328</ele>
        <time>2022-06-26T12:38:50Z</time>
      </trkpt>
      <trkpt lat="45.75192" lon="4.54727">
        <ele>328</ele>
        <time>2022-06-26T12:38:51Z</time>
      </trkpt>
      <trkpt lat="45.7519" lon="4.54724">
        <ele>328.2</ele>
        <time>2022-06-26T12:38:52Z</time>
      </trkpt>
      <trkpt lat="45.75187" lon="4.54721">
        <ele>328.2</ele>
        <time>2022-06-26T12:38:53Z</time>
      </trkpt>
      <trkpt lat="45.75185" lon="4.54718">
        <ele>328.2</ele>
        <time>2022-06-26T12:38:54Z</time>
      </trkpt>
      <trkpt lat="45.75182" lon="4.54715">
        <ele>328.6</ele>
        <time>2022-06-26T12:38:55Z</time>
      </trkpt>
      <trkpt lat="45.7518" lon="4.54712">
        <ele>328.6</ele>
        <time>2022-06-26T12:38:56Z</time>
      </trkpt>
      <trkpt lat="45.75177" lon="4.54709">
        <ele>328.6</ele>
        <time>2022-06-26T12:38:57Z</time>
      </trkpt>
      <trkpt lat="45.75175" lon="4.54706">
        <ele>328.8</ele>
        <time>2022-06-26T12:38:58Z</time>
      </trkpt>
      <trkpt lat="45.75173" lon="4.54704">
        <ele>328.8</ele>
        <time>2022-06-26T12:38:59Z</time>
      </trkpt>
      <trkpt lat="45.7517" lon="4.54701">
        <ele>328.8</ele>
        <time>2022-06-26T12:39:00Z</time>
      </trkpt>
      <trkpt lat="45.75168" lon="4.54698">
        <ele>328.8</ele>
        <time>2022-06-26T12:39:01Z</time>
      </trkpt>
      <trkpt lat="45.75165" lon="4.54696">
        <ele>329</ele>
        <time>2022-06-26T12:39:02Z</time>
      </trkpt>
      <trkpt lat="45.75163" lon="4.54695">
        <ele>329</ele>
        <time>2022-06-26T12:39:03Z</time>
      </trkpt>
      <trkpt lat="45.7516" lon="4.54694">
        <ele>329.2</ele>
        <time>2022-06-26T12:39:04Z</time>
      </trkpt>
      <trkpt lat="45.75157" lon="4.54695">
        <ele>329.2</ele>
        <time>2022-06-26T12:39:05Z</time>
      </trkpt>
      <trkpt lat="45.75154" lon="4.54695">
        <ele>329.2</ele>
        <time>2022-06-26T12:39:06Z</time>
      </trkpt>
      <trkpt lat="45.75151" lon="4.54696">
        <ele>329.2</ele>
        <time>2022-06-26T12:39:07Z</time>
      </trkpt>
      <trkpt lat="45.75147" lon="4.54698">
        <ele>329.2</ele>
        <time>2022-06-26T12:39:08Z</time>
      </trkpt>
      <trkpt lat="45.75143" lon="4.54701">
        <ele>329.2</ele>
        <time>2022-06-26T12:39:09Z</time>
      </trkpt>
      <trkpt lat="45.75138" lon="4.54703">
        <ele>329</ele>
        <time>2022-06-26T12:39:10Z</time>
      </trkpt>
      <trkpt lat="45.75134" lon="4.54707">
        <ele>329</ele>
        <time>2022-06-26T12:39:11Z</time>
      </trkpt>
      <trkpt lat="45.75129" lon="4.5471">
        <ele>328.8</ele>
        <time>2022-06-26T12:39:12Z</time>
      </trkpt>
      <trkpt lat="45.75125" lon="4.54714">
        <ele>328.8</ele>
        <time>2022-06-26T12:39:13Z</time>
      </trkpt>
      <trkpt lat="45.7512" lon="4.54717">
        <ele>328.6</ele>
        <time>2022-06-26T12:39:14Z</time>
      </trkpt>
      <trkpt lat="45.75116" lon="4.5472">
        <ele>328.6</ele>
        <time>2022-06-26T12:39:15Z</time>
      </trkpt>
      <trkpt lat="45.75111" lon="4.54723">
        <ele>328.2</ele>
        <time>2022-06-26T12:39:16Z</time>
      </trkpt>
      <trkpt lat="45.75107" lon="4.54727">
        <ele>328.2</ele>
        <time>2022-06-26T12:39:17Z</time>
      </trkpt>
      <trkpt lat="45.75102" lon="4.54729">
        <ele>328.2</ele>
        <time>2022-06-26T12:39:18Z</time>
      </trkpt>
      <trkpt lat="45.75098" lon="4.54732">
        <ele>328.2</ele>
        <time>2022-06-26T12:39:19Z</time>
      </trkpt>
      <trkpt lat="45.75094" lon="4.54735">
        <ele>328.2</ele>
        <time>2022-06-26T12:39:20Z</time>
      </trkpt>
      <trkpt lat="45.7509" lon="4.54738">
        <ele>328.2</ele>
        <time>2022-06-26T12:39:21Z</time>
      </trkpt>
      <trkpt lat="45.75087" lon="4.54741">
        <ele>328.2</ele>
        <time>2022-06-26T12:39:22Z</time>
      </trkpt>
      <trkpt lat="45.75083" lon="4.54744">
        <ele>328.2</ele>
        <time>2022-06-26T12:39:23Z</time>
      </trkpt>
      <trkpt lat="45.75079" lon="4.54747">
        <ele>328.2</ele>
        <time>2022-06-26T12:39:24Z</time>
      </trkpt>
      <trkpt lat="45.75075" lon="4.54749">
        <ele>328.2</ele>
        <time>2022-06-26T12:39:25Z</time>
      </trkpt>
      <trkpt lat="45.75071" lon="4.54751">
        <ele>328.2</ele>
        <time>2022-06-26T12:39:26Z</time>
      </trkpt>
      <trkpt lat="45.75067" lon="4.54754">
        <ele>328.2</ele>
        <time>2022-06-26T12:39:27Z</time>
      </trkpt>
      <trkpt lat="45.75063" lon="4.54757">
        <ele>328.2</ele>
        <time>2022-06-26T12:39:28Z</time>
      </trkpt>
      <trkpt lat="45.7506" lon="4.5476">
        <ele>328.6</ele>
        <time>2022-06-26T12:39:29Z</time>
      </trkpt>
      <trkpt lat="45.75056" lon="4.54764">
        <ele>328.6</ele>
        <time>2022-06-26T12:39:30Z</time>
      </trkpt>
      <trkpt lat="45.75052" lon="4.54767">
        <ele>328.6</ele>
        <time>2022-06-26T12:39:31Z</time>
      </trkpt>
      <trkpt lat="45.75048" lon="4.5477">
        <ele>328.6</ele>
        <time>2022-06-26T12:39:32Z</time>
      </trkpt>
      <trkpt lat="45.75045" lon="4.54772">
        <ele>328.6</ele>
        <time>2022-06-26T12:39:33Z</time>
      </trkpt>
      <trkpt lat="45.75041" lon="4.54774">
        <ele>328.8</ele>
        <time>2022-06-26T12:39:34Z</time>
      </trkpt>
      <trkpt lat="45.75037" lon="4.54776">
        <ele>328.8</ele>
        <time>2022-06-26T12:39:35Z</time>
      </trkpt>
      <trkpt lat="45.75033" lon="4.54778">
        <ele>328.8</ele>
        <time>2022-06-26T12:39:36Z</time>
      </trkpt>
      <trkpt lat="45.75029" lon="4.54781">
        <ele>329.2</ele>
        <time>2022-06-26T12:39:37Z</time>
      </trkpt>
      <trkpt lat="45.75026" lon="4.54783">
        <ele>329.2</ele>
        <time>2022-06-26T12:39:38Z</time>
      </trkpt>
      <trkpt lat="45.75022" lon="4.54784">
        <ele>329.2</ele>
        <time>2022-06-26T12:39:39Z</time>
      </trkpt>
      <trkpt lat="45.7502" lon="4.54787">
        <ele>329.4</ele>
        <time>2022-06-26T12:39:40Z</time>
      </trkpt>
      <trkpt lat="45.75017" lon="4.5479">
        <ele>329.4</ele>
        <time>2022-06-26T12:39:41Z</time>
      </trkpt>
      <trkpt lat="45.75015" lon="4.54793">
        <ele>329.4</ele>
        <time>2022-06-26T12:39:42Z</time>
      </trkpt>
      <trkpt lat="45.75014" lon="4.54797">
        <ele>329.6</ele>
        <time>2022-06-26T12:39:43Z</time>
      </trkpt>
      <trkpt lat="45.75014" lon="4.54801">
        <ele>329.6</ele>
        <time>2022-06-26T12:39:44Z</time>
      </trkpt>
      <trkpt lat="45.75014" lon="4.54806">
        <ele>329.6</ele>
        <time>2022-06-26T12:39:45Z</time>
      </trkpt>
      <trkpt lat="45.75014" lon="4.5481">
        <ele>329.6</ele>
        <time>2022-06-26T12:39:46Z</time>
      </trkpt>
      <trkpt lat="45.75015" lon="4.54815">
        <ele>330</ele>
        <time>2022-06-26T12:39:47Z</time>
      </trkpt>
      <trkpt lat="45.75016" lon="4.5482">
        <ele>330</ele>
        <time>2022-06-26T12:39:48Z</time>
      </trkpt>
      <trkpt lat="45.75018" lon="4.54824">
        <ele>330</ele>
        <time>2022-06-26T12:39:49Z</time>
      </trkpt>
      <trkpt lat="45.7502" lon="4.5483">
        <ele>330</ele>
        <time>2022-06-26T12:39:50Z</time>
      </trkpt>
      <trkpt lat="45.75022" lon="4.54835">
        <ele>330</ele>
        <time>2022-06-26T12:39:51Z</time>
      </trkpt>
      <trkpt lat="45.75024" lon="4.5484">
        <ele>330</ele>
        <time>2022-06-26T12:39:52Z</time>
      </trkpt>
      <trkpt lat="45.75026" lon="4.54846">
        <ele>330</ele>
        <time>2022-06-26T12:39:53Z</time>
      </trkpt>
      <trkpt lat="45.75028" lon="4.54851">
        <ele>330</ele>
        <time>2022-06-26T12:39:54Z</time>
      </trkpt>
      <trkpt lat="45.75031" lon="4.54856">
        <ele>330</ele>
        <time>2022-06-26T12:39:55Z</time>
      </trkpt>
      <trkpt lat="45.75033" lon="4.54861">
        <ele>330</ele>
        <time>2022-06-26T12:39:56Z</time>
      </trkpt>
      <trkpt lat="45.75035" lon="4.54867">
        <ele>330</ele>
        <time>2022-06-26T12:39:57Z</time>
      </trkpt>
      <trkpt lat="45.75037" lon="4.54872">
        <ele>330</ele>
        <time>2022-06-26T12:39:58Z</time>
      </trkpt>
      <trkpt lat="45.75039" lon="4.54878">
        <ele>330</ele>
        <time>2022-06-26T12:39:59Z</time>
      </trkpt>
      <trkpt lat="45.7504" lon="4.54884">
        <ele>330</ele>
        <time>2022-06-26T12:40:00Z</time>
      </trkpt>
      <trkpt lat="45.75042" lon="4.54889">
        <ele>330</ele>
        <time>2022-06-26T12:40:01Z</time>
      </trkpt>
      <trkpt lat="45.75044" lon="4.54894">
        <ele>330.2</ele>
        <time>2022-06-26T12:40:02Z</time>
      </trkpt>
      <trkpt lat="45.75046" lon="4.54899">
        <ele>330.2</ele>
        <time>2022-06-26T12:40:03Z</time>
      </trkpt>
      <trkpt lat="45.75048" lon="4.54904">
        <ele>330.4</ele>
        <time>2022-06-26T12:40:04Z</time>
      </trkpt>
      <trkpt lat="45.75049" lon="4.54909">
        <ele>330.4</ele>
        <time>2022-06-26T12:40:05Z</time>
      </trkpt>
      <trkpt lat="45.75051" lon="4.54914">
        <ele>330.4</ele>
        <time>2022-06-26T12:40:06Z</time>
      </trkpt>
      <trkpt lat="45.75052" lon="4.54918">
        <ele>330.8</ele>
        <time>2022-06-26T12:40:07Z</time>
      </trkpt>
      <trkpt lat="45.75054" lon="4.54923">
        <ele>330.8</ele>
        <time>2022-06-26T12:40:08Z</time>
      </trkpt>
      <trkpt lat="45.75055" lon="4.54928">
        <ele>331</ele>
        <time>2022-06-26T12:40:09Z</time>
      </trkpt>
      <trkpt lat="45.75057" lon="4.54934">
        <ele>331</ele>
        <time>2022-06-26T12:40:10Z</time>
      </trkpt>
      <trkpt lat="45.75058" lon="4.54939">
        <ele>331.4</ele>
        <time>2022-06-26T12:40:11Z</time>
      </trkpt>
      <trkpt lat="45.75059" lon="4.54944">
        <ele>331.4</ele>
        <time>2022-06-26T12:40:12Z</time>
      </trkpt>
      <trkpt lat="45.7506" lon="4.5495">
        <ele>331.6</ele>
        <time>2022-06-26T12:40:13Z</time>
      </trkpt>
      <trkpt lat="45.7506" lon="4.54955">
        <ele>331.6</ele>
        <time>2022-06-26T12:40:14Z</time>
      </trkpt>
      <trkpt lat="45.7506" lon="4.5496">
        <ele>332</ele>
        <time>2022-06-26T12:40:15Z</time>
      </trkpt>
      <trkpt lat="45.7506" lon="4.54966">
        <ele>332</ele>
        <time>2022-06-26T12:40:16Z</time>
      </trkpt>
      <trkpt lat="45.7506" lon="4.54972">
        <ele>332.2</ele>
        <time>2022-06-26T12:40:17Z</time>
      </trkpt>
      <trkpt lat="45.7506" lon="4.54977">
        <ele>332.2</ele>
        <time>2022-06-26T12:40:18Z</time>
      </trkpt>
      <trkpt lat="45.75059" lon="4.54984">
        <ele>332.2</ele>
        <time>2022-06-26T12:40:19Z</time>
      </trkpt>
      <trkpt lat="45.75058" lon="4.5499">
        <ele>332.2</ele>
        <time>2022-06-26T12:40:20Z</time>
      </trkpt>
      <trkpt lat="45.75058" lon="4.54997">
        <ele>332.2</ele>
        <time>2022-06-26T12:40:21Z</time>
      </trkpt>
      <trkpt lat="45.75059" lon="4.55003">
        <ele>332.4</ele>
        <time>2022-06-26T12:40:22Z</time>
      </trkpt>
      <trkpt lat="45.75061" lon="4.55008">
        <ele>332.4</ele>
        <time>2022-06-26T12:40:23Z</time>
      </trkpt>
      <trkpt lat="45.75063" lon="4.55013">
        <ele>332.8</ele>
        <time>2022-06-26T12:40:24Z</time>
      </trkpt>
      <trkpt lat="45.75065" lon="4.55018">
        <ele>332.8</ele>
        <time>2022-06-26T12:40:25Z</time>
      </trkpt>
      <trkpt lat="45.75068" lon="4.55022">
        <ele>333.2</ele>
        <time>2022-06-26T12:40:26Z</time>
      </trkpt>
      <trkpt lat="45.75071" lon="4.55026">
        <ele>333.2</ele>
        <time>2022-06-26T12:40:27Z</time>
      </trkpt>
      <trkpt lat="45.75074" lon="4.5503">
        <ele>333.2</ele>
        <time>2022-06-26T12:40:28Z</time>
      </trkpt>
      <trkpt lat="45.75077" lon="4.55034">
        <ele>333.4</ele>
        <time>2022-06-26T12:40:29Z</time>
      </trkpt>
      <trkpt lat="45.75079" lon="4.55039">
        <ele>333.4</ele>
        <time>2022-06-26T12:40:30Z</time>
      </trkpt>
      <trkpt lat="45.75082" lon="4.55043">
        <ele>333.4</ele>
        <time>2022-06-26T12:40:31Z</time>
      </trkpt>
      <trkpt lat="45.75085" lon="4.55047">
        <ele>333.6</ele>
        <time>2022-06-26T12:40:32Z</time>
      </trkpt>
      <trkpt lat="45.75088" lon="4.55051">
        <ele>333.6</ele>
        <time>2022-06-26T12:40:33Z</time>
      </trkpt>
      <trkpt lat="45.75091" lon="4.55055">
        <ele>333.8</ele>
        <time>2022-06-26T12:40:34Z</time>
      </trkpt>
      <trkpt lat="45.75094" lon="4.55059">
        <ele>333.8</ele>
        <time>2022-06-26T12:40:35Z</time>
      </trkpt>
      <trkpt lat="45.75097" lon="4.55064">
        <ele>334</ele>
        <time>2022-06-26T12:40:36Z</time>
      </trkpt>
      <trkpt lat="45.751" lon="4.55069">
        <ele>334</ele>
        <time>2022-06-26T12:40:37Z</time>
      </trkpt>
      <trkpt lat="45.75102" lon="4.55074">
        <ele>334</ele>
        <time>2022-06-26T12:40:38Z</time>
      </trkpt>
      <trkpt lat="45.75105" lon="4.55079">
        <ele>334.4</ele>
        <time>2022-06-26T12:40:39Z</time>
      </trkpt>
      <trkpt lat="45.75107" lon="4.55084">
        <ele>334.4</ele>
        <time>2022-06-26T12:40:40Z</time>
      </trkpt>
      <trkpt lat="45.7511" lon="4.5509">
        <ele>334.4</ele>
        <time>2022-06-26T12:40:41Z</time>
      </trkpt>
      <trkpt lat="45.75112" lon="4.55095">
        <ele>334.6</ele>
        <time>2022-06-26T12:40:42Z</time>
      </trkpt>
      <trkpt lat="45.75114" lon="4.55101">
        <ele>334.6</ele>
        <time>2022-06-26T12:40:43Z</time>
      </trkpt>
      <trkpt lat="45.75117" lon="4.55106">
        <ele>334.8</ele>
        <time>2022-06-26T12:40:44Z</time>
      </trkpt>
      <trkpt lat="45.75119" lon="4.55112">
        <ele>334.8</ele>
        <time>2022-06-26T12:40:45Z</time>
      </trkpt>
      <trkpt lat="45.75122" lon="4.55117">
        <ele>334.8</ele>
        <time>2022-06-26T12:40:46Z</time>
      </trkpt>
      <trkpt lat="45.75124" lon="4.55123">
        <ele>335</ele>
        <time>2022-06-26T12:40:47Z</time>
      </trkpt>
      <trkpt lat="45.75126" lon="4.55129">
        <ele>335</ele>
        <time>2022-06-26T12:40:48Z</time>
      </trkpt>
      <trkpt lat="45.75129" lon="4.55134">
        <ele>335</ele>
        <time>2022-06-26T12:40:49Z</time>
      </trkpt>
      <trkpt lat="45.75131" lon="4.55139">
        <ele>335.4</ele>
        <time>2022-06-26T12:40:50Z</time>
      </trkpt>
      <trkpt lat="45.75133" lon="4.55145">
        <ele>335.4</ele>
        <time>2022-06-26T12:40:51Z</time>
      </trkpt>
      <trkpt lat="45.75135" lon="4.5515">
        <ele>335.4</ele>
        <time>2022-06-26T12:40:52Z</time>
      </trkpt>
      <trkpt lat="45.75137" lon="4.55155">
        <ele>335.6</ele>
        <time>2022-06-26T12:40:53Z</time>
      </trkpt>
      <trkpt lat="45.75139" lon="4.5516">
        <ele>335.6</ele>
        <time>2022-06-26T12:40:54Z</time>
      </trkpt>
      <trkpt lat="45.7514" lon="4.55166">
        <ele>335.8</ele>
        <time>2022-06-26T12:40:55Z</time>
      </trkpt>
      <trkpt lat="45.75142" lon="4.55171">
        <ele>335.8</ele>
        <time>2022-06-26T12:40:56Z</time>
      </trkpt>
      <trkpt lat="45.75144" lon="4.55177">
        <ele>336</ele>
        <time>2022-06-26T12:40:57Z</time>
      </trkpt>
      <trkpt lat="45.75146" lon="4.55182">
        <ele>336</ele>
        <time>2022-06-26T12:40:58Z</time>
      </trkpt>
      <trkpt lat="45.75149" lon="4.55187">
        <ele>336</ele>
        <time>2022-06-26T12:40:59Z</time>
      </trkpt>
      <trkpt lat="45.75151" lon="4.55193">
        <ele>336.2</ele>
        <time>2022-06-26T12:41:00Z</time>
      </trkpt>
      <trkpt lat="45.75154" lon="4.55198">
        <ele>336.2</ele>
        <time>2022-06-26T12:41:01Z</time>
      </trkpt>
      <trkpt lat="45.75156" lon="4.55202">
        <ele>336.4</ele>
        <time>2022-06-26T12:41:02Z</time>
      </trkpt>
      <trkpt lat="45.75158" lon="4.55207">
        <ele>336.4</ele>
        <time>2022-06-26T12:41:03Z</time>
      </trkpt>
      <trkpt lat="45.75159" lon="4.55212">
        <ele>336.8</ele>
        <time>2022-06-26T12:41:04Z</time>
      </trkpt>
      <trkpt lat="45.75161" lon="4.55217">
        <ele>336.8</ele>
        <time>2022-06-26T12:41:05Z</time>
      </trkpt>
      <trkpt lat="45.75163" lon="4.55221">
        <ele>337</ele>
        <time>2022-06-26T12:41:06Z</time>
      </trkpt>
      <trkpt lat="45.75164" lon="4.55226">
        <ele>337</ele>
        <time>2022-06-26T12:41:07Z</time>
      </trkpt>
      <trkpt lat="45.75166" lon="4.5523">
        <ele>337.2</ele>
        <time>2022-06-26T12:41:08Z</time>
      </trkpt>
      <trkpt lat="45.75168" lon="4.55235">
        <ele>337.2</ele>
        <time>2022-06-26T12:41:09Z</time>
      </trkpt>
      <trkpt lat="45.75169" lon="4.55239">
        <ele>337.4</ele>
        <time>2022-06-26T12:41:10Z</time>
      </trkpt>
      <trkpt lat="45.75171" lon="4.55244">
        <ele>337.4</ele>
        <time>2022-06-26T12:41:11Z</time>
      </trkpt>
      <trkpt lat="45.75172" lon="4.55248">
        <ele>337.6</ele>
        <time>2022-06-26T12:41:12Z</time>
      </trkpt>
      <trkpt lat="45.75174" lon="4.55253">
        <ele>337.6</ele>
        <time>2022-06-26T12:41:13Z</time>
      </trkpt>
      <trkpt lat="45.75176" lon="4.55258">
        <ele>337.6</ele>
        <time>2022-06-26T12:41:14Z</time>
      </trkpt>
      <trkpt lat="45.75178" lon="4.55262">
        <ele>337.8</ele>
        <time>2022-06-26T12:41:15Z</time>
      </trkpt>
      <trkpt lat="45.7518" lon="4.55267">
        <ele>337.8</ele>
        <time>2022-06-26T12:41:16Z</time>
      </trkpt>
      <trkpt lat="45.75182" lon="4.55271">
        <ele>338.2</ele>
        <time>2022-06-26T12:41:17Z</time>
      </trkpt>
      <trkpt lat="45.75183" lon="4.55276">
        <ele>338.2</ele>
        <time>2022-06-26T12:41:18Z</time>
      </trkpt>
      <trkpt lat="45.75185" lon="4.5528">
        <ele>338.4</ele>
        <time>2022-06-26T12:41:19Z</time>
      </trkpt>
      <trkpt lat="45.75187" lon="4.55285">
        <ele>338.4</ele>
        <time>2022-06-26T12:41:20Z</time>
      </trkpt>
      <trkpt lat="45.75188" lon="4.5529">
        <ele>338.4</ele>
        <time>2022-06-26T12:41:21Z</time>
      </trkpt>
      <trkpt lat="45.7519" lon="4.55294">
        <ele>338.4</ele>
        <time>2022-06-26T12:41:22Z</time>
      </trkpt>
      <trkpt lat="45.75192" lon="4.55299">
        <ele>338.8</ele>
        <time>2022-06-26T12:41:23Z</time>
      </trkpt>
      <trkpt lat="45.75193" lon="4.55303">
        <ele>338.8</ele>
        <time>2022-06-26T12:41:24Z</time>
      </trkpt>
      <trkpt lat="45.75195" lon="4.55308">
        <ele>339</ele>
        <time>2022-06-26T12:41:25Z</time>
      </trkpt>
      <trkpt lat="45.75196" lon="4.55312">
        <ele>339</ele>
        <time>2022-06-26T12:41:26Z</time>
      </trkpt>
      <trkpt lat="45.75198" lon="4.55317">
        <ele>339</ele>
        <time>2022-06-26T12:41:27Z</time>
      </trkpt>
      <trkpt lat="45.752" lon="4.55321">
        <ele>339.2</ele>
        <time>2022-06-26T12:41:28Z</time>
      </trkpt>
      <trkpt lat="45.75201" lon="4.55326">
        <ele>339.2</ele>
        <time>2022-06-26T12:41:29Z</time>
      </trkpt>
      <trkpt lat="45.75202" lon="4.5533">
        <ele>339.6</ele>
        <time>2022-06-26T12:41:30Z</time>
      </trkpt>
      <trkpt lat="45.75204" lon="4.55334">
        <ele>339.6</ele>
        <time>2022-06-26T12:41:31Z</time>
      </trkpt>
      <trkpt lat="45.75206" lon="4.55338">
        <ele>339.6</ele>
        <time>2022-06-26T12:41:32Z</time>
      </trkpt>
      <trkpt lat="45.75207" lon="4.55343">
        <ele>339.6</ele>
        <time>2022-06-26T12:41:33Z</time>
      </trkpt>
      <trkpt lat="45.75209" lon="4.55347">
        <ele>339.6</ele>
        <time>2022-06-26T12:41:34Z</time>
      </trkpt>
      <trkpt lat="45.75211" lon="4.55351">
        <ele>339.8</ele>
        <time>2022-06-26T12:41:35Z</time>
      </trkpt>
      <trkpt lat="45.75212" lon="4.55355">
        <ele>339.8</ele>
        <time>2022-06-26T12:41:36Z</time>
      </trkpt>
      <trkpt lat="45.75214" lon="4.55359">
        <ele>339.8</ele>
        <time>2022-06-26T12:41:37Z</time>
      </trkpt>
      <trkpt lat="45.75215" lon="4.55363">
        <ele>340</ele>
        <time>2022-06-26T12:41:38Z</time>
      </trkpt>
      <trkpt lat="45.75217" lon="4.55367">
        <ele>340</ele>
        <time>2022-06-26T12:41:39Z</time>
      </trkpt>
      <trkpt lat="45.75219" lon="4.55371">
        <ele>340.2</ele>
        <time>2022-06-26T12:41:40Z</time>
      </trkpt>
      <trkpt lat="45.7522" lon="4.55375">
        <ele>340.2</ele>
        <time>2022-06-26T12:41:41Z</time>
      </trkpt>
      <trkpt lat="45.75222" lon="4.55379">
        <ele>340.6</ele>
        <time>2022-06-26T12:41:42Z</time>
      </trkpt>
      <trkpt lat="45.75224" lon="4.55384">
        <ele>340.6</ele>
        <time>2022-06-26T12:41:43Z</time>
      </trkpt>
      <trkpt lat="45.75225" lon="4.55387">
        <ele>340.6</ele>
        <time>2022-06-26T12:41:44Z</time>
      </trkpt>
      <trkpt lat="45.75227" lon="4.55391">
        <ele>340.8</ele>
        <time>2022-06-26T12:41:45Z</time>
      </trkpt>
      <trkpt lat="45.75229" lon="4.55395">
        <ele>340.8</ele>
        <time>2022-06-26T12:41:46Z</time>
      </trkpt>
      <trkpt lat="45.75231" lon="4.55399">
        <ele>340.8</ele>
        <time>2022-06-26T12:41:47Z</time>
      </trkpt>
      <trkpt lat="45.75232" lon="4.55403">
        <ele>341</ele>
        <time>2022-06-26T12:41:48Z</time>
      </trkpt>
      <trkpt lat="45.75234" lon="4.55406">
        <ele>341</ele>
        <time>2022-06-26T12:41:49Z</time>
      </trkpt>
      <trkpt lat="45.75236" lon="4.5541">
        <ele>341</ele>
        <time>2022-06-26T12:41:50Z</time>
      </trkpt>
      <trkpt lat="45.75238" lon="4.55414">
        <ele>341</ele>
        <time>2022-06-26T12:41:51Z</time>
      </trkpt>
      <trkpt lat="45.75239" lon="4.55418">
        <ele>341.2</ele>
        <time>2022-06-26T12:41:52Z</time>
      </trkpt>
      <trkpt lat="45.75241" lon="4.55422">
        <ele>341.2</ele>
        <time>2022-06-26T12:41:53Z</time>
      </trkpt>
      <trkpt lat="45.75243" lon="4.55426">
        <ele>341.2</ele>
        <time>2022-06-26T12:41:54Z</time>
      </trkpt>
      <trkpt lat="45.75245" lon="4.5543">
        <ele>341.4</ele>
        <time>2022-06-26T12:41:55Z</time>
      </trkpt>
      <trkpt lat="45.75247" lon="4.55434">
        <ele>341.4</ele>
        <time>2022-06-26T12:41:56Z</time>
      </trkpt>
      <trkpt lat="45.75249" lon="4.55438">
        <ele>341.4</ele>
        <time>2022-06-26T12:41:57Z</time>
      </trkpt>
      <trkpt lat="45.75251" lon="4.55442">
        <ele>341.6</ele>
        <time>2022-06-26T12:41:58Z</time>
      </trkpt>
      <trkpt lat="45.75253" lon="4.55446">
        <ele>341.6</ele>
        <time>2022-06-26T12:41:59Z</time>
      </trkpt>
      <trkpt lat="45.75255" lon="4.5545">
        <ele>341.6</ele>
        <time>2022-06-26T12:42:00Z</time>
      </trkpt>
      <trkpt lat="45.75257" lon="4.55454">
        <ele>341.6</ele>
        <time>2022-06-26T12:42:01Z</time>
      </trkpt>
      <trkpt lat="45.75259" lon="4.55458">
        <ele>341.6</ele>
        <time>2022-06-26T12:42:02Z</time>
      </trkpt>
      <trkpt lat="45.75261" lon="4.55463">
        <ele>341.6</ele>
        <time>2022-06-26T12:42:03Z</time>
      </trkpt>
      <trkpt lat="45.75263" lon="4.55468">
        <ele>342</ele>
        <time>2022-06-26T12:42:04Z</time>
      </trkpt>
      <trkpt lat="45.75265" lon="4.55472">
        <ele>342</ele>
        <time>2022-06-26T12:42:05Z</time>
      </trkpt>
      <trkpt lat="45.75267" lon="4.55477">
        <ele>342</ele>
        <time>2022-06-26T12:42:06Z</time>
      </trkpt>
      <trkpt lat="45.75269" lon="4.55482">
        <ele>342.2</ele>
        <time>2022-06-26T12:42:07Z</time>
      </trkpt>
      <trkpt lat="45.75271" lon="4.55487">
        <ele>342.2</ele>
        <time>2022-06-26T12:42:08Z</time>
      </trkpt>
      <trkpt lat="45.75273" lon="4.55492">
        <ele>342.2</ele>
        <time>2022-06-26T12:42:09Z</time>
      </trkpt>
      <trkpt lat="45.75274" lon="4.55497">
        <ele>342.2</ele>
        <time>2022-06-26T12:42:10Z</time>
      </trkpt>
      <trkpt lat="45.75277" lon="4.55501">
        <ele>342.4</ele>
        <time>2022-06-26T12:42:11Z</time>
      </trkpt>
      <trkpt lat="45.75279" lon="4.55506">
        <ele>342.4</ele>
        <time>2022-06-26T12:42:12Z</time>
      </trkpt>
      <trkpt lat="45.75281" lon="4.55511">
        <ele>342.4</ele>
        <time>2022-06-26T12:42:13Z</time>
      </trkpt>
      <trkpt lat="45.75283" lon="4.55516">
        <ele>342.4</ele>
        <time>2022-06-26T12:42:14Z</time>
      </trkpt>
      <trkpt lat="45.75285" lon="4.5552">
        <ele>342.6</ele>
        <time>2022-06-26T12:42:15Z</time>
      </trkpt>
      <trkpt lat="45.75287" lon="4.55525">
        <ele>342.6</ele>
        <time>2022-06-26T12:42:16Z</time>
      </trkpt>
      <trkpt lat="45.75289" lon="4.5553">
        <ele>342.6</ele>
        <time>2022-06-26T12:42:17Z</time>
      </trkpt>
      <trkpt lat="45.75291" lon="4.55535">
        <ele>342.6</ele>
        <time>2022-06-26T12:42:18Z</time>
      </trkpt>
      <trkpt lat="45.75293" lon="4.5554">
        <ele>343</ele>
        <time>2022-06-26T12:42:19Z</time>
      </trkpt>
      <trkpt lat="45.75295" lon="4.55544">
        <ele>343</ele>
        <time>2022-06-26T12:42:20Z</time>
      </trkpt>
      <trkpt lat="45.75297" lon="4.55548">
        <ele>343.2</ele>
        <time>2022-06-26T12:42:21Z</time>
      </trkpt>
      <trkpt lat="45.75299" lon="4.55552">
        <ele>343.2</ele>
        <time>2022-06-26T12:42:22Z</time>
      </trkpt>
      <trkpt lat="45.75301" lon="4.55556">
        <ele>343.4</ele>
        <time>2022-06-26T12:42:24Z</time>
      </trkpt>
      <trkpt lat="45.75304" lon="4.5556">
        <ele>343.4</ele>
        <time>2022-06-26T12:42:25Z</time>
      </trkpt>
      <trkpt lat="45.75306" lon="4.55564">
        <ele>343.4</ele>
        <time>2022-06-26T12:42:26Z</time>
      </trkpt>
      <trkpt lat="45.75308" lon="4.55568">
        <ele>343.6</ele>
        <time>2022-06-26T12:42:27Z</time>
      </trkpt>
      <trkpt lat="45.7531" lon="4.55572">
        <ele>343.6</ele>
        <time>2022-06-26T12:42:28Z</time>
      </trkpt>
      <trkpt lat="45.75312" lon="4.55576">
        <ele>343.6</ele>
        <time>2022-06-26T12:42:29Z</time>
      </trkpt>
      <trkpt lat="45.75315" lon="4.5558">
        <ele>344</ele>
        <time>2022-06-26T12:42:30Z</time>
      </trkpt>
      <trkpt lat="45.75317" lon="4.55584">
        <ele>344</ele>
        <time>2022-06-26T12:42:31Z</time>
      </trkpt>
      <trkpt lat="45.75319" lon="4.55588">
        <ele>344</ele>
        <time>2022-06-26T12:42:32Z</time>
      </trkpt>
      <trkpt lat="45.75321" lon="4.55592">
        <ele>344.2</ele>
        <time>2022-06-26T12:42:33Z</time>
      </trkpt>
      <trkpt lat="45.75323" lon="4.55596">
        <ele>344.2</ele>
        <time>2022-06-26T12:42:34Z</time>
      </trkpt>
      <trkpt lat="45.75325" lon="4.556">
        <ele>344.2</ele>
        <time>2022-06-26T12:42:35Z</time>
      </trkpt>
      <trkpt lat="45.75328" lon="4.55603">
        <ele>344.6</ele>
        <time>2022-06-26T12:42:36Z</time>
      </trkpt>
      <trkpt lat="45.7533" lon="4.55607">
        <ele>344.6</ele>
        <time>2022-06-26T12:42:37Z</time>
      </trkpt>
      <trkpt lat="45.75332" lon="4.55611">
        <ele>344.6</ele>
        <time>2022-06-26T12:42:38Z</time>
      </trkpt>
      <trkpt lat="45.75334" lon="4.55615">
        <ele>344.8</ele>
        <time>2022-06-26T12:42:39Z</time>
      </trkpt>
      <trkpt lat="45.75336" lon="4.55619">
        <ele>344.8</ele>
        <time>2022-06-26T12:42:40Z</time>
      </trkpt>
      <trkpt lat="45.75337" lon="4.55624">
        <ele>344.8</ele>
        <time>2022-06-26T12:42:41Z</time>
      </trkpt>
      <trkpt lat="45.75339" lon="4.55628">
        <ele>345</ele>
        <time>2022-06-26T12:42:42Z</time>
      </trkpt>
      <trkpt lat="45.75341" lon="4.55633">
        <ele>345</ele>
        <time>2022-06-26T12:42:43Z</time>
      </trkpt>
      <trkpt lat="45.75342" lon="4.55637">
        <ele>345</ele>
        <time>2022-06-26T12:42:44Z</time>
      </trkpt>
      <trkpt lat="45.75344" lon="4.55642">
        <ele>345</ele>
        <time>2022-06-26T12:42:45Z</time>
      </trkpt>
      <trkpt lat="45.75346" lon="4.55647">
        <ele>345</ele>
        <time>2022-06-26T12:42:46Z</time>
      </trkpt>
      <trkpt lat="45.75347" lon="4.55652">
        <ele>345.2</ele>
        <time>2022-06-26T12:42:47Z</time>
      </trkpt>
      <trkpt lat="45.75349" lon="4.55657">
        <ele>345.2</ele>
        <time>2022-06-26T12:42:48Z</time>
      </trkpt>
      <trkpt lat="45.7535" lon="4.55662">
        <ele>345.2</ele>
        <time>2022-06-26T12:42:49Z</time>
      </trkpt>
      <trkpt lat="45.75352" lon="4.55667">
        <ele>345.2</ele>
        <time>2022-06-26T12:42:50Z</time>
      </trkpt>
      <trkpt lat="45.75353" lon="4.55672">
        <ele>345.2</ele>
        <time>2022-06-26T12:42:51Z</time>
      </trkpt>
      <trkpt lat="45.75355" lon="4.55678">
        <ele>345.2</ele>
        <time>2022-06-26T12:42:52Z</time>
      </trkpt>
      <trkpt lat="45.75356" lon="4.55683">
        <ele>345.2</ele>
        <time>2022-06-26T12:42:53Z</time>
      </trkpt>
      <trkpt lat="45.75357" lon="4.55689">
        <ele>345.2</ele>
        <time>2022-06-26T12:42:54Z</time>
      </trkpt>
      <trkpt lat="45.75359" lon="4.55695">
        <ele>345.2</ele>
        <time>2022-06-26T12:42:55Z</time>
      </trkpt>
      <trkpt lat="45.7536" lon="4.557">
        <ele>345.2</ele>
        <time>2022-06-26T12:42:56Z</time>
      </trkpt>
      <trkpt lat="45.75361" lon="4.55706">
        <ele>345.2</ele>
        <time>2022-06-26T12:42:57Z</time>
      </trkpt>
      <trkpt lat="45.75362" lon="4.55712">
        <ele>345.4</ele>
        <time>2022-06-26T12:42:58Z</time>
      </trkpt>
      <trkpt lat="45.75363" lon="4.55718">
        <ele>345.4</ele>
        <time>2022-06-26T12:42:59Z</time>
      </trkpt>
      <trkpt lat="45.75363" lon="4.55725">
        <ele>345.4</ele>
        <time>2022-06-26T12:43:00Z</time>
      </trkpt>
      <trkpt lat="45.75364" lon="4.5573">
        <ele>345.4</ele>
        <time>2022-06-26T12:43:01Z</time>
      </trkpt>
      <trkpt lat="45.75364" lon="4.55736">
        <ele>345.6</ele>
        <time>2022-06-26T12:43:02Z</time>
      </trkpt>
      <trkpt lat="45.75363" lon="4.55742">
        <ele>345.6</ele>
        <time>2022-06-26T12:43:03Z</time>
      </trkpt>
      <trkpt lat="45.75363" lon="4.55747">
        <ele>345.6</ele>
        <time>2022-06-26T12:43:04Z</time>
      </trkpt>
      <trkpt lat="45.75362" lon="4.55752">
        <ele>345.8</ele>
        <time>2022-06-26T12:43:05Z</time>
      </trkpt>
      <trkpt lat="45.75362" lon="4.55757">
        <ele>345.8</ele>
        <time>2022-06-26T12:43:06Z</time>
      </trkpt>
      <trkpt lat="45.75361" lon="4.55762">
        <ele>346</ele>
        <time>2022-06-26T12:43:07Z</time>
      </trkpt>
      <trkpt lat="45.7536" lon="4.55767">
        <ele>346</ele>
        <time>2022-06-26T12:43:08Z</time>
      </trkpt>
      <trkpt lat="45.75359" lon="4.55772">
        <ele>346</ele>
        <time>2022-06-26T12:43:09Z</time>
      </trkpt>
      <trkpt lat="45.75358" lon="4.55777">
        <ele>346.2</ele>
        <time>2022-06-26T12:43:10Z</time>
      </trkpt>
      <trkpt lat="45.75356" lon="4.55782">
        <ele>346.2</ele>
        <time>2022-06-26T12:43:11Z</time>
      </trkpt>
      <trkpt lat="45.75355" lon="4.55787">
        <ele>346.2</ele>
        <time>2022-06-26T12:43:12Z</time>
      </trkpt>
      <trkpt lat="45.75354" lon="4.55791">
        <ele>346.4</ele>
        <time>2022-06-26T12:43:13Z</time>
      </trkpt>
      <trkpt lat="45.75352" lon="4.55796">
        <ele>346.4</ele>
        <time>2022-06-26T12:43:14Z</time>
      </trkpt>
      <trkpt lat="45.75351" lon="4.55801">
        <ele>346.8</ele>
        <time>2022-06-26T12:43:15Z</time>
      </trkpt>
      <trkpt lat="45.75349" lon="4.55807">
        <ele>346.8</ele>
        <time>2022-06-26T12:43:16Z</time>
      </trkpt>
      <trkpt lat="45.75348" lon="4.55812">
        <ele>346.8</ele>
        <time>2022-06-26T12:43:17Z</time>
      </trkpt>
      <trkpt lat="45.75346" lon="4.55817">
        <ele>346.8</ele>
        <time>2022-06-26T12:43:18Z</time>
      </trkpt>
      <trkpt lat="45.75345" lon="4.55822">
        <ele>346.8</ele>
        <time>2022-06-26T12:43:19Z</time>
      </trkpt>
      <trkpt lat="45.75343" lon="4.55828">
        <ele>346.8</ele>
        <time>2022-06-26T12:43:20Z</time>
      </trkpt>
      <trkpt lat="45.75342" lon="4.55833">
        <ele>346.8</ele>
        <time>2022-06-26T12:43:21Z</time>
      </trkpt>
      <trkpt lat="45.7534" lon="4.55838">
        <ele>346.8</ele>
        <time>2022-06-26T12:43:22Z</time>
      </trkpt>
      <trkpt lat="45.75339" lon="4.55843">
        <ele>347</ele>
        <time>2022-06-26T12:43:23Z</time>
      </trkpt>
      <trkpt lat="45.75337" lon="4.55849">
        <ele>347</ele>
        <time>2022-06-26T12:43:24Z</time>
      </trkpt>
      <trkpt lat="45.75335" lon="4.55854">
        <ele>347</ele>
        <time>2022-06-26T12:43:25Z</time>
      </trkpt>
      <trkpt lat="45.75334" lon="4.55858">
        <ele>347.2</ele>
        <time>2022-06-26T12:43:26Z</time>
      </trkpt>
      <trkpt lat="45.75332" lon="4.55863">
        <ele>347.2</ele>
        <time>2022-06-26T12:43:27Z</time>
      </trkpt>
      <trkpt lat="45.7533" lon="4.55868">
        <ele>347.2</ele>
        <time>2022-06-26T12:43:28Z</time>
      </trkpt>
      <trkpt lat="45.75328" lon="4.55872">
        <ele>347.4</ele>
        <time>2022-06-26T12:43:29Z</time>
      </trkpt>
      <trkpt lat="45.75326" lon="4.55876">
        <ele>347.4</ele>
        <time>2022-06-26T12:43:30Z</time>
      </trkpt>
      <trkpt lat="45.75323" lon="4.5588">
        <ele>347.4</ele>
        <time>2022-06-26T12:43:31Z</time>
      </trkpt>
      <trkpt lat="45.75321" lon="4.55884">
        <ele>347.6</ele>
        <time>2022-06-26T12:43:32Z</time>
      </trkpt>
      <trkpt lat="45.75319" lon="4.55888">
        <ele>347.6</ele>
        <time>2022-06-26T12:43:33Z</time>
      </trkpt>
      <trkpt lat="45.75317" lon="4.55892">
        <ele>347.6</ele>
        <time>2022-06-26T12:43:34Z</time>
      </trkpt>
      <trkpt lat="45.75315" lon="4.55896">
        <ele>348</ele>
        <time>2022-06-26T12:43:35Z</time>
      </trkpt>
      <trkpt lat="45.75312" lon="4.55901">
        <ele>348</ele>
        <time>2022-06-26T12:43:36Z</time>
      </trkpt>
      <trkpt lat="45.7531" lon="4.55904">
        <ele>348</ele>
        <time>2022-06-26T12:43:37Z</time>
      </trkpt>
      <trkpt lat="45.75307" lon="4.55908">
        <ele>348.4</ele>
        <time>2022-06-26T12:43:38Z</time>
      </trkpt>
      <trkpt lat="45.75304" lon="4.55912">
        <ele>348.4</ele>
        <time>2022-06-26T12:43:39Z</time>
      </trkpt>
      <trkpt lat="45.75301" lon="4.55916">
        <ele>348.4</ele>
        <time>2022-06-26T12:43:40Z</time>
      </trkpt>
      <trkpt lat="45.75299" lon="4.5592">
        <ele>348.6</ele>
        <time>2022-06-26T12:43:41Z</time>
      </trkpt>
      <trkpt lat="45.75296" lon="4.55923">
        <ele>348.6</ele>
        <time>2022-06-26T12:43:42Z</time>
      </trkpt>
      <trkpt lat="45.75293" lon="4.55927">
        <ele>349</ele>
        <time>2022-06-26T12:43:43Z</time>
      </trkpt>
      <trkpt lat="45.75289" lon="4.5593">
        <ele>349</ele>
        <time>2022-06-26T12:43:44Z</time>
      </trkpt>
      <trkpt lat="45.75286" lon="4.55933">
        <ele>349</ele>
        <time>2022-06-26T12:43:45Z</time>
      </trkpt>
      <trkpt lat="45.75283" lon="4.55936">
        <ele>349</ele>
        <time>2022-06-26T12:43:46Z</time>
      </trkpt>
      <trkpt lat="45.7528" lon="4.55938">
        <ele>349.2</ele>
        <time>2022-06-26T12:43:47Z</time>
      </trkpt>
      <trkpt lat="45.75277" lon="4.5594">
        <ele>349.2</ele>
        <time>2022-06-26T12:43:48Z</time>
      </trkpt>
      <trkpt lat="45.75273" lon="4.55942">
        <ele>349.6</ele>
        <time>2022-06-26T12:43:49Z</time>
      </trkpt>
      <trkpt lat="45.7527" lon="4.55944">
        <ele>349.6</ele>
        <time>2022-06-26T12:43:50Z</time>
      </trkpt>
      <trkpt lat="45.75266" lon="4.55946">
        <ele>349.8</ele>
        <time>2022-06-26T12:43:51Z</time>
      </trkpt>
      <trkpt lat="45.75263" lon="4.55947">
        <ele>349.8</ele>
        <time>2022-06-26T12:43:52Z</time>
      </trkpt>
      <trkpt lat="45.75259" lon="4.55949">
        <ele>350.2</ele>
        <time>2022-06-26T12:43:53Z</time>
      </trkpt>
      <trkpt lat="45.75256" lon="4.5595">
        <ele>350.2</ele>
        <time>2022-06-26T12:43:54Z</time>
      </trkpt>
      <trkpt lat="45.75252" lon="4.55951">
        <ele>350.2</ele>
        <time>2022-06-26T12:43:55Z</time>
      </trkpt>
      <trkpt lat="45.75249" lon="4.55951">
        <ele>350.4</ele>
        <time>2022-06-26T12:43:56Z</time>
      </trkpt>
      <trkpt lat="45.75245" lon="4.55951">
        <ele>350.4</ele>
        <time>2022-06-26T12:43:57Z</time>
      </trkpt>
      <trkpt lat="45.75241" lon="4.55951">
        <ele>350.6</ele>
        <time>2022-06-26T12:43:58Z</time>
      </trkpt>
      <trkpt lat="45.75237" lon="4.55952">
        <ele>350.6</ele>
        <time>2022-06-26T12:43:59Z</time>
      </trkpt>
      <trkpt lat="45.75233" lon="4.55952">
        <ele>350.8</ele>
        <time>2022-06-26T12:44:00Z</time>
      </trkpt>
      <trkpt lat="45.7523" lon="4.55953">
        <ele>350.8</ele>
        <time>2022-06-26T12:44:01Z</time>
      </trkpt>
      <trkpt lat="45.75226" lon="4.55953">
        <ele>351.2</ele>
        <time>2022-06-26T12:44:02Z</time>
      </trkpt>
      <trkpt lat="45.75222" lon="4.55953">
        <ele>351.2</ele>
        <time>2022-06-26T12:44:03Z</time>
      </trkpt>
      <trkpt lat="45.75218" lon="4.55952">
        <ele>351.6</ele>
        <time>2022-06-26T12:44:04Z</time>
      </trkpt>
      <trkpt lat="45.75214" lon="4.55951">
        <ele>351.6</ele>
        <time>2022-06-26T12:44:05Z</time>
      </trkpt>
      <trkpt lat="45.75211" lon="4.55951">
        <ele>351.8</ele>
        <time>2022-06-26T12:44:06Z</time>
      </trkpt>
      <trkpt lat="45.75207" lon="4.5595">
        <ele>351.8</ele>
        <time>2022-06-26T12:44:07Z</time>
      </trkpt>
      <trkpt lat="45.75203" lon="4.5595">
        <ele>352</ele>
        <time>2022-06-26T12:44:08Z</time>
      </trkpt>
      <trkpt lat="45.75199" lon="4.55951">
        <ele>352</ele>
        <time>2022-06-26T12:44:09Z</time>
      </trkpt>
      <trkpt lat="45.75195" lon="4.55952">
        <ele>352.2</ele>
        <time>2022-06-26T12:44:10Z</time>
      </trkpt>
      <trkpt lat="45.75191" lon="4.55953">
        <ele>352.2</ele>
        <time>2022-06-26T12:44:11Z</time>
      </trkpt>
      <trkpt lat="45.75187" lon="4.55954">
        <ele>352.6</ele>
        <time>2022-06-26T12:44:12Z</time>
      </trkpt>
      <trkpt lat="45.75183" lon="4.55956">
        <ele>352.6</ele>
        <time>2022-06-26T12:44:13Z</time>
      </trkpt>
      <trkpt lat="45.7518" lon="4.55958">
        <ele>352.8</ele>
        <time>2022-06-26T12:44:14Z</time>
      </trkpt>
      <trkpt lat="45.75176" lon="4.55959">
        <ele>352.8</ele>
        <time>2022-06-26T12:44:15Z</time>
      </trkpt>
      <trkpt lat="45.75172" lon="4.55961">
        <ele>353</ele>
        <time>2022-06-26T12:44:16Z</time>
      </trkpt>
      <trkpt lat="45.75169" lon="4.55963">
        <ele>353</ele>
        <time>2022-06-26T12:44:17Z</time>
      </trkpt>
      <trkpt lat="45.75165" lon="4.55964">
        <ele>353.4</ele>
        <time>2022-06-26T12:44:18Z</time>
      </trkpt>
      <trkpt lat="45.75161" lon="4.55966">
        <ele>353.4</ele>
        <time>2022-06-26T12:44:19Z</time>
      </trkpt>
      <trkpt lat="45.75158" lon="4.55968">
        <ele>353.6</ele>
        <time>2022-06-26T12:44:20Z</time>
      </trkpt>
      <trkpt lat="45.75154" lon="4.5597">
        <ele>353.8</ele>
        <time>2022-06-26T12:44:21Z</time>
      </trkpt>
      <trkpt lat="45.75151" lon="4.55972">
        <ele>353.8</ele>
        <time>2022-06-26T12:44:22Z</time>
      </trkpt>
      <trkpt lat="45.75148" lon="4.55974">
        <ele>354.2</ele>
        <time>2022-06-26T12:44:23Z</time>
      </trkpt>
      <trkpt lat="45.75144" lon="4.55976">
        <ele>354.2</ele>
        <time>2022-06-26T12:44:24Z</time>
      </trkpt>
      <trkpt lat="45.75141" lon="4.55978">
        <ele>354.4</ele>
        <time>2022-06-26T12:44:25Z</time>
      </trkpt>
      <trkpt lat="45.75137" lon="4.5598">
        <ele>354.4</ele>
        <time>2022-06-26T12:44:26Z</time>
      </trkpt>
      <trkpt lat="45.75134" lon="4.55982">
        <ele>354.6</ele>
        <time>2022-06-26T12:44:27Z</time>
      </trkpt>
      <trkpt lat="45.75131" lon="4.55984">
        <ele>354.6</ele>
        <time>2022-06-26T12:44:28Z</time>
      </trkpt>
      <trkpt lat="45.75127" lon="4.55986">
        <ele>354.8</ele>
        <time>2022-06-26T12:44:29Z</time>
      </trkpt>
      <trkpt lat="45.75124" lon="4.55988">
        <ele>354.8</ele>
        <time>2022-06-26T12:44:30Z</time>
      </trkpt>
      <trkpt lat="45.7512" lon="4.5599">
        <ele>354.8</ele>
        <time>2022-06-26T12:44:31Z</time>
      </trkpt>
      <trkpt lat="45.75117" lon="4.55992">
        <ele>354.8</ele>
        <time>2022-06-26T12:44:32Z</time>
      </trkpt>
      <trkpt lat="45.75114" lon="4.55994">
        <ele>355</ele>
        <time>2022-06-26T12:44:33Z</time>
      </trkpt>
      <trkpt lat="45.7511" lon="4.55996">
        <ele>355</ele>
        <time>2022-06-26T12:44:34Z</time>
      </trkpt>
      <trkpt lat="45.75107" lon="4.55997">
        <ele>355.4</ele>
        <time>2022-06-26T12:44:35Z</time>
      </trkpt>
      <trkpt lat="45.75104" lon="4.55999">
        <ele>355.4</ele>
        <time>2022-06-26T12:44:36Z</time>
      </trkpt>
      <trkpt lat="45.75101" lon="4.56002">
        <ele>355.8</ele>
        <time>2022-06-26T12:44:37Z</time>
      </trkpt>
      <trkpt lat="45.75097" lon="4.56004">
        <ele>355.8</ele>
        <time>2022-06-26T12:44:38Z</time>
      </trkpt>
      <trkpt lat="45.75094" lon="4.56006">
        <ele>355.8</ele>
        <time>2022-06-26T12:44:39Z</time>
      </trkpt>
      <trkpt lat="45.7509" lon="4.56008">
        <ele>356</ele>
        <time>2022-06-26T12:44:40Z</time>
      </trkpt>
      <trkpt lat="45.75087" lon="4.5601">
        <ele>356</ele>
        <time>2022-06-26T12:44:41Z</time>
      </trkpt>
      <trkpt lat="45.75084" lon="4.56012">
        <ele>356</ele>
        <time>2022-06-26T12:44:42Z</time>
      </trkpt>
      <trkpt lat="45.7508" lon="4.56014">
        <ele>356.2</ele>
        <time>2022-06-26T12:44:43Z</time>
      </trkpt>
      <trkpt lat="45.75077" lon="4.56016">
        <ele>356.2</ele>
        <time>2022-06-26T12:44:44Z</time>
      </trkpt>
      <trkpt lat="45.75073" lon="4.56018">
        <ele>356.2</ele>
        <time>2022-06-26T12:44:45Z</time>
      </trkpt>
      <trkpt lat="45.7507" lon="4.56021">
        <ele>356.4</ele>
        <time>2022-06-26T12:44:46Z</time>
      </trkpt>
      <trkpt lat="45.75066" lon="4.56023">
        <ele>356.4</ele>
        <time>2022-06-26T12:44:47Z</time>
      </trkpt>
      <trkpt lat="45.75063" lon="4.56026">
        <ele>356.8</ele>
        <time>2022-06-26T12:44:48Z</time>
      </trkpt>
      <trkpt lat="45.75059" lon="4.56028">
        <ele>356.8</ele>
        <time>2022-06-26T12:44:49Z</time>
      </trkpt>
      <trkpt lat="45.75056" lon="4.56032">
        <ele>356.8</ele>
        <time>2022-06-26T12:44:50Z</time>
      </trkpt>
      <trkpt lat="45.75052" lon="4.56035">
        <ele>357</ele>
        <time>2022-06-26T12:44:51Z</time>
      </trkpt>
      <trkpt lat="45.75049" lon="4.56038">
        <ele>357</ele>
        <time>2022-06-26T12:44:52Z</time>
      </trkpt>
      <trkpt lat="45.75045" lon="4.56042">
        <ele>357</ele>
        <time>2022-06-26T12:44:53Z</time>
      </trkpt>
      <trkpt lat="45.75041" lon="4.56045">
        <ele>357.2</ele>
        <time>2022-06-26T12:44:54Z</time>
      </trkpt>
      <trkpt lat="45.75038" lon="4.56049">
        <ele>357.2</ele>
        <time>2022-06-26T12:44:55Z</time>
      </trkpt>
      <trkpt lat="45.75034" lon="4.56052">
        <ele>357.2</ele>
        <time>2022-06-26T12:44:56Z</time>
      </trkpt>
      <trkpt lat="45.75031" lon="4.56056">
        <ele>357.2</ele>
        <time>2022-06-26T12:44:57Z</time>
      </trkpt>
      <trkpt lat="45.75027" lon="4.56061">
        <ele>357.2</ele>
        <time>2022-06-26T12:44:58Z</time>
      </trkpt>
      <trkpt lat="45.75024" lon="4.56065">
        <ele>357.2</ele>
        <time>2022-06-26T12:44:59Z</time>
      </trkpt>
      <trkpt lat="45.7502" lon="4.56069">
        <ele>357.2</ele>
        <time>2022-06-26T12:45:00Z</time>
      </trkpt>
      <trkpt lat="45.75016" lon="4.56074">
        <ele>357.2</ele>
        <time>2022-06-26T12:45:01Z</time>
      </trkpt>
      <trkpt lat="45.75012" lon="4.56078">
        <ele>357.2</ele>
        <time>2022-06-26T12:45:02Z</time>
      </trkpt>
      <trkpt lat="45.75009" lon="4.56083">
        <ele>357.2</ele>
        <time>2022-06-26T12:45:03Z</time>
      </trkpt>
      <trkpt lat="45.75005" lon="4.56088">
        <ele>357.2</ele>
        <time>2022-06-26T12:45:04Z</time>
      </trkpt>
      <trkpt lat="45.75001" lon="4.56092">
        <ele>357.2</ele>
        <time>2022-06-26T12:45:05Z</time>
      </trkpt>
      <trkpt lat="45.74998" lon="4.56097">
        <ele>357.2</ele>
        <time>2022-06-26T12:45:06Z</time>
      </trkpt>
      <trkpt lat="45.74994" lon="4.56102">
        <ele>357.2</ele>
        <time>2022-06-26T12:45:07Z</time>
      </trkpt>
      <trkpt lat="45.7499" lon="4.56107">
        <ele>357.2</ele>
        <time>2022-06-26T12:45:08Z</time>
      </trkpt>
      <trkpt lat="45.74986" lon="4.56112">
        <ele>357.2</ele>
        <time>2022-06-26T12:45:09Z</time>
      </trkpt>
      <trkpt lat="45.74982" lon="4.56116">
        <ele>357.4</ele>
        <time>2022-06-26T12:45:10Z</time>
      </trkpt>
      <trkpt lat="45.74978" lon="4.56122">
        <ele>357.4</ele>
        <time>2022-06-26T12:45:11Z</time>
      </trkpt>
      <trkpt lat="45.74975" lon="4.56126">
        <ele>357.4</ele>
        <time>2022-06-26T12:45:12Z</time>
      </trkpt>
      <trkpt lat="45.74971" lon="4.56131">
        <ele>357.4</ele>
        <time>2022-06-26T12:45:13Z</time>
      </trkpt>
      <trkpt lat="45.74967" lon="4.56136">
        <ele>357.4</ele>
        <time>2022-06-26T12:45:14Z</time>
      </trkpt>
      <trkpt lat="45.74964" lon="4.56141">
        <ele>357.8</ele>
        <time>2022-06-26T12:45:15Z</time>
      </trkpt>
      <trkpt lat="45.74961" lon="4.56145">
        <ele>357.8</ele>
        <time>2022-06-26T12:45:16Z</time>
      </trkpt>
      <trkpt lat="45.74958" lon="4.5615">
        <ele>357.8</ele>
        <time>2022-06-26T12:45:17Z</time>
      </trkpt>
      <trkpt lat="45.74954" lon="4.56155">
        <ele>357.8</ele>
        <time>2022-06-26T12:45:18Z</time>
      </trkpt>
      <trkpt lat="45.74951" lon="4.56159">
        <ele>358</ele>
        <time>2022-06-26T12:45:19Z</time>
      </trkpt>
      <trkpt lat="45.74947" lon="4.56163">
        <ele>358</ele>
        <time>2022-06-26T12:45:20Z</time>
      </trkpt>
      <trkpt lat="45.74943" lon="4.56168">
        <ele>358</ele>
        <time>2022-06-26T12:45:21Z</time>
      </trkpt>
      <trkpt lat="45.7494" lon="4.56172">
        <ele>358</ele>
        <time>2022-06-26T12:45:22Z</time>
      </trkpt>
      <trkpt lat="45.74936" lon="4.56177">
        <ele>358.2</ele>
        <time>2022-06-26T12:45:23Z</time>
      </trkpt>
      <trkpt lat="45.74933" lon="4.56182">
        <ele>358.2</ele>
        <time>2022-06-26T12:45:24Z</time>
      </trkpt>
      <trkpt lat="45.7493" lon="4.56187">
        <ele>358.2</ele>
        <time>2022-06-26T12:45:25Z</time>
      </trkpt>
      <trkpt lat="45.74927" lon="4.56191">
        <ele>358.2</ele>
        <time>2022-06-26T12:45:26Z</time>
      </trkpt>
      <trkpt lat="45.74923" lon="4.56195">
        <ele>358.4</ele>
        <time>2022-06-26T12:45:27Z</time>
      </trkpt>
      <trkpt lat="45.74919" lon="4.56199">
        <ele>358.4</ele>
        <time>2022-06-26T12:45:28Z</time>
      </trkpt>
      <trkpt lat="45.74916" lon="4.56203">
        <ele>358.6</ele>
        <time>2022-06-26T12:45:29Z</time>
      </trkpt>
      <trkpt lat="45.74913" lon="4.56207">
        <ele>358.6</ele>
        <time>2022-06-26T12:45:30Z</time>
      </trkpt>
      <trkpt lat="45.7491" lon="4.5621">
        <ele>359</ele>
        <time>2022-06-26T12:45:31Z</time>
      </trkpt>
      <trkpt lat="45.74907" lon="4.56213">
        <ele>359</ele>
        <time>2022-06-26T12:45:32Z</time>
      </trkpt>
      <trkpt lat="45.74904" lon="4.56217">
        <ele>359</ele>
        <time>2022-06-26T12:45:33Z</time>
      </trkpt>
      <trkpt lat="45.74901" lon="4.56221">
        <ele>359.2</ele>
        <time>2022-06-26T12:45:34Z</time>
      </trkpt>
      <trkpt lat="45.74898" lon="4.56225">
        <ele>359.2</ele>
        <time>2022-06-26T12:45:35Z</time>
      </trkpt>
      <trkpt lat="45.74895" lon="4.56229">
        <ele>359.4</ele>
        <time>2022-06-26T12:45:36Z</time>
      </trkpt>
      <trkpt lat="45.74892" lon="4.56232">
        <ele>359.4</ele>
        <time>2022-06-26T12:45:37Z</time>
      </trkpt>
      <trkpt lat="45.74889" lon="4.56236">
        <ele>359.4</ele>
        <time>2022-06-26T12:45:38Z</time>
      </trkpt>
      <trkpt lat="45.74886" lon="4.5624">
        <ele>359.4</ele>
        <time>2022-06-26T12:45:39Z</time>
      </trkpt>
      <trkpt lat="45.74883" lon="4.56244">
        <ele>359.6</ele>
        <time>2022-06-26T12:45:40Z</time>
      </trkpt>
      <trkpt lat="45.74881" lon="4.56248">
        <ele>359.6</ele>
        <time>2022-06-26T12:45:41Z</time>
      </trkpt>
      <trkpt lat="45.74878" lon="4.56251">
        <ele>359.6</ele>
        <time>2022-06-26T12:45:42Z</time>
      </trkpt>
      <trkpt lat="45.74875" lon="4.56254">
        <ele>359.8</ele>
        <time>2022-06-26T12:45:43Z</time>
      </trkpt>
      <trkpt lat="45.74871" lon="4.56258">
        <ele>359.8</ele>
        <time>2022-06-26T12:45:44Z</time>
      </trkpt>
      <trkpt lat="45.74868" lon="4.56262">
        <ele>359.8</ele>
        <time>2022-06-26T12:45:45Z</time>
      </trkpt>
      <trkpt lat="45.74865" lon="4.56266">
        <ele>360.2</ele>
        <time>2022-06-26T12:45:46Z</time>
      </trkpt>
      <trkpt lat="45.74862" lon="4.5627">
        <ele>360.2</ele>
        <time>2022-06-26T12:45:47Z</time>
      </trkpt>
      <trkpt lat="45.74859" lon="4.56274">
        <ele>360.2</ele>
        <time>2022-06-26T12:45:48Z</time>
      </trkpt>
      <trkpt lat="45.74856" lon="4.56278">
        <ele>360.4</ele>
        <time>2022-06-26T12:45:49Z</time>
      </trkpt>
      <trkpt lat="45.74853" lon="4.56282">
        <ele>360.4</ele>
        <time>2022-06-26T12:45:50Z</time>
      </trkpt>
      <trkpt lat="45.7485" lon="4.56286">
        <ele>360.6</ele>
        <time>2022-06-26T12:45:51Z</time>
      </trkpt>
      <trkpt lat="45.74848" lon="4.5629">
        <ele>360.6</ele>
        <time>2022-06-26T12:45:52Z</time>
      </trkpt>
      <trkpt lat="45.74846" lon="4.56294">
        <ele>361</ele>
        <time>2022-06-26T12:45:53Z</time>
      </trkpt>
      <trkpt lat="45.74843" lon="4.56298">
        <ele>361</ele>
        <time>2022-06-26T12:45:54Z</time>
      </trkpt>
      <trkpt lat="45.7484" lon="4.56302">
        <ele>361.2</ele>
        <time>2022-06-26T12:45:55Z</time>
      </trkpt>
      <trkpt lat="45.74838" lon="4.56305">
        <ele>361.4</ele>
        <time>2022-06-26T12:45:56Z</time>
      </trkpt>
      <trkpt lat="45.74835" lon="4.56309">
        <ele>361.4</ele>
        <time>2022-06-26T12:45:57Z</time>
      </trkpt>
      <trkpt lat="45.74833" lon="4.56312">
        <ele>361.8</ele>
        <time>2022-06-26T12:45:58Z</time>
      </trkpt>
      <trkpt lat="45.7483" lon="4.56315">
        <ele>361.8</ele>
        <time>2022-06-26T12:45:59Z</time>
      </trkpt>
      <trkpt lat="45.74828" lon="4.56319">
        <ele>362.2</ele>
        <time>2022-06-26T12:46:00Z</time>
      </trkpt>
      <trkpt lat="45.74826" lon="4.56324">
        <ele>362.2</ele>
        <time>2022-06-26T12:46:01Z</time>
      </trkpt>
      <trkpt lat="45.74824" lon="4.56328">
        <ele>362.4</ele>
        <time>2022-06-26T12:46:02Z</time>
      </trkpt>
      <trkpt lat="45.74822" lon="4.56332">
        <ele>362.4</ele>
        <time>2022-06-26T12:46:03Z</time>
      </trkpt>
      <trkpt lat="45.7482" lon="4.56337">
        <ele>362.8</ele>
        <time>2022-06-26T12:46:04Z</time>
      </trkpt>
      <trkpt lat="45.74817" lon="4.56341">
        <ele>362.8</ele>
        <time>2022-06-26T12:46:05Z</time>
      </trkpt>
      <trkpt lat="45.74815" lon="4.56346">
        <ele>362.8</ele>
        <time>2022-06-26T12:46:06Z</time>
      </trkpt>
      <trkpt lat="45.74813" lon="4.5635">
        <ele>363.2</ele>
        <time>2022-06-26T12:46:07Z</time>
      </trkpt>
      <trkpt lat="45.74811" lon="4.56355">
        <ele>363.4</ele>
        <time>2022-06-26T12:46:08Z</time>
      </trkpt>
      <trkpt lat="45.74808" lon="4.56361">
        <ele>363.4</ele>
        <time>2022-06-26T12:46:09Z</time>
      </trkpt>
      <trkpt lat="45.74805" lon="4.56366">
        <ele>363.6</ele>
        <time>2022-06-26T12:46:10Z</time>
      </trkpt>
      <trkpt lat="45.74803" lon="4.56372">
        <ele>363.6</ele>
        <time>2022-06-26T12:46:11Z</time>
      </trkpt>
      <trkpt lat="45.74801" lon="4.56377">
        <ele>364</ele>
        <time>2022-06-26T12:46:12Z</time>
      </trkpt>
      <trkpt lat="45.74799" lon="4.56381">
        <ele>364</ele>
        <time>2022-06-26T12:46:13Z</time>
      </trkpt>
      <trkpt lat="45.74797" lon="4.56385">
        <ele>364.4</ele>
        <time>2022-06-26T12:46:14Z</time>
      </trkpt>
      <trkpt lat="45.74795" lon="4.56389">
        <ele>364.4</ele>
        <time>2022-06-26T12:46:15Z</time>
      </trkpt>
      <trkpt lat="45.74794" lon="4.56395">
        <ele>364.6</ele>
        <time>2022-06-26T12:46:16Z</time>
      </trkpt>
      <trkpt lat="45.74792" lon="4.56401">
        <ele>364.6</ele>
        <time>2022-06-26T12:46:17Z</time>
      </trkpt>
      <trkpt lat="45.7479" lon="4.56406">
        <ele>364.8</ele>
        <time>2022-06-26T12:46:18Z</time>
      </trkpt>
      <trkpt lat="45.74788" lon="4.56411">
        <ele>364.8</ele>
        <time>2022-06-26T12:46:19Z</time>
      </trkpt>
      <trkpt lat="45.74786" lon="4.56416">
        <ele>365</ele>
        <time>2022-06-26T12:46:20Z</time>
      </trkpt>
      <trkpt lat="45.74785" lon="4.5642">
        <ele>365</ele>
        <time>2022-06-26T12:46:21Z</time>
      </trkpt>
      <trkpt lat="45.74783" lon="4.56424">
        <ele>365.4</ele>
        <time>2022-06-26T12:46:22Z</time>
      </trkpt>
      <trkpt lat="45.74781" lon="4.56429">
        <ele>365.4</ele>
        <time>2022-06-26T12:46:23Z</time>
      </trkpt>
      <trkpt lat="45.7478" lon="4.56434">
        <ele>365.6</ele>
        <time>2022-06-26T12:46:24Z</time>
      </trkpt>
      <trkpt lat="45.74778" lon="4.5644">
        <ele>365.6</ele>
        <time>2022-06-26T12:46:25Z</time>
      </trkpt>
      <trkpt lat="45.74776" lon="4.56445">
        <ele>366</ele>
        <time>2022-06-26T12:46:26Z</time>
      </trkpt>
      <trkpt lat="45.74775" lon="4.56451">
        <ele>366</ele>
        <time>2022-06-26T12:46:27Z</time>
      </trkpt>
      <trkpt lat="45.74773" lon="4.56456">
        <ele>366.2</ele>
        <time>2022-06-26T12:46:28Z</time>
      </trkpt>
      <trkpt lat="45.74772" lon="4.56462">
        <ele>366.2</ele>
        <time>2022-06-26T12:46:29Z</time>
      </trkpt>
      <trkpt lat="45.7477" lon="4.56468">
        <ele>366.2</ele>
        <time>2022-06-26T12:46:30Z</time>
      </trkpt>
      <trkpt lat="45.74768" lon="4.56473">
        <ele>366.4</ele>
        <time>2022-06-26T12:46:31Z</time>
      </trkpt>
      <trkpt lat="45.74767" lon="4.56478">
        <ele>366.4</ele>
        <time>2022-06-26T12:46:32Z</time>
      </trkpt>
      <trkpt lat="45.74765" lon="4.56483">
        <ele>366.6</ele>
        <time>2022-06-26T12:46:33Z</time>
      </trkpt>
      <trkpt lat="45.74763" lon="4.56488">
        <ele>366.6</ele>
        <time>2022-06-26T12:46:34Z</time>
      </trkpt>
      <trkpt lat="45.74762" lon="4.56492">
        <ele>367</ele>
        <time>2022-06-26T12:46:35Z</time>
      </trkpt>
      <trkpt lat="45.74761" lon="4.56496">
        <ele>367</ele>
        <time>2022-06-26T12:46:36Z</time>
      </trkpt>
      <trkpt lat="45.74759" lon="4.56501">
        <ele>367.2</ele>
        <time>2022-06-26T12:46:37Z</time>
      </trkpt>
      <trkpt lat="45.74757" lon="4.56505">
        <ele>367.2</ele>
        <time>2022-06-26T12:46:38Z</time>
      </trkpt>
      <trkpt lat="45.74756" lon="4.5651">
        <ele>367.6</ele>
        <time>2022-06-26T12:46:39Z</time>
      </trkpt>
      <trkpt lat="45.74754" lon="4.56515">
        <ele>367.6</ele>
        <time>2022-06-26T12:46:40Z</time>
      </trkpt>
      <trkpt lat="45.74752" lon="4.56519">
        <ele>367.8</ele>
        <time>2022-06-26T12:46:41Z</time>
      </trkpt>
      <trkpt lat="45.74751" lon="4.56524">
        <ele>367.8</ele>
        <time>2022-06-26T12:46:42Z</time>
      </trkpt>
      <trkpt lat="45.74749" lon="4.56528">
        <ele>368.2</ele>
        <time>2022-06-26T12:46:43Z</time>
      </trkpt>
      <trkpt lat="45.74747" lon="4.56532">
        <ele>368.2</ele>
        <time>2022-06-26T12:46:44Z</time>
      </trkpt>
      <trkpt lat="45.74746" lon="4.56536">
        <ele>368.4</ele>
        <time>2022-06-26T12:46:45Z</time>
      </trkpt>
      <trkpt lat="45.74744" lon="4.5654">
        <ele>368.4</ele>
        <time>2022-06-26T12:46:46Z</time>
      </trkpt>
      <trkpt lat="45.74742" lon="4.56544">
        <ele>368.8</ele>
        <time>2022-06-26T12:46:47Z</time>
      </trkpt>
      <trkpt lat="45.74738" lon="4.56553">
        <ele>369</ele>
        <time>2022-06-26T12:46:48Z</time>
      </trkpt>
      <trkpt lat="45.74737" lon="4.56557">
        <ele>369.2</ele>
        <time>2022-06-26T12:46:49Z</time>
      </trkpt>
      <trkpt lat="45.74735" lon="4.56561">
        <ele>369.2</ele>
        <time>2022-06-26T12:46:50Z</time>
      </trkpt>
      <trkpt lat="45.74734" lon="4.56566">
        <ele>369.4</ele>
        <time>2022-06-26T12:46:51Z</time>
      </trkpt>
      <trkpt lat="45.74732" lon="4.5657">
        <ele>369.6</ele>
        <time>2022-06-26T12:46:52Z</time>
      </trkpt>
      <trkpt lat="45.74731" lon="4.56575">
        <ele>369.6</ele>
        <time>2022-06-26T12:46:53Z</time>
      </trkpt>
      <trkpt lat="45.7473" lon="4.56579">
        <ele>370</ele>
        <time>2022-06-26T12:46:54Z</time>
      </trkpt>
      <trkpt lat="45.74728" lon="4.56584">
        <ele>370</ele>
        <time>2022-06-26T12:46:55Z</time>
      </trkpt>
      <trkpt lat="45.74727" lon="4.56588">
        <ele>370.2</ele>
        <time>2022-06-26T12:46:56Z</time>
      </trkpt>
      <trkpt lat="45.74725" lon="4.56592">
        <ele>370.2</ele>
        <time>2022-06-26T12:46:57Z</time>
      </trkpt>
      <trkpt lat="45.74723" lon="4.56597">
        <ele>370.4</ele>
        <time>2022-06-26T12:46:58Z</time>
      </trkpt>
      <trkpt lat="45.74721" lon="4.56601">
        <ele>370.4</ele>
        <time>2022-06-26T12:46:59Z</time>
      </trkpt>
      <trkpt lat="45.7472" lon="4.56605">
        <ele>370.8</ele>
        <time>2022-06-26T12:47:00Z</time>
      </trkpt>
      <trkpt lat="45.74718" lon="4.56609">
        <ele>370.8</ele>
        <time>2022-06-26T12:47:01Z</time>
      </trkpt>
      <trkpt lat="45.74716" lon="4.56614">
        <ele>371</ele>
        <time>2022-06-26T12:47:02Z</time>
      </trkpt>
      <trkpt lat="45.74714" lon="4.56617">
        <ele>371</ele>
        <time>2022-06-26T12:47:03Z</time>
      </trkpt>
      <trkpt lat="45.74712" lon="4.56621">
        <ele>371.2</ele>
        <time>2022-06-26T12:47:04Z</time>
      </trkpt>
      <trkpt lat="45.7471" lon="4.56625">
        <ele>371.2</ele>
        <time>2022-06-26T12:47:05Z</time>
      </trkpt>
      <trkpt lat="45.74708" lon="4.56628">
        <ele>371.4</ele>
        <time>2022-06-26T12:47:06Z</time>
      </trkpt>
      <trkpt lat="45.74706" lon="4.56632">
        <ele>371.4</ele>
        <time>2022-06-26T12:47:07Z</time>
      </trkpt>
      <trkpt lat="45.74703" lon="4.56635">
        <ele>371.6</ele>
        <time>2022-06-26T12:47:08Z</time>
      </trkpt>
      <trkpt lat="45.74701" lon="4.56638">
        <ele>371.6</ele>
        <time>2022-06-26T12:47:09Z</time>
      </trkpt>
      <trkpt lat="45.74698" lon="4.56642">
        <ele>372</ele>
        <time>2022-06-26T12:47:10Z</time>
      </trkpt>
      <trkpt lat="45.74696" lon="4.56645">
        <ele>372</ele>
        <time>2022-06-26T12:47:11Z</time>
      </trkpt>
      <trkpt lat="45.74694" lon="4.56649">
        <ele>372.2</ele>
        <time>2022-06-26T12:47:12Z</time>
      </trkpt>
      <trkpt lat="45.74691" lon="4.56652">
        <ele>372.2</ele>
        <time>2022-06-26T12:47:13Z</time>
      </trkpt>
      <trkpt lat="45.74689" lon="4.56655">
        <ele>372.4</ele>
        <time>2022-06-26T12:47:14Z</time>
      </trkpt>
      <trkpt lat="45.74687" lon="4.56658">
        <ele>372.4</ele>
        <time>2022-06-26T12:47:15Z</time>
      </trkpt>
      <trkpt lat="45.74684" lon="4.56661">
        <ele>372.6</ele>
        <time>2022-06-26T12:47:16Z</time>
      </trkpt>
      <trkpt lat="45.74682" lon="4.56665">
        <ele>372.6</ele>
        <time>2022-06-26T12:47:17Z</time>
      </trkpt>
      <trkpt lat="45.74679" lon="4.56668">
        <ele>372.8</ele>
        <time>2022-06-26T12:47:18Z</time>
      </trkpt>
      <trkpt lat="45.74677" lon="4.56671">
        <ele>372.8</ele>
        <time>2022-06-26T12:47:19Z</time>
      </trkpt>
      <trkpt lat="45.74675" lon="4.56674">
        <ele>373.2</ele>
        <time>2022-06-26T12:47:20Z</time>
      </trkpt>
      <trkpt lat="45.74673" lon="4.56677">
        <ele>373.2</ele>
        <time>2022-06-26T12:47:21Z</time>
      </trkpt>
      <trkpt lat="45.74671" lon="4.5668">
        <ele>373.4</ele>
        <time>2022-06-26T12:47:22Z</time>
      </trkpt>
      <trkpt lat="45.74668" lon="4.56683">
        <ele>373.4</ele>
        <time>2022-06-26T12:47:23Z</time>
      </trkpt>
      <trkpt lat="45.74666" lon="4.56686">
        <ele>373.8</ele>
        <time>2022-06-26T12:47:24Z</time>
      </trkpt>
      <trkpt lat="45.74664" lon="4.56688">
        <ele>373.8</ele>
        <time>2022-06-26T12:47:25Z</time>
      </trkpt>
      <trkpt lat="45.74662" lon="4.56691">
        <ele>374.2</ele>
        <time>2022-06-26T12:47:26Z</time>
      </trkpt>
      <trkpt lat="45.74659" lon="4.56694">
        <ele>374.2</ele>
        <time>2022-06-26T12:47:27Z</time>
      </trkpt>
      <trkpt lat="45.74657" lon="4.56696">
        <ele>374.6</ele>
        <time>2022-06-26T12:47:28Z</time>
      </trkpt>
      <trkpt lat="45.74655" lon="4.56699">
        <ele>374.8</ele>
        <time>2022-06-26T12:47:29Z</time>
      </trkpt>
      <trkpt lat="45.74653" lon="4.56702">
        <ele>374.8</ele>
        <time>2022-06-26T12:47:30Z</time>
      </trkpt>
      <trkpt lat="45.74651" lon="4.56705">
        <ele>375.2</ele>
        <time>2022-06-26T12:47:31Z</time>
      </trkpt>
      <trkpt lat="45.74649" lon="4.56707">
        <ele>375.2</ele>
        <time>2022-06-26T12:47:32Z</time>
      </trkpt>
      <trkpt lat="45.74647" lon="4.5671">
        <ele>375.6</ele>
        <time>2022-06-26T12:47:33Z</time>
      </trkpt>
      <trkpt lat="45.74645" lon="4.56712">
        <ele>375.6</ele>
        <time>2022-06-26T12:47:34Z</time>
      </trkpt>
      <trkpt lat="45.74643" lon="4.56715">
        <ele>376</ele>
        <time>2022-06-26T12:47:35Z</time>
      </trkpt>
      <trkpt lat="45.7464" lon="4.56717">
        <ele>376</ele>
        <time>2022-06-26T12:47:36Z</time>
      </trkpt>
      <trkpt lat="45.74638" lon="4.5672">
        <ele>376.2</ele>
        <time>2022-06-26T12:47:37Z</time>
      </trkpt>
      <trkpt lat="45.74636" lon="4.56722">
        <ele>376.2</ele>
        <time>2022-06-26T12:47:38Z</time>
      </trkpt>
      <trkpt lat="45.74634" lon="4.56724">
        <ele>376.6</ele>
        <time>2022-06-26T12:47:39Z</time>
      </trkpt>
      <trkpt lat="45.74632" lon="4.56727">
        <ele>376.6</ele>
        <time>2022-06-26T12:47:40Z</time>
      </trkpt>
      <trkpt lat="45.7463" lon="4.5673">
        <ele>377</ele>
        <time>2022-06-26T12:47:41Z</time>
      </trkpt>
      <trkpt lat="45.74628" lon="4.56732">
        <ele>377</ele>
        <time>2022-06-26T12:47:42Z</time>
      </trkpt>
      <trkpt lat="45.74626" lon="4.56734">
        <ele>377.2</ele>
        <time>2022-06-26T12:47:43Z</time>
      </trkpt>
      <trkpt lat="45.74624" lon="4.56737">
        <ele>377.4</ele>
        <time>2022-06-26T12:47:44Z</time>
      </trkpt>
      <trkpt lat="45.74622" lon="4.56739">
        <ele>377.6</ele>
        <time>2022-06-26T12:47:45Z</time>
      </trkpt>
      <trkpt lat="45.7462" lon="4.56741">
        <ele>377.6</ele>
        <time>2022-06-26T12:47:46Z</time>
      </trkpt>
      <trkpt lat="45.74618" lon="4.56744">
        <ele>378</ele>
        <time>2022-06-26T12:47:47Z</time>
      </trkpt>
      <trkpt lat="45.74616" lon="4.56746">
        <ele>378</ele>
        <time>2022-06-26T12:47:48Z</time>
      </trkpt>
      <trkpt lat="45.74614" lon="4.56748">
        <ele>378.4</ele>
        <time>2022-06-26T12:47:49Z</time>
      </trkpt>
      <trkpt lat="45.74612" lon="4.5675">
        <ele>378.4</ele>
        <time>2022-06-26T12:47:50Z</time>
      </trkpt>
      <trkpt lat="45.74611" lon="4.56753">
        <ele>378.6</ele>
        <time>2022-06-26T12:47:51Z</time>
      </trkpt>
      <trkpt lat="45.74609" lon="4.56755">
        <ele>378.6</ele>
        <time>2022-06-26T12:47:52Z</time>
      </trkpt>
      <trkpt lat="45.74607" lon="4.56758">
        <ele>379</ele>
        <time>2022-06-26T12:47:53Z</time>
      </trkpt>
      <trkpt lat="45.74605" lon="4.5676">
        <ele>379</ele>
        <time>2022-06-26T12:47:54Z</time>
      </trkpt>
      <trkpt lat="45.74603" lon="4.56762">
        <ele>379.4</ele>
        <time>2022-06-26T12:47:55Z</time>
      </trkpt>
      <trkpt lat="45.74601" lon="4.56765">
        <ele>379.6</ele>
        <time>2022-06-26T12:47:56Z</time>
      </trkpt>
      <trkpt lat="45.74599" lon="4.56767">
        <ele>379.6</ele>
        <time>2022-06-26T12:47:57Z</time>
      </trkpt>
      <trkpt lat="45.74597" lon="4.56769">
        <ele>380</ele>
        <time>2022-06-26T12:47:58Z</time>
      </trkpt>
      <trkpt lat="45.74595" lon="4.56771">
        <ele>380</ele>
        <time>2022-06-26T12:47:59Z</time>
      </trkpt>
      <trkpt lat="45.74593" lon="4.56774">
        <ele>380</ele>
        <time>2022-06-26T12:48:00Z</time>
      </trkpt>
      <trkpt lat="45.74591" lon="4.56776">
        <ele>380.4</ele>
        <time>2022-06-26T12:48:01Z</time>
      </trkpt>
      <trkpt lat="45.74589" lon="4.56778">
        <ele>380.4</ele>
        <time>2022-06-26T12:48:02Z</time>
      </trkpt>
      <trkpt lat="45.74587" lon="4.5678">
        <ele>380.6</ele>
        <time>2022-06-26T12:48:03Z</time>
      </trkpt>
      <trkpt lat="45.74585" lon="4.56782">
        <ele>380.8</ele>
        <time>2022-06-26T12:48:04Z</time>
      </trkpt>
      <trkpt lat="45.74583" lon="4.56785">
        <ele>380.8</ele>
        <time>2022-06-26T12:48:05Z</time>
      </trkpt>
      <trkpt lat="45.74581" lon="4.56787">
        <ele>381.2</ele>
        <time>2022-06-26T12:48:06Z</time>
      </trkpt>
      <trkpt lat="45.7458" lon="4.56789">
        <ele>381.2</ele>
        <time>2022-06-26T12:48:07Z</time>
      </trkpt>
      <trkpt lat="45.74578" lon="4.56791">
        <ele>381.4</ele>
        <time>2022-06-26T12:48:08Z</time>
      </trkpt>
      <trkpt lat="45.74576" lon="4.56793">
        <ele>381.4</ele>
        <time>2022-06-26T12:48:09Z</time>
      </trkpt>
      <trkpt lat="45.74574" lon="4.56795">
        <ele>381.8</ele>
        <time>2022-06-26T12:48:10Z</time>
      </trkpt>
      <trkpt lat="45.74571" lon="4.56797">
        <ele>381.8</ele>
        <time>2022-06-26T12:48:11Z</time>
      </trkpt>
      <trkpt lat="45.74569" lon="4.56799">
        <ele>382</ele>
        <time>2022-06-26T12:48:12Z</time>
      </trkpt>
      <trkpt lat="45.74567" lon="4.568">
        <ele>382</ele>
        <time>2022-06-26T12:48:13Z</time>
      </trkpt>
      <trkpt lat="45.74564" lon="4.56802">
        <ele>382.2</ele>
        <time>2022-06-26T12:48:14Z</time>
      </trkpt>
      <trkpt lat="45.74562" lon="4.56803">
        <ele>382.2</ele>
        <time>2022-06-26T12:48:15Z</time>
      </trkpt>
      <trkpt lat="45.7456" lon="4.56805">
        <ele>382.2</ele>
        <time>2022-06-26T12:48:16Z</time>
      </trkpt>
      <trkpt lat="45.74558" lon="4.56807">
        <ele>382.4</ele>
        <time>2022-06-26T12:48:17Z</time>
      </trkpt>
      <trkpt lat="45.74555" lon="4.56808">
        <ele>382.4</ele>
        <time>2022-06-26T12:48:18Z</time>
      </trkpt>
      <trkpt lat="45.74553" lon="4.56809">
        <ele>382.8</ele>
        <time>2022-06-26T12:48:19Z</time>
      </trkpt>
      <trkpt lat="45.74551" lon="4.5681">
        <ele>382.8</ele>
        <time>2022-06-26T12:48:20Z</time>
      </trkpt>
      <trkpt lat="45.74548" lon="4.56811">
        <ele>383</ele>
        <time>2022-06-26T12:48:21Z</time>
      </trkpt>
      <trkpt lat="45.74546" lon="4.56811">
        <ele>383</ele>
        <time>2022-06-26T12:48:22Z</time>
      </trkpt>
      <trkpt lat="45.74544" lon="4.56812">
        <ele>383.4</ele>
        <time>2022-06-26T12:48:23Z</time>
      </trkpt>
      <trkpt lat="45.74542" lon="4.56813">
        <ele>383.4</ele>
        <time>2022-06-26T12:48:24Z</time>
      </trkpt>
      <trkpt lat="45.74539" lon="4.56814">
        <ele>383.6</ele>
        <time>2022-06-26T12:48:25Z</time>
      </trkpt>
      <trkpt lat="45.74537" lon="4.56814">
        <ele>383.8</ele>
        <time>2022-06-26T12:48:26Z</time>
      </trkpt>
      <trkpt lat="45.74535" lon="4.56815">
        <ele>383.8</ele>
        <time>2022-06-26T12:48:27Z</time>
      </trkpt>
      <trkpt lat="45.74533" lon="4.56815">
        <ele>384.2</ele>
        <time>2022-06-26T12:48:28Z</time>
      </trkpt>
      <trkpt lat="45.74531" lon="4.56815">
        <ele>384.4</ele>
        <time>2022-06-26T12:48:29Z</time>
      </trkpt>
      <trkpt lat="45.7453" lon="4.56815">
        <ele>384.6</ele>
        <time>2022-06-26T12:48:30Z</time>
      </trkpt>
      <trkpt lat="45.74528" lon="4.56816">
        <ele>384.8</ele>
        <time>2022-06-26T12:48:31Z</time>
      </trkpt>
      <trkpt lat="45.74527" lon="4.56817">
        <ele>385.2</ele>
        <time>2022-06-26T12:48:32Z</time>
      </trkpt>
      <trkpt lat="45.74525" lon="4.56817">
        <ele>385.2</ele>
        <time>2022-06-26T12:48:33Z</time>
      </trkpt>
      <trkpt lat="45.74524" lon="4.56818">
        <ele>385.6</ele>
        <time>2022-06-26T12:48:34Z</time>
      </trkpt>
      <trkpt lat="45.74522" lon="4.56818">
        <ele>385.8</ele>
        <time>2022-06-26T12:48:35Z</time>
      </trkpt>
      <trkpt lat="45.7452" lon="4.56819">
        <ele>385.8</ele>
        <time>2022-06-26T12:48:36Z</time>
      </trkpt>
      <trkpt lat="45.74518" lon="4.56819">
        <ele>386</ele>
        <time>2022-06-26T12:48:37Z</time>
      </trkpt>
      <trkpt lat="45.74516" lon="4.5682">
        <ele>386</ele>
        <time>2022-06-26T12:48:38Z</time>
      </trkpt>
      <trkpt lat="45.74515" lon="4.56821">
        <ele>386</ele>
        <time>2022-06-26T12:48:39Z</time>
      </trkpt>
      <trkpt lat="45.74513" lon="4.56823">
        <ele>386.4</ele>
        <time>2022-06-26T12:48:40Z</time>
      </trkpt>
      <trkpt lat="45.74511" lon="4.56825">
        <ele>386.4</ele>
        <time>2022-06-26T12:48:41Z</time>
      </trkpt>
      <trkpt lat="45.74508" lon="4.56827">
        <ele>386.6</ele>
        <time>2022-06-26T12:48:42Z</time>
      </trkpt>
      <trkpt lat="45.74505" lon="4.5683">
        <ele>386.6</ele>
        <time>2022-06-26T12:48:43Z</time>
      </trkpt>
      <trkpt lat="45.74502" lon="4.56833">
        <ele>386.6</ele>
        <time>2022-06-26T12:48:44Z</time>
      </trkpt>
      <trkpt lat="45.74499" lon="4.56836">
        <ele>386.6</ele>
        <time>2022-06-26T12:48:45Z</time>
      </trkpt>
      <trkpt lat="45.74496" lon="4.56839">
        <ele>386.6</ele>
        <time>2022-06-26T12:48:46Z</time>
      </trkpt>
      <trkpt lat="45.74493" lon="4.56842">
        <ele>386.6</ele>
        <time>2022-06-26T12:48:47Z</time>
      </trkpt>
      <trkpt lat="45.7449" lon="4.56845">
        <ele>386.6</ele>
        <time>2022-06-26T12:48:48Z</time>
      </trkpt>
      <trkpt lat="45.74487" lon="4.56847">
        <ele>386.6</ele>
        <time>2022-06-26T12:48:49Z</time>
      </trkpt>
      <trkpt lat="45.74485" lon="4.5685">
        <ele>386.6</ele>
        <time>2022-06-26T12:48:50Z</time>
      </trkpt>
      <trkpt lat="45.74483" lon="4.56853">
        <ele>386.6</ele>
        <time>2022-06-26T12:48:51Z</time>
      </trkpt>
      <trkpt lat="45.7448" lon="4.56855">
        <ele>386.6</ele>
        <time>2022-06-26T12:48:52Z</time>
      </trkpt>
      <trkpt lat="45.74477" lon="4.56858">
        <ele>387</ele>
        <time>2022-06-26T12:48:53Z</time>
      </trkpt>
      <trkpt lat="45.74475" lon="4.5686">
        <ele>387</ele>
        <time>2022-06-26T12:48:54Z</time>
      </trkpt>
      <trkpt lat="45.74472" lon="4.56862">
        <ele>387</ele>
        <time>2022-06-26T12:48:55Z</time>
      </trkpt>
      <trkpt lat="45.7447" lon="4.56865">
        <ele>387.2</ele>
        <time>2022-06-26T12:48:56Z</time>
      </trkpt>
      <trkpt lat="45.74467" lon="4.56867">
        <ele>387.2</ele>
        <time>2022-06-26T12:48:57Z</time>
      </trkpt>
      <trkpt lat="45.74465" lon="4.5687">
        <ele>387.2</ele>
        <time>2022-06-26T12:48:58Z</time>
      </trkpt>
      <trkpt lat="45.74462" lon="4.56873">
        <ele>387.4</ele>
        <time>2022-06-26T12:48:59Z</time>
      </trkpt>
      <trkpt lat="45.74459" lon="4.56875">
        <ele>387.4</ele>
        <time>2022-06-26T12:49:00Z</time>
      </trkpt>
      <trkpt lat="45.74456" lon="4.56878">
        <ele>387.4</ele>
        <time>2022-06-26T12:49:01Z</time>
      </trkpt>
      <trkpt lat="45.74454" lon="4.56881">
        <ele>387.6</ele>
        <time>2022-06-26T12:49:02Z</time>
      </trkpt>
      <trkpt lat="45.74451" lon="4.56884">
        <ele>387.6</ele>
        <time>2022-06-26T12:49:03Z</time>
      </trkpt>
      <trkpt lat="45.74448" lon="4.56886">
        <ele>387.6</ele>
        <time>2022-06-26T12:49:04Z</time>
      </trkpt>
      <trkpt lat="45.74445" lon="4.56888">
        <ele>387.6</ele>
        <time>2022-06-26T12:49:05Z</time>
      </trkpt>
      <trkpt lat="45.74443" lon="4.5689">
        <ele>388</ele>
        <time>2022-06-26T12:49:06Z</time>
      </trkpt>
      <trkpt lat="45.7444" lon="4.56892">
        <ele>388</ele>
        <time>2022-06-26T12:49:07Z</time>
      </trkpt>
      <trkpt lat="45.74437" lon="4.56894">
        <ele>388</ele>
        <time>2022-06-26T12:49:08Z</time>
      </trkpt>
      <trkpt lat="45.74435" lon="4.56896">
        <ele>388.2</ele>
        <time>2022-06-26T12:49:09Z</time>
      </trkpt>
      <trkpt lat="45.74432" lon="4.56897">
        <ele>388.2</ele>
        <time>2022-06-26T12:49:10Z</time>
      </trkpt>
      <trkpt lat="45.7443" lon="4.56898">
        <ele>388.6</ele>
        <time>2022-06-26T12:49:11Z</time>
      </trkpt>
      <trkpt lat="45.74427" lon="4.569">
        <ele>388.6</ele>
        <time>2022-06-26T12:49:12Z</time>
      </trkpt>
      <trkpt lat="45.74424" lon="4.56902">
        <ele>388.8</ele>
        <time>2022-06-26T12:49:13Z</time>
      </trkpt>
      <trkpt lat="45.74422" lon="4.56905">
        <ele>388.8</ele>
        <time>2022-06-26T12:49:14Z</time>
      </trkpt>
      <trkpt lat="45.74419" lon="4.56906">
        <ele>389.2</ele>
        <time>2022-06-26T12:49:15Z</time>
      </trkpt>
      <trkpt lat="45.74417" lon="4.56909">
        <ele>389.2</ele>
        <time>2022-06-26T12:49:16Z</time>
      </trkpt>
      <trkpt lat="45.74415" lon="4.56911">
        <ele>389.4</ele>
        <time>2022-06-26T12:49:17Z</time>
      </trkpt>
      <trkpt lat="45.74413" lon="4.56914">
        <ele>389.6</ele>
        <time>2022-06-26T12:49:18Z</time>
      </trkpt>
      <trkpt lat="45.7441" lon="4.56915">
        <ele>390</ele>
        <time>2022-06-26T12:49:19Z</time>
      </trkpt>
      <trkpt lat="45.74408" lon="4.56917">
        <ele>390.2</ele>
        <time>2022-06-26T12:49:20Z</time>
      </trkpt>
      <trkpt lat="45.74406" lon="4.56919">
        <ele>390.4</ele>
        <time>2022-06-26T12:49:21Z</time>
      </trkpt>
      <trkpt lat="45.74403" lon="4.56921">
        <ele>390.6</ele>
        <time>2022-06-26T12:49:22Z</time>
      </trkpt>
      <trkpt lat="45.74401" lon="4.56923">
        <ele>390.8</ele>
        <time>2022-06-26T12:49:23Z</time>
      </trkpt>
      <trkpt lat="45.74398" lon="4.56924">
        <ele>391.2</ele>
        <time>2022-06-26T12:49:24Z</time>
      </trkpt>
      <trkpt lat="45.74396" lon="4.56926">
        <ele>391.2</ele>
        <time>2022-06-26T12:49:25Z</time>
      </trkpt>
      <trkpt lat="45.74393" lon="4.56927">
        <ele>391.6</ele>
        <time>2022-06-26T12:49:26Z</time>
      </trkpt>
      <trkpt lat="45.7439" lon="4.56928">
        <ele>391.8</ele>
        <time>2022-06-26T12:49:27Z</time>
      </trkpt>
      <trkpt lat="45.74388" lon="4.5693">
        <ele>391.8</ele>
        <time>2022-06-26T12:49:28Z</time>
      </trkpt>
      <trkpt lat="45.74385" lon="4.56931">
        <ele>392</ele>
        <time>2022-06-26T12:49:29Z</time>
      </trkpt>
      <trkpt lat="45.74383" lon="4.56933">
        <ele>392</ele>
        <time>2022-06-26T12:49:30Z</time>
      </trkpt>
      <trkpt lat="45.74381" lon="4.56934">
        <ele>392.4</ele>
        <time>2022-06-26T12:49:31Z</time>
      </trkpt>
      <trkpt lat="45.74379" lon="4.56935">
        <ele>392.4</ele>
        <time>2022-06-26T12:49:32Z</time>
      </trkpt>
      <trkpt lat="45.74376" lon="4.56936">
        <ele>392.6</ele>
        <time>2022-06-26T12:49:33Z</time>
      </trkpt>
      <trkpt lat="45.74374" lon="4.56938">
        <ele>392.6</ele>
        <time>2022-06-26T12:49:34Z</time>
      </trkpt>
      <trkpt lat="45.74372" lon="4.5694">
        <ele>393</ele>
        <time>2022-06-26T12:49:35Z</time>
      </trkpt>
      <trkpt lat="45.7437" lon="4.56941">
        <ele>393</ele>
        <time>2022-06-26T12:49:36Z</time>
      </trkpt>
      <trkpt lat="45.74368" lon="4.56941">
        <ele>393.4</ele>
        <time>2022-06-26T12:49:37Z</time>
      </trkpt>
      <trkpt lat="45.74365" lon="4.56942">
        <ele>393.6</ele>
        <time>2022-06-26T12:49:38Z</time>
      </trkpt>
      <trkpt lat="45.74363" lon="4.56943">
        <ele>393.8</ele>
        <time>2022-06-26T12:49:39Z</time>
      </trkpt>
      <trkpt lat="45.74362" lon="4.56944">
        <ele>394</ele>
        <time>2022-06-26T12:49:40Z</time>
      </trkpt>
      <trkpt lat="45.7436" lon="4.56946">
        <ele>394</ele>
        <time>2022-06-26T12:49:41Z</time>
      </trkpt>
      <trkpt lat="45.74358" lon="4.56947">
        <ele>394.2</ele>
        <time>2022-06-26T12:49:42Z</time>
      </trkpt>
      <trkpt lat="45.74356" lon="4.56948">
        <ele>394.2</ele>
        <time>2022-06-26T12:49:43Z</time>
      </trkpt>
      <trkpt lat="45.74354" lon="4.56949">
        <ele>394.4</ele>
        <time>2022-06-26T12:49:44Z</time>
      </trkpt>
      <trkpt lat="45.74353" lon="4.56951">
        <ele>394.4</ele>
        <time>2022-06-26T12:49:45Z</time>
      </trkpt>
      <trkpt lat="45.74351" lon="4.56952">
        <ele>394.8</ele>
        <time>2022-06-26T12:49:47Z</time>
      </trkpt>
      <trkpt lat="45.74349" lon="4.56954">
        <ele>395.2</ele>
        <time>2022-06-26T12:49:48Z</time>
      </trkpt>
      <trkpt lat="45.74347" lon="4.56955">
        <ele>395.2</ele>
        <time>2022-06-26T12:49:49Z</time>
      </trkpt>
      <trkpt lat="45.74345" lon="4.56956">
        <ele>395.6</ele>
        <time>2022-06-26T12:49:50Z</time>
      </trkpt>
      <trkpt lat="45.74343" lon="4.56958">
        <ele>395.8</ele>
        <time>2022-06-26T12:49:51Z</time>
      </trkpt>
      <trkpt lat="45.74341" lon="4.56959">
        <ele>395.8</ele>
        <time>2022-06-26T12:49:52Z</time>
      </trkpt>
      <trkpt lat="45.74339" lon="4.5696">
        <ele>396.2</ele>
        <time>2022-06-26T12:49:53Z</time>
      </trkpt>
      <trkpt lat="45.74337" lon="4.56961">
        <ele>396.2</ele>
        <time>2022-06-26T12:49:54Z</time>
      </trkpt>
      <trkpt lat="45.74335" lon="4.56962">
        <ele>396.4</ele>
        <time>2022-06-26T12:49:55Z</time>
      </trkpt>
      <trkpt lat="45.74332" lon="4.56964">
        <ele>396.4</ele>
        <time>2022-06-26T12:49:56Z</time>
      </trkpt>
      <trkpt lat="45.7433" lon="4.56965">
        <ele>396.8</ele>
        <time>2022-06-26T12:49:57Z</time>
      </trkpt>
      <trkpt lat="45.74329" lon="4.56967">
        <ele>396.8</ele>
        <time>2022-06-26T12:49:58Z</time>
      </trkpt>
      <trkpt lat="45.74326" lon="4.56968">
        <ele>397</ele>
        <time>2022-06-26T12:49:59Z</time>
      </trkpt>
      <trkpt lat="45.74324" lon="4.56969">
        <ele>397</ele>
        <time>2022-06-26T12:50:00Z</time>
      </trkpt>
      <trkpt lat="45.74322" lon="4.56971">
        <ele>397.2</ele>
        <time>2022-06-26T12:50:01Z</time>
      </trkpt>
      <trkpt lat="45.74321" lon="4.56974">
        <ele>397.2</ele>
        <time>2022-06-26T12:50:02Z</time>
      </trkpt>
      <trkpt lat="45.74321" lon="4.56977">
        <ele>397.2</ele>
        <time>2022-06-26T12:50:03Z</time>
      </trkpt>
      <trkpt lat="45.74322" lon="4.56979">
        <ele>397.2</ele>
        <time>2022-06-26T12:50:04Z</time>
      </trkpt>
      <trkpt lat="45.74323" lon="4.56979">
        <ele>397.2</ele>
        <time>2022-06-26T12:50:05Z</time>
      </trkpt>
      <trkpt lat="45.74321" lon="4.56965">
        <ele>397.6</ele>
        <time>2022-06-26T12:57:58Z</time>
      </trkpt>
      <trkpt lat="45.74319" lon="4.56966">
        <ele>397.6</ele>
        <time>2022-06-26T12:57:59Z</time>
      </trkpt>
      <trkpt lat="45.74318" lon="4.56967">
        <ele>397.6</ele>
        <time>2022-06-26T12:58:00Z</time>
      </trkpt>
      <trkpt lat="45.74316" lon="4.56969">
        <ele>397.6</ele>
        <time>2022-06-26T12:58:01Z</time>
      </trkpt>
      <trkpt lat="45.74314" lon="4.56971">
        <ele>397.6</ele>
        <time>2022-06-26T12:58:02Z</time>
      </trkpt>
      <trkpt lat="45.74312" lon="4.56973">
        <ele>397.6</ele>
        <time>2022-06-26T12:58:03Z</time>
      </trkpt>
      <trkpt lat="45.74309" lon="4.56976">
        <ele>397.4</ele>
        <time>2022-06-26T12:58:04Z</time>
      </trkpt>
      <trkpt lat="45.74307" lon="4.56978">
        <ele>397.4</ele>
        <time>2022-06-26T12:58:05Z</time>
      </trkpt>
      <trkpt lat="45.74305" lon="4.56981">
        <ele>397.4</ele>
        <time>2022-06-26T12:58:06Z</time>
      </trkpt>
      <trkpt lat="45.74302" lon="4.56983">
        <ele>397.4</ele>
        <time>2022-06-26T12:58:07Z</time>
      </trkpt>
      <trkpt lat="45.743" lon="4.56986">
        <ele>397.4</ele>
        <time>2022-06-26T12:58:08Z</time>
      </trkpt>
      <trkpt lat="45.74297" lon="4.56989">
        <ele>397.4</ele>
        <time>2022-06-26T12:58:09Z</time>
      </trkpt>
      <trkpt lat="45.74295" lon="4.56992">
        <ele>397.2</ele>
        <time>2022-06-26T12:58:10Z</time>
      </trkpt>
      <trkpt lat="45.74293" lon="4.56994">
        <ele>397.2</ele>
        <time>2022-06-26T12:58:11Z</time>
      </trkpt>
      <trkpt lat="45.74291" lon="4.56996">
        <ele>397.2</ele>
        <time>2022-06-26T12:58:12Z</time>
      </trkpt>
      <trkpt lat="45.74288" lon="4.56998">
        <ele>397.2</ele>
        <time>2022-06-26T12:58:13Z</time>
      </trkpt>
      <trkpt lat="45.74286" lon="4.57">
        <ele>397.2</ele>
        <time>2022-06-26T12:58:14Z</time>
      </trkpt>
      <trkpt lat="45.74284" lon="4.57001">
        <ele>397.2</ele>
        <time>2022-06-26T12:58:15Z</time>
      </trkpt>
      <trkpt lat="45.74282" lon="4.57002">
        <ele>397.2</ele>
        <time>2022-06-26T12:58:16Z</time>
      </trkpt>
      <trkpt lat="45.7428" lon="4.57003">
        <ele>397.2</ele>
        <time>2022-06-26T12:58:17Z</time>
      </trkpt>
      <trkpt lat="45.74277" lon="4.57004">
        <ele>397.2</ele>
        <time>2022-06-26T12:58:18Z</time>
      </trkpt>
      <trkpt lat="45.74275" lon="4.57005">
        <ele>397.2</ele>
        <time>2022-06-26T12:58:19Z</time>
      </trkpt>
      <trkpt lat="45.74273" lon="4.57006">
        <ele>397.4</ele>
        <time>2022-06-26T12:58:20Z</time>
      </trkpt>
      <trkpt lat="45.74271" lon="4.57007">
        <ele>397.4</ele>
        <time>2022-06-26T12:58:21Z</time>
      </trkpt>
      <trkpt lat="45.74269" lon="4.57008">
        <ele>397.6</ele>
        <time>2022-06-26T12:58:22Z</time>
      </trkpt>
      <trkpt lat="45.74267" lon="4.57008">
        <ele>397.6</ele>
        <time>2022-06-26T12:58:23Z</time>
      </trkpt>
      <trkpt lat="45.74265" lon="4.57009">
        <ele>398</ele>
        <time>2022-06-26T12:58:24Z</time>
      </trkpt>
      <trkpt lat="45.74263" lon="4.57011">
        <ele>398</ele>
        <time>2022-06-26T12:58:25Z</time>
      </trkpt>
      <trkpt lat="45.74261" lon="4.57012">
        <ele>398.2</ele>
        <time>2022-06-26T12:58:26Z</time>
      </trkpt>
      <trkpt lat="45.74258" lon="4.57013">
        <ele>398.2</ele>
        <time>2022-06-26T12:58:27Z</time>
      </trkpt>
      <trkpt lat="45.74256" lon="4.57014">
        <ele>398.6</ele>
        <time>2022-06-26T12:58:28Z</time>
      </trkpt>
      <trkpt lat="45.74253" lon="4.57014">
        <ele>398.6</ele>
        <time>2022-06-26T12:58:29Z</time>
      </trkpt>
      <trkpt lat="45.7425" lon="4.57015">
        <ele>398.8</ele>
        <time>2022-06-26T12:58:30Z</time>
      </trkpt>
      <trkpt lat="45.74247" lon="4.57016">
        <ele>398.8</ele>
        <time>2022-06-26T12:58:31Z</time>
      </trkpt>
      <trkpt lat="45.74245" lon="4.57016">
        <ele>399.2</ele>
        <time>2022-06-26T12:58:32Z</time>
      </trkpt>
      <trkpt lat="45.74242" lon="4.57017">
        <ele>399.2</ele>
        <time>2022-06-26T12:58:33Z</time>
      </trkpt>
      <trkpt lat="45.7424" lon="4.57018">
        <ele>399.4</ele>
        <time>2022-06-26T12:58:34Z</time>
      </trkpt>
      <trkpt lat="45.74237" lon="4.5702">
        <ele>399.4</ele>
        <time>2022-06-26T12:58:35Z</time>
      </trkpt>
      <trkpt lat="45.74235" lon="4.57021">
        <ele>399.6</ele>
        <time>2022-06-26T12:58:36Z</time>
      </trkpt>
      <trkpt lat="45.74233" lon="4.57026">
        <ele>399.6</ele>
        <time>2022-06-26T12:58:37Z</time>
      </trkpt>
      <trkpt lat="45.7423" lon="4.57029">
        <ele>400</ele>
        <time>2022-06-26T12:58:38Z</time>
      </trkpt>
      <trkpt lat="45.74227" lon="4.57031">
        <ele>400</ele>
        <time>2022-06-26T12:58:39Z</time>
      </trkpt>
      <trkpt lat="45.74225" lon="4.57032">
        <ele>400.4</ele>
        <time>2022-06-26T12:58:40Z</time>
      </trkpt>
      <trkpt lat="45.74223" lon="4.57034">
        <ele>400.6</ele>
        <time>2022-06-26T12:58:41Z</time>
      </trkpt>
      <trkpt lat="45.74221" lon="4.57037">
        <ele>400.8</ele>
        <time>2022-06-26T12:58:42Z</time>
      </trkpt>
      <trkpt lat="45.74219" lon="4.5704">
        <ele>401.2</ele>
        <time>2022-06-26T12:58:43Z</time>
      </trkpt>
      <trkpt lat="45.74217" lon="4.57044">
        <ele>401.2</ele>
        <time>2022-06-26T12:58:44Z</time>
      </trkpt>
      <trkpt lat="45.74215" lon="4.57045">
        <ele>401.4</ele>
        <time>2022-06-26T12:58:45Z</time>
      </trkpt>
      <trkpt lat="45.74213" lon="4.57047">
        <ele>401.8</ele>
        <time>2022-06-26T12:58:46Z</time>
      </trkpt>
      <trkpt lat="45.74211" lon="4.5705">
        <ele>402</ele>
        <time>2022-06-26T12:58:47Z</time>
      </trkpt>
      <trkpt lat="45.74209" lon="4.5705">
        <ele>402.2</ele>
        <time>2022-06-26T12:58:48Z</time>
      </trkpt>
      <trkpt lat="45.74207" lon="4.57052">
        <ele>402.6</ele>
        <time>2022-06-26T12:58:49Z</time>
      </trkpt>
      <trkpt lat="45.74205" lon="4.57053">
        <ele>402.8</ele>
        <time>2022-06-26T12:58:50Z</time>
      </trkpt>
      <trkpt lat="45.74203" lon="4.57054">
        <ele>403</ele>
        <time>2022-06-26T12:58:51Z</time>
      </trkpt>
      <trkpt lat="45.74201" lon="4.57055">
        <ele>403.2</ele>
        <time>2022-06-26T12:58:52Z</time>
      </trkpt>
      <trkpt lat="45.74198" lon="4.57056">
        <ele>403.6</ele>
        <time>2022-06-26T12:58:53Z</time>
      </trkpt>
      <trkpt lat="45.74197" lon="4.57057">
        <ele>403.6</ele>
        <time>2022-06-26T12:58:54Z</time>
      </trkpt>
      <trkpt lat="45.74195" lon="4.57058">
        <ele>404</ele>
        <time>2022-06-26T12:58:55Z</time>
      </trkpt>
      <trkpt lat="45.74193" lon="4.57059">
        <ele>404</ele>
        <time>2022-06-26T12:58:56Z</time>
      </trkpt>
      <trkpt lat="45.74191" lon="4.5706">
        <ele>404.2</ele>
        <time>2022-06-26T12:58:57Z</time>
      </trkpt>
      <trkpt lat="45.7419" lon="4.57062">
        <ele>404.2</ele>
        <time>2022-06-26T12:58:58Z</time>
      </trkpt>
      <trkpt lat="45.74188" lon="4.57062">
        <ele>404.6</ele>
        <time>2022-06-26T12:58:59Z</time>
      </trkpt>
      <trkpt lat="45.74186" lon="4.57062">
        <ele>404.6</ele>
        <time>2022-06-26T12:59:00Z</time>
      </trkpt>
      <trkpt lat="45.74184" lon="4.57062">
        <ele>404.8</ele>
        <time>2022-06-26T12:59:01Z</time>
      </trkpt>
      <trkpt lat="45.74182" lon="4.57062">
        <ele>404.8</ele>
        <time>2022-06-26T12:59:02Z</time>
      </trkpt>
      <trkpt lat="45.7418" lon="4.57062">
        <ele>405</ele>
        <time>2022-06-26T12:59:03Z</time>
      </trkpt>
      <trkpt lat="45.74177" lon="4.57063">
        <ele>405</ele>
        <time>2022-06-26T12:59:04Z</time>
      </trkpt>
      <trkpt lat="45.74175" lon="4.57064">
        <ele>405</ele>
        <time>2022-06-26T12:59:05Z</time>
      </trkpt>
      <trkpt lat="45.74172" lon="4.57066">
        <ele>405.2</ele>
        <time>2022-06-26T12:59:06Z</time>
      </trkpt>
      <trkpt lat="45.7417" lon="4.57067">
        <ele>405.2</ele>
        <time>2022-06-26T12:59:07Z</time>
      </trkpt>
      <trkpt lat="45.74168" lon="4.57068">
        <ele>405.6</ele>
        <time>2022-06-26T12:59:08Z</time>
      </trkpt>
      <trkpt lat="45.74166" lon="4.57069">
        <ele>405.6</ele>
        <time>2022-06-26T12:59:09Z</time>
      </trkpt>
      <trkpt lat="45.74163" lon="4.5707">
        <ele>405.8</ele>
        <time>2022-06-26T12:59:10Z</time>
      </trkpt>
      <trkpt lat="45.7416" lon="4.57071">
        <ele>405.8</ele>
        <time>2022-06-26T12:59:11Z</time>
      </trkpt>
      <trkpt lat="45.74158" lon="4.57072">
        <ele>406</ele>
        <time>2022-06-26T12:59:12Z</time>
      </trkpt>
      <trkpt lat="45.74155" lon="4.57072">
        <ele>406</ele>
        <time>2022-06-26T12:59:13Z</time>
      </trkpt>
      <trkpt lat="45.74153" lon="4.57074">
        <ele>406.4</ele>
        <time>2022-06-26T12:59:14Z</time>
      </trkpt>
      <trkpt lat="45.7415" lon="4.57075">
        <ele>406.4</ele>
        <time>2022-06-26T12:59:15Z</time>
      </trkpt>
      <trkpt lat="45.74147" lon="4.57075">
        <ele>406.6</ele>
        <time>2022-06-26T12:59:16Z</time>
      </trkpt>
      <trkpt lat="45.74145" lon="4.57075">
        <ele>407</ele>
        <time>2022-06-26T12:59:17Z</time>
      </trkpt>
      <trkpt lat="45.74139" lon="4.57075">
        <ele>407.2</ele>
        <time>2022-06-26T12:59:18Z</time>
      </trkpt>
      <trkpt lat="45.74134" lon="4.57075">
        <ele>407.4</ele>
        <time>2022-06-26T12:59:19Z</time>
      </trkpt>
      <trkpt lat="45.74129" lon="4.57076">
        <ele>410.2</ele>
        <time>2022-06-26T12:59:27Z</time>
      </trkpt>
      <trkpt lat="45.74125" lon="4.57076">
        <ele>410.6</ele>
        <time>2022-06-26T12:59:28Z</time>
      </trkpt>
      <trkpt lat="45.74122" lon="4.57075">
        <ele>410.8</ele>
        <time>2022-06-26T12:59:29Z</time>
      </trkpt>
      <trkpt lat="45.7412" lon="4.57075">
        <ele>411.2</ele>
        <time>2022-06-26T12:59:30Z</time>
      </trkpt>
      <trkpt lat="45.74117" lon="4.57075">
        <ele>411.4</ele>
        <time>2022-06-26T12:59:31Z</time>
      </trkpt>
      <trkpt lat="45.74115" lon="4.57074">
        <ele>411.6</ele>
        <time>2022-06-26T12:59:32Z</time>
      </trkpt>
      <trkpt lat="45.74113" lon="4.57073">
        <ele>412</ele>
        <time>2022-06-26T12:59:33Z</time>
      </trkpt>
      <trkpt lat="45.74111" lon="4.57073">
        <ele>412.4</ele>
        <time>2022-06-26T12:59:34Z</time>
      </trkpt>
      <trkpt lat="45.74109" lon="4.57071">
        <ele>412.8</ele>
        <time>2022-06-26T12:59:35Z</time>
      </trkpt>
      <trkpt lat="45.74107" lon="4.5707">
        <ele>413</ele>
        <time>2022-06-26T12:59:36Z</time>
      </trkpt>
      <trkpt lat="45.74104" lon="4.57069">
        <ele>413</ele>
        <time>2022-06-26T12:59:37Z</time>
      </trkpt>
      <trkpt lat="45.74102" lon="4.57068">
        <ele>413.2</ele>
        <time>2022-06-26T12:59:38Z</time>
      </trkpt>
      <trkpt lat="45.741" lon="4.57067">
        <ele>413.2</ele>
        <time>2022-06-26T12:59:39Z</time>
      </trkpt>
      <trkpt lat="45.74097" lon="4.57066">
        <ele>413.4</ele>
        <time>2022-06-26T12:59:40Z</time>
      </trkpt>
      <trkpt lat="45.74095" lon="4.57066">
        <ele>413.4</ele>
        <time>2022-06-26T12:59:41Z</time>
      </trkpt>
      <trkpt lat="45.74092" lon="4.57065">
        <ele>413.6</ele>
        <time>2022-06-26T12:59:42Z</time>
      </trkpt>
      <trkpt lat="45.74089" lon="4.57064">
        <ele>413.6</ele>
        <time>2022-06-26T12:59:43Z</time>
      </trkpt>
      <trkpt lat="45.74087" lon="4.57062">
        <ele>413.6</ele>
        <time>2022-06-26T12:59:44Z</time>
      </trkpt>
      <trkpt lat="45.74085" lon="4.5706">
        <ele>413.6</ele>
        <time>2022-06-26T12:59:45Z</time>
      </trkpt>
      <trkpt lat="45.74082" lon="4.57059">
        <ele>413.6</ele>
        <time>2022-06-26T12:59:46Z</time>
      </trkpt>
      <trkpt lat="45.7408" lon="4.57058">
        <ele>414</ele>
        <time>2022-06-26T12:59:47Z</time>
      </trkpt>
      <trkpt lat="45.74077" lon="4.57056">
        <ele>414</ele>
        <time>2022-06-26T12:59:48Z</time>
      </trkpt>
      <trkpt lat="45.74074" lon="4.57054">
        <ele>414</ele>
        <time>2022-06-26T12:59:49Z</time>
      </trkpt>
      <trkpt lat="45.74072" lon="4.57052">
        <ele>414</ele>
        <time>2022-06-26T12:59:50Z</time>
      </trkpt>
      <trkpt lat="45.74069" lon="4.57049">
        <ele>414</ele>
        <time>2022-06-26T12:59:51Z</time>
      </trkpt>
      <trkpt lat="45.74066" lon="4.57046">
        <ele>414</ele>
        <time>2022-06-26T12:59:52Z</time>
      </trkpt>
      <trkpt lat="45.74062" lon="4.57043">
        <ele>414</ele>
        <time>2022-06-26T12:59:53Z</time>
      </trkpt>
      <trkpt lat="45.74059" lon="4.5704">
        <ele>414.2</ele>
        <time>2022-06-26T12:59:54Z</time>
      </trkpt>
      <trkpt lat="45.74056" lon="4.57037">
        <ele>414.2</ele>
        <time>2022-06-26T12:59:55Z</time>
      </trkpt>
      <trkpt lat="45.74053" lon="4.57034">
        <ele>414.2</ele>
        <time>2022-06-26T12:59:56Z</time>
      </trkpt>
      <trkpt lat="45.7405" lon="4.57031">
        <ele>414.2</ele>
        <time>2022-06-26T12:59:57Z</time>
      </trkpt>
      <trkpt lat="45.74047" lon="4.57028">
        <ele>414.4</ele>
        <time>2022-06-26T12:59:58Z</time>
      </trkpt>
      <trkpt lat="45.74044" lon="4.57025">
        <ele>414.4</ele>
        <time>2022-06-26T12:59:59Z</time>
      </trkpt>
      <trkpt lat="45.74041" lon="4.57021">
        <ele>414.6</ele>
        <time>2022-06-26T13:00:00Z</time>
      </trkpt>
      <trkpt lat="45.74037" lon="4.57018">
        <ele>414.6</ele>
        <time>2022-06-26T13:00:01Z</time>
      </trkpt>
      <trkpt lat="45.74034" lon="4.57015">
        <ele>414.8</ele>
        <time>2022-06-26T13:00:02Z</time>
      </trkpt>
      <trkpt lat="45.74031" lon="4.57013">
        <ele>414.8</ele>
        <time>2022-06-26T13:00:03Z</time>
      </trkpt>
      <trkpt lat="45.74028" lon="4.5701">
        <ele>415.2</ele>
        <time>2022-06-26T13:00:04Z</time>
      </trkpt>
      <trkpt lat="45.74025" lon="4.57006">
        <ele>415.2</ele>
        <time>2022-06-26T13:00:05Z</time>
      </trkpt>
      <trkpt lat="45.74022" lon="4.57003">
        <ele>415.4</ele>
        <time>2022-06-26T13:00:06Z</time>
      </trkpt>
      <trkpt lat="45.74019" lon="4.57">
        <ele>415.4</ele>
        <time>2022-06-26T13:00:07Z</time>
      </trkpt>
      <trkpt lat="45.74017" lon="4.56997">
        <ele>415.6</ele>
        <time>2022-06-26T13:00:08Z</time>
      </trkpt>
      <trkpt lat="45.74014" lon="4.56994">
        <ele>415.6</ele>
        <time>2022-06-26T13:00:09Z</time>
      </trkpt>
      <trkpt lat="45.74011" lon="4.56991">
        <ele>416</ele>
        <time>2022-06-26T13:00:10Z</time>
      </trkpt>
      <trkpt lat="45.74009" lon="4.56989">
        <ele>416</ele>
        <time>2022-06-26T13:00:11Z</time>
      </trkpt>
      <trkpt lat="45.74006" lon="4.56986">
        <ele>416.4</ele>
        <time>2022-06-26T13:00:12Z</time>
      </trkpt>
      <trkpt lat="45.74004" lon="4.56983">
        <ele>416.6</ele>
        <time>2022-06-26T13:00:13Z</time>
      </trkpt>
      <trkpt lat="45.74001" lon="4.56981">
        <ele>416.6</ele>
        <time>2022-06-26T13:00:14Z</time>
      </trkpt>
      <trkpt lat="45.73999" lon="4.56978">
        <ele>417</ele>
        <time>2022-06-26T13:00:15Z</time>
      </trkpt>
      <trkpt lat="45.73996" lon="4.56976">
        <ele>417</ele>
        <time>2022-06-26T13:00:16Z</time>
      </trkpt>
      <trkpt lat="45.73994" lon="4.56974">
        <ele>417.4</ele>
        <time>2022-06-26T13:00:17Z</time>
      </trkpt>
      <trkpt lat="45.73992" lon="4.56972">
        <ele>417.4</ele>
        <time>2022-06-26T13:00:18Z</time>
      </trkpt>
      <trkpt lat="45.73991" lon="4.56969">
        <ele>417.6</ele>
        <time>2022-06-26T13:00:19Z</time>
      </trkpt>
      <trkpt lat="45.73989" lon="4.56967">
        <ele>417.6</ele>
        <time>2022-06-26T13:00:20Z</time>
      </trkpt>
      <trkpt lat="45.73987" lon="4.56964">
        <ele>418</ele>
        <time>2022-06-26T13:00:21Z</time>
      </trkpt>
      <trkpt lat="45.73985" lon="4.56962">
        <ele>418</ele>
        <time>2022-06-26T13:00:22Z</time>
      </trkpt>
      <trkpt lat="45.73983" lon="4.5696">
        <ele>418.4</ele>
        <time>2022-06-26T13:00:23Z</time>
      </trkpt>
      <trkpt lat="45.73981" lon="4.56958">
        <ele>418.6</ele>
        <time>2022-06-26T13:00:25Z</time>
      </trkpt>
      <trkpt lat="45.73979" lon="4.56956">
        <ele>419</ele>
        <time>2022-06-26T13:00:26Z</time>
      </trkpt>
      <trkpt lat="45.73977" lon="4.56954">
        <ele>419</ele>
        <time>2022-06-26T13:00:27Z</time>
      </trkpt>
      <trkpt lat="45.73975" lon="4.56951">
        <ele>419.2</ele>
        <time>2022-06-26T13:00:28Z</time>
      </trkpt>
      <trkpt lat="45.73973" lon="4.56949">
        <ele>419.2</ele>
        <time>2022-06-26T13:00:29Z</time>
      </trkpt>
      <trkpt lat="45.7397" lon="4.56946">
        <ele>419.6</ele>
        <time>2022-06-26T13:00:30Z</time>
      </trkpt>
      <trkpt lat="45.73968" lon="4.56944">
        <ele>419.6</ele>
        <time>2022-06-26T13:00:31Z</time>
      </trkpt>
      <trkpt lat="45.73966" lon="4.56941">
        <ele>420</ele>
        <time>2022-06-26T13:00:32Z</time>
      </trkpt>
      <trkpt lat="45.73964" lon="4.56938">
        <ele>420</ele>
        <time>2022-06-26T13:00:33Z</time>
      </trkpt>
      <trkpt lat="45.73962" lon="4.56935">
        <ele>420.2</ele>
        <time>2022-06-26T13:00:34Z</time>
      </trkpt>
      <trkpt lat="45.73961" lon="4.56932">
        <ele>420.2</ele>
        <time>2022-06-26T13:00:35Z</time>
      </trkpt>
      <trkpt lat="45.73959" lon="4.56929">
        <ele>420.6</ele>
        <time>2022-06-26T13:00:36Z</time>
      </trkpt>
      <trkpt lat="45.73957" lon="4.56926">
        <ele>420.6</ele>
        <time>2022-06-26T13:00:37Z</time>
      </trkpt>
      <trkpt lat="45.73955" lon="4.56923">
        <ele>420.8</ele>
        <time>2022-06-26T13:00:38Z</time>
      </trkpt>
      <trkpt lat="45.73954" lon="4.5692">
        <ele>420.8</ele>
        <time>2022-06-26T13:00:39Z</time>
      </trkpt>
      <trkpt lat="45.73951" lon="4.56917">
        <ele>421.2</ele>
        <time>2022-06-26T13:00:40Z</time>
      </trkpt>
      <trkpt lat="45.73949" lon="4.56914">
        <ele>421.2</ele>
        <time>2022-06-26T13:00:41Z</time>
      </trkpt>
      <trkpt lat="45.73948" lon="4.56911">
        <ele>421.4</ele>
        <time>2022-06-26T13:00:42Z</time>
      </trkpt>
      <trkpt lat="45.73946" lon="4.56908">
        <ele>421.4</ele>
        <time>2022-06-26T13:00:43Z</time>
      </trkpt>
      <trkpt lat="45.73944" lon="4.56905">
        <ele>421.8</ele>
        <time>2022-06-26T13:00:44Z</time>
      </trkpt>
      <trkpt lat="45.73943" lon="4.56901">
        <ele>421.8</ele>
        <time>2022-06-26T13:00:45Z</time>
      </trkpt>
      <trkpt lat="45.73941" lon="4.56898">
        <ele>422</ele>
        <time>2022-06-26T13:00:46Z</time>
      </trkpt>
      <trkpt lat="45.73939" lon="4.56894">
        <ele>422</ele>
        <time>2022-06-26T13:00:47Z</time>
      </trkpt>
      <trkpt lat="45.73938" lon="4.56891">
        <ele>422</ele>
        <time>2022-06-26T13:00:48Z</time>
      </trkpt>
      <trkpt lat="45.73936" lon="4.56888">
        <ele>422.2</ele>
        <time>2022-06-26T13:00:49Z</time>
      </trkpt>
      <trkpt lat="45.73934" lon="4.56884">
        <ele>422.2</ele>
        <time>2022-06-26T13:00:50Z</time>
      </trkpt>
      <trkpt lat="45.73933" lon="4.5688">
        <ele>422.6</ele>
        <time>2022-06-26T13:00:51Z</time>
      </trkpt>
      <trkpt lat="45.73931" lon="4.56876">
        <ele>422.6</ele>
        <time>2022-06-26T13:00:52Z</time>
      </trkpt>
      <trkpt lat="45.7393" lon="4.56873">
        <ele>422.8</ele>
        <time>2022-06-26T13:00:53Z</time>
      </trkpt>
      <trkpt lat="45.73928" lon="4.56869">
        <ele>422.8</ele>
        <time>2022-06-26T13:00:54Z</time>
      </trkpt>
      <trkpt lat="45.73927" lon="4.56866">
        <ele>423</ele>
        <time>2022-06-26T13:00:55Z</time>
      </trkpt>
      <trkpt lat="45.73925" lon="4.56862">
        <ele>423</ele>
        <time>2022-06-26T13:00:56Z</time>
      </trkpt>
      <trkpt lat="45.73924" lon="4.56859">
        <ele>423</ele>
        <time>2022-06-26T13:00:57Z</time>
      </trkpt>
      <trkpt lat="45.73922" lon="4.56855">
        <ele>423.4</ele>
        <time>2022-06-26T13:00:58Z</time>
      </trkpt>
      <trkpt lat="45.73921" lon="4.56851">
        <ele>423.4</ele>
        <time>2022-06-26T13:00:59Z</time>
      </trkpt>
      <trkpt lat="45.73919" lon="4.56847">
        <ele>423.6</ele>
        <time>2022-06-26T13:01:00Z</time>
      </trkpt>
      <trkpt lat="45.73918" lon="4.56843">
        <ele>423.6</ele>
        <time>2022-06-26T13:01:01Z</time>
      </trkpt>
      <trkpt lat="45.73916" lon="4.5684">
        <ele>424</ele>
        <time>2022-06-26T13:01:02Z</time>
      </trkpt>
      <trkpt lat="45.73915" lon="4.56836">
        <ele>424</ele>
        <time>2022-06-26T13:01:03Z</time>
      </trkpt>
      <trkpt lat="45.73913" lon="4.56833">
        <ele>424.2</ele>
        <time>2022-06-26T13:01:04Z</time>
      </trkpt>
      <trkpt lat="45.73912" lon="4.56829">
        <ele>424.2</ele>
        <time>2022-06-26T13:01:05Z</time>
      </trkpt>
      <trkpt lat="45.73911" lon="4.56825">
        <ele>424.6</ele>
        <time>2022-06-26T13:01:06Z</time>
      </trkpt>
      <trkpt lat="45.7391" lon="4.56821">
        <ele>424.8</ele>
        <time>2022-06-26T13:01:07Z</time>
      </trkpt>
      <trkpt lat="45.73909" lon="4.56817">
        <ele>424.8</ele>
        <time>2022-06-26T13:01:08Z</time>
      </trkpt>
      <trkpt lat="45.73908" lon="4.56814">
        <ele>425.2</ele>
        <time>2022-06-26T13:01:09Z</time>
      </trkpt>
      <trkpt lat="45.73907" lon="4.5681">
        <ele>425.4</ele>
        <time>2022-06-26T13:01:10Z</time>
      </trkpt>
      <trkpt lat="45.73906" lon="4.56807">
        <ele>425.6</ele>
        <time>2022-06-26T13:01:11Z</time>
      </trkpt>
      <trkpt lat="45.73905" lon="4.56804">
        <ele>425.8</ele>
        <time>2022-06-26T13:01:12Z</time>
      </trkpt>
      <trkpt lat="45.73904" lon="4.56802">
        <ele>426</ele>
        <time>2022-06-26T13:01:13Z</time>
      </trkpt>
      <trkpt lat="45.73903" lon="4.56799">
        <ele>426.4</ele>
        <time>2022-06-26T13:01:14Z</time>
      </trkpt>
      <trkpt lat="45.73902" lon="4.56795">
        <ele>426.6</ele>
        <time>2022-06-26T13:01:15Z</time>
      </trkpt>
      <trkpt lat="45.73901" lon="4.56792">
        <ele>427</ele>
        <time>2022-06-26T13:01:16Z</time>
      </trkpt>
      <trkpt lat="45.739" lon="4.56789">
        <ele>427.2</ele>
        <time>2022-06-26T13:01:17Z</time>
      </trkpt>
      <trkpt lat="45.739" lon="4.56786">
        <ele>427.6</ele>
        <time>2022-06-26T13:01:18Z</time>
      </trkpt>
      <trkpt lat="45.73899" lon="4.56783">
        <ele>427.8</ele>
        <time>2022-06-26T13:01:19Z</time>
      </trkpt>
      <trkpt lat="45.73898" lon="4.5678">
        <ele>428.2</ele>
        <time>2022-06-26T13:01:20Z</time>
      </trkpt>
      <trkpt lat="45.73897" lon="4.56778">
        <ele>428.4</ele>
        <time>2022-06-26T13:01:21Z</time>
      </trkpt>
      <trkpt lat="45.73897" lon="4.56775">
        <ele>428.8</ele>
        <time>2022-06-26T13:01:22Z</time>
      </trkpt>
      <trkpt lat="45.73896" lon="4.56772">
        <ele>429.2</ele>
        <time>2022-06-26T13:01:23Z</time>
      </trkpt>
      <trkpt lat="45.73895" lon="4.5677">
        <ele>429.4</ele>
        <time>2022-06-26T13:01:24Z</time>
      </trkpt>
      <trkpt lat="45.73894" lon="4.56767">
        <ele>429.8</ele>
        <time>2022-06-26T13:01:25Z</time>
      </trkpt>
      <trkpt lat="45.73893" lon="4.56765">
        <ele>430.2</ele>
        <time>2022-06-26T13:01:26Z</time>
      </trkpt>
      <trkpt lat="45.73891" lon="4.56762">
        <ele>430.4</ele>
        <time>2022-06-26T13:01:27Z</time>
      </trkpt>
      <trkpt lat="45.7389" lon="4.5676">
        <ele>430.8</ele>
        <time>2022-06-26T13:01:28Z</time>
      </trkpt>
      <trkpt lat="45.73888" lon="4.56758">
        <ele>431</ele>
        <time>2022-06-26T13:01:29Z</time>
      </trkpt>
      <trkpt lat="45.73887" lon="4.56756">
        <ele>431.4</ele>
        <time>2022-06-26T13:01:30Z</time>
      </trkpt>
      <trkpt lat="45.73885" lon="4.56754">
        <ele>432</ele>
        <time>2022-06-26T13:01:31Z</time>
      </trkpt>
      <trkpt lat="45.73883" lon="4.56752">
        <ele>432.4</ele>
        <time>2022-06-26T13:01:32Z</time>
      </trkpt>
      <trkpt lat="45.73882" lon="4.56749">
        <ele>432.6</ele>
        <time>2022-06-26T13:01:33Z</time>
      </trkpt>
      <trkpt lat="45.7388" lon="4.56747">
        <ele>433</ele>
        <time>2022-06-26T13:01:34Z</time>
      </trkpt>
      <trkpt lat="45.73879" lon="4.56745">
        <ele>433.4</ele>
        <time>2022-06-26T13:01:35Z</time>
      </trkpt>
      <trkpt lat="45.73877" lon="4.56742">
        <ele>433.6</ele>
        <time>2022-06-26T13:01:36Z</time>
      </trkpt>
      <trkpt lat="45.73876" lon="4.5674">
        <ele>434</ele>
        <time>2022-06-26T13:01:37Z</time>
      </trkpt>
      <trkpt lat="45.73875" lon="4.56737">
        <ele>434.2</ele>
        <time>2022-06-26T13:01:38Z</time>
      </trkpt>
      <trkpt lat="45.73874" lon="4.56735">
        <ele>434.4</ele>
        <time>2022-06-26T13:01:39Z</time>
      </trkpt>
      <trkpt lat="45.73872" lon="4.56732">
        <ele>434.6</ele>
        <time>2022-06-26T13:01:40Z</time>
      </trkpt>
      <trkpt lat="45.73871" lon="4.5673">
        <ele>434.8</ele>
        <time>2022-06-26T13:01:41Z</time>
      </trkpt>
      <trkpt lat="45.7387" lon="4.56728">
        <ele>435</ele>
        <time>2022-06-26T13:01:42Z</time>
      </trkpt>
      <trkpt lat="45.73869" lon="4.56726">
        <ele>435.4</ele>
        <time>2022-06-26T13:01:43Z</time>
      </trkpt>
      <trkpt lat="45.73868" lon="4.56724">
        <ele>435.4</ele>
        <time>2022-06-26T13:01:44Z</time>
      </trkpt>
      <trkpt lat="45.73866" lon="4.56722">
        <ele>435.6</ele>
        <time>2022-06-26T13:01:45Z</time>
      </trkpt>
      <trkpt lat="45.73865" lon="4.5672">
        <ele>436</ele>
        <time>2022-06-26T13:01:46Z</time>
      </trkpt>
      <trkpt lat="45.73863" lon="4.56718">
        <ele>436.2</ele>
        <time>2022-06-26T13:01:47Z</time>
      </trkpt>
      <trkpt lat="45.73862" lon="4.56716">
        <ele>436.4</ele>
        <time>2022-06-26T13:01:48Z</time>
      </trkpt>
      <trkpt lat="45.7386" lon="4.56714">
        <ele>436.6</ele>
        <time>2022-06-26T13:01:49Z</time>
      </trkpt>
      <trkpt lat="45.73859" lon="4.56713">
        <ele>436.8</ele>
        <time>2022-06-26T13:01:50Z</time>
      </trkpt>
      <trkpt lat="45.73857" lon="4.56711">
        <ele>437.2</ele>
        <time>2022-06-26T13:01:51Z</time>
      </trkpt>
      <trkpt lat="45.73856" lon="4.56709">
        <ele>437.4</ele>
        <time>2022-06-26T13:01:52Z</time>
      </trkpt>
      <trkpt lat="45.73855" lon="4.56707">
        <ele>437.4</ele>
        <time>2022-06-26T13:01:53Z</time>
      </trkpt>
      <trkpt lat="45.73854" lon="4.56705">
        <ele>437.8</ele>
        <time>2022-06-26T13:01:54Z</time>
      </trkpt>
      <trkpt lat="45.73853" lon="4.56703">
        <ele>438</ele>
        <time>2022-06-26T13:01:55Z</time>
      </trkpt>
      <trkpt lat="45.73852" lon="4.56701">
        <ele>438.2</ele>
        <time>2022-06-26T13:01:56Z</time>
      </trkpt>
      <trkpt lat="45.73851" lon="4.56699">
        <ele>438.4</ele>
        <time>2022-06-26T13:01:57Z</time>
      </trkpt>
      <trkpt lat="45.73849" lon="4.56697">
        <ele>438.4</ele>
        <time>2022-06-26T13:01:58Z</time>
      </trkpt>
      <trkpt lat="45.73848" lon="4.56695">
        <ele>439</ele>
        <time>2022-06-26T13:01:59Z</time>
      </trkpt>
      <trkpt lat="45.73847" lon="4.56693">
        <ele>439.2</ele>
        <time>2022-06-26T13:02:00Z</time>
      </trkpt>
      <trkpt lat="45.73846" lon="4.56691">
        <ele>439.4</ele>
        <time>2022-06-26T13:02:01Z</time>
      </trkpt>
      <trkpt lat="45.73844" lon="4.56689">
        <ele>439.6</ele>
        <time>2022-06-26T13:02:02Z</time>
      </trkpt>
      <trkpt lat="45.73843" lon="4.56688">
        <ele>439.8</ele>
        <time>2022-06-26T13:02:03Z</time>
      </trkpt>
      <trkpt lat="45.73841" lon="4.56686">
        <ele>440</ele>
        <time>2022-06-26T13:02:04Z</time>
      </trkpt>
      <trkpt lat="45.7384" lon="4.56685">
        <ele>440.2</ele>
        <time>2022-06-26T13:02:05Z</time>
      </trkpt>
      <trkpt lat="45.73839" lon="4.56683">
        <ele>440.6</ele>
        <time>2022-06-26T13:02:06Z</time>
      </trkpt>
      <trkpt lat="45.73837" lon="4.56682">
        <ele>440.8</ele>
        <time>2022-06-26T13:02:07Z</time>
      </trkpt>
      <trkpt lat="45.73836" lon="4.56681">
        <ele>441</ele>
        <time>2022-06-26T13:02:08Z</time>
      </trkpt>
      <trkpt lat="45.73834" lon="4.5668">
        <ele>441.2</ele>
        <time>2022-06-26T13:02:09Z</time>
      </trkpt>
      <trkpt lat="45.73833" lon="4.56678">
        <ele>441.4</ele>
        <time>2022-06-26T13:02:10Z</time>
      </trkpt>
      <trkpt lat="45.73831" lon="4.56677">
        <ele>441.6</ele>
        <time>2022-06-26T13:02:11Z</time>
      </trkpt>
      <trkpt lat="45.7383" lon="4.56676">
        <ele>442</ele>
        <time>2022-06-26T13:02:12Z</time>
      </trkpt>
      <trkpt lat="45.73828" lon="4.56674">
        <ele>442</ele>
        <time>2022-06-26T13:02:13Z</time>
      </trkpt>
      <trkpt lat="45.73827" lon="4.56673">
        <ele>442.2</ele>
        <time>2022-06-26T13:02:14Z</time>
      </trkpt>
      <trkpt lat="45.73826" lon="4.56671">
        <ele>442.6</ele>
        <time>2022-06-26T13:02:15Z</time>
      </trkpt>
      <trkpt lat="45.73824" lon="4.5667">
        <ele>442.8</ele>
        <time>2022-06-26T13:02:16Z</time>
      </trkpt>
      <trkpt lat="45.73822" lon="4.56669">
        <ele>443</ele>
        <time>2022-06-26T13:02:17Z</time>
      </trkpt>
      <trkpt lat="45.73821" lon="4.56668">
        <ele>443.2</ele>
        <time>2022-06-26T13:02:18Z</time>
      </trkpt>
      <trkpt lat="45.73819" lon="4.56667">
        <ele>443.4</ele>
        <time>2022-06-26T13:02:19Z</time>
      </trkpt>
      <trkpt lat="45.73818" lon="4.56666">
        <ele>443.4</ele>
        <time>2022-06-26T13:02:20Z</time>
      </trkpt>
      <trkpt lat="45.73816" lon="4.56665">
        <ele>443.8</ele>
        <time>2022-06-26T13:02:21Z</time>
      </trkpt>
      <trkpt lat="45.73815" lon="4.56664">
        <ele>443.8</ele>
        <time>2022-06-26T13:02:22Z</time>
      </trkpt>
      <trkpt lat="45.73813" lon="4.56663">
        <ele>444.2</ele>
        <time>2022-06-26T13:02:23Z</time>
      </trkpt>
      <trkpt lat="45.73812" lon="4.56662">
        <ele>444.4</ele>
        <time>2022-06-26T13:02:24Z</time>
      </trkpt>
      <trkpt lat="45.7381" lon="4.56661">
        <ele>444.8</ele>
        <time>2022-06-26T13:02:25Z</time>
      </trkpt>
      <trkpt lat="45.73809" lon="4.5666">
        <ele>445</ele>
        <time>2022-06-26T13:02:26Z</time>
      </trkpt>
      <trkpt lat="45.73808" lon="4.56658">
        <ele>445.2</ele>
        <time>2022-06-26T13:02:27Z</time>
      </trkpt>
      <trkpt lat="45.73806" lon="4.56658">
        <ele>445.2</ele>
        <time>2022-06-26T13:02:28Z</time>
      </trkpt>
      <trkpt lat="45.73805" lon="4.56657">
        <ele>445.4</ele>
        <time>2022-06-26T13:02:29Z</time>
      </trkpt>
      <trkpt lat="45.73804" lon="4.56656">
        <ele>445.4</ele>
        <time>2022-06-26T13:02:30Z</time>
      </trkpt>
      <trkpt lat="45.73803" lon="4.56654">
        <ele>445.8</ele>
        <time>2022-06-26T13:02:31Z</time>
      </trkpt>
      <trkpt lat="45.73801" lon="4.56652">
        <ele>445.8</ele>
        <time>2022-06-26T13:02:32Z</time>
      </trkpt>
      <trkpt lat="45.738" lon="4.56651">
        <ele>446.2</ele>
        <time>2022-06-26T13:02:33Z</time>
      </trkpt>
      <trkpt lat="45.73799" lon="4.56649">
        <ele>446.2</ele>
        <time>2022-06-26T13:02:34Z</time>
      </trkpt>
      <trkpt lat="45.73797" lon="4.56648">
        <ele>446.6</ele>
        <time>2022-06-26T13:02:35Z</time>
      </trkpt>
      <trkpt lat="45.73796" lon="4.56646">
        <ele>446.8</ele>
        <time>2022-06-26T13:02:36Z</time>
      </trkpt>
      <trkpt lat="45.73795" lon="4.56644">
        <ele>446.8</ele>
        <time>2022-06-26T13:02:37Z</time>
      </trkpt>
      <trkpt lat="45.73793" lon="4.56643">
        <ele>447.2</ele>
        <time>2022-06-26T13:02:38Z</time>
      </trkpt>
      <trkpt lat="45.73792" lon="4.56641">
        <ele>447.2</ele>
        <time>2022-06-26T13:02:39Z</time>
      </trkpt>
      <trkpt lat="45.7379" lon="4.56639">
        <ele>447.4</ele>
        <time>2022-06-26T13:02:40Z</time>
      </trkpt>
      <trkpt lat="45.73789" lon="4.56637">
        <ele>447.8</ele>
        <time>2022-06-26T13:02:41Z</time>
      </trkpt>
      <trkpt lat="45.73788" lon="4.56635">
        <ele>447.8</ele>
        <time>2022-06-26T13:02:42Z</time>
      </trkpt>
      <trkpt lat="45.73786" lon="4.56633">
        <ele>448</ele>
        <time>2022-06-26T13:02:43Z</time>
      </trkpt>
      <trkpt lat="45.73785" lon="4.56631">
        <ele>448</ele>
        <time>2022-06-26T13:02:44Z</time>
      </trkpt>
      <trkpt lat="45.73784" lon="4.56629">
        <ele>448.4</ele>
        <time>2022-06-26T13:02:45Z</time>
      </trkpt>
      <trkpt lat="45.73782" lon="4.56628">
        <ele>448.4</ele>
        <time>2022-06-26T13:02:46Z</time>
      </trkpt>
      <trkpt lat="45.7378" lon="4.56627">
        <ele>448.8</ele>
        <time>2022-06-26T13:02:47Z</time>
      </trkpt>
      <trkpt lat="45.73779" lon="4.56625">
        <ele>448.8</ele>
        <time>2022-06-26T13:02:48Z</time>
      </trkpt>
      <trkpt lat="45.73778" lon="4.56623">
        <ele>449</ele>
        <time>2022-06-26T13:02:49Z</time>
      </trkpt>
      <trkpt lat="45.73776" lon="4.56621">
        <ele>449</ele>
        <time>2022-06-26T13:02:50Z</time>
      </trkpt>
      <trkpt lat="45.73775" lon="4.5662">
        <ele>449.4</ele>
        <time>2022-06-26T13:02:51Z</time>
      </trkpt>
      <trkpt lat="45.73773" lon="4.56618">
        <ele>449.4</ele>
        <time>2022-06-26T13:02:52Z</time>
      </trkpt>
      <trkpt lat="45.73771" lon="4.56617">
        <ele>449.8</ele>
        <time>2022-06-26T13:02:53Z</time>
      </trkpt>
      <trkpt lat="45.7377" lon="4.56616">
        <ele>450</ele>
        <time>2022-06-26T13:02:54Z</time>
      </trkpt>
      <trkpt lat="45.73768" lon="4.56615">
        <ele>450</ele>
        <time>2022-06-26T13:02:55Z</time>
      </trkpt>
      <trkpt lat="45.73767" lon="4.56614">
        <ele>450.4</ele>
        <time>2022-06-26T13:02:56Z</time>
      </trkpt>
      <trkpt lat="45.73765" lon="4.56613">
        <ele>450.4</ele>
        <time>2022-06-26T13:02:57Z</time>
      </trkpt>
      <trkpt lat="45.73763" lon="4.56612">
        <ele>450.6</ele>
        <time>2022-06-26T13:02:58Z</time>
      </trkpt>
      <trkpt lat="45.73762" lon="4.5661">
        <ele>450.6</ele>
        <time>2022-06-26T13:02:59Z</time>
      </trkpt>
      <trkpt lat="45.7376" lon="4.56609">
        <ele>450.6</ele>
        <time>2022-06-26T13:03:00Z</time>
      </trkpt>
      <trkpt lat="45.73759" lon="4.56607">
        <ele>451</ele>
        <time>2022-06-26T13:03:01Z</time>
      </trkpt>
      <trkpt lat="45.73757" lon="4.56606">
        <ele>451</ele>
        <time>2022-06-26T13:03:02Z</time>
      </trkpt>
      <trkpt lat="45.73756" lon="4.56605">
        <ele>451.2</ele>
        <time>2022-06-26T13:03:03Z</time>
      </trkpt>
      <trkpt lat="45.73754" lon="4.56603">
        <ele>451.2</ele>
        <time>2022-06-26T13:03:04Z</time>
      </trkpt>
      <trkpt lat="45.73752" lon="4.56602">
        <ele>451.4</ele>
        <time>2022-06-26T13:03:05Z</time>
      </trkpt>
      <trkpt lat="45.73751" lon="4.56601">
        <ele>451.4</ele>
        <time>2022-06-26T13:03:06Z</time>
      </trkpt>
      <trkpt lat="45.73749" lon="4.566">
        <ele>451.8</ele>
        <time>2022-06-26T13:03:07Z</time>
      </trkpt>
      <trkpt lat="45.73748" lon="4.56599">
        <ele>451.8</ele>
        <time>2022-06-26T13:03:08Z</time>
      </trkpt>
      <trkpt lat="45.73746" lon="4.56598">
        <ele>452.2</ele>
        <time>2022-06-26T13:03:09Z</time>
      </trkpt>
      <trkpt lat="45.73744" lon="4.56597">
        <ele>452.2</ele>
        <time>2022-06-26T13:03:10Z</time>
      </trkpt>
      <trkpt lat="45.73743" lon="4.56596">
        <ele>452.6</ele>
        <time>2022-06-26T13:03:11Z</time>
      </trkpt>
      <trkpt lat="45.73741" lon="4.56595">
        <ele>452.6</ele>
        <time>2022-06-26T13:03:12Z</time>
      </trkpt>
      <trkpt lat="45.73739" lon="4.56594">
        <ele>453</ele>
        <time>2022-06-26T13:03:13Z</time>
      </trkpt>
      <trkpt lat="45.73738" lon="4.56593">
        <ele>453</ele>
        <time>2022-06-26T13:03:14Z</time>
      </trkpt>
      <trkpt lat="45.73736" lon="4.56593">
        <ele>453.4</ele>
        <time>2022-06-26T13:03:15Z</time>
      </trkpt>
      <trkpt lat="45.73734" lon="4.56592">
        <ele>453.6</ele>
        <time>2022-06-26T13:03:16Z</time>
      </trkpt>
      <trkpt lat="45.73732" lon="4.56591">
        <ele>453.8</ele>
        <time>2022-06-26T13:03:17Z</time>
      </trkpt>
      <trkpt lat="45.73731" lon="4.56589">
        <ele>453.8</ele>
        <time>2022-06-26T13:03:18Z</time>
      </trkpt>
      <trkpt lat="45.7373" lon="4.56588">
        <ele>454.2</ele>
        <time>2022-06-26T13:03:19Z</time>
      </trkpt>
      <trkpt lat="45.73728" lon="4.56586">
        <ele>454.2</ele>
        <time>2022-06-26T13:03:20Z</time>
      </trkpt>
      <trkpt lat="45.73727" lon="4.56585">
        <ele>454.6</ele>
        <time>2022-06-26T13:03:21Z</time>
      </trkpt>
      <trkpt lat="45.73726" lon="4.56583">
        <ele>454.8</ele>
        <time>2022-06-26T13:03:22Z</time>
      </trkpt>
      <trkpt lat="45.73725" lon="4.56581">
        <ele>454.8</ele>
        <time>2022-06-26T13:03:23Z</time>
      </trkpt>
      <trkpt lat="45.73723" lon="4.56579">
        <ele>455.2</ele>
        <time>2022-06-26T13:03:24Z</time>
      </trkpt>
      <trkpt lat="45.73722" lon="4.56578">
        <ele>455.4</ele>
        <time>2022-06-26T13:03:25Z</time>
      </trkpt>
      <trkpt lat="45.7372" lon="4.56577">
        <ele>455.4</ele>
        <time>2022-06-26T13:03:26Z</time>
      </trkpt>
      <trkpt lat="45.73719" lon="4.56576">
        <ele>455.8</ele>
        <time>2022-06-26T13:03:27Z</time>
      </trkpt>
      <trkpt lat="45.73717" lon="4.56575">
        <ele>455.8</ele>
        <time>2022-06-26T13:03:28Z</time>
      </trkpt>
      <trkpt lat="45.73716" lon="4.56574">
        <ele>456</ele>
        <time>2022-06-26T13:03:29Z</time>
      </trkpt>
      <trkpt lat="45.73715" lon="4.56572">
        <ele>456</ele>
        <time>2022-06-26T13:03:30Z</time>
      </trkpt>
      <trkpt lat="45.73713" lon="4.5657">
        <ele>456.4</ele>
        <time>2022-06-26T13:03:31Z</time>
      </trkpt>
      <trkpt lat="45.73712" lon="4.56569">
        <ele>456.4</ele>
        <time>2022-06-26T13:03:32Z</time>
      </trkpt>
      <trkpt lat="45.73711" lon="4.56567">
        <ele>456.8</ele>
        <time>2022-06-26T13:03:33Z</time>
      </trkpt>
      <trkpt lat="45.7371" lon="4.56565">
        <ele>457</ele>
        <time>2022-06-26T13:03:34Z</time>
      </trkpt>
      <trkpt lat="45.73708" lon="4.56564">
        <ele>457</ele>
        <time>2022-06-26T13:03:35Z</time>
      </trkpt>
      <trkpt lat="45.73707" lon="4.56562">
        <ele>457.2</ele>
        <time>2022-06-26T13:03:36Z</time>
      </trkpt>
      <trkpt lat="45.73706" lon="4.5656">
        <ele>457.2</ele>
        <time>2022-06-26T13:03:37Z</time>
      </trkpt>
      <trkpt lat="45.73705" lon="4.56557">
        <ele>457.6</ele>
        <time>2022-06-26T13:03:38Z</time>
      </trkpt>
      <trkpt lat="45.73704" lon="4.56555">
        <ele>457.6</ele>
        <time>2022-06-26T13:03:39Z</time>
      </trkpt>
      <trkpt lat="45.73702" lon="4.56554">
        <ele>457.8</ele>
        <time>2022-06-26T13:03:40Z</time>
      </trkpt>
      <trkpt lat="45.73701" lon="4.56552">
        <ele>458.2</ele>
        <time>2022-06-26T13:03:41Z</time>
      </trkpt>
      <trkpt lat="45.73699" lon="4.5655">
        <ele>458.2</ele>
        <time>2022-06-26T13:03:42Z</time>
      </trkpt>
      <trkpt lat="45.73698" lon="4.56548">
        <ele>458.4</ele>
        <time>2022-06-26T13:03:43Z</time>
      </trkpt>
      <trkpt lat="45.73696" lon="4.56547">
        <ele>458.6</ele>
        <time>2022-06-26T13:03:44Z</time>
      </trkpt>
      <trkpt lat="45.73695" lon="4.56545">
        <ele>458.6</ele>
        <time>2022-06-26T13:03:45Z</time>
      </trkpt>
      <trkpt lat="45.73694" lon="4.56543">
        <ele>459</ele>
        <time>2022-06-26T13:03:46Z</time>
      </trkpt>
      <trkpt lat="45.73693" lon="4.56541">
        <ele>459</ele>
        <time>2022-06-26T13:03:47Z</time>
      </trkpt>
      <trkpt lat="45.73692" lon="4.56539">
        <ele>459.2</ele>
        <time>2022-06-26T13:03:48Z</time>
      </trkpt>
      <trkpt lat="45.7369" lon="4.56537">
        <ele>459.2</ele>
        <time>2022-06-26T13:03:49Z</time>
      </trkpt>
      <trkpt lat="45.73689" lon="4.56535">
        <ele>459.6</ele>
        <time>2022-06-26T13:03:50Z</time>
      </trkpt>
      <trkpt lat="45.73688" lon="4.56533">
        <ele>459.6</ele>
        <time>2022-06-26T13:03:51Z</time>
      </trkpt>
      <trkpt lat="45.73686" lon="4.56532">
        <ele>460</ele>
        <time>2022-06-26T13:03:52Z</time>
      </trkpt>
      <trkpt lat="45.73685" lon="4.5653">
        <ele>460</ele>
        <time>2022-06-26T13:03:53Z</time>
      </trkpt>
      <trkpt lat="45.73684" lon="4.56528">
        <ele>460.2</ele>
        <time>2022-06-26T13:03:54Z</time>
      </trkpt>
      <trkpt lat="45.73682" lon="4.56526">
        <ele>460.2</ele>
        <time>2022-06-26T13:03:55Z</time>
      </trkpt>
      <trkpt lat="45.73681" lon="4.56524">
        <ele>460.6</ele>
        <time>2022-06-26T13:03:56Z</time>
      </trkpt>
      <trkpt lat="45.7368" lon="4.56523">
        <ele>460.6</ele>
        <time>2022-06-26T13:03:57Z</time>
      </trkpt>
      <trkpt lat="45.73679" lon="4.56521">
        <ele>461</ele>
        <time>2022-06-26T13:03:58Z</time>
      </trkpt>
      <trkpt lat="45.73677" lon="4.56519">
        <ele>461</ele>
        <time>2022-06-26T13:03:59Z</time>
      </trkpt>
      <trkpt lat="45.73676" lon="4.56517">
        <ele>461.2</ele>
        <time>2022-06-26T13:04:00Z</time>
      </trkpt>
      <trkpt lat="45.73675" lon="4.56515">
        <ele>461.6</ele>
        <time>2022-06-26T13:04:01Z</time>
      </trkpt>
      <trkpt lat="45.73674" lon="4.56513">
        <ele>461.6</ele>
        <time>2022-06-26T13:04:02Z</time>
      </trkpt>
      <trkpt lat="45.73673" lon="4.5651">
        <ele>461.8</ele>
        <time>2022-06-26T13:04:03Z</time>
      </trkpt>
      <trkpt lat="45.73672" lon="4.56508">
        <ele>461.8</ele>
        <time>2022-06-26T13:04:04Z</time>
      </trkpt>
      <trkpt lat="45.73671" lon="4.56506">
        <ele>462.2</ele>
        <time>2022-06-26T13:04:05Z</time>
      </trkpt>
      <trkpt lat="45.7367" lon="4.56503">
        <ele>462.4</ele>
        <time>2022-06-26T13:04:06Z</time>
      </trkpt>
      <trkpt lat="45.73669" lon="4.56501">
        <ele>462.6</ele>
        <time>2022-06-26T13:04:07Z</time>
      </trkpt>
      <trkpt lat="45.73668" lon="4.56499">
        <ele>463</ele>
        <time>2022-06-26T13:04:08Z</time>
      </trkpt>
      <trkpt lat="45.73667" lon="4.56497">
        <ele>463.2</ele>
        <time>2022-06-26T13:04:09Z</time>
      </trkpt>
      <trkpt lat="45.73667" lon="4.56494">
        <ele>463.4</ele>
        <time>2022-06-26T13:04:10Z</time>
      </trkpt>
      <trkpt lat="45.73666" lon="4.56492">
        <ele>463.6</ele>
        <time>2022-06-26T13:04:11Z</time>
      </trkpt>
      <trkpt lat="45.73665" lon="4.56489">
        <ele>463.8</ele>
        <time>2022-06-26T13:04:12Z</time>
      </trkpt>
      <trkpt lat="45.73664" lon="4.56487">
        <ele>463.8</ele>
        <time>2022-06-26T13:04:13Z</time>
      </trkpt>
      <trkpt lat="45.73663" lon="4.56485">
        <ele>464.2</ele>
        <time>2022-06-26T13:04:14Z</time>
      </trkpt>
      <trkpt lat="45.73663" lon="4.56482">
        <ele>464.2</ele>
        <time>2022-06-26T13:04:15Z</time>
      </trkpt>
      <trkpt lat="45.73662" lon="4.5648">
        <ele>464.6</ele>
        <time>2022-06-26T13:04:16Z</time>
      </trkpt>
      <trkpt lat="45.73661" lon="4.56477">
        <ele>464.6</ele>
        <time>2022-06-26T13:04:17Z</time>
      </trkpt>
      <trkpt lat="45.7366" lon="4.56475">
        <ele>464.8</ele>
        <time>2022-06-26T13:04:18Z</time>
      </trkpt>
      <trkpt lat="45.73659" lon="4.56472">
        <ele>465</ele>
        <time>2022-06-26T13:04:19Z</time>
      </trkpt>
      <trkpt lat="45.73658" lon="4.56469">
        <ele>465.4</ele>
        <time>2022-06-26T13:04:20Z</time>
      </trkpt>
      <trkpt lat="45.73657" lon="4.56467">
        <ele>465.4</ele>
        <time>2022-06-26T13:04:21Z</time>
      </trkpt>
      <trkpt lat="45.73656" lon="4.56464">
        <ele>465.6</ele>
        <time>2022-06-26T13:04:22Z</time>
      </trkpt>
      <trkpt lat="45.73655" lon="4.56461">
        <ele>465.6</ele>
        <time>2022-06-26T13:04:23Z</time>
      </trkpt>
      <trkpt lat="45.73654" lon="4.56458">
        <ele>466</ele>
        <time>2022-06-26T13:04:24Z</time>
      </trkpt>
      <trkpt lat="45.73653" lon="4.56455">
        <ele>466</ele>
        <time>2022-06-26T13:04:25Z</time>
      </trkpt>
      <trkpt lat="45.73652" lon="4.56452">
        <ele>466</ele>
        <time>2022-06-26T13:04:26Z</time>
      </trkpt>
      <trkpt lat="45.73651" lon="4.56448">
        <ele>466</ele>
        <time>2022-06-26T13:04:27Z</time>
      </trkpt>
      <trkpt lat="45.7365" lon="4.56445">
        <ele>466.2</ele>
        <time>2022-06-26T13:04:28Z</time>
      </trkpt>
      <trkpt lat="45.73648" lon="4.56442">
        <ele>466.2</ele>
        <time>2022-06-26T13:04:29Z</time>
      </trkpt>
      <trkpt lat="45.73647" lon="4.56439">
        <ele>466.4</ele>
        <time>2022-06-26T13:04:30Z</time>
      </trkpt>
      <trkpt lat="45.73646" lon="4.56436">
        <ele>466.4</ele>
        <time>2022-06-26T13:04:31Z</time>
      </trkpt>
      <trkpt lat="45.73645" lon="4.56434">
        <ele>466.4</ele>
        <time>2022-06-26T13:04:32Z</time>
      </trkpt>
      <trkpt lat="45.73644" lon="4.56431">
        <ele>466.6</ele>
        <time>2022-06-26T13:04:33Z</time>
      </trkpt>
      <trkpt lat="45.73643" lon="4.56428">
        <ele>466.6</ele>
        <time>2022-06-26T13:04:34Z</time>
      </trkpt>
      <trkpt lat="45.73642" lon="4.56424">
        <ele>466.8</ele>
        <time>2022-06-26T13:04:35Z</time>
      </trkpt>
      <trkpt lat="45.73641" lon="4.56421">
        <ele>466.8</ele>
        <time>2022-06-26T13:04:36Z</time>
      </trkpt>
      <trkpt lat="45.7364" lon="4.56419">
        <ele>466.8</ele>
        <time>2022-06-26T13:04:37Z</time>
      </trkpt>
      <trkpt lat="45.73638" lon="4.56416">
        <ele>467.2</ele>
        <time>2022-06-26T13:04:38Z</time>
      </trkpt>
      <trkpt lat="45.73637" lon="4.56412">
        <ele>467.2</ele>
        <time>2022-06-26T13:04:39Z</time>
      </trkpt>
      <trkpt lat="45.73635" lon="4.5641">
        <ele>467.4</ele>
        <time>2022-06-26T13:04:40Z</time>
      </trkpt>
      <trkpt lat="45.73634" lon="4.56407">
        <ele>467.4</ele>
        <time>2022-06-26T13:04:41Z</time>
      </trkpt>
      <trkpt lat="45.73632" lon="4.56404">
        <ele>467.4</ele>
        <time>2022-06-26T13:04:42Z</time>
      </trkpt>
      <trkpt lat="45.73631" lon="4.56401">
        <ele>467.6</ele>
        <time>2022-06-26T13:04:43Z</time>
      </trkpt>
      <trkpt lat="45.73629" lon="4.56398">
        <ele>467.6</ele>
        <time>2022-06-26T13:04:44Z</time>
      </trkpt>
      <trkpt lat="45.73628" lon="4.56396">
        <ele>467.6</ele>
        <time>2022-06-26T13:04:45Z</time>
      </trkpt>
      <trkpt lat="45.73626" lon="4.56394">
        <ele>467.8</ele>
        <time>2022-06-26T13:04:46Z</time>
      </trkpt>
      <trkpt lat="45.73624" lon="4.56391">
        <ele>467.8</ele>
        <time>2022-06-26T13:04:47Z</time>
      </trkpt>
      <trkpt lat="45.73622" lon="4.56389">
        <ele>468.2</ele>
        <time>2022-06-26T13:04:48Z</time>
      </trkpt>
      <trkpt lat="45.73621" lon="4.56387">
        <ele>468.2</ele>
        <time>2022-06-26T13:04:49Z</time>
      </trkpt>
      <trkpt lat="45.73619" lon="4.56385">
        <ele>468.4</ele>
        <time>2022-06-26T13:04:50Z</time>
      </trkpt>
      <trkpt lat="45.73617" lon="4.56382">
        <ele>468.4</ele>
        <time>2022-06-26T13:04:51Z</time>
      </trkpt>
      <trkpt lat="45.73615" lon="4.5638">
        <ele>468.4</ele>
        <time>2022-06-26T13:04:52Z</time>
      </trkpt>
      <trkpt lat="45.73614" lon="4.56378">
        <ele>468.8</ele>
        <time>2022-06-26T13:04:53Z</time>
      </trkpt>
      <trkpt lat="45.73612" lon="4.56376">
        <ele>468.8</ele>
        <time>2022-06-26T13:04:54Z</time>
      </trkpt>
      <trkpt lat="45.7361" lon="4.56373">
        <ele>469</ele>
        <time>2022-06-26T13:04:55Z</time>
      </trkpt>
      <trkpt lat="45.73608" lon="4.56371">
        <ele>469</ele>
        <time>2022-06-26T13:04:56Z</time>
      </trkpt>
      <trkpt lat="45.73607" lon="4.56369">
        <ele>469.2</ele>
        <time>2022-06-26T13:04:57Z</time>
      </trkpt>
      <trkpt lat="45.73605" lon="4.56367">
        <ele>469.2</ele>
        <time>2022-06-26T13:04:58Z</time>
      </trkpt>
      <trkpt lat="45.73604" lon="4.56364">
        <ele>469.6</ele>
        <time>2022-06-26T13:04:59Z</time>
      </trkpt>
      <trkpt lat="45.73602" lon="4.56362">
        <ele>469.6</ele>
        <time>2022-06-26T13:05:00Z</time>
      </trkpt>
      <trkpt lat="45.73601" lon="4.5636">
        <ele>469.8</ele>
        <time>2022-06-26T13:05:01Z</time>
      </trkpt>
      <trkpt lat="45.73599" lon="4.56357">
        <ele>469.8</ele>
        <time>2022-06-26T13:05:02Z</time>
      </trkpt>
      <trkpt lat="45.73598" lon="4.56355">
        <ele>470</ele>
        <time>2022-06-26T13:05:03Z</time>
      </trkpt>
      <trkpt lat="45.73596" lon="4.56353">
        <ele>470</ele>
        <time>2022-06-26T13:05:04Z</time>
      </trkpt>
      <trkpt lat="45.73595" lon="4.5635">
        <ele>470.2</ele>
        <time>2022-06-26T13:05:05Z</time>
      </trkpt>
      <trkpt lat="45.73593" lon="4.56348">
        <ele>470.2</ele>
        <time>2022-06-26T13:05:06Z</time>
      </trkpt>
      <trkpt lat="45.73592" lon="4.56346">
        <ele>470.6</ele>
        <time>2022-06-26T13:05:07Z</time>
      </trkpt>
      <trkpt lat="45.73591" lon="4.56343">
        <ele>470.6</ele>
        <time>2022-06-26T13:05:08Z</time>
      </trkpt>
      <trkpt lat="45.7359" lon="4.56341">
        <ele>471</ele>
        <time>2022-06-26T13:05:09Z</time>
      </trkpt>
      <trkpt lat="45.73589" lon="4.56338">
        <ele>471</ele>
        <time>2022-06-26T13:05:10Z</time>
      </trkpt>
      <trkpt lat="45.73588" lon="4.56335">
        <ele>471.4</ele>
        <time>2022-06-26T13:05:11Z</time>
      </trkpt>
      <trkpt lat="45.73587" lon="4.56334">
        <ele>471.6</ele>
        <time>2022-06-26T13:05:12Z</time>
      </trkpt>
      <trkpt lat="45.73586" lon="4.56332">
        <ele>471.8</ele>
        <time>2022-06-26T13:05:13Z</time>
      </trkpt>
      <trkpt lat="45.73585" lon="4.5633">
        <ele>471.8</ele>
        <time>2022-06-26T13:05:14Z</time>
      </trkpt>
      <trkpt lat="45.73584" lon="4.56327">
        <ele>472.2</ele>
        <time>2022-06-26T13:05:15Z</time>
      </trkpt>
      <trkpt lat="45.73583" lon="4.56325">
        <ele>472.4</ele>
        <time>2022-06-26T13:05:16Z</time>
      </trkpt>
      <trkpt lat="45.73581" lon="4.56323">
        <ele>472.4</ele>
        <time>2022-06-26T13:05:17Z</time>
      </trkpt>
      <trkpt lat="45.7358" lon="4.56321">
        <ele>472.8</ele>
        <time>2022-06-26T13:05:18Z</time>
      </trkpt>
      <trkpt lat="45.73578" lon="4.56318">
        <ele>472.8</ele>
        <time>2022-06-26T13:05:19Z</time>
      </trkpt>
      <trkpt lat="45.73576" lon="4.56316">
        <ele>473.2</ele>
        <time>2022-06-26T13:05:20Z</time>
      </trkpt>
      <trkpt lat="45.73575" lon="4.56314">
        <ele>473.2</ele>
        <time>2022-06-26T13:05:21Z</time>
      </trkpt>
      <trkpt lat="45.73573" lon="4.56312">
        <ele>473.4</ele>
        <time>2022-06-26T13:05:22Z</time>
      </trkpt>
      <trkpt lat="45.73571" lon="4.5631">
        <ele>473.6</ele>
        <time>2022-06-26T13:05:23Z</time>
      </trkpt>
      <trkpt lat="45.73569" lon="4.56308">
        <ele>474</ele>
        <time>2022-06-26T13:05:24Z</time>
      </trkpt>
      <trkpt lat="45.73568" lon="4.56306">
        <ele>474</ele>
        <time>2022-06-26T13:05:25Z</time>
      </trkpt>
      <trkpt lat="45.73566" lon="4.56305">
        <ele>474.2</ele>
        <time>2022-06-26T13:05:26Z</time>
      </trkpt>
      <trkpt lat="45.73564" lon="4.56303">
        <ele>474.4</ele>
        <time>2022-06-26T13:05:27Z</time>
      </trkpt>
      <trkpt lat="45.73562" lon="4.56302">
        <ele>474.6</ele>
        <time>2022-06-26T13:05:28Z</time>
      </trkpt>
      <trkpt lat="45.73561" lon="4.563">
        <ele>474.6</ele>
        <time>2022-06-26T13:05:29Z</time>
      </trkpt>
      <trkpt lat="45.73559" lon="4.56298">
        <ele>475.2</ele>
        <time>2022-06-26T13:05:30Z</time>
      </trkpt>
      <trkpt lat="45.73557" lon="4.56296">
        <ele>475.4</ele>
        <time>2022-06-26T13:05:31Z</time>
      </trkpt>
      <trkpt lat="45.73555" lon="4.56294">
        <ele>475.8</ele>
        <time>2022-06-26T13:05:32Z</time>
      </trkpt>
      <trkpt lat="45.73554" lon="4.56292">
        <ele>476</ele>
        <time>2022-06-26T13:05:33Z</time>
      </trkpt>
      <trkpt lat="45.73553" lon="4.5629">
        <ele>476.2</ele>
        <time>2022-06-26T13:05:34Z</time>
      </trkpt>
      <trkpt lat="45.73551" lon="4.56289">
        <ele>476.4</ele>
        <time>2022-06-26T13:05:35Z</time>
      </trkpt>
      <trkpt lat="45.73549" lon="4.56287">
        <ele>476.6</ele>
        <time>2022-06-26T13:05:36Z</time>
      </trkpt>
      <trkpt lat="45.73547" lon="4.56286">
        <ele>477</ele>
        <time>2022-06-26T13:05:37Z</time>
      </trkpt>
      <trkpt lat="45.73545" lon="4.56285">
        <ele>477.2</ele>
        <time>2022-06-26T13:05:38Z</time>
      </trkpt>
      <trkpt lat="45.73543" lon="4.56283">
        <ele>477.2</ele>
        <time>2022-06-26T13:05:39Z</time>
      </trkpt>
      <trkpt lat="45.73541" lon="4.56281">
        <ele>477.6</ele>
        <time>2022-06-26T13:05:40Z</time>
      </trkpt>
      <trkpt lat="45.7354" lon="4.5628">
        <ele>477.6</ele>
        <time>2022-06-26T13:05:41Z</time>
      </trkpt>
      <trkpt lat="45.73538" lon="4.56278">
        <ele>478</ele>
        <time>2022-06-26T13:05:42Z</time>
      </trkpt>
      <trkpt lat="45.73536" lon="4.56277">
        <ele>478.2</ele>
        <time>2022-06-26T13:05:43Z</time>
      </trkpt>
      <trkpt lat="45.73534" lon="4.56275">
        <ele>478.4</ele>
        <time>2022-06-26T13:05:44Z</time>
      </trkpt>
      <trkpt lat="45.73532" lon="4.56275">
        <ele>478.6</ele>
        <time>2022-06-26T13:05:45Z</time>
      </trkpt>
      <trkpt lat="45.73531" lon="4.56273">
        <ele>479</ele>
        <time>2022-06-26T13:05:46Z</time>
      </trkpt>
      <trkpt lat="45.73529" lon="4.56271">
        <ele>479</ele>
        <time>2022-06-26T13:05:47Z</time>
      </trkpt>
      <trkpt lat="45.73527" lon="4.5627">
        <ele>479.2</ele>
        <time>2022-06-26T13:05:48Z</time>
      </trkpt>
      <trkpt lat="45.73525" lon="4.56268">
        <ele>479.2</ele>
        <time>2022-06-26T13:05:49Z</time>
      </trkpt>
      <trkpt lat="45.73524" lon="4.56267">
        <ele>479.6</ele>
        <time>2022-06-26T13:05:50Z</time>
      </trkpt>
      <trkpt lat="45.73522" lon="4.56265">
        <ele>480</ele>
        <time>2022-06-26T13:05:51Z</time>
      </trkpt>
      <trkpt lat="45.7352" lon="4.56263">
        <ele>480</ele>
        <time>2022-06-26T13:05:52Z</time>
      </trkpt>
      <trkpt lat="45.73518" lon="4.56262">
        <ele>480.2</ele>
        <time>2022-06-26T13:05:53Z</time>
      </trkpt>
      <trkpt lat="45.73516" lon="4.5626">
        <ele>480.2</ele>
        <time>2022-06-26T13:05:54Z</time>
      </trkpt>
      <trkpt lat="45.73514" lon="4.56259">
        <ele>480.6</ele>
        <time>2022-06-26T13:05:55Z</time>
      </trkpt>
      <trkpt lat="45.73512" lon="4.56258">
        <ele>480.6</ele>
        <time>2022-06-26T13:05:56Z</time>
      </trkpt>
      <trkpt lat="45.7351" lon="4.56257">
        <ele>480.8</ele>
        <time>2022-06-26T13:05:57Z</time>
      </trkpt>
      <trkpt lat="45.73508" lon="4.56256">
        <ele>480.8</ele>
        <time>2022-06-26T13:05:58Z</time>
      </trkpt>
      <trkpt lat="45.73506" lon="4.56254">
        <ele>481.2</ele>
        <time>2022-06-26T13:05:59Z</time>
      </trkpt>
      <trkpt lat="45.73503" lon="4.56253">
        <ele>481.2</ele>
        <time>2022-06-26T13:06:00Z</time>
      </trkpt>
      <trkpt lat="45.73501" lon="4.56252">
        <ele>481.2</ele>
        <time>2022-06-26T13:06:01Z</time>
      </trkpt>
      <trkpt lat="45.73498" lon="4.56251">
        <ele>481.4</ele>
        <time>2022-06-26T13:06:02Z</time>
      </trkpt>
      <trkpt lat="45.73495" lon="4.5625">
        <ele>481.4</ele>
        <time>2022-06-26T13:06:03Z</time>
      </trkpt>
      <trkpt lat="45.73493" lon="4.5625">
        <ele>481.4</ele>
        <time>2022-06-26T13:06:04Z</time>
      </trkpt>
      <trkpt lat="45.7349" lon="4.56249">
        <ele>481.4</ele>
        <time>2022-06-26T13:06:05Z</time>
      </trkpt>
      <trkpt lat="45.73487" lon="4.56249">
        <ele>481.6</ele>
        <time>2022-06-26T13:06:06Z</time>
      </trkpt>
      <trkpt lat="45.73485" lon="4.56248">
        <ele>481.6</ele>
        <time>2022-06-26T13:06:07Z</time>
      </trkpt>
      <trkpt lat="45.73482" lon="4.56248">
        <ele>481.6</ele>
        <time>2022-06-26T13:06:08Z</time>
      </trkpt>
      <trkpt lat="45.73479" lon="4.56248">
        <ele>481.6</ele>
        <time>2022-06-26T13:06:09Z</time>
      </trkpt>
      <trkpt lat="45.73476" lon="4.56248">
        <ele>481.6</ele>
        <time>2022-06-26T13:06:10Z</time>
      </trkpt>
      <trkpt lat="45.73472" lon="4.56249">
        <ele>481.6</ele>
        <time>2022-06-26T13:06:11Z</time>
      </trkpt>
      <trkpt lat="45.73469" lon="4.56249">
        <ele>481.6</ele>
        <time>2022-06-26T13:06:12Z</time>
      </trkpt>
      <trkpt lat="45.73466" lon="4.5625">
        <ele>481.6</ele>
        <time>2022-06-26T13:06:13Z</time>
      </trkpt>
      <trkpt lat="45.73462" lon="4.5625">
        <ele>481.6</ele>
        <time>2022-06-26T13:06:14Z</time>
      </trkpt>
      <trkpt lat="45.73458" lon="4.56249">
        <ele>481.6</ele>
        <time>2022-06-26T13:06:15Z</time>
      </trkpt>
      <trkpt lat="45.73454" lon="4.56249">
        <ele>481.6</ele>
        <time>2022-06-26T13:06:16Z</time>
      </trkpt>
      <trkpt lat="45.7345" lon="4.56249">
        <ele>481.4</ele>
        <time>2022-06-26T13:06:17Z</time>
      </trkpt>
      <trkpt lat="45.73445" lon="4.56249">
        <ele>481.4</ele>
        <time>2022-06-26T13:06:18Z</time>
      </trkpt>
      <trkpt lat="45.73441" lon="4.56248">
        <ele>481.4</ele>
        <time>2022-06-26T13:06:19Z</time>
      </trkpt>
      <trkpt lat="45.73436" lon="4.56247">
        <ele>481.4</ele>
        <time>2022-06-26T13:06:20Z</time>
      </trkpt>
      <trkpt lat="45.73432" lon="4.56246">
        <ele>481.4</ele>
        <time>2022-06-26T13:06:21Z</time>
      </trkpt>
      <trkpt lat="45.73429" lon="4.56246">
        <ele>481.4</ele>
        <time>2022-06-26T13:06:22Z</time>
      </trkpt>
      <trkpt lat="45.73425" lon="4.56245">
        <ele>481.6</ele>
        <time>2022-06-26T13:06:23Z</time>
      </trkpt>
      <trkpt lat="45.73421" lon="4.56244">
        <ele>481.6</ele>
        <time>2022-06-26T13:06:24Z</time>
      </trkpt>
      <trkpt lat="45.73417" lon="4.56243">
        <ele>481.8</ele>
        <time>2022-06-26T13:06:25Z</time>
      </trkpt>
      <trkpt lat="45.73414" lon="4.56242">
        <ele>481.8</ele>
        <time>2022-06-26T13:06:26Z</time>
      </trkpt>
      <trkpt lat="45.73411" lon="4.56241">
        <ele>482.2</ele>
        <time>2022-06-26T13:06:27Z</time>
      </trkpt>
      <trkpt lat="45.73408" lon="4.5624">
        <ele>482.4</ele>
        <time>2022-06-26T13:06:28Z</time>
      </trkpt>
      <trkpt lat="45.73405" lon="4.56239">
        <ele>482.8</ele>
        <time>2022-06-26T13:06:29Z</time>
      </trkpt>
      <trkpt lat="45.73402" lon="4.56239">
        <ele>483</ele>
        <time>2022-06-26T13:06:30Z</time>
      </trkpt>
      <trkpt lat="45.734" lon="4.56238">
        <ele>483.2</ele>
        <time>2022-06-26T13:06:31Z</time>
      </trkpt>
      <trkpt lat="45.73398" lon="4.56237">
        <ele>483.4</ele>
        <time>2022-06-26T13:06:32Z</time>
      </trkpt>
      <trkpt lat="45.73396" lon="4.56236">
        <ele>483.6</ele>
        <time>2022-06-26T13:06:33Z</time>
      </trkpt>
      <trkpt lat="45.73394" lon="4.56234">
        <ele>484</ele>
        <time>2022-06-26T13:06:34Z</time>
      </trkpt>
      <trkpt lat="45.73392" lon="4.56233">
        <ele>484.2</ele>
        <time>2022-06-26T13:06:35Z</time>
      </trkpt>
      <trkpt lat="45.7339" lon="4.56231">
        <ele>484.4</ele>
        <time>2022-06-26T13:06:36Z</time>
      </trkpt>
      <trkpt lat="45.73388" lon="4.5623">
        <ele>484.6</ele>
        <time>2022-06-26T13:06:37Z</time>
      </trkpt>
      <trkpt lat="45.73386" lon="4.56229">
        <ele>485</ele>
        <time>2022-06-26T13:06:38Z</time>
      </trkpt>
      <trkpt lat="45.73384" lon="4.56229">
        <ele>485.2</ele>
        <time>2022-06-26T13:06:39Z</time>
      </trkpt>
      <trkpt lat="45.73381" lon="4.56227">
        <ele>485.4</ele>
        <time>2022-06-26T13:06:40Z</time>
      </trkpt>
      <trkpt lat="45.7338" lon="4.56227">
        <ele>485.8</ele>
        <time>2022-06-26T13:06:41Z</time>
      </trkpt>
      <trkpt lat="45.73378" lon="4.56226">
        <ele>485.8</ele>
        <time>2022-06-26T13:06:42Z</time>
      </trkpt>
      <trkpt lat="45.73376" lon="4.56226">
        <ele>486</ele>
        <time>2022-06-26T13:06:43Z</time>
      </trkpt>
      <trkpt lat="45.73374" lon="4.56226">
        <ele>486.4</ele>
        <time>2022-06-26T13:06:44Z</time>
      </trkpt>
      <trkpt lat="45.73373" lon="4.56225">
        <ele>486.4</ele>
        <time>2022-06-26T13:06:45Z</time>
      </trkpt>
      <trkpt lat="45.73371" lon="4.56224">
        <ele>486.8</ele>
        <time>2022-06-26T13:06:46Z</time>
      </trkpt>
      <trkpt lat="45.7337" lon="4.56223">
        <ele>487</ele>
        <time>2022-06-26T13:06:47Z</time>
      </trkpt>
      <trkpt lat="45.73368" lon="4.56223">
        <ele>487.4</ele>
        <time>2022-06-26T13:06:48Z</time>
      </trkpt>
      <trkpt lat="45.73366" lon="4.56222">
        <ele>487.6</ele>
        <time>2022-06-26T13:06:49Z</time>
      </trkpt>
      <trkpt lat="45.73364" lon="4.56222">
        <ele>487.6</ele>
        <time>2022-06-26T13:06:50Z</time>
      </trkpt>
      <trkpt lat="45.73363" lon="4.56221">
        <ele>488</ele>
        <time>2022-06-26T13:06:51Z</time>
      </trkpt>
      <trkpt lat="45.73361" lon="4.5622">
        <ele>488</ele>
        <time>2022-06-26T13:06:52Z</time>
      </trkpt>
      <trkpt lat="45.73359" lon="4.56219">
        <ele>488.4</ele>
        <time>2022-06-26T13:06:53Z</time>
      </trkpt>
      <trkpt lat="45.73358" lon="4.56218">
        <ele>488.4</ele>
        <time>2022-06-26T13:06:54Z</time>
      </trkpt>
      <trkpt lat="45.73356" lon="4.56217">
        <ele>488.8</ele>
        <time>2022-06-26T13:06:55Z</time>
      </trkpt>
      <trkpt lat="45.73354" lon="4.56216">
        <ele>489</ele>
        <time>2022-06-26T13:06:56Z</time>
      </trkpt>
      <trkpt lat="45.73352" lon="4.56214">
        <ele>489.2</ele>
        <time>2022-06-26T13:06:57Z</time>
      </trkpt>
      <trkpt lat="45.7335" lon="4.56213">
        <ele>489.2</ele>
        <time>2022-06-26T13:06:58Z</time>
      </trkpt>
      <trkpt lat="45.73349" lon="4.56211">
        <ele>489.6</ele>
        <time>2022-06-26T13:06:59Z</time>
      </trkpt>
      <trkpt lat="45.73346" lon="4.5621">
        <ele>489.6</ele>
        <time>2022-06-26T13:07:00Z</time>
      </trkpt>
      <trkpt lat="45.73344" lon="4.56209">
        <ele>490</ele>
        <time>2022-06-26T13:07:01Z</time>
      </trkpt>
      <trkpt lat="45.73342" lon="4.56208">
        <ele>490.4</ele>
        <time>2022-06-26T13:07:02Z</time>
      </trkpt>
      <trkpt lat="45.7334" lon="4.56207">
        <ele>490.4</ele>
        <time>2022-06-26T13:07:03Z</time>
      </trkpt>
      <trkpt lat="45.73338" lon="4.56205">
        <ele>490.8</ele>
        <time>2022-06-26T13:07:04Z</time>
      </trkpt>
      <trkpt lat="45.73336" lon="4.56203">
        <ele>491</ele>
        <time>2022-06-26T13:07:05Z</time>
      </trkpt>
      <trkpt lat="45.73334" lon="4.56202">
        <ele>491</ele>
        <time>2022-06-26T13:07:06Z</time>
      </trkpt>
      <trkpt lat="45.73331" lon="4.56201">
        <ele>491.2</ele>
        <time>2022-06-26T13:07:07Z</time>
      </trkpt>
      <trkpt lat="45.73329" lon="4.562">
        <ele>491.2</ele>
        <time>2022-06-26T13:07:08Z</time>
      </trkpt>
      <trkpt lat="45.73327" lon="4.56199">
        <ele>491.6</ele>
        <time>2022-06-26T13:07:09Z</time>
      </trkpt>
      <trkpt lat="45.73325" lon="4.56198">
        <ele>491.6</ele>
        <time>2022-06-26T13:07:10Z</time>
      </trkpt>
      <trkpt lat="45.73323" lon="4.56197">
        <ele>492</ele>
        <time>2022-06-26T13:07:11Z</time>
      </trkpt>
      <trkpt lat="45.73321" lon="4.56195">
        <ele>492</ele>
        <time>2022-06-26T13:07:12Z</time>
      </trkpt>
      <trkpt lat="45.73319" lon="4.56194">
        <ele>492.2</ele>
        <time>2022-06-26T13:07:13Z</time>
      </trkpt>
      <trkpt lat="45.73316" lon="4.56193">
        <ele>492.2</ele>
        <time>2022-06-26T13:07:14Z</time>
      </trkpt>
      <trkpt lat="45.73314" lon="4.56192">
        <ele>492.6</ele>
        <time>2022-06-26T13:07:15Z</time>
      </trkpt>
      <trkpt lat="45.73312" lon="4.56192">
        <ele>492.6</ele>
        <time>2022-06-26T13:07:16Z</time>
      </trkpt>
      <trkpt lat="45.7331" lon="4.56191">
        <ele>493</ele>
        <time>2022-06-26T13:07:17Z</time>
      </trkpt>
      <trkpt lat="45.73309" lon="4.5619">
        <ele>493</ele>
        <time>2022-06-26T13:07:18Z</time>
      </trkpt>
      <trkpt lat="45.73307" lon="4.56189">
        <ele>493.4</ele>
        <time>2022-06-26T13:07:19Z</time>
      </trkpt>
      <trkpt lat="45.73305" lon="4.56188">
        <ele>493.6</ele>
        <time>2022-06-26T13:07:20Z</time>
      </trkpt>
      <trkpt lat="45.73303" lon="4.56187">
        <ele>493.8</ele>
        <time>2022-06-26T13:07:21Z</time>
      </trkpt>
      <trkpt lat="45.73301" lon="4.56186">
        <ele>494</ele>
        <time>2022-06-26T13:07:22Z</time>
      </trkpt>
      <trkpt lat="45.73299" lon="4.56184">
        <ele>494</ele>
        <time>2022-06-26T13:07:23Z</time>
      </trkpt>
      <trkpt lat="45.73297" lon="4.56183">
        <ele>494.4</ele>
        <time>2022-06-26T13:07:24Z</time>
      </trkpt>
      <trkpt lat="45.73293" lon="4.5618">
        <ele>494.6</ele>
        <time>2022-06-26T13:07:25Z</time>
      </trkpt>
      <trkpt lat="45.73292" lon="4.56178">
        <ele>494.6</ele>
        <time>2022-06-26T13:07:26Z</time>
      </trkpt>
      <trkpt lat="45.7329" lon="4.56177">
        <ele>495</ele>
        <time>2022-06-26T13:07:27Z</time>
      </trkpt>
      <trkpt lat="45.73288" lon="4.56175">
        <ele>495</ele>
        <time>2022-06-26T13:07:28Z</time>
      </trkpt>
      <trkpt lat="45.73286" lon="4.56174">
        <ele>495.4</ele>
        <time>2022-06-26T13:07:29Z</time>
      </trkpt>
      <trkpt lat="45.73284" lon="4.56174">
        <ele>495.4</ele>
        <time>2022-06-26T13:07:30Z</time>
      </trkpt>
      <trkpt lat="45.73283" lon="4.56172">
        <ele>495.6</ele>
        <time>2022-06-26T13:07:31Z</time>
      </trkpt>
      <trkpt lat="45.73281" lon="4.56171">
        <ele>495.6</ele>
        <time>2022-06-26T13:07:32Z</time>
      </trkpt>
      <trkpt lat="45.73281" lon="4.56169">
        <ele>496</ele>
        <time>2022-06-26T13:07:33Z</time>
      </trkpt>
      <trkpt lat="45.73279" lon="4.56168">
        <ele>496</ele>
        <time>2022-06-26T13:07:34Z</time>
      </trkpt>
      <trkpt lat="45.73278" lon="4.56166">
        <ele>496.2</ele>
        <time>2022-06-26T13:07:35Z</time>
      </trkpt>
      <trkpt lat="45.73277" lon="4.56164">
        <ele>496.2</ele>
        <time>2022-06-26T13:07:36Z</time>
      </trkpt>
      <trkpt lat="45.73276" lon="4.56162">
        <ele>496.6</ele>
        <time>2022-06-26T13:07:37Z</time>
      </trkpt>
      <trkpt lat="45.73275" lon="4.5616">
        <ele>496.6</ele>
        <time>2022-06-26T13:07:38Z</time>
      </trkpt>
      <trkpt lat="45.73274" lon="4.56158">
        <ele>497</ele>
        <time>2022-06-26T13:07:39Z</time>
      </trkpt>
      <trkpt lat="45.73273" lon="4.56156">
        <ele>497.2</ele>
        <time>2022-06-26T13:07:40Z</time>
      </trkpt>
      <trkpt lat="45.73272" lon="4.56154">
        <ele>497.4</ele>
        <time>2022-06-26T13:07:41Z</time>
      </trkpt>
      <trkpt lat="45.7327" lon="4.56152">
        <ele>497.6</ele>
        <time>2022-06-26T13:07:42Z</time>
      </trkpt>
      <trkpt lat="45.73269" lon="4.5615">
        <ele>497.6</ele>
        <time>2022-06-26T13:07:43Z</time>
      </trkpt>
      <trkpt lat="45.73267" lon="4.56149">
        <ele>498</ele>
        <time>2022-06-26T13:07:44Z</time>
      </trkpt>
      <trkpt lat="45.73266" lon="4.56148">
        <ele>498</ele>
        <time>2022-06-26T13:07:45Z</time>
      </trkpt>
      <trkpt lat="45.73264" lon="4.56146">
        <ele>498.4</ele>
        <time>2022-06-26T13:07:46Z</time>
      </trkpt>
      <trkpt lat="45.73263" lon="4.56145">
        <ele>498.4</ele>
        <time>2022-06-26T13:07:47Z</time>
      </trkpt>
      <trkpt lat="45.73262" lon="4.56143">
        <ele>498.6</ele>
        <time>2022-06-26T13:07:48Z</time>
      </trkpt>
      <trkpt lat="45.7326" lon="4.56142">
        <ele>498.6</ele>
        <time>2022-06-26T13:07:49Z</time>
      </trkpt>
      <trkpt lat="45.73259" lon="4.5614">
        <ele>499.2</ele>
        <time>2022-06-26T13:07:50Z</time>
      </trkpt>
      <trkpt lat="45.73258" lon="4.56138">
        <ele>499.2</ele>
        <time>2022-06-26T13:07:51Z</time>
      </trkpt>
      <trkpt lat="45.73256" lon="4.56135">
        <ele>499.4</ele>
        <time>2022-06-26T13:07:52Z</time>
      </trkpt>
      <trkpt lat="45.73255" lon="4.56133">
        <ele>499.4</ele>
        <time>2022-06-26T13:07:53Z</time>
      </trkpt>
      <trkpt lat="45.73253" lon="4.5613">
        <ele>499.8</ele>
        <time>2022-06-26T13:07:54Z</time>
      </trkpt>
      <trkpt lat="45.73251" lon="4.56128">
        <ele>499.8</ele>
        <time>2022-06-26T13:07:55Z</time>
      </trkpt>
      <trkpt lat="45.7325" lon="4.56125">
        <ele>500</ele>
        <time>2022-06-26T13:07:56Z</time>
      </trkpt>
      <trkpt lat="45.73248" lon="4.56123">
        <ele>500</ele>
        <time>2022-06-26T13:07:57Z</time>
      </trkpt>
      <trkpt lat="45.73247" lon="4.56121">
        <ele>500.2</ele>
        <time>2022-06-26T13:07:58Z</time>
      </trkpt>
      <trkpt lat="45.73245" lon="4.56118">
        <ele>500.2</ele>
        <time>2022-06-26T13:07:59Z</time>
      </trkpt>
      <trkpt lat="45.73244" lon="4.56116">
        <ele>500.6</ele>
        <time>2022-06-26T13:08:00Z</time>
      </trkpt>
      <trkpt lat="45.73242" lon="4.56114">
        <ele>500.6</ele>
        <time>2022-06-26T13:08:01Z</time>
      </trkpt>
      <trkpt lat="45.73241" lon="4.56111">
        <ele>500.8</ele>
        <time>2022-06-26T13:08:02Z</time>
      </trkpt>
      <trkpt lat="45.7324" lon="4.56109">
        <ele>501</ele>
        <time>2022-06-26T13:08:03Z</time>
      </trkpt>
      <trkpt lat="45.73239" lon="4.56107">
        <ele>501</ele>
        <time>2022-06-26T13:08:04Z</time>
      </trkpt>
      <trkpt lat="45.73237" lon="4.56105">
        <ele>501.4</ele>
        <time>2022-06-26T13:08:05Z</time>
      </trkpt>
      <trkpt lat="45.73236" lon="4.56103">
        <ele>501.6</ele>
        <time>2022-06-26T13:08:06Z</time>
      </trkpt>
      <trkpt lat="45.73234" lon="4.56101">
        <ele>502</ele>
        <time>2022-06-26T13:08:07Z</time>
      </trkpt>
      <trkpt lat="45.73233" lon="4.56099">
        <ele>502.2</ele>
        <time>2022-06-26T13:08:08Z</time>
      </trkpt>
      <trkpt lat="45.73231" lon="4.56097">
        <ele>502.2</ele>
        <time>2022-06-26T13:08:09Z</time>
      </trkpt>
      <trkpt lat="45.7323" lon="4.56095">
        <ele>502.6</ele>
        <time>2022-06-26T13:08:10Z</time>
      </trkpt>
      <trkpt lat="45.73229" lon="4.56093">
        <ele>502.8</ele>
        <time>2022-06-26T13:08:11Z</time>
      </trkpt>
      <trkpt lat="45.73227" lon="4.56091">
        <ele>503</ele>
        <time>2022-06-26T13:08:12Z</time>
      </trkpt>
      <trkpt lat="45.73226" lon="4.56089">
        <ele>503.2</ele>
        <time>2022-06-26T13:08:13Z</time>
      </trkpt>
      <trkpt lat="45.73224" lon="4.56088">
        <ele>503.6</ele>
        <time>2022-06-26T13:08:14Z</time>
      </trkpt>
      <trkpt lat="45.73223" lon="4.56087">
        <ele>503.8</ele>
        <time>2022-06-26T13:08:15Z</time>
      </trkpt>
      <trkpt lat="45.73221" lon="4.56085">
        <ele>503.8</ele>
        <time>2022-06-26T13:08:16Z</time>
      </trkpt>
      <trkpt lat="45.7322" lon="4.56083">
        <ele>504.2</ele>
        <time>2022-06-26T13:08:17Z</time>
      </trkpt>
      <trkpt lat="45.73219" lon="4.56081">
        <ele>504.6</ele>
        <time>2022-06-26T13:08:18Z</time>
      </trkpt>
      <trkpt lat="45.73217" lon="4.5608">
        <ele>504.8</ele>
        <time>2022-06-26T13:08:19Z</time>
      </trkpt>
      <trkpt lat="45.73216" lon="4.56078">
        <ele>505.2</ele>
        <time>2022-06-26T13:08:20Z</time>
      </trkpt>
      <trkpt lat="45.73214" lon="4.56076">
        <ele>505.4</ele>
        <time>2022-06-26T13:08:21Z</time>
      </trkpt>
      <trkpt lat="45.73213" lon="4.56075">
        <ele>505.6</ele>
        <time>2022-06-26T13:08:22Z</time>
      </trkpt>
      <trkpt lat="45.73212" lon="4.56074">
        <ele>505.6</ele>
        <time>2022-06-26T13:08:23Z</time>
      </trkpt>
      <trkpt lat="45.7321" lon="4.56072">
        <ele>505.8</ele>
        <time>2022-06-26T13:08:24Z</time>
      </trkpt>
      <trkpt lat="45.73209" lon="4.56071">
        <ele>506</ele>
        <time>2022-06-26T13:08:25Z</time>
      </trkpt>
      <trkpt lat="45.73207" lon="4.56069">
        <ele>506.4</ele>
        <time>2022-06-26T13:08:26Z</time>
      </trkpt>
      <trkpt lat="45.73206" lon="4.56068">
        <ele>506.4</ele>
        <time>2022-06-26T13:08:27Z</time>
      </trkpt>
      <trkpt lat="45.73205" lon="4.56066">
        <ele>506.8</ele>
        <time>2022-06-26T13:08:28Z</time>
      </trkpt>
      <trkpt lat="45.73203" lon="4.56065">
        <ele>507.2</ele>
        <time>2022-06-26T13:08:29Z</time>
      </trkpt>
      <trkpt lat="45.73202" lon="4.56063">
        <ele>507.4</ele>
        <time>2022-06-26T13:08:30Z</time>
      </trkpt>
      <trkpt lat="45.73201" lon="4.56062">
        <ele>507.8</ele>
        <time>2022-06-26T13:08:31Z</time>
      </trkpt>
      <trkpt lat="45.73199" lon="4.5606">
        <ele>508</ele>
        <time>2022-06-26T13:08:32Z</time>
      </trkpt>
      <trkpt lat="45.73198" lon="4.56059">
        <ele>508.2</ele>
        <time>2022-06-26T13:08:33Z</time>
      </trkpt>
      <trkpt lat="45.73197" lon="4.56058">
        <ele>508.6</ele>
        <time>2022-06-26T13:08:34Z</time>
      </trkpt>
      <trkpt lat="45.73196" lon="4.56056">
        <ele>508.8</ele>
        <time>2022-06-26T13:08:35Z</time>
      </trkpt>
      <trkpt lat="45.73194" lon="4.56055">
        <ele>509</ele>
        <time>2022-06-26T13:08:36Z</time>
      </trkpt>
      <trkpt lat="45.73193" lon="4.56053">
        <ele>509.2</ele>
        <time>2022-06-26T13:08:37Z</time>
      </trkpt>
      <trkpt lat="45.73192" lon="4.56052">
        <ele>509.6</ele>
        <time>2022-06-26T13:08:38Z</time>
      </trkpt>
      <trkpt lat="45.73191" lon="4.56051">
        <ele>509.8</ele>
        <time>2022-06-26T13:08:39Z</time>
      </trkpt>
      <trkpt lat="45.7319" lon="4.5605">
        <ele>510</ele>
        <time>2022-06-26T13:08:40Z</time>
      </trkpt>
      <trkpt lat="45.73189" lon="4.56049">
        <ele>510.2</ele>
        <time>2022-06-26T13:08:41Z</time>
      </trkpt>
      <trkpt lat="45.73188" lon="4.56047">
        <ele>510.4</ele>
        <time>2022-06-26T13:08:42Z</time>
      </trkpt>
      <trkpt lat="45.73186" lon="4.56045">
        <ele>510.4</ele>
        <time>2022-06-26T13:08:43Z</time>
      </trkpt>
      <trkpt lat="45.73185" lon="4.56044">
        <ele>510.8</ele>
        <time>2022-06-26T13:08:44Z</time>
      </trkpt>
      <trkpt lat="45.73184" lon="4.56043">
        <ele>510.8</ele>
        <time>2022-06-26T13:08:45Z</time>
      </trkpt>
      <trkpt lat="45.73183" lon="4.56042">
        <ele>511.2</ele>
        <time>2022-06-26T13:08:46Z</time>
      </trkpt>
      <trkpt lat="45.73182" lon="4.5604">
        <ele>511.4</ele>
        <time>2022-06-26T13:08:47Z</time>
      </trkpt>
      <trkpt lat="45.73181" lon="4.56039">
        <ele>511.4</ele>
        <time>2022-06-26T13:08:48Z</time>
      </trkpt>
      <trkpt lat="45.7318" lon="4.56037">
        <ele>511.8</ele>
        <time>2022-06-26T13:08:49Z</time>
      </trkpt>
      <trkpt lat="45.73178" lon="4.56036">
        <ele>511.8</ele>
        <time>2022-06-26T13:08:50Z</time>
      </trkpt>
      <trkpt lat="45.73177" lon="4.56035">
        <ele>512</ele>
        <time>2022-06-26T13:08:51Z</time>
      </trkpt>
      <trkpt lat="45.73176" lon="4.56033">
        <ele>512</ele>
        <time>2022-06-26T13:08:52Z</time>
      </trkpt>
      <trkpt lat="45.73174" lon="4.56032">
        <ele>512.4</ele>
        <time>2022-06-26T13:08:53Z</time>
      </trkpt>
      <trkpt lat="45.73173" lon="4.5603">
        <ele>512.4</ele>
        <time>2022-06-26T13:08:54Z</time>
      </trkpt>
      <trkpt lat="45.73172" lon="4.56029">
        <ele>512.8</ele>
        <time>2022-06-26T13:08:55Z</time>
      </trkpt>
      <trkpt lat="45.7317" lon="4.56027">
        <ele>512.8</ele>
        <time>2022-06-26T13:08:56Z</time>
      </trkpt>
      <trkpt lat="45.73169" lon="4.56026">
        <ele>513.2</ele>
        <time>2022-06-26T13:08:57Z</time>
      </trkpt>
      <trkpt lat="45.73167" lon="4.56025">
        <ele>513.2</ele>
        <time>2022-06-26T13:08:58Z</time>
      </trkpt>
      <trkpt lat="45.73166" lon="4.56024">
        <ele>513.4</ele>
        <time>2022-06-26T13:08:59Z</time>
      </trkpt>
      <trkpt lat="45.73165" lon="4.56022">
        <ele>513.8</ele>
        <time>2022-06-26T13:09:00Z</time>
      </trkpt>
      <trkpt lat="45.73163" lon="4.5602">
        <ele>513.8</ele>
        <time>2022-06-26T13:09:01Z</time>
      </trkpt>
      <trkpt lat="45.73162" lon="4.56019">
        <ele>514</ele>
        <time>2022-06-26T13:09:02Z</time>
      </trkpt>
      <trkpt lat="45.7316" lon="4.56018">
        <ele>514.4</ele>
        <time>2022-06-26T13:09:03Z</time>
      </trkpt>
      <trkpt lat="45.73159" lon="4.56017">
        <ele>514.6</ele>
        <time>2022-06-26T13:09:04Z</time>
      </trkpt>
      <trkpt lat="45.73158" lon="4.56016">
        <ele>514.6</ele>
        <time>2022-06-26T13:09:05Z</time>
      </trkpt>
      <trkpt lat="45.73156" lon="4.56014">
        <ele>514.8</ele>
        <time>2022-06-26T13:09:06Z</time>
      </trkpt>
      <trkpt lat="45.73155" lon="4.56013">
        <ele>514.8</ele>
        <time>2022-06-26T13:09:07Z</time>
      </trkpt>
      <trkpt lat="45.73154" lon="4.56012">
        <ele>515.2</ele>
        <time>2022-06-26T13:09:08Z</time>
      </trkpt>
      <trkpt lat="45.73152" lon="4.56011">
        <ele>515.4</ele>
        <time>2022-06-26T13:09:09Z</time>
      </trkpt>
      <trkpt lat="45.7315" lon="4.56009">
        <ele>515.4</ele>
        <time>2022-06-26T13:09:10Z</time>
      </trkpt>
      <trkpt lat="45.73149" lon="4.56008">
        <ele>516</ele>
        <time>2022-06-26T13:09:11Z</time>
      </trkpt>
      <trkpt lat="45.73148" lon="4.56007">
        <ele>516.2</ele>
        <time>2022-06-26T13:09:12Z</time>
      </trkpt>
      <trkpt lat="45.73147" lon="4.56006">
        <ele>516.4</ele>
        <time>2022-06-26T13:09:13Z</time>
      </trkpt>
      <trkpt lat="45.73146" lon="4.56005">
        <ele>516.4</ele>
        <time>2022-06-26T13:09:14Z</time>
      </trkpt>
      <trkpt lat="45.73145" lon="4.56004">
        <ele>516.8</ele>
        <time>2022-06-26T13:09:15Z</time>
      </trkpt>
      <trkpt lat="45.73144" lon="4.56004">
        <ele>516.8</ele>
        <time>2022-06-26T13:09:16Z</time>
      </trkpt>
      <trkpt lat="45.73142" lon="4.56003">
        <ele>517</ele>
        <time>2022-06-26T13:09:17Z</time>
      </trkpt>
      <trkpt lat="45.73141" lon="4.56003">
        <ele>517</ele>
        <time>2022-06-26T13:09:18Z</time>
      </trkpt>
      <trkpt lat="45.73139" lon="4.56002">
        <ele>517.2</ele>
        <time>2022-06-26T13:09:19Z</time>
      </trkpt>
      <trkpt lat="45.73138" lon="4.56002">
        <ele>517.2</ele>
        <time>2022-06-26T13:09:20Z</time>
      </trkpt>
      <trkpt lat="45.73137" lon="4.56003">
        <ele>517.6</ele>
        <time>2022-06-26T13:09:21Z</time>
      </trkpt>
      <trkpt lat="45.73135" lon="4.56002">
        <ele>517.6</ele>
        <time>2022-06-26T13:09:22Z</time>
      </trkpt>
      <trkpt lat="45.73134" lon="4.56002">
        <ele>518</ele>
        <time>2022-06-26T13:09:23Z</time>
      </trkpt>
      <trkpt lat="45.73132" lon="4.56002">
        <ele>518.4</ele>
        <time>2022-06-26T13:09:24Z</time>
      </trkpt>
      <trkpt lat="45.73131" lon="4.56002">
        <ele>518.6</ele>
        <time>2022-06-26T13:09:25Z</time>
      </trkpt>
      <trkpt lat="45.73129" lon="4.56002">
        <ele>518.8</ele>
        <time>2022-06-26T13:09:26Z</time>
      </trkpt>
      <trkpt lat="45.73128" lon="4.56002">
        <ele>519</ele>
        <time>2022-06-26T13:09:27Z</time>
      </trkpt>
      <trkpt lat="45.73127" lon="4.56002">
        <ele>519</ele>
        <time>2022-06-26T13:09:28Z</time>
      </trkpt>
      <trkpt lat="45.73125" lon="4.56002">
        <ele>519.4</ele>
        <time>2022-06-26T13:09:29Z</time>
      </trkpt>
      <trkpt lat="45.73124" lon="4.56003">
        <ele>519.6</ele>
        <time>2022-06-26T13:09:30Z</time>
      </trkpt>
      <trkpt lat="45.73123" lon="4.56003">
        <ele>519.6</ele>
        <time>2022-06-26T13:09:31Z</time>
      </trkpt>
      <trkpt lat="45.73121" lon="4.56003">
        <ele>520</ele>
        <time>2022-06-26T13:09:32Z</time>
      </trkpt>
      <trkpt lat="45.7312" lon="4.56004">
        <ele>520</ele>
        <time>2022-06-26T13:09:33Z</time>
      </trkpt>
      <trkpt lat="45.73118" lon="4.56004">
        <ele>520.4</ele>
        <time>2022-06-26T13:09:34Z</time>
      </trkpt>
      <trkpt lat="45.73117" lon="4.56004">
        <ele>520.4</ele>
        <time>2022-06-26T13:09:35Z</time>
      </trkpt>
      <trkpt lat="45.73115" lon="4.56004">
        <ele>520.8</ele>
        <time>2022-06-26T13:09:36Z</time>
      </trkpt>
      <trkpt lat="45.73113" lon="4.56004">
        <ele>520.8</ele>
        <time>2022-06-26T13:09:37Z</time>
      </trkpt>
      <trkpt lat="45.73112" lon="4.56004">
        <ele>521.2</ele>
        <time>2022-06-26T13:09:38Z</time>
      </trkpt>
      <trkpt lat="45.7311" lon="4.56004">
        <ele>521.2</ele>
        <time>2022-06-26T13:09:39Z</time>
      </trkpt>
      <trkpt lat="45.73108" lon="4.56003">
        <ele>521.4</ele>
        <time>2022-06-26T13:09:40Z</time>
      </trkpt>
      <trkpt lat="45.73107" lon="4.56003">
        <ele>521.4</ele>
        <time>2022-06-26T13:09:41Z</time>
      </trkpt>
      <trkpt lat="45.73105" lon="4.56003">
        <ele>521.8</ele>
        <time>2022-06-26T13:09:42Z</time>
      </trkpt>
      <trkpt lat="45.73104" lon="4.56003">
        <ele>522</ele>
        <time>2022-06-26T13:09:43Z</time>
      </trkpt>
      <trkpt lat="45.73102" lon="4.56003">
        <ele>522.2</ele>
        <time>2022-06-26T13:09:44Z</time>
      </trkpt>
      <trkpt lat="45.73101" lon="4.56004">
        <ele>522.2</ele>
        <time>2022-06-26T13:09:45Z</time>
      </trkpt>
      <trkpt lat="45.73099" lon="4.56004">
        <ele>522.6</ele>
        <time>2022-06-26T13:09:46Z</time>
      </trkpt>
      <trkpt lat="45.73098" lon="4.56004">
        <ele>522.8</ele>
        <time>2022-06-26T13:09:47Z</time>
      </trkpt>
      <trkpt lat="45.73096" lon="4.56005">
        <ele>522.8</ele>
        <time>2022-06-26T13:09:48Z</time>
      </trkpt>
      <trkpt lat="45.73094" lon="4.56005">
        <ele>523.2</ele>
        <time>2022-06-26T13:09:49Z</time>
      </trkpt>
      <trkpt lat="45.73093" lon="4.56006">
        <ele>523.2</ele>
        <time>2022-06-26T13:09:50Z</time>
      </trkpt>
      <trkpt lat="45.73092" lon="4.56007">
        <ele>523.6</ele>
        <time>2022-06-26T13:09:51Z</time>
      </trkpt>
      <trkpt lat="45.7309" lon="4.56007">
        <ele>523.6</ele>
        <time>2022-06-26T13:09:52Z</time>
      </trkpt>
      <trkpt lat="45.73089" lon="4.56008">
        <ele>523.8</ele>
        <time>2022-06-26T13:09:53Z</time>
      </trkpt>
      <trkpt lat="45.73087" lon="4.56009">
        <ele>523.8</ele>
        <time>2022-06-26T13:09:54Z</time>
      </trkpt>
      <trkpt lat="45.73086" lon="4.56009">
        <ele>524.2</ele>
        <time>2022-06-26T13:09:56Z</time>
      </trkpt>
      <trkpt lat="45.73084" lon="4.56009">
        <ele>524.2</ele>
        <time>2022-06-26T13:09:57Z</time>
      </trkpt>
      <trkpt lat="45.73082" lon="4.5601">
        <ele>524.4</ele>
        <time>2022-06-26T13:09:58Z</time>
      </trkpt>
      <trkpt lat="45.7308" lon="4.5601">
        <ele>524.4</ele>
        <time>2022-06-26T13:09:59Z</time>
      </trkpt>
      <trkpt lat="45.73078" lon="4.5601">
        <ele>524.8</ele>
        <time>2022-06-26T13:10:00Z</time>
      </trkpt>
      <trkpt lat="45.73075" lon="4.5601">
        <ele>524.8</ele>
        <time>2022-06-26T13:10:01Z</time>
      </trkpt>
      <trkpt lat="45.73073" lon="4.56009">
        <ele>524.8</ele>
        <time>2022-06-26T13:10:02Z</time>
      </trkpt>
      <trkpt lat="45.73071" lon="4.56008">
        <ele>524.8</ele>
        <time>2022-06-26T13:10:03Z</time>
      </trkpt>
      <trkpt lat="45.73068" lon="4.56006">
        <ele>525</ele>
        <time>2022-06-26T13:10:04Z</time>
      </trkpt>
      <trkpt lat="45.73066" lon="4.56005">
        <ele>525</ele>
        <time>2022-06-26T13:10:05Z</time>
      </trkpt>
      <trkpt lat="45.73064" lon="4.56003">
        <ele>525.4</ele>
        <time>2022-06-26T13:10:06Z</time>
      </trkpt>
      <trkpt lat="45.73062" lon="4.56002">
        <ele>525.4</ele>
        <time>2022-06-26T13:10:07Z</time>
      </trkpt>
      <trkpt lat="45.73061" lon="4.56">
        <ele>525.6</ele>
        <time>2022-06-26T13:10:08Z</time>
      </trkpt>
      <trkpt lat="45.73059" lon="4.55999">
        <ele>525.6</ele>
        <time>2022-06-26T13:10:09Z</time>
      </trkpt>
      <trkpt lat="45.73057" lon="4.55997">
        <ele>525.8</ele>
        <time>2022-06-26T13:10:10Z</time>
      </trkpt>
      <trkpt lat="45.73056" lon="4.55996">
        <ele>526</ele>
        <time>2022-06-26T13:10:11Z</time>
      </trkpt>
      <trkpt lat="45.73055" lon="4.55994">
        <ele>526.4</ele>
        <time>2022-06-26T13:10:12Z</time>
      </trkpt>
      <trkpt lat="45.73053" lon="4.55993">
        <ele>526.6</ele>
        <time>2022-06-26T13:10:13Z</time>
      </trkpt>
      <trkpt lat="45.73052" lon="4.55992">
        <ele>527</ele>
        <time>2022-06-26T13:10:14Z</time>
      </trkpt>
      <trkpt lat="45.73051" lon="4.5599">
        <ele>527.2</ele>
        <time>2022-06-26T13:10:15Z</time>
      </trkpt>
      <trkpt lat="45.7305" lon="4.55989">
        <ele>527.6</ele>
        <time>2022-06-26T13:10:16Z</time>
      </trkpt>
      <trkpt lat="45.73048" lon="4.55988">
        <ele>527.8</ele>
        <time>2022-06-26T13:10:17Z</time>
      </trkpt>
      <trkpt lat="45.73046" lon="4.55987">
        <ele>528</ele>
        <time>2022-06-26T13:10:18Z</time>
      </trkpt>
      <trkpt lat="45.73044" lon="4.55985">
        <ele>528.2</ele>
        <time>2022-06-26T13:10:19Z</time>
      </trkpt>
      <trkpt lat="45.73042" lon="4.55984">
        <ele>528.6</ele>
        <time>2022-06-26T13:10:20Z</time>
      </trkpt>
      <trkpt lat="45.7304" lon="4.55981">
        <ele>528.6</ele>
        <time>2022-06-26T13:10:21Z</time>
      </trkpt>
      <trkpt lat="45.73038" lon="4.55979">
        <ele>528.8</ele>
        <time>2022-06-26T13:10:22Z</time>
      </trkpt>
      <trkpt lat="45.73036" lon="4.55977">
        <ele>529</ele>
        <time>2022-06-26T13:10:23Z</time>
      </trkpt>
      <trkpt lat="45.73035" lon="4.55976">
        <ele>529.4</ele>
        <time>2022-06-26T13:10:24Z</time>
      </trkpt>
      <trkpt lat="45.73033" lon="4.55974">
        <ele>529.4</ele>
        <time>2022-06-26T13:10:25Z</time>
      </trkpt>
      <trkpt lat="45.73032" lon="4.55973">
        <ele>529.8</ele>
        <time>2022-06-26T13:10:26Z</time>
      </trkpt>
      <trkpt lat="45.73031" lon="4.55972">
        <ele>530</ele>
        <time>2022-06-26T13:10:27Z</time>
      </trkpt>
      <trkpt lat="45.73029" lon="4.5597">
        <ele>530</ele>
        <time>2022-06-26T13:10:28Z</time>
      </trkpt>
      <trkpt lat="45.73028" lon="4.55968">
        <ele>530.6</ele>
        <time>2022-06-26T13:10:29Z</time>
      </trkpt>
      <trkpt lat="45.73027" lon="4.55966">
        <ele>530.8</ele>
        <time>2022-06-26T13:10:30Z</time>
      </trkpt>
      <trkpt lat="45.73025" lon="4.55964">
        <ele>530.8</ele>
        <time>2022-06-26T13:10:31Z</time>
      </trkpt>
      <trkpt lat="45.73024" lon="4.55962">
        <ele>531.2</ele>
        <time>2022-06-26T13:10:32Z</time>
      </trkpt>
      <trkpt lat="45.73023" lon="4.5596">
        <ele>531.4</ele>
        <time>2022-06-26T13:10:33Z</time>
      </trkpt>
      <trkpt lat="45.73022" lon="4.55958">
        <ele>531.4</ele>
        <time>2022-06-26T13:10:34Z</time>
      </trkpt>
      <trkpt lat="45.73022" lon="4.55956">
        <ele>531.8</ele>
        <time>2022-06-26T13:10:35Z</time>
      </trkpt>
      <trkpt lat="45.73021" lon="4.55954">
        <ele>531.8</ele>
        <time>2022-06-26T13:10:36Z</time>
      </trkpt>
      <trkpt lat="45.7302" lon="4.55952">
        <ele>532.2</ele>
        <time>2022-06-26T13:10:37Z</time>
      </trkpt>
      <trkpt lat="45.73019" lon="4.5595">
        <ele>532.4</ele>
        <time>2022-06-26T13:10:38Z</time>
      </trkpt>
      <trkpt lat="45.73018" lon="4.55947">
        <ele>532.4</ele>
        <time>2022-06-26T13:10:39Z</time>
      </trkpt>
      <trkpt lat="45.73018" lon="4.55944">
        <ele>532.8</ele>
        <time>2022-06-26T13:10:40Z</time>
      </trkpt>
      <trkpt lat="45.73017" lon="4.55942">
        <ele>532.8</ele>
        <time>2022-06-26T13:10:41Z</time>
      </trkpt>
      <trkpt lat="45.73017" lon="4.55939">
        <ele>533.2</ele>
        <time>2022-06-26T13:10:42Z</time>
      </trkpt>
      <trkpt lat="45.73016" lon="4.55937">
        <ele>533.2</ele>
        <time>2022-06-26T13:10:43Z</time>
      </trkpt>
      <trkpt lat="45.73015" lon="4.55934">
        <ele>533.6</ele>
        <time>2022-06-26T13:10:44Z</time>
      </trkpt>
      <trkpt lat="45.73015" lon="4.55932">
        <ele>534</ele>
        <time>2022-06-26T13:10:45Z</time>
      </trkpt>
      <trkpt lat="45.73014" lon="4.5593">
        <ele>534.2</ele>
        <time>2022-06-26T13:10:46Z</time>
      </trkpt>
      <trkpt lat="45.73014" lon="4.55927">
        <ele>534.2</ele>
        <time>2022-06-26T13:10:47Z</time>
      </trkpt>
      <trkpt lat="45.73014" lon="4.55925">
        <ele>534.6</ele>
        <time>2022-06-26T13:10:48Z</time>
      </trkpt>
      <trkpt lat="45.73013" lon="4.55923">
        <ele>534.6</ele>
        <time>2022-06-26T13:10:49Z</time>
      </trkpt>
      <trkpt lat="45.73013" lon="4.5592">
        <ele>535</ele>
        <time>2022-06-26T13:10:50Z</time>
      </trkpt>
      <trkpt lat="45.73013" lon="4.55918">
        <ele>535.2</ele>
        <time>2022-06-26T13:10:51Z</time>
      </trkpt>
      <trkpt lat="45.73013" lon="4.55916">
        <ele>535.4</ele>
        <time>2022-06-26T13:10:52Z</time>
      </trkpt>
      <trkpt lat="45.73012" lon="4.55914">
        <ele>535.4</ele>
        <time>2022-06-26T13:10:53Z</time>
      </trkpt>
      <trkpt lat="45.73012" lon="4.55911">
        <ele>535.8</ele>
        <time>2022-06-26T13:10:54Z</time>
      </trkpt>
      <trkpt lat="45.73012" lon="4.55909">
        <ele>535.8</ele>
        <time>2022-06-26T13:10:55Z</time>
      </trkpt>
      <trkpt lat="45.73011" lon="4.55907">
        <ele>536</ele>
        <time>2022-06-26T13:10:56Z</time>
      </trkpt>
      <trkpt lat="45.73011" lon="4.55905">
        <ele>536</ele>
        <time>2022-06-26T13:10:57Z</time>
      </trkpt>
      <trkpt lat="45.73011" lon="4.55902">
        <ele>536.4</ele>
        <time>2022-06-26T13:10:58Z</time>
      </trkpt>
      <trkpt lat="45.73011" lon="4.559">
        <ele>536.6</ele>
        <time>2022-06-26T13:10:59Z</time>
      </trkpt>
      <trkpt lat="45.73011" lon="4.55898">
        <ele>536.6</ele>
        <time>2022-06-26T13:11:00Z</time>
      </trkpt>
      <trkpt lat="45.73011" lon="4.55895">
        <ele>536.8</ele>
        <time>2022-06-26T13:11:01Z</time>
      </trkpt>
      <trkpt lat="45.73012" lon="4.55893">
        <ele>537.2</ele>
        <time>2022-06-26T13:11:02Z</time>
      </trkpt>
      <trkpt lat="45.73013" lon="4.55891">
        <ele>537.4</ele>
        <time>2022-06-26T13:11:03Z</time>
      </trkpt>
      <trkpt lat="45.73014" lon="4.5589">
        <ele>537.4</ele>
        <time>2022-06-26T13:11:04Z</time>
      </trkpt>
      <trkpt lat="45.73015" lon="4.55888">
        <ele>537.6</ele>
        <time>2022-06-26T13:11:05Z</time>
      </trkpt>
      <trkpt lat="45.73016" lon="4.55887">
        <ele>537.6</ele>
        <time>2022-06-26T13:11:06Z</time>
      </trkpt>
      <trkpt lat="45.73018" lon="4.55886">
        <ele>538</ele>
        <time>2022-06-26T13:11:07Z</time>
      </trkpt>
      <trkpt lat="45.73019" lon="4.55886">
        <ele>538.2</ele>
        <time>2022-06-26T13:11:08Z</time>
      </trkpt>
      <trkpt lat="45.73021" lon="4.55886">
        <ele>538.2</ele>
        <time>2022-06-26T13:11:09Z</time>
      </trkpt>
      <trkpt lat="45.73022" lon="4.55886">
        <ele>538.6</ele>
        <time>2022-06-26T13:11:10Z</time>
      </trkpt>
      <trkpt lat="45.73024" lon="4.55887">
        <ele>538.6</ele>
        <time>2022-06-26T13:11:11Z</time>
      </trkpt>
      <trkpt lat="45.73025" lon="4.55888">
        <ele>539</ele>
        <time>2022-06-26T13:11:12Z</time>
      </trkpt>
      <trkpt lat="45.73027" lon="4.55888">
        <ele>539</ele>
        <time>2022-06-26T13:11:13Z</time>
      </trkpt>
      <trkpt lat="45.73028" lon="4.55889">
        <ele>539.4</ele>
        <time>2022-06-26T13:11:14Z</time>
      </trkpt>
      <trkpt lat="45.73029" lon="4.5589">
        <ele>539.4</ele>
        <time>2022-06-26T13:11:15Z</time>
      </trkpt>
      <trkpt lat="45.73031" lon="4.55891">
        <ele>539.6</ele>
        <time>2022-06-26T13:11:16Z</time>
      </trkpt>
      <trkpt lat="45.73032" lon="4.55892">
        <ele>539.6</ele>
        <time>2022-06-26T13:11:17Z</time>
      </trkpt>
      <trkpt lat="45.73034" lon="4.55893">
        <ele>540</ele>
        <time>2022-06-26T13:11:18Z</time>
      </trkpt>
      <trkpt lat="45.73035" lon="4.55894">
        <ele>540</ele>
        <time>2022-06-26T13:11:19Z</time>
      </trkpt>
      <trkpt lat="45.73036" lon="4.55895">
        <ele>540.2</ele>
        <time>2022-06-26T13:11:20Z</time>
      </trkpt>
      <trkpt lat="45.73038" lon="4.55896">
        <ele>540.2</ele>
        <time>2022-06-26T13:11:21Z</time>
      </trkpt>
      <trkpt lat="45.73039" lon="4.55897">
        <ele>540.6</ele>
        <time>2022-06-26T13:11:22Z</time>
      </trkpt>
      <trkpt lat="45.73041" lon="4.55897">
        <ele>540.6</ele>
        <time>2022-06-26T13:11:23Z</time>
      </trkpt>
      <trkpt lat="45.73042" lon="4.55899">
        <ele>540.8</ele>
        <time>2022-06-26T13:11:24Z</time>
      </trkpt>
      <trkpt lat="45.73043" lon="4.559">
        <ele>540.8</ele>
        <time>2022-06-26T13:11:25Z</time>
      </trkpt>
      <trkpt lat="45.73045" lon="4.55901">
        <ele>541.2</ele>
        <time>2022-06-26T13:11:26Z</time>
      </trkpt>
      <trkpt lat="45.73046" lon="4.55901">
        <ele>541.2</ele>
        <time>2022-06-26T13:11:27Z</time>
      </trkpt>
      <trkpt lat="45.73048" lon="4.55902">
        <ele>541.4</ele>
        <time>2022-06-26T13:11:28Z</time>
      </trkpt>
      <trkpt lat="45.7305" lon="4.55902">
        <ele>541.4</ele>
        <time>2022-06-26T13:11:29Z</time>
      </trkpt>
      <trkpt lat="45.73051" lon="4.55903">
        <ele>541.6</ele>
        <time>2022-06-26T13:11:30Z</time>
      </trkpt>
      <trkpt lat="45.73052" lon="4.55904">
        <ele>541.6</ele>
        <time>2022-06-26T13:11:31Z</time>
      </trkpt>
      <trkpt lat="45.73054" lon="4.55906">
        <ele>541.8</ele>
        <time>2022-06-26T13:11:32Z</time>
      </trkpt>
      <trkpt lat="45.73055" lon="4.55907">
        <ele>541.8</ele>
        <time>2022-06-26T13:11:33Z</time>
      </trkpt>
      <trkpt lat="45.73056" lon="4.55908">
        <ele>542.2</ele>
        <time>2022-06-26T13:11:34Z</time>
      </trkpt>
      <trkpt lat="45.73058" lon="4.55909">
        <ele>542.4</ele>
        <time>2022-06-26T13:11:35Z</time>
      </trkpt>
      <trkpt lat="45.73059" lon="4.5591">
        <ele>542.4</ele>
        <time>2022-06-26T13:11:36Z</time>
      </trkpt>
      <trkpt lat="45.73061" lon="4.5591">
        <ele>542.6</ele>
        <time>2022-06-26T13:11:37Z</time>
      </trkpt>
      <trkpt lat="45.73062" lon="4.5591">
        <ele>542.6</ele>
        <time>2022-06-26T13:11:38Z</time>
      </trkpt>
      <trkpt lat="45.73064" lon="4.55911">
        <ele>542.8</ele>
        <time>2022-06-26T13:11:39Z</time>
      </trkpt>
      <trkpt lat="45.73065" lon="4.55911">
        <ele>543</ele>
        <time>2022-06-26T13:11:40Z</time>
      </trkpt>
      <trkpt lat="45.73067" lon="4.55912">
        <ele>543</ele>
        <time>2022-06-26T13:11:41Z</time>
      </trkpt>
      <trkpt lat="45.73068" lon="4.55912">
        <ele>543.4</ele>
        <time>2022-06-26T13:11:42Z</time>
      </trkpt>
      <trkpt lat="45.7307" lon="4.55913">
        <ele>543.4</ele>
        <time>2022-06-26T13:11:43Z</time>
      </trkpt>
      <trkpt lat="45.73071" lon="4.55913">
        <ele>543.8</ele>
        <time>2022-06-26T13:11:44Z</time>
      </trkpt>
      <trkpt lat="45.73073" lon="4.55914">
        <ele>544</ele>
        <time>2022-06-26T13:11:45Z</time>
      </trkpt>
      <trkpt lat="45.73074" lon="4.55915">
        <ele>544</ele>
        <time>2022-06-26T13:11:46Z</time>
      </trkpt>
      <trkpt lat="45.73076" lon="4.55917">
        <ele>544.2</ele>
        <time>2022-06-26T13:11:47Z</time>
      </trkpt>
      <trkpt lat="45.73077" lon="4.55918">
        <ele>544.2</ele>
        <time>2022-06-26T13:11:48Z</time>
      </trkpt>
      <trkpt lat="45.73079" lon="4.5592">
        <ele>544.6</ele>
        <time>2022-06-26T13:11:49Z</time>
      </trkpt>
      <trkpt lat="45.7308" lon="4.55921">
        <ele>544.6</ele>
        <time>2022-06-26T13:11:50Z</time>
      </trkpt>
      <trkpt lat="45.73082" lon="4.55921">
        <ele>545</ele>
        <time>2022-06-26T13:11:51Z</time>
      </trkpt>
      <trkpt lat="45.73083" lon="4.55922">
        <ele>545</ele>
        <time>2022-06-26T13:11:52Z</time>
      </trkpt>
      <trkpt lat="45.73085" lon="4.55923">
        <ele>545.2</ele>
        <time>2022-06-26T13:11:53Z</time>
      </trkpt>
      <trkpt lat="45.73086" lon="4.55924">
        <ele>545.2</ele>
        <time>2022-06-26T13:11:54Z</time>
      </trkpt>
      <trkpt lat="45.73088" lon="4.55925">
        <ele>545.6</ele>
        <time>2022-06-26T13:11:55Z</time>
      </trkpt>
      <trkpt lat="45.73089" lon="4.55926">
        <ele>545.6</ele>
        <time>2022-06-26T13:11:56Z</time>
      </trkpt>
      <trkpt lat="45.73091" lon="4.55927">
        <ele>545.8</ele>
        <time>2022-06-26T13:11:57Z</time>
      </trkpt>
      <trkpt lat="45.73092" lon="4.55928">
        <ele>546</ele>
        <time>2022-06-26T13:11:58Z</time>
      </trkpt>
      <trkpt lat="45.73094" lon="4.55929">
        <ele>546</ele>
        <time>2022-06-26T13:11:59Z</time>
      </trkpt>
      <trkpt lat="45.73095" lon="4.55929">
        <ele>546.4</ele>
        <time>2022-06-26T13:12:00Z</time>
      </trkpt>
      <trkpt lat="45.73097" lon="4.5593">
        <ele>546.6</ele>
        <time>2022-06-26T13:12:01Z</time>
      </trkpt>
      <trkpt lat="45.73099" lon="4.55931">
        <ele>546.6</ele>
        <time>2022-06-26T13:12:02Z</time>
      </trkpt>
      <trkpt lat="45.731" lon="4.55932">
        <ele>547</ele>
        <time>2022-06-26T13:12:03Z</time>
      </trkpt>
      <trkpt lat="45.73102" lon="4.55933">
        <ele>547</ele>
        <time>2022-06-26T13:12:04Z</time>
      </trkpt>
      <trkpt lat="45.73103" lon="4.55933">
        <ele>547.2</ele>
        <time>2022-06-26T13:12:05Z</time>
      </trkpt>
      <trkpt lat="45.73105" lon="4.55934">
        <ele>547.2</ele>
        <time>2022-06-26T13:12:06Z</time>
      </trkpt>
      <trkpt lat="45.73106" lon="4.55934">
        <ele>547.6</ele>
        <time>2022-06-26T13:12:07Z</time>
      </trkpt>
      <trkpt lat="45.73108" lon="4.55934">
        <ele>547.6</ele>
        <time>2022-06-26T13:12:08Z</time>
      </trkpt>
      <trkpt lat="45.7311" lon="4.55934">
        <ele>547.8</ele>
        <time>2022-06-26T13:12:09Z</time>
      </trkpt>
      <trkpt lat="45.73111" lon="4.55932">
        <ele>547.8</ele>
        <time>2022-06-26T13:12:10Z</time>
      </trkpt>
      <trkpt lat="45.73112" lon="4.5593">
        <ele>548.2</ele>
        <time>2022-06-26T13:12:11Z</time>
      </trkpt>
      <trkpt lat="45.73113" lon="4.55928">
        <ele>548.2</ele>
        <time>2022-06-26T13:12:12Z</time>
      </trkpt>
      <trkpt lat="45.73113" lon="4.55926">
        <ele>548.6</ele>
        <time>2022-06-26T13:12:13Z</time>
      </trkpt>
      <trkpt lat="45.73113" lon="4.55923">
        <ele>548.6</ele>
        <time>2022-06-26T13:12:14Z</time>
      </trkpt>
      <trkpt lat="45.73112" lon="4.55921">
        <ele>548.8</ele>
        <time>2022-06-26T13:12:15Z</time>
      </trkpt>
      <trkpt lat="45.73112" lon="4.55919">
        <ele>548.8</ele>
        <time>2022-06-26T13:12:16Z</time>
      </trkpt>
      <trkpt lat="45.73111" lon="4.55917">
        <ele>549</ele>
        <time>2022-06-26T13:12:17Z</time>
      </trkpt>
      <trkpt lat="45.7311" lon="4.55915">
        <ele>549</ele>
        <time>2022-06-26T13:12:18Z</time>
      </trkpt>
      <trkpt lat="45.73109" lon="4.55914">
        <ele>549.4</ele>
        <time>2022-06-26T13:12:19Z</time>
      </trkpt>
      <trkpt lat="45.73108" lon="4.55912">
        <ele>549.4</ele>
        <time>2022-06-26T13:12:20Z</time>
      </trkpt>
      <trkpt lat="45.73107" lon="4.5591">
        <ele>549.8</ele>
        <time>2022-06-26T13:12:21Z</time>
      </trkpt>
      <trkpt lat="45.73106" lon="4.55908">
        <ele>550</ele>
        <time>2022-06-26T13:12:22Z</time>
      </trkpt>
      <trkpt lat="45.73105" lon="4.55906">
        <ele>550</ele>
        <time>2022-06-26T13:12:23Z</time>
      </trkpt>
      <trkpt lat="45.73104" lon="4.55905">
        <ele>550.4</ele>
        <time>2022-06-26T13:12:24Z</time>
      </trkpt>
      <trkpt lat="45.73103" lon="4.55904">
        <ele>550.6</ele>
        <time>2022-06-26T13:12:25Z</time>
      </trkpt>
      <trkpt lat="45.73101" lon="4.55902">
        <ele>550.6</ele>
        <time>2022-06-26T13:12:26Z</time>
      </trkpt>
      <trkpt lat="45.731" lon="4.55901">
        <ele>551</ele>
        <time>2022-06-26T13:12:27Z</time>
      </trkpt>
      <trkpt lat="45.73099" lon="4.559">
        <ele>551.2</ele>
        <time>2022-06-26T13:12:28Z</time>
      </trkpt>
      <trkpt lat="45.73098" lon="4.55899">
        <ele>551.2</ele>
        <time>2022-06-26T13:12:29Z</time>
      </trkpt>
      <trkpt lat="45.73096" lon="4.55897">
        <ele>551.4</ele>
        <time>2022-06-26T13:12:30Z</time>
      </trkpt>
      <trkpt lat="45.73095" lon="4.55896">
        <ele>551.6</ele>
        <time>2022-06-26T13:12:31Z</time>
      </trkpt>
      <trkpt lat="45.73094" lon="4.55894">
        <ele>551.6</ele>
        <time>2022-06-26T13:12:32Z</time>
      </trkpt>
      <trkpt lat="45.73093" lon="4.55892">
        <ele>552</ele>
        <time>2022-06-26T13:12:33Z</time>
      </trkpt>
      <trkpt lat="45.73091" lon="4.5589">
        <ele>552</ele>
        <time>2022-06-26T13:12:34Z</time>
      </trkpt>
      <trkpt lat="45.7309" lon="4.55889">
        <ele>552.2</ele>
        <time>2022-06-26T13:12:35Z</time>
      </trkpt>
      <trkpt lat="45.73088" lon="4.55887">
        <ele>552.4</ele>
        <time>2022-06-26T13:12:36Z</time>
      </trkpt>
      <trkpt lat="45.73087" lon="4.55886">
        <ele>552.4</ele>
        <time>2022-06-26T13:12:37Z</time>
      </trkpt>
      <trkpt lat="45.73086" lon="4.55884">
        <ele>552.8</ele>
        <time>2022-06-26T13:12:38Z</time>
      </trkpt>
      <trkpt lat="45.73084" lon="4.55883">
        <ele>552.8</ele>
        <time>2022-06-26T13:12:39Z</time>
      </trkpt>
      <trkpt lat="45.73083" lon="4.55881">
        <ele>553</ele>
        <time>2022-06-26T13:12:40Z</time>
      </trkpt>
      <trkpt lat="45.73082" lon="4.5588">
        <ele>553</ele>
        <time>2022-06-26T13:12:41Z</time>
      </trkpt>
      <trkpt lat="45.7308" lon="4.55878">
        <ele>553.4</ele>
        <time>2022-06-26T13:12:42Z</time>
      </trkpt>
      <trkpt lat="45.73079" lon="4.55876">
        <ele>553.4</ele>
        <time>2022-06-26T13:12:43Z</time>
      </trkpt>
      <trkpt lat="45.73078" lon="4.55874">
        <ele>553.8</ele>
        <time>2022-06-26T13:12:44Z</time>
      </trkpt>
      <trkpt lat="45.73077" lon="4.55872">
        <ele>553.8</ele>
        <time>2022-06-26T13:12:45Z</time>
      </trkpt>
      <trkpt lat="45.73075" lon="4.55871">
        <ele>554</ele>
        <time>2022-06-26T13:12:46Z</time>
      </trkpt>
      <trkpt lat="45.73074" lon="4.55869">
        <ele>554.2</ele>
        <time>2022-06-26T13:12:47Z</time>
      </trkpt>
      <trkpt lat="45.73073" lon="4.55867">
        <ele>554.2</ele>
        <time>2022-06-26T13:12:48Z</time>
      </trkpt>
      <trkpt lat="45.73072" lon="4.55866">
        <ele>554.6</ele>
        <time>2022-06-26T13:12:49Z</time>
      </trkpt>
      <trkpt lat="45.7307" lon="4.55864">
        <ele>554.6</ele>
        <time>2022-06-26T13:12:50Z</time>
      </trkpt>
      <trkpt lat="45.73069" lon="4.55862">
        <ele>555</ele>
        <time>2022-06-26T13:12:51Z</time>
      </trkpt>
      <trkpt lat="45.73068" lon="4.5586">
        <ele>555</ele>
        <time>2022-06-26T13:12:52Z</time>
      </trkpt>
      <trkpt lat="45.73066" lon="4.55859">
        <ele>555.4</ele>
        <time>2022-06-26T13:12:53Z</time>
      </trkpt>
      <trkpt lat="45.73065" lon="4.55857">
        <ele>555.4</ele>
        <time>2022-06-26T13:12:54Z</time>
      </trkpt>
      <trkpt lat="45.73064" lon="4.55855">
        <ele>555.6</ele>
        <time>2022-06-26T13:12:55Z</time>
      </trkpt>
      <trkpt lat="45.73063" lon="4.55854">
        <ele>555.6</ele>
        <time>2022-06-26T13:12:56Z</time>
      </trkpt>
      <trkpt lat="45.73062" lon="4.55852">
        <ele>556</ele>
        <time>2022-06-26T13:12:57Z</time>
      </trkpt>
      <trkpt lat="45.7306" lon="4.55851">
        <ele>556.2</ele>
        <time>2022-06-26T13:12:58Z</time>
      </trkpt>
      <trkpt lat="45.73059" lon="4.55849">
        <ele>556.2</ele>
        <time>2022-06-26T13:12:59Z</time>
      </trkpt>
      <trkpt lat="45.73058" lon="4.55847">
        <ele>556.4</ele>
        <time>2022-06-26T13:13:00Z</time>
      </trkpt>
      <trkpt lat="45.73057" lon="4.55846">
        <ele>556.4</ele>
        <time>2022-06-26T13:13:01Z</time>
      </trkpt>
      <trkpt lat="45.73056" lon="4.55844">
        <ele>556.8</ele>
        <time>2022-06-26T13:13:02Z</time>
      </trkpt>
      <trkpt lat="45.73055" lon="4.55843">
        <ele>556.8</ele>
        <time>2022-06-26T13:13:03Z</time>
      </trkpt>
      <trkpt lat="45.73053" lon="4.55841">
        <ele>557</ele>
        <time>2022-06-26T13:13:04Z</time>
      </trkpt>
      <trkpt lat="45.73052" lon="4.5584">
        <ele>557</ele>
        <time>2022-06-26T13:13:05Z</time>
      </trkpt>
      <trkpt lat="45.73051" lon="4.55838">
        <ele>557.4</ele>
        <time>2022-06-26T13:13:06Z</time>
      </trkpt>
      <trkpt lat="45.7305" lon="4.55836">
        <ele>557.4</ele>
        <time>2022-06-26T13:13:07Z</time>
      </trkpt>
      <trkpt lat="45.73049" lon="4.55834">
        <ele>557.8</ele>
        <time>2022-06-26T13:13:08Z</time>
      </trkpt>
      <trkpt lat="45.73048" lon="4.55833">
        <ele>557.8</ele>
        <time>2022-06-26T13:13:09Z</time>
      </trkpt>
      <trkpt lat="45.73047" lon="4.55831">
        <ele>558.2</ele>
        <time>2022-06-26T13:13:10Z</time>
      </trkpt>
      <trkpt lat="45.73046" lon="4.55829">
        <ele>558.2</ele>
        <time>2022-06-26T13:13:11Z</time>
      </trkpt>
      <trkpt lat="45.73044" lon="4.55828">
        <ele>558.4</ele>
        <time>2022-06-26T13:13:12Z</time>
      </trkpt>
      <trkpt lat="45.73043" lon="4.55826">
        <ele>558.4</ele>
        <time>2022-06-26T13:13:13Z</time>
      </trkpt>
      <trkpt lat="45.73042" lon="4.55824">
        <ele>558.8</ele>
        <time>2022-06-26T13:13:14Z</time>
      </trkpt>
      <trkpt lat="45.73041" lon="4.55822">
        <ele>559</ele>
        <time>2022-06-26T13:13:15Z</time>
      </trkpt>
      <trkpt lat="45.7304" lon="4.5582">
        <ele>559</ele>
        <time>2022-06-26T13:13:16Z</time>
      </trkpt>
      <trkpt lat="45.73039" lon="4.55818">
        <ele>559.4</ele>
        <time>2022-06-26T13:13:17Z</time>
      </trkpt>
      <trkpt lat="45.73038" lon="4.55816">
        <ele>559.6</ele>
        <time>2022-06-26T13:13:18Z</time>
      </trkpt>
      <trkpt lat="45.73037" lon="4.55814">
        <ele>559.8</ele>
        <time>2022-06-26T13:13:19Z</time>
      </trkpt>
      <trkpt lat="45.73036" lon="4.55812">
        <ele>560</ele>
        <time>2022-06-26T13:13:20Z</time>
      </trkpt>
      <trkpt lat="45.73034" lon="4.5581">
        <ele>560</ele>
        <time>2022-06-26T13:13:21Z</time>
      </trkpt>
      <trkpt lat="45.73034" lon="4.55808">
        <ele>560.4</ele>
        <time>2022-06-26T13:13:22Z</time>
      </trkpt>
      <trkpt lat="45.73032" lon="4.55806">
        <ele>560.4</ele>
        <time>2022-06-26T13:13:23Z</time>
      </trkpt>
      <trkpt lat="45.73031" lon="4.55804">
        <ele>560.8</ele>
        <time>2022-06-26T13:13:24Z</time>
      </trkpt>
      <trkpt lat="45.73031" lon="4.55802">
        <ele>560.8</ele>
        <time>2022-06-26T13:13:25Z</time>
      </trkpt>
      <trkpt lat="45.7303" lon="4.558">
        <ele>561</ele>
        <time>2022-06-26T13:13:26Z</time>
      </trkpt>
      <trkpt lat="45.73028" lon="4.55799">
        <ele>561.2</ele>
        <time>2022-06-26T13:13:27Z</time>
      </trkpt>
      <trkpt lat="45.73028" lon="4.55797">
        <ele>561.6</ele>
        <time>2022-06-26T13:13:28Z</time>
      </trkpt>
      <trkpt lat="45.73027" lon="4.55795">
        <ele>561.8</ele>
        <time>2022-06-26T13:13:29Z</time>
      </trkpt>
      <trkpt lat="45.73026" lon="4.55793">
        <ele>562</ele>
        <time>2022-06-26T13:13:30Z</time>
      </trkpt>
      <trkpt lat="45.73025" lon="4.55791">
        <ele>562.2</ele>
        <time>2022-06-26T13:13:31Z</time>
      </trkpt>
      <trkpt lat="45.73024" lon="4.55789">
        <ele>562.2</ele>
        <time>2022-06-26T13:13:32Z</time>
      </trkpt>
      <trkpt lat="45.73024" lon="4.55787">
        <ele>562.6</ele>
        <time>2022-06-26T13:13:33Z</time>
      </trkpt>
      <trkpt lat="45.73023" lon="4.55785">
        <ele>562.6</ele>
        <time>2022-06-26T13:13:34Z</time>
      </trkpt>
      <trkpt lat="45.73022" lon="4.55783">
        <ele>563</ele>
        <time>2022-06-26T13:13:35Z</time>
      </trkpt>
      <trkpt lat="45.73021" lon="4.55781">
        <ele>563</ele>
        <time>2022-06-26T13:13:36Z</time>
      </trkpt>
      <trkpt lat="45.7302" lon="4.55779">
        <ele>563.4</ele>
        <time>2022-06-26T13:13:37Z</time>
      </trkpt>
      <trkpt lat="45.7302" lon="4.55777">
        <ele>563.4</ele>
        <time>2022-06-26T13:13:38Z</time>
      </trkpt>
      <trkpt lat="45.73019" lon="4.55775">
        <ele>563.6</ele>
        <time>2022-06-26T13:13:39Z</time>
      </trkpt>
      <trkpt lat="45.73018" lon="4.55773">
        <ele>563.6</ele>
        <time>2022-06-26T13:13:40Z</time>
      </trkpt>
      <trkpt lat="45.73017" lon="4.55771">
        <ele>564</ele>
        <time>2022-06-26T13:13:41Z</time>
      </trkpt>
      <trkpt lat="45.73016" lon="4.5577">
        <ele>564</ele>
        <time>2022-06-26T13:13:42Z</time>
      </trkpt>
      <trkpt lat="45.73015" lon="4.55768">
        <ele>564.4</ele>
        <time>2022-06-26T13:13:43Z</time>
      </trkpt>
      <trkpt lat="45.73015" lon="4.55766">
        <ele>564.4</ele>
        <time>2022-06-26T13:13:44Z</time>
      </trkpt>
      <trkpt lat="45.73014" lon="4.55764">
        <ele>564.6</ele>
        <time>2022-06-26T13:13:45Z</time>
      </trkpt>
      <trkpt lat="45.73013" lon="4.55762">
        <ele>564.6</ele>
        <time>2022-06-26T13:13:46Z</time>
      </trkpt>
      <trkpt lat="45.73012" lon="4.5576">
        <ele>565</ele>
        <time>2022-06-26T13:13:47Z</time>
      </trkpt>
      <trkpt lat="45.73011" lon="4.55759">
        <ele>565</ele>
        <time>2022-06-26T13:13:48Z</time>
      </trkpt>
      <trkpt lat="45.73011" lon="4.55757">
        <ele>565.4</ele>
        <time>2022-06-26T13:13:49Z</time>
      </trkpt>
      <trkpt lat="45.7301" lon="4.55755">
        <ele>565.4</ele>
        <time>2022-06-26T13:13:50Z</time>
      </trkpt>
      <trkpt lat="45.73009" lon="4.55753">
        <ele>565.6</ele>
        <time>2022-06-26T13:13:51Z</time>
      </trkpt>
      <trkpt lat="45.73008" lon="4.55751">
        <ele>565.6</ele>
        <time>2022-06-26T13:13:52Z</time>
      </trkpt>
      <trkpt lat="45.73007" lon="4.55749">
        <ele>566</ele>
        <time>2022-06-26T13:13:53Z</time>
      </trkpt>
      <trkpt lat="45.73006" lon="4.55747">
        <ele>566</ele>
        <time>2022-06-26T13:13:54Z</time>
      </trkpt>
      <trkpt lat="45.73005" lon="4.55746">
        <ele>566.4</ele>
        <time>2022-06-26T13:13:55Z</time>
      </trkpt>
      <trkpt lat="45.73004" lon="4.55744">
        <ele>566.4</ele>
        <time>2022-06-26T13:13:56Z</time>
      </trkpt>
      <trkpt lat="45.73004" lon="4.55742">
        <ele>566.6</ele>
        <time>2022-06-26T13:13:57Z</time>
      </trkpt>
      <trkpt lat="45.73003" lon="4.5574">
        <ele>567</ele>
        <time>2022-06-26T13:13:58Z</time>
      </trkpt>
      <trkpt lat="45.73002" lon="4.55738">
        <ele>567</ele>
        <time>2022-06-26T13:13:59Z</time>
      </trkpt>
      <trkpt lat="45.73001" lon="4.55736">
        <ele>567.2</ele>
        <time>2022-06-26T13:14:00Z</time>
      </trkpt>
      <trkpt lat="45.73" lon="4.55734">
        <ele>567.2</ele>
        <time>2022-06-26T13:14:01Z</time>
      </trkpt>
      <trkpt lat="45.72999" lon="4.55732">
        <ele>567.6</ele>
        <time>2022-06-26T13:14:02Z</time>
      </trkpt>
      <trkpt lat="45.72998" lon="4.55731">
        <ele>567.6</ele>
        <time>2022-06-26T13:14:03Z</time>
      </trkpt>
      <trkpt lat="45.72997" lon="4.55729">
        <ele>568</ele>
        <time>2022-06-26T13:14:04Z</time>
      </trkpt>
      <trkpt lat="45.72996" lon="4.55727">
        <ele>568</ele>
        <time>2022-06-26T13:14:05Z</time>
      </trkpt>
      <trkpt lat="45.72995" lon="4.55725">
        <ele>568.4</ele>
        <time>2022-06-26T13:14:06Z</time>
      </trkpt>
      <trkpt lat="45.72994" lon="4.55724">
        <ele>568.6</ele>
        <time>2022-06-26T13:14:07Z</time>
      </trkpt>
      <trkpt lat="45.72993" lon="4.55722">
        <ele>568.8</ele>
        <time>2022-06-26T13:14:08Z</time>
      </trkpt>
      <trkpt lat="45.72992" lon="4.5572">
        <ele>568.8</ele>
        <time>2022-06-26T13:14:09Z</time>
      </trkpt>
      <trkpt lat="45.72991" lon="4.55719">
        <ele>569</ele>
        <time>2022-06-26T13:14:10Z</time>
      </trkpt>
      <trkpt lat="45.7299" lon="4.55717">
        <ele>569</ele>
        <time>2022-06-26T13:14:11Z</time>
      </trkpt>
      <trkpt lat="45.72989" lon="4.55715">
        <ele>569.4</ele>
        <time>2022-06-26T13:14:12Z</time>
      </trkpt>
      <trkpt lat="45.72988" lon="4.55713">
        <ele>569.4</ele>
        <time>2022-06-26T13:14:13Z</time>
      </trkpt>
      <trkpt lat="45.72987" lon="4.55711">
        <ele>569.8</ele>
        <time>2022-06-26T13:14:14Z</time>
      </trkpt>
      <trkpt lat="45.72986" lon="4.55709">
        <ele>569.8</ele>
        <time>2022-06-26T13:14:15Z</time>
      </trkpt>
      <trkpt lat="45.72985" lon="4.55708">
        <ele>570</ele>
        <time>2022-06-26T13:14:16Z</time>
      </trkpt>
      <trkpt lat="45.72984" lon="4.55706">
        <ele>570</ele>
        <time>2022-06-26T13:14:17Z</time>
      </trkpt>
      <trkpt lat="45.72983" lon="4.55704">
        <ele>570.2</ele>
        <time>2022-06-26T13:14:18Z</time>
      </trkpt>
      <trkpt lat="45.72982" lon="4.55703">
        <ele>570.2</ele>
        <time>2022-06-26T13:14:19Z</time>
      </trkpt>
      <trkpt lat="45.72981" lon="4.55701">
        <ele>570.6</ele>
        <time>2022-06-26T13:14:20Z</time>
      </trkpt>
      <trkpt lat="45.72981" lon="4.55699">
        <ele>570.6</ele>
        <time>2022-06-26T13:14:21Z</time>
      </trkpt>
      <trkpt lat="45.7298" lon="4.55697">
        <ele>571</ele>
        <time>2022-06-26T13:14:22Z</time>
      </trkpt>
      <trkpt lat="45.72979" lon="4.55695">
        <ele>571.2</ele>
        <time>2022-06-26T13:14:23Z</time>
      </trkpt>
      <trkpt lat="45.72978" lon="4.55693">
        <ele>571.2</ele>
        <time>2022-06-26T13:14:24Z</time>
      </trkpt>
      <trkpt lat="45.72977" lon="4.55691">
        <ele>571.4</ele>
        <time>2022-06-26T13:14:25Z</time>
      </trkpt>
      <trkpt lat="45.72977" lon="4.55688">
        <ele>571.4</ele>
        <time>2022-06-26T13:14:26Z</time>
      </trkpt>
      <trkpt lat="45.72976" lon="4.55686">
        <ele>571.8</ele>
        <time>2022-06-26T13:14:27Z</time>
      </trkpt>
      <trkpt lat="45.72975" lon="4.55685">
        <ele>571.8</ele>
        <time>2022-06-26T13:14:28Z</time>
      </trkpt>
      <trkpt lat="45.72974" lon="4.55683">
        <ele>572.2</ele>
        <time>2022-06-26T13:14:29Z</time>
      </trkpt>
      <trkpt lat="45.72973" lon="4.55681">
        <ele>572.4</ele>
        <time>2022-06-26T13:14:30Z</time>
      </trkpt>
      <trkpt lat="45.72972" lon="4.55679">
        <ele>572.6</ele>
        <time>2022-06-26T13:14:31Z</time>
      </trkpt>
      <trkpt lat="45.72971" lon="4.55677">
        <ele>572.6</ele>
        <time>2022-06-26T13:14:32Z</time>
      </trkpt>
      <trkpt lat="45.72971" lon="4.55675">
        <ele>573</ele>
        <time>2022-06-26T13:14:33Z</time>
      </trkpt>
      <trkpt lat="45.7297" lon="4.55673">
        <ele>573</ele>
        <time>2022-06-26T13:14:34Z</time>
      </trkpt>
      <trkpt lat="45.7297" lon="4.55671">
        <ele>573.2</ele>
        <time>2022-06-26T13:14:35Z</time>
      </trkpt>
      <trkpt lat="45.72969" lon="4.55668">
        <ele>573.2</ele>
        <time>2022-06-26T13:14:36Z</time>
      </trkpt>
      <trkpt lat="45.72968" lon="4.55666">
        <ele>573.4</ele>
        <time>2022-06-26T13:14:37Z</time>
      </trkpt>
      <trkpt lat="45.72968" lon="4.55664">
        <ele>573.4</ele>
        <time>2022-06-26T13:14:38Z</time>
      </trkpt>
      <trkpt lat="45.72967" lon="4.55662">
        <ele>573.8</ele>
        <time>2022-06-26T13:14:39Z</time>
      </trkpt>
      <trkpt lat="45.72966" lon="4.5566">
        <ele>573.8</ele>
        <time>2022-06-26T13:14:40Z</time>
      </trkpt>
      <trkpt lat="45.72965" lon="4.55658">
        <ele>574</ele>
        <time>2022-06-26T13:14:41Z</time>
      </trkpt>
      <trkpt lat="45.72964" lon="4.55656">
        <ele>574</ele>
        <time>2022-06-26T13:14:42Z</time>
      </trkpt>
      <trkpt lat="45.72964" lon="4.55654">
        <ele>574.4</ele>
        <time>2022-06-26T13:14:43Z</time>
      </trkpt>
      <trkpt lat="45.72963" lon="4.55652">
        <ele>574.4</ele>
        <time>2022-06-26T13:14:44Z</time>
      </trkpt>
      <trkpt lat="45.72963" lon="4.5565">
        <ele>574.6</ele>
        <time>2022-06-26T13:14:45Z</time>
      </trkpt>
      <trkpt lat="45.72962" lon="4.55648">
        <ele>574.8</ele>
        <time>2022-06-26T13:14:46Z</time>
      </trkpt>
      <trkpt lat="45.72962" lon="4.55645">
        <ele>574.8</ele>
        <time>2022-06-26T13:14:47Z</time>
      </trkpt>
      <trkpt lat="45.72961" lon="4.55643">
        <ele>575.2</ele>
        <time>2022-06-26T13:14:48Z</time>
      </trkpt>
      <trkpt lat="45.7296" lon="4.55641">
        <ele>575.2</ele>
        <time>2022-06-26T13:14:49Z</time>
      </trkpt>
      <trkpt lat="45.7296" lon="4.55639">
        <ele>575.6</ele>
        <time>2022-06-26T13:14:50Z</time>
      </trkpt>
      <trkpt lat="45.72959" lon="4.55637">
        <ele>575.6</ele>
        <time>2022-06-26T13:14:51Z</time>
      </trkpt>
      <trkpt lat="45.72958" lon="4.55635">
        <ele>576</ele>
        <time>2022-06-26T13:14:52Z</time>
      </trkpt>
      <trkpt lat="45.72957" lon="4.55634">
        <ele>576.2</ele>
        <time>2022-06-26T13:14:53Z</time>
      </trkpt>
      <trkpt lat="45.72956" lon="4.55632">
        <ele>576.2</ele>
        <time>2022-06-26T13:14:54Z</time>
      </trkpt>
      <trkpt lat="45.72955" lon="4.5563">
        <ele>576.4</ele>
        <time>2022-06-26T13:14:55Z</time>
      </trkpt>
      <trkpt lat="45.72954" lon="4.55628">
        <ele>576.6</ele>
        <time>2022-06-26T13:14:56Z</time>
      </trkpt>
      <trkpt lat="45.72953" lon="4.55627">
        <ele>576.6</ele>
        <time>2022-06-26T13:14:57Z</time>
      </trkpt>
      <trkpt lat="45.72952" lon="4.55626">
        <ele>577</ele>
        <time>2022-06-26T13:14:58Z</time>
      </trkpt>
      <trkpt lat="45.72951" lon="4.55624">
        <ele>577</ele>
        <time>2022-06-26T13:14:59Z</time>
      </trkpt>
      <trkpt lat="45.7295" lon="4.55623">
        <ele>577.4</ele>
        <time>2022-06-26T13:15:00Z</time>
      </trkpt>
      <trkpt lat="45.72949" lon="4.55621">
        <ele>577.4</ele>
        <time>2022-06-26T13:15:01Z</time>
      </trkpt>
      <trkpt lat="45.72948" lon="4.5562">
        <ele>577.6</ele>
        <time>2022-06-26T13:15:02Z</time>
      </trkpt>
      <trkpt lat="45.72947" lon="4.55618">
        <ele>577.6</ele>
        <time>2022-06-26T13:15:03Z</time>
      </trkpt>
      <trkpt lat="45.72946" lon="4.55617">
        <ele>578</ele>
        <time>2022-06-26T13:15:04Z</time>
      </trkpt>
      <trkpt lat="45.72945" lon="4.55615">
        <ele>578</ele>
        <time>2022-06-26T13:15:05Z</time>
      </trkpt>
      <trkpt lat="45.72944" lon="4.55614">
        <ele>578.4</ele>
        <time>2022-06-26T13:15:06Z</time>
      </trkpt>
      <trkpt lat="45.72943" lon="4.55613">
        <ele>578.6</ele>
        <time>2022-06-26T13:15:07Z</time>
      </trkpt>
      <trkpt lat="45.72942" lon="4.55612">
        <ele>578.6</ele>
        <time>2022-06-26T13:15:08Z</time>
      </trkpt>
      <trkpt lat="45.7294" lon="4.55611">
        <ele>578.8</ele>
        <time>2022-06-26T13:15:09Z</time>
      </trkpt>
      <trkpt lat="45.72939" lon="4.5561">
        <ele>578.8</ele>
        <time>2022-06-26T13:15:10Z</time>
      </trkpt>
      <trkpt lat="45.72938" lon="4.55609">
        <ele>579</ele>
        <time>2022-06-26T13:15:11Z</time>
      </trkpt>
      <trkpt lat="45.72936" lon="4.55608">
        <ele>579</ele>
        <time>2022-06-26T13:15:12Z</time>
      </trkpt>
      <trkpt lat="45.72935" lon="4.55607">
        <ele>579.4</ele>
        <time>2022-06-26T13:15:13Z</time>
      </trkpt>
      <trkpt lat="45.72934" lon="4.55606">
        <ele>579.4</ele>
        <time>2022-06-26T13:15:14Z</time>
      </trkpt>
      <trkpt lat="45.72933" lon="4.55605">
        <ele>579.6</ele>
        <time>2022-06-26T13:15:15Z</time>
      </trkpt>
      <trkpt lat="45.72932" lon="4.55604">
        <ele>579.6</ele>
        <time>2022-06-26T13:15:16Z</time>
      </trkpt>
      <trkpt lat="45.72931" lon="4.55603">
        <ele>580</ele>
        <time>2022-06-26T13:15:17Z</time>
      </trkpt>
      <trkpt lat="45.72929" lon="4.55602">
        <ele>580</ele>
        <time>2022-06-26T13:15:18Z</time>
      </trkpt>
      <trkpt lat="45.72928" lon="4.55601">
        <ele>580.2</ele>
        <time>2022-06-26T13:15:19Z</time>
      </trkpt>
      <trkpt lat="45.72927" lon="4.55601">
        <ele>580.2</ele>
        <time>2022-06-26T13:15:20Z</time>
      </trkpt>
      <trkpt lat="45.72926" lon="4.556">
        <ele>580.4</ele>
        <time>2022-06-26T13:15:21Z</time>
      </trkpt>
      <trkpt lat="45.72924" lon="4.556">
        <ele>580.4</ele>
        <time>2022-06-26T13:15:22Z</time>
      </trkpt>
      <trkpt lat="45.72923" lon="4.55599">
        <ele>580.8</ele>
        <time>2022-06-26T13:15:23Z</time>
      </trkpt>
      <trkpt lat="45.72921" lon="4.55599">
        <ele>580.8</ele>
        <time>2022-06-26T13:15:24Z</time>
      </trkpt>
      <trkpt lat="45.7292" lon="4.55598">
        <ele>581</ele>
        <time>2022-06-26T13:15:25Z</time>
      </trkpt>
      <trkpt lat="45.72919" lon="4.55597">
        <ele>581</ele>
        <time>2022-06-26T13:15:26Z</time>
      </trkpt>
      <trkpt lat="45.72917" lon="4.55597">
        <ele>581.4</ele>
        <time>2022-06-26T13:15:27Z</time>
      </trkpt>
      <trkpt lat="45.72916" lon="4.55597">
        <ele>581.4</ele>
        <time>2022-06-26T13:15:28Z</time>
      </trkpt>
      <trkpt lat="45.72914" lon="4.55596">
        <ele>581.6</ele>
        <time>2022-06-26T13:15:29Z</time>
      </trkpt>
      <trkpt lat="45.72913" lon="4.55596">
        <ele>581.6</ele>
        <time>2022-06-26T13:15:30Z</time>
      </trkpt>
      <trkpt lat="45.72911" lon="4.55595">
        <ele>581.8</ele>
        <time>2022-06-26T13:15:31Z</time>
      </trkpt>
      <trkpt lat="45.7291" lon="4.55595">
        <ele>582.2</ele>
        <time>2022-06-26T13:15:32Z</time>
      </trkpt>
      <trkpt lat="45.72908" lon="4.55594">
        <ele>582.2</ele>
        <time>2022-06-26T13:15:33Z</time>
      </trkpt>
      <trkpt lat="45.72907" lon="4.55593">
        <ele>582.4</ele>
        <time>2022-06-26T13:15:34Z</time>
      </trkpt>
      <trkpt lat="45.72905" lon="4.55593">
        <ele>582.6</ele>
        <time>2022-06-26T13:15:35Z</time>
      </trkpt>
      <trkpt lat="45.72903" lon="4.55593">
        <ele>582.6</ele>
        <time>2022-06-26T13:15:36Z</time>
      </trkpt>
      <trkpt lat="45.72902" lon="4.55593">
        <ele>583</ele>
        <time>2022-06-26T13:15:37Z</time>
      </trkpt>
      <trkpt lat="45.729" lon="4.55592">
        <ele>583.2</ele>
        <time>2022-06-26T13:15:38Z</time>
      </trkpt>
      <trkpt lat="45.72899" lon="4.55591">
        <ele>583.2</ele>
        <time>2022-06-26T13:15:39Z</time>
      </trkpt>
      <trkpt lat="45.72897" lon="4.55591">
        <ele>583.6</ele>
        <time>2022-06-26T13:15:40Z</time>
      </trkpt>
      <trkpt lat="45.72896" lon="4.5559">
        <ele>583.6</ele>
        <time>2022-06-26T13:15:41Z</time>
      </trkpt>
      <trkpt lat="45.72894" lon="4.5559">
        <ele>583.8</ele>
        <time>2022-06-26T13:15:42Z</time>
      </trkpt>
      <trkpt lat="45.72892" lon="4.55589">
        <ele>583.8</ele>
        <time>2022-06-26T13:15:43Z</time>
      </trkpt>
      <trkpt lat="45.7289" lon="4.55589">
        <ele>584.2</ele>
        <time>2022-06-26T13:15:44Z</time>
      </trkpt>
      <trkpt lat="45.72889" lon="4.55589">
        <ele>584.6</ele>
        <time>2022-06-26T13:15:45Z</time>
      </trkpt>
      <trkpt lat="45.72887" lon="4.55589">
        <ele>584.8</ele>
        <time>2022-06-26T13:15:46Z</time>
      </trkpt>
      <trkpt lat="45.72885" lon="4.55589">
        <ele>584.8</ele>
        <time>2022-06-26T13:15:47Z</time>
      </trkpt>
      <trkpt lat="45.72884" lon="4.5559">
        <ele>585.2</ele>
        <time>2022-06-26T13:15:48Z</time>
      </trkpt>
      <trkpt lat="45.72882" lon="4.5559">
        <ele>585.2</ele>
        <time>2022-06-26T13:15:49Z</time>
      </trkpt>
      <trkpt lat="45.7288" lon="4.55591">
        <ele>585.4</ele>
        <time>2022-06-26T13:15:50Z</time>
      </trkpt>
      <trkpt lat="45.72879" lon="4.55591">
        <ele>585.4</ele>
        <time>2022-06-26T13:15:51Z</time>
      </trkpt>
      <trkpt lat="45.72877" lon="4.55593">
        <ele>585.8</ele>
        <time>2022-06-26T13:15:52Z</time>
      </trkpt>
      <trkpt lat="45.72876" lon="4.55594">
        <ele>585.8</ele>
        <time>2022-06-26T13:15:53Z</time>
      </trkpt>
      <trkpt lat="45.72874" lon="4.55595">
        <ele>586.2</ele>
        <time>2022-06-26T13:15:54Z</time>
      </trkpt>
      <trkpt lat="45.72873" lon="4.55597">
        <ele>586.4</ele>
        <time>2022-06-26T13:15:55Z</time>
      </trkpt>
      <trkpt lat="45.72872" lon="4.55598">
        <ele>586.4</ele>
        <time>2022-06-26T13:15:56Z</time>
      </trkpt>
      <trkpt lat="45.7287" lon="4.556">
        <ele>586.8</ele>
        <time>2022-06-26T13:15:57Z</time>
      </trkpt>
      <trkpt lat="45.72869" lon="4.55601">
        <ele>586.8</ele>
        <time>2022-06-26T13:15:58Z</time>
      </trkpt>
      <trkpt lat="45.72869" lon="4.55603">
        <ele>587.2</ele>
        <time>2022-06-26T13:15:59Z</time>
      </trkpt>
      <trkpt lat="45.72868" lon="4.55606">
        <ele>587.4</ele>
        <time>2022-06-26T13:16:00Z</time>
      </trkpt>
      <trkpt lat="45.72867" lon="4.55608">
        <ele>587.8</ele>
        <time>2022-06-26T13:16:01Z</time>
      </trkpt>
      <trkpt lat="45.72867" lon="4.55611">
        <ele>587.8</ele>
        <time>2022-06-26T13:16:02Z</time>
      </trkpt>
      <trkpt lat="45.72866" lon="4.55613">
        <ele>588.2</ele>
        <time>2022-06-26T13:16:03Z</time>
      </trkpt>
      <trkpt lat="45.72866" lon="4.55616">
        <ele>588.4</ele>
        <time>2022-06-26T13:16:04Z</time>
      </trkpt>
      <trkpt lat="45.72865" lon="4.55618">
        <ele>588.6</ele>
        <time>2022-06-26T13:16:05Z</time>
      </trkpt>
      <trkpt lat="45.72864" lon="4.5562">
        <ele>588.6</ele>
        <time>2022-06-26T13:16:06Z</time>
      </trkpt>
      <trkpt lat="45.72863" lon="4.55623">
        <ele>589</ele>
        <time>2022-06-26T13:16:07Z</time>
      </trkpt>
      <trkpt lat="45.72863" lon="4.55625">
        <ele>589</ele>
        <time>2022-06-26T13:16:08Z</time>
      </trkpt>
      <trkpt lat="45.72862" lon="4.55627">
        <ele>589.2</ele>
        <time>2022-06-26T13:16:09Z</time>
      </trkpt>
      <trkpt lat="45.72861" lon="4.55629">
        <ele>589.2</ele>
        <time>2022-06-26T13:16:10Z</time>
      </trkpt>
      <trkpt lat="45.72861" lon="4.55632">
        <ele>589.6</ele>
        <time>2022-06-26T13:16:11Z</time>
      </trkpt>
      <trkpt lat="45.72861" lon="4.55634">
        <ele>589.6</ele>
        <time>2022-06-26T13:16:12Z</time>
      </trkpt>
      <trkpt lat="45.7286" lon="4.55636">
        <ele>590</ele>
        <time>2022-06-26T13:16:13Z</time>
      </trkpt>
      <trkpt lat="45.72859" lon="4.55638">
        <ele>590.2</ele>
        <time>2022-06-26T13:16:14Z</time>
      </trkpt>
      <trkpt lat="45.72858" lon="4.55639">
        <ele>590.4</ele>
        <time>2022-06-26T13:16:15Z</time>
      </trkpt>
      <trkpt lat="45.72856" lon="4.5564">
        <ele>590.4</ele>
        <time>2022-06-26T13:16:16Z</time>
      </trkpt>
      <trkpt lat="45.72854" lon="4.55641">
        <ele>590.8</ele>
        <time>2022-06-26T13:16:17Z</time>
      </trkpt>
      <trkpt lat="45.72853" lon="4.55642">
        <ele>590.8</ele>
        <time>2022-06-26T13:16:18Z</time>
      </trkpt>
      <trkpt lat="45.72851" lon="4.55643">
        <ele>591</ele>
        <time>2022-06-26T13:16:19Z</time>
      </trkpt>
      <trkpt lat="45.72849" lon="4.55644">
        <ele>591</ele>
        <time>2022-06-26T13:16:20Z</time>
      </trkpt>
      <trkpt lat="45.72848" lon="4.55644">
        <ele>591.4</ele>
        <time>2022-06-26T13:16:21Z</time>
      </trkpt>
      <trkpt lat="45.72846" lon="4.55645">
        <ele>591.6</ele>
        <time>2022-06-26T13:16:22Z</time>
      </trkpt>
      <trkpt lat="45.72844" lon="4.55645">
        <ele>591.6</ele>
        <time>2022-06-26T13:16:23Z</time>
      </trkpt>
      <trkpt lat="45.72843" lon="4.55645">
        <ele>592</ele>
        <time>2022-06-26T13:16:24Z</time>
      </trkpt>
      <trkpt lat="45.72841" lon="4.55645">
        <ele>592.2</ele>
        <time>2022-06-26T13:16:25Z</time>
      </trkpt>
      <trkpt lat="45.7284" lon="4.55646">
        <ele>592.4</ele>
        <time>2022-06-26T13:16:26Z</time>
      </trkpt>
      <trkpt lat="45.72838" lon="4.55646">
        <ele>592.4</ele>
        <time>2022-06-26T13:16:27Z</time>
      </trkpt>
      <trkpt lat="45.72836" lon="4.55647">
        <ele>592.8</ele>
        <time>2022-06-26T13:16:28Z</time>
      </trkpt>
      <trkpt lat="45.72835" lon="4.55647">
        <ele>592.8</ele>
        <time>2022-06-26T13:16:29Z</time>
      </trkpt>
      <trkpt lat="45.72833" lon="4.55648">
        <ele>593.2</ele>
        <time>2022-06-26T13:16:30Z</time>
      </trkpt>
      <trkpt lat="45.72831" lon="4.55648">
        <ele>593.2</ele>
        <time>2022-06-26T13:16:31Z</time>
      </trkpt>
      <trkpt lat="45.7283" lon="4.55649">
        <ele>593.6</ele>
        <time>2022-06-26T13:16:32Z</time>
      </trkpt>
      <trkpt lat="45.72828" lon="4.55649">
        <ele>593.8</ele>
        <time>2022-06-26T13:16:33Z</time>
      </trkpt>
      <trkpt lat="45.72827" lon="4.5565">
        <ele>593.8</ele>
        <time>2022-06-26T13:16:34Z</time>
      </trkpt>
      <trkpt lat="45.72825" lon="4.55651">
        <ele>594.2</ele>
        <time>2022-06-26T13:16:35Z</time>
      </trkpt>
      <trkpt lat="45.72824" lon="4.55651">
        <ele>594.2</ele>
        <time>2022-06-26T13:16:36Z</time>
      </trkpt>
      <trkpt lat="45.72822" lon="4.55652">
        <ele>594.4</ele>
        <time>2022-06-26T13:16:37Z</time>
      </trkpt>
      <trkpt lat="45.72821" lon="4.55653">
        <ele>594.4</ele>
        <time>2022-06-26T13:16:38Z</time>
      </trkpt>
      <trkpt lat="45.7282" lon="4.55655">
        <ele>594.8</ele>
        <time>2022-06-26T13:16:39Z</time>
      </trkpt>
      <trkpt lat="45.72818" lon="4.55657">
        <ele>594.8</ele>
        <time>2022-06-26T13:16:40Z</time>
      </trkpt>
      <trkpt lat="45.72817" lon="4.55659">
        <ele>595</ele>
        <time>2022-06-26T13:16:41Z</time>
      </trkpt>
      <trkpt lat="45.72817" lon="4.55661">
        <ele>595</ele>
        <time>2022-06-26T13:16:42Z</time>
      </trkpt>
      <trkpt lat="45.72816" lon="4.55663">
        <ele>595.4</ele>
        <time>2022-06-26T13:16:43Z</time>
      </trkpt>
      <trkpt lat="45.72815" lon="4.55664">
        <ele>595.6</ele>
        <time>2022-06-26T13:16:44Z</time>
      </trkpt>
      <trkpt lat="45.72814" lon="4.55669">
        <ele>595.6</ele>
        <time>2022-06-26T13:16:45Z</time>
      </trkpt>
      <trkpt lat="45.72813" lon="4.5567">
        <ele>595.8</ele>
        <time>2022-06-26T13:16:46Z</time>
      </trkpt>
      <trkpt lat="45.72812" lon="4.55672">
        <ele>595.8</ele>
        <time>2022-06-26T13:16:47Z</time>
      </trkpt>
      <trkpt lat="45.72811" lon="4.55674">
        <ele>596.2</ele>
        <time>2022-06-26T13:16:48Z</time>
      </trkpt>
      <trkpt lat="45.72811" lon="4.55677">
        <ele>596.6</ele>
        <time>2022-06-26T13:16:49Z</time>
      </trkpt>
      <trkpt lat="45.7281" lon="4.55679">
        <ele>596.6</ele>
        <time>2022-06-26T13:16:50Z</time>
      </trkpt>
      <trkpt lat="45.72809" lon="4.55681">
        <ele>596.8</ele>
        <time>2022-06-26T13:16:51Z</time>
      </trkpt>
      <trkpt lat="45.72808" lon="4.55683">
        <ele>596.8</ele>
        <time>2022-06-26T13:16:52Z</time>
      </trkpt>
      <trkpt lat="45.72808" lon="4.55685">
        <ele>597.2</ele>
        <time>2022-06-26T13:16:53Z</time>
      </trkpt>
      <trkpt lat="45.72807" lon="4.55687">
        <ele>597.2</ele>
        <time>2022-06-26T13:16:54Z</time>
      </trkpt>
      <trkpt lat="45.72806" lon="4.55689">
        <ele>597.6</ele>
        <time>2022-06-26T13:16:55Z</time>
      </trkpt>
      <trkpt lat="45.72805" lon="4.55691">
        <ele>597.8</ele>
        <time>2022-06-26T13:16:56Z</time>
      </trkpt>
      <trkpt lat="45.72804" lon="4.55693">
        <ele>598</ele>
        <time>2022-06-26T13:16:57Z</time>
      </trkpt>
      <trkpt lat="45.72804" lon="4.55696">
        <ele>598</ele>
        <time>2022-06-26T13:16:58Z</time>
      </trkpt>
      <trkpt lat="45.72803" lon="4.55698">
        <ele>598.4</ele>
        <time>2022-06-26T13:16:59Z</time>
      </trkpt>
      <trkpt lat="45.72802" lon="4.557">
        <ele>598.4</ele>
        <time>2022-06-26T13:17:00Z</time>
      </trkpt>
      <trkpt lat="45.72802" lon="4.55702">
        <ele>598.6</ele>
        <time>2022-06-26T13:17:01Z</time>
      </trkpt>
      <trkpt lat="45.72801" lon="4.55704">
        <ele>599</ele>
        <time>2022-06-26T13:17:02Z</time>
      </trkpt>
      <trkpt lat="45.72799" lon="4.55705">
        <ele>599.2</ele>
        <time>2022-06-26T13:17:03Z</time>
      </trkpt>
      <trkpt lat="45.72798" lon="4.55707">
        <ele>599.2</ele>
        <time>2022-06-26T13:17:04Z</time>
      </trkpt>
      <trkpt lat="45.72796" lon="4.55708">
        <ele>599.6</ele>
        <time>2022-06-26T13:17:05Z</time>
      </trkpt>
      <trkpt lat="45.72794" lon="4.5571">
        <ele>599.8</ele>
        <time>2022-06-26T13:17:06Z</time>
      </trkpt>
      <trkpt lat="45.72792" lon="4.55711">
        <ele>600.2</ele>
        <time>2022-06-26T13:17:07Z</time>
      </trkpt>
      <trkpt lat="45.7279" lon="4.55711">
        <ele>600.4</ele>
        <time>2022-06-26T13:17:08Z</time>
      </trkpt>
      <trkpt lat="45.72788" lon="4.55711">
        <ele>600.4</ele>
        <time>2022-06-26T13:17:09Z</time>
      </trkpt>
      <trkpt lat="45.72787" lon="4.55711">
        <ele>600.6</ele>
        <time>2022-06-26T13:17:10Z</time>
      </trkpt>
      <trkpt lat="45.72785" lon="4.55711">
        <ele>600.6</ele>
        <time>2022-06-26T13:17:11Z</time>
      </trkpt>
      <trkpt lat="45.72783" lon="4.55712">
        <ele>601.2</ele>
        <time>2022-06-26T13:17:12Z</time>
      </trkpt>
      <trkpt lat="45.72782" lon="4.55712">
        <ele>601.4</ele>
        <time>2022-06-26T13:17:13Z</time>
      </trkpt>
      <trkpt lat="45.7278" lon="4.55713">
        <ele>601.6</ele>
        <time>2022-06-26T13:17:14Z</time>
      </trkpt>
      <trkpt lat="45.72778" lon="4.55713">
        <ele>601.8</ele>
        <time>2022-06-26T13:17:15Z</time>
      </trkpt>
      <trkpt lat="45.72776" lon="4.55713">
        <ele>602</ele>
        <time>2022-06-26T13:17:16Z</time>
      </trkpt>
      <trkpt lat="45.72775" lon="4.55713">
        <ele>602</ele>
        <time>2022-06-26T13:17:17Z</time>
      </trkpt>
      <trkpt lat="45.72773" lon="4.55713">
        <ele>602.4</ele>
        <time>2022-06-26T13:17:18Z</time>
      </trkpt>
      <trkpt lat="45.72771" lon="4.55714">
        <ele>602.4</ele>
        <time>2022-06-26T13:17:19Z</time>
      </trkpt>
      <trkpt lat="45.7277" lon="4.55714">
        <ele>602.6</ele>
        <time>2022-06-26T13:17:20Z</time>
      </trkpt>
      <trkpt lat="45.72768" lon="4.55714">
        <ele>603</ele>
        <time>2022-06-26T13:17:21Z</time>
      </trkpt>
      <trkpt lat="45.72766" lon="4.55714">
        <ele>603.2</ele>
        <time>2022-06-26T13:17:22Z</time>
      </trkpt>
      <trkpt lat="45.72765" lon="4.55715">
        <ele>603.2</ele>
        <time>2022-06-26T13:17:23Z</time>
      </trkpt>
      <trkpt lat="45.72763" lon="4.55715">
        <ele>603.4</ele>
        <time>2022-06-26T13:17:24Z</time>
      </trkpt>
      <trkpt lat="45.72762" lon="4.55716">
        <ele>603.6</ele>
        <time>2022-06-26T13:17:25Z</time>
      </trkpt>
      <trkpt lat="45.7276" lon="4.55716">
        <ele>603.6</ele>
        <time>2022-06-26T13:17:26Z</time>
      </trkpt>
      <trkpt lat="45.72758" lon="4.55716">
        <ele>604</ele>
        <time>2022-06-26T13:17:27Z</time>
      </trkpt>
      <trkpt lat="45.72756" lon="4.55716">
        <ele>604</ele>
        <time>2022-06-26T13:17:28Z</time>
      </trkpt>
      <trkpt lat="45.72755" lon="4.55717">
        <ele>604.4</ele>
        <time>2022-06-26T13:17:29Z</time>
      </trkpt>
      <trkpt lat="45.72753" lon="4.55717">
        <ele>604.6</ele>
        <time>2022-06-26T13:17:30Z</time>
      </trkpt>
      <trkpt lat="45.72751" lon="4.55717">
        <ele>604.8</ele>
        <time>2022-06-26T13:17:31Z</time>
      </trkpt>
      <trkpt lat="45.7275" lon="4.55717">
        <ele>604.8</ele>
        <time>2022-06-26T13:17:32Z</time>
      </trkpt>
      <trkpt lat="45.72748" lon="4.55717">
        <ele>605</ele>
        <time>2022-06-26T13:17:33Z</time>
      </trkpt>
      <trkpt lat="45.72746" lon="4.55717">
        <ele>605</ele>
        <time>2022-06-26T13:17:34Z</time>
      </trkpt>
      <trkpt lat="45.72745" lon="4.55717">
        <ele>605.4</ele>
        <time>2022-06-26T13:17:35Z</time>
      </trkpt>
      <trkpt lat="45.72743" lon="4.55718">
        <ele>605.4</ele>
        <time>2022-06-26T13:17:36Z</time>
      </trkpt>
      <trkpt lat="45.72742" lon="4.55718">
        <ele>605.6</ele>
        <time>2022-06-26T13:17:37Z</time>
      </trkpt>
      <trkpt lat="45.7274" lon="4.55719">
        <ele>605.6</ele>
        <time>2022-06-26T13:17:38Z</time>
      </trkpt>
      <trkpt lat="45.72738" lon="4.55719">
        <ele>605.8</ele>
        <time>2022-06-26T13:17:39Z</time>
      </trkpt>
      <trkpt lat="45.72737" lon="4.55719">
        <ele>606.2</ele>
        <time>2022-06-26T13:17:40Z</time>
      </trkpt>
      <trkpt lat="45.72735" lon="4.5572">
        <ele>606.4</ele>
        <time>2022-06-26T13:17:41Z</time>
      </trkpt>
      <trkpt lat="45.72734" lon="4.5572">
        <ele>606.6</ele>
        <time>2022-06-26T13:17:42Z</time>
      </trkpt>
      <trkpt lat="45.72732" lon="4.55721">
        <ele>606.8</ele>
        <time>2022-06-26T13:17:43Z</time>
      </trkpt>
      <trkpt lat="45.7273" lon="4.5572">
        <ele>607</ele>
        <time>2022-06-26T13:17:44Z</time>
      </trkpt>
      <trkpt lat="45.72729" lon="4.5572">
        <ele>607</ele>
        <time>2022-06-26T13:17:45Z</time>
      </trkpt>
      <trkpt lat="45.72727" lon="4.5572">
        <ele>607.4</ele>
        <time>2022-06-26T13:17:46Z</time>
      </trkpt>
      <trkpt lat="45.72725" lon="4.55721">
        <ele>607.4</ele>
        <time>2022-06-26T13:17:47Z</time>
      </trkpt>
      <trkpt lat="45.72724" lon="4.55721">
        <ele>607.8</ele>
        <time>2022-06-26T13:17:48Z</time>
      </trkpt>
      <trkpt lat="45.72722" lon="4.55722">
        <ele>607.8</ele>
        <time>2022-06-26T13:17:49Z</time>
      </trkpt>
      <trkpt lat="45.72721" lon="4.55723">
        <ele>608.2</ele>
        <time>2022-06-26T13:17:50Z</time>
      </trkpt>
      <trkpt lat="45.72719" lon="4.55723">
        <ele>608.2</ele>
        <time>2022-06-26T13:17:51Z</time>
      </trkpt>
      <trkpt lat="45.72718" lon="4.55724">
        <ele>608.2</ele>
        <time>2022-06-26T13:17:52Z</time>
      </trkpt>
      <trkpt lat="45.72716" lon="4.55724">
        <ele>608.6</ele>
        <time>2022-06-26T13:17:53Z</time>
      </trkpt>
      <trkpt lat="45.72715" lon="4.55725">
        <ele>608.6</ele>
        <time>2022-06-26T13:17:54Z</time>
      </trkpt>
      <trkpt lat="45.72713" lon="4.55725">
        <ele>609</ele>
        <time>2022-06-26T13:17:55Z</time>
      </trkpt>
      <trkpt lat="45.72711" lon="4.55725">
        <ele>609.2</ele>
        <time>2022-06-26T13:17:56Z</time>
      </trkpt>
      <trkpt lat="45.7271" lon="4.55726">
        <ele>609.4</ele>
        <time>2022-06-26T13:17:57Z</time>
      </trkpt>
      <trkpt lat="45.72708" lon="4.55726">
        <ele>609.4</ele>
        <time>2022-06-26T13:17:58Z</time>
      </trkpt>
      <trkpt lat="45.72706" lon="4.55726">
        <ele>609.8</ele>
        <time>2022-06-26T13:17:59Z</time>
      </trkpt>
      <trkpt lat="45.72705" lon="4.55727">
        <ele>609.8</ele>
        <time>2022-06-26T13:18:00Z</time>
      </trkpt>
      <trkpt lat="45.72703" lon="4.55727">
        <ele>610</ele>
        <time>2022-06-26T13:18:01Z</time>
      </trkpt>
      <trkpt lat="45.72701" lon="4.55728">
        <ele>610</ele>
        <time>2022-06-26T13:18:02Z</time>
      </trkpt>
      <trkpt lat="45.727" lon="4.55728">
        <ele>610.4</ele>
        <time>2022-06-26T13:18:03Z</time>
      </trkpt>
      <trkpt lat="45.72698" lon="4.55729">
        <ele>610.4</ele>
        <time>2022-06-26T13:18:04Z</time>
      </trkpt>
      <trkpt lat="45.72696" lon="4.5573">
        <ele>610.8</ele>
        <time>2022-06-26T13:18:05Z</time>
      </trkpt>
      <trkpt lat="45.72695" lon="4.5573">
        <ele>610.8</ele>
        <time>2022-06-26T13:18:06Z</time>
      </trkpt>
      <trkpt lat="45.72693" lon="4.55731">
        <ele>611.2</ele>
        <time>2022-06-26T13:18:07Z</time>
      </trkpt>
      <trkpt lat="45.72692" lon="4.55732">
        <ele>611.2</ele>
        <time>2022-06-26T13:18:08Z</time>
      </trkpt>
      <trkpt lat="45.7269" lon="4.55733">
        <ele>611.6</ele>
        <time>2022-06-26T13:18:09Z</time>
      </trkpt>
      <trkpt lat="45.72689" lon="4.55734">
        <ele>611.8</ele>
        <time>2022-06-26T13:18:10Z</time>
      </trkpt>
      <trkpt lat="45.72687" lon="4.55735">
        <ele>611.8</ele>
        <time>2022-06-26T13:18:11Z</time>
      </trkpt>
      <trkpt lat="45.72686" lon="4.55735">
        <ele>612</ele>
        <time>2022-06-26T13:18:12Z</time>
      </trkpt>
      <trkpt lat="45.72684" lon="4.55736">
        <ele>612</ele>
        <time>2022-06-26T13:18:13Z</time>
      </trkpt>
      <trkpt lat="45.72683" lon="4.55736">
        <ele>612.2</ele>
        <time>2022-06-26T13:18:14Z</time>
      </trkpt>
      <trkpt lat="45.72681" lon="4.55737">
        <ele>612.2</ele>
        <time>2022-06-26T13:18:15Z</time>
      </trkpt>
      <trkpt lat="45.7268" lon="4.55738">
        <ele>612.6</ele>
        <time>2022-06-26T13:18:16Z</time>
      </trkpt>
      <trkpt lat="45.72678" lon="4.55738">
        <ele>612.6</ele>
        <time>2022-06-26T13:18:17Z</time>
      </trkpt>
      <trkpt lat="45.72677" lon="4.55738">
        <ele>612.8</ele>
        <time>2022-06-26T13:18:18Z</time>
      </trkpt>
      <trkpt lat="45.72675" lon="4.55739">
        <ele>612.8</ele>
        <time>2022-06-26T13:18:19Z</time>
      </trkpt>
      <trkpt lat="45.72674" lon="4.55739">
        <ele>613.2</ele>
        <time>2022-06-26T13:18:20Z</time>
      </trkpt>
      <trkpt lat="45.72672" lon="4.5574">
        <ele>613.2</ele>
        <time>2022-06-26T13:18:21Z</time>
      </trkpt>
      <trkpt lat="45.7267" lon="4.55741">
        <ele>613.6</ele>
        <time>2022-06-26T13:18:22Z</time>
      </trkpt>
      <trkpt lat="45.72669" lon="4.55742">
        <ele>613.6</ele>
        <time>2022-06-26T13:18:23Z</time>
      </trkpt>
      <trkpt lat="45.72667" lon="4.55743">
        <ele>614</ele>
        <time>2022-06-26T13:18:24Z</time>
      </trkpt>
      <trkpt lat="45.72666" lon="4.55744">
        <ele>614.2</ele>
        <time>2022-06-26T13:18:25Z</time>
      </trkpt>
      <trkpt lat="45.72664" lon="4.55745">
        <ele>614.4</ele>
        <time>2022-06-26T13:18:26Z</time>
      </trkpt>
      <trkpt lat="45.72663" lon="4.55747">
        <ele>614.4</ele>
        <time>2022-06-26T13:18:27Z</time>
      </trkpt>
      <trkpt lat="45.72662" lon="4.55748">
        <ele>614.8</ele>
        <time>2022-06-26T13:18:28Z</time>
      </trkpt>
      <trkpt lat="45.7266" lon="4.5575">
        <ele>614.8</ele>
        <time>2022-06-26T13:18:29Z</time>
      </trkpt>
      <trkpt lat="45.72659" lon="4.55751">
        <ele>615</ele>
        <time>2022-06-26T13:18:30Z</time>
      </trkpt>
      <trkpt lat="45.72658" lon="4.55753">
        <ele>615</ele>
        <time>2022-06-26T13:18:31Z</time>
      </trkpt>
      <trkpt lat="45.72657" lon="4.55754">
        <ele>615.4</ele>
        <time>2022-06-26T13:18:32Z</time>
      </trkpt>
      <trkpt lat="45.72656" lon="4.55755">
        <ele>615.4</ele>
        <time>2022-06-26T13:18:33Z</time>
      </trkpt>
      <trkpt lat="45.72654" lon="4.55756">
        <ele>615.6</ele>
        <time>2022-06-26T13:18:34Z</time>
      </trkpt>
      <trkpt lat="45.72653" lon="4.55757">
        <ele>615.6</ele>
        <time>2022-06-26T13:18:35Z</time>
      </trkpt>
      <trkpt lat="45.72652" lon="4.55758">
        <ele>616</ele>
        <time>2022-06-26T13:18:36Z</time>
      </trkpt>
      <trkpt lat="45.7265" lon="4.55759">
        <ele>616.2</ele>
        <time>2022-06-26T13:18:37Z</time>
      </trkpt>
      <trkpt lat="45.72649" lon="4.55759">
        <ele>616.2</ele>
        <time>2022-06-26T13:18:38Z</time>
      </trkpt>
      <trkpt lat="45.72647" lon="4.5576">
        <ele>616.4</ele>
        <time>2022-06-26T13:18:39Z</time>
      </trkpt>
      <trkpt lat="45.72646" lon="4.55761">
        <ele>616.4</ele>
        <time>2022-06-26T13:18:40Z</time>
      </trkpt>
      <trkpt lat="45.72645" lon="4.55763">
        <ele>616.8</ele>
        <time>2022-06-26T13:18:41Z</time>
      </trkpt>
      <trkpt lat="45.72644" lon="4.55764">
        <ele>616.8</ele>
        <time>2022-06-26T13:18:42Z</time>
      </trkpt>
      <trkpt lat="45.72643" lon="4.55766">
        <ele>617.2</ele>
        <time>2022-06-26T13:18:43Z</time>
      </trkpt>
      <trkpt lat="45.72641" lon="4.55767">
        <ele>617.2</ele>
        <time>2022-06-26T13:18:44Z</time>
      </trkpt>
      <trkpt lat="45.7264" lon="4.55769">
        <ele>617.4</ele>
        <time>2022-06-26T13:18:45Z</time>
      </trkpt>
      <trkpt lat="45.72639" lon="4.5577">
        <ele>617.6</ele>
        <time>2022-06-26T13:18:46Z</time>
      </trkpt>
      <trkpt lat="45.72638" lon="4.55772">
        <ele>617.6</ele>
        <time>2022-06-26T13:18:47Z</time>
      </trkpt>
      <trkpt lat="45.72637" lon="4.55774">
        <ele>618</ele>
        <time>2022-06-26T13:18:48Z</time>
      </trkpt>
      <trkpt lat="45.72636" lon="4.55775">
        <ele>618</ele>
        <time>2022-06-26T13:18:49Z</time>
      </trkpt>
      <trkpt lat="45.72635" lon="4.55776">
        <ele>618.4</ele>
        <time>2022-06-26T13:18:50Z</time>
      </trkpt>
      <trkpt lat="45.72633" lon="4.55777">
        <ele>618.4</ele>
        <time>2022-06-26T13:18:51Z</time>
      </trkpt>
      <trkpt lat="45.72632" lon="4.55778">
        <ele>618.8</ele>
        <time>2022-06-26T13:18:52Z</time>
      </trkpt>
      <trkpt lat="45.72631" lon="4.55779">
        <ele>618.8</ele>
        <time>2022-06-26T13:18:53Z</time>
      </trkpt>
      <trkpt lat="45.72629" lon="4.5578">
        <ele>619.2</ele>
        <time>2022-06-26T13:18:54Z</time>
      </trkpt>
      <trkpt lat="45.72628" lon="4.55781">
        <ele>619.2</ele>
        <time>2022-06-26T13:18:55Z</time>
      </trkpt>
      <trkpt lat="45.72626" lon="4.55782">
        <ele>619.6</ele>
        <time>2022-06-26T13:18:56Z</time>
      </trkpt>
      <trkpt lat="45.72625" lon="4.55783">
        <ele>619.8</ele>
        <time>2022-06-26T13:18:57Z</time>
      </trkpt>
      <trkpt lat="45.72624" lon="4.55785">
        <ele>620</ele>
        <time>2022-06-26T13:18:58Z</time>
      </trkpt>
      <trkpt lat="45.72623" lon="4.55786">
        <ele>620</ele>
        <time>2022-06-26T13:18:59Z</time>
      </trkpt>
      <trkpt lat="45.72622" lon="4.55787">
        <ele>620.2</ele>
        <time>2022-06-26T13:19:00Z</time>
      </trkpt>
      <trkpt lat="45.72621" lon="4.55789">
        <ele>620.2</ele>
        <time>2022-06-26T13:19:01Z</time>
      </trkpt>
      <trkpt lat="45.7262" lon="4.5579">
        <ele>620.6</ele>
        <time>2022-06-26T13:19:02Z</time>
      </trkpt>
      <trkpt lat="45.72618" lon="4.55791">
        <ele>620.6</ele>
        <time>2022-06-26T13:19:03Z</time>
      </trkpt>
      <trkpt lat="45.72617" lon="4.55792">
        <ele>620.8</ele>
        <time>2022-06-26T13:19:04Z</time>
      </trkpt>
      <trkpt lat="45.72616" lon="4.55793">
        <ele>621</ele>
        <time>2022-06-26T13:19:05Z</time>
      </trkpt>
      <trkpt lat="45.72614" lon="4.55794">
        <ele>621</ele>
        <time>2022-06-26T13:19:06Z</time>
      </trkpt>
      <trkpt lat="45.72613" lon="4.55794">
        <ele>621</ele>
        <time>2022-06-26T13:19:07Z</time>
      </trkpt>
      <trkpt lat="45.72611" lon="4.55794">
        <ele>621.4</ele>
        <time>2022-06-26T13:19:09Z</time>
      </trkpt>
      <trkpt lat="45.7261" lon="4.55794">
        <ele>621.4</ele>
        <time>2022-06-26T13:19:10Z</time>
      </trkpt>
      <trkpt lat="45.72608" lon="4.55793">
        <ele>621.6</ele>
        <time>2022-06-26T13:19:11Z</time>
      </trkpt>
      <trkpt lat="45.72607" lon="4.55792">
        <ele>621.6</ele>
        <time>2022-06-26T13:19:12Z</time>
      </trkpt>
      <trkpt lat="45.72605" lon="4.55791">
        <ele>622</ele>
        <time>2022-06-26T13:19:13Z</time>
      </trkpt>
      <trkpt lat="45.72604" lon="4.55789">
        <ele>622</ele>
        <time>2022-06-26T13:19:14Z</time>
      </trkpt>
      <trkpt lat="45.72603" lon="4.55786">
        <ele>622.2</ele>
        <time>2022-06-26T13:19:15Z</time>
      </trkpt>
      <trkpt lat="45.72602" lon="4.55784">
        <ele>622.2</ele>
        <time>2022-06-26T13:19:16Z</time>
      </trkpt>
      <trkpt lat="45.72602" lon="4.55781">
        <ele>622.4</ele>
        <time>2022-06-26T13:19:17Z</time>
      </trkpt>
      <trkpt lat="45.72603" lon="4.55779">
        <ele>622.4</ele>
        <time>2022-06-26T13:19:18Z</time>
      </trkpt>
      <trkpt lat="45.72603" lon="4.55777">
        <ele>622.8</ele>
        <time>2022-06-26T13:19:19Z</time>
      </trkpt>
      <trkpt lat="45.72603" lon="4.55774">
        <ele>622.8</ele>
        <time>2022-06-26T13:19:20Z</time>
      </trkpt>
      <trkpt lat="45.72603" lon="4.55772">
        <ele>623</ele>
        <time>2022-06-26T13:19:21Z</time>
      </trkpt>
      <trkpt lat="45.72603" lon="4.5577">
        <ele>623</ele>
        <time>2022-06-26T13:19:22Z</time>
      </trkpt>
      <trkpt lat="45.72604" lon="4.55768">
        <ele>623.4</ele>
        <time>2022-06-26T13:19:23Z</time>
      </trkpt>
      <trkpt lat="45.72605" lon="4.55766">
        <ele>623.4</ele>
        <time>2022-06-26T13:19:24Z</time>
      </trkpt>
      <trkpt lat="45.72606" lon="4.55765">
        <ele>623.6</ele>
        <time>2022-06-26T13:19:25Z</time>
      </trkpt>
      <trkpt lat="45.72608" lon="4.55763">
        <ele>623.6</ele>
        <time>2022-06-26T13:19:26Z</time>
      </trkpt>
      <trkpt lat="45.72609" lon="4.55762">
        <ele>624</ele>
        <time>2022-06-26T13:19:27Z</time>
      </trkpt>
      <trkpt lat="45.72611" lon="4.5576">
        <ele>624</ele>
        <time>2022-06-26T13:19:28Z</time>
      </trkpt>
      <trkpt lat="45.72612" lon="4.55758">
        <ele>624.4</ele>
        <time>2022-06-26T13:19:29Z</time>
      </trkpt>
      <trkpt lat="45.72613" lon="4.55757">
        <ele>624.4</ele>
        <time>2022-06-26T13:19:30Z</time>
      </trkpt>
      <trkpt lat="45.72615" lon="4.55755">
        <ele>624.6</ele>
        <time>2022-06-26T13:19:31Z</time>
      </trkpt>
      <trkpt lat="45.72616" lon="4.55754">
        <ele>625</ele>
        <time>2022-06-26T13:19:32Z</time>
      </trkpt>
      <trkpt lat="45.72617" lon="4.55752">
        <ele>625</ele>
        <time>2022-06-26T13:19:33Z</time>
      </trkpt>
      <trkpt lat="45.72619" lon="4.55751">
        <ele>625.2</ele>
        <time>2022-06-26T13:19:34Z</time>
      </trkpt>
      <trkpt lat="45.7262" lon="4.5575">
        <ele>625.2</ele>
        <time>2022-06-26T13:19:35Z</time>
      </trkpt>
      <trkpt lat="45.72622" lon="4.55748">
        <ele>625.6</ele>
        <time>2022-06-26T13:19:36Z</time>
      </trkpt>
      <trkpt lat="45.72623" lon="4.55746">
        <ele>625.6</ele>
        <time>2022-06-26T13:19:37Z</time>
      </trkpt>
      <trkpt lat="45.72624" lon="4.55744">
        <ele>626</ele>
        <time>2022-06-26T13:19:38Z</time>
      </trkpt>
      <trkpt lat="45.72625" lon="4.55742">
        <ele>626</ele>
        <time>2022-06-26T13:19:39Z</time>
      </trkpt>
      <trkpt lat="45.72626" lon="4.5574">
        <ele>626.4</ele>
        <time>2022-06-26T13:19:40Z</time>
      </trkpt>
      <trkpt lat="45.72627" lon="4.55739">
        <ele>626.4</ele>
        <time>2022-06-26T13:19:41Z</time>
      </trkpt>
      <trkpt lat="45.72629" lon="4.55737">
        <ele>626.8</ele>
        <time>2022-06-26T13:19:42Z</time>
      </trkpt>
      <trkpt lat="45.7263" lon="4.55735">
        <ele>626.8</ele>
        <time>2022-06-26T13:19:43Z</time>
      </trkpt>
      <trkpt lat="45.72631" lon="4.55733">
        <ele>627</ele>
        <time>2022-06-26T13:19:44Z</time>
      </trkpt>
      <trkpt lat="45.72632" lon="4.55732">
        <ele>627.2</ele>
        <time>2022-06-26T13:19:45Z</time>
      </trkpt>
      <trkpt lat="45.72633" lon="4.5573">
        <ele>627.2</ele>
        <time>2022-06-26T13:19:46Z</time>
      </trkpt>
      <trkpt lat="45.72634" lon="4.55728">
        <ele>627.8</ele>
        <time>2022-06-26T13:19:47Z</time>
      </trkpt>
      <trkpt lat="45.72635" lon="4.55726">
        <ele>627.8</ele>
        <time>2022-06-26T13:19:48Z</time>
      </trkpt>
      <trkpt lat="45.72636" lon="4.55724">
        <ele>628</ele>
        <time>2022-06-26T13:19:49Z</time>
      </trkpt>
      <trkpt lat="45.72637" lon="4.55723">
        <ele>628</ele>
        <time>2022-06-26T13:19:50Z</time>
      </trkpt>
      <trkpt lat="45.72638" lon="4.55721">
        <ele>628.4</ele>
        <time>2022-06-26T13:19:51Z</time>
      </trkpt>
      <trkpt lat="45.72639" lon="4.55719">
        <ele>628.4</ele>
        <time>2022-06-26T13:19:52Z</time>
      </trkpt>
      <trkpt lat="45.72641" lon="4.55718">
        <ele>628.8</ele>
        <time>2022-06-26T13:19:53Z</time>
      </trkpt>
      <trkpt lat="45.72642" lon="4.55716">
        <ele>628.8</ele>
        <time>2022-06-26T13:19:54Z</time>
      </trkpt>
      <trkpt lat="45.72643" lon="4.55715">
        <ele>629.2</ele>
        <time>2022-06-26T13:19:55Z</time>
      </trkpt>
      <trkpt lat="45.72644" lon="4.55713">
        <ele>629.4</ele>
        <time>2022-06-26T13:19:56Z</time>
      </trkpt>
      <trkpt lat="45.72645" lon="4.55712">
        <ele>629.4</ele>
        <time>2022-06-26T13:19:57Z</time>
      </trkpt>
      <trkpt lat="45.72646" lon="4.55711">
        <ele>629.8</ele>
        <time>2022-06-26T13:19:58Z</time>
      </trkpt>
      <trkpt lat="45.72647" lon="4.55709">
        <ele>630</ele>
        <time>2022-06-26T13:19:59Z</time>
      </trkpt>
      <trkpt lat="45.72648" lon="4.55707">
        <ele>630</ele>
        <time>2022-06-26T13:20:00Z</time>
      </trkpt>
      <trkpt lat="45.72648" lon="4.55705">
        <ele>630.4</ele>
        <time>2022-06-26T13:20:01Z</time>
      </trkpt>
      <trkpt lat="45.72649" lon="4.55703">
        <ele>630.4</ele>
        <time>2022-06-26T13:20:02Z</time>
      </trkpt>
      <trkpt lat="45.7265" lon="4.55701">
        <ele>630.8</ele>
        <time>2022-06-26T13:20:03Z</time>
      </trkpt>
      <trkpt lat="45.72651" lon="4.55698">
        <ele>630.8</ele>
        <time>2022-06-26T13:20:04Z</time>
      </trkpt>
      <trkpt lat="45.72651" lon="4.55696">
        <ele>631.2</ele>
        <time>2022-06-26T13:20:05Z</time>
      </trkpt>
      <trkpt lat="45.72652" lon="4.55694">
        <ele>631.2</ele>
        <time>2022-06-26T13:20:06Z</time>
      </trkpt>
      <trkpt lat="45.72653" lon="4.55692">
        <ele>631.4</ele>
        <time>2022-06-26T13:20:07Z</time>
      </trkpt>
      <trkpt lat="45.72654" lon="4.5569">
        <ele>631.4</ele>
        <time>2022-06-26T13:20:08Z</time>
      </trkpt>
      <trkpt lat="45.72655" lon="4.55688">
        <ele>631.8</ele>
        <time>2022-06-26T13:20:09Z</time>
      </trkpt>
      <trkpt lat="45.72656" lon="4.55686">
        <ele>632</ele>
        <time>2022-06-26T13:20:10Z</time>
      </trkpt>
      <trkpt lat="45.72657" lon="4.55683">
        <ele>632</ele>
        <time>2022-06-26T13:20:11Z</time>
      </trkpt>
      <trkpt lat="45.72658" lon="4.55681">
        <ele>632.4</ele>
        <time>2022-06-26T13:20:12Z</time>
      </trkpt>
      <trkpt lat="45.72658" lon="4.55679">
        <ele>632.4</ele>
        <time>2022-06-26T13:20:13Z</time>
      </trkpt>
      <trkpt lat="45.72659" lon="4.55677">
        <ele>632.6</ele>
        <time>2022-06-26T13:20:14Z</time>
      </trkpt>
      <trkpt lat="45.7266" lon="4.55675">
        <ele>632.6</ele>
        <time>2022-06-26T13:20:15Z</time>
      </trkpt>
      <trkpt lat="45.72661" lon="4.55673">
        <ele>633</ele>
        <time>2022-06-26T13:20:16Z</time>
      </trkpt>
      <trkpt lat="45.72662" lon="4.55671">
        <ele>633</ele>
        <time>2022-06-26T13:20:17Z</time>
      </trkpt>
      <trkpt lat="45.72663" lon="4.55669">
        <ele>633.2</ele>
        <time>2022-06-26T13:20:18Z</time>
      </trkpt>
      <trkpt lat="45.72664" lon="4.55666">
        <ele>633.6</ele>
        <time>2022-06-26T13:20:19Z</time>
      </trkpt>
      <trkpt lat="45.72665" lon="4.55665">
        <ele>633.6</ele>
        <time>2022-06-26T13:20:20Z</time>
      </trkpt>
      <trkpt lat="45.72666" lon="4.55663">
        <ele>633.8</ele>
        <time>2022-06-26T13:20:21Z</time>
      </trkpt>
      <trkpt lat="45.72668" lon="4.55661">
        <ele>633.8</ele>
        <time>2022-06-26T13:20:22Z</time>
      </trkpt>
      <trkpt lat="45.72669" lon="4.55658">
        <ele>634.2</ele>
        <time>2022-06-26T13:20:23Z</time>
      </trkpt>
      <trkpt lat="45.7267" lon="4.55656">
        <ele>634.2</ele>
        <time>2022-06-26T13:20:24Z</time>
      </trkpt>
      <trkpt lat="45.72671" lon="4.55654">
        <ele>634.6</ele>
        <time>2022-06-26T13:20:25Z</time>
      </trkpt>
      <trkpt lat="45.72672" lon="4.55653">
        <ele>634.6</ele>
        <time>2022-06-26T13:20:26Z</time>
      </trkpt>
      <trkpt lat="45.72673" lon="4.55651">
        <ele>634.8</ele>
        <time>2022-06-26T13:20:27Z</time>
      </trkpt>
      <trkpt lat="45.72673" lon="4.55649">
        <ele>635</ele>
        <time>2022-06-26T13:20:28Z</time>
      </trkpt>
      <trkpt lat="45.72674" lon="4.55646">
        <ele>635.2</ele>
        <time>2022-06-26T13:20:29Z</time>
      </trkpt>
      <trkpt lat="45.72675" lon="4.55644">
        <ele>635.2</ele>
        <time>2022-06-26T13:20:30Z</time>
      </trkpt>
      <trkpt lat="45.72675" lon="4.55642">
        <ele>635.6</ele>
        <time>2022-06-26T13:20:31Z</time>
      </trkpt>
      <trkpt lat="45.72676" lon="4.55639">
        <ele>635.6</ele>
        <time>2022-06-26T13:20:32Z</time>
      </trkpt>
      <trkpt lat="45.72677" lon="4.55637">
        <ele>635.8</ele>
        <time>2022-06-26T13:20:33Z</time>
      </trkpt>
      <trkpt lat="45.72678" lon="4.55635">
        <ele>636.2</ele>
        <time>2022-06-26T13:20:34Z</time>
      </trkpt>
      <trkpt lat="45.72679" lon="4.55633">
        <ele>636.2</ele>
        <time>2022-06-26T13:20:35Z</time>
      </trkpt>
      <trkpt lat="45.7268" lon="4.55632">
        <ele>636.4</ele>
        <time>2022-06-26T13:20:36Z</time>
      </trkpt>
      <trkpt lat="45.72681" lon="4.5563">
        <ele>636.4</ele>
        <time>2022-06-26T13:20:37Z</time>
      </trkpt>
      <trkpt lat="45.72682" lon="4.55628">
        <ele>636.8</ele>
        <time>2022-06-26T13:20:38Z</time>
      </trkpt>
      <trkpt lat="45.72683" lon="4.55626">
        <ele>637.2</ele>
        <time>2022-06-26T13:20:39Z</time>
      </trkpt>
      <trkpt lat="45.72683" lon="4.55624">
        <ele>637.4</ele>
        <time>2022-06-26T13:20:40Z</time>
      </trkpt>
      <trkpt lat="45.72684" lon="4.55622">
        <ele>637.6</ele>
        <time>2022-06-26T13:20:41Z</time>
      </trkpt>
      <trkpt lat="45.72685" lon="4.55621">
        <ele>637.6</ele>
        <time>2022-06-26T13:20:42Z</time>
      </trkpt>
      <trkpt lat="45.72686" lon="4.55619">
        <ele>638</ele>
        <time>2022-06-26T13:20:43Z</time>
      </trkpt>
      <trkpt lat="45.72687" lon="4.55617">
        <ele>638</ele>
        <time>2022-06-26T13:20:44Z</time>
      </trkpt>
      <trkpt lat="45.72688" lon="4.55615">
        <ele>638.4</ele>
        <time>2022-06-26T13:20:45Z</time>
      </trkpt>
      <trkpt lat="45.72689" lon="4.55613">
        <ele>638.6</ele>
        <time>2022-06-26T13:20:46Z</time>
      </trkpt>
      <trkpt lat="45.72689" lon="4.55611">
        <ele>638.8</ele>
        <time>2022-06-26T13:20:47Z</time>
      </trkpt>
      <trkpt lat="45.7269" lon="4.55609">
        <ele>638.8</ele>
        <time>2022-06-26T13:20:48Z</time>
      </trkpt>
      <trkpt lat="45.72691" lon="4.55607">
        <ele>639.2</ele>
        <time>2022-06-26T13:20:49Z</time>
      </trkpt>
      <trkpt lat="45.72692" lon="4.55606">
        <ele>639.4</ele>
        <time>2022-06-26T13:20:50Z</time>
      </trkpt>
      <trkpt lat="45.72694" lon="4.55604">
        <ele>639.6</ele>
        <time>2022-06-26T13:20:51Z</time>
      </trkpt>
      <trkpt lat="45.72694" lon="4.55602">
        <ele>639.6</ele>
        <time>2022-06-26T13:20:52Z</time>
      </trkpt>
      <trkpt lat="45.72695" lon="4.556">
        <ele>640</ele>
        <time>2022-06-26T13:20:53Z</time>
      </trkpt>
      <trkpt lat="45.72696" lon="4.55598">
        <ele>640</ele>
        <time>2022-06-26T13:20:54Z</time>
      </trkpt>
      <trkpt lat="45.72697" lon="4.55596">
        <ele>640.4</ele>
        <time>2022-06-26T13:20:55Z</time>
      </trkpt>
      <trkpt lat="45.72697" lon="4.55594">
        <ele>640.4</ele>
        <time>2022-06-26T13:20:56Z</time>
      </trkpt>
      <trkpt lat="45.72698" lon="4.55592">
        <ele>640.6</ele>
        <time>2022-06-26T13:20:57Z</time>
      </trkpt>
      <trkpt lat="45.72699" lon="4.5559">
        <ele>640.6</ele>
        <time>2022-06-26T13:20:58Z</time>
      </trkpt>
      <trkpt lat="45.727" lon="4.55587">
        <ele>641</ele>
        <time>2022-06-26T13:20:59Z</time>
      </trkpt>
      <trkpt lat="45.72701" lon="4.55586">
        <ele>641</ele>
        <time>2022-06-26T13:21:00Z</time>
      </trkpt>
      <trkpt lat="45.72702" lon="4.55584">
        <ele>641.4</ele>
        <time>2022-06-26T13:21:01Z</time>
      </trkpt>
      <trkpt lat="45.72703" lon="4.55581">
        <ele>641.6</ele>
        <time>2022-06-26T13:21:02Z</time>
      </trkpt>
      <trkpt lat="45.72704" lon="4.55579">
        <ele>641.6</ele>
        <time>2022-06-26T13:21:03Z</time>
      </trkpt>
      <trkpt lat="45.72705" lon="4.55577">
        <ele>641.8</ele>
        <time>2022-06-26T13:21:04Z</time>
      </trkpt>
      <trkpt lat="45.72705" lon="4.55574">
        <ele>641.8</ele>
        <time>2022-06-26T13:21:05Z</time>
      </trkpt>
      <trkpt lat="45.72706" lon="4.55572">
        <ele>642.2</ele>
        <time>2022-06-26T13:21:06Z</time>
      </trkpt>
      <trkpt lat="45.72706" lon="4.5557">
        <ele>642.4</ele>
        <time>2022-06-26T13:21:07Z</time>
      </trkpt>
      <trkpt lat="45.72707" lon="4.55568">
        <ele>642.4</ele>
        <time>2022-06-26T13:21:08Z</time>
      </trkpt>
      <trkpt lat="45.72708" lon="4.55566">
        <ele>642.8</ele>
        <time>2022-06-26T13:21:09Z</time>
      </trkpt>
      <trkpt lat="45.72709" lon="4.55564">
        <ele>642.8</ele>
        <time>2022-06-26T13:21:10Z</time>
      </trkpt>
      <trkpt lat="45.72709" lon="4.55562">
        <ele>643</ele>
        <time>2022-06-26T13:21:11Z</time>
      </trkpt>
      <trkpt lat="45.7271" lon="4.55559">
        <ele>643</ele>
        <time>2022-06-26T13:21:12Z</time>
      </trkpt>
      <trkpt lat="45.72711" lon="4.55557">
        <ele>643.4</ele>
        <time>2022-06-26T13:21:13Z</time>
      </trkpt>
      <trkpt lat="45.72711" lon="4.55555">
        <ele>643.6</ele>
        <time>2022-06-26T13:21:14Z</time>
      </trkpt>
      <trkpt lat="45.72712" lon="4.55553">
        <ele>643.6</ele>
        <time>2022-06-26T13:21:15Z</time>
      </trkpt>
      <trkpt lat="45.72713" lon="4.55551">
        <ele>644</ele>
        <time>2022-06-26T13:21:16Z</time>
      </trkpt>
      <trkpt lat="45.72713" lon="4.55549">
        <ele>644</ele>
        <time>2022-06-26T13:21:17Z</time>
      </trkpt>
      <trkpt lat="45.72714" lon="4.55547">
        <ele>644.2</ele>
        <time>2022-06-26T13:21:18Z</time>
      </trkpt>
      <trkpt lat="45.72714" lon="4.55544">
        <ele>644.6</ele>
        <time>2022-06-26T13:21:19Z</time>
      </trkpt>
      <trkpt lat="45.72714" lon="4.55542">
        <ele>644.6</ele>
        <time>2022-06-26T13:21:20Z</time>
      </trkpt>
      <trkpt lat="45.72714" lon="4.5554">
        <ele>644.8</ele>
        <time>2022-06-26T13:21:21Z</time>
      </trkpt>
      <trkpt lat="45.72714" lon="4.55537">
        <ele>644.8</ele>
        <time>2022-06-26T13:21:22Z</time>
      </trkpt>
      <trkpt lat="45.72714" lon="4.55535">
        <ele>645.2</ele>
        <time>2022-06-26T13:21:23Z</time>
      </trkpt>
      <trkpt lat="45.72714" lon="4.55533">
        <ele>645.2</ele>
        <time>2022-06-26T13:21:24Z</time>
      </trkpt>
      <trkpt lat="45.72713" lon="4.5553">
        <ele>645.4</ele>
        <time>2022-06-26T13:21:25Z</time>
      </trkpt>
      <trkpt lat="45.72712" lon="4.55528">
        <ele>645.6</ele>
        <time>2022-06-26T13:21:26Z</time>
      </trkpt>
      <trkpt lat="45.72712" lon="4.55525">
        <ele>645.6</ele>
        <time>2022-06-26T13:21:27Z</time>
      </trkpt>
      <trkpt lat="45.72711" lon="4.55523">
        <ele>646</ele>
        <time>2022-06-26T13:21:28Z</time>
      </trkpt>
      <trkpt lat="45.7271" lon="4.55521">
        <ele>646.2</ele>
        <time>2022-06-26T13:21:29Z</time>
      </trkpt>
      <trkpt lat="45.72708" lon="4.55519">
        <ele>646.6</ele>
        <time>2022-06-26T13:21:30Z</time>
      </trkpt>
      <trkpt lat="45.72707" lon="4.55517">
        <ele>646.8</ele>
        <time>2022-06-26T13:21:31Z</time>
      </trkpt>
      <trkpt lat="45.72705" lon="4.55517">
        <ele>647</ele>
        <time>2022-06-26T13:21:32Z</time>
      </trkpt>
      <trkpt lat="45.72704" lon="4.55517">
        <ele>647.4</ele>
        <time>2022-06-26T13:21:33Z</time>
      </trkpt>
      <trkpt lat="45.72702" lon="4.55517">
        <ele>647.6</ele>
        <time>2022-06-26T13:21:34Z</time>
      </trkpt>
      <trkpt lat="45.72701" lon="4.55517">
        <ele>647.8</ele>
        <time>2022-06-26T13:21:35Z</time>
      </trkpt>
      <trkpt lat="45.72699" lon="4.55517">
        <ele>648</ele>
        <time>2022-06-26T13:21:36Z</time>
      </trkpt>
      <trkpt lat="45.72697" lon="4.55518">
        <ele>648.4</ele>
        <time>2022-06-26T13:21:37Z</time>
      </trkpt>
      <trkpt lat="45.72696" lon="4.55518">
        <ele>648.6</ele>
        <time>2022-06-26T13:21:38Z</time>
      </trkpt>
      <trkpt lat="45.72694" lon="4.55518">
        <ele>648.8</ele>
        <time>2022-06-26T13:21:39Z</time>
      </trkpt>
      <trkpt lat="45.72692" lon="4.55519">
        <ele>649.2</ele>
        <time>2022-06-26T13:21:40Z</time>
      </trkpt>
      <trkpt lat="45.7269" lon="4.5552">
        <ele>649.4</ele>
        <time>2022-06-26T13:21:41Z</time>
      </trkpt>
      <trkpt lat="45.72689" lon="4.55521">
        <ele>649.8</ele>
        <time>2022-06-26T13:21:42Z</time>
      </trkpt>
      <trkpt lat="45.72687" lon="4.55523">
        <ele>649.8</ele>
        <time>2022-06-26T13:21:43Z</time>
      </trkpt>
      <trkpt lat="45.72686" lon="4.55524">
        <ele>650</ele>
        <time>2022-06-26T13:21:44Z</time>
      </trkpt>
      <trkpt lat="45.72685" lon="4.55526">
        <ele>650.4</ele>
        <time>2022-06-26T13:21:45Z</time>
      </trkpt>
      <trkpt lat="45.72683" lon="4.55528">
        <ele>650.6</ele>
        <time>2022-06-26T13:21:46Z</time>
      </trkpt>
      <trkpt lat="45.72682" lon="4.55529">
        <ele>650.8</ele>
        <time>2022-06-26T13:21:47Z</time>
      </trkpt>
      <trkpt lat="45.72681" lon="4.55531">
        <ele>651.2</ele>
        <time>2022-06-26T13:21:48Z</time>
      </trkpt>
      <trkpt lat="45.7268" lon="4.55532">
        <ele>651.4</ele>
        <time>2022-06-26T13:21:49Z</time>
      </trkpt>
      <trkpt lat="45.72678" lon="4.55534">
        <ele>651.6</ele>
        <time>2022-06-26T13:21:50Z</time>
      </trkpt>
      <trkpt lat="45.72677" lon="4.55535">
        <ele>651.8</ele>
        <time>2022-06-26T13:21:51Z</time>
      </trkpt>
      <trkpt lat="45.72676" lon="4.55537">
        <ele>652.2</ele>
        <time>2022-06-26T13:21:52Z</time>
      </trkpt>
      <trkpt lat="45.72675" lon="4.55538">
        <ele>652.4</ele>
        <time>2022-06-26T13:21:53Z</time>
      </trkpt>
      <trkpt lat="45.72674" lon="4.5554">
        <ele>652.6</ele>
        <time>2022-06-26T13:21:54Z</time>
      </trkpt>
      <trkpt lat="45.72672" lon="4.55541">
        <ele>652.8</ele>
        <time>2022-06-26T13:21:55Z</time>
      </trkpt>
      <trkpt lat="45.72671" lon="4.55543">
        <ele>653.2</ele>
        <time>2022-06-26T13:21:56Z</time>
      </trkpt>
      <trkpt lat="45.7267" lon="4.55544">
        <ele>653.4</ele>
        <time>2022-06-26T13:21:57Z</time>
      </trkpt>
      <trkpt lat="45.72669" lon="4.55546">
        <ele>653.6</ele>
        <time>2022-06-26T13:21:58Z</time>
      </trkpt>
      <trkpt lat="45.72668" lon="4.55548">
        <ele>653.8</ele>
        <time>2022-06-26T13:21:59Z</time>
      </trkpt>
      <trkpt lat="45.72667" lon="4.5555">
        <ele>654.2</ele>
        <time>2022-06-26T13:22:00Z</time>
      </trkpt>
      <trkpt lat="45.72666" lon="4.55552">
        <ele>654.4</ele>
        <time>2022-06-26T13:22:01Z</time>
      </trkpt>
      <trkpt lat="45.72665" lon="4.55553">
        <ele>654.6</ele>
        <time>2022-06-26T13:22:02Z</time>
      </trkpt>
      <trkpt lat="45.72663" lon="4.55555">
        <ele>655</ele>
        <time>2022-06-26T13:22:03Z</time>
      </trkpt>
      <trkpt lat="45.72662" lon="4.55557">
        <ele>655.2</ele>
        <time>2022-06-26T13:22:04Z</time>
      </trkpt>
      <trkpt lat="45.72661" lon="4.55558">
        <ele>655.4</ele>
        <time>2022-06-26T13:22:05Z</time>
      </trkpt>
      <trkpt lat="45.7266" lon="4.55559">
        <ele>655.8</ele>
        <time>2022-06-26T13:22:06Z</time>
      </trkpt>
      <trkpt lat="45.72658" lon="4.5556">
        <ele>656</ele>
        <time>2022-06-26T13:22:07Z</time>
      </trkpt>
      <trkpt lat="45.72657" lon="4.55561">
        <ele>656</ele>
        <time>2022-06-26T13:22:08Z</time>
      </trkpt>
      <trkpt lat="45.72656" lon="4.55562">
        <ele>656.4</ele>
        <time>2022-06-26T13:22:09Z</time>
      </trkpt>
      <trkpt lat="45.72654" lon="4.55564">
        <ele>656.6</ele>
        <time>2022-06-26T13:22:10Z</time>
      </trkpt>
      <trkpt lat="45.72653" lon="4.55565">
        <ele>656.6</ele>
        <time>2022-06-26T13:22:11Z</time>
      </trkpt>
      <trkpt lat="45.72652" lon="4.55567">
        <ele>657</ele>
        <time>2022-06-26T13:22:12Z</time>
      </trkpt>
      <trkpt lat="45.72651" lon="4.55569">
        <ele>657.2</ele>
        <time>2022-06-26T13:22:13Z</time>
      </trkpt>
      <trkpt lat="45.72649" lon="4.5557">
        <ele>657.2</ele>
        <time>2022-06-26T13:22:14Z</time>
      </trkpt>
      <trkpt lat="45.72648" lon="4.55572">
        <ele>657.6</ele>
        <time>2022-06-26T13:22:15Z</time>
      </trkpt>
      <trkpt lat="45.72647" lon="4.55573">
        <ele>657.6</ele>
        <time>2022-06-26T13:22:16Z</time>
      </trkpt>
      <trkpt lat="45.72646" lon="4.55575">
        <ele>658</ele>
        <time>2022-06-26T13:22:17Z</time>
      </trkpt>
      <trkpt lat="45.72645" lon="4.55576">
        <ele>658.2</ele>
        <time>2022-06-26T13:22:18Z</time>
      </trkpt>
      <trkpt lat="45.72643" lon="4.55578">
        <ele>658.2</ele>
        <time>2022-06-26T13:22:19Z</time>
      </trkpt>
      <trkpt lat="45.72642" lon="4.5558">
        <ele>658.6</ele>
        <time>2022-06-26T13:22:20Z</time>
      </trkpt>
      <trkpt lat="45.72641" lon="4.55581">
        <ele>658.8</ele>
        <time>2022-06-26T13:22:21Z</time>
      </trkpt>
      <trkpt lat="45.7264" lon="4.55583">
        <ele>659</ele>
        <time>2022-06-26T13:22:22Z</time>
      </trkpt>
      <trkpt lat="45.72639" lon="4.55585">
        <ele>659</ele>
        <time>2022-06-26T13:22:23Z</time>
      </trkpt>
      <trkpt lat="45.72637" lon="4.55586">
        <ele>659.4</ele>
        <time>2022-06-26T13:22:24Z</time>
      </trkpt>
      <trkpt lat="45.72636" lon="4.55587">
        <ele>659.6</ele>
        <time>2022-06-26T13:22:25Z</time>
      </trkpt>
      <trkpt lat="45.72634" lon="4.55588">
        <ele>659.8</ele>
        <time>2022-06-26T13:22:26Z</time>
      </trkpt>
      <trkpt lat="45.72633" lon="4.5559">
        <ele>660.2</ele>
        <time>2022-06-26T13:22:27Z</time>
      </trkpt>
      <trkpt lat="45.72632" lon="4.55591">
        <ele>660.4</ele>
        <time>2022-06-26T13:22:28Z</time>
      </trkpt>
      <trkpt lat="45.7263" lon="4.55593">
        <ele>660.4</ele>
        <time>2022-06-26T13:22:29Z</time>
      </trkpt>
      <trkpt lat="45.72629" lon="4.55595">
        <ele>660.6</ele>
        <time>2022-06-26T13:22:30Z</time>
      </trkpt>
      <trkpt lat="45.72628" lon="4.55596">
        <ele>660.6</ele>
        <time>2022-06-26T13:22:31Z</time>
      </trkpt>
      <trkpt lat="45.72627" lon="4.55598">
        <ele>661</ele>
        <time>2022-06-26T13:22:32Z</time>
      </trkpt>
      <trkpt lat="45.72626" lon="4.556">
        <ele>661.2</ele>
        <time>2022-06-26T13:22:33Z</time>
      </trkpt>
      <trkpt lat="45.72625" lon="4.55602">
        <ele>661.6</ele>
        <time>2022-06-26T13:22:34Z</time>
      </trkpt>
      <trkpt lat="45.72624" lon="4.55603">
        <ele>661.8</ele>
        <time>2022-06-26T13:22:35Z</time>
      </trkpt>
      <trkpt lat="45.72623" lon="4.55605">
        <ele>662</ele>
        <time>2022-06-26T13:22:36Z</time>
      </trkpt>
      <trkpt lat="45.72621" lon="4.55606">
        <ele>662.2</ele>
        <time>2022-06-26T13:22:37Z</time>
      </trkpt>
      <trkpt lat="45.7262" lon="4.55607">
        <ele>662.2</ele>
        <time>2022-06-26T13:22:38Z</time>
      </trkpt>
      <trkpt lat="45.72618" lon="4.55608">
        <ele>662.6</ele>
        <time>2022-06-26T13:22:39Z</time>
      </trkpt>
      <trkpt lat="45.72617" lon="4.5561">
        <ele>662.8</ele>
        <time>2022-06-26T13:22:40Z</time>
      </trkpt>
      <trkpt lat="45.72615" lon="4.55611">
        <ele>663</ele>
        <time>2022-06-26T13:22:41Z</time>
      </trkpt>
      <trkpt lat="45.72614" lon="4.55612">
        <ele>663</ele>
        <time>2022-06-26T13:22:42Z</time>
      </trkpt>
      <trkpt lat="45.72613" lon="4.55614">
        <ele>663.4</ele>
        <time>2022-06-26T13:22:43Z</time>
      </trkpt>
      <trkpt lat="45.72611" lon="4.55616">
        <ele>663.4</ele>
        <time>2022-06-26T13:22:44Z</time>
      </trkpt>
      <trkpt lat="45.7261" lon="4.55617">
        <ele>663.8</ele>
        <time>2022-06-26T13:22:45Z</time>
      </trkpt>
      <trkpt lat="45.72609" lon="4.55619">
        <ele>663.8</ele>
        <time>2022-06-26T13:22:46Z</time>
      </trkpt>
      <trkpt lat="45.72608" lon="4.5562">
        <ele>664</ele>
        <time>2022-06-26T13:22:47Z</time>
      </trkpt>
      <trkpt lat="45.72607" lon="4.55621">
        <ele>664.2</ele>
        <time>2022-06-26T13:22:48Z</time>
      </trkpt>
      <trkpt lat="45.72606" lon="4.55622">
        <ele>664.2</ele>
        <time>2022-06-26T13:22:49Z</time>
      </trkpt>
      <trkpt lat="45.72604" lon="4.55623">
        <ele>664.8</ele>
        <time>2022-06-26T13:22:50Z</time>
      </trkpt>
      <trkpt lat="45.72603" lon="4.55624">
        <ele>665</ele>
        <time>2022-06-26T13:22:51Z</time>
      </trkpt>
      <trkpt lat="45.72602" lon="4.55626">
        <ele>665.2</ele>
        <time>2022-06-26T13:22:52Z</time>
      </trkpt>
      <trkpt lat="45.726" lon="4.55627">
        <ele>665.2</ele>
        <time>2022-06-26T13:22:53Z</time>
      </trkpt>
      <trkpt lat="45.72599" lon="4.55628">
        <ele>665.6</ele>
        <time>2022-06-26T13:22:54Z</time>
      </trkpt>
      <trkpt lat="45.72598" lon="4.55629">
        <ele>665.6</ele>
        <time>2022-06-26T13:22:55Z</time>
      </trkpt>
      <trkpt lat="45.72597" lon="4.5563">
        <ele>666</ele>
        <time>2022-06-26T13:22:56Z</time>
      </trkpt>
      <trkpt lat="45.72596" lon="4.55632">
        <ele>666.2</ele>
        <time>2022-06-26T13:22:57Z</time>
      </trkpt>
      <trkpt lat="45.72595" lon="4.55633">
        <ele>666.4</ele>
        <time>2022-06-26T13:22:58Z</time>
      </trkpt>
      <trkpt lat="45.72593" lon="4.55634">
        <ele>666.6</ele>
        <time>2022-06-26T13:22:59Z</time>
      </trkpt>
      <trkpt lat="45.72592" lon="4.55634">
        <ele>666.6</ele>
        <time>2022-06-26T13:23:00Z</time>
      </trkpt>
      <trkpt lat="45.7259" lon="4.55635">
        <ele>667</ele>
        <time>2022-06-26T13:23:01Z</time>
      </trkpt>
      <trkpt lat="45.72589" lon="4.55637">
        <ele>667</ele>
        <time>2022-06-26T13:23:02Z</time>
      </trkpt>
      <trkpt lat="45.72588" lon="4.55638">
        <ele>667.2</ele>
        <time>2022-06-26T13:23:03Z</time>
      </trkpt>
      <trkpt lat="45.72586" lon="4.55638">
        <ele>667.6</ele>
        <time>2022-06-26T13:23:04Z</time>
      </trkpt>
      <trkpt lat="45.72585" lon="4.55639">
        <ele>667.8</ele>
        <time>2022-06-26T13:23:05Z</time>
      </trkpt>
      <trkpt lat="45.72583" lon="4.5564">
        <ele>667.8</ele>
        <time>2022-06-26T13:23:06Z</time>
      </trkpt>
      <trkpt lat="45.72582" lon="4.55641">
        <ele>668</ele>
        <time>2022-06-26T13:23:07Z</time>
      </trkpt>
      <trkpt lat="45.7258" lon="4.55642">
        <ele>668</ele>
        <time>2022-06-26T13:23:08Z</time>
      </trkpt>
      <trkpt lat="45.72579" lon="4.55643">
        <ele>668.4</ele>
        <time>2022-06-26T13:23:09Z</time>
      </trkpt>
      <trkpt lat="45.72577" lon="4.55644">
        <ele>668.4</ele>
        <time>2022-06-26T13:23:10Z</time>
      </trkpt>
      <trkpt lat="45.72576" lon="4.55645">
        <ele>668.8</ele>
        <time>2022-06-26T13:23:11Z</time>
      </trkpt>
      <trkpt lat="45.72574" lon="4.55646">
        <ele>668.8</ele>
        <time>2022-06-26T13:23:12Z</time>
      </trkpt>
      <trkpt lat="45.72573" lon="4.55647">
        <ele>669</ele>
        <time>2022-06-26T13:23:13Z</time>
      </trkpt>
      <trkpt lat="45.72571" lon="4.55648">
        <ele>669</ele>
        <time>2022-06-26T13:23:14Z</time>
      </trkpt>
      <trkpt lat="45.7257" lon="4.55649">
        <ele>669.4</ele>
        <time>2022-06-26T13:23:15Z</time>
      </trkpt>
      <trkpt lat="45.72568" lon="4.5565">
        <ele>669.4</ele>
        <time>2022-06-26T13:23:16Z</time>
      </trkpt>
      <trkpt lat="45.72567" lon="4.5565">
        <ele>669.6</ele>
        <time>2022-06-26T13:23:17Z</time>
      </trkpt>
      <trkpt lat="45.72565" lon="4.55651">
        <ele>669.6</ele>
        <time>2022-06-26T13:23:18Z</time>
      </trkpt>
      <trkpt lat="45.72564" lon="4.55652">
        <ele>670</ele>
        <time>2022-06-26T13:23:19Z</time>
      </trkpt>
      <trkpt lat="45.72562" lon="4.55653">
        <ele>670</ele>
        <time>2022-06-26T13:23:20Z</time>
      </trkpt>
      <trkpt lat="45.72561" lon="4.55654">
        <ele>670.2</ele>
        <time>2022-06-26T13:23:21Z</time>
      </trkpt>
      <trkpt lat="45.72559" lon="4.55654">
        <ele>670.2</ele>
        <time>2022-06-26T13:23:22Z</time>
      </trkpt>
      <trkpt lat="45.72558" lon="4.55655">
        <ele>670.6</ele>
        <time>2022-06-26T13:23:23Z</time>
      </trkpt>
      <trkpt lat="45.72556" lon="4.55655">
        <ele>670.6</ele>
        <time>2022-06-26T13:23:24Z</time>
      </trkpt>
      <trkpt lat="45.72555" lon="4.55655">
        <ele>670.8</ele>
        <time>2022-06-26T13:23:25Z</time>
      </trkpt>
      <trkpt lat="45.72553" lon="4.55656">
        <ele>670.8</ele>
        <time>2022-06-26T13:23:26Z</time>
      </trkpt>
      <trkpt lat="45.72552" lon="4.55657">
        <ele>671.2</ele>
        <time>2022-06-26T13:23:27Z</time>
      </trkpt>
      <trkpt lat="45.7255" lon="4.55658">
        <ele>671.6</ele>
        <time>2022-06-26T13:23:28Z</time>
      </trkpt>
      <trkpt lat="45.72549" lon="4.55658">
        <ele>671.8</ele>
        <time>2022-06-26T13:23:29Z</time>
      </trkpt>
      <trkpt lat="45.72548" lon="4.55659">
        <ele>672</ele>
        <time>2022-06-26T13:23:30Z</time>
      </trkpt>
      <trkpt lat="45.72546" lon="4.55659">
        <ele>672.2</ele>
        <time>2022-06-26T13:23:31Z</time>
      </trkpt>
      <trkpt lat="45.72545" lon="4.55659">
        <ele>672.2</ele>
        <time>2022-06-26T13:23:32Z</time>
      </trkpt>
      <trkpt lat="45.72544" lon="4.55659">
        <ele>672.6</ele>
        <time>2022-06-26T13:23:33Z</time>
      </trkpt>
      <trkpt lat="45.72543" lon="4.55659">
        <ele>672.6</ele>
        <time>2022-06-26T13:23:34Z</time>
      </trkpt>
      <trkpt lat="45.72541" lon="4.55659">
        <ele>673</ele>
        <time>2022-06-26T13:23:35Z</time>
      </trkpt>
      <trkpt lat="45.7254" lon="4.55659">
        <ele>673</ele>
        <time>2022-06-26T13:23:36Z</time>
      </trkpt>
      <trkpt lat="45.72539" lon="4.55659">
        <ele>673.4</ele>
        <time>2022-06-26T13:23:37Z</time>
      </trkpt>
      <trkpt lat="45.72538" lon="4.5566">
        <ele>673.4</ele>
        <time>2022-06-26T13:23:38Z</time>
      </trkpt>
      <trkpt lat="45.72536" lon="4.5566">
        <ele>673.8</ele>
        <time>2022-06-26T13:23:39Z</time>
      </trkpt>
      <trkpt lat="45.72535" lon="4.5566">
        <ele>674</ele>
        <time>2022-06-26T13:23:40Z</time>
      </trkpt>
      <trkpt lat="45.72533" lon="4.5566">
        <ele>674.2</ele>
        <time>2022-06-26T13:23:41Z</time>
      </trkpt>
      <trkpt lat="45.72532" lon="4.55661">
        <ele>674.4</ele>
        <time>2022-06-26T13:23:42Z</time>
      </trkpt>
      <trkpt lat="45.7253" lon="4.55661">
        <ele>674.8</ele>
        <time>2022-06-26T13:23:43Z</time>
      </trkpt>
      <trkpt lat="45.72529" lon="4.55662">
        <ele>675</ele>
        <time>2022-06-26T13:23:44Z</time>
      </trkpt>
      <trkpt lat="45.72526" lon="4.55662">
        <ele>675.2</ele>
        <time>2022-06-26T13:23:45Z</time>
      </trkpt>
      <trkpt lat="45.72524" lon="4.55662">
        <ele>675.4</ele>
        <time>2022-06-26T13:23:46Z</time>
      </trkpt>
      <trkpt lat="45.72522" lon="4.55662">
        <ele>675.8</ele>
        <time>2022-06-26T13:23:47Z</time>
      </trkpt>
      <trkpt lat="45.7252" lon="4.55663">
        <ele>676</ele>
        <time>2022-06-26T13:23:48Z</time>
      </trkpt>
      <trkpt lat="45.72518" lon="4.55663">
        <ele>676.2</ele>
        <time>2022-06-26T13:23:49Z</time>
      </trkpt>
      <trkpt lat="45.72517" lon="4.55663">
        <ele>676.2</ele>
        <time>2022-06-26T13:23:50Z</time>
      </trkpt>
      <trkpt lat="45.72515" lon="4.55663">
        <ele>676.6</ele>
        <time>2022-06-26T13:23:51Z</time>
      </trkpt>
      <trkpt lat="45.72514" lon="4.55664">
        <ele>676.8</ele>
        <time>2022-06-26T13:23:52Z</time>
      </trkpt>
      <trkpt lat="45.72512" lon="4.55664">
        <ele>676.8</ele>
        <time>2022-06-26T13:23:53Z</time>
      </trkpt>
      <trkpt lat="45.72511" lon="4.55664">
        <ele>677</ele>
        <time>2022-06-26T13:23:54Z</time>
      </trkpt>
      <trkpt lat="45.7251" lon="4.55664">
        <ele>677.2</ele>
        <time>2022-06-26T13:23:55Z</time>
      </trkpt>
      <trkpt lat="45.72509" lon="4.55664">
        <ele>677.6</ele>
        <time>2022-06-26T13:23:56Z</time>
      </trkpt>
      <trkpt lat="45.72504" lon="4.55664">
        <ele>678</ele>
        <time>2022-06-26T13:23:59Z</time>
      </trkpt>
      <trkpt lat="45.72502" lon="4.55665">
        <ele>678.4</ele>
        <time>2022-06-26T13:24:00Z</time>
      </trkpt>
      <trkpt lat="45.72501" lon="4.55665">
        <ele>678.4</ele>
        <time>2022-06-26T13:24:01Z</time>
      </trkpt>
      <trkpt lat="45.72499" lon="4.55665">
        <ele>678.8</ele>
        <time>2022-06-26T13:24:02Z</time>
      </trkpt>
      <trkpt lat="45.72498" lon="4.55666">
        <ele>679</ele>
        <time>2022-06-26T13:24:03Z</time>
      </trkpt>
      <trkpt lat="45.72496" lon="4.55667">
        <ele>679.2</ele>
        <time>2022-06-26T13:24:04Z</time>
      </trkpt>
      <trkpt lat="45.72495" lon="4.55667">
        <ele>679.2</ele>
        <time>2022-06-26T13:24:05Z</time>
      </trkpt>
      <trkpt lat="45.72493" lon="4.55667">
        <ele>679.4</ele>
        <time>2022-06-26T13:24:06Z</time>
      </trkpt>
      <trkpt lat="45.72491" lon="4.55668">
        <ele>679.4</ele>
        <time>2022-06-26T13:24:07Z</time>
      </trkpt>
      <trkpt lat="45.72489" lon="4.55669">
        <ele>679.8</ele>
        <time>2022-06-26T13:24:08Z</time>
      </trkpt>
      <trkpt lat="45.72488" lon="4.5567">
        <ele>679.8</ele>
        <time>2022-06-26T13:24:09Z</time>
      </trkpt>
      <trkpt lat="45.72487" lon="4.55671">
        <ele>680</ele>
        <time>2022-06-26T13:24:10Z</time>
      </trkpt>
      <trkpt lat="45.72486" lon="4.55672">
        <ele>680</ele>
        <time>2022-06-26T13:24:11Z</time>
      </trkpt>
      <trkpt lat="45.72484" lon="4.55673">
        <ele>680.4</ele>
        <time>2022-06-26T13:24:12Z</time>
      </trkpt>
      <trkpt lat="45.72482" lon="4.55674">
        <ele>680.4</ele>
        <time>2022-06-26T13:24:13Z</time>
      </trkpt>
      <trkpt lat="45.72481" lon="4.55674">
        <ele>680.8</ele>
        <time>2022-06-26T13:24:14Z</time>
      </trkpt>
      <trkpt lat="45.72479" lon="4.55676">
        <ele>680.8</ele>
        <time>2022-06-26T13:24:15Z</time>
      </trkpt>
      <trkpt lat="45.72478" lon="4.55678">
        <ele>681.2</ele>
        <time>2022-06-26T13:24:16Z</time>
      </trkpt>
      <trkpt lat="45.72477" lon="4.55679">
        <ele>681.2</ele>
        <time>2022-06-26T13:24:17Z</time>
      </trkpt>
      <trkpt lat="45.72475" lon="4.55681">
        <ele>681.6</ele>
        <time>2022-06-26T13:24:18Z</time>
      </trkpt>
      <trkpt lat="45.72474" lon="4.55682">
        <ele>681.6</ele>
        <time>2022-06-26T13:24:19Z</time>
      </trkpt>
      <trkpt lat="45.72472" lon="4.55684">
        <ele>682</ele>
        <time>2022-06-26T13:24:20Z</time>
      </trkpt>
      <trkpt lat="45.72471" lon="4.55685">
        <ele>682.2</ele>
        <time>2022-06-26T13:24:21Z</time>
      </trkpt>
      <trkpt lat="45.72469" lon="4.55685">
        <ele>682.4</ele>
        <time>2022-06-26T13:24:22Z</time>
      </trkpt>
      <trkpt lat="45.72468" lon="4.55686">
        <ele>682.8</ele>
        <time>2022-06-26T13:24:23Z</time>
      </trkpt>
      <trkpt lat="45.72466" lon="4.55687">
        <ele>683</ele>
        <time>2022-06-26T13:24:24Z</time>
      </trkpt>
      <trkpt lat="45.72464" lon="4.55689">
        <ele>683</ele>
        <time>2022-06-26T13:24:25Z</time>
      </trkpt>
      <trkpt lat="45.72462" lon="4.5569">
        <ele>683.4</ele>
        <time>2022-06-26T13:24:26Z</time>
      </trkpt>
      <trkpt lat="45.72461" lon="4.55691">
        <ele>683.6</ele>
        <time>2022-06-26T13:24:27Z</time>
      </trkpt>
      <trkpt lat="45.72459" lon="4.55693">
        <ele>683.6</ele>
        <time>2022-06-26T13:24:28Z</time>
      </trkpt>
      <trkpt lat="45.72457" lon="4.55694">
        <ele>684</ele>
        <time>2022-06-26T13:24:29Z</time>
      </trkpt>
      <trkpt lat="45.72456" lon="4.55695">
        <ele>684.2</ele>
        <time>2022-06-26T13:24:30Z</time>
      </trkpt>
      <trkpt lat="45.72454" lon="4.55696">
        <ele>684.4</ele>
        <time>2022-06-26T13:24:31Z</time>
      </trkpt>
      <trkpt lat="45.72453" lon="4.55697">
        <ele>684.6</ele>
        <time>2022-06-26T13:24:32Z</time>
      </trkpt>
      <trkpt lat="45.72452" lon="4.55699">
        <ele>684.8</ele>
        <time>2022-06-26T13:24:33Z</time>
      </trkpt>
      <trkpt lat="45.7245" lon="4.557">
        <ele>684.8</ele>
        <time>2022-06-26T13:24:34Z</time>
      </trkpt>
      <trkpt lat="45.72449" lon="4.55701">
        <ele>685.2</ele>
        <time>2022-06-26T13:24:35Z</time>
      </trkpt>
      <trkpt lat="45.72448" lon="4.55702">
        <ele>685.2</ele>
        <time>2022-06-26T13:24:36Z</time>
      </trkpt>
      <trkpt lat="45.72446" lon="4.55702">
        <ele>685.6</ele>
        <time>2022-06-26T13:24:37Z</time>
      </trkpt>
      <trkpt lat="45.72445" lon="4.55703">
        <ele>685.6</ele>
        <time>2022-06-26T13:24:38Z</time>
      </trkpt>
      <trkpt lat="45.72443" lon="4.55703">
        <ele>686</ele>
        <time>2022-06-26T13:24:39Z</time>
      </trkpt>
      <trkpt lat="45.72441" lon="4.55703">
        <ele>686</ele>
        <time>2022-06-26T13:24:40Z</time>
      </trkpt>
      <trkpt lat="45.7244" lon="4.55702">
        <ele>686.4</ele>
        <time>2022-06-26T13:24:41Z</time>
      </trkpt>
      <trkpt lat="45.72439" lon="4.55701">
        <ele>686.4</ele>
        <time>2022-06-26T13:24:42Z</time>
      </trkpt>
      <trkpt lat="45.72437" lon="4.55699">
        <ele>686.8</ele>
        <time>2022-06-26T13:24:43Z</time>
      </trkpt>
      <trkpt lat="45.72436" lon="4.55698">
        <ele>687</ele>
        <time>2022-06-26T13:24:44Z</time>
      </trkpt>
      <trkpt lat="45.72435" lon="4.55696">
        <ele>687</ele>
        <time>2022-06-26T13:24:45Z</time>
      </trkpt>
      <trkpt lat="45.72435" lon="4.55694">
        <ele>687.4</ele>
        <time>2022-06-26T13:24:46Z</time>
      </trkpt>
      <trkpt lat="45.72435" lon="4.55692">
        <ele>687.4</ele>
        <time>2022-06-26T13:24:47Z</time>
      </trkpt>
      <trkpt lat="45.72435" lon="4.5569">
        <ele>687.8</ele>
        <time>2022-06-26T13:24:48Z</time>
      </trkpt>
      <trkpt lat="45.72435" lon="4.55688">
        <ele>687.8</ele>
        <time>2022-06-26T13:24:49Z</time>
      </trkpt>
      <trkpt lat="45.72436" lon="4.55686">
        <ele>688</ele>
        <time>2022-06-26T13:24:50Z</time>
      </trkpt>
      <trkpt lat="45.72436" lon="4.55684">
        <ele>688.4</ele>
        <time>2022-06-26T13:24:51Z</time>
      </trkpt>
      <trkpt lat="45.72437" lon="4.55682">
        <ele>688.4</ele>
        <time>2022-06-26T13:24:52Z</time>
      </trkpt>
      <trkpt lat="45.72438" lon="4.55681">
        <ele>688.4</ele>
        <time>2022-06-26T13:24:53Z</time>
      </trkpt>
      <trkpt lat="45.72438" lon="4.55679">
        <ele>688.6</ele>
        <time>2022-06-26T13:24:54Z</time>
      </trkpt>
      <trkpt lat="45.72439" lon="4.55678">
        <ele>688.8</ele>
        <time>2022-06-26T13:24:55Z</time>
      </trkpt>
      <trkpt lat="45.7244" lon="4.55677">
        <ele>688.8</ele>
        <time>2022-06-26T13:24:56Z</time>
      </trkpt>
      <trkpt lat="45.72441" lon="4.55675">
        <ele>689.2</ele>
        <time>2022-06-26T13:24:57Z</time>
      </trkpt>
      <trkpt lat="45.72442" lon="4.55674">
        <ele>689.2</ele>
        <time>2022-06-26T13:24:58Z</time>
      </trkpt>
      <trkpt lat="45.72444" lon="4.55673">
        <ele>689.6</ele>
        <time>2022-06-26T13:24:59Z</time>
      </trkpt>
      <trkpt lat="45.72445" lon="4.55672">
        <ele>689.6</ele>
        <time>2022-06-26T13:25:00Z</time>
      </trkpt>
      <trkpt lat="45.72446" lon="4.5567">
        <ele>689.8</ele>
        <time>2022-06-26T13:25:01Z</time>
      </trkpt>
      <trkpt lat="45.72447" lon="4.55669">
        <ele>689.8</ele>
        <time>2022-06-26T13:25:02Z</time>
      </trkpt>
      <trkpt lat="45.72448" lon="4.55667">
        <ele>690.2</ele>
        <time>2022-06-26T13:25:03Z</time>
      </trkpt>
      <trkpt lat="45.72449" lon="4.55666">
        <ele>690.2</ele>
        <time>2022-06-26T13:25:04Z</time>
      </trkpt>
      <trkpt lat="45.72451" lon="4.55665">
        <ele>690.4</ele>
        <time>2022-06-26T13:25:05Z</time>
      </trkpt>
      <trkpt lat="45.72453" lon="4.55664">
        <ele>690.4</ele>
        <time>2022-06-26T13:25:06Z</time>
      </trkpt>
      <trkpt lat="45.72454" lon="4.55663">
        <ele>690.6</ele>
        <time>2022-06-26T13:25:07Z</time>
      </trkpt>
      <trkpt lat="45.72456" lon="4.55661">
        <ele>690.6</ele>
        <time>2022-06-26T13:25:08Z</time>
      </trkpt>
      <trkpt lat="45.72457" lon="4.5566">
        <ele>691</ele>
        <time>2022-06-26T13:25:09Z</time>
      </trkpt>
      <trkpt lat="45.72459" lon="4.55658">
        <ele>691</ele>
        <time>2022-06-26T13:25:10Z</time>
      </trkpt>
      <trkpt lat="45.7246" lon="4.55657">
        <ele>691.2</ele>
        <time>2022-06-26T13:25:11Z</time>
      </trkpt>
      <trkpt lat="45.72462" lon="4.55655">
        <ele>691.2</ele>
        <time>2022-06-26T13:25:12Z</time>
      </trkpt>
      <trkpt lat="45.72463" lon="4.55653">
        <ele>691.6</ele>
        <time>2022-06-26T13:25:13Z</time>
      </trkpt>
      <trkpt lat="45.72465" lon="4.55652">
        <ele>691.6</ele>
        <time>2022-06-26T13:25:14Z</time>
      </trkpt>
      <trkpt lat="45.72466" lon="4.55651">
        <ele>691.8</ele>
        <time>2022-06-26T13:25:15Z</time>
      </trkpt>
      <trkpt lat="45.72468" lon="4.5565">
        <ele>691.8</ele>
        <time>2022-06-26T13:25:16Z</time>
      </trkpt>
      <trkpt lat="45.7247" lon="4.55649">
        <ele>692.2</ele>
        <time>2022-06-26T13:25:17Z</time>
      </trkpt>
      <trkpt lat="45.72472" lon="4.55648">
        <ele>692.2</ele>
        <time>2022-06-26T13:25:18Z</time>
      </trkpt>
      <trkpt lat="45.72473" lon="4.55647">
        <ele>692.4</ele>
        <time>2022-06-26T13:25:19Z</time>
      </trkpt>
      <trkpt lat="45.72475" lon="4.55645">
        <ele>692.6</ele>
        <time>2022-06-26T13:25:20Z</time>
      </trkpt>
      <trkpt lat="45.72476" lon="4.55644">
        <ele>692.6</ele>
        <time>2022-06-26T13:25:21Z</time>
      </trkpt>
      <trkpt lat="45.72477" lon="4.55642">
        <ele>693</ele>
        <time>2022-06-26T13:25:22Z</time>
      </trkpt>
      <trkpt lat="45.72479" lon="4.55641">
        <ele>693</ele>
        <time>2022-06-26T13:25:23Z</time>
      </trkpt>
      <trkpt lat="45.7248" lon="4.5564">
        <ele>693.4</ele>
        <time>2022-06-26T13:25:24Z</time>
      </trkpt>
      <trkpt lat="45.72481" lon="4.55639">
        <ele>693.6</ele>
        <time>2022-06-26T13:25:25Z</time>
      </trkpt>
      <trkpt lat="45.72483" lon="4.55639">
        <ele>693.6</ele>
        <time>2022-06-26T13:25:26Z</time>
      </trkpt>
      <trkpt lat="45.72484" lon="4.55638">
        <ele>693.8</ele>
        <time>2022-06-26T13:25:27Z</time>
      </trkpt>
      <trkpt lat="45.72486" lon="4.55637">
        <ele>693.8</ele>
        <time>2022-06-26T13:25:28Z</time>
      </trkpt>
      <trkpt lat="45.72487" lon="4.55636">
        <ele>694.2</ele>
        <time>2022-06-26T13:25:29Z</time>
      </trkpt>
      <trkpt lat="45.72488" lon="4.55636">
        <ele>694.2</ele>
        <time>2022-06-26T13:25:30Z</time>
      </trkpt>
      <trkpt lat="45.7249" lon="4.55635">
        <ele>694.4</ele>
        <time>2022-06-26T13:25:31Z</time>
      </trkpt>
      <trkpt lat="45.72491" lon="4.55634">
        <ele>694.4</ele>
        <time>2022-06-26T13:25:32Z</time>
      </trkpt>
      <trkpt lat="45.72493" lon="4.55633">
        <ele>694.8</ele>
        <time>2022-06-26T13:25:33Z</time>
      </trkpt>
      <trkpt lat="45.72494" lon="4.55631">
        <ele>694.8</ele>
        <time>2022-06-26T13:25:34Z</time>
      </trkpt>
      <trkpt lat="45.72495" lon="4.5563">
        <ele>695.2</ele>
        <time>2022-06-26T13:25:35Z</time>
      </trkpt>
      <trkpt lat="45.72496" lon="4.55629">
        <ele>695.2</ele>
        <time>2022-06-26T13:25:36Z</time>
      </trkpt>
      <trkpt lat="45.72498" lon="4.55627">
        <ele>695.6</ele>
        <time>2022-06-26T13:25:37Z</time>
      </trkpt>
      <trkpt lat="45.72499" lon="4.55626">
        <ele>695.6</ele>
        <time>2022-06-26T13:25:38Z</time>
      </trkpt>
      <trkpt lat="45.725" lon="4.55625">
        <ele>695.8</ele>
        <time>2022-06-26T13:25:39Z</time>
      </trkpt>
      <trkpt lat="45.72502" lon="4.55624">
        <ele>695.8</ele>
        <time>2022-06-26T13:25:40Z</time>
      </trkpt>
      <trkpt lat="45.72503" lon="4.55622">
        <ele>696.2</ele>
        <time>2022-06-26T13:25:41Z</time>
      </trkpt>
      <trkpt lat="45.72504" lon="4.5562">
        <ele>696.4</ele>
        <time>2022-06-26T13:25:42Z</time>
      </trkpt>
      <trkpt lat="45.72505" lon="4.55619">
        <ele>696.4</ele>
        <time>2022-06-26T13:25:43Z</time>
      </trkpt>
      <trkpt lat="45.72506" lon="4.55617">
        <ele>696.8</ele>
        <time>2022-06-26T13:25:44Z</time>
      </trkpt>
      <trkpt lat="45.72508" lon="4.55616">
        <ele>696.8</ele>
        <time>2022-06-26T13:25:45Z</time>
      </trkpt>
      <trkpt lat="45.72509" lon="4.55615">
        <ele>697</ele>
        <time>2022-06-26T13:25:46Z</time>
      </trkpt>
      <trkpt lat="45.7251" lon="4.55613">
        <ele>697</ele>
        <time>2022-06-26T13:25:47Z</time>
      </trkpt>
      <trkpt lat="45.72511" lon="4.55611">
        <ele>697.4</ele>
        <time>2022-06-26T13:25:48Z</time>
      </trkpt>
      <trkpt lat="45.72512" lon="4.5561">
        <ele>697.4</ele>
        <time>2022-06-26T13:25:49Z</time>
      </trkpt>
      <trkpt lat="45.72514" lon="4.55608">
        <ele>697.6</ele>
        <time>2022-06-26T13:25:50Z</time>
      </trkpt>
      <trkpt lat="45.72515" lon="4.55607">
        <ele>697.6</ele>
        <time>2022-06-26T13:25:51Z</time>
      </trkpt>
      <trkpt lat="45.72516" lon="4.55605">
        <ele>698</ele>
        <time>2022-06-26T13:25:52Z</time>
      </trkpt>
      <trkpt lat="45.72518" lon="4.55604">
        <ele>698</ele>
        <time>2022-06-26T13:25:53Z</time>
      </trkpt>
      <trkpt lat="45.72519" lon="4.55602">
        <ele>698.2</ele>
        <time>2022-06-26T13:25:54Z</time>
      </trkpt>
      <trkpt lat="45.7252" lon="4.556">
        <ele>698.2</ele>
        <time>2022-06-26T13:25:55Z</time>
      </trkpt>
      <trkpt lat="45.72521" lon="4.55598">
        <ele>698.4</ele>
        <time>2022-06-26T13:25:56Z</time>
      </trkpt>
      <trkpt lat="45.72522" lon="4.55596">
        <ele>698.4</ele>
        <time>2022-06-26T13:25:57Z</time>
      </trkpt>
      <trkpt lat="45.72523" lon="4.55594">
        <ele>698.8</ele>
        <time>2022-06-26T13:25:58Z</time>
      </trkpt>
      <trkpt lat="45.72524" lon="4.55592">
        <ele>698.8</ele>
        <time>2022-06-26T13:25:59Z</time>
      </trkpt>
      <trkpt lat="45.72525" lon="4.5559">
        <ele>699</ele>
        <time>2022-06-26T13:26:00Z</time>
      </trkpt>
      <trkpt lat="45.72526" lon="4.55589">
        <ele>699</ele>
        <time>2022-06-26T13:26:01Z</time>
      </trkpt>
      <trkpt lat="45.72527" lon="4.55587">
        <ele>699.4</ele>
        <time>2022-06-26T13:26:02Z</time>
      </trkpt>
      <trkpt lat="45.72528" lon="4.55586">
        <ele>699.4</ele>
        <time>2022-06-26T13:26:03Z</time>
      </trkpt>
      <trkpt lat="45.72529" lon="4.55585">
        <ele>699.8</ele>
        <time>2022-06-26T13:26:04Z</time>
      </trkpt>
      <trkpt lat="45.7253" lon="4.55583">
        <ele>699.8</ele>
        <time>2022-06-26T13:26:05Z</time>
      </trkpt>
      <trkpt lat="45.72531" lon="4.55581">
        <ele>700.2</ele>
        <time>2022-06-26T13:26:06Z</time>
      </trkpt>
      <trkpt lat="45.72532" lon="4.5558">
        <ele>700.2</ele>
        <time>2022-06-26T13:26:07Z</time>
      </trkpt>
      <trkpt lat="45.72532" lon="4.55578">
        <ele>700.4</ele>
        <time>2022-06-26T13:26:08Z</time>
      </trkpt>
      <trkpt lat="45.72533" lon="4.55576">
        <ele>700.4</ele>
        <time>2022-06-26T13:26:09Z</time>
      </trkpt>
      <trkpt lat="45.72534" lon="4.55574">
        <ele>700.8</ele>
        <time>2022-06-26T13:26:10Z</time>
      </trkpt>
      <trkpt lat="45.72535" lon="4.55572">
        <ele>700.8</ele>
        <time>2022-06-26T13:26:11Z</time>
      </trkpt>
      <trkpt lat="45.72535" lon="4.5557">
        <ele>701.2</ele>
        <time>2022-06-26T13:26:12Z</time>
      </trkpt>
      <trkpt lat="45.72536" lon="4.55568">
        <ele>701.2</ele>
        <time>2022-06-26T13:26:13Z</time>
      </trkpt>
      <trkpt lat="45.72537" lon="4.55566">
        <ele>701.4</ele>
        <time>2022-06-26T13:26:14Z</time>
      </trkpt>
      <trkpt lat="45.72538" lon="4.55564">
        <ele>701.4</ele>
        <time>2022-06-26T13:26:15Z</time>
      </trkpt>
      <trkpt lat="45.72538" lon="4.55562">
        <ele>701.8</ele>
        <time>2022-06-26T13:26:16Z</time>
      </trkpt>
      <trkpt lat="45.72539" lon="4.5556">
        <ele>702</ele>
        <time>2022-06-26T13:26:17Z</time>
      </trkpt>
      <trkpt lat="45.72539" lon="4.55558">
        <ele>702</ele>
        <time>2022-06-26T13:26:18Z</time>
      </trkpt>
      <trkpt lat="45.7254" lon="4.55556">
        <ele>702.4</ele>
        <time>2022-06-26T13:26:19Z</time>
      </trkpt>
      <trkpt lat="45.7254" lon="4.55554">
        <ele>702.4</ele>
        <time>2022-06-26T13:26:20Z</time>
      </trkpt>
      <trkpt lat="45.72541" lon="4.55552">
        <ele>702.6</ele>
        <time>2022-06-26T13:26:21Z</time>
      </trkpt>
      <trkpt lat="45.72542" lon="4.5555">
        <ele>702.6</ele>
        <time>2022-06-26T13:26:22Z</time>
      </trkpt>
      <trkpt lat="45.72542" lon="4.55548">
        <ele>703.2</ele>
        <time>2022-06-26T13:26:23Z</time>
      </trkpt>
      <trkpt lat="45.72543" lon="4.55546">
        <ele>703.4</ele>
        <time>2022-06-26T13:26:24Z</time>
      </trkpt>
      <trkpt lat="45.72544" lon="4.55544">
        <ele>703.4</ele>
        <time>2022-06-26T13:26:25Z</time>
      </trkpt>
      <trkpt lat="45.72545" lon="4.55542">
        <ele>703.6</ele>
        <time>2022-06-26T13:26:26Z</time>
      </trkpt>
      <trkpt lat="45.72545" lon="4.55541">
        <ele>703.6</ele>
        <time>2022-06-26T13:26:27Z</time>
      </trkpt>
      <trkpt lat="45.72546" lon="4.55539">
        <ele>704</ele>
        <time>2022-06-26T13:26:28Z</time>
      </trkpt>
      <trkpt lat="45.72547" lon="4.55537">
        <ele>704</ele>
        <time>2022-06-26T13:26:29Z</time>
      </trkpt>
      <trkpt lat="45.72548" lon="4.55536">
        <ele>704.2</ele>
        <time>2022-06-26T13:26:30Z</time>
      </trkpt>
      <trkpt lat="45.72548" lon="4.55534">
        <ele>704.2</ele>
        <time>2022-06-26T13:26:31Z</time>
      </trkpt>
      <trkpt lat="45.72549" lon="4.55532">
        <ele>704.4</ele>
        <time>2022-06-26T13:26:32Z</time>
      </trkpt>
      <trkpt lat="45.7255" lon="4.55531">
        <ele>704.4</ele>
        <time>2022-06-26T13:26:33Z</time>
      </trkpt>
      <trkpt lat="45.72551" lon="4.55529">
        <ele>704.8</ele>
        <time>2022-06-26T13:26:34Z</time>
      </trkpt>
      <trkpt lat="45.72552" lon="4.55528">
        <ele>704.8</ele>
        <time>2022-06-26T13:26:35Z</time>
      </trkpt>
      <trkpt lat="45.72554" lon="4.55526">
        <ele>705</ele>
        <time>2022-06-26T13:26:36Z</time>
      </trkpt>
      <trkpt lat="45.72555" lon="4.55524">
        <ele>705</ele>
        <time>2022-06-26T13:26:37Z</time>
      </trkpt>
      <trkpt lat="45.72556" lon="4.55522">
        <ele>705.4</ele>
        <time>2022-06-26T13:26:38Z</time>
      </trkpt>
      <trkpt lat="45.72557" lon="4.5552">
        <ele>705.4</ele>
        <time>2022-06-26T13:26:39Z</time>
      </trkpt>
      <trkpt lat="45.72558" lon="4.55518">
        <ele>705.6</ele>
        <time>2022-06-26T13:26:40Z</time>
      </trkpt>
      <trkpt lat="45.72558" lon="4.55516">
        <ele>705.6</ele>
        <time>2022-06-26T13:26:41Z</time>
      </trkpt>
      <trkpt lat="45.72559" lon="4.55514">
        <ele>706</ele>
        <time>2022-06-26T13:26:42Z</time>
      </trkpt>
      <trkpt lat="45.7256" lon="4.55512">
        <ele>706</ele>
        <time>2022-06-26T13:26:43Z</time>
      </trkpt>
      <trkpt lat="45.7256" lon="4.55509">
        <ele>706.2</ele>
        <time>2022-06-26T13:26:44Z</time>
      </trkpt>
      <trkpt lat="45.72561" lon="4.55507">
        <ele>706.2</ele>
        <time>2022-06-26T13:26:45Z</time>
      </trkpt>
      <trkpt lat="45.72561" lon="4.55505">
        <ele>706.6</ele>
        <time>2022-06-26T13:26:46Z</time>
      </trkpt>
      <trkpt lat="45.72562" lon="4.55502">
        <ele>706.6</ele>
        <time>2022-06-26T13:26:47Z</time>
      </trkpt>
      <trkpt lat="45.72562" lon="4.555">
        <ele>706.8</ele>
        <time>2022-06-26T13:26:48Z</time>
      </trkpt>
      <trkpt lat="45.72563" lon="4.55498">
        <ele>706.8</ele>
        <time>2022-06-26T13:26:49Z</time>
      </trkpt>
      <trkpt lat="45.72564" lon="4.55495">
        <ele>707.2</ele>
        <time>2022-06-26T13:26:50Z</time>
      </trkpt>
      <trkpt lat="45.72565" lon="4.55493">
        <ele>707.4</ele>
        <time>2022-06-26T13:26:51Z</time>
      </trkpt>
      <trkpt lat="45.72566" lon="4.55489">
        <ele>707.6</ele>
        <time>2022-06-26T13:26:52Z</time>
      </trkpt>
      <trkpt lat="45.72567" lon="4.55487">
        <ele>707.6</ele>
        <time>2022-06-26T13:26:53Z</time>
      </trkpt>
      <trkpt lat="45.72567" lon="4.55485">
        <ele>708</ele>
        <time>2022-06-26T13:26:54Z</time>
      </trkpt>
      <trkpt lat="45.72567" lon="4.55483">
        <ele>708</ele>
        <time>2022-06-26T13:26:55Z</time>
      </trkpt>
      <trkpt lat="45.72567" lon="4.5548">
        <ele>708.2</ele>
        <time>2022-06-26T13:26:56Z</time>
      </trkpt>
      <trkpt lat="45.72568" lon="4.55478">
        <ele>708.2</ele>
        <time>2022-06-26T13:26:57Z</time>
      </trkpt>
      <trkpt lat="45.72568" lon="4.55476">
        <ele>708.4</ele>
        <time>2022-06-26T13:26:58Z</time>
      </trkpt>
      <trkpt lat="45.72568" lon="4.55474">
        <ele>708.4</ele>
        <time>2022-06-26T13:26:59Z</time>
      </trkpt>
      <trkpt lat="45.72569" lon="4.55472">
        <ele>708.6</ele>
        <time>2022-06-26T13:27:00Z</time>
      </trkpt>
      <trkpt lat="45.72569" lon="4.55469">
        <ele>708.6</ele>
        <time>2022-06-26T13:27:01Z</time>
      </trkpt>
      <trkpt lat="45.72569" lon="4.55467">
        <ele>709</ele>
        <time>2022-06-26T13:27:02Z</time>
      </trkpt>
      <trkpt lat="45.7257" lon="4.55466">
        <ele>709</ele>
        <time>2022-06-26T13:27:03Z</time>
      </trkpt>
      <trkpt lat="45.7257" lon="4.55463">
        <ele>709.4</ele>
        <time>2022-06-26T13:27:04Z</time>
      </trkpt>
      <trkpt lat="45.7257" lon="4.55461">
        <ele>709.4</ele>
        <time>2022-06-26T13:27:05Z</time>
      </trkpt>
      <trkpt lat="45.72571" lon="4.55459">
        <ele>709.6</ele>
        <time>2022-06-26T13:27:06Z</time>
      </trkpt>
      <trkpt lat="45.72571" lon="4.55458">
        <ele>709.6</ele>
        <time>2022-06-26T13:27:07Z</time>
      </trkpt>
      <trkpt lat="45.72572" lon="4.55456">
        <ele>709.8</ele>
        <time>2022-06-26T13:27:08Z</time>
      </trkpt>
      <trkpt lat="45.72572" lon="4.55454">
        <ele>709.8</ele>
        <time>2022-06-26T13:27:09Z</time>
      </trkpt>
      <trkpt lat="45.72573" lon="4.55453">
        <ele>710.2</ele>
        <time>2022-06-26T13:27:10Z</time>
      </trkpt>
      <trkpt lat="45.72574" lon="4.55451">
        <ele>710.2</ele>
        <time>2022-06-26T13:27:11Z</time>
      </trkpt>
      <trkpt lat="45.72574" lon="4.55449">
        <ele>710.4</ele>
        <time>2022-06-26T13:27:12Z</time>
      </trkpt>
      <trkpt lat="45.72575" lon="4.55447">
        <ele>710.4</ele>
        <time>2022-06-26T13:27:13Z</time>
      </trkpt>
      <trkpt lat="45.72575" lon="4.55445">
        <ele>710.8</ele>
        <time>2022-06-26T13:27:14Z</time>
      </trkpt>
      <trkpt lat="45.72576" lon="4.55443">
        <ele>711.2</ele>
        <time>2022-06-26T13:27:15Z</time>
      </trkpt>
      <trkpt lat="45.72577" lon="4.55441">
        <ele>711.4</ele>
        <time>2022-06-26T13:27:16Z</time>
      </trkpt>
      <trkpt lat="45.72577" lon="4.55439">
        <ele>711.4</ele>
        <time>2022-06-26T13:27:17Z</time>
      </trkpt>
      <trkpt lat="45.72577" lon="4.55437">
        <ele>711.6</ele>
        <time>2022-06-26T13:27:18Z</time>
      </trkpt>
      <trkpt lat="45.72577" lon="4.55434">
        <ele>711.6</ele>
        <time>2022-06-26T13:27:19Z</time>
      </trkpt>
      <trkpt lat="45.72577" lon="4.55432">
        <ele>712</ele>
        <time>2022-06-26T13:27:20Z</time>
      </trkpt>
      <trkpt lat="45.72578" lon="4.5543">
        <ele>712.2</ele>
        <time>2022-06-26T13:27:21Z</time>
      </trkpt>
      <trkpt lat="45.72579" lon="4.55428">
        <ele>712.2</ele>
        <time>2022-06-26T13:27:22Z</time>
      </trkpt>
      <trkpt lat="45.7258" lon="4.55426">
        <ele>712.6</ele>
        <time>2022-06-26T13:27:23Z</time>
      </trkpt>
      <trkpt lat="45.7258" lon="4.55424">
        <ele>712.6</ele>
        <time>2022-06-26T13:27:24Z</time>
      </trkpt>
      <trkpt lat="45.72581" lon="4.55422">
        <ele>713</ele>
        <time>2022-06-26T13:27:25Z</time>
      </trkpt>
      <trkpt lat="45.72582" lon="4.55419">
        <ele>713</ele>
        <time>2022-06-26T13:27:26Z</time>
      </trkpt>
      <trkpt lat="45.72583" lon="4.55417">
        <ele>713.2</ele>
        <time>2022-06-26T13:27:27Z</time>
      </trkpt>
      <trkpt lat="45.72583" lon="4.55415">
        <ele>713.2</ele>
        <time>2022-06-26T13:27:28Z</time>
      </trkpt>
      <trkpt lat="45.72584" lon="4.55413">
        <ele>713.4</ele>
        <time>2022-06-26T13:27:29Z</time>
      </trkpt>
      <trkpt lat="45.72585" lon="4.55411">
        <ele>713.4</ele>
        <time>2022-06-26T13:27:30Z</time>
      </trkpt>
      <trkpt lat="45.72584" lon="4.55409">
        <ele>713.8</ele>
        <time>2022-06-26T13:27:31Z</time>
      </trkpt>
      <trkpt lat="45.72584" lon="4.55406">
        <ele>713.8</ele>
        <time>2022-06-26T13:27:32Z</time>
      </trkpt>
      <trkpt lat="45.72584" lon="4.55404">
        <ele>714.2</ele>
        <time>2022-06-26T13:27:33Z</time>
      </trkpt>
      <trkpt lat="45.72584" lon="4.55402">
        <ele>714.2</ele>
        <time>2022-06-26T13:27:34Z</time>
      </trkpt>
      <trkpt lat="45.72584" lon="4.55399">
        <ele>714.4</ele>
        <time>2022-06-26T13:27:35Z</time>
      </trkpt>
      <trkpt lat="45.72584" lon="4.55396">
        <ele>714.8</ele>
        <time>2022-06-26T13:27:36Z</time>
      </trkpt>
      <trkpt lat="45.72584" lon="4.55394">
        <ele>715</ele>
        <time>2022-06-26T13:27:37Z</time>
      </trkpt>
      <trkpt lat="45.72583" lon="4.55391">
        <ele>715</ele>
        <time>2022-06-26T13:27:38Z</time>
      </trkpt>
      <trkpt lat="45.72582" lon="4.55388">
        <ele>715.2</ele>
        <time>2022-06-26T13:27:39Z</time>
      </trkpt>
      <trkpt lat="45.72582" lon="4.55386">
        <ele>715.2</ele>
        <time>2022-06-26T13:27:40Z</time>
      </trkpt>
      <trkpt lat="45.72581" lon="4.55383">
        <ele>715.6</ele>
        <time>2022-06-26T13:27:41Z</time>
      </trkpt>
      <trkpt lat="45.7258" lon="4.55381">
        <ele>715.6</ele>
        <time>2022-06-26T13:27:42Z</time>
      </trkpt>
      <trkpt lat="45.7258" lon="4.55378">
        <ele>715.8</ele>
        <time>2022-06-26T13:27:43Z</time>
      </trkpt>
      <trkpt lat="45.7258" lon="4.55376">
        <ele>715.8</ele>
        <time>2022-06-26T13:27:44Z</time>
      </trkpt>
      <trkpt lat="45.72579" lon="4.55373">
        <ele>715.8</ele>
        <time>2022-06-26T13:27:45Z</time>
      </trkpt>
      <trkpt lat="45.72579" lon="4.5537">
        <ele>716.2</ele>
        <time>2022-06-26T13:27:46Z</time>
      </trkpt>
      <trkpt lat="45.72578" lon="4.55368">
        <ele>716.2</ele>
        <time>2022-06-26T13:27:47Z</time>
      </trkpt>
      <trkpt lat="45.72578" lon="4.55365">
        <ele>716.4</ele>
        <time>2022-06-26T13:27:48Z</time>
      </trkpt>
      <trkpt lat="45.72577" lon="4.55363">
        <ele>716.4</ele>
        <time>2022-06-26T13:27:49Z</time>
      </trkpt>
      <trkpt lat="45.72577" lon="4.55361">
        <ele>716.8</ele>
        <time>2022-06-26T13:27:50Z</time>
      </trkpt>
      <trkpt lat="45.72576" lon="4.55359">
        <ele>716.8</ele>
        <time>2022-06-26T13:27:51Z</time>
      </trkpt>
      <trkpt lat="45.72576" lon="4.55357">
        <ele>717</ele>
        <time>2022-06-26T13:27:52Z</time>
      </trkpt>
      <trkpt lat="45.72575" lon="4.55354">
        <ele>717</ele>
        <time>2022-06-26T13:27:53Z</time>
      </trkpt>
      <trkpt lat="45.72575" lon="4.55352">
        <ele>717.4</ele>
        <time>2022-06-26T13:27:54Z</time>
      </trkpt>
      <trkpt lat="45.72574" lon="4.5535">
        <ele>717.4</ele>
        <time>2022-06-26T13:27:55Z</time>
      </trkpt>
      <trkpt lat="45.72574" lon="4.55348">
        <ele>717.6</ele>
        <time>2022-06-26T13:27:56Z</time>
      </trkpt>
      <trkpt lat="45.72573" lon="4.55346">
        <ele>717.6</ele>
        <time>2022-06-26T13:27:57Z</time>
      </trkpt>
      <trkpt lat="45.72572" lon="4.55344">
        <ele>718</ele>
        <time>2022-06-26T13:27:58Z</time>
      </trkpt>
      <trkpt lat="45.72571" lon="4.55341">
        <ele>718.2</ele>
        <time>2022-06-26T13:27:59Z</time>
      </trkpt>
      <trkpt lat="45.7257" lon="4.55339">
        <ele>718.2</ele>
        <time>2022-06-26T13:28:00Z</time>
      </trkpt>
      <trkpt lat="45.7257" lon="4.55337">
        <ele>718.6</ele>
        <time>2022-06-26T13:28:01Z</time>
      </trkpt>
      <trkpt lat="45.7257" lon="4.55335">
        <ele>718.6</ele>
        <time>2022-06-26T13:28:02Z</time>
      </trkpt>
      <trkpt lat="45.72569" lon="4.55332">
        <ele>719</ele>
        <time>2022-06-26T13:28:03Z</time>
      </trkpt>
      <trkpt lat="45.72569" lon="4.5533">
        <ele>719</ele>
        <time>2022-06-26T13:28:04Z</time>
      </trkpt>
      <trkpt lat="45.72568" lon="4.55328">
        <ele>719.2</ele>
        <time>2022-06-26T13:28:05Z</time>
      </trkpt>
      <trkpt lat="45.72567" lon="4.55326">
        <ele>719.2</ele>
        <time>2022-06-26T13:28:06Z</time>
      </trkpt>
      <trkpt lat="45.72566" lon="4.55324">
        <ele>719.6</ele>
        <time>2022-06-26T13:28:08Z</time>
      </trkpt>
      <trkpt lat="45.72565" lon="4.55322">
        <ele>720</ele>
        <time>2022-06-26T13:28:09Z</time>
      </trkpt>
      <trkpt lat="45.72564" lon="4.55319">
        <ele>720</ele>
        <time>2022-06-26T13:28:10Z</time>
      </trkpt>
      <trkpt lat="45.72563" lon="4.55317">
        <ele>720.2</ele>
        <time>2022-06-26T13:28:11Z</time>
      </trkpt>
      <trkpt lat="45.72562" lon="4.55315">
        <ele>720.2</ele>
        <time>2022-06-26T13:28:12Z</time>
      </trkpt>
      <trkpt lat="45.72562" lon="4.55312">
        <ele>720.6</ele>
        <time>2022-06-26T13:28:13Z</time>
      </trkpt>
      <trkpt lat="45.72561" lon="4.5531">
        <ele>720.6</ele>
        <time>2022-06-26T13:28:14Z</time>
      </trkpt>
      <trkpt lat="45.7256" lon="4.55308">
        <ele>721</ele>
        <time>2022-06-26T13:28:15Z</time>
      </trkpt>
      <trkpt lat="45.7256" lon="4.55306">
        <ele>721.2</ele>
        <time>2022-06-26T13:28:16Z</time>
      </trkpt>
      <trkpt lat="45.72559" lon="4.55304">
        <ele>721.2</ele>
        <time>2022-06-26T13:28:17Z</time>
      </trkpt>
      <trkpt lat="45.72557" lon="4.55302">
        <ele>721.6</ele>
        <time>2022-06-26T13:28:18Z</time>
      </trkpt>
      <trkpt lat="45.72556" lon="4.553">
        <ele>721.6</ele>
        <time>2022-06-26T13:28:19Z</time>
      </trkpt>
      <trkpt lat="45.72555" lon="4.55298">
        <ele>721.8</ele>
        <time>2022-06-26T13:28:20Z</time>
      </trkpt>
      <trkpt lat="45.72554" lon="4.55296">
        <ele>721.8</ele>
        <time>2022-06-26T13:28:21Z</time>
      </trkpt>
      <trkpt lat="45.72553" lon="4.55294">
        <ele>722.2</ele>
        <time>2022-06-26T13:28:22Z</time>
      </trkpt>
      <trkpt lat="45.72552" lon="4.55292">
        <ele>722.2</ele>
        <time>2022-06-26T13:28:23Z</time>
      </trkpt>
      <trkpt lat="45.72551" lon="4.5529">
        <ele>722.4</ele>
        <time>2022-06-26T13:28:24Z</time>
      </trkpt>
      <trkpt lat="45.7255" lon="4.55288">
        <ele>722.4</ele>
        <time>2022-06-26T13:28:25Z</time>
      </trkpt>
      <trkpt lat="45.72549" lon="4.55286">
        <ele>722.6</ele>
        <time>2022-06-26T13:28:26Z</time>
      </trkpt>
      <trkpt lat="45.72548" lon="4.55285">
        <ele>722.6</ele>
        <time>2022-06-26T13:28:27Z</time>
      </trkpt>
      <trkpt lat="45.72547" lon="4.55283">
        <ele>722.8</ele>
        <time>2022-06-26T13:28:28Z</time>
      </trkpt>
      <trkpt lat="45.72546" lon="4.55282">
        <ele>722.8</ele>
        <time>2022-06-26T13:28:29Z</time>
      </trkpt>
      <trkpt lat="45.72544" lon="4.5528">
        <ele>723</ele>
        <time>2022-06-26T13:28:30Z</time>
      </trkpt>
      <trkpt lat="45.72543" lon="4.55278">
        <ele>723</ele>
        <time>2022-06-26T13:28:31Z</time>
      </trkpt>
      <trkpt lat="45.72542" lon="4.55277">
        <ele>723.4</ele>
        <time>2022-06-26T13:28:32Z</time>
      </trkpt>
      <trkpt lat="45.7254" lon="4.55276">
        <ele>723.4</ele>
        <time>2022-06-26T13:28:33Z</time>
      </trkpt>
      <trkpt lat="45.72539" lon="4.55274">
        <ele>723.6</ele>
        <time>2022-06-26T13:28:34Z</time>
      </trkpt>
      <trkpt lat="45.72538" lon="4.55272">
        <ele>723.6</ele>
        <time>2022-06-26T13:28:35Z</time>
      </trkpt>
      <trkpt lat="45.72537" lon="4.5527">
        <ele>723.6</ele>
        <time>2022-06-26T13:28:36Z</time>
      </trkpt>
      <trkpt lat="45.72536" lon="4.55268">
        <ele>724</ele>
        <time>2022-06-26T13:28:37Z</time>
      </trkpt>
      <trkpt lat="45.72535" lon="4.55267">
        <ele>724</ele>
        <time>2022-06-26T13:28:38Z</time>
      </trkpt>
      <trkpt lat="45.72534" lon="4.55265">
        <ele>724.2</ele>
        <time>2022-06-26T13:28:39Z</time>
      </trkpt>
      <trkpt lat="45.72533" lon="4.55264">
        <ele>724.2</ele>
        <time>2022-06-26T13:28:40Z</time>
      </trkpt>
      <trkpt lat="45.72531" lon="4.55262">
        <ele>724.6</ele>
        <time>2022-06-26T13:28:41Z</time>
      </trkpt>
      <trkpt lat="45.7253" lon="4.55261">
        <ele>724.6</ele>
        <time>2022-06-26T13:28:42Z</time>
      </trkpt>
      <trkpt lat="45.72529" lon="4.5526">
        <ele>724.8</ele>
        <time>2022-06-26T13:28:43Z</time>
      </trkpt>
      <trkpt lat="45.72527" lon="4.55258">
        <ele>724.8</ele>
        <time>2022-06-26T13:28:44Z</time>
      </trkpt>
      <trkpt lat="45.72526" lon="4.55257">
        <ele>725</ele>
        <time>2022-06-26T13:28:45Z</time>
      </trkpt>
      <trkpt lat="45.72525" lon="4.55255">
        <ele>725</ele>
        <time>2022-06-26T13:28:46Z</time>
      </trkpt>
      <trkpt lat="45.72524" lon="4.55253">
        <ele>725.4</ele>
        <time>2022-06-26T13:28:47Z</time>
      </trkpt>
      <trkpt lat="45.72523" lon="4.55252">
        <ele>725.4</ele>
        <time>2022-06-26T13:28:48Z</time>
      </trkpt>
      <trkpt lat="45.72522" lon="4.5525">
        <ele>725.6</ele>
        <time>2022-06-26T13:28:49Z</time>
      </trkpt>
      <trkpt lat="45.7252" lon="4.55248">
        <ele>725.6</ele>
        <time>2022-06-26T13:28:50Z</time>
      </trkpt>
      <trkpt lat="45.72519" lon="4.55247">
        <ele>725.6</ele>
        <time>2022-06-26T13:28:51Z</time>
      </trkpt>
      <trkpt lat="45.72517" lon="4.55245">
        <ele>726</ele>
        <time>2022-06-26T13:28:52Z</time>
      </trkpt>
      <trkpt lat="45.72515" lon="4.55244">
        <ele>726</ele>
        <time>2022-06-26T13:28:53Z</time>
      </trkpt>
      <trkpt lat="45.72514" lon="4.55242">
        <ele>726</ele>
        <time>2022-06-26T13:28:54Z</time>
      </trkpt>
      <trkpt lat="45.72512" lon="4.55241">
        <ele>726.2</ele>
        <time>2022-06-26T13:28:55Z</time>
      </trkpt>
      <trkpt lat="45.72511" lon="4.5524">
        <ele>726.2</ele>
        <time>2022-06-26T13:28:56Z</time>
      </trkpt>
      <trkpt lat="45.7251" lon="4.55239">
        <ele>726.4</ele>
        <time>2022-06-26T13:28:57Z</time>
      </trkpt>
      <trkpt lat="45.72508" lon="4.55238">
        <ele>726.4</ele>
        <time>2022-06-26T13:28:58Z</time>
      </trkpt>
      <trkpt lat="45.72507" lon="4.55236">
        <ele>726.8</ele>
        <time>2022-06-26T13:28:59Z</time>
      </trkpt>
      <trkpt lat="45.72505" lon="4.55235">
        <ele>726.8</ele>
        <time>2022-06-26T13:29:00Z</time>
      </trkpt>
      <trkpt lat="45.72504" lon="4.55234">
        <ele>727</ele>
        <time>2022-06-26T13:29:01Z</time>
      </trkpt>
      <trkpt lat="45.72502" lon="4.55233">
        <ele>727</ele>
        <time>2022-06-26T13:29:02Z</time>
      </trkpt>
      <trkpt lat="45.72501" lon="4.55231">
        <ele>727.4</ele>
        <time>2022-06-26T13:29:03Z</time>
      </trkpt>
      <trkpt lat="45.72499" lon="4.5523">
        <ele>727.4</ele>
        <time>2022-06-26T13:29:04Z</time>
      </trkpt>
      <trkpt lat="45.72498" lon="4.55229">
        <ele>727.6</ele>
        <time>2022-06-26T13:29:05Z</time>
      </trkpt>
      <trkpt lat="45.72496" lon="4.55228">
        <ele>727.6</ele>
        <time>2022-06-26T13:29:06Z</time>
      </trkpt>
      <trkpt lat="45.72494" lon="4.55227">
        <ele>727.8</ele>
        <time>2022-06-26T13:29:07Z</time>
      </trkpt>
      <trkpt lat="45.72493" lon="4.55225">
        <ele>727.8</ele>
        <time>2022-06-26T13:29:08Z</time>
      </trkpt>
      <trkpt lat="45.72491" lon="4.55224">
        <ele>728</ele>
        <time>2022-06-26T13:29:09Z</time>
      </trkpt>
      <trkpt lat="45.7249" lon="4.55223">
        <ele>728</ele>
        <time>2022-06-26T13:29:10Z</time>
      </trkpt>
      <trkpt lat="45.72488" lon="4.55222">
        <ele>728.4</ele>
        <time>2022-06-26T13:29:11Z</time>
      </trkpt>
      <trkpt lat="45.72487" lon="4.5522">
        <ele>728.4</ele>
        <time>2022-06-26T13:29:12Z</time>
      </trkpt>
      <trkpt lat="45.72485" lon="4.55219">
        <ele>728.4</ele>
        <time>2022-06-26T13:29:13Z</time>
      </trkpt>
      <trkpt lat="45.72483" lon="4.55218">
        <ele>728.6</ele>
        <time>2022-06-26T13:29:14Z</time>
      </trkpt>
      <trkpt lat="45.72482" lon="4.55217">
        <ele>728.6</ele>
        <time>2022-06-26T13:29:15Z</time>
      </trkpt>
      <trkpt lat="45.7248" lon="4.55216">
        <ele>729</ele>
        <time>2022-06-26T13:29:16Z</time>
      </trkpt>
      <trkpt lat="45.72478" lon="4.55216">
        <ele>729</ele>
        <time>2022-06-26T13:29:17Z</time>
      </trkpt>
      <trkpt lat="45.72476" lon="4.55215">
        <ele>729.2</ele>
        <time>2022-06-26T13:29:18Z</time>
      </trkpt>
      <trkpt lat="45.72475" lon="4.55214">
        <ele>729.2</ele>
        <time>2022-06-26T13:29:19Z</time>
      </trkpt>
      <trkpt lat="45.72473" lon="4.55213">
        <ele>729.4</ele>
        <time>2022-06-26T13:29:20Z</time>
      </trkpt>
      <trkpt lat="45.72471" lon="4.55212">
        <ele>729.4</ele>
        <time>2022-06-26T13:29:21Z</time>
      </trkpt>
      <trkpt lat="45.7247" lon="4.55211">
        <ele>729.6</ele>
        <time>2022-06-26T13:29:22Z</time>
      </trkpt>
      <trkpt lat="45.72468" lon="4.5521">
        <ele>730</ele>
        <time>2022-06-26T13:29:23Z</time>
      </trkpt>
      <trkpt lat="45.72466" lon="4.55209">
        <ele>730.2</ele>
        <time>2022-06-26T13:29:24Z</time>
      </trkpt>
      <trkpt lat="45.72465" lon="4.55208">
        <ele>730.2</ele>
        <time>2022-06-26T13:29:25Z</time>
      </trkpt>
      <trkpt lat="45.72463" lon="4.55207">
        <ele>730.4</ele>
        <time>2022-06-26T13:29:26Z</time>
      </trkpt>
      <trkpt lat="45.72462" lon="4.55206">
        <ele>730.4</ele>
        <time>2022-06-26T13:29:27Z</time>
      </trkpt>
      <trkpt lat="45.7246" lon="4.55206">
        <ele>730.6</ele>
        <time>2022-06-26T13:29:28Z</time>
      </trkpt>
      <trkpt lat="45.72458" lon="4.55205">
        <ele>730.6</ele>
        <time>2022-06-26T13:29:29Z</time>
      </trkpt>
      <trkpt lat="45.72456" lon="4.55204">
        <ele>731</ele>
        <time>2022-06-26T13:29:30Z</time>
      </trkpt>
      <trkpt lat="45.72455" lon="4.55203">
        <ele>731</ele>
        <time>2022-06-26T13:29:31Z</time>
      </trkpt>
      <trkpt lat="45.72453" lon="4.55203">
        <ele>731</ele>
        <time>2022-06-26T13:29:32Z</time>
      </trkpt>
      <trkpt lat="45.72451" lon="4.55202">
        <ele>731.4</ele>
        <time>2022-06-26T13:29:33Z</time>
      </trkpt>
      <trkpt lat="45.72449" lon="4.55202">
        <ele>731.4</ele>
        <time>2022-06-26T13:29:34Z</time>
      </trkpt>
      <trkpt lat="45.72448" lon="4.55201">
        <ele>731.4</ele>
        <time>2022-06-26T13:29:35Z</time>
      </trkpt>
      <trkpt lat="45.72446" lon="4.552">
        <ele>731.6</ele>
        <time>2022-06-26T13:29:36Z</time>
      </trkpt>
      <trkpt lat="45.72444" lon="4.55199">
        <ele>731.6</ele>
        <time>2022-06-26T13:29:37Z</time>
      </trkpt>
      <trkpt lat="45.72443" lon="4.55198">
        <ele>731.8</ele>
        <time>2022-06-26T13:29:38Z</time>
      </trkpt>
      <trkpt lat="45.72441" lon="4.55197">
        <ele>731.8</ele>
        <time>2022-06-26T13:29:39Z</time>
      </trkpt>
      <trkpt lat="45.7244" lon="4.55196">
        <ele>732</ele>
        <time>2022-06-26T13:29:40Z</time>
      </trkpt>
      <trkpt lat="45.72438" lon="4.55195">
        <ele>732</ele>
        <time>2022-06-26T13:29:41Z</time>
      </trkpt>
      <trkpt lat="45.72436" lon="4.55193">
        <ele>732.4</ele>
        <time>2022-06-26T13:29:42Z</time>
      </trkpt>
      <trkpt lat="45.72435" lon="4.55192">
        <ele>732.4</ele>
        <time>2022-06-26T13:29:43Z</time>
      </trkpt>
      <trkpt lat="45.72433" lon="4.55191">
        <ele>732.4</ele>
        <time>2022-06-26T13:29:44Z</time>
      </trkpt>
      <trkpt lat="45.72431" lon="4.5519">
        <ele>732.6</ele>
        <time>2022-06-26T13:29:45Z</time>
      </trkpt>
      <trkpt lat="45.7243" lon="4.55189">
        <ele>732.6</ele>
        <time>2022-06-26T13:29:46Z</time>
      </trkpt>
      <trkpt lat="45.72428" lon="4.55188">
        <ele>732.6</ele>
        <time>2022-06-26T13:29:47Z</time>
      </trkpt>
      <trkpt lat="45.72426" lon="4.55187">
        <ele>733</ele>
        <time>2022-06-26T13:29:48Z</time>
      </trkpt>
      <trkpt lat="45.72424" lon="4.55186">
        <ele>733</ele>
        <time>2022-06-26T13:29:49Z</time>
      </trkpt>
      <trkpt lat="45.72423" lon="4.55184">
        <ele>733.2</ele>
        <time>2022-06-26T13:29:50Z</time>
      </trkpt>
      <trkpt lat="45.72421" lon="4.55183">
        <ele>733.2</ele>
        <time>2022-06-26T13:29:51Z</time>
      </trkpt>
      <trkpt lat="45.72419" lon="4.55181">
        <ele>733.6</ele>
        <time>2022-06-26T13:29:52Z</time>
      </trkpt>
      <trkpt lat="45.72417" lon="4.5518">
        <ele>733.6</ele>
        <time>2022-06-26T13:29:53Z</time>
      </trkpt>
      <trkpt lat="45.72415" lon="4.55179">
        <ele>734</ele>
        <time>2022-06-26T13:29:54Z</time>
      </trkpt>
      <trkpt lat="45.72413" lon="4.55177">
        <ele>734</ele>
        <time>2022-06-26T13:29:55Z</time>
      </trkpt>
      <trkpt lat="45.72411" lon="4.55176">
        <ele>734.2</ele>
        <time>2022-06-26T13:29:56Z</time>
      </trkpt>
      <trkpt lat="45.7241" lon="4.55174">
        <ele>734.2</ele>
        <time>2022-06-26T13:29:57Z</time>
      </trkpt>
      <trkpt lat="45.72408" lon="4.55173">
        <ele>734.6</ele>
        <time>2022-06-26T13:29:58Z</time>
      </trkpt>
      <trkpt lat="45.72407" lon="4.55172">
        <ele>734.8</ele>
        <time>2022-06-26T13:29:59Z</time>
      </trkpt>
      <trkpt lat="45.72405" lon="4.5517">
        <ele>734.8</ele>
        <time>2022-06-26T13:30:00Z</time>
      </trkpt>
      <trkpt lat="45.72403" lon="4.55169">
        <ele>735</ele>
        <time>2022-06-26T13:30:01Z</time>
      </trkpt>
      <trkpt lat="45.72402" lon="4.55168">
        <ele>735</ele>
        <time>2022-06-26T13:30:02Z</time>
      </trkpt>
      <trkpt lat="45.724" lon="4.55166">
        <ele>735.4</ele>
        <time>2022-06-26T13:30:03Z</time>
      </trkpt>
      <trkpt lat="45.72398" lon="4.55165">
        <ele>735.4</ele>
        <time>2022-06-26T13:30:04Z</time>
      </trkpt>
      <trkpt lat="45.72397" lon="4.55164">
        <ele>735.8</ele>
        <time>2022-06-26T13:30:05Z</time>
      </trkpt>
      <trkpt lat="45.72395" lon="4.55162">
        <ele>735.8</ele>
        <time>2022-06-26T13:30:06Z</time>
      </trkpt>
      <trkpt lat="45.72394" lon="4.55161">
        <ele>736.2</ele>
        <time>2022-06-26T13:30:07Z</time>
      </trkpt>
      <trkpt lat="45.72392" lon="4.5516">
        <ele>736.4</ele>
        <time>2022-06-26T13:30:08Z</time>
      </trkpt>
      <trkpt lat="45.7239" lon="4.55159">
        <ele>736.4</ele>
        <time>2022-06-26T13:30:09Z</time>
      </trkpt>
      <trkpt lat="45.72388" lon="4.55157">
        <ele>736.8</ele>
        <time>2022-06-26T13:30:10Z</time>
      </trkpt>
      <trkpt lat="45.72387" lon="4.55155">
        <ele>736.8</ele>
        <time>2022-06-26T13:30:11Z</time>
      </trkpt>
      <trkpt lat="45.72385" lon="4.55153">
        <ele>737</ele>
        <time>2022-06-26T13:30:12Z</time>
      </trkpt>
      <trkpt lat="45.72383" lon="4.55151">
        <ele>737</ele>
        <time>2022-06-26T13:30:13Z</time>
      </trkpt>
      <trkpt lat="45.72382" lon="4.55149">
        <ele>737.4</ele>
        <time>2022-06-26T13:30:14Z</time>
      </trkpt>
      <trkpt lat="45.7238" lon="4.55147">
        <ele>737.6</ele>
        <time>2022-06-26T13:30:15Z</time>
      </trkpt>
      <trkpt lat="45.72378" lon="4.55146">
        <ele>737.8</ele>
        <time>2022-06-26T13:30:16Z</time>
      </trkpt>
      <trkpt lat="45.72376" lon="4.55144">
        <ele>737.8</ele>
        <time>2022-06-26T13:30:17Z</time>
      </trkpt>
      <trkpt lat="45.72375" lon="4.55143">
        <ele>738.2</ele>
        <time>2022-06-26T13:30:18Z</time>
      </trkpt>
      <trkpt lat="45.72373" lon="4.55142">
        <ele>738.2</ele>
        <time>2022-06-26T13:30:19Z</time>
      </trkpt>
      <trkpt lat="45.72371" lon="4.55141">
        <ele>738.6</ele>
        <time>2022-06-26T13:30:20Z</time>
      </trkpt>
      <trkpt lat="45.72369" lon="4.55139">
        <ele>738.8</ele>
        <time>2022-06-26T13:30:21Z</time>
      </trkpt>
      <trkpt lat="45.72367" lon="4.55138">
        <ele>738.8</ele>
        <time>2022-06-26T13:30:22Z</time>
      </trkpt>
      <trkpt lat="45.72365" lon="4.55137">
        <ele>739</ele>
        <time>2022-06-26T13:30:23Z</time>
      </trkpt>
      <trkpt lat="45.72362" lon="4.55136">
        <ele>739</ele>
        <time>2022-06-26T13:30:24Z</time>
      </trkpt>
      <trkpt lat="45.7236" lon="4.55135">
        <ele>739.4</ele>
        <time>2022-06-26T13:30:25Z</time>
      </trkpt>
      <trkpt lat="45.72357" lon="4.55133">
        <ele>739.6</ele>
        <time>2022-06-26T13:30:26Z</time>
      </trkpt>
      <trkpt lat="45.72355" lon="4.55132">
        <ele>739.6</ele>
        <time>2022-06-26T13:30:27Z</time>
      </trkpt>
      <trkpt lat="45.72353" lon="4.55131">
        <ele>740</ele>
        <time>2022-06-26T13:30:28Z</time>
      </trkpt>
      <trkpt lat="45.72351" lon="4.55129">
        <ele>740</ele>
        <time>2022-06-26T13:30:29Z</time>
      </trkpt>
      <trkpt lat="45.72349" lon="4.55128">
        <ele>740.2</ele>
        <time>2022-06-26T13:30:30Z</time>
      </trkpt>
      <trkpt lat="45.72347" lon="4.55127">
        <ele>740.2</ele>
        <time>2022-06-26T13:30:31Z</time>
      </trkpt>
      <trkpt lat="45.72344" lon="4.55126">
        <ele>740.6</ele>
        <time>2022-06-26T13:30:32Z</time>
      </trkpt>
      <trkpt lat="45.72342" lon="4.55125">
        <ele>740.6</ele>
        <time>2022-06-26T13:30:33Z</time>
      </trkpt>
      <trkpt lat="45.7234" lon="4.55125">
        <ele>740.8</ele>
        <time>2022-06-26T13:30:34Z</time>
      </trkpt>
      <trkpt lat="45.72338" lon="4.55124">
        <ele>741</ele>
        <time>2022-06-26T13:30:35Z</time>
      </trkpt>
      <trkpt lat="45.72336" lon="4.55124">
        <ele>741</ele>
        <time>2022-06-26T13:30:36Z</time>
      </trkpt>
      <trkpt lat="45.72335" lon="4.55123">
        <ele>741.4</ele>
        <time>2022-06-26T13:30:37Z</time>
      </trkpt>
      <trkpt lat="45.72333" lon="4.55123">
        <ele>741.4</ele>
        <time>2022-06-26T13:30:38Z</time>
      </trkpt>
      <trkpt lat="45.72331" lon="4.55123">
        <ele>741.8</ele>
        <time>2022-06-26T13:30:39Z</time>
      </trkpt>
      <trkpt lat="45.72329" lon="4.55122">
        <ele>741.8</ele>
        <time>2022-06-26T13:30:40Z</time>
      </trkpt>
      <trkpt lat="45.72327" lon="4.55122">
        <ele>742</ele>
        <time>2022-06-26T13:30:41Z</time>
      </trkpt>
      <trkpt lat="45.72325" lon="4.55122">
        <ele>742</ele>
        <time>2022-06-26T13:30:42Z</time>
      </trkpt>
      <trkpt lat="45.72323" lon="4.55121">
        <ele>742.4</ele>
        <time>2022-06-26T13:30:43Z</time>
      </trkpt>
      <trkpt lat="45.72321" lon="4.55121">
        <ele>742.4</ele>
        <time>2022-06-26T13:30:44Z</time>
      </trkpt>
      <trkpt lat="45.72318" lon="4.55121">
        <ele>742.6</ele>
        <time>2022-06-26T13:30:45Z</time>
      </trkpt>
      <trkpt lat="45.72316" lon="4.55122">
        <ele>742.8</ele>
        <time>2022-06-26T13:30:46Z</time>
      </trkpt>
      <trkpt lat="45.72314" lon="4.55121">
        <ele>742.8</ele>
        <time>2022-06-26T13:30:47Z</time>
      </trkpt>
      <trkpt lat="45.72312" lon="4.55121">
        <ele>743.2</ele>
        <time>2022-06-26T13:30:48Z</time>
      </trkpt>
      <trkpt lat="45.7231" lon="4.55121">
        <ele>743.2</ele>
        <time>2022-06-26T13:30:49Z</time>
      </trkpt>
      <trkpt lat="45.72308" lon="4.55121">
        <ele>743.6</ele>
        <time>2022-06-26T13:30:50Z</time>
      </trkpt>
      <trkpt lat="45.72306" lon="4.55121">
        <ele>743.6</ele>
        <time>2022-06-26T13:30:51Z</time>
      </trkpt>
      <trkpt lat="45.72303" lon="4.55122">
        <ele>744</ele>
        <time>2022-06-26T13:30:52Z</time>
      </trkpt>
      <trkpt lat="45.72301" lon="4.55122">
        <ele>744</ele>
        <time>2022-06-26T13:30:53Z</time>
      </trkpt>
      <trkpt lat="45.72299" lon="4.55122">
        <ele>744.2</ele>
        <time>2022-06-26T13:30:54Z</time>
      </trkpt>
      <trkpt lat="45.72297" lon="4.55122">
        <ele>744.2</ele>
        <time>2022-06-26T13:30:55Z</time>
      </trkpt>
      <trkpt lat="45.72295" lon="4.55122">
        <ele>744.2</ele>
        <time>2022-06-26T13:30:56Z</time>
      </trkpt>
      <trkpt lat="45.72293" lon="4.55122">
        <ele>744.6</ele>
        <time>2022-06-26T13:30:57Z</time>
      </trkpt>
      <trkpt lat="45.72291" lon="4.55122">
        <ele>744.8</ele>
        <time>2022-06-26T13:30:58Z</time>
      </trkpt>
      <trkpt lat="45.72289" lon="4.55122">
        <ele>745</ele>
        <time>2022-06-26T13:30:59Z</time>
      </trkpt>
      <trkpt lat="45.72288" lon="4.55123">
        <ele>745</ele>
        <time>2022-06-26T13:31:00Z</time>
      </trkpt>
      <trkpt lat="45.72286" lon="4.55123">
        <ele>745.4</ele>
        <time>2022-06-26T13:31:01Z</time>
      </trkpt>
      <trkpt lat="45.72284" lon="4.55123">
        <ele>745.4</ele>
        <time>2022-06-26T13:31:02Z</time>
      </trkpt>
      <trkpt lat="45.72282" lon="4.55123">
        <ele>745.6</ele>
        <time>2022-06-26T13:31:03Z</time>
      </trkpt>
      <trkpt lat="45.7228" lon="4.55124">
        <ele>745.6</ele>
        <time>2022-06-26T13:31:04Z</time>
      </trkpt>
      <trkpt lat="45.72278" lon="4.55124">
        <ele>746</ele>
        <time>2022-06-26T13:31:05Z</time>
      </trkpt>
      <trkpt lat="45.72277" lon="4.55125">
        <ele>746</ele>
        <time>2022-06-26T13:31:06Z</time>
      </trkpt>
      <trkpt lat="45.72275" lon="4.55125">
        <ele>746.2</ele>
        <time>2022-06-26T13:31:07Z</time>
      </trkpt>
      <trkpt lat="45.72273" lon="4.55125">
        <ele>746.2</ele>
        <time>2022-06-26T13:31:08Z</time>
      </trkpt>
      <trkpt lat="45.72271" lon="4.55125">
        <ele>746.4</ele>
        <time>2022-06-26T13:31:09Z</time>
      </trkpt>
      <trkpt lat="45.72269" lon="4.55125">
        <ele>746.4</ele>
        <time>2022-06-26T13:31:10Z</time>
      </trkpt>
      <trkpt lat="45.72267" lon="4.55124">
        <ele>746.8</ele>
        <time>2022-06-26T13:31:11Z</time>
      </trkpt>
      <trkpt lat="45.72265" lon="4.55124">
        <ele>746.8</ele>
        <time>2022-06-26T13:31:12Z</time>
      </trkpt>
      <trkpt lat="45.72264" lon="4.55124">
        <ele>747</ele>
        <time>2022-06-26T13:31:13Z</time>
      </trkpt>
      <trkpt lat="45.72262" lon="4.55124">
        <ele>747.2</ele>
        <time>2022-06-26T13:31:14Z</time>
      </trkpt>
      <trkpt lat="45.7226" lon="4.55124">
        <ele>747.4</ele>
        <time>2022-06-26T13:31:15Z</time>
      </trkpt>
      <trkpt lat="45.72258" lon="4.55123">
        <ele>747.8</ele>
        <time>2022-06-26T13:31:16Z</time>
      </trkpt>
      <trkpt lat="45.72256" lon="4.55123">
        <ele>747.8</ele>
        <time>2022-06-26T13:31:17Z</time>
      </trkpt>
      <trkpt lat="45.72254" lon="4.55123">
        <ele>748.2</ele>
        <time>2022-06-26T13:31:18Z</time>
      </trkpt>
      <trkpt lat="45.72252" lon="4.55123">
        <ele>748.4</ele>
        <time>2022-06-26T13:31:19Z</time>
      </trkpt>
      <trkpt lat="45.7225" lon="4.55123">
        <ele>748.4</ele>
        <time>2022-06-26T13:31:20Z</time>
      </trkpt>
      <trkpt lat="45.72248" lon="4.55123">
        <ele>748.8</ele>
        <time>2022-06-26T13:31:21Z</time>
      </trkpt>
      <trkpt lat="45.72246" lon="4.55123">
        <ele>749</ele>
        <time>2022-06-26T13:31:22Z</time>
      </trkpt>
      <trkpt lat="45.72245" lon="4.55123">
        <ele>749.2</ele>
        <time>2022-06-26T13:31:23Z</time>
      </trkpt>
      <trkpt lat="45.72243" lon="4.55123">
        <ele>749.4</ele>
        <time>2022-06-26T13:31:24Z</time>
      </trkpt>
      <trkpt lat="45.72241" lon="4.55123">
        <ele>749.8</ele>
        <time>2022-06-26T13:31:25Z</time>
      </trkpt>
      <trkpt lat="45.72239" lon="4.55122">
        <ele>750</ele>
        <time>2022-06-26T13:31:26Z</time>
      </trkpt>
      <trkpt lat="45.72238" lon="4.55122">
        <ele>750</ele>
        <time>2022-06-26T13:31:27Z</time>
      </trkpt>
      <trkpt lat="45.72236" lon="4.55121">
        <ele>750.4</ele>
        <time>2022-06-26T13:31:28Z</time>
      </trkpt>
      <trkpt lat="45.72234" lon="4.55121">
        <ele>750.6</ele>
        <time>2022-06-26T13:31:29Z</time>
      </trkpt>
      <trkpt lat="45.72233" lon="4.55121">
        <ele>750.8</ele>
        <time>2022-06-26T13:31:30Z</time>
      </trkpt>
      <trkpt lat="45.72231" lon="4.5512">
        <ele>750.8</ele>
        <time>2022-06-26T13:31:31Z</time>
      </trkpt>
      <trkpt lat="45.72229" lon="4.5512">
        <ele>750.8</ele>
        <time>2022-06-26T13:31:32Z</time>
      </trkpt>
      <trkpt lat="45.72227" lon="4.55121">
        <ele>750.8</ele>
        <time>2022-06-26T13:31:33Z</time>
      </trkpt>
      <trkpt lat="45.72226" lon="4.55123">
        <ele>751</ele>
        <time>2022-06-26T13:31:34Z</time>
      </trkpt>
      <trkpt lat="45.72225" lon="4.55125">
        <ele>751</ele>
        <time>2022-06-26T13:31:35Z</time>
      </trkpt>
      <trkpt lat="45.72225" lon="4.55128">
        <ele>751</ele>
        <time>2022-06-26T13:31:36Z</time>
      </trkpt>
      <trkpt lat="45.72226" lon="4.55131">
        <ele>751.4</ele>
        <time>2022-06-26T13:31:37Z</time>
      </trkpt>
      <trkpt lat="45.72227" lon="4.55133">
        <ele>751.4</ele>
        <time>2022-06-26T13:31:38Z</time>
      </trkpt>
      <trkpt lat="45.72229" lon="4.55135">
        <ele>751.6</ele>
        <time>2022-06-26T13:31:39Z</time>
      </trkpt>
      <trkpt lat="45.7223" lon="4.55137">
        <ele>751.6</ele>
        <time>2022-06-26T13:31:40Z</time>
      </trkpt>
      <trkpt lat="45.72232" lon="4.55138">
        <ele>751.6</ele>
        <time>2022-06-26T13:31:41Z</time>
      </trkpt>
      <trkpt lat="45.72234" lon="4.5514">
        <ele>752</ele>
        <time>2022-06-26T13:31:42Z</time>
      </trkpt>
      <trkpt lat="45.72237" lon="4.55141">
        <ele>752</ele>
        <time>2022-06-26T13:31:43Z</time>
      </trkpt>
      <trkpt lat="45.72239" lon="4.55142">
        <ele>752.2</ele>
        <time>2022-06-26T13:31:44Z</time>
      </trkpt>
      <trkpt lat="45.72241" lon="4.55143">
        <ele>752.2</ele>
        <time>2022-06-26T13:31:45Z</time>
      </trkpt>
      <trkpt lat="45.72243" lon="4.55144">
        <ele>752.4</ele>
        <time>2022-06-26T13:31:46Z</time>
      </trkpt>
      <trkpt lat="45.72245" lon="4.55145">
        <ele>752.4</ele>
        <time>2022-06-26T13:31:47Z</time>
      </trkpt>
      <trkpt lat="45.72248" lon="4.55146">
        <ele>752.6</ele>
        <time>2022-06-26T13:31:48Z</time>
      </trkpt>
      <trkpt lat="45.7225" lon="4.55147">
        <ele>752.6</ele>
        <time>2022-06-26T13:31:49Z</time>
      </trkpt>
      <trkpt lat="45.72252" lon="4.55148">
        <ele>753</ele>
        <time>2022-06-26T13:31:50Z</time>
      </trkpt>
      <trkpt lat="45.72254" lon="4.55149">
        <ele>753</ele>
        <time>2022-06-26T13:31:51Z</time>
      </trkpt>
      <trkpt lat="45.72257" lon="4.5515">
        <ele>753.2</ele>
        <time>2022-06-26T13:31:52Z</time>
      </trkpt>
      <trkpt lat="45.72259" lon="4.5515">
        <ele>753.2</ele>
        <time>2022-06-26T13:31:53Z</time>
      </trkpt>
      <trkpt lat="45.72262" lon="4.55151">
        <ele>753.2</ele>
        <time>2022-06-26T13:31:54Z</time>
      </trkpt>
      <trkpt lat="45.72264" lon="4.55152">
        <ele>753.6</ele>
        <time>2022-06-26T13:31:55Z</time>
      </trkpt>
      <trkpt lat="45.72266" lon="4.55152">
        <ele>753.6</ele>
        <time>2022-06-26T13:31:56Z</time>
      </trkpt>
      <trkpt lat="45.72268" lon="4.55153">
        <ele>753.6</ele>
        <time>2022-06-26T13:31:57Z</time>
      </trkpt>
      <trkpt lat="45.7227" lon="4.55153">
        <ele>753.8</ele>
        <time>2022-06-26T13:31:58Z</time>
      </trkpt>
      <trkpt lat="45.72272" lon="4.55154">
        <ele>753.8</ele>
        <time>2022-06-26T13:31:59Z</time>
      </trkpt>
      <trkpt lat="45.72274" lon="4.55155">
        <ele>754</ele>
        <time>2022-06-26T13:32:00Z</time>
      </trkpt>
      <trkpt lat="45.72276" lon="4.55156">
        <ele>754</ele>
        <time>2022-06-26T13:32:01Z</time>
      </trkpt>
      <trkpt lat="45.72278" lon="4.55157">
        <ele>754</ele>
        <time>2022-06-26T13:32:02Z</time>
      </trkpt>
      <trkpt lat="45.7228" lon="4.55158">
        <ele>754.2</ele>
        <time>2022-06-26T13:32:03Z</time>
      </trkpt>
      <trkpt lat="45.72283" lon="4.55159">
        <ele>754.2</ele>
        <time>2022-06-26T13:32:04Z</time>
      </trkpt>
      <trkpt lat="45.72285" lon="4.55159">
        <ele>754.4</ele>
        <time>2022-06-26T13:32:05Z</time>
      </trkpt>
      <trkpt lat="45.72287" lon="4.5516">
        <ele>754.4</ele>
        <time>2022-06-26T13:32:06Z</time>
      </trkpt>
      <trkpt lat="45.7229" lon="4.55161">
        <ele>754.8</ele>
        <time>2022-06-26T13:32:07Z</time>
      </trkpt>
      <trkpt lat="45.72292" lon="4.55161">
        <ele>754.8</ele>
        <time>2022-06-26T13:32:08Z</time>
      </trkpt>
      <trkpt lat="45.72294" lon="4.55162">
        <ele>755</ele>
        <time>2022-06-26T13:32:09Z</time>
      </trkpt>
      <trkpt lat="45.72296" lon="4.55163">
        <ele>755</ele>
        <time>2022-06-26T13:32:10Z</time>
      </trkpt>
      <trkpt lat="45.72299" lon="4.55164">
        <ele>755.4</ele>
        <time>2022-06-26T13:32:11Z</time>
      </trkpt>
      <trkpt lat="45.72302" lon="4.55166">
        <ele>755.4</ele>
        <time>2022-06-26T13:32:12Z</time>
      </trkpt>
      <trkpt lat="45.72304" lon="4.55167">
        <ele>755.6</ele>
        <time>2022-06-26T13:32:13Z</time>
      </trkpt>
      <trkpt lat="45.72306" lon="4.55168">
        <ele>755.6</ele>
        <time>2022-06-26T13:32:14Z</time>
      </trkpt>
      <trkpt lat="45.72309" lon="4.55169">
        <ele>755.8</ele>
        <time>2022-06-26T13:32:15Z</time>
      </trkpt>
      <trkpt lat="45.72311" lon="4.5517">
        <ele>755.8</ele>
        <time>2022-06-26T13:32:16Z</time>
      </trkpt>
      <trkpt lat="45.72313" lon="4.55172">
        <ele>756.2</ele>
        <time>2022-06-26T13:32:17Z</time>
      </trkpt>
      <trkpt lat="45.72316" lon="4.55173">
        <ele>756.4</ele>
        <time>2022-06-26T13:32:18Z</time>
      </trkpt>
      <trkpt lat="45.72318" lon="4.55175">
        <ele>756.4</ele>
        <time>2022-06-26T13:32:19Z</time>
      </trkpt>
      <trkpt lat="45.72321" lon="4.55176">
        <ele>756.6</ele>
        <time>2022-06-26T13:32:20Z</time>
      </trkpt>
      <trkpt lat="45.72324" lon="4.55177">
        <ele>756.6</ele>
        <time>2022-06-26T13:32:21Z</time>
      </trkpt>
      <trkpt lat="45.72327" lon="4.55178">
        <ele>756.8</ele>
        <time>2022-06-26T13:32:22Z</time>
      </trkpt>
      <trkpt lat="45.72329" lon="4.5518">
        <ele>756.8</ele>
        <time>2022-06-26T13:32:23Z</time>
      </trkpt>
      <trkpt lat="45.72331" lon="4.55181">
        <ele>757</ele>
        <time>2022-06-26T13:32:24Z</time>
      </trkpt>
      <trkpt lat="45.72333" lon="4.55183">
        <ele>757</ele>
        <time>2022-06-26T13:32:25Z</time>
      </trkpt>
      <trkpt lat="45.72335" lon="4.55184">
        <ele>757.2</ele>
        <time>2022-06-26T13:32:26Z</time>
      </trkpt>
      <trkpt lat="45.72338" lon="4.55185">
        <ele>757.2</ele>
        <time>2022-06-26T13:32:27Z</time>
      </trkpt>
      <trkpt lat="45.7234" lon="4.55187">
        <ele>757.6</ele>
        <time>2022-06-26T13:32:28Z</time>
      </trkpt>
      <trkpt lat="45.72342" lon="4.55189">
        <ele>757.6</ele>
        <time>2022-06-26T13:32:29Z</time>
      </trkpt>
      <trkpt lat="45.72344" lon="4.5519">
        <ele>758</ele>
        <time>2022-06-26T13:32:30Z</time>
      </trkpt>
      <trkpt lat="45.72347" lon="4.55192">
        <ele>758.2</ele>
        <time>2022-06-26T13:32:31Z</time>
      </trkpt>
      <trkpt lat="45.72349" lon="4.55194">
        <ele>758.2</ele>
        <time>2022-06-26T13:32:32Z</time>
      </trkpt>
      <trkpt lat="45.7235" lon="4.55197">
        <ele>758.4</ele>
        <time>2022-06-26T13:32:33Z</time>
      </trkpt>
      <trkpt lat="45.72353" lon="4.55199">
        <ele>758.6</ele>
        <time>2022-06-26T13:32:34Z</time>
      </trkpt>
      <trkpt lat="45.72354" lon="4.55202">
        <ele>758.6</ele>
        <time>2022-06-26T13:32:35Z</time>
      </trkpt>
      <trkpt lat="45.72356" lon="4.55204">
        <ele>759</ele>
        <time>2022-06-26T13:32:36Z</time>
      </trkpt>
      <trkpt lat="45.72359" lon="4.55207">
        <ele>759</ele>
        <time>2022-06-26T13:32:37Z</time>
      </trkpt>
      <trkpt lat="45.72361" lon="4.55211">
        <ele>759.2</ele>
        <time>2022-06-26T13:32:38Z</time>
      </trkpt>
      <trkpt lat="45.72363" lon="4.55214">
        <ele>759.2</ele>
        <time>2022-06-26T13:32:39Z</time>
      </trkpt>
      <trkpt lat="45.72365" lon="4.55216">
        <ele>759.4</ele>
        <time>2022-06-26T13:32:40Z</time>
      </trkpt>
      <trkpt lat="45.72367" lon="4.55219">
        <ele>759.4</ele>
        <time>2022-06-26T13:32:41Z</time>
      </trkpt>
      <trkpt lat="45.72369" lon="4.55222">
        <ele>759.6</ele>
        <time>2022-06-26T13:32:42Z</time>
      </trkpt>
      <trkpt lat="45.72371" lon="4.55224">
        <ele>759.6</ele>
        <time>2022-06-26T13:32:43Z</time>
      </trkpt>
      <trkpt lat="45.72372" lon="4.55227">
        <ele>760</ele>
        <time>2022-06-26T13:32:44Z</time>
      </trkpt>
      <trkpt lat="45.72374" lon="4.5523">
        <ele>760</ele>
        <time>2022-06-26T13:32:45Z</time>
      </trkpt>
      <trkpt lat="45.72375" lon="4.55233">
        <ele>760.2</ele>
        <time>2022-06-26T13:32:46Z</time>
      </trkpt>
      <trkpt lat="45.72376" lon="4.55236">
        <ele>760.2</ele>
        <time>2022-06-26T13:32:47Z</time>
      </trkpt>
      <trkpt lat="45.72378" lon="4.55239">
        <ele>760.4</ele>
        <time>2022-06-26T13:32:48Z</time>
      </trkpt>
      <trkpt lat="45.7238" lon="4.55242">
        <ele>760.4</ele>
        <time>2022-06-26T13:32:49Z</time>
      </trkpt>
      <trkpt lat="45.72382" lon="4.55245">
        <ele>760.8</ele>
        <time>2022-06-26T13:32:50Z</time>
      </trkpt>
      <trkpt lat="45.72383" lon="4.55247">
        <ele>760.8</ele>
        <time>2022-06-26T13:32:51Z</time>
      </trkpt>
      <trkpt lat="45.72385" lon="4.5525">
        <ele>761</ele>
        <time>2022-06-26T13:32:52Z</time>
      </trkpt>
      <trkpt lat="45.72387" lon="4.55254">
        <ele>761</ele>
        <time>2022-06-26T13:32:53Z</time>
      </trkpt>
      <trkpt lat="45.72388" lon="4.55257">
        <ele>761.2</ele>
        <time>2022-06-26T13:32:54Z</time>
      </trkpt>
      <trkpt lat="45.7239" lon="4.5526">
        <ele>761.2</ele>
        <time>2022-06-26T13:32:55Z</time>
      </trkpt>
      <trkpt lat="45.72391" lon="4.55263">
        <ele>761.2</ele>
        <time>2022-06-26T13:32:56Z</time>
      </trkpt>
      <trkpt lat="45.72393" lon="4.55266">
        <ele>761.6</ele>
        <time>2022-06-26T13:32:57Z</time>
      </trkpt>
      <trkpt lat="45.72394" lon="4.55268">
        <ele>761.6</ele>
        <time>2022-06-26T13:32:58Z</time>
      </trkpt>
      <trkpt lat="45.72395" lon="4.55271">
        <ele>761.8</ele>
        <time>2022-06-26T13:32:59Z</time>
      </trkpt>
      <trkpt lat="45.72396" lon="4.55274">
        <ele>761.8</ele>
        <time>2022-06-26T13:33:00Z</time>
      </trkpt>
      <trkpt lat="45.72397" lon="4.55276">
        <ele>762.2</ele>
        <time>2022-06-26T13:33:01Z</time>
      </trkpt>
      <trkpt lat="45.72398" lon="4.55279">
        <ele>762.2</ele>
        <time>2022-06-26T13:33:02Z</time>
      </trkpt>
      <trkpt lat="45.724" lon="4.55282">
        <ele>762.4</ele>
        <time>2022-06-26T13:33:03Z</time>
      </trkpt>
      <trkpt lat="45.72401" lon="4.55284">
        <ele>762.4</ele>
        <time>2022-06-26T13:33:04Z</time>
      </trkpt>
      <trkpt lat="45.72403" lon="4.55287">
        <ele>762.8</ele>
        <time>2022-06-26T13:33:05Z</time>
      </trkpt>
      <trkpt lat="45.72405" lon="4.5529">
        <ele>762.8</ele>
        <time>2022-06-26T13:33:06Z</time>
      </trkpt>
      <trkpt lat="45.72407" lon="4.55294">
        <ele>763</ele>
        <time>2022-06-26T13:33:07Z</time>
      </trkpt>
      <trkpt lat="45.72408" lon="4.55298">
        <ele>763</ele>
        <time>2022-06-26T13:33:08Z</time>
      </trkpt>
      <trkpt lat="45.72409" lon="4.55301">
        <ele>763.4</ele>
        <time>2022-06-26T13:33:09Z</time>
      </trkpt>
      <trkpt lat="45.7241" lon="4.55304">
        <ele>763.4</ele>
        <time>2022-06-26T13:33:10Z</time>
      </trkpt>
      <trkpt lat="45.72411" lon="4.55307">
        <ele>763.6</ele>
        <time>2022-06-26T13:33:11Z</time>
      </trkpt>
      <trkpt lat="45.72412" lon="4.5531">
        <ele>763.6</ele>
        <time>2022-06-26T13:33:12Z</time>
      </trkpt>
      <trkpt lat="45.72413" lon="4.55314">
        <ele>763.8</ele>
        <time>2022-06-26T13:33:13Z</time>
      </trkpt>
      <trkpt lat="45.72414" lon="4.55318">
        <ele>763.8</ele>
        <time>2022-06-26T13:33:14Z</time>
      </trkpt>
      <trkpt lat="45.72415" lon="4.55321">
        <ele>764.2</ele>
        <time>2022-06-26T13:33:15Z</time>
      </trkpt>
      <trkpt lat="45.72417" lon="4.55326">
        <ele>764.2</ele>
        <time>2022-06-26T13:33:16Z</time>
      </trkpt>
      <trkpt lat="45.72417" lon="4.5533">
        <ele>764.2</ele>
        <time>2022-06-26T13:33:17Z</time>
      </trkpt>
      <trkpt lat="45.72418" lon="4.55334">
        <ele>764.4</ele>
        <time>2022-06-26T13:33:18Z</time>
      </trkpt>
      <trkpt lat="45.72419" lon="4.55339">
        <ele>764.4</ele>
        <time>2022-06-26T13:33:19Z</time>
      </trkpt>
      <trkpt lat="45.72419" lon="4.55344">
        <ele>764.8</ele>
        <time>2022-06-26T13:33:20Z</time>
      </trkpt>
      <trkpt lat="45.7242" lon="4.55348">
        <ele>764.8</ele>
        <time>2022-06-26T13:33:21Z</time>
      </trkpt>
      <trkpt lat="45.72419" lon="4.55353">
        <ele>764.8</ele>
        <time>2022-06-26T13:33:22Z</time>
      </trkpt>
      <trkpt lat="45.72419" lon="4.55358">
        <ele>765</ele>
        <time>2022-06-26T13:33:23Z</time>
      </trkpt>
      <trkpt lat="45.72419" lon="4.55362">
        <ele>765</ele>
        <time>2022-06-26T13:33:24Z</time>
      </trkpt>
      <trkpt lat="45.72418" lon="4.55367">
        <ele>765.2</ele>
        <time>2022-06-26T13:33:25Z</time>
      </trkpt>
      <trkpt lat="45.72417" lon="4.55371">
        <ele>765.2</ele>
        <time>2022-06-26T13:33:26Z</time>
      </trkpt>
      <trkpt lat="45.72417" lon="4.55375">
        <ele>765.6</ele>
        <time>2022-06-26T13:33:27Z</time>
      </trkpt>
      <trkpt lat="45.72416" lon="4.55379">
        <ele>765.8</ele>
        <time>2022-06-26T13:33:28Z</time>
      </trkpt>
      <trkpt lat="45.72416" lon="4.55384">
        <ele>765.8</ele>
        <time>2022-06-26T13:33:29Z</time>
      </trkpt>
      <trkpt lat="45.72415" lon="4.55387">
        <ele>766</ele>
        <time>2022-06-26T13:33:30Z</time>
      </trkpt>
      <trkpt lat="45.72415" lon="4.55391">
        <ele>766.2</ele>
        <time>2022-06-26T13:33:31Z</time>
      </trkpt>
      <trkpt lat="45.72414" lon="4.55394">
        <ele>766.2</ele>
        <time>2022-06-26T13:33:32Z</time>
      </trkpt>
      <trkpt lat="45.72413" lon="4.55398">
        <ele>766.2</ele>
        <time>2022-06-26T13:33:33Z</time>
      </trkpt>
      <trkpt lat="45.72412" lon="4.55401">
        <ele>766.6</ele>
        <time>2022-06-26T13:33:34Z</time>
      </trkpt>
      <trkpt lat="45.72411" lon="4.55405">
        <ele>766.6</ele>
        <time>2022-06-26T13:33:35Z</time>
      </trkpt>
      <trkpt lat="45.7241" lon="4.55409">
        <ele>766.8</ele>
        <time>2022-06-26T13:33:36Z</time>
      </trkpt>
      <trkpt lat="45.72409" lon="4.55413">
        <ele>766.8</ele>
        <time>2022-06-26T13:33:37Z</time>
      </trkpt>
      <trkpt lat="45.72408" lon="4.55417">
        <ele>767</ele>
        <time>2022-06-26T13:33:38Z</time>
      </trkpt>
      <trkpt lat="45.72406" lon="4.55421">
        <ele>767</ele>
        <time>2022-06-26T13:33:39Z</time>
      </trkpt>
      <trkpt lat="45.72405" lon="4.55425">
        <ele>767.4</ele>
        <time>2022-06-26T13:33:40Z</time>
      </trkpt>
      <trkpt lat="45.72403" lon="4.55429">
        <ele>767.4</ele>
        <time>2022-06-26T13:33:41Z</time>
      </trkpt>
      <trkpt lat="45.72402" lon="4.55433">
        <ele>767.6</ele>
        <time>2022-06-26T13:33:42Z</time>
      </trkpt>
      <trkpt lat="45.724" lon="4.55437">
        <ele>767.6</ele>
        <time>2022-06-26T13:33:43Z</time>
      </trkpt>
      <trkpt lat="45.72399" lon="4.5544">
        <ele>767.8</ele>
        <time>2022-06-26T13:33:44Z</time>
      </trkpt>
      <trkpt lat="45.72397" lon="4.55443">
        <ele>767.8</ele>
        <time>2022-06-26T13:33:45Z</time>
      </trkpt>
      <trkpt lat="45.72395" lon="4.55447">
        <ele>767.8</ele>
        <time>2022-06-26T13:33:46Z</time>
      </trkpt>
      <trkpt lat="45.72392" lon="4.5545">
        <ele>768.2</ele>
        <time>2022-06-26T13:33:47Z</time>
      </trkpt>
      <trkpt lat="45.7239" lon="4.55452">
        <ele>768.2</ele>
        <time>2022-06-26T13:33:48Z</time>
      </trkpt>
      <trkpt lat="45.72388" lon="4.55455">
        <ele>768.2</ele>
        <time>2022-06-26T13:33:49Z</time>
      </trkpt>
      <trkpt lat="45.72386" lon="4.55458">
        <ele>768.4</ele>
        <time>2022-06-26T13:33:50Z</time>
      </trkpt>
      <trkpt lat="45.72384" lon="4.5546">
        <ele>768.4</ele>
        <time>2022-06-26T13:33:51Z</time>
      </trkpt>
      <trkpt lat="45.72381" lon="4.55462">
        <ele>768.8</ele>
        <time>2022-06-26T13:33:52Z</time>
      </trkpt>
      <trkpt lat="45.72379" lon="4.55463">
        <ele>768.8</ele>
        <time>2022-06-26T13:33:53Z</time>
      </trkpt>
      <trkpt lat="45.72377" lon="4.55465">
        <ele>769.2</ele>
        <time>2022-06-26T13:33:54Z</time>
      </trkpt>
      <trkpt lat="45.72375" lon="4.55466">
        <ele>769.2</ele>
        <time>2022-06-26T13:33:55Z</time>
      </trkpt>
      <trkpt lat="45.72373" lon="4.55467">
        <ele>769.4</ele>
        <time>2022-06-26T13:33:56Z</time>
      </trkpt>
      <trkpt lat="45.72371" lon="4.55468">
        <ele>769.4</ele>
        <time>2022-06-26T13:33:57Z</time>
      </trkpt>
      <trkpt lat="45.72368" lon="4.55468">
        <ele>769.8</ele>
        <time>2022-06-26T13:33:58Z</time>
      </trkpt>
      <trkpt lat="45.72366" lon="4.55469">
        <ele>769.8</ele>
        <time>2022-06-26T13:33:59Z</time>
      </trkpt>
      <trkpt lat="45.72364" lon="4.55468">
        <ele>770</ele>
        <time>2022-06-26T13:34:00Z</time>
      </trkpt>
      <trkpt lat="45.72362" lon="4.55469">
        <ele>770</ele>
        <time>2022-06-26T13:34:01Z</time>
      </trkpt>
      <trkpt lat="45.7236" lon="4.55469">
        <ele>770.4</ele>
        <time>2022-06-26T13:34:02Z</time>
      </trkpt>
      <trkpt lat="45.72357" lon="4.5547">
        <ele>770.4</ele>
        <time>2022-06-26T13:34:03Z</time>
      </trkpt>
      <trkpt lat="45.72355" lon="4.5547">
        <ele>770.6</ele>
        <time>2022-06-26T13:34:04Z</time>
      </trkpt>
      <trkpt lat="45.72353" lon="4.5547">
        <ele>770.6</ele>
        <time>2022-06-26T13:34:05Z</time>
      </trkpt>
      <trkpt lat="45.7235" lon="4.5547">
        <ele>771</ele>
        <time>2022-06-26T13:34:06Z</time>
      </trkpt>
      <trkpt lat="45.72348" lon="4.55471">
        <ele>771</ele>
        <time>2022-06-26T13:34:07Z</time>
      </trkpt>
      <trkpt lat="45.72346" lon="4.55473">
        <ele>771.2</ele>
        <time>2022-06-26T13:34:08Z</time>
      </trkpt>
      <trkpt lat="45.72344" lon="4.55474">
        <ele>771.2</ele>
        <time>2022-06-26T13:34:09Z</time>
      </trkpt>
      <trkpt lat="45.72342" lon="4.55475">
        <ele>771.6</ele>
        <time>2022-06-26T13:34:10Z</time>
      </trkpt>
      <trkpt lat="45.72339" lon="4.55476">
        <ele>771.6</ele>
        <time>2022-06-26T13:34:11Z</time>
      </trkpt>
      <trkpt lat="45.72337" lon="4.55476">
        <ele>771.8</ele>
        <time>2022-06-26T13:34:12Z</time>
      </trkpt>
      <trkpt lat="45.72336" lon="4.55478">
        <ele>771.8</ele>
        <time>2022-06-26T13:34:13Z</time>
      </trkpt>
      <trkpt lat="45.72334" lon="4.55479">
        <ele>771.8</ele>
        <time>2022-06-26T13:34:14Z</time>
      </trkpt>
      <trkpt lat="45.72332" lon="4.55479">
        <ele>772.2</ele>
        <time>2022-06-26T13:34:15Z</time>
      </trkpt>
      <trkpt lat="45.72329" lon="4.5548">
        <ele>772.2</ele>
        <time>2022-06-26T13:34:16Z</time>
      </trkpt>
      <trkpt lat="45.72327" lon="4.55481">
        <ele>772.4</ele>
        <time>2022-06-26T13:34:17Z</time>
      </trkpt>
      <trkpt lat="45.72325" lon="4.55482">
        <ele>772.4</ele>
        <time>2022-06-26T13:34:18Z</time>
      </trkpt>
      <trkpt lat="45.72323" lon="4.55482">
        <ele>772.6</ele>
        <time>2022-06-26T13:34:19Z</time>
      </trkpt>
      <trkpt lat="45.72321" lon="4.55483">
        <ele>772.6</ele>
        <time>2022-06-26T13:34:20Z</time>
      </trkpt>
      <trkpt lat="45.72319" lon="4.55483">
        <ele>773</ele>
        <time>2022-06-26T13:34:21Z</time>
      </trkpt>
      <trkpt lat="45.72317" lon="4.55484">
        <ele>773</ele>
        <time>2022-06-26T13:34:22Z</time>
      </trkpt>
      <trkpt lat="45.72314" lon="4.55484">
        <ele>773.2</ele>
        <time>2022-06-26T13:34:23Z</time>
      </trkpt>
      <trkpt lat="45.72312" lon="4.55485">
        <ele>773.2</ele>
        <time>2022-06-26T13:34:24Z</time>
      </trkpt>
      <trkpt lat="45.7231" lon="4.55486">
        <ele>773.6</ele>
        <time>2022-06-26T13:34:25Z</time>
      </trkpt>
      <trkpt lat="45.72308" lon="4.55486">
        <ele>773.6</ele>
        <time>2022-06-26T13:34:26Z</time>
      </trkpt>
      <trkpt lat="45.72306" lon="4.55487">
        <ele>773.8</ele>
        <time>2022-06-26T13:34:27Z</time>
      </trkpt>
      <trkpt lat="45.72304" lon="4.55487">
        <ele>773.8</ele>
        <time>2022-06-26T13:34:28Z</time>
      </trkpt>
      <trkpt lat="45.72302" lon="4.55489">
        <ele>774</ele>
        <time>2022-06-26T13:34:29Z</time>
      </trkpt>
      <trkpt lat="45.723" lon="4.5549">
        <ele>774</ele>
        <time>2022-06-26T13:34:30Z</time>
      </trkpt>
      <trkpt lat="45.72298" lon="4.55492">
        <ele>774.4</ele>
        <time>2022-06-26T13:34:31Z</time>
      </trkpt>
      <trkpt lat="45.72296" lon="4.55494">
        <ele>774.4</ele>
        <time>2022-06-26T13:34:32Z</time>
      </trkpt>
      <trkpt lat="45.72294" lon="4.55496">
        <ele>774.6</ele>
        <time>2022-06-26T13:34:33Z</time>
      </trkpt>
      <trkpt lat="45.72292" lon="4.55498">
        <ele>774.6</ele>
        <time>2022-06-26T13:34:34Z</time>
      </trkpt>
      <trkpt lat="45.7229" lon="4.55499">
        <ele>775</ele>
        <time>2022-06-26T13:34:35Z</time>
      </trkpt>
      <trkpt lat="45.72288" lon="4.555">
        <ele>775</ele>
        <time>2022-06-26T13:34:36Z</time>
      </trkpt>
      <trkpt lat="45.72286" lon="4.55502">
        <ele>775</ele>
        <time>2022-06-26T13:34:37Z</time>
      </trkpt>
      <trkpt lat="45.72285" lon="4.55503">
        <ele>775.2</ele>
        <time>2022-06-26T13:34:38Z</time>
      </trkpt>
      <trkpt lat="45.72284" lon="4.55505">
        <ele>775.2</ele>
        <time>2022-06-26T13:34:39Z</time>
      </trkpt>
      <trkpt lat="45.72282" lon="4.55506">
        <ele>775.2</ele>
        <time>2022-06-26T13:34:40Z</time>
      </trkpt>
      <trkpt lat="45.7228" lon="4.55508">
        <ele>775.4</ele>
        <time>2022-06-26T13:34:41Z</time>
      </trkpt>
      <trkpt lat="45.72277" lon="4.5551">
        <ele>775.4</ele>
        <time>2022-06-26T13:34:42Z</time>
      </trkpt>
      <trkpt lat="45.72275" lon="4.55512">
        <ele>775.6</ele>
        <time>2022-06-26T13:34:43Z</time>
      </trkpt>
      <trkpt lat="45.72273" lon="4.55514">
        <ele>775.6</ele>
        <time>2022-06-26T13:34:44Z</time>
      </trkpt>
      <trkpt lat="45.7227" lon="4.55516">
        <ele>775.6</ele>
        <time>2022-06-26T13:34:45Z</time>
      </trkpt>
      <trkpt lat="45.72267" lon="4.55518">
        <ele>776</ele>
        <time>2022-06-26T13:34:46Z</time>
      </trkpt>
      <trkpt lat="45.72265" lon="4.5552">
        <ele>776</ele>
        <time>2022-06-26T13:34:47Z</time>
      </trkpt>
      <trkpt lat="45.72263" lon="4.55522">
        <ele>776.2</ele>
        <time>2022-06-26T13:34:48Z</time>
      </trkpt>
      <trkpt lat="45.7226" lon="4.55524">
        <ele>776.2</ele>
        <time>2022-06-26T13:34:49Z</time>
      </trkpt>
      <trkpt lat="45.72258" lon="4.55526">
        <ele>776.2</ele>
        <time>2022-06-26T13:34:50Z</time>
      </trkpt>
      <trkpt lat="45.72257" lon="4.55529">
        <ele>776.6</ele>
        <time>2022-06-26T13:34:51Z</time>
      </trkpt>
      <trkpt lat="45.72255" lon="4.55531">
        <ele>776.6</ele>
        <time>2022-06-26T13:34:52Z</time>
      </trkpt>
      <trkpt lat="45.72253" lon="4.55533">
        <ele>776.8</ele>
        <time>2022-06-26T13:34:53Z</time>
      </trkpt>
      <trkpt lat="45.72251" lon="4.55535">
        <ele>776.8</ele>
        <time>2022-06-26T13:34:54Z</time>
      </trkpt>
      <trkpt lat="45.72248" lon="4.55536">
        <ele>777.2</ele>
        <time>2022-06-26T13:34:55Z</time>
      </trkpt>
      <trkpt lat="45.72246" lon="4.55538">
        <ele>777.2</ele>
        <time>2022-06-26T13:34:56Z</time>
      </trkpt>
      <trkpt lat="45.72244" lon="4.55541">
        <ele>777.2</ele>
        <time>2022-06-26T13:34:57Z</time>
      </trkpt>
      <trkpt lat="45.72242" lon="4.55544">
        <ele>777.4</ele>
        <time>2022-06-26T13:34:58Z</time>
      </trkpt>
      <trkpt lat="45.7224" lon="4.55547">
        <ele>777.4</ele>
        <time>2022-06-26T13:34:59Z</time>
      </trkpt>
      <trkpt lat="45.72237" lon="4.55551">
        <ele>777.4</ele>
        <time>2022-06-26T13:35:00Z</time>
      </trkpt>
      <trkpt lat="45.72235" lon="4.55555">
        <ele>777.6</ele>
        <time>2022-06-26T13:35:01Z</time>
      </trkpt>
      <trkpt lat="45.72232" lon="4.5556">
        <ele>777.6</ele>
        <time>2022-06-26T13:35:02Z</time>
      </trkpt>
      <trkpt lat="45.72231" lon="4.55564">
        <ele>778</ele>
        <time>2022-06-26T13:35:03Z</time>
      </trkpt>
      <trkpt lat="45.72229" lon="4.55567">
        <ele>778</ele>
        <time>2022-06-26T13:35:04Z</time>
      </trkpt>
      <trkpt lat="45.72227" lon="4.55571">
        <ele>778.4</ele>
        <time>2022-06-26T13:35:05Z</time>
      </trkpt>
      <trkpt lat="45.72226" lon="4.55575">
        <ele>778.4</ele>
        <time>2022-06-26T13:35:06Z</time>
      </trkpt>
      <trkpt lat="45.72224" lon="4.55578">
        <ele>778.8</ele>
        <time>2022-06-26T13:35:07Z</time>
      </trkpt>
      <trkpt lat="45.72223" lon="4.55582">
        <ele>778.8</ele>
        <time>2022-06-26T13:35:08Z</time>
      </trkpt>
      <trkpt lat="45.72222" lon="4.55586">
        <ele>779</ele>
        <time>2022-06-26T13:35:09Z</time>
      </trkpt>
      <trkpt lat="45.72221" lon="4.5559">
        <ele>779</ele>
        <time>2022-06-26T13:35:10Z</time>
      </trkpt>
      <trkpt lat="45.72219" lon="4.55593">
        <ele>779.2</ele>
        <time>2022-06-26T13:35:11Z</time>
      </trkpt>
      <trkpt lat="45.72219" lon="4.55596">
        <ele>779.2</ele>
        <time>2022-06-26T13:35:12Z</time>
      </trkpt>
      <trkpt lat="45.72218" lon="4.556">
        <ele>779.6</ele>
        <time>2022-06-26T13:35:13Z</time>
      </trkpt>
      <trkpt lat="45.72217" lon="4.55603">
        <ele>779.6</ele>
        <time>2022-06-26T13:35:14Z</time>
      </trkpt>
      <trkpt lat="45.72217" lon="4.55606">
        <ele>779.8</ele>
        <time>2022-06-26T13:35:15Z</time>
      </trkpt>
      <trkpt lat="45.72216" lon="4.5561">
        <ele>779.8</ele>
        <time>2022-06-26T13:35:16Z</time>
      </trkpt>
      <trkpt lat="45.72215" lon="4.55613">
        <ele>780.2</ele>
        <time>2022-06-26T13:35:17Z</time>
      </trkpt>
      <trkpt lat="45.72214" lon="4.55617">
        <ele>780.2</ele>
        <time>2022-06-26T13:35:18Z</time>
      </trkpt>
      <trkpt lat="45.72214" lon="4.5562">
        <ele>780.4</ele>
        <time>2022-06-26T13:35:19Z</time>
      </trkpt>
      <trkpt lat="45.72213" lon="4.55623">
        <ele>780.4</ele>
        <time>2022-06-26T13:35:20Z</time>
      </trkpt>
      <trkpt lat="45.72212" lon="4.55626">
        <ele>780.6</ele>
        <time>2022-06-26T13:35:21Z</time>
      </trkpt>
      <trkpt lat="45.7221" lon="4.5563">
        <ele>780.6</ele>
        <time>2022-06-26T13:35:22Z</time>
      </trkpt>
      <trkpt lat="45.72209" lon="4.55633">
        <ele>781</ele>
        <time>2022-06-26T13:35:23Z</time>
      </trkpt>
      <trkpt lat="45.72208" lon="4.55636">
        <ele>781</ele>
        <time>2022-06-26T13:35:24Z</time>
      </trkpt>
      <trkpt lat="45.72207" lon="4.5564">
        <ele>781.2</ele>
        <time>2022-06-26T13:35:25Z</time>
      </trkpt>
      <trkpt lat="45.72207" lon="4.55643">
        <ele>781.2</ele>
        <time>2022-06-26T13:35:26Z</time>
      </trkpt>
      <trkpt lat="45.72206" lon="4.55647">
        <ele>781.4</ele>
        <time>2022-06-26T13:35:27Z</time>
      </trkpt>
      <trkpt lat="45.72205" lon="4.5565">
        <ele>781.4</ele>
        <time>2022-06-26T13:35:28Z</time>
      </trkpt>
      <trkpt lat="45.72204" lon="4.55654">
        <ele>781.4</ele>
        <time>2022-06-26T13:35:29Z</time>
      </trkpt>
      <trkpt lat="45.72203" lon="4.55657">
        <ele>781.6</ele>
        <time>2022-06-26T13:35:30Z</time>
      </trkpt>
      <trkpt lat="45.72202" lon="4.5566">
        <ele>781.6</ele>
        <time>2022-06-26T13:35:31Z</time>
      </trkpt>
      <trkpt lat="45.72202" lon="4.55664">
        <ele>781.6</ele>
        <time>2022-06-26T13:35:32Z</time>
      </trkpt>
      <trkpt lat="45.72202" lon="4.55668">
        <ele>782</ele>
        <time>2022-06-26T13:35:33Z</time>
      </trkpt>
      <trkpt lat="45.72201" lon="4.55672">
        <ele>782</ele>
        <time>2022-06-26T13:35:34Z</time>
      </trkpt>
      <trkpt lat="45.722" lon="4.55676">
        <ele>782.2</ele>
        <time>2022-06-26T13:35:35Z</time>
      </trkpt>
      <trkpt lat="45.72198" lon="4.55684">
        <ele>782.2</ele>
        <time>2022-06-26T13:35:36Z</time>
      </trkpt>
      <trkpt lat="45.72197" lon="4.55688">
        <ele>782.4</ele>
        <time>2022-06-26T13:35:37Z</time>
      </trkpt>
      <trkpt lat="45.72196" lon="4.55692">
        <ele>782.4</ele>
        <time>2022-06-26T13:35:38Z</time>
      </trkpt>
      <trkpt lat="45.72195" lon="4.55696">
        <ele>782.6</ele>
        <time>2022-06-26T13:35:39Z</time>
      </trkpt>
      <trkpt lat="45.72194" lon="4.557">
        <ele>782.6</ele>
        <time>2022-06-26T13:35:40Z</time>
      </trkpt>
      <trkpt lat="45.72193" lon="4.55704">
        <ele>783</ele>
        <time>2022-06-26T13:35:41Z</time>
      </trkpt>
      <trkpt lat="45.72192" lon="4.55708">
        <ele>783</ele>
        <time>2022-06-26T13:35:42Z</time>
      </trkpt>
      <trkpt lat="45.72191" lon="4.55712">
        <ele>783.2</ele>
        <time>2022-06-26T13:35:43Z</time>
      </trkpt>
      <trkpt lat="45.72191" lon="4.55716">
        <ele>783.2</ele>
        <time>2022-06-26T13:35:44Z</time>
      </trkpt>
      <trkpt lat="45.7219" lon="4.5572">
        <ele>783.6</ele>
        <time>2022-06-26T13:35:45Z</time>
      </trkpt>
      <trkpt lat="45.72189" lon="4.55725">
        <ele>783.6</ele>
        <time>2022-06-26T13:35:46Z</time>
      </trkpt>
      <trkpt lat="45.72188" lon="4.55729">
        <ele>783.8</ele>
        <time>2022-06-26T13:35:47Z</time>
      </trkpt>
      <trkpt lat="45.72188" lon="4.55733">
        <ele>783.8</ele>
        <time>2022-06-26T13:35:48Z</time>
      </trkpt>
      <trkpt lat="45.72187" lon="4.55738">
        <ele>784.2</ele>
        <time>2022-06-26T13:35:49Z</time>
      </trkpt>
      <trkpt lat="45.72186" lon="4.55743">
        <ele>784.2</ele>
        <time>2022-06-26T13:35:50Z</time>
      </trkpt>
      <trkpt lat="45.72186" lon="4.55747">
        <ele>784.6</ele>
        <time>2022-06-26T13:35:51Z</time>
      </trkpt>
      <trkpt lat="45.72185" lon="4.55751">
        <ele>784.6</ele>
        <time>2022-06-26T13:35:52Z</time>
      </trkpt>
      <trkpt lat="45.72185" lon="4.55756">
        <ele>784.8</ele>
        <time>2022-06-26T13:35:53Z</time>
      </trkpt>
      <trkpt lat="45.72184" lon="4.5576">
        <ele>784.8</ele>
        <time>2022-06-26T13:35:54Z</time>
      </trkpt>
      <trkpt lat="45.72183" lon="4.55764">
        <ele>785.2</ele>
        <time>2022-06-26T13:35:55Z</time>
      </trkpt>
      <trkpt lat="45.72183" lon="4.55769">
        <ele>785.4</ele>
        <time>2022-06-26T13:35:56Z</time>
      </trkpt>
      <trkpt lat="45.72183" lon="4.55773">
        <ele>785.4</ele>
        <time>2022-06-26T13:35:57Z</time>
      </trkpt>
      <trkpt lat="45.72182" lon="4.55777">
        <ele>785.6</ele>
        <time>2022-06-26T13:35:58Z</time>
      </trkpt>
      <trkpt lat="45.72182" lon="4.55781">
        <ele>785.6</ele>
        <time>2022-06-26T13:35:59Z</time>
      </trkpt>
      <trkpt lat="45.72182" lon="4.55785">
        <ele>786</ele>
        <time>2022-06-26T13:36:00Z</time>
      </trkpt>
      <trkpt lat="45.72181" lon="4.55789">
        <ele>786</ele>
        <time>2022-06-26T13:36:01Z</time>
      </trkpt>
      <trkpt lat="45.72181" lon="4.55793">
        <ele>786</ele>
        <time>2022-06-26T13:36:02Z</time>
      </trkpt>
      <trkpt lat="45.7218" lon="4.55798">
        <ele>786.4</ele>
        <time>2022-06-26T13:36:03Z</time>
      </trkpt>
      <trkpt lat="45.72179" lon="4.55802">
        <ele>786.4</ele>
        <time>2022-06-26T13:36:04Z</time>
      </trkpt>
      <trkpt lat="45.72179" lon="4.55806">
        <ele>786.6</ele>
        <time>2022-06-26T13:36:05Z</time>
      </trkpt>
      <trkpt lat="45.72179" lon="4.5581">
        <ele>786.6</ele>
        <time>2022-06-26T13:36:06Z</time>
      </trkpt>
      <trkpt lat="45.72178" lon="4.55814">
        <ele>786.8</ele>
        <time>2022-06-26T13:36:07Z</time>
      </trkpt>
      <trkpt lat="45.72178" lon="4.55818">
        <ele>786.8</ele>
        <time>2022-06-26T13:36:08Z</time>
      </trkpt>
      <trkpt lat="45.72177" lon="4.55823">
        <ele>787</ele>
        <time>2022-06-26T13:36:09Z</time>
      </trkpt>
      <trkpt lat="45.72177" lon="4.55827">
        <ele>787</ele>
        <time>2022-06-26T13:36:10Z</time>
      </trkpt>
      <trkpt lat="45.72177" lon="4.55831">
        <ele>787.2</ele>
        <time>2022-06-26T13:36:11Z</time>
      </trkpt>
      <trkpt lat="45.72176" lon="4.55835">
        <ele>787.2</ele>
        <time>2022-06-26T13:36:12Z</time>
      </trkpt>
      <trkpt lat="45.72176" lon="4.55839">
        <ele>787.6</ele>
        <time>2022-06-26T13:36:13Z</time>
      </trkpt>
      <trkpt lat="45.72176" lon="4.55843">
        <ele>787.6</ele>
        <time>2022-06-26T13:36:14Z</time>
      </trkpt>
      <trkpt lat="45.72175" lon="4.55847">
        <ele>787.8</ele>
        <time>2022-06-26T13:36:15Z</time>
      </trkpt>
      <trkpt lat="45.72175" lon="4.55851">
        <ele>787.8</ele>
        <time>2022-06-26T13:36:16Z</time>
      </trkpt>
      <trkpt lat="45.72174" lon="4.55855">
        <ele>788</ele>
        <time>2022-06-26T13:36:17Z</time>
      </trkpt>
      <trkpt lat="45.72174" lon="4.55859">
        <ele>788</ele>
        <time>2022-06-26T13:36:18Z</time>
      </trkpt>
      <trkpt lat="45.72174" lon="4.55863">
        <ele>788.2</ele>
        <time>2022-06-26T13:36:19Z</time>
      </trkpt>
      <trkpt lat="45.72174" lon="4.55867">
        <ele>788.6</ele>
        <time>2022-06-26T13:36:20Z</time>
      </trkpt>
      <trkpt lat="45.72175" lon="4.55871">
        <ele>788.8</ele>
        <time>2022-06-26T13:36:21Z</time>
      </trkpt>
      <trkpt lat="45.72175" lon="4.55875">
        <ele>788.8</ele>
        <time>2022-06-26T13:36:22Z</time>
      </trkpt>
      <trkpt lat="45.72175" lon="4.55878">
        <ele>789</ele>
        <time>2022-06-26T13:36:23Z</time>
      </trkpt>
      <trkpt lat="45.72175" lon="4.55882">
        <ele>789</ele>
        <time>2022-06-26T13:36:24Z</time>
      </trkpt>
      <trkpt lat="45.72176" lon="4.55886">
        <ele>789.2</ele>
        <time>2022-06-26T13:36:25Z</time>
      </trkpt>
      <trkpt lat="45.72176" lon="4.5589">
        <ele>789.2</ele>
        <time>2022-06-26T13:36:26Z</time>
      </trkpt>
      <trkpt lat="45.72176" lon="4.55893">
        <ele>789.6</ele>
        <time>2022-06-26T13:36:27Z</time>
      </trkpt>
      <trkpt lat="45.72177" lon="4.55897">
        <ele>789.6</ele>
        <time>2022-06-26T13:36:28Z</time>
      </trkpt>
      <trkpt lat="45.72178" lon="4.559">
        <ele>789.8</ele>
        <time>2022-06-26T13:36:29Z</time>
      </trkpt>
      <trkpt lat="45.72178" lon="4.55904">
        <ele>789.8</ele>
        <time>2022-06-26T13:36:30Z</time>
      </trkpt>
      <trkpt lat="45.72179" lon="4.55908">
        <ele>790</ele>
        <time>2022-06-26T13:36:31Z</time>
      </trkpt>
      <trkpt lat="45.72179" lon="4.55912">
        <ele>790</ele>
        <time>2022-06-26T13:36:32Z</time>
      </trkpt>
      <trkpt lat="45.7218" lon="4.55915">
        <ele>790</ele>
        <time>2022-06-26T13:36:33Z</time>
      </trkpt>
      <trkpt lat="45.72181" lon="4.55919">
        <ele>790.4</ele>
        <time>2022-06-26T13:36:34Z</time>
      </trkpt>
      <trkpt lat="45.72181" lon="4.55923">
        <ele>790.4</ele>
        <time>2022-06-26T13:36:35Z</time>
      </trkpt>
      <trkpt lat="45.72182" lon="4.55927">
        <ele>790.6</ele>
        <time>2022-06-26T13:36:36Z</time>
      </trkpt>
      <trkpt lat="45.72183" lon="4.5593">
        <ele>790.6</ele>
        <time>2022-06-26T13:36:37Z</time>
      </trkpt>
      <trkpt lat="45.72184" lon="4.55934">
        <ele>791</ele>
        <time>2022-06-26T13:36:38Z</time>
      </trkpt>
      <trkpt lat="45.72184" lon="4.55938">
        <ele>791</ele>
        <time>2022-06-26T13:36:39Z</time>
      </trkpt>
      <trkpt lat="45.72185" lon="4.55941">
        <ele>791.2</ele>
        <time>2022-06-26T13:36:40Z</time>
      </trkpt>
      <trkpt lat="45.72186" lon="4.55945">
        <ele>791.2</ele>
        <time>2022-06-26T13:36:41Z</time>
      </trkpt>
      <trkpt lat="45.72187" lon="4.55949">
        <ele>791.6</ele>
        <time>2022-06-26T13:36:42Z</time>
      </trkpt>
      <trkpt lat="45.72188" lon="4.55952">
        <ele>791.6</ele>
        <time>2022-06-26T13:36:43Z</time>
      </trkpt>
      <trkpt lat="45.72189" lon="4.55956">
        <ele>791.8</ele>
        <time>2022-06-26T13:36:44Z</time>
      </trkpt>
      <trkpt lat="45.7219" lon="4.55959">
        <ele>791.8</ele>
        <time>2022-06-26T13:36:45Z</time>
      </trkpt>
      <trkpt lat="45.72191" lon="4.55963">
        <ele>792</ele>
        <time>2022-06-26T13:36:46Z</time>
      </trkpt>
      <trkpt lat="45.72192" lon="4.55967">
        <ele>792</ele>
        <time>2022-06-26T13:36:47Z</time>
      </trkpt>
      <trkpt lat="45.72193" lon="4.55971">
        <ele>792.2</ele>
        <time>2022-06-26T13:36:48Z</time>
      </trkpt>
      <trkpt lat="45.72194" lon="4.55974">
        <ele>792.2</ele>
        <time>2022-06-26T13:36:49Z</time>
      </trkpt>
      <trkpt lat="45.72195" lon="4.55978">
        <ele>792.2</ele>
        <time>2022-06-26T13:36:50Z</time>
      </trkpt>
      <trkpt lat="45.72196" lon="4.55982">
        <ele>792.6</ele>
        <time>2022-06-26T13:36:51Z</time>
      </trkpt>
      <trkpt lat="45.72196" lon="4.55986">
        <ele>792.6</ele>
        <time>2022-06-26T13:36:52Z</time>
      </trkpt>
      <trkpt lat="45.72197" lon="4.5599">
        <ele>792.8</ele>
        <time>2022-06-26T13:36:53Z</time>
      </trkpt>
      <trkpt lat="45.72198" lon="4.55993">
        <ele>792.8</ele>
        <time>2022-06-26T13:36:54Z</time>
      </trkpt>
      <trkpt lat="45.72199" lon="4.55997">
        <ele>793.2</ele>
        <time>2022-06-26T13:36:55Z</time>
      </trkpt>
      <trkpt lat="45.722" lon="4.56001">
        <ele>793.4</ele>
        <time>2022-06-26T13:36:56Z</time>
      </trkpt>
      <trkpt lat="45.72201" lon="4.56005">
        <ele>793.4</ele>
        <time>2022-06-26T13:36:57Z</time>
      </trkpt>
      <trkpt lat="45.72202" lon="4.56009">
        <ele>793.6</ele>
        <time>2022-06-26T13:36:58Z</time>
      </trkpt>
      <trkpt lat="45.72202" lon="4.56012">
        <ele>793.6</ele>
        <time>2022-06-26T13:36:59Z</time>
      </trkpt>
      <trkpt lat="45.72203" lon="4.56017">
        <ele>794</ele>
        <time>2022-06-26T13:37:00Z</time>
      </trkpt>
      <trkpt lat="45.72204" lon="4.56021">
        <ele>794</ele>
        <time>2022-06-26T13:37:01Z</time>
      </trkpt>
      <trkpt lat="45.72205" lon="4.56024">
        <ele>794.2</ele>
        <time>2022-06-26T13:37:02Z</time>
      </trkpt>
      <trkpt lat="45.72205" lon="4.56028">
        <ele>794.2</ele>
        <time>2022-06-26T13:37:03Z</time>
      </trkpt>
      <trkpt lat="45.72206" lon="4.56032">
        <ele>794.6</ele>
        <time>2022-06-26T13:37:04Z</time>
      </trkpt>
      <trkpt lat="45.72206" lon="4.56035">
        <ele>794.6</ele>
        <time>2022-06-26T13:37:05Z</time>
      </trkpt>
      <trkpt lat="45.72207" lon="4.56039">
        <ele>794.6</ele>
        <time>2022-06-26T13:37:06Z</time>
      </trkpt>
      <trkpt lat="45.72208" lon="4.56042">
        <ele>794.8</ele>
        <time>2022-06-26T13:37:07Z</time>
      </trkpt>
      <trkpt lat="45.72208" lon="4.56046">
        <ele>795.2</ele>
        <time>2022-06-26T13:37:08Z</time>
      </trkpt>
      <trkpt lat="45.72208" lon="4.56049">
        <ele>795.2</ele>
        <time>2022-06-26T13:37:09Z</time>
      </trkpt>
      <trkpt lat="45.72209" lon="4.56052">
        <ele>795.6</ele>
        <time>2022-06-26T13:37:10Z</time>
      </trkpt>
      <trkpt lat="45.7221" lon="4.56055">
        <ele>795.6</ele>
        <time>2022-06-26T13:37:11Z</time>
      </trkpt>
      <trkpt lat="45.72211" lon="4.56058">
        <ele>795.8</ele>
        <time>2022-06-26T13:37:12Z</time>
      </trkpt>
      <trkpt lat="45.72211" lon="4.56062">
        <ele>795.8</ele>
        <time>2022-06-26T13:37:13Z</time>
      </trkpt>
      <trkpt lat="45.72212" lon="4.56065">
        <ele>796.2</ele>
        <time>2022-06-26T13:37:14Z</time>
      </trkpt>
      <trkpt lat="45.72213" lon="4.56069">
        <ele>796.2</ele>
        <time>2022-06-26T13:37:15Z</time>
      </trkpt>
      <trkpt lat="45.72213" lon="4.56072">
        <ele>796.4</ele>
        <time>2022-06-26T13:37:16Z</time>
      </trkpt>
      <trkpt lat="45.72213" lon="4.56075">
        <ele>796.4</ele>
        <time>2022-06-26T13:37:17Z</time>
      </trkpt>
      <trkpt lat="45.72213" lon="4.56078">
        <ele>796.4</ele>
        <time>2022-06-26T13:37:18Z</time>
      </trkpt>
      <trkpt lat="45.72213" lon="4.56081">
        <ele>796.6</ele>
        <time>2022-06-26T13:37:19Z</time>
      </trkpt>
      <trkpt lat="45.72213" lon="4.56084">
        <ele>796.6</ele>
        <time>2022-06-26T13:37:20Z</time>
      </trkpt>
      <trkpt lat="45.72214" lon="4.56088">
        <ele>797</ele>
        <time>2022-06-26T13:37:21Z</time>
      </trkpt>
      <trkpt lat="45.72214" lon="4.56092">
        <ele>797</ele>
        <time>2022-06-26T13:37:22Z</time>
      </trkpt>
      <trkpt lat="45.72214" lon="4.56095">
        <ele>797.2</ele>
        <time>2022-06-26T13:37:23Z</time>
      </trkpt>
      <trkpt lat="45.72214" lon="4.56099">
        <ele>797.2</ele>
        <time>2022-06-26T13:37:24Z</time>
      </trkpt>
      <trkpt lat="45.72215" lon="4.56103">
        <ele>797.6</ele>
        <time>2022-06-26T13:37:25Z</time>
      </trkpt>
      <trkpt lat="45.72215" lon="4.56107">
        <ele>797.6</ele>
        <time>2022-06-26T13:37:26Z</time>
      </trkpt>
      <trkpt lat="45.72215" lon="4.5611">
        <ele>797.8</ele>
        <time>2022-06-26T13:37:27Z</time>
      </trkpt>
      <trkpt lat="45.72214" lon="4.56114">
        <ele>797.8</ele>
        <time>2022-06-26T13:37:28Z</time>
      </trkpt>
      <trkpt lat="45.72214" lon="4.56117">
        <ele>798</ele>
        <time>2022-06-26T13:37:29Z</time>
      </trkpt>
      <trkpt lat="45.72214" lon="4.56121">
        <ele>798</ele>
        <time>2022-06-26T13:37:30Z</time>
      </trkpt>
      <trkpt lat="45.72213" lon="4.56125">
        <ele>798.4</ele>
        <time>2022-06-26T13:37:31Z</time>
      </trkpt>
      <trkpt lat="45.72213" lon="4.56129">
        <ele>798.4</ele>
        <time>2022-06-26T13:37:32Z</time>
      </trkpt>
      <trkpt lat="45.72213" lon="4.56133">
        <ele>798.6</ele>
        <time>2022-06-26T13:37:33Z</time>
      </trkpt>
      <trkpt lat="45.72213" lon="4.56137">
        <ele>798.6</ele>
        <time>2022-06-26T13:37:34Z</time>
      </trkpt>
      <trkpt lat="45.72212" lon="4.5614">
        <ele>798.8</ele>
        <time>2022-06-26T13:37:35Z</time>
      </trkpt>
      <trkpt lat="45.72212" lon="4.56143">
        <ele>799</ele>
        <time>2022-06-26T13:37:36Z</time>
      </trkpt>
      <trkpt lat="45.72212" lon="4.56146">
        <ele>799</ele>
        <time>2022-06-26T13:37:37Z</time>
      </trkpt>
      <trkpt lat="45.72211" lon="4.56149">
        <ele>799.4</ele>
        <time>2022-06-26T13:37:38Z</time>
      </trkpt>
      <trkpt lat="45.7221" lon="4.56153">
        <ele>799.4</ele>
        <time>2022-06-26T13:37:39Z</time>
      </trkpt>
      <trkpt lat="45.72209" lon="4.56156">
        <ele>799.8</ele>
        <time>2022-06-26T13:37:40Z</time>
      </trkpt>
      <trkpt lat="45.72209" lon="4.56159">
        <ele>799.8</ele>
        <time>2022-06-26T13:37:41Z</time>
      </trkpt>
      <trkpt lat="45.72207" lon="4.56162">
        <ele>800</ele>
        <time>2022-06-26T13:37:42Z</time>
      </trkpt>
      <trkpt lat="45.72206" lon="4.56165">
        <ele>800</ele>
        <time>2022-06-26T13:37:43Z</time>
      </trkpt>
      <trkpt lat="45.72205" lon="4.56168">
        <ele>800.4</ele>
        <time>2022-06-26T13:37:44Z</time>
      </trkpt>
      <trkpt lat="45.72204" lon="4.56172">
        <ele>800.4</ele>
        <time>2022-06-26T13:37:45Z</time>
      </trkpt>
      <trkpt lat="45.72202" lon="4.56176">
        <ele>800.8</ele>
        <time>2022-06-26T13:37:46Z</time>
      </trkpt>
      <trkpt lat="45.72201" lon="4.5618">
        <ele>800.8</ele>
        <time>2022-06-26T13:37:47Z</time>
      </trkpt>
      <trkpt lat="45.722" lon="4.56183">
        <ele>801</ele>
        <time>2022-06-26T13:37:48Z</time>
      </trkpt>
      <trkpt lat="45.72199" lon="4.56186">
        <ele>801</ele>
        <time>2022-06-26T13:37:49Z</time>
      </trkpt>
      <trkpt lat="45.72197" lon="4.56189">
        <ele>801.4</ele>
        <time>2022-06-26T13:37:50Z</time>
      </trkpt>
      <trkpt lat="45.72196" lon="4.56192">
        <ele>801.4</ele>
        <time>2022-06-26T13:37:51Z</time>
      </trkpt>
      <trkpt lat="45.72195" lon="4.56195">
        <ele>801.6</ele>
        <time>2022-06-26T13:37:52Z</time>
      </trkpt>
      <trkpt lat="45.72194" lon="4.56198">
        <ele>801.6</ele>
        <time>2022-06-26T13:37:53Z</time>
      </trkpt>
      <trkpt lat="45.72193" lon="4.56201">
        <ele>801.8</ele>
        <time>2022-06-26T13:37:54Z</time>
      </trkpt>
      <trkpt lat="45.72191" lon="4.56203">
        <ele>801.8</ele>
        <time>2022-06-26T13:37:55Z</time>
      </trkpt>
      <trkpt lat="45.7219" lon="4.56206">
        <ele>802</ele>
        <time>2022-06-26T13:37:56Z</time>
      </trkpt>
      <trkpt lat="45.72188" lon="4.56208">
        <ele>802.2</ele>
        <time>2022-06-26T13:37:57Z</time>
      </trkpt>
      <trkpt lat="45.72187" lon="4.56211">
        <ele>802.2</ele>
        <time>2022-06-26T13:37:58Z</time>
      </trkpt>
      <trkpt lat="45.72185" lon="4.56214">
        <ele>802.8</ele>
        <time>2022-06-26T13:37:59Z</time>
      </trkpt>
      <trkpt lat="45.72183" lon="4.56218">
        <ele>802.8</ele>
        <time>2022-06-26T13:38:00Z</time>
      </trkpt>
      <trkpt lat="45.72181" lon="4.56221">
        <ele>803</ele>
        <time>2022-06-26T13:38:01Z</time>
      </trkpt>
      <trkpt lat="45.7218" lon="4.56224">
        <ele>803</ele>
        <time>2022-06-26T13:38:02Z</time>
      </trkpt>
      <trkpt lat="45.72178" lon="4.56227">
        <ele>803.2</ele>
        <time>2022-06-26T13:38:03Z</time>
      </trkpt>
      <trkpt lat="45.72176" lon="4.5623">
        <ele>803.2</ele>
        <time>2022-06-26T13:38:04Z</time>
      </trkpt>
      <trkpt lat="45.72174" lon="4.56233">
        <ele>803.4</ele>
        <time>2022-06-26T13:38:05Z</time>
      </trkpt>
      <trkpt lat="45.72173" lon="4.56236">
        <ele>803.4</ele>
        <time>2022-06-26T13:38:06Z</time>
      </trkpt>
      <trkpt lat="45.72171" lon="4.56239">
        <ele>803.8</ele>
        <time>2022-06-26T13:38:07Z</time>
      </trkpt>
      <trkpt lat="45.72169" lon="4.56241">
        <ele>803.8</ele>
        <time>2022-06-26T13:38:08Z</time>
      </trkpt>
      <trkpt lat="45.72167" lon="4.56244">
        <ele>804.2</ele>
        <time>2022-06-26T13:38:09Z</time>
      </trkpt>
      <trkpt lat="45.72166" lon="4.56247">
        <ele>804.2</ele>
        <time>2022-06-26T13:38:10Z</time>
      </trkpt>
      <trkpt lat="45.72164" lon="4.5625">
        <ele>804.4</ele>
        <time>2022-06-26T13:38:11Z</time>
      </trkpt>
      <trkpt lat="45.72161" lon="4.56252">
        <ele>804.4</ele>
        <time>2022-06-26T13:38:12Z</time>
      </trkpt>
      <trkpt lat="45.72159" lon="4.56256">
        <ele>804.6</ele>
        <time>2022-06-26T13:38:13Z</time>
      </trkpt>
      <trkpt lat="45.72157" lon="4.56259">
        <ele>804.8</ele>
        <time>2022-06-26T13:38:14Z</time>
      </trkpt>
      <trkpt lat="45.72155" lon="4.56261">
        <ele>804.8</ele>
        <time>2022-06-26T13:38:15Z</time>
      </trkpt>
      <trkpt lat="45.72153" lon="4.56264">
        <ele>805.2</ele>
        <time>2022-06-26T13:38:16Z</time>
      </trkpt>
      <trkpt lat="45.72151" lon="4.56268">
        <ele>805.2</ele>
        <time>2022-06-26T13:38:17Z</time>
      </trkpt>
      <trkpt lat="45.72149" lon="4.56271">
        <ele>805.6</ele>
        <time>2022-06-26T13:38:18Z</time>
      </trkpt>
      <trkpt lat="45.72147" lon="4.56274">
        <ele>805.6</ele>
        <time>2022-06-26T13:38:19Z</time>
      </trkpt>
      <trkpt lat="45.72145" lon="4.56278">
        <ele>805.8</ele>
        <time>2022-06-26T13:38:20Z</time>
      </trkpt>
      <trkpt lat="45.72143" lon="4.56281">
        <ele>805.8</ele>
        <time>2022-06-26T13:38:21Z</time>
      </trkpt>
      <trkpt lat="45.72142" lon="4.56285">
        <ele>806.2</ele>
        <time>2022-06-26T13:38:22Z</time>
      </trkpt>
      <trkpt lat="45.7214" lon="4.56289">
        <ele>806.2</ele>
        <time>2022-06-26T13:38:23Z</time>
      </trkpt>
      <trkpt lat="45.72138" lon="4.56292">
        <ele>806.4</ele>
        <time>2022-06-26T13:38:24Z</time>
      </trkpt>
      <trkpt lat="45.72136" lon="4.56296">
        <ele>806.4</ele>
        <time>2022-06-26T13:38:25Z</time>
      </trkpt>
      <trkpt lat="45.72135" lon="4.56299">
        <ele>806.6</ele>
        <time>2022-06-26T13:38:26Z</time>
      </trkpt>
      <trkpt lat="45.72133" lon="4.56302">
        <ele>806.8</ele>
        <time>2022-06-26T13:38:27Z</time>
      </trkpt>
      <trkpt lat="45.72132" lon="4.56305">
        <ele>806.8</ele>
        <time>2022-06-26T13:38:28Z</time>
      </trkpt>
      <trkpt lat="45.7213" lon="4.56309">
        <ele>807</ele>
        <time>2022-06-26T13:38:29Z</time>
      </trkpt>
      <trkpt lat="45.72128" lon="4.56312">
        <ele>807</ele>
        <time>2022-06-26T13:38:30Z</time>
      </trkpt>
      <trkpt lat="45.72127" lon="4.56315">
        <ele>807.6</ele>
        <time>2022-06-26T13:38:31Z</time>
      </trkpt>
      <trkpt lat="45.72126" lon="4.56318">
        <ele>807.6</ele>
        <time>2022-06-26T13:38:32Z</time>
      </trkpt>
      <trkpt lat="45.72125" lon="4.56321">
        <ele>807.8</ele>
        <time>2022-06-26T13:38:33Z</time>
      </trkpt>
      <trkpt lat="45.72124" lon="4.56324">
        <ele>807.8</ele>
        <time>2022-06-26T13:38:34Z</time>
      </trkpt>
      <trkpt lat="45.72123" lon="4.56328">
        <ele>808.2</ele>
        <time>2022-06-26T13:38:35Z</time>
      </trkpt>
      <trkpt lat="45.72122" lon="4.56331">
        <ele>808.2</ele>
        <time>2022-06-26T13:38:36Z</time>
      </trkpt>
      <trkpt lat="45.72121" lon="4.56335">
        <ele>808.6</ele>
        <time>2022-06-26T13:38:37Z</time>
      </trkpt>
      <trkpt lat="45.7212" lon="4.56338">
        <ele>808.6</ele>
        <time>2022-06-26T13:38:38Z</time>
      </trkpt>
      <trkpt lat="45.72119" lon="4.56342">
        <ele>808.8</ele>
        <time>2022-06-26T13:38:39Z</time>
      </trkpt>
      <trkpt lat="45.72117" lon="4.56346">
        <ele>809</ele>
        <time>2022-06-26T13:38:40Z</time>
      </trkpt>
      <trkpt lat="45.72116" lon="4.5635">
        <ele>809</ele>
        <time>2022-06-26T13:38:41Z</time>
      </trkpt>
      <trkpt lat="45.72115" lon="4.56354">
        <ele>809.4</ele>
        <time>2022-06-26T13:38:42Z</time>
      </trkpt>
      <trkpt lat="45.72114" lon="4.56358">
        <ele>809.4</ele>
        <time>2022-06-26T13:38:43Z</time>
      </trkpt>
      <trkpt lat="45.72113" lon="4.56362">
        <ele>809.6</ele>
        <time>2022-06-26T13:38:44Z</time>
      </trkpt>
      <trkpt lat="45.72112" lon="4.56366">
        <ele>809.6</ele>
        <time>2022-06-26T13:38:45Z</time>
      </trkpt>
      <trkpt lat="45.72111" lon="4.5637">
        <ele>809.8</ele>
        <time>2022-06-26T13:38:46Z</time>
      </trkpt>
      <trkpt lat="45.7211" lon="4.56374">
        <ele>809.8</ele>
        <time>2022-06-26T13:38:47Z</time>
      </trkpt>
      <trkpt lat="45.72109" lon="4.56378">
        <ele>810.2</ele>
        <time>2022-06-26T13:38:48Z</time>
      </trkpt>
      <trkpt lat="45.72108" lon="4.56382">
        <ele>810.4</ele>
        <time>2022-06-26T13:38:49Z</time>
      </trkpt>
      <trkpt lat="45.72107" lon="4.56385">
        <ele>810.4</ele>
        <time>2022-06-26T13:38:50Z</time>
      </trkpt>
      <trkpt lat="45.72106" lon="4.56389">
        <ele>810.6</ele>
        <time>2022-06-26T13:38:51Z</time>
      </trkpt>
      <trkpt lat="45.72104" lon="4.56393">
        <ele>810.6</ele>
        <time>2022-06-26T13:38:52Z</time>
      </trkpt>
      <trkpt lat="45.72103" lon="4.56397">
        <ele>811</ele>
        <time>2022-06-26T13:38:53Z</time>
      </trkpt>
      <trkpt lat="45.72102" lon="4.56401">
        <ele>811</ele>
        <time>2022-06-26T13:38:54Z</time>
      </trkpt>
      <trkpt lat="45.72101" lon="4.56404">
        <ele>811.2</ele>
        <time>2022-06-26T13:38:55Z</time>
      </trkpt>
      <trkpt lat="45.721" lon="4.56408">
        <ele>811.2</ele>
        <time>2022-06-26T13:38:56Z</time>
      </trkpt>
      <trkpt lat="45.72099" lon="4.56412">
        <ele>811.6</ele>
        <time>2022-06-26T13:38:57Z</time>
      </trkpt>
      <trkpt lat="45.72099" lon="4.56416">
        <ele>811.6</ele>
        <time>2022-06-26T13:38:58Z</time>
      </trkpt>
      <trkpt lat="45.72098" lon="4.5642">
        <ele>811.8</ele>
        <time>2022-06-26T13:38:59Z</time>
      </trkpt>
      <trkpt lat="45.72098" lon="4.56426">
        <ele>811.8</ele>
        <time>2022-06-26T13:39:00Z</time>
      </trkpt>
      <trkpt lat="45.72097" lon="4.5643">
        <ele>812.2</ele>
        <time>2022-06-26T13:39:01Z</time>
      </trkpt>
      <trkpt lat="45.72097" lon="4.56435">
        <ele>812.2</ele>
        <time>2022-06-26T13:39:02Z</time>
      </trkpt>
      <trkpt lat="45.72097" lon="4.5644">
        <ele>812.4</ele>
        <time>2022-06-26T13:39:03Z</time>
      </trkpt>
      <trkpt lat="45.72097" lon="4.56445">
        <ele>812.4</ele>
        <time>2022-06-26T13:39:04Z</time>
      </trkpt>
      <trkpt lat="45.72096" lon="4.56449">
        <ele>812.8</ele>
        <time>2022-06-26T13:39:05Z</time>
      </trkpt>
      <trkpt lat="45.72096" lon="4.56454">
        <ele>812.8</ele>
        <time>2022-06-26T13:39:06Z</time>
      </trkpt>
      <trkpt lat="45.72097" lon="4.56458">
        <ele>813</ele>
        <time>2022-06-26T13:39:07Z</time>
      </trkpt>
      <trkpt lat="45.72097" lon="4.56462">
        <ele>813</ele>
        <time>2022-06-26T13:39:08Z</time>
      </trkpt>
      <trkpt lat="45.72096" lon="4.56467">
        <ele>813.2</ele>
        <time>2022-06-26T13:39:09Z</time>
      </trkpt>
      <trkpt lat="45.72095" lon="4.56471">
        <ele>813.2</ele>
        <time>2022-06-26T13:39:10Z</time>
      </trkpt>
      <trkpt lat="45.72095" lon="4.56476">
        <ele>813.4</ele>
        <time>2022-06-26T13:39:11Z</time>
      </trkpt>
      <trkpt lat="45.72095" lon="4.56481">
        <ele>813.4</ele>
        <time>2022-06-26T13:39:12Z</time>
      </trkpt>
      <trkpt lat="45.72095" lon="4.56485">
        <ele>813.8</ele>
        <time>2022-06-26T13:39:13Z</time>
      </trkpt>
      <trkpt lat="45.72095" lon="4.56489">
        <ele>813.8</ele>
        <time>2022-06-26T13:39:14Z</time>
      </trkpt>
      <trkpt lat="45.72095" lon="4.56493">
        <ele>814</ele>
        <time>2022-06-26T13:39:15Z</time>
      </trkpt>
      <trkpt lat="45.72094" lon="4.56496">
        <ele>814</ele>
        <time>2022-06-26T13:39:16Z</time>
      </trkpt>
      <trkpt lat="45.72094" lon="4.565">
        <ele>814.2</ele>
        <time>2022-06-26T13:39:17Z</time>
      </trkpt>
      <trkpt lat="45.72093" lon="4.56504">
        <ele>814.2</ele>
        <time>2022-06-26T13:39:18Z</time>
      </trkpt>
      <trkpt lat="45.72093" lon="4.56509">
        <ele>814.6</ele>
        <time>2022-06-26T13:39:19Z</time>
      </trkpt>
      <trkpt lat="45.72093" lon="4.56514">
        <ele>814.6</ele>
        <time>2022-06-26T13:39:20Z</time>
      </trkpt>
      <trkpt lat="45.72093" lon="4.56519">
        <ele>815</ele>
        <time>2022-06-26T13:39:21Z</time>
      </trkpt>
      <trkpt lat="45.72092" lon="4.56524">
        <ele>815.2</ele>
        <time>2022-06-26T13:39:22Z</time>
      </trkpt>
      <trkpt lat="45.72092" lon="4.56528">
        <ele>815.4</ele>
        <time>2022-06-26T13:39:23Z</time>
      </trkpt>
      <trkpt lat="45.72091" lon="4.56533">
        <ele>815.4</ele>
        <time>2022-06-26T13:39:24Z</time>
      </trkpt>
      <trkpt lat="45.72091" lon="4.56537">
        <ele>815.6</ele>
        <time>2022-06-26T13:39:25Z</time>
      </trkpt>
      <trkpt lat="45.7209" lon="4.56541">
        <ele>815.6</ele>
        <time>2022-06-26T13:39:26Z</time>
      </trkpt>
      <trkpt lat="45.72089" lon="4.56545">
        <ele>816</ele>
        <time>2022-06-26T13:39:27Z</time>
      </trkpt>
      <trkpt lat="45.72089" lon="4.56549">
        <ele>816</ele>
        <time>2022-06-26T13:39:28Z</time>
      </trkpt>
      <trkpt lat="45.72088" lon="4.56553">
        <ele>816.2</ele>
        <time>2022-06-26T13:39:29Z</time>
      </trkpt>
      <trkpt lat="45.72087" lon="4.56557">
        <ele>816.2</ele>
        <time>2022-06-26T13:39:30Z</time>
      </trkpt>
      <trkpt lat="45.72087" lon="4.56561">
        <ele>816.6</ele>
        <time>2022-06-26T13:39:31Z</time>
      </trkpt>
      <trkpt lat="45.72087" lon="4.56565">
        <ele>816.8</ele>
        <time>2022-06-26T13:39:32Z</time>
      </trkpt>
      <trkpt lat="45.72087" lon="4.56569">
        <ele>816.8</ele>
        <time>2022-06-26T13:39:33Z</time>
      </trkpt>
      <trkpt lat="45.72086" lon="4.56572">
        <ele>817</ele>
        <time>2022-06-26T13:39:34Z</time>
      </trkpt>
      <trkpt lat="45.72085" lon="4.56576">
        <ele>817</ele>
        <time>2022-06-26T13:39:35Z</time>
      </trkpt>
      <trkpt lat="45.72084" lon="4.5658">
        <ele>817.4</ele>
        <time>2022-06-26T13:39:36Z</time>
      </trkpt>
      <trkpt lat="45.72084" lon="4.56584">
        <ele>817.4</ele>
        <time>2022-06-26T13:39:37Z</time>
      </trkpt>
      <trkpt lat="45.72083" lon="4.56588">
        <ele>817.6</ele>
        <time>2022-06-26T13:39:38Z</time>
      </trkpt>
      <trkpt lat="45.72083" lon="4.56591">
        <ele>817.6</ele>
        <time>2022-06-26T13:39:39Z</time>
      </trkpt>
      <trkpt lat="45.72083" lon="4.56595">
        <ele>817.8</ele>
        <time>2022-06-26T13:39:40Z</time>
      </trkpt>
      <trkpt lat="45.72083" lon="4.56599">
        <ele>818</ele>
        <time>2022-06-26T13:39:41Z</time>
      </trkpt>
      <trkpt lat="45.72083" lon="4.56604">
        <ele>818</ele>
        <time>2022-06-26T13:39:42Z</time>
      </trkpt>
      <trkpt lat="45.72083" lon="4.56609">
        <ele>818.4</ele>
        <time>2022-06-26T13:39:43Z</time>
      </trkpt>
      <trkpt lat="45.72082" lon="4.56613">
        <ele>818.4</ele>
        <time>2022-06-26T13:39:44Z</time>
      </trkpt>
      <trkpt lat="45.72081" lon="4.56617">
        <ele>818.8</ele>
        <time>2022-06-26T13:39:45Z</time>
      </trkpt>
      <trkpt lat="45.7208" lon="4.56622">
        <ele>818.8</ele>
        <time>2022-06-26T13:39:46Z</time>
      </trkpt>
      <trkpt lat="45.7208" lon="4.56626">
        <ele>819</ele>
        <time>2022-06-26T13:39:47Z</time>
      </trkpt>
      <trkpt lat="45.7208" lon="4.5663">
        <ele>819</ele>
        <time>2022-06-26T13:39:48Z</time>
      </trkpt>
      <trkpt lat="45.72079" lon="4.56634">
        <ele>819.4</ele>
        <time>2022-06-26T13:39:49Z</time>
      </trkpt>
      <trkpt lat="45.72078" lon="4.56638">
        <ele>819.4</ele>
        <time>2022-06-26T13:39:50Z</time>
      </trkpt>
      <trkpt lat="45.72078" lon="4.56642">
        <ele>819.6</ele>
        <time>2022-06-26T13:39:51Z</time>
      </trkpt>
      <trkpt lat="45.72078" lon="4.56647">
        <ele>819.6</ele>
        <time>2022-06-26T13:39:52Z</time>
      </trkpt>
      <trkpt lat="45.72077" lon="4.56651">
        <ele>820</ele>
        <time>2022-06-26T13:39:53Z</time>
      </trkpt>
      <trkpt lat="45.72077" lon="4.56655">
        <ele>820</ele>
        <time>2022-06-26T13:39:54Z</time>
      </trkpt>
      <trkpt lat="45.72077" lon="4.56659">
        <ele>820.2</ele>
        <time>2022-06-26T13:39:55Z</time>
      </trkpt>
      <trkpt lat="45.72077" lon="4.56663">
        <ele>820.2</ele>
        <time>2022-06-26T13:39:56Z</time>
      </trkpt>
      <trkpt lat="45.72077" lon="4.56668">
        <ele>820.4</ele>
        <time>2022-06-26T13:39:57Z</time>
      </trkpt>
      <trkpt lat="45.72076" lon="4.56672">
        <ele>820.4</ele>
        <time>2022-06-26T13:39:58Z</time>
      </trkpt>
      <trkpt lat="45.72076" lon="4.56676">
        <ele>820.6</ele>
        <time>2022-06-26T13:39:59Z</time>
      </trkpt>
      <trkpt lat="45.72076" lon="4.5668">
        <ele>820.6</ele>
        <time>2022-06-26T13:40:00Z</time>
      </trkpt>
      <trkpt lat="45.72076" lon="4.56684">
        <ele>821</ele>
        <time>2022-06-26T13:40:01Z</time>
      </trkpt>
      <trkpt lat="45.72076" lon="4.56689">
        <ele>821</ele>
        <time>2022-06-26T13:40:02Z</time>
      </trkpt>
      <trkpt lat="45.72077" lon="4.56693">
        <ele>821.2</ele>
        <time>2022-06-26T13:40:03Z</time>
      </trkpt>
      <trkpt lat="45.72077" lon="4.56697">
        <ele>821.2</ele>
        <time>2022-06-26T13:40:04Z</time>
      </trkpt>
      <trkpt lat="45.72077" lon="4.56701">
        <ele>821.4</ele>
        <time>2022-06-26T13:40:05Z</time>
      </trkpt>
      <trkpt lat="45.72077" lon="4.56705">
        <ele>821.4</ele>
        <time>2022-06-26T13:40:06Z</time>
      </trkpt>
      <trkpt lat="45.72078" lon="4.5671">
        <ele>821.8</ele>
        <time>2022-06-26T13:40:07Z</time>
      </trkpt>
      <trkpt lat="45.72078" lon="4.56713">
        <ele>821.8</ele>
        <time>2022-06-26T13:40:08Z</time>
      </trkpt>
      <trkpt lat="45.72078" lon="4.56718">
        <ele>822</ele>
        <time>2022-06-26T13:40:09Z</time>
      </trkpt>
      <trkpt lat="45.72078" lon="4.56721">
        <ele>822</ele>
        <time>2022-06-26T13:40:10Z</time>
      </trkpt>
      <trkpt lat="45.72078" lon="4.56726">
        <ele>822.2</ele>
        <time>2022-06-26T13:40:11Z</time>
      </trkpt>
      <trkpt lat="45.72078" lon="4.5673">
        <ele>822.2</ele>
        <time>2022-06-26T13:40:12Z</time>
      </trkpt>
      <trkpt lat="45.72079" lon="4.56733">
        <ele>822.2</ele>
        <time>2022-06-26T13:40:13Z</time>
      </trkpt>
      <trkpt lat="45.72079" lon="4.56737">
        <ele>822.6</ele>
        <time>2022-06-26T13:40:14Z</time>
      </trkpt>
      <trkpt lat="45.72079" lon="4.56741">
        <ele>822.6</ele>
        <time>2022-06-26T13:40:15Z</time>
      </trkpt>
      <trkpt lat="45.72079" lon="4.56745">
        <ele>822.8</ele>
        <time>2022-06-26T13:40:16Z</time>
      </trkpt>
      <trkpt lat="45.72079" lon="4.56749">
        <ele>822.8</ele>
        <time>2022-06-26T13:40:17Z</time>
      </trkpt>
      <trkpt lat="45.72079" lon="4.56752">
        <ele>823</ele>
        <time>2022-06-26T13:40:18Z</time>
      </trkpt>
      <trkpt lat="45.7208" lon="4.56756">
        <ele>823</ele>
        <time>2022-06-26T13:40:19Z</time>
      </trkpt>
      <trkpt lat="45.72081" lon="4.5676">
        <ele>823.4</ele>
        <time>2022-06-26T13:40:20Z</time>
      </trkpt>
      <trkpt lat="45.72081" lon="4.56763">
        <ele>823.4</ele>
        <time>2022-06-26T13:40:21Z</time>
      </trkpt>
      <trkpt lat="45.72082" lon="4.56767">
        <ele>823.6</ele>
        <time>2022-06-26T13:40:22Z</time>
      </trkpt>
      <trkpt lat="45.72083" lon="4.56771">
        <ele>823.6</ele>
        <time>2022-06-26T13:40:23Z</time>
      </trkpt>
      <trkpt lat="45.72084" lon="4.56775">
        <ele>823.8</ele>
        <time>2022-06-26T13:40:24Z</time>
      </trkpt>
      <trkpt lat="45.72085" lon="4.56778">
        <ele>823.8</ele>
        <time>2022-06-26T13:40:25Z</time>
      </trkpt>
      <trkpt lat="45.72085" lon="4.56782">
        <ele>824.2</ele>
        <time>2022-06-26T13:40:26Z</time>
      </trkpt>
      <trkpt lat="45.72086" lon="4.56785">
        <ele>824.2</ele>
        <time>2022-06-26T13:40:27Z</time>
      </trkpt>
      <trkpt lat="45.72086" lon="4.56787">
        <ele>824.2</ele>
        <time>2022-06-26T13:40:28Z</time>
      </trkpt>
      <trkpt lat="45.72086" lon="4.56789">
        <ele>824.4</ele>
        <time>2022-06-26T13:40:29Z</time>
      </trkpt>
      <trkpt lat="45.72086" lon="4.56791">
        <ele>824.4</ele>
        <time>2022-06-26T13:40:30Z</time>
      </trkpt>
      <trkpt lat="45.72087" lon="4.56799">
        <ele>824.8</ele>
        <time>2022-06-26T13:42:26Z</time>
      </trkpt>
      <trkpt lat="45.72087" lon="4.56801">
        <ele>824.8</ele>
        <time>2022-06-26T13:42:27Z</time>
      </trkpt>
      <trkpt lat="45.72086" lon="4.56804">
        <ele>824.8</ele>
        <time>2022-06-26T13:42:28Z</time>
      </trkpt>
      <trkpt lat="45.72085" lon="4.56807">
        <ele>824.8</ele>
        <time>2022-06-26T13:42:29Z</time>
      </trkpt>
      <trkpt lat="45.72084" lon="4.56811">
        <ele>824.6</ele>
        <time>2022-06-26T13:42:30Z</time>
      </trkpt>
      <trkpt lat="45.72083" lon="4.56815">
        <ele>824.6</ele>
        <time>2022-06-26T13:42:31Z</time>
      </trkpt>
      <trkpt lat="45.72081" lon="4.5682">
        <ele>824.6</ele>
        <time>2022-06-26T13:42:32Z</time>
      </trkpt>
      <trkpt lat="45.7208" lon="4.56825">
        <ele>824.4</ele>
        <time>2022-06-26T13:42:33Z</time>
      </trkpt>
      <trkpt lat="45.72078" lon="4.5683">
        <ele>824.4</ele>
        <time>2022-06-26T13:42:34Z</time>
      </trkpt>
      <trkpt lat="45.72077" lon="4.56836">
        <ele>824.2</ele>
        <time>2022-06-26T13:42:35Z</time>
      </trkpt>
      <trkpt lat="45.72075" lon="4.56842">
        <ele>824.2</ele>
        <time>2022-06-26T13:42:36Z</time>
      </trkpt>
      <trkpt lat="45.72073" lon="4.56849">
        <ele>823.8</ele>
        <time>2022-06-26T13:42:37Z</time>
      </trkpt>
      <trkpt lat="45.72071" lon="4.56856">
        <ele>823.8</ele>
        <time>2022-06-26T13:42:38Z</time>
      </trkpt>
      <trkpt lat="45.72069" lon="4.56863">
        <ele>823.4</ele>
        <time>2022-06-26T13:42:39Z</time>
      </trkpt>
      <trkpt lat="45.72067" lon="4.56872">
        <ele>823.2</ele>
        <time>2022-06-26T13:42:40Z</time>
      </trkpt>
      <trkpt lat="45.72065" lon="4.56881">
        <ele>823</ele>
        <time>2022-06-26T13:42:41Z</time>
      </trkpt>
      <trkpt lat="45.72064" lon="4.56891">
        <ele>822.6</ele>
        <time>2022-06-26T13:42:42Z</time>
      </trkpt>
      <trkpt lat="45.72063" lon="4.56901">
        <ele>822.4</ele>
        <time>2022-06-26T13:42:43Z</time>
      </trkpt>
      <trkpt lat="45.72062" lon="4.56911">
        <ele>822.4</ele>
        <time>2022-06-26T13:42:44Z</time>
      </trkpt>
      <trkpt lat="45.72062" lon="4.56922">
        <ele>822</ele>
        <time>2022-06-26T13:42:45Z</time>
      </trkpt>
      <trkpt lat="45.72062" lon="4.56933">
        <ele>821.6</ele>
        <time>2022-06-26T13:42:46Z</time>
      </trkpt>
      <trkpt lat="45.72061" lon="4.56945">
        <ele>821.4</ele>
        <time>2022-06-26T13:42:47Z</time>
      </trkpt>
      <trkpt lat="45.72061" lon="4.56957">
        <ele>821.2</ele>
        <time>2022-06-26T13:42:48Z</time>
      </trkpt>
      <trkpt lat="45.7206" lon="4.56969">
        <ele>821</ele>
        <time>2022-06-26T13:42:49Z</time>
      </trkpt>
      <trkpt lat="45.7206" lon="4.56981">
        <ele>820.6</ele>
        <time>2022-06-26T13:42:50Z</time>
      </trkpt>
      <trkpt lat="45.72059" lon="4.56994">
        <ele>820</ele>
        <time>2022-06-26T13:42:51Z</time>
      </trkpt>
      <trkpt lat="45.72059" lon="4.57007">
        <ele>819.6</ele>
        <time>2022-06-26T13:42:52Z</time>
      </trkpt>
      <trkpt lat="45.72057" lon="4.57024">
        <ele>819.2</ele>
        <time>2022-06-26T13:42:53Z</time>
      </trkpt>
      <trkpt lat="45.72056" lon="4.5704">
        <ele>818.8</ele>
        <time>2022-06-26T13:42:54Z</time>
      </trkpt>
      <trkpt lat="45.72055" lon="4.57056">
        <ele>818.2</ele>
        <time>2022-06-26T13:42:55Z</time>
      </trkpt>
      <trkpt lat="45.72053" lon="4.57072">
        <ele>817.4</ele>
        <time>2022-06-26T13:42:56Z</time>
      </trkpt>
      <trkpt lat="45.72051" lon="4.57087">
        <ele>817</ele>
        <time>2022-06-26T13:42:57Z</time>
      </trkpt>
      <trkpt lat="45.72048" lon="4.57102">
        <ele>816.4</ele>
        <time>2022-06-26T13:42:58Z</time>
      </trkpt>
      <trkpt lat="45.72045" lon="4.57116">
        <ele>815.8</ele>
        <time>2022-06-26T13:42:59Z</time>
      </trkpt>
      <trkpt lat="45.72042" lon="4.57131">
        <ele>815.2</ele>
        <time>2022-06-26T13:43:00Z</time>
      </trkpt>
      <trkpt lat="45.72039" lon="4.57147">
        <ele>814.4</ele>
        <time>2022-06-26T13:43:01Z</time>
      </trkpt>
      <trkpt lat="45.72034" lon="4.57161">
        <ele>814</ele>
        <time>2022-06-26T13:43:02Z</time>
      </trkpt>
      <trkpt lat="45.72028" lon="4.57176">
        <ele>813.2</ele>
        <time>2022-06-26T13:43:03Z</time>
      </trkpt>
      <trkpt lat="45.72022" lon="4.5719">
        <ele>812.6</ele>
        <time>2022-06-26T13:43:04Z</time>
      </trkpt>
      <trkpt lat="45.72015" lon="4.57203">
        <ele>812</ele>
        <time>2022-06-26T13:43:05Z</time>
      </trkpt>
      <trkpt lat="45.72008" lon="4.57216">
        <ele>811.4</ele>
        <time>2022-06-26T13:43:06Z</time>
      </trkpt>
      <trkpt lat="45.72001" lon="4.57228">
        <ele>811</ele>
        <time>2022-06-26T13:43:07Z</time>
      </trkpt>
      <trkpt lat="45.71994" lon="4.5724">
        <ele>810.6</ele>
        <time>2022-06-26T13:43:08Z</time>
      </trkpt>
      <trkpt lat="45.71986" lon="4.57251">
        <ele>810.2</ele>
        <time>2022-06-26T13:43:09Z</time>
      </trkpt>
      <trkpt lat="45.71979" lon="4.57263">
        <ele>809.8</ele>
        <time>2022-06-26T13:43:10Z</time>
      </trkpt>
      <trkpt lat="45.71971" lon="4.57276">
        <ele>809.2</ele>
        <time>2022-06-26T13:43:11Z</time>
      </trkpt>
      <trkpt lat="45.71965" lon="4.57289">
        <ele>808.8</ele>
        <time>2022-06-26T13:43:12Z</time>
      </trkpt>
      <trkpt lat="45.71959" lon="4.57302">
        <ele>808.2</ele>
        <time>2022-06-26T13:43:13Z</time>
      </trkpt>
      <trkpt lat="45.71954" lon="4.57314">
        <ele>807.4</ele>
        <time>2022-06-26T13:43:14Z</time>
      </trkpt>
      <trkpt lat="45.7195" lon="4.57326">
        <ele>806.8</ele>
        <time>2022-06-26T13:43:15Z</time>
      </trkpt>
      <trkpt lat="45.71947" lon="4.57339">
        <ele>806.4</ele>
        <time>2022-06-26T13:43:16Z</time>
      </trkpt>
      <trkpt lat="45.71946" lon="4.57352">
        <ele>805.8</ele>
        <time>2022-06-26T13:43:17Z</time>
      </trkpt>
      <trkpt lat="45.71947" lon="4.57366">
        <ele>805.4</ele>
        <time>2022-06-26T13:43:18Z</time>
      </trkpt>
      <trkpt lat="45.7195" lon="4.57379">
        <ele>805</ele>
        <time>2022-06-26T13:43:19Z</time>
      </trkpt>
      <trkpt lat="45.71953" lon="4.57392">
        <ele>804.4</ele>
        <time>2022-06-26T13:43:20Z</time>
      </trkpt>
      <trkpt lat="45.71956" lon="4.57406">
        <ele>804</ele>
        <time>2022-06-26T13:43:21Z</time>
      </trkpt>
      <trkpt lat="45.71958" lon="4.57419">
        <ele>803.6</ele>
        <time>2022-06-26T13:43:22Z</time>
      </trkpt>
      <trkpt lat="45.7196" lon="4.57434">
        <ele>803.2</ele>
        <time>2022-06-26T13:43:23Z</time>
      </trkpt>
      <trkpt lat="45.7196" lon="4.57446">
        <ele>802.8</ele>
        <time>2022-06-26T13:43:24Z</time>
      </trkpt>
      <trkpt lat="45.71961" lon="4.5746">
        <ele>802.2</ele>
        <time>2022-06-26T13:43:25Z</time>
      </trkpt>
      <trkpt lat="45.71961" lon="4.57471">
        <ele>801.6</ele>
        <time>2022-06-26T13:43:26Z</time>
      </trkpt>
      <trkpt lat="45.71961" lon="4.57481">
        <ele>801</ele>
        <time>2022-06-26T13:43:27Z</time>
      </trkpt>
      <trkpt lat="45.71959" lon="4.57491">
        <ele>800.4</ele>
        <time>2022-06-26T13:43:28Z</time>
      </trkpt>
      <trkpt lat="45.71955" lon="4.57498">
        <ele>799.8</ele>
        <time>2022-06-26T13:43:29Z</time>
      </trkpt>
      <trkpt lat="45.71949" lon="4.57503">
        <ele>799</ele>
        <time>2022-06-26T13:43:30Z</time>
      </trkpt>
      <trkpt lat="45.71942" lon="4.57504">
        <ele>798.4</ele>
        <time>2022-06-26T13:43:31Z</time>
      </trkpt>
      <trkpt lat="45.71935" lon="4.575">
        <ele>797.8</ele>
        <time>2022-06-26T13:43:32Z</time>
      </trkpt>
      <trkpt lat="45.71928" lon="4.57494">
        <ele>797.4</ele>
        <time>2022-06-26T13:43:33Z</time>
      </trkpt>
      <trkpt lat="45.71922" lon="4.57485">
        <ele>797</ele>
        <time>2022-06-26T13:43:34Z</time>
      </trkpt>
      <trkpt lat="45.71916" lon="4.57477">
        <ele>796.6</ele>
        <time>2022-06-26T13:43:35Z</time>
      </trkpt>
      <trkpt lat="45.7191" lon="4.57468">
        <ele>796.2</ele>
        <time>2022-06-26T13:43:36Z</time>
      </trkpt>
      <trkpt lat="45.71903" lon="4.57459">
        <ele>795.8</ele>
        <time>2022-06-26T13:43:37Z</time>
      </trkpt>
      <trkpt lat="45.71897" lon="4.5745">
        <ele>795.4</ele>
        <time>2022-06-26T13:43:38Z</time>
      </trkpt>
      <trkpt lat="45.7189" lon="4.5744">
        <ele>795</ele>
        <time>2022-06-26T13:43:39Z</time>
      </trkpt>
      <trkpt lat="45.71883" lon="4.5743">
        <ele>794.6</ele>
        <time>2022-06-26T13:43:40Z</time>
      </trkpt>
      <trkpt lat="45.71876" lon="4.5742">
        <ele>794.2</ele>
        <time>2022-06-26T13:43:41Z</time>
      </trkpt>
      <trkpt lat="45.71868" lon="4.5741">
        <ele>793.6</ele>
        <time>2022-06-26T13:43:42Z</time>
      </trkpt>
      <trkpt lat="45.71861" lon="4.57402">
        <ele>793.2</ele>
        <time>2022-06-26T13:43:43Z</time>
      </trkpt>
      <trkpt lat="45.71853" lon="4.57395">
        <ele>792.6</ele>
        <time>2022-06-26T13:43:44Z</time>
      </trkpt>
      <trkpt lat="45.71843" lon="4.57389">
        <ele>792.2</ele>
        <time>2022-06-26T13:43:45Z</time>
      </trkpt>
      <trkpt lat="45.71833" lon="4.57383">
        <ele>791.8</ele>
        <time>2022-06-26T13:43:46Z</time>
      </trkpt>
      <trkpt lat="45.71823" lon="4.57379">
        <ele>791.2</ele>
        <time>2022-06-26T13:43:47Z</time>
      </trkpt>
      <trkpt lat="45.71812" lon="4.57376">
        <ele>790.8</ele>
        <time>2022-06-26T13:43:48Z</time>
      </trkpt>
      <trkpt lat="45.71801" lon="4.57374">
        <ele>790.2</ele>
        <time>2022-06-26T13:43:49Z</time>
      </trkpt>
      <trkpt lat="45.7179" lon="4.57372">
        <ele>789.6</ele>
        <time>2022-06-26T13:43:50Z</time>
      </trkpt>
      <trkpt lat="45.71779" lon="4.57372">
        <ele>789</ele>
        <time>2022-06-26T13:43:51Z</time>
      </trkpt>
      <trkpt lat="45.71768" lon="4.57372">
        <ele>788.6</ele>
        <time>2022-06-26T13:43:52Z</time>
      </trkpt>
      <trkpt lat="45.71758" lon="4.57374">
        <ele>788</ele>
        <time>2022-06-26T13:43:53Z</time>
      </trkpt>
      <trkpt lat="45.71747" lon="4.57377">
        <ele>787.4</ele>
        <time>2022-06-26T13:43:54Z</time>
      </trkpt>
      <trkpt lat="45.71736" lon="4.5738">
        <ele>786.8</ele>
        <time>2022-06-26T13:43:55Z</time>
      </trkpt>
      <trkpt lat="45.71726" lon="4.57386">
        <ele>786.4</ele>
        <time>2022-06-26T13:43:56Z</time>
      </trkpt>
      <trkpt lat="45.71715" lon="4.57392">
        <ele>785.8</ele>
        <time>2022-06-26T13:43:57Z</time>
      </trkpt>
      <trkpt lat="45.71705" lon="4.57399">
        <ele>785.2</ele>
        <time>2022-06-26T13:43:58Z</time>
      </trkpt>
      <trkpt lat="45.71695" lon="4.57404">
        <ele>784.6</ele>
        <time>2022-06-26T13:43:59Z</time>
      </trkpt>
      <trkpt lat="45.71685" lon="4.57412">
        <ele>784.2</ele>
        <time>2022-06-26T13:44:00Z</time>
      </trkpt>
      <trkpt lat="45.71675" lon="4.57419">
        <ele>783.6</ele>
        <time>2022-06-26T13:44:01Z</time>
      </trkpt>
      <trkpt lat="45.71664" lon="4.57428">
        <ele>782.8</ele>
        <time>2022-06-26T13:44:02Z</time>
      </trkpt>
      <trkpt lat="45.71654" lon="4.57437">
        <ele>782.2</ele>
        <time>2022-06-26T13:44:03Z</time>
      </trkpt>
      <trkpt lat="45.71644" lon="4.57445">
        <ele>781.8</ele>
        <time>2022-06-26T13:44:04Z</time>
      </trkpt>
      <trkpt lat="45.71633" lon="4.57453">
        <ele>781.2</ele>
        <time>2022-06-26T13:44:05Z</time>
      </trkpt>
      <trkpt lat="45.71621" lon="4.57461">
        <ele>780.6</ele>
        <time>2022-06-26T13:44:06Z</time>
      </trkpt>
      <trkpt lat="45.71611" lon="4.5747">
        <ele>780.2</ele>
        <time>2022-06-26T13:44:07Z</time>
      </trkpt>
      <trkpt lat="45.71601" lon="4.57479">
        <ele>779.6</ele>
        <time>2022-06-26T13:44:08Z</time>
      </trkpt>
      <trkpt lat="45.71591" lon="4.5749">
        <ele>779</ele>
        <time>2022-06-26T13:44:09Z</time>
      </trkpt>
      <trkpt lat="45.71581" lon="4.575">
        <ele>778.4</ele>
        <time>2022-06-26T13:44:10Z</time>
      </trkpt>
      <trkpt lat="45.71571" lon="4.57511">
        <ele>777.8</ele>
        <time>2022-06-26T13:44:11Z</time>
      </trkpt>
      <trkpt lat="45.71561" lon="4.57522">
        <ele>777.2</ele>
        <time>2022-06-26T13:44:12Z</time>
      </trkpt>
      <trkpt lat="45.71552" lon="4.57533">
        <ele>776.6</ele>
        <time>2022-06-26T13:44:13Z</time>
      </trkpt>
      <trkpt lat="45.71543" lon="4.57546">
        <ele>776</ele>
        <time>2022-06-26T13:44:14Z</time>
      </trkpt>
      <trkpt lat="45.71535" lon="4.57558">
        <ele>775.2</ele>
        <time>2022-06-26T13:44:15Z</time>
      </trkpt>
      <trkpt lat="45.71527" lon="4.57571">
        <ele>774.8</ele>
        <time>2022-06-26T13:44:16Z</time>
      </trkpt>
      <trkpt lat="45.71521" lon="4.57585">
        <ele>774.2</ele>
        <time>2022-06-26T13:44:17Z</time>
      </trkpt>
      <trkpt lat="45.71515" lon="4.57599">
        <ele>773.8</ele>
        <time>2022-06-26T13:44:18Z</time>
      </trkpt>
      <trkpt lat="45.7151" lon="4.57614">
        <ele>773.2</ele>
        <time>2022-06-26T13:44:19Z</time>
      </trkpt>
      <trkpt lat="45.71505" lon="4.57629">
        <ele>772.4</ele>
        <time>2022-06-26T13:44:20Z</time>
      </trkpt>
      <trkpt lat="45.71501" lon="4.57642">
        <ele>771.8</ele>
        <time>2022-06-26T13:44:21Z</time>
      </trkpt>
      <trkpt lat="45.71497" lon="4.57655">
        <ele>771</ele>
        <time>2022-06-26T13:44:22Z</time>
      </trkpt>
      <trkpt lat="45.71495" lon="4.57668">
        <ele>770.2</ele>
        <time>2022-06-26T13:44:23Z</time>
      </trkpt>
      <trkpt lat="45.71494" lon="4.5768">
        <ele>769.6</ele>
        <time>2022-06-26T13:44:24Z</time>
      </trkpt>
      <trkpt lat="45.71493" lon="4.57694">
        <ele>769.2</ele>
        <time>2022-06-26T13:44:25Z</time>
      </trkpt>
      <trkpt lat="45.71495" lon="4.57708">
        <ele>768.8</ele>
        <time>2022-06-26T13:44:26Z</time>
      </trkpt>
      <trkpt lat="45.71499" lon="4.5772">
        <ele>768.6</ele>
        <time>2022-06-26T13:44:27Z</time>
      </trkpt>
      <trkpt lat="45.71503" lon="4.57732">
        <ele>768</ele>
        <time>2022-06-26T13:44:28Z</time>
      </trkpt>
      <trkpt lat="45.71507" lon="4.57744">
        <ele>767.4</ele>
        <time>2022-06-26T13:44:29Z</time>
      </trkpt>
      <trkpt lat="45.71509" lon="4.57756">
        <ele>766.8</ele>
        <time>2022-06-26T13:44:30Z</time>
      </trkpt>
      <trkpt lat="45.7151" lon="4.57768">
        <ele>766.4</ele>
        <time>2022-06-26T13:44:31Z</time>
      </trkpt>
      <trkpt lat="45.7151" lon="4.57779">
        <ele>765.8</ele>
        <time>2022-06-26T13:44:32Z</time>
      </trkpt>
      <trkpt lat="45.71508" lon="4.5779">
        <ele>765.2</ele>
        <time>2022-06-26T13:44:33Z</time>
      </trkpt>
      <trkpt lat="45.71506" lon="4.57799">
        <ele>764.6</ele>
        <time>2022-06-26T13:44:34Z</time>
      </trkpt>
      <trkpt lat="45.71502" lon="4.57806">
        <ele>764</ele>
        <time>2022-06-26T13:44:35Z</time>
      </trkpt>
      <trkpt lat="45.71498" lon="4.5781">
        <ele>763.4</ele>
        <time>2022-06-26T13:44:36Z</time>
      </trkpt>
      <trkpt lat="45.71492" lon="4.5781">
        <ele>763</ele>
        <time>2022-06-26T13:44:37Z</time>
      </trkpt>
      <trkpt lat="45.71486" lon="4.57809">
        <ele>762.6</ele>
        <time>2022-06-26T13:44:38Z</time>
      </trkpt>
      <trkpt lat="45.7148" lon="4.57806">
        <ele>762.2</ele>
        <time>2022-06-26T13:44:39Z</time>
      </trkpt>
      <trkpt lat="45.71474" lon="4.57804">
        <ele>762</ele>
        <time>2022-06-26T13:44:40Z</time>
      </trkpt>
      <trkpt lat="45.71468" lon="4.57801">
        <ele>761.6</ele>
        <time>2022-06-26T13:44:41Z</time>
      </trkpt>
      <trkpt lat="45.71462" lon="4.57798">
        <ele>761.6</ele>
        <time>2022-06-26T13:44:42Z</time>
      </trkpt>
      <trkpt lat="45.71457" lon="4.57794">
        <ele>761.4</ele>
        <time>2022-06-26T13:44:43Z</time>
      </trkpt>
      <trkpt lat="45.71451" lon="4.5779">
        <ele>761.4</ele>
        <time>2022-06-26T13:44:44Z</time>
      </trkpt>
      <trkpt lat="45.71446" lon="4.57785">
        <ele>761.2</ele>
        <time>2022-06-26T13:44:45Z</time>
      </trkpt>
      <trkpt lat="45.71441" lon="4.57781">
        <ele>761.2</ele>
        <time>2022-06-26T13:44:46Z</time>
      </trkpt>
      <trkpt lat="45.71436" lon="4.57776">
        <ele>761.2</ele>
        <time>2022-06-26T13:44:47Z</time>
      </trkpt>
      <trkpt lat="45.71431" lon="4.57771">
        <ele>760.8</ele>
        <time>2022-06-26T13:44:48Z</time>
      </trkpt>
      <trkpt lat="45.71426" lon="4.57765">
        <ele>760.8</ele>
        <time>2022-06-26T13:44:49Z</time>
      </trkpt>
      <trkpt lat="45.71422" lon="4.5776">
        <ele>760.8</ele>
        <time>2022-06-26T13:44:50Z</time>
      </trkpt>
      <trkpt lat="45.71417" lon="4.57754">
        <ele>760.6</ele>
        <time>2022-06-26T13:44:51Z</time>
      </trkpt>
      <trkpt lat="45.71412" lon="4.57749">
        <ele>760.6</ele>
        <time>2022-06-26T13:44:52Z</time>
      </trkpt>
      <trkpt lat="45.71407" lon="4.57744">
        <ele>760.6</ele>
        <time>2022-06-26T13:44:53Z</time>
      </trkpt>
      <trkpt lat="45.71401" lon="4.5774">
        <ele>760.6</ele>
        <time>2022-06-26T13:44:54Z</time>
      </trkpt>
      <trkpt lat="45.71395" lon="4.57737">
        <ele>760.4</ele>
        <time>2022-06-26T13:44:55Z</time>
      </trkpt>
      <trkpt lat="45.71388" lon="4.57735">
        <ele>760.4</ele>
        <time>2022-06-26T13:44:56Z</time>
      </trkpt>
      <trkpt lat="45.71382" lon="4.57733">
        <ele>760.4</ele>
        <time>2022-06-26T13:44:57Z</time>
      </trkpt>
      <trkpt lat="45.71374" lon="4.57732">
        <ele>760</ele>
        <time>2022-06-26T13:44:58Z</time>
      </trkpt>
      <trkpt lat="45.71367" lon="4.57732">
        <ele>759.8</ele>
        <time>2022-06-26T13:44:59Z</time>
      </trkpt>
      <trkpt lat="45.71359" lon="4.57732">
        <ele>759.6</ele>
        <time>2022-06-26T13:45:00Z</time>
      </trkpt>
      <trkpt lat="45.71351" lon="4.57732">
        <ele>759.4</ele>
        <time>2022-06-26T13:45:01Z</time>
      </trkpt>
      <trkpt lat="45.71343" lon="4.57733">
        <ele>759</ele>
        <time>2022-06-26T13:45:02Z</time>
      </trkpt>
      <trkpt lat="45.71335" lon="4.57734">
        <ele>758.8</ele>
        <time>2022-06-26T13:45:03Z</time>
      </trkpt>
      <trkpt lat="45.71327" lon="4.57736">
        <ele>758.4</ele>
        <time>2022-06-26T13:45:04Z</time>
      </trkpt>
      <trkpt lat="45.71318" lon="4.5774">
        <ele>758</ele>
        <time>2022-06-26T13:45:05Z</time>
      </trkpt>
      <trkpt lat="45.7131" lon="4.57744">
        <ele>757.6</ele>
        <time>2022-06-26T13:45:06Z</time>
      </trkpt>
      <trkpt lat="45.71302" lon="4.57748">
        <ele>757.2</ele>
        <time>2022-06-26T13:45:07Z</time>
      </trkpt>
      <trkpt lat="45.71294" lon="4.57753">
        <ele>756.8</ele>
        <time>2022-06-26T13:45:08Z</time>
      </trkpt>
      <trkpt lat="45.71285" lon="4.57758">
        <ele>756.4</ele>
        <time>2022-06-26T13:45:09Z</time>
      </trkpt>
      <trkpt lat="45.71276" lon="4.57764">
        <ele>756</ele>
        <time>2022-06-26T13:45:10Z</time>
      </trkpt>
      <trkpt lat="45.71267" lon="4.57768">
        <ele>755.8</ele>
        <time>2022-06-26T13:45:11Z</time>
      </trkpt>
      <trkpt lat="45.71258" lon="4.57776">
        <ele>755.4</ele>
        <time>2022-06-26T13:45:12Z</time>
      </trkpt>
      <trkpt lat="45.7125" lon="4.57785">
        <ele>755</ele>
        <time>2022-06-26T13:45:13Z</time>
      </trkpt>
      <trkpt lat="45.71242" lon="4.57793">
        <ele>754.6</ele>
        <time>2022-06-26T13:45:14Z</time>
      </trkpt>
      <trkpt lat="45.71234" lon="4.57803">
        <ele>754.2</ele>
        <time>2022-06-26T13:45:15Z</time>
      </trkpt>
      <trkpt lat="45.71226" lon="4.57813">
        <ele>753.6</ele>
        <time>2022-06-26T13:45:16Z</time>
      </trkpt>
      <trkpt lat="45.71218" lon="4.57822">
        <ele>753.2</ele>
        <time>2022-06-26T13:45:17Z</time>
      </trkpt>
      <trkpt lat="45.71211" lon="4.57832">
        <ele>752.8</ele>
        <time>2022-06-26T13:45:18Z</time>
      </trkpt>
      <trkpt lat="45.71203" lon="4.57842">
        <ele>752.2</ele>
        <time>2022-06-26T13:45:19Z</time>
      </trkpt>
      <trkpt lat="45.71195" lon="4.57851">
        <ele>751.6</ele>
        <time>2022-06-26T13:45:20Z</time>
      </trkpt>
      <trkpt lat="45.71188" lon="4.57861">
        <ele>751</ele>
        <time>2022-06-26T13:45:21Z</time>
      </trkpt>
      <trkpt lat="45.7118" lon="4.57872">
        <ele>750.4</ele>
        <time>2022-06-26T13:45:22Z</time>
      </trkpt>
      <trkpt lat="45.71172" lon="4.57881">
        <ele>749.8</ele>
        <time>2022-06-26T13:45:23Z</time>
      </trkpt>
      <trkpt lat="45.71163" lon="4.57891">
        <ele>749.2</ele>
        <time>2022-06-26T13:45:24Z</time>
      </trkpt>
      <trkpt lat="45.71155" lon="4.57901">
        <ele>748.6</ele>
        <time>2022-06-26T13:45:25Z</time>
      </trkpt>
      <trkpt lat="45.71146" lon="4.5791">
        <ele>747.8</ele>
        <time>2022-06-26T13:45:26Z</time>
      </trkpt>
      <trkpt lat="45.71137" lon="4.57919">
        <ele>747.4</ele>
        <time>2022-06-26T13:45:27Z</time>
      </trkpt>
      <trkpt lat="45.71128" lon="4.57928">
        <ele>747</ele>
        <time>2022-06-26T13:45:28Z</time>
      </trkpt>
      <trkpt lat="45.7112" lon="4.57937">
        <ele>746.6</ele>
        <time>2022-06-26T13:45:29Z</time>
      </trkpt>
      <trkpt lat="45.71111" lon="4.57946">
        <ele>746</ele>
        <time>2022-06-26T13:45:30Z</time>
      </trkpt>
      <trkpt lat="45.71102" lon="4.57956">
        <ele>745.6</ele>
        <time>2022-06-26T13:45:31Z</time>
      </trkpt>
      <trkpt lat="45.71092" lon="4.57964">
        <ele>745</ele>
        <time>2022-06-26T13:45:32Z</time>
      </trkpt>
      <trkpt lat="45.71083" lon="4.57973">
        <ele>744.4</ele>
        <time>2022-06-26T13:45:33Z</time>
      </trkpt>
      <trkpt lat="45.71073" lon="4.5798">
        <ele>743.8</ele>
        <time>2022-06-26T13:45:34Z</time>
      </trkpt>
      <trkpt lat="45.71064" lon="4.57988">
        <ele>743.2</ele>
        <time>2022-06-26T13:45:35Z</time>
      </trkpt>
      <trkpt lat="45.71054" lon="4.57996">
        <ele>742.8</ele>
        <time>2022-06-26T13:45:36Z</time>
      </trkpt>
      <trkpt lat="45.71045" lon="4.58005">
        <ele>742.4</ele>
        <time>2022-06-26T13:45:37Z</time>
      </trkpt>
      <trkpt lat="45.71035" lon="4.58013">
        <ele>742</ele>
        <time>2022-06-26T13:45:38Z</time>
      </trkpt>
      <trkpt lat="45.71027" lon="4.58023">
        <ele>741.6</ele>
        <time>2022-06-26T13:45:39Z</time>
      </trkpt>
      <trkpt lat="45.71018" lon="4.58034">
        <ele>741</ele>
        <time>2022-06-26T13:45:40Z</time>
      </trkpt>
      <trkpt lat="45.7101" lon="4.58045">
        <ele>740.6</ele>
        <time>2022-06-26T13:45:41Z</time>
      </trkpt>
      <trkpt lat="45.71002" lon="4.58056">
        <ele>740</ele>
        <time>2022-06-26T13:45:42Z</time>
      </trkpt>
      <trkpt lat="45.70995" lon="4.58069">
        <ele>739.6</ele>
        <time>2022-06-26T13:45:43Z</time>
      </trkpt>
      <trkpt lat="45.70987" lon="4.58081">
        <ele>739</ele>
        <time>2022-06-26T13:45:44Z</time>
      </trkpt>
      <trkpt lat="45.70981" lon="4.58094">
        <ele>738.6</ele>
        <time>2022-06-26T13:45:45Z</time>
      </trkpt>
      <trkpt lat="45.70975" lon="4.58108">
        <ele>738</ele>
        <time>2022-06-26T13:45:46Z</time>
      </trkpt>
      <trkpt lat="45.70969" lon="4.58122">
        <ele>737.4</ele>
        <time>2022-06-26T13:45:47Z</time>
      </trkpt>
      <trkpt lat="45.70963" lon="4.58134">
        <ele>736.8</ele>
        <time>2022-06-26T13:45:48Z</time>
      </trkpt>
      <trkpt lat="45.70957" lon="4.58148">
        <ele>736.2</ele>
        <time>2022-06-26T13:45:49Z</time>
      </trkpt>
      <trkpt lat="45.70952" lon="4.58162">
        <ele>735.6</ele>
        <time>2022-06-26T13:45:50Z</time>
      </trkpt>
      <trkpt lat="45.70947" lon="4.58177">
        <ele>735.2</ele>
        <time>2022-06-26T13:45:51Z</time>
      </trkpt>
      <trkpt lat="45.70942" lon="4.58191">
        <ele>735</ele>
        <time>2022-06-26T13:45:52Z</time>
      </trkpt>
      <trkpt lat="45.70938" lon="4.58203">
        <ele>734.4</ele>
        <time>2022-06-26T13:45:53Z</time>
      </trkpt>
      <trkpt lat="45.70934" lon="4.58215">
        <ele>733.6</ele>
        <time>2022-06-26T13:45:54Z</time>
      </trkpt>
      <trkpt lat="45.70931" lon="4.58223">
        <ele>733</ele>
        <time>2022-06-26T13:45:55Z</time>
      </trkpt>
      <trkpt lat="45.70929" lon="4.58229">
        <ele>732.4</ele>
        <time>2022-06-26T13:45:56Z</time>
      </trkpt>
      <trkpt lat="45.70928" lon="4.58233">
        <ele>731.8</ele>
        <time>2022-06-26T13:45:57Z</time>
      </trkpt>
      <trkpt lat="45.70927" lon="4.58236">
        <ele>731.4</ele>
        <time>2022-06-26T13:45:58Z</time>
      </trkpt>
      <trkpt lat="45.70927" lon="4.58237">
        <ele>731</ele>
        <time>2022-06-26T13:45:59Z</time>
      </trkpt>
      <trkpt lat="45.7093" lon="4.5823">
        <ele>730.2</ele>
        <time>2022-06-26T13:46:10Z</time>
      </trkpt>
      <trkpt lat="45.7093" lon="4.58228">
        <ele>730.2</ele>
        <time>2022-06-26T13:46:11Z</time>
      </trkpt>
      <trkpt lat="45.70931" lon="4.58227">
        <ele>730.2</ele>
        <time>2022-06-26T13:46:12Z</time>
      </trkpt>
      <trkpt lat="45.70931" lon="4.58225">
        <ele>730.2</ele>
        <time>2022-06-26T13:46:13Z</time>
      </trkpt>
      <trkpt lat="45.70932" lon="4.58224">
        <ele>730.2</ele>
        <time>2022-06-26T13:46:14Z</time>
      </trkpt>
      <trkpt lat="45.70932" lon="4.58223">
        <ele>730.2</ele>
        <time>2022-06-26T13:46:15Z</time>
      </trkpt>
      <trkpt lat="45.70932" lon="4.58226">
        <ele>730.6</ele>
        <time>2022-06-26T13:48:35Z</time>
      </trkpt>
      <trkpt lat="45.70931" lon="4.5823">
        <ele>730.6</ele>
        <time>2022-06-26T13:48:36Z</time>
      </trkpt>
      <trkpt lat="45.7093" lon="4.58234">
        <ele>730.4</ele>
        <time>2022-06-26T13:48:37Z</time>
      </trkpt>
      <trkpt lat="45.70929" lon="4.58238">
        <ele>730.4</ele>
        <time>2022-06-26T13:48:38Z</time>
      </trkpt>
      <trkpt lat="45.70927" lon="4.58244">
        <ele>730.2</ele>
        <time>2022-06-26T13:48:39Z</time>
      </trkpt>
      <trkpt lat="45.70926" lon="4.5825">
        <ele>730</ele>
        <time>2022-06-26T13:48:40Z</time>
      </trkpt>
      <trkpt lat="45.70924" lon="4.58256">
        <ele>729.6</ele>
        <time>2022-06-26T13:48:41Z</time>
      </trkpt>
      <trkpt lat="45.70922" lon="4.58263">
        <ele>729.4</ele>
        <time>2022-06-26T13:48:42Z</time>
      </trkpt>
      <trkpt lat="45.7092" lon="4.5827">
        <ele>729.2</ele>
        <time>2022-06-26T13:48:43Z</time>
      </trkpt>
      <trkpt lat="45.70917" lon="4.58277">
        <ele>729.2</ele>
        <time>2022-06-26T13:48:44Z</time>
      </trkpt>
      <trkpt lat="45.70915" lon="4.58284">
        <ele>729</ele>
        <time>2022-06-26T13:48:45Z</time>
      </trkpt>
      <trkpt lat="45.70912" lon="4.58292">
        <ele>728.6</ele>
        <time>2022-06-26T13:48:46Z</time>
      </trkpt>
      <trkpt lat="45.7091" lon="4.583">
        <ele>728.4</ele>
        <time>2022-06-26T13:48:47Z</time>
      </trkpt>
      <trkpt lat="45.70907" lon="4.58309">
        <ele>728.2</ele>
        <time>2022-06-26T13:48:48Z</time>
      </trkpt>
      <trkpt lat="45.70905" lon="4.58317">
        <ele>728</ele>
        <time>2022-06-26T13:48:49Z</time>
      </trkpt>
      <trkpt lat="45.70902" lon="4.58326">
        <ele>727.6</ele>
        <time>2022-06-26T13:48:50Z</time>
      </trkpt>
      <trkpt lat="45.709" lon="4.58336">
        <ele>727.4</ele>
        <time>2022-06-26T13:48:51Z</time>
      </trkpt>
      <trkpt lat="45.70897" lon="4.58346">
        <ele>727</ele>
        <time>2022-06-26T13:48:52Z</time>
      </trkpt>
      <trkpt lat="45.70894" lon="4.58356">
        <ele>726.8</ele>
        <time>2022-06-26T13:48:53Z</time>
      </trkpt>
      <trkpt lat="45.70891" lon="4.58367">
        <ele>726.4</ele>
        <time>2022-06-26T13:48:54Z</time>
      </trkpt>
      <trkpt lat="45.70888" lon="4.58378">
        <ele>726.2</ele>
        <time>2022-06-26T13:48:55Z</time>
      </trkpt>
      <trkpt lat="45.70885" lon="4.58389">
        <ele>725.8</ele>
        <time>2022-06-26T13:48:56Z</time>
      </trkpt>
      <trkpt lat="45.70882" lon="4.584">
        <ele>725.4</ele>
        <time>2022-06-26T13:48:57Z</time>
      </trkpt>
      <trkpt lat="45.70878" lon="4.58412">
        <ele>725</ele>
        <time>2022-06-26T13:48:58Z</time>
      </trkpt>
      <trkpt lat="45.70875" lon="4.58424">
        <ele>724.4</ele>
        <time>2022-06-26T13:48:59Z</time>
      </trkpt>
      <trkpt lat="45.70872" lon="4.58436">
        <ele>724</ele>
        <time>2022-06-26T13:49:00Z</time>
      </trkpt>
      <trkpt lat="45.70869" lon="4.58449">
        <ele>723.6</ele>
        <time>2022-06-26T13:49:01Z</time>
      </trkpt>
      <trkpt lat="45.70865" lon="4.58461">
        <ele>723.2</ele>
        <time>2022-06-26T13:49:02Z</time>
      </trkpt>
      <trkpt lat="45.70862" lon="4.58474">
        <ele>722.8</ele>
        <time>2022-06-26T13:49:03Z</time>
      </trkpt>
      <trkpt lat="45.70859" lon="4.58485">
        <ele>722.2</ele>
        <time>2022-06-26T13:49:04Z</time>
      </trkpt>
      <trkpt lat="45.70856" lon="4.58497">
        <ele>721.8</ele>
        <time>2022-06-26T13:49:05Z</time>
      </trkpt>
      <trkpt lat="45.70853" lon="4.58509">
        <ele>721.2</ele>
        <time>2022-06-26T13:49:06Z</time>
      </trkpt>
      <trkpt lat="45.7085" lon="4.5852">
        <ele>720.8</ele>
        <time>2022-06-26T13:49:07Z</time>
      </trkpt>
      <trkpt lat="45.70847" lon="4.58532">
        <ele>720.4</ele>
        <time>2022-06-26T13:49:08Z</time>
      </trkpt>
      <trkpt lat="45.70844" lon="4.58545">
        <ele>720</ele>
        <time>2022-06-26T13:49:09Z</time>
      </trkpt>
      <trkpt lat="45.70842" lon="4.58556">
        <ele>719.4</ele>
        <time>2022-06-26T13:49:10Z</time>
      </trkpt>
      <trkpt lat="45.7084" lon="4.58568">
        <ele>719</ele>
        <time>2022-06-26T13:49:11Z</time>
      </trkpt>
      <trkpt lat="45.70838" lon="4.5858">
        <ele>718.8</ele>
        <time>2022-06-26T13:49:12Z</time>
      </trkpt>
      <trkpt lat="45.70836" lon="4.58591">
        <ele>718.4</ele>
        <time>2022-06-26T13:49:13Z</time>
      </trkpt>
      <trkpt lat="45.70835" lon="4.58603">
        <ele>718</ele>
        <time>2022-06-26T13:49:14Z</time>
      </trkpt>
      <trkpt lat="45.70833" lon="4.58615">
        <ele>718</ele>
        <time>2022-06-26T13:49:15Z</time>
      </trkpt>
      <trkpt lat="45.70832" lon="4.58627">
        <ele>717.4</ele>
        <time>2022-06-26T13:49:16Z</time>
      </trkpt>
      <trkpt lat="45.70831" lon="4.58638">
        <ele>716.8</ele>
        <time>2022-06-26T13:49:17Z</time>
      </trkpt>
      <trkpt lat="45.70829" lon="4.58648">
        <ele>716.4</ele>
        <time>2022-06-26T13:49:18Z</time>
      </trkpt>
      <trkpt lat="45.70828" lon="4.58659">
        <ele>716</ele>
        <time>2022-06-26T13:49:19Z</time>
      </trkpt>
      <trkpt lat="45.70826" lon="4.58669">
        <ele>715.6</ele>
        <time>2022-06-26T13:49:20Z</time>
      </trkpt>
      <trkpt lat="45.70825" lon="4.58679">
        <ele>715.2</ele>
        <time>2022-06-26T13:49:21Z</time>
      </trkpt>
      <trkpt lat="45.70824" lon="4.58689">
        <ele>714.8</ele>
        <time>2022-06-26T13:49:22Z</time>
      </trkpt>
      <trkpt lat="45.70823" lon="4.58698">
        <ele>714.4</ele>
        <time>2022-06-26T13:49:23Z</time>
      </trkpt>
      <trkpt lat="45.70822" lon="4.58707">
        <ele>714</ele>
        <time>2022-06-26T13:49:24Z</time>
      </trkpt>
      <trkpt lat="45.70822" lon="4.58715">
        <ele>713.6</ele>
        <time>2022-06-26T13:49:25Z</time>
      </trkpt>
      <trkpt lat="45.70821" lon="4.58722">
        <ele>713.2</ele>
        <time>2022-06-26T13:49:26Z</time>
      </trkpt>
      <trkpt lat="45.7082" lon="4.58729">
        <ele>712.8</ele>
        <time>2022-06-26T13:49:27Z</time>
      </trkpt>
      <trkpt lat="45.70819" lon="4.58735">
        <ele>712.6</ele>
        <time>2022-06-26T13:49:28Z</time>
      </trkpt>
      <trkpt lat="45.70819" lon="4.5874">
        <ele>712.2</ele>
        <time>2022-06-26T13:49:29Z</time>
      </trkpt>
      <trkpt lat="45.70818" lon="4.58745">
        <ele>712</ele>
        <time>2022-06-26T13:49:30Z</time>
      </trkpt>
      <trkpt lat="45.70817" lon="4.5875">
        <ele>712</ele>
        <time>2022-06-26T13:49:31Z</time>
      </trkpt>
      <trkpt lat="45.70816" lon="4.58754">
        <ele>711.6</ele>
        <time>2022-06-26T13:49:32Z</time>
      </trkpt>
      <trkpt lat="45.70816" lon="4.58759">
        <ele>711.4</ele>
        <time>2022-06-26T13:49:33Z</time>
      </trkpt>
      <trkpt lat="45.70816" lon="4.58763">
        <ele>711.4</ele>
        <time>2022-06-26T13:49:34Z</time>
      </trkpt>
      <trkpt lat="45.70816" lon="4.58767">
        <ele>711</ele>
        <time>2022-06-26T13:49:35Z</time>
      </trkpt>
      <trkpt lat="45.70816" lon="4.58772">
        <ele>711</ele>
        <time>2022-06-26T13:49:36Z</time>
      </trkpt>
      <trkpt lat="45.70815" lon="4.58777">
        <ele>710.6</ele>
        <time>2022-06-26T13:49:37Z</time>
      </trkpt>
      <trkpt lat="45.70815" lon="4.58783">
        <ele>710.6</ele>
        <time>2022-06-26T13:49:38Z</time>
      </trkpt>
      <trkpt lat="45.70814" lon="4.58788">
        <ele>710.2</ele>
        <time>2022-06-26T13:49:39Z</time>
      </trkpt>
      <trkpt lat="45.70813" lon="4.58793">
        <ele>710</ele>
        <time>2022-06-26T13:49:40Z</time>
      </trkpt>
      <trkpt lat="45.70813" lon="4.58797">
        <ele>709.8</ele>
        <time>2022-06-26T13:49:41Z</time>
      </trkpt>
      <trkpt lat="45.70812" lon="4.58801">
        <ele>709.8</ele>
        <time>2022-06-26T13:49:42Z</time>
      </trkpt>
      <trkpt lat="45.70812" lon="4.58803">
        <ele>709.4</ele>
        <time>2022-06-26T13:49:43Z</time>
      </trkpt>
      <trkpt lat="45.70813" lon="4.58805">
        <ele>709.4</ele>
        <time>2022-06-26T13:49:44Z</time>
      </trkpt>
      <trkpt lat="45.70814" lon="4.58806">
        <ele>709</ele>
        <time>2022-06-26T13:49:45Z</time>
      </trkpt>
      <trkpt lat="45.70815" lon="4.58805">
        <ele>709</ele>
        <time>2022-06-26T13:49:46Z</time>
      </trkpt>
      <trkpt lat="45.70816" lon="4.58804">
        <ele>709</ele>
        <time>2022-06-26T13:49:47Z</time>
      </trkpt>
      <trkpt lat="45.70817" lon="4.58801">
        <ele>708.8</ele>
        <time>2022-06-26T13:49:48Z</time>
      </trkpt>
      <trkpt lat="45.70817" lon="4.58799">
        <ele>708.8</ele>
        <time>2022-06-26T13:49:49Z</time>
      </trkpt>
      <trkpt lat="45.70817" lon="4.58797">
        <ele>708.8</ele>
        <time>2022-06-26T13:49:50Z</time>
      </trkpt>
      <trkpt lat="45.70817" lon="4.58795">
        <ele>708.8</ele>
        <time>2022-06-26T13:49:51Z</time>
      </trkpt>
      <trkpt lat="45.70817" lon="4.58793">
        <ele>708.8</ele>
        <time>2022-06-26T13:49:52Z</time>
      </trkpt>
      <trkpt lat="45.70817" lon="4.5879">
        <ele>708.8</ele>
        <time>2022-06-26T13:49:53Z</time>
      </trkpt>
      <trkpt lat="45.70817" lon="4.58787">
        <ele>709.2</ele>
        <time>2022-06-26T13:49:54Z</time>
      </trkpt>
      <trkpt lat="45.70817" lon="4.58784">
        <ele>709.2</ele>
        <time>2022-06-26T13:49:55Z</time>
      </trkpt>
      <trkpt lat="45.70817" lon="4.58781">
        <ele>709.4</ele>
        <time>2022-06-26T13:49:56Z</time>
      </trkpt>
      <trkpt lat="45.70817" lon="4.58778">
        <ele>709.4</ele>
        <time>2022-06-26T13:49:57Z</time>
      </trkpt>
      <trkpt lat="45.70817" lon="4.58775">
        <ele>709.6</ele>
        <time>2022-06-26T13:49:58Z</time>
      </trkpt>
      <trkpt lat="45.70817" lon="4.58772">
        <ele>709.6</ele>
        <time>2022-06-26T13:49:59Z</time>
      </trkpt>
      <trkpt lat="45.70816" lon="4.58768">
        <ele>710</ele>
        <time>2022-06-26T13:50:00Z</time>
      </trkpt>
      <trkpt lat="45.70816" lon="4.58765">
        <ele>710</ele>
        <time>2022-06-26T13:50:01Z</time>
      </trkpt>
      <trkpt lat="45.70816" lon="4.58762">
        <ele>710.2</ele>
        <time>2022-06-26T13:50:02Z</time>
      </trkpt>
      <trkpt lat="45.70816" lon="4.58758">
        <ele>710.2</ele>
        <time>2022-06-26T13:50:03Z</time>
      </trkpt>
      <trkpt lat="45.70815" lon="4.58755">
        <ele>710.6</ele>
        <time>2022-06-26T13:50:04Z</time>
      </trkpt>
      <trkpt lat="45.70814" lon="4.58753">
        <ele>710.6</ele>
        <time>2022-06-26T13:50:05Z</time>
      </trkpt>
      <trkpt lat="45.70812" lon="4.58752">
        <ele>710.6</ele>
        <time>2022-06-26T13:50:06Z</time>
      </trkpt>
      <trkpt lat="45.70809" lon="4.58752">
        <ele>710.6</ele>
        <time>2022-06-26T13:50:07Z</time>
      </trkpt>
      <trkpt lat="45.70806" lon="4.58753">
        <ele>710.8</ele>
        <time>2022-06-26T13:50:08Z</time>
      </trkpt>
      <trkpt lat="45.70803" lon="4.58754">
        <ele>710.8</ele>
        <time>2022-06-26T13:50:09Z</time>
      </trkpt>
      <trkpt lat="45.708" lon="4.58756">
        <ele>710.8</ele>
        <time>2022-06-26T13:50:10Z</time>
      </trkpt>
      <trkpt lat="45.70797" lon="4.58757">
        <ele>711.2</ele>
        <time>2022-06-26T13:50:11Z</time>
      </trkpt>
      <trkpt lat="45.70794" lon="4.58757">
        <ele>711.4</ele>
        <time>2022-06-26T13:50:12Z</time>
      </trkpt>
      <trkpt lat="45.70792" lon="4.58758">
        <ele>711.6</ele>
        <time>2022-06-26T13:50:13Z</time>
      </trkpt>
      <trkpt lat="45.70789" lon="4.58758">
        <ele>711.8</ele>
        <time>2022-06-26T13:50:14Z</time>
      </trkpt>
      <trkpt lat="45.70785" lon="4.5876">
        <ele>712</ele>
        <time>2022-06-26T13:50:15Z</time>
      </trkpt>
      <trkpt lat="45.70782" lon="4.58762">
        <ele>712.4</ele>
        <time>2022-06-26T13:50:16Z</time>
      </trkpt>
      <trkpt lat="45.70779" lon="4.58765">
        <ele>712.4</ele>
        <time>2022-06-26T13:50:17Z</time>
      </trkpt>
      <trkpt lat="45.70777" lon="4.58769">
        <ele>712.8</ele>
        <time>2022-06-26T13:50:18Z</time>
      </trkpt>
      <trkpt lat="45.70775" lon="4.58772">
        <ele>713</ele>
        <time>2022-06-26T13:50:19Z</time>
      </trkpt>
      <trkpt lat="45.70773" lon="4.58776">
        <ele>713</ele>
        <time>2022-06-26T13:50:20Z</time>
      </trkpt>
      <trkpt lat="45.70772" lon="4.5878">
        <ele>713.4</ele>
        <time>2022-06-26T13:50:21Z</time>
      </trkpt>
      <trkpt lat="45.7077" lon="4.58784">
        <ele>713.6</ele>
        <time>2022-06-26T13:50:22Z</time>
      </trkpt>
      <trkpt lat="45.70769" lon="4.58787">
        <ele>714</ele>
        <time>2022-06-26T13:50:23Z</time>
      </trkpt>
      <trkpt lat="45.70767" lon="4.58791">
        <ele>714.2</ele>
        <time>2022-06-26T13:50:24Z</time>
      </trkpt>
      <trkpt lat="45.70766" lon="4.58795">
        <ele>714.4</ele>
        <time>2022-06-26T13:50:25Z</time>
      </trkpt>
      <trkpt lat="45.70764" lon="4.58799">
        <ele>714.6</ele>
        <time>2022-06-26T13:50:26Z</time>
      </trkpt>
      <trkpt lat="45.70763" lon="4.58803">
        <ele>715</ele>
        <time>2022-06-26T13:50:27Z</time>
      </trkpt>
      <trkpt lat="45.70761" lon="4.58806">
        <ele>715.2</ele>
        <time>2022-06-26T13:50:28Z</time>
      </trkpt>
      <trkpt lat="45.7076" lon="4.5881">
        <ele>715.4</ele>
        <time>2022-06-26T13:50:29Z</time>
      </trkpt>
      <trkpt lat="45.70758" lon="4.58814">
        <ele>715.6</ele>
        <time>2022-06-26T13:50:30Z</time>
      </trkpt>
      <trkpt lat="45.70757" lon="4.58817">
        <ele>715.8</ele>
        <time>2022-06-26T13:50:31Z</time>
      </trkpt>
      <trkpt lat="45.70756" lon="4.5882">
        <ele>716.2</ele>
        <time>2022-06-26T13:50:32Z</time>
      </trkpt>
      <trkpt lat="45.70755" lon="4.58824">
        <ele>716.4</ele>
        <time>2022-06-26T13:50:33Z</time>
      </trkpt>
      <trkpt lat="45.70753" lon="4.58827">
        <ele>716.6</ele>
        <time>2022-06-26T13:50:34Z</time>
      </trkpt>
      <trkpt lat="45.70752" lon="4.58831">
        <ele>717</ele>
        <time>2022-06-26T13:50:35Z</time>
      </trkpt>
      <trkpt lat="45.70751" lon="4.58834">
        <ele>717</ele>
        <time>2022-06-26T13:50:36Z</time>
      </trkpt>
      <trkpt lat="45.7075" lon="4.58837">
        <ele>717.4</ele>
        <time>2022-06-26T13:50:37Z</time>
      </trkpt>
      <trkpt lat="45.70748" lon="4.5884">
        <ele>717.8</ele>
        <time>2022-06-26T13:50:38Z</time>
      </trkpt>
      <trkpt lat="45.70747" lon="4.58844">
        <ele>718</ele>
        <time>2022-06-26T13:50:39Z</time>
      </trkpt>
      <trkpt lat="45.70747" lon="4.58847">
        <ele>718.2</ele>
        <time>2022-06-26T13:50:40Z</time>
      </trkpt>
      <trkpt lat="45.70746" lon="4.5885">
        <ele>718.4</ele>
        <time>2022-06-26T13:50:41Z</time>
      </trkpt>
      <trkpt lat="45.70745" lon="4.58854">
        <ele>718.4</ele>
        <time>2022-06-26T13:50:42Z</time>
      </trkpt>
      <trkpt lat="45.70744" lon="4.58857">
        <ele>718.8</ele>
        <time>2022-06-26T13:50:43Z</time>
      </trkpt>
      <trkpt lat="45.70743" lon="4.5886">
        <ele>719</ele>
        <time>2022-06-26T13:50:44Z</time>
      </trkpt>
      <trkpt lat="45.70742" lon="4.58863">
        <ele>719.4</ele>
        <time>2022-06-26T13:50:45Z</time>
      </trkpt>
      <trkpt lat="45.70742" lon="4.58867">
        <ele>719.6</ele>
        <time>2022-06-26T13:50:46Z</time>
      </trkpt>
      <trkpt lat="45.70741" lon="4.5887">
        <ele>719.6</ele>
        <time>2022-06-26T13:50:47Z</time>
      </trkpt>
      <trkpt lat="45.70741" lon="4.58874">
        <ele>720.2</ele>
        <time>2022-06-26T13:50:48Z</time>
      </trkpt>
      <trkpt lat="45.7074" lon="4.58878">
        <ele>720.2</ele>
        <time>2022-06-26T13:50:49Z</time>
      </trkpt>
      <trkpt lat="45.70739" lon="4.58881">
        <ele>720.6</ele>
        <time>2022-06-26T13:50:50Z</time>
      </trkpt>
      <trkpt lat="45.70738" lon="4.58885">
        <ele>720.8</ele>
        <time>2022-06-26T13:50:51Z</time>
      </trkpt>
      <trkpt lat="45.70737" lon="4.58889">
        <ele>721</ele>
        <time>2022-06-26T13:50:52Z</time>
      </trkpt>
      <trkpt lat="45.70738" lon="4.58893">
        <ele>721.4</ele>
        <time>2022-06-26T13:50:53Z</time>
      </trkpt>
      <trkpt lat="45.70738" lon="4.58896">
        <ele>721.6</ele>
        <time>2022-06-26T13:50:54Z</time>
      </trkpt>
      <trkpt lat="45.70739" lon="4.58899">
        <ele>721.8</ele>
        <time>2022-06-26T13:50:55Z</time>
      </trkpt>
      <trkpt lat="45.7074" lon="4.58903">
        <ele>722</ele>
        <time>2022-06-26T13:50:56Z</time>
      </trkpt>
      <trkpt lat="45.70741" lon="4.58906">
        <ele>722</ele>
        <time>2022-06-26T13:50:57Z</time>
      </trkpt>
      <trkpt lat="45.70741" lon="4.58909">
        <ele>722.4</ele>
        <time>2022-06-26T13:50:58Z</time>
      </trkpt>
      <trkpt lat="45.70742" lon="4.58913">
        <ele>722.4</ele>
        <time>2022-06-26T13:50:59Z</time>
      </trkpt>
      <trkpt lat="45.70743" lon="4.58916">
        <ele>722.8</ele>
        <time>2022-06-26T13:51:00Z</time>
      </trkpt>
      <trkpt lat="45.70743" lon="4.5892">
        <ele>722.8</ele>
        <time>2022-06-26T13:51:01Z</time>
      </trkpt>
      <trkpt lat="45.70744" lon="4.58923">
        <ele>723</ele>
        <time>2022-06-26T13:51:02Z</time>
      </trkpt>
      <trkpt lat="45.70744" lon="4.58926">
        <ele>723</ele>
        <time>2022-06-26T13:51:03Z</time>
      </trkpt>
      <trkpt lat="45.70745" lon="4.5893">
        <ele>723.4</ele>
        <time>2022-06-26T13:51:04Z</time>
      </trkpt>
      <trkpt lat="45.70746" lon="4.58933">
        <ele>723.4</ele>
        <time>2022-06-26T13:51:05Z</time>
      </trkpt>
      <trkpt lat="45.70747" lon="4.58936">
        <ele>723.4</ele>
        <time>2022-06-26T13:51:06Z</time>
      </trkpt>
      <trkpt lat="45.70748" lon="4.5894">
        <ele>723.6</ele>
        <time>2022-06-26T13:51:07Z</time>
      </trkpt>
      <trkpt lat="45.70749" lon="4.58943">
        <ele>723.6</ele>
        <time>2022-06-26T13:51:08Z</time>
      </trkpt>
      <trkpt lat="45.70749" lon="4.58946">
        <ele>723.8</ele>
        <time>2022-06-26T13:51:09Z</time>
      </trkpt>
      <trkpt lat="45.7075" lon="4.58949">
        <ele>723.8</ele>
        <time>2022-06-26T13:51:10Z</time>
      </trkpt>
      <trkpt lat="45.7075" lon="4.58952">
        <ele>724.2</ele>
        <time>2022-06-26T13:51:11Z</time>
      </trkpt>
      <trkpt lat="45.70751" lon="4.58955">
        <ele>724.2</ele>
        <time>2022-06-26T13:51:12Z</time>
      </trkpt>
      <trkpt lat="45.70751" lon="4.58958">
        <ele>724.4</ele>
        <time>2022-06-26T13:51:13Z</time>
      </trkpt>
      <trkpt lat="45.70752" lon="4.58961">
        <ele>724.6</ele>
        <time>2022-06-26T13:51:14Z</time>
      </trkpt>
      <trkpt lat="45.70753" lon="4.58964">
        <ele>724.6</ele>
        <time>2022-06-26T13:51:15Z</time>
      </trkpt>
      <trkpt lat="45.70753" lon="4.58967">
        <ele>725</ele>
        <time>2022-06-26T13:51:16Z</time>
      </trkpt>
      <trkpt lat="45.70754" lon="4.5897">
        <ele>725.2</ele>
        <time>2022-06-26T13:51:17Z</time>
      </trkpt>
      <trkpt lat="45.70755" lon="4.58974">
        <ele>725.2</ele>
        <time>2022-06-26T13:51:18Z</time>
      </trkpt>
      <trkpt lat="45.70756" lon="4.58977">
        <ele>725.4</ele>
        <time>2022-06-26T13:51:19Z</time>
      </trkpt>
      <trkpt lat="45.70757" lon="4.58981">
        <ele>725.4</ele>
        <time>2022-06-26T13:51:20Z</time>
      </trkpt>
      <trkpt lat="45.70757" lon="4.58983">
        <ele>725.4</ele>
        <time>2022-06-26T13:51:21Z</time>
      </trkpt>
      <trkpt lat="45.70757" lon="4.58986">
        <ele>725.8</ele>
        <time>2022-06-26T13:51:22Z</time>
      </trkpt>
      <trkpt lat="45.70757" lon="4.5899">
        <ele>725.8</ele>
        <time>2022-06-26T13:51:23Z</time>
      </trkpt>
      <trkpt lat="45.70757" lon="4.58994">
        <ele>726</ele>
        <time>2022-06-26T13:51:24Z</time>
      </trkpt>
      <trkpt lat="45.70758" lon="4.58997">
        <ele>726</ele>
        <time>2022-06-26T13:51:25Z</time>
      </trkpt>
      <trkpt lat="45.70758" lon="4.59">
        <ele>726.2</ele>
        <time>2022-06-26T13:51:26Z</time>
      </trkpt>
      <trkpt lat="45.70759" lon="4.59003">
        <ele>726.2</ele>
        <time>2022-06-26T13:51:27Z</time>
      </trkpt>
      <trkpt lat="45.70759" lon="4.59006">
        <ele>726.2</ele>
        <time>2022-06-26T13:51:28Z</time>
      </trkpt>
      <trkpt lat="45.7076" lon="4.5901">
        <ele>726.4</ele>
        <time>2022-06-26T13:51:29Z</time>
      </trkpt>
      <trkpt lat="45.70761" lon="4.59013">
        <ele>726.4</ele>
        <time>2022-06-26T13:51:30Z</time>
      </trkpt>
      <trkpt lat="45.70763" lon="4.59016">
        <ele>726.4</ele>
        <time>2022-06-26T13:51:31Z</time>
      </trkpt>
      <trkpt lat="45.70764" lon="4.59019">
        <ele>726.4</ele>
        <time>2022-06-26T13:51:32Z</time>
      </trkpt>
      <trkpt lat="45.70765" lon="4.59022">
        <ele>726.4</ele>
        <time>2022-06-26T13:51:33Z</time>
      </trkpt>
      <trkpt lat="45.70767" lon="4.59025">
        <ele>726.4</ele>
        <time>2022-06-26T13:51:34Z</time>
      </trkpt>
      <trkpt lat="45.7077" lon="4.59029">
        <ele>726.2</ele>
        <time>2022-06-26T13:51:35Z</time>
      </trkpt>
      <trkpt lat="45.70772" lon="4.59032">
        <ele>726.2</ele>
        <time>2022-06-26T13:51:36Z</time>
      </trkpt>
      <trkpt lat="45.70774" lon="4.59036">
        <ele>726.2</ele>
        <time>2022-06-26T13:51:37Z</time>
      </trkpt>
      <trkpt lat="45.70776" lon="4.59039">
        <ele>726</ele>
        <time>2022-06-26T13:51:38Z</time>
      </trkpt>
      <trkpt lat="45.70777" lon="4.59044">
        <ele>726</ele>
        <time>2022-06-26T13:51:39Z</time>
      </trkpt>
      <trkpt lat="45.70779" lon="4.59048">
        <ele>726</ele>
        <time>2022-06-26T13:51:40Z</time>
      </trkpt>
      <trkpt lat="45.70781" lon="4.5905">
        <ele>726</ele>
        <time>2022-06-26T13:51:41Z</time>
      </trkpt>
      <trkpt lat="45.70783" lon="4.59051">
        <ele>726</ele>
        <time>2022-06-26T13:51:42Z</time>
      </trkpt>
      <trkpt lat="45.70786" lon="4.59052">
        <ele>726</ele>
        <time>2022-06-26T13:51:43Z</time>
      </trkpt>
      <trkpt lat="45.70788" lon="4.59051">
        <ele>726</ele>
        <time>2022-06-26T13:51:44Z</time>
      </trkpt>
      <trkpt lat="45.7079" lon="4.59051">
        <ele>726.2</ele>
        <time>2022-06-26T13:51:45Z</time>
      </trkpt>
      <trkpt lat="45.70791" lon="4.5905">
        <ele>726.2</ele>
        <time>2022-06-26T13:51:46Z</time>
      </trkpt>
      <trkpt lat="45.70793" lon="4.59049">
        <ele>726.2</ele>
        <time>2022-06-26T13:51:47Z</time>
      </trkpt>
      <trkpt lat="45.70795" lon="4.59048">
        <ele>726.6</ele>
        <time>2022-06-26T13:51:48Z</time>
      </trkpt>
      <trkpt lat="45.70796" lon="4.59047">
        <ele>726.6</ele>
        <time>2022-06-26T13:51:49Z</time>
      </trkpt>
      <trkpt lat="45.70798" lon="4.59046">
        <ele>726.6</ele>
        <time>2022-06-26T13:51:50Z</time>
      </trkpt>
      <trkpt lat="45.70799" lon="4.59046">
        <ele>726.6</ele>
        <time>2022-06-26T13:51:51Z</time>
      </trkpt>
      <trkpt lat="45.708" lon="4.59047">
        <ele>726.6</ele>
        <time>2022-06-26T13:51:52Z</time>
      </trkpt>
      <trkpt lat="45.70801" lon="4.59048">
        <ele>726.6</ele>
        <time>2022-06-26T13:51:53Z</time>
      </trkpt>
      <trkpt lat="45.70802" lon="4.59049">
        <ele>726.6</ele>
        <time>2022-06-26T13:51:54Z</time>
      </trkpt>
      <trkpt lat="45.70802" lon="4.59051">
        <ele>726.6</ele>
        <time>2022-06-26T13:51:55Z</time>
      </trkpt>
      <trkpt lat="45.70789" lon="4.59054">
        <ele>708.8</ele>
        <time>2022-06-26T14:02:35Z</time>
      </trkpt>
      <trkpt lat="45.70788" lon="4.59056">
        <ele>708.8</ele>
        <time>2022-06-26T14:02:36Z</time>
      </trkpt>
      <trkpt lat="45.70787" lon="4.59057">
        <ele>708.8</ele>
        <time>2022-06-26T14:02:37Z</time>
      </trkpt>
      <trkpt lat="45.70784" lon="4.5906">
        <ele>708.8</ele>
        <time>2022-06-26T14:02:48Z</time>
      </trkpt>
      <trkpt lat="45.70783" lon="4.59061">
        <ele>708.8</ele>
        <time>2022-06-26T14:02:49Z</time>
      </trkpt>
      <trkpt lat="45.70783" lon="4.59063">
        <ele>708.8</ele>
        <time>2022-06-26T14:02:50Z</time>
      </trkpt>
      <trkpt lat="45.70783" lon="4.59066">
        <ele>708.8</ele>
        <time>2022-06-26T14:02:51Z</time>
      </trkpt>
      <trkpt lat="45.70784" lon="4.59068">
        <ele>708.8</ele>
        <time>2022-06-26T14:02:52Z</time>
      </trkpt>
      <trkpt lat="45.70785" lon="4.59068">
        <ele>708.8</ele>
        <time>2022-06-26T14:02:53Z</time>
      </trkpt>
      <trkpt lat="45.70786" lon="4.59067">
        <ele>708.8</ele>
        <time>2022-06-26T14:02:54Z</time>
      </trkpt>
      <trkpt lat="45.70787" lon="4.59065">
        <ele>708.8</ele>
        <time>2022-06-26T14:02:55Z</time>
      </trkpt>
      <trkpt lat="45.70786" lon="4.5906">
        <ele>708.8</ele>
        <time>2022-06-26T14:02:56Z</time>
      </trkpt>
      <trkpt lat="45.70786" lon="4.59059">
        <ele>709</ele>
        <time>2022-06-26T14:02:57Z</time>
      </trkpt>
      <trkpt lat="45.70783" lon="4.59056">
        <ele>709</ele>
        <time>2022-06-26T14:02:58Z</time>
      </trkpt>
      <trkpt lat="45.70783" lon="4.59055">
        <ele>709</ele>
        <time>2022-06-26T14:02:59Z</time>
      </trkpt>
      <trkpt lat="45.70781" lon="4.59053">
        <ele>709</ele>
        <time>2022-06-26T14:03:00Z</time>
      </trkpt>
      <trkpt lat="45.70779" lon="4.59051">
        <ele>708.8</ele>
        <time>2022-06-26T14:03:01Z</time>
      </trkpt>
      <trkpt lat="45.70778" lon="4.59047">
        <ele>708.8</ele>
        <time>2022-06-26T14:03:02Z</time>
      </trkpt>
      <trkpt lat="45.70777" lon="4.59046">
        <ele>708.8</ele>
        <time>2022-06-26T14:03:03Z</time>
      </trkpt>
      <trkpt lat="45.70778" lon="4.59042">
        <ele>708.8</ele>
        <time>2022-06-26T14:03:04Z</time>
      </trkpt>
      <trkpt lat="45.70779" lon="4.59041">
        <ele>708.4</ele>
        <time>2022-06-26T14:03:05Z</time>
      </trkpt>
      <trkpt lat="45.7078" lon="4.5904">
        <ele>708.4</ele>
        <time>2022-06-26T14:03:06Z</time>
      </trkpt>
      <trkpt lat="45.70781" lon="4.59038">
        <ele>708.4</ele>
        <time>2022-06-26T14:03:07Z</time>
      </trkpt>
      <trkpt lat="45.70783" lon="4.59037">
        <ele>708.4</ele>
        <time>2022-06-26T14:03:08Z</time>
      </trkpt>
      <trkpt lat="45.70785" lon="4.59036">
        <ele>708</ele>
        <time>2022-06-26T14:03:09Z</time>
      </trkpt>
      <trkpt lat="45.70787" lon="4.59034">
        <ele>707.8</ele>
        <time>2022-06-26T14:03:10Z</time>
      </trkpt>
      <trkpt lat="45.70788" lon="4.59033">
        <ele>707.6</ele>
        <time>2022-06-26T14:03:11Z</time>
      </trkpt>
      <trkpt lat="45.7079" lon="4.59032">
        <ele>707.2</ele>
        <time>2022-06-26T14:03:12Z</time>
      </trkpt>
      <trkpt lat="45.70792" lon="4.59031">
        <ele>706.8</ele>
        <time>2022-06-26T14:03:13Z</time>
      </trkpt>
      <trkpt lat="45.70795" lon="4.5903">
        <ele>706.4</ele>
        <time>2022-06-26T14:03:14Z</time>
      </trkpt>
      <trkpt lat="45.70798" lon="4.5903">
        <ele>706</ele>
        <time>2022-06-26T14:03:15Z</time>
      </trkpt>
      <trkpt lat="45.70801" lon="4.5903">
        <ele>705.6</ele>
        <time>2022-06-26T14:03:16Z</time>
      </trkpt>
      <trkpt lat="45.70807" lon="4.59029">
        <ele>705.2</ele>
        <time>2022-06-26T14:03:17Z</time>
      </trkpt>
      <trkpt lat="45.70809" lon="4.59029">
        <ele>704.6</ele>
        <time>2022-06-26T14:03:18Z</time>
      </trkpt>
      <trkpt lat="45.70813" lon="4.59029">
        <ele>704.2</ele>
        <time>2022-06-26T14:03:19Z</time>
      </trkpt>
      <trkpt lat="45.70817" lon="4.59028">
        <ele>703.6</ele>
        <time>2022-06-26T14:03:20Z</time>
      </trkpt>
      <trkpt lat="45.7082" lon="4.59029">
        <ele>703.2</ele>
        <time>2022-06-26T14:03:21Z</time>
      </trkpt>
      <trkpt lat="45.70822" lon="4.59031">
        <ele>702.8</ele>
        <time>2022-06-26T14:03:22Z</time>
      </trkpt>
      <trkpt lat="45.70826" lon="4.59032">
        <ele>702.2</ele>
        <time>2022-06-26T14:03:23Z</time>
      </trkpt>
      <trkpt lat="45.7083" lon="4.59035">
        <ele>701.8</ele>
        <time>2022-06-26T14:03:24Z</time>
      </trkpt>
      <trkpt lat="45.70833" lon="4.59037">
        <ele>701.4</ele>
        <time>2022-06-26T14:03:25Z</time>
      </trkpt>
      <trkpt lat="45.70836" lon="4.5904">
        <ele>701</ele>
        <time>2022-06-26T14:03:26Z</time>
      </trkpt>
      <trkpt lat="45.70838" lon="4.59044">
        <ele>700.8</ele>
        <time>2022-06-26T14:03:27Z</time>
      </trkpt>
      <trkpt lat="45.70841" lon="4.59048">
        <ele>700.6</ele>
        <time>2022-06-26T14:03:28Z</time>
      </trkpt>
      <trkpt lat="45.70844" lon="4.59053">
        <ele>700.4</ele>
        <time>2022-06-26T14:03:29Z</time>
      </trkpt>
      <trkpt lat="45.70846" lon="4.59057">
        <ele>700</ele>
        <time>2022-06-26T14:03:30Z</time>
      </trkpt>
      <trkpt lat="45.70849" lon="4.5906">
        <ele>700</ele>
        <time>2022-06-26T14:03:31Z</time>
      </trkpt>
      <trkpt lat="45.70853" lon="4.59064">
        <ele>699.8</ele>
        <time>2022-06-26T14:03:32Z</time>
      </trkpt>
      <trkpt lat="45.70856" lon="4.59068">
        <ele>699.8</ele>
        <time>2022-06-26T14:03:33Z</time>
      </trkpt>
      <trkpt lat="45.70858" lon="4.59072">
        <ele>699.6</ele>
        <time>2022-06-26T14:03:34Z</time>
      </trkpt>
      <trkpt lat="45.7086" lon="4.59078">
        <ele>699.4</ele>
        <time>2022-06-26T14:03:35Z</time>
      </trkpt>
      <trkpt lat="45.70862" lon="4.59083">
        <ele>699</ele>
        <time>2022-06-26T14:03:36Z</time>
      </trkpt>
      <trkpt lat="45.70863" lon="4.59089">
        <ele>698.8</ele>
        <time>2022-06-26T14:03:37Z</time>
      </trkpt>
      <trkpt lat="45.70865" lon="4.59096">
        <ele>698.6</ele>
        <time>2022-06-26T14:03:38Z</time>
      </trkpt>
      <trkpt lat="45.70867" lon="4.59102">
        <ele>698.4</ele>
        <time>2022-06-26T14:03:39Z</time>
      </trkpt>
      <trkpt lat="45.70869" lon="4.59109">
        <ele>698.2</ele>
        <time>2022-06-26T14:03:40Z</time>
      </trkpt>
      <trkpt lat="45.70871" lon="4.59115">
        <ele>697.8</ele>
        <time>2022-06-26T14:03:41Z</time>
      </trkpt>
      <trkpt lat="45.70872" lon="4.59123">
        <ele>697.4</ele>
        <time>2022-06-26T14:03:42Z</time>
      </trkpt>
      <trkpt lat="45.70873" lon="4.5913">
        <ele>697</ele>
        <time>2022-06-26T14:03:43Z</time>
      </trkpt>
      <trkpt lat="45.70874" lon="4.59137">
        <ele>696.6</ele>
        <time>2022-06-26T14:03:44Z</time>
      </trkpt>
      <trkpt lat="45.70875" lon="4.59143">
        <ele>696.2</ele>
        <time>2022-06-26T14:03:45Z</time>
      </trkpt>
      <trkpt lat="45.70875" lon="4.5915">
        <ele>696</ele>
        <time>2022-06-26T14:03:46Z</time>
      </trkpt>
      <trkpt lat="45.70877" lon="4.59155">
        <ele>695.8</ele>
        <time>2022-06-26T14:03:47Z</time>
      </trkpt>
      <trkpt lat="45.70878" lon="4.59161">
        <ele>695.4</ele>
        <time>2022-06-26T14:03:48Z</time>
      </trkpt>
      <trkpt lat="45.70878" lon="4.59165">
        <ele>695.2</ele>
        <time>2022-06-26T14:03:49Z</time>
      </trkpt>
      <trkpt lat="45.70877" lon="4.5917">
        <ele>695</ele>
        <time>2022-06-26T14:03:50Z</time>
      </trkpt>
      <trkpt lat="45.70875" lon="4.59174">
        <ele>695</ele>
        <time>2022-06-26T14:03:51Z</time>
      </trkpt>
      <trkpt lat="45.70872" lon="4.59177">
        <ele>694.6</ele>
        <time>2022-06-26T14:03:52Z</time>
      </trkpt>
      <trkpt lat="45.70869" lon="4.59179">
        <ele>694.6</ele>
        <time>2022-06-26T14:03:53Z</time>
      </trkpt>
      <trkpt lat="45.70865" lon="4.59182">
        <ele>694.2</ele>
        <time>2022-06-26T14:03:54Z</time>
      </trkpt>
      <trkpt lat="45.7086" lon="4.59184">
        <ele>694</ele>
        <time>2022-06-26T14:03:55Z</time>
      </trkpt>
      <trkpt lat="45.70855" lon="4.59185">
        <ele>693.8</ele>
        <time>2022-06-26T14:03:56Z</time>
      </trkpt>
      <trkpt lat="45.70849" lon="4.59188">
        <ele>693.4</ele>
        <time>2022-06-26T14:03:57Z</time>
      </trkpt>
      <trkpt lat="45.70844" lon="4.5919">
        <ele>693</ele>
        <time>2022-06-26T14:03:58Z</time>
      </trkpt>
      <trkpt lat="45.70838" lon="4.59193">
        <ele>692.6</ele>
        <time>2022-06-26T14:03:59Z</time>
      </trkpt>
      <trkpt lat="45.70833" lon="4.59196">
        <ele>692.2</ele>
        <time>2022-06-26T14:04:00Z</time>
      </trkpt>
      <trkpt lat="45.70827" lon="4.59199">
        <ele>691.8</ele>
        <time>2022-06-26T14:04:01Z</time>
      </trkpt>
      <trkpt lat="45.70822" lon="4.59202">
        <ele>691.2</ele>
        <time>2022-06-26T14:04:02Z</time>
      </trkpt>
      <trkpt lat="45.70816" lon="4.59205">
        <ele>690.6</ele>
        <time>2022-06-26T14:04:03Z</time>
      </trkpt>
      <trkpt lat="45.7081" lon="4.59207">
        <ele>690</ele>
        <time>2022-06-26T14:04:04Z</time>
      </trkpt>
      <trkpt lat="45.70804" lon="4.59208">
        <ele>689.4</ele>
        <time>2022-06-26T14:04:05Z</time>
      </trkpt>
      <trkpt lat="45.70798" lon="4.59209">
        <ele>688.6</ele>
        <time>2022-06-26T14:04:06Z</time>
      </trkpt>
      <trkpt lat="45.70791" lon="4.59209">
        <ele>688</ele>
        <time>2022-06-26T14:04:07Z</time>
      </trkpt>
      <trkpt lat="45.70784" lon="4.59209">
        <ele>687.2</ele>
        <time>2022-06-26T14:04:08Z</time>
      </trkpt>
      <trkpt lat="45.70778" lon="4.5921">
        <ele>686.6</ele>
        <time>2022-06-26T14:04:09Z</time>
      </trkpt>
      <trkpt lat="45.70772" lon="4.59211">
        <ele>685.8</ele>
        <time>2022-06-26T14:04:10Z</time>
      </trkpt>
      <trkpt lat="45.70766" lon="4.59212">
        <ele>685.2</ele>
        <time>2022-06-26T14:04:11Z</time>
      </trkpt>
      <trkpt lat="45.70761" lon="4.59215">
        <ele>684.4</ele>
        <time>2022-06-26T14:04:12Z</time>
      </trkpt>
      <trkpt lat="45.70755" lon="4.59219">
        <ele>683.8</ele>
        <time>2022-06-26T14:04:13Z</time>
      </trkpt>
      <trkpt lat="45.7075" lon="4.59225">
        <ele>683</ele>
        <time>2022-06-26T14:04:14Z</time>
      </trkpt>
      <trkpt lat="45.70745" lon="4.59233">
        <ele>681</ele>
        <time>2022-06-26T14:04:15Z</time>
      </trkpt>
      <trkpt lat="45.70741" lon="4.59244">
        <ele>679.8</ele>
        <time>2022-06-26T14:04:16Z</time>
      </trkpt>
      <trkpt lat="45.70737" lon="4.59254">
        <ele>678.8</ele>
        <time>2022-06-26T14:04:17Z</time>
      </trkpt>
      <trkpt lat="45.70734" lon="4.59265">
        <ele>677.8</ele>
        <time>2022-06-26T14:04:18Z</time>
      </trkpt>
      <trkpt lat="45.7073" lon="4.59276">
        <ele>676.6</ele>
        <time>2022-06-26T14:04:19Z</time>
      </trkpt>
      <trkpt lat="45.70727" lon="4.59287">
        <ele>675.4</ele>
        <time>2022-06-26T14:04:20Z</time>
      </trkpt>
      <trkpt lat="45.70723" lon="4.59298">
        <ele>674.4</ele>
        <time>2022-06-26T14:04:21Z</time>
      </trkpt>
      <trkpt lat="45.7072" lon="4.59309">
        <ele>673.2</ele>
        <time>2022-06-26T14:04:22Z</time>
      </trkpt>
      <trkpt lat="45.70718" lon="4.5932">
        <ele>672.2</ele>
        <time>2022-06-26T14:04:23Z</time>
      </trkpt>
      <trkpt lat="45.70715" lon="4.59331">
        <ele>671.4</ele>
        <time>2022-06-26T14:04:24Z</time>
      </trkpt>
      <trkpt lat="45.70713" lon="4.59342">
        <ele>670.4</ele>
        <time>2022-06-26T14:04:25Z</time>
      </trkpt>
      <trkpt lat="45.70711" lon="4.59352">
        <ele>669.4</ele>
        <time>2022-06-26T14:04:26Z</time>
      </trkpt>
      <trkpt lat="45.70708" lon="4.59363">
        <ele>668.4</ele>
        <time>2022-06-26T14:04:27Z</time>
      </trkpt>
      <trkpt lat="45.70705" lon="4.59374">
        <ele>667.4</ele>
        <time>2022-06-26T14:04:28Z</time>
      </trkpt>
      <trkpt lat="45.70702" lon="4.59385">
        <ele>666.2</ele>
        <time>2022-06-26T14:04:29Z</time>
      </trkpt>
      <trkpt lat="45.70699" lon="4.59396">
        <ele>665</ele>
        <time>2022-06-26T14:04:30Z</time>
      </trkpt>
      <trkpt lat="45.70696" lon="4.59406">
        <ele>664</ele>
        <time>2022-06-26T14:04:31Z</time>
      </trkpt>
      <trkpt lat="45.70694" lon="4.59415">
        <ele>662.8</ele>
        <time>2022-06-26T14:04:32Z</time>
      </trkpt>
      <trkpt lat="45.70691" lon="4.59424">
        <ele>661.6</ele>
        <time>2022-06-26T14:04:33Z</time>
      </trkpt>
      <trkpt lat="45.7069" lon="4.59431">
        <ele>660.6</ele>
        <time>2022-06-26T14:04:34Z</time>
      </trkpt>
      <trkpt lat="45.70689" lon="4.59438">
        <ele>659.6</ele>
        <time>2022-06-26T14:04:35Z</time>
      </trkpt>
      <trkpt lat="45.7069" lon="4.59442">
        <ele>658.8</ele>
        <time>2022-06-26T14:04:36Z</time>
      </trkpt>
      <trkpt lat="45.70691" lon="4.59446">
        <ele>658.2</ele>
        <time>2022-06-26T14:04:37Z</time>
      </trkpt>
      <trkpt lat="45.70693" lon="4.59447">
        <ele>657.6</ele>
        <time>2022-06-26T14:04:38Z</time>
      </trkpt>
      <trkpt lat="45.70697" lon="4.59447">
        <ele>657</ele>
        <time>2022-06-26T14:04:39Z</time>
      </trkpt>
      <trkpt lat="45.70701" lon="4.59445">
        <ele>656.2</ele>
        <time>2022-06-26T14:04:40Z</time>
      </trkpt>
      <trkpt lat="45.70705" lon="4.59442">
        <ele>655.2</ele>
        <time>2022-06-26T14:04:41Z</time>
      </trkpt>
      <trkpt lat="45.7071" lon="4.59439">
        <ele>654.4</ele>
        <time>2022-06-26T14:04:42Z</time>
      </trkpt>
      <trkpt lat="45.70716" lon="4.59437">
        <ele>653.4</ele>
        <time>2022-06-26T14:04:43Z</time>
      </trkpt>
      <trkpt lat="45.70722" lon="4.59434">
        <ele>652.6</ele>
        <time>2022-06-26T14:04:44Z</time>
      </trkpt>
      <trkpt lat="45.70728" lon="4.59432">
        <ele>651.4</ele>
        <time>2022-06-26T14:04:45Z</time>
      </trkpt>
      <trkpt lat="45.70734" lon="4.59428">
        <ele>650.2</ele>
        <time>2022-06-26T14:04:46Z</time>
      </trkpt>
      <trkpt lat="45.70741" lon="4.59425">
        <ele>649</ele>
        <time>2022-06-26T14:04:47Z</time>
      </trkpt>
      <trkpt lat="45.70747" lon="4.59421">
        <ele>647.6</ele>
        <time>2022-06-26T14:04:48Z</time>
      </trkpt>
      <trkpt lat="45.70754" lon="4.59418">
        <ele>646.4</ele>
        <time>2022-06-26T14:04:49Z</time>
      </trkpt>
      <trkpt lat="45.7076" lon="4.59413">
        <ele>645</ele>
        <time>2022-06-26T14:04:50Z</time>
      </trkpt>
      <trkpt lat="45.70767" lon="4.59408">
        <ele>644</ele>
        <time>2022-06-26T14:04:51Z</time>
      </trkpt>
      <trkpt lat="45.70774" lon="4.59402">
        <ele>643</ele>
        <time>2022-06-26T14:04:52Z</time>
      </trkpt>
      <trkpt lat="45.7078" lon="4.59395">
        <ele>642</ele>
        <time>2022-06-26T14:04:53Z</time>
      </trkpt>
      <trkpt lat="45.70787" lon="4.59388">
        <ele>641.2</ele>
        <time>2022-06-26T14:04:54Z</time>
      </trkpt>
      <trkpt lat="45.70793" lon="4.59381">
        <ele>640.4</ele>
        <time>2022-06-26T14:04:55Z</time>
      </trkpt>
      <trkpt lat="45.70799" lon="4.59375">
        <ele>639.6</ele>
        <time>2022-06-26T14:04:56Z</time>
      </trkpt>
      <trkpt lat="45.70805" lon="4.5937">
        <ele>639</ele>
        <time>2022-06-26T14:04:57Z</time>
      </trkpt>
      <trkpt lat="45.70811" lon="4.59367">
        <ele>638.2</ele>
        <time>2022-06-26T14:04:58Z</time>
      </trkpt>
      <trkpt lat="45.70816" lon="4.59364">
        <ele>637.6</ele>
        <time>2022-06-26T14:04:59Z</time>
      </trkpt>
      <trkpt lat="45.7082" lon="4.59363">
        <ele>636.8</ele>
        <time>2022-06-26T14:05:00Z</time>
      </trkpt>
      <trkpt lat="45.70824" lon="4.59362">
        <ele>636.2</ele>
        <time>2022-06-26T14:05:01Z</time>
      </trkpt>
      <trkpt lat="45.70829" lon="4.59361">
        <ele>635.4</ele>
        <time>2022-06-26T14:05:02Z</time>
      </trkpt>
      <trkpt lat="45.70834" lon="4.59361">
        <ele>634.8</ele>
        <time>2022-06-26T14:05:03Z</time>
      </trkpt>
      <trkpt lat="45.7084" lon="4.59362">
        <ele>633.8</ele>
        <time>2022-06-26T14:05:04Z</time>
      </trkpt>
      <trkpt lat="45.70847" lon="4.59362">
        <ele>632.8</ele>
        <time>2022-06-26T14:05:05Z</time>
      </trkpt>
      <trkpt lat="45.70854" lon="4.59363">
        <ele>631.4</ele>
        <time>2022-06-26T14:05:06Z</time>
      </trkpt>
      <trkpt lat="45.70861" lon="4.59365">
        <ele>630</ele>
        <time>2022-06-26T14:05:07Z</time>
      </trkpt>
      <trkpt lat="45.70868" lon="4.59366">
        <ele>628.6</ele>
        <time>2022-06-26T14:05:08Z</time>
      </trkpt>
      <trkpt lat="45.70875" lon="4.59368">
        <ele>627.2</ele>
        <time>2022-06-26T14:05:09Z</time>
      </trkpt>
      <trkpt lat="45.70882" lon="4.59369">
        <ele>625.8</ele>
        <time>2022-06-26T14:05:10Z</time>
      </trkpt>
      <trkpt lat="45.70889" lon="4.59369">
        <ele>624.6</ele>
        <time>2022-06-26T14:05:11Z</time>
      </trkpt>
      <trkpt lat="45.70894" lon="4.59369">
        <ele>623.2</ele>
        <time>2022-06-26T14:05:12Z</time>
      </trkpt>
      <trkpt lat="45.709" lon="4.59368">
        <ele>622</ele>
        <time>2022-06-26T14:05:13Z</time>
      </trkpt>
      <trkpt lat="45.70905" lon="4.59367">
        <ele>621</ele>
        <time>2022-06-26T14:05:14Z</time>
      </trkpt>
      <trkpt lat="45.70909" lon="4.59366">
        <ele>620</ele>
        <time>2022-06-26T14:05:15Z</time>
      </trkpt>
      <trkpt lat="45.70913" lon="4.59364">
        <ele>619.2</ele>
        <time>2022-06-26T14:05:16Z</time>
      </trkpt>
      <trkpt lat="45.70915" lon="4.59363">
        <ele>618.4</ele>
        <time>2022-06-26T14:05:17Z</time>
      </trkpt>
      <trkpt lat="45.70918" lon="4.59363">
        <ele>617.6</ele>
        <time>2022-06-26T14:05:18Z</time>
      </trkpt>
      <trkpt lat="45.7092" lon="4.59364">
        <ele>617.2</ele>
        <time>2022-06-26T14:05:19Z</time>
      </trkpt>
      <trkpt lat="45.70922" lon="4.59368">
        <ele>616.4</ele>
        <time>2022-06-26T14:05:20Z</time>
      </trkpt>
      <trkpt lat="45.70921" lon="4.59373">
        <ele>615.8</ele>
        <time>2022-06-26T14:05:21Z</time>
      </trkpt>
      <trkpt lat="45.70919" lon="4.59378">
        <ele>615.2</ele>
        <time>2022-06-26T14:05:22Z</time>
      </trkpt>
      <trkpt lat="45.70915" lon="4.59383">
        <ele>614.8</ele>
        <time>2022-06-26T14:05:23Z</time>
      </trkpt>
      <trkpt lat="45.70911" lon="4.59388">
        <ele>614.2</ele>
        <time>2022-06-26T14:05:24Z</time>
      </trkpt>
      <trkpt lat="45.70906" lon="4.59394">
        <ele>613.6</ele>
        <time>2022-06-26T14:05:25Z</time>
      </trkpt>
      <trkpt lat="45.70902" lon="4.59403">
        <ele>612.8</ele>
        <time>2022-06-26T14:05:26Z</time>
      </trkpt>
      <trkpt lat="45.70897" lon="4.59413">
        <ele>612</ele>
        <time>2022-06-26T14:05:27Z</time>
      </trkpt>
      <trkpt lat="45.70892" lon="4.59424">
        <ele>611.2</ele>
        <time>2022-06-26T14:05:28Z</time>
      </trkpt>
      <trkpt lat="45.70886" lon="4.59436">
        <ele>610.2</ele>
        <time>2022-06-26T14:05:29Z</time>
      </trkpt>
      <trkpt lat="45.7088" lon="4.59448">
        <ele>609.2</ele>
        <time>2022-06-26T14:05:30Z</time>
      </trkpt>
      <trkpt lat="45.70874" lon="4.59459">
        <ele>608.6</ele>
        <time>2022-06-26T14:05:31Z</time>
      </trkpt>
      <trkpt lat="45.7087" lon="4.59472">
        <ele>607.4</ele>
        <time>2022-06-26T14:05:32Z</time>
      </trkpt>
      <trkpt lat="45.70866" lon="4.59484">
        <ele>606.6</ele>
        <time>2022-06-26T14:05:33Z</time>
      </trkpt>
      <trkpt lat="45.70861" lon="4.59497">
        <ele>605.8</ele>
        <time>2022-06-26T14:05:34Z</time>
      </trkpt>
      <trkpt lat="45.70857" lon="4.59509">
        <ele>605</ele>
        <time>2022-06-26T14:05:35Z</time>
      </trkpt>
      <trkpt lat="45.70854" lon="4.5952">
        <ele>604.4</ele>
        <time>2022-06-26T14:05:36Z</time>
      </trkpt>
      <trkpt lat="45.7085" lon="4.59531">
        <ele>603.6</ele>
        <time>2022-06-26T14:05:37Z</time>
      </trkpt>
      <trkpt lat="45.70848" lon="4.5954">
        <ele>602.8</ele>
        <time>2022-06-26T14:05:38Z</time>
      </trkpt>
      <trkpt lat="45.70847" lon="4.59549">
        <ele>602.2</ele>
        <time>2022-06-26T14:05:39Z</time>
      </trkpt>
      <trkpt lat="45.70848" lon="4.59558">
        <ele>601.4</ele>
        <time>2022-06-26T14:05:40Z</time>
      </trkpt>
      <trkpt lat="45.7085" lon="4.59567">
        <ele>600.8</ele>
        <time>2022-06-26T14:05:41Z</time>
      </trkpt>
      <trkpt lat="45.70852" lon="4.59577">
        <ele>600</ele>
        <time>2022-06-26T14:05:42Z</time>
      </trkpt>
      <trkpt lat="45.70854" lon="4.59586">
        <ele>599.4</ele>
        <time>2022-06-26T14:05:43Z</time>
      </trkpt>
      <trkpt lat="45.70857" lon="4.59594">
        <ele>598.8</ele>
        <time>2022-06-26T14:05:44Z</time>
      </trkpt>
      <trkpt lat="45.7086" lon="4.59602">
        <ele>598</ele>
        <time>2022-06-26T14:05:45Z</time>
      </trkpt>
      <trkpt lat="45.70863" lon="4.59609">
        <ele>597.2</ele>
        <time>2022-06-26T14:05:46Z</time>
      </trkpt>
      <trkpt lat="45.70867" lon="4.59616">
        <ele>596.4</ele>
        <time>2022-06-26T14:05:47Z</time>
      </trkpt>
      <trkpt lat="45.70871" lon="4.59624">
        <ele>595.4</ele>
        <time>2022-06-26T14:05:48Z</time>
      </trkpt>
      <trkpt lat="45.70876" lon="4.59631">
        <ele>594.4</ele>
        <time>2022-06-26T14:05:49Z</time>
      </trkpt>
      <trkpt lat="45.7088" lon="4.59639">
        <ele>593.2</ele>
        <time>2022-06-26T14:05:50Z</time>
      </trkpt>
      <trkpt lat="45.70885" lon="4.59646">
        <ele>592</ele>
        <time>2022-06-26T14:05:51Z</time>
      </trkpt>
      <trkpt lat="45.70889" lon="4.59654">
        <ele>591</ele>
        <time>2022-06-26T14:05:52Z</time>
      </trkpt>
      <trkpt lat="45.70892" lon="4.59663">
        <ele>589.8</ele>
        <time>2022-06-26T14:05:53Z</time>
      </trkpt>
      <trkpt lat="45.70894" lon="4.59672">
        <ele>588.6</ele>
        <time>2022-06-26T14:05:54Z</time>
      </trkpt>
      <trkpt lat="45.70896" lon="4.5968">
        <ele>587.6</ele>
        <time>2022-06-26T14:05:55Z</time>
      </trkpt>
      <trkpt lat="45.70899" lon="4.59688">
        <ele>586.4</ele>
        <time>2022-06-26T14:05:56Z</time>
      </trkpt>
      <trkpt lat="45.70902" lon="4.59695">
        <ele>585.2</ele>
        <time>2022-06-26T14:05:57Z</time>
      </trkpt>
      <trkpt lat="45.70906" lon="4.59703">
        <ele>583.8</ele>
        <time>2022-06-26T14:05:58Z</time>
      </trkpt>
      <trkpt lat="45.7091" lon="4.59711">
        <ele>582.6</ele>
        <time>2022-06-26T14:05:59Z</time>
      </trkpt>
      <trkpt lat="45.70915" lon="4.59719">
        <ele>581.4</ele>
        <time>2022-06-26T14:06:00Z</time>
      </trkpt>
      <trkpt lat="45.70919" lon="4.59726">
        <ele>580.2</ele>
        <time>2022-06-26T14:06:01Z</time>
      </trkpt>
      <trkpt lat="45.70924" lon="4.59733">
        <ele>579</ele>
        <time>2022-06-26T14:06:02Z</time>
      </trkpt>
      <trkpt lat="45.70928" lon="4.5974">
        <ele>577.6</ele>
        <time>2022-06-26T14:06:03Z</time>
      </trkpt>
      <trkpt lat="45.70933" lon="4.59747">
        <ele>576.4</ele>
        <time>2022-06-26T14:06:04Z</time>
      </trkpt>
      <trkpt lat="45.70937" lon="4.59754">
        <ele>575.2</ele>
        <time>2022-06-26T14:06:05Z</time>
      </trkpt>
      <trkpt lat="45.7094" lon="4.59761">
        <ele>574.2</ele>
        <time>2022-06-26T14:06:06Z</time>
      </trkpt>
      <trkpt lat="45.70944" lon="4.59767">
        <ele>573</ele>
        <time>2022-06-26T14:06:07Z</time>
      </trkpt>
      <trkpt lat="45.70947" lon="4.59774">
        <ele>572.2</ele>
        <time>2022-06-26T14:06:08Z</time>
      </trkpt>
      <trkpt lat="45.7095" lon="4.59781">
        <ele>571.2</ele>
        <time>2022-06-26T14:06:09Z</time>
      </trkpt>
      <trkpt lat="45.70953" lon="4.59788">
        <ele>570.4</ele>
        <time>2022-06-26T14:06:10Z</time>
      </trkpt>
      <trkpt lat="45.70955" lon="4.59796">
        <ele>569.6</ele>
        <time>2022-06-26T14:06:11Z</time>
      </trkpt>
      <trkpt lat="45.70957" lon="4.59804">
        <ele>568.6</ele>
        <time>2022-06-26T14:06:12Z</time>
      </trkpt>
      <trkpt lat="45.70958" lon="4.59812">
        <ele>567.8</ele>
        <time>2022-06-26T14:06:13Z</time>
      </trkpt>
      <trkpt lat="45.70959" lon="4.59821">
        <ele>567.2</ele>
        <time>2022-06-26T14:06:14Z</time>
      </trkpt>
      <trkpt lat="45.70959" lon="4.59832">
        <ele>566.4</ele>
        <time>2022-06-26T14:06:15Z</time>
      </trkpt>
      <trkpt lat="45.70959" lon="4.59841">
        <ele>565.6</ele>
        <time>2022-06-26T14:06:16Z</time>
      </trkpt>
      <trkpt lat="45.7096" lon="4.5985">
        <ele>565</ele>
        <time>2022-06-26T14:06:17Z</time>
      </trkpt>
      <trkpt lat="45.70961" lon="4.59858">
        <ele>564.4</ele>
        <time>2022-06-26T14:06:18Z</time>
      </trkpt>
      <trkpt lat="45.70964" lon="4.59866">
        <ele>563.8</ele>
        <time>2022-06-26T14:06:19Z</time>
      </trkpt>
      <trkpt lat="45.70969" lon="4.59874">
        <ele>563.4</ele>
        <time>2022-06-26T14:06:20Z</time>
      </trkpt>
      <trkpt lat="45.70973" lon="4.59881">
        <ele>562.8</ele>
        <time>2022-06-26T14:06:21Z</time>
      </trkpt>
      <trkpt lat="45.70978" lon="4.59887">
        <ele>562.2</ele>
        <time>2022-06-26T14:06:22Z</time>
      </trkpt>
      <trkpt lat="45.70983" lon="4.59892">
        <ele>561.6</ele>
        <time>2022-06-26T14:06:23Z</time>
      </trkpt>
      <trkpt lat="45.70989" lon="4.59897">
        <ele>561.2</ele>
        <time>2022-06-26T14:06:24Z</time>
      </trkpt>
      <trkpt lat="45.70995" lon="4.59901">
        <ele>560.6</ele>
        <time>2022-06-26T14:06:25Z</time>
      </trkpt>
      <trkpt lat="45.71" lon="4.59906">
        <ele>560.2</ele>
        <time>2022-06-26T14:06:26Z</time>
      </trkpt>
      <trkpt lat="45.71006" lon="4.59911">
        <ele>559.6</ele>
        <time>2022-06-26T14:06:27Z</time>
      </trkpt>
      <trkpt lat="45.71011" lon="4.59916">
        <ele>559</ele>
        <time>2022-06-26T14:06:28Z</time>
      </trkpt>
      <trkpt lat="45.71015" lon="4.59921">
        <ele>558.4</ele>
        <time>2022-06-26T14:06:29Z</time>
      </trkpt>
      <trkpt lat="45.71019" lon="4.59926">
        <ele>558</ele>
        <time>2022-06-26T14:06:30Z</time>
      </trkpt>
      <trkpt lat="45.71022" lon="4.59931">
        <ele>557.2</ele>
        <time>2022-06-26T14:06:31Z</time>
      </trkpt>
      <trkpt lat="45.71026" lon="4.59935">
        <ele>557.2</ele>
        <time>2022-06-26T14:06:32Z</time>
      </trkpt>
      <trkpt lat="45.71029" lon="4.5994">
        <ele>556.6</ele>
        <time>2022-06-26T14:06:33Z</time>
      </trkpt>
      <trkpt lat="45.71034" lon="4.59945">
        <ele>555.8</ele>
        <time>2022-06-26T14:06:34Z</time>
      </trkpt>
      <trkpt lat="45.71038" lon="4.59949">
        <ele>555.2</ele>
        <time>2022-06-26T14:06:35Z</time>
      </trkpt>
      <trkpt lat="45.71041" lon="4.59955">
        <ele>554.4</ele>
        <time>2022-06-26T14:06:36Z</time>
      </trkpt>
      <trkpt lat="45.71044" lon="4.5996">
        <ele>553.8</ele>
        <time>2022-06-26T14:06:37Z</time>
      </trkpt>
      <trkpt lat="45.71048" lon="4.59965">
        <ele>553.2</ele>
        <time>2022-06-26T14:06:38Z</time>
      </trkpt>
      <trkpt lat="45.71052" lon="4.59971">
        <ele>552.8</ele>
        <time>2022-06-26T14:06:39Z</time>
      </trkpt>
      <trkpt lat="45.71055" lon="4.59976">
        <ele>552</ele>
        <time>2022-06-26T14:06:40Z</time>
      </trkpt>
      <trkpt lat="45.71058" lon="4.5998">
        <ele>551.6</ele>
        <time>2022-06-26T14:06:41Z</time>
      </trkpt>
      <trkpt lat="45.71066" lon="4.59989">
        <ele>551</ele>
        <time>2022-06-26T14:06:42Z</time>
      </trkpt>
      <trkpt lat="45.71072" lon="4.59993">
        <ele>550.2</ele>
        <time>2022-06-26T14:06:43Z</time>
      </trkpt>
      <trkpt lat="45.71079" lon="4.59997">
        <ele>549.4</ele>
        <time>2022-06-26T14:06:44Z</time>
      </trkpt>
      <trkpt lat="45.71084" lon="4.60001">
        <ele>548.6</ele>
        <time>2022-06-26T14:06:45Z</time>
      </trkpt>
      <trkpt lat="45.71089" lon="4.60005">
        <ele>547.8</ele>
        <time>2022-06-26T14:06:46Z</time>
      </trkpt>
      <trkpt lat="45.71097" lon="4.60011">
        <ele>547</ele>
        <time>2022-06-26T14:06:47Z</time>
      </trkpt>
      <trkpt lat="45.71102" lon="4.60019">
        <ele>546</ele>
        <time>2022-06-26T14:06:48Z</time>
      </trkpt>
      <trkpt lat="45.71108" lon="4.60026">
        <ele>545.2</ele>
        <time>2022-06-26T14:06:49Z</time>
      </trkpt>
      <trkpt lat="45.71114" lon="4.60034">
        <ele>544.4</ele>
        <time>2022-06-26T14:06:50Z</time>
      </trkpt>
      <trkpt lat="45.7112" lon="4.60041">
        <ele>543.6</ele>
        <time>2022-06-26T14:06:51Z</time>
      </trkpt>
      <trkpt lat="45.71126" lon="4.60048">
        <ele>542.8</ele>
        <time>2022-06-26T14:06:52Z</time>
      </trkpt>
      <trkpt lat="45.71131" lon="4.60054">
        <ele>542</ele>
        <time>2022-06-26T14:06:53Z</time>
      </trkpt>
      <trkpt lat="45.71136" lon="4.6006">
        <ele>541.4</ele>
        <time>2022-06-26T14:06:54Z</time>
      </trkpt>
      <trkpt lat="45.71141" lon="4.60066">
        <ele>540.8</ele>
        <time>2022-06-26T14:06:55Z</time>
      </trkpt>
      <trkpt lat="45.71146" lon="4.60071">
        <ele>540.2</ele>
        <time>2022-06-26T14:06:56Z</time>
      </trkpt>
      <trkpt lat="45.71151" lon="4.60077">
        <ele>539.6</ele>
        <time>2022-06-26T14:06:57Z</time>
      </trkpt>
      <trkpt lat="45.71157" lon="4.60084">
        <ele>539</ele>
        <time>2022-06-26T14:06:58Z</time>
      </trkpt>
      <trkpt lat="45.71164" lon="4.60091">
        <ele>538.4</ele>
        <time>2022-06-26T14:06:59Z</time>
      </trkpt>
      <trkpt lat="45.7117" lon="4.60098">
        <ele>537.6</ele>
        <time>2022-06-26T14:07:00Z</time>
      </trkpt>
      <trkpt lat="45.71175" lon="4.60105">
        <ele>536.4</ele>
        <time>2022-06-26T14:07:02Z</time>
      </trkpt>
      <trkpt lat="45.7118" lon="4.60113">
        <ele>535.8</ele>
        <time>2022-06-26T14:07:03Z</time>
      </trkpt>
      <trkpt lat="45.71184" lon="4.6012">
        <ele>535.2</ele>
        <time>2022-06-26T14:07:04Z</time>
      </trkpt>
      <trkpt lat="45.71188" lon="4.60127">
        <ele>534.6</ele>
        <time>2022-06-26T14:07:05Z</time>
      </trkpt>
      <trkpt lat="45.71192" lon="4.60134">
        <ele>534</ele>
        <time>2022-06-26T14:07:06Z</time>
      </trkpt>
      <trkpt lat="45.71195" lon="4.60141">
        <ele>533.4</ele>
        <time>2022-06-26T14:07:07Z</time>
      </trkpt>
      <trkpt lat="45.71198" lon="4.60147">
        <ele>533</ele>
        <time>2022-06-26T14:07:08Z</time>
      </trkpt>
      <trkpt lat="45.712" lon="4.60153">
        <ele>532.4</ele>
        <time>2022-06-26T14:07:09Z</time>
      </trkpt>
      <trkpt lat="45.71203" lon="4.6016">
        <ele>531.8</ele>
        <time>2022-06-26T14:07:10Z</time>
      </trkpt>
      <trkpt lat="45.71206" lon="4.60165">
        <ele>531.2</ele>
        <time>2022-06-26T14:07:11Z</time>
      </trkpt>
      <trkpt lat="45.71208" lon="4.60172">
        <ele>530.6</ele>
        <time>2022-06-26T14:07:12Z</time>
      </trkpt>
      <trkpt lat="45.71211" lon="4.60179">
        <ele>530</ele>
        <time>2022-06-26T14:07:13Z</time>
      </trkpt>
      <trkpt lat="45.71213" lon="4.60187">
        <ele>529.2</ele>
        <time>2022-06-26T14:07:14Z</time>
      </trkpt>
      <trkpt lat="45.71214" lon="4.60195">
        <ele>528.4</ele>
        <time>2022-06-26T14:07:15Z</time>
      </trkpt>
      <trkpt lat="45.71217" lon="4.60204">
        <ele>527.6</ele>
        <time>2022-06-26T14:07:16Z</time>
      </trkpt>
      <trkpt lat="45.71219" lon="4.60213">
        <ele>526.6</ele>
        <time>2022-06-26T14:07:17Z</time>
      </trkpt>
      <trkpt lat="45.71222" lon="4.60223">
        <ele>525.6</ele>
        <time>2022-06-26T14:07:18Z</time>
      </trkpt>
      <trkpt lat="45.71223" lon="4.60233">
        <ele>524.8</ele>
        <time>2022-06-26T14:07:19Z</time>
      </trkpt>
      <trkpt lat="45.71225" lon="4.60242">
        <ele>523.8</ele>
        <time>2022-06-26T14:07:20Z</time>
      </trkpt>
      <trkpt lat="45.71227" lon="4.60251">
        <ele>522.8</ele>
        <time>2022-06-26T14:07:21Z</time>
      </trkpt>
      <trkpt lat="45.71229" lon="4.6026">
        <ele>521.8</ele>
        <time>2022-06-26T14:07:22Z</time>
      </trkpt>
      <trkpt lat="45.7123" lon="4.60269">
        <ele>520.8</ele>
        <time>2022-06-26T14:07:23Z</time>
      </trkpt>
      <trkpt lat="45.71232" lon="4.60278">
        <ele>520</ele>
        <time>2022-06-26T14:07:24Z</time>
      </trkpt>
      <trkpt lat="45.71234" lon="4.60287">
        <ele>519</ele>
        <time>2022-06-26T14:07:25Z</time>
      </trkpt>
      <trkpt lat="45.71238" lon="4.60296">
        <ele>518.4</ele>
        <time>2022-06-26T14:07:26Z</time>
      </trkpt>
      <trkpt lat="45.71241" lon="4.60305">
        <ele>517.6</ele>
        <time>2022-06-26T14:07:27Z</time>
      </trkpt>
      <trkpt lat="45.71244" lon="4.60315">
        <ele>517</ele>
        <time>2022-06-26T14:07:28Z</time>
      </trkpt>
      <trkpt lat="45.71247" lon="4.60325">
        <ele>516.2</ele>
        <time>2022-06-26T14:07:29Z</time>
      </trkpt>
      <trkpt lat="45.71251" lon="4.60336">
        <ele>515.4</ele>
        <time>2022-06-26T14:07:30Z</time>
      </trkpt>
      <trkpt lat="45.71254" lon="4.60347">
        <ele>514.8</ele>
        <time>2022-06-26T14:07:31Z</time>
      </trkpt>
      <trkpt lat="45.71257" lon="4.60358">
        <ele>514</ele>
        <time>2022-06-26T14:07:32Z</time>
      </trkpt>
      <trkpt lat="45.71261" lon="4.60368">
        <ele>513.4</ele>
        <time>2022-06-26T14:07:33Z</time>
      </trkpt>
      <trkpt lat="45.71265" lon="4.60379">
        <ele>512.8</ele>
        <time>2022-06-26T14:07:34Z</time>
      </trkpt>
      <trkpt lat="45.71267" lon="4.60388">
        <ele>512</ele>
        <time>2022-06-26T14:07:35Z</time>
      </trkpt>
      <trkpt lat="45.71269" lon="4.60398">
        <ele>511.2</ele>
        <time>2022-06-26T14:07:36Z</time>
      </trkpt>
      <trkpt lat="45.71272" lon="4.60408">
        <ele>510.4</ele>
        <time>2022-06-26T14:07:37Z</time>
      </trkpt>
      <trkpt lat="45.71274" lon="4.60418">
        <ele>509.6</ele>
        <time>2022-06-26T14:07:38Z</time>
      </trkpt>
      <trkpt lat="45.71275" lon="4.60428">
        <ele>508.8</ele>
        <time>2022-06-26T14:07:39Z</time>
      </trkpt>
      <trkpt lat="45.71276" lon="4.60439">
        <ele>508</ele>
        <time>2022-06-26T14:07:40Z</time>
      </trkpt>
      <trkpt lat="45.71277" lon="4.6045">
        <ele>507.2</ele>
        <time>2022-06-26T14:07:41Z</time>
      </trkpt>
      <trkpt lat="45.71278" lon="4.60463">
        <ele>506.4</ele>
        <time>2022-06-26T14:07:42Z</time>
      </trkpt>
      <trkpt lat="45.71278" lon="4.60475">
        <ele>505.6</ele>
        <time>2022-06-26T14:07:43Z</time>
      </trkpt>
      <trkpt lat="45.71277" lon="4.60488">
        <ele>504.8</ele>
        <time>2022-06-26T14:07:44Z</time>
      </trkpt>
      <trkpt lat="45.71277" lon="4.60501">
        <ele>504</ele>
        <time>2022-06-26T14:07:45Z</time>
      </trkpt>
      <trkpt lat="45.71276" lon="4.60514">
        <ele>503.4</ele>
        <time>2022-06-26T14:07:46Z</time>
      </trkpt>
      <trkpt lat="45.71276" lon="4.60526">
        <ele>502.6</ele>
        <time>2022-06-26T14:07:47Z</time>
      </trkpt>
      <trkpt lat="45.71276" lon="4.60538">
        <ele>502</ele>
        <time>2022-06-26T14:07:48Z</time>
      </trkpt>
      <trkpt lat="45.71276" lon="4.6055">
        <ele>501.4</ele>
        <time>2022-06-26T14:07:49Z</time>
      </trkpt>
      <trkpt lat="45.71275" lon="4.60562">
        <ele>500.8</ele>
        <time>2022-06-26T14:07:50Z</time>
      </trkpt>
      <trkpt lat="45.71274" lon="4.60575">
        <ele>500.4</ele>
        <time>2022-06-26T14:07:51Z</time>
      </trkpt>
      <trkpt lat="45.71274" lon="4.60587">
        <ele>499.8</ele>
        <time>2022-06-26T14:07:52Z</time>
      </trkpt>
      <trkpt lat="45.71273" lon="4.60599">
        <ele>499.4</ele>
        <time>2022-06-26T14:07:53Z</time>
      </trkpt>
      <trkpt lat="45.71272" lon="4.60611">
        <ele>498.8</ele>
        <time>2022-06-26T14:07:54Z</time>
      </trkpt>
      <trkpt lat="45.71272" lon="4.60623">
        <ele>498.4</ele>
        <time>2022-06-26T14:07:55Z</time>
      </trkpt>
      <trkpt lat="45.71272" lon="4.60636">
        <ele>497.8</ele>
        <time>2022-06-26T14:07:56Z</time>
      </trkpt>
      <trkpt lat="45.71271" lon="4.60648">
        <ele>497.4</ele>
        <time>2022-06-26T14:07:57Z</time>
      </trkpt>
      <trkpt lat="45.7127" lon="4.6066">
        <ele>497</ele>
        <time>2022-06-26T14:07:58Z</time>
      </trkpt>
      <trkpt lat="45.71268" lon="4.60673">
        <ele>496.6</ele>
        <time>2022-06-26T14:07:59Z</time>
      </trkpt>
      <trkpt lat="45.71267" lon="4.60685">
        <ele>496.2</ele>
        <time>2022-06-26T14:08:00Z</time>
      </trkpt>
      <trkpt lat="45.71267" lon="4.60697">
        <ele>495.8</ele>
        <time>2022-06-26T14:08:01Z</time>
      </trkpt>
      <trkpt lat="45.71266" lon="4.60709">
        <ele>495.6</ele>
        <time>2022-06-26T14:08:02Z</time>
      </trkpt>
      <trkpt lat="45.71266" lon="4.60721">
        <ele>495.2</ele>
        <time>2022-06-26T14:08:03Z</time>
      </trkpt>
      <trkpt lat="45.71266" lon="4.60733">
        <ele>494.8</ele>
        <time>2022-06-26T14:08:04Z</time>
      </trkpt>
      <trkpt lat="45.71266" lon="4.60745">
        <ele>494.4</ele>
        <time>2022-06-26T14:08:05Z</time>
      </trkpt>
      <trkpt lat="45.71266" lon="4.60757">
        <ele>493.8</ele>
        <time>2022-06-26T14:08:06Z</time>
      </trkpt>
      <trkpt lat="45.71266" lon="4.6077">
        <ele>493.2</ele>
        <time>2022-06-26T14:08:07Z</time>
      </trkpt>
      <trkpt lat="45.71266" lon="4.60782">
        <ele>492.6</ele>
        <time>2022-06-26T14:08:08Z</time>
      </trkpt>
      <trkpt lat="45.71266" lon="4.60794">
        <ele>492</ele>
        <time>2022-06-26T14:08:09Z</time>
      </trkpt>
      <trkpt lat="45.71267" lon="4.60806">
        <ele>491.2</ele>
        <time>2022-06-26T14:08:10Z</time>
      </trkpt>
      <trkpt lat="45.71267" lon="4.60818">
        <ele>490.6</ele>
        <time>2022-06-26T14:08:11Z</time>
      </trkpt>
      <trkpt lat="45.71267" lon="4.6083">
        <ele>490</ele>
        <time>2022-06-26T14:08:12Z</time>
      </trkpt>
      <trkpt lat="45.71267" lon="4.60841">
        <ele>489.4</ele>
        <time>2022-06-26T14:08:13Z</time>
      </trkpt>
      <trkpt lat="45.71267" lon="4.60852">
        <ele>488.6</ele>
        <time>2022-06-26T14:08:14Z</time>
      </trkpt>
      <trkpt lat="45.71267" lon="4.60862">
        <ele>488</ele>
        <time>2022-06-26T14:08:15Z</time>
      </trkpt>
      <trkpt lat="45.71267" lon="4.60872">
        <ele>487.4</ele>
        <time>2022-06-26T14:08:16Z</time>
      </trkpt>
      <trkpt lat="45.71266" lon="4.60882">
        <ele>486.8</ele>
        <time>2022-06-26T14:08:17Z</time>
      </trkpt>
      <trkpt lat="45.71267" lon="4.6089">
        <ele>486</ele>
        <time>2022-06-26T14:08:18Z</time>
      </trkpt>
      <trkpt lat="45.71267" lon="4.60899">
        <ele>485.6</ele>
        <time>2022-06-26T14:08:19Z</time>
      </trkpt>
      <trkpt lat="45.71269" lon="4.60907">
        <ele>485</ele>
        <time>2022-06-26T14:08:20Z</time>
      </trkpt>
      <trkpt lat="45.7127" lon="4.60915">
        <ele>484.6</ele>
        <time>2022-06-26T14:08:21Z</time>
      </trkpt>
      <trkpt lat="45.71271" lon="4.60925">
        <ele>483.8</ele>
        <time>2022-06-26T14:08:22Z</time>
      </trkpt>
      <trkpt lat="45.71272" lon="4.60936">
        <ele>483</ele>
        <time>2022-06-26T14:08:23Z</time>
      </trkpt>
      <trkpt lat="45.71272" lon="4.60948">
        <ele>482.2</ele>
        <time>2022-06-26T14:08:24Z</time>
      </trkpt>
      <trkpt lat="45.71273" lon="4.6096">
        <ele>481.2</ele>
        <time>2022-06-26T14:08:25Z</time>
      </trkpt>
      <trkpt lat="45.71273" lon="4.60972">
        <ele>480.2</ele>
        <time>2022-06-26T14:08:26Z</time>
      </trkpt>
      <trkpt lat="45.71273" lon="4.60986">
        <ele>479.2</ele>
        <time>2022-06-26T14:08:27Z</time>
      </trkpt>
      <trkpt lat="45.71273" lon="4.61">
        <ele>478.2</ele>
        <time>2022-06-26T14:08:28Z</time>
      </trkpt>
      <trkpt lat="45.71274" lon="4.61014">
        <ele>477</ele>
        <time>2022-06-26T14:08:29Z</time>
      </trkpt>
      <trkpt lat="45.71274" lon="4.61027">
        <ele>475.8</ele>
        <time>2022-06-26T14:08:30Z</time>
      </trkpt>
      <trkpt lat="45.71275" lon="4.61042">
        <ele>474.8</ele>
        <time>2022-06-26T14:08:31Z</time>
      </trkpt>
      <trkpt lat="45.71275" lon="4.61055">
        <ele>473.6</ele>
        <time>2022-06-26T14:08:32Z</time>
      </trkpt>
      <trkpt lat="45.71276" lon="4.61068">
        <ele>472.6</ele>
        <time>2022-06-26T14:08:33Z</time>
      </trkpt>
      <trkpt lat="45.71276" lon="4.61081">
        <ele>471.4</ele>
        <time>2022-06-26T14:08:34Z</time>
      </trkpt>
      <trkpt lat="45.71275" lon="4.61094">
        <ele>470.2</ele>
        <time>2022-06-26T14:08:35Z</time>
      </trkpt>
      <trkpt lat="45.71275" lon="4.61108">
        <ele>469.2</ele>
        <time>2022-06-26T14:08:36Z</time>
      </trkpt>
      <trkpt lat="45.71274" lon="4.61121">
        <ele>468.2</ele>
        <time>2022-06-26T14:08:37Z</time>
      </trkpt>
      <trkpt lat="45.71273" lon="4.61134">
        <ele>467.2</ele>
        <time>2022-06-26T14:08:38Z</time>
      </trkpt>
      <trkpt lat="45.71272" lon="4.61146">
        <ele>466.4</ele>
        <time>2022-06-26T14:08:39Z</time>
      </trkpt>
      <trkpt lat="45.71271" lon="4.61158">
        <ele>465.6</ele>
        <time>2022-06-26T14:08:40Z</time>
      </trkpt>
      <trkpt lat="45.7127" lon="4.61169">
        <ele>464.8</ele>
        <time>2022-06-26T14:08:41Z</time>
      </trkpt>
      <trkpt lat="45.7127" lon="4.6118">
        <ele>464.2</ele>
        <time>2022-06-26T14:08:42Z</time>
      </trkpt>
      <trkpt lat="45.7127" lon="4.6119">
        <ele>463.6</ele>
        <time>2022-06-26T14:08:43Z</time>
      </trkpt>
      <trkpt lat="45.7127" lon="4.61199">
        <ele>463</ele>
        <time>2022-06-26T14:08:44Z</time>
      </trkpt>
      <trkpt lat="45.71271" lon="4.61208">
        <ele>462.2</ele>
        <time>2022-06-26T14:08:45Z</time>
      </trkpt>
      <trkpt lat="45.71272" lon="4.61217">
        <ele>461.6</ele>
        <time>2022-06-26T14:08:46Z</time>
      </trkpt>
      <trkpt lat="45.71272" lon="4.61226">
        <ele>460.8</ele>
        <time>2022-06-26T14:08:47Z</time>
      </trkpt>
      <trkpt lat="45.71271" lon="4.61235">
        <ele>460</ele>
        <time>2022-06-26T14:08:48Z</time>
      </trkpt>
      <trkpt lat="45.71269" lon="4.61246">
        <ele>459</ele>
        <time>2022-06-26T14:08:49Z</time>
      </trkpt>
      <trkpt lat="45.71267" lon="4.61257">
        <ele>458.2</ele>
        <time>2022-06-26T14:08:50Z</time>
      </trkpt>
      <trkpt lat="45.71263" lon="4.61268">
        <ele>457.6</ele>
        <time>2022-06-26T14:08:51Z</time>
      </trkpt>
      <trkpt lat="45.7126" lon="4.61278">
        <ele>457</ele>
        <time>2022-06-26T14:08:52Z</time>
      </trkpt>
      <trkpt lat="45.71257" lon="4.61289">
        <ele>456.4</ele>
        <time>2022-06-26T14:08:53Z</time>
      </trkpt>
      <trkpt lat="45.71254" lon="4.613">
        <ele>456</ele>
        <time>2022-06-26T14:08:54Z</time>
      </trkpt>
      <trkpt lat="45.71252" lon="4.61312">
        <ele>455.8</ele>
        <time>2022-06-26T14:08:55Z</time>
      </trkpt>
      <trkpt lat="45.71249" lon="4.61323">
        <ele>455.4</ele>
        <time>2022-06-26T14:08:56Z</time>
      </trkpt>
      <trkpt lat="45.71246" lon="4.61334">
        <ele>455.2</ele>
        <time>2022-06-26T14:08:57Z</time>
      </trkpt>
      <trkpt lat="45.71244" lon="4.61345">
        <ele>455.2</ele>
        <time>2022-06-26T14:08:58Z</time>
      </trkpt>
      <trkpt lat="45.71242" lon="4.61357">
        <ele>454.8</ele>
        <time>2022-06-26T14:08:59Z</time>
      </trkpt>
      <trkpt lat="45.71241" lon="4.61368">
        <ele>454.8</ele>
        <time>2022-06-26T14:09:00Z</time>
      </trkpt>
      <trkpt lat="45.7124" lon="4.6138">
        <ele>454.6</ele>
        <time>2022-06-26T14:09:01Z</time>
      </trkpt>
      <trkpt lat="45.71239" lon="4.61392">
        <ele>454.6</ele>
        <time>2022-06-26T14:09:02Z</time>
      </trkpt>
      <trkpt lat="45.71238" lon="4.61403">
        <ele>454.4</ele>
        <time>2022-06-26T14:09:03Z</time>
      </trkpt>
      <trkpt lat="45.71237" lon="4.61415">
        <ele>454.4</ele>
        <time>2022-06-26T14:09:04Z</time>
      </trkpt>
      <trkpt lat="45.71236" lon="4.61426">
        <ele>454</ele>
        <time>2022-06-26T14:09:05Z</time>
      </trkpt>
      <trkpt lat="45.71235" lon="4.61438">
        <ele>454</ele>
        <time>2022-06-26T14:09:06Z</time>
      </trkpt>
      <trkpt lat="45.71234" lon="4.6145">
        <ele>454</ele>
        <time>2022-06-26T14:09:07Z</time>
      </trkpt>
      <trkpt lat="45.71233" lon="4.61462">
        <ele>453.8</ele>
        <time>2022-06-26T14:09:08Z</time>
      </trkpt>
      <trkpt lat="45.71231" lon="4.61474">
        <ele>453.8</ele>
        <time>2022-06-26T14:09:09Z</time>
      </trkpt>
      <trkpt lat="45.7123" lon="4.61486">
        <ele>453.8</ele>
        <time>2022-06-26T14:09:10Z</time>
      </trkpt>
      <trkpt lat="45.71228" lon="4.61497">
        <ele>453.8</ele>
        <time>2022-06-26T14:09:11Z</time>
      </trkpt>
      <trkpt lat="45.71226" lon="4.61508">
        <ele>453.4</ele>
        <time>2022-06-26T14:09:12Z</time>
      </trkpt>
      <trkpt lat="45.71224" lon="4.61519">
        <ele>453.4</ele>
        <time>2022-06-26T14:09:13Z</time>
      </trkpt>
      <trkpt lat="45.71222" lon="4.6153">
        <ele>453.4</ele>
        <time>2022-06-26T14:09:14Z</time>
      </trkpt>
      <trkpt lat="45.7122" lon="4.6154">
        <ele>453.2</ele>
        <time>2022-06-26T14:09:15Z</time>
      </trkpt>
      <trkpt lat="45.71218" lon="4.61551">
        <ele>453.2</ele>
        <time>2022-06-26T14:09:16Z</time>
      </trkpt>
      <trkpt lat="45.71216" lon="4.61561">
        <ele>453.2</ele>
        <time>2022-06-26T14:09:17Z</time>
      </trkpt>
      <trkpt lat="45.71214" lon="4.61572">
        <ele>453.2</ele>
        <time>2022-06-26T14:09:18Z</time>
      </trkpt>
      <trkpt lat="45.71212" lon="4.61582">
        <ele>453</ele>
        <time>2022-06-26T14:09:19Z</time>
      </trkpt>
      <trkpt lat="45.71211" lon="4.61592">
        <ele>453</ele>
        <time>2022-06-26T14:09:20Z</time>
      </trkpt>
      <trkpt lat="45.71209" lon="4.61603">
        <ele>452.8</ele>
        <time>2022-06-26T14:09:21Z</time>
      </trkpt>
      <trkpt lat="45.71207" lon="4.61613">
        <ele>452.8</ele>
        <time>2022-06-26T14:09:22Z</time>
      </trkpt>
      <trkpt lat="45.71205" lon="4.61624">
        <ele>452.8</ele>
        <time>2022-06-26T14:09:23Z</time>
      </trkpt>
      <trkpt lat="45.71204" lon="4.61634">
        <ele>452.8</ele>
        <time>2022-06-26T14:09:24Z</time>
      </trkpt>
      <trkpt lat="45.71204" lon="4.61643">
        <ele>452.8</ele>
        <time>2022-06-26T14:09:25Z</time>
      </trkpt>
      <trkpt lat="45.71203" lon="4.61652">
        <ele>452.8</ele>
        <time>2022-06-26T14:09:26Z</time>
      </trkpt>
      <trkpt lat="45.71203" lon="4.61661">
        <ele>452.8</ele>
        <time>2022-06-26T14:09:27Z</time>
      </trkpt>
      <trkpt lat="45.71202" lon="4.6167">
        <ele>452.8</ele>
        <time>2022-06-26T14:09:28Z</time>
      </trkpt>
      <trkpt lat="45.71202" lon="4.61679">
        <ele>452.8</ele>
        <time>2022-06-26T14:09:29Z</time>
      </trkpt>
      <trkpt lat="45.71202" lon="4.61688">
        <ele>452.8</ele>
        <time>2022-06-26T14:09:30Z</time>
      </trkpt>
      <trkpt lat="45.71202" lon="4.61698">
        <ele>452.8</ele>
        <time>2022-06-26T14:09:31Z</time>
      </trkpt>
      <trkpt lat="45.71201" lon="4.61708">
        <ele>452.8</ele>
        <time>2022-06-26T14:09:32Z</time>
      </trkpt>
      <trkpt lat="45.71201" lon="4.61718">
        <ele>452.8</ele>
        <time>2022-06-26T14:09:33Z</time>
      </trkpt>
      <trkpt lat="45.712" lon="4.61729">
        <ele>452.8</ele>
        <time>2022-06-26T14:09:34Z</time>
      </trkpt>
      <trkpt lat="45.712" lon="4.61739">
        <ele>452.8</ele>
        <time>2022-06-26T14:09:35Z</time>
      </trkpt>
      <trkpt lat="45.712" lon="4.61749">
        <ele>452.8</ele>
        <time>2022-06-26T14:09:36Z</time>
      </trkpt>
      <trkpt lat="45.712" lon="4.6176">
        <ele>452.8</ele>
        <time>2022-06-26T14:09:37Z</time>
      </trkpt>
      <trkpt lat="45.712" lon="4.61769">
        <ele>452.8</ele>
        <time>2022-06-26T14:09:38Z</time>
      </trkpt>
      <trkpt lat="45.71201" lon="4.61779">
        <ele>452.8</ele>
        <time>2022-06-26T14:09:39Z</time>
      </trkpt>
      <trkpt lat="45.71202" lon="4.61789">
        <ele>452.8</ele>
        <time>2022-06-26T14:09:40Z</time>
      </trkpt>
      <trkpt lat="45.71203" lon="4.61798">
        <ele>452.8</ele>
        <time>2022-06-26T14:09:41Z</time>
      </trkpt>
      <trkpt lat="45.71204" lon="4.61807">
        <ele>452.8</ele>
        <time>2022-06-26T14:09:42Z</time>
      </trkpt>
      <trkpt lat="45.71205" lon="4.61816">
        <ele>452.8</ele>
        <time>2022-06-26T14:09:43Z</time>
      </trkpt>
      <trkpt lat="45.71207" lon="4.61825">
        <ele>452.4</ele>
        <time>2022-06-26T14:09:44Z</time>
      </trkpt>
      <trkpt lat="45.71209" lon="4.61834">
        <ele>452.2</ele>
        <time>2022-06-26T14:09:45Z</time>
      </trkpt>
      <trkpt lat="45.71211" lon="4.61844">
        <ele>452</ele>
        <time>2022-06-26T14:09:46Z</time>
      </trkpt>
      <trkpt lat="45.71213" lon="4.61854">
        <ele>451.6</ele>
        <time>2022-06-26T14:09:47Z</time>
      </trkpt>
      <trkpt lat="45.71215" lon="4.61865">
        <ele>451.4</ele>
        <time>2022-06-26T14:09:48Z</time>
      </trkpt>
      <trkpt lat="45.71216" lon="4.61876">
        <ele>451.2</ele>
        <time>2022-06-26T14:09:49Z</time>
      </trkpt>
      <trkpt lat="45.71217" lon="4.61887">
        <ele>450.8</ele>
        <time>2022-06-26T14:09:50Z</time>
      </trkpt>
      <trkpt lat="45.71218" lon="4.61898">
        <ele>450.6</ele>
        <time>2022-06-26T14:09:51Z</time>
      </trkpt>
      <trkpt lat="45.71218" lon="4.6191">
        <ele>450.2</ele>
        <time>2022-06-26T14:09:52Z</time>
      </trkpt>
      <trkpt lat="45.71217" lon="4.61921">
        <ele>450</ele>
        <time>2022-06-26T14:09:53Z</time>
      </trkpt>
      <trkpt lat="45.71217" lon="4.61932">
        <ele>449.8</ele>
        <time>2022-06-26T14:09:54Z</time>
      </trkpt>
      <trkpt lat="45.71216" lon="4.61943">
        <ele>449.6</ele>
        <time>2022-06-26T14:09:55Z</time>
      </trkpt>
      <trkpt lat="45.71216" lon="4.61954">
        <ele>449.2</ele>
        <time>2022-06-26T14:09:56Z</time>
      </trkpt>
      <trkpt lat="45.71216" lon="4.61965">
        <ele>448.8</ele>
        <time>2022-06-26T14:09:57Z</time>
      </trkpt>
      <trkpt lat="45.71215" lon="4.61977">
        <ele>448.6</ele>
        <time>2022-06-26T14:09:58Z</time>
      </trkpt>
      <trkpt lat="45.71214" lon="4.61988">
        <ele>448.2</ele>
        <time>2022-06-26T14:09:59Z</time>
      </trkpt>
      <trkpt lat="45.71213" lon="4.62">
        <ele>448</ele>
        <time>2022-06-26T14:10:00Z</time>
      </trkpt>
      <trkpt lat="45.71213" lon="4.62012">
        <ele>447.4</ele>
        <time>2022-06-26T14:10:01Z</time>
      </trkpt>
      <trkpt lat="45.71213" lon="4.62023">
        <ele>446.8</ele>
        <time>2022-06-26T14:10:02Z</time>
      </trkpt>
      <trkpt lat="45.71214" lon="4.62034">
        <ele>446.4</ele>
        <time>2022-06-26T14:10:03Z</time>
      </trkpt>
      <trkpt lat="45.71216" lon="4.62045">
        <ele>445.8</ele>
        <time>2022-06-26T14:10:04Z</time>
      </trkpt>
      <trkpt lat="45.71219" lon="4.62056">
        <ele>445.2</ele>
        <time>2022-06-26T14:10:05Z</time>
      </trkpt>
      <trkpt lat="45.71223" lon="4.62066">
        <ele>444.8</ele>
        <time>2022-06-26T14:10:06Z</time>
      </trkpt>
      <trkpt lat="45.71227" lon="4.62076">
        <ele>444.6</ele>
        <time>2022-06-26T14:10:07Z</time>
      </trkpt>
      <trkpt lat="45.71231" lon="4.62087">
        <ele>444.2</ele>
        <time>2022-06-26T14:10:08Z</time>
      </trkpt>
      <trkpt lat="45.71235" lon="4.62097">
        <ele>443.8</ele>
        <time>2022-06-26T14:10:09Z</time>
      </trkpt>
      <trkpt lat="45.71238" lon="4.62108">
        <ele>443.4</ele>
        <time>2022-06-26T14:10:10Z</time>
      </trkpt>
      <trkpt lat="45.71242" lon="4.62119">
        <ele>442.8</ele>
        <time>2022-06-26T14:10:11Z</time>
      </trkpt>
      <trkpt lat="45.71246" lon="4.62129">
        <ele>442.4</ele>
        <time>2022-06-26T14:10:12Z</time>
      </trkpt>
      <trkpt lat="45.71252" lon="4.62139">
        <ele>442</ele>
        <time>2022-06-26T14:10:13Z</time>
      </trkpt>
      <trkpt lat="45.71258" lon="4.62145">
        <ele>441.6</ele>
        <time>2022-06-26T14:10:14Z</time>
      </trkpt>
      <trkpt lat="45.71266" lon="4.6215">
        <ele>441</ele>
        <time>2022-06-26T14:10:15Z</time>
      </trkpt>
      <trkpt lat="45.71273" lon="4.62155">
        <ele>440.6</ele>
        <time>2022-06-26T14:10:16Z</time>
      </trkpt>
      <trkpt lat="45.7128" lon="4.62161">
        <ele>440</ele>
        <time>2022-06-26T14:10:17Z</time>
      </trkpt>
      <trkpt lat="45.71288" lon="4.62169">
        <ele>439.2</ele>
        <time>2022-06-26T14:10:18Z</time>
      </trkpt>
      <trkpt lat="45.71295" lon="4.62177">
        <ele>438.4</ele>
        <time>2022-06-26T14:10:19Z</time>
      </trkpt>
      <trkpt lat="45.71303" lon="4.62187">
        <ele>437.6</ele>
        <time>2022-06-26T14:10:20Z</time>
      </trkpt>
      <trkpt lat="45.7131" lon="4.62198">
        <ele>436.6</ele>
        <time>2022-06-26T14:10:21Z</time>
      </trkpt>
      <trkpt lat="45.71318" lon="4.6221">
        <ele>435.6</ele>
        <time>2022-06-26T14:10:22Z</time>
      </trkpt>
      <trkpt lat="45.71325" lon="4.62221">
        <ele>434.6</ele>
        <time>2022-06-26T14:10:23Z</time>
      </trkpt>
      <trkpt lat="45.71331" lon="4.62231">
        <ele>433.6</ele>
        <time>2022-06-26T14:10:24Z</time>
      </trkpt>
      <trkpt lat="45.71337" lon="4.62239">
        <ele>432.8</ele>
        <time>2022-06-26T14:10:25Z</time>
      </trkpt>
      <trkpt lat="45.71342" lon="4.62247">
        <ele>432.2</ele>
        <time>2022-06-26T14:10:26Z</time>
      </trkpt>
      <trkpt lat="45.71346" lon="4.62256">
        <ele>431.8</ele>
        <time>2022-06-26T14:10:27Z</time>
      </trkpt>
      <trkpt lat="45.71349" lon="4.62265">
        <ele>431.2</ele>
        <time>2022-06-26T14:10:28Z</time>
      </trkpt>
      <trkpt lat="45.71352" lon="4.62276">
        <ele>430.6</ele>
        <time>2022-06-26T14:10:29Z</time>
      </trkpt>
      <trkpt lat="45.71355" lon="4.62287">
        <ele>430.4</ele>
        <time>2022-06-26T14:10:30Z</time>
      </trkpt>
      <trkpt lat="45.71358" lon="4.62298">
        <ele>430</ele>
        <time>2022-06-26T14:10:31Z</time>
      </trkpt>
      <trkpt lat="45.71361" lon="4.62309">
        <ele>429.8</ele>
        <time>2022-06-26T14:10:32Z</time>
      </trkpt>
      <trkpt lat="45.71364" lon="4.6232">
        <ele>429.4</ele>
        <time>2022-06-26T14:10:33Z</time>
      </trkpt>
      <trkpt lat="45.71368" lon="4.62331">
        <ele>429.2</ele>
        <time>2022-06-26T14:10:34Z</time>
      </trkpt>
      <trkpt lat="45.71372" lon="4.62341">
        <ele>428.8</ele>
        <time>2022-06-26T14:10:35Z</time>
      </trkpt>
      <trkpt lat="45.71375" lon="4.62352">
        <ele>428.8</ele>
        <time>2022-06-26T14:10:36Z</time>
      </trkpt>
      <trkpt lat="45.71379" lon="4.62361">
        <ele>428.6</ele>
        <time>2022-06-26T14:10:37Z</time>
      </trkpt>
      <trkpt lat="45.71382" lon="4.62371">
        <ele>428.2</ele>
        <time>2022-06-26T14:10:38Z</time>
      </trkpt>
      <trkpt lat="45.71385" lon="4.62381">
        <ele>428.2</ele>
        <time>2022-06-26T14:10:39Z</time>
      </trkpt>
      <trkpt lat="45.71388" lon="4.62391">
        <ele>427.8</ele>
        <time>2022-06-26T14:10:40Z</time>
      </trkpt>
      <trkpt lat="45.71391" lon="4.62401">
        <ele>427.8</ele>
        <time>2022-06-26T14:10:41Z</time>
      </trkpt>
      <trkpt lat="45.71393" lon="4.62411">
        <ele>427.6</ele>
        <time>2022-06-26T14:10:42Z</time>
      </trkpt>
      <trkpt lat="45.71396" lon="4.62421">
        <ele>427.2</ele>
        <time>2022-06-26T14:10:43Z</time>
      </trkpt>
      <trkpt lat="45.71399" lon="4.6243">
        <ele>427</ele>
        <time>2022-06-26T14:10:44Z</time>
      </trkpt>
      <trkpt lat="45.71401" lon="4.62438">
        <ele>426.8</ele>
        <time>2022-06-26T14:10:45Z</time>
      </trkpt>
      <trkpt lat="45.71404" lon="4.62446">
        <ele>426.8</ele>
        <time>2022-06-26T14:10:46Z</time>
      </trkpt>
      <trkpt lat="45.71408" lon="4.62453">
        <ele>426.4</ele>
        <time>2022-06-26T14:10:47Z</time>
      </trkpt>
      <trkpt lat="45.71411" lon="4.62461">
        <ele>426</ele>
        <time>2022-06-26T14:10:48Z</time>
      </trkpt>
      <trkpt lat="45.71415" lon="4.6247">
        <ele>425.4</ele>
        <time>2022-06-26T14:10:49Z</time>
      </trkpt>
      <trkpt lat="45.71419" lon="4.62479">
        <ele>424.8</ele>
        <time>2022-06-26T14:10:50Z</time>
      </trkpt>
      <trkpt lat="45.71423" lon="4.62489">
        <ele>424</ele>
        <time>2022-06-26T14:10:51Z</time>
      </trkpt>
      <trkpt lat="45.71427" lon="4.62498">
        <ele>423.2</ele>
        <time>2022-06-26T14:10:52Z</time>
      </trkpt>
      <trkpt lat="45.71431" lon="4.62507">
        <ele>422.4</ele>
        <time>2022-06-26T14:10:53Z</time>
      </trkpt>
      <trkpt lat="45.71436" lon="4.62516">
        <ele>421.6</ele>
        <time>2022-06-26T14:10:54Z</time>
      </trkpt>
      <trkpt lat="45.7144" lon="4.62524">
        <ele>420.8</ele>
        <time>2022-06-26T14:10:55Z</time>
      </trkpt>
      <trkpt lat="45.71446" lon="4.62532">
        <ele>420</ele>
        <time>2022-06-26T14:10:56Z</time>
      </trkpt>
      <trkpt lat="45.71452" lon="4.62539">
        <ele>419.2</ele>
        <time>2022-06-26T14:10:57Z</time>
      </trkpt>
      <trkpt lat="45.71459" lon="4.62545">
        <ele>418.4</ele>
        <time>2022-06-26T14:10:58Z</time>
      </trkpt>
      <trkpt lat="45.71472" lon="4.62556">
        <ele>417.6</ele>
        <time>2022-06-26T14:10:59Z</time>
      </trkpt>
      <trkpt lat="45.71478" lon="4.6256">
        <ele>416.8</ele>
        <time>2022-06-26T14:11:00Z</time>
      </trkpt>
      <trkpt lat="45.71484" lon="4.62565">
        <ele>416.2</ele>
        <time>2022-06-26T14:11:01Z</time>
      </trkpt>
      <trkpt lat="45.71489" lon="4.6257">
        <ele>415.6</ele>
        <time>2022-06-26T14:11:02Z</time>
      </trkpt>
      <trkpt lat="45.71496" lon="4.62574">
        <ele>415</ele>
        <time>2022-06-26T14:11:03Z</time>
      </trkpt>
      <trkpt lat="45.71503" lon="4.62578">
        <ele>414.6</ele>
        <time>2022-06-26T14:11:04Z</time>
      </trkpt>
      <trkpt lat="45.71511" lon="4.62581">
        <ele>414</ele>
        <time>2022-06-26T14:11:05Z</time>
      </trkpt>
      <trkpt lat="45.71519" lon="4.62582">
        <ele>413.6</ele>
        <time>2022-06-26T14:11:06Z</time>
      </trkpt>
      <trkpt lat="45.71528" lon="4.62583">
        <ele>413.2</ele>
        <time>2022-06-26T14:11:07Z</time>
      </trkpt>
      <trkpt lat="45.71536" lon="4.62583">
        <ele>412.6</ele>
        <time>2022-06-26T14:11:08Z</time>
      </trkpt>
      <trkpt lat="45.71545" lon="4.62584">
        <ele>412.2</ele>
        <time>2022-06-26T14:11:09Z</time>
      </trkpt>
      <trkpt lat="45.71554" lon="4.62584">
        <ele>411.6</ele>
        <time>2022-06-26T14:11:10Z</time>
      </trkpt>
      <trkpt lat="45.71563" lon="4.62584">
        <ele>410.8</ele>
        <time>2022-06-26T14:11:11Z</time>
      </trkpt>
      <trkpt lat="45.71572" lon="4.62585">
        <ele>410.2</ele>
        <time>2022-06-26T14:11:12Z</time>
      </trkpt>
      <trkpt lat="45.7158" lon="4.62587">
        <ele>409.6</ele>
        <time>2022-06-26T14:11:13Z</time>
      </trkpt>
      <trkpt lat="45.71588" lon="4.62591">
        <ele>409</ele>
        <time>2022-06-26T14:11:14Z</time>
      </trkpt>
      <trkpt lat="45.71596" lon="4.62595">
        <ele>408.4</ele>
        <time>2022-06-26T14:11:15Z</time>
      </trkpt>
      <trkpt lat="45.71602" lon="4.62601">
        <ele>408.2</ele>
        <time>2022-06-26T14:11:16Z</time>
      </trkpt>
      <trkpt lat="45.71608" lon="4.62608">
        <ele>407.8</ele>
        <time>2022-06-26T14:11:17Z</time>
      </trkpt>
      <trkpt lat="45.71614" lon="4.62616">
        <ele>407.6</ele>
        <time>2022-06-26T14:11:18Z</time>
      </trkpt>
      <trkpt lat="45.71619" lon="4.62625">
        <ele>407.6</ele>
        <time>2022-06-26T14:11:19Z</time>
      </trkpt>
      <trkpt lat="45.71625" lon="4.62635">
        <ele>407.2</ele>
        <time>2022-06-26T14:11:20Z</time>
      </trkpt>
      <trkpt lat="45.71631" lon="4.62644">
        <ele>406.8</ele>
        <time>2022-06-26T14:11:21Z</time>
      </trkpt>
      <trkpt lat="45.71636" lon="4.62654">
        <ele>406.4</ele>
        <time>2022-06-26T14:11:22Z</time>
      </trkpt>
      <trkpt lat="45.71642" lon="4.62664">
        <ele>406</ele>
        <time>2022-06-26T14:11:23Z</time>
      </trkpt>
      <trkpt lat="45.71648" lon="4.62674">
        <ele>405.6</ele>
        <time>2022-06-26T14:11:24Z</time>
      </trkpt>
      <trkpt lat="45.71653" lon="4.62683">
        <ele>405.4</ele>
        <time>2022-06-26T14:11:25Z</time>
      </trkpt>
      <trkpt lat="45.71659" lon="4.62693">
        <ele>405</ele>
        <time>2022-06-26T14:11:26Z</time>
      </trkpt>
      <trkpt lat="45.71664" lon="4.62703">
        <ele>404.8</ele>
        <time>2022-06-26T14:11:27Z</time>
      </trkpt>
      <trkpt lat="45.71669" lon="4.62713">
        <ele>404.4</ele>
        <time>2022-06-26T14:11:28Z</time>
      </trkpt>
      <trkpt lat="45.71673" lon="4.62723">
        <ele>404.2</ele>
        <time>2022-06-26T14:11:29Z</time>
      </trkpt>
      <trkpt lat="45.71678" lon="4.62734">
        <ele>404</ele>
        <time>2022-06-26T14:11:30Z</time>
      </trkpt>
      <trkpt lat="45.71682" lon="4.62746">
        <ele>403.6</ele>
        <time>2022-06-26T14:11:31Z</time>
      </trkpt>
      <trkpt lat="45.71686" lon="4.62757">
        <ele>403.4</ele>
        <time>2022-06-26T14:11:32Z</time>
      </trkpt>
      <trkpt lat="45.7169" lon="4.62768">
        <ele>403</ele>
        <time>2022-06-26T14:11:33Z</time>
      </trkpt>
      <trkpt lat="45.71694" lon="4.62779">
        <ele>402.8</ele>
        <time>2022-06-26T14:11:34Z</time>
      </trkpt>
      <trkpt lat="45.71697" lon="4.6279">
        <ele>402.4</ele>
        <time>2022-06-26T14:11:35Z</time>
      </trkpt>
      <trkpt lat="45.717" lon="4.62801">
        <ele>402.2</ele>
        <time>2022-06-26T14:11:36Z</time>
      </trkpt>
      <trkpt lat="45.71703" lon="4.62812">
        <ele>402</ele>
        <time>2022-06-26T14:11:37Z</time>
      </trkpt>
      <trkpt lat="45.71705" lon="4.62822">
        <ele>401.8</ele>
        <time>2022-06-26T14:11:38Z</time>
      </trkpt>
      <trkpt lat="45.71708" lon="4.62832">
        <ele>401.4</ele>
        <time>2022-06-26T14:11:39Z</time>
      </trkpt>
      <trkpt lat="45.7171" lon="4.62843">
        <ele>401.4</ele>
        <time>2022-06-26T14:11:40Z</time>
      </trkpt>
      <trkpt lat="45.71713" lon="4.62854">
        <ele>401.2</ele>
        <time>2022-06-26T14:11:41Z</time>
      </trkpt>
      <trkpt lat="45.71717" lon="4.62865">
        <ele>401.2</ele>
        <time>2022-06-26T14:11:42Z</time>
      </trkpt>
      <trkpt lat="45.7172" lon="4.62876">
        <ele>400.8</ele>
        <time>2022-06-26T14:11:43Z</time>
      </trkpt>
      <trkpt lat="45.71723" lon="4.62887">
        <ele>400.8</ele>
        <time>2022-06-26T14:11:44Z</time>
      </trkpt>
      <trkpt lat="45.71725" lon="4.62898">
        <ele>400.4</ele>
        <time>2022-06-26T14:11:45Z</time>
      </trkpt>
      <trkpt lat="45.71728" lon="4.6291">
        <ele>400.4</ele>
        <time>2022-06-26T14:11:46Z</time>
      </trkpt>
      <trkpt lat="45.71731" lon="4.62922">
        <ele>400</ele>
        <time>2022-06-26T14:11:47Z</time>
      </trkpt>
      <trkpt lat="45.71735" lon="4.62933">
        <ele>399.6</ele>
        <time>2022-06-26T14:11:48Z</time>
      </trkpt>
      <trkpt lat="45.71738" lon="4.62945">
        <ele>399.4</ele>
        <time>2022-06-26T14:11:49Z</time>
      </trkpt>
      <trkpt lat="45.71741" lon="4.62958">
        <ele>399</ele>
        <time>2022-06-26T14:11:50Z</time>
      </trkpt>
      <trkpt lat="45.71743" lon="4.62972">
        <ele>398.6</ele>
        <time>2022-06-26T14:11:51Z</time>
      </trkpt>
      <trkpt lat="45.71745" lon="4.62986">
        <ele>398</ele>
        <time>2022-06-26T14:11:52Z</time>
      </trkpt>
      <trkpt lat="45.71747" lon="4.63001">
        <ele>397.4</ele>
        <time>2022-06-26T14:11:53Z</time>
      </trkpt>
      <trkpt lat="45.71748" lon="4.63015">
        <ele>396.8</ele>
        <time>2022-06-26T14:11:54Z</time>
      </trkpt>
      <trkpt lat="45.71749" lon="4.6303">
        <ele>396.2</ele>
        <time>2022-06-26T14:11:55Z</time>
      </trkpt>
      <trkpt lat="45.71749" lon="4.63044">
        <ele>395.6</ele>
        <time>2022-06-26T14:11:56Z</time>
      </trkpt>
      <trkpt lat="45.7175" lon="4.63059">
        <ele>395</ele>
        <time>2022-06-26T14:11:57Z</time>
      </trkpt>
      <trkpt lat="45.71752" lon="4.63072">
        <ele>394.2</ele>
        <time>2022-06-26T14:11:58Z</time>
      </trkpt>
      <trkpt lat="45.71752" lon="4.63085">
        <ele>392.4</ele>
        <time>2022-06-26T14:12:00Z</time>
      </trkpt>
      <trkpt lat="45.71753" lon="4.63095">
        <ele>391.8</ele>
        <time>2022-06-26T14:12:01Z</time>
      </trkpt>
      <trkpt lat="45.71754" lon="4.63104">
        <ele>391.2</ele>
        <time>2022-06-26T14:12:02Z</time>
      </trkpt>
      <trkpt lat="45.71756" lon="4.63112">
        <ele>390.6</ele>
        <time>2022-06-26T14:12:03Z</time>
      </trkpt>
      <trkpt lat="45.71758" lon="4.6312">
        <ele>390.4</ele>
        <time>2022-06-26T14:12:04Z</time>
      </trkpt>
      <trkpt lat="45.7176" lon="4.63127">
        <ele>390</ele>
        <time>2022-06-26T14:12:05Z</time>
      </trkpt>
      <trkpt lat="45.71763" lon="4.63135">
        <ele>389.2</ele>
        <time>2022-06-26T14:12:06Z</time>
      </trkpt>
      <trkpt lat="45.71766" lon="4.63144">
        <ele>388.6</ele>
        <time>2022-06-26T14:12:07Z</time>
      </trkpt>
      <trkpt lat="45.71769" lon="4.63154">
        <ele>388.2</ele>
        <time>2022-06-26T14:12:08Z</time>
      </trkpt>
      <trkpt lat="45.71772" lon="4.63164">
        <ele>387.8</ele>
        <time>2022-06-26T14:12:09Z</time>
      </trkpt>
      <trkpt lat="45.71776" lon="4.63173">
        <ele>387.4</ele>
        <time>2022-06-26T14:12:10Z</time>
      </trkpt>
      <trkpt lat="45.7178" lon="4.63182">
        <ele>387.2</ele>
        <time>2022-06-26T14:12:11Z</time>
      </trkpt>
      <trkpt lat="45.71784" lon="4.63191">
        <ele>386.8</ele>
        <time>2022-06-26T14:12:12Z</time>
      </trkpt>
      <trkpt lat="45.71788" lon="4.632">
        <ele>386.8</ele>
        <time>2022-06-26T14:12:13Z</time>
      </trkpt>
      <trkpt lat="45.71791" lon="4.63209">
        <ele>386.4</ele>
        <time>2022-06-26T14:12:14Z</time>
      </trkpt>
      <trkpt lat="45.71793" lon="4.63219">
        <ele>386</ele>
        <time>2022-06-26T14:12:15Z</time>
      </trkpt>
      <trkpt lat="45.71794" lon="4.63229">
        <ele>385.8</ele>
        <time>2022-06-26T14:12:16Z</time>
      </trkpt>
      <trkpt lat="45.71794" lon="4.63239">
        <ele>385.8</ele>
        <time>2022-06-26T14:12:17Z</time>
      </trkpt>
      <trkpt lat="45.71794" lon="4.63249">
        <ele>385.4</ele>
        <time>2022-06-26T14:12:18Z</time>
      </trkpt>
      <trkpt lat="45.71795" lon="4.63259">
        <ele>385.2</ele>
        <time>2022-06-26T14:12:19Z</time>
      </trkpt>
      <trkpt lat="45.71795" lon="4.6327">
        <ele>385.2</ele>
        <time>2022-06-26T14:12:20Z</time>
      </trkpt>
      <trkpt lat="45.71796" lon="4.6328">
        <ele>384.8</ele>
        <time>2022-06-26T14:12:21Z</time>
      </trkpt>
      <trkpt lat="45.71796" lon="4.6329">
        <ele>384.8</ele>
        <time>2022-06-26T14:12:22Z</time>
      </trkpt>
      <trkpt lat="45.71797" lon="4.63301">
        <ele>384.8</ele>
        <time>2022-06-26T14:12:23Z</time>
      </trkpt>
      <trkpt lat="45.71798" lon="4.63312">
        <ele>384.6</ele>
        <time>2022-06-26T14:12:24Z</time>
      </trkpt>
      <trkpt lat="45.71798" lon="4.63322">
        <ele>384.6</ele>
        <time>2022-06-26T14:12:25Z</time>
      </trkpt>
      <trkpt lat="45.71798" lon="4.6333">
        <ele>384.4</ele>
        <time>2022-06-26T14:12:26Z</time>
      </trkpt>
      <trkpt lat="45.71797" lon="4.63337">
        <ele>384.4</ele>
        <time>2022-06-26T14:12:27Z</time>
      </trkpt>
      <trkpt lat="45.71797" lon="4.63344">
        <ele>384</ele>
        <time>2022-06-26T14:12:28Z</time>
      </trkpt>
      <trkpt lat="45.71796" lon="4.6335">
        <ele>384</ele>
        <time>2022-06-26T14:12:29Z</time>
      </trkpt>
      <trkpt lat="45.71795" lon="4.63355">
        <ele>384</ele>
        <time>2022-06-26T14:12:30Z</time>
      </trkpt>
      <trkpt lat="45.71795" lon="4.6336">
        <ele>383.8</ele>
        <time>2022-06-26T14:12:31Z</time>
      </trkpt>
      <trkpt lat="45.71795" lon="4.63364">
        <ele>383.8</ele>
        <time>2022-06-26T14:12:32Z</time>
      </trkpt>
      <trkpt lat="45.71794" lon="4.63369">
        <ele>383.8</ele>
        <time>2022-06-26T14:12:33Z</time>
      </trkpt>
      <trkpt lat="45.71794" lon="4.63373">
        <ele>383.6</ele>
        <time>2022-06-26T14:12:34Z</time>
      </trkpt>
      <trkpt lat="45.71793" lon="4.63377">
        <ele>383.6</ele>
        <time>2022-06-26T14:12:35Z</time>
      </trkpt>
      <trkpt lat="45.71792" lon="4.63382">
        <ele>383.2</ele>
        <time>2022-06-26T14:12:36Z</time>
      </trkpt>
      <trkpt lat="45.71791" lon="4.63387">
        <ele>383.2</ele>
        <time>2022-06-26T14:12:37Z</time>
      </trkpt>
      <trkpt lat="45.7179" lon="4.63393">
        <ele>383.2</ele>
        <time>2022-06-26T14:12:38Z</time>
      </trkpt>
      <trkpt lat="45.71789" lon="4.63401">
        <ele>383.2</ele>
        <time>2022-06-26T14:12:39Z</time>
      </trkpt>
      <trkpt lat="45.71788" lon="4.63409">
        <ele>383.2</ele>
        <time>2022-06-26T14:12:40Z</time>
      </trkpt>
      <trkpt lat="45.71787" lon="4.63416">
        <ele>383.2</ele>
        <time>2022-06-26T14:12:41Z</time>
      </trkpt>
      <trkpt lat="45.71786" lon="4.63423">
        <ele>383.2</ele>
        <time>2022-06-26T14:12:42Z</time>
      </trkpt>
      <trkpt lat="45.71786" lon="4.6343">
        <ele>383.2</ele>
        <time>2022-06-26T14:12:43Z</time>
      </trkpt>
      <trkpt lat="45.71786" lon="4.63438">
        <ele>383.2</ele>
        <time>2022-06-26T14:12:44Z</time>
      </trkpt>
      <trkpt lat="45.71786" lon="4.63445">
        <ele>383.2</ele>
        <time>2022-06-26T14:12:45Z</time>
      </trkpt>
      <trkpt lat="45.71787" lon="4.63453">
        <ele>383</ele>
        <time>2022-06-26T14:12:46Z</time>
      </trkpt>
      <trkpt lat="45.71788" lon="4.6346">
        <ele>383</ele>
        <time>2022-06-26T14:12:47Z</time>
      </trkpt>
      <trkpt lat="45.71789" lon="4.63468">
        <ele>383</ele>
        <time>2022-06-26T14:12:48Z</time>
      </trkpt>
      <trkpt lat="45.71789" lon="4.63475">
        <ele>383</ele>
        <time>2022-06-26T14:12:49Z</time>
      </trkpt>
      <trkpt lat="45.7179" lon="4.63483">
        <ele>383</ele>
        <time>2022-06-26T14:12:50Z</time>
      </trkpt>
      <trkpt lat="45.71791" lon="4.6349">
        <ele>383</ele>
        <time>2022-06-26T14:12:51Z</time>
      </trkpt>
      <trkpt lat="45.71795" lon="4.63504">
        <ele>383</ele>
        <time>2022-06-26T14:12:52Z</time>
      </trkpt>
      <trkpt lat="45.71797" lon="4.63511">
        <ele>383</ele>
        <time>2022-06-26T14:12:53Z</time>
      </trkpt>
      <trkpt lat="45.71799" lon="4.63519">
        <ele>382.8</ele>
        <time>2022-06-26T14:12:54Z</time>
      </trkpt>
      <trkpt lat="45.71802" lon="4.63527">
        <ele>382.6</ele>
        <time>2022-06-26T14:12:55Z</time>
      </trkpt>
      <trkpt lat="45.71805" lon="4.63536">
        <ele>382.6</ele>
        <time>2022-06-26T14:12:56Z</time>
      </trkpt>
      <trkpt lat="45.71808" lon="4.63544">
        <ele>382.2</ele>
        <time>2022-06-26T14:12:57Z</time>
      </trkpt>
      <trkpt lat="45.7181" lon="4.63553">
        <ele>382</ele>
        <time>2022-06-26T14:12:58Z</time>
      </trkpt>
      <trkpt lat="45.71813" lon="4.63562">
        <ele>381.6</ele>
        <time>2022-06-26T14:12:59Z</time>
      </trkpt>
      <trkpt lat="45.71816" lon="4.63571">
        <ele>381.4</ele>
        <time>2022-06-26T14:13:00Z</time>
      </trkpt>
      <trkpt lat="45.71818" lon="4.63581">
        <ele>381.2</ele>
        <time>2022-06-26T14:13:01Z</time>
      </trkpt>
      <trkpt lat="45.7182" lon="4.6359">
        <ele>381</ele>
        <time>2022-06-26T14:13:02Z</time>
      </trkpt>
      <trkpt lat="45.71822" lon="4.636">
        <ele>380.8</ele>
        <time>2022-06-26T14:13:03Z</time>
      </trkpt>
      <trkpt lat="45.71823" lon="4.63611">
        <ele>380.4</ele>
        <time>2022-06-26T14:13:04Z</time>
      </trkpt>
      <trkpt lat="45.71824" lon="4.63621">
        <ele>380.4</ele>
        <time>2022-06-26T14:13:05Z</time>
      </trkpt>
      <trkpt lat="45.71825" lon="4.63632">
        <ele>380</ele>
        <time>2022-06-26T14:13:06Z</time>
      </trkpt>
      <trkpt lat="45.71826" lon="4.63643">
        <ele>379.8</ele>
        <time>2022-06-26T14:13:07Z</time>
      </trkpt>
      <trkpt lat="45.71826" lon="4.63653">
        <ele>379.8</ele>
        <time>2022-06-26T14:13:08Z</time>
      </trkpt>
      <trkpt lat="45.71827" lon="4.63664">
        <ele>379.6</ele>
        <time>2022-06-26T14:13:09Z</time>
      </trkpt>
      <trkpt lat="45.71827" lon="4.63674">
        <ele>379.6</ele>
        <time>2022-06-26T14:13:10Z</time>
      </trkpt>
      <trkpt lat="45.71828" lon="4.63685">
        <ele>379.4</ele>
        <time>2022-06-26T14:13:11Z</time>
      </trkpt>
      <trkpt lat="45.71829" lon="4.63695">
        <ele>379.4</ele>
        <time>2022-06-26T14:13:12Z</time>
      </trkpt>
      <trkpt lat="45.7183" lon="4.63705">
        <ele>379.2</ele>
        <time>2022-06-26T14:13:13Z</time>
      </trkpt>
      <trkpt lat="45.7183" lon="4.63716">
        <ele>379.2</ele>
        <time>2022-06-26T14:13:14Z</time>
      </trkpt>
      <trkpt lat="45.71831" lon="4.63726">
        <ele>378.8</ele>
        <time>2022-06-26T14:13:15Z</time>
      </trkpt>
      <trkpt lat="45.71832" lon="4.63736">
        <ele>378.8</ele>
        <time>2022-06-26T14:13:16Z</time>
      </trkpt>
      <trkpt lat="45.71832" lon="4.63747">
        <ele>378.4</ele>
        <time>2022-06-26T14:13:17Z</time>
      </trkpt>
      <trkpt lat="45.71832" lon="4.63757">
        <ele>378.4</ele>
        <time>2022-06-26T14:13:18Z</time>
      </trkpt>
      <trkpt lat="45.71832" lon="4.63766">
        <ele>378.2</ele>
        <time>2022-06-26T14:13:19Z</time>
      </trkpt>
      <trkpt lat="45.71832" lon="4.63776">
        <ele>378.2</ele>
        <time>2022-06-26T14:13:20Z</time>
      </trkpt>
      <trkpt lat="45.71833" lon="4.63785">
        <ele>378.2</ele>
        <time>2022-06-26T14:13:21Z</time>
      </trkpt>
      <trkpt lat="45.71833" lon="4.63795">
        <ele>377.8</ele>
        <time>2022-06-26T14:13:22Z</time>
      </trkpt>
      <trkpt lat="45.71834" lon="4.63805">
        <ele>377.8</ele>
        <time>2022-06-26T14:13:23Z</time>
      </trkpt>
      <trkpt lat="45.71835" lon="4.63815">
        <ele>377.6</ele>
        <time>2022-06-26T14:13:24Z</time>
      </trkpt>
      <trkpt lat="45.71836" lon="4.63824">
        <ele>377.6</ele>
        <time>2022-06-26T14:13:25Z</time>
      </trkpt>
      <trkpt lat="45.71838" lon="4.63833">
        <ele>377.4</ele>
        <time>2022-06-26T14:13:26Z</time>
      </trkpt>
      <trkpt lat="45.71841" lon="4.63842">
        <ele>377.4</ele>
        <time>2022-06-26T14:13:27Z</time>
      </trkpt>
      <trkpt lat="45.71845" lon="4.63851">
        <ele>377.4</ele>
        <time>2022-06-26T14:13:28Z</time>
      </trkpt>
      <trkpt lat="45.71848" lon="4.63859">
        <ele>377.4</ele>
        <time>2022-06-26T14:13:29Z</time>
      </trkpt>
      <trkpt lat="45.71852" lon="4.63868">
        <ele>377</ele>
        <time>2022-06-26T14:13:30Z</time>
      </trkpt>
      <trkpt lat="45.71856" lon="4.63877">
        <ele>376.8</ele>
        <time>2022-06-26T14:13:31Z</time>
      </trkpt>
      <trkpt lat="45.71861" lon="4.63885">
        <ele>376.8</ele>
        <time>2022-06-26T14:13:32Z</time>
      </trkpt>
      <trkpt lat="45.71866" lon="4.63893">
        <ele>376.6</ele>
        <time>2022-06-26T14:13:33Z</time>
      </trkpt>
      <trkpt lat="45.71871" lon="4.63902">
        <ele>376.4</ele>
        <time>2022-06-26T14:13:34Z</time>
      </trkpt>
      <trkpt lat="45.71876" lon="4.63911">
        <ele>376.4</ele>
        <time>2022-06-26T14:13:35Z</time>
      </trkpt>
      <trkpt lat="45.71881" lon="4.63919">
        <ele>376</ele>
        <time>2022-06-26T14:13:36Z</time>
      </trkpt>
      <trkpt lat="45.71886" lon="4.63927">
        <ele>376</ele>
        <time>2022-06-26T14:13:37Z</time>
      </trkpt>
      <trkpt lat="45.71891" lon="4.63935">
        <ele>376</ele>
        <time>2022-06-26T14:13:38Z</time>
      </trkpt>
      <trkpt lat="45.71897" lon="4.63942">
        <ele>375.8</ele>
        <time>2022-06-26T14:13:39Z</time>
      </trkpt>
      <trkpt lat="45.71902" lon="4.6395">
        <ele>375.8</ele>
        <time>2022-06-26T14:13:40Z</time>
      </trkpt>
      <trkpt lat="45.71908" lon="4.63957">
        <ele>375.8</ele>
        <time>2022-06-26T14:13:41Z</time>
      </trkpt>
      <trkpt lat="45.71913" lon="4.63963">
        <ele>375.8</ele>
        <time>2022-06-26T14:13:42Z</time>
      </trkpt>
      <trkpt lat="45.71919" lon="4.63969">
        <ele>375.8</ele>
        <time>2022-06-26T14:13:43Z</time>
      </trkpt>
      <trkpt lat="45.71925" lon="4.63975">
        <ele>375.6</ele>
        <time>2022-06-26T14:13:44Z</time>
      </trkpt>
      <trkpt lat="45.71931" lon="4.63981">
        <ele>375.6</ele>
        <time>2022-06-26T14:13:45Z</time>
      </trkpt>
      <trkpt lat="45.71936" lon="4.63986">
        <ele>375.6</ele>
        <time>2022-06-26T14:13:46Z</time>
      </trkpt>
      <trkpt lat="45.71942" lon="4.63992">
        <ele>375.4</ele>
        <time>2022-06-26T14:13:47Z</time>
      </trkpt>
      <trkpt lat="45.71948" lon="4.63998">
        <ele>375.4</ele>
        <time>2022-06-26T14:13:48Z</time>
      </trkpt>
      <trkpt lat="45.71954" lon="4.64004">
        <ele>375.2</ele>
        <time>2022-06-26T14:13:49Z</time>
      </trkpt>
      <trkpt lat="45.71959" lon="4.64011">
        <ele>375.2</ele>
        <time>2022-06-26T14:13:50Z</time>
      </trkpt>
      <trkpt lat="45.71964" lon="4.64018">
        <ele>374.8</ele>
        <time>2022-06-26T14:13:51Z</time>
      </trkpt>
      <trkpt lat="45.71968" lon="4.64026">
        <ele>374.8</ele>
        <time>2022-06-26T14:13:52Z</time>
      </trkpt>
      <trkpt lat="45.71972" lon="4.64034">
        <ele>374.6</ele>
        <time>2022-06-26T14:13:53Z</time>
      </trkpt>
      <trkpt lat="45.71976" lon="4.64043">
        <ele>374.6</ele>
        <time>2022-06-26T14:13:54Z</time>
      </trkpt>
      <trkpt lat="45.71979" lon="4.64053">
        <ele>374.2</ele>
        <time>2022-06-26T14:13:55Z</time>
      </trkpt>
      <trkpt lat="45.71982" lon="4.64063">
        <ele>374.2</ele>
        <time>2022-06-26T14:13:56Z</time>
      </trkpt>
      <trkpt lat="45.71985" lon="4.64073">
        <ele>374</ele>
        <time>2022-06-26T14:13:57Z</time>
      </trkpt>
      <trkpt lat="45.71987" lon="4.64083">
        <ele>374</ele>
        <time>2022-06-26T14:13:58Z</time>
      </trkpt>
      <trkpt lat="45.71988" lon="4.64094">
        <ele>373.6</ele>
        <time>2022-06-26T14:13:59Z</time>
      </trkpt>
      <trkpt lat="45.7199" lon="4.64104">
        <ele>373.6</ele>
        <time>2022-06-26T14:14:00Z</time>
      </trkpt>
      <trkpt lat="45.71991" lon="4.64114">
        <ele>373.2</ele>
        <time>2022-06-26T14:14:01Z</time>
      </trkpt>
      <trkpt lat="45.71992" lon="4.64125">
        <ele>373.2</ele>
        <time>2022-06-26T14:14:02Z</time>
      </trkpt>
      <trkpt lat="45.71994" lon="4.64136">
        <ele>373</ele>
        <time>2022-06-26T14:14:03Z</time>
      </trkpt>
      <trkpt lat="45.71995" lon="4.64147">
        <ele>373</ele>
        <time>2022-06-26T14:14:04Z</time>
      </trkpt>
      <trkpt lat="45.71996" lon="4.64158">
        <ele>372.6</ele>
        <time>2022-06-26T14:14:05Z</time>
      </trkpt>
      <trkpt lat="45.71996" lon="4.6417">
        <ele>372.4</ele>
        <time>2022-06-26T14:14:06Z</time>
      </trkpt>
      <trkpt lat="45.71997" lon="4.64181">
        <ele>372</ele>
        <time>2022-06-26T14:14:07Z</time>
      </trkpt>
      <trkpt lat="45.71997" lon="4.64193">
        <ele>371.8</ele>
        <time>2022-06-26T14:14:08Z</time>
      </trkpt>
      <trkpt lat="45.71997" lon="4.64205">
        <ele>371.4</ele>
        <time>2022-06-26T14:14:09Z</time>
      </trkpt>
      <trkpt lat="45.71997" lon="4.64217">
        <ele>371.2</ele>
        <time>2022-06-26T14:14:10Z</time>
      </trkpt>
      <trkpt lat="45.71998" lon="4.6423">
        <ele>371.2</ele>
        <time>2022-06-26T14:14:11Z</time>
      </trkpt>
      <trkpt lat="45.71999" lon="4.64242">
        <ele>370.8</ele>
        <time>2022-06-26T14:14:12Z</time>
      </trkpt>
      <trkpt lat="45.71999" lon="4.64254">
        <ele>370.8</ele>
        <time>2022-06-26T14:14:13Z</time>
      </trkpt>
      <trkpt lat="45.72" lon="4.64267">
        <ele>370.4</ele>
        <time>2022-06-26T14:14:14Z</time>
      </trkpt>
      <trkpt lat="45.72001" lon="4.64279">
        <ele>370.2</ele>
        <time>2022-06-26T14:14:15Z</time>
      </trkpt>
      <trkpt lat="45.72002" lon="4.64292">
        <ele>369.8</ele>
        <time>2022-06-26T14:14:16Z</time>
      </trkpt>
      <trkpt lat="45.72003" lon="4.64304">
        <ele>369.8</ele>
        <time>2022-06-26T14:14:17Z</time>
      </trkpt>
      <trkpt lat="45.72004" lon="4.64316">
        <ele>369.6</ele>
        <time>2022-06-26T14:14:18Z</time>
      </trkpt>
      <trkpt lat="45.72005" lon="4.64328">
        <ele>369.6</ele>
        <time>2022-06-26T14:14:19Z</time>
      </trkpt>
      <trkpt lat="45.72006" lon="4.64341">
        <ele>369.6</ele>
        <time>2022-06-26T14:14:20Z</time>
      </trkpt>
      <trkpt lat="45.72007" lon="4.64353">
        <ele>369.4</ele>
        <time>2022-06-26T14:14:21Z</time>
      </trkpt>
      <trkpt lat="45.72009" lon="4.64365">
        <ele>369.4</ele>
        <time>2022-06-26T14:14:22Z</time>
      </trkpt>
      <trkpt lat="45.72011" lon="4.64377">
        <ele>369.4</ele>
        <time>2022-06-26T14:14:23Z</time>
      </trkpt>
      <trkpt lat="45.72013" lon="4.64388">
        <ele>369</ele>
        <time>2022-06-26T14:14:24Z</time>
      </trkpt>
      <trkpt lat="45.72016" lon="4.64399">
        <ele>369</ele>
        <time>2022-06-26T14:14:25Z</time>
      </trkpt>
      <trkpt lat="45.72019" lon="4.64409">
        <ele>368.8</ele>
        <time>2022-06-26T14:14:26Z</time>
      </trkpt>
      <trkpt lat="45.72022" lon="4.6442">
        <ele>368.8</ele>
        <time>2022-06-26T14:14:27Z</time>
      </trkpt>
      <trkpt lat="45.72026" lon="4.64429">
        <ele>368.8</ele>
        <time>2022-06-26T14:14:28Z</time>
      </trkpt>
      <trkpt lat="45.7203" lon="4.64439">
        <ele>368.8</ele>
        <time>2022-06-26T14:14:29Z</time>
      </trkpt>
      <trkpt lat="45.72034" lon="4.64448">
        <ele>368.6</ele>
        <time>2022-06-26T14:14:30Z</time>
      </trkpt>
      <trkpt lat="45.72039" lon="4.64458">
        <ele>368.6</ele>
        <time>2022-06-26T14:14:31Z</time>
      </trkpt>
      <trkpt lat="45.72043" lon="4.64467">
        <ele>368.6</ele>
        <time>2022-06-26T14:14:32Z</time>
      </trkpt>
      <trkpt lat="45.72047" lon="4.64476">
        <ele>368.6</ele>
        <time>2022-06-26T14:14:33Z</time>
      </trkpt>
      <trkpt lat="45.72052" lon="4.64485">
        <ele>368.6</ele>
        <time>2022-06-26T14:14:34Z</time>
      </trkpt>
      <trkpt lat="45.72056" lon="4.64494">
        <ele>368.4</ele>
        <time>2022-06-26T14:14:35Z</time>
      </trkpt>
      <trkpt lat="45.72061" lon="4.64503">
        <ele>368.4</ele>
        <time>2022-06-26T14:14:36Z</time>
      </trkpt>
      <trkpt lat="45.72065" lon="4.64512">
        <ele>368.4</ele>
        <time>2022-06-26T14:14:37Z</time>
      </trkpt>
      <trkpt lat="45.7207" lon="4.64521">
        <ele>368.4</ele>
        <time>2022-06-26T14:14:38Z</time>
      </trkpt>
      <trkpt lat="45.72074" lon="4.64531">
        <ele>368</ele>
        <time>2022-06-26T14:14:39Z</time>
      </trkpt>
      <trkpt lat="45.72078" lon="4.6454">
        <ele>368</ele>
        <time>2022-06-26T14:14:40Z</time>
      </trkpt>
      <trkpt lat="45.72082" lon="4.64549">
        <ele>368</ele>
        <time>2022-06-26T14:14:41Z</time>
      </trkpt>
      <trkpt lat="45.72086" lon="4.64557">
        <ele>368</ele>
        <time>2022-06-26T14:14:42Z</time>
      </trkpt>
      <trkpt lat="45.72089" lon="4.64566">
        <ele>368.4</ele>
        <time>2022-06-26T14:14:43Z</time>
      </trkpt>
      <trkpt lat="45.72093" lon="4.64574">
        <ele>368.4</ele>
        <time>2022-06-26T14:14:44Z</time>
      </trkpt>
      <trkpt lat="45.72096" lon="4.64582">
        <ele>368.8</ele>
        <time>2022-06-26T14:14:45Z</time>
      </trkpt>
      <trkpt lat="45.72099" lon="4.64589">
        <ele>369</ele>
        <time>2022-06-26T14:14:46Z</time>
      </trkpt>
      <trkpt lat="45.72102" lon="4.64597">
        <ele>369.4</ele>
        <time>2022-06-26T14:14:47Z</time>
      </trkpt>
      <trkpt lat="45.72106" lon="4.64604">
        <ele>369.8</ele>
        <time>2022-06-26T14:14:48Z</time>
      </trkpt>
      <trkpt lat="45.72109" lon="4.64611">
        <ele>370.2</ele>
        <time>2022-06-26T14:14:49Z</time>
      </trkpt>
      <trkpt lat="45.72112" lon="4.64618">
        <ele>370.6</ele>
        <time>2022-06-26T14:14:50Z</time>
      </trkpt>
      <trkpt lat="45.72115" lon="4.64624">
        <ele>371</ele>
        <time>2022-06-26T14:14:51Z</time>
      </trkpt>
      <trkpt lat="45.72118" lon="4.64631">
        <ele>371.4</ele>
        <time>2022-06-26T14:14:52Z</time>
      </trkpt>
      <trkpt lat="45.7212" lon="4.64637">
        <ele>371.8</ele>
        <time>2022-06-26T14:14:53Z</time>
      </trkpt>
      <trkpt lat="45.72123" lon="4.64642">
        <ele>372.2</ele>
        <time>2022-06-26T14:14:54Z</time>
      </trkpt>
      <trkpt lat="45.72125" lon="4.64647">
        <ele>372.6</ele>
        <time>2022-06-26T14:14:55Z</time>
      </trkpt>
      <trkpt lat="45.72127" lon="4.64652">
        <ele>372.8</ele>
        <time>2022-06-26T14:14:56Z</time>
      </trkpt>
      <trkpt lat="45.72129" lon="4.64657">
        <ele>373.2</ele>
        <time>2022-06-26T14:14:57Z</time>
      </trkpt>
      <trkpt lat="45.72132" lon="4.64662">
        <ele>373.6</ele>
        <time>2022-06-26T14:14:58Z</time>
      </trkpt>
      <trkpt lat="45.72136" lon="4.6467">
        <ele>374</ele>
        <time>2022-06-26T14:14:59Z</time>
      </trkpt>
      <trkpt lat="45.72137" lon="4.64674">
        <ele>374.2</ele>
        <time>2022-06-26T14:15:00Z</time>
      </trkpt>
      <trkpt lat="45.72139" lon="4.64679">
        <ele>374.2</ele>
        <time>2022-06-26T14:15:01Z</time>
      </trkpt>
      <trkpt lat="45.72141" lon="4.64683">
        <ele>374.6</ele>
        <time>2022-06-26T14:15:02Z</time>
      </trkpt>
      <trkpt lat="45.72143" lon="4.64687">
        <ele>374.8</ele>
        <time>2022-06-26T14:15:03Z</time>
      </trkpt>
      <trkpt lat="45.72144" lon="4.64692">
        <ele>375.2</ele>
        <time>2022-06-26T14:15:04Z</time>
      </trkpt>
      <trkpt lat="45.72146" lon="4.64697">
        <ele>375.4</ele>
        <time>2022-06-26T14:15:05Z</time>
      </trkpt>
      <trkpt lat="45.72148" lon="4.64701">
        <ele>375.6</ele>
        <time>2022-06-26T14:15:06Z</time>
      </trkpt>
      <trkpt lat="45.7215" lon="4.64705">
        <ele>375.6</ele>
        <time>2022-06-26T14:15:07Z</time>
      </trkpt>
      <trkpt lat="45.72151" lon="4.6471">
        <ele>376</ele>
        <time>2022-06-26T14:15:08Z</time>
      </trkpt>
      <trkpt lat="45.72153" lon="4.64714">
        <ele>376</ele>
        <time>2022-06-26T14:15:09Z</time>
      </trkpt>
      <trkpt lat="45.72155" lon="4.64719">
        <ele>376.2</ele>
        <time>2022-06-26T14:15:10Z</time>
      </trkpt>
      <trkpt lat="45.72156" lon="4.64723">
        <ele>376.4</ele>
        <time>2022-06-26T14:15:11Z</time>
      </trkpt>
      <trkpt lat="45.72158" lon="4.64728">
        <ele>376.4</ele>
        <time>2022-06-26T14:15:12Z</time>
      </trkpt>
      <trkpt lat="45.72159" lon="4.64733">
        <ele>376.8</ele>
        <time>2022-06-26T14:15:13Z</time>
      </trkpt>
      <trkpt lat="45.7216" lon="4.64737">
        <ele>377</ele>
        <time>2022-06-26T14:15:14Z</time>
      </trkpt>
      <trkpt lat="45.72161" lon="4.64741">
        <ele>377.2</ele>
        <time>2022-06-26T14:15:15Z</time>
      </trkpt>
      <trkpt lat="45.72163" lon="4.64745">
        <ele>377.2</ele>
        <time>2022-06-26T14:15:16Z</time>
      </trkpt>
      <trkpt lat="45.72164" lon="4.64749">
        <ele>377.6</ele>
        <time>2022-06-26T14:15:17Z</time>
      </trkpt>
      <trkpt lat="45.72166" lon="4.64754">
        <ele>377.6</ele>
        <time>2022-06-26T14:15:18Z</time>
      </trkpt>
      <trkpt lat="45.72167" lon="4.64758">
        <ele>377.8</ele>
        <time>2022-06-26T14:15:19Z</time>
      </trkpt>
      <trkpt lat="45.72169" lon="4.64763">
        <ele>377.8</ele>
        <time>2022-06-26T14:15:20Z</time>
      </trkpt>
      <trkpt lat="45.7217" lon="4.64768">
        <ele>377.8</ele>
        <time>2022-06-26T14:15:21Z</time>
      </trkpt>
      <trkpt lat="45.72172" lon="4.64773">
        <ele>377.8</ele>
        <time>2022-06-26T14:15:22Z</time>
      </trkpt>
      <trkpt lat="45.72173" lon="4.64779">
        <ele>378.2</ele>
        <time>2022-06-26T14:15:23Z</time>
      </trkpt>
      <trkpt lat="45.72175" lon="4.64784">
        <ele>378.2</ele>
        <time>2022-06-26T14:15:24Z</time>
      </trkpt>
      <trkpt lat="45.72176" lon="4.64789">
        <ele>378.4</ele>
        <time>2022-06-26T14:15:25Z</time>
      </trkpt>
      <trkpt lat="45.72178" lon="4.64794">
        <ele>378.4</ele>
        <time>2022-06-26T14:15:26Z</time>
      </trkpt>
      <trkpt lat="45.7218" lon="4.64799">
        <ele>378.4</ele>
        <time>2022-06-26T14:15:27Z</time>
      </trkpt>
      <trkpt lat="45.72181" lon="4.64805">
        <ele>378.4</ele>
        <time>2022-06-26T14:15:28Z</time>
      </trkpt>
      <trkpt lat="45.72183" lon="4.64811">
        <ele>378.6</ele>
        <time>2022-06-26T14:15:29Z</time>
      </trkpt>
      <trkpt lat="45.72185" lon="4.64816">
        <ele>378.6</ele>
        <time>2022-06-26T14:15:30Z</time>
      </trkpt>
      <trkpt lat="45.72186" lon="4.64822">
        <ele>378.6</ele>
        <time>2022-06-26T14:15:31Z</time>
      </trkpt>
      <trkpt lat="45.72188" lon="4.64828">
        <ele>378.8</ele>
        <time>2022-06-26T14:15:32Z</time>
      </trkpt>
      <trkpt lat="45.7219" lon="4.64834">
        <ele>378.8</ele>
        <time>2022-06-26T14:15:33Z</time>
      </trkpt>
      <trkpt lat="45.72192" lon="4.64839">
        <ele>379.2</ele>
        <time>2022-06-26T14:15:34Z</time>
      </trkpt>
      <trkpt lat="45.72193" lon="4.64845">
        <ele>379.2</ele>
        <time>2022-06-26T14:15:35Z</time>
      </trkpt>
      <trkpt lat="45.72195" lon="4.64851">
        <ele>379.2</ele>
        <time>2022-06-26T14:15:36Z</time>
      </trkpt>
      <trkpt lat="45.72197" lon="4.64856">
        <ele>379.4</ele>
        <time>2022-06-26T14:15:37Z</time>
      </trkpt>
      <trkpt lat="45.72199" lon="4.64862">
        <ele>379.4</ele>
        <time>2022-06-26T14:15:38Z</time>
      </trkpt>
      <trkpt lat="45.72201" lon="4.64868">
        <ele>379.6</ele>
        <time>2022-06-26T14:15:39Z</time>
      </trkpt>
      <trkpt lat="45.72203" lon="4.64873">
        <ele>379.6</ele>
        <time>2022-06-26T14:15:40Z</time>
      </trkpt>
      <trkpt lat="45.72205" lon="4.64878">
        <ele>379.8</ele>
        <time>2022-06-26T14:15:41Z</time>
      </trkpt>
      <trkpt lat="45.72206" lon="4.64883">
        <ele>379.8</ele>
        <time>2022-06-26T14:15:42Z</time>
      </trkpt>
      <trkpt lat="45.72208" lon="4.64889">
        <ele>379.8</ele>
        <time>2022-06-26T14:15:43Z</time>
      </trkpt>
      <trkpt lat="45.7221" lon="4.64894">
        <ele>380.2</ele>
        <time>2022-06-26T14:15:44Z</time>
      </trkpt>
      <trkpt lat="45.72212" lon="4.64899">
        <ele>380.2</ele>
        <time>2022-06-26T14:15:45Z</time>
      </trkpt>
      <trkpt lat="45.72215" lon="4.64905">
        <ele>380.4</ele>
        <time>2022-06-26T14:15:48Z</time>
      </trkpt>
      <trkpt lat="45.72217" lon="4.6491">
        <ele>380.4</ele>
        <time>2022-06-26T14:15:49Z</time>
      </trkpt>
      <trkpt lat="45.7222" lon="4.64915">
        <ele>380.6</ele>
        <time>2022-06-26T14:15:50Z</time>
      </trkpt>
      <trkpt lat="45.72222" lon="4.6492">
        <ele>380.6</ele>
        <time>2022-06-26T14:15:51Z</time>
      </trkpt>
      <trkpt lat="45.72226" lon="4.64925">
        <ele>381</ele>
        <time>2022-06-26T14:15:52Z</time>
      </trkpt>
      <trkpt lat="45.72229" lon="4.6493">
        <ele>381</ele>
        <time>2022-06-26T14:15:53Z</time>
      </trkpt>
      <trkpt lat="45.72233" lon="4.64935">
        <ele>381</ele>
        <time>2022-06-26T14:15:54Z</time>
      </trkpt>
      <trkpt lat="45.72236" lon="4.6494">
        <ele>381</ele>
        <time>2022-06-26T14:15:55Z</time>
      </trkpt>
      <trkpt lat="45.72241" lon="4.64945">
        <ele>381</ele>
        <time>2022-06-26T14:15:56Z</time>
      </trkpt>
      <trkpt lat="45.72245" lon="4.6495">
        <ele>381.2</ele>
        <time>2022-06-26T14:15:57Z</time>
      </trkpt>
      <trkpt lat="45.72249" lon="4.64955">
        <ele>381.2</ele>
        <time>2022-06-26T14:15:58Z</time>
      </trkpt>
      <trkpt lat="45.72254" lon="4.64959">
        <ele>380.8</ele>
        <time>2022-06-26T14:15:59Z</time>
      </trkpt>
      <trkpt lat="45.7226" lon="4.64962">
        <ele>380.8</ele>
        <time>2022-06-26T14:16:00Z</time>
      </trkpt>
      <trkpt lat="45.72266" lon="4.64965">
        <ele>380.4</ele>
        <time>2022-06-26T14:16:01Z</time>
      </trkpt>
      <trkpt lat="45.72272" lon="4.64967">
        <ele>380.2</ele>
        <time>2022-06-26T14:16:02Z</time>
      </trkpt>
      <trkpt lat="45.72278" lon="4.64968">
        <ele>380</ele>
        <time>2022-06-26T14:16:03Z</time>
      </trkpt>
      <trkpt lat="45.72285" lon="4.64969">
        <ele>379.8</ele>
        <time>2022-06-26T14:16:04Z</time>
      </trkpt>
      <trkpt lat="45.72291" lon="4.64969">
        <ele>379.8</ele>
        <time>2022-06-26T14:16:05Z</time>
      </trkpt>
      <trkpt lat="45.72298" lon="4.64968">
        <ele>379.4</ele>
        <time>2022-06-26T14:16:06Z</time>
      </trkpt>
      <trkpt lat="45.72305" lon="4.64966">
        <ele>379.4</ele>
        <time>2022-06-26T14:16:07Z</time>
      </trkpt>
      <trkpt lat="45.72311" lon="4.64963">
        <ele>379</ele>
        <time>2022-06-26T14:16:08Z</time>
      </trkpt>
      <trkpt lat="45.72318" lon="4.64961">
        <ele>379</ele>
        <time>2022-06-26T14:16:09Z</time>
      </trkpt>
      <trkpt lat="45.72325" lon="4.6496">
        <ele>378.6</ele>
        <time>2022-06-26T14:16:10Z</time>
      </trkpt>
      <trkpt lat="45.72332" lon="4.64957">
        <ele>378.2</ele>
        <time>2022-06-26T14:16:11Z</time>
      </trkpt>
      <trkpt lat="45.72339" lon="4.64955">
        <ele>378</ele>
        <time>2022-06-26T14:16:12Z</time>
      </trkpt>
      <trkpt lat="45.72347" lon="4.64955">
        <ele>377.8</ele>
        <time>2022-06-26T14:16:13Z</time>
      </trkpt>
      <trkpt lat="45.72354" lon="4.64956">
        <ele>377.4</ele>
        <time>2022-06-26T14:16:14Z</time>
      </trkpt>
      <trkpt lat="45.72361" lon="4.64959">
        <ele>377.2</ele>
        <time>2022-06-26T14:16:15Z</time>
      </trkpt>
      <trkpt lat="45.72368" lon="4.64966">
        <ele>377.2</ele>
        <time>2022-06-26T14:16:16Z</time>
      </trkpt>
      <trkpt lat="45.72372" lon="4.64974">
        <ele>377.2</ele>
        <time>2022-06-26T14:16:17Z</time>
      </trkpt>
      <trkpt lat="45.72375" lon="4.64982">
        <ele>377</ele>
        <time>2022-06-26T14:16:18Z</time>
      </trkpt>
      <trkpt lat="45.72375" lon="4.64992">
        <ele>377</ele>
        <time>2022-06-26T14:16:19Z</time>
      </trkpt>
      <trkpt lat="45.72375" lon="4.65002">
        <ele>377</ele>
        <time>2022-06-26T14:16:20Z</time>
      </trkpt>
      <trkpt lat="45.72374" lon="4.65011">
        <ele>377</ele>
        <time>2022-06-26T14:16:21Z</time>
      </trkpt>
      <trkpt lat="45.72374" lon="4.65021">
        <ele>377</ele>
        <time>2022-06-26T14:16:22Z</time>
      </trkpt>
      <trkpt lat="45.72374" lon="4.65031">
        <ele>377</ele>
        <time>2022-06-26T14:16:23Z</time>
      </trkpt>
      <trkpt lat="45.72373" lon="4.6504">
        <ele>377.2</ele>
        <time>2022-06-26T14:16:24Z</time>
      </trkpt>
      <trkpt lat="45.72373" lon="4.65048">
        <ele>377.2</ele>
        <time>2022-06-26T14:16:25Z</time>
      </trkpt>
      <trkpt lat="45.72373" lon="4.65057">
        <ele>377.4</ele>
        <time>2022-06-26T14:16:26Z</time>
      </trkpt>
      <trkpt lat="45.72373" lon="4.65065">
        <ele>377.4</ele>
        <time>2022-06-26T14:16:27Z</time>
      </trkpt>
      <trkpt lat="45.72373" lon="4.65073">
        <ele>377.8</ele>
        <time>2022-06-26T14:16:28Z</time>
      </trkpt>
      <trkpt lat="45.72373" lon="4.6508">
        <ele>377.8</ele>
        <time>2022-06-26T14:16:29Z</time>
      </trkpt>
      <trkpt lat="45.72373" lon="4.65088">
        <ele>378.2</ele>
        <time>2022-06-26T14:16:30Z</time>
      </trkpt>
      <trkpt lat="45.72373" lon="4.65095">
        <ele>378.2</ele>
        <time>2022-06-26T14:16:31Z</time>
      </trkpt>
      <trkpt lat="45.72373" lon="4.65102">
        <ele>378.4</ele>
        <time>2022-06-26T14:16:32Z</time>
      </trkpt>
      <trkpt lat="45.72373" lon="4.6511">
        <ele>378.4</ele>
        <time>2022-06-26T14:16:33Z</time>
      </trkpt>
      <trkpt lat="45.72374" lon="4.65117">
        <ele>378.6</ele>
        <time>2022-06-26T14:16:34Z</time>
      </trkpt>
      <trkpt lat="45.72374" lon="4.65124">
        <ele>378.6</ele>
        <time>2022-06-26T14:16:35Z</time>
      </trkpt>
      <trkpt lat="45.72374" lon="4.65131">
        <ele>378.8</ele>
        <time>2022-06-26T14:16:36Z</time>
      </trkpt>
      <trkpt lat="45.72375" lon="4.65138">
        <ele>378.8</ele>
        <time>2022-06-26T14:16:37Z</time>
      </trkpt>
      <trkpt lat="45.72376" lon="4.65146">
        <ele>379.2</ele>
        <time>2022-06-26T14:16:38Z</time>
      </trkpt>
      <trkpt lat="45.72377" lon="4.65152">
        <ele>379.2</ele>
        <time>2022-06-26T14:16:39Z</time>
      </trkpt>
      <trkpt lat="45.72379" lon="4.65163">
        <ele>379.4</ele>
        <time>2022-06-26T14:16:40Z</time>
      </trkpt>
      <trkpt lat="45.72379" lon="4.65166">
        <ele>379.4</ele>
        <time>2022-06-26T14:16:41Z</time>
      </trkpt>
      <trkpt lat="45.72381" lon="4.65173">
        <ele>379.8</ele>
        <time>2022-06-26T14:16:42Z</time>
      </trkpt>
      <trkpt lat="45.72382" lon="4.65179">
        <ele>379.8</ele>
        <time>2022-06-26T14:16:43Z</time>
      </trkpt>
      <trkpt lat="45.72383" lon="4.65186">
        <ele>380</ele>
        <time>2022-06-26T14:16:44Z</time>
      </trkpt>
      <trkpt lat="45.72384" lon="4.65193">
        <ele>380</ele>
        <time>2022-06-26T14:16:45Z</time>
      </trkpt>
      <trkpt lat="45.72385" lon="4.652">
        <ele>380</ele>
        <time>2022-06-26T14:16:46Z</time>
      </trkpt>
      <trkpt lat="45.72387" lon="4.65207">
        <ele>380.4</ele>
        <time>2022-06-26T14:16:47Z</time>
      </trkpt>
      <trkpt lat="45.72388" lon="4.65213">
        <ele>380.4</ele>
        <time>2022-06-26T14:16:48Z</time>
      </trkpt>
      <trkpt lat="45.7239" lon="4.6522">
        <ele>380.6</ele>
        <time>2022-06-26T14:16:49Z</time>
      </trkpt>
      <trkpt lat="45.72392" lon="4.65226">
        <ele>380.6</ele>
        <time>2022-06-26T14:16:50Z</time>
      </trkpt>
      <trkpt lat="45.72393" lon="4.65232">
        <ele>380.8</ele>
        <time>2022-06-26T14:16:51Z</time>
      </trkpt>
      <trkpt lat="45.72395" lon="4.65238">
        <ele>380.8</ele>
        <time>2022-06-26T14:16:52Z</time>
      </trkpt>
      <trkpt lat="45.72397" lon="4.65244">
        <ele>380.8</ele>
        <time>2022-06-26T14:16:53Z</time>
      </trkpt>
      <trkpt lat="45.72399" lon="4.65249">
        <ele>381.2</ele>
        <time>2022-06-26T14:16:54Z</time>
      </trkpt>
      <trkpt lat="45.72401" lon="4.65255">
        <ele>381.2</ele>
        <time>2022-06-26T14:16:55Z</time>
      </trkpt>
      <trkpt lat="45.72404" lon="4.6526">
        <ele>381.6</ele>
        <time>2022-06-26T14:16:56Z</time>
      </trkpt>
      <trkpt lat="45.72406" lon="4.65265">
        <ele>381.8</ele>
        <time>2022-06-26T14:16:57Z</time>
      </trkpt>
      <trkpt lat="45.72408" lon="4.6527">
        <ele>381.8</ele>
        <time>2022-06-26T14:16:58Z</time>
      </trkpt>
      <trkpt lat="45.72411" lon="4.65275">
        <ele>382</ele>
        <time>2022-06-26T14:16:59Z</time>
      </trkpt>
      <trkpt lat="45.72413" lon="4.6528">
        <ele>382</ele>
        <time>2022-06-26T14:17:00Z</time>
      </trkpt>
      <trkpt lat="45.72416" lon="4.65284">
        <ele>382.4</ele>
        <time>2022-06-26T14:17:01Z</time>
      </trkpt>
      <trkpt lat="45.72418" lon="4.65289">
        <ele>382.6</ele>
        <time>2022-06-26T14:17:02Z</time>
      </trkpt>
      <trkpt lat="45.72421" lon="4.65293">
        <ele>382.6</ele>
        <time>2022-06-26T14:17:03Z</time>
      </trkpt>
      <trkpt lat="45.72423" lon="4.65297">
        <ele>382.8</ele>
        <time>2022-06-26T14:17:04Z</time>
      </trkpt>
      <trkpt lat="45.72426" lon="4.65301">
        <ele>382.8</ele>
        <time>2022-06-26T14:17:05Z</time>
      </trkpt>
      <trkpt lat="45.72429" lon="4.65305">
        <ele>383.2</ele>
        <time>2022-06-26T14:17:06Z</time>
      </trkpt>
      <trkpt lat="45.72432" lon="4.65309">
        <ele>383.2</ele>
        <time>2022-06-26T14:17:07Z</time>
      </trkpt>
      <trkpt lat="45.72436" lon="4.65313">
        <ele>383.4</ele>
        <time>2022-06-26T14:17:08Z</time>
      </trkpt>
      <trkpt lat="45.72439" lon="4.65317">
        <ele>383.4</ele>
        <time>2022-06-26T14:17:09Z</time>
      </trkpt>
      <trkpt lat="45.72443" lon="4.6532">
        <ele>383.8</ele>
        <time>2022-06-26T14:17:10Z</time>
      </trkpt>
      <trkpt lat="45.72447" lon="4.65322">
        <ele>383.8</ele>
        <time>2022-06-26T14:17:11Z</time>
      </trkpt>
      <trkpt lat="45.7245" lon="4.65325">
        <ele>384</ele>
        <time>2022-06-26T14:17:12Z</time>
      </trkpt>
      <trkpt lat="45.72454" lon="4.65328">
        <ele>384</ele>
        <time>2022-06-26T14:17:13Z</time>
      </trkpt>
      <trkpt lat="45.72458" lon="4.65331">
        <ele>384.2</ele>
        <time>2022-06-26T14:17:14Z</time>
      </trkpt>
      <trkpt lat="45.72462" lon="4.65333">
        <ele>384.2</ele>
        <time>2022-06-26T14:17:15Z</time>
      </trkpt>
      <trkpt lat="45.72466" lon="4.65335">
        <ele>384.6</ele>
        <time>2022-06-26T14:17:16Z</time>
      </trkpt>
      <trkpt lat="45.7247" lon="4.65338">
        <ele>384.6</ele>
        <time>2022-06-26T14:17:17Z</time>
      </trkpt>
      <trkpt lat="45.72474" lon="4.65341">
        <ele>384.8</ele>
        <time>2022-06-26T14:17:18Z</time>
      </trkpt>
      <trkpt lat="45.72478" lon="4.65343">
        <ele>384.8</ele>
        <time>2022-06-26T14:17:19Z</time>
      </trkpt>
      <trkpt lat="45.72482" lon="4.65345">
        <ele>384.8</ele>
        <time>2022-06-26T14:17:20Z</time>
      </trkpt>
      <trkpt lat="45.72486" lon="4.65348">
        <ele>385</ele>
        <time>2022-06-26T14:17:21Z</time>
      </trkpt>
      <trkpt lat="45.7249" lon="4.6535">
        <ele>385</ele>
        <time>2022-06-26T14:17:22Z</time>
      </trkpt>
      <trkpt lat="45.72494" lon="4.65353">
        <ele>385.2</ele>
        <time>2022-06-26T14:17:23Z</time>
      </trkpt>
      <trkpt lat="45.72499" lon="4.65356">
        <ele>385.2</ele>
        <time>2022-06-26T14:17:24Z</time>
      </trkpt>
      <trkpt lat="45.72503" lon="4.65359">
        <ele>385.2</ele>
        <time>2022-06-26T14:17:25Z</time>
      </trkpt>
      <trkpt lat="45.72507" lon="4.65362">
        <ele>385.6</ele>
        <time>2022-06-26T14:17:26Z</time>
      </trkpt>
      <trkpt lat="45.72512" lon="4.65365">
        <ele>385.6</ele>
        <time>2022-06-26T14:17:27Z</time>
      </trkpt>
      <trkpt lat="45.72517" lon="4.65369">
        <ele>385.6</ele>
        <time>2022-06-26T14:17:28Z</time>
      </trkpt>
      <trkpt lat="45.72522" lon="4.65373">
        <ele>385.6</ele>
        <time>2022-06-26T14:17:29Z</time>
      </trkpt>
      <trkpt lat="45.72527" lon="4.65377">
        <ele>385.6</ele>
        <time>2022-06-26T14:17:30Z</time>
      </trkpt>
      <trkpt lat="45.72533" lon="4.65381">
        <ele>385.2</ele>
        <time>2022-06-26T14:17:31Z</time>
      </trkpt>
      <trkpt lat="45.72539" lon="4.65386">
        <ele>385.2</ele>
        <time>2022-06-26T14:17:32Z</time>
      </trkpt>
      <trkpt lat="45.72545" lon="4.6539">
        <ele>385</ele>
        <time>2022-06-26T14:17:33Z</time>
      </trkpt>
      <trkpt lat="45.72551" lon="4.65394">
        <ele>385</ele>
        <time>2022-06-26T14:17:34Z</time>
      </trkpt>
      <trkpt lat="45.72557" lon="4.65398">
        <ele>384.6</ele>
        <time>2022-06-26T14:17:35Z</time>
      </trkpt>
      <trkpt lat="45.72564" lon="4.65401">
        <ele>384.6</ele>
        <time>2022-06-26T14:17:36Z</time>
      </trkpt>
      <trkpt lat="45.7257" lon="4.65405">
        <ele>384.4</ele>
        <time>2022-06-26T14:17:37Z</time>
      </trkpt>
      <trkpt lat="45.72577" lon="4.65408">
        <ele>384.2</ele>
        <time>2022-06-26T14:17:38Z</time>
      </trkpt>
      <trkpt lat="45.72584" lon="4.65411">
        <ele>384.2</ele>
        <time>2022-06-26T14:17:39Z</time>
      </trkpt>
      <trkpt lat="45.7259" lon="4.65414">
        <ele>383.8</ele>
        <time>2022-06-26T14:17:40Z</time>
      </trkpt>
      <trkpt lat="45.72597" lon="4.65418">
        <ele>383.6</ele>
        <time>2022-06-26T14:17:41Z</time>
      </trkpt>
      <trkpt lat="45.72604" lon="4.65422">
        <ele>383.6</ele>
        <time>2022-06-26T14:17:42Z</time>
      </trkpt>
      <trkpt lat="45.7261" lon="4.65426">
        <ele>383.2</ele>
        <time>2022-06-26T14:17:43Z</time>
      </trkpt>
      <trkpt lat="45.72616" lon="4.65432">
        <ele>383.2</ele>
        <time>2022-06-26T14:17:44Z</time>
      </trkpt>
      <trkpt lat="45.7262" lon="4.65439">
        <ele>383</ele>
        <time>2022-06-26T14:17:45Z</time>
      </trkpt>
      <trkpt lat="45.72623" lon="4.65447">
        <ele>383</ele>
        <time>2022-06-26T14:17:46Z</time>
      </trkpt>
      <trkpt lat="45.72626" lon="4.65455">
        <ele>383</ele>
        <time>2022-06-26T14:17:47Z</time>
      </trkpt>
      <trkpt lat="45.72628" lon="4.65463">
        <ele>383</ele>
        <time>2022-06-26T14:17:48Z</time>
      </trkpt>
      <trkpt lat="45.72631" lon="4.65471">
        <ele>383.4</ele>
        <time>2022-06-26T14:17:49Z</time>
      </trkpt>
      <trkpt lat="45.72634" lon="4.65478">
        <ele>383.6</ele>
        <time>2022-06-26T14:17:50Z</time>
      </trkpt>
      <trkpt lat="45.72636" lon="4.65485">
        <ele>383.8</ele>
        <time>2022-06-26T14:17:51Z</time>
      </trkpt>
      <trkpt lat="45.72639" lon="4.65491">
        <ele>384.2</ele>
        <time>2022-06-26T14:17:52Z</time>
      </trkpt>
      <trkpt lat="45.72642" lon="4.65498">
        <ele>384.6</ele>
        <time>2022-06-26T14:17:53Z</time>
      </trkpt>
      <trkpt lat="45.72646" lon="4.65503">
        <ele>385</ele>
        <time>2022-06-26T14:17:54Z</time>
      </trkpt>
      <trkpt lat="45.72649" lon="4.65509">
        <ele>385.2</ele>
        <time>2022-06-26T14:17:55Z</time>
      </trkpt>
      <trkpt lat="45.72653" lon="4.65514">
        <ele>385.2</ele>
        <time>2022-06-26T14:17:56Z</time>
      </trkpt>
      <trkpt lat="45.72657" lon="4.65519">
        <ele>385.6</ele>
        <time>2022-06-26T14:17:57Z</time>
      </trkpt>
      <trkpt lat="45.7266" lon="4.65524">
        <ele>385.6</ele>
        <time>2022-06-26T14:17:58Z</time>
      </trkpt>
      <trkpt lat="45.72664" lon="4.65529">
        <ele>386</ele>
        <time>2022-06-26T14:17:59Z</time>
      </trkpt>
      <trkpt lat="45.72667" lon="4.65533">
        <ele>386</ele>
        <time>2022-06-26T14:18:00Z</time>
      </trkpt>
      <trkpt lat="45.72671" lon="4.65538">
        <ele>386.2</ele>
        <time>2022-06-26T14:18:01Z</time>
      </trkpt>
      <trkpt lat="45.72674" lon="4.65541">
        <ele>386.2</ele>
        <time>2022-06-26T14:18:02Z</time>
      </trkpt>
      <trkpt lat="45.72678" lon="4.65544">
        <ele>386.6</ele>
        <time>2022-06-26T14:18:03Z</time>
      </trkpt>
      <trkpt lat="45.72682" lon="4.65546">
        <ele>386.6</ele>
        <time>2022-06-26T14:18:04Z</time>
      </trkpt>
      <trkpt lat="45.72685" lon="4.65548">
        <ele>387</ele>
        <time>2022-06-26T14:18:05Z</time>
      </trkpt>
      <trkpt lat="45.72688" lon="4.65549">
        <ele>387</ele>
        <time>2022-06-26T14:18:06Z</time>
      </trkpt>
      <trkpt lat="45.72691" lon="4.65551">
        <ele>387.2</ele>
        <time>2022-06-26T14:18:07Z</time>
      </trkpt>
      <trkpt lat="45.72695" lon="4.65554">
        <ele>387.2</ele>
        <time>2022-06-26T14:18:08Z</time>
      </trkpt>
      <trkpt lat="45.72698" lon="4.65557">
        <ele>387.2</ele>
        <time>2022-06-26T14:18:09Z</time>
      </trkpt>
      <trkpt lat="45.72703" lon="4.6556">
        <ele>387.2</ele>
        <time>2022-06-26T14:18:10Z</time>
      </trkpt>
      <trkpt lat="45.72707" lon="4.65564">
        <ele>387.2</ele>
        <time>2022-06-26T14:18:11Z</time>
      </trkpt>
      <trkpt lat="45.72712" lon="4.65568">
        <ele>386.8</ele>
        <time>2022-06-26T14:18:12Z</time>
      </trkpt>
      <trkpt lat="45.72718" lon="4.65571">
        <ele>386.8</ele>
        <time>2022-06-26T14:18:13Z</time>
      </trkpt>
      <trkpt lat="45.72724" lon="4.65575">
        <ele>386.6</ele>
        <time>2022-06-26T14:18:14Z</time>
      </trkpt>
      <trkpt lat="45.7273" lon="4.65579">
        <ele>386.2</ele>
        <time>2022-06-26T14:18:15Z</time>
      </trkpt>
      <trkpt lat="45.72736" lon="4.65584">
        <ele>386</ele>
        <time>2022-06-26T14:18:16Z</time>
      </trkpt>
      <trkpt lat="45.72742" lon="4.65589">
        <ele>385.6</ele>
        <time>2022-06-26T14:18:17Z</time>
      </trkpt>
      <trkpt lat="45.72749" lon="4.65594">
        <ele>385.4</ele>
        <time>2022-06-26T14:18:18Z</time>
      </trkpt>
      <trkpt lat="45.72755" lon="4.656">
        <ele>385</ele>
        <time>2022-06-26T14:18:19Z</time>
      </trkpt>
      <trkpt lat="45.72762" lon="4.65605">
        <ele>384.6</ele>
        <time>2022-06-26T14:18:20Z</time>
      </trkpt>
      <trkpt lat="45.72768" lon="4.65611">
        <ele>384.2</ele>
        <time>2022-06-26T14:18:21Z</time>
      </trkpt>
      <trkpt lat="45.72775" lon="4.65616">
        <ele>383.8</ele>
        <time>2022-06-26T14:18:22Z</time>
      </trkpt>
      <trkpt lat="45.72782" lon="4.65622">
        <ele>383.4</ele>
        <time>2022-06-26T14:18:23Z</time>
      </trkpt>
      <trkpt lat="45.72789" lon="4.65628">
        <ele>383</ele>
        <time>2022-06-26T14:18:24Z</time>
      </trkpt>
      <trkpt lat="45.72796" lon="4.65633">
        <ele>382.6</ele>
        <time>2022-06-26T14:18:25Z</time>
      </trkpt>
      <trkpt lat="45.72803" lon="4.65639">
        <ele>382.6</ele>
        <time>2022-06-26T14:18:26Z</time>
      </trkpt>
      <trkpt lat="45.7281" lon="4.65645">
        <ele>382.2</ele>
        <time>2022-06-26T14:18:27Z</time>
      </trkpt>
      <trkpt lat="45.72817" lon="4.65651">
        <ele>381.8</ele>
        <time>2022-06-26T14:18:28Z</time>
      </trkpt>
      <trkpt lat="45.72824" lon="4.65657">
        <ele>381.6</ele>
        <time>2022-06-26T14:18:29Z</time>
      </trkpt>
      <trkpt lat="45.72832" lon="4.65663">
        <ele>381.6</ele>
        <time>2022-06-26T14:18:30Z</time>
      </trkpt>
      <trkpt lat="45.72839" lon="4.65668">
        <ele>381.2</ele>
        <time>2022-06-26T14:18:31Z</time>
      </trkpt>
      <trkpt lat="45.72847" lon="4.65673">
        <ele>380.8</ele>
        <time>2022-06-26T14:18:32Z</time>
      </trkpt>
      <trkpt lat="45.72855" lon="4.65678">
        <ele>380.2</ele>
        <time>2022-06-26T14:18:34Z</time>
      </trkpt>
      <trkpt lat="45.72863" lon="4.65682">
        <ele>379.6</ele>
        <time>2022-06-26T14:18:35Z</time>
      </trkpt>
      <trkpt lat="45.72871" lon="4.65687">
        <ele>379.2</ele>
        <time>2022-06-26T14:18:36Z</time>
      </trkpt>
      <trkpt lat="45.72879" lon="4.65692">
        <ele>378.6</ele>
        <time>2022-06-26T14:18:37Z</time>
      </trkpt>
      <trkpt lat="45.72888" lon="4.65697">
        <ele>378</ele>
        <time>2022-06-26T14:18:38Z</time>
      </trkpt>
      <trkpt lat="45.72897" lon="4.65702">
        <ele>377.4</ele>
        <time>2022-06-26T14:18:39Z</time>
      </trkpt>
      <trkpt lat="45.72906" lon="4.65708">
        <ele>377</ele>
        <time>2022-06-26T14:18:40Z</time>
      </trkpt>
      <trkpt lat="45.72914" lon="4.65712">
        <ele>376.8</ele>
        <time>2022-06-26T14:18:41Z</time>
      </trkpt>
      <trkpt lat="45.72923" lon="4.65716">
        <ele>376.4</ele>
        <time>2022-06-26T14:18:42Z</time>
      </trkpt>
      <trkpt lat="45.72933" lon="4.65722">
        <ele>376</ele>
        <time>2022-06-26T14:18:43Z</time>
      </trkpt>
      <trkpt lat="45.72941" lon="4.65727">
        <ele>375.6</ele>
        <time>2022-06-26T14:18:44Z</time>
      </trkpt>
      <trkpt lat="45.7295" lon="4.65731">
        <ele>375</ele>
        <time>2022-06-26T14:18:45Z</time>
      </trkpt>
      <trkpt lat="45.72959" lon="4.65735">
        <ele>374.6</ele>
        <time>2022-06-26T14:18:46Z</time>
      </trkpt>
      <trkpt lat="45.72968" lon="4.65741">
        <ele>374.2</ele>
        <time>2022-06-26T14:18:47Z</time>
      </trkpt>
      <trkpt lat="45.72977" lon="4.65749">
        <ele>373.6</ele>
        <time>2022-06-26T14:18:48Z</time>
      </trkpt>
      <trkpt lat="45.72986" lon="4.65754">
        <ele>373.2</ele>
        <time>2022-06-26T14:18:49Z</time>
      </trkpt>
      <trkpt lat="45.72993" lon="4.65761">
        <ele>372.8</ele>
        <time>2022-06-26T14:18:50Z</time>
      </trkpt>
      <trkpt lat="45.73002" lon="4.65766">
        <ele>372.4</ele>
        <time>2022-06-26T14:18:51Z</time>
      </trkpt>
      <trkpt lat="45.73011" lon="4.65771">
        <ele>372</ele>
        <time>2022-06-26T14:18:52Z</time>
      </trkpt>
      <trkpt lat="45.73019" lon="4.65775">
        <ele>371.6</ele>
        <time>2022-06-26T14:18:53Z</time>
      </trkpt>
      <trkpt lat="45.73028" lon="4.65779">
        <ele>371.2</ele>
        <time>2022-06-26T14:18:54Z</time>
      </trkpt>
      <trkpt lat="45.73038" lon="4.65779">
        <ele>370.8</ele>
        <time>2022-06-26T14:18:55Z</time>
      </trkpt>
      <trkpt lat="45.73048" lon="4.6578">
        <ele>370.4</ele>
        <time>2022-06-26T14:18:56Z</time>
      </trkpt>
      <trkpt lat="45.73058" lon="4.6578">
        <ele>370</ele>
        <time>2022-06-26T14:18:57Z</time>
      </trkpt>
      <trkpt lat="45.73068" lon="4.6578">
        <ele>369.6</ele>
        <time>2022-06-26T14:18:58Z</time>
      </trkpt>
      <trkpt lat="45.73078" lon="4.65778">
        <ele>369.2</ele>
        <time>2022-06-26T14:18:59Z</time>
      </trkpt>
      <trkpt lat="45.73087" lon="4.65774">
        <ele>368.8</ele>
        <time>2022-06-26T14:19:00Z</time>
      </trkpt>
      <trkpt lat="45.73096" lon="4.65771">
        <ele>368.4</ele>
        <time>2022-06-26T14:19:01Z</time>
      </trkpt>
      <trkpt lat="45.73106" lon="4.65768">
        <ele>368</ele>
        <time>2022-06-26T14:19:02Z</time>
      </trkpt>
      <trkpt lat="45.73116" lon="4.65765">
        <ele>367.6</ele>
        <time>2022-06-26T14:19:03Z</time>
      </trkpt>
      <trkpt lat="45.73126" lon="4.65761">
        <ele>367.2</ele>
        <time>2022-06-26T14:19:04Z</time>
      </trkpt>
      <trkpt lat="45.73135" lon="4.65757">
        <ele>367</ele>
        <time>2022-06-26T14:19:05Z</time>
      </trkpt>
      <trkpt lat="45.73145" lon="4.65751">
        <ele>366.4</ele>
        <time>2022-06-26T14:19:06Z</time>
      </trkpt>
      <trkpt lat="45.73155" lon="4.65745">
        <ele>366</ele>
        <time>2022-06-26T14:19:07Z</time>
      </trkpt>
      <trkpt lat="45.73164" lon="4.65738">
        <ele>365.6</ele>
        <time>2022-06-26T14:19:08Z</time>
      </trkpt>
      <trkpt lat="45.73172" lon="4.6573">
        <ele>365</ele>
        <time>2022-06-26T14:19:09Z</time>
      </trkpt>
      <trkpt lat="45.73181" lon="4.65723">
        <ele>364.6</ele>
        <time>2022-06-26T14:19:10Z</time>
      </trkpt>
      <trkpt lat="45.73188" lon="4.65715">
        <ele>364</ele>
        <time>2022-06-26T14:19:11Z</time>
      </trkpt>
      <trkpt lat="45.73196" lon="4.65709">
        <ele>363.6</ele>
        <time>2022-06-26T14:19:12Z</time>
      </trkpt>
      <trkpt lat="45.73203" lon="4.65705">
        <ele>363</ele>
        <time>2022-06-26T14:19:13Z</time>
      </trkpt>
      <trkpt lat="45.7321" lon="4.65704">
        <ele>362.6</ele>
        <time>2022-06-26T14:19:14Z</time>
      </trkpt>
      <trkpt lat="45.73217" lon="4.65707">
        <ele>362.2</ele>
        <time>2022-06-26T14:19:15Z</time>
      </trkpt>
      <trkpt lat="45.73223" lon="4.65713">
        <ele>362</ele>
        <time>2022-06-26T14:19:16Z</time>
      </trkpt>
      <trkpt lat="45.73227" lon="4.65721">
        <ele>362</ele>
        <time>2022-06-26T14:19:17Z</time>
      </trkpt>
      <trkpt lat="45.73228" lon="4.65731">
        <ele>361.8</ele>
        <time>2022-06-26T14:19:18Z</time>
      </trkpt>
      <trkpt lat="45.73228" lon="4.6574">
        <ele>361.8</ele>
        <time>2022-06-26T14:19:19Z</time>
      </trkpt>
      <trkpt lat="45.73226" lon="4.6576">
        <ele>361.8</ele>
        <time>2022-06-26T14:19:20Z</time>
      </trkpt>
      <trkpt lat="45.73224" lon="4.65769">
        <ele>361.8</ele>
        <time>2022-06-26T14:19:21Z</time>
      </trkpt>
      <trkpt lat="45.73221" lon="4.65778">
        <ele>361.4</ele>
        <time>2022-06-26T14:19:22Z</time>
      </trkpt>
      <trkpt lat="45.73218" lon="4.65786">
        <ele>361.4</ele>
        <time>2022-06-26T14:19:23Z</time>
      </trkpt>
      <trkpt lat="45.73215" lon="4.65795">
        <ele>361.4</ele>
        <time>2022-06-26T14:19:24Z</time>
      </trkpt>
      <trkpt lat="45.73212" lon="4.65803">
        <ele>361.4</ele>
        <time>2022-06-26T14:19:25Z</time>
      </trkpt>
      <trkpt lat="45.73209" lon="4.65811">
        <ele>361.4</ele>
        <time>2022-06-26T14:19:26Z</time>
      </trkpt>
      <trkpt lat="45.73206" lon="4.65819">
        <ele>361.4</ele>
        <time>2022-06-26T14:19:27Z</time>
      </trkpt>
      <trkpt lat="45.73202" lon="4.65826">
        <ele>361.8</ele>
        <time>2022-06-26T14:19:28Z</time>
      </trkpt>
      <trkpt lat="45.73199" lon="4.65833">
        <ele>361.8</ele>
        <time>2022-06-26T14:19:29Z</time>
      </trkpt>
      <trkpt lat="45.73195" lon="4.6584">
        <ele>361.8</ele>
        <time>2022-06-26T14:19:30Z</time>
      </trkpt>
      <trkpt lat="45.73192" lon="4.65846">
        <ele>362</ele>
        <time>2022-06-26T14:19:31Z</time>
      </trkpt>
      <trkpt lat="45.73188" lon="4.65853">
        <ele>362</ele>
        <time>2022-06-26T14:19:32Z</time>
      </trkpt>
      <trkpt lat="45.73184" lon="4.65859">
        <ele>362</ele>
        <time>2022-06-26T14:19:33Z</time>
      </trkpt>
      <trkpt lat="45.7318" lon="4.65865">
        <ele>362</ele>
        <time>2022-06-26T14:19:34Z</time>
      </trkpt>
      <trkpt lat="45.73177" lon="4.65871">
        <ele>362.4</ele>
        <time>2022-06-26T14:19:35Z</time>
      </trkpt>
      <trkpt lat="45.73173" lon="4.65877">
        <ele>362.4</ele>
        <time>2022-06-26T14:19:36Z</time>
      </trkpt>
      <trkpt lat="45.7317" lon="4.65884">
        <ele>362.4</ele>
        <time>2022-06-26T14:19:37Z</time>
      </trkpt>
      <trkpt lat="45.73167" lon="4.6589">
        <ele>362.6</ele>
        <time>2022-06-26T14:19:38Z</time>
      </trkpt>
      <trkpt lat="45.73164" lon="4.65896">
        <ele>362.6</ele>
        <time>2022-06-26T14:19:39Z</time>
      </trkpt>
      <trkpt lat="45.73162" lon="4.65903">
        <ele>362.8</ele>
        <time>2022-06-26T14:19:40Z</time>
      </trkpt>
      <trkpt lat="45.7316" lon="4.6591">
        <ele>362.8</ele>
        <time>2022-06-26T14:19:41Z</time>
      </trkpt>
      <trkpt lat="45.73158" lon="4.65917">
        <ele>362.8</ele>
        <time>2022-06-26T14:19:42Z</time>
      </trkpt>
      <trkpt lat="45.73156" lon="4.65924">
        <ele>363</ele>
        <time>2022-06-26T14:19:43Z</time>
      </trkpt>
      <trkpt lat="45.73155" lon="4.65932">
        <ele>363</ele>
        <time>2022-06-26T14:19:44Z</time>
      </trkpt>
      <trkpt lat="45.73154" lon="4.65939">
        <ele>363</ele>
        <time>2022-06-26T14:19:45Z</time>
      </trkpt>
      <trkpt lat="45.73153" lon="4.65947">
        <ele>363.4</ele>
        <time>2022-06-26T14:19:46Z</time>
      </trkpt>
      <trkpt lat="45.73151" lon="4.65954">
        <ele>363.4</ele>
        <time>2022-06-26T14:19:47Z</time>
      </trkpt>
      <trkpt lat="45.7315" lon="4.65962">
        <ele>363.4</ele>
        <time>2022-06-26T14:19:48Z</time>
      </trkpt>
      <trkpt lat="45.73149" lon="4.65969">
        <ele>363.6</ele>
        <time>2022-06-26T14:19:49Z</time>
      </trkpt>
      <trkpt lat="45.73148" lon="4.65977">
        <ele>363.6</ele>
        <time>2022-06-26T14:19:50Z</time>
      </trkpt>
      <trkpt lat="45.73147" lon="4.65984">
        <ele>363.6</ele>
        <time>2022-06-26T14:19:51Z</time>
      </trkpt>
      <trkpt lat="45.73147" lon="4.65992">
        <ele>363.8</ele>
        <time>2022-06-26T14:19:52Z</time>
      </trkpt>
      <trkpt lat="45.73147" lon="4.65999">
        <ele>363.8</ele>
        <time>2022-06-26T14:19:53Z</time>
      </trkpt>
      <trkpt lat="45.73146" lon="4.66006">
        <ele>363.8</ele>
        <time>2022-06-26T14:19:54Z</time>
      </trkpt>
      <trkpt lat="45.73146" lon="4.66014">
        <ele>364.2</ele>
        <time>2022-06-26T14:19:55Z</time>
      </trkpt>
      <trkpt lat="45.73145" lon="4.66021">
        <ele>364.2</ele>
        <time>2022-06-26T14:19:56Z</time>
      </trkpt>
      <trkpt lat="45.73145" lon="4.66029">
        <ele>364.2</ele>
        <time>2022-06-26T14:19:57Z</time>
      </trkpt>
      <trkpt lat="45.73143" lon="4.66037">
        <ele>364.4</ele>
        <time>2022-06-26T14:19:58Z</time>
      </trkpt>
      <trkpt lat="45.73141" lon="4.66044">
        <ele>364.4</ele>
        <time>2022-06-26T14:19:59Z</time>
      </trkpt>
      <trkpt lat="45.73139" lon="4.66051">
        <ele>364.6</ele>
        <time>2022-06-26T14:20:00Z</time>
      </trkpt>
      <trkpt lat="45.73136" lon="4.66057">
        <ele>364.6</ele>
        <time>2022-06-26T14:20:01Z</time>
      </trkpt>
      <trkpt lat="45.73133" lon="4.66063">
        <ele>365</ele>
        <time>2022-06-26T14:20:02Z</time>
      </trkpt>
      <trkpt lat="45.73129" lon="4.66069">
        <ele>365</ele>
        <time>2022-06-26T14:20:03Z</time>
      </trkpt>
      <trkpt lat="45.73125" lon="4.66073">
        <ele>365</ele>
        <time>2022-06-26T14:20:04Z</time>
      </trkpt>
      <trkpt lat="45.73122" lon="4.66078">
        <ele>365.2</ele>
        <time>2022-06-26T14:20:05Z</time>
      </trkpt>
      <trkpt lat="45.73118" lon="4.66083">
        <ele>365.2</ele>
        <time>2022-06-26T14:20:06Z</time>
      </trkpt>
      <trkpt lat="45.73115" lon="4.66088">
        <ele>365.4</ele>
        <time>2022-06-26T14:20:07Z</time>
      </trkpt>
      <trkpt lat="45.73111" lon="4.66093">
        <ele>365.4</ele>
        <time>2022-06-26T14:20:08Z</time>
      </trkpt>
      <trkpt lat="45.73108" lon="4.66098">
        <ele>365.6</ele>
        <time>2022-06-26T14:20:09Z</time>
      </trkpt>
      <trkpt lat="45.73104" lon="4.66104">
        <ele>365.6</ele>
        <time>2022-06-26T14:20:10Z</time>
      </trkpt>
      <trkpt lat="45.731" lon="4.66109">
        <ele>366</ele>
        <time>2022-06-26T14:20:11Z</time>
      </trkpt>
      <trkpt lat="45.73097" lon="4.66115">
        <ele>366</ele>
        <time>2022-06-26T14:20:12Z</time>
      </trkpt>
      <trkpt lat="45.73093" lon="4.66121">
        <ele>366.2</ele>
        <time>2022-06-26T14:20:13Z</time>
      </trkpt>
      <trkpt lat="45.73091" lon="4.66127">
        <ele>366.2</ele>
        <time>2022-06-26T14:20:14Z</time>
      </trkpt>
      <trkpt lat="45.73088" lon="4.66134">
        <ele>366.2</ele>
        <time>2022-06-26T14:20:15Z</time>
      </trkpt>
      <trkpt lat="45.73086" lon="4.66141">
        <ele>366.4</ele>
        <time>2022-06-26T14:20:16Z</time>
      </trkpt>
      <trkpt lat="45.73084" lon="4.66148">
        <ele>366.4</ele>
        <time>2022-06-26T14:20:17Z</time>
      </trkpt>
      <trkpt lat="45.73082" lon="4.66156">
        <ele>366.4</ele>
        <time>2022-06-26T14:20:18Z</time>
      </trkpt>
      <trkpt lat="45.7308" lon="4.66163">
        <ele>366.4</ele>
        <time>2022-06-26T14:20:19Z</time>
      </trkpt>
      <trkpt lat="45.73078" lon="4.66171">
        <ele>366.4</ele>
        <time>2022-06-26T14:20:20Z</time>
      </trkpt>
      <trkpt lat="45.73076" lon="4.66179">
        <ele>366.4</ele>
        <time>2022-06-26T14:20:21Z</time>
      </trkpt>
      <trkpt lat="45.73074" lon="4.66187">
        <ele>366.4</ele>
        <time>2022-06-26T14:20:22Z</time>
      </trkpt>
      <trkpt lat="45.73072" lon="4.66194">
        <ele>366.8</ele>
        <time>2022-06-26T14:20:23Z</time>
      </trkpt>
      <trkpt lat="45.7307" lon="4.66201">
        <ele>366.8</ele>
        <time>2022-06-26T14:20:24Z</time>
      </trkpt>
      <trkpt lat="45.73068" lon="4.66208">
        <ele>366.8</ele>
        <time>2022-06-26T14:20:25Z</time>
      </trkpt>
      <trkpt lat="45.73066" lon="4.66215">
        <ele>367</ele>
        <time>2022-06-26T14:20:26Z</time>
      </trkpt>
      <trkpt lat="45.73063" lon="4.66222">
        <ele>367.2</ele>
        <time>2022-06-26T14:20:27Z</time>
      </trkpt>
      <trkpt lat="45.73061" lon="4.66228">
        <ele>367.2</ele>
        <time>2022-06-26T14:20:28Z</time>
      </trkpt>
      <trkpt lat="45.73059" lon="4.66235">
        <ele>367.2</ele>
        <time>2022-06-26T14:20:29Z</time>
      </trkpt>
      <trkpt lat="45.73057" lon="4.66241">
        <ele>367.6</ele>
        <time>2022-06-26T14:20:30Z</time>
      </trkpt>
      <trkpt lat="45.73054" lon="4.66247">
        <ele>367.6</ele>
        <time>2022-06-26T14:20:31Z</time>
      </trkpt>
      <trkpt lat="45.73051" lon="4.66253">
        <ele>367.6</ele>
        <time>2022-06-26T14:20:32Z</time>
      </trkpt>
      <trkpt lat="45.73048" lon="4.66259">
        <ele>367.8</ele>
        <time>2022-06-26T14:20:33Z</time>
      </trkpt>
      <trkpt lat="45.73045" lon="4.66265">
        <ele>367.8</ele>
        <time>2022-06-26T14:20:34Z</time>
      </trkpt>
      <trkpt lat="45.73042" lon="4.6627">
        <ele>367.8</ele>
        <time>2022-06-26T14:20:35Z</time>
      </trkpt>
      <trkpt lat="45.73039" lon="4.66276">
        <ele>367.8</ele>
        <time>2022-06-26T14:20:36Z</time>
      </trkpt>
      <trkpt lat="45.73035" lon="4.66281">
        <ele>368</ele>
        <time>2022-06-26T14:20:37Z</time>
      </trkpt>
      <trkpt lat="45.73032" lon="4.66286">
        <ele>368</ele>
        <time>2022-06-26T14:20:38Z</time>
      </trkpt>
      <trkpt lat="45.73029" lon="4.66291">
        <ele>368.2</ele>
        <time>2022-06-26T14:20:39Z</time>
      </trkpt>
      <trkpt lat="45.73026" lon="4.66296">
        <ele>368.6</ele>
        <time>2022-06-26T14:20:40Z</time>
      </trkpt>
      <trkpt lat="45.73023" lon="4.66301">
        <ele>368.6</ele>
        <time>2022-06-26T14:20:41Z</time>
      </trkpt>
      <trkpt lat="45.7302" lon="4.66307">
        <ele>368.8</ele>
        <time>2022-06-26T14:20:42Z</time>
      </trkpt>
      <trkpt lat="45.73018" lon="4.66313">
        <ele>368.8</ele>
        <time>2022-06-26T14:20:43Z</time>
      </trkpt>
      <trkpt lat="45.73016" lon="4.66319">
        <ele>369</ele>
        <time>2022-06-26T14:20:44Z</time>
      </trkpt>
      <trkpt lat="45.73014" lon="4.66325">
        <ele>369</ele>
        <time>2022-06-26T14:20:45Z</time>
      </trkpt>
      <trkpt lat="45.73012" lon="4.66331">
        <ele>369</ele>
        <time>2022-06-26T14:20:46Z</time>
      </trkpt>
      <trkpt lat="45.73011" lon="4.66338">
        <ele>369.2</ele>
        <time>2022-06-26T14:20:47Z</time>
      </trkpt>
      <trkpt lat="45.73009" lon="4.66345">
        <ele>369.2</ele>
        <time>2022-06-26T14:20:48Z</time>
      </trkpt>
      <trkpt lat="45.73008" lon="4.66352">
        <ele>369.2</ele>
        <time>2022-06-26T14:20:49Z</time>
      </trkpt>
      <trkpt lat="45.73008" lon="4.66359">
        <ele>369.6</ele>
        <time>2022-06-26T14:20:50Z</time>
      </trkpt>
      <trkpt lat="45.73008" lon="4.66366">
        <ele>369.6</ele>
        <time>2022-06-26T14:20:51Z</time>
      </trkpt>
      <trkpt lat="45.73008" lon="4.66373">
        <ele>369.6</ele>
        <time>2022-06-26T14:20:52Z</time>
      </trkpt>
      <trkpt lat="45.73008" lon="4.66381">
        <ele>369.6</ele>
        <time>2022-06-26T14:20:53Z</time>
      </trkpt>
      <trkpt lat="45.73009" lon="4.66388">
        <ele>369.6</ele>
        <time>2022-06-26T14:20:54Z</time>
      </trkpt>
      <trkpt lat="45.7301" lon="4.66396">
        <ele>369.6</ele>
        <time>2022-06-26T14:20:55Z</time>
      </trkpt>
      <trkpt lat="45.73011" lon="4.66403">
        <ele>369.6</ele>
        <time>2022-06-26T14:20:56Z</time>
      </trkpt>
      <trkpt lat="45.73012" lon="4.66411">
        <ele>369.8</ele>
        <time>2022-06-26T14:20:57Z</time>
      </trkpt>
      <trkpt lat="45.73013" lon="4.66419">
        <ele>369.8</ele>
        <time>2022-06-26T14:20:58Z</time>
      </trkpt>
      <trkpt lat="45.73014" lon="4.66427">
        <ele>369.8</ele>
        <time>2022-06-26T14:20:59Z</time>
      </trkpt>
      <trkpt lat="45.73015" lon="4.66435">
        <ele>369.8</ele>
        <time>2022-06-26T14:21:00Z</time>
      </trkpt>
      <trkpt lat="45.73016" lon="4.66443">
        <ele>369.8</ele>
        <time>2022-06-26T14:21:01Z</time>
      </trkpt>
      <trkpt lat="45.73017" lon="4.66451">
        <ele>369.8</ele>
        <time>2022-06-26T14:21:02Z</time>
      </trkpt>
      <trkpt lat="45.73018" lon="4.66459">
        <ele>369.8</ele>
        <time>2022-06-26T14:21:03Z</time>
      </trkpt>
      <trkpt lat="45.7302" lon="4.66468">
        <ele>369.6</ele>
        <time>2022-06-26T14:21:04Z</time>
      </trkpt>
      <trkpt lat="45.73021" lon="4.66476">
        <ele>369.6</ele>
        <time>2022-06-26T14:21:05Z</time>
      </trkpt>
      <trkpt lat="45.73022" lon="4.66484">
        <ele>369.6</ele>
        <time>2022-06-26T14:21:06Z</time>
      </trkpt>
      <trkpt lat="45.73023" lon="4.66492">
        <ele>369.6</ele>
        <time>2022-06-26T14:21:07Z</time>
      </trkpt>
      <trkpt lat="45.73024" lon="4.66501">
        <ele>369.6</ele>
        <time>2022-06-26T14:21:08Z</time>
      </trkpt>
      <trkpt lat="45.73025" lon="4.66509">
        <ele>369.6</ele>
        <time>2022-06-26T14:21:09Z</time>
      </trkpt>
      <trkpt lat="45.73026" lon="4.66518">
        <ele>369.6</ele>
        <time>2022-06-26T14:21:10Z</time>
      </trkpt>
      <trkpt lat="45.73027" lon="4.66526">
        <ele>369.8</ele>
        <time>2022-06-26T14:21:11Z</time>
      </trkpt>
      <trkpt lat="45.73028" lon="4.66534">
        <ele>369.8</ele>
        <time>2022-06-26T14:21:12Z</time>
      </trkpt>
      <trkpt lat="45.73029" lon="4.66543">
        <ele>369.8</ele>
        <time>2022-06-26T14:21:13Z</time>
      </trkpt>
      <trkpt lat="45.7303" lon="4.66551">
        <ele>370</ele>
        <time>2022-06-26T14:21:14Z</time>
      </trkpt>
      <trkpt lat="45.73031" lon="4.66559">
        <ele>370</ele>
        <time>2022-06-26T14:21:15Z</time>
      </trkpt>
      <trkpt lat="45.73032" lon="4.66566">
        <ele>370</ele>
        <time>2022-06-26T14:21:16Z</time>
      </trkpt>
      <trkpt lat="45.73033" lon="4.66574">
        <ele>370</ele>
        <time>2022-06-26T14:21:17Z</time>
      </trkpt>
      <trkpt lat="45.73033" lon="4.66582">
        <ele>370.2</ele>
        <time>2022-06-26T14:21:18Z</time>
      </trkpt>
      <trkpt lat="45.73034" lon="4.66589">
        <ele>370.4</ele>
        <time>2022-06-26T14:21:19Z</time>
      </trkpt>
      <trkpt lat="45.73035" lon="4.66596">
        <ele>370.4</ele>
        <time>2022-06-26T14:21:20Z</time>
      </trkpt>
      <trkpt lat="45.73036" lon="4.66604">
        <ele>370.4</ele>
        <time>2022-06-26T14:21:21Z</time>
      </trkpt>
      <trkpt lat="45.73037" lon="4.66611">
        <ele>370.4</ele>
        <time>2022-06-26T14:21:22Z</time>
      </trkpt>
      <trkpt lat="45.73038" lon="4.66619">
        <ele>370.4</ele>
        <time>2022-06-26T14:21:23Z</time>
      </trkpt>
      <trkpt lat="45.73039" lon="4.66626">
        <ele>370.4</ele>
        <time>2022-06-26T14:21:24Z</time>
      </trkpt>
      <trkpt lat="45.7304" lon="4.66634">
        <ele>370.4</ele>
        <time>2022-06-26T14:21:25Z</time>
      </trkpt>
      <trkpt lat="45.73042" lon="4.66642">
        <ele>370.4</ele>
        <time>2022-06-26T14:21:26Z</time>
      </trkpt>
      <trkpt lat="45.73044" lon="4.66649">
        <ele>370.8</ele>
        <time>2022-06-26T14:21:27Z</time>
      </trkpt>
      <trkpt lat="45.73046" lon="4.66657">
        <ele>370.8</ele>
        <time>2022-06-26T14:21:28Z</time>
      </trkpt>
      <trkpt lat="45.73048" lon="4.66664">
        <ele>370.8</ele>
        <time>2022-06-26T14:21:29Z</time>
      </trkpt>
      <trkpt lat="45.73051" lon="4.66671">
        <ele>370.8</ele>
        <time>2022-06-26T14:21:30Z</time>
      </trkpt>
      <trkpt lat="45.73054" lon="4.66678">
        <ele>370.4</ele>
        <time>2022-06-26T14:21:31Z</time>
      </trkpt>
      <trkpt lat="45.73058" lon="4.66686">
        <ele>370.4</ele>
        <time>2022-06-26T14:21:32Z</time>
      </trkpt>
      <trkpt lat="45.73061" lon="4.66693">
        <ele>370.2</ele>
        <time>2022-06-26T14:21:33Z</time>
      </trkpt>
      <trkpt lat="45.73065" lon="4.66701">
        <ele>370.2</ele>
        <time>2022-06-26T14:21:34Z</time>
      </trkpt>
      <trkpt lat="45.73068" lon="4.66709">
        <ele>370</ele>
        <time>2022-06-26T14:21:35Z</time>
      </trkpt>
      <trkpt lat="45.73072" lon="4.66717">
        <ele>369.8</ele>
        <time>2022-06-26T14:21:36Z</time>
      </trkpt>
      <trkpt lat="45.73076" lon="4.66725">
        <ele>369.8</ele>
        <time>2022-06-26T14:21:37Z</time>
      </trkpt>
      <trkpt lat="45.7308" lon="4.66733">
        <ele>369.6</ele>
        <time>2022-06-26T14:21:38Z</time>
      </trkpt>
      <trkpt lat="45.73084" lon="4.66742">
        <ele>369.6</ele>
        <time>2022-06-26T14:21:39Z</time>
      </trkpt>
      <trkpt lat="45.73089" lon="4.66751">
        <ele>369.2</ele>
        <time>2022-06-26T14:21:40Z</time>
      </trkpt>
      <trkpt lat="45.73093" lon="4.6676">
        <ele>369.2</ele>
        <time>2022-06-26T14:21:41Z</time>
      </trkpt>
      <trkpt lat="45.73098" lon="4.66769">
        <ele>368.8</ele>
        <time>2022-06-26T14:21:42Z</time>
      </trkpt>
      <trkpt lat="45.73103" lon="4.66778">
        <ele>368.8</ele>
        <time>2022-06-26T14:21:43Z</time>
      </trkpt>
      <trkpt lat="45.73107" lon="4.66787">
        <ele>368.6</ele>
        <time>2022-06-26T14:21:44Z</time>
      </trkpt>
      <trkpt lat="45.73112" lon="4.66796">
        <ele>368.4</ele>
        <time>2022-06-26T14:21:45Z</time>
      </trkpt>
      <trkpt lat="45.73117" lon="4.66805">
        <ele>368.4</ele>
        <time>2022-06-26T14:21:46Z</time>
      </trkpt>
      <trkpt lat="45.73122" lon="4.66814">
        <ele>368</ele>
        <time>2022-06-26T14:21:47Z</time>
      </trkpt>
      <trkpt lat="45.73127" lon="4.66824">
        <ele>368</ele>
        <time>2022-06-26T14:21:48Z</time>
      </trkpt>
      <trkpt lat="45.73131" lon="4.66833">
        <ele>368</ele>
        <time>2022-06-26T14:21:49Z</time>
      </trkpt>
      <trkpt lat="45.73136" lon="4.66842">
        <ele>368</ele>
        <time>2022-06-26T14:21:50Z</time>
      </trkpt>
      <trkpt lat="45.7314" lon="4.66851">
        <ele>368</ele>
        <time>2022-06-26T14:21:51Z</time>
      </trkpt>
      <trkpt lat="45.73144" lon="4.6686">
        <ele>368</ele>
        <time>2022-06-26T14:21:52Z</time>
      </trkpt>
      <trkpt lat="45.73149" lon="4.66869">
        <ele>368</ele>
        <time>2022-06-26T14:21:53Z</time>
      </trkpt>
      <trkpt lat="45.73153" lon="4.66878">
        <ele>368</ele>
        <time>2022-06-26T14:21:54Z</time>
      </trkpt>
      <trkpt lat="45.73157" lon="4.66886">
        <ele>368</ele>
        <time>2022-06-26T14:21:55Z</time>
      </trkpt>
      <trkpt lat="45.73161" lon="4.66894">
        <ele>368</ele>
        <time>2022-06-26T14:21:56Z</time>
      </trkpt>
      <trkpt lat="45.73165" lon="4.66902">
        <ele>368</ele>
        <time>2022-06-26T14:21:57Z</time>
      </trkpt>
      <trkpt lat="45.73168" lon="4.66909">
        <ele>368</ele>
        <time>2022-06-26T14:21:58Z</time>
      </trkpt>
      <trkpt lat="45.73172" lon="4.66917">
        <ele>368</ele>
        <time>2022-06-26T14:21:59Z</time>
      </trkpt>
      <trkpt lat="45.73175" lon="4.66924">
        <ele>368.2</ele>
        <time>2022-06-26T14:22:00Z</time>
      </trkpt>
      <trkpt lat="45.73179" lon="4.66931">
        <ele>368.2</ele>
        <time>2022-06-26T14:22:01Z</time>
      </trkpt>
      <trkpt lat="45.73182" lon="4.66937">
        <ele>368.6</ele>
        <time>2022-06-26T14:22:02Z</time>
      </trkpt>
      <trkpt lat="45.73185" lon="4.66944">
        <ele>368.6</ele>
        <time>2022-06-26T14:22:03Z</time>
      </trkpt>
      <trkpt lat="45.73188" lon="4.66951">
        <ele>368.6</ele>
        <time>2022-06-26T14:22:04Z</time>
      </trkpt>
      <trkpt lat="45.73191" lon="4.66958">
        <ele>368.6</ele>
        <time>2022-06-26T14:22:05Z</time>
      </trkpt>
      <trkpt lat="45.73195" lon="4.66966">
        <ele>368.6</ele>
        <time>2022-06-26T14:22:06Z</time>
      </trkpt>
      <trkpt lat="45.73198" lon="4.66973">
        <ele>368.6</ele>
        <time>2022-06-26T14:22:07Z</time>
      </trkpt>
      <trkpt lat="45.73202" lon="4.66981">
        <ele>368.8</ele>
        <time>2022-06-26T14:22:08Z</time>
      </trkpt>
      <trkpt lat="45.73206" lon="4.66989">
        <ele>368.8</ele>
        <time>2022-06-26T14:22:09Z</time>
      </trkpt>
      <trkpt lat="45.73209" lon="4.66997">
        <ele>368.8</ele>
        <time>2022-06-26T14:22:10Z</time>
      </trkpt>
      <trkpt lat="45.73213" lon="4.67005">
        <ele>368.8</ele>
        <time>2022-06-26T14:22:11Z</time>
      </trkpt>
      <trkpt lat="45.73217" lon="4.67013">
        <ele>368.8</ele>
        <time>2022-06-26T14:22:12Z</time>
      </trkpt>
      <trkpt lat="45.73221" lon="4.67021">
        <ele>368.4</ele>
        <time>2022-06-26T14:22:13Z</time>
      </trkpt>
      <trkpt lat="45.73225" lon="4.67029">
        <ele>368.4</ele>
        <time>2022-06-26T14:22:14Z</time>
      </trkpt>
      <trkpt lat="45.73229" lon="4.67038">
        <ele>368.2</ele>
        <time>2022-06-26T14:22:15Z</time>
      </trkpt>
      <trkpt lat="45.73233" lon="4.67046">
        <ele>368.2</ele>
        <time>2022-06-26T14:22:16Z</time>
      </trkpt>
      <trkpt lat="45.73237" lon="4.67055">
        <ele>367.8</ele>
        <time>2022-06-26T14:22:17Z</time>
      </trkpt>
      <trkpt lat="45.7324" lon="4.67063">
        <ele>367.8</ele>
        <time>2022-06-26T14:22:18Z</time>
      </trkpt>
      <trkpt lat="45.73244" lon="4.67072">
        <ele>367.8</ele>
        <time>2022-06-26T14:22:19Z</time>
      </trkpt>
      <trkpt lat="45.73247" lon="4.67081">
        <ele>367.8</ele>
        <time>2022-06-26T14:22:20Z</time>
      </trkpt>
      <trkpt lat="45.73251" lon="4.67089">
        <ele>367.6</ele>
        <time>2022-06-26T14:22:21Z</time>
      </trkpt>
      <trkpt lat="45.73254" lon="4.67098">
        <ele>367.6</ele>
        <time>2022-06-26T14:22:22Z</time>
      </trkpt>
      <trkpt lat="45.73258" lon="4.67106">
        <ele>367.6</ele>
        <time>2022-06-26T14:22:23Z</time>
      </trkpt>
      <trkpt lat="45.73261" lon="4.67115">
        <ele>367.6</ele>
        <time>2022-06-26T14:22:24Z</time>
      </trkpt>
      <trkpt lat="45.73263" lon="4.67123">
        <ele>367.6</ele>
        <time>2022-06-26T14:22:25Z</time>
      </trkpt>
      <trkpt lat="45.73266" lon="4.67132">
        <ele>367.6</ele>
        <time>2022-06-26T14:22:26Z</time>
      </trkpt>
      <trkpt lat="45.73269" lon="4.6714">
        <ele>367.6</ele>
        <time>2022-06-26T14:22:27Z</time>
      </trkpt>
      <trkpt lat="45.7327" lon="4.67149">
        <ele>367.6</ele>
        <time>2022-06-26T14:22:28Z</time>
      </trkpt>
      <trkpt lat="45.73272" lon="4.67158">
        <ele>367.6</ele>
        <time>2022-06-26T14:22:29Z</time>
      </trkpt>
      <trkpt lat="45.73273" lon="4.67167">
        <ele>367.6</ele>
        <time>2022-06-26T14:22:30Z</time>
      </trkpt>
      <trkpt lat="45.73273" lon="4.67176">
        <ele>367.6</ele>
        <time>2022-06-26T14:22:31Z</time>
      </trkpt>
      <trkpt lat="45.73273" lon="4.67184">
        <ele>367.6</ele>
        <time>2022-06-26T14:22:32Z</time>
      </trkpt>
      <trkpt lat="45.73273" lon="4.67193">
        <ele>367.6</ele>
        <time>2022-06-26T14:22:33Z</time>
      </trkpt>
      <trkpt lat="45.73273" lon="4.67201">
        <ele>368</ele>
        <time>2022-06-26T14:22:34Z</time>
      </trkpt>
      <trkpt lat="45.73273" lon="4.6721">
        <ele>368</ele>
        <time>2022-06-26T14:22:35Z</time>
      </trkpt>
      <trkpt lat="45.73272" lon="4.67218">
        <ele>368</ele>
        <time>2022-06-26T14:22:36Z</time>
      </trkpt>
      <trkpt lat="45.73272" lon="4.67227">
        <ele>368.4</ele>
        <time>2022-06-26T14:22:37Z</time>
      </trkpt>
      <trkpt lat="45.73272" lon="4.67235">
        <ele>368.4</ele>
        <time>2022-06-26T14:22:39Z</time>
      </trkpt>
      <trkpt lat="45.73271" lon="4.67243">
        <ele>368.8</ele>
        <time>2022-06-26T14:22:40Z</time>
      </trkpt>
      <trkpt lat="45.73271" lon="4.67251">
        <ele>368.8</ele>
        <time>2022-06-26T14:22:41Z</time>
      </trkpt>
      <trkpt lat="45.7327" lon="4.67259">
        <ele>369</ele>
        <time>2022-06-26T14:22:42Z</time>
      </trkpt>
      <trkpt lat="45.7327" lon="4.67267">
        <ele>369</ele>
        <time>2022-06-26T14:22:43Z</time>
      </trkpt>
      <trkpt lat="45.7327" lon="4.67275">
        <ele>369</ele>
        <time>2022-06-26T14:22:44Z</time>
      </trkpt>
      <trkpt lat="45.7327" lon="4.67284">
        <ele>369.2</ele>
        <time>2022-06-26T14:22:45Z</time>
      </trkpt>
      <trkpt lat="45.7327" lon="4.67292">
        <ele>369.2</ele>
        <time>2022-06-26T14:22:46Z</time>
      </trkpt>
      <trkpt lat="45.73269" lon="4.673">
        <ele>369.6</ele>
        <time>2022-06-26T14:22:47Z</time>
      </trkpt>
      <trkpt lat="45.73269" lon="4.67308">
        <ele>369.6</ele>
        <time>2022-06-26T14:22:48Z</time>
      </trkpt>
      <trkpt lat="45.73268" lon="4.67317">
        <ele>369.8</ele>
        <time>2022-06-26T14:22:49Z</time>
      </trkpt>
      <trkpt lat="45.73268" lon="4.67325">
        <ele>369.8</ele>
        <time>2022-06-26T14:22:50Z</time>
      </trkpt>
      <trkpt lat="45.73268" lon="4.67333">
        <ele>369.8</ele>
        <time>2022-06-26T14:22:51Z</time>
      </trkpt>
      <trkpt lat="45.73268" lon="4.6734">
        <ele>370</ele>
        <time>2022-06-26T14:22:52Z</time>
      </trkpt>
      <trkpt lat="45.73268" lon="4.67348">
        <ele>370</ele>
        <time>2022-06-26T14:22:53Z</time>
      </trkpt>
      <trkpt lat="45.73267" lon="4.67356">
        <ele>370.2</ele>
        <time>2022-06-26T14:22:54Z</time>
      </trkpt>
      <trkpt lat="45.73267" lon="4.67365">
        <ele>370.4</ele>
        <time>2022-06-26T14:22:55Z</time>
      </trkpt>
      <trkpt lat="45.73266" lon="4.67372">
        <ele>370.4</ele>
        <time>2022-06-26T14:22:56Z</time>
      </trkpt>
      <trkpt lat="45.73266" lon="4.6738">
        <ele>370.8</ele>
        <time>2022-06-26T14:22:57Z</time>
      </trkpt>
      <trkpt lat="45.73265" lon="4.67389">
        <ele>370.8</ele>
        <time>2022-06-26T14:22:58Z</time>
      </trkpt>
      <trkpt lat="45.73265" lon="4.67397">
        <ele>370.8</ele>
        <time>2022-06-26T14:22:59Z</time>
      </trkpt>
      <trkpt lat="45.73264" lon="4.67405">
        <ele>370.8</ele>
        <time>2022-06-26T14:23:00Z</time>
      </trkpt>
      <trkpt lat="45.73264" lon="4.67413">
        <ele>370.8</ele>
        <time>2022-06-26T14:23:01Z</time>
      </trkpt>
      <trkpt lat="45.73264" lon="4.67421">
        <ele>371</ele>
        <time>2022-06-26T14:23:02Z</time>
      </trkpt>
      <trkpt lat="45.73264" lon="4.67428">
        <ele>371</ele>
        <time>2022-06-26T14:23:03Z</time>
      </trkpt>
      <trkpt lat="45.73264" lon="4.67436">
        <ele>371</ele>
        <time>2022-06-26T14:23:04Z</time>
      </trkpt>
      <trkpt lat="45.73265" lon="4.67444">
        <ele>371</ele>
        <time>2022-06-26T14:23:05Z</time>
      </trkpt>
      <trkpt lat="45.73266" lon="4.67452">
        <ele>371.2</ele>
        <time>2022-06-26T14:23:06Z</time>
      </trkpt>
      <trkpt lat="45.73267" lon="4.67459">
        <ele>371.2</ele>
        <time>2022-06-26T14:23:07Z</time>
      </trkpt>
      <trkpt lat="45.73269" lon="4.67467">
        <ele>371.2</ele>
        <time>2022-06-26T14:23:08Z</time>
      </trkpt>
      <trkpt lat="45.7327" lon="4.67475">
        <ele>371.2</ele>
        <time>2022-06-26T14:23:09Z</time>
      </trkpt>
      <trkpt lat="45.73272" lon="4.67483">
        <ele>371.2</ele>
        <time>2022-06-26T14:23:10Z</time>
      </trkpt>
      <trkpt lat="45.73275" lon="4.67491">
        <ele>371.2</ele>
        <time>2022-06-26T14:23:11Z</time>
      </trkpt>
      <trkpt lat="45.73278" lon="4.675">
        <ele>371.2</ele>
        <time>2022-06-26T14:23:12Z</time>
      </trkpt>
      <trkpt lat="45.73281" lon="4.67508">
        <ele>371</ele>
        <time>2022-06-26T14:23:13Z</time>
      </trkpt>
      <trkpt lat="45.73284" lon="4.67516">
        <ele>371</ele>
        <time>2022-06-26T14:23:14Z</time>
      </trkpt>
      <trkpt lat="45.73288" lon="4.67524">
        <ele>370.8</ele>
        <time>2022-06-26T14:23:15Z</time>
      </trkpt>
      <trkpt lat="45.73292" lon="4.67533">
        <ele>370.4</ele>
        <time>2022-06-26T14:23:16Z</time>
      </trkpt>
      <trkpt lat="45.73296" lon="4.67541">
        <ele>370.2</ele>
        <time>2022-06-26T14:23:17Z</time>
      </trkpt>
      <trkpt lat="45.733" lon="4.6755">
        <ele>370</ele>
        <time>2022-06-26T14:23:18Z</time>
      </trkpt>
      <trkpt lat="45.73304" lon="4.67559">
        <ele>369.8</ele>
        <time>2022-06-26T14:23:19Z</time>
      </trkpt>
      <trkpt lat="45.73313" lon="4.67578">
        <ele>369.8</ele>
        <time>2022-06-26T14:23:20Z</time>
      </trkpt>
      <trkpt lat="45.73317" lon="4.67587">
        <ele>369.4</ele>
        <time>2022-06-26T14:23:21Z</time>
      </trkpt>
      <trkpt lat="45.73321" lon="4.67597">
        <ele>369</ele>
        <time>2022-06-26T14:23:22Z</time>
      </trkpt>
      <trkpt lat="45.73326" lon="4.67607">
        <ele>368.8</ele>
        <time>2022-06-26T14:23:23Z</time>
      </trkpt>
      <trkpt lat="45.73331" lon="4.67617">
        <ele>368.4</ele>
        <time>2022-06-26T14:23:24Z</time>
      </trkpt>
      <trkpt lat="45.73336" lon="4.67628">
        <ele>368</ele>
        <time>2022-06-26T14:23:25Z</time>
      </trkpt>
      <trkpt lat="45.73341" lon="4.6764">
        <ele>367.6</ele>
        <time>2022-06-26T14:23:26Z</time>
      </trkpt>
      <trkpt lat="45.73346" lon="4.67652">
        <ele>367.2</ele>
        <time>2022-06-26T14:23:27Z</time>
      </trkpt>
      <trkpt lat="45.73351" lon="4.67664">
        <ele>366.6</ele>
        <time>2022-06-26T14:23:28Z</time>
      </trkpt>
      <trkpt lat="45.73356" lon="4.67675">
        <ele>366</ele>
        <time>2022-06-26T14:23:29Z</time>
      </trkpt>
      <trkpt lat="45.73363" lon="4.67688">
        <ele>365.4</ele>
        <time>2022-06-26T14:23:30Z</time>
      </trkpt>
      <trkpt lat="45.73369" lon="4.67701">
        <ele>364.8</ele>
        <time>2022-06-26T14:23:31Z</time>
      </trkpt>
      <trkpt lat="45.73375" lon="4.67713">
        <ele>364.4</ele>
        <time>2022-06-26T14:23:32Z</time>
      </trkpt>
      <trkpt lat="45.73381" lon="4.67727">
        <ele>363.8</ele>
        <time>2022-06-26T14:23:33Z</time>
      </trkpt>
      <trkpt lat="45.73387" lon="4.67741">
        <ele>363.2</ele>
        <time>2022-06-26T14:23:34Z</time>
      </trkpt>
      <trkpt lat="45.73394" lon="4.67755">
        <ele>362.4</ele>
        <time>2022-06-26T14:23:35Z</time>
      </trkpt>
      <trkpt lat="45.734" lon="4.67767">
        <ele>361.8</ele>
        <time>2022-06-26T14:23:36Z</time>
      </trkpt>
      <trkpt lat="45.73406" lon="4.6778">
        <ele>361.2</ele>
        <time>2022-06-26T14:23:37Z</time>
      </trkpt>
      <trkpt lat="45.73412" lon="4.67794">
        <ele>360.6</ele>
        <time>2022-06-26T14:23:38Z</time>
      </trkpt>
      <trkpt lat="45.73419" lon="4.67808">
        <ele>360</ele>
        <time>2022-06-26T14:23:39Z</time>
      </trkpt>
      <trkpt lat="45.73427" lon="4.67822">
        <ele>359.2</ele>
        <time>2022-06-26T14:23:40Z</time>
      </trkpt>
      <trkpt lat="45.73434" lon="4.67836">
        <ele>358.4</ele>
        <time>2022-06-26T14:23:41Z</time>
      </trkpt>
      <trkpt lat="45.7344" lon="4.67848">
        <ele>357.8</ele>
        <time>2022-06-26T14:23:42Z</time>
      </trkpt>
      <trkpt lat="45.73447" lon="4.67863">
        <ele>357.4</ele>
        <time>2022-06-26T14:23:43Z</time>
      </trkpt>
      <trkpt lat="45.73453" lon="4.67878">
        <ele>356.8</ele>
        <time>2022-06-26T14:23:44Z</time>
      </trkpt>
      <trkpt lat="45.7346" lon="4.67892">
        <ele>356.4</ele>
        <time>2022-06-26T14:23:45Z</time>
      </trkpt>
      <trkpt lat="45.73465" lon="4.67905">
        <ele>355.8</ele>
        <time>2022-06-26T14:23:46Z</time>
      </trkpt>
      <trkpt lat="45.73471" lon="4.67917">
        <ele>355.2</ele>
        <time>2022-06-26T14:23:47Z</time>
      </trkpt>
      <trkpt lat="45.73476" lon="4.67929">
        <ele>354.8</ele>
        <time>2022-06-26T14:23:48Z</time>
      </trkpt>
      <trkpt lat="45.73482" lon="4.67942">
        <ele>354.6</ele>
        <time>2022-06-26T14:23:49Z</time>
      </trkpt>
      <trkpt lat="45.73487" lon="4.67955">
        <ele>354.4</ele>
        <time>2022-06-26T14:23:50Z</time>
      </trkpt>
      <trkpt lat="45.73492" lon="4.67967">
        <ele>354</ele>
        <time>2022-06-26T14:23:51Z</time>
      </trkpt>
      <trkpt lat="45.73497" lon="4.67977">
        <ele>353.8</ele>
        <time>2022-06-26T14:23:52Z</time>
      </trkpt>
      <trkpt lat="45.73501" lon="4.67988">
        <ele>353.8</ele>
        <time>2022-06-26T14:23:53Z</time>
      </trkpt>
      <trkpt lat="45.73506" lon="4.67999">
        <ele>353.6</ele>
        <time>2022-06-26T14:23:54Z</time>
      </trkpt>
      <trkpt lat="45.7351" lon="4.68009">
        <ele>353.6</ele>
        <time>2022-06-26T14:23:55Z</time>
      </trkpt>
      <trkpt lat="45.73514" lon="4.68019">
        <ele>353.6</ele>
        <time>2022-06-26T14:23:56Z</time>
      </trkpt>
      <trkpt lat="45.73519" lon="4.68029">
        <ele>353.6</ele>
        <time>2022-06-26T14:23:57Z</time>
      </trkpt>
      <trkpt lat="45.73524" lon="4.68038">
        <ele>353.6</ele>
        <time>2022-06-26T14:23:58Z</time>
      </trkpt>
      <trkpt lat="45.73528" lon="4.68046">
        <ele>353.6</ele>
        <time>2022-06-26T14:23:59Z</time>
      </trkpt>
      <trkpt lat="45.73532" lon="4.68054">
        <ele>353.6</ele>
        <time>2022-06-26T14:24:00Z</time>
      </trkpt>
      <trkpt lat="45.73536" lon="4.68063">
        <ele>353.8</ele>
        <time>2022-06-26T14:24:01Z</time>
      </trkpt>
      <trkpt lat="45.7354" lon="4.68071">
        <ele>353.8</ele>
        <time>2022-06-26T14:24:02Z</time>
      </trkpt>
      <trkpt lat="45.73545" lon="4.68079">
        <ele>353.8</ele>
        <time>2022-06-26T14:24:03Z</time>
      </trkpt>
      <trkpt lat="45.73549" lon="4.68087">
        <ele>353.8</ele>
        <time>2022-06-26T14:24:04Z</time>
      </trkpt>
      <trkpt lat="45.73552" lon="4.68095">
        <ele>353.8</ele>
        <time>2022-06-26T14:24:05Z</time>
      </trkpt>
      <trkpt lat="45.73556" lon="4.68103">
        <ele>353.8</ele>
        <time>2022-06-26T14:24:06Z</time>
      </trkpt>
      <trkpt lat="45.7356" lon="4.68111">
        <ele>353.8</ele>
        <time>2022-06-26T14:24:07Z</time>
      </trkpt>
      <trkpt lat="45.73563" lon="4.68118">
        <ele>353.8</ele>
        <time>2022-06-26T14:24:08Z</time>
      </trkpt>
      <trkpt lat="45.73567" lon="4.68126">
        <ele>353.8</ele>
        <time>2022-06-26T14:24:09Z</time>
      </trkpt>
      <trkpt lat="45.7357" lon="4.68133">
        <ele>353.6</ele>
        <time>2022-06-26T14:24:10Z</time>
      </trkpt>
      <trkpt lat="45.73574" lon="4.68141">
        <ele>353.6</ele>
        <time>2022-06-26T14:24:11Z</time>
      </trkpt>
      <trkpt lat="45.73578" lon="4.68149">
        <ele>353.6</ele>
        <time>2022-06-26T14:24:12Z</time>
      </trkpt>
      <trkpt lat="45.73582" lon="4.68156">
        <ele>353.6</ele>
        <time>2022-06-26T14:24:13Z</time>
      </trkpt>
      <trkpt lat="45.73586" lon="4.68164">
        <ele>353.6</ele>
        <time>2022-06-26T14:24:14Z</time>
      </trkpt>
      <trkpt lat="45.7359" lon="4.68173">
        <ele>353.6</ele>
        <time>2022-06-26T14:24:15Z</time>
      </trkpt>
      <trkpt lat="45.73594" lon="4.68181">
        <ele>353.6</ele>
        <time>2022-06-26T14:24:16Z</time>
      </trkpt>
      <trkpt lat="45.73598" lon="4.68189">
        <ele>353.2</ele>
        <time>2022-06-26T14:24:17Z</time>
      </trkpt>
      <trkpt lat="45.73602" lon="4.68198">
        <ele>353.2</ele>
        <time>2022-06-26T14:24:18Z</time>
      </trkpt>
      <trkpt lat="45.73606" lon="4.68206">
        <ele>352.8</ele>
        <time>2022-06-26T14:24:19Z</time>
      </trkpt>
      <trkpt lat="45.7361" lon="4.68214">
        <ele>352.8</ele>
        <time>2022-06-26T14:24:20Z</time>
      </trkpt>
      <trkpt lat="45.73614" lon="4.68223">
        <ele>352.6</ele>
        <time>2022-06-26T14:24:21Z</time>
      </trkpt>
      <trkpt lat="45.73617" lon="4.68232">
        <ele>352.6</ele>
        <time>2022-06-26T14:24:22Z</time>
      </trkpt>
      <trkpt lat="45.73622" lon="4.6824">
        <ele>352.6</ele>
        <time>2022-06-26T14:24:23Z</time>
      </trkpt>
      <trkpt lat="45.73626" lon="4.68249">
        <ele>352.2</ele>
        <time>2022-06-26T14:24:24Z</time>
      </trkpt>
      <trkpt lat="45.7363" lon="4.68258">
        <ele>352</ele>
        <time>2022-06-26T14:24:25Z</time>
      </trkpt>
      <trkpt lat="45.73634" lon="4.68266">
        <ele>351.8</ele>
        <time>2022-06-26T14:24:26Z</time>
      </trkpt>
      <trkpt lat="45.73639" lon="4.68275">
        <ele>351.8</ele>
        <time>2022-06-26T14:24:27Z</time>
      </trkpt>
      <trkpt lat="45.73644" lon="4.68285">
        <ele>351.2</ele>
        <time>2022-06-26T14:24:28Z</time>
      </trkpt>
      <trkpt lat="45.73648" lon="4.68295">
        <ele>350.8</ele>
        <time>2022-06-26T14:24:29Z</time>
      </trkpt>
      <trkpt lat="45.73653" lon="4.68305">
        <ele>350.4</ele>
        <time>2022-06-26T14:24:30Z</time>
      </trkpt>
      <trkpt lat="45.73658" lon="4.68315">
        <ele>350</ele>
        <time>2022-06-26T14:24:31Z</time>
      </trkpt>
      <trkpt lat="45.73663" lon="4.68325">
        <ele>349.6</ele>
        <time>2022-06-26T14:24:32Z</time>
      </trkpt>
      <trkpt lat="45.73668" lon="4.68336">
        <ele>349.6</ele>
        <time>2022-06-26T14:24:33Z</time>
      </trkpt>
      <trkpt lat="45.73673" lon="4.68348">
        <ele>349</ele>
        <time>2022-06-26T14:24:34Z</time>
      </trkpt>
      <trkpt lat="45.73679" lon="4.6836">
        <ele>348.6</ele>
        <time>2022-06-26T14:24:35Z</time>
      </trkpt>
      <trkpt lat="45.73684" lon="4.68371">
        <ele>348.4</ele>
        <time>2022-06-26T14:24:36Z</time>
      </trkpt>
      <trkpt lat="45.73689" lon="4.68382">
        <ele>348</ele>
        <time>2022-06-26T14:24:37Z</time>
      </trkpt>
      <trkpt lat="45.73694" lon="4.68393">
        <ele>347.6</ele>
        <time>2022-06-26T14:24:38Z</time>
      </trkpt>
      <trkpt lat="45.73699" lon="4.68404">
        <ele>347</ele>
        <time>2022-06-26T14:24:39Z</time>
      </trkpt>
      <trkpt lat="45.73705" lon="4.68415">
        <ele>346.4</ele>
        <time>2022-06-26T14:24:40Z</time>
      </trkpt>
      <trkpt lat="45.7371" lon="4.68427">
        <ele>346</ele>
        <time>2022-06-26T14:24:41Z</time>
      </trkpt>
      <trkpt lat="45.73715" lon="4.68439">
        <ele>345.6</ele>
        <time>2022-06-26T14:24:42Z</time>
      </trkpt>
      <trkpt lat="45.73721" lon="4.6845">
        <ele>345.2</ele>
        <time>2022-06-26T14:24:43Z</time>
      </trkpt>
      <trkpt lat="45.73726" lon="4.68463">
        <ele>344.8</ele>
        <time>2022-06-26T14:24:44Z</time>
      </trkpt>
      <trkpt lat="45.73732" lon="4.68474">
        <ele>344.4</ele>
        <time>2022-06-26T14:24:45Z</time>
      </trkpt>
      <trkpt lat="45.73737" lon="4.68486">
        <ele>343.4</ele>
        <time>2022-06-26T14:24:46Z</time>
      </trkpt>
      <trkpt lat="45.73743" lon="4.68498">
        <ele>343</ele>
        <time>2022-06-26T14:24:47Z</time>
      </trkpt>
      <trkpt lat="45.73748" lon="4.6851">
        <ele>342.6</ele>
        <time>2022-06-26T14:24:48Z</time>
      </trkpt>
      <trkpt lat="45.73754" lon="4.68523">
        <ele>342.2</ele>
        <time>2022-06-26T14:24:49Z</time>
      </trkpt>
      <trkpt lat="45.7376" lon="4.68535">
        <ele>341.8</ele>
        <time>2022-06-26T14:24:50Z</time>
      </trkpt>
      <trkpt lat="45.73765" lon="4.68546">
        <ele>341.2</ele>
        <time>2022-06-26T14:24:51Z</time>
      </trkpt>
      <trkpt lat="45.7377" lon="4.68559">
        <ele>340.6</ele>
        <time>2022-06-26T14:24:52Z</time>
      </trkpt>
      <trkpt lat="45.73775" lon="4.68572">
        <ele>340.2</ele>
        <time>2022-06-26T14:24:53Z</time>
      </trkpt>
      <trkpt lat="45.73781" lon="4.68584">
        <ele>339.8</ele>
        <time>2022-06-26T14:24:54Z</time>
      </trkpt>
      <trkpt lat="45.73786" lon="4.68596">
        <ele>339.2</ele>
        <time>2022-06-26T14:24:55Z</time>
      </trkpt>
      <trkpt lat="45.73793" lon="4.68607">
        <ele>338.8</ele>
        <time>2022-06-26T14:24:56Z</time>
      </trkpt>
      <trkpt lat="45.73799" lon="4.68619">
        <ele>338.4</ele>
        <time>2022-06-26T14:24:57Z</time>
      </trkpt>
      <trkpt lat="45.73805" lon="4.68631">
        <ele>338</ele>
        <time>2022-06-26T14:24:58Z</time>
      </trkpt>
      <trkpt lat="45.7381" lon="4.68643">
        <ele>337.6</ele>
        <time>2022-06-26T14:24:59Z</time>
      </trkpt>
      <trkpt lat="45.73815" lon="4.68655">
        <ele>337.4</ele>
        <time>2022-06-26T14:25:00Z</time>
      </trkpt>
      <trkpt lat="45.7382" lon="4.68666">
        <ele>337</ele>
        <time>2022-06-26T14:25:01Z</time>
      </trkpt>
      <trkpt lat="45.73826" lon="4.68677">
        <ele>336.6</ele>
        <time>2022-06-26T14:25:02Z</time>
      </trkpt>
      <trkpt lat="45.73831" lon="4.68688">
        <ele>336.2</ele>
        <time>2022-06-26T14:25:03Z</time>
      </trkpt>
      <trkpt lat="45.73836" lon="4.687">
        <ele>336.2</ele>
        <time>2022-06-26T14:25:04Z</time>
      </trkpt>
      <trkpt lat="45.73841" lon="4.68711">
        <ele>335.8</ele>
        <time>2022-06-26T14:25:05Z</time>
      </trkpt>
      <trkpt lat="45.73846" lon="4.68722">
        <ele>335.6</ele>
        <time>2022-06-26T14:25:06Z</time>
      </trkpt>
      <trkpt lat="45.73851" lon="4.68733">
        <ele>335.4</ele>
        <time>2022-06-26T14:25:07Z</time>
      </trkpt>
      <trkpt lat="45.73856" lon="4.68744">
        <ele>335</ele>
        <time>2022-06-26T14:25:08Z</time>
      </trkpt>
      <trkpt lat="45.73861" lon="4.68754">
        <ele>334.8</ele>
        <time>2022-06-26T14:25:09Z</time>
      </trkpt>
      <trkpt lat="45.73866" lon="4.68765">
        <ele>334.6</ele>
        <time>2022-06-26T14:25:10Z</time>
      </trkpt>
      <trkpt lat="45.73871" lon="4.68776">
        <ele>334.6</ele>
        <time>2022-06-26T14:25:11Z</time>
      </trkpt>
      <trkpt lat="45.73876" lon="4.68787">
        <ele>334.2</ele>
        <time>2022-06-26T14:25:12Z</time>
      </trkpt>
      <trkpt lat="45.73881" lon="4.68798">
        <ele>334</ele>
        <time>2022-06-26T14:25:13Z</time>
      </trkpt>
      <trkpt lat="45.73886" lon="4.68808">
        <ele>334</ele>
        <time>2022-06-26T14:25:14Z</time>
      </trkpt>
      <trkpt lat="45.73891" lon="4.68819">
        <ele>333.6</ele>
        <time>2022-06-26T14:25:15Z</time>
      </trkpt>
      <trkpt lat="45.73896" lon="4.6883">
        <ele>333.6</ele>
        <time>2022-06-26T14:25:16Z</time>
      </trkpt>
      <trkpt lat="45.73901" lon="4.68841">
        <ele>333.2</ele>
        <time>2022-06-26T14:25:17Z</time>
      </trkpt>
      <trkpt lat="45.73906" lon="4.68852">
        <ele>333</ele>
        <time>2022-06-26T14:25:18Z</time>
      </trkpt>
      <trkpt lat="45.73911" lon="4.68862">
        <ele>333</ele>
        <time>2022-06-26T14:25:19Z</time>
      </trkpt>
      <trkpt lat="45.73916" lon="4.68872">
        <ele>333</ele>
        <time>2022-06-26T14:25:20Z</time>
      </trkpt>
      <trkpt lat="45.7392" lon="4.68882">
        <ele>332.8</ele>
        <time>2022-06-26T14:25:21Z</time>
      </trkpt>
      <trkpt lat="45.73925" lon="4.68891">
        <ele>332.8</ele>
        <time>2022-06-26T14:25:22Z</time>
      </trkpt>
      <trkpt lat="45.7393" lon="4.68901">
        <ele>332.6</ele>
        <time>2022-06-26T14:25:23Z</time>
      </trkpt>
      <trkpt lat="45.73935" lon="4.6891">
        <ele>332.6</ele>
        <time>2022-06-26T14:25:24Z</time>
      </trkpt>
      <trkpt lat="45.73939" lon="4.6892">
        <ele>332.2</ele>
        <time>2022-06-26T14:25:25Z</time>
      </trkpt>
      <trkpt lat="45.73944" lon="4.6893">
        <ele>332.2</ele>
        <time>2022-06-26T14:25:26Z</time>
      </trkpt>
      <trkpt lat="45.73948" lon="4.6894">
        <ele>332</ele>
        <time>2022-06-26T14:25:27Z</time>
      </trkpt>
      <trkpt lat="45.73952" lon="4.68949">
        <ele>331.8</ele>
        <time>2022-06-26T14:25:28Z</time>
      </trkpt>
      <trkpt lat="45.73957" lon="4.68958">
        <ele>331.8</ele>
        <time>2022-06-26T14:25:29Z</time>
      </trkpt>
      <trkpt lat="45.73961" lon="4.68968">
        <ele>331.4</ele>
        <time>2022-06-26T14:25:30Z</time>
      </trkpt>
      <trkpt lat="45.73965" lon="4.68976">
        <ele>331.4</ele>
        <time>2022-06-26T14:25:31Z</time>
      </trkpt>
      <trkpt lat="45.7397" lon="4.68985">
        <ele>331.2</ele>
        <time>2022-06-26T14:25:32Z</time>
      </trkpt>
      <trkpt lat="45.73974" lon="4.68994">
        <ele>331.2</ele>
        <time>2022-06-26T14:25:33Z</time>
      </trkpt>
      <trkpt lat="45.73978" lon="4.69003">
        <ele>331</ele>
        <time>2022-06-26T14:25:34Z</time>
      </trkpt>
      <trkpt lat="45.73981" lon="4.69011">
        <ele>331</ele>
        <time>2022-06-26T14:25:35Z</time>
      </trkpt>
      <trkpt lat="45.73985" lon="4.6902">
        <ele>330.6</ele>
        <time>2022-06-26T14:25:36Z</time>
      </trkpt>
      <trkpt lat="45.73989" lon="4.69028">
        <ele>330.6</ele>
        <time>2022-06-26T14:25:37Z</time>
      </trkpt>
      <trkpt lat="45.73993" lon="4.69036">
        <ele>330.4</ele>
        <time>2022-06-26T14:25:38Z</time>
      </trkpt>
      <trkpt lat="45.73997" lon="4.69044">
        <ele>330.4</ele>
        <time>2022-06-26T14:25:39Z</time>
      </trkpt>
      <trkpt lat="45.74" lon="4.69053">
        <ele>330.2</ele>
        <time>2022-06-26T14:25:40Z</time>
      </trkpt>
      <trkpt lat="45.74003" lon="4.69061">
        <ele>330.2</ele>
        <time>2022-06-26T14:25:41Z</time>
      </trkpt>
      <trkpt lat="45.74006" lon="4.69068">
        <ele>329.8</ele>
        <time>2022-06-26T14:25:42Z</time>
      </trkpt>
      <trkpt lat="45.74009" lon="4.69077">
        <ele>329.6</ele>
        <time>2022-06-26T14:25:43Z</time>
      </trkpt>
      <trkpt lat="45.74012" lon="4.69085">
        <ele>329.6</ele>
        <time>2022-06-26T14:25:44Z</time>
      </trkpt>
      <trkpt lat="45.74016" lon="4.69094">
        <ele>329.4</ele>
        <time>2022-06-26T14:25:45Z</time>
      </trkpt>
      <trkpt lat="45.74021" lon="4.69102">
        <ele>329.2</ele>
        <time>2022-06-26T14:25:46Z</time>
      </trkpt>
      <trkpt lat="45.74025" lon="4.69109">
        <ele>329</ele>
        <time>2022-06-26T14:25:47Z</time>
      </trkpt>
      <trkpt lat="45.7403" lon="4.69118">
        <ele>328.6</ele>
        <time>2022-06-26T14:25:48Z</time>
      </trkpt>
      <trkpt lat="45.74034" lon="4.69127">
        <ele>328.4</ele>
        <time>2022-06-26T14:25:49Z</time>
      </trkpt>
      <trkpt lat="45.74038" lon="4.69135">
        <ele>328</ele>
        <time>2022-06-26T14:25:51Z</time>
      </trkpt>
      <trkpt lat="45.74042" lon="4.69144">
        <ele>328</ele>
        <time>2022-06-26T14:25:52Z</time>
      </trkpt>
      <trkpt lat="45.74046" lon="4.69153">
        <ele>328</ele>
        <time>2022-06-26T14:25:53Z</time>
      </trkpt>
      <trkpt lat="45.7405" lon="4.69163">
        <ele>327.6</ele>
        <time>2022-06-26T14:25:54Z</time>
      </trkpt>
      <trkpt lat="45.74054" lon="4.69172">
        <ele>327.4</ele>
        <time>2022-06-26T14:25:55Z</time>
      </trkpt>
      <trkpt lat="45.74059" lon="4.69181">
        <ele>327.4</ele>
        <time>2022-06-26T14:25:56Z</time>
      </trkpt>
      <trkpt lat="45.74064" lon="4.6919">
        <ele>327</ele>
        <time>2022-06-26T14:25:57Z</time>
      </trkpt>
      <trkpt lat="45.74068" lon="4.692">
        <ele>326.6</ele>
        <time>2022-06-26T14:25:58Z</time>
      </trkpt>
      <trkpt lat="45.74072" lon="4.69209">
        <ele>326.4</ele>
        <time>2022-06-26T14:25:59Z</time>
      </trkpt>
      <trkpt lat="45.74077" lon="4.69218">
        <ele>326.2</ele>
        <time>2022-06-26T14:26:00Z</time>
      </trkpt>
      <trkpt lat="45.74082" lon="4.69227">
        <ele>326.2</ele>
        <time>2022-06-26T14:26:01Z</time>
      </trkpt>
      <trkpt lat="45.74086" lon="4.69237">
        <ele>325.6</ele>
        <time>2022-06-26T14:26:02Z</time>
      </trkpt>
      <trkpt lat="45.7409" lon="4.69246">
        <ele>325.4</ele>
        <time>2022-06-26T14:26:03Z</time>
      </trkpt>
      <trkpt lat="45.74094" lon="4.69256">
        <ele>325.4</ele>
        <time>2022-06-26T14:26:04Z</time>
      </trkpt>
      <trkpt lat="45.74099" lon="4.69266">
        <ele>324.8</ele>
        <time>2022-06-26T14:26:05Z</time>
      </trkpt>
      <trkpt lat="45.74103" lon="4.69275">
        <ele>324.6</ele>
        <time>2022-06-26T14:26:06Z</time>
      </trkpt>
      <trkpt lat="45.74108" lon="4.69284">
        <ele>324.4</ele>
        <time>2022-06-26T14:26:07Z</time>
      </trkpt>
      <trkpt lat="45.74112" lon="4.69294">
        <ele>324</ele>
        <time>2022-06-26T14:26:08Z</time>
      </trkpt>
      <trkpt lat="45.74116" lon="4.69303">
        <ele>323.8</ele>
        <time>2022-06-26T14:26:09Z</time>
      </trkpt>
      <trkpt lat="45.74121" lon="4.69313">
        <ele>323.2</ele>
        <time>2022-06-26T14:26:10Z</time>
      </trkpt>
      <trkpt lat="45.74126" lon="4.69323">
        <ele>323</ele>
        <time>2022-06-26T14:26:11Z</time>
      </trkpt>
      <trkpt lat="45.7413" lon="4.69333">
        <ele>322.6</ele>
        <time>2022-06-26T14:26:12Z</time>
      </trkpt>
      <trkpt lat="45.74135" lon="4.69342">
        <ele>322.2</ele>
        <time>2022-06-26T14:26:13Z</time>
      </trkpt>
      <trkpt lat="45.7414" lon="4.69353">
        <ele>321.8</ele>
        <time>2022-06-26T14:26:14Z</time>
      </trkpt>
      <trkpt lat="45.74144" lon="4.69363">
        <ele>321.8</ele>
        <time>2022-06-26T14:26:15Z</time>
      </trkpt>
      <trkpt lat="45.74149" lon="4.69373">
        <ele>321.4</ele>
        <time>2022-06-26T14:26:16Z</time>
      </trkpt>
      <trkpt lat="45.74153" lon="4.69384">
        <ele>321</ele>
        <time>2022-06-26T14:26:17Z</time>
      </trkpt>
      <trkpt lat="45.74158" lon="4.69394">
        <ele>320.4</ele>
        <time>2022-06-26T14:26:18Z</time>
      </trkpt>
      <trkpt lat="45.74163" lon="4.69404">
        <ele>319.8</ele>
        <time>2022-06-26T14:26:19Z</time>
      </trkpt>
      <trkpt lat="45.74168" lon="4.69415">
        <ele>319.2</ele>
        <time>2022-06-26T14:26:20Z</time>
      </trkpt>
      <trkpt lat="45.74173" lon="4.69425">
        <ele>318.8</ele>
        <time>2022-06-26T14:26:21Z</time>
      </trkpt>
      <trkpt lat="45.74177" lon="4.69436">
        <ele>318.4</ele>
        <time>2022-06-26T14:26:22Z</time>
      </trkpt>
      <trkpt lat="45.74182" lon="4.69446">
        <ele>318</ele>
        <time>2022-06-26T14:26:23Z</time>
      </trkpt>
      <trkpt lat="45.74187" lon="4.69458">
        <ele>317.8</ele>
        <time>2022-06-26T14:26:24Z</time>
      </trkpt>
      <trkpt lat="45.74198" lon="4.69482">
        <ele>317.4</ele>
        <time>2022-06-26T14:26:25Z</time>
      </trkpt>
      <trkpt lat="45.74204" lon="4.69493">
        <ele>317</ele>
        <time>2022-06-26T14:26:26Z</time>
      </trkpt>
      <trkpt lat="45.74209" lon="4.69506">
        <ele>316.4</ele>
        <time>2022-06-26T14:26:27Z</time>
      </trkpt>
      <trkpt lat="45.74215" lon="4.69518">
        <ele>316</ele>
        <time>2022-06-26T14:26:28Z</time>
      </trkpt>
      <trkpt lat="45.74221" lon="4.69529">
        <ele>315.8</ele>
        <time>2022-06-26T14:26:29Z</time>
      </trkpt>
      <trkpt lat="45.74227" lon="4.69541">
        <ele>315.4</ele>
        <time>2022-06-26T14:26:30Z</time>
      </trkpt>
      <trkpt lat="45.74232" lon="4.69551">
        <ele>315</ele>
        <time>2022-06-26T14:26:31Z</time>
      </trkpt>
      <trkpt lat="45.74237" lon="4.69561">
        <ele>314.6</ele>
        <time>2022-06-26T14:26:32Z</time>
      </trkpt>
      <trkpt lat="45.74243" lon="4.69572">
        <ele>314.2</ele>
        <time>2022-06-26T14:26:33Z</time>
      </trkpt>
      <trkpt lat="45.74247" lon="4.69582">
        <ele>314</ele>
        <time>2022-06-26T14:26:34Z</time>
      </trkpt>
      <trkpt lat="45.74252" lon="4.69593">
        <ele>313.6</ele>
        <time>2022-06-26T14:26:35Z</time>
      </trkpt>
      <trkpt lat="45.74255" lon="4.69602">
        <ele>313.6</ele>
        <time>2022-06-26T14:26:36Z</time>
      </trkpt>
      <trkpt lat="45.7426" lon="4.69613">
        <ele>313.2</ele>
        <time>2022-06-26T14:26:37Z</time>
      </trkpt>
      <trkpt lat="45.74266" lon="4.69625">
        <ele>312.6</ele>
        <time>2022-06-26T14:26:38Z</time>
      </trkpt>
      <trkpt lat="45.74271" lon="4.69636">
        <ele>312.2</ele>
        <time>2022-06-26T14:26:39Z</time>
      </trkpt>
      <trkpt lat="45.74276" lon="4.69648">
        <ele>311.8</ele>
        <time>2022-06-26T14:26:40Z</time>
      </trkpt>
      <trkpt lat="45.74281" lon="4.69659">
        <ele>311.6</ele>
        <time>2022-06-26T14:26:41Z</time>
      </trkpt>
      <trkpt lat="45.74287" lon="4.6967">
        <ele>311.4</ele>
        <time>2022-06-26T14:26:42Z</time>
      </trkpt>
      <trkpt lat="45.74291" lon="4.6968">
        <ele>311.4</ele>
        <time>2022-06-26T14:26:43Z</time>
      </trkpt>
      <trkpt lat="45.74296" lon="4.6969">
        <ele>311</ele>
        <time>2022-06-26T14:26:44Z</time>
      </trkpt>
      <trkpt lat="45.743" lon="4.697">
        <ele>311</ele>
        <time>2022-06-26T14:26:45Z</time>
      </trkpt>
      <trkpt lat="45.74304" lon="4.69709">
        <ele>311</ele>
        <time>2022-06-26T14:26:46Z</time>
      </trkpt>
      <trkpt lat="45.74308" lon="4.69718">
        <ele>311</ele>
        <time>2022-06-26T14:26:47Z</time>
      </trkpt>
      <trkpt lat="45.74312" lon="4.69727">
        <ele>311</ele>
        <time>2022-06-26T14:26:48Z</time>
      </trkpt>
      <trkpt lat="45.74316" lon="4.69736">
        <ele>311.2</ele>
        <time>2022-06-26T14:26:49Z</time>
      </trkpt>
      <trkpt lat="45.7432" lon="4.69745">
        <ele>311.2</ele>
        <time>2022-06-26T14:26:50Z</time>
      </trkpt>
      <trkpt lat="45.74324" lon="4.69754">
        <ele>311.8</ele>
        <time>2022-06-26T14:26:51Z</time>
      </trkpt>
      <trkpt lat="45.74328" lon="4.69762">
        <ele>312.2</ele>
        <time>2022-06-26T14:26:52Z</time>
      </trkpt>
      <trkpt lat="45.74332" lon="4.69771">
        <ele>312.4</ele>
        <time>2022-06-26T14:26:53Z</time>
      </trkpt>
      <trkpt lat="45.74335" lon="4.69779">
        <ele>312.4</ele>
        <time>2022-06-26T14:26:54Z</time>
      </trkpt>
      <trkpt lat="45.74339" lon="4.69787">
        <ele>313.2</ele>
        <time>2022-06-26T14:26:55Z</time>
      </trkpt>
      <trkpt lat="45.74343" lon="4.69795">
        <ele>313.2</ele>
        <time>2022-06-26T14:26:56Z</time>
      </trkpt>
      <trkpt lat="45.74347" lon="4.69803">
        <ele>313.4</ele>
        <time>2022-06-26T14:26:57Z</time>
      </trkpt>
      <trkpt lat="45.74351" lon="4.69811">
        <ele>313.8</ele>
        <time>2022-06-26T14:26:58Z</time>
      </trkpt>
      <trkpt lat="45.74355" lon="4.69818">
        <ele>314</ele>
        <time>2022-06-26T14:26:59Z</time>
      </trkpt>
      <trkpt lat="45.74359" lon="4.69826">
        <ele>314.4</ele>
        <time>2022-06-26T14:27:00Z</time>
      </trkpt>
      <trkpt lat="45.74363" lon="4.69833">
        <ele>314.4</ele>
        <time>2022-06-26T14:27:01Z</time>
      </trkpt>
      <trkpt lat="45.74367" lon="4.69841">
        <ele>314.4</ele>
        <time>2022-06-26T14:27:02Z</time>
      </trkpt>
      <trkpt lat="45.7437" lon="4.69849">
        <ele>314.4</ele>
        <time>2022-06-26T14:27:03Z</time>
      </trkpt>
      <trkpt lat="45.74374" lon="4.69857">
        <ele>314.4</ele>
        <time>2022-06-26T14:27:04Z</time>
      </trkpt>
      <trkpt lat="45.74377" lon="4.69865">
        <ele>314.4</ele>
        <time>2022-06-26T14:27:05Z</time>
      </trkpt>
      <trkpt lat="45.74381" lon="4.69873">
        <ele>314.6</ele>
        <time>2022-06-26T14:27:06Z</time>
      </trkpt>
      <trkpt lat="45.74384" lon="4.69881">
        <ele>314.6</ele>
        <time>2022-06-26T14:27:07Z</time>
      </trkpt>
      <trkpt lat="45.74388" lon="4.69889">
        <ele>314.6</ele>
        <time>2022-06-26T14:27:08Z</time>
      </trkpt>
      <trkpt lat="45.74391" lon="4.69897">
        <ele>314.6</ele>
        <time>2022-06-26T14:27:09Z</time>
      </trkpt>
      <trkpt lat="45.74395" lon="4.69905">
        <ele>314.6</ele>
        <time>2022-06-26T14:27:10Z</time>
      </trkpt>
      <trkpt lat="45.74398" lon="4.69913">
        <ele>314.6</ele>
        <time>2022-06-26T14:27:11Z</time>
      </trkpt>
      <trkpt lat="45.74402" lon="4.6992">
        <ele>314.6</ele>
        <time>2022-06-26T14:27:12Z</time>
      </trkpt>
      <trkpt lat="45.74406" lon="4.69928">
        <ele>314.8</ele>
        <time>2022-06-26T14:27:13Z</time>
      </trkpt>
      <trkpt lat="45.74409" lon="4.69936">
        <ele>314.8</ele>
        <time>2022-06-26T14:27:14Z</time>
      </trkpt>
      <trkpt lat="45.74413" lon="4.69944">
        <ele>314.8</ele>
        <time>2022-06-26T14:27:15Z</time>
      </trkpt>
      <trkpt lat="45.74417" lon="4.69953">
        <ele>314.8</ele>
        <time>2022-06-26T14:27:16Z</time>
      </trkpt>
      <trkpt lat="45.74421" lon="4.69961">
        <ele>314.8</ele>
        <time>2022-06-26T14:27:17Z</time>
      </trkpt>
      <trkpt lat="45.74424" lon="4.69969">
        <ele>314.8</ele>
        <time>2022-06-26T14:27:18Z</time>
      </trkpt>
      <trkpt lat="45.74428" lon="4.69977">
        <ele>314.8</ele>
        <time>2022-06-26T14:27:19Z</time>
      </trkpt>
      <trkpt lat="45.74432" lon="4.69985">
        <ele>314.8</ele>
        <time>2022-06-26T14:27:20Z</time>
      </trkpt>
      <trkpt lat="45.74436" lon="4.69993">
        <ele>314.8</ele>
        <time>2022-06-26T14:27:21Z</time>
      </trkpt>
      <trkpt lat="45.7444" lon="4.70001">
        <ele>314.8</ele>
        <time>2022-06-26T14:27:22Z</time>
      </trkpt>
      <trkpt lat="45.74443" lon="4.70009">
        <ele>315.2</ele>
        <time>2022-06-26T14:27:23Z</time>
      </trkpt>
      <trkpt lat="45.74447" lon="4.70017">
        <ele>315.2</ele>
        <time>2022-06-26T14:27:24Z</time>
      </trkpt>
      <trkpt lat="45.74451" lon="4.70025">
        <ele>315.2</ele>
        <time>2022-06-26T14:27:25Z</time>
      </trkpt>
      <trkpt lat="45.74455" lon="4.70033">
        <ele>315.2</ele>
        <time>2022-06-26T14:27:26Z</time>
      </trkpt>
      <trkpt lat="45.74458" lon="4.70041">
        <ele>314.8</ele>
        <time>2022-06-26T14:27:27Z</time>
      </trkpt>
      <trkpt lat="45.74462" lon="4.70049">
        <ele>314.8</ele>
        <time>2022-06-26T14:27:28Z</time>
      </trkpt>
      <trkpt lat="45.74466" lon="4.70057">
        <ele>314.8</ele>
        <time>2022-06-26T14:27:29Z</time>
      </trkpt>
      <trkpt lat="45.7447" lon="4.70065">
        <ele>314.6</ele>
        <time>2022-06-26T14:27:30Z</time>
      </trkpt>
      <trkpt lat="45.74474" lon="4.70074">
        <ele>314.6</ele>
        <time>2022-06-26T14:27:31Z</time>
      </trkpt>
      <trkpt lat="45.74478" lon="4.70082">
        <ele>314.6</ele>
        <time>2022-06-26T14:27:32Z</time>
      </trkpt>
      <trkpt lat="45.74481" lon="4.70091">
        <ele>314.6</ele>
        <time>2022-06-26T14:27:33Z</time>
      </trkpt>
      <trkpt lat="45.74485" lon="4.70099">
        <ele>314.6</ele>
        <time>2022-06-26T14:27:34Z</time>
      </trkpt>
      <trkpt lat="45.74489" lon="4.70108">
        <ele>314.4</ele>
        <time>2022-06-26T14:27:35Z</time>
      </trkpt>
      <trkpt lat="45.74493" lon="4.70116">
        <ele>314.4</ele>
        <time>2022-06-26T14:27:36Z</time>
      </trkpt>
      <trkpt lat="45.74497" lon="4.70124">
        <ele>314.4</ele>
        <time>2022-06-26T14:27:37Z</time>
      </trkpt>
      <trkpt lat="45.745" lon="4.70133">
        <ele>314.4</ele>
        <time>2022-06-26T14:27:38Z</time>
      </trkpt>
      <trkpt lat="45.74504" lon="4.70141">
        <ele>314.2</ele>
        <time>2022-06-26T14:27:39Z</time>
      </trkpt>
      <trkpt lat="45.74508" lon="4.70149">
        <ele>314.2</ele>
        <time>2022-06-26T14:27:40Z</time>
      </trkpt>
      <trkpt lat="45.74513" lon="4.70157">
        <ele>314.2</ele>
        <time>2022-06-26T14:27:41Z</time>
      </trkpt>
      <trkpt lat="45.74517" lon="4.70166">
        <ele>314.2</ele>
        <time>2022-06-26T14:27:42Z</time>
      </trkpt>
      <trkpt lat="45.74521" lon="4.70174">
        <ele>313.8</ele>
        <time>2022-06-26T14:27:43Z</time>
      </trkpt>
      <trkpt lat="45.74526" lon="4.70181">
        <ele>313.8</ele>
        <time>2022-06-26T14:27:44Z</time>
      </trkpt>
      <trkpt lat="45.7453" lon="4.70189">
        <ele>313.8</ele>
        <time>2022-06-26T14:27:45Z</time>
      </trkpt>
      <trkpt lat="45.74534" lon="4.70197">
        <ele>313.8</ele>
        <time>2022-06-26T14:27:46Z</time>
      </trkpt>
      <trkpt lat="45.74538" lon="4.70206">
        <ele>313.8</ele>
        <time>2022-06-26T14:27:47Z</time>
      </trkpt>
      <trkpt lat="45.74542" lon="4.70215">
        <ele>313.8</ele>
        <time>2022-06-26T14:27:48Z</time>
      </trkpt>
      <trkpt lat="45.74546" lon="4.70223">
        <ele>313.8</ele>
        <time>2022-06-26T14:27:49Z</time>
      </trkpt>
      <trkpt lat="45.7455" lon="4.70231">
        <ele>313.8</ele>
        <time>2022-06-26T14:27:50Z</time>
      </trkpt>
      <trkpt lat="45.74554" lon="4.70239">
        <ele>313.6</ele>
        <time>2022-06-26T14:27:51Z</time>
      </trkpt>
      <trkpt lat="45.74558" lon="4.70248">
        <ele>313.6</ele>
        <time>2022-06-26T14:27:52Z</time>
      </trkpt>
      <trkpt lat="45.74562" lon="4.70256">
        <ele>313.6</ele>
        <time>2022-06-26T14:27:53Z</time>
      </trkpt>
      <trkpt lat="45.74566" lon="4.70264">
        <ele>313.6</ele>
        <time>2022-06-26T14:27:54Z</time>
      </trkpt>
      <trkpt lat="45.7457" lon="4.70273">
        <ele>313.4</ele>
        <time>2022-06-26T14:27:55Z</time>
      </trkpt>
      <trkpt lat="45.74573" lon="4.70281">
        <ele>313.4</ele>
        <time>2022-06-26T14:27:56Z</time>
      </trkpt>
      <trkpt lat="45.74577" lon="4.7029">
        <ele>313.4</ele>
        <time>2022-06-26T14:27:57Z</time>
      </trkpt>
      <trkpt lat="45.74581" lon="4.70298">
        <ele>313.4</ele>
        <time>2022-06-26T14:27:58Z</time>
      </trkpt>
      <trkpt lat="45.74585" lon="4.70305">
        <ele>313.4</ele>
        <time>2022-06-26T14:27:59Z</time>
      </trkpt>
      <trkpt lat="45.7459" lon="4.70312">
        <ele>313.4</ele>
        <time>2022-06-26T14:28:00Z</time>
      </trkpt>
      <trkpt lat="45.74594" lon="4.70317">
        <ele>313.6</ele>
        <time>2022-06-26T14:28:01Z</time>
      </trkpt>
      <trkpt lat="45.746" lon="4.70322">
        <ele>313.6</ele>
        <time>2022-06-26T14:28:02Z</time>
      </trkpt>
      <trkpt lat="45.74605" lon="4.70326">
        <ele>313.8</ele>
        <time>2022-06-26T14:28:03Z</time>
      </trkpt>
      <trkpt lat="45.74611" lon="4.7033">
        <ele>313.8</ele>
        <time>2022-06-26T14:28:04Z</time>
      </trkpt>
      <trkpt lat="45.74617" lon="4.70332">
        <ele>313.8</ele>
        <time>2022-06-26T14:28:05Z</time>
      </trkpt>
      <trkpt lat="45.74623" lon="4.70334">
        <ele>313.8</ele>
        <time>2022-06-26T14:28:06Z</time>
      </trkpt>
      <trkpt lat="45.74628" lon="4.70335">
        <ele>314</ele>
        <time>2022-06-26T14:28:07Z</time>
      </trkpt>
      <trkpt lat="45.74634" lon="4.70336">
        <ele>314</ele>
        <time>2022-06-26T14:28:08Z</time>
      </trkpt>
      <trkpt lat="45.74638" lon="4.70336">
        <ele>314</ele>
        <time>2022-06-26T14:28:09Z</time>
      </trkpt>
      <trkpt lat="45.74643" lon="4.70336">
        <ele>314.2</ele>
        <time>2022-06-26T14:28:10Z</time>
      </trkpt>
      <trkpt lat="45.74647" lon="4.70336">
        <ele>314.2</ele>
        <time>2022-06-26T14:28:11Z</time>
      </trkpt>
      <trkpt lat="45.74651" lon="4.70337">
        <ele>314.2</ele>
        <time>2022-06-26T14:28:12Z</time>
      </trkpt>
      <trkpt lat="45.74655" lon="4.70339">
        <ele>314.2</ele>
        <time>2022-06-26T14:28:13Z</time>
      </trkpt>
      <trkpt lat="45.74659" lon="4.70341">
        <ele>314.2</ele>
        <time>2022-06-26T14:28:14Z</time>
      </trkpt>
      <trkpt lat="45.74662" lon="4.70345">
        <ele>314.4</ele>
        <time>2022-06-26T14:28:15Z</time>
      </trkpt>
      <trkpt lat="45.74666" lon="4.70348">
        <ele>314.4</ele>
        <time>2022-06-26T14:28:16Z</time>
      </trkpt>
      <trkpt lat="45.7467" lon="4.70351">
        <ele>314.4</ele>
        <time>2022-06-26T14:28:17Z</time>
      </trkpt>
      <trkpt lat="45.74674" lon="4.70355">
        <ele>314.8</ele>
        <time>2022-06-26T14:28:18Z</time>
      </trkpt>
      <trkpt lat="45.74677" lon="4.7036">
        <ele>314.8</ele>
        <time>2022-06-26T14:28:20Z</time>
      </trkpt>
      <trkpt lat="45.74679" lon="4.70366">
        <ele>315</ele>
        <time>2022-06-26T14:28:21Z</time>
      </trkpt>
      <trkpt lat="45.74681" lon="4.70373">
        <ele>315</ele>
        <time>2022-06-26T14:28:22Z</time>
      </trkpt>
      <trkpt lat="45.74682" lon="4.7038">
        <ele>315</ele>
        <time>2022-06-26T14:28:23Z</time>
      </trkpt>
      <trkpt lat="45.74683" lon="4.70387">
        <ele>315.2</ele>
        <time>2022-06-26T14:28:24Z</time>
      </trkpt>
      <trkpt lat="45.74684" lon="4.70394">
        <ele>315.2</ele>
        <time>2022-06-26T14:28:25Z</time>
      </trkpt>
      <trkpt lat="45.74684" lon="4.70401">
        <ele>315.2</ele>
        <time>2022-06-26T14:28:26Z</time>
      </trkpt>
      <trkpt lat="45.74685" lon="4.70409">
        <ele>315.2</ele>
        <time>2022-06-26T14:28:27Z</time>
      </trkpt>
      <trkpt lat="45.74685" lon="4.70417">
        <ele>315.2</ele>
        <time>2022-06-26T14:28:28Z</time>
      </trkpt>
      <trkpt lat="45.74684" lon="4.70424">
        <ele>315.6</ele>
        <time>2022-06-26T14:28:29Z</time>
      </trkpt>
      <trkpt lat="45.74684" lon="4.70432">
        <ele>315.6</ele>
        <time>2022-06-26T14:28:30Z</time>
      </trkpt>
      <trkpt lat="45.74684" lon="4.70441">
        <ele>315.8</ele>
        <time>2022-06-26T14:28:31Z</time>
      </trkpt>
      <trkpt lat="45.74683" lon="4.70449">
        <ele>315.8</ele>
        <time>2022-06-26T14:28:32Z</time>
      </trkpt>
      <trkpt lat="45.74683" lon="4.70457">
        <ele>315.8</ele>
        <time>2022-06-26T14:28:33Z</time>
      </trkpt>
      <trkpt lat="45.74682" lon="4.70466">
        <ele>315.8</ele>
        <time>2022-06-26T14:28:34Z</time>
      </trkpt>
      <trkpt lat="45.74682" lon="4.70474">
        <ele>316</ele>
        <time>2022-06-26T14:28:35Z</time>
      </trkpt>
      <trkpt lat="45.74682" lon="4.70483">
        <ele>316</ele>
        <time>2022-06-26T14:28:36Z</time>
      </trkpt>
      <trkpt lat="45.74682" lon="4.70492">
        <ele>316</ele>
        <time>2022-06-26T14:28:37Z</time>
      </trkpt>
      <trkpt lat="45.74682" lon="4.705">
        <ele>316</ele>
        <time>2022-06-26T14:28:38Z</time>
      </trkpt>
      <trkpt lat="45.74683" lon="4.70509">
        <ele>316</ele>
        <time>2022-06-26T14:28:39Z</time>
      </trkpt>
      <trkpt lat="45.74685" lon="4.70517">
        <ele>316.2</ele>
        <time>2022-06-26T14:28:40Z</time>
      </trkpt>
      <trkpt lat="45.74687" lon="4.70524">
        <ele>316.2</ele>
        <time>2022-06-26T14:28:41Z</time>
      </trkpt>
      <trkpt lat="45.74689" lon="4.70532">
        <ele>316.2</ele>
        <time>2022-06-26T14:28:42Z</time>
      </trkpt>
      <trkpt lat="45.74691" lon="4.7054">
        <ele>316.6</ele>
        <time>2022-06-26T14:28:43Z</time>
      </trkpt>
      <trkpt lat="45.74694" lon="4.70547">
        <ele>316.6</ele>
        <time>2022-06-26T14:28:44Z</time>
      </trkpt>
      <trkpt lat="45.74698" lon="4.70554">
        <ele>317</ele>
        <time>2022-06-26T14:28:45Z</time>
      </trkpt>
      <trkpt lat="45.74701" lon="4.70561">
        <ele>317.2</ele>
        <time>2022-06-26T14:28:46Z</time>
      </trkpt>
      <trkpt lat="45.74705" lon="4.70568">
        <ele>317.6</ele>
        <time>2022-06-26T14:28:47Z</time>
      </trkpt>
      <trkpt lat="45.74708" lon="4.70574">
        <ele>317.8</ele>
        <time>2022-06-26T14:28:48Z</time>
      </trkpt>
      <trkpt lat="45.74711" lon="4.70581">
        <ele>317.8</ele>
        <time>2022-06-26T14:28:49Z</time>
      </trkpt>
      <trkpt lat="45.74715" lon="4.70588">
        <ele>318</ele>
        <time>2022-06-26T14:28:50Z</time>
      </trkpt>
      <trkpt lat="45.74718" lon="4.70595">
        <ele>318.2</ele>
        <time>2022-06-26T14:28:51Z</time>
      </trkpt>
      <trkpt lat="45.74721" lon="4.70602">
        <ele>318.6</ele>
        <time>2022-06-26T14:28:52Z</time>
      </trkpt>
      <trkpt lat="45.74724" lon="4.70609">
        <ele>318.6</ele>
        <time>2022-06-26T14:28:53Z</time>
      </trkpt>
      <trkpt lat="45.74726" lon="4.70616">
        <ele>318.8</ele>
        <time>2022-06-26T14:28:54Z</time>
      </trkpt>
      <trkpt lat="45.74729" lon="4.70624">
        <ele>318.8</ele>
        <time>2022-06-26T14:28:55Z</time>
      </trkpt>
      <trkpt lat="45.74731" lon="4.70632">
        <ele>319</ele>
        <time>2022-06-26T14:28:56Z</time>
      </trkpt>
      <trkpt lat="45.74732" lon="4.70639">
        <ele>319</ele>
        <time>2022-06-26T14:28:57Z</time>
      </trkpt>
      <trkpt lat="45.74734" lon="4.70647">
        <ele>319</ele>
        <time>2022-06-26T14:28:58Z</time>
      </trkpt>
      <trkpt lat="45.74735" lon="4.70655">
        <ele>319.4</ele>
        <time>2022-06-26T14:28:59Z</time>
      </trkpt>
      <trkpt lat="45.74735" lon="4.70663">
        <ele>319.4</ele>
        <time>2022-06-26T14:29:00Z</time>
      </trkpt>
      <trkpt lat="45.74735" lon="4.7067">
        <ele>319.4</ele>
        <time>2022-06-26T14:29:01Z</time>
      </trkpt>
      <trkpt lat="45.74735" lon="4.70678">
        <ele>319.4</ele>
        <time>2022-06-26T14:29:02Z</time>
      </trkpt>
      <trkpt lat="45.74735" lon="4.70694">
        <ele>319.4</ele>
        <time>2022-06-26T14:29:03Z</time>
      </trkpt>
      <trkpt lat="45.74735" lon="4.70703">
        <ele>319.4</ele>
        <time>2022-06-26T14:29:04Z</time>
      </trkpt>
      <trkpt lat="45.74735" lon="4.70711">
        <ele>319.4</ele>
        <time>2022-06-26T14:29:05Z</time>
      </trkpt>
      <trkpt lat="45.74735" lon="4.7072">
        <ele>319.4</ele>
        <time>2022-06-26T14:29:06Z</time>
      </trkpt>
      <trkpt lat="45.74735" lon="4.7073">
        <ele>319.2</ele>
        <time>2022-06-26T14:29:07Z</time>
      </trkpt>
      <trkpt lat="45.74735" lon="4.70739">
        <ele>319.2</ele>
        <time>2022-06-26T14:29:08Z</time>
      </trkpt>
      <trkpt lat="45.74735" lon="4.70749">
        <ele>318.8</ele>
        <time>2022-06-26T14:29:09Z</time>
      </trkpt>
      <trkpt lat="45.74735" lon="4.7076">
        <ele>318.8</ele>
        <time>2022-06-26T14:29:10Z</time>
      </trkpt>
      <trkpt lat="45.74735" lon="4.7077">
        <ele>318.4</ele>
        <time>2022-06-26T14:29:11Z</time>
      </trkpt>
      <trkpt lat="45.74735" lon="4.70781">
        <ele>318.2</ele>
        <time>2022-06-26T14:29:12Z</time>
      </trkpt>
      <trkpt lat="45.74735" lon="4.70792">
        <ele>317.8</ele>
        <time>2022-06-26T14:29:13Z</time>
      </trkpt>
      <trkpt lat="45.74735" lon="4.70804">
        <ele>317.8</ele>
        <time>2022-06-26T14:29:14Z</time>
      </trkpt>
      <trkpt lat="45.74735" lon="4.70815">
        <ele>317.4</ele>
        <time>2022-06-26T14:29:15Z</time>
      </trkpt>
      <trkpt lat="45.74736" lon="4.70827">
        <ele>317</ele>
        <time>2022-06-26T14:29:16Z</time>
      </trkpt>
      <trkpt lat="45.74736" lon="4.70838">
        <ele>316.8</ele>
        <time>2022-06-26T14:29:17Z</time>
      </trkpt>
      <trkpt lat="45.74736" lon="4.7085">
        <ele>316.6</ele>
        <time>2022-06-26T14:29:18Z</time>
      </trkpt>
      <trkpt lat="45.74736" lon="4.70862">
        <ele>316.6</ele>
        <time>2022-06-26T14:29:19Z</time>
      </trkpt>
      <trkpt lat="45.74736" lon="4.70874">
        <ele>316.2</ele>
        <time>2022-06-26T14:29:20Z</time>
      </trkpt>
      <trkpt lat="45.74736" lon="4.70886">
        <ele>315.8</ele>
        <time>2022-06-26T14:29:21Z</time>
      </trkpt>
      <trkpt lat="45.74735" lon="4.70899">
        <ele>315.6</ele>
        <time>2022-06-26T14:29:22Z</time>
      </trkpt>
      <trkpt lat="45.74735" lon="4.70911">
        <ele>315.4</ele>
        <time>2022-06-26T14:29:23Z</time>
      </trkpt>
      <trkpt lat="45.74735" lon="4.70926">
        <ele>315</ele>
        <time>2022-06-26T14:29:24Z</time>
      </trkpt>
      <trkpt lat="45.74735" lon="4.70939">
        <ele>314.8</ele>
        <time>2022-06-26T14:29:25Z</time>
      </trkpt>
      <trkpt lat="45.74735" lon="4.70954">
        <ele>314.4</ele>
        <time>2022-06-26T14:29:26Z</time>
      </trkpt>
      <trkpt lat="45.74735" lon="4.70967">
        <ele>313.8</ele>
        <time>2022-06-26T14:29:27Z</time>
      </trkpt>
      <trkpt lat="45.74734" lon="4.70979">
        <ele>313.2</ele>
        <time>2022-06-26T14:29:28Z</time>
      </trkpt>
      <trkpt lat="45.74734" lon="4.7099">
        <ele>312.6</ele>
        <time>2022-06-26T14:29:29Z</time>
      </trkpt>
      <trkpt lat="45.74734" lon="4.70999">
        <ele>312</ele>
        <time>2022-06-26T14:29:30Z</time>
      </trkpt>
      <trkpt lat="45.74734" lon="4.71006">
        <ele>311.4</ele>
        <time>2022-06-26T14:29:31Z</time>
      </trkpt>
      <trkpt lat="45.74734" lon="4.71011">
        <ele>310.8</ele>
        <time>2022-06-26T14:29:32Z</time>
      </trkpt>
      <trkpt lat="45.74734" lon="4.71015">
        <ele>310.4</ele>
        <time>2022-06-26T14:29:33Z</time>
      </trkpt>
      <trkpt lat="45.74734" lon="4.71018">
        <ele>310</ele>
        <time>2022-06-26T14:29:34Z</time>
      </trkpt>
      <trkpt lat="45.74734" lon="4.71019">
        <ele>309.6</ele>
        <time>2022-06-26T14:29:35Z</time>
      </trkpt>
      <trkpt lat="45.74734" lon="4.7102">
        <ele>309.2</ele>
        <time>2022-06-26T14:29:36Z</time>
      </trkpt>
      <trkpt lat="45.74734" lon="4.71021">
        <ele>308.6</ele>
        <time>2022-06-26T14:29:51Z</time>
      </trkpt>
      <trkpt lat="45.74734" lon="4.71024">
        <ele>308.6</ele>
        <time>2022-06-26T14:29:52Z</time>
      </trkpt>
      <trkpt lat="45.74733" lon="4.71028">
        <ele>308.6</ele>
        <time>2022-06-26T14:29:53Z</time>
      </trkpt>
      <trkpt lat="45.74733" lon="4.71033">
        <ele>308.4</ele>
        <time>2022-06-26T14:29:54Z</time>
      </trkpt>
      <trkpt lat="45.74733" lon="4.71039">
        <ele>308.4</ele>
        <time>2022-06-26T14:29:55Z</time>
      </trkpt>
      <trkpt lat="45.74733" lon="4.71046">
        <ele>308.2</ele>
        <time>2022-06-26T14:29:56Z</time>
      </trkpt>
      <trkpt lat="45.74733" lon="4.71054">
        <ele>308.2</ele>
        <time>2022-06-26T14:29:57Z</time>
      </trkpt>
      <trkpt lat="45.74733" lon="4.71062">
        <ele>307.6</ele>
        <time>2022-06-26T14:29:58Z</time>
      </trkpt>
      <trkpt lat="45.74733" lon="4.71072">
        <ele>307.2</ele>
        <time>2022-06-26T14:29:59Z</time>
      </trkpt>
      <trkpt lat="45.74733" lon="4.71083">
        <ele>306.8</ele>
        <time>2022-06-26T14:30:00Z</time>
      </trkpt>
      <trkpt lat="45.74733" lon="4.71094">
        <ele>306.4</ele>
        <time>2022-06-26T14:30:01Z</time>
      </trkpt>
      <trkpt lat="45.74734" lon="4.71106">
        <ele>306.2</ele>
        <time>2022-06-26T14:30:02Z</time>
      </trkpt>
      <trkpt lat="45.74734" lon="4.71118">
        <ele>305.8</ele>
        <time>2022-06-26T14:30:03Z</time>
      </trkpt>
      <trkpt lat="45.74734" lon="4.7113">
        <ele>305.4</ele>
        <time>2022-06-26T14:30:04Z</time>
      </trkpt>
      <trkpt lat="45.74734" lon="4.71143">
        <ele>305</ele>
        <time>2022-06-26T14:30:05Z</time>
      </trkpt>
      <trkpt lat="45.74734" lon="4.71156">
        <ele>304.6</ele>
        <time>2022-06-26T14:30:06Z</time>
      </trkpt>
      <trkpt lat="45.74734" lon="4.7117">
        <ele>304.2</ele>
        <time>2022-06-26T14:30:07Z</time>
      </trkpt>
      <trkpt lat="45.74734" lon="4.71184">
        <ele>304</ele>
        <time>2022-06-26T14:30:08Z</time>
      </trkpt>
      <trkpt lat="45.74734" lon="4.71199">
        <ele>303.6</ele>
        <time>2022-06-26T14:30:09Z</time>
      </trkpt>
      <trkpt lat="45.74734" lon="4.71213">
        <ele>303.2</ele>
        <time>2022-06-26T14:30:10Z</time>
      </trkpt>
      <trkpt lat="45.74735" lon="4.71228">
        <ele>302.8</ele>
        <time>2022-06-26T14:30:11Z</time>
      </trkpt>
      <trkpt lat="45.74735" lon="4.7124">
        <ele>302.4</ele>
        <time>2022-06-26T14:30:12Z</time>
      </trkpt>
      <trkpt lat="45.74735" lon="4.71255">
        <ele>302.2</ele>
        <time>2022-06-26T14:30:13Z</time>
      </trkpt>
      <trkpt lat="45.74734" lon="4.71269">
        <ele>301.6</ele>
        <time>2022-06-26T14:30:14Z</time>
      </trkpt>
      <trkpt lat="45.74735" lon="4.71283">
        <ele>301.2</ele>
        <time>2022-06-26T14:30:15Z</time>
      </trkpt>
      <trkpt lat="45.74735" lon="4.71297">
        <ele>300.8</ele>
        <time>2022-06-26T14:30:16Z</time>
      </trkpt>
      <trkpt lat="45.74735" lon="4.71311">
        <ele>300.6</ele>
        <time>2022-06-26T14:30:17Z</time>
      </trkpt>
      <trkpt lat="45.74735" lon="4.71325">
        <ele>300.2</ele>
        <time>2022-06-26T14:30:18Z</time>
      </trkpt>
      <trkpt lat="45.74736" lon="4.71339">
        <ele>299.8</ele>
        <time>2022-06-26T14:30:19Z</time>
      </trkpt>
      <trkpt lat="45.74736" lon="4.71354">
        <ele>299.4</ele>
        <time>2022-06-26T14:30:20Z</time>
      </trkpt>
      <trkpt lat="45.74736" lon="4.71369">
        <ele>299</ele>
        <time>2022-06-26T14:30:21Z</time>
      </trkpt>
      <trkpt lat="45.74736" lon="4.71383">
        <ele>298.8</ele>
        <time>2022-06-26T14:30:22Z</time>
      </trkpt>
      <trkpt lat="45.74735" lon="4.71398">
        <ele>298.8</ele>
        <time>2022-06-26T14:30:23Z</time>
      </trkpt>
      <trkpt lat="45.74735" lon="4.71412">
        <ele>298.4</ele>
        <time>2022-06-26T14:30:24Z</time>
      </trkpt>
      <trkpt lat="45.74736" lon="4.71426">
        <ele>298</ele>
        <time>2022-06-26T14:30:25Z</time>
      </trkpt>
      <trkpt lat="45.74735" lon="4.71441">
        <ele>298</ele>
        <time>2022-06-26T14:30:26Z</time>
      </trkpt>
      <trkpt lat="45.74736" lon="4.71455">
        <ele>297.8</ele>
        <time>2022-06-26T14:30:27Z</time>
      </trkpt>
      <trkpt lat="45.74736" lon="4.71468">
        <ele>297.8</ele>
        <time>2022-06-26T14:30:28Z</time>
      </trkpt>
      <trkpt lat="45.74737" lon="4.71482">
        <ele>297.6</ele>
        <time>2022-06-26T14:30:29Z</time>
      </trkpt>
      <trkpt lat="45.74736" lon="4.71495">
        <ele>297.6</ele>
        <time>2022-06-26T14:30:30Z</time>
      </trkpt>
      <trkpt lat="45.74736" lon="4.71509">
        <ele>297.6</ele>
        <time>2022-06-26T14:30:31Z</time>
      </trkpt>
      <trkpt lat="45.74736" lon="4.71522">
        <ele>297.4</ele>
        <time>2022-06-26T14:30:32Z</time>
      </trkpt>
      <trkpt lat="45.74735" lon="4.71535">
        <ele>297.4</ele>
        <time>2022-06-26T14:30:33Z</time>
      </trkpt>
      <trkpt lat="45.74735" lon="4.71548">
        <ele>297.2</ele>
        <time>2022-06-26T14:30:34Z</time>
      </trkpt>
      <trkpt lat="45.74735" lon="4.71561">
        <ele>297.2</ele>
        <time>2022-06-26T14:30:35Z</time>
      </trkpt>
      <trkpt lat="45.74735" lon="4.71573">
        <ele>297.2</ele>
        <time>2022-06-26T14:30:36Z</time>
      </trkpt>
      <trkpt lat="45.74735" lon="4.71586">
        <ele>297.2</ele>
        <time>2022-06-26T14:30:37Z</time>
      </trkpt>
      <trkpt lat="45.74735" lon="4.71598">
        <ele>297.2</ele>
        <time>2022-06-26T14:30:38Z</time>
      </trkpt>
      <trkpt lat="45.74735" lon="4.7161">
        <ele>297.2</ele>
        <time>2022-06-26T14:30:39Z</time>
      </trkpt>
      <trkpt lat="45.74735" lon="4.71622">
        <ele>297.2</ele>
        <time>2022-06-26T14:30:40Z</time>
      </trkpt>
      <trkpt lat="45.74735" lon="4.71633">
        <ele>297</ele>
        <time>2022-06-26T14:30:41Z</time>
      </trkpt>
      <trkpt lat="45.74735" lon="4.71645">
        <ele>297</ele>
        <time>2022-06-26T14:30:42Z</time>
      </trkpt>
      <trkpt lat="45.74735" lon="4.71656">
        <ele>297</ele>
        <time>2022-06-26T14:30:43Z</time>
      </trkpt>
      <trkpt lat="45.74735" lon="4.71667">
        <ele>297</ele>
        <time>2022-06-26T14:30:44Z</time>
      </trkpt>
      <trkpt lat="45.74735" lon="4.71678">
        <ele>297</ele>
        <time>2022-06-26T14:30:45Z</time>
      </trkpt>
      <trkpt lat="45.74735" lon="4.71689">
        <ele>297</ele>
        <time>2022-06-26T14:30:46Z</time>
      </trkpt>
      <trkpt lat="45.74735" lon="4.717">
        <ele>297</ele>
        <time>2022-06-26T14:30:47Z</time>
      </trkpt>
      <trkpt lat="45.74735" lon="4.71712">
        <ele>297</ele>
        <time>2022-06-26T14:30:48Z</time>
      </trkpt>
      <trkpt lat="45.74735" lon="4.71722">
        <ele>297</ele>
        <time>2022-06-26T14:30:49Z</time>
      </trkpt>
      <trkpt lat="45.74735" lon="4.71733">
        <ele>297</ele>
        <time>2022-06-26T14:30:50Z</time>
      </trkpt>
      <trkpt lat="45.74736" lon="4.71745">
        <ele>297</ele>
        <time>2022-06-26T14:30:51Z</time>
      </trkpt>
      <trkpt lat="45.74736" lon="4.71755">
        <ele>297.2</ele>
        <time>2022-06-26T14:30:52Z</time>
      </trkpt>
      <trkpt lat="45.74736" lon="4.71765">
        <ele>297.2</ele>
        <time>2022-06-26T14:30:53Z</time>
      </trkpt>
      <trkpt lat="45.74736" lon="4.71774">
        <ele>297.2</ele>
        <time>2022-06-26T14:30:54Z</time>
      </trkpt>
      <trkpt lat="45.74736" lon="4.71784">
        <ele>297.2</ele>
        <time>2022-06-26T14:30:55Z</time>
      </trkpt>
      <trkpt lat="45.74736" lon="4.71793">
        <ele>297.2</ele>
        <time>2022-06-26T14:30:56Z</time>
      </trkpt>
      <trkpt lat="45.74736" lon="4.71803">
        <ele>297.2</ele>
        <time>2022-06-26T14:30:57Z</time>
      </trkpt>
      <trkpt lat="45.74736" lon="4.71813">
        <ele>297.2</ele>
        <time>2022-06-26T14:30:58Z</time>
      </trkpt>
      <trkpt lat="45.74737" lon="4.71822">
        <ele>297.2</ele>
        <time>2022-06-26T14:30:59Z</time>
      </trkpt>
      <trkpt lat="45.74738" lon="4.71832">
        <ele>297.2</ele>
        <time>2022-06-26T14:31:00Z</time>
      </trkpt>
      <trkpt lat="45.74738" lon="4.71841">
        <ele>297.2</ele>
        <time>2022-06-26T14:31:01Z</time>
      </trkpt>
      <trkpt lat="45.74738" lon="4.71851">
        <ele>297</ele>
        <time>2022-06-26T14:31:02Z</time>
      </trkpt>
      <trkpt lat="45.74738" lon="4.71861">
        <ele>296.6</ele>
        <time>2022-06-26T14:31:03Z</time>
      </trkpt>
      <trkpt lat="45.74738" lon="4.71872">
        <ele>296.6</ele>
        <time>2022-06-26T14:31:04Z</time>
      </trkpt>
      <trkpt lat="45.74738" lon="4.71883">
        <ele>296.4</ele>
        <time>2022-06-26T14:31:05Z</time>
      </trkpt>
      <trkpt lat="45.74738" lon="4.71894">
        <ele>296.4</ele>
        <time>2022-06-26T14:31:06Z</time>
      </trkpt>
      <trkpt lat="45.74738" lon="4.71904">
        <ele>296.4</ele>
        <time>2022-06-26T14:31:07Z</time>
      </trkpt>
      <trkpt lat="45.74738" lon="4.71915">
        <ele>296.4</ele>
        <time>2022-06-26T14:31:08Z</time>
      </trkpt>
      <trkpt lat="45.74738" lon="4.71926">
        <ele>296.2</ele>
        <time>2022-06-26T14:31:09Z</time>
      </trkpt>
      <trkpt lat="45.74738" lon="4.71937">
        <ele>296.2</ele>
        <time>2022-06-26T14:31:10Z</time>
      </trkpt>
      <trkpt lat="45.74738" lon="4.71948">
        <ele>296</ele>
        <time>2022-06-26T14:31:11Z</time>
      </trkpt>
      <trkpt lat="45.74738" lon="4.71958">
        <ele>296</ele>
        <time>2022-06-26T14:31:12Z</time>
      </trkpt>
      <trkpt lat="45.74738" lon="4.71969">
        <ele>296</ele>
        <time>2022-06-26T14:31:13Z</time>
      </trkpt>
      <trkpt lat="45.74738" lon="4.7198">
        <ele>296</ele>
        <time>2022-06-26T14:31:14Z</time>
      </trkpt>
      <trkpt lat="45.74738" lon="4.7199">
        <ele>296</ele>
        <time>2022-06-26T14:31:15Z</time>
      </trkpt>
      <trkpt lat="45.74738" lon="4.72001">
        <ele>295.8</ele>
        <time>2022-06-26T14:31:16Z</time>
      </trkpt>
      <trkpt lat="45.74738" lon="4.72012">
        <ele>295.8</ele>
        <time>2022-06-26T14:31:17Z</time>
      </trkpt>
      <trkpt lat="45.74738" lon="4.72022">
        <ele>295.8</ele>
        <time>2022-06-26T14:31:18Z</time>
      </trkpt>
      <trkpt lat="45.74738" lon="4.72033">
        <ele>295.4</ele>
        <time>2022-06-26T14:31:19Z</time>
      </trkpt>
      <trkpt lat="45.74738" lon="4.72043">
        <ele>295.4</ele>
        <time>2022-06-26T14:31:20Z</time>
      </trkpt>
      <trkpt lat="45.74738" lon="4.72053">
        <ele>295.4</ele>
        <time>2022-06-26T14:31:21Z</time>
      </trkpt>
      <trkpt lat="45.74738" lon="4.72062">
        <ele>295</ele>
        <time>2022-06-26T14:31:22Z</time>
      </trkpt>
      <trkpt lat="45.74738" lon="4.72071">
        <ele>295</ele>
        <time>2022-06-26T14:31:23Z</time>
      </trkpt>
      <trkpt lat="45.74738" lon="4.72081">
        <ele>295</ele>
        <time>2022-06-26T14:31:24Z</time>
      </trkpt>
      <trkpt lat="45.74737" lon="4.7209">
        <ele>294.8</ele>
        <time>2022-06-26T14:31:25Z</time>
      </trkpt>
      <trkpt lat="45.74737" lon="4.721">
        <ele>294.8</ele>
        <time>2022-06-26T14:31:26Z</time>
      </trkpt>
      <trkpt lat="45.74738" lon="4.72109">
        <ele>294.8</ele>
        <time>2022-06-26T14:31:27Z</time>
      </trkpt>
      <trkpt lat="45.74738" lon="4.72119">
        <ele>294.6</ele>
        <time>2022-06-26T14:31:28Z</time>
      </trkpt>
      <trkpt lat="45.74737" lon="4.7213">
        <ele>294.6</ele>
        <time>2022-06-26T14:31:29Z</time>
      </trkpt>
      <trkpt lat="45.74737" lon="4.7214">
        <ele>294.6</ele>
        <time>2022-06-26T14:31:30Z</time>
      </trkpt>
      <trkpt lat="45.74737" lon="4.72149">
        <ele>294.4</ele>
        <time>2022-06-26T14:31:31Z</time>
      </trkpt>
      <trkpt lat="45.74737" lon="4.72159">
        <ele>294.4</ele>
        <time>2022-06-26T14:31:32Z</time>
      </trkpt>
      <trkpt lat="45.74737" lon="4.7217">
        <ele>294.2</ele>
        <time>2022-06-26T14:31:33Z</time>
      </trkpt>
      <trkpt lat="45.74738" lon="4.7218">
        <ele>294.2</ele>
        <time>2022-06-26T14:31:34Z</time>
      </trkpt>
      <trkpt lat="45.74738" lon="4.72191">
        <ele>294.2</ele>
        <time>2022-06-26T14:31:35Z</time>
      </trkpt>
      <trkpt lat="45.74738" lon="4.72201">
        <ele>293.8</ele>
        <time>2022-06-26T14:31:36Z</time>
      </trkpt>
      <trkpt lat="45.74738" lon="4.72212">
        <ele>293.6</ele>
        <time>2022-06-26T14:31:37Z</time>
      </trkpt>
      <trkpt lat="45.74738" lon="4.72223">
        <ele>293.2</ele>
        <time>2022-06-26T14:31:38Z</time>
      </trkpt>
      <trkpt lat="45.74738" lon="4.72234">
        <ele>293</ele>
        <time>2022-06-26T14:31:39Z</time>
      </trkpt>
      <trkpt lat="45.74738" lon="4.72245">
        <ele>293</ele>
        <time>2022-06-26T14:31:40Z</time>
      </trkpt>
      <trkpt lat="45.74738" lon="4.72255">
        <ele>292.8</ele>
        <time>2022-06-26T14:31:41Z</time>
      </trkpt>
      <trkpt lat="45.74738" lon="4.72266">
        <ele>292.6</ele>
        <time>2022-06-26T14:31:42Z</time>
      </trkpt>
      <trkpt lat="45.74738" lon="4.72277">
        <ele>292.6</ele>
        <time>2022-06-26T14:31:43Z</time>
      </trkpt>
      <trkpt lat="45.74738" lon="4.72288">
        <ele>292.2</ele>
        <time>2022-06-26T14:31:44Z</time>
      </trkpt>
      <trkpt lat="45.74738" lon="4.72298">
        <ele>292.2</ele>
        <time>2022-06-26T14:31:45Z</time>
      </trkpt>
      <trkpt lat="45.74738" lon="4.72308">
        <ele>292</ele>
        <time>2022-06-26T14:31:46Z</time>
      </trkpt>
      <trkpt lat="45.74739" lon="4.72318">
        <ele>292</ele>
        <time>2022-06-26T14:31:47Z</time>
      </trkpt>
      <trkpt lat="45.74739" lon="4.72328">
        <ele>292</ele>
        <time>2022-06-26T14:31:48Z</time>
      </trkpt>
      <trkpt lat="45.74739" lon="4.72339">
        <ele>292</ele>
        <time>2022-06-26T14:31:49Z</time>
      </trkpt>
      <trkpt lat="45.74739" lon="4.72348">
        <ele>291.8</ele>
        <time>2022-06-26T14:31:50Z</time>
      </trkpt>
      <trkpt lat="45.74739" lon="4.72358">
        <ele>291.8</ele>
        <time>2022-06-26T14:31:51Z</time>
      </trkpt>
      <trkpt lat="45.74739" lon="4.72368">
        <ele>291.8</ele>
        <time>2022-06-26T14:31:52Z</time>
      </trkpt>
      <trkpt lat="45.74739" lon="4.72377">
        <ele>291.8</ele>
        <time>2022-06-26T14:31:53Z</time>
      </trkpt>
      <trkpt lat="45.74739" lon="4.72387">
        <ele>291.8</ele>
        <time>2022-06-26T14:31:54Z</time>
      </trkpt>
      <trkpt lat="45.74739" lon="4.72396">
        <ele>291.8</ele>
        <time>2022-06-26T14:31:55Z</time>
      </trkpt>
      <trkpt lat="45.74739" lon="4.72405">
        <ele>291.8</ele>
        <time>2022-06-26T14:31:56Z</time>
      </trkpt>
      <trkpt lat="45.74739" lon="4.72414">
        <ele>291.8</ele>
        <time>2022-06-26T14:31:57Z</time>
      </trkpt>
      <trkpt lat="45.74739" lon="4.72423">
        <ele>291.8</ele>
        <time>2022-06-26T14:31:58Z</time>
      </trkpt>
      <trkpt lat="45.74739" lon="4.72431">
        <ele>291.8</ele>
        <time>2022-06-26T14:31:59Z</time>
      </trkpt>
      <trkpt lat="45.74738" lon="4.7244">
        <ele>291.8</ele>
        <time>2022-06-26T14:32:00Z</time>
      </trkpt>
      <trkpt lat="45.74738" lon="4.72449">
        <ele>291.8</ele>
        <time>2022-06-26T14:32:01Z</time>
      </trkpt>
      <trkpt lat="45.74739" lon="4.72458">
        <ele>291.8</ele>
        <time>2022-06-26T14:32:02Z</time>
      </trkpt>
      <trkpt lat="45.74739" lon="4.72466">
        <ele>291.8</ele>
        <time>2022-06-26T14:32:03Z</time>
      </trkpt>
      <trkpt lat="45.74739" lon="4.72475">
        <ele>291.8</ele>
        <time>2022-06-26T14:32:04Z</time>
      </trkpt>
      <trkpt lat="45.7474" lon="4.72484">
        <ele>292</ele>
        <time>2022-06-26T14:32:05Z</time>
      </trkpt>
      <trkpt lat="45.7474" lon="4.72492">
        <ele>292</ele>
        <time>2022-06-26T14:32:06Z</time>
      </trkpt>
      <trkpt lat="45.7474" lon="4.72501">
        <ele>292</ele>
        <time>2022-06-26T14:32:07Z</time>
      </trkpt>
      <trkpt lat="45.74739" lon="4.7251">
        <ele>292</ele>
        <time>2022-06-26T14:32:08Z</time>
      </trkpt>
      <trkpt lat="45.74739" lon="4.72519">
        <ele>292</ele>
        <time>2022-06-26T14:32:09Z</time>
      </trkpt>
      <trkpt lat="45.74739" lon="4.72528">
        <ele>292</ele>
        <time>2022-06-26T14:32:10Z</time>
      </trkpt>
      <trkpt lat="45.74739" lon="4.72536">
        <ele>292</ele>
        <time>2022-06-26T14:32:11Z</time>
      </trkpt>
      <trkpt lat="45.74739" lon="4.72545">
        <ele>292</ele>
        <time>2022-06-26T14:32:12Z</time>
      </trkpt>
      <trkpt lat="45.74739" lon="4.72554">
        <ele>292</ele>
        <time>2022-06-26T14:32:13Z</time>
      </trkpt>
      <trkpt lat="45.74739" lon="4.72563">
        <ele>292</ele>
        <time>2022-06-26T14:32:14Z</time>
      </trkpt>
      <trkpt lat="45.7474" lon="4.72573">
        <ele>292</ele>
        <time>2022-06-26T14:32:15Z</time>
      </trkpt>
      <trkpt lat="45.7474" lon="4.72582">
        <ele>292</ele>
        <time>2022-06-26T14:32:16Z</time>
      </trkpt>
      <trkpt lat="45.7474" lon="4.72591">
        <ele>292</ele>
        <time>2022-06-26T14:32:17Z</time>
      </trkpt>
      <trkpt lat="45.7474" lon="4.72601">
        <ele>292</ele>
        <time>2022-06-26T14:32:18Z</time>
      </trkpt>
      <trkpt lat="45.7474" lon="4.7261">
        <ele>292</ele>
        <time>2022-06-26T14:32:19Z</time>
      </trkpt>
      <trkpt lat="45.7474" lon="4.7262">
        <ele>292</ele>
        <time>2022-06-26T14:32:20Z</time>
      </trkpt>
      <trkpt lat="45.7474" lon="4.7263">
        <ele>292</ele>
        <time>2022-06-26T14:32:21Z</time>
      </trkpt>
      <trkpt lat="45.7474" lon="4.7264">
        <ele>292</ele>
        <time>2022-06-26T14:32:22Z</time>
      </trkpt>
      <trkpt lat="45.7474" lon="4.7265">
        <ele>291.6</ele>
        <time>2022-06-26T14:32:23Z</time>
      </trkpt>
      <trkpt lat="45.74739" lon="4.7266">
        <ele>291.6</ele>
        <time>2022-06-26T14:32:24Z</time>
      </trkpt>
      <trkpt lat="45.74739" lon="4.7267">
        <ele>291.4</ele>
        <time>2022-06-26T14:32:25Z</time>
      </trkpt>
      <trkpt lat="45.74739" lon="4.7268">
        <ele>291.4</ele>
        <time>2022-06-26T14:32:26Z</time>
      </trkpt>
      <trkpt lat="45.74739" lon="4.7269">
        <ele>291.4</ele>
        <time>2022-06-26T14:32:27Z</time>
      </trkpt>
      <trkpt lat="45.74739" lon="4.727">
        <ele>291.4</ele>
        <time>2022-06-26T14:32:28Z</time>
      </trkpt>
      <trkpt lat="45.74739" lon="4.7271">
        <ele>291.4</ele>
        <time>2022-06-26T14:32:29Z</time>
      </trkpt>
      <trkpt lat="45.74739" lon="4.72719">
        <ele>291.2</ele>
        <time>2022-06-26T14:32:30Z</time>
      </trkpt>
      <trkpt lat="45.74739" lon="4.72728">
        <ele>291.2</ele>
        <time>2022-06-26T14:32:31Z</time>
      </trkpt>
      <trkpt lat="45.74739" lon="4.72737">
        <ele>291.2</ele>
        <time>2022-06-26T14:32:32Z</time>
      </trkpt>
      <trkpt lat="45.74739" lon="4.72746">
        <ele>291.2</ele>
        <time>2022-06-26T14:32:33Z</time>
      </trkpt>
      <trkpt lat="45.74739" lon="4.72754">
        <ele>291</ele>
        <time>2022-06-26T14:32:34Z</time>
      </trkpt>
      <trkpt lat="45.74738" lon="4.72762">
        <ele>291</ele>
        <time>2022-06-26T14:32:35Z</time>
      </trkpt>
      <trkpt lat="45.74738" lon="4.72768">
        <ele>291</ele>
        <time>2022-06-26T14:32:36Z</time>
      </trkpt>
      <trkpt lat="45.74738" lon="4.72774">
        <ele>290.6</ele>
        <time>2022-06-26T14:32:37Z</time>
      </trkpt>
      <trkpt lat="45.74738" lon="4.7278">
        <ele>290.6</ele>
        <time>2022-06-26T14:32:38Z</time>
      </trkpt>
      <trkpt lat="45.74737" lon="4.72785">
        <ele>290.6</ele>
        <time>2022-06-26T14:32:39Z</time>
      </trkpt>
      <trkpt lat="45.74737" lon="4.72791">
        <ele>290.6</ele>
        <time>2022-06-26T14:32:40Z</time>
      </trkpt>
      <trkpt lat="45.74737" lon="4.72796">
        <ele>290.4</ele>
        <time>2022-06-26T14:32:41Z</time>
      </trkpt>
      <trkpt lat="45.74737" lon="4.72801">
        <ele>290.4</ele>
        <time>2022-06-26T14:32:42Z</time>
      </trkpt>
      <trkpt lat="45.74737" lon="4.72806">
        <ele>290.4</ele>
        <time>2022-06-26T14:32:43Z</time>
      </trkpt>
      <trkpt lat="45.74737" lon="4.72811">
        <ele>290</ele>
        <time>2022-06-26T14:32:44Z</time>
      </trkpt>
      <trkpt lat="45.74738" lon="4.72815">
        <ele>290</ele>
        <time>2022-06-26T14:32:45Z</time>
      </trkpt>
      <trkpt lat="45.74738" lon="4.7282">
        <ele>290</ele>
        <time>2022-06-26T14:32:46Z</time>
      </trkpt>
      <trkpt lat="45.74737" lon="4.72825">
        <ele>289.8</ele>
        <time>2022-06-26T14:32:47Z</time>
      </trkpt>
      <trkpt lat="45.74738" lon="4.72832">
        <ele>289.8</ele>
        <time>2022-06-26T14:32:48Z</time>
      </trkpt>
      <trkpt lat="45.74737" lon="4.7284">
        <ele>289.4</ele>
        <time>2022-06-26T14:32:49Z</time>
      </trkpt>
      <trkpt lat="45.74738" lon="4.72848">
        <ele>289.4</ele>
        <time>2022-06-26T14:32:50Z</time>
      </trkpt>
      <trkpt lat="45.74738" lon="4.72858">
        <ele>289.2</ele>
        <time>2022-06-26T14:32:51Z</time>
      </trkpt>
      <trkpt lat="45.74738" lon="4.72867">
        <ele>289.2</ele>
        <time>2022-06-26T14:32:52Z</time>
      </trkpt>
      <trkpt lat="45.74739" lon="4.72878">
        <ele>288.8</ele>
        <time>2022-06-26T14:32:53Z</time>
      </trkpt>
      <trkpt lat="45.74739" lon="4.72889">
        <ele>288.8</ele>
        <time>2022-06-26T14:32:54Z</time>
      </trkpt>
      <trkpt lat="45.74739" lon="4.729">
        <ele>288.4</ele>
        <time>2022-06-26T14:32:55Z</time>
      </trkpt>
      <trkpt lat="45.74739" lon="4.72912">
        <ele>288.2</ele>
        <time>2022-06-26T14:32:56Z</time>
      </trkpt>
      <trkpt lat="45.74739" lon="4.72925">
        <ele>287.8</ele>
        <time>2022-06-26T14:32:57Z</time>
      </trkpt>
      <trkpt lat="45.74739" lon="4.72937">
        <ele>287.6</ele>
        <time>2022-06-26T14:32:58Z</time>
      </trkpt>
      <trkpt lat="45.74739" lon="4.7295">
        <ele>287.2</ele>
        <time>2022-06-26T14:32:59Z</time>
      </trkpt>
      <trkpt lat="45.74739" lon="4.72965">
        <ele>287</ele>
        <time>2022-06-26T14:33:00Z</time>
      </trkpt>
      <trkpt lat="45.74738" lon="4.72979">
        <ele>286.6</ele>
        <time>2022-06-26T14:33:01Z</time>
      </trkpt>
      <trkpt lat="45.74738" lon="4.72994">
        <ele>286.2</ele>
        <time>2022-06-26T14:33:02Z</time>
      </trkpt>
      <trkpt lat="45.74737" lon="4.73008">
        <ele>285.8</ele>
        <time>2022-06-26T14:33:03Z</time>
      </trkpt>
      <trkpt lat="45.74737" lon="4.73022">
        <ele>285.4</ele>
        <time>2022-06-26T14:33:04Z</time>
      </trkpt>
      <trkpt lat="45.74737" lon="4.73037">
        <ele>284.8</ele>
        <time>2022-06-26T14:33:05Z</time>
      </trkpt>
      <trkpt lat="45.74737" lon="4.73052">
        <ele>284.4</ele>
        <time>2022-06-26T14:33:06Z</time>
      </trkpt>
      <trkpt lat="45.74737" lon="4.73066">
        <ele>284</ele>
        <time>2022-06-26T14:33:07Z</time>
      </trkpt>
      <trkpt lat="45.74737" lon="4.7308">
        <ele>283.6</ele>
        <time>2022-06-26T14:33:08Z</time>
      </trkpt>
      <trkpt lat="45.74737" lon="4.73095">
        <ele>283.4</ele>
        <time>2022-06-26T14:33:09Z</time>
      </trkpt>
      <trkpt lat="45.74736" lon="4.73109">
        <ele>283</ele>
        <time>2022-06-26T14:33:10Z</time>
      </trkpt>
      <trkpt lat="45.74736" lon="4.73121">
        <ele>282.8</ele>
        <time>2022-06-26T14:33:11Z</time>
      </trkpt>
      <trkpt lat="45.74736" lon="4.73135">
        <ele>282.6</ele>
        <time>2022-06-26T14:33:12Z</time>
      </trkpt>
      <trkpt lat="45.74736" lon="4.73148">
        <ele>282.4</ele>
        <time>2022-06-26T14:33:13Z</time>
      </trkpt>
      <trkpt lat="45.74735" lon="4.73161">
        <ele>282.4</ele>
        <time>2022-06-26T14:33:14Z</time>
      </trkpt>
      <trkpt lat="45.74735" lon="4.73172">
        <ele>282</ele>
        <time>2022-06-26T14:33:15Z</time>
      </trkpt>
      <trkpt lat="45.74735" lon="4.73183">
        <ele>282</ele>
        <time>2022-06-26T14:33:16Z</time>
      </trkpt>
      <trkpt lat="45.74734" lon="4.73193">
        <ele>281.6</ele>
        <time>2022-06-26T14:33:17Z</time>
      </trkpt>
      <trkpt lat="45.74732" lon="4.73202">
        <ele>281.6</ele>
        <time>2022-06-26T14:33:18Z</time>
      </trkpt>
      <trkpt lat="45.74727" lon="4.73209">
        <ele>281.2</ele>
        <time>2022-06-26T14:33:19Z</time>
      </trkpt>
      <trkpt lat="45.74723" lon="4.73215">
        <ele>281.2</ele>
        <time>2022-06-26T14:33:20Z</time>
      </trkpt>
      <trkpt lat="45.7472" lon="4.73223">
        <ele>281.2</ele>
        <time>2022-06-26T14:33:21Z</time>
      </trkpt>
      <trkpt lat="45.74719" lon="4.73231">
        <ele>281</ele>
        <time>2022-06-26T14:33:23Z</time>
      </trkpt>
      <trkpt lat="45.7472" lon="4.73238">
        <ele>281</ele>
        <time>2022-06-26T14:33:24Z</time>
      </trkpt>
      <trkpt lat="45.74723" lon="4.73245">
        <ele>280.6</ele>
        <time>2022-06-26T14:33:25Z</time>
      </trkpt>
      <trkpt lat="45.74727" lon="4.73251">
        <ele>280.6</ele>
        <time>2022-06-26T14:33:26Z</time>
      </trkpt>
      <trkpt lat="45.74731" lon="4.73258">
        <ele>280.6</ele>
        <time>2022-06-26T14:33:27Z</time>
      </trkpt>
      <trkpt lat="45.74734" lon="4.73265">
        <ele>280.6</ele>
        <time>2022-06-26T14:33:28Z</time>
      </trkpt>
      <trkpt lat="45.74735" lon="4.73273">
        <ele>280.6</ele>
        <time>2022-06-26T14:33:29Z</time>
      </trkpt>
      <trkpt lat="45.74736" lon="4.73282">
        <ele>280.6</ele>
        <time>2022-06-26T14:33:30Z</time>
      </trkpt>
      <trkpt lat="45.74736" lon="4.7329">
        <ele>280.6</ele>
        <time>2022-06-26T14:33:31Z</time>
      </trkpt>
      <trkpt lat="45.74736" lon="4.73299">
        <ele>280.6</ele>
        <time>2022-06-26T14:33:32Z</time>
      </trkpt>
      <trkpt lat="45.74735" lon="4.73308">
        <ele>280.6</ele>
        <time>2022-06-26T14:33:33Z</time>
      </trkpt>
      <trkpt lat="45.74735" lon="4.73317">
        <ele>280.4</ele>
        <time>2022-06-26T14:33:34Z</time>
      </trkpt>
      <trkpt lat="45.74735" lon="4.73326">
        <ele>280.4</ele>
        <time>2022-06-26T14:33:35Z</time>
      </trkpt>
      <trkpt lat="45.74735" lon="4.73336">
        <ele>280.4</ele>
        <time>2022-06-26T14:33:36Z</time>
      </trkpt>
      <trkpt lat="45.74735" lon="4.73345">
        <ele>280.4</ele>
        <time>2022-06-26T14:33:37Z</time>
      </trkpt>
      <trkpt lat="45.74735" lon="4.73355">
        <ele>280.4</ele>
        <time>2022-06-26T14:33:38Z</time>
      </trkpt>
      <trkpt lat="45.74735" lon="4.73364">
        <ele>280.4</ele>
        <time>2022-06-26T14:33:39Z</time>
      </trkpt>
      <trkpt lat="45.74735" lon="4.73374">
        <ele>280.4</ele>
        <time>2022-06-26T14:33:40Z</time>
      </trkpt>
      <trkpt lat="45.74735" lon="4.73384">
        <ele>280.4</ele>
        <time>2022-06-26T14:33:41Z</time>
      </trkpt>
      <trkpt lat="45.74735" lon="4.73393">
        <ele>280.4</ele>
        <time>2022-06-26T14:33:42Z</time>
      </trkpt>
      <trkpt lat="45.74735" lon="4.73402">
        <ele>280.4</ele>
        <time>2022-06-26T14:33:43Z</time>
      </trkpt>
      <trkpt lat="45.74735" lon="4.73412">
        <ele>280.4</ele>
        <time>2022-06-26T14:33:44Z</time>
      </trkpt>
      <trkpt lat="45.74735" lon="4.73421">
        <ele>280.4</ele>
        <time>2022-06-26T14:33:45Z</time>
      </trkpt>
      <trkpt lat="45.74735" lon="4.7343">
        <ele>280.4</ele>
        <time>2022-06-26T14:33:46Z</time>
      </trkpt>
      <trkpt lat="45.74735" lon="4.73439">
        <ele>280.4</ele>
        <time>2022-06-26T14:33:47Z</time>
      </trkpt>
      <trkpt lat="45.74735" lon="4.73448">
        <ele>280.8</ele>
        <time>2022-06-26T14:33:48Z</time>
      </trkpt>
      <trkpt lat="45.74735" lon="4.73457">
        <ele>280.8</ele>
        <time>2022-06-26T14:33:49Z</time>
      </trkpt>
      <trkpt lat="45.74735" lon="4.73466">
        <ele>280.8</ele>
        <time>2022-06-26T14:33:50Z</time>
      </trkpt>
      <trkpt lat="45.74736" lon="4.73474">
        <ele>280.8</ele>
        <time>2022-06-26T14:33:51Z</time>
      </trkpt>
      <trkpt lat="45.74736" lon="4.73482">
        <ele>280.8</ele>
        <time>2022-06-26T14:33:52Z</time>
      </trkpt>
      <trkpt lat="45.74736" lon="4.7349">
        <ele>280.8</ele>
        <time>2022-06-26T14:33:53Z</time>
      </trkpt>
      <trkpt lat="45.74736" lon="4.73499">
        <ele>280.8</ele>
        <time>2022-06-26T14:33:54Z</time>
      </trkpt>
      <trkpt lat="45.74735" lon="4.73508">
        <ele>281</ele>
        <time>2022-06-26T14:33:55Z</time>
      </trkpt>
      <trkpt lat="45.74735" lon="4.73526">
        <ele>281</ele>
        <time>2022-06-26T14:33:56Z</time>
      </trkpt>
      <trkpt lat="45.74734" lon="4.73534">
        <ele>281</ele>
        <time>2022-06-26T14:33:57Z</time>
      </trkpt>
      <trkpt lat="45.74734" lon="4.73543">
        <ele>281.2</ele>
        <time>2022-06-26T14:33:58Z</time>
      </trkpt>
      <trkpt lat="45.74734" lon="4.73552">
        <ele>281.2</ele>
        <time>2022-06-26T14:33:59Z</time>
      </trkpt>
      <trkpt lat="45.74735" lon="4.73561">
        <ele>281.4</ele>
        <time>2022-06-26T14:34:00Z</time>
      </trkpt>
      <trkpt lat="45.74735" lon="4.73569">
        <ele>281.4</ele>
        <time>2022-06-26T14:34:01Z</time>
      </trkpt>
      <trkpt lat="45.74735" lon="4.73578">
        <ele>281.8</ele>
        <time>2022-06-26T14:34:02Z</time>
      </trkpt>
      <trkpt lat="45.74735" lon="4.73586">
        <ele>281.8</ele>
        <time>2022-06-26T14:34:03Z</time>
      </trkpt>
      <trkpt lat="45.74735" lon="4.73595">
        <ele>281.8</ele>
        <time>2022-06-26T14:34:04Z</time>
      </trkpt>
      <trkpt lat="45.74736" lon="4.73603">
        <ele>282</ele>
        <time>2022-06-26T14:34:05Z</time>
      </trkpt>
      <trkpt lat="45.74736" lon="4.73612">
        <ele>282</ele>
        <time>2022-06-26T14:34:06Z</time>
      </trkpt>
      <trkpt lat="45.74736" lon="4.73619">
        <ele>282</ele>
        <time>2022-06-26T14:34:07Z</time>
      </trkpt>
      <trkpt lat="45.74736" lon="4.73627">
        <ele>282.2</ele>
        <time>2022-06-26T14:34:08Z</time>
      </trkpt>
      <trkpt lat="45.74736" lon="4.73635">
        <ele>282.2</ele>
        <time>2022-06-26T14:34:09Z</time>
      </trkpt>
      <trkpt lat="45.74736" lon="4.73643">
        <ele>282.2</ele>
        <time>2022-06-26T14:34:10Z</time>
      </trkpt>
      <trkpt lat="45.74736" lon="4.73651">
        <ele>282.4</ele>
        <time>2022-06-26T14:34:11Z</time>
      </trkpt>
      <trkpt lat="45.74736" lon="4.73659">
        <ele>282.4</ele>
        <time>2022-06-26T14:34:12Z</time>
      </trkpt>
      <trkpt lat="45.74736" lon="4.73668">
        <ele>282.4</ele>
        <time>2022-06-26T14:34:13Z</time>
      </trkpt>
      <trkpt lat="45.74736" lon="4.73676">
        <ele>282.4</ele>
        <time>2022-06-26T14:34:14Z</time>
      </trkpt>
      <trkpt lat="45.74736" lon="4.73684">
        <ele>282.4</ele>
        <time>2022-06-26T14:34:15Z</time>
      </trkpt>
      <trkpt lat="45.74736" lon="4.73693">
        <ele>282.4</ele>
        <time>2022-06-26T14:34:16Z</time>
      </trkpt>
      <trkpt lat="45.74736" lon="4.73702">
        <ele>282.4</ele>
        <time>2022-06-26T14:34:17Z</time>
      </trkpt>
      <trkpt lat="45.74736" lon="4.73711">
        <ele>282.4</ele>
        <time>2022-06-26T14:34:18Z</time>
      </trkpt>
      <trkpt lat="45.74736" lon="4.73721">
        <ele>282.4</ele>
        <time>2022-06-26T14:34:19Z</time>
      </trkpt>
      <trkpt lat="45.74736" lon="4.73731">
        <ele>282.4</ele>
        <time>2022-06-26T14:34:20Z</time>
      </trkpt>
      <trkpt lat="45.74736" lon="4.73741">
        <ele>282.2</ele>
        <time>2022-06-26T14:34:21Z</time>
      </trkpt>
      <trkpt lat="45.74736" lon="4.7375">
        <ele>281.8</ele>
        <time>2022-06-26T14:34:22Z</time>
      </trkpt>
      <trkpt lat="45.74736" lon="4.73761">
        <ele>281.6</ele>
        <time>2022-06-26T14:34:23Z</time>
      </trkpt>
      <trkpt lat="45.74736" lon="4.73771">
        <ele>281.6</ele>
        <time>2022-06-26T14:34:24Z</time>
      </trkpt>
      <trkpt lat="45.74736" lon="4.73782">
        <ele>281.2</ele>
        <time>2022-06-26T14:34:25Z</time>
      </trkpt>
      <trkpt lat="45.74736" lon="4.73792">
        <ele>281.2</ele>
        <time>2022-06-26T14:34:26Z</time>
      </trkpt>
      <trkpt lat="45.74736" lon="4.73803">
        <ele>281.2</ele>
        <time>2022-06-26T14:34:27Z</time>
      </trkpt>
      <trkpt lat="45.74736" lon="4.73814">
        <ele>280.8</ele>
        <time>2022-06-26T14:34:28Z</time>
      </trkpt>
      <trkpt lat="45.74736" lon="4.73825">
        <ele>280.6</ele>
        <time>2022-06-26T14:34:29Z</time>
      </trkpt>
      <trkpt lat="45.74736" lon="4.73836">
        <ele>280.6</ele>
        <time>2022-06-26T14:34:30Z</time>
      </trkpt>
      <trkpt lat="45.74736" lon="4.73847">
        <ele>280.2</ele>
        <time>2022-06-26T14:34:31Z</time>
      </trkpt>
      <trkpt lat="45.74736" lon="4.73858">
        <ele>279.8</ele>
        <time>2022-06-26T14:34:32Z</time>
      </trkpt>
      <trkpt lat="45.74736" lon="4.73869">
        <ele>279.6</ele>
        <time>2022-06-26T14:34:33Z</time>
      </trkpt>
      <trkpt lat="45.74736" lon="4.7388">
        <ele>279.4</ele>
        <time>2022-06-26T14:34:34Z</time>
      </trkpt>
      <trkpt lat="45.74736" lon="4.73891">
        <ele>279.4</ele>
        <time>2022-06-26T14:34:35Z</time>
      </trkpt>
      <trkpt lat="45.74736" lon="4.73902">
        <ele>278.8</ele>
        <time>2022-06-26T14:34:36Z</time>
      </trkpt>
      <trkpt lat="45.74736" lon="4.73913">
        <ele>278.4</ele>
        <time>2022-06-26T14:34:37Z</time>
      </trkpt>
      <trkpt lat="45.74735" lon="4.73925">
        <ele>278.2</ele>
        <time>2022-06-26T14:34:38Z</time>
      </trkpt>
      <trkpt lat="45.74733" lon="4.73936">
        <ele>278</ele>
        <time>2022-06-26T14:34:39Z</time>
      </trkpt>
      <trkpt lat="45.74731" lon="4.73947">
        <ele>278</ele>
        <time>2022-06-26T14:34:40Z</time>
      </trkpt>
      <trkpt lat="45.7473" lon="4.73958">
        <ele>277.6</ele>
        <time>2022-06-26T14:34:41Z</time>
      </trkpt>
      <trkpt lat="45.74729" lon="4.73969">
        <ele>277.4</ele>
        <time>2022-06-26T14:34:42Z</time>
      </trkpt>
      <trkpt lat="45.74729" lon="4.73981">
        <ele>277.4</ele>
        <time>2022-06-26T14:34:43Z</time>
      </trkpt>
      <trkpt lat="45.74729" lon="4.73992">
        <ele>277</ele>
        <time>2022-06-26T14:34:44Z</time>
      </trkpt>
      <trkpt lat="45.7473" lon="4.74004">
        <ele>277</ele>
        <time>2022-06-26T14:34:45Z</time>
      </trkpt>
      <trkpt lat="45.74731" lon="4.74015">
        <ele>276.6</ele>
        <time>2022-06-26T14:34:46Z</time>
      </trkpt>
      <trkpt lat="45.74733" lon="4.74027">
        <ele>276.6</ele>
        <time>2022-06-26T14:34:47Z</time>
      </trkpt>
      <trkpt lat="45.74734" lon="4.74039">
        <ele>276.4</ele>
        <time>2022-06-26T14:34:48Z</time>
      </trkpt>
      <trkpt lat="45.74734" lon="4.7405">
        <ele>276.4</ele>
        <time>2022-06-26T14:34:49Z</time>
      </trkpt>
      <trkpt lat="45.74734" lon="4.74062">
        <ele>276.2</ele>
        <time>2022-06-26T14:34:50Z</time>
      </trkpt>
      <trkpt lat="45.74734" lon="4.74074">
        <ele>276.2</ele>
        <time>2022-06-26T14:34:51Z</time>
      </trkpt>
      <trkpt lat="45.74734" lon="4.74085">
        <ele>275.8</ele>
        <time>2022-06-26T14:34:52Z</time>
      </trkpt>
      <trkpt lat="45.74735" lon="4.74096">
        <ele>275.8</ele>
        <time>2022-06-26T14:34:53Z</time>
      </trkpt>
      <trkpt lat="45.74735" lon="4.74107">
        <ele>275.8</ele>
        <time>2022-06-26T14:34:54Z</time>
      </trkpt>
      <trkpt lat="45.74735" lon="4.74117">
        <ele>275.6</ele>
        <time>2022-06-26T14:34:55Z</time>
      </trkpt>
      <trkpt lat="45.74735" lon="4.74128">
        <ele>275.6</ele>
        <time>2022-06-26T14:34:56Z</time>
      </trkpt>
      <trkpt lat="45.74735" lon="4.74138">
        <ele>275.6</ele>
        <time>2022-06-26T14:34:57Z</time>
      </trkpt>
      <trkpt lat="45.74735" lon="4.74148">
        <ele>275.2</ele>
        <time>2022-06-26T14:34:58Z</time>
      </trkpt>
      <trkpt lat="45.74735" lon="4.74157">
        <ele>275.2</ele>
        <time>2022-06-26T14:34:59Z</time>
      </trkpt>
      <trkpt lat="45.74735" lon="4.74166">
        <ele>275</ele>
        <time>2022-06-26T14:35:00Z</time>
      </trkpt>
      <trkpt lat="45.74736" lon="4.74175">
        <ele>275</ele>
        <time>2022-06-26T14:35:01Z</time>
      </trkpt>
      <trkpt lat="45.74736" lon="4.74183">
        <ele>275</ele>
        <time>2022-06-26T14:35:02Z</time>
      </trkpt>
      <trkpt lat="45.74736" lon="4.74191">
        <ele>274.8</ele>
        <time>2022-06-26T14:35:03Z</time>
      </trkpt>
      <trkpt lat="45.74736" lon="4.74198">
        <ele>274.8</ele>
        <time>2022-06-26T14:35:04Z</time>
      </trkpt>
      <trkpt lat="45.74736" lon="4.74205">
        <ele>274.6</ele>
        <time>2022-06-26T14:35:05Z</time>
      </trkpt>
      <trkpt lat="45.74736" lon="4.74211">
        <ele>274.6</ele>
        <time>2022-06-26T14:35:06Z</time>
      </trkpt>
      <trkpt lat="45.74736" lon="4.74217">
        <ele>274.6</ele>
        <time>2022-06-26T14:35:07Z</time>
      </trkpt>
      <trkpt lat="45.74736" lon="4.74221">
        <ele>274.2</ele>
        <time>2022-06-26T14:35:08Z</time>
      </trkpt>
      <trkpt lat="45.74736" lon="4.74224">
        <ele>274.2</ele>
        <time>2022-06-26T14:35:09Z</time>
      </trkpt>
      <trkpt lat="45.74736" lon="4.74227">
        <ele>274.2</ele>
        <time>2022-06-26T14:35:10Z</time>
      </trkpt>
      <trkpt lat="45.74735" lon="4.74233">
        <ele>274.2</ele>
        <time>2022-06-26T14:35:22Z</time>
      </trkpt>
      <trkpt lat="45.74735" lon="4.74236">
        <ele>274.2</ele>
        <time>2022-06-26T14:35:23Z</time>
      </trkpt>
      <trkpt lat="45.74735" lon="4.74241">
        <ele>274.2</ele>
        <time>2022-06-26T14:35:24Z</time>
      </trkpt>
      <trkpt lat="45.74735" lon="4.74247">
        <ele>274.2</ele>
        <time>2022-06-26T14:35:25Z</time>
      </trkpt>
      <trkpt lat="45.74734" lon="4.74254">
        <ele>274.2</ele>
        <time>2022-06-26T14:35:26Z</time>
      </trkpt>
      <trkpt lat="45.74734" lon="4.74261">
        <ele>274.2</ele>
        <time>2022-06-26T14:35:27Z</time>
      </trkpt>
      <trkpt lat="45.74734" lon="4.74269">
        <ele>274.2</ele>
        <time>2022-06-26T14:35:28Z</time>
      </trkpt>
      <trkpt lat="45.74734" lon="4.74277">
        <ele>274.2</ele>
        <time>2022-06-26T14:35:29Z</time>
      </trkpt>
      <trkpt lat="45.74734" lon="4.74286">
        <ele>274.2</ele>
        <time>2022-06-26T14:35:30Z</time>
      </trkpt>
      <trkpt lat="45.74734" lon="4.74295">
        <ele>274.2</ele>
        <time>2022-06-26T14:35:31Z</time>
      </trkpt>
      <trkpt lat="45.74734" lon="4.74305">
        <ele>274.2</ele>
        <time>2022-06-26T14:35:32Z</time>
      </trkpt>
      <trkpt lat="45.74734" lon="4.74315">
        <ele>274.2</ele>
        <time>2022-06-26T14:35:33Z</time>
      </trkpt>
      <trkpt lat="45.74734" lon="4.74325">
        <ele>274.2</ele>
        <time>2022-06-26T14:35:34Z</time>
      </trkpt>
      <trkpt lat="45.74734" lon="4.74335">
        <ele>274.2</ele>
        <time>2022-06-26T14:35:35Z</time>
      </trkpt>
      <trkpt lat="45.74734" lon="4.74345">
        <ele>274.2</ele>
        <time>2022-06-26T14:35:36Z</time>
      </trkpt>
      <trkpt lat="45.74734" lon="4.74355">
        <ele>274.2</ele>
        <time>2022-06-26T14:35:37Z</time>
      </trkpt>
      <trkpt lat="45.74735" lon="4.74365">
        <ele>274.2</ele>
        <time>2022-06-26T14:35:38Z</time>
      </trkpt>
      <trkpt lat="45.74735" lon="4.74375">
        <ele>274.2</ele>
        <time>2022-06-26T14:35:39Z</time>
      </trkpt>
      <trkpt lat="45.74736" lon="4.74385">
        <ele>274</ele>
        <time>2022-06-26T14:35:40Z</time>
      </trkpt>
      <trkpt lat="45.74736" lon="4.74395">
        <ele>274</ele>
        <time>2022-06-26T14:35:41Z</time>
      </trkpt>
      <trkpt lat="45.74736" lon="4.74406">
        <ele>274</ele>
        <time>2022-06-26T14:35:42Z</time>
      </trkpt>
      <trkpt lat="45.74736" lon="4.74416">
        <ele>274</ele>
        <time>2022-06-26T14:35:43Z</time>
      </trkpt>
      <trkpt lat="45.74736" lon="4.74426">
        <ele>273.8</ele>
        <time>2022-06-26T14:35:44Z</time>
      </trkpt>
      <trkpt lat="45.74736" lon="4.74437">
        <ele>273.8</ele>
        <time>2022-06-26T14:35:45Z</time>
      </trkpt>
      <trkpt lat="45.74735" lon="4.74447">
        <ele>273.8</ele>
        <time>2022-06-26T14:35:46Z</time>
      </trkpt>
      <trkpt lat="45.74736" lon="4.74457">
        <ele>273.8</ele>
        <time>2022-06-26T14:35:47Z</time>
      </trkpt>
      <trkpt lat="45.74736" lon="4.74468">
        <ele>273.8</ele>
        <time>2022-06-26T14:35:48Z</time>
      </trkpt>
      <trkpt lat="45.74736" lon="4.74478">
        <ele>273.8</ele>
        <time>2022-06-26T14:35:49Z</time>
      </trkpt>
      <trkpt lat="45.74736" lon="4.74488">
        <ele>273.8</ele>
        <time>2022-06-26T14:35:50Z</time>
      </trkpt>
      <trkpt lat="45.74736" lon="4.74498">
        <ele>273.8</ele>
        <time>2022-06-26T14:35:51Z</time>
      </trkpt>
      <trkpt lat="45.74736" lon="4.74508">
        <ele>273.8</ele>
        <time>2022-06-26T14:35:52Z</time>
      </trkpt>
      <trkpt lat="45.74735" lon="4.74518">
        <ele>273.8</ele>
        <time>2022-06-26T14:35:53Z</time>
      </trkpt>
      <trkpt lat="45.74735" lon="4.74529">
        <ele>273.8</ele>
        <time>2022-06-26T14:35:54Z</time>
      </trkpt>
      <trkpt lat="45.74735" lon="4.7454">
        <ele>273.8</ele>
        <time>2022-06-26T14:35:55Z</time>
      </trkpt>
      <trkpt lat="45.74735" lon="4.74551">
        <ele>273.8</ele>
        <time>2022-06-26T14:35:56Z</time>
      </trkpt>
      <trkpt lat="45.74736" lon="4.74561">
        <ele>273.6</ele>
        <time>2022-06-26T14:35:57Z</time>
      </trkpt>
      <trkpt lat="45.74736" lon="4.74572">
        <ele>273.6</ele>
        <time>2022-06-26T14:35:58Z</time>
      </trkpt>
      <trkpt lat="45.74736" lon="4.74583">
        <ele>273.6</ele>
        <time>2022-06-26T14:35:59Z</time>
      </trkpt>
      <trkpt lat="45.74736" lon="4.74594">
        <ele>273.6</ele>
        <time>2022-06-26T14:36:00Z</time>
      </trkpt>
      <trkpt lat="45.74736" lon="4.74605">
        <ele>273.4</ele>
        <time>2022-06-26T14:36:01Z</time>
      </trkpt>
      <trkpt lat="45.74736" lon="4.74616">
        <ele>273.4</ele>
        <time>2022-06-26T14:36:02Z</time>
      </trkpt>
      <trkpt lat="45.74736" lon="4.74627">
        <ele>273.4</ele>
        <time>2022-06-26T14:36:03Z</time>
      </trkpt>
      <trkpt lat="45.74736" lon="4.74638">
        <ele>273.4</ele>
        <time>2022-06-26T14:36:04Z</time>
      </trkpt>
      <trkpt lat="45.74736" lon="4.74648">
        <ele>273.4</ele>
        <time>2022-06-26T14:36:05Z</time>
      </trkpt>
      <trkpt lat="45.74736" lon="4.74659">
        <ele>273.4</ele>
        <time>2022-06-26T14:36:06Z</time>
      </trkpt>
      <trkpt lat="45.74736" lon="4.7467">
        <ele>273.4</ele>
        <time>2022-06-26T14:36:07Z</time>
      </trkpt>
      <trkpt lat="45.74736" lon="4.7468">
        <ele>273.2</ele>
        <time>2022-06-26T14:36:08Z</time>
      </trkpt>
      <trkpt lat="45.74736" lon="4.74691">
        <ele>273.2</ele>
        <time>2022-06-26T14:36:09Z</time>
      </trkpt>
      <trkpt lat="45.74737" lon="4.74702">
        <ele>273.2</ele>
        <time>2022-06-26T14:36:10Z</time>
      </trkpt>
      <trkpt lat="45.74737" lon="4.74712">
        <ele>273.2</ele>
        <time>2022-06-26T14:36:11Z</time>
      </trkpt>
      <trkpt lat="45.74737" lon="4.74722">
        <ele>273</ele>
        <time>2022-06-26T14:36:12Z</time>
      </trkpt>
      <trkpt lat="45.74737" lon="4.74732">
        <ele>273</ele>
        <time>2022-06-26T14:36:13Z</time>
      </trkpt>
      <trkpt lat="45.74737" lon="4.74743">
        <ele>273</ele>
        <time>2022-06-26T14:36:14Z</time>
      </trkpt>
      <trkpt lat="45.74737" lon="4.74753">
        <ele>272.6</ele>
        <time>2022-06-26T14:36:15Z</time>
      </trkpt>
      <trkpt lat="45.74737" lon="4.74763">
        <ele>272.6</ele>
        <time>2022-06-26T14:36:16Z</time>
      </trkpt>
      <trkpt lat="45.74737" lon="4.74774">
        <ele>272.2</ele>
        <time>2022-06-26T14:36:17Z</time>
      </trkpt>
      <trkpt lat="45.74737" lon="4.74785">
        <ele>272.2</ele>
        <time>2022-06-26T14:36:18Z</time>
      </trkpt>
      <trkpt lat="45.74737" lon="4.74796">
        <ele>271.8</ele>
        <time>2022-06-26T14:36:19Z</time>
      </trkpt>
      <trkpt lat="45.74737" lon="4.74808">
        <ele>271.6</ele>
        <time>2022-06-26T14:36:20Z</time>
      </trkpt>
      <trkpt lat="45.74737" lon="4.74819">
        <ele>271.2</ele>
        <time>2022-06-26T14:36:21Z</time>
      </trkpt>
      <trkpt lat="45.74737" lon="4.7483">
        <ele>271</ele>
        <time>2022-06-26T14:36:22Z</time>
      </trkpt>
      <trkpt lat="45.74737" lon="4.74843">
        <ele>270.8</ele>
        <time>2022-06-26T14:36:23Z</time>
      </trkpt>
      <trkpt lat="45.74737" lon="4.74855">
        <ele>270.4</ele>
        <time>2022-06-26T14:36:24Z</time>
      </trkpt>
      <trkpt lat="45.74737" lon="4.74867">
        <ele>270.2</ele>
        <time>2022-06-26T14:36:25Z</time>
      </trkpt>
      <trkpt lat="45.74736" lon="4.7488">
        <ele>269.8</ele>
        <time>2022-06-26T14:36:26Z</time>
      </trkpt>
      <trkpt lat="45.74736" lon="4.74892">
        <ele>269.6</ele>
        <time>2022-06-26T14:36:27Z</time>
      </trkpt>
      <trkpt lat="45.74736" lon="4.74905">
        <ele>269.2</ele>
        <time>2022-06-26T14:36:28Z</time>
      </trkpt>
      <trkpt lat="45.74736" lon="4.74917">
        <ele>269.2</ele>
        <time>2022-06-26T14:36:29Z</time>
      </trkpt>
      <trkpt lat="45.74736" lon="4.7493">
        <ele>268.8</ele>
        <time>2022-06-26T14:36:30Z</time>
      </trkpt>
      <trkpt lat="45.74736" lon="4.74942">
        <ele>268.4</ele>
        <time>2022-06-26T14:36:31Z</time>
      </trkpt>
      <trkpt lat="45.74736" lon="4.74955">
        <ele>268.2</ele>
        <time>2022-06-26T14:36:32Z</time>
      </trkpt>
      <trkpt lat="45.74736" lon="4.74967">
        <ele>268</ele>
        <time>2022-06-26T14:36:33Z</time>
      </trkpt>
      <trkpt lat="45.74736" lon="4.7498">
        <ele>267.6</ele>
        <time>2022-06-26T14:36:34Z</time>
      </trkpt>
      <trkpt lat="45.74737" lon="4.74992">
        <ele>267.2</ele>
        <time>2022-06-26T14:36:35Z</time>
      </trkpt>
      <trkpt lat="45.74737" lon="4.75005">
        <ele>266.8</ele>
        <time>2022-06-26T14:36:36Z</time>
      </trkpt>
      <trkpt lat="45.74737" lon="4.75018">
        <ele>266.4</ele>
        <time>2022-06-26T14:36:37Z</time>
      </trkpt>
      <trkpt lat="45.74737" lon="4.7503">
        <ele>266</ele>
        <time>2022-06-26T14:36:38Z</time>
      </trkpt>
      <trkpt lat="45.74737" lon="4.75043">
        <ele>265.8</ele>
        <time>2022-06-26T14:36:39Z</time>
      </trkpt>
      <trkpt lat="45.74737" lon="4.75056">
        <ele>265.6</ele>
        <time>2022-06-26T14:36:40Z</time>
      </trkpt>
      <trkpt lat="45.74737" lon="4.75068">
        <ele>265.4</ele>
        <time>2022-06-26T14:36:41Z</time>
      </trkpt>
      <trkpt lat="45.74737" lon="4.7508">
        <ele>265.4</ele>
        <time>2022-06-26T14:36:42Z</time>
      </trkpt>
      <trkpt lat="45.74737" lon="4.75091">
        <ele>265.4</ele>
        <time>2022-06-26T14:36:43Z</time>
      </trkpt>
      <trkpt lat="45.74737" lon="4.75101">
        <ele>264.8</ele>
        <time>2022-06-26T14:36:44Z</time>
      </trkpt>
      <trkpt lat="45.74737" lon="4.7511">
        <ele>264.4</ele>
        <time>2022-06-26T14:36:45Z</time>
      </trkpt>
      <trkpt lat="45.74737" lon="4.75118">
        <ele>264</ele>
        <time>2022-06-26T14:36:46Z</time>
      </trkpt>
      <trkpt lat="45.74737" lon="4.75125">
        <ele>263.6</ele>
        <time>2022-06-26T14:36:47Z</time>
      </trkpt>
      <trkpt lat="45.74737" lon="4.75131">
        <ele>263.4</ele>
        <time>2022-06-26T14:36:48Z</time>
      </trkpt>
      <trkpt lat="45.74737" lon="4.75135">
        <ele>263</ele>
        <time>2022-06-26T14:36:49Z</time>
      </trkpt>
      <trkpt lat="45.74737" lon="4.7514">
        <ele>262.8</ele>
        <time>2022-06-26T14:36:50Z</time>
      </trkpt>
      <trkpt lat="45.74737" lon="4.75144">
        <ele>262.8</ele>
        <time>2022-06-26T14:36:51Z</time>
      </trkpt>
      <trkpt lat="45.74736" lon="4.7515">
        <ele>262.4</ele>
        <time>2022-06-26T14:36:52Z</time>
      </trkpt>
      <trkpt lat="45.74736" lon="4.75156">
        <ele>262.4</ele>
        <time>2022-06-26T14:36:53Z</time>
      </trkpt>
      <trkpt lat="45.74736" lon="4.75162">
        <ele>262</ele>
        <time>2022-06-26T14:36:54Z</time>
      </trkpt>
      <trkpt lat="45.74736" lon="4.75169">
        <ele>262</ele>
        <time>2022-06-26T14:36:55Z</time>
      </trkpt>
      <trkpt lat="45.74736" lon="4.75176">
        <ele>261.8</ele>
        <time>2022-06-26T14:36:56Z</time>
      </trkpt>
      <trkpt lat="45.74736" lon="4.75184">
        <ele>261.6</ele>
        <time>2022-06-26T14:36:57Z</time>
      </trkpt>
      <trkpt lat="45.74736" lon="4.75193">
        <ele>261.2</ele>
        <time>2022-06-26T14:36:58Z</time>
      </trkpt>
      <trkpt lat="45.74736" lon="4.75201">
        <ele>261.2</ele>
        <time>2022-06-26T14:36:59Z</time>
      </trkpt>
      <trkpt lat="45.74735" lon="4.7521">
        <ele>261</ele>
        <time>2022-06-26T14:37:00Z</time>
      </trkpt>
      <trkpt lat="45.74736" lon="4.75218">
        <ele>261</ele>
        <time>2022-06-26T14:37:01Z</time>
      </trkpt>
      <trkpt lat="45.74736" lon="4.75227">
        <ele>260.6</ele>
        <time>2022-06-26T14:37:02Z</time>
      </trkpt>
      <trkpt lat="45.74736" lon="4.75236">
        <ele>260.4</ele>
        <time>2022-06-26T14:37:03Z</time>
      </trkpt>
      <trkpt lat="45.74736" lon="4.75245">
        <ele>260.4</ele>
        <time>2022-06-26T14:37:04Z</time>
      </trkpt>
      <trkpt lat="45.74736" lon="4.75255">
        <ele>260.2</ele>
        <time>2022-06-26T14:37:05Z</time>
      </trkpt>
      <trkpt lat="45.74736" lon="4.75265">
        <ele>260</ele>
        <time>2022-06-26T14:37:06Z</time>
      </trkpt>
      <trkpt lat="45.74736" lon="4.75275">
        <ele>259.8</ele>
        <time>2022-06-26T14:37:07Z</time>
      </trkpt>
      <trkpt lat="45.74736" lon="4.75285">
        <ele>259.8</ele>
        <time>2022-06-26T14:37:08Z</time>
      </trkpt>
      <trkpt lat="45.74736" lon="4.75296">
        <ele>259.4</ele>
        <time>2022-06-26T14:37:09Z</time>
      </trkpt>
      <trkpt lat="45.74737" lon="4.75306">
        <ele>259</ele>
        <time>2022-06-26T14:37:10Z</time>
      </trkpt>
      <trkpt lat="45.74737" lon="4.75317">
        <ele>258.8</ele>
        <time>2022-06-26T14:37:11Z</time>
      </trkpt>
      <trkpt lat="45.74738" lon="4.75327">
        <ele>258.6</ele>
        <time>2022-06-26T14:37:12Z</time>
      </trkpt>
      <trkpt lat="45.74738" lon="4.75338">
        <ele>258.4</ele>
        <time>2022-06-26T14:37:13Z</time>
      </trkpt>
      <trkpt lat="45.74737" lon="4.75348">
        <ele>258.2</ele>
        <time>2022-06-26T14:37:14Z</time>
      </trkpt>
      <trkpt lat="45.74737" lon="4.75359">
        <ele>258.2</ele>
        <time>2022-06-26T14:37:15Z</time>
      </trkpt>
      <trkpt lat="45.74738" lon="4.75369">
        <ele>257.8</ele>
        <time>2022-06-26T14:37:16Z</time>
      </trkpt>
      <trkpt lat="45.74738" lon="4.75379">
        <ele>257.6</ele>
        <time>2022-06-26T14:37:17Z</time>
      </trkpt>
      <trkpt lat="45.74738" lon="4.75388">
        <ele>257.6</ele>
        <time>2022-06-26T14:37:18Z</time>
      </trkpt>
      <trkpt lat="45.74738" lon="4.75398">
        <ele>257.4</ele>
        <time>2022-06-26T14:37:19Z</time>
      </trkpt>
      <trkpt lat="45.74738" lon="4.75407">
        <ele>257.4</ele>
        <time>2022-06-26T14:37:20Z</time>
      </trkpt>
      <trkpt lat="45.74738" lon="4.75415">
        <ele>257</ele>
        <time>2022-06-26T14:37:21Z</time>
      </trkpt>
      <trkpt lat="45.74738" lon="4.75424">
        <ele>257</ele>
        <time>2022-06-26T14:37:22Z</time>
      </trkpt>
      <trkpt lat="45.74738" lon="4.75432">
        <ele>257</ele>
        <time>2022-06-26T14:37:23Z</time>
      </trkpt>
      <trkpt lat="45.74738" lon="4.7544">
        <ele>257</ele>
        <time>2022-06-26T14:37:24Z</time>
      </trkpt>
      <trkpt lat="45.74738" lon="4.75448">
        <ele>257</ele>
        <time>2022-06-26T14:37:25Z</time>
      </trkpt>
      <trkpt lat="45.74738" lon="4.75456">
        <ele>256.8</ele>
        <time>2022-06-26T14:37:26Z</time>
      </trkpt>
      <trkpt lat="45.74738" lon="4.75465">
        <ele>256.8</ele>
        <time>2022-06-26T14:37:27Z</time>
      </trkpt>
      <trkpt lat="45.74738" lon="4.75473">
        <ele>256.8</ele>
        <time>2022-06-26T14:37:28Z</time>
      </trkpt>
      <trkpt lat="45.74739" lon="4.7548">
        <ele>256.8</ele>
        <time>2022-06-26T14:37:29Z</time>
      </trkpt>
      <trkpt lat="45.74738" lon="4.75488">
        <ele>256.6</ele>
        <time>2022-06-26T14:37:30Z</time>
      </trkpt>
      <trkpt lat="45.74738" lon="4.75494">
        <ele>256.6</ele>
        <time>2022-06-26T14:37:31Z</time>
      </trkpt>
      <trkpt lat="45.74738" lon="4.75499">
        <ele>256.4</ele>
        <time>2022-06-26T14:37:32Z</time>
      </trkpt>
      <trkpt lat="45.74738" lon="4.75503">
        <ele>256.4</ele>
        <time>2022-06-26T14:37:33Z</time>
      </trkpt>
      <trkpt lat="45.74738" lon="4.75507">
        <ele>256.4</ele>
        <time>2022-06-26T14:37:34Z</time>
      </trkpt>
      <trkpt lat="45.74738" lon="4.7551">
        <ele>256.4</ele>
        <time>2022-06-26T14:37:35Z</time>
      </trkpt>
      <trkpt lat="45.74738" lon="4.75513">
        <ele>256.4</ele>
        <time>2022-06-26T14:37:36Z</time>
      </trkpt>
      <trkpt lat="45.74738" lon="4.75516">
        <ele>256</ele>
        <time>2022-06-26T14:37:37Z</time>
      </trkpt>
      <trkpt lat="45.74738" lon="4.75519">
        <ele>256</ele>
        <time>2022-06-26T14:37:38Z</time>
      </trkpt>
      <trkpt lat="45.74738" lon="4.75522">
        <ele>256</ele>
        <time>2022-06-26T14:37:39Z</time>
      </trkpt>
      <trkpt lat="45.74738" lon="4.75524">
        <ele>256</ele>
        <time>2022-06-26T14:37:40Z</time>
      </trkpt>
      <trkpt lat="45.74738" lon="4.75526">
        <ele>256</ele>
        <time>2022-06-26T14:37:41Z</time>
      </trkpt>
      <trkpt lat="45.74738" lon="4.75527">
        <ele>256</ele>
        <time>2022-06-26T14:37:42Z</time>
      </trkpt>
      <trkpt lat="45.74738" lon="4.75533">
        <ele>256</ele>
        <time>2022-06-26T14:37:49Z</time>
      </trkpt>
      <trkpt lat="45.74738" lon="4.75536">
        <ele>256</ele>
        <time>2022-06-26T14:37:50Z</time>
      </trkpt>
      <trkpt lat="45.74738" lon="4.75539">
        <ele>256</ele>
        <time>2022-06-26T14:37:51Z</time>
      </trkpt>
      <trkpt lat="45.74738" lon="4.75543">
        <ele>256</ele>
        <time>2022-06-26T14:37:52Z</time>
      </trkpt>
      <trkpt lat="45.74738" lon="4.75547">
        <ele>256</ele>
        <time>2022-06-26T14:37:53Z</time>
      </trkpt>
      <trkpt lat="45.74738" lon="4.75552">
        <ele>255.8</ele>
        <time>2022-06-26T14:37:54Z</time>
      </trkpt>
      <trkpt lat="45.74737" lon="4.75557">
        <ele>255.8</ele>
        <time>2022-06-26T14:37:55Z</time>
      </trkpt>
      <trkpt lat="45.74737" lon="4.75562">
        <ele>255.8</ele>
        <time>2022-06-26T14:37:56Z</time>
      </trkpt>
      <trkpt lat="45.74737" lon="4.75568">
        <ele>255.8</ele>
        <time>2022-06-26T14:37:57Z</time>
      </trkpt>
      <trkpt lat="45.74738" lon="4.75574">
        <ele>255.8</ele>
        <time>2022-06-26T14:37:58Z</time>
      </trkpt>
      <trkpt lat="45.74738" lon="4.75579">
        <ele>255.8</ele>
        <time>2022-06-26T14:37:59Z</time>
      </trkpt>
      <trkpt lat="45.74738" lon="4.75584">
        <ele>255.6</ele>
        <time>2022-06-26T14:38:00Z</time>
      </trkpt>
      <trkpt lat="45.74738" lon="4.75589">
        <ele>255.6</ele>
        <time>2022-06-26T14:38:01Z</time>
      </trkpt>
      <trkpt lat="45.74738" lon="4.75593">
        <ele>255.6</ele>
        <time>2022-06-26T14:38:02Z</time>
      </trkpt>
      <trkpt lat="45.74739" lon="4.75596">
        <ele>255.6</ele>
        <time>2022-06-26T14:38:03Z</time>
      </trkpt>
      <trkpt lat="45.74739" lon="4.75598">
        <ele>255.6</ele>
        <time>2022-06-26T14:38:04Z</time>
      </trkpt>
      <trkpt lat="45.74739" lon="4.756">
        <ele>255.4</ele>
        <time>2022-06-26T14:38:05Z</time>
      </trkpt>
      <trkpt lat="45.7474" lon="4.75605">
        <ele>255.4</ele>
        <time>2022-06-26T14:38:28Z</time>
      </trkpt>
      <trkpt lat="45.7474" lon="4.75609">
        <ele>255.4</ele>
        <time>2022-06-26T14:38:29Z</time>
      </trkpt>
      <trkpt lat="45.7474" lon="4.75614">
        <ele>255.4</ele>
        <time>2022-06-26T14:38:30Z</time>
      </trkpt>
      <trkpt lat="45.7474" lon="4.7562">
        <ele>255.2</ele>
        <time>2022-06-26T14:38:31Z</time>
      </trkpt>
      <trkpt lat="45.7474" lon="4.75626">
        <ele>255.2</ele>
        <time>2022-06-26T14:38:32Z</time>
      </trkpt>
      <trkpt lat="45.7474" lon="4.75632">
        <ele>255.2</ele>
        <time>2022-06-26T14:38:33Z</time>
      </trkpt>
      <trkpt lat="45.7474" lon="4.75639">
        <ele>255.2</ele>
        <time>2022-06-26T14:38:34Z</time>
      </trkpt>
      <trkpt lat="45.7474" lon="4.75646">
        <ele>255.2</ele>
        <time>2022-06-26T14:38:35Z</time>
      </trkpt>
      <trkpt lat="45.7474" lon="4.75654">
        <ele>255.2</ele>
        <time>2022-06-26T14:38:36Z</time>
      </trkpt>
      <trkpt lat="45.7474" lon="4.75662">
        <ele>255</ele>
        <time>2022-06-26T14:38:37Z</time>
      </trkpt>
      <trkpt lat="45.7474" lon="4.75671">
        <ele>255</ele>
        <time>2022-06-26T14:38:38Z</time>
      </trkpt>
      <trkpt lat="45.7474" lon="4.7568">
        <ele>254.6</ele>
        <time>2022-06-26T14:38:39Z</time>
      </trkpt>
      <trkpt lat="45.7474" lon="4.75689">
        <ele>254.6</ele>
        <time>2022-06-26T14:38:40Z</time>
      </trkpt>
      <trkpt lat="45.7474" lon="4.75698">
        <ele>254.4</ele>
        <time>2022-06-26T14:38:41Z</time>
      </trkpt>
      <trkpt lat="45.7474" lon="4.75708">
        <ele>254.4</ele>
        <time>2022-06-26T14:38:42Z</time>
      </trkpt>
      <trkpt lat="45.74741" lon="4.75717">
        <ele>254</ele>
        <time>2022-06-26T14:38:43Z</time>
      </trkpt>
      <trkpt lat="45.74742" lon="4.75727">
        <ele>253.8</ele>
        <time>2022-06-26T14:38:44Z</time>
      </trkpt>
      <trkpt lat="45.74743" lon="4.75737">
        <ele>253.6</ele>
        <time>2022-06-26T14:38:45Z</time>
      </trkpt>
      <trkpt lat="45.74744" lon="4.75747">
        <ele>253.2</ele>
        <time>2022-06-26T14:38:46Z</time>
      </trkpt>
      <trkpt lat="45.74746" lon="4.75757">
        <ele>253.2</ele>
        <time>2022-06-26T14:38:47Z</time>
      </trkpt>
      <trkpt lat="45.74747" lon="4.75767">
        <ele>252.8</ele>
        <time>2022-06-26T14:38:48Z</time>
      </trkpt>
      <trkpt lat="45.74749" lon="4.75778">
        <ele>252.6</ele>
        <time>2022-06-26T14:38:49Z</time>
      </trkpt>
      <trkpt lat="45.74751" lon="4.75788">
        <ele>252.4</ele>
        <time>2022-06-26T14:38:50Z</time>
      </trkpt>
      <trkpt lat="45.74753" lon="4.75799">
        <ele>252.4</ele>
        <time>2022-06-26T14:38:51Z</time>
      </trkpt>
      <trkpt lat="45.74755" lon="4.75809">
        <ele>251.8</ele>
        <time>2022-06-26T14:38:52Z</time>
      </trkpt>
      <trkpt lat="45.74758" lon="4.7582">
        <ele>251.6</ele>
        <time>2022-06-26T14:38:53Z</time>
      </trkpt>
      <trkpt lat="45.7476" lon="4.7583">
        <ele>251.2</ele>
        <time>2022-06-26T14:38:54Z</time>
      </trkpt>
      <trkpt lat="45.74763" lon="4.75841">
        <ele>251</ele>
        <time>2022-06-26T14:38:55Z</time>
      </trkpt>
      <trkpt lat="45.74766" lon="4.75853">
        <ele>250.6</ele>
        <time>2022-06-26T14:38:56Z</time>
      </trkpt>
      <trkpt lat="45.74769" lon="4.75864">
        <ele>250</ele>
        <time>2022-06-26T14:38:57Z</time>
      </trkpt>
      <trkpt lat="45.74772" lon="4.75876">
        <ele>249.8</ele>
        <time>2022-06-26T14:38:58Z</time>
      </trkpt>
      <trkpt lat="45.74776" lon="4.75888">
        <ele>249.4</ele>
        <time>2022-06-26T14:38:59Z</time>
      </trkpt>
      <trkpt lat="45.74781" lon="4.75898">
        <ele>249.4</ele>
        <time>2022-06-26T14:39:00Z</time>
      </trkpt>
      <trkpt lat="45.74787" lon="4.75908">
        <ele>249.4</ele>
        <time>2022-06-26T14:39:01Z</time>
      </trkpt>
      <trkpt lat="45.74794" lon="4.75917">
        <ele>249</ele>
        <time>2022-06-26T14:39:02Z</time>
      </trkpt>
      <trkpt lat="45.74801" lon="4.75926">
        <ele>248.6</ele>
        <time>2022-06-26T14:39:03Z</time>
      </trkpt>
      <trkpt lat="45.74809" lon="4.75932">
        <ele>248</ele>
        <time>2022-06-26T14:39:04Z</time>
      </trkpt>
      <trkpt lat="45.74817" lon="4.7594">
        <ele>247.2</ele>
        <time>2022-06-26T14:39:05Z</time>
      </trkpt>
      <trkpt lat="45.74823" lon="4.75948">
        <ele>246.8</ele>
        <time>2022-06-26T14:39:06Z</time>
      </trkpt>
      <trkpt lat="45.74828" lon="4.75958">
        <ele>246.2</ele>
        <time>2022-06-26T14:39:07Z</time>
      </trkpt>
      <trkpt lat="45.74832" lon="4.75969">
        <ele>245.8</ele>
        <time>2022-06-26T14:39:08Z</time>
      </trkpt>
      <trkpt lat="45.74834" lon="4.75982">
        <ele>245.4</ele>
        <time>2022-06-26T14:39:09Z</time>
      </trkpt>
      <trkpt lat="45.74837" lon="4.75994">
        <ele>244.8</ele>
        <time>2022-06-26T14:39:10Z</time>
      </trkpt>
      <trkpt lat="45.7484" lon="4.76006">
        <ele>244.4</ele>
        <time>2022-06-26T14:39:11Z</time>
      </trkpt>
      <trkpt lat="45.74845" lon="4.76018">
        <ele>244</ele>
        <time>2022-06-26T14:39:12Z</time>
      </trkpt>
      <trkpt lat="45.7485" lon="4.7603">
        <ele>243.8</ele>
        <time>2022-06-26T14:39:13Z</time>
      </trkpt>
      <trkpt lat="45.74858" lon="4.76039">
        <ele>243.8</ele>
        <time>2022-06-26T14:39:14Z</time>
      </trkpt>
      <trkpt lat="45.74866" lon="4.76046">
        <ele>243.4</ele>
        <time>2022-06-26T14:39:15Z</time>
      </trkpt>
      <trkpt lat="45.74875" lon="4.76049">
        <ele>243.4</ele>
        <time>2022-06-26T14:39:16Z</time>
      </trkpt>
      <trkpt lat="45.74885" lon="4.76051">
        <ele>242.8</ele>
        <time>2022-06-26T14:39:17Z</time>
      </trkpt>
      <trkpt lat="45.74894" lon="4.76052">
        <ele>242.4</ele>
        <time>2022-06-26T14:39:18Z</time>
      </trkpt>
      <trkpt lat="45.74903" lon="4.76049">
        <ele>242</ele>
        <time>2022-06-26T14:39:19Z</time>
      </trkpt>
      <trkpt lat="45.74912" lon="4.76043">
        <ele>242</ele>
        <time>2022-06-26T14:39:20Z</time>
      </trkpt>
      <trkpt lat="45.74921" lon="4.76036">
        <ele>241.4</ele>
        <time>2022-06-26T14:39:21Z</time>
      </trkpt>
      <trkpt lat="45.74928" lon="4.76027">
        <ele>241</ele>
        <time>2022-06-26T14:39:22Z</time>
      </trkpt>
      <trkpt lat="45.74935" lon="4.76017">
        <ele>240.4</ele>
        <time>2022-06-26T14:39:23Z</time>
      </trkpt>
      <trkpt lat="45.74942" lon="4.76007">
        <ele>239.8</ele>
        <time>2022-06-26T14:39:24Z</time>
      </trkpt>
      <trkpt lat="45.74948" lon="4.75998">
        <ele>239</ele>
        <time>2022-06-26T14:39:25Z</time>
      </trkpt>
      <trkpt lat="45.74955" lon="4.75988">
        <ele>238.4</ele>
        <time>2022-06-26T14:39:26Z</time>
      </trkpt>
      <trkpt lat="45.74962" lon="4.75978">
        <ele>237.8</ele>
        <time>2022-06-26T14:39:27Z</time>
      </trkpt>
      <trkpt lat="45.74969" lon="4.75969">
        <ele>237.4</ele>
        <time>2022-06-26T14:39:28Z</time>
      </trkpt>
      <trkpt lat="45.74978" lon="4.75961">
        <ele>236.8</ele>
        <time>2022-06-26T14:39:29Z</time>
      </trkpt>
      <trkpt lat="45.74987" lon="4.75957">
        <ele>236.4</ele>
        <time>2022-06-26T14:39:30Z</time>
      </trkpt>
      <trkpt lat="45.74997" lon="4.75955">
        <ele>235.8</ele>
        <time>2022-06-26T14:39:31Z</time>
      </trkpt>
      <trkpt lat="45.75007" lon="4.75955">
        <ele>235.2</ele>
        <time>2022-06-26T14:39:32Z</time>
      </trkpt>
      <trkpt lat="45.75016" lon="4.75956">
        <ele>234.8</ele>
        <time>2022-06-26T14:39:33Z</time>
      </trkpt>
      <trkpt lat="45.75026" lon="4.75961">
        <ele>234.4</ele>
        <time>2022-06-26T14:39:34Z</time>
      </trkpt>
      <trkpt lat="45.75035" lon="4.75969">
        <ele>234</ele>
        <time>2022-06-26T14:39:35Z</time>
      </trkpt>
      <trkpt lat="45.75043" lon="4.75979">
        <ele>233.6</ele>
        <time>2022-06-26T14:39:36Z</time>
      </trkpt>
      <trkpt lat="45.75051" lon="4.75989">
        <ele>233.2</ele>
        <time>2022-06-26T14:39:37Z</time>
      </trkpt>
      <trkpt lat="45.75055" lon="4.76003">
        <ele>232.6</ele>
        <time>2022-06-26T14:39:38Z</time>
      </trkpt>
      <trkpt lat="45.75057" lon="4.76019">
        <ele>232.4</ele>
        <time>2022-06-26T14:39:39Z</time>
      </trkpt>
      <trkpt lat="45.75062" lon="4.76034">
        <ele>232</ele>
        <time>2022-06-26T14:39:40Z</time>
      </trkpt>
      <trkpt lat="45.75066" lon="4.76048">
        <ele>231.6</ele>
        <time>2022-06-26T14:39:41Z</time>
      </trkpt>
      <trkpt lat="45.7507" lon="4.76061">
        <ele>231</ele>
        <time>2022-06-26T14:39:42Z</time>
      </trkpt>
      <trkpt lat="45.75075" lon="4.76074">
        <ele>230.6</ele>
        <time>2022-06-26T14:39:43Z</time>
      </trkpt>
      <trkpt lat="45.75081" lon="4.76086">
        <ele>230.6</ele>
        <time>2022-06-26T14:39:44Z</time>
      </trkpt>
      <trkpt lat="45.75088" lon="4.76096">
        <ele>230</ele>
        <time>2022-06-26T14:39:45Z</time>
      </trkpt>
      <trkpt lat="45.75095" lon="4.76104">
        <ele>229.6</ele>
        <time>2022-06-26T14:39:46Z</time>
      </trkpt>
      <trkpt lat="45.75104" lon="4.76109">
        <ele>229</ele>
        <time>2022-06-26T14:39:47Z</time>
      </trkpt>
      <trkpt lat="45.75113" lon="4.76112">
        <ele>228.4</ele>
        <time>2022-06-26T14:39:48Z</time>
      </trkpt>
      <trkpt lat="45.75123" lon="4.76114">
        <ele>228</ele>
        <time>2022-06-26T14:39:49Z</time>
      </trkpt>
      <trkpt lat="45.75134" lon="4.76112">
        <ele>227.4</ele>
        <time>2022-06-26T14:39:50Z</time>
      </trkpt>
      <trkpt lat="45.75144" lon="4.76112">
        <ele>227</ele>
        <time>2022-06-26T14:39:51Z</time>
      </trkpt>
      <trkpt lat="45.75154" lon="4.76115">
        <ele>226.4</ele>
        <time>2022-06-26T14:39:52Z</time>
      </trkpt>
      <trkpt lat="45.75164" lon="4.76119">
        <ele>226</ele>
        <time>2022-06-26T14:39:53Z</time>
      </trkpt>
      <trkpt lat="45.75173" lon="4.76126">
        <ele>225.6</ele>
        <time>2022-06-26T14:39:54Z</time>
      </trkpt>
      <trkpt lat="45.7518" lon="4.76135">
        <ele>225</ele>
        <time>2022-06-26T14:39:55Z</time>
      </trkpt>
      <trkpt lat="45.75188" lon="4.76146">
        <ele>224.6</ele>
        <time>2022-06-26T14:39:56Z</time>
      </trkpt>
      <trkpt lat="45.75194" lon="4.76157">
        <ele>224</ele>
        <time>2022-06-26T14:39:57Z</time>
      </trkpt>
      <trkpt lat="45.75199" lon="4.7617">
        <ele>223.6</ele>
        <time>2022-06-26T14:39:58Z</time>
      </trkpt>
      <trkpt lat="45.75203" lon="4.76183">
        <ele>223.2</ele>
        <time>2022-06-26T14:39:59Z</time>
      </trkpt>
      <trkpt lat="45.75206" lon="4.76196">
        <ele>222.8</ele>
        <time>2022-06-26T14:40:00Z</time>
      </trkpt>
      <trkpt lat="45.75209" lon="4.76209">
        <ele>222.6</ele>
        <time>2022-06-26T14:40:01Z</time>
      </trkpt>
      <trkpt lat="45.75211" lon="4.76221">
        <ele>222.4</ele>
        <time>2022-06-26T14:40:02Z</time>
      </trkpt>
      <trkpt lat="45.75214" lon="4.76234">
        <ele>222.4</ele>
        <time>2022-06-26T14:40:03Z</time>
      </trkpt>
      <trkpt lat="45.75216" lon="4.76245">
        <ele>222.4</ele>
        <time>2022-06-26T14:40:04Z</time>
      </trkpt>
      <trkpt lat="45.75219" lon="4.76257">
        <ele>222.4</ele>
        <time>2022-06-26T14:40:05Z</time>
      </trkpt>
      <trkpt lat="45.75219" lon="4.76267">
        <ele>222.4</ele>
        <time>2022-06-26T14:40:06Z</time>
      </trkpt>
      <trkpt lat="45.75219" lon="4.76278">
        <ele>222.4</ele>
        <time>2022-06-26T14:40:07Z</time>
      </trkpt>
      <trkpt lat="45.75218" lon="4.76289">
        <ele>222.4</ele>
        <time>2022-06-26T14:40:08Z</time>
      </trkpt>
      <trkpt lat="45.75216" lon="4.763">
        <ele>222.4</ele>
        <time>2022-06-26T14:40:09Z</time>
      </trkpt>
      <trkpt lat="45.75213" lon="4.7631">
        <ele>222.6</ele>
        <time>2022-06-26T14:40:10Z</time>
      </trkpt>
      <trkpt lat="45.75209" lon="4.76319">
        <ele>222.6</ele>
        <time>2022-06-26T14:40:11Z</time>
      </trkpt>
      <trkpt lat="45.75204" lon="4.76327">
        <ele>222.8</ele>
        <time>2022-06-26T14:40:12Z</time>
      </trkpt>
      <trkpt lat="45.75199" lon="4.76334">
        <ele>222.8</ele>
        <time>2022-06-26T14:40:13Z</time>
      </trkpt>
      <trkpt lat="45.75193" lon="4.7634">
        <ele>222.8</ele>
        <time>2022-06-26T14:40:14Z</time>
      </trkpt>
      <trkpt lat="45.75188" lon="4.76346">
        <ele>223.2</ele>
        <time>2022-06-26T14:40:15Z</time>
      </trkpt>
      <trkpt lat="45.75182" lon="4.76351">
        <ele>223.2</ele>
        <time>2022-06-26T14:40:16Z</time>
      </trkpt>
      <trkpt lat="45.75176" lon="4.76356">
        <ele>223.4</ele>
        <time>2022-06-26T14:40:17Z</time>
      </trkpt>
      <trkpt lat="45.7517" lon="4.76361">
        <ele>223.8</ele>
        <time>2022-06-26T14:40:18Z</time>
      </trkpt>
      <trkpt lat="45.75164" lon="4.76366">
        <ele>223.8</ele>
        <time>2022-06-26T14:40:19Z</time>
      </trkpt>
      <trkpt lat="45.75158" lon="4.76371">
        <ele>224</ele>
        <time>2022-06-26T14:40:20Z</time>
      </trkpt>
      <trkpt lat="45.75153" lon="4.76376">
        <ele>224.2</ele>
        <time>2022-06-26T14:40:21Z</time>
      </trkpt>
      <trkpt lat="45.75147" lon="4.76381">
        <ele>224.2</ele>
        <time>2022-06-26T14:40:22Z</time>
      </trkpt>
      <trkpt lat="45.75141" lon="4.76386">
        <ele>224.6</ele>
        <time>2022-06-26T14:40:23Z</time>
      </trkpt>
      <trkpt lat="45.75135" lon="4.7639">
        <ele>224.6</ele>
        <time>2022-06-26T14:40:24Z</time>
      </trkpt>
      <trkpt lat="45.75129" lon="4.76395">
        <ele>224.6</ele>
        <time>2022-06-26T14:40:25Z</time>
      </trkpt>
      <trkpt lat="45.75124" lon="4.764">
        <ele>225</ele>
        <time>2022-06-26T14:40:26Z</time>
      </trkpt>
      <trkpt lat="45.75119" lon="4.76405">
        <ele>225.2</ele>
        <time>2022-06-26T14:40:27Z</time>
      </trkpt>
      <trkpt lat="45.75114" lon="4.7641">
        <ele>225.6</ele>
        <time>2022-06-26T14:40:28Z</time>
      </trkpt>
      <trkpt lat="45.75109" lon="4.76414">
        <ele>226</ele>
        <time>2022-06-26T14:40:29Z</time>
      </trkpt>
      <trkpt lat="45.75104" lon="4.76419">
        <ele>226.2</ele>
        <time>2022-06-26T14:40:30Z</time>
      </trkpt>
      <trkpt lat="45.75099" lon="4.76424">
        <ele>226.6</ele>
        <time>2022-06-26T14:40:31Z</time>
      </trkpt>
      <trkpt lat="45.75094" lon="4.76429">
        <ele>226.8</ele>
        <time>2022-06-26T14:40:32Z</time>
      </trkpt>
      <trkpt lat="45.75089" lon="4.76433">
        <ele>227.2</ele>
        <time>2022-06-26T14:40:33Z</time>
      </trkpt>
      <trkpt lat="45.75084" lon="4.76439">
        <ele>227.4</ele>
        <time>2022-06-26T14:40:34Z</time>
      </trkpt>
      <trkpt lat="45.75079" lon="4.76445">
        <ele>227.6</ele>
        <time>2022-06-26T14:40:35Z</time>
      </trkpt>
      <trkpt lat="45.75075" lon="4.76451">
        <ele>228</ele>
        <time>2022-06-26T14:40:36Z</time>
      </trkpt>
      <trkpt lat="45.75071" lon="4.76458">
        <ele>228.2</ele>
        <time>2022-06-26T14:40:37Z</time>
      </trkpt>
      <trkpt lat="45.75068" lon="4.76465">
        <ele>228.6</ele>
        <time>2022-06-26T14:40:38Z</time>
      </trkpt>
      <trkpt lat="45.75066" lon="4.76472">
        <ele>229</ele>
        <time>2022-06-26T14:40:39Z</time>
      </trkpt>
      <trkpt lat="45.75064" lon="4.7648">
        <ele>229.2</ele>
        <time>2022-06-26T14:40:40Z</time>
      </trkpt>
      <trkpt lat="45.75063" lon="4.76488">
        <ele>229.2</ele>
        <time>2022-06-26T14:40:41Z</time>
      </trkpt>
      <trkpt lat="45.75063" lon="4.76495">
        <ele>229.4</ele>
        <time>2022-06-26T14:40:42Z</time>
      </trkpt>
      <trkpt lat="45.75063" lon="4.76503">
        <ele>229.4</ele>
        <time>2022-06-26T14:40:43Z</time>
      </trkpt>
      <trkpt lat="45.75063" lon="4.7651">
        <ele>229.8</ele>
        <time>2022-06-26T14:40:44Z</time>
      </trkpt>
      <trkpt lat="45.75064" lon="4.76515">
        <ele>230</ele>
        <time>2022-06-26T14:40:45Z</time>
      </trkpt>
      <trkpt lat="45.75064" lon="4.7652">
        <ele>230.2</ele>
        <time>2022-06-26T14:40:46Z</time>
      </trkpt>
      <trkpt lat="45.75065" lon="4.76523">
        <ele>230.4</ele>
        <time>2022-06-26T14:40:47Z</time>
      </trkpt>
      <trkpt lat="45.75065" lon="4.76525">
        <ele>230.6</ele>
        <time>2022-06-26T14:40:48Z</time>
      </trkpt>
      <trkpt lat="45.75065" lon="4.76527">
        <ele>230.6</ele>
        <time>2022-06-26T14:40:49Z</time>
      </trkpt>
      <trkpt lat="45.75065" lon="4.76528">
        <ele>230.6</ele>
        <time>2022-06-26T14:40:50Z</time>
      </trkpt>
      <trkpt lat="45.75066" lon="4.76531">
        <ele>231</ele>
        <time>2022-06-26T14:40:51Z</time>
      </trkpt>
      <trkpt lat="45.75066" lon="4.76534">
        <ele>231</ele>
        <time>2022-06-26T14:40:52Z</time>
      </trkpt>
      <trkpt lat="45.75066" lon="4.76537">
        <ele>231</ele>
        <time>2022-06-26T14:40:53Z</time>
      </trkpt>
      <trkpt lat="45.75065" lon="4.76541">
        <ele>231.2</ele>
        <time>2022-06-26T14:40:54Z</time>
      </trkpt>
      <trkpt lat="45.75063" lon="4.76544">
        <ele>231.2</ele>
        <time>2022-06-26T14:40:55Z</time>
      </trkpt>
      <trkpt lat="45.75061" lon="4.76547">
        <ele>231.6</ele>
        <time>2022-06-26T14:40:56Z</time>
      </trkpt>
      <trkpt lat="45.75058" lon="4.7655">
        <ele>231.6</ele>
        <time>2022-06-26T14:40:57Z</time>
      </trkpt>
      <trkpt lat="45.75055" lon="4.76554">
        <ele>231.6</ele>
        <time>2022-06-26T14:40:58Z</time>
      </trkpt>
      <trkpt lat="45.75053" lon="4.76559">
        <ele>231.8</ele>
        <time>2022-06-26T14:40:59Z</time>
      </trkpt>
      <trkpt lat="45.75051" lon="4.76564">
        <ele>231.8</ele>
        <time>2022-06-26T14:41:00Z</time>
      </trkpt>
      <trkpt lat="45.75049" lon="4.76569">
        <ele>232</ele>
        <time>2022-06-26T14:41:01Z</time>
      </trkpt>
      <trkpt lat="45.75046" lon="4.76573">
        <ele>232</ele>
        <time>2022-06-26T14:41:02Z</time>
      </trkpt>
      <trkpt lat="45.75043" lon="4.76578">
        <ele>232</ele>
        <time>2022-06-26T14:41:03Z</time>
      </trkpt>
      <trkpt lat="45.7504" lon="4.76581">
        <ele>232.2</ele>
        <time>2022-06-26T14:41:04Z</time>
      </trkpt>
      <trkpt lat="45.75036" lon="4.76584">
        <ele>232.2</ele>
        <time>2022-06-26T14:41:05Z</time>
      </trkpt>
      <trkpt lat="45.75032" lon="4.76587">
        <ele>232.2</ele>
        <time>2022-06-26T14:41:06Z</time>
      </trkpt>
      <trkpt lat="45.75028" lon="4.76589">
        <ele>232.2</ele>
        <time>2022-06-26T14:41:07Z</time>
      </trkpt>
      <trkpt lat="45.75023" lon="4.7659">
        <ele>232.2</ele>
        <time>2022-06-26T14:41:08Z</time>
      </trkpt>
      <trkpt lat="45.75018" lon="4.76592">
        <ele>232.2</ele>
        <time>2022-06-26T14:41:09Z</time>
      </trkpt>
      <trkpt lat="45.75013" lon="4.76594">
        <ele>232.2</ele>
        <time>2022-06-26T14:41:10Z</time>
      </trkpt>
      <trkpt lat="45.75007" lon="4.76595">
        <ele>231.8</ele>
        <time>2022-06-26T14:41:11Z</time>
      </trkpt>
      <trkpt lat="45.75001" lon="4.76597">
        <ele>231.6</ele>
        <time>2022-06-26T14:41:12Z</time>
      </trkpt>
      <trkpt lat="45.74995" lon="4.76599">
        <ele>231.6</ele>
        <time>2022-06-26T14:41:13Z</time>
      </trkpt>
      <trkpt lat="45.74989" lon="4.766">
        <ele>231.2</ele>
        <time>2022-06-26T14:41:14Z</time>
      </trkpt>
      <trkpt lat="45.74983" lon="4.76601">
        <ele>230.8</ele>
        <time>2022-06-26T14:41:15Z</time>
      </trkpt>
      <trkpt lat="45.74977" lon="4.76603">
        <ele>230.6</ele>
        <time>2022-06-26T14:41:16Z</time>
      </trkpt>
      <trkpt lat="45.74971" lon="4.76606">
        <ele>230.4</ele>
        <time>2022-06-26T14:41:17Z</time>
      </trkpt>
      <trkpt lat="45.74966" lon="4.76612">
        <ele>230</ele>
        <time>2022-06-26T14:41:18Z</time>
      </trkpt>
      <trkpt lat="45.74962" lon="4.76618">
        <ele>229.8</ele>
        <time>2022-06-26T14:41:19Z</time>
      </trkpt>
      <trkpt lat="45.74959" lon="4.76625">
        <ele>229.2</ele>
        <time>2022-06-26T14:41:20Z</time>
      </trkpt>
      <trkpt lat="45.74959" lon="4.76634">
        <ele>229.2</ele>
        <time>2022-06-26T14:41:21Z</time>
      </trkpt>
      <trkpt lat="45.74959" lon="4.76643">
        <ele>229</ele>
        <time>2022-06-26T14:41:22Z</time>
      </trkpt>
      <trkpt lat="45.74961" lon="4.76651">
        <ele>228.8</ele>
        <time>2022-06-26T14:41:23Z</time>
      </trkpt>
      <trkpt lat="45.74964" lon="4.76659">
        <ele>228.6</ele>
        <time>2022-06-26T14:41:24Z</time>
      </trkpt>
      <trkpt lat="45.74968" lon="4.76667">
        <ele>228.6</ele>
        <time>2022-06-26T14:41:25Z</time>
      </trkpt>
      <trkpt lat="45.74972" lon="4.76675">
        <ele>228.2</ele>
        <time>2022-06-26T14:41:26Z</time>
      </trkpt>
      <trkpt lat="45.74976" lon="4.76683">
        <ele>228</ele>
        <time>2022-06-26T14:41:27Z</time>
      </trkpt>
      <trkpt lat="45.7498" lon="4.76691">
        <ele>228</ele>
        <time>2022-06-26T14:41:28Z</time>
      </trkpt>
      <trkpt lat="45.74983" lon="4.76698">
        <ele>227.8</ele>
        <time>2022-06-26T14:41:29Z</time>
      </trkpt>
      <trkpt lat="45.74987" lon="4.76706">
        <ele>227.8</ele>
        <time>2022-06-26T14:41:30Z</time>
      </trkpt>
      <trkpt lat="45.74991" lon="4.76713">
        <ele>227.4</ele>
        <time>2022-06-26T14:41:31Z</time>
      </trkpt>
      <trkpt lat="45.74995" lon="4.76721">
        <ele>227.4</ele>
        <time>2022-06-26T14:41:32Z</time>
      </trkpt>
      <trkpt lat="45.74999" lon="4.76727">
        <ele>227.2</ele>
        <time>2022-06-26T14:41:33Z</time>
      </trkpt>
      <trkpt lat="45.75004" lon="4.76734">
        <ele>227.2</ele>
        <time>2022-06-26T14:41:34Z</time>
      </trkpt>
      <trkpt lat="45.75008" lon="4.76741">
        <ele>227</ele>
        <time>2022-06-26T14:41:35Z</time>
      </trkpt>
      <trkpt lat="45.75013" lon="4.76747">
        <ele>227</ele>
        <time>2022-06-26T14:41:36Z</time>
      </trkpt>
      <trkpt lat="45.75018" lon="4.76754">
        <ele>226.8</ele>
        <time>2022-06-26T14:41:37Z</time>
      </trkpt>
      <trkpt lat="45.75023" lon="4.76761">
        <ele>226.8</ele>
        <time>2022-06-26T14:41:38Z</time>
      </trkpt>
      <trkpt lat="45.75028" lon="4.76767">
        <ele>226.8</ele>
        <time>2022-06-26T14:41:39Z</time>
      </trkpt>
      <trkpt lat="45.75033" lon="4.76773">
        <ele>226.8</ele>
        <time>2022-06-26T14:41:40Z</time>
      </trkpt>
      <trkpt lat="45.75038" lon="4.7678">
        <ele>226.8</ele>
        <time>2022-06-26T14:41:41Z</time>
      </trkpt>
      <trkpt lat="45.75043" lon="4.76786">
        <ele>226.8</ele>
        <time>2022-06-26T14:41:42Z</time>
      </trkpt>
      <trkpt lat="45.75048" lon="4.76792">
        <ele>226.8</ele>
        <time>2022-06-26T14:41:43Z</time>
      </trkpt>
      <trkpt lat="45.75053" lon="4.76799">
        <ele>226.8</ele>
        <time>2022-06-26T14:41:44Z</time>
      </trkpt>
      <trkpt lat="45.75057" lon="4.76805">
        <ele>226.8</ele>
        <time>2022-06-26T14:41:45Z</time>
      </trkpt>
      <trkpt lat="45.75062" lon="4.76812">
        <ele>226.8</ele>
        <time>2022-06-26T14:41:46Z</time>
      </trkpt>
      <trkpt lat="45.75066" lon="4.76819">
        <ele>226.8</ele>
        <time>2022-06-26T14:41:47Z</time>
      </trkpt>
      <trkpt lat="45.75071" lon="4.76825">
        <ele>226.8</ele>
        <time>2022-06-26T14:41:48Z</time>
      </trkpt>
      <trkpt lat="45.75074" lon="4.76832">
        <ele>226.8</ele>
        <time>2022-06-26T14:41:49Z</time>
      </trkpt>
      <trkpt lat="45.75079" lon="4.76839">
        <ele>226.8</ele>
        <time>2022-06-26T14:41:50Z</time>
      </trkpt>
      <trkpt lat="45.75083" lon="4.76845">
        <ele>226.8</ele>
        <time>2022-06-26T14:41:51Z</time>
      </trkpt>
      <trkpt lat="45.75087" lon="4.76851">
        <ele>226.8</ele>
        <time>2022-06-26T14:41:52Z</time>
      </trkpt>
      <trkpt lat="45.75091" lon="4.76858">
        <ele>226.8</ele>
        <time>2022-06-26T14:41:53Z</time>
      </trkpt>
      <trkpt lat="45.75095" lon="4.76864">
        <ele>227</ele>
        <time>2022-06-26T14:41:54Z</time>
      </trkpt>
      <trkpt lat="45.75098" lon="4.76871">
        <ele>227</ele>
        <time>2022-06-26T14:41:55Z</time>
      </trkpt>
      <trkpt lat="45.75102" lon="4.76878">
        <ele>227</ele>
        <time>2022-06-26T14:41:56Z</time>
      </trkpt>
      <trkpt lat="45.75106" lon="4.76884">
        <ele>227</ele>
        <time>2022-06-26T14:41:57Z</time>
      </trkpt>
      <trkpt lat="45.7511" lon="4.76891">
        <ele>227</ele>
        <time>2022-06-26T14:41:58Z</time>
      </trkpt>
      <trkpt lat="45.75114" lon="4.76898">
        <ele>227</ele>
        <time>2022-06-26T14:41:59Z</time>
      </trkpt>
      <trkpt lat="45.75118" lon="4.76905">
        <ele>227</ele>
        <time>2022-06-26T14:42:00Z</time>
      </trkpt>
      <trkpt lat="45.75122" lon="4.76911">
        <ele>227</ele>
        <time>2022-06-26T14:42:01Z</time>
      </trkpt>
      <trkpt lat="45.75125" lon="4.76919">
        <ele>227</ele>
        <time>2022-06-26T14:42:02Z</time>
      </trkpt>
      <trkpt lat="45.75128" lon="4.76926">
        <ele>227</ele>
        <time>2022-06-26T14:42:03Z</time>
      </trkpt>
      <trkpt lat="45.75131" lon="4.76934">
        <ele>227</ele>
        <time>2022-06-26T14:42:04Z</time>
      </trkpt>
      <trkpt lat="45.75134" lon="4.76941">
        <ele>227</ele>
        <time>2022-06-26T14:42:05Z</time>
      </trkpt>
      <trkpt lat="45.75136" lon="4.76949">
        <ele>227</ele>
        <time>2022-06-26T14:42:06Z</time>
      </trkpt>
      <trkpt lat="45.75139" lon="4.76957">
        <ele>226.8</ele>
        <time>2022-06-26T14:42:07Z</time>
      </trkpt>
      <trkpt lat="45.75142" lon="4.76964">
        <ele>226.8</ele>
        <time>2022-06-26T14:42:08Z</time>
      </trkpt>
      <trkpt lat="45.75144" lon="4.76971">
        <ele>226.8</ele>
        <time>2022-06-26T14:42:09Z</time>
      </trkpt>
      <trkpt lat="45.75147" lon="4.76978">
        <ele>226.8</ele>
        <time>2022-06-26T14:42:10Z</time>
      </trkpt>
      <trkpt lat="45.7515" lon="4.76984">
        <ele>226.8</ele>
        <time>2022-06-26T14:42:12Z</time>
      </trkpt>
      <trkpt lat="45.75152" lon="4.76991">
        <ele>227</ele>
        <time>2022-06-26T14:42:13Z</time>
      </trkpt>
      <trkpt lat="45.75155" lon="4.76997">
        <ele>227</ele>
        <time>2022-06-26T14:42:14Z</time>
      </trkpt>
      <trkpt lat="45.75157" lon="4.77002">
        <ele>227</ele>
        <time>2022-06-26T14:42:15Z</time>
      </trkpt>
      <trkpt lat="45.7516" lon="4.77007">
        <ele>227</ele>
        <time>2022-06-26T14:42:16Z</time>
      </trkpt>
      <trkpt lat="45.75162" lon="4.77013">
        <ele>227</ele>
        <time>2022-06-26T14:42:17Z</time>
      </trkpt>
      <trkpt lat="45.75165" lon="4.77017">
        <ele>227</ele>
        <time>2022-06-26T14:42:18Z</time>
      </trkpt>
      <trkpt lat="45.75168" lon="4.77021">
        <ele>227</ele>
        <time>2022-06-26T14:42:19Z</time>
      </trkpt>
      <trkpt lat="45.75171" lon="4.77026">
        <ele>227</ele>
        <time>2022-06-26T14:42:20Z</time>
      </trkpt>
      <trkpt lat="45.75174" lon="4.77031">
        <ele>227.4</ele>
        <time>2022-06-26T14:42:21Z</time>
      </trkpt>
      <trkpt lat="45.75177" lon="4.77036">
        <ele>227.4</ele>
        <time>2022-06-26T14:42:22Z</time>
      </trkpt>
      <trkpt lat="45.7518" lon="4.77042">
        <ele>227.6</ele>
        <time>2022-06-26T14:42:23Z</time>
      </trkpt>
      <trkpt lat="45.75183" lon="4.77048">
        <ele>227.6</ele>
        <time>2022-06-26T14:42:24Z</time>
      </trkpt>
      <trkpt lat="45.75187" lon="4.77054">
        <ele>227.6</ele>
        <time>2022-06-26T14:42:25Z</time>
      </trkpt>
      <trkpt lat="45.7519" lon="4.77061">
        <ele>227.8</ele>
        <time>2022-06-26T14:42:26Z</time>
      </trkpt>
      <trkpt lat="45.75194" lon="4.77067">
        <ele>227.8</ele>
        <time>2022-06-26T14:42:27Z</time>
      </trkpt>
      <trkpt lat="45.75198" lon="4.77073">
        <ele>228.2</ele>
        <time>2022-06-26T14:42:28Z</time>
      </trkpt>
      <trkpt lat="45.75201" lon="4.7708">
        <ele>228.2</ele>
        <time>2022-06-26T14:42:29Z</time>
      </trkpt>
      <trkpt lat="45.75206" lon="4.77087">
        <ele>228.4</ele>
        <time>2022-06-26T14:42:30Z</time>
      </trkpt>
      <trkpt lat="45.7521" lon="4.77094">
        <ele>228.4</ele>
        <time>2022-06-26T14:42:31Z</time>
      </trkpt>
      <trkpt lat="45.75214" lon="4.77101">
        <ele>228.2</ele>
        <time>2022-06-26T14:42:32Z</time>
      </trkpt>
      <trkpt lat="45.75219" lon="4.77108">
        <ele>228.2</ele>
        <time>2022-06-26T14:42:33Z</time>
      </trkpt>
      <trkpt lat="45.75224" lon="4.77115">
        <ele>228.2</ele>
        <time>2022-06-26T14:42:34Z</time>
      </trkpt>
      <trkpt lat="45.75229" lon="4.77122">
        <ele>228</ele>
        <time>2022-06-26T14:42:35Z</time>
      </trkpt>
      <trkpt lat="45.75235" lon="4.77129">
        <ele>228</ele>
        <time>2022-06-26T14:42:36Z</time>
      </trkpt>
      <trkpt lat="45.7524" lon="4.77136">
        <ele>228</ele>
        <time>2022-06-26T14:42:37Z</time>
      </trkpt>
      <trkpt lat="45.75245" lon="4.77143">
        <ele>228</ele>
        <time>2022-06-26T14:42:38Z</time>
      </trkpt>
      <trkpt lat="45.7525" lon="4.7715">
        <ele>228</ele>
        <time>2022-06-26T14:42:39Z</time>
      </trkpt>
      <trkpt lat="45.75254" lon="4.77158">
        <ele>228</ele>
        <time>2022-06-26T14:42:40Z</time>
      </trkpt>
      <trkpt lat="45.75257" lon="4.77167">
        <ele>227.8</ele>
        <time>2022-06-26T14:42:41Z</time>
      </trkpt>
      <trkpt lat="45.75261" lon="4.77175">
        <ele>227.8</ele>
        <time>2022-06-26T14:42:42Z</time>
      </trkpt>
      <trkpt lat="45.75264" lon="4.77183">
        <ele>227.8</ele>
        <time>2022-06-26T14:42:43Z</time>
      </trkpt>
      <trkpt lat="45.75267" lon="4.77191">
        <ele>227.8</ele>
        <time>2022-06-26T14:42:44Z</time>
      </trkpt>
      <trkpt lat="45.7527" lon="4.77198">
        <ele>227.8</ele>
        <time>2022-06-26T14:42:45Z</time>
      </trkpt>
      <trkpt lat="45.75273" lon="4.77205">
        <ele>227.8</ele>
        <time>2022-06-26T14:42:46Z</time>
      </trkpt>
      <trkpt lat="45.75276" lon="4.77211">
        <ele>227.8</ele>
        <time>2022-06-26T14:42:47Z</time>
      </trkpt>
      <trkpt lat="45.75278" lon="4.77218">
        <ele>227.8</ele>
        <time>2022-06-26T14:42:48Z</time>
      </trkpt>
      <trkpt lat="45.75281" lon="4.77225">
        <ele>228</ele>
        <time>2022-06-26T14:42:49Z</time>
      </trkpt>
      <trkpt lat="45.75286" lon="4.77239">
        <ele>228</ele>
        <time>2022-06-26T14:42:50Z</time>
      </trkpt>
      <trkpt lat="45.75288" lon="4.77247">
        <ele>228</ele>
        <time>2022-06-26T14:42:51Z</time>
      </trkpt>
      <trkpt lat="45.75291" lon="4.77254">
        <ele>228</ele>
        <time>2022-06-26T14:42:52Z</time>
      </trkpt>
      <trkpt lat="45.75293" lon="4.77261">
        <ele>228</ele>
        <time>2022-06-26T14:42:53Z</time>
      </trkpt>
      <trkpt lat="45.75296" lon="4.77269">
        <ele>228</ele>
        <time>2022-06-26T14:42:54Z</time>
      </trkpt>
      <trkpt lat="45.75298" lon="4.77277">
        <ele>228</ele>
        <time>2022-06-26T14:42:55Z</time>
      </trkpt>
      <trkpt lat="45.75301" lon="4.77285">
        <ele>228</ele>
        <time>2022-06-26T14:42:56Z</time>
      </trkpt>
      <trkpt lat="45.75303" lon="4.77294">
        <ele>228</ele>
        <time>2022-06-26T14:42:57Z</time>
      </trkpt>
      <trkpt lat="45.75305" lon="4.77302">
        <ele>228</ele>
        <time>2022-06-26T14:42:58Z</time>
      </trkpt>
      <trkpt lat="45.75306" lon="4.77311">
        <ele>228</ele>
        <time>2022-06-26T14:42:59Z</time>
      </trkpt>
      <trkpt lat="45.75307" lon="4.7732">
        <ele>228</ele>
        <time>2022-06-26T14:43:00Z</time>
      </trkpt>
      <trkpt lat="45.75308" lon="4.77329">
        <ele>228</ele>
        <time>2022-06-26T14:43:01Z</time>
      </trkpt>
      <trkpt lat="45.75309" lon="4.77338">
        <ele>228</ele>
        <time>2022-06-26T14:43:02Z</time>
      </trkpt>
      <trkpt lat="45.7531" lon="4.77347">
        <ele>228</ele>
        <time>2022-06-26T14:43:03Z</time>
      </trkpt>
      <trkpt lat="45.75311" lon="4.77356">
        <ele>228</ele>
        <time>2022-06-26T14:43:04Z</time>
      </trkpt>
      <trkpt lat="45.75312" lon="4.77365">
        <ele>228</ele>
        <time>2022-06-26T14:43:05Z</time>
      </trkpt>
      <trkpt lat="45.75313" lon="4.77374">
        <ele>228</ele>
        <time>2022-06-26T14:43:06Z</time>
      </trkpt>
      <trkpt lat="45.75314" lon="4.77383">
        <ele>228</ele>
        <time>2022-06-26T14:43:07Z</time>
      </trkpt>
      <trkpt lat="45.75316" lon="4.77391">
        <ele>228</ele>
        <time>2022-06-26T14:43:08Z</time>
      </trkpt>
      <trkpt lat="45.75318" lon="4.774">
        <ele>228</ele>
        <time>2022-06-26T14:43:09Z</time>
      </trkpt>
      <trkpt lat="45.7532" lon="4.77409">
        <ele>228</ele>
        <time>2022-06-26T14:43:10Z</time>
      </trkpt>
      <trkpt lat="45.75323" lon="4.77418">
        <ele>228</ele>
        <time>2022-06-26T14:43:11Z</time>
      </trkpt>
      <trkpt lat="45.75326" lon="4.77426">
        <ele>228.2</ele>
        <time>2022-06-26T14:43:12Z</time>
      </trkpt>
      <trkpt lat="45.75328" lon="4.77434">
        <ele>228.2</ele>
        <time>2022-06-26T14:43:13Z</time>
      </trkpt>
      <trkpt lat="45.75331" lon="4.77443">
        <ele>228.2</ele>
        <time>2022-06-26T14:43:14Z</time>
      </trkpt>
      <trkpt lat="45.75334" lon="4.77451">
        <ele>228.4</ele>
        <time>2022-06-26T14:43:15Z</time>
      </trkpt>
      <trkpt lat="45.75336" lon="4.7746">
        <ele>228.4</ele>
        <time>2022-06-26T14:43:16Z</time>
      </trkpt>
      <trkpt lat="45.75339" lon="4.77468">
        <ele>228.4</ele>
        <time>2022-06-26T14:43:17Z</time>
      </trkpt>
      <trkpt lat="45.75342" lon="4.77476">
        <ele>228.8</ele>
        <time>2022-06-26T14:43:18Z</time>
      </trkpt>
      <trkpt lat="45.75344" lon="4.77484">
        <ele>228.8</ele>
        <time>2022-06-26T14:43:19Z</time>
      </trkpt>
      <trkpt lat="45.75347" lon="4.77492">
        <ele>229</ele>
        <time>2022-06-26T14:43:20Z</time>
      </trkpt>
      <trkpt lat="45.75349" lon="4.775">
        <ele>229</ele>
        <time>2022-06-26T14:43:21Z</time>
      </trkpt>
      <trkpt lat="45.75352" lon="4.77508">
        <ele>229.2</ele>
        <time>2022-06-26T14:43:22Z</time>
      </trkpt>
      <trkpt lat="45.75354" lon="4.77516">
        <ele>229.2</ele>
        <time>2022-06-26T14:43:23Z</time>
      </trkpt>
      <trkpt lat="45.75356" lon="4.77524">
        <ele>229.4</ele>
        <time>2022-06-26T14:43:24Z</time>
      </trkpt>
      <trkpt lat="45.75358" lon="4.77532">
        <ele>229.4</ele>
        <time>2022-06-26T14:43:25Z</time>
      </trkpt>
      <trkpt lat="45.75361" lon="4.7754">
        <ele>229.8</ele>
        <time>2022-06-26T14:43:26Z</time>
      </trkpt>
      <trkpt lat="45.75363" lon="4.77548">
        <ele>229.8</ele>
        <time>2022-06-26T14:43:27Z</time>
      </trkpt>
      <trkpt lat="45.75366" lon="4.77555">
        <ele>230.2</ele>
        <time>2022-06-26T14:43:28Z</time>
      </trkpt>
      <trkpt lat="45.75368" lon="4.77563">
        <ele>230.4</ele>
        <time>2022-06-26T14:43:29Z</time>
      </trkpt>
      <trkpt lat="45.7537" lon="4.7757">
        <ele>230.4</ele>
        <time>2022-06-26T14:43:30Z</time>
      </trkpt>
      <trkpt lat="45.75373" lon="4.77577">
        <ele>230.8</ele>
        <time>2022-06-26T14:43:31Z</time>
      </trkpt>
      <trkpt lat="45.75375" lon="4.77584">
        <ele>230.8</ele>
        <time>2022-06-26T14:43:32Z</time>
      </trkpt>
      <trkpt lat="45.75378" lon="4.77592">
        <ele>231</ele>
        <time>2022-06-26T14:43:33Z</time>
      </trkpt>
      <trkpt lat="45.7538" lon="4.77599">
        <ele>231</ele>
        <time>2022-06-26T14:43:34Z</time>
      </trkpt>
      <trkpt lat="45.75383" lon="4.77606">
        <ele>231.4</ele>
        <time>2022-06-26T14:43:35Z</time>
      </trkpt>
      <trkpt lat="45.75385" lon="4.77613">
        <ele>231.4</ele>
        <time>2022-06-26T14:43:36Z</time>
      </trkpt>
      <trkpt lat="45.75387" lon="4.77621">
        <ele>231.6</ele>
        <time>2022-06-26T14:43:37Z</time>
      </trkpt>
      <trkpt lat="45.7539" lon="4.77627">
        <ele>231.6</ele>
        <time>2022-06-26T14:43:38Z</time>
      </trkpt>
      <trkpt lat="45.75392" lon="4.77634">
        <ele>232</ele>
        <time>2022-06-26T14:43:39Z</time>
      </trkpt>
      <trkpt lat="45.75394" lon="4.77641">
        <ele>232</ele>
        <time>2022-06-26T14:43:40Z</time>
      </trkpt>
      <trkpt lat="45.75396" lon="4.77648">
        <ele>232.2</ele>
        <time>2022-06-26T14:43:41Z</time>
      </trkpt>
      <trkpt lat="45.75398" lon="4.77656">
        <ele>232.2</ele>
        <time>2022-06-26T14:43:42Z</time>
      </trkpt>
      <trkpt lat="45.75399" lon="4.77663">
        <ele>232.2</ele>
        <time>2022-06-26T14:43:43Z</time>
      </trkpt>
      <trkpt lat="45.75401" lon="4.7767">
        <ele>232.4</ele>
        <time>2022-06-26T14:43:44Z</time>
      </trkpt>
      <trkpt lat="45.75403" lon="4.77677">
        <ele>232.4</ele>
        <time>2022-06-26T14:43:45Z</time>
      </trkpt>
      <trkpt lat="45.75405" lon="4.77684">
        <ele>232.4</ele>
        <time>2022-06-26T14:43:46Z</time>
      </trkpt>
      <trkpt lat="45.75406" lon="4.77691">
        <ele>232.8</ele>
        <time>2022-06-26T14:43:47Z</time>
      </trkpt>
      <trkpt lat="45.75409" lon="4.77698">
        <ele>232.8</ele>
        <time>2022-06-26T14:43:48Z</time>
      </trkpt>
      <trkpt lat="45.75411" lon="4.77705">
        <ele>233</ele>
        <time>2022-06-26T14:43:49Z</time>
      </trkpt>
      <trkpt lat="45.75413" lon="4.77713">
        <ele>233</ele>
        <time>2022-06-26T14:43:50Z</time>
      </trkpt>
      <trkpt lat="45.75415" lon="4.7772">
        <ele>233</ele>
        <time>2022-06-26T14:43:51Z</time>
      </trkpt>
      <trkpt lat="45.75416" lon="4.77728">
        <ele>233.4</ele>
        <time>2022-06-26T14:43:52Z</time>
      </trkpt>
      <trkpt lat="45.75418" lon="4.77735">
        <ele>233.4</ele>
        <time>2022-06-26T14:43:53Z</time>
      </trkpt>
      <trkpt lat="45.75419" lon="4.77743">
        <ele>233.6</ele>
        <time>2022-06-26T14:43:54Z</time>
      </trkpt>
      <trkpt lat="45.75421" lon="4.7775">
        <ele>233.6</ele>
        <time>2022-06-26T14:43:55Z</time>
      </trkpt>
      <trkpt lat="45.75422" lon="4.77757">
        <ele>233.6</ele>
        <time>2022-06-26T14:43:56Z</time>
      </trkpt>
      <trkpt lat="45.75424" lon="4.77764">
        <ele>233.8</ele>
        <time>2022-06-26T14:43:57Z</time>
      </trkpt>
      <trkpt lat="45.75425" lon="4.77772">
        <ele>233.8</ele>
        <time>2022-06-26T14:43:58Z</time>
      </trkpt>
      <trkpt lat="45.75427" lon="4.77779">
        <ele>233.8</ele>
        <time>2022-06-26T14:43:59Z</time>
      </trkpt>
      <trkpt lat="45.75428" lon="4.77786">
        <ele>234</ele>
        <time>2022-06-26T14:44:00Z</time>
      </trkpt>
      <trkpt lat="45.75429" lon="4.77793">
        <ele>234</ele>
        <time>2022-06-26T14:44:01Z</time>
      </trkpt>
      <trkpt lat="45.7543" lon="4.778">
        <ele>234</ele>
        <time>2022-06-26T14:44:02Z</time>
      </trkpt>
      <trkpt lat="45.75431" lon="4.77807">
        <ele>234</ele>
        <time>2022-06-26T14:44:03Z</time>
      </trkpt>
      <trkpt lat="45.75432" lon="4.77814">
        <ele>234</ele>
        <time>2022-06-26T14:44:04Z</time>
      </trkpt>
      <trkpt lat="45.75433" lon="4.77821">
        <ele>234.2</ele>
        <time>2022-06-26T14:44:05Z</time>
      </trkpt>
      <trkpt lat="45.75435" lon="4.77828">
        <ele>234.2</ele>
        <time>2022-06-26T14:44:06Z</time>
      </trkpt>
      <trkpt lat="45.75436" lon="4.77835">
        <ele>234.4</ele>
        <time>2022-06-26T14:44:07Z</time>
      </trkpt>
      <trkpt lat="45.75437" lon="4.77842">
        <ele>234.4</ele>
        <time>2022-06-26T14:44:08Z</time>
      </trkpt>
      <trkpt lat="45.75438" lon="4.77849">
        <ele>234.8</ele>
        <time>2022-06-26T14:44:09Z</time>
      </trkpt>
      <trkpt lat="45.75439" lon="4.77856">
        <ele>234.8</ele>
        <time>2022-06-26T14:44:10Z</time>
      </trkpt>
      <trkpt lat="45.7544" lon="4.77863">
        <ele>235</ele>
        <time>2022-06-26T14:44:11Z</time>
      </trkpt>
      <trkpt lat="45.75441" lon="4.7787">
        <ele>235</ele>
        <time>2022-06-26T14:44:12Z</time>
      </trkpt>
      <trkpt lat="45.75441" lon="4.77877">
        <ele>235.4</ele>
        <time>2022-06-26T14:44:13Z</time>
      </trkpt>
      <trkpt lat="45.75442" lon="4.77883">
        <ele>235.4</ele>
        <time>2022-06-26T14:44:14Z</time>
      </trkpt>
      <trkpt lat="45.75442" lon="4.7789">
        <ele>235.8</ele>
        <time>2022-06-26T14:44:15Z</time>
      </trkpt>
      <trkpt lat="45.75443" lon="4.77896">
        <ele>235.8</ele>
        <time>2022-06-26T14:44:16Z</time>
      </trkpt>
      <trkpt lat="45.75443" lon="4.77902">
        <ele>236</ele>
        <time>2022-06-26T14:44:17Z</time>
      </trkpt>
      <trkpt lat="45.75444" lon="4.77907">
        <ele>236</ele>
        <time>2022-06-26T14:44:18Z</time>
      </trkpt>
      <trkpt lat="45.75444" lon="4.77913">
        <ele>236.4</ele>
        <time>2022-06-26T14:44:19Z</time>
      </trkpt>
      <trkpt lat="45.75445" lon="4.77917">
        <ele>236.4</ele>
        <time>2022-06-26T14:44:20Z</time>
      </trkpt>
      <trkpt lat="45.75445" lon="4.77922">
        <ele>236.8</ele>
        <time>2022-06-26T14:44:21Z</time>
      </trkpt>
      <trkpt lat="45.75448" lon="4.77926">
        <ele>237</ele>
        <time>2022-06-26T14:44:22Z</time>
      </trkpt>
      <trkpt lat="45.75449" lon="4.77931">
        <ele>237</ele>
        <time>2022-06-26T14:44:23Z</time>
      </trkpt>
      <trkpt lat="45.75449" lon="4.77937">
        <ele>237.4</ele>
        <time>2022-06-26T14:44:24Z</time>
      </trkpt>
      <trkpt lat="45.7545" lon="4.77941">
        <ele>237.8</ele>
        <time>2022-06-26T14:44:25Z</time>
      </trkpt>
      <trkpt lat="45.75451" lon="4.77946">
        <ele>238</ele>
        <time>2022-06-26T14:44:26Z</time>
      </trkpt>
      <trkpt lat="45.75452" lon="4.77951">
        <ele>238.2</ele>
        <time>2022-06-26T14:44:27Z</time>
      </trkpt>
      <trkpt lat="45.75453" lon="4.77956">
        <ele>238.4</ele>
        <time>2022-06-26T14:44:28Z</time>
      </trkpt>
      <trkpt lat="45.75454" lon="4.77961">
        <ele>238.6</ele>
        <time>2022-06-26T14:44:29Z</time>
      </trkpt>
      <trkpt lat="45.75455" lon="4.77966">
        <ele>239</ele>
        <time>2022-06-26T14:44:30Z</time>
      </trkpt>
      <trkpt lat="45.75456" lon="4.77971">
        <ele>239</ele>
        <time>2022-06-26T14:44:31Z</time>
      </trkpt>
      <trkpt lat="45.75457" lon="4.77976">
        <ele>239.4</ele>
        <time>2022-06-26T14:44:32Z</time>
      </trkpt>
      <trkpt lat="45.75458" lon="4.77981">
        <ele>239.4</ele>
        <time>2022-06-26T14:44:33Z</time>
      </trkpt>
      <trkpt lat="45.75458" lon="4.77986">
        <ele>239.8</ele>
        <time>2022-06-26T14:44:34Z</time>
      </trkpt>
      <trkpt lat="45.75459" lon="4.77991">
        <ele>239.8</ele>
        <time>2022-06-26T14:44:35Z</time>
      </trkpt>
      <trkpt lat="45.75459" lon="4.77996">
        <ele>240.2</ele>
        <time>2022-06-26T14:44:36Z</time>
      </trkpt>
      <trkpt lat="45.75459" lon="4.78002">
        <ele>240.2</ele>
        <time>2022-06-26T14:44:37Z</time>
      </trkpt>
      <trkpt lat="45.7546" lon="4.78008">
        <ele>240.4</ele>
        <time>2022-06-26T14:44:38Z</time>
      </trkpt>
      <trkpt lat="45.7546" lon="4.78014">
        <ele>240.6</ele>
        <time>2022-06-26T14:44:39Z</time>
      </trkpt>
      <trkpt lat="45.7546" lon="4.78019">
        <ele>240.8</ele>
        <time>2022-06-26T14:44:40Z</time>
      </trkpt>
      <trkpt lat="45.7546" lon="4.78025">
        <ele>240.8</ele>
        <time>2022-06-26T14:44:41Z</time>
      </trkpt>
      <trkpt lat="45.7546" lon="4.78031">
        <ele>241.2</ele>
        <time>2022-06-26T14:44:42Z</time>
      </trkpt>
      <trkpt lat="45.7546" lon="4.78036">
        <ele>241.2</ele>
        <time>2022-06-26T14:44:43Z</time>
      </trkpt>
      <trkpt lat="45.75459" lon="4.78041">
        <ele>241.6</ele>
        <time>2022-06-26T14:44:44Z</time>
      </trkpt>
      <trkpt lat="45.75459" lon="4.78046">
        <ele>241.6</ele>
        <time>2022-06-26T14:44:45Z</time>
      </trkpt>
      <trkpt lat="45.75459" lon="4.78051">
        <ele>241.8</ele>
        <time>2022-06-26T14:44:46Z</time>
      </trkpt>
      <trkpt lat="45.75459" lon="4.78056">
        <ele>242.2</ele>
        <time>2022-06-26T14:44:47Z</time>
      </trkpt>
      <trkpt lat="45.75459" lon="4.7806">
        <ele>242.4</ele>
        <time>2022-06-26T14:44:48Z</time>
      </trkpt>
      <trkpt lat="45.75459" lon="4.78065">
        <ele>242.6</ele>
        <time>2022-06-26T14:44:49Z</time>
      </trkpt>
      <trkpt lat="45.75459" lon="4.7807">
        <ele>242.8</ele>
        <time>2022-06-26T14:44:50Z</time>
      </trkpt>
      <trkpt lat="45.75458" lon="4.78075">
        <ele>242.8</ele>
        <time>2022-06-26T14:44:51Z</time>
      </trkpt>
      <trkpt lat="45.75458" lon="4.78079">
        <ele>243.2</ele>
        <time>2022-06-26T14:44:52Z</time>
      </trkpt>
      <trkpt lat="45.75458" lon="4.78084">
        <ele>243.4</ele>
        <time>2022-06-26T14:44:53Z</time>
      </trkpt>
      <trkpt lat="45.75457" lon="4.78089">
        <ele>243.4</ele>
        <time>2022-06-26T14:44:54Z</time>
      </trkpt>
      <trkpt lat="45.75457" lon="4.78094">
        <ele>243.8</ele>
        <time>2022-06-26T14:44:55Z</time>
      </trkpt>
      <trkpt lat="45.75457" lon="4.78098">
        <ele>243.8</ele>
        <time>2022-06-26T14:44:56Z</time>
      </trkpt>
      <trkpt lat="45.75456" lon="4.78103">
        <ele>244.2</ele>
        <time>2022-06-26T14:44:57Z</time>
      </trkpt>
      <trkpt lat="45.75456" lon="4.78108">
        <ele>244.2</ele>
        <time>2022-06-26T14:44:58Z</time>
      </trkpt>
      <trkpt lat="45.75455" lon="4.78112">
        <ele>244.4</ele>
        <time>2022-06-26T14:44:59Z</time>
      </trkpt>
      <trkpt lat="45.75455" lon="4.78117">
        <ele>244.8</ele>
        <time>2022-06-26T14:45:00Z</time>
      </trkpt>
      <trkpt lat="45.75455" lon="4.78122">
        <ele>244.8</ele>
        <time>2022-06-26T14:45:01Z</time>
      </trkpt>
      <trkpt lat="45.75454" lon="4.78127">
        <ele>245.4</ele>
        <time>2022-06-26T14:45:02Z</time>
      </trkpt>
      <trkpt lat="45.75454" lon="4.78131">
        <ele>245.4</ele>
        <time>2022-06-26T14:45:03Z</time>
      </trkpt>
      <trkpt lat="45.75454" lon="4.78136">
        <ele>245.8</ele>
        <time>2022-06-26T14:45:04Z</time>
      </trkpt>
      <trkpt lat="45.75453" lon="4.78141">
        <ele>246</ele>
        <time>2022-06-26T14:45:05Z</time>
      </trkpt>
      <trkpt lat="45.75453" lon="4.78146">
        <ele>246.2</ele>
        <time>2022-06-26T14:45:06Z</time>
      </trkpt>
      <trkpt lat="45.75453" lon="4.7815">
        <ele>246.4</ele>
        <time>2022-06-26T14:45:07Z</time>
      </trkpt>
      <trkpt lat="45.75452" lon="4.78155">
        <ele>246.4</ele>
        <time>2022-06-26T14:45:08Z</time>
      </trkpt>
      <trkpt lat="45.75451" lon="4.78159">
        <ele>246.8</ele>
        <time>2022-06-26T14:45:09Z</time>
      </trkpt>
      <trkpt lat="45.75451" lon="4.78163">
        <ele>246.8</ele>
        <time>2022-06-26T14:45:10Z</time>
      </trkpt>
      <trkpt lat="45.7545" lon="4.78168">
        <ele>247.2</ele>
        <time>2022-06-26T14:45:11Z</time>
      </trkpt>
      <trkpt lat="45.7545" lon="4.78172">
        <ele>247.4</ele>
        <time>2022-06-26T14:45:12Z</time>
      </trkpt>
      <trkpt lat="45.75449" lon="4.78177">
        <ele>247.6</ele>
        <time>2022-06-26T14:45:13Z</time>
      </trkpt>
      <trkpt lat="45.75448" lon="4.78181">
        <ele>248</ele>
        <time>2022-06-26T14:45:14Z</time>
      </trkpt>
      <trkpt lat="45.75448" lon="4.78186">
        <ele>248.2</ele>
        <time>2022-06-26T14:45:15Z</time>
      </trkpt>
      <trkpt lat="45.75447" lon="4.7819">
        <ele>248.4</ele>
        <time>2022-06-26T14:45:16Z</time>
      </trkpt>
      <trkpt lat="45.75446" lon="4.78195">
        <ele>248.6</ele>
        <time>2022-06-26T14:45:17Z</time>
      </trkpt>
      <trkpt lat="45.75446" lon="4.78199">
        <ele>248.8</ele>
        <time>2022-06-26T14:45:18Z</time>
      </trkpt>
      <trkpt lat="45.75445" lon="4.78203">
        <ele>249</ele>
        <time>2022-06-26T14:45:19Z</time>
      </trkpt>
      <trkpt lat="45.75445" lon="4.78208">
        <ele>249.2</ele>
        <time>2022-06-26T14:45:20Z</time>
      </trkpt>
      <trkpt lat="45.75444" lon="4.78212">
        <ele>249.6</ele>
        <time>2022-06-26T14:45:21Z</time>
      </trkpt>
      <trkpt lat="45.75444" lon="4.78217">
        <ele>249.8</ele>
        <time>2022-06-26T14:45:22Z</time>
      </trkpt>
      <trkpt lat="45.75443" lon="4.78222">
        <ele>249.8</ele>
        <time>2022-06-26T14:45:23Z</time>
      </trkpt>
      <trkpt lat="45.75443" lon="4.78226">
        <ele>250.2</ele>
        <time>2022-06-26T14:45:24Z</time>
      </trkpt>
      <trkpt lat="45.75443" lon="4.78231">
        <ele>250.2</ele>
        <time>2022-06-26T14:45:25Z</time>
      </trkpt>
      <trkpt lat="45.75443" lon="4.78235">
        <ele>250.4</ele>
        <time>2022-06-26T14:45:26Z</time>
      </trkpt>
      <trkpt lat="45.75443" lon="4.7824">
        <ele>250.6</ele>
        <time>2022-06-26T14:45:27Z</time>
      </trkpt>
      <trkpt lat="45.75443" lon="4.78244">
        <ele>250.6</ele>
        <time>2022-06-26T14:45:28Z</time>
      </trkpt>
      <trkpt lat="45.75443" lon="4.78249">
        <ele>250.6</ele>
        <time>2022-06-26T14:45:29Z</time>
      </trkpt>
      <trkpt lat="45.75442" lon="4.78254">
        <ele>250.6</ele>
        <time>2022-06-26T14:45:30Z</time>
      </trkpt>
      <trkpt lat="45.75442" lon="4.78259">
        <ele>250.8</ele>
        <time>2022-06-26T14:45:31Z</time>
      </trkpt>
      <trkpt lat="45.75442" lon="4.78264">
        <ele>250.8</ele>
        <time>2022-06-26T14:45:32Z</time>
      </trkpt>
      <trkpt lat="45.75442" lon="4.78269">
        <ele>251.2</ele>
        <time>2022-06-26T14:45:33Z</time>
      </trkpt>
      <trkpt lat="45.75443" lon="4.78273">
        <ele>251.2</ele>
        <time>2022-06-26T14:45:34Z</time>
      </trkpt>
      <trkpt lat="45.75443" lon="4.78278">
        <ele>251.4</ele>
        <time>2022-06-26T14:45:35Z</time>
      </trkpt>
      <trkpt lat="45.75443" lon="4.78283">
        <ele>251.4</ele>
        <time>2022-06-26T14:45:36Z</time>
      </trkpt>
      <trkpt lat="45.75443" lon="4.78288">
        <ele>251.8</ele>
        <time>2022-06-26T14:45:37Z</time>
      </trkpt>
      <trkpt lat="45.75443" lon="4.78292">
        <ele>252</ele>
        <time>2022-06-26T14:45:38Z</time>
      </trkpt>
      <trkpt lat="45.75443" lon="4.78297">
        <ele>252.2</ele>
        <time>2022-06-26T14:45:39Z</time>
      </trkpt>
      <trkpt lat="45.75443" lon="4.78302">
        <ele>252.4</ele>
        <time>2022-06-26T14:45:40Z</time>
      </trkpt>
      <trkpt lat="45.75443" lon="4.78308">
        <ele>252.4</ele>
        <time>2022-06-26T14:45:41Z</time>
      </trkpt>
      <trkpt lat="45.75443" lon="4.78314">
        <ele>252.8</ele>
        <time>2022-06-26T14:45:42Z</time>
      </trkpt>
      <trkpt lat="45.75443" lon="4.7832">
        <ele>253</ele>
        <time>2022-06-26T14:45:43Z</time>
      </trkpt>
      <trkpt lat="45.75442" lon="4.78326">
        <ele>253.4</ele>
        <time>2022-06-26T14:45:44Z</time>
      </trkpt>
      <trkpt lat="45.75442" lon="4.78332">
        <ele>253.4</ele>
        <time>2022-06-26T14:45:45Z</time>
      </trkpt>
      <trkpt lat="45.75442" lon="4.78339">
        <ele>253.6</ele>
        <time>2022-06-26T14:45:46Z</time>
      </trkpt>
      <trkpt lat="45.75442" lon="4.78345">
        <ele>253.6</ele>
        <time>2022-06-26T14:45:47Z</time>
      </trkpt>
      <trkpt lat="45.75442" lon="4.78351">
        <ele>254</ele>
        <time>2022-06-26T14:45:48Z</time>
      </trkpt>
      <trkpt lat="45.75442" lon="4.78358">
        <ele>254.2</ele>
        <time>2022-06-26T14:45:49Z</time>
      </trkpt>
      <trkpt lat="45.75442" lon="4.78364">
        <ele>254.6</ele>
        <time>2022-06-26T14:45:50Z</time>
      </trkpt>
      <trkpt lat="45.75442" lon="4.7837">
        <ele>254.8</ele>
        <time>2022-06-26T14:45:51Z</time>
      </trkpt>
      <trkpt lat="45.75443" lon="4.78376">
        <ele>255.2</ele>
        <time>2022-06-26T14:45:52Z</time>
      </trkpt>
      <trkpt lat="45.75443" lon="4.78382">
        <ele>255.4</ele>
        <time>2022-06-26T14:45:53Z</time>
      </trkpt>
      <trkpt lat="45.75443" lon="4.78389">
        <ele>255.8</ele>
        <time>2022-06-26T14:45:54Z</time>
      </trkpt>
      <trkpt lat="45.75443" lon="4.78396">
        <ele>256</ele>
        <time>2022-06-26T14:45:55Z</time>
      </trkpt>
      <trkpt lat="45.75443" lon="4.78402">
        <ele>256.4</ele>
        <time>2022-06-26T14:45:56Z</time>
      </trkpt>
      <trkpt lat="45.75443" lon="4.78408">
        <ele>256.8</ele>
        <time>2022-06-26T14:45:57Z</time>
      </trkpt>
      <trkpt lat="45.75443" lon="4.78413">
        <ele>257</ele>
        <time>2022-06-26T14:45:58Z</time>
      </trkpt>
      <trkpt lat="45.75443" lon="4.78419">
        <ele>257.2</ele>
        <time>2022-06-26T14:45:59Z</time>
      </trkpt>
      <trkpt lat="45.75444" lon="4.78424">
        <ele>257.4</ele>
        <time>2022-06-26T14:46:00Z</time>
      </trkpt>
      <trkpt lat="45.75444" lon="4.7843">
        <ele>257.8</ele>
        <time>2022-06-26T14:46:01Z</time>
      </trkpt>
      <trkpt lat="45.75444" lon="4.78436">
        <ele>257.8</ele>
        <time>2022-06-26T14:46:02Z</time>
      </trkpt>
      <trkpt lat="45.75445" lon="4.78442">
        <ele>258.2</ele>
        <time>2022-06-26T14:46:03Z</time>
      </trkpt>
      <trkpt lat="45.75446" lon="4.78448">
        <ele>258.4</ele>
        <time>2022-06-26T14:46:04Z</time>
      </trkpt>
      <trkpt lat="45.75446" lon="4.78454">
        <ele>258.6</ele>
        <time>2022-06-26T14:46:05Z</time>
      </trkpt>
      <trkpt lat="45.75447" lon="4.7846">
        <ele>258.6</ele>
        <time>2022-06-26T14:46:06Z</time>
      </trkpt>
      <trkpt lat="45.75447" lon="4.78466">
        <ele>259</ele>
        <time>2022-06-26T14:46:07Z</time>
      </trkpt>
      <trkpt lat="45.75448" lon="4.78473">
        <ele>259.4</ele>
        <time>2022-06-26T14:46:08Z</time>
      </trkpt>
      <trkpt lat="45.75448" lon="4.78479">
        <ele>259.6</ele>
        <time>2022-06-26T14:46:09Z</time>
      </trkpt>
      <trkpt lat="45.75449" lon="4.78486">
        <ele>259.8</ele>
        <time>2022-06-26T14:46:10Z</time>
      </trkpt>
      <trkpt lat="45.7545" lon="4.78491">
        <ele>260.2</ele>
        <time>2022-06-26T14:46:11Z</time>
      </trkpt>
      <trkpt lat="45.7545" lon="4.78497">
        <ele>260.4</ele>
        <time>2022-06-26T14:46:12Z</time>
      </trkpt>
      <trkpt lat="45.75451" lon="4.78503">
        <ele>260.6</ele>
        <time>2022-06-26T14:46:13Z</time>
      </trkpt>
      <trkpt lat="45.75451" lon="4.78509">
        <ele>260.8</ele>
        <time>2022-06-26T14:46:14Z</time>
      </trkpt>
      <trkpt lat="45.75452" lon="4.78515">
        <ele>261.2</ele>
        <time>2022-06-26T14:46:15Z</time>
      </trkpt>
      <trkpt lat="45.75452" lon="4.78521">
        <ele>261.4</ele>
        <time>2022-06-26T14:46:16Z</time>
      </trkpt>
      <trkpt lat="45.75453" lon="4.78527">
        <ele>261.8</ele>
        <time>2022-06-26T14:46:17Z</time>
      </trkpt>
      <trkpt lat="45.75453" lon="4.78534">
        <ele>262</ele>
        <time>2022-06-26T14:46:18Z</time>
      </trkpt>
      <trkpt lat="45.75454" lon="4.78539">
        <ele>262</ele>
        <time>2022-06-26T14:46:19Z</time>
      </trkpt>
      <trkpt lat="45.75454" lon="4.78545">
        <ele>262.4</ele>
        <time>2022-06-26T14:46:21Z</time>
      </trkpt>
      <trkpt lat="45.75455" lon="4.78551">
        <ele>262.8</ele>
        <time>2022-06-26T14:46:22Z</time>
      </trkpt>
      <trkpt lat="45.75456" lon="4.78557">
        <ele>263</ele>
        <time>2022-06-26T14:46:23Z</time>
      </trkpt>
      <trkpt lat="45.75457" lon="4.78563">
        <ele>263.2</ele>
        <time>2022-06-26T14:46:24Z</time>
      </trkpt>
      <trkpt lat="45.75458" lon="4.78569">
        <ele>263.4</ele>
        <time>2022-06-26T14:46:25Z</time>
      </trkpt>
      <trkpt lat="45.75459" lon="4.78575">
        <ele>263.6</ele>
        <time>2022-06-26T14:46:26Z</time>
      </trkpt>
      <trkpt lat="45.75459" lon="4.78581">
        <ele>263.8</ele>
        <time>2022-06-26T14:46:27Z</time>
      </trkpt>
      <trkpt lat="45.7546" lon="4.78588">
        <ele>264.2</ele>
        <time>2022-06-26T14:46:28Z</time>
      </trkpt>
      <trkpt lat="45.75461" lon="4.78594">
        <ele>264.2</ele>
        <time>2022-06-26T14:46:29Z</time>
      </trkpt>
      <trkpt lat="45.75462" lon="4.786">
        <ele>264.6</ele>
        <time>2022-06-26T14:46:30Z</time>
      </trkpt>
      <trkpt lat="45.75462" lon="4.78605">
        <ele>265</ele>
        <time>2022-06-26T14:46:31Z</time>
      </trkpt>
      <trkpt lat="45.75463" lon="4.78612">
        <ele>265.2</ele>
        <time>2022-06-26T14:46:32Z</time>
      </trkpt>
      <trkpt lat="45.75463" lon="4.78618">
        <ele>265.2</ele>
        <time>2022-06-26T14:46:33Z</time>
      </trkpt>
      <trkpt lat="45.75464" lon="4.78624">
        <ele>265.6</ele>
        <time>2022-06-26T14:46:34Z</time>
      </trkpt>
      <trkpt lat="45.75465" lon="4.7863">
        <ele>265.8</ele>
        <time>2022-06-26T14:46:35Z</time>
      </trkpt>
      <trkpt lat="45.75466" lon="4.78636">
        <ele>266</ele>
        <time>2022-06-26T14:46:36Z</time>
      </trkpt>
      <trkpt lat="45.75467" lon="4.78643">
        <ele>266</ele>
        <time>2022-06-26T14:46:37Z</time>
      </trkpt>
      <trkpt lat="45.75467" lon="4.7865">
        <ele>266.4</ele>
        <time>2022-06-26T14:46:38Z</time>
      </trkpt>
      <trkpt lat="45.75468" lon="4.78656">
        <ele>266.8</ele>
        <time>2022-06-26T14:46:39Z</time>
      </trkpt>
      <trkpt lat="45.75468" lon="4.78663">
        <ele>267</ele>
        <time>2022-06-26T14:46:40Z</time>
      </trkpt>
      <trkpt lat="45.75468" lon="4.7867">
        <ele>267.2</ele>
        <time>2022-06-26T14:46:41Z</time>
      </trkpt>
      <trkpt lat="45.75469" lon="4.78676">
        <ele>267.6</ele>
        <time>2022-06-26T14:46:42Z</time>
      </trkpt>
      <trkpt lat="45.75469" lon="4.78682">
        <ele>267.6</ele>
        <time>2022-06-26T14:46:43Z</time>
      </trkpt>
      <trkpt lat="45.75469" lon="4.78688">
        <ele>268</ele>
        <time>2022-06-26T14:46:44Z</time>
      </trkpt>
      <trkpt lat="45.75469" lon="4.78695">
        <ele>268</ele>
        <time>2022-06-26T14:46:45Z</time>
      </trkpt>
      <trkpt lat="45.75468" lon="4.78701">
        <ele>268.4</ele>
        <time>2022-06-26T14:46:46Z</time>
      </trkpt>
      <trkpt lat="45.75468" lon="4.78707">
        <ele>268.4</ele>
        <time>2022-06-26T14:46:47Z</time>
      </trkpt>
      <trkpt lat="45.75468" lon="4.78713">
        <ele>268.8</ele>
        <time>2022-06-26T14:46:48Z</time>
      </trkpt>
      <trkpt lat="45.75467" lon="4.78719">
        <ele>268.8</ele>
        <time>2022-06-26T14:46:49Z</time>
      </trkpt>
      <trkpt lat="45.75467" lon="4.78725">
        <ele>269.2</ele>
        <time>2022-06-26T14:46:50Z</time>
      </trkpt>
      <trkpt lat="45.75466" lon="4.78731">
        <ele>269.2</ele>
        <time>2022-06-26T14:46:51Z</time>
      </trkpt>
      <trkpt lat="45.75467" lon="4.78737">
        <ele>269.6</ele>
        <time>2022-06-26T14:46:52Z</time>
      </trkpt>
      <trkpt lat="45.75467" lon="4.78743">
        <ele>269.6</ele>
        <time>2022-06-26T14:46:53Z</time>
      </trkpt>
      <trkpt lat="45.75466" lon="4.78748">
        <ele>269.8</ele>
        <time>2022-06-26T14:46:54Z</time>
      </trkpt>
      <trkpt lat="45.75466" lon="4.78754">
        <ele>270</ele>
        <time>2022-06-26T14:46:55Z</time>
      </trkpt>
      <trkpt lat="45.75465" lon="4.7876">
        <ele>270</ele>
        <time>2022-06-26T14:46:56Z</time>
      </trkpt>
      <trkpt lat="45.75464" lon="4.78766">
        <ele>270.4</ele>
        <time>2022-06-26T14:46:57Z</time>
      </trkpt>
      <trkpt lat="45.75463" lon="4.78772">
        <ele>270.6</ele>
        <time>2022-06-26T14:46:58Z</time>
      </trkpt>
      <trkpt lat="45.75461" lon="4.78777">
        <ele>270.6</ele>
        <time>2022-06-26T14:46:59Z</time>
      </trkpt>
      <trkpt lat="45.7546" lon="4.78783">
        <ele>271</ele>
        <time>2022-06-26T14:47:00Z</time>
      </trkpt>
      <trkpt lat="45.75459" lon="4.78788">
        <ele>271</ele>
        <time>2022-06-26T14:47:01Z</time>
      </trkpt>
      <trkpt lat="45.75458" lon="4.78793">
        <ele>271.2</ele>
        <time>2022-06-26T14:47:02Z</time>
      </trkpt>
      <trkpt lat="45.75458" lon="4.78798">
        <ele>271.2</ele>
        <time>2022-06-26T14:47:03Z</time>
      </trkpt>
      <trkpt lat="45.75457" lon="4.78803">
        <ele>271.6</ele>
        <time>2022-06-26T14:47:04Z</time>
      </trkpt>
      <trkpt lat="45.75457" lon="4.78808">
        <ele>271.8</ele>
        <time>2022-06-26T14:47:05Z</time>
      </trkpt>
      <trkpt lat="45.75456" lon="4.78812">
        <ele>271.8</ele>
        <time>2022-06-26T14:47:06Z</time>
      </trkpt>
      <trkpt lat="45.75457" lon="4.7882">
        <ele>272</ele>
        <time>2022-06-26T14:47:07Z</time>
      </trkpt>
      <trkpt lat="45.75458" lon="4.78823">
        <ele>272</ele>
        <time>2022-06-26T14:47:08Z</time>
      </trkpt>
      <trkpt lat="45.75458" lon="4.78826">
        <ele>272.4</ele>
        <time>2022-06-26T14:47:09Z</time>
      </trkpt>
      <trkpt lat="45.75459" lon="4.78829">
        <ele>272.4</ele>
        <time>2022-06-26T14:47:10Z</time>
      </trkpt>
      <trkpt lat="45.75459" lon="4.78832">
        <ele>272.4</ele>
        <time>2022-06-26T14:47:11Z</time>
      </trkpt>
      <trkpt lat="45.75459" lon="4.78836">
        <ele>272.6</ele>
        <time>2022-06-26T14:47:12Z</time>
      </trkpt>
      <trkpt lat="45.7546" lon="4.78839">
        <ele>272.6</ele>
        <time>2022-06-26T14:47:13Z</time>
      </trkpt>
      <trkpt lat="45.7546" lon="4.78842">
        <ele>272.6</ele>
        <time>2022-06-26T14:47:14Z</time>
      </trkpt>
      <trkpt lat="45.75461" lon="4.78846">
        <ele>272.8</ele>
        <time>2022-06-26T14:47:15Z</time>
      </trkpt>
      <trkpt lat="45.75462" lon="4.7885">
        <ele>272.8</ele>
        <time>2022-06-26T14:47:16Z</time>
      </trkpt>
      <trkpt lat="45.75463" lon="4.78854">
        <ele>273.2</ele>
        <time>2022-06-26T14:47:17Z</time>
      </trkpt>
      <trkpt lat="45.75465" lon="4.78859">
        <ele>273.2</ele>
        <time>2022-06-26T14:47:18Z</time>
      </trkpt>
      <trkpt lat="45.75468" lon="4.78864">
        <ele>273.6</ele>
        <time>2022-06-26T14:47:19Z</time>
      </trkpt>
      <trkpt lat="45.7547" lon="4.78868">
        <ele>273.6</ele>
        <time>2022-06-26T14:47:20Z</time>
      </trkpt>
      <trkpt lat="45.75472" lon="4.78873">
        <ele>273.6</ele>
        <time>2022-06-26T14:47:21Z</time>
      </trkpt>
      <trkpt lat="45.75475" lon="4.78877">
        <ele>273.8</ele>
        <time>2022-06-26T14:47:22Z</time>
      </trkpt>
      <trkpt lat="45.75477" lon="4.78881">
        <ele>273.8</ele>
        <time>2022-06-26T14:47:23Z</time>
      </trkpt>
      <trkpt lat="45.7548" lon="4.78885">
        <ele>274.2</ele>
        <time>2022-06-26T14:47:24Z</time>
      </trkpt>
      <trkpt lat="45.75482" lon="4.78889">
        <ele>274.2</ele>
        <time>2022-06-26T14:47:25Z</time>
      </trkpt>
      <trkpt lat="45.75484" lon="4.78893">
        <ele>274.4</ele>
        <time>2022-06-26T14:47:26Z</time>
      </trkpt>
      <trkpt lat="45.75487" lon="4.78897">
        <ele>274.6</ele>
        <time>2022-06-26T14:47:27Z</time>
      </trkpt>
      <trkpt lat="45.75489" lon="4.78901">
        <ele>274.8</ele>
        <time>2022-06-26T14:47:28Z</time>
      </trkpt>
      <trkpt lat="45.75491" lon="4.78904">
        <ele>274.8</ele>
        <time>2022-06-26T14:47:29Z</time>
      </trkpt>
      <trkpt lat="45.75493" lon="4.78907">
        <ele>275.2</ele>
        <time>2022-06-26T14:47:30Z</time>
      </trkpt>
      <trkpt lat="45.75495" lon="4.7891">
        <ele>275.2</ele>
        <time>2022-06-26T14:47:31Z</time>
      </trkpt>
      <trkpt lat="45.75497" lon="4.78913">
        <ele>275.4</ele>
        <time>2022-06-26T14:47:32Z</time>
      </trkpt>
      <trkpt lat="45.75499" lon="4.78917">
        <ele>275.4</ele>
        <time>2022-06-26T14:47:33Z</time>
      </trkpt>
      <trkpt lat="45.75501" lon="4.7892">
        <ele>275.6</ele>
        <time>2022-06-26T14:47:34Z</time>
      </trkpt>
      <trkpt lat="45.75503" lon="4.78924">
        <ele>275.6</ele>
        <time>2022-06-26T14:47:35Z</time>
      </trkpt>
      <trkpt lat="45.75506" lon="4.78928">
        <ele>276</ele>
        <time>2022-06-26T14:47:36Z</time>
      </trkpt>
      <trkpt lat="45.75508" lon="4.78932">
        <ele>276</ele>
        <time>2022-06-26T14:47:37Z</time>
      </trkpt>
      <trkpt lat="45.7551" lon="4.78936">
        <ele>276.4</ele>
        <time>2022-06-26T14:47:38Z</time>
      </trkpt>
      <trkpt lat="45.75512" lon="4.7894">
        <ele>276.4</ele>
        <time>2022-06-26T14:47:39Z</time>
      </trkpt>
      <trkpt lat="45.75514" lon="4.78944">
        <ele>276.6</ele>
        <time>2022-06-26T14:47:40Z</time>
      </trkpt>
      <trkpt lat="45.75517" lon="4.78947">
        <ele>276.6</ele>
        <time>2022-06-26T14:47:41Z</time>
      </trkpt>
      <trkpt lat="45.75518" lon="4.78951">
        <ele>277</ele>
        <time>2022-06-26T14:47:42Z</time>
      </trkpt>
      <trkpt lat="45.75521" lon="4.78955">
        <ele>277.2</ele>
        <time>2022-06-26T14:47:43Z</time>
      </trkpt>
      <trkpt lat="45.75523" lon="4.78958">
        <ele>277.2</ele>
        <time>2022-06-26T14:47:44Z</time>
      </trkpt>
      <trkpt lat="45.75525" lon="4.78962">
        <ele>277.6</ele>
        <time>2022-06-26T14:47:45Z</time>
      </trkpt>
      <trkpt lat="45.75527" lon="4.78965">
        <ele>277.6</ele>
        <time>2022-06-26T14:47:46Z</time>
      </trkpt>
      <trkpt lat="45.75529" lon="4.78969">
        <ele>278</ele>
        <time>2022-06-26T14:47:47Z</time>
      </trkpt>
      <trkpt lat="45.75531" lon="4.78972">
        <ele>278</ele>
        <time>2022-06-26T14:47:48Z</time>
      </trkpt>
      <trkpt lat="45.75533" lon="4.78976">
        <ele>278.2</ele>
        <time>2022-06-26T14:47:49Z</time>
      </trkpt>
      <trkpt lat="45.75536" lon="4.78979">
        <ele>278.2</ele>
        <time>2022-06-26T14:47:50Z</time>
      </trkpt>
      <trkpt lat="45.75538" lon="4.78982">
        <ele>278.6</ele>
        <time>2022-06-26T14:47:51Z</time>
      </trkpt>
      <trkpt lat="45.7554" lon="4.78986">
        <ele>278.6</ele>
        <time>2022-06-26T14:47:52Z</time>
      </trkpt>
      <trkpt lat="45.75541" lon="4.7899">
        <ele>279</ele>
        <time>2022-06-26T14:47:53Z</time>
      </trkpt>
      <trkpt lat="45.75543" lon="4.78994">
        <ele>279</ele>
        <time>2022-06-26T14:47:54Z</time>
      </trkpt>
      <trkpt lat="45.75545" lon="4.78997">
        <ele>279.4</ele>
        <time>2022-06-26T14:47:55Z</time>
      </trkpt>
      <trkpt lat="45.75547" lon="4.79001">
        <ele>279.6</ele>
        <time>2022-06-26T14:47:56Z</time>
      </trkpt>
      <trkpt lat="45.75549" lon="4.79005">
        <ele>279.8</ele>
        <time>2022-06-26T14:47:57Z</time>
      </trkpt>
      <trkpt lat="45.75551" lon="4.79009">
        <ele>279.8</ele>
        <time>2022-06-26T14:47:58Z</time>
      </trkpt>
      <trkpt lat="45.75553" lon="4.79012">
        <ele>280.2</ele>
        <time>2022-06-26T14:47:59Z</time>
      </trkpt>
      <trkpt lat="45.75556" lon="4.79016">
        <ele>280.2</ele>
        <time>2022-06-26T14:48:00Z</time>
      </trkpt>
      <trkpt lat="45.75558" lon="4.7902">
        <ele>280.6</ele>
        <time>2022-06-26T14:48:01Z</time>
      </trkpt>
      <trkpt lat="45.7556" lon="4.79024">
        <ele>280.6</ele>
        <time>2022-06-26T14:48:02Z</time>
      </trkpt>
      <trkpt lat="45.75562" lon="4.79028">
        <ele>280.8</ele>
        <time>2022-06-26T14:48:03Z</time>
      </trkpt>
      <trkpt lat="45.75564" lon="4.79031">
        <ele>281.2</ele>
        <time>2022-06-26T14:48:04Z</time>
      </trkpt>
      <trkpt lat="45.75567" lon="4.79035">
        <ele>281.4</ele>
        <time>2022-06-26T14:48:05Z</time>
      </trkpt>
      <trkpt lat="45.75569" lon="4.79039">
        <ele>281.4</ele>
        <time>2022-06-26T14:48:06Z</time>
      </trkpt>
      <trkpt lat="45.75571" lon="4.79043">
        <ele>281.6</ele>
        <time>2022-06-26T14:48:07Z</time>
      </trkpt>
      <trkpt lat="45.75573" lon="4.79047">
        <ele>281.6</ele>
        <time>2022-06-26T14:48:08Z</time>
      </trkpt>
      <trkpt lat="45.75576" lon="4.79052">
        <ele>281.8</ele>
        <time>2022-06-26T14:48:09Z</time>
      </trkpt>
      <trkpt lat="45.75578" lon="4.79056">
        <ele>281.8</ele>
        <time>2022-06-26T14:48:10Z</time>
      </trkpt>
      <trkpt lat="45.7558" lon="4.79061">
        <ele>282.2</ele>
        <time>2022-06-26T14:48:11Z</time>
      </trkpt>
      <trkpt lat="45.75582" lon="4.79067">
        <ele>282.2</ele>
        <time>2022-06-26T14:48:12Z</time>
      </trkpt>
      <trkpt lat="45.75584" lon="4.79072">
        <ele>282.4</ele>
        <time>2022-06-26T14:48:13Z</time>
      </trkpt>
      <trkpt lat="45.75585" lon="4.79078">
        <ele>282.6</ele>
        <time>2022-06-26T14:48:14Z</time>
      </trkpt>
      <trkpt lat="45.75587" lon="4.79083">
        <ele>282.8</ele>
        <time>2022-06-26T14:48:15Z</time>
      </trkpt>
      <trkpt lat="45.75589" lon="4.79089">
        <ele>282.8</ele>
        <time>2022-06-26T14:48:16Z</time>
      </trkpt>
      <trkpt lat="45.7559" lon="4.79095">
        <ele>283.2</ele>
        <time>2022-06-26T14:48:17Z</time>
      </trkpt>
      <trkpt lat="45.75591" lon="4.79101">
        <ele>283.2</ele>
        <time>2022-06-26T14:48:18Z</time>
      </trkpt>
      <trkpt lat="45.75592" lon="4.79108">
        <ele>283.2</ele>
        <time>2022-06-26T14:48:19Z</time>
      </trkpt>
      <trkpt lat="45.75593" lon="4.79114">
        <ele>283.4</ele>
        <time>2022-06-26T14:48:20Z</time>
      </trkpt>
      <trkpt lat="45.75594" lon="4.7912">
        <ele>283.4</ele>
        <time>2022-06-26T14:48:21Z</time>
      </trkpt>
      <trkpt lat="45.75596" lon="4.79125">
        <ele>283.4</ele>
        <time>2022-06-26T14:48:22Z</time>
      </trkpt>
      <trkpt lat="45.75597" lon="4.79131">
        <ele>283.4</ele>
        <time>2022-06-26T14:48:23Z</time>
      </trkpt>
      <trkpt lat="45.75598" lon="4.79137">
        <ele>283.4</ele>
        <time>2022-06-26T14:48:24Z</time>
      </trkpt>
      <trkpt lat="45.756" lon="4.79143">
        <ele>283.8</ele>
        <time>2022-06-26T14:48:25Z</time>
      </trkpt>
      <trkpt lat="45.75602" lon="4.79149">
        <ele>283.8</ele>
        <time>2022-06-26T14:48:26Z</time>
      </trkpt>
      <trkpt lat="45.75603" lon="4.79155">
        <ele>283.8</ele>
        <time>2022-06-26T14:48:27Z</time>
      </trkpt>
      <trkpt lat="45.75605" lon="4.79161">
        <ele>283.8</ele>
        <time>2022-06-26T14:48:28Z</time>
      </trkpt>
      <trkpt lat="45.75607" lon="4.79167">
        <ele>284</ele>
        <time>2022-06-26T14:48:29Z</time>
      </trkpt>
      <trkpt lat="45.75608" lon="4.79174">
        <ele>284</ele>
        <time>2022-06-26T14:48:30Z</time>
      </trkpt>
      <trkpt lat="45.7561" lon="4.7918">
        <ele>284</ele>
        <time>2022-06-26T14:48:31Z</time>
      </trkpt>
      <trkpt lat="45.75611" lon="4.79187">
        <ele>284</ele>
        <time>2022-06-26T14:48:32Z</time>
      </trkpt>
      <trkpt lat="45.75612" lon="4.79194">
        <ele>284</ele>
        <time>2022-06-26T14:48:33Z</time>
      </trkpt>
      <trkpt lat="45.75614" lon="4.79201">
        <ele>284.2</ele>
        <time>2022-06-26T14:48:34Z</time>
      </trkpt>
      <trkpt lat="45.75615" lon="4.79208">
        <ele>284.2</ele>
        <time>2022-06-26T14:48:35Z</time>
      </trkpt>
      <trkpt lat="45.75617" lon="4.79215">
        <ele>284.2</ele>
        <time>2022-06-26T14:48:36Z</time>
      </trkpt>
      <trkpt lat="45.75618" lon="4.79222">
        <ele>284.2</ele>
        <time>2022-06-26T14:48:37Z</time>
      </trkpt>
      <trkpt lat="45.75619" lon="4.79229">
        <ele>284.2</ele>
        <time>2022-06-26T14:48:38Z</time>
      </trkpt>
      <trkpt lat="45.7562" lon="4.79237">
        <ele>284.4</ele>
        <time>2022-06-26T14:48:39Z</time>
      </trkpt>
      <trkpt lat="45.75622" lon="4.79244">
        <ele>284.4</ele>
        <time>2022-06-26T14:48:40Z</time>
      </trkpt>
      <trkpt lat="45.75623" lon="4.79251">
        <ele>284.4</ele>
        <time>2022-06-26T14:48:41Z</time>
      </trkpt>
      <trkpt lat="45.75625" lon="4.79259">
        <ele>284.4</ele>
        <time>2022-06-26T14:48:42Z</time>
      </trkpt>
      <trkpt lat="45.75626" lon="4.79267">
        <ele>284.6</ele>
        <time>2022-06-26T14:48:43Z</time>
      </trkpt>
      <trkpt lat="45.75628" lon="4.79275">
        <ele>284.6</ele>
        <time>2022-06-26T14:48:44Z</time>
      </trkpt>
      <trkpt lat="45.75629" lon="4.79283">
        <ele>284.6</ele>
        <time>2022-06-26T14:48:45Z</time>
      </trkpt>
      <trkpt lat="45.75631" lon="4.79291">
        <ele>284.6</ele>
        <time>2022-06-26T14:48:46Z</time>
      </trkpt>
      <trkpt lat="45.75632" lon="4.79299">
        <ele>284.6</ele>
        <time>2022-06-26T14:48:47Z</time>
      </trkpt>
      <trkpt lat="45.75634" lon="4.79307">
        <ele>284.6</ele>
        <time>2022-06-26T14:48:48Z</time>
      </trkpt>
      <trkpt lat="45.75635" lon="4.79315">
        <ele>284.6</ele>
        <time>2022-06-26T14:48:49Z</time>
      </trkpt>
      <trkpt lat="45.75637" lon="4.79323">
        <ele>284.8</ele>
        <time>2022-06-26T14:48:50Z</time>
      </trkpt>
      <trkpt lat="45.75638" lon="4.79331">
        <ele>284.8</ele>
        <time>2022-06-26T14:48:51Z</time>
      </trkpt>
      <trkpt lat="45.7564" lon="4.79339">
        <ele>284.8</ele>
        <time>2022-06-26T14:48:52Z</time>
      </trkpt>
      <trkpt lat="45.75642" lon="4.79347">
        <ele>284.8</ele>
        <time>2022-06-26T14:48:53Z</time>
      </trkpt>
      <trkpt lat="45.75643" lon="4.79355">
        <ele>284.8</ele>
        <time>2022-06-26T14:48:54Z</time>
      </trkpt>
      <trkpt lat="45.75645" lon="4.79363">
        <ele>284.8</ele>
        <time>2022-06-26T14:48:55Z</time>
      </trkpt>
      <trkpt lat="45.75646" lon="4.79371">
        <ele>284.8</ele>
        <time>2022-06-26T14:48:56Z</time>
      </trkpt>
      <trkpt lat="45.75648" lon="4.79379">
        <ele>284.8</ele>
        <time>2022-06-26T14:48:57Z</time>
      </trkpt>
      <trkpt lat="45.75649" lon="4.79388">
        <ele>284.8</ele>
        <time>2022-06-26T14:48:58Z</time>
      </trkpt>
      <trkpt lat="45.75651" lon="4.79396">
        <ele>285</ele>
        <time>2022-06-26T14:48:59Z</time>
      </trkpt>
      <trkpt lat="45.75652" lon="4.79404">
        <ele>285</ele>
        <time>2022-06-26T14:49:00Z</time>
      </trkpt>
      <trkpt lat="45.75654" lon="4.79412">
        <ele>285</ele>
        <time>2022-06-26T14:49:01Z</time>
      </trkpt>
      <trkpt lat="45.75655" lon="4.79421">
        <ele>285</ele>
        <time>2022-06-26T14:49:02Z</time>
      </trkpt>
      <trkpt lat="45.75657" lon="4.7943">
        <ele>285</ele>
        <time>2022-06-26T14:49:03Z</time>
      </trkpt>
      <trkpt lat="45.75658" lon="4.79439">
        <ele>285</ele>
        <time>2022-06-26T14:49:04Z</time>
      </trkpt>
      <trkpt lat="45.75659" lon="4.79448">
        <ele>285.4</ele>
        <time>2022-06-26T14:49:05Z</time>
      </trkpt>
      <trkpt lat="45.75659" lon="4.79457">
        <ele>285.4</ele>
        <time>2022-06-26T14:49:06Z</time>
      </trkpt>
      <trkpt lat="45.75659" lon="4.79467">
        <ele>285.6</ele>
        <time>2022-06-26T14:49:07Z</time>
      </trkpt>
      <trkpt lat="45.75658" lon="4.79476">
        <ele>285.6</ele>
        <time>2022-06-26T14:49:08Z</time>
      </trkpt>
      <trkpt lat="45.75656" lon="4.79485">
        <ele>285.6</ele>
        <time>2022-06-26T14:49:09Z</time>
      </trkpt>
      <trkpt lat="45.75654" lon="4.79493">
        <ele>285.6</ele>
        <time>2022-06-26T14:49:10Z</time>
      </trkpt>
      <trkpt lat="45.75652" lon="4.79502">
        <ele>285.8</ele>
        <time>2022-06-26T14:49:11Z</time>
      </trkpt>
      <trkpt lat="45.7565" lon="4.7951">
        <ele>285.8</ele>
        <time>2022-06-26T14:49:12Z</time>
      </trkpt>
      <trkpt lat="45.75648" lon="4.79519">
        <ele>285.8</ele>
        <time>2022-06-26T14:49:13Z</time>
      </trkpt>
      <trkpt lat="45.75646" lon="4.79528">
        <ele>285.8</ele>
        <time>2022-06-26T14:49:14Z</time>
      </trkpt>
      <trkpt lat="45.75644" lon="4.79536">
        <ele>285.8</ele>
        <time>2022-06-26T14:49:15Z</time>
      </trkpt>
      <trkpt lat="45.75642" lon="4.79545">
        <ele>286</ele>
        <time>2022-06-26T14:49:16Z</time>
      </trkpt>
      <trkpt lat="45.75639" lon="4.79553">
        <ele>286</ele>
        <time>2022-06-26T14:49:17Z</time>
      </trkpt>
      <trkpt lat="45.75637" lon="4.79562">
        <ele>286</ele>
        <time>2022-06-26T14:49:18Z</time>
      </trkpt>
      <trkpt lat="45.75635" lon="4.79571">
        <ele>286.4</ele>
        <time>2022-06-26T14:49:19Z</time>
      </trkpt>
      <trkpt lat="45.75633" lon="4.79579">
        <ele>286.4</ele>
        <time>2022-06-26T14:49:20Z</time>
      </trkpt>
      <trkpt lat="45.75631" lon="4.79588">
        <ele>286.6</ele>
        <time>2022-06-26T14:49:21Z</time>
      </trkpt>
      <trkpt lat="45.7563" lon="4.79597">
        <ele>286.6</ele>
        <time>2022-06-26T14:49:22Z</time>
      </trkpt>
      <trkpt lat="45.75629" lon="4.79606">
        <ele>286.6</ele>
        <time>2022-06-26T14:49:23Z</time>
      </trkpt>
      <trkpt lat="45.75629" lon="4.79614">
        <ele>286.6</ele>
        <time>2022-06-26T14:49:24Z</time>
      </trkpt>
      <trkpt lat="45.7563" lon="4.79622">
        <ele>286.6</ele>
        <time>2022-06-26T14:49:25Z</time>
      </trkpt>
      <trkpt lat="45.75631" lon="4.7963">
        <ele>286.8</ele>
        <time>2022-06-26T14:49:26Z</time>
      </trkpt>
      <trkpt lat="45.75632" lon="4.79637">
        <ele>286.8</ele>
        <time>2022-06-26T14:49:27Z</time>
      </trkpt>
      <trkpt lat="45.75633" lon="4.79645">
        <ele>286.8</ele>
        <time>2022-06-26T14:49:28Z</time>
      </trkpt>
      <trkpt lat="45.75634" lon="4.79654">
        <ele>286.8</ele>
        <time>2022-06-26T14:49:29Z</time>
      </trkpt>
      <trkpt lat="45.75635" lon="4.79662">
        <ele>286.8</ele>
        <time>2022-06-26T14:49:30Z</time>
      </trkpt>
      <trkpt lat="45.75636" lon="4.7967">
        <ele>286.8</ele>
        <time>2022-06-26T14:49:31Z</time>
      </trkpt>
      <trkpt lat="45.75637" lon="4.79678">
        <ele>286.8</ele>
        <time>2022-06-26T14:49:32Z</time>
      </trkpt>
      <trkpt lat="45.75637" lon="4.79686">
        <ele>287</ele>
        <time>2022-06-26T14:49:33Z</time>
      </trkpt>
      <trkpt lat="45.75638" lon="4.79694">
        <ele>287</ele>
        <time>2022-06-26T14:49:34Z</time>
      </trkpt>
      <trkpt lat="45.75639" lon="4.79702">
        <ele>287.2</ele>
        <time>2022-06-26T14:49:35Z</time>
      </trkpt>
      <trkpt lat="45.75639" lon="4.7971">
        <ele>287.2</ele>
        <time>2022-06-26T14:49:36Z</time>
      </trkpt>
      <trkpt lat="45.75639" lon="4.79718">
        <ele>287.2</ele>
        <time>2022-06-26T14:49:37Z</time>
      </trkpt>
      <trkpt lat="45.7564" lon="4.79726">
        <ele>287.2</ele>
        <time>2022-06-26T14:49:38Z</time>
      </trkpt>
      <trkpt lat="45.7564" lon="4.79734">
        <ele>287.2</ele>
        <time>2022-06-26T14:49:39Z</time>
      </trkpt>
      <trkpt lat="45.75641" lon="4.79743">
        <ele>287.2</ele>
        <time>2022-06-26T14:49:40Z</time>
      </trkpt>
      <trkpt lat="45.75641" lon="4.79751">
        <ele>287.2</ele>
        <time>2022-06-26T14:49:41Z</time>
      </trkpt>
      <trkpt lat="45.75642" lon="4.79759">
        <ele>287.2</ele>
        <time>2022-06-26T14:49:42Z</time>
      </trkpt>
      <trkpt lat="45.75642" lon="4.79767">
        <ele>287.2</ele>
        <time>2022-06-26T14:49:43Z</time>
      </trkpt>
      <trkpt lat="45.75643" lon="4.79775">
        <ele>287.2</ele>
        <time>2022-06-26T14:49:44Z</time>
      </trkpt>
      <trkpt lat="45.75643" lon="4.79783">
        <ele>287.2</ele>
        <time>2022-06-26T14:49:45Z</time>
      </trkpt>
      <trkpt lat="45.75644" lon="4.79792">
        <ele>287.2</ele>
        <time>2022-06-26T14:49:46Z</time>
      </trkpt>
      <trkpt lat="45.75645" lon="4.798">
        <ele>287.4</ele>
        <time>2022-06-26T14:49:47Z</time>
      </trkpt>
      <trkpt lat="45.75646" lon="4.79808">
        <ele>287.4</ele>
        <time>2022-06-26T14:49:48Z</time>
      </trkpt>
      <trkpt lat="45.75646" lon="4.79816">
        <ele>287.4</ele>
        <time>2022-06-26T14:49:49Z</time>
      </trkpt>
      <trkpt lat="45.75647" lon="4.79825">
        <ele>287.4</ele>
        <time>2022-06-26T14:49:50Z</time>
      </trkpt>
      <trkpt lat="45.75648" lon="4.79833">
        <ele>287.4</ele>
        <time>2022-06-26T14:49:51Z</time>
      </trkpt>
      <trkpt lat="45.75649" lon="4.79841">
        <ele>287.4</ele>
        <time>2022-06-26T14:49:52Z</time>
      </trkpt>
      <trkpt lat="45.7565" lon="4.7985">
        <ele>287.2</ele>
        <time>2022-06-26T14:49:53Z</time>
      </trkpt>
      <trkpt lat="45.7565" lon="4.79858">
        <ele>287.2</ele>
        <time>2022-06-26T14:49:54Z</time>
      </trkpt>
      <trkpt lat="45.7565" lon="4.79867">
        <ele>287.2</ele>
        <time>2022-06-26T14:49:55Z</time>
      </trkpt>
      <trkpt lat="45.7565" lon="4.79874">
        <ele>287.2</ele>
        <time>2022-06-26T14:49:56Z</time>
      </trkpt>
      <trkpt lat="45.75651" lon="4.79882">
        <ele>287.2</ele>
        <time>2022-06-26T14:49:57Z</time>
      </trkpt>
      <trkpt lat="45.75651" lon="4.7989">
        <ele>287.2</ele>
        <time>2022-06-26T14:49:58Z</time>
      </trkpt>
      <trkpt lat="45.75652" lon="4.79898">
        <ele>287</ele>
        <time>2022-06-26T14:49:59Z</time>
      </trkpt>
      <trkpt lat="45.75652" lon="4.79906">
        <ele>287</ele>
        <time>2022-06-26T14:50:00Z</time>
      </trkpt>
      <trkpt lat="45.75652" lon="4.79913">
        <ele>287</ele>
        <time>2022-06-26T14:50:01Z</time>
      </trkpt>
      <trkpt lat="45.75652" lon="4.7992">
        <ele>287</ele>
        <time>2022-06-26T14:50:02Z</time>
      </trkpt>
      <trkpt lat="45.75652" lon="4.79927">
        <ele>287</ele>
        <time>2022-06-26T14:50:03Z</time>
      </trkpt>
      <trkpt lat="45.75651" lon="4.79936">
        <ele>286.6</ele>
        <time>2022-06-26T14:50:04Z</time>
      </trkpt>
      <trkpt lat="45.7565" lon="4.79943">
        <ele>286.6</ele>
        <time>2022-06-26T14:50:06Z</time>
      </trkpt>
      <trkpt lat="45.75649" lon="4.79951">
        <ele>286.6</ele>
        <time>2022-06-26T14:50:07Z</time>
      </trkpt>
      <trkpt lat="45.75647" lon="4.79957">
        <ele>286.6</ele>
        <time>2022-06-26T14:50:08Z</time>
      </trkpt>
      <trkpt lat="45.75645" lon="4.79963">
        <ele>286.6</ele>
        <time>2022-06-26T14:50:09Z</time>
      </trkpt>
      <trkpt lat="45.75644" lon="4.79967">
        <ele>286.6</ele>
        <time>2022-06-26T14:50:10Z</time>
      </trkpt>
      <trkpt lat="45.75643" lon="4.79972">
        <ele>286.6</ele>
        <time>2022-06-26T14:50:11Z</time>
      </trkpt>
      <trkpt lat="45.75643" lon="4.79975">
        <ele>286.6</ele>
        <time>2022-06-26T14:50:12Z</time>
      </trkpt>
      <trkpt lat="45.75642" lon="4.79978">
        <ele>286.6</ele>
        <time>2022-06-26T14:50:13Z</time>
      </trkpt>
      <trkpt lat="45.75642" lon="4.79983">
        <ele>286.6</ele>
        <time>2022-06-26T14:50:14Z</time>
      </trkpt>
      <trkpt lat="45.75641" lon="4.79989">
        <ele>286.6</ele>
        <time>2022-06-26T14:50:15Z</time>
      </trkpt>
      <trkpt lat="45.7564" lon="4.79995">
        <ele>286.6</ele>
        <time>2022-06-26T14:50:16Z</time>
      </trkpt>
      <trkpt lat="45.75639" lon="4.80001">
        <ele>286.6</ele>
        <time>2022-06-26T14:50:17Z</time>
      </trkpt>
      <trkpt lat="45.75638" lon="4.80008">
        <ele>286.6</ele>
        <time>2022-06-26T14:50:18Z</time>
      </trkpt>
      <trkpt lat="45.75636" lon="4.80015">
        <ele>286.6</ele>
        <time>2022-06-26T14:50:19Z</time>
      </trkpt>
      <trkpt lat="45.75636" lon="4.80023">
        <ele>286.6</ele>
        <time>2022-06-26T14:50:20Z</time>
      </trkpt>
      <trkpt lat="45.75634" lon="4.8003">
        <ele>286.6</ele>
        <time>2022-06-26T14:50:21Z</time>
      </trkpt>
      <trkpt lat="45.75633" lon="4.80038">
        <ele>287</ele>
        <time>2022-06-26T14:50:22Z</time>
      </trkpt>
      <trkpt lat="45.75632" lon="4.80046">
        <ele>287</ele>
        <time>2022-06-26T14:50:23Z</time>
      </trkpt>
      <trkpt lat="45.75631" lon="4.80054">
        <ele>287</ele>
        <time>2022-06-26T14:50:24Z</time>
      </trkpt>
      <trkpt lat="45.7563" lon="4.80063">
        <ele>287</ele>
        <time>2022-06-26T14:50:25Z</time>
      </trkpt>
      <trkpt lat="45.75629" lon="4.80071">
        <ele>287</ele>
        <time>2022-06-26T14:50:26Z</time>
      </trkpt>
      <trkpt lat="45.75628" lon="4.80079">
        <ele>287</ele>
        <time>2022-06-26T14:50:27Z</time>
      </trkpt>
      <trkpt lat="45.75627" lon="4.80087">
        <ele>287</ele>
        <time>2022-06-26T14:50:28Z</time>
      </trkpt>
      <trkpt lat="45.75626" lon="4.80096">
        <ele>287</ele>
        <time>2022-06-26T14:50:29Z</time>
      </trkpt>
      <trkpt lat="45.75625" lon="4.80105">
        <ele>287.2</ele>
        <time>2022-06-26T14:50:30Z</time>
      </trkpt>
      <trkpt lat="45.75624" lon="4.80114">
        <ele>287.2</ele>
        <time>2022-06-26T14:50:31Z</time>
      </trkpt>
      <trkpt lat="45.75623" lon="4.80123">
        <ele>287.2</ele>
        <time>2022-06-26T14:50:32Z</time>
      </trkpt>
      <trkpt lat="45.75623" lon="4.80132">
        <ele>287.6</ele>
        <time>2022-06-26T14:50:33Z</time>
      </trkpt>
      <trkpt lat="45.75622" lon="4.80142">
        <ele>287.6</ele>
        <time>2022-06-26T14:50:34Z</time>
      </trkpt>
      <trkpt lat="45.75622" lon="4.80151">
        <ele>287.6</ele>
        <time>2022-06-26T14:50:35Z</time>
      </trkpt>
      <trkpt lat="45.75622" lon="4.80161">
        <ele>287.8</ele>
        <time>2022-06-26T14:50:36Z</time>
      </trkpt>
      <trkpt lat="45.75622" lon="4.8017">
        <ele>287.8</ele>
        <time>2022-06-26T14:50:37Z</time>
      </trkpt>
      <trkpt lat="45.75623" lon="4.8018">
        <ele>288</ele>
        <time>2022-06-26T14:50:38Z</time>
      </trkpt>
      <trkpt lat="45.75623" lon="4.8019">
        <ele>288</ele>
        <time>2022-06-26T14:50:39Z</time>
      </trkpt>
      <trkpt lat="45.75623" lon="4.802">
        <ele>288.4</ele>
        <time>2022-06-26T14:50:40Z</time>
      </trkpt>
      <trkpt lat="45.75623" lon="4.80209">
        <ele>288.4</ele>
        <time>2022-06-26T14:50:41Z</time>
      </trkpt>
      <trkpt lat="45.75624" lon="4.80219">
        <ele>288.6</ele>
        <time>2022-06-26T14:50:42Z</time>
      </trkpt>
      <trkpt lat="45.75624" lon="4.80229">
        <ele>288.6</ele>
        <time>2022-06-26T14:50:43Z</time>
      </trkpt>
      <trkpt lat="45.75625" lon="4.80238">
        <ele>289</ele>
        <time>2022-06-26T14:50:44Z</time>
      </trkpt>
      <trkpt lat="45.75625" lon="4.80248">
        <ele>289.2</ele>
        <time>2022-06-26T14:50:45Z</time>
      </trkpt>
      <trkpt lat="45.75626" lon="4.80257">
        <ele>289.4</ele>
        <time>2022-06-26T14:50:46Z</time>
      </trkpt>
      <trkpt lat="45.75626" lon="4.80267">
        <ele>289.8</ele>
        <time>2022-06-26T14:50:47Z</time>
      </trkpt>
      <trkpt lat="45.75626" lon="4.80276">
        <ele>289.8</ele>
        <time>2022-06-26T14:50:48Z</time>
      </trkpt>
      <trkpt lat="45.75627" lon="4.80285">
        <ele>290.2</ele>
        <time>2022-06-26T14:50:49Z</time>
      </trkpt>
      <trkpt lat="45.75627" lon="4.80295">
        <ele>290.4</ele>
        <time>2022-06-26T14:50:50Z</time>
      </trkpt>
      <trkpt lat="45.75627" lon="4.80304">
        <ele>290.6</ele>
        <time>2022-06-26T14:50:51Z</time>
      </trkpt>
      <trkpt lat="45.75628" lon="4.80312">
        <ele>290.6</ele>
        <time>2022-06-26T14:50:52Z</time>
      </trkpt>
      <trkpt lat="45.75629" lon="4.80329">
        <ele>291</ele>
        <time>2022-06-26T14:50:53Z</time>
      </trkpt>
      <trkpt lat="45.7563" lon="4.80337">
        <ele>291</ele>
        <time>2022-06-26T14:50:54Z</time>
      </trkpt>
      <trkpt lat="45.7563" lon="4.80344">
        <ele>291.4</ele>
        <time>2022-06-26T14:50:55Z</time>
      </trkpt>
      <trkpt lat="45.75631" lon="4.80352">
        <ele>291.6</ele>
        <time>2022-06-26T14:50:56Z</time>
      </trkpt>
      <trkpt lat="45.75631" lon="4.8036">
        <ele>291.8</ele>
        <time>2022-06-26T14:50:57Z</time>
      </trkpt>
      <trkpt lat="45.75631" lon="4.80368">
        <ele>291.8</ele>
        <time>2022-06-26T14:50:58Z</time>
      </trkpt>
      <trkpt lat="45.7563" lon="4.80376">
        <ele>292</ele>
        <time>2022-06-26T14:50:59Z</time>
      </trkpt>
      <trkpt lat="45.7563" lon="4.80384">
        <ele>292</ele>
        <time>2022-06-26T14:51:00Z</time>
      </trkpt>
      <trkpt lat="45.75629" lon="4.80392">
        <ele>292</ele>
        <time>2022-06-26T14:51:01Z</time>
      </trkpt>
      <trkpt lat="45.75628" lon="4.80401">
        <ele>292</ele>
        <time>2022-06-26T14:51:02Z</time>
      </trkpt>
      <trkpt lat="45.75628" lon="4.8041">
        <ele>292</ele>
        <time>2022-06-26T14:51:03Z</time>
      </trkpt>
      <trkpt lat="45.75626" lon="4.80419">
        <ele>292</ele>
        <time>2022-06-26T14:51:04Z</time>
      </trkpt>
      <trkpt lat="45.75625" lon="4.80428">
        <ele>292</ele>
        <time>2022-06-26T14:51:05Z</time>
      </trkpt>
      <trkpt lat="45.75624" lon="4.80437">
        <ele>292</ele>
        <time>2022-06-26T14:51:06Z</time>
      </trkpt>
      <trkpt lat="45.75622" lon="4.80446">
        <ele>292</ele>
        <time>2022-06-26T14:51:07Z</time>
      </trkpt>
      <trkpt lat="45.75621" lon="4.80456">
        <ele>292</ele>
        <time>2022-06-26T14:51:08Z</time>
      </trkpt>
      <trkpt lat="45.75619" lon="4.80465">
        <ele>292</ele>
        <time>2022-06-26T14:51:09Z</time>
      </trkpt>
      <trkpt lat="45.75619" lon="4.80475">
        <ele>292</ele>
        <time>2022-06-26T14:51:10Z</time>
      </trkpt>
      <trkpt lat="45.75618" lon="4.80485">
        <ele>291.8</ele>
        <time>2022-06-26T14:51:11Z</time>
      </trkpt>
      <trkpt lat="45.75618" lon="4.80494">
        <ele>291.8</ele>
        <time>2022-06-26T14:51:12Z</time>
      </trkpt>
      <trkpt lat="45.75618" lon="4.80504">
        <ele>291.8</ele>
        <time>2022-06-26T14:51:13Z</time>
      </trkpt>
      <trkpt lat="45.75618" lon="4.80513">
        <ele>291.6</ele>
        <time>2022-06-26T14:51:14Z</time>
      </trkpt>
      <trkpt lat="45.75619" lon="4.80522">
        <ele>291.6</ele>
        <time>2022-06-26T14:51:15Z</time>
      </trkpt>
      <trkpt lat="45.75619" lon="4.8053">
        <ele>291.4</ele>
        <time>2022-06-26T14:51:16Z</time>
      </trkpt>
      <trkpt lat="45.75619" lon="4.80536">
        <ele>291.4</ele>
        <time>2022-06-26T14:51:17Z</time>
      </trkpt>
      <trkpt lat="45.75619" lon="4.80542">
        <ele>291.2</ele>
        <time>2022-06-26T14:51:18Z</time>
      </trkpt>
      <trkpt lat="45.75619" lon="4.80547">
        <ele>291.2</ele>
        <time>2022-06-26T14:51:19Z</time>
      </trkpt>
      <trkpt lat="45.75619" lon="4.80553">
        <ele>291</ele>
        <time>2022-06-26T14:51:20Z</time>
      </trkpt>
      <trkpt lat="45.75619" lon="4.80559">
        <ele>291</ele>
        <time>2022-06-26T14:51:21Z</time>
      </trkpt>
      <trkpt lat="45.75619" lon="4.80565">
        <ele>290.6</ele>
        <time>2022-06-26T14:51:22Z</time>
      </trkpt>
      <trkpt lat="45.75618" lon="4.80571">
        <ele>290.6</ele>
        <time>2022-06-26T14:51:23Z</time>
      </trkpt>
      <trkpt lat="45.75618" lon="4.80577">
        <ele>290.6</ele>
        <time>2022-06-26T14:51:24Z</time>
      </trkpt>
      <trkpt lat="45.75619" lon="4.80582">
        <ele>290.6</ele>
        <time>2022-06-26T14:51:25Z</time>
      </trkpt>
      <trkpt lat="45.75621" lon="4.80587">
        <ele>290.6</ele>
        <time>2022-06-26T14:51:26Z</time>
      </trkpt>
      <trkpt lat="45.75624" lon="4.80591">
        <ele>290.4</ele>
        <time>2022-06-26T14:51:27Z</time>
      </trkpt>
      <trkpt lat="45.75629" lon="4.80594">
        <ele>290.4</ele>
        <time>2022-06-26T14:51:28Z</time>
      </trkpt>
      <trkpt lat="45.75633" lon="4.80596">
        <ele>290.2</ele>
        <time>2022-06-26T14:51:29Z</time>
      </trkpt>
      <trkpt lat="45.75638" lon="4.806">
        <ele>290.2</ele>
        <time>2022-06-26T14:51:30Z</time>
      </trkpt>
      <trkpt lat="45.75642" lon="4.80605">
        <ele>289.8</ele>
        <time>2022-06-26T14:51:31Z</time>
      </trkpt>
      <trkpt lat="45.75646" lon="4.80612">
        <ele>289.6</ele>
        <time>2022-06-26T14:51:32Z</time>
      </trkpt>
      <trkpt lat="45.75649" lon="4.8062">
        <ele>289.2</ele>
        <time>2022-06-26T14:51:33Z</time>
      </trkpt>
      <trkpt lat="45.75651" lon="4.80629">
        <ele>289</ele>
        <time>2022-06-26T14:51:34Z</time>
      </trkpt>
      <trkpt lat="45.75652" lon="4.8064">
        <ele>288.6</ele>
        <time>2022-06-26T14:51:35Z</time>
      </trkpt>
      <trkpt lat="45.75654" lon="4.80651">
        <ele>288.2</ele>
        <time>2022-06-26T14:51:36Z</time>
      </trkpt>
      <trkpt lat="45.75655" lon="4.80662">
        <ele>287.8</ele>
        <time>2022-06-26T14:51:37Z</time>
      </trkpt>
      <trkpt lat="45.75657" lon="4.80674">
        <ele>287.4</ele>
        <time>2022-06-26T14:51:38Z</time>
      </trkpt>
      <trkpt lat="45.75658" lon="4.80686">
        <ele>287</ele>
        <time>2022-06-26T14:51:39Z</time>
      </trkpt>
      <trkpt lat="45.7566" lon="4.80699">
        <ele>286.4</ele>
        <time>2022-06-26T14:51:40Z</time>
      </trkpt>
      <trkpt lat="45.75661" lon="4.80715">
        <ele>286</ele>
        <time>2022-06-26T14:51:41Z</time>
      </trkpt>
      <trkpt lat="45.75663" lon="4.8073">
        <ele>285.4</ele>
        <time>2022-06-26T14:51:42Z</time>
      </trkpt>
      <trkpt lat="45.75664" lon="4.80745">
        <ele>285</ele>
        <time>2022-06-26T14:51:43Z</time>
      </trkpt>
      <trkpt lat="45.75665" lon="4.80759">
        <ele>284.4</ele>
        <time>2022-06-26T14:51:44Z</time>
      </trkpt>
      <trkpt lat="45.75667" lon="4.80774">
        <ele>284</ele>
        <time>2022-06-26T14:51:45Z</time>
      </trkpt>
      <trkpt lat="45.75668" lon="4.80788">
        <ele>283.4</ele>
        <time>2022-06-26T14:51:46Z</time>
      </trkpt>
      <trkpt lat="45.7567" lon="4.80802">
        <ele>283</ele>
        <time>2022-06-26T14:51:47Z</time>
      </trkpt>
      <trkpt lat="45.75671" lon="4.80816">
        <ele>282.2</ele>
        <time>2022-06-26T14:51:48Z</time>
      </trkpt>
      <trkpt lat="45.75673" lon="4.8083">
        <ele>281.8</ele>
        <time>2022-06-26T14:51:49Z</time>
      </trkpt>
      <trkpt lat="45.75675" lon="4.80843">
        <ele>281.2</ele>
        <time>2022-06-26T14:51:50Z</time>
      </trkpt>
      <trkpt lat="45.75677" lon="4.80857">
        <ele>280.8</ele>
        <time>2022-06-26T14:51:51Z</time>
      </trkpt>
      <trkpt lat="45.75679" lon="4.80871">
        <ele>280</ele>
        <time>2022-06-26T14:51:52Z</time>
      </trkpt>
      <trkpt lat="45.75683" lon="4.80884">
        <ele>279.6</ele>
        <time>2022-06-26T14:51:53Z</time>
      </trkpt>
      <trkpt lat="45.75687" lon="4.80896">
        <ele>279.4</ele>
        <time>2022-06-26T14:51:54Z</time>
      </trkpt>
      <trkpt lat="45.7569" lon="4.80909">
        <ele>279</ele>
        <time>2022-06-26T14:51:55Z</time>
      </trkpt>
      <trkpt lat="45.75694" lon="4.80922">
        <ele>278.8</ele>
        <time>2022-06-26T14:51:56Z</time>
      </trkpt>
      <trkpt lat="45.75698" lon="4.80935">
        <ele>278.6</ele>
        <time>2022-06-26T14:51:57Z</time>
      </trkpt>
      <trkpt lat="45.757" lon="4.80947">
        <ele>278.2</ele>
        <time>2022-06-26T14:51:58Z</time>
      </trkpt>
      <trkpt lat="45.75703" lon="4.80959">
        <ele>278.2</ele>
        <time>2022-06-26T14:51:59Z</time>
      </trkpt>
      <trkpt lat="45.75705" lon="4.80973">
        <ele>278</ele>
        <time>2022-06-26T14:52:00Z</time>
      </trkpt>
      <trkpt lat="45.75708" lon="4.80985">
        <ele>278</ele>
        <time>2022-06-26T14:52:01Z</time>
      </trkpt>
      <trkpt lat="45.75709" lon="4.80996">
        <ele>277.6</ele>
        <time>2022-06-26T14:52:02Z</time>
      </trkpt>
      <trkpt lat="45.7571" lon="4.81007">
        <ele>277.6</ele>
        <time>2022-06-26T14:52:03Z</time>
      </trkpt>
      <trkpt lat="45.75711" lon="4.81018">
        <ele>277.4</ele>
        <time>2022-06-26T14:52:04Z</time>
      </trkpt>
      <trkpt lat="45.75711" lon="4.81027">
        <ele>277.4</ele>
        <time>2022-06-26T14:52:05Z</time>
      </trkpt>
      <trkpt lat="45.75712" lon="4.81035">
        <ele>277.4</ele>
        <time>2022-06-26T14:52:06Z</time>
      </trkpt>
      <trkpt lat="45.75711" lon="4.81044">
        <ele>277.4</ele>
        <time>2022-06-26T14:52:07Z</time>
      </trkpt>
      <trkpt lat="45.75709" lon="4.81053">
        <ele>277.4</ele>
        <time>2022-06-26T14:52:08Z</time>
      </trkpt>
      <trkpt lat="45.75708" lon="4.81061">
        <ele>277.4</ele>
        <time>2022-06-26T14:52:09Z</time>
      </trkpt>
      <trkpt lat="45.75707" lon="4.8107">
        <ele>277.4</ele>
        <time>2022-06-26T14:52:10Z</time>
      </trkpt>
      <trkpt lat="45.75705" lon="4.81079">
        <ele>277.4</ele>
        <time>2022-06-26T14:52:11Z</time>
      </trkpt>
      <trkpt lat="45.75703" lon="4.81088">
        <ele>277.2</ele>
        <time>2022-06-26T14:52:12Z</time>
      </trkpt>
      <trkpt lat="45.75701" lon="4.81097">
        <ele>277.2</ele>
        <time>2022-06-26T14:52:13Z</time>
      </trkpt>
      <trkpt lat="45.75699" lon="4.81106">
        <ele>277.2</ele>
        <time>2022-06-26T14:52:14Z</time>
      </trkpt>
      <trkpt lat="45.75697" lon="4.81114">
        <ele>277.2</ele>
        <time>2022-06-26T14:52:15Z</time>
      </trkpt>
      <trkpt lat="45.75695" lon="4.81123">
        <ele>277.2</ele>
        <time>2022-06-26T14:52:16Z</time>
      </trkpt>
      <trkpt lat="45.75693" lon="4.81131">
        <ele>277.2</ele>
        <time>2022-06-26T14:52:17Z</time>
      </trkpt>
      <trkpt lat="45.75691" lon="4.81139">
        <ele>277</ele>
        <time>2022-06-26T14:52:18Z</time>
      </trkpt>
      <trkpt lat="45.75688" lon="4.81147">
        <ele>277</ele>
        <time>2022-06-26T14:52:19Z</time>
      </trkpt>
      <trkpt lat="45.75687" lon="4.81155">
        <ele>277</ele>
        <time>2022-06-26T14:52:20Z</time>
      </trkpt>
      <trkpt lat="45.75684" lon="4.81163">
        <ele>277</ele>
        <time>2022-06-26T14:52:21Z</time>
      </trkpt>
      <trkpt lat="45.75682" lon="4.81171">
        <ele>277</ele>
        <time>2022-06-26T14:52:22Z</time>
      </trkpt>
      <trkpt lat="45.7568" lon="4.81179">
        <ele>277.2</ele>
        <time>2022-06-26T14:52:23Z</time>
      </trkpt>
      <trkpt lat="45.75678" lon="4.81187">
        <ele>277.2</ele>
        <time>2022-06-26T14:52:24Z</time>
      </trkpt>
      <trkpt lat="45.75676" lon="4.81195">
        <ele>277.2</ele>
        <time>2022-06-26T14:52:25Z</time>
      </trkpt>
      <trkpt lat="45.75674" lon="4.81202">
        <ele>277.4</ele>
        <time>2022-06-26T14:52:26Z</time>
      </trkpt>
      <trkpt lat="45.75673" lon="4.81209">
        <ele>277.4</ele>
        <time>2022-06-26T14:52:27Z</time>
      </trkpt>
      <trkpt lat="45.75672" lon="4.81216">
        <ele>277.4</ele>
        <time>2022-06-26T14:52:28Z</time>
      </trkpt>
      <trkpt lat="45.75671" lon="4.81222">
        <ele>277.4</ele>
        <time>2022-06-26T14:52:29Z</time>
      </trkpt>
      <trkpt lat="45.75672" lon="4.81228">
        <ele>277.4</ele>
        <time>2022-06-26T14:52:30Z</time>
      </trkpt>
      <trkpt lat="45.75675" lon="4.81234">
        <ele>277.4</ele>
        <time>2022-06-26T14:52:31Z</time>
      </trkpt>
      <trkpt lat="45.7568" lon="4.81237">
        <ele>277.4</ele>
        <time>2022-06-26T14:52:32Z</time>
      </trkpt>
      <trkpt lat="45.75684" lon="4.8124">
        <ele>277.6</ele>
        <time>2022-06-26T14:52:33Z</time>
      </trkpt>
      <trkpt lat="45.7569" lon="4.81243">
        <ele>277.6</ele>
        <time>2022-06-26T14:52:34Z</time>
      </trkpt>
      <trkpt lat="45.75696" lon="4.81246">
        <ele>277.6</ele>
        <time>2022-06-26T14:52:35Z</time>
      </trkpt>
      <trkpt lat="45.75701" lon="4.81251">
        <ele>277.6</ele>
        <time>2022-06-26T14:52:36Z</time>
      </trkpt>
      <trkpt lat="45.75707" lon="4.81256">
        <ele>277.6</ele>
        <time>2022-06-26T14:52:37Z</time>
      </trkpt>
      <trkpt lat="45.75713" lon="4.8126">
        <ele>277.6</ele>
        <time>2022-06-26T14:52:38Z</time>
      </trkpt>
      <trkpt lat="45.75719" lon="4.81263">
        <ele>277.6</ele>
        <time>2022-06-26T14:52:39Z</time>
      </trkpt>
      <trkpt lat="45.75725" lon="4.81267">
        <ele>277.6</ele>
        <time>2022-06-26T14:52:40Z</time>
      </trkpt>
      <trkpt lat="45.75731" lon="4.8127">
        <ele>277.6</ele>
        <time>2022-06-26T14:52:41Z</time>
      </trkpt>
      <trkpt lat="45.75737" lon="4.81273">
        <ele>277.6</ele>
        <time>2022-06-26T14:52:42Z</time>
      </trkpt>
      <trkpt lat="45.75742" lon="4.81277">
        <ele>277.6</ele>
        <time>2022-06-26T14:52:43Z</time>
      </trkpt>
      <trkpt lat="45.75748" lon="4.8128">
        <ele>277.6</ele>
        <time>2022-06-26T14:52:44Z</time>
      </trkpt>
      <trkpt lat="45.75753" lon="4.81284">
        <ele>278</ele>
        <time>2022-06-26T14:52:45Z</time>
      </trkpt>
      <trkpt lat="45.75759" lon="4.81287">
        <ele>278</ele>
        <time>2022-06-26T14:52:46Z</time>
      </trkpt>
      <trkpt lat="45.75764" lon="4.8129">
        <ele>278</ele>
        <time>2022-06-26T14:52:47Z</time>
      </trkpt>
      <trkpt lat="45.75769" lon="4.81292">
        <ele>278.2</ele>
        <time>2022-06-26T14:52:48Z</time>
      </trkpt>
      <trkpt lat="45.75774" lon="4.81295">
        <ele>278.2</ele>
        <time>2022-06-26T14:52:49Z</time>
      </trkpt>
      <trkpt lat="45.75779" lon="4.81298">
        <ele>278.2</ele>
        <time>2022-06-26T14:52:50Z</time>
      </trkpt>
      <trkpt lat="45.75784" lon="4.81301">
        <ele>278.4</ele>
        <time>2022-06-26T14:52:51Z</time>
      </trkpt>
      <trkpt lat="45.75788" lon="4.81304">
        <ele>278.4</ele>
        <time>2022-06-26T14:52:52Z</time>
      </trkpt>
      <trkpt lat="45.75793" lon="4.81308">
        <ele>278.6</ele>
        <time>2022-06-26T14:52:53Z</time>
      </trkpt>
      <trkpt lat="45.75797" lon="4.81311">
        <ele>278.6</ele>
        <time>2022-06-26T14:52:54Z</time>
      </trkpt>
      <trkpt lat="45.758" lon="4.81316">
        <ele>279</ele>
        <time>2022-06-26T14:52:55Z</time>
      </trkpt>
      <trkpt lat="45.75801" lon="4.81321">
        <ele>279.2</ele>
        <time>2022-06-26T14:52:56Z</time>
      </trkpt>
      <trkpt lat="45.75801" lon="4.81326">
        <ele>279.2</ele>
        <time>2022-06-26T14:52:57Z</time>
      </trkpt>
      <trkpt lat="45.758" lon="4.8133">
        <ele>279.6</ele>
        <time>2022-06-26T14:52:58Z</time>
      </trkpt>
      <trkpt lat="45.75799" lon="4.81334">
        <ele>279.6</ele>
        <time>2022-06-26T14:52:59Z</time>
      </trkpt>
      <trkpt lat="45.75796" lon="4.81337">
        <ele>279.8</ele>
        <time>2022-06-26T14:53:00Z</time>
      </trkpt>
      <trkpt lat="45.75794" lon="4.81341">
        <ele>279.8</ele>
        <time>2022-06-26T14:53:01Z</time>
      </trkpt>
      <trkpt lat="45.75792" lon="4.81344">
        <ele>280</ele>
        <time>2022-06-26T14:53:02Z</time>
      </trkpt>
      <trkpt lat="45.7579" lon="4.81347">
        <ele>280</ele>
        <time>2022-06-26T14:53:03Z</time>
      </trkpt>
      <trkpt lat="45.75787" lon="4.8135">
        <ele>280</ele>
        <time>2022-06-26T14:53:04Z</time>
      </trkpt>
      <trkpt lat="45.75785" lon="4.81353">
        <ele>280</ele>
        <time>2022-06-26T14:53:05Z</time>
      </trkpt>
      <trkpt lat="45.75782" lon="4.81357">
        <ele>280</ele>
        <time>2022-06-26T14:53:06Z</time>
      </trkpt>
      <trkpt lat="45.75779" lon="4.8136">
        <ele>280</ele>
        <time>2022-06-26T14:53:07Z</time>
      </trkpt>
      <trkpt lat="45.75777" lon="4.81365">
        <ele>280</ele>
        <time>2022-06-26T14:53:08Z</time>
      </trkpt>
      <trkpt lat="45.75773" lon="4.81369">
        <ele>280</ele>
        <time>2022-06-26T14:53:09Z</time>
      </trkpt>
      <trkpt lat="45.7577" lon="4.81373">
        <ele>280</ele>
        <time>2022-06-26T14:53:10Z</time>
      </trkpt>
      <trkpt lat="45.75767" lon="4.81376">
        <ele>279.8</ele>
        <time>2022-06-26T14:53:11Z</time>
      </trkpt>
      <trkpt lat="45.75764" lon="4.81379">
        <ele>279.8</ele>
        <time>2022-06-26T14:53:12Z</time>
      </trkpt>
      <trkpt lat="45.75762" lon="4.81383">
        <ele>279.6</ele>
        <time>2022-06-26T14:53:13Z</time>
      </trkpt>
      <trkpt lat="45.75759" lon="4.81387">
        <ele>279.6</ele>
        <time>2022-06-26T14:53:14Z</time>
      </trkpt>
      <trkpt lat="45.75755" lon="4.81391">
        <ele>279.6</ele>
        <time>2022-06-26T14:53:15Z</time>
      </trkpt>
      <trkpt lat="45.75752" lon="4.81395">
        <ele>279.4</ele>
        <time>2022-06-26T14:53:16Z</time>
      </trkpt>
      <trkpt lat="45.75748" lon="4.81399">
        <ele>279.4</ele>
        <time>2022-06-26T14:53:17Z</time>
      </trkpt>
      <trkpt lat="45.75743" lon="4.81403">
        <ele>279.2</ele>
        <time>2022-06-26T14:53:18Z</time>
      </trkpt>
      <trkpt lat="45.75739" lon="4.81408">
        <ele>279.2</ele>
        <time>2022-06-26T14:53:19Z</time>
      </trkpt>
      <trkpt lat="45.75734" lon="4.81412">
        <ele>278.8</ele>
        <time>2022-06-26T14:53:20Z</time>
      </trkpt>
      <trkpt lat="45.75729" lon="4.81417">
        <ele>278.6</ele>
        <time>2022-06-26T14:53:21Z</time>
      </trkpt>
      <trkpt lat="45.75725" lon="4.81422">
        <ele>278.4</ele>
        <time>2022-06-26T14:53:22Z</time>
      </trkpt>
      <trkpt lat="45.7572" lon="4.81427">
        <ele>278.4</ele>
        <time>2022-06-26T14:53:23Z</time>
      </trkpt>
      <trkpt lat="45.75715" lon="4.81433">
        <ele>278</ele>
        <time>2022-06-26T14:53:24Z</time>
      </trkpt>
      <trkpt lat="45.7571" lon="4.81438">
        <ele>277.8</ele>
        <time>2022-06-26T14:53:25Z</time>
      </trkpt>
      <trkpt lat="45.75705" lon="4.81444">
        <ele>277.4</ele>
        <time>2022-06-26T14:53:26Z</time>
      </trkpt>
      <trkpt lat="45.757" lon="4.8145">
        <ele>277.2</ele>
        <time>2022-06-26T14:53:27Z</time>
      </trkpt>
      <trkpt lat="45.75695" lon="4.81456">
        <ele>277.2</ele>
        <time>2022-06-26T14:53:28Z</time>
      </trkpt>
      <trkpt lat="45.75689" lon="4.81462">
        <ele>277</ele>
        <time>2022-06-26T14:53:29Z</time>
      </trkpt>
      <trkpt lat="45.75683" lon="4.81468">
        <ele>276.6</ele>
        <time>2022-06-26T14:53:30Z</time>
      </trkpt>
      <trkpt lat="45.75678" lon="4.81474">
        <ele>276.6</ele>
        <time>2022-06-26T14:53:31Z</time>
      </trkpt>
      <trkpt lat="45.75672" lon="4.8148">
        <ele>276.4</ele>
        <time>2022-06-26T14:53:32Z</time>
      </trkpt>
      <trkpt lat="45.75666" lon="4.81487">
        <ele>276.4</ele>
        <time>2022-06-26T14:53:33Z</time>
      </trkpt>
      <trkpt lat="45.75661" lon="4.81493">
        <ele>276</ele>
        <time>2022-06-26T14:53:34Z</time>
      </trkpt>
      <trkpt lat="45.75655" lon="4.815">
        <ele>276</ele>
        <time>2022-06-26T14:53:35Z</time>
      </trkpt>
      <trkpt lat="45.75649" lon="4.81505">
        <ele>275.6</ele>
        <time>2022-06-26T14:53:36Z</time>
      </trkpt>
      <trkpt lat="45.75643" lon="4.81511">
        <ele>275.6</ele>
        <time>2022-06-26T14:53:37Z</time>
      </trkpt>
      <trkpt lat="45.75638" lon="4.81516">
        <ele>275.4</ele>
        <time>2022-06-26T14:53:38Z</time>
      </trkpt>
      <trkpt lat="45.75634" lon="4.81521">
        <ele>275.4</ele>
        <time>2022-06-26T14:53:39Z</time>
      </trkpt>
      <trkpt lat="45.7563" lon="4.81525">
        <ele>275</ele>
        <time>2022-06-26T14:53:40Z</time>
      </trkpt>
      <trkpt lat="45.75626" lon="4.8153">
        <ele>275</ele>
        <time>2022-06-26T14:53:41Z</time>
      </trkpt>
      <trkpt lat="45.75622" lon="4.81534">
        <ele>275</ele>
        <time>2022-06-26T14:53:42Z</time>
      </trkpt>
      <trkpt lat="45.75618" lon="4.81538">
        <ele>275</ele>
        <time>2022-06-26T14:53:43Z</time>
      </trkpt>
      <trkpt lat="45.75614" lon="4.81543">
        <ele>275</ele>
        <time>2022-06-26T14:53:44Z</time>
      </trkpt>
      <trkpt lat="45.75609" lon="4.81549">
        <ele>274.8</ele>
        <time>2022-06-26T14:53:45Z</time>
      </trkpt>
      <trkpt lat="45.75605" lon="4.81554">
        <ele>274.4</ele>
        <time>2022-06-26T14:53:46Z</time>
      </trkpt>
      <trkpt lat="45.75601" lon="4.81558">
        <ele>274.2</ele>
        <time>2022-06-26T14:53:47Z</time>
      </trkpt>
      <trkpt lat="45.75598" lon="4.81562">
        <ele>273.8</ele>
        <time>2022-06-26T14:53:48Z</time>
      </trkpt>
      <trkpt lat="45.75594" lon="4.81566">
        <ele>273.6</ele>
        <time>2022-06-26T14:53:49Z</time>
      </trkpt>
      <trkpt lat="45.7559" lon="4.8157">
        <ele>273.2</ele>
        <time>2022-06-26T14:53:50Z</time>
      </trkpt>
      <trkpt lat="45.75586" lon="4.81575">
        <ele>273</ele>
        <time>2022-06-26T14:53:51Z</time>
      </trkpt>
      <trkpt lat="45.75583" lon="4.81579">
        <ele>272.8</ele>
        <time>2022-06-26T14:53:52Z</time>
      </trkpt>
      <trkpt lat="45.75579" lon="4.81583">
        <ele>272.4</ele>
        <time>2022-06-26T14:53:53Z</time>
      </trkpt>
      <trkpt lat="45.75577" lon="4.81588">
        <ele>272</ele>
        <time>2022-06-26T14:53:54Z</time>
      </trkpt>
      <trkpt lat="45.75577" lon="4.81594">
        <ele>271.8</ele>
        <time>2022-06-26T14:53:55Z</time>
      </trkpt>
      <trkpt lat="45.75577" lon="4.81599">
        <ele>271.8</ele>
        <time>2022-06-26T14:53:56Z</time>
      </trkpt>
      <trkpt lat="45.75578" lon="4.81605">
        <ele>271.4</ele>
        <time>2022-06-26T14:53:57Z</time>
      </trkpt>
      <trkpt lat="45.7558" lon="4.81612">
        <ele>271.4</ele>
        <time>2022-06-26T14:53:58Z</time>
      </trkpt>
      <trkpt lat="45.75582" lon="4.81618">
        <ele>271.2</ele>
        <time>2022-06-26T14:53:59Z</time>
      </trkpt>
      <trkpt lat="45.75584" lon="4.81625">
        <ele>271.2</ele>
        <time>2022-06-26T14:54:00Z</time>
      </trkpt>
      <trkpt lat="45.75586" lon="4.81632">
        <ele>271</ele>
        <time>2022-06-26T14:54:01Z</time>
      </trkpt>
      <trkpt lat="45.75588" lon="4.8164">
        <ele>271</ele>
        <time>2022-06-26T14:54:02Z</time>
      </trkpt>
      <trkpt lat="45.7559" lon="4.81647">
        <ele>271</ele>
        <time>2022-06-26T14:54:03Z</time>
      </trkpt>
      <trkpt lat="45.75592" lon="4.81654">
        <ele>271</ele>
        <time>2022-06-26T14:54:04Z</time>
      </trkpt>
      <trkpt lat="45.75595" lon="4.81661">
        <ele>271</ele>
        <time>2022-06-26T14:54:05Z</time>
      </trkpt>
      <trkpt lat="45.75597" lon="4.81667">
        <ele>271</ele>
        <time>2022-06-26T14:54:06Z</time>
      </trkpt>
      <trkpt lat="45.75599" lon="4.81674">
        <ele>271</ele>
        <time>2022-06-26T14:54:07Z</time>
      </trkpt>
      <trkpt lat="45.75601" lon="4.81682">
        <ele>271</ele>
        <time>2022-06-26T14:54:08Z</time>
      </trkpt>
      <trkpt lat="45.75604" lon="4.81689">
        <ele>270.8</ele>
        <time>2022-06-26T14:54:09Z</time>
      </trkpt>
      <trkpt lat="45.75606" lon="4.81696">
        <ele>270.8</ele>
        <time>2022-06-26T14:54:10Z</time>
      </trkpt>
      <trkpt lat="45.75608" lon="4.81702">
        <ele>270.8</ele>
        <time>2022-06-26T14:54:11Z</time>
      </trkpt>
      <trkpt lat="45.7561" lon="4.81707">
        <ele>270.8</ele>
        <time>2022-06-26T14:54:12Z</time>
      </trkpt>
      <trkpt lat="45.75611" lon="4.81712">
        <ele>271</ele>
        <time>2022-06-26T14:54:13Z</time>
      </trkpt>
      <trkpt lat="45.75613" lon="4.81717">
        <ele>271</ele>
        <time>2022-06-26T14:54:14Z</time>
      </trkpt>
      <trkpt lat="45.75614" lon="4.81721">
        <ele>271</ele>
        <time>2022-06-26T14:54:15Z</time>
      </trkpt>
      <trkpt lat="45.75616" lon="4.81727">
        <ele>271.2</ele>
        <time>2022-06-26T14:54:16Z</time>
      </trkpt>
      <trkpt lat="45.75618" lon="4.81731">
        <ele>271.2</ele>
        <time>2022-06-26T14:54:17Z</time>
      </trkpt>
      <trkpt lat="45.75619" lon="4.81735">
        <ele>271.6</ele>
        <time>2022-06-26T14:54:18Z</time>
      </trkpt>
      <trkpt lat="45.75621" lon="4.81739">
        <ele>271.8</ele>
        <time>2022-06-26T14:54:19Z</time>
      </trkpt>
      <trkpt lat="45.75622" lon="4.81742">
        <ele>272</ele>
        <time>2022-06-26T14:54:20Z</time>
      </trkpt>
      <trkpt lat="45.75623" lon="4.81746">
        <ele>272.4</ele>
        <time>2022-06-26T14:54:21Z</time>
      </trkpt>
      <trkpt lat="45.75623" lon="4.81748">
        <ele>272.6</ele>
        <time>2022-06-26T14:54:22Z</time>
      </trkpt>
      <trkpt lat="45.75624" lon="4.81751">
        <ele>272.8</ele>
        <time>2022-06-26T14:54:23Z</time>
      </trkpt>
      <trkpt lat="45.75624" lon="4.81754">
        <ele>272.8</ele>
        <time>2022-06-26T14:54:24Z</time>
      </trkpt>
      <trkpt lat="45.75624" lon="4.81756">
        <ele>273.2</ele>
        <time>2022-06-26T14:54:25Z</time>
      </trkpt>
      <trkpt lat="45.75624" lon="4.81759">
        <ele>273.2</ele>
        <time>2022-06-26T14:54:26Z</time>
      </trkpt>
      <trkpt lat="45.75623" lon="4.81762">
        <ele>273.2</ele>
        <time>2022-06-26T14:54:27Z</time>
      </trkpt>
      <trkpt lat="45.75623" lon="4.81766">
        <ele>273.2</ele>
        <time>2022-06-26T14:54:28Z</time>
      </trkpt>
      <trkpt lat="45.75622" lon="4.8177">
        <ele>273.2</ele>
        <time>2022-06-26T14:54:29Z</time>
      </trkpt>
      <trkpt lat="45.75622" lon="4.81775">
        <ele>273.2</ele>
        <time>2022-06-26T14:54:30Z</time>
      </trkpt>
      <trkpt lat="45.75621" lon="4.8178">
        <ele>273</ele>
        <time>2022-06-26T14:54:32Z</time>
      </trkpt>
      <trkpt lat="45.7562" lon="4.81784">
        <ele>273</ele>
        <time>2022-06-26T14:54:33Z</time>
      </trkpt>
      <trkpt lat="45.75619" lon="4.81788">
        <ele>272.8</ele>
        <time>2022-06-26T14:54:34Z</time>
      </trkpt>
      <trkpt lat="45.75619" lon="4.81792">
        <ele>272.4</ele>
        <time>2022-06-26T14:54:35Z</time>
      </trkpt>
      <trkpt lat="45.75618" lon="4.81796">
        <ele>272.4</ele>
        <time>2022-06-26T14:54:36Z</time>
      </trkpt>
      <trkpt lat="45.75617" lon="4.81799">
        <ele>272.2</ele>
        <time>2022-06-26T14:54:37Z</time>
      </trkpt>
      <trkpt lat="45.75616" lon="4.81803">
        <ele>272.2</ele>
        <time>2022-06-26T14:54:38Z</time>
      </trkpt>
      <trkpt lat="45.75615" lon="4.81807">
        <ele>272.2</ele>
        <time>2022-06-26T14:54:39Z</time>
      </trkpt>
      <trkpt lat="45.75614" lon="4.81811">
        <ele>272.2</ele>
        <time>2022-06-26T14:54:40Z</time>
      </trkpt>
      <trkpt lat="45.75614" lon="4.81816">
        <ele>272.2</ele>
        <time>2022-06-26T14:54:41Z</time>
      </trkpt>
      <trkpt lat="45.75613" lon="4.81822">
        <ele>271.8</ele>
        <time>2022-06-26T14:54:42Z</time>
      </trkpt>
      <trkpt lat="45.75611" lon="4.81828">
        <ele>271.6</ele>
        <time>2022-06-26T14:54:43Z</time>
      </trkpt>
      <trkpt lat="45.7561" lon="4.81835">
        <ele>271.6</ele>
        <time>2022-06-26T14:54:44Z</time>
      </trkpt>
      <trkpt lat="45.75609" lon="4.81841">
        <ele>271.2</ele>
        <time>2022-06-26T14:54:45Z</time>
      </trkpt>
      <trkpt lat="45.75609" lon="4.81846">
        <ele>271.2</ele>
        <time>2022-06-26T14:54:46Z</time>
      </trkpt>
      <trkpt lat="45.75608" lon="4.8185">
        <ele>271</ele>
        <time>2022-06-26T14:54:47Z</time>
      </trkpt>
      <trkpt lat="45.75607" lon="4.81853">
        <ele>271</ele>
        <time>2022-06-26T14:54:48Z</time>
      </trkpt>
      <trkpt lat="45.75607" lon="4.81857">
        <ele>271</ele>
        <time>2022-06-26T14:54:49Z</time>
      </trkpt>
      <trkpt lat="45.75606" lon="4.81862">
        <ele>270.8</ele>
        <time>2022-06-26T14:54:50Z</time>
      </trkpt>
      <trkpt lat="45.75607" lon="4.81867">
        <ele>270.6</ele>
        <time>2022-06-26T14:54:51Z</time>
      </trkpt>
      <trkpt lat="45.75607" lon="4.81872">
        <ele>270.6</ele>
        <time>2022-06-26T14:54:52Z</time>
      </trkpt>
      <trkpt lat="45.75608" lon="4.81877">
        <ele>270.2</ele>
        <time>2022-06-26T14:54:53Z</time>
      </trkpt>
      <trkpt lat="45.75609" lon="4.81881">
        <ele>270</ele>
        <time>2022-06-26T14:54:54Z</time>
      </trkpt>
      <trkpt lat="45.7561" lon="4.81887">
        <ele>269.8</ele>
        <time>2022-06-26T14:54:55Z</time>
      </trkpt>
      <trkpt lat="45.7561" lon="4.81893">
        <ele>269.8</ele>
        <time>2022-06-26T14:54:56Z</time>
      </trkpt>
      <trkpt lat="45.75611" lon="4.81899">
        <ele>269.4</ele>
        <time>2022-06-26T14:54:57Z</time>
      </trkpt>
      <trkpt lat="45.75613" lon="4.81905">
        <ele>269.2</ele>
        <time>2022-06-26T14:54:58Z</time>
      </trkpt>
      <trkpt lat="45.75615" lon="4.8191">
        <ele>268.8</ele>
        <time>2022-06-26T14:54:59Z</time>
      </trkpt>
      <trkpt lat="45.75617" lon="4.81916">
        <ele>268.6</ele>
        <time>2022-06-26T14:55:00Z</time>
      </trkpt>
      <trkpt lat="45.7562" lon="4.81922">
        <ele>268.4</ele>
        <time>2022-06-26T14:55:01Z</time>
      </trkpt>
      <trkpt lat="45.75622" lon="4.81929">
        <ele>268.4</ele>
        <time>2022-06-26T14:55:02Z</time>
      </trkpt>
      <trkpt lat="45.75624" lon="4.81935">
        <ele>267.8</ele>
        <time>2022-06-26T14:55:03Z</time>
      </trkpt>
      <trkpt lat="45.75626" lon="4.81942">
        <ele>267.6</ele>
        <time>2022-06-26T14:55:04Z</time>
      </trkpt>
      <trkpt lat="45.75628" lon="4.81948">
        <ele>267.4</ele>
        <time>2022-06-26T14:55:05Z</time>
      </trkpt>
      <trkpt lat="45.75629" lon="4.81954">
        <ele>267</ele>
        <time>2022-06-26T14:55:06Z</time>
      </trkpt>
      <trkpt lat="45.75631" lon="4.81959">
        <ele>266.6</ele>
        <time>2022-06-26T14:55:07Z</time>
      </trkpt>
      <trkpt lat="45.75632" lon="4.81963">
        <ele>266.4</ele>
        <time>2022-06-26T14:55:08Z</time>
      </trkpt>
      <trkpt lat="45.75633" lon="4.81967">
        <ele>266.2</ele>
        <time>2022-06-26T14:55:09Z</time>
      </trkpt>
      <trkpt lat="45.75635" lon="4.81971">
        <ele>266.2</ele>
        <time>2022-06-26T14:55:10Z</time>
      </trkpt>
      <trkpt lat="45.75636" lon="4.81975">
        <ele>265.8</ele>
        <time>2022-06-26T14:55:11Z</time>
      </trkpt>
      <trkpt lat="45.75638" lon="4.8198">
        <ele>265.2</ele>
        <time>2022-06-26T14:55:12Z</time>
      </trkpt>
      <trkpt lat="45.75642" lon="4.81991">
        <ele>264.8</ele>
        <time>2022-06-26T14:55:13Z</time>
      </trkpt>
      <trkpt lat="45.75645" lon="4.81997">
        <ele>264.6</ele>
        <time>2022-06-26T14:55:14Z</time>
      </trkpt>
      <trkpt lat="45.75648" lon="4.82003">
        <ele>264.2</ele>
        <time>2022-06-26T14:55:15Z</time>
      </trkpt>
      <trkpt lat="45.75651" lon="4.82009">
        <ele>263.8</ele>
        <time>2022-06-26T14:55:16Z</time>
      </trkpt>
      <trkpt lat="45.75654" lon="4.82016">
        <ele>263.4</ele>
        <time>2022-06-26T14:55:17Z</time>
      </trkpt>
      <trkpt lat="45.75658" lon="4.82023">
        <ele>263</ele>
        <time>2022-06-26T14:55:18Z</time>
      </trkpt>
      <trkpt lat="45.75661" lon="4.8203">
        <ele>262.6</ele>
        <time>2022-06-26T14:55:19Z</time>
      </trkpt>
      <trkpt lat="45.75665" lon="4.82037">
        <ele>262.2</ele>
        <time>2022-06-26T14:55:20Z</time>
      </trkpt>
      <trkpt lat="45.75668" lon="4.82043">
        <ele>261.6</ele>
        <time>2022-06-26T14:55:21Z</time>
      </trkpt>
      <trkpt lat="45.75672" lon="4.82049">
        <ele>261.2</ele>
        <time>2022-06-26T14:55:22Z</time>
      </trkpt>
      <trkpt lat="45.75675" lon="4.82055">
        <ele>260.8</ele>
        <time>2022-06-26T14:55:23Z</time>
      </trkpt>
      <trkpt lat="45.75679" lon="4.8206">
        <ele>260.2</ele>
        <time>2022-06-26T14:55:24Z</time>
      </trkpt>
      <trkpt lat="45.75682" lon="4.82065">
        <ele>259.8</ele>
        <time>2022-06-26T14:55:25Z</time>
      </trkpt>
      <trkpt lat="45.75685" lon="4.82069">
        <ele>259.4</ele>
        <time>2022-06-26T14:55:26Z</time>
      </trkpt>
      <trkpt lat="45.75687" lon="4.82074">
        <ele>259</ele>
        <time>2022-06-26T14:55:27Z</time>
      </trkpt>
      <trkpt lat="45.75689" lon="4.82079">
        <ele>258.6</ele>
        <time>2022-06-26T14:55:28Z</time>
      </trkpt>
      <trkpt lat="45.75692" lon="4.82084">
        <ele>258.2</ele>
        <time>2022-06-26T14:55:29Z</time>
      </trkpt>
      <trkpt lat="45.75694" lon="4.82089">
        <ele>257.8</ele>
        <time>2022-06-26T14:55:30Z</time>
      </trkpt>
      <trkpt lat="45.75698" lon="4.82093">
        <ele>257.6</ele>
        <time>2022-06-26T14:55:31Z</time>
      </trkpt>
      <trkpt lat="45.75701" lon="4.82098">
        <ele>257.2</ele>
        <time>2022-06-26T14:55:32Z</time>
      </trkpt>
      <trkpt lat="45.75705" lon="4.82103">
        <ele>256.8</ele>
        <time>2022-06-26T14:55:33Z</time>
      </trkpt>
      <trkpt lat="45.7571" lon="4.82108">
        <ele>256.4</ele>
        <time>2022-06-26T14:55:34Z</time>
      </trkpt>
      <trkpt lat="45.75714" lon="4.82113">
        <ele>256.2</ele>
        <time>2022-06-26T14:55:35Z</time>
      </trkpt>
      <trkpt lat="45.75718" lon="4.82119">
        <ele>255.8</ele>
        <time>2022-06-26T14:55:36Z</time>
      </trkpt>
      <trkpt lat="45.75722" lon="4.82124">
        <ele>255.6</ele>
        <time>2022-06-26T14:55:37Z</time>
      </trkpt>
      <trkpt lat="45.75727" lon="4.8213">
        <ele>255.2</ele>
        <time>2022-06-26T14:55:38Z</time>
      </trkpt>
      <trkpt lat="45.75731" lon="4.82136">
        <ele>254.8</ele>
        <time>2022-06-26T14:55:39Z</time>
      </trkpt>
      <trkpt lat="45.75736" lon="4.82142">
        <ele>254.2</ele>
        <time>2022-06-26T14:55:40Z</time>
      </trkpt>
      <trkpt lat="45.75742" lon="4.82148">
        <ele>253.6</ele>
        <time>2022-06-26T14:55:41Z</time>
      </trkpt>
      <trkpt lat="45.75748" lon="4.82154">
        <ele>253.2</ele>
        <time>2022-06-26T14:55:42Z</time>
      </trkpt>
      <trkpt lat="45.75754" lon="4.82159">
        <ele>252.8</ele>
        <time>2022-06-26T14:55:43Z</time>
      </trkpt>
      <trkpt lat="45.7576" lon="4.82165">
        <ele>252.6</ele>
        <time>2022-06-26T14:55:44Z</time>
      </trkpt>
      <trkpt lat="45.75766" lon="4.8217">
        <ele>252.2</ele>
        <time>2022-06-26T14:55:45Z</time>
      </trkpt>
      <trkpt lat="45.75773" lon="4.82174">
        <ele>252.2</ele>
        <time>2022-06-26T14:55:46Z</time>
      </trkpt>
      <trkpt lat="45.75778" lon="4.82178">
        <ele>252</ele>
        <time>2022-06-26T14:55:47Z</time>
      </trkpt>
      <trkpt lat="45.75784" lon="4.82182">
        <ele>251.6</ele>
        <time>2022-06-26T14:55:48Z</time>
      </trkpt>
      <trkpt lat="45.7579" lon="4.82186">
        <ele>251.6</ele>
        <time>2022-06-26T14:55:49Z</time>
      </trkpt>
      <trkpt lat="45.75796" lon="4.82189">
        <ele>251.6</ele>
        <time>2022-06-26T14:55:50Z</time>
      </trkpt>
      <trkpt lat="45.75801" lon="4.82193">
        <ele>251.4</ele>
        <time>2022-06-26T14:55:51Z</time>
      </trkpt>
      <trkpt lat="45.75807" lon="4.82196">
        <ele>251.4</ele>
        <time>2022-06-26T14:55:52Z</time>
      </trkpt>
      <trkpt lat="45.75812" lon="4.82199">
        <ele>251.4</ele>
        <time>2022-06-26T14:55:53Z</time>
      </trkpt>
      <trkpt lat="45.75817" lon="4.82202">
        <ele>251</ele>
        <time>2022-06-26T14:55:54Z</time>
      </trkpt>
      <trkpt lat="45.75821" lon="4.82205">
        <ele>251</ele>
        <time>2022-06-26T14:55:55Z</time>
      </trkpt>
      <trkpt lat="45.75826" lon="4.82209">
        <ele>250.8</ele>
        <time>2022-06-26T14:55:56Z</time>
      </trkpt>
      <trkpt lat="45.75828" lon="4.82215">
        <ele>250.8</ele>
        <time>2022-06-26T14:55:57Z</time>
      </trkpt>
      <trkpt lat="45.75831" lon="4.82222">
        <ele>250.8</ele>
        <time>2022-06-26T14:55:58Z</time>
      </trkpt>
      <trkpt lat="45.75833" lon="4.82229">
        <ele>250.4</ele>
        <time>2022-06-26T14:55:59Z</time>
      </trkpt>
      <trkpt lat="45.75836" lon="4.82237">
        <ele>250.4</ele>
        <time>2022-06-26T14:56:00Z</time>
      </trkpt>
      <trkpt lat="45.75838" lon="4.82245">
        <ele>250</ele>
        <time>2022-06-26T14:56:01Z</time>
      </trkpt>
      <trkpt lat="45.7584" lon="4.82253">
        <ele>250</ele>
        <time>2022-06-26T14:56:02Z</time>
      </trkpt>
      <trkpt lat="45.75842" lon="4.82263">
        <ele>249.4</ele>
        <time>2022-06-26T14:56:03Z</time>
      </trkpt>
      <trkpt lat="45.75844" lon="4.82272">
        <ele>249.2</ele>
        <time>2022-06-26T14:56:04Z</time>
      </trkpt>
      <trkpt lat="45.75846" lon="4.82282">
        <ele>248.8</ele>
        <time>2022-06-26T14:56:05Z</time>
      </trkpt>
      <trkpt lat="45.75849" lon="4.82291">
        <ele>248.6</ele>
        <time>2022-06-26T14:56:06Z</time>
      </trkpt>
      <trkpt lat="45.75851" lon="4.823">
        <ele>248.2</ele>
        <time>2022-06-26T14:56:07Z</time>
      </trkpt>
      <trkpt lat="45.75854" lon="4.82309">
        <ele>247.6</ele>
        <time>2022-06-26T14:56:08Z</time>
      </trkpt>
      <trkpt lat="45.75856" lon="4.82317">
        <ele>247.2</ele>
        <time>2022-06-26T14:56:09Z</time>
      </trkpt>
      <trkpt lat="45.75859" lon="4.82325">
        <ele>246.8</ele>
        <time>2022-06-26T14:56:10Z</time>
      </trkpt>
      <trkpt lat="45.75861" lon="4.82332">
        <ele>246.2</ele>
        <time>2022-06-26T14:56:11Z</time>
      </trkpt>
      <trkpt lat="45.75863" lon="4.8234">
        <ele>245.8</ele>
        <time>2022-06-26T14:56:12Z</time>
      </trkpt>
      <trkpt lat="45.75866" lon="4.82348">
        <ele>245.4</ele>
        <time>2022-06-26T14:56:13Z</time>
      </trkpt>
      <trkpt lat="45.7587" lon="4.82356">
        <ele>244.8</ele>
        <time>2022-06-26T14:56:14Z</time>
      </trkpt>
      <trkpt lat="45.75873" lon="4.82363">
        <ele>244.4</ele>
        <time>2022-06-26T14:56:15Z</time>
      </trkpt>
      <trkpt lat="45.75877" lon="4.8237">
        <ele>243.8</ele>
        <time>2022-06-26T14:56:16Z</time>
      </trkpt>
      <trkpt lat="45.75881" lon="4.82376">
        <ele>243.4</ele>
        <time>2022-06-26T14:56:17Z</time>
      </trkpt>
      <trkpt lat="45.75887" lon="4.82381">
        <ele>243</ele>
        <time>2022-06-26T14:56:18Z</time>
      </trkpt>
      <trkpt lat="45.75892" lon="4.82386">
        <ele>242.4</ele>
        <time>2022-06-26T14:56:19Z</time>
      </trkpt>
      <trkpt lat="45.75896" lon="4.82391">
        <ele>241.8</ele>
        <time>2022-06-26T14:56:20Z</time>
      </trkpt>
      <trkpt lat="45.75902" lon="4.82396">
        <ele>241.2</ele>
        <time>2022-06-26T14:56:21Z</time>
      </trkpt>
      <trkpt lat="45.75908" lon="4.82401">
        <ele>240.6</ele>
        <time>2022-06-26T14:56:22Z</time>
      </trkpt>
      <trkpt lat="45.75913" lon="4.82405">
        <ele>239.8</ele>
        <time>2022-06-26T14:56:23Z</time>
      </trkpt>
      <trkpt lat="45.75919" lon="4.82409">
        <ele>239.2</ele>
        <time>2022-06-26T14:56:24Z</time>
      </trkpt>
      <trkpt lat="45.75925" lon="4.82412">
        <ele>238.6</ele>
        <time>2022-06-26T14:56:25Z</time>
      </trkpt>
      <trkpt lat="45.75932" lon="4.82416">
        <ele>237.8</ele>
        <time>2022-06-26T14:56:26Z</time>
      </trkpt>
      <trkpt lat="45.75938" lon="4.82419">
        <ele>237.2</ele>
        <time>2022-06-26T14:56:27Z</time>
      </trkpt>
      <trkpt lat="45.75945" lon="4.82423">
        <ele>236.6</ele>
        <time>2022-06-26T14:56:28Z</time>
      </trkpt>
      <trkpt lat="45.75952" lon="4.82426">
        <ele>235.8</ele>
        <time>2022-06-26T14:56:29Z</time>
      </trkpt>
      <trkpt lat="45.7596" lon="4.82429">
        <ele>234.8</ele>
        <time>2022-06-26T14:56:30Z</time>
      </trkpt>
      <trkpt lat="45.75967" lon="4.82433">
        <ele>234</ele>
        <time>2022-06-26T14:56:31Z</time>
      </trkpt>
      <trkpt lat="45.75974" lon="4.82437">
        <ele>233</ele>
        <time>2022-06-26T14:56:32Z</time>
      </trkpt>
      <trkpt lat="45.75982" lon="4.82441">
        <ele>232.2</ele>
        <time>2022-06-26T14:56:33Z</time>
      </trkpt>
      <trkpt lat="45.75989" lon="4.82443">
        <ele>231.2</ele>
        <time>2022-06-26T14:56:34Z</time>
      </trkpt>
      <trkpt lat="45.75996" lon="4.82447">
        <ele>230.2</ele>
        <time>2022-06-26T14:56:35Z</time>
      </trkpt>
      <trkpt lat="45.76003" lon="4.82451">
        <ele>229.4</ele>
        <time>2022-06-26T14:56:36Z</time>
      </trkpt>
      <trkpt lat="45.76009" lon="4.82456">
        <ele>228.4</ele>
        <time>2022-06-26T14:56:37Z</time>
      </trkpt>
      <trkpt lat="45.76016" lon="4.82461">
        <ele>227.4</ele>
        <time>2022-06-26T14:56:38Z</time>
      </trkpt>
      <trkpt lat="45.76023" lon="4.82466">
        <ele>226.6</ele>
        <time>2022-06-26T14:56:39Z</time>
      </trkpt>
      <trkpt lat="45.76031" lon="4.8247">
        <ele>225.6</ele>
        <time>2022-06-26T14:56:40Z</time>
      </trkpt>
      <trkpt lat="45.7604" lon="4.82475">
        <ele>224.6</ele>
        <time>2022-06-26T14:56:41Z</time>
      </trkpt>
      <trkpt lat="45.76051" lon="4.82481">
        <ele>223.6</ele>
        <time>2022-06-26T14:56:42Z</time>
      </trkpt>
      <trkpt lat="45.7606" lon="4.82487">
        <ele>222.4</ele>
        <time>2022-06-26T14:56:43Z</time>
      </trkpt>
      <trkpt lat="45.76069" lon="4.82492">
        <ele>221.2</ele>
        <time>2022-06-26T14:56:44Z</time>
      </trkpt>
      <trkpt lat="45.76078" lon="4.82497">
        <ele>220</ele>
        <time>2022-06-26T14:56:45Z</time>
      </trkpt>
      <trkpt lat="45.76087" lon="4.82501">
        <ele>218.8</ele>
        <time>2022-06-26T14:56:46Z</time>
      </trkpt>
      <trkpt lat="45.76096" lon="4.82505">
        <ele>217.6</ele>
        <time>2022-06-26T14:56:47Z</time>
      </trkpt>
      <trkpt lat="45.76105" lon="4.82508">
        <ele>216.2</ele>
        <time>2022-06-26T14:56:48Z</time>
      </trkpt>
      <trkpt lat="45.76114" lon="4.82511">
        <ele>215</ele>
        <time>2022-06-26T14:56:49Z</time>
      </trkpt>
      <trkpt lat="45.76124" lon="4.82515">
        <ele>213.6</ele>
        <time>2022-06-26T14:56:50Z</time>
      </trkpt>
      <trkpt lat="45.76133" lon="4.8252">
        <ele>212.2</ele>
        <time>2022-06-26T14:56:51Z</time>
      </trkpt>
      <trkpt lat="45.76141" lon="4.82525">
        <ele>210.8</ele>
        <time>2022-06-26T14:56:52Z</time>
      </trkpt>
      <trkpt lat="45.76149" lon="4.8253">
        <ele>209.4</ele>
        <time>2022-06-26T14:56:53Z</time>
      </trkpt>
      <trkpt lat="45.76156" lon="4.82535">
        <ele>208</ele>
        <time>2022-06-26T14:56:54Z</time>
      </trkpt>
      <trkpt lat="45.76163" lon="4.82541">
        <ele>206.8</ele>
        <time>2022-06-26T14:56:55Z</time>
      </trkpt>
      <trkpt lat="45.76169" lon="4.82546">
        <ele>205.4</ele>
        <time>2022-06-26T14:56:56Z</time>
      </trkpt>
      <trkpt lat="45.76176" lon="4.82552">
        <ele>204.2</ele>
        <time>2022-06-26T14:56:57Z</time>
      </trkpt>
      <trkpt lat="45.76182" lon="4.82558">
        <ele>202.8</ele>
        <time>2022-06-26T14:56:58Z</time>
      </trkpt>
      <trkpt lat="45.76188" lon="4.82564">
        <ele>201.8</ele>
        <time>2022-06-26T14:56:59Z</time>
      </trkpt>
      <trkpt lat="45.76193" lon="4.8257">
        <ele>200.6</ele>
        <time>2022-06-26T14:57:00Z</time>
      </trkpt>
      <trkpt lat="45.76198" lon="4.82576">
        <ele>199.6</ele>
        <time>2022-06-26T14:57:01Z</time>
      </trkpt>
      <trkpt lat="45.76201" lon="4.82582">
        <ele>198.4</ele>
        <time>2022-06-26T14:57:02Z</time>
      </trkpt>
      <trkpt lat="45.76204" lon="4.82586">
        <ele>197.4</ele>
        <time>2022-06-26T14:57:03Z</time>
      </trkpt>
      <trkpt lat="45.76206" lon="4.82591">
        <ele>196.6</ele>
        <time>2022-06-26T14:57:04Z</time>
      </trkpt>
      <trkpt lat="45.76207" lon="4.82595">
        <ele>195.8</ele>
        <time>2022-06-26T14:57:05Z</time>
      </trkpt>
      <trkpt lat="45.76207" lon="4.82599">
        <ele>195.2</ele>
        <time>2022-06-26T14:57:06Z</time>
      </trkpt>
      <trkpt lat="45.76206" lon="4.82602">
        <ele>194.4</ele>
        <time>2022-06-26T14:57:07Z</time>
      </trkpt>
      <trkpt lat="45.76205" lon="4.82606">
        <ele>193.8</ele>
        <time>2022-06-26T14:57:08Z</time>
      </trkpt>
      <trkpt lat="45.76204" lon="4.82609">
        <ele>193.4</ele>
        <time>2022-06-26T14:57:09Z</time>
      </trkpt>
      <trkpt lat="45.76203" lon="4.82611">
        <ele>193</ele>
        <time>2022-06-26T14:57:10Z</time>
      </trkpt>
      <trkpt lat="45.76202" lon="4.82614">
        <ele>192.6</ele>
        <time>2022-06-26T14:57:11Z</time>
      </trkpt>
      <trkpt lat="45.76201" lon="4.82616">
        <ele>192.2</ele>
        <time>2022-06-26T14:57:12Z</time>
      </trkpt>
      <trkpt lat="45.76199" lon="4.82619">
        <ele>191.8</ele>
        <time>2022-06-26T14:57:13Z</time>
      </trkpt>
      <trkpt lat="45.76198" lon="4.82622">
        <ele>191.4</ele>
        <time>2022-06-26T14:57:14Z</time>
      </trkpt>
      <trkpt lat="45.76197" lon="4.82627">
        <ele>191.2</ele>
        <time>2022-06-26T14:57:15Z</time>
      </trkpt>
      <trkpt lat="45.76195" lon="4.82631">
        <ele>190.8</ele>
        <time>2022-06-26T14:57:16Z</time>
      </trkpt>
      <trkpt lat="45.76193" lon="4.82636">
        <ele>190.4</ele>
        <time>2022-06-26T14:57:17Z</time>
      </trkpt>
      <trkpt lat="45.76191" lon="4.82641">
        <ele>190</ele>
        <time>2022-06-26T14:57:18Z</time>
      </trkpt>
      <trkpt lat="45.76189" lon="4.82646">
        <ele>189.8</ele>
        <time>2022-06-26T14:57:19Z</time>
      </trkpt>
      <trkpt lat="45.76188" lon="4.82651">
        <ele>189.4</ele>
        <time>2022-06-26T14:57:20Z</time>
      </trkpt>
      <trkpt lat="45.76187" lon="4.82656">
        <ele>189</ele>
        <time>2022-06-26T14:57:21Z</time>
      </trkpt>
      <trkpt lat="45.76186" lon="4.8266">
        <ele>188.6</ele>
        <time>2022-06-26T14:57:22Z</time>
      </trkpt>
      <trkpt lat="45.76186" lon="4.82664">
        <ele>188.2</ele>
        <time>2022-06-26T14:57:23Z</time>
      </trkpt>
      <trkpt lat="45.76186" lon="4.82667">
        <ele>188</ele>
        <time>2022-06-26T14:57:24Z</time>
      </trkpt>
      <trkpt lat="45.76185" lon="4.82669">
        <ele>187.8</ele>
        <time>2022-06-26T14:57:25Z</time>
      </trkpt>
      <trkpt lat="45.76183" lon="4.82671">
        <ele>187.6</ele>
        <time>2022-06-26T14:57:26Z</time>
      </trkpt>
      <trkpt lat="45.76182" lon="4.82673">
        <ele>187.6</ele>
        <time>2022-06-26T14:57:27Z</time>
      </trkpt>
      <trkpt lat="45.7618" lon="4.82675">
        <ele>187.2</ele>
        <time>2022-06-26T14:57:28Z</time>
      </trkpt>
      <trkpt lat="45.76179" lon="4.82677">
        <ele>187.2</ele>
        <time>2022-06-26T14:57:29Z</time>
      </trkpt>
      <trkpt lat="45.76177" lon="4.8268">
        <ele>187</ele>
        <time>2022-06-26T14:57:30Z</time>
      </trkpt>
      <trkpt lat="45.76175" lon="4.82683">
        <ele>187</ele>
        <time>2022-06-26T14:57:31Z</time>
      </trkpt>
      <trkpt lat="45.76174" lon="4.82687">
        <ele>186.6</ele>
        <time>2022-06-26T14:57:32Z</time>
      </trkpt>
      <trkpt lat="45.76172" lon="4.8269">
        <ele>186.4</ele>
        <time>2022-06-26T14:57:33Z</time>
      </trkpt>
      <trkpt lat="45.76172" lon="4.82693">
        <ele>186.4</ele>
        <time>2022-06-26T14:57:34Z</time>
      </trkpt>
      <trkpt lat="45.76171" lon="4.82695">
        <ele>186</ele>
        <time>2022-06-26T14:57:35Z</time>
      </trkpt>
      <trkpt lat="45.7617" lon="4.82697">
        <ele>186</ele>
        <time>2022-06-26T14:57:36Z</time>
      </trkpt>
      <trkpt lat="45.7617" lon="4.82699">
        <ele>186</ele>
        <time>2022-06-26T14:57:37Z</time>
      </trkpt>
      <trkpt lat="45.7617" lon="4.82701">
        <ele>185.8</ele>
        <time>2022-06-26T14:57:38Z</time>
      </trkpt>
      <trkpt lat="45.7617" lon="4.82704">
        <ele>185.8</ele>
        <time>2022-06-26T14:57:39Z</time>
      </trkpt>
      <trkpt lat="45.76169" lon="4.82706">
        <ele>185.8</ele>
        <time>2022-06-26T14:57:40Z</time>
      </trkpt>
      <trkpt lat="45.76168" lon="4.82708">
        <ele>185.6</ele>
        <time>2022-06-26T14:57:41Z</time>
      </trkpt>
      <trkpt lat="45.76167" lon="4.82711">
        <ele>185.6</ele>
        <time>2022-06-26T14:57:42Z</time>
      </trkpt>
      <trkpt lat="45.76166" lon="4.82712">
        <ele>185.6</ele>
        <time>2022-06-26T14:57:43Z</time>
      </trkpt>
      <trkpt lat="45.76165" lon="4.82714">
        <ele>185.2</ele>
        <time>2022-06-26T14:57:44Z</time>
      </trkpt>
      <trkpt lat="45.76163" lon="4.82721">
        <ele>185</ele>
        <time>2022-06-26T14:57:47Z</time>
      </trkpt>
      <trkpt lat="45.76161" lon="4.82724">
        <ele>185</ele>
        <time>2022-06-26T14:57:48Z</time>
      </trkpt>
      <trkpt lat="45.7616" lon="4.82727">
        <ele>185</ele>
        <time>2022-06-26T14:57:49Z</time>
      </trkpt>
      <trkpt lat="45.76159" lon="4.82731">
        <ele>185</ele>
        <time>2022-06-26T14:57:50Z</time>
      </trkpt>
      <trkpt lat="45.76157" lon="4.82734">
        <ele>184.8</ele>
        <time>2022-06-26T14:57:51Z</time>
      </trkpt>
      <trkpt lat="45.76157" lon="4.82738">
        <ele>184.8</ele>
        <time>2022-06-26T14:57:52Z</time>
      </trkpt>
      <trkpt lat="45.76157" lon="4.82743">
        <ele>184.8</ele>
        <time>2022-06-26T14:57:53Z</time>
      </trkpt>
      <trkpt lat="45.76157" lon="4.82749">
        <ele>184.6</ele>
        <time>2022-06-26T14:57:54Z</time>
      </trkpt>
      <trkpt lat="45.76157" lon="4.82754">
        <ele>184.6</ele>
        <time>2022-06-26T14:57:55Z</time>
      </trkpt>
      <trkpt lat="45.76156" lon="4.82758">
        <ele>184.6</ele>
        <time>2022-06-26T14:57:56Z</time>
      </trkpt>
      <trkpt lat="45.7616" lon="4.82765">
        <ele>184.4</ele>
        <time>2022-06-26T14:57:57Z</time>
      </trkpt>
      <trkpt lat="45.76159" lon="4.8277">
        <ele>184.4</ele>
        <time>2022-06-26T14:57:58Z</time>
      </trkpt>
      <trkpt lat="45.76158" lon="4.82774">
        <ele>184.4</ele>
        <time>2022-06-26T14:57:59Z</time>
      </trkpt>
      <trkpt lat="45.76158" lon="4.82779">
        <ele>184.4</ele>
        <time>2022-06-26T14:58:00Z</time>
      </trkpt>
      <trkpt lat="45.76156" lon="4.82783">
        <ele>184</ele>
        <time>2022-06-26T14:58:01Z</time>
      </trkpt>
      <trkpt lat="45.76155" lon="4.82787">
        <ele>184</ele>
        <time>2022-06-26T14:58:02Z</time>
      </trkpt>
      <trkpt lat="45.76154" lon="4.82791">
        <ele>183.8</ele>
        <time>2022-06-26T14:58:03Z</time>
      </trkpt>
      <trkpt lat="45.76153" lon="4.82796">
        <ele>183.8</ele>
        <time>2022-06-26T14:58:04Z</time>
      </trkpt>
      <trkpt lat="45.76152" lon="4.828">
        <ele>183.4</ele>
        <time>2022-06-26T14:58:05Z</time>
      </trkpt>
      <trkpt lat="45.76151" lon="4.82805">
        <ele>183.4</ele>
        <time>2022-06-26T14:58:06Z</time>
      </trkpt>
      <trkpt lat="45.76151" lon="4.8281">
        <ele>183.2</ele>
        <time>2022-06-26T14:58:07Z</time>
      </trkpt>
      <trkpt lat="45.7615" lon="4.82815">
        <ele>183.2</ele>
        <time>2022-06-26T14:58:08Z</time>
      </trkpt>
      <trkpt lat="45.76149" lon="4.82819">
        <ele>183.2</ele>
        <time>2022-06-26T14:58:09Z</time>
      </trkpt>
      <trkpt lat="45.76148" lon="4.82822">
        <ele>183.2</ele>
        <time>2022-06-26T14:58:10Z</time>
      </trkpt>
      <trkpt lat="45.76149" lon="4.82825">
        <ele>183.2</ele>
        <time>2022-06-26T14:58:11Z</time>
      </trkpt>
      <trkpt lat="45.76148" lon="4.82828">
        <ele>183.2</ele>
        <time>2022-06-26T14:58:12Z</time>
      </trkpt>
      <trkpt lat="45.76147" lon="4.82831">
        <ele>183.2</ele>
        <time>2022-06-26T14:58:13Z</time>
      </trkpt>
      <trkpt lat="45.76146" lon="4.82834">
        <ele>183.2</ele>
        <time>2022-06-26T14:58:14Z</time>
      </trkpt>
      <trkpt lat="45.76144" lon="4.82836">
        <ele>183.2</ele>
        <time>2022-06-26T14:58:15Z</time>
      </trkpt>
      <trkpt lat="45.76143" lon="4.82838">
        <ele>183.2</ele>
        <time>2022-06-26T14:58:16Z</time>
      </trkpt>
      <trkpt lat="45.76143" lon="4.8284">
        <ele>183.2</ele>
        <time>2022-06-26T14:58:17Z</time>
      </trkpt>
      <trkpt lat="45.76142" lon="4.82841">
        <ele>183.2</ele>
        <time>2022-06-26T14:58:18Z</time>
      </trkpt>
      <trkpt lat="45.76139" lon="4.82848">
        <ele>183.6</ele>
        <time>2022-06-26T14:58:30Z</time>
      </trkpt>
      <trkpt lat="45.76138" lon="4.8285">
        <ele>183.6</ele>
        <time>2022-06-26T14:58:31Z</time>
      </trkpt>
      <trkpt lat="45.76137" lon="4.82853">
        <ele>183.6</ele>
        <time>2022-06-26T14:58:32Z</time>
      </trkpt>
      <trkpt lat="45.76137" lon="4.82858">
        <ele>183.6</ele>
        <time>2022-06-26T14:58:33Z</time>
      </trkpt>
      <trkpt lat="45.76139" lon="4.82861">
        <ele>183.8</ele>
        <time>2022-06-26T14:58:34Z</time>
      </trkpt>
      <trkpt lat="45.76142" lon="4.82863">
        <ele>183.8</ele>
        <time>2022-06-26T14:58:35Z</time>
      </trkpt>
      <trkpt lat="45.76146" lon="4.82865">
        <ele>183.8</ele>
        <time>2022-06-26T14:58:36Z</time>
      </trkpt>
      <trkpt lat="45.7615" lon="4.82867">
        <ele>183.8</ele>
        <time>2022-06-26T14:58:37Z</time>
      </trkpt>
      <trkpt lat="45.76154" lon="4.82869">
        <ele>183.8</ele>
        <time>2022-06-26T14:58:38Z</time>
      </trkpt>
      <trkpt lat="45.76159" lon="4.82871">
        <ele>183.8</ele>
        <time>2022-06-26T14:58:39Z</time>
      </trkpt>
      <trkpt lat="45.76163" lon="4.82872">
        <ele>183.8</ele>
        <time>2022-06-26T14:58:40Z</time>
      </trkpt>
      <trkpt lat="45.76168" lon="4.82874">
        <ele>183.8</ele>
        <time>2022-06-26T14:58:41Z</time>
      </trkpt>
      <trkpt lat="45.76173" lon="4.82876">
        <ele>183.8</ele>
        <time>2022-06-26T14:58:42Z</time>
      </trkpt>
      <trkpt lat="45.76178" lon="4.82878">
        <ele>183.8</ele>
        <time>2022-06-26T14:58:43Z</time>
      </trkpt>
      <trkpt lat="45.76183" lon="4.82879">
        <ele>183.8</ele>
        <time>2022-06-26T14:58:44Z</time>
      </trkpt>
      <trkpt lat="45.76187" lon="4.82881">
        <ele>184</ele>
        <time>2022-06-26T14:58:45Z</time>
      </trkpt>
      <trkpt lat="45.76192" lon="4.82884">
        <ele>184</ele>
        <time>2022-06-26T14:58:46Z</time>
      </trkpt>
      <trkpt lat="45.76196" lon="4.82886">
        <ele>184</ele>
        <time>2022-06-26T14:58:47Z</time>
      </trkpt>
      <trkpt lat="45.76201" lon="4.82889">
        <ele>184</ele>
        <time>2022-06-26T14:58:48Z</time>
      </trkpt>
      <trkpt lat="45.76205" lon="4.82892">
        <ele>184</ele>
        <time>2022-06-26T14:58:49Z</time>
      </trkpt>
      <trkpt lat="45.76208" lon="4.82895">
        <ele>184.2</ele>
        <time>2022-06-26T14:58:50Z</time>
      </trkpt>
      <trkpt lat="45.76212" lon="4.82897">
        <ele>184.2</ele>
        <time>2022-06-26T14:58:51Z</time>
      </trkpt>
      <trkpt lat="45.76216" lon="4.829">
        <ele>184.2</ele>
        <time>2022-06-26T14:58:52Z</time>
      </trkpt>
      <trkpt lat="45.76219" lon="4.82902">
        <ele>184.2</ele>
        <time>2022-06-26T14:58:53Z</time>
      </trkpt>
      <trkpt lat="45.76223" lon="4.82905">
        <ele>184.2</ele>
        <time>2022-06-26T14:58:54Z</time>
      </trkpt>
      <trkpt lat="45.76227" lon="4.82907">
        <ele>184.4</ele>
        <time>2022-06-26T14:58:55Z</time>
      </trkpt>
      <trkpt lat="45.76231" lon="4.82909">
        <ele>184.4</ele>
        <time>2022-06-26T14:58:56Z</time>
      </trkpt>
      <trkpt lat="45.76234" lon="4.82912">
        <ele>184.4</ele>
        <time>2022-06-26T14:58:57Z</time>
      </trkpt>
      <trkpt lat="45.76238" lon="4.82914">
        <ele>184.6</ele>
        <time>2022-06-26T14:58:58Z</time>
      </trkpt>
      <trkpt lat="45.76242" lon="4.82916">
        <ele>184.6</ele>
        <time>2022-06-26T14:58:59Z</time>
      </trkpt>
      <trkpt lat="45.76246" lon="4.82918">
        <ele>184.6</ele>
        <time>2022-06-26T14:59:00Z</time>
      </trkpt>
      <trkpt lat="45.7625" lon="4.8292">
        <ele>184.6</ele>
        <time>2022-06-26T14:59:01Z</time>
      </trkpt>
      <trkpt lat="45.76254" lon="4.82922">
        <ele>184.6</ele>
        <time>2022-06-26T14:59:02Z</time>
      </trkpt>
      <trkpt lat="45.76257" lon="4.82923">
        <ele>184.6</ele>
        <time>2022-06-26T14:59:03Z</time>
      </trkpt>
      <trkpt lat="45.76261" lon="4.82924">
        <ele>184.6</ele>
        <time>2022-06-26T14:59:04Z</time>
      </trkpt>
      <trkpt lat="45.76265" lon="4.82926">
        <ele>184.6</ele>
        <time>2022-06-26T14:59:05Z</time>
      </trkpt>
      <trkpt lat="45.76268" lon="4.82927">
        <ele>185</ele>
        <time>2022-06-26T14:59:06Z</time>
      </trkpt>
      <trkpt lat="45.76272" lon="4.82928">
        <ele>185</ele>
        <time>2022-06-26T14:59:07Z</time>
      </trkpt>
      <trkpt lat="45.76276" lon="4.8293">
        <ele>185</ele>
        <time>2022-06-26T14:59:08Z</time>
      </trkpt>
      <trkpt lat="45.7628" lon="4.82931">
        <ele>185</ele>
        <time>2022-06-26T14:59:09Z</time>
      </trkpt>
      <trkpt lat="45.76283" lon="4.82932">
        <ele>185</ele>
        <time>2022-06-26T14:59:10Z</time>
      </trkpt>
      <trkpt lat="45.76287" lon="4.82933">
        <ele>185</ele>
        <time>2022-06-26T14:59:11Z</time>
      </trkpt>
      <trkpt lat="45.76291" lon="4.82934">
        <ele>185</ele>
        <time>2022-06-26T14:59:12Z</time>
      </trkpt>
      <trkpt lat="45.76295" lon="4.82935">
        <ele>185</ele>
        <time>2022-06-26T14:59:13Z</time>
      </trkpt>
      <trkpt lat="45.76299" lon="4.82936">
        <ele>185.2</ele>
        <time>2022-06-26T14:59:14Z</time>
      </trkpt>
      <trkpt lat="45.76303" lon="4.82936">
        <ele>185.2</ele>
        <time>2022-06-26T14:59:15Z</time>
      </trkpt>
      <trkpt lat="45.76308" lon="4.82938">
        <ele>185.2</ele>
        <time>2022-06-26T14:59:16Z</time>
      </trkpt>
      <trkpt lat="45.76312" lon="4.82939">
        <ele>185.2</ele>
        <time>2022-06-26T14:59:17Z</time>
      </trkpt>
      <trkpt lat="45.76316" lon="4.8294">
        <ele>185.2</ele>
        <time>2022-06-26T14:59:18Z</time>
      </trkpt>
      <trkpt lat="45.7632" lon="4.82941">
        <ele>185.2</ele>
        <time>2022-06-26T14:59:19Z</time>
      </trkpt>
      <trkpt lat="45.76324" lon="4.82943">
        <ele>185.2</ele>
        <time>2022-06-26T14:59:20Z</time>
      </trkpt>
      <trkpt lat="45.76326" lon="4.82946">
        <ele>185.4</ele>
        <time>2022-06-26T14:59:21Z</time>
      </trkpt>
      <trkpt lat="45.76328" lon="4.82952">
        <ele>185.4</ele>
        <time>2022-06-26T14:59:22Z</time>
      </trkpt>
      <trkpt lat="45.76328" lon="4.82957">
        <ele>185.6</ele>
        <time>2022-06-26T14:59:23Z</time>
      </trkpt>
      <trkpt lat="45.76329" lon="4.82963">
        <ele>185.6</ele>
        <time>2022-06-26T14:59:24Z</time>
      </trkpt>
      <trkpt lat="45.76329" lon="4.82969">
        <ele>186</ele>
        <time>2022-06-26T14:59:25Z</time>
      </trkpt>
      <trkpt lat="45.76329" lon="4.82975">
        <ele>186</ele>
        <time>2022-06-26T14:59:26Z</time>
      </trkpt>
      <trkpt lat="45.76329" lon="4.82981">
        <ele>186.2</ele>
        <time>2022-06-26T14:59:27Z</time>
      </trkpt>
      <trkpt lat="45.76328" lon="4.82987">
        <ele>186.6</ele>
        <time>2022-06-26T14:59:28Z</time>
      </trkpt>
      <trkpt lat="45.76327" lon="4.82993">
        <ele>186.6</ele>
        <time>2022-06-26T14:59:29Z</time>
      </trkpt>
      <trkpt lat="45.76327" lon="4.82998">
        <ele>187</ele>
        <time>2022-06-26T14:59:30Z</time>
      </trkpt>
      <trkpt lat="45.76326" lon="4.83003">
        <ele>187.2</ele>
        <time>2022-06-26T14:59:31Z</time>
      </trkpt>
      <trkpt lat="45.76326" lon="4.83009">
        <ele>187.4</ele>
        <time>2022-06-26T14:59:32Z</time>
      </trkpt>
      <trkpt lat="45.76325" lon="4.83014">
        <ele>187.6</ele>
        <time>2022-06-26T14:59:33Z</time>
      </trkpt>
      <trkpt lat="45.76325" lon="4.83019">
        <ele>187.8</ele>
        <time>2022-06-26T14:59:34Z</time>
      </trkpt>
      <trkpt lat="45.76325" lon="4.83025">
        <ele>187.8</ele>
        <time>2022-06-26T14:59:35Z</time>
      </trkpt>
      <trkpt lat="45.76325" lon="4.83031">
        <ele>188.2</ele>
        <time>2022-06-26T14:59:36Z</time>
      </trkpt>
      <trkpt lat="45.76324" lon="4.83036">
        <ele>188.2</ele>
        <time>2022-06-26T14:59:37Z</time>
      </trkpt>
      <trkpt lat="45.76324" lon="4.83042">
        <ele>188.4</ele>
        <time>2022-06-26T14:59:38Z</time>
      </trkpt>
      <trkpt lat="45.76324" lon="4.83048">
        <ele>188.4</ele>
        <time>2022-06-26T14:59:39Z</time>
      </trkpt>
      <trkpt lat="45.76324" lon="4.83053">
        <ele>188.4</ele>
        <time>2022-06-26T14:59:40Z</time>
      </trkpt>
      <trkpt lat="45.76324" lon="4.83059">
        <ele>188.4</ele>
        <time>2022-06-26T14:59:41Z</time>
      </trkpt>
      <trkpt lat="45.76324" lon="4.83065">
        <ele>188.4</ele>
        <time>2022-06-26T14:59:42Z</time>
      </trkpt>
      <trkpt lat="45.76323" lon="4.83071">
        <ele>188.4</ele>
        <time>2022-06-26T14:59:43Z</time>
      </trkpt>
      <trkpt lat="45.76323" lon="4.83077">
        <ele>188.4</ele>
        <time>2022-06-26T14:59:44Z</time>
      </trkpt>
      <trkpt lat="45.76323" lon="4.83084">
        <ele>188.4</ele>
        <time>2022-06-26T14:59:45Z</time>
      </trkpt>
      <trkpt lat="45.76323" lon="4.83091">
        <ele>188.2</ele>
        <time>2022-06-26T14:59:46Z</time>
      </trkpt>
      <trkpt lat="45.76323" lon="4.83098">
        <ele>187.8</ele>
        <time>2022-06-26T14:59:47Z</time>
      </trkpt>
      <trkpt lat="45.76323" lon="4.83105">
        <ele>187.8</ele>
        <time>2022-06-26T14:59:48Z</time>
      </trkpt>
      <trkpt lat="45.76322" lon="4.83112">
        <ele>187.6</ele>
        <time>2022-06-26T14:59:49Z</time>
      </trkpt>
      <trkpt lat="45.76322" lon="4.83119">
        <ele>187.2</ele>
        <time>2022-06-26T14:59:50Z</time>
      </trkpt>
      <trkpt lat="45.76322" lon="4.83126">
        <ele>187</ele>
        <time>2022-06-26T14:59:51Z</time>
      </trkpt>
      <trkpt lat="45.76322" lon="4.83133">
        <ele>186.6</ele>
        <time>2022-06-26T14:59:52Z</time>
      </trkpt>
      <trkpt lat="45.76322" lon="4.83139">
        <ele>186.4</ele>
        <time>2022-06-26T14:59:53Z</time>
      </trkpt>
      <trkpt lat="45.76322" lon="4.83144">
        <ele>186</ele>
        <time>2022-06-26T14:59:54Z</time>
      </trkpt>
      <trkpt lat="45.76322" lon="4.83149">
        <ele>185.6</ele>
        <time>2022-06-26T14:59:55Z</time>
      </trkpt>
      <trkpt lat="45.76322" lon="4.83154">
        <ele>185.6</ele>
        <time>2022-06-26T14:59:56Z</time>
      </trkpt>
      <trkpt lat="45.76322" lon="4.83158">
        <ele>185.4</ele>
        <time>2022-06-26T14:59:57Z</time>
      </trkpt>
      <trkpt lat="45.76322" lon="4.83163">
        <ele>185.4</ele>
        <time>2022-06-26T14:59:58Z</time>
      </trkpt>
      <trkpt lat="45.76322" lon="4.83169">
        <ele>185.4</ele>
        <time>2022-06-26T14:59:59Z</time>
      </trkpt>
      <trkpt lat="45.76322" lon="4.83175">
        <ele>185</ele>
        <time>2022-06-26T15:00:00Z</time>
      </trkpt>
      <trkpt lat="45.76323" lon="4.8318">
        <ele>184.6</ele>
        <time>2022-06-26T15:00:01Z</time>
      </trkpt>
      <trkpt lat="45.76323" lon="4.83186">
        <ele>184.6</ele>
        <time>2022-06-26T15:00:02Z</time>
      </trkpt>
      <trkpt lat="45.76324" lon="4.83193">
        <ele>184.2</ele>
        <time>2022-06-26T15:00:03Z</time>
      </trkpt>
      <trkpt lat="45.76324" lon="4.83201">
        <ele>184.2</ele>
        <time>2022-06-26T15:00:04Z</time>
      </trkpt>
      <trkpt lat="45.76325" lon="4.83209">
        <ele>183.8</ele>
        <time>2022-06-26T15:00:05Z</time>
      </trkpt>
      <trkpt lat="45.76325" lon="4.83217">
        <ele>183.6</ele>
        <time>2022-06-26T15:00:06Z</time>
      </trkpt>
      <trkpt lat="45.76325" lon="4.83225">
        <ele>183.6</ele>
        <time>2022-06-26T15:00:07Z</time>
      </trkpt>
      <trkpt lat="45.76325" lon="4.83233">
        <ele>183.6</ele>
        <time>2022-06-26T15:00:08Z</time>
      </trkpt>
      <trkpt lat="45.76325" lon="4.8324">
        <ele>183.6</ele>
        <time>2022-06-26T15:00:09Z</time>
      </trkpt>
      <trkpt lat="45.76325" lon="4.83247">
        <ele>183.6</ele>
        <time>2022-06-26T15:00:10Z</time>
      </trkpt>
      <trkpt lat="45.76325" lon="4.83252">
        <ele>183.6</ele>
        <time>2022-06-26T15:00:11Z</time>
      </trkpt>
      <trkpt lat="45.76325" lon="4.83257">
        <ele>183.6</ele>
        <time>2022-06-26T15:00:12Z</time>
      </trkpt>
      <trkpt lat="45.76327" lon="4.83262">
        <ele>183.6</ele>
        <time>2022-06-26T15:00:13Z</time>
      </trkpt>
      <trkpt lat="45.76327" lon="4.83268">
        <ele>183.6</ele>
        <time>2022-06-26T15:00:14Z</time>
      </trkpt>
      <trkpt lat="45.76328" lon="4.83275">
        <ele>183.6</ele>
        <time>2022-06-26T15:00:15Z</time>
      </trkpt>
      <trkpt lat="45.76328" lon="4.83282">
        <ele>183.6</ele>
        <time>2022-06-26T15:00:16Z</time>
      </trkpt>
      <trkpt lat="45.76328" lon="4.83289">
        <ele>183.6</ele>
        <time>2022-06-26T15:00:17Z</time>
      </trkpt>
      <trkpt lat="45.76329" lon="4.83295">
        <ele>183.6</ele>
        <time>2022-06-26T15:00:18Z</time>
      </trkpt>
      <trkpt lat="45.76329" lon="4.833">
        <ele>183.6</ele>
        <time>2022-06-26T15:00:19Z</time>
      </trkpt>
      <trkpt lat="45.76329" lon="4.83305">
        <ele>183.6</ele>
        <time>2022-06-26T15:00:20Z</time>
      </trkpt>
      <trkpt lat="45.76329" lon="4.83308">
        <ele>183.6</ele>
        <time>2022-06-26T15:00:21Z</time>
      </trkpt>
      <trkpt lat="45.76329" lon="4.83311">
        <ele>183.6</ele>
        <time>2022-06-26T15:00:22Z</time>
      </trkpt>
      <trkpt lat="45.76328" lon="4.83312">
        <ele>183.6</ele>
        <time>2022-06-26T15:00:23Z</time>
      </trkpt>
      <trkpt lat="45.7633" lon="4.83314">
        <ele>183.4</ele>
        <time>2022-06-26T15:01:17Z</time>
      </trkpt>
      <trkpt lat="45.7633" lon="4.83317">
        <ele>183.4</ele>
        <time>2022-06-26T15:01:18Z</time>
      </trkpt>
      <trkpt lat="45.7633" lon="4.8332">
        <ele>183.4</ele>
        <time>2022-06-26T15:01:19Z</time>
      </trkpt>
      <trkpt lat="45.7633" lon="4.83323">
        <ele>183.4</ele>
        <time>2022-06-26T15:01:20Z</time>
      </trkpt>
      <trkpt lat="45.76329" lon="4.83326">
        <ele>183.4</ele>
        <time>2022-06-26T15:01:21Z</time>
      </trkpt>
      <trkpt lat="45.76329" lon="4.83331">
        <ele>183.4</ele>
        <time>2022-06-26T15:01:22Z</time>
      </trkpt>
      <trkpt lat="45.7633" lon="4.83336">
        <ele>183.4</ele>
        <time>2022-06-26T15:01:23Z</time>
      </trkpt>
      <trkpt lat="45.7633" lon="4.83342">
        <ele>183.6</ele>
        <time>2022-06-26T15:01:24Z</time>
      </trkpt>
      <trkpt lat="45.7633" lon="4.83347">
        <ele>183.6</ele>
        <time>2022-06-26T15:01:25Z</time>
      </trkpt>
      <trkpt lat="45.76331" lon="4.83352">
        <ele>183.6</ele>
        <time>2022-06-26T15:01:26Z</time>
      </trkpt>
      <trkpt lat="45.76331" lon="4.83357">
        <ele>183.6</ele>
        <time>2022-06-26T15:01:27Z</time>
      </trkpt>
      <trkpt lat="45.76331" lon="4.83362">
        <ele>183.6</ele>
        <time>2022-06-26T15:01:28Z</time>
      </trkpt>
      <trkpt lat="45.76331" lon="4.83368">
        <ele>183.6</ele>
        <time>2022-06-26T15:01:29Z</time>
      </trkpt>
      <trkpt lat="45.76332" lon="4.83374">
        <ele>183.6</ele>
        <time>2022-06-26T15:01:30Z</time>
      </trkpt>
      <trkpt lat="45.76332" lon="4.8338">
        <ele>183.8</ele>
        <time>2022-06-26T15:01:31Z</time>
      </trkpt>
      <trkpt lat="45.76333" lon="4.83387">
        <ele>183.8</ele>
        <time>2022-06-26T15:01:32Z</time>
      </trkpt>
      <trkpt lat="45.76333" lon="4.83393">
        <ele>183.8</ele>
        <time>2022-06-26T15:01:33Z</time>
      </trkpt>
      <trkpt lat="45.76333" lon="4.834">
        <ele>183.8</ele>
        <time>2022-06-26T15:01:34Z</time>
      </trkpt>
      <trkpt lat="45.76333" lon="4.83407">
        <ele>183.8</ele>
        <time>2022-06-26T15:01:35Z</time>
      </trkpt>
      <trkpt lat="45.76333" lon="4.83413">
        <ele>184.2</ele>
        <time>2022-06-26T15:01:36Z</time>
      </trkpt>
      <trkpt lat="45.76333" lon="4.83419">
        <ele>184.2</ele>
        <time>2022-06-26T15:01:37Z</time>
      </trkpt>
      <trkpt lat="45.76333" lon="4.83424">
        <ele>184.4</ele>
        <time>2022-06-26T15:01:38Z</time>
      </trkpt>
      <trkpt lat="45.76333" lon="4.8343">
        <ele>184.4</ele>
        <time>2022-06-26T15:01:39Z</time>
      </trkpt>
      <trkpt lat="45.76334" lon="4.83435">
        <ele>184.4</ele>
        <time>2022-06-26T15:01:40Z</time>
      </trkpt>
      <trkpt lat="45.76335" lon="4.83442">
        <ele>184.4</ele>
        <time>2022-06-26T15:01:41Z</time>
      </trkpt>
      <trkpt lat="45.76335" lon="4.8345">
        <ele>184.4</ele>
        <time>2022-06-26T15:01:42Z</time>
      </trkpt>
      <trkpt lat="45.76336" lon="4.83457">
        <ele>184.4</ele>
        <time>2022-06-26T15:01:43Z</time>
      </trkpt>
      <trkpt lat="45.76337" lon="4.83464">
        <ele>184.4</ele>
        <time>2022-06-26T15:01:44Z</time>
      </trkpt>
      <trkpt lat="45.76337" lon="4.83473">
        <ele>184.4</ele>
        <time>2022-06-26T15:01:45Z</time>
      </trkpt>
      <trkpt lat="45.76338" lon="4.83481">
        <ele>184.4</ele>
        <time>2022-06-26T15:01:46Z</time>
      </trkpt>
      <trkpt lat="45.76337" lon="4.83489">
        <ele>184.4</ele>
        <time>2022-06-26T15:01:47Z</time>
      </trkpt>
      <trkpt lat="45.76338" lon="4.83497">
        <ele>184.4</ele>
        <time>2022-06-26T15:01:48Z</time>
      </trkpt>
      <trkpt lat="45.76339" lon="4.83504">
        <ele>184.4</ele>
        <time>2022-06-26T15:01:49Z</time>
      </trkpt>
      <trkpt lat="45.76339" lon="4.83512">
        <ele>184.4</ele>
        <time>2022-06-26T15:01:50Z</time>
      </trkpt>
      <trkpt lat="45.7634" lon="4.8352">
        <ele>184.4</ele>
        <time>2022-06-26T15:01:51Z</time>
      </trkpt>
      <trkpt lat="45.7634" lon="4.83528">
        <ele>184.4</ele>
        <time>2022-06-26T15:01:52Z</time>
      </trkpt>
      <trkpt lat="45.76342" lon="4.83537">
        <ele>184.4</ele>
        <time>2022-06-26T15:01:53Z</time>
      </trkpt>
      <trkpt lat="45.76343" lon="4.83545">
        <ele>184.4</ele>
        <time>2022-06-26T15:01:54Z</time>
      </trkpt>
      <trkpt lat="45.76344" lon="4.83553">
        <ele>184.4</ele>
        <time>2022-06-26T15:01:55Z</time>
      </trkpt>
      <trkpt lat="45.76344" lon="4.83561">
        <ele>184.4</ele>
        <time>2022-06-26T15:01:56Z</time>
      </trkpt>
      <trkpt lat="45.76345" lon="4.83568">
        <ele>184.4</ele>
        <time>2022-06-26T15:01:57Z</time>
      </trkpt>
      <trkpt lat="45.76345" lon="4.83576">
        <ele>184.4</ele>
        <time>2022-06-26T15:01:58Z</time>
      </trkpt>
      <trkpt lat="45.76346" lon="4.83583">
        <ele>184.4</ele>
        <time>2022-06-26T15:01:59Z</time>
      </trkpt>
      <trkpt lat="45.76347" lon="4.8359">
        <ele>184.4</ele>
        <time>2022-06-26T15:02:00Z</time>
      </trkpt>
      <trkpt lat="45.76347" lon="4.83597">
        <ele>184.4</ele>
        <time>2022-06-26T15:02:01Z</time>
      </trkpt>
      <trkpt lat="45.76347" lon="4.83604">
        <ele>184.4</ele>
        <time>2022-06-26T15:02:02Z</time>
      </trkpt>
      <trkpt lat="45.76348" lon="4.8361">
        <ele>184.8</ele>
        <time>2022-06-26T15:02:03Z</time>
      </trkpt>
      <trkpt lat="45.76349" lon="4.83617">
        <ele>184.8</ele>
        <time>2022-06-26T15:02:04Z</time>
      </trkpt>
      <trkpt lat="45.7635" lon="4.83625">
        <ele>184.8</ele>
        <time>2022-06-26T15:02:05Z</time>
      </trkpt>
      <trkpt lat="45.7635" lon="4.83633">
        <ele>184.8</ele>
        <time>2022-06-26T15:02:06Z</time>
      </trkpt>
      <trkpt lat="45.7635" lon="4.83641">
        <ele>184.8</ele>
        <time>2022-06-26T15:02:07Z</time>
      </trkpt>
      <trkpt lat="45.76351" lon="4.83649">
        <ele>184.8</ele>
        <time>2022-06-26T15:02:08Z</time>
      </trkpt>
      <trkpt lat="45.76351" lon="4.83656">
        <ele>184.8</ele>
        <time>2022-06-26T15:02:09Z</time>
      </trkpt>
      <trkpt lat="45.76351" lon="4.83664">
        <ele>184.8</ele>
        <time>2022-06-26T15:02:10Z</time>
      </trkpt>
      <trkpt lat="45.76352" lon="4.83671">
        <ele>184.8</ele>
        <time>2022-06-26T15:02:11Z</time>
      </trkpt>
      <trkpt lat="45.76352" lon="4.83679">
        <ele>184.8</ele>
        <time>2022-06-26T15:02:12Z</time>
      </trkpt>
      <trkpt lat="45.76352" lon="4.83687">
        <ele>184.8</ele>
        <time>2022-06-26T15:02:13Z</time>
      </trkpt>
      <trkpt lat="45.76351" lon="4.83694">
        <ele>184.8</ele>
        <time>2022-06-26T15:02:14Z</time>
      </trkpt>
      <trkpt lat="45.7635" lon="4.83701">
        <ele>184.8</ele>
        <time>2022-06-26T15:02:15Z</time>
      </trkpt>
      <trkpt lat="45.7635" lon="4.83709">
        <ele>184.4</ele>
        <time>2022-06-26T15:02:16Z</time>
      </trkpt>
      <trkpt lat="45.7635" lon="4.83716">
        <ele>184.4</ele>
        <time>2022-06-26T15:02:17Z</time>
      </trkpt>
      <trkpt lat="45.7635" lon="4.83723">
        <ele>184.4</ele>
        <time>2022-06-26T15:02:18Z</time>
      </trkpt>
      <trkpt lat="45.76351" lon="4.8373">
        <ele>184.4</ele>
        <time>2022-06-26T15:02:19Z</time>
      </trkpt>
      <trkpt lat="45.76351" lon="4.83737">
        <ele>184.4</ele>
        <time>2022-06-26T15:02:20Z</time>
      </trkpt>
      <trkpt lat="45.76351" lon="4.83744">
        <ele>184.4</ele>
        <time>2022-06-26T15:02:21Z</time>
      </trkpt>
      <trkpt lat="45.76351" lon="4.83751">
        <ele>184.4</ele>
        <time>2022-06-26T15:02:22Z</time>
      </trkpt>
      <trkpt lat="45.76351" lon="4.83758">
        <ele>184.4</ele>
        <time>2022-06-26T15:02:23Z</time>
      </trkpt>
      <trkpt lat="45.76351" lon="4.83764">
        <ele>184.8</ele>
        <time>2022-06-26T15:02:24Z</time>
      </trkpt>
      <trkpt lat="45.76352" lon="4.8377">
        <ele>184.8</ele>
        <time>2022-06-26T15:02:25Z</time>
      </trkpt>
      <trkpt lat="45.76352" lon="4.83777">
        <ele>184.8</ele>
        <time>2022-06-26T15:02:26Z</time>
      </trkpt>
      <trkpt lat="45.76352" lon="4.83783">
        <ele>185</ele>
        <time>2022-06-26T15:02:27Z</time>
      </trkpt>
      <trkpt lat="45.76352" lon="4.83791">
        <ele>185</ele>
        <time>2022-06-26T15:02:28Z</time>
      </trkpt>
      <trkpt lat="45.76352" lon="4.83798">
        <ele>185.4</ele>
        <time>2022-06-26T15:02:29Z</time>
      </trkpt>
      <trkpt lat="45.76352" lon="4.83806">
        <ele>185.4</ele>
        <time>2022-06-26T15:02:30Z</time>
      </trkpt>
      <trkpt lat="45.76352" lon="4.83813">
        <ele>185.6</ele>
        <time>2022-06-26T15:02:31Z</time>
      </trkpt>
      <trkpt lat="45.76351" lon="4.8382">
        <ele>185.6</ele>
        <time>2022-06-26T15:02:32Z</time>
      </trkpt>
      <trkpt lat="45.76351" lon="4.83828">
        <ele>186</ele>
        <time>2022-06-26T15:02:33Z</time>
      </trkpt>
      <trkpt lat="45.76351" lon="4.83835">
        <ele>186</ele>
        <time>2022-06-26T15:02:34Z</time>
      </trkpt>
      <trkpt lat="45.76351" lon="4.83843">
        <ele>186.2</ele>
        <time>2022-06-26T15:02:35Z</time>
      </trkpt>
      <trkpt lat="45.76351" lon="4.8385">
        <ele>186.2</ele>
        <time>2022-06-26T15:02:36Z</time>
      </trkpt>
      <trkpt lat="45.76351" lon="4.83857">
        <ele>186.4</ele>
        <time>2022-06-26T15:02:37Z</time>
      </trkpt>
      <trkpt lat="45.76352" lon="4.83864">
        <ele>186.4</ele>
        <time>2022-06-26T15:02:38Z</time>
      </trkpt>
      <trkpt lat="45.76352" lon="4.83871">
        <ele>186.4</ele>
        <time>2022-06-26T15:02:39Z</time>
      </trkpt>
      <trkpt lat="45.76352" lon="4.83877">
        <ele>186.8</ele>
        <time>2022-06-26T15:02:40Z</time>
      </trkpt>
      <trkpt lat="45.76352" lon="4.83884">
        <ele>186.8</ele>
        <time>2022-06-26T15:02:41Z</time>
      </trkpt>
      <trkpt lat="45.76351" lon="4.8389">
        <ele>186.8</ele>
        <time>2022-06-26T15:02:42Z</time>
      </trkpt>
      <trkpt lat="45.76351" lon="4.83897">
        <ele>186.8</ele>
        <time>2022-06-26T15:02:43Z</time>
      </trkpt>
      <trkpt lat="45.76351" lon="4.83903">
        <ele>186.8</ele>
        <time>2022-06-26T15:02:44Z</time>
      </trkpt>
      <trkpt lat="45.76351" lon="4.83909">
        <ele>187</ele>
        <time>2022-06-26T15:02:45Z</time>
      </trkpt>
      <trkpt lat="45.76351" lon="4.83916">
        <ele>187</ele>
        <time>2022-06-26T15:02:46Z</time>
      </trkpt>
      <trkpt lat="45.76351" lon="4.83922">
        <ele>187</ele>
        <time>2022-06-26T15:02:47Z</time>
      </trkpt>
      <trkpt lat="45.76351" lon="4.83929">
        <ele>187.2</ele>
        <time>2022-06-26T15:02:48Z</time>
      </trkpt>
      <trkpt lat="45.76351" lon="4.83935">
        <ele>187.2</ele>
        <time>2022-06-26T15:02:49Z</time>
      </trkpt>
      <trkpt lat="45.76352" lon="4.83941">
        <ele>187.2</ele>
        <time>2022-06-26T15:02:50Z</time>
      </trkpt>
      <trkpt lat="45.76352" lon="4.83948">
        <ele>187.2</ele>
        <time>2022-06-26T15:02:51Z</time>
      </trkpt>
      <trkpt lat="45.76352" lon="4.83954">
        <ele>187.2</ele>
        <time>2022-06-26T15:02:52Z</time>
      </trkpt>
      <trkpt lat="45.76353" lon="4.8396">
        <ele>187.2</ele>
        <time>2022-06-26T15:02:53Z</time>
      </trkpt>
      <trkpt lat="45.76353" lon="4.83967">
        <ele>187.2</ele>
        <time>2022-06-26T15:02:54Z</time>
      </trkpt>
      <trkpt lat="45.76353" lon="4.83973">
        <ele>187.2</ele>
        <time>2022-06-26T15:02:55Z</time>
      </trkpt>
      <trkpt lat="45.76353" lon="4.8398">
        <ele>187.2</ele>
        <time>2022-06-26T15:02:56Z</time>
      </trkpt>
      <trkpt lat="45.76353" lon="4.83987">
        <ele>187.2</ele>
        <time>2022-06-26T15:02:57Z</time>
      </trkpt>
      <trkpt lat="45.76353" lon="4.83993">
        <ele>187.4</ele>
        <time>2022-06-26T15:02:58Z</time>
      </trkpt>
      <trkpt lat="45.76353" lon="4.84">
        <ele>187.4</ele>
        <time>2022-06-26T15:02:59Z</time>
      </trkpt>
      <trkpt lat="45.76353" lon="4.84007">
        <ele>187.4</ele>
        <time>2022-06-26T15:03:00Z</time>
      </trkpt>
      <trkpt lat="45.76353" lon="4.84014">
        <ele>187.4</ele>
        <time>2022-06-26T15:03:01Z</time>
      </trkpt>
      <trkpt lat="45.76353" lon="4.84021">
        <ele>187.4</ele>
        <time>2022-06-26T15:03:02Z</time>
      </trkpt>
      <trkpt lat="45.76353" lon="4.84028">
        <ele>187.8</ele>
        <time>2022-06-26T15:03:03Z</time>
      </trkpt>
      <trkpt lat="45.76353" lon="4.84035">
        <ele>187.8</ele>
        <time>2022-06-26T15:03:04Z</time>
      </trkpt>
      <trkpt lat="45.76353" lon="4.84042">
        <ele>187.8</ele>
        <time>2022-06-26T15:03:05Z</time>
      </trkpt>
      <trkpt lat="45.76353" lon="4.84049">
        <ele>187.8</ele>
        <time>2022-06-26T15:03:06Z</time>
      </trkpt>
      <trkpt lat="45.76354" lon="4.84056">
        <ele>187.8</ele>
        <time>2022-06-26T15:03:07Z</time>
      </trkpt>
      <trkpt lat="45.76354" lon="4.84062">
        <ele>187.8</ele>
        <time>2022-06-26T15:03:08Z</time>
      </trkpt>
      <trkpt lat="45.76354" lon="4.84069">
        <ele>187.4</ele>
        <time>2022-06-26T15:03:09Z</time>
      </trkpt>
      <trkpt lat="45.76354" lon="4.84075">
        <ele>187.4</ele>
        <time>2022-06-26T15:03:10Z</time>
      </trkpt>
      <trkpt lat="45.76354" lon="4.84082">
        <ele>187.4</ele>
        <time>2022-06-26T15:03:11Z</time>
      </trkpt>
      <trkpt lat="45.76354" lon="4.84088">
        <ele>187.4</ele>
        <time>2022-06-26T15:03:12Z</time>
      </trkpt>
      <trkpt lat="45.76354" lon="4.84094">
        <ele>187.4</ele>
        <time>2022-06-26T15:03:13Z</time>
      </trkpt>
      <trkpt lat="45.76354" lon="4.841">
        <ele>187.4</ele>
        <time>2022-06-26T15:03:14Z</time>
      </trkpt>
      <trkpt lat="45.76353" lon="4.84106">
        <ele>187.2</ele>
        <time>2022-06-26T15:03:15Z</time>
      </trkpt>
      <trkpt lat="45.76353" lon="4.84111">
        <ele>187.2</ele>
        <time>2022-06-26T15:03:16Z</time>
      </trkpt>
      <trkpt lat="45.76352" lon="4.84115">
        <ele>187.2</ele>
        <time>2022-06-26T15:03:17Z</time>
      </trkpt>
      <trkpt lat="45.76351" lon="4.84119">
        <ele>187</ele>
        <time>2022-06-26T15:03:18Z</time>
      </trkpt>
      <trkpt lat="45.7635" lon="4.84122">
        <ele>187</ele>
        <time>2022-06-26T15:03:19Z</time>
      </trkpt>
      <trkpt lat="45.76349" lon="4.84126">
        <ele>187</ele>
        <time>2022-06-26T15:03:20Z</time>
      </trkpt>
      <trkpt lat="45.76348" lon="4.84129">
        <ele>187</ele>
        <time>2022-06-26T15:03:21Z</time>
      </trkpt>
      <trkpt lat="45.76346" lon="4.84132">
        <ele>187</ele>
        <time>2022-06-26T15:03:22Z</time>
      </trkpt>
      <trkpt lat="45.76344" lon="4.84134">
        <ele>186.8</ele>
        <time>2022-06-26T15:03:23Z</time>
      </trkpt>
      <trkpt lat="45.7634" lon="4.84133">
        <ele>186.8</ele>
        <time>2022-06-26T15:03:24Z</time>
      </trkpt>
      <trkpt lat="45.76337" lon="4.84133">
        <ele>186.8</ele>
        <time>2022-06-26T15:03:25Z</time>
      </trkpt>
      <trkpt lat="45.76333" lon="4.84132">
        <ele>186.4</ele>
        <time>2022-06-26T15:03:26Z</time>
      </trkpt>
      <trkpt lat="45.76328" lon="4.84131">
        <ele>186.4</ele>
        <time>2022-06-26T15:03:27Z</time>
      </trkpt>
      <trkpt lat="45.76324" lon="4.84131">
        <ele>186.4</ele>
        <time>2022-06-26T15:03:28Z</time>
      </trkpt>
      <trkpt lat="45.76319" lon="4.84131">
        <ele>186.4</ele>
        <time>2022-06-26T15:03:29Z</time>
      </trkpt>
      <trkpt lat="45.76314" lon="4.8413">
        <ele>186.4</ele>
        <time>2022-06-26T15:03:30Z</time>
      </trkpt>
      <trkpt lat="45.76309" lon="4.8413">
        <ele>186.4</ele>
        <time>2022-06-26T15:03:31Z</time>
      </trkpt>
      <trkpt lat="45.76304" lon="4.84129">
        <ele>186.2</ele>
        <time>2022-06-26T15:03:32Z</time>
      </trkpt>
      <trkpt lat="45.763" lon="4.84129">
        <ele>186.2</ele>
        <time>2022-06-26T15:03:33Z</time>
      </trkpt>
      <trkpt lat="45.76295" lon="4.84128">
        <ele>186.2</ele>
        <time>2022-06-26T15:03:34Z</time>
      </trkpt>
      <trkpt lat="45.7629" lon="4.84128">
        <ele>186.2</ele>
        <time>2022-06-26T15:03:35Z</time>
      </trkpt>
      <trkpt lat="45.76284" lon="4.84127">
        <ele>186.2</ele>
        <time>2022-06-26T15:03:36Z</time>
      </trkpt>
      <trkpt lat="45.76279" lon="4.84127">
        <ele>186.2</ele>
        <time>2022-06-26T15:03:37Z</time>
      </trkpt>
      <trkpt lat="45.76274" lon="4.84126">
        <ele>186.2</ele>
        <time>2022-06-26T15:03:38Z</time>
      </trkpt>
      <trkpt lat="45.76268" lon="4.84125">
        <ele>186.2</ele>
        <time>2022-06-26T15:03:39Z</time>
      </trkpt>
      <trkpt lat="45.76263" lon="4.84124">
        <ele>186.2</ele>
        <time>2022-06-26T15:03:40Z</time>
      </trkpt>
      <trkpt lat="45.76258" lon="4.84124">
        <ele>186</ele>
        <time>2022-06-26T15:03:41Z</time>
      </trkpt>
      <trkpt lat="45.76253" lon="4.84123">
        <ele>186</ele>
        <time>2022-06-26T15:03:42Z</time>
      </trkpt>
      <trkpt lat="45.76248" lon="4.84123">
        <ele>186</ele>
        <time>2022-06-26T15:03:43Z</time>
      </trkpt>
      <trkpt lat="45.76242" lon="4.84122">
        <ele>186</ele>
        <time>2022-06-26T15:03:44Z</time>
      </trkpt>
      <trkpt lat="45.76237" lon="4.84121">
        <ele>186</ele>
        <time>2022-06-26T15:03:45Z</time>
      </trkpt>
      <trkpt lat="45.76232" lon="4.8412">
        <ele>186</ele>
        <time>2022-06-26T15:03:46Z</time>
      </trkpt>
      <trkpt lat="45.76226" lon="4.84119">
        <ele>186</ele>
        <time>2022-06-26T15:03:47Z</time>
      </trkpt>
      <trkpt lat="45.76221" lon="4.84118">
        <ele>186</ele>
        <time>2022-06-26T15:03:48Z</time>
      </trkpt>
      <trkpt lat="45.76215" lon="4.84118">
        <ele>186</ele>
        <time>2022-06-26T15:03:49Z</time>
      </trkpt>
      <trkpt lat="45.7621" lon="4.84117">
        <ele>186</ele>
        <time>2022-06-26T15:03:50Z</time>
      </trkpt>
      <trkpt lat="45.76204" lon="4.84116">
        <ele>185.8</ele>
        <time>2022-06-26T15:03:51Z</time>
      </trkpt>
      <trkpt lat="45.76199" lon="4.84116">
        <ele>185.8</ele>
        <time>2022-06-26T15:03:52Z</time>
      </trkpt>
      <trkpt lat="45.76195" lon="4.84116">
        <ele>185.8</ele>
        <time>2022-06-26T15:03:53Z</time>
      </trkpt>
      <trkpt lat="45.7619" lon="4.84116">
        <ele>185.8</ele>
        <time>2022-06-26T15:03:54Z</time>
      </trkpt>
      <trkpt lat="45.76186" lon="4.84116">
        <ele>185.8</ele>
        <time>2022-06-26T15:03:55Z</time>
      </trkpt>
      <trkpt lat="45.76181" lon="4.84116">
        <ele>185.8</ele>
        <time>2022-06-26T15:03:56Z</time>
      </trkpt>
      <trkpt lat="45.76177" lon="4.84116">
        <ele>185.8</ele>
        <time>2022-06-26T15:03:57Z</time>
      </trkpt>
      <trkpt lat="45.76172" lon="4.84116">
        <ele>185.8</ele>
        <time>2022-06-26T15:03:58Z</time>
      </trkpt>
      <trkpt lat="45.76168" lon="4.84117">
        <ele>185.8</ele>
        <time>2022-06-26T15:03:59Z</time>
      </trkpt>
      <trkpt lat="45.76164" lon="4.84116">
        <ele>185.8</ele>
        <time>2022-06-26T15:04:00Z</time>
      </trkpt>
      <trkpt lat="45.76159" lon="4.84116">
        <ele>185.8</ele>
        <time>2022-06-26T15:04:01Z</time>
      </trkpt>
      <trkpt lat="45.76155" lon="4.84116">
        <ele>185.8</ele>
        <time>2022-06-26T15:04:02Z</time>
      </trkpt>
      <trkpt lat="45.76151" lon="4.84116">
        <ele>185.8</ele>
        <time>2022-06-26T15:04:03Z</time>
      </trkpt>
      <trkpt lat="45.76147" lon="4.84116">
        <ele>185.8</ele>
        <time>2022-06-26T15:04:04Z</time>
      </trkpt>
      <trkpt lat="45.76144" lon="4.84116">
        <ele>185.8</ele>
        <time>2022-06-26T15:04:05Z</time>
      </trkpt>
      <trkpt lat="45.7614" lon="4.84115">
        <ele>185.8</ele>
        <time>2022-06-26T15:04:06Z</time>
      </trkpt>
      <trkpt lat="45.76138" lon="4.84115">
        <ele>185.8</ele>
        <time>2022-06-26T15:04:07Z</time>
      </trkpt>
      <trkpt lat="45.76136" lon="4.84117">
        <ele>185.8</ele>
        <time>2022-06-26T15:04:08Z</time>
      </trkpt>
      <trkpt lat="45.76136" lon="4.84118">
        <ele>186</ele>
        <time>2022-06-26T15:04:09Z</time>
      </trkpt>
      <trkpt lat="45.76136" lon="4.84119">
        <ele>186</ele>
        <time>2022-06-26T15:04:10Z</time>
      </trkpt>
      <trkpt lat="45.76134" lon="4.84125">
        <ele>186</ele>
        <time>2022-06-26T15:05:07Z</time>
      </trkpt>
      <trkpt lat="45.76135" lon="4.84129">
        <ele>186</ele>
        <time>2022-06-26T15:05:08Z</time>
      </trkpt>
      <trkpt lat="45.76135" lon="4.84133">
        <ele>186</ele>
        <time>2022-06-26T15:05:09Z</time>
      </trkpt>
      <trkpt lat="45.76135" lon="4.84138">
        <ele>186</ele>
        <time>2022-06-26T15:05:10Z</time>
      </trkpt>
      <trkpt lat="45.76135" lon="4.84144">
        <ele>186</ele>
        <time>2022-06-26T15:05:11Z</time>
      </trkpt>
      <trkpt lat="45.76135" lon="4.8415">
        <ele>186</ele>
        <time>2022-06-26T15:05:12Z</time>
      </trkpt>
      <trkpt lat="45.76136" lon="4.84155">
        <ele>186</ele>
        <time>2022-06-26T15:05:13Z</time>
      </trkpt>
      <trkpt lat="45.76136" lon="4.84161">
        <ele>186</ele>
        <time>2022-06-26T15:05:14Z</time>
      </trkpt>
      <trkpt lat="45.76136" lon="4.84168">
        <ele>186</ele>
        <time>2022-06-26T15:05:15Z</time>
      </trkpt>
      <trkpt lat="45.76137" lon="4.84174">
        <ele>185.8</ele>
        <time>2022-06-26T15:05:16Z</time>
      </trkpt>
      <trkpt lat="45.76137" lon="4.84179">
        <ele>185.8</ele>
        <time>2022-06-26T15:05:17Z</time>
      </trkpt>
      <trkpt lat="45.76137" lon="4.84184">
        <ele>185.8</ele>
        <time>2022-06-26T15:05:18Z</time>
      </trkpt>
      <trkpt lat="45.76137" lon="4.84187">
        <ele>185.4</ele>
        <time>2022-06-26T15:05:19Z</time>
      </trkpt>
      <trkpt lat="45.76137" lon="4.84189">
        <ele>185.4</ele>
        <time>2022-06-26T15:05:20Z</time>
      </trkpt>
      <trkpt lat="45.76137" lon="4.8419">
        <ele>185.4</ele>
        <time>2022-06-26T15:05:21Z</time>
      </trkpt>
      <trkpt lat="45.76137" lon="4.84191">
        <ele>185.2</ele>
        <time>2022-06-26T15:05:22Z</time>
      </trkpt>
      <trkpt lat="45.76137" lon="4.84196">
        <ele>185.2</ele>
        <time>2022-06-26T15:05:49Z</time>
      </trkpt>
      <trkpt lat="45.76137" lon="4.84199">
        <ele>185.2</ele>
        <time>2022-06-26T15:05:50Z</time>
      </trkpt>
      <trkpt lat="45.76137" lon="4.84203">
        <ele>185.2</ele>
        <time>2022-06-26T15:05:51Z</time>
      </trkpt>
      <trkpt lat="45.76138" lon="4.84207">
        <ele>185.2</ele>
        <time>2022-06-26T15:05:52Z</time>
      </trkpt>
      <trkpt lat="45.76138" lon="4.84212">
        <ele>185.2</ele>
        <time>2022-06-26T15:05:53Z</time>
      </trkpt>
      <trkpt lat="45.76138" lon="4.84217">
        <ele>185.6</ele>
        <time>2022-06-26T15:05:54Z</time>
      </trkpt>
      <trkpt lat="45.76138" lon="4.84224">
        <ele>185.6</ele>
        <time>2022-06-26T15:05:55Z</time>
      </trkpt>
      <trkpt lat="45.76138" lon="4.8423">
        <ele>185.6</ele>
        <time>2022-06-26T15:05:56Z</time>
      </trkpt>
      <trkpt lat="45.76138" lon="4.84237">
        <ele>185.2</ele>
        <time>2022-06-26T15:05:57Z</time>
      </trkpt>
      <trkpt lat="45.76138" lon="4.84243">
        <ele>185.2</ele>
        <time>2022-06-26T15:05:58Z</time>
      </trkpt>
      <trkpt lat="45.76139" lon="4.84249">
        <ele>185.2</ele>
        <time>2022-06-26T15:05:59Z</time>
      </trkpt>
      <trkpt lat="45.76139" lon="4.84255">
        <ele>185.2</ele>
        <time>2022-06-26T15:06:00Z</time>
      </trkpt>
      <trkpt lat="45.7614" lon="4.84261">
        <ele>185.2</ele>
        <time>2022-06-26T15:06:01Z</time>
      </trkpt>
      <trkpt lat="45.7614" lon="4.84267">
        <ele>185.2</ele>
        <time>2022-06-26T15:06:02Z</time>
      </trkpt>
      <trkpt lat="45.7614" lon="4.84273">
        <ele>185.2</ele>
        <time>2022-06-26T15:06:03Z</time>
      </trkpt>
      <trkpt lat="45.76141" lon="4.84279">
        <ele>185</ele>
        <time>2022-06-26T15:06:04Z</time>
      </trkpt>
      <trkpt lat="45.76141" lon="4.84285">
        <ele>185</ele>
        <time>2022-06-26T15:06:05Z</time>
      </trkpt>
      <trkpt lat="45.76142" lon="4.84291">
        <ele>185</ele>
        <time>2022-06-26T15:06:06Z</time>
      </trkpt>
      <trkpt lat="45.76143" lon="4.84297">
        <ele>185</ele>
        <time>2022-06-26T15:06:07Z</time>
      </trkpt>
      <trkpt lat="45.76143" lon="4.84304">
        <ele>185</ele>
        <time>2022-06-26T15:06:08Z</time>
      </trkpt>
      <trkpt lat="45.76144" lon="4.8431">
        <ele>185</ele>
        <time>2022-06-26T15:06:09Z</time>
      </trkpt>
      <trkpt lat="45.76145" lon="4.84316">
        <ele>184.6</ele>
        <time>2022-06-26T15:06:10Z</time>
      </trkpt>
      <trkpt lat="45.76146" lon="4.84323">
        <ele>184.6</ele>
        <time>2022-06-26T15:06:11Z</time>
      </trkpt>
      <trkpt lat="45.76146" lon="4.8433">
        <ele>184.4</ele>
        <time>2022-06-26T15:06:12Z</time>
      </trkpt>
      <trkpt lat="45.76146" lon="4.84336">
        <ele>184.4</ele>
        <time>2022-06-26T15:06:13Z</time>
      </trkpt>
      <trkpt lat="45.76147" lon="4.84341">
        <ele>184.4</ele>
        <time>2022-06-26T15:06:14Z</time>
      </trkpt>
      <trkpt lat="45.76147" lon="4.84347">
        <ele>184.4</ele>
        <time>2022-06-26T15:06:15Z</time>
      </trkpt>
      <trkpt lat="45.76147" lon="4.84353">
        <ele>184.4</ele>
        <time>2022-06-26T15:06:16Z</time>
      </trkpt>
      <trkpt lat="45.76147" lon="4.84359">
        <ele>184.2</ele>
        <time>2022-06-26T15:06:17Z</time>
      </trkpt>
      <trkpt lat="45.76148" lon="4.84365">
        <ele>184.2</ele>
        <time>2022-06-26T15:06:18Z</time>
      </trkpt>
      <trkpt lat="45.76148" lon="4.8437">
        <ele>184.2</ele>
        <time>2022-06-26T15:06:19Z</time>
      </trkpt>
      <trkpt lat="45.7615" lon="4.84376">
        <ele>184.2</ele>
        <time>2022-06-26T15:06:20Z</time>
      </trkpt>
      <trkpt lat="45.76151" lon="4.84381">
        <ele>184</ele>
        <time>2022-06-26T15:06:21Z</time>
      </trkpt>
      <trkpt lat="45.76152" lon="4.84387">
        <ele>184</ele>
        <time>2022-06-26T15:06:22Z</time>
      </trkpt>
      <trkpt lat="45.76154" lon="4.84393">
        <ele>184</ele>
        <time>2022-06-26T15:06:23Z</time>
      </trkpt>
      <trkpt lat="45.76155" lon="4.84401">
        <ele>184</ele>
        <time>2022-06-26T15:06:24Z</time>
      </trkpt>
      <trkpt lat="45.76156" lon="4.84409">
        <ele>184</ele>
        <time>2022-06-26T15:06:25Z</time>
      </trkpt>
      <trkpt lat="45.76157" lon="4.84416">
        <ele>184</ele>
        <time>2022-06-26T15:06:26Z</time>
      </trkpt>
      <trkpt lat="45.76157" lon="4.84424">
        <ele>184</ele>
        <time>2022-06-26T15:06:27Z</time>
      </trkpt>
      <trkpt lat="45.76158" lon="4.84432">
        <ele>183.8</ele>
        <time>2022-06-26T15:06:28Z</time>
      </trkpt>
      <trkpt lat="45.76158" lon="4.8444">
        <ele>183.8</ele>
        <time>2022-06-26T15:06:29Z</time>
      </trkpt>
      <trkpt lat="45.76159" lon="4.84447">
        <ele>183.8</ele>
        <time>2022-06-26T15:06:30Z</time>
      </trkpt>
      <trkpt lat="45.76159" lon="4.84454">
        <ele>183.8</ele>
        <time>2022-06-26T15:06:31Z</time>
      </trkpt>
      <trkpt lat="45.76159" lon="4.84461">
        <ele>183.8</ele>
        <time>2022-06-26T15:06:32Z</time>
      </trkpt>
      <trkpt lat="45.76159" lon="4.84471">
        <ele>183.8</ele>
        <time>2022-06-26T15:06:33Z</time>
      </trkpt>
      <trkpt lat="45.76158" lon="4.84479">
        <ele>183.8</ele>
        <time>2022-06-26T15:06:34Z</time>
      </trkpt>
      <trkpt lat="45.76158" lon="4.84486">
        <ele>183.8</ele>
        <time>2022-06-26T15:06:35Z</time>
      </trkpt>
      <trkpt lat="45.76159" lon="4.84494">
        <ele>183.8</ele>
        <time>2022-06-26T15:06:36Z</time>
      </trkpt>
      <trkpt lat="45.76159" lon="4.84501">
        <ele>183.8</ele>
        <time>2022-06-26T15:06:37Z</time>
      </trkpt>
      <trkpt lat="45.76159" lon="4.84509">
        <ele>183.8</ele>
        <time>2022-06-26T15:06:38Z</time>
      </trkpt>
      <trkpt lat="45.7616" lon="4.84516">
        <ele>183.8</ele>
        <time>2022-06-26T15:06:39Z</time>
      </trkpt>
      <trkpt lat="45.7616" lon="4.84523">
        <ele>183.8</ele>
        <time>2022-06-26T15:06:40Z</time>
      </trkpt>
      <trkpt lat="45.7616" lon="4.8453">
        <ele>183.8</ele>
        <time>2022-06-26T15:06:41Z</time>
      </trkpt>
      <trkpt lat="45.7616" lon="4.84537">
        <ele>183.8</ele>
        <time>2022-06-26T15:06:42Z</time>
      </trkpt>
      <trkpt lat="45.76161" lon="4.84544">
        <ele>183.8</ele>
        <time>2022-06-26T15:06:43Z</time>
      </trkpt>
      <trkpt lat="45.76161" lon="4.84552">
        <ele>183.8</ele>
        <time>2022-06-26T15:06:44Z</time>
      </trkpt>
      <trkpt lat="45.76161" lon="4.8456">
        <ele>183.8</ele>
        <time>2022-06-26T15:06:45Z</time>
      </trkpt>
      <trkpt lat="45.76162" lon="4.84568">
        <ele>183.8</ele>
        <time>2022-06-26T15:06:46Z</time>
      </trkpt>
      <trkpt lat="45.76163" lon="4.84576">
        <ele>183.8</ele>
        <time>2022-06-26T15:06:47Z</time>
      </trkpt>
      <trkpt lat="45.76163" lon="4.84585">
        <ele>183.8</ele>
        <time>2022-06-26T15:06:48Z</time>
      </trkpt>
      <trkpt lat="45.76164" lon="4.84594">
        <ele>183.8</ele>
        <time>2022-06-26T15:06:49Z</time>
      </trkpt>
      <trkpt lat="45.76166" lon="4.84603">
        <ele>184</ele>
        <time>2022-06-26T15:06:50Z</time>
      </trkpt>
      <trkpt lat="45.76167" lon="4.84612">
        <ele>184</ele>
        <time>2022-06-26T15:06:51Z</time>
      </trkpt>
      <trkpt lat="45.76168" lon="4.8462">
        <ele>184</ele>
        <time>2022-06-26T15:06:52Z</time>
      </trkpt>
      <trkpt lat="45.76169" lon="4.84628">
        <ele>184</ele>
        <time>2022-06-26T15:06:53Z</time>
      </trkpt>
      <trkpt lat="45.76169" lon="4.84637">
        <ele>184</ele>
        <time>2022-06-26T15:06:54Z</time>
      </trkpt>
      <trkpt lat="45.7617" lon="4.84644">
        <ele>184</ele>
        <time>2022-06-26T15:06:55Z</time>
      </trkpt>
      <trkpt lat="45.7617" lon="4.84652">
        <ele>184</ele>
        <time>2022-06-26T15:06:56Z</time>
      </trkpt>
      <trkpt lat="45.76171" lon="4.84659">
        <ele>184</ele>
        <time>2022-06-26T15:06:57Z</time>
      </trkpt>
      <trkpt lat="45.76171" lon="4.84666">
        <ele>184</ele>
        <time>2022-06-26T15:06:58Z</time>
      </trkpt>
      <trkpt lat="45.76172" lon="4.84673">
        <ele>184</ele>
        <time>2022-06-26T15:06:59Z</time>
      </trkpt>
      <trkpt lat="45.76172" lon="4.8468">
        <ele>184</ele>
        <time>2022-06-26T15:07:00Z</time>
      </trkpt>
      <trkpt lat="45.76172" lon="4.84687">
        <ele>184</ele>
        <time>2022-06-26T15:07:01Z</time>
      </trkpt>
      <trkpt lat="45.76173" lon="4.84695">
        <ele>184</ele>
        <time>2022-06-26T15:07:02Z</time>
      </trkpt>
      <trkpt lat="45.76173" lon="4.84702">
        <ele>184</ele>
        <time>2022-06-26T15:07:03Z</time>
      </trkpt>
      <trkpt lat="45.76173" lon="4.84709">
        <ele>184.2</ele>
        <time>2022-06-26T15:07:04Z</time>
      </trkpt>
      <trkpt lat="45.76174" lon="4.84717">
        <ele>184.2</ele>
        <time>2022-06-26T15:07:05Z</time>
      </trkpt>
      <trkpt lat="45.76174" lon="4.84724">
        <ele>184.2</ele>
        <time>2022-06-26T15:07:06Z</time>
      </trkpt>
      <trkpt lat="45.76175" lon="4.84731">
        <ele>184.2</ele>
        <time>2022-06-26T15:07:07Z</time>
      </trkpt>
      <trkpt lat="45.76175" lon="4.84738">
        <ele>184.2</ele>
        <time>2022-06-26T15:07:08Z</time>
      </trkpt>
      <trkpt lat="45.76175" lon="4.84746">
        <ele>184.2</ele>
        <time>2022-06-26T15:07:09Z</time>
      </trkpt>
      <trkpt lat="45.76176" lon="4.84753">
        <ele>184.2</ele>
        <time>2022-06-26T15:07:10Z</time>
      </trkpt>
      <trkpt lat="45.76178" lon="4.8476">
        <ele>184</ele>
        <time>2022-06-26T15:07:11Z</time>
      </trkpt>
      <trkpt lat="45.76178" lon="4.84767">
        <ele>184</ele>
        <time>2022-06-26T15:07:12Z</time>
      </trkpt>
      <trkpt lat="45.76179" lon="4.84774">
        <ele>184</ele>
        <time>2022-06-26T15:07:13Z</time>
      </trkpt>
      <trkpt lat="45.7618" lon="4.84781">
        <ele>183.8</ele>
        <time>2022-06-26T15:07:14Z</time>
      </trkpt>
      <trkpt lat="45.76181" lon="4.84788">
        <ele>183.8</ele>
        <time>2022-06-26T15:07:15Z</time>
      </trkpt>
      <trkpt lat="45.76182" lon="4.84795">
        <ele>183.8</ele>
        <time>2022-06-26T15:07:16Z</time>
      </trkpt>
      <trkpt lat="45.76182" lon="4.84801">
        <ele>184</ele>
        <time>2022-06-26T15:07:17Z</time>
      </trkpt>
      <trkpt lat="45.76183" lon="4.84808">
        <ele>184</ele>
        <time>2022-06-26T15:07:18Z</time>
      </trkpt>
      <trkpt lat="45.76184" lon="4.84815">
        <ele>184</ele>
        <time>2022-06-26T15:07:19Z</time>
      </trkpt>
      <trkpt lat="45.76184" lon="4.84821">
        <ele>184</ele>
        <time>2022-06-26T15:07:20Z</time>
      </trkpt>
      <trkpt lat="45.76185" lon="4.84828">
        <ele>184</ele>
        <time>2022-06-26T15:07:21Z</time>
      </trkpt>
      <trkpt lat="45.76186" lon="4.84835">
        <ele>184</ele>
        <time>2022-06-26T15:07:22Z</time>
      </trkpt>
      <trkpt lat="45.76186" lon="4.84842">
        <ele>184.2</ele>
        <time>2022-06-26T15:07:23Z</time>
      </trkpt>
      <trkpt lat="45.76186" lon="4.8485">
        <ele>184.2</ele>
        <time>2022-06-26T15:07:24Z</time>
      </trkpt>
      <trkpt lat="45.76187" lon="4.84857">
        <ele>184.2</ele>
        <time>2022-06-26T15:07:25Z</time>
      </trkpt>
      <trkpt lat="45.76187" lon="4.84864">
        <ele>184.2</ele>
        <time>2022-06-26T15:07:26Z</time>
      </trkpt>
      <trkpt lat="45.76187" lon="4.84871">
        <ele>184.2</ele>
        <time>2022-06-26T15:07:27Z</time>
      </trkpt>
      <trkpt lat="45.76188" lon="4.84878">
        <ele>184.2</ele>
        <time>2022-06-26T15:07:28Z</time>
      </trkpt>
      <trkpt lat="45.76188" lon="4.84885">
        <ele>184.2</ele>
        <time>2022-06-26T15:07:29Z</time>
      </trkpt>
      <trkpt lat="45.76189" lon="4.84892">
        <ele>184.2</ele>
        <time>2022-06-26T15:07:30Z</time>
      </trkpt>
      <trkpt lat="45.76189" lon="4.84899">
        <ele>184.2</ele>
        <time>2022-06-26T15:07:31Z</time>
      </trkpt>
      <trkpt lat="45.7619" lon="4.84905">
        <ele>184</ele>
        <time>2022-06-26T15:07:32Z</time>
      </trkpt>
      <trkpt lat="45.76191" lon="4.84912">
        <ele>184</ele>
        <time>2022-06-26T15:07:33Z</time>
      </trkpt>
      <trkpt lat="45.76191" lon="4.84919">
        <ele>184</ele>
        <time>2022-06-26T15:07:34Z</time>
      </trkpt>
      <trkpt lat="45.76192" lon="4.84925">
        <ele>184</ele>
        <time>2022-06-26T15:07:35Z</time>
      </trkpt>
      <trkpt lat="45.76192" lon="4.84932">
        <ele>184</ele>
        <time>2022-06-26T15:07:36Z</time>
      </trkpt>
      <trkpt lat="45.76193" lon="4.84939">
        <ele>184</ele>
        <time>2022-06-26T15:07:37Z</time>
      </trkpt>
      <trkpt lat="45.76192" lon="4.84946">
        <ele>184</ele>
        <time>2022-06-26T15:07:38Z</time>
      </trkpt>
      <trkpt lat="45.76192" lon="4.84952">
        <ele>184</ele>
        <time>2022-06-26T15:07:39Z</time>
      </trkpt>
      <trkpt lat="45.76192" lon="4.84959">
        <ele>184.2</ele>
        <time>2022-06-26T15:07:40Z</time>
      </trkpt>
      <trkpt lat="45.76192" lon="4.84967">
        <ele>184.2</ele>
        <time>2022-06-26T15:07:41Z</time>
      </trkpt>
      <trkpt lat="45.76193" lon="4.84974">
        <ele>184.2</ele>
        <time>2022-06-26T15:07:42Z</time>
      </trkpt>
      <trkpt lat="45.76193" lon="4.84982">
        <ele>184.2</ele>
        <time>2022-06-26T15:07:43Z</time>
      </trkpt>
      <trkpt lat="45.76194" lon="4.8499">
        <ele>184.2</ele>
        <time>2022-06-26T15:07:44Z</time>
      </trkpt>
      <trkpt lat="45.76195" lon="4.84998">
        <ele>184.2</ele>
        <time>2022-06-26T15:07:45Z</time>
      </trkpt>
      <trkpt lat="45.76196" lon="4.85006">
        <ele>184.2</ele>
        <time>2022-06-26T15:07:46Z</time>
      </trkpt>
      <trkpt lat="45.76197" lon="4.85015">
        <ele>184.2</ele>
        <time>2022-06-26T15:07:47Z</time>
      </trkpt>
      <trkpt lat="45.76198" lon="4.85022">
        <ele>184.2</ele>
        <time>2022-06-26T15:07:48Z</time>
      </trkpt>
      <trkpt lat="45.762" lon="4.8503">
        <ele>184.2</ele>
        <time>2022-06-26T15:07:49Z</time>
      </trkpt>
      <trkpt lat="45.76201" lon="4.85037">
        <ele>184.2</ele>
        <time>2022-06-26T15:07:50Z</time>
      </trkpt>
      <trkpt lat="45.76201" lon="4.85045">
        <ele>184.2</ele>
        <time>2022-06-26T15:07:51Z</time>
      </trkpt>
      <trkpt lat="45.76202" lon="4.85052">
        <ele>184.2</ele>
        <time>2022-06-26T15:07:52Z</time>
      </trkpt>
      <trkpt lat="45.76203" lon="4.8506">
        <ele>184.2</ele>
        <time>2022-06-26T15:07:53Z</time>
      </trkpt>
      <trkpt lat="45.76204" lon="4.85069">
        <ele>184.2</ele>
        <time>2022-06-26T15:07:54Z</time>
      </trkpt>
      <trkpt lat="45.76205" lon="4.85077">
        <ele>184.2</ele>
        <time>2022-06-26T15:07:55Z</time>
      </trkpt>
      <trkpt lat="45.76206" lon="4.85086">
        <ele>184.2</ele>
        <time>2022-06-26T15:07:56Z</time>
      </trkpt>
      <trkpt lat="45.76207" lon="4.85094">
        <ele>184</ele>
        <time>2022-06-26T15:07:57Z</time>
      </trkpt>
      <trkpt lat="45.76208" lon="4.85102">
        <ele>184</ele>
        <time>2022-06-26T15:07:58Z</time>
      </trkpt>
      <trkpt lat="45.76209" lon="4.85111">
        <ele>184</ele>
        <time>2022-06-26T15:07:59Z</time>
      </trkpt>
      <trkpt lat="45.7621" lon="4.85119">
        <ele>184</ele>
        <time>2022-06-26T15:08:00Z</time>
      </trkpt>
      <trkpt lat="45.7621" lon="4.85127">
        <ele>184</ele>
        <time>2022-06-26T15:08:01Z</time>
      </trkpt>
      <trkpt lat="45.76211" lon="4.85133">
        <ele>184</ele>
        <time>2022-06-26T15:08:02Z</time>
      </trkpt>
      <trkpt lat="45.76212" lon="4.85139">
        <ele>184</ele>
        <time>2022-06-26T15:08:03Z</time>
      </trkpt>
      <trkpt lat="45.76212" lon="4.85144">
        <ele>184</ele>
        <time>2022-06-26T15:08:04Z</time>
      </trkpt>
      <trkpt lat="45.76212" lon="4.85149">
        <ele>184</ele>
        <time>2022-06-26T15:08:05Z</time>
      </trkpt>
      <trkpt lat="45.76212" lon="4.85153">
        <ele>184.2</ele>
        <time>2022-06-26T15:08:06Z</time>
      </trkpt>
      <trkpt lat="45.76213" lon="4.85157">
        <ele>184.2</ele>
        <time>2022-06-26T15:08:07Z</time>
      </trkpt>
      <trkpt lat="45.76213" lon="4.8516">
        <ele>184.2</ele>
        <time>2022-06-26T15:08:08Z</time>
      </trkpt>
      <trkpt lat="45.76213" lon="4.85164">
        <ele>184.2</ele>
        <time>2022-06-26T15:08:09Z</time>
      </trkpt>
      <trkpt lat="45.76212" lon="4.85166">
        <ele>184.4</ele>
        <time>2022-06-26T15:08:10Z</time>
      </trkpt>
      <trkpt lat="45.76211" lon="4.85169">
        <ele>184.4</ele>
        <time>2022-06-26T15:08:11Z</time>
      </trkpt>
      <trkpt lat="45.76208" lon="4.8517">
        <ele>184.4</ele>
        <time>2022-06-26T15:08:12Z</time>
      </trkpt>
      <trkpt lat="45.76205" lon="4.8517">
        <ele>184.4</ele>
        <time>2022-06-26T15:08:13Z</time>
      </trkpt>
      <trkpt lat="45.76202" lon="4.8517">
        <ele>184.4</ele>
        <time>2022-06-26T15:08:14Z</time>
      </trkpt>
      <trkpt lat="45.76199" lon="4.85171">
        <ele>184.4</ele>
        <time>2022-06-26T15:08:15Z</time>
      </trkpt>
      <trkpt lat="45.76195" lon="4.85171">
        <ele>184.2</ele>
        <time>2022-06-26T15:08:16Z</time>
      </trkpt>
      <trkpt lat="45.76191" lon="4.85172">
        <ele>184.2</ele>
        <time>2022-06-26T15:08:17Z</time>
      </trkpt>
      <trkpt lat="45.76187" lon="4.85173">
        <ele>184.2</ele>
        <time>2022-06-26T15:08:18Z</time>
      </trkpt>
      <trkpt lat="45.76183" lon="4.85173">
        <ele>184.2</ele>
        <time>2022-06-26T15:08:19Z</time>
      </trkpt>
      <trkpt lat="45.76179" lon="4.85173">
        <ele>184.2</ele>
        <time>2022-06-26T15:08:20Z</time>
      </trkpt>
      <trkpt lat="45.76176" lon="4.85173">
        <ele>184.2</ele>
        <time>2022-06-26T15:08:21Z</time>
      </trkpt>
      <trkpt lat="45.76171" lon="4.85174">
        <ele>184.2</ele>
        <time>2022-06-26T15:08:22Z</time>
      </trkpt>
      <trkpt lat="45.76167" lon="4.85176">
        <ele>184.4</ele>
        <time>2022-06-26T15:08:23Z</time>
      </trkpt>
      <trkpt lat="45.76164" lon="4.85176">
        <ele>184.4</ele>
        <time>2022-06-26T15:08:24Z</time>
      </trkpt>
      <trkpt lat="45.7616" lon="4.85177">
        <ele>184.4</ele>
        <time>2022-06-26T15:08:25Z</time>
      </trkpt>
      <trkpt lat="45.76157" lon="4.85177">
        <ele>184.4</ele>
        <time>2022-06-26T15:08:26Z</time>
      </trkpt>
      <trkpt lat="45.76153" lon="4.85177">
        <ele>184.4</ele>
        <time>2022-06-26T15:08:27Z</time>
      </trkpt>
      <trkpt lat="45.76148" lon="4.85178">
        <ele>184.4</ele>
        <time>2022-06-26T15:08:28Z</time>
      </trkpt>
      <trkpt lat="45.76144" lon="4.85178">
        <ele>184.8</ele>
        <time>2022-06-26T15:08:29Z</time>
      </trkpt>
      <trkpt lat="45.7614" lon="4.85178">
        <ele>184.8</ele>
        <time>2022-06-26T15:08:30Z</time>
      </trkpt>
      <trkpt lat="45.76136" lon="4.85178">
        <ele>184.8</ele>
        <time>2022-06-26T15:08:31Z</time>
      </trkpt>
      <trkpt lat="45.76132" lon="4.85179">
        <ele>184.8</ele>
        <time>2022-06-26T15:08:32Z</time>
      </trkpt>
      <trkpt lat="45.76126" lon="4.8518">
        <ele>184.8</ele>
        <time>2022-06-26T15:08:33Z</time>
      </trkpt>
      <trkpt lat="45.76121" lon="4.85181">
        <ele>184.8</ele>
        <time>2022-06-26T15:08:34Z</time>
      </trkpt>
      <trkpt lat="45.76115" lon="4.85182">
        <ele>184.8</ele>
        <time>2022-06-26T15:08:35Z</time>
      </trkpt>
      <trkpt lat="45.7611" lon="4.85183">
        <ele>184.8</ele>
        <time>2022-06-26T15:08:36Z</time>
      </trkpt>
      <trkpt lat="45.76105" lon="4.85184">
        <ele>184.8</ele>
        <time>2022-06-26T15:08:37Z</time>
      </trkpt>
      <trkpt lat="45.76101" lon="4.85184">
        <ele>184.8</ele>
        <time>2022-06-26T15:08:38Z</time>
      </trkpt>
      <trkpt lat="45.76097" lon="4.85184">
        <ele>184.8</ele>
        <time>2022-06-26T15:08:39Z</time>
      </trkpt>
      <trkpt lat="45.76094" lon="4.85183">
        <ele>184.8</ele>
        <time>2022-06-26T15:08:40Z</time>
      </trkpt>
      <trkpt lat="45.76091" lon="4.85183">
        <ele>184.8</ele>
        <time>2022-06-26T15:08:41Z</time>
      </trkpt>
      <trkpt lat="45.76088" lon="4.85184">
        <ele>184.8</ele>
        <time>2022-06-26T15:08:42Z</time>
      </trkpt>
      <trkpt lat="45.76085" lon="4.85184">
        <ele>184.8</ele>
        <time>2022-06-26T15:08:43Z</time>
      </trkpt>
      <trkpt lat="45.76083" lon="4.85185">
        <ele>184.8</ele>
        <time>2022-06-26T15:08:44Z</time>
      </trkpt>
      <trkpt lat="45.7608" lon="4.85185">
        <ele>184.8</ele>
        <time>2022-06-26T15:08:45Z</time>
      </trkpt>
      <trkpt lat="45.76078" lon="4.85186">
        <ele>184.8</ele>
        <time>2022-06-26T15:08:46Z</time>
      </trkpt>
      <trkpt lat="45.76076" lon="4.85188">
        <ele>184.8</ele>
        <time>2022-06-26T15:08:47Z</time>
      </trkpt>
      <trkpt lat="45.76073" lon="4.85189">
        <ele>184.8</ele>
        <time>2022-06-26T15:08:48Z</time>
      </trkpt>
      <trkpt lat="45.76071" lon="4.85189">
        <ele>184.8</ele>
        <time>2022-06-26T15:08:49Z</time>
      </trkpt>
      <trkpt lat="45.76068" lon="4.8519">
        <ele>184.8</ele>
        <time>2022-06-26T15:08:50Z</time>
      </trkpt>
      <trkpt lat="45.76065" lon="4.8519">
        <ele>184.8</ele>
        <time>2022-06-26T15:08:51Z</time>
      </trkpt>
      <trkpt lat="45.76062" lon="4.85192">
        <ele>184.8</ele>
        <time>2022-06-26T15:08:52Z</time>
      </trkpt>
      <trkpt lat="45.76059" lon="4.85193">
        <ele>184.8</ele>
        <time>2022-06-26T15:08:53Z</time>
      </trkpt>
      <trkpt lat="45.76055" lon="4.85195">
        <ele>184.8</ele>
        <time>2022-06-26T15:08:54Z</time>
      </trkpt>
      <trkpt lat="45.76051" lon="4.85196">
        <ele>184.8</ele>
        <time>2022-06-26T15:08:55Z</time>
      </trkpt>
      <trkpt lat="45.76047" lon="4.85196">
        <ele>184.8</ele>
        <time>2022-06-26T15:08:56Z</time>
      </trkpt>
      <trkpt lat="45.76044" lon="4.85196">
        <ele>184.8</ele>
        <time>2022-06-26T15:08:57Z</time>
      </trkpt>
      <trkpt lat="45.76041" lon="4.85196">
        <ele>184.6</ele>
        <time>2022-06-26T15:08:58Z</time>
      </trkpt>
      <trkpt lat="45.76038" lon="4.85196">
        <ele>184.6</ele>
        <time>2022-06-26T15:08:59Z</time>
      </trkpt>
      <trkpt lat="45.76034" lon="4.85196">
        <ele>184.6</ele>
        <time>2022-06-26T15:09:00Z</time>
      </trkpt>
      <trkpt lat="45.76029" lon="4.85197">
        <ele>184.6</ele>
        <time>2022-06-26T15:09:01Z</time>
      </trkpt>
      <trkpt lat="45.76024" lon="4.85198">
        <ele>184.6</ele>
        <time>2022-06-26T15:09:02Z</time>
      </trkpt>
      <trkpt lat="45.7602" lon="4.85199">
        <ele>184.6</ele>
        <time>2022-06-26T15:09:03Z</time>
      </trkpt>
      <trkpt lat="45.76016" lon="4.852">
        <ele>184.6</ele>
        <time>2022-06-26T15:09:04Z</time>
      </trkpt>
      <trkpt lat="45.76013" lon="4.85202">
        <ele>184.6</ele>
        <time>2022-06-26T15:09:05Z</time>
      </trkpt>
      <trkpt lat="45.7601" lon="4.85204">
        <ele>184.6</ele>
        <time>2022-06-26T15:09:06Z</time>
      </trkpt>
      <trkpt lat="45.76006" lon="4.85205">
        <ele>184.6</ele>
        <time>2022-06-26T15:09:07Z</time>
      </trkpt>
      <trkpt lat="45.76003" lon="4.85206">
        <ele>184.6</ele>
        <time>2022-06-26T15:09:09Z</time>
      </trkpt>
      <trkpt lat="45.75999" lon="4.85207">
        <ele>184.6</ele>
        <time>2022-06-26T15:09:10Z</time>
      </trkpt>
      <trkpt lat="45.75995" lon="4.85208">
        <ele>184.6</ele>
        <time>2022-06-26T15:09:11Z</time>
      </trkpt>
      <trkpt lat="45.75992" lon="4.85209">
        <ele>184.6</ele>
        <time>2022-06-26T15:09:12Z</time>
      </trkpt>
      <trkpt lat="45.75987" lon="4.85211">
        <ele>184.6</ele>
        <time>2022-06-26T15:09:13Z</time>
      </trkpt>
      <trkpt lat="45.75983" lon="4.85212">
        <ele>184.6</ele>
        <time>2022-06-26T15:09:14Z</time>
      </trkpt>
      <trkpt lat="45.75979" lon="4.85213">
        <ele>184.6</ele>
        <time>2022-06-26T15:09:15Z</time>
      </trkpt>
      <trkpt lat="45.75975" lon="4.85214">
        <ele>184.6</ele>
        <time>2022-06-26T15:09:16Z</time>
      </trkpt>
      <trkpt lat="45.75971" lon="4.85215">
        <ele>184.6</ele>
        <time>2022-06-26T15:09:17Z</time>
      </trkpt>
      <trkpt lat="45.75967" lon="4.85215">
        <ele>184.6</ele>
        <time>2022-06-26T15:09:18Z</time>
      </trkpt>
      <trkpt lat="45.75963" lon="4.85217">
        <ele>184.6</ele>
        <time>2022-06-26T15:09:19Z</time>
      </trkpt>
      <trkpt lat="45.75959" lon="4.85217">
        <ele>184.6</ele>
        <time>2022-06-26T15:09:20Z</time>
      </trkpt>
      <trkpt lat="45.75956" lon="4.85217">
        <ele>184.6</ele>
        <time>2022-06-26T15:09:21Z</time>
      </trkpt>
      <trkpt lat="45.75953" lon="4.85219">
        <ele>184.6</ele>
        <time>2022-06-26T15:09:22Z</time>
      </trkpt>
      <trkpt lat="45.7595" lon="4.85219">
        <ele>184.6</ele>
        <time>2022-06-26T15:09:23Z</time>
      </trkpt>
      <trkpt lat="45.75948" lon="4.8522">
        <ele>184.6</ele>
        <time>2022-06-26T15:09:24Z</time>
      </trkpt>
      <trkpt lat="45.75946" lon="4.85221">
        <ele>184.4</ele>
        <time>2022-06-26T15:09:25Z</time>
      </trkpt>
      <trkpt lat="45.75943" lon="4.85222">
        <ele>184.4</ele>
        <time>2022-06-26T15:09:26Z</time>
      </trkpt>
      <trkpt lat="45.75941" lon="4.85224">
        <ele>184.4</ele>
        <time>2022-06-26T15:09:27Z</time>
      </trkpt>
      <trkpt lat="45.75939" lon="4.85225">
        <ele>184.4</ele>
        <time>2022-06-26T15:09:28Z</time>
      </trkpt>
      <trkpt lat="45.75937" lon="4.85226">
        <ele>184.4</ele>
        <time>2022-06-26T15:09:29Z</time>
      </trkpt>
      <trkpt lat="45.75936" lon="4.85227">
        <ele>184.4</ele>
        <time>2022-06-26T15:09:30Z</time>
      </trkpt>
      <trkpt lat="45.75936" lon="4.85237">
        <ele>184.2</ele>
        <time>2022-06-26T15:09:46Z</time>
      </trkpt>
      <trkpt lat="45.75936" lon="4.8524">
        <ele>184.2</ele>
        <time>2022-06-26T15:09:47Z</time>
      </trkpt>
      <trkpt lat="45.75937" lon="4.85244">
        <ele>184.4</ele>
        <time>2022-06-26T15:09:48Z</time>
      </trkpt>
      <trkpt lat="45.75937" lon="4.85248">
        <ele>184.4</ele>
        <time>2022-06-26T15:09:49Z</time>
      </trkpt>
      <trkpt lat="45.75937" lon="4.85252">
        <ele>184.4</ele>
        <time>2022-06-26T15:09:50Z</time>
      </trkpt>
      <trkpt lat="45.75936" lon="4.85256">
        <ele>184.4</ele>
        <time>2022-06-26T15:09:51Z</time>
      </trkpt>
      <trkpt lat="45.75935" lon="4.8526">
        <ele>184.4</ele>
        <time>2022-06-26T15:09:52Z</time>
      </trkpt>
      <trkpt lat="45.75935" lon="4.85265">
        <ele>184.4</ele>
        <time>2022-06-26T15:09:53Z</time>
      </trkpt>
      <trkpt lat="45.75935" lon="4.85269">
        <ele>184.4</ele>
        <time>2022-06-26T15:09:54Z</time>
      </trkpt>
      <trkpt lat="45.75935" lon="4.85273">
        <ele>184.4</ele>
        <time>2022-06-26T15:09:55Z</time>
      </trkpt>
      <trkpt lat="45.75935" lon="4.85277">
        <ele>184.4</ele>
        <time>2022-06-26T15:09:56Z</time>
      </trkpt>
      <trkpt lat="45.75935" lon="4.85281">
        <ele>184.4</ele>
        <time>2022-06-26T15:09:57Z</time>
      </trkpt>
      <trkpt lat="45.75936" lon="4.85285">
        <ele>184.4</ele>
        <time>2022-06-26T15:09:58Z</time>
      </trkpt>
      <trkpt lat="45.75936" lon="4.85289">
        <ele>184.4</ele>
        <time>2022-06-26T15:09:59Z</time>
      </trkpt>
      <trkpt lat="45.75936" lon="4.85293">
        <ele>184.4</ele>
        <time>2022-06-26T15:10:00Z</time>
      </trkpt>
      <trkpt lat="45.75935" lon="4.85298">
        <ele>184.4</ele>
        <time>2022-06-26T15:10:01Z</time>
      </trkpt>
      <trkpt lat="45.75935" lon="4.85302">
        <ele>184.4</ele>
        <time>2022-06-26T15:10:02Z</time>
      </trkpt>
      <trkpt lat="45.75935" lon="4.85307">
        <ele>184.6</ele>
        <time>2022-06-26T15:10:03Z</time>
      </trkpt>
      <trkpt lat="45.75936" lon="4.85312">
        <ele>184.6</ele>
        <time>2022-06-26T15:10:04Z</time>
      </trkpt>
      <trkpt lat="45.75936" lon="4.85316">
        <ele>184.6</ele>
        <time>2022-06-26T15:10:05Z</time>
      </trkpt>
      <trkpt lat="45.75936" lon="4.8532">
        <ele>184.6</ele>
        <time>2022-06-26T15:10:06Z</time>
      </trkpt>
      <trkpt lat="45.75936" lon="4.85324">
        <ele>184.6</ele>
        <time>2022-06-26T15:10:07Z</time>
      </trkpt>
      <trkpt lat="45.75936" lon="4.85329">
        <ele>184.6</ele>
        <time>2022-06-26T15:10:08Z</time>
      </trkpt>
      <trkpt lat="45.75937" lon="4.85334">
        <ele>184.6</ele>
        <time>2022-06-26T15:10:09Z</time>
      </trkpt>
      <trkpt lat="45.75939" lon="4.85339">
        <ele>184.6</ele>
        <time>2022-06-26T15:10:10Z</time>
      </trkpt>
      <trkpt lat="45.7594" lon="4.85344">
        <ele>184.6</ele>
        <time>2022-06-26T15:10:11Z</time>
      </trkpt>
      <trkpt lat="45.75941" lon="4.8535">
        <ele>184.6</ele>
        <time>2022-06-26T15:10:12Z</time>
      </trkpt>
      <trkpt lat="45.75942" lon="4.85356">
        <ele>184.6</ele>
        <time>2022-06-26T15:10:13Z</time>
      </trkpt>
      <trkpt lat="45.75943" lon="4.85361">
        <ele>184.6</ele>
        <time>2022-06-26T15:10:14Z</time>
      </trkpt>
      <trkpt lat="45.75944" lon="4.85366">
        <ele>184.6</ele>
        <time>2022-06-26T15:10:15Z</time>
      </trkpt>
      <trkpt lat="45.75946" lon="4.8537">
        <ele>184.6</ele>
        <time>2022-06-26T15:10:16Z</time>
      </trkpt>
      <trkpt lat="45.75946" lon="4.85375">
        <ele>184.6</ele>
        <time>2022-06-26T15:10:17Z</time>
      </trkpt>
      <trkpt lat="45.75947" lon="4.8538">
        <ele>184.6</ele>
        <time>2022-06-26T15:10:18Z</time>
      </trkpt>
      <trkpt lat="45.75947" lon="4.85385">
        <ele>184.6</ele>
        <time>2022-06-26T15:10:19Z</time>
      </trkpt>
      <trkpt lat="45.75948" lon="4.8539">
        <ele>184.6</ele>
        <time>2022-06-26T15:10:20Z</time>
      </trkpt>
      <trkpt lat="45.75948" lon="4.85396">
        <ele>184.6</ele>
        <time>2022-06-26T15:10:21Z</time>
      </trkpt>
      <trkpt lat="45.75949" lon="4.85401">
        <ele>184.6</ele>
        <time>2022-06-26T15:10:22Z</time>
      </trkpt>
      <trkpt lat="45.7595" lon="4.85405">
        <ele>184.6</ele>
        <time>2022-06-26T15:10:23Z</time>
      </trkpt>
      <trkpt lat="45.7595" lon="4.8541">
        <ele>184.6</ele>
        <time>2022-06-26T15:10:24Z</time>
      </trkpt>
      <trkpt lat="45.7595" lon="4.85415">
        <ele>184.6</ele>
        <time>2022-06-26T15:10:25Z</time>
      </trkpt>
      <trkpt lat="45.7595" lon="4.85419">
        <ele>184.6</ele>
        <time>2022-06-26T15:10:26Z</time>
      </trkpt>
      <trkpt lat="45.7595" lon="4.85423">
        <ele>184.6</ele>
        <time>2022-06-26T15:10:27Z</time>
      </trkpt>
      <trkpt lat="45.7595" lon="4.85428">
        <ele>184.6</ele>
        <time>2022-06-26T15:10:28Z</time>
      </trkpt>
      <trkpt lat="45.7595" lon="4.85433">
        <ele>184.6</ele>
        <time>2022-06-26T15:10:29Z</time>
      </trkpt>
      <trkpt lat="45.7595" lon="4.85438">
        <ele>184.6</ele>
        <time>2022-06-26T15:10:30Z</time>
      </trkpt>
      <trkpt lat="45.75951" lon="4.85444">
        <ele>184.6</ele>
        <time>2022-06-26T15:10:31Z</time>
      </trkpt>
      <trkpt lat="45.75952" lon="4.8545">
        <ele>184.6</ele>
        <time>2022-06-26T15:10:32Z</time>
      </trkpt>
      <trkpt lat="45.75952" lon="4.85455">
        <ele>184.6</ele>
        <time>2022-06-26T15:10:33Z</time>
      </trkpt>
      <trkpt lat="45.75953" lon="4.8546">
        <ele>184.6</ele>
        <time>2022-06-26T15:10:34Z</time>
      </trkpt>
      <trkpt lat="45.75953" lon="4.85465">
        <ele>184.6</ele>
        <time>2022-06-26T15:10:35Z</time>
      </trkpt>
      <trkpt lat="45.75953" lon="4.8547">
        <ele>184.6</ele>
        <time>2022-06-26T15:10:36Z</time>
      </trkpt>
      <trkpt lat="45.75953" lon="4.85474">
        <ele>184.6</ele>
        <time>2022-06-26T15:10:37Z</time>
      </trkpt>
      <trkpt lat="45.75953" lon="4.85479">
        <ele>184.6</ele>
        <time>2022-06-26T15:10:38Z</time>
      </trkpt>
      <trkpt lat="45.75953" lon="4.85482">
        <ele>184.6</ele>
        <time>2022-06-26T15:10:39Z</time>
      </trkpt>
      <trkpt lat="45.75953" lon="4.85486">
        <ele>184.6</ele>
        <time>2022-06-26T15:10:40Z</time>
      </trkpt>
      <trkpt lat="45.75953" lon="4.85488">
        <ele>184.6</ele>
        <time>2022-06-26T15:10:41Z</time>
      </trkpt>
      <trkpt lat="45.75953" lon="4.85491">
        <ele>184.8</ele>
        <time>2022-06-26T15:10:42Z</time>
      </trkpt>
      <trkpt lat="45.75953" lon="4.85493">
        <ele>184.8</ele>
        <time>2022-06-26T15:10:43Z</time>
      </trkpt>
      <trkpt lat="45.75953" lon="4.85495">
        <ele>184.8</ele>
        <time>2022-06-26T15:10:44Z</time>
      </trkpt>
      <trkpt lat="45.75953" lon="4.85496">
        <ele>184.8</ele>
        <time>2022-06-26T15:10:45Z</time>
      </trkpt>
      <trkpt lat="45.75952" lon="4.85501">
        <ele>184.8</ele>
        <time>2022-06-26T15:10:48Z</time>
      </trkpt>
      <trkpt lat="45.75952" lon="4.85504">
        <ele>184.8</ele>
        <time>2022-06-26T15:10:49Z</time>
      </trkpt>
      <trkpt lat="45.75952" lon="4.85508">
        <ele>184.8</ele>
        <time>2022-06-26T15:10:50Z</time>
      </trkpt>
      <trkpt lat="45.75953" lon="4.85512">
        <ele>184.8</ele>
        <time>2022-06-26T15:10:51Z</time>
      </trkpt>
      <trkpt lat="45.75953" lon="4.85516">
        <ele>184.8</ele>
        <time>2022-06-26T15:10:52Z</time>
      </trkpt>
      <trkpt lat="45.75953" lon="4.8552">
        <ele>184.8</ele>
        <time>2022-06-26T15:10:53Z</time>
      </trkpt>
      <trkpt lat="45.75954" lon="4.85524">
        <ele>185</ele>
        <time>2022-06-26T15:10:54Z</time>
      </trkpt>
      <trkpt lat="45.75954" lon="4.8553">
        <ele>185</ele>
        <time>2022-06-26T15:10:55Z</time>
      </trkpt>
      <trkpt lat="45.75955" lon="4.85535">
        <ele>185</ele>
        <time>2022-06-26T15:10:56Z</time>
      </trkpt>
      <trkpt lat="45.75956" lon="4.8554">
        <ele>185</ele>
        <time>2022-06-26T15:10:57Z</time>
      </trkpt>
      <trkpt lat="45.75956" lon="4.85545">
        <ele>185</ele>
        <time>2022-06-26T15:10:58Z</time>
      </trkpt>
      <trkpt lat="45.75956" lon="4.85548">
        <ele>184.8</ele>
        <time>2022-06-26T15:10:59Z</time>
      </trkpt>
      <trkpt lat="45.75957" lon="4.85552">
        <ele>184.8</ele>
        <time>2022-06-26T15:11:00Z</time>
      </trkpt>
      <trkpt lat="45.75957" lon="4.85557">
        <ele>184.8</ele>
        <time>2022-06-26T15:11:01Z</time>
      </trkpt>
      <trkpt lat="45.75958" lon="4.85562">
        <ele>184.8</ele>
        <time>2022-06-26T15:11:02Z</time>
      </trkpt>
      <trkpt lat="45.75958" lon="4.85567">
        <ele>184.8</ele>
        <time>2022-06-26T15:11:03Z</time>
      </trkpt>
      <trkpt lat="45.75958" lon="4.85572">
        <ele>184.8</ele>
        <time>2022-06-26T15:11:04Z</time>
      </trkpt>
      <trkpt lat="45.75958" lon="4.85576">
        <ele>184.8</ele>
        <time>2022-06-26T15:11:05Z</time>
      </trkpt>
      <trkpt lat="45.75958" lon="4.8558">
        <ele>184.8</ele>
        <time>2022-06-26T15:11:06Z</time>
      </trkpt>
      <trkpt lat="45.75958" lon="4.85585">
        <ele>184.8</ele>
        <time>2022-06-26T15:11:07Z</time>
      </trkpt>
      <trkpt lat="45.75957" lon="4.85589">
        <ele>185</ele>
        <time>2022-06-26T15:11:08Z</time>
      </trkpt>
      <trkpt lat="45.75957" lon="4.85594">
        <ele>185</ele>
        <time>2022-06-26T15:11:09Z</time>
      </trkpt>
      <trkpt lat="45.75956" lon="4.85599">
        <ele>185</ele>
        <time>2022-06-26T15:11:10Z</time>
      </trkpt>
      <trkpt lat="45.75955" lon="4.85604">
        <ele>185.2</ele>
        <time>2022-06-26T15:11:11Z</time>
      </trkpt>
      <trkpt lat="45.75955" lon="4.85609">
        <ele>185.2</ele>
        <time>2022-06-26T15:11:12Z</time>
      </trkpt>
      <trkpt lat="45.75956" lon="4.85615">
        <ele>185.4</ele>
        <time>2022-06-26T15:11:13Z</time>
      </trkpt>
      <trkpt lat="45.75957" lon="4.8562">
        <ele>185.4</ele>
        <time>2022-06-26T15:11:14Z</time>
      </trkpt>
      <trkpt lat="45.75957" lon="4.85626">
        <ele>185.4</ele>
        <time>2022-06-26T15:11:15Z</time>
      </trkpt>
      <trkpt lat="45.75959" lon="4.85632">
        <ele>185.4</ele>
        <time>2022-06-26T15:11:16Z</time>
      </trkpt>
      <trkpt lat="45.75959" lon="4.85637">
        <ele>185.4</ele>
        <time>2022-06-26T15:11:17Z</time>
      </trkpt>
      <trkpt lat="45.75958" lon="4.85643">
        <ele>185.4</ele>
        <time>2022-06-26T15:11:18Z</time>
      </trkpt>
      <trkpt lat="45.75958" lon="4.85648">
        <ele>185.4</ele>
        <time>2022-06-26T15:11:19Z</time>
      </trkpt>
      <trkpt lat="45.75959" lon="4.85653">
        <ele>185.4</ele>
        <time>2022-06-26T15:11:20Z</time>
      </trkpt>
      <trkpt lat="45.7596" lon="4.85657">
        <ele>185.4</ele>
        <time>2022-06-26T15:11:21Z</time>
      </trkpt>
      <trkpt lat="45.75963" lon="4.8566">
        <ele>185.6</ele>
        <time>2022-06-26T15:11:22Z</time>
      </trkpt>
      <trkpt lat="45.75967" lon="4.85663">
        <ele>185.6</ele>
        <time>2022-06-26T15:11:23Z</time>
      </trkpt>
      <trkpt lat="45.7597" lon="4.85665">
        <ele>185.6</ele>
        <time>2022-06-26T15:11:24Z</time>
      </trkpt>
      <trkpt lat="45.75972" lon="4.85668">
        <ele>185.6</ele>
        <time>2022-06-26T15:11:25Z</time>
      </trkpt>
      <trkpt lat="45.75975" lon="4.85671">
        <ele>185.6</ele>
        <time>2022-06-26T15:11:26Z</time>
      </trkpt>
      <trkpt lat="45.75977" lon="4.85674">
        <ele>185.6</ele>
        <time>2022-06-26T15:11:27Z</time>
      </trkpt>
      <trkpt lat="45.7598" lon="4.85678">
        <ele>185.6</ele>
        <time>2022-06-26T15:11:28Z</time>
      </trkpt>
      <trkpt lat="45.75981" lon="4.85682">
        <ele>185.6</ele>
        <time>2022-06-26T15:11:29Z</time>
      </trkpt>
      <trkpt lat="45.75982" lon="4.85686">
        <ele>185.6</ele>
        <time>2022-06-26T15:11:30Z</time>
      </trkpt>
      <trkpt lat="45.75983" lon="4.85691">
        <ele>185.6</ele>
        <time>2022-06-26T15:11:31Z</time>
      </trkpt>
      <trkpt lat="45.75984" lon="4.85696">
        <ele>185.6</ele>
        <time>2022-06-26T15:11:32Z</time>
      </trkpt>
      <trkpt lat="45.75985" lon="4.85701">
        <ele>185.6</ele>
        <time>2022-06-26T15:11:33Z</time>
      </trkpt>
      <trkpt lat="45.75986" lon="4.85706">
        <ele>185.6</ele>
        <time>2022-06-26T15:11:34Z</time>
      </trkpt>
      <trkpt lat="45.75987" lon="4.8571">
        <ele>185.6</ele>
        <time>2022-06-26T15:11:35Z</time>
      </trkpt>
      <trkpt lat="45.75988" lon="4.85714">
        <ele>185.6</ele>
        <time>2022-06-26T15:11:36Z</time>
      </trkpt>
      <trkpt lat="45.75989" lon="4.85718">
        <ele>185.6</ele>
        <time>2022-06-26T15:11:37Z</time>
      </trkpt>
      <trkpt lat="45.7599" lon="4.85723">
        <ele>185.6</ele>
        <time>2022-06-26T15:11:38Z</time>
      </trkpt>
      <trkpt lat="45.75991" lon="4.85727">
        <ele>185.6</ele>
        <time>2022-06-26T15:11:39Z</time>
      </trkpt>
      <trkpt lat="45.75991" lon="4.85731">
        <ele>185.6</ele>
        <time>2022-06-26T15:11:40Z</time>
      </trkpt>
      <trkpt lat="45.75991" lon="4.85735">
        <ele>185.6</ele>
        <time>2022-06-26T15:11:41Z</time>
      </trkpt>
      <trkpt lat="45.75991" lon="4.85739">
        <ele>185.6</ele>
        <time>2022-06-26T15:11:42Z</time>
      </trkpt>
      <trkpt lat="45.75993" lon="4.85744">
        <ele>185.6</ele>
        <time>2022-06-26T15:11:43Z</time>
      </trkpt>
      <trkpt lat="45.75993" lon="4.85748">
        <ele>185.6</ele>
        <time>2022-06-26T15:11:44Z</time>
      </trkpt>
      <trkpt lat="45.75994" lon="4.85752">
        <ele>185.6</ele>
        <time>2022-06-26T15:11:45Z</time>
      </trkpt>
      <trkpt lat="45.75995" lon="4.85759">
        <ele>185.6</ele>
        <time>2022-06-26T15:11:46Z</time>
      </trkpt>
      <trkpt lat="45.75997" lon="4.85763">
        <ele>185.6</ele>
        <time>2022-06-26T15:11:47Z</time>
      </trkpt>
      <trkpt lat="45.75997" lon="4.85766">
        <ele>185.6</ele>
        <time>2022-06-26T15:11:48Z</time>
      </trkpt>
      <trkpt lat="45.75998" lon="4.8577">
        <ele>185.6</ele>
        <time>2022-06-26T15:11:49Z</time>
      </trkpt>
      <trkpt lat="45.75999" lon="4.85773">
        <ele>185.6</ele>
        <time>2022-06-26T15:11:50Z</time>
      </trkpt>
      <trkpt lat="45.76" lon="4.85777">
        <ele>185.6</ele>
        <time>2022-06-26T15:11:51Z</time>
      </trkpt>
      <trkpt lat="45.76001" lon="4.85781">
        <ele>185.6</ele>
        <time>2022-06-26T15:11:52Z</time>
      </trkpt>
      <trkpt lat="45.76002" lon="4.85784">
        <ele>185.6</ele>
        <time>2022-06-26T15:11:53Z</time>
      </trkpt>
      <trkpt lat="45.76001" lon="4.85788">
        <ele>185.6</ele>
        <time>2022-06-26T15:11:54Z</time>
      </trkpt>
      <trkpt lat="45.76" lon="4.85791">
        <ele>185.4</ele>
        <time>2022-06-26T15:11:55Z</time>
      </trkpt>
      <trkpt lat="45.76" lon="4.85795">
        <ele>185.4</ele>
        <time>2022-06-26T15:11:56Z</time>
      </trkpt>
      <trkpt lat="45.76001" lon="4.85799">
        <ele>185.4</ele>
        <time>2022-06-26T15:11:57Z</time>
      </trkpt>
      <trkpt lat="45.76003" lon="4.85802">
        <ele>185.4</ele>
        <time>2022-06-26T15:11:58Z</time>
      </trkpt>
      <trkpt lat="45.76006" lon="4.85805">
        <ele>185.4</ele>
        <time>2022-06-26T15:11:59Z</time>
      </trkpt>
      <trkpt lat="45.76008" lon="4.85807">
        <ele>185.4</ele>
        <time>2022-06-26T15:12:00Z</time>
      </trkpt>
      <trkpt lat="45.76011" lon="4.85807">
        <ele>185.4</ele>
        <time>2022-06-26T15:12:01Z</time>
      </trkpt>
      <trkpt lat="45.76014" lon="4.85807">
        <ele>185.6</ele>
        <time>2022-06-26T15:12:02Z</time>
      </trkpt>
      <trkpt lat="45.76016" lon="4.85806">
        <ele>185.6</ele>
        <time>2022-06-26T15:12:03Z</time>
      </trkpt>
      <trkpt lat="45.76019" lon="4.85806">
        <ele>185.6</ele>
        <time>2022-06-26T15:12:04Z</time>
      </trkpt>
      <trkpt lat="45.76021" lon="4.85806">
        <ele>185.6</ele>
        <time>2022-06-26T15:12:05Z</time>
      </trkpt>
      <trkpt lat="45.76025" lon="4.85806">
        <ele>185.6</ele>
        <time>2022-06-26T15:12:06Z</time>
      </trkpt>
      <trkpt lat="45.76028" lon="4.85805">
        <ele>185.6</ele>
        <time>2022-06-26T15:12:07Z</time>
      </trkpt>
      <trkpt lat="45.76031" lon="4.85804">
        <ele>185.6</ele>
        <time>2022-06-26T15:12:08Z</time>
      </trkpt>
      <trkpt lat="45.76035" lon="4.85803">
        <ele>185.6</ele>
        <time>2022-06-26T15:12:09Z</time>
      </trkpt>
      <trkpt lat="45.76038" lon="4.85803">
        <ele>185.6</ele>
        <time>2022-06-26T15:12:10Z</time>
      </trkpt>
      <trkpt lat="45.7604" lon="4.85803">
        <ele>185.6</ele>
        <time>2022-06-26T15:12:11Z</time>
      </trkpt>
      <trkpt lat="45.76043" lon="4.85804">
        <ele>185.6</ele>
        <time>2022-06-26T15:12:12Z</time>
      </trkpt>
      <trkpt lat="45.76047" lon="4.85804">
        <ele>185.6</ele>
        <time>2022-06-26T15:12:13Z</time>
      </trkpt>
      <trkpt lat="45.7605" lon="4.85805">
        <ele>185.6</ele>
        <time>2022-06-26T15:12:14Z</time>
      </trkpt>
      <trkpt lat="45.76053" lon="4.85806">
        <ele>186</ele>
        <time>2022-06-26T15:12:15Z</time>
      </trkpt>
      <trkpt lat="45.76056" lon="4.85807">
        <ele>186</ele>
        <time>2022-06-26T15:12:16Z</time>
      </trkpt>
      <trkpt lat="45.76058" lon="4.85808">
        <ele>186</ele>
        <time>2022-06-26T15:12:17Z</time>
      </trkpt>
      <trkpt lat="45.76061" lon="4.85807">
        <ele>186</ele>
        <time>2022-06-26T15:12:18Z</time>
      </trkpt>
      <trkpt lat="45.76064" lon="4.85806">
        <ele>186</ele>
        <time>2022-06-26T15:12:19Z</time>
      </trkpt>
      <trkpt lat="45.76067" lon="4.85804">
        <ele>186</ele>
        <time>2022-06-26T15:12:20Z</time>
      </trkpt>
      <trkpt lat="45.76071" lon="4.85803">
        <ele>186</ele>
        <time>2022-06-26T15:12:21Z</time>
      </trkpt>
      <trkpt lat="45.76074" lon="4.85803">
        <ele>186</ele>
        <time>2022-06-26T15:12:22Z</time>
      </trkpt>
      <trkpt lat="45.76078" lon="4.85803">
        <ele>186</ele>
        <time>2022-06-26T15:12:23Z</time>
      </trkpt>
      <trkpt lat="45.76081" lon="4.85803">
        <ele>186</ele>
        <time>2022-06-26T15:12:24Z</time>
      </trkpt>
      <trkpt lat="45.76084" lon="4.85803">
        <ele>186</ele>
        <time>2022-06-26T15:12:25Z</time>
      </trkpt>
      <trkpt lat="45.76087" lon="4.85803">
        <ele>186</ele>
        <time>2022-06-26T15:12:26Z</time>
      </trkpt>
      <trkpt lat="45.7609" lon="4.85802">
        <ele>186</ele>
        <time>2022-06-26T15:12:27Z</time>
      </trkpt>
      <trkpt lat="45.76092" lon="4.85801">
        <ele>186</ele>
        <time>2022-06-26T15:12:28Z</time>
      </trkpt>
      <trkpt lat="45.76094" lon="4.858">
        <ele>186</ele>
        <time>2022-06-26T15:12:29Z</time>
      </trkpt>
      <trkpt lat="45.76096" lon="4.85799">
        <ele>186</ele>
        <time>2022-06-26T15:12:30Z</time>
      </trkpt>
      <trkpt lat="45.76097" lon="4.85799">
        <ele>186</ele>
        <time>2022-06-26T15:12:31Z</time>
      </trkpt>
    </trkseg>
  </trk>
</gpx>